<?xml version="1.0" encoding="UTF-8"?>
<gpx version="1.1" creator="https://www.youtrack.es" xsi:schemaLocation="http://www.topografix.com/GPX/1/1 http://www.topografix.com/GPX/1/1/gpx.xsd http://www.garmin.com/xmlschemas/GpxExtensions/v3 http://www.garmin.com/xmlschemas/GpxExtensionsv3.xsd http://www.garmin.com/xmlschemas/TrackPointExtension/v1 http://www.garmin.com/xmlschemas/TrackPointExtensionv1.xsd" xmlns:gpxtpx="http://www.garmin.com/xmlschemas/TrackPointExtension/v1" xmlns:gpxx="http://www.garmin.com/xmlschemas/GpxExtensions/v3" xmlns:xsi="http://www.w3.org/2001/XMLSchema-instance">
  <metadata>
    <link href="https://www.youtrack.es">
      <text>YouTrack.es</text>
    </link>
    <time>2026-05-09T03:12:36Z</time>
  </metadata>
  <trk>
    <src>https://www.youtrack.es</src>
    <link href="https://www.youtrack.es/ruta/7220-roncesvalles-irabia">
      <text>YouTrack.es</text>
    </link>
    <trkseg>
      <trkpt lat="43.007855" lon="-1.317205">
        <ele>935.0</ele>
        <time>2019-07-31T08:31:05.106Z</time>
      </trkpt>
      <trkpt lat="43.00785333" lon="-1.31715833">
        <ele>930.0</ele>
        <time>2019-07-31T08:31:07.114Z</time>
      </trkpt>
      <trkpt lat="43.00786" lon="-1.31716833">
        <ele>931.0</ele>
        <time>2019-07-31T08:31:08.115Z</time>
      </trkpt>
      <trkpt lat="43.00789167" lon="-1.31720333">
        <ele>932.0</ele>
        <time>2019-07-31T08:31:09.121Z</time>
      </trkpt>
      <trkpt lat="43.00789167" lon="-1.31722">
        <ele>932.0</ele>
        <time>2019-07-31T08:31:10.124Z</time>
      </trkpt>
      <trkpt lat="43.00788667" lon="-1.31722333">
        <ele>931.0</ele>
        <time>2019-07-31T08:31:11.129Z</time>
      </trkpt>
      <trkpt lat="43.00788333" lon="-1.317225">
        <ele>930.0</ele>
        <time>2019-07-31T08:31:12.135Z</time>
      </trkpt>
      <trkpt lat="43.00787667" lon="-1.31722">
        <ele>928.0</ele>
        <time>2019-07-31T08:31:13.140Z</time>
      </trkpt>
      <trkpt lat="43.00786833" lon="-1.31722833">
        <ele>928.0</ele>
        <time>2019-07-31T08:31:14.145Z</time>
      </trkpt>
      <trkpt lat="43.00785667" lon="-1.31723333">
        <ele>928.0</ele>
        <time>2019-07-31T08:31:15.149Z</time>
      </trkpt>
      <trkpt lat="43.00783667" lon="-1.31722833">
        <ele>929.0</ele>
        <time>2019-07-31T08:31:16.153Z</time>
      </trkpt>
      <trkpt lat="43.00781667" lon="-1.317215">
        <ele>930.0</ele>
        <time>2019-07-31T08:31:17.160Z</time>
      </trkpt>
      <trkpt lat="43.00780333" lon="-1.31719667">
        <ele>931.0</ele>
        <time>2019-07-31T08:31:18.166Z</time>
      </trkpt>
      <trkpt lat="43.00778833" lon="-1.31717333">
        <ele>931.0</ele>
        <time>2019-07-31T08:31:19.172Z</time>
      </trkpt>
      <trkpt lat="43.00777667" lon="-1.31715333">
        <ele>940.0</ele>
        <time>2019-07-31T08:31:20.177Z</time>
      </trkpt>
      <trkpt lat="43.007765" lon="-1.317135">
        <ele>939.0</ele>
        <time>2019-07-31T08:31:21.184Z</time>
      </trkpt>
      <trkpt lat="43.00775833" lon="-1.31712167">
        <ele>940.0</ele>
        <time>2019-07-31T08:31:22.063Z</time>
      </trkpt>
      <trkpt lat="43.00775167" lon="-1.31711">
        <ele>939.0</ele>
        <time>2019-07-31T08:31:23.067Z</time>
      </trkpt>
      <trkpt lat="43.00774167" lon="-1.31709833">
        <ele>939.0</ele>
        <time>2019-07-31T08:31:24.073Z</time>
      </trkpt>
      <trkpt lat="43.00773667" lon="-1.317085">
        <ele>939.0</ele>
        <time>2019-07-31T08:31:25.078Z</time>
      </trkpt>
      <trkpt lat="43.00772667" lon="-1.31706833">
        <ele>939.0</ele>
        <time>2019-07-31T08:31:26.081Z</time>
      </trkpt>
      <trkpt lat="43.00771833" lon="-1.31704833">
        <ele>940.0</ele>
        <time>2019-07-31T08:31:27.085Z</time>
      </trkpt>
      <trkpt lat="43.00771333" lon="-1.31703167">
        <ele>939.0</ele>
        <time>2019-07-31T08:31:28.090Z</time>
      </trkpt>
      <trkpt lat="43.00770333" lon="-1.31701833">
        <ele>939.0</ele>
        <time>2019-07-31T08:31:29.094Z</time>
      </trkpt>
      <trkpt lat="43.00769333" lon="-1.31700167">
        <ele>938.0</ele>
        <time>2019-07-31T08:31:30.098Z</time>
      </trkpt>
      <trkpt lat="43.00768" lon="-1.31698333">
        <ele>937.0</ele>
        <time>2019-07-31T08:31:31.104Z</time>
      </trkpt>
      <trkpt lat="43.00766667" lon="-1.316965">
        <ele>937.0</ele>
        <time>2019-07-31T08:31:32.111Z</time>
      </trkpt>
      <trkpt lat="43.007655" lon="-1.31695">
        <ele>936.0</ele>
        <time>2019-07-31T08:31:33.118Z</time>
      </trkpt>
      <trkpt lat="43.00765167" lon="-1.316935">
        <ele>936.0</ele>
        <time>2019-07-31T08:31:34.124Z</time>
      </trkpt>
      <trkpt lat="43.00764667" lon="-1.31692">
        <ele>936.0</ele>
        <time>2019-07-31T08:31:35.129Z</time>
      </trkpt>
      <trkpt lat="43.00764167" lon="-1.3169">
        <ele>936.0</ele>
        <time>2019-07-31T08:31:36.133Z</time>
      </trkpt>
      <trkpt lat="43.00763333" lon="-1.31688167">
        <ele>937.0</ele>
        <time>2019-07-31T08:31:37.140Z</time>
      </trkpt>
      <trkpt lat="43.00762833" lon="-1.31686">
        <ele>938.0</ele>
        <time>2019-07-31T08:31:38.143Z</time>
      </trkpt>
      <trkpt lat="43.00762333" lon="-1.31684333">
        <ele>938.0</ele>
        <time>2019-07-31T08:31:39.146Z</time>
      </trkpt>
      <trkpt lat="43.00761167" lon="-1.31683333">
        <ele>939.0</ele>
        <time>2019-07-31T08:31:40.151Z</time>
      </trkpt>
      <trkpt lat="43.00760333" lon="-1.31682167">
        <ele>939.0</ele>
        <time>2019-07-31T08:31:41.158Z</time>
      </trkpt>
      <trkpt lat="43.00760167" lon="-1.316805">
        <ele>939.0</ele>
        <time>2019-07-31T08:31:42.165Z</time>
      </trkpt>
      <trkpt lat="43.00760333" lon="-1.316785">
        <ele>940.0</ele>
        <time>2019-07-31T08:31:43.171Z</time>
      </trkpt>
      <trkpt lat="43.00760667" lon="-1.31676667">
        <ele>940.0</ele>
        <time>2019-07-31T08:31:44.177Z</time>
      </trkpt>
      <trkpt lat="43.00760667" lon="-1.31674833">
        <ele>941.0</ele>
        <time>2019-07-31T08:31:45.184Z</time>
      </trkpt>
      <trkpt lat="43.00760333" lon="-1.31673667">
        <ele>941.0</ele>
        <time>2019-07-31T08:31:46.064Z</time>
      </trkpt>
      <trkpt lat="43.00759833" lon="-1.31672833">
        <ele>942.0</ele>
        <time>2019-07-31T08:31:47.069Z</time>
      </trkpt>
      <trkpt lat="43.00759833" lon="-1.31672833">
        <ele>942.0</ele>
        <time>2019-07-31T08:31:48.074Z</time>
      </trkpt>
      <trkpt lat="43.00759667" lon="-1.316725">
        <ele>943.0</ele>
        <time>2019-07-31T08:31:49.078Z</time>
      </trkpt>
      <trkpt lat="43.0076" lon="-1.31672">
        <ele>943.0</ele>
        <time>2019-07-31T08:31:50.084Z</time>
      </trkpt>
      <trkpt lat="43.0076" lon="-1.31671167">
        <ele>944.0</ele>
        <time>2019-07-31T08:31:51.090Z</time>
      </trkpt>
      <trkpt lat="43.00760333" lon="-1.31670167">
        <ele>944.0</ele>
        <time>2019-07-31T08:31:52.095Z</time>
      </trkpt>
      <trkpt lat="43.00760167" lon="-1.31669">
        <ele>945.0</ele>
        <time>2019-07-31T08:31:53.100Z</time>
      </trkpt>
      <trkpt lat="43.0076" lon="-1.31667667">
        <ele>945.0</ele>
        <time>2019-07-31T08:31:54.106Z</time>
      </trkpt>
      <trkpt lat="43.00759333" lon="-1.31666833">
        <ele>945.0</ele>
        <time>2019-07-31T08:31:55.112Z</time>
      </trkpt>
      <trkpt lat="43.00758833" lon="-1.31666">
        <ele>945.0</ele>
        <time>2019-07-31T08:31:56.119Z</time>
      </trkpt>
      <trkpt lat="43.00758167" lon="-1.31665333">
        <ele>945.0</ele>
        <time>2019-07-31T08:31:57.122Z</time>
      </trkpt>
      <trkpt lat="43.00757333" lon="-1.31664167">
        <ele>945.0</ele>
        <time>2019-07-31T08:31:58.125Z</time>
      </trkpt>
      <trkpt lat="43.00756833" lon="-1.31662833">
        <ele>945.0</ele>
        <time>2019-07-31T08:31:59.130Z</time>
      </trkpt>
      <trkpt lat="43.007565" lon="-1.31661333">
        <ele>945.0</ele>
        <time>2019-07-31T08:32:00.138Z</time>
      </trkpt>
      <trkpt lat="43.00756333" lon="-1.316595">
        <ele>945.0</ele>
        <time>2019-07-31T08:32:01.144Z</time>
      </trkpt>
      <trkpt lat="43.00756" lon="-1.31657667">
        <ele>945.0</ele>
        <time>2019-07-31T08:32:02.151Z</time>
      </trkpt>
      <trkpt lat="43.00755333" lon="-1.31656167">
        <ele>945.0</ele>
        <time>2019-07-31T08:32:03.158Z</time>
      </trkpt>
      <trkpt lat="43.00754833" lon="-1.31655167">
        <ele>944.0</ele>
        <time>2019-07-31T08:32:04.163Z</time>
      </trkpt>
      <trkpt lat="43.00754167" lon="-1.316545">
        <ele>944.0</ele>
        <time>2019-07-31T08:32:05.168Z</time>
      </trkpt>
      <trkpt lat="43.00753667" lon="-1.316535">
        <ele>943.0</ele>
        <time>2019-07-31T08:32:06.174Z</time>
      </trkpt>
      <trkpt lat="43.00753" lon="-1.31652167">
        <ele>943.0</ele>
        <time>2019-07-31T08:32:07.180Z</time>
      </trkpt>
      <trkpt lat="43.00752167" lon="-1.31650833">
        <ele>944.0</ele>
        <time>2019-07-31T08:32:08.186Z</time>
      </trkpt>
      <trkpt lat="43.00751667" lon="-1.316495">
        <ele>944.0</ele>
        <time>2019-07-31T08:32:09.066Z</time>
      </trkpt>
      <trkpt lat="43.00751167" lon="-1.31648333">
        <ele>943.0</ele>
        <time>2019-07-31T08:32:10.069Z</time>
      </trkpt>
      <trkpt lat="43.00750667" lon="-1.31646833">
        <ele>943.0</ele>
        <time>2019-07-31T08:32:11.074Z</time>
      </trkpt>
      <trkpt lat="43.00750167" lon="-1.31645333">
        <ele>943.0</ele>
        <time>2019-07-31T08:32:12.077Z</time>
      </trkpt>
      <trkpt lat="43.00749667" lon="-1.31643833">
        <ele>943.0</ele>
        <time>2019-07-31T08:32:13.083Z</time>
      </trkpt>
      <trkpt lat="43.00749" lon="-1.316425">
        <ele>943.0</ele>
        <time>2019-07-31T08:32:14.085Z</time>
      </trkpt>
      <trkpt lat="43.00748167" lon="-1.31640833">
        <ele>944.0</ele>
        <time>2019-07-31T08:32:15.088Z</time>
      </trkpt>
      <trkpt lat="43.007475" lon="-1.31639167">
        <ele>944.0</ele>
        <time>2019-07-31T08:32:16.094Z</time>
      </trkpt>
      <trkpt lat="43.00747" lon="-1.31637667">
        <ele>944.0</ele>
        <time>2019-07-31T08:32:17.099Z</time>
      </trkpt>
      <trkpt lat="43.00746167" lon="-1.316365">
        <ele>945.0</ele>
        <time>2019-07-31T08:32:18.103Z</time>
      </trkpt>
      <trkpt lat="43.00745333" lon="-1.31635167">
        <ele>945.0</ele>
        <time>2019-07-31T08:32:19.106Z</time>
      </trkpt>
      <trkpt lat="43.00744333" lon="-1.31633833">
        <ele>945.0</ele>
        <time>2019-07-31T08:32:20.112Z</time>
      </trkpt>
      <trkpt lat="43.007435" lon="-1.31632333">
        <ele>946.0</ele>
        <time>2019-07-31T08:32:21.119Z</time>
      </trkpt>
      <trkpt lat="43.00742667" lon="-1.31631">
        <ele>946.0</ele>
        <time>2019-07-31T08:32:22.122Z</time>
      </trkpt>
      <trkpt lat="43.007415" lon="-1.31629833">
        <ele>946.0</ele>
        <time>2019-07-31T08:32:23.128Z</time>
      </trkpt>
      <trkpt lat="43.00740167" lon="-1.31628667">
        <ele>946.0</ele>
        <time>2019-07-31T08:32:24.137Z</time>
      </trkpt>
      <trkpt lat="43.00739" lon="-1.316275">
        <ele>946.0</ele>
        <time>2019-07-31T08:32:25.141Z</time>
      </trkpt>
      <trkpt lat="43.00738" lon="-1.31626333">
        <ele>946.0</ele>
        <time>2019-07-31T08:32:26.146Z</time>
      </trkpt>
      <trkpt lat="43.00736833" lon="-1.316255">
        <ele>946.0</ele>
        <time>2019-07-31T08:32:27.151Z</time>
      </trkpt>
      <trkpt lat="43.00735833" lon="-1.31624833">
        <ele>946.0</ele>
        <time>2019-07-31T08:32:28.157Z</time>
      </trkpt>
      <trkpt lat="43.00734667" lon="-1.31624167">
        <ele>946.0</ele>
        <time>2019-07-31T08:32:29.162Z</time>
      </trkpt>
      <trkpt lat="43.00733667" lon="-1.316235">
        <ele>946.0</ele>
        <time>2019-07-31T08:32:30.167Z</time>
      </trkpt>
      <trkpt lat="43.00733" lon="-1.31622333">
        <ele>945.0</ele>
        <time>2019-07-31T08:32:31.171Z</time>
      </trkpt>
      <trkpt lat="43.00732333" lon="-1.31620667">
        <ele>945.0</ele>
        <time>2019-07-31T08:32:32.176Z</time>
      </trkpt>
      <trkpt lat="43.00731667" lon="-1.31619">
        <ele>945.0</ele>
        <time>2019-07-31T08:32:33.181Z</time>
      </trkpt>
      <trkpt lat="43.00731167" lon="-1.316175">
        <ele>944.0</ele>
        <time>2019-07-31T08:32:34.063Z</time>
      </trkpt>
      <trkpt lat="43.007305" lon="-1.31616">
        <ele>944.0</ele>
        <time>2019-07-31T08:32:35.069Z</time>
      </trkpt>
      <trkpt lat="43.00729833" lon="-1.31614667">
        <ele>944.0</ele>
        <time>2019-07-31T08:32:36.074Z</time>
      </trkpt>
      <trkpt lat="43.00728833" lon="-1.31613333">
        <ele>944.0</ele>
        <time>2019-07-31T08:32:37.078Z</time>
      </trkpt>
      <trkpt lat="43.00727833" lon="-1.31612">
        <ele>945.0</ele>
        <time>2019-07-31T08:32:38.084Z</time>
      </trkpt>
      <trkpt lat="43.00727333" lon="-1.31610167">
        <ele>945.0</ele>
        <time>2019-07-31T08:32:39.089Z</time>
      </trkpt>
      <trkpt lat="43.00726833" lon="-1.31608333">
        <ele>946.0</ele>
        <time>2019-07-31T08:32:40.096Z</time>
      </trkpt>
      <trkpt lat="43.007265" lon="-1.31606667">
        <ele>946.0</ele>
        <time>2019-07-31T08:32:41.101Z</time>
      </trkpt>
      <trkpt lat="43.00725667" lon="-1.31605167">
        <ele>947.0</ele>
        <time>2019-07-31T08:32:42.106Z</time>
      </trkpt>
      <trkpt lat="43.00724667" lon="-1.31604">
        <ele>947.0</ele>
        <time>2019-07-31T08:32:43.112Z</time>
      </trkpt>
      <trkpt lat="43.007235" lon="-1.316035">
        <ele>947.0</ele>
        <time>2019-07-31T08:32:44.117Z</time>
      </trkpt>
      <trkpt lat="43.00722167" lon="-1.31602667">
        <ele>948.0</ele>
        <time>2019-07-31T08:32:45.123Z</time>
      </trkpt>
      <trkpt lat="43.00720833" lon="-1.31601667">
        <ele>949.0</ele>
        <time>2019-07-31T08:32:46.130Z</time>
      </trkpt>
      <trkpt lat="43.007195" lon="-1.31601">
        <ele>949.0</ele>
        <time>2019-07-31T08:32:47.136Z</time>
      </trkpt>
      <trkpt lat="43.00718167" lon="-1.31600167">
        <ele>949.0</ele>
        <time>2019-07-31T08:32:48.142Z</time>
      </trkpt>
      <trkpt lat="43.00717333" lon="-1.31599167">
        <ele>950.0</ele>
        <time>2019-07-31T08:32:49.147Z</time>
      </trkpt>
      <trkpt lat="43.007165" lon="-1.31598167">
        <ele>950.0</ele>
        <time>2019-07-31T08:32:50.153Z</time>
      </trkpt>
      <trkpt lat="43.00715833" lon="-1.31596833">
        <ele>950.0</ele>
        <time>2019-07-31T08:32:51.159Z</time>
      </trkpt>
      <trkpt lat="43.00715167" lon="-1.31595167">
        <ele>951.0</ele>
        <time>2019-07-31T08:32:52.164Z</time>
      </trkpt>
      <trkpt lat="43.00714833" lon="-1.31593333">
        <ele>951.0</ele>
        <time>2019-07-31T08:32:53.169Z</time>
      </trkpt>
      <trkpt lat="43.00714667" lon="-1.31591333">
        <ele>951.0</ele>
        <time>2019-07-31T08:32:54.176Z</time>
      </trkpt>
      <trkpt lat="43.00715" lon="-1.31589667">
        <ele>952.0</ele>
        <time>2019-07-31T08:32:55.184Z</time>
      </trkpt>
      <trkpt lat="43.00714333" lon="-1.31588167">
        <ele>952.0</ele>
        <time>2019-07-31T08:32:56.064Z</time>
      </trkpt>
      <trkpt lat="43.00713833" lon="-1.31586833">
        <ele>953.0</ele>
        <time>2019-07-31T08:32:57.071Z</time>
      </trkpt>
      <trkpt lat="43.00713667" lon="-1.31586167">
        <ele>953.0</ele>
        <time>2019-07-31T08:32:58.076Z</time>
      </trkpt>
      <trkpt lat="43.00713333" lon="-1.31585833">
        <ele>953.0</ele>
        <time>2019-07-31T08:32:59.081Z</time>
      </trkpt>
      <trkpt lat="43.00712167" lon="-1.315855">
        <ele>953.0</ele>
        <time>2019-07-31T08:33:00.086Z</time>
      </trkpt>
      <trkpt lat="43.00711" lon="-1.315845">
        <ele>953.0</ele>
        <time>2019-07-31T08:33:01.092Z</time>
      </trkpt>
      <trkpt lat="43.00709833" lon="-1.315835">
        <ele>954.0</ele>
        <time>2019-07-31T08:33:02.099Z</time>
      </trkpt>
      <trkpt lat="43.00709" lon="-1.31582">
        <ele>954.0</ele>
        <time>2019-07-31T08:33:03.104Z</time>
      </trkpt>
      <trkpt lat="43.00708" lon="-1.315805">
        <ele>954.0</ele>
        <time>2019-07-31T08:33:04.108Z</time>
      </trkpt>
      <trkpt lat="43.00706833" lon="-1.31579">
        <ele>955.0</ele>
        <time>2019-07-31T08:33:05.115Z</time>
      </trkpt>
      <trkpt lat="43.007055" lon="-1.315775">
        <ele>954.0</ele>
        <time>2019-07-31T08:33:06.122Z</time>
      </trkpt>
      <trkpt lat="43.007045" lon="-1.31575833">
        <ele>953.0</ele>
        <time>2019-07-31T08:33:07.127Z</time>
      </trkpt>
      <trkpt lat="43.00703667" lon="-1.31574167">
        <ele>953.0</ele>
        <time>2019-07-31T08:33:08.132Z</time>
      </trkpt>
      <trkpt lat="43.00702833" lon="-1.315725">
        <ele>952.0</ele>
        <time>2019-07-31T08:33:09.138Z</time>
      </trkpt>
      <trkpt lat="43.00701667" lon="-1.31571">
        <ele>953.0</ele>
        <time>2019-07-31T08:33:10.144Z</time>
      </trkpt>
      <trkpt lat="43.00700667" lon="-1.31569167">
        <ele>953.0</ele>
        <time>2019-07-31T08:33:11.151Z</time>
      </trkpt>
      <trkpt lat="43.00699833" lon="-1.31567833">
        <ele>953.0</ele>
        <time>2019-07-31T08:33:12.158Z</time>
      </trkpt>
      <trkpt lat="43.00698667" lon="-1.31566833">
        <ele>953.0</ele>
        <time>2019-07-31T08:33:13.164Z</time>
      </trkpt>
      <trkpt lat="43.00697833" lon="-1.31565167">
        <ele>953.0</ele>
        <time>2019-07-31T08:33:14.166Z</time>
      </trkpt>
      <trkpt lat="43.00696667" lon="-1.31563">
        <ele>953.0</ele>
        <time>2019-07-31T08:33:15.171Z</time>
      </trkpt>
      <trkpt lat="43.00695667" lon="-1.31560833">
        <ele>953.0</ele>
        <time>2019-07-31T08:33:16.177Z</time>
      </trkpt>
      <trkpt lat="43.00694833" lon="-1.31558667">
        <ele>953.0</ele>
        <time>2019-07-31T08:33:17.182Z</time>
      </trkpt>
      <trkpt lat="43.00693667" lon="-1.31556333">
        <ele>954.0</ele>
        <time>2019-07-31T08:33:18.062Z</time>
      </trkpt>
      <trkpt lat="43.00692333" lon="-1.31554">
        <ele>954.0</ele>
        <time>2019-07-31T08:33:19.069Z</time>
      </trkpt>
      <trkpt lat="43.006915" lon="-1.31551833">
        <ele>955.0</ele>
        <time>2019-07-31T08:33:20.075Z</time>
      </trkpt>
      <trkpt lat="43.006905" lon="-1.3155">
        <ele>956.0</ele>
        <time>2019-07-31T08:33:21.081Z</time>
      </trkpt>
      <trkpt lat="43.00689167" lon="-1.31548333">
        <ele>956.0</ele>
        <time>2019-07-31T08:33:22.087Z</time>
      </trkpt>
      <trkpt lat="43.00688333" lon="-1.31546">
        <ele>957.0</ele>
        <time>2019-07-31T08:33:23.093Z</time>
      </trkpt>
      <trkpt lat="43.00687333" lon="-1.31543667">
        <ele>957.0</ele>
        <time>2019-07-31T08:33:24.098Z</time>
      </trkpt>
      <trkpt lat="43.00686833" lon="-1.31541667">
        <ele>957.0</ele>
        <time>2019-07-31T08:33:25.103Z</time>
      </trkpt>
      <trkpt lat="43.006865" lon="-1.315395">
        <ele>958.0</ele>
        <time>2019-07-31T08:33:26.108Z</time>
      </trkpt>
      <trkpt lat="43.00686" lon="-1.315375">
        <ele>958.0</ele>
        <time>2019-07-31T08:33:27.114Z</time>
      </trkpt>
      <trkpt lat="43.00685167" lon="-1.315355">
        <ele>959.0</ele>
        <time>2019-07-31T08:33:28.121Z</time>
      </trkpt>
      <trkpt lat="43.00684167" lon="-1.31533667">
        <ele>959.0</ele>
        <time>2019-07-31T08:33:29.128Z</time>
      </trkpt>
      <trkpt lat="43.00683833" lon="-1.315325">
        <ele>959.0</ele>
        <time>2019-07-31T08:33:30.134Z</time>
      </trkpt>
      <trkpt lat="43.00683" lon="-1.31532">
        <ele>959.0</ele>
        <time>2019-07-31T08:33:31.142Z</time>
      </trkpt>
      <trkpt lat="43.00682167" lon="-1.31531833">
        <ele>959.0</ele>
        <time>2019-07-31T08:33:32.147Z</time>
      </trkpt>
      <trkpt lat="43.00681333" lon="-1.31531833">
        <ele>959.0</ele>
        <time>2019-07-31T08:33:33.153Z</time>
      </trkpt>
      <trkpt lat="43.00680667" lon="-1.31531667">
        <ele>959.0</ele>
        <time>2019-07-31T08:33:34.159Z</time>
      </trkpt>
      <trkpt lat="43.00680333" lon="-1.31531833">
        <ele>959.0</ele>
        <time>2019-07-31T08:33:35.163Z</time>
      </trkpt>
      <trkpt lat="43.00680333" lon="-1.31532167">
        <ele>958.0</ele>
        <time>2019-07-31T08:33:36.169Z</time>
      </trkpt>
      <trkpt lat="43.00680333" lon="-1.31532167">
        <ele>958.0</ele>
        <time>2019-07-31T08:33:37.175Z</time>
      </trkpt>
      <trkpt lat="43.00680333" lon="-1.31532">
        <ele>958.0</ele>
        <time>2019-07-31T08:33:38.180Z</time>
      </trkpt>
      <trkpt lat="43.00680167" lon="-1.31531833">
        <ele>958.0</ele>
        <time>2019-07-31T08:33:39.185Z</time>
      </trkpt>
      <trkpt lat="43.00680167" lon="-1.31532">
        <ele>957.0</ele>
        <time>2019-07-31T08:33:40.065Z</time>
      </trkpt>
      <trkpt lat="43.00679833" lon="-1.31532">
        <ele>958.0</ele>
        <time>2019-07-31T08:33:41.070Z</time>
      </trkpt>
      <trkpt lat="43.00679333" lon="-1.31532167">
        <ele>958.0</ele>
        <time>2019-07-31T08:33:42.075Z</time>
      </trkpt>
      <trkpt lat="43.00678333" lon="-1.315325">
        <ele>958.0</ele>
        <time>2019-07-31T08:33:43.080Z</time>
      </trkpt>
      <trkpt lat="43.00677667" lon="-1.31532333">
        <ele>958.0</ele>
        <time>2019-07-31T08:33:44.084Z</time>
      </trkpt>
      <trkpt lat="43.00677333" lon="-1.315325">
        <ele>958.0</ele>
        <time>2019-07-31T08:33:45.089Z</time>
      </trkpt>
      <trkpt lat="43.00677" lon="-1.315325">
        <ele>958.0</ele>
        <time>2019-07-31T08:33:46.096Z</time>
      </trkpt>
      <trkpt lat="43.00676833" lon="-1.31532667">
        <ele>958.0</ele>
        <time>2019-07-31T08:33:47.100Z</time>
      </trkpt>
      <trkpt lat="43.00677833" lon="-1.315305">
        <ele>958.0</ele>
        <time>2019-07-31T08:33:48.106Z</time>
      </trkpt>
      <trkpt lat="43.00678333" lon="-1.31529667">
        <ele>958.0</ele>
        <time>2019-07-31T08:33:49.109Z</time>
      </trkpt>
      <trkpt lat="43.00678667" lon="-1.31529">
        <ele>959.0</ele>
        <time>2019-07-31T08:33:50.113Z</time>
      </trkpt>
      <trkpt lat="43.00679" lon="-1.315285">
        <ele>960.0</ele>
        <time>2019-07-31T08:33:51.119Z</time>
      </trkpt>
      <trkpt lat="43.00679" lon="-1.315285">
        <ele>960.0</ele>
        <time>2019-07-31T08:33:52.124Z</time>
      </trkpt>
      <trkpt lat="43.006795" lon="-1.31528">
        <ele>960.0</ele>
        <time>2019-07-31T08:33:53.129Z</time>
      </trkpt>
      <trkpt lat="43.00679" lon="-1.31528333">
        <ele>960.0</ele>
        <time>2019-07-31T08:33:54.132Z</time>
      </trkpt>
      <trkpt lat="43.00678833" lon="-1.315285">
        <ele>960.0</ele>
        <time>2019-07-31T08:33:55.136Z</time>
      </trkpt>
      <trkpt lat="43.00678833" lon="-1.31528333">
        <ele>960.0</ele>
        <time>2019-07-31T08:33:56.140Z</time>
      </trkpt>
      <trkpt lat="43.00679333" lon="-1.31527667">
        <ele>960.0</ele>
        <time>2019-07-31T08:33:57.147Z</time>
      </trkpt>
      <trkpt lat="43.00679833" lon="-1.31527">
        <ele>960.0</ele>
        <time>2019-07-31T08:33:58.152Z</time>
      </trkpt>
      <trkpt lat="43.00679833" lon="-1.31526833">
        <ele>960.0</ele>
        <time>2019-07-31T08:33:59.158Z</time>
      </trkpt>
      <trkpt lat="43.0068" lon="-1.31526667">
        <ele>960.0</ele>
        <time>2019-07-31T08:34:00.163Z</time>
      </trkpt>
      <trkpt lat="43.0068" lon="-1.31526667">
        <ele>960.0</ele>
        <time>2019-07-31T08:34:01.169Z</time>
      </trkpt>
      <trkpt lat="43.0068" lon="-1.31526667">
        <ele>960.0</ele>
        <time>2019-07-31T08:34:02.174Z</time>
      </trkpt>
      <trkpt lat="43.00679833" lon="-1.31526667">
        <ele>960.0</ele>
        <time>2019-07-31T08:34:03.180Z</time>
      </trkpt>
      <trkpt lat="43.00679667" lon="-1.31526667">
        <ele>960.0</ele>
        <time>2019-07-31T08:34:04.186Z</time>
      </trkpt>
      <trkpt lat="43.006795" lon="-1.31526667">
        <ele>960.0</ele>
        <time>2019-07-31T08:34:05.067Z</time>
      </trkpt>
      <trkpt lat="43.006795" lon="-1.31526667">
        <ele>960.0</ele>
        <time>2019-07-31T08:34:06.073Z</time>
      </trkpt>
      <trkpt lat="43.006795" lon="-1.31526833">
        <ele>960.0</ele>
        <time>2019-07-31T08:34:07.078Z</time>
      </trkpt>
      <trkpt lat="43.006795" lon="-1.31526667">
        <ele>960.0</ele>
        <time>2019-07-31T08:34:08.083Z</time>
      </trkpt>
      <trkpt lat="43.00679167" lon="-1.31526833">
        <ele>960.0</ele>
        <time>2019-07-31T08:34:09.089Z</time>
      </trkpt>
      <trkpt lat="43.00678833" lon="-1.31527">
        <ele>960.0</ele>
        <time>2019-07-31T08:34:10.095Z</time>
      </trkpt>
      <trkpt lat="43.00678667" lon="-1.31526833">
        <ele>960.0</ele>
        <time>2019-07-31T08:34:11.100Z</time>
      </trkpt>
      <trkpt lat="43.00678667" lon="-1.315265">
        <ele>961.0</ele>
        <time>2019-07-31T08:34:12.106Z</time>
      </trkpt>
      <trkpt lat="43.00678667" lon="-1.31526333">
        <ele>960.0</ele>
        <time>2019-07-31T08:34:13.111Z</time>
      </trkpt>
      <trkpt lat="43.00678667" lon="-1.315265">
        <ele>960.0</ele>
        <time>2019-07-31T08:34:14.117Z</time>
      </trkpt>
      <trkpt lat="43.006785" lon="-1.31526333">
        <ele>960.0</ele>
        <time>2019-07-31T08:34:15.123Z</time>
      </trkpt>
      <trkpt lat="43.006785" lon="-1.31526333">
        <ele>960.0</ele>
        <time>2019-07-31T08:34:16.127Z</time>
      </trkpt>
      <trkpt lat="43.006785" lon="-1.31526333">
        <ele>960.0</ele>
        <time>2019-07-31T08:34:17.131Z</time>
      </trkpt>
      <trkpt lat="43.00678667" lon="-1.31526667">
        <ele>960.0</ele>
        <time>2019-07-31T08:34:18.136Z</time>
      </trkpt>
      <trkpt lat="43.00678333" lon="-1.31527">
        <ele>959.0</ele>
        <time>2019-07-31T08:34:19.141Z</time>
      </trkpt>
      <trkpt lat="43.00678167" lon="-1.31527">
        <ele>959.0</ele>
        <time>2019-07-31T08:34:20.147Z</time>
      </trkpt>
      <trkpt lat="43.00678167" lon="-1.31526833">
        <ele>959.0</ele>
        <time>2019-07-31T08:34:21.153Z</time>
      </trkpt>
      <trkpt lat="43.00678" lon="-1.31526667">
        <ele>959.0</ele>
        <time>2019-07-31T08:34:22.159Z</time>
      </trkpt>
      <trkpt lat="43.00677833" lon="-1.31526833">
        <ele>959.0</ele>
        <time>2019-07-31T08:34:23.165Z</time>
      </trkpt>
      <trkpt lat="43.00677667" lon="-1.31527">
        <ele>959.0</ele>
        <time>2019-07-31T08:34:24.170Z</time>
      </trkpt>
      <trkpt lat="43.00677333" lon="-1.31527">
        <ele>959.0</ele>
        <time>2019-07-31T08:34:25.176Z</time>
      </trkpt>
      <trkpt lat="43.00677" lon="-1.31526833">
        <ele>959.0</ele>
        <time>2019-07-31T08:34:26.182Z</time>
      </trkpt>
      <trkpt lat="43.00676667" lon="-1.315265">
        <ele>959.0</ele>
        <time>2019-07-31T08:34:27.062Z</time>
      </trkpt>
      <trkpt lat="43.00676667" lon="-1.31526167">
        <ele>959.0</ele>
        <time>2019-07-31T08:34:28.067Z</time>
      </trkpt>
      <trkpt lat="43.00676667" lon="-1.31525667">
        <ele>959.0</ele>
        <time>2019-07-31T08:34:29.072Z</time>
      </trkpt>
      <trkpt lat="43.006765" lon="-1.315255">
        <ele>959.0</ele>
        <time>2019-07-31T08:34:30.078Z</time>
      </trkpt>
      <trkpt lat="43.00676333" lon="-1.31525333">
        <ele>958.0</ele>
        <time>2019-07-31T08:34:31.083Z</time>
      </trkpt>
      <trkpt lat="43.00676" lon="-1.31525">
        <ele>958.0</ele>
        <time>2019-07-31T08:34:32.088Z</time>
      </trkpt>
      <trkpt lat="43.00675667" lon="-1.31525">
        <ele>957.0</ele>
        <time>2019-07-31T08:34:33.094Z</time>
      </trkpt>
      <trkpt lat="43.006755" lon="-1.31525">
        <ele>957.0</ele>
        <time>2019-07-31T08:34:34.100Z</time>
      </trkpt>
      <trkpt lat="43.00675667" lon="-1.31524667">
        <ele>956.0</ele>
        <time>2019-07-31T08:34:35.105Z</time>
      </trkpt>
      <trkpt lat="43.006755" lon="-1.31524833">
        <ele>955.0</ele>
        <time>2019-07-31T08:34:36.110Z</time>
      </trkpt>
      <trkpt lat="43.00675833" lon="-1.31524833">
        <ele>955.0</ele>
        <time>2019-07-31T08:34:37.117Z</time>
      </trkpt>
      <trkpt lat="43.00676" lon="-1.31524667">
        <ele>955.0</ele>
        <time>2019-07-31T08:34:38.122Z</time>
      </trkpt>
      <trkpt lat="43.00676167" lon="-1.31524333">
        <ele>955.0</ele>
        <time>2019-07-31T08:34:39.127Z</time>
      </trkpt>
      <trkpt lat="43.00676667" lon="-1.31524">
        <ele>954.0</ele>
        <time>2019-07-31T08:34:40.132Z</time>
      </trkpt>
      <trkpt lat="43.00677" lon="-1.31524">
        <ele>954.0</ele>
        <time>2019-07-31T08:34:41.137Z</time>
      </trkpt>
      <trkpt lat="43.006775" lon="-1.31523833">
        <ele>954.0</ele>
        <time>2019-07-31T08:34:42.143Z</time>
      </trkpt>
      <trkpt lat="43.00677667" lon="-1.31523833">
        <ele>954.0</ele>
        <time>2019-07-31T08:34:43.149Z</time>
      </trkpt>
      <trkpt lat="43.00678167" lon="-1.315235">
        <ele>953.0</ele>
        <time>2019-07-31T08:34:44.155Z</time>
      </trkpt>
      <trkpt lat="43.00678833" lon="-1.31523">
        <ele>953.0</ele>
        <time>2019-07-31T08:34:45.162Z</time>
      </trkpt>
      <trkpt lat="43.006795" lon="-1.31522667">
        <ele>952.0</ele>
        <time>2019-07-31T08:34:46.168Z</time>
      </trkpt>
      <trkpt lat="43.00680333" lon="-1.31522">
        <ele>952.0</ele>
        <time>2019-07-31T08:34:47.175Z</time>
      </trkpt>
      <trkpt lat="43.00680833" lon="-1.31521833">
        <ele>952.0</ele>
        <time>2019-07-31T08:34:48.179Z</time>
      </trkpt>
      <trkpt lat="43.00680667" lon="-1.31521833">
        <ele>951.0</ele>
        <time>2019-07-31T08:34:49.185Z</time>
      </trkpt>
      <trkpt lat="43.00680167" lon="-1.31522167">
        <ele>951.0</ele>
        <time>2019-07-31T08:34:50.065Z</time>
      </trkpt>
      <trkpt lat="43.00679667" lon="-1.31522333">
        <ele>951.0</ele>
        <time>2019-07-31T08:34:51.071Z</time>
      </trkpt>
      <trkpt lat="43.00679333" lon="-1.31522167">
        <ele>951.0</ele>
        <time>2019-07-31T08:34:52.077Z</time>
      </trkpt>
      <trkpt lat="43.00679167" lon="-1.31521333">
        <ele>951.0</ele>
        <time>2019-07-31T08:34:53.082Z</time>
      </trkpt>
      <trkpt lat="43.00678667" lon="-1.315205">
        <ele>951.0</ele>
        <time>2019-07-31T08:34:54.087Z</time>
      </trkpt>
      <trkpt lat="43.00678167" lon="-1.315195">
        <ele>951.0</ele>
        <time>2019-07-31T08:34:55.094Z</time>
      </trkpt>
      <trkpt lat="43.00678" lon="-1.315185">
        <ele>951.0</ele>
        <time>2019-07-31T08:34:56.101Z</time>
      </trkpt>
      <trkpt lat="43.00677833" lon="-1.31518333">
        <ele>950.0</ele>
        <time>2019-07-31T08:34:57.106Z</time>
      </trkpt>
      <trkpt lat="43.00677667" lon="-1.31518333">
        <ele>950.0</ele>
        <time>2019-07-31T08:34:58.113Z</time>
      </trkpt>
      <trkpt lat="43.00677333" lon="-1.31518667">
        <ele>949.0</ele>
        <time>2019-07-31T08:34:59.118Z</time>
      </trkpt>
      <trkpt lat="43.00677" lon="-1.31519167">
        <ele>949.0</ele>
        <time>2019-07-31T08:35:00.121Z</time>
      </trkpt>
      <trkpt lat="43.00676667" lon="-1.31519167">
        <ele>949.0</ele>
        <time>2019-07-31T08:35:01.124Z</time>
      </trkpt>
      <trkpt lat="43.006765" lon="-1.31519">
        <ele>949.0</ele>
        <time>2019-07-31T08:35:02.131Z</time>
      </trkpt>
      <trkpt lat="43.00676" lon="-1.31519">
        <ele>949.0</ele>
        <time>2019-07-31T08:35:03.136Z</time>
      </trkpt>
      <trkpt lat="43.006755" lon="-1.31518">
        <ele>948.0</ele>
        <time>2019-07-31T08:35:04.143Z</time>
      </trkpt>
      <trkpt lat="43.00675167" lon="-1.31516833">
        <ele>948.0</ele>
        <time>2019-07-31T08:35:05.147Z</time>
      </trkpt>
      <trkpt lat="43.00674833" lon="-1.31515833">
        <ele>947.0</ele>
        <time>2019-07-31T08:35:06.154Z</time>
      </trkpt>
      <trkpt lat="43.00674167" lon="-1.31514667">
        <ele>946.0</ele>
        <time>2019-07-31T08:35:07.159Z</time>
      </trkpt>
      <trkpt lat="43.006735" lon="-1.31513333">
        <ele>945.0</ele>
        <time>2019-07-31T08:35:08.164Z</time>
      </trkpt>
      <trkpt lat="43.00673" lon="-1.31512">
        <ele>945.0</ele>
        <time>2019-07-31T08:35:09.168Z</time>
      </trkpt>
      <trkpt lat="43.00672333" lon="-1.315105">
        <ele>944.0</ele>
        <time>2019-07-31T08:35:10.174Z</time>
      </trkpt>
      <trkpt lat="43.00672" lon="-1.31509333">
        <ele>944.0</ele>
        <time>2019-07-31T08:35:11.179Z</time>
      </trkpt>
      <trkpt lat="43.00671667" lon="-1.31507833">
        <ele>945.0</ele>
        <time>2019-07-31T08:35:12.186Z</time>
      </trkpt>
      <trkpt lat="43.00671167" lon="-1.31506333">
        <ele>945.0</ele>
        <time>2019-07-31T08:35:13.065Z</time>
      </trkpt>
      <trkpt lat="43.00670333" lon="-1.31504667">
        <ele>945.0</ele>
        <time>2019-07-31T08:35:14.074Z</time>
      </trkpt>
      <trkpt lat="43.00669667" lon="-1.31503333">
        <ele>945.0</ele>
        <time>2019-07-31T08:35:15.078Z</time>
      </trkpt>
      <trkpt lat="43.00669167" lon="-1.31502">
        <ele>946.0</ele>
        <time>2019-07-31T08:35:16.083Z</time>
      </trkpt>
      <trkpt lat="43.006685" lon="-1.31500667">
        <ele>946.0</ele>
        <time>2019-07-31T08:35:17.086Z</time>
      </trkpt>
      <trkpt lat="43.00668" lon="-1.31499167">
        <ele>946.0</ele>
        <time>2019-07-31T08:35:18.091Z</time>
      </trkpt>
      <trkpt lat="43.006675" lon="-1.31497667">
        <ele>947.0</ele>
        <time>2019-07-31T08:35:19.097Z</time>
      </trkpt>
      <trkpt lat="43.00667" lon="-1.31496333">
        <ele>947.0</ele>
        <time>2019-07-31T08:35:20.103Z</time>
      </trkpt>
      <trkpt lat="43.00666667" lon="-1.31494833">
        <ele>947.0</ele>
        <time>2019-07-31T08:35:21.108Z</time>
      </trkpt>
      <trkpt lat="43.00666" lon="-1.31493333">
        <ele>947.0</ele>
        <time>2019-07-31T08:35:22.113Z</time>
      </trkpt>
      <trkpt lat="43.00665167" lon="-1.314925">
        <ele>947.0</ele>
        <time>2019-07-31T08:35:23.118Z</time>
      </trkpt>
      <trkpt lat="43.00665" lon="-1.31491667">
        <ele>948.0</ele>
        <time>2019-07-31T08:35:24.122Z</time>
      </trkpt>
      <trkpt lat="43.00665" lon="-1.31491167">
        <ele>948.0</ele>
        <time>2019-07-31T08:35:25.127Z</time>
      </trkpt>
      <trkpt lat="43.00665" lon="-1.31490833">
        <ele>948.0</ele>
        <time>2019-07-31T08:35:26.132Z</time>
      </trkpt>
      <trkpt lat="43.00664833" lon="-1.31490833">
        <ele>948.0</ele>
        <time>2019-07-31T08:35:27.136Z</time>
      </trkpt>
      <trkpt lat="43.00665" lon="-1.31490333">
        <ele>948.0</ele>
        <time>2019-07-31T08:35:28.142Z</time>
      </trkpt>
      <trkpt lat="43.00665" lon="-1.31489833">
        <ele>948.0</ele>
        <time>2019-07-31T08:35:29.147Z</time>
      </trkpt>
      <trkpt lat="43.00665167" lon="-1.31489333">
        <ele>949.0</ele>
        <time>2019-07-31T08:35:30.154Z</time>
      </trkpt>
      <trkpt lat="43.00665333" lon="-1.31489167">
        <ele>949.0</ele>
        <time>2019-07-31T08:35:31.160Z</time>
      </trkpt>
      <trkpt lat="43.00665667" lon="-1.31489">
        <ele>949.0</ele>
        <time>2019-07-31T08:35:32.166Z</time>
      </trkpt>
      <trkpt lat="43.00665833" lon="-1.31489167">
        <ele>949.0</ele>
        <time>2019-07-31T08:35:33.171Z</time>
      </trkpt>
      <trkpt lat="43.00665833" lon="-1.31489">
        <ele>949.0</ele>
        <time>2019-07-31T08:35:34.176Z</time>
      </trkpt>
      <trkpt lat="43.00665167" lon="-1.31488667">
        <ele>948.0</ele>
        <time>2019-07-31T08:35:35.182Z</time>
      </trkpt>
      <trkpt lat="43.006645" lon="-1.31488167">
        <ele>948.0</ele>
        <time>2019-07-31T08:35:36.062Z</time>
      </trkpt>
      <trkpt lat="43.00663833" lon="-1.31487667">
        <ele>948.0</ele>
        <time>2019-07-31T08:35:37.068Z</time>
      </trkpt>
      <trkpt lat="43.006635" lon="-1.31486833">
        <ele>947.0</ele>
        <time>2019-07-31T08:35:38.072Z</time>
      </trkpt>
      <trkpt lat="43.00663" lon="-1.31485833">
        <ele>947.0</ele>
        <time>2019-07-31T08:35:39.076Z</time>
      </trkpt>
      <trkpt lat="43.00662167" lon="-1.31484667">
        <ele>948.0</ele>
        <time>2019-07-31T08:35:40.078Z</time>
      </trkpt>
      <trkpt lat="43.00661333" lon="-1.314835">
        <ele>948.0</ele>
        <time>2019-07-31T08:35:41.082Z</time>
      </trkpt>
      <trkpt lat="43.00660667" lon="-1.31482333">
        <ele>948.0</ele>
        <time>2019-07-31T08:35:42.086Z</time>
      </trkpt>
      <trkpt lat="43.00660167" lon="-1.31481333">
        <ele>949.0</ele>
        <time>2019-07-31T08:35:43.093Z</time>
      </trkpt>
      <trkpt lat="43.0066" lon="-1.3148">
        <ele>949.0</ele>
        <time>2019-07-31T08:35:44.099Z</time>
      </trkpt>
      <trkpt lat="43.006595" lon="-1.314785">
        <ele>950.0</ele>
        <time>2019-07-31T08:35:45.101Z</time>
      </trkpt>
      <trkpt lat="43.00659167" lon="-1.31476667">
        <ele>950.0</ele>
        <time>2019-07-31T08:35:46.104Z</time>
      </trkpt>
      <trkpt lat="43.00659" lon="-1.31475">
        <ele>950.0</ele>
        <time>2019-07-31T08:35:47.109Z</time>
      </trkpt>
      <trkpt lat="43.00659" lon="-1.314735">
        <ele>950.0</ele>
        <time>2019-07-31T08:35:48.114Z</time>
      </trkpt>
      <trkpt lat="43.00658333" lon="-1.31472167">
        <ele>951.0</ele>
        <time>2019-07-31T08:35:49.118Z</time>
      </trkpt>
      <trkpt lat="43.006575" lon="-1.31471">
        <ele>950.0</ele>
        <time>2019-07-31T08:35:50.124Z</time>
      </trkpt>
      <trkpt lat="43.00656833" lon="-1.31469667">
        <ele>951.0</ele>
        <time>2019-07-31T08:35:51.130Z</time>
      </trkpt>
      <trkpt lat="43.006565" lon="-1.31468667">
        <ele>951.0</ele>
        <time>2019-07-31T08:35:52.135Z</time>
      </trkpt>
      <trkpt lat="43.00656333" lon="-1.314675">
        <ele>951.0</ele>
        <time>2019-07-31T08:35:53.139Z</time>
      </trkpt>
      <trkpt lat="43.00656333" lon="-1.31466">
        <ele>951.0</ele>
        <time>2019-07-31T08:35:54.144Z</time>
      </trkpt>
      <trkpt lat="43.00656333" lon="-1.31464333">
        <ele>951.0</ele>
        <time>2019-07-31T08:35:55.147Z</time>
      </trkpt>
      <trkpt lat="43.00656167" lon="-1.31462333">
        <ele>951.0</ele>
        <time>2019-07-31T08:35:56.152Z</time>
      </trkpt>
      <trkpt lat="43.00655833" lon="-1.31460167">
        <ele>951.0</ele>
        <time>2019-07-31T08:35:57.159Z</time>
      </trkpt>
      <trkpt lat="43.006555" lon="-1.31458167">
        <ele>951.0</ele>
        <time>2019-07-31T08:35:58.164Z</time>
      </trkpt>
      <trkpt lat="43.00655333" lon="-1.31456667">
        <ele>951.0</ele>
        <time>2019-07-31T08:35:59.167Z</time>
      </trkpt>
      <trkpt lat="43.00655167" lon="-1.31455333">
        <ele>950.0</ele>
        <time>2019-07-31T08:36:00.171Z</time>
      </trkpt>
      <trkpt lat="43.00654667" lon="-1.31453833">
        <ele>950.0</ele>
        <time>2019-07-31T08:36:01.176Z</time>
      </trkpt>
      <trkpt lat="43.00654333" lon="-1.31452167">
        <ele>951.0</ele>
        <time>2019-07-31T08:36:02.181Z</time>
      </trkpt>
      <trkpt lat="43.00653833" lon="-1.31450167">
        <ele>951.0</ele>
        <time>2019-07-31T08:36:03.186Z</time>
      </trkpt>
      <trkpt lat="43.00653833" lon="-1.31448167">
        <ele>951.0</ele>
        <time>2019-07-31T08:36:04.066Z</time>
      </trkpt>
      <trkpt lat="43.00654" lon="-1.314465">
        <ele>951.0</ele>
        <time>2019-07-31T08:36:05.070Z</time>
      </trkpt>
      <trkpt lat="43.00654667" lon="-1.31444833">
        <ele>950.0</ele>
        <time>2019-07-31T08:36:06.076Z</time>
      </trkpt>
      <trkpt lat="43.00655667" lon="-1.31443333">
        <ele>950.0</ele>
        <time>2019-07-31T08:36:07.083Z</time>
      </trkpt>
      <trkpt lat="43.00656167" lon="-1.31441833">
        <ele>950.0</ele>
        <time>2019-07-31T08:36:08.090Z</time>
      </trkpt>
      <trkpt lat="43.00655833" lon="-1.31440167">
        <ele>951.0</ele>
        <time>2019-07-31T08:36:09.094Z</time>
      </trkpt>
      <trkpt lat="43.00655167" lon="-1.31438333">
        <ele>951.0</ele>
        <time>2019-07-31T08:36:10.097Z</time>
      </trkpt>
      <trkpt lat="43.00654833" lon="-1.314365">
        <ele>952.0</ele>
        <time>2019-07-31T08:36:11.102Z</time>
      </trkpt>
      <trkpt lat="43.00655167" lon="-1.31434667">
        <ele>953.0</ele>
        <time>2019-07-31T08:36:12.107Z</time>
      </trkpt>
      <trkpt lat="43.00655333" lon="-1.314335">
        <ele>954.0</ele>
        <time>2019-07-31T08:36:13.112Z</time>
      </trkpt>
      <trkpt lat="43.00655833" lon="-1.31432333">
        <ele>953.0</ele>
        <time>2019-07-31T08:36:14.118Z</time>
      </trkpt>
      <trkpt lat="43.00656167" lon="-1.31431">
        <ele>953.0</ele>
        <time>2019-07-31T08:36:15.124Z</time>
      </trkpt>
      <trkpt lat="43.00656" lon="-1.3143">
        <ele>953.0</ele>
        <time>2019-07-31T08:36:16.130Z</time>
      </trkpt>
      <trkpt lat="43.006555" lon="-1.31429167">
        <ele>954.0</ele>
        <time>2019-07-31T08:36:17.136Z</time>
      </trkpt>
      <trkpt lat="43.00655167" lon="-1.31428333">
        <ele>954.0</ele>
        <time>2019-07-31T08:36:18.143Z</time>
      </trkpt>
      <trkpt lat="43.00655333" lon="-1.31427167">
        <ele>955.0</ele>
        <time>2019-07-31T08:36:19.147Z</time>
      </trkpt>
      <trkpt lat="43.00655667" lon="-1.31425667">
        <ele>956.0</ele>
        <time>2019-07-31T08:36:20.153Z</time>
      </trkpt>
      <trkpt lat="43.006565" lon="-1.31423">
        <ele>956.0</ele>
        <time>2019-07-31T08:36:21.159Z</time>
      </trkpt>
      <trkpt lat="43.00658167" lon="-1.31419667">
        <ele>956.0</ele>
        <time>2019-07-31T08:36:22.163Z</time>
      </trkpt>
      <trkpt lat="43.00659667" lon="-1.31416667">
        <ele>957.0</ele>
        <time>2019-07-31T08:36:23.166Z</time>
      </trkpt>
      <trkpt lat="43.00661" lon="-1.31414167">
        <ele>957.0</ele>
        <time>2019-07-31T08:36:24.173Z</time>
      </trkpt>
      <trkpt lat="43.00661667" lon="-1.31411333">
        <ele>958.0</ele>
        <time>2019-07-31T08:36:25.179Z</time>
      </trkpt>
      <trkpt lat="43.00661833" lon="-1.31409167">
        <ele>958.0</ele>
        <time>2019-07-31T08:36:26.184Z</time>
      </trkpt>
      <trkpt lat="43.006625" lon="-1.31406833">
        <ele>959.0</ele>
        <time>2019-07-31T08:36:27.064Z</time>
      </trkpt>
      <trkpt lat="43.00662667" lon="-1.31404667">
        <ele>960.0</ele>
        <time>2019-07-31T08:36:28.070Z</time>
      </trkpt>
      <trkpt lat="43.00662667" lon="-1.31402667">
        <ele>961.0</ele>
        <time>2019-07-31T08:36:29.078Z</time>
      </trkpt>
      <trkpt lat="43.006625" lon="-1.314005">
        <ele>962.0</ele>
        <time>2019-07-31T08:36:30.083Z</time>
      </trkpt>
      <trkpt lat="43.00662833" lon="-1.31398">
        <ele>961.0</ele>
        <time>2019-07-31T08:36:31.089Z</time>
      </trkpt>
      <trkpt lat="43.006625" lon="-1.31395333">
        <ele>960.0</ele>
        <time>2019-07-31T08:36:32.095Z</time>
      </trkpt>
      <trkpt lat="43.00662333" lon="-1.31393333">
        <ele>959.0</ele>
        <time>2019-07-31T08:36:33.101Z</time>
      </trkpt>
      <trkpt lat="43.00662" lon="-1.31392167">
        <ele>960.0</ele>
        <time>2019-07-31T08:36:34.107Z</time>
      </trkpt>
      <trkpt lat="43.00661667" lon="-1.31392">
        <ele>960.0</ele>
        <time>2019-07-31T08:36:35.114Z</time>
      </trkpt>
      <trkpt lat="43.00661333" lon="-1.31391833">
        <ele>961.0</ele>
        <time>2019-07-31T08:36:36.120Z</time>
      </trkpt>
      <trkpt lat="43.00662" lon="-1.31391333">
        <ele>962.0</ele>
        <time>2019-07-31T08:36:37.126Z</time>
      </trkpt>
      <trkpt lat="43.00662333" lon="-1.31391667">
        <ele>962.0</ele>
        <time>2019-07-31T08:36:38.132Z</time>
      </trkpt>
      <trkpt lat="43.00663" lon="-1.31391">
        <ele>963.0</ele>
        <time>2019-07-31T08:36:39.139Z</time>
      </trkpt>
      <trkpt lat="43.00663833" lon="-1.313905">
        <ele>963.0</ele>
        <time>2019-07-31T08:36:40.146Z</time>
      </trkpt>
      <trkpt lat="43.00664333" lon="-1.31390167">
        <ele>963.0</ele>
        <time>2019-07-31T08:36:41.150Z</time>
      </trkpt>
      <trkpt lat="43.00664833" lon="-1.31389833">
        <ele>963.0</ele>
        <time>2019-07-31T08:36:42.156Z</time>
      </trkpt>
      <trkpt lat="43.00665333" lon="-1.31389667">
        <ele>963.0</ele>
        <time>2019-07-31T08:36:43.161Z</time>
      </trkpt>
      <trkpt lat="43.006655" lon="-1.313895">
        <ele>963.0</ele>
        <time>2019-07-31T08:36:44.166Z</time>
      </trkpt>
      <trkpt lat="43.006655" lon="-1.31389167">
        <ele>963.0</ele>
        <time>2019-07-31T08:36:45.171Z</time>
      </trkpt>
      <trkpt lat="43.00664833" lon="-1.31388833">
        <ele>963.0</ele>
        <time>2019-07-31T08:36:46.176Z</time>
      </trkpt>
      <trkpt lat="43.00663833" lon="-1.31388">
        <ele>962.0</ele>
        <time>2019-07-31T08:36:47.181Z</time>
      </trkpt>
      <trkpt lat="43.00662833" lon="-1.31387">
        <ele>962.0</ele>
        <time>2019-07-31T08:36:48.061Z</time>
      </trkpt>
      <trkpt lat="43.00662" lon="-1.31385667">
        <ele>962.0</ele>
        <time>2019-07-31T08:36:49.066Z</time>
      </trkpt>
      <trkpt lat="43.00661167" lon="-1.31384167">
        <ele>962.0</ele>
        <time>2019-07-31T08:36:50.073Z</time>
      </trkpt>
      <trkpt lat="43.006605" lon="-1.31382">
        <ele>962.0</ele>
        <time>2019-07-31T08:36:51.079Z</time>
      </trkpt>
      <trkpt lat="43.00660167" lon="-1.3138">
        <ele>962.0</ele>
        <time>2019-07-31T08:36:52.086Z</time>
      </trkpt>
      <trkpt lat="43.00659833" lon="-1.31378167">
        <ele>961.0</ele>
        <time>2019-07-31T08:36:53.091Z</time>
      </trkpt>
      <trkpt lat="43.00659667" lon="-1.313765">
        <ele>961.0</ele>
        <time>2019-07-31T08:36:54.097Z</time>
      </trkpt>
      <trkpt lat="43.006595" lon="-1.31374333">
        <ele>961.0</ele>
        <time>2019-07-31T08:36:55.104Z</time>
      </trkpt>
      <trkpt lat="43.00659167" lon="-1.31372">
        <ele>961.0</ele>
        <time>2019-07-31T08:36:56.108Z</time>
      </trkpt>
      <trkpt lat="43.00658667" lon="-1.31369833">
        <ele>961.0</ele>
        <time>2019-07-31T08:36:57.112Z</time>
      </trkpt>
      <trkpt lat="43.00658333" lon="-1.31367833">
        <ele>960.0</ele>
        <time>2019-07-31T08:36:58.118Z</time>
      </trkpt>
      <trkpt lat="43.00657833" lon="-1.31366">
        <ele>960.0</ele>
        <time>2019-07-31T08:36:59.123Z</time>
      </trkpt>
      <trkpt lat="43.00657" lon="-1.313645">
        <ele>959.0</ele>
        <time>2019-07-31T08:37:00.126Z</time>
      </trkpt>
      <trkpt lat="43.00656" lon="-1.31362667">
        <ele>958.0</ele>
        <time>2019-07-31T08:37:01.132Z</time>
      </trkpt>
      <trkpt lat="43.00655167" lon="-1.31360667">
        <ele>958.0</ele>
        <time>2019-07-31T08:37:02.137Z</time>
      </trkpt>
      <trkpt lat="43.00654167" lon="-1.31358833">
        <ele>958.0</ele>
        <time>2019-07-31T08:37:03.141Z</time>
      </trkpt>
      <trkpt lat="43.006535" lon="-1.31357167">
        <ele>958.0</ele>
        <time>2019-07-31T08:37:04.145Z</time>
      </trkpt>
      <trkpt lat="43.00652833" lon="-1.313555">
        <ele>958.0</ele>
        <time>2019-07-31T08:37:05.152Z</time>
      </trkpt>
      <trkpt lat="43.00651833" lon="-1.31354">
        <ele>958.0</ele>
        <time>2019-07-31T08:37:06.160Z</time>
      </trkpt>
      <trkpt lat="43.006515" lon="-1.313525">
        <ele>958.0</ele>
        <time>2019-07-31T08:37:07.165Z</time>
      </trkpt>
      <trkpt lat="43.00651667" lon="-1.31350667">
        <ele>958.0</ele>
        <time>2019-07-31T08:37:08.168Z</time>
      </trkpt>
      <trkpt lat="43.00650667" lon="-1.31349167">
        <ele>957.0</ele>
        <time>2019-07-31T08:37:09.175Z</time>
      </trkpt>
      <trkpt lat="43.006495" lon="-1.313475">
        <ele>956.0</ele>
        <time>2019-07-31T08:37:10.181Z</time>
      </trkpt>
      <trkpt lat="43.00648" lon="-1.31346167">
        <ele>954.0</ele>
        <time>2019-07-31T08:37:11.062Z</time>
      </trkpt>
      <trkpt lat="43.00647" lon="-1.31344333">
        <ele>954.0</ele>
        <time>2019-07-31T08:37:12.067Z</time>
      </trkpt>
      <trkpt lat="43.00646833" lon="-1.31342333">
        <ele>953.0</ele>
        <time>2019-07-31T08:37:13.072Z</time>
      </trkpt>
      <trkpt lat="43.00646333" lon="-1.31339833">
        <ele>953.0</ele>
        <time>2019-07-31T08:37:14.077Z</time>
      </trkpt>
      <trkpt lat="43.00645833" lon="-1.313375">
        <ele>953.0</ele>
        <time>2019-07-31T08:37:15.082Z</time>
      </trkpt>
      <trkpt lat="43.00646" lon="-1.31334833">
        <ele>953.0</ele>
        <time>2019-07-31T08:37:16.087Z</time>
      </trkpt>
      <trkpt lat="43.00646" lon="-1.313325">
        <ele>952.0</ele>
        <time>2019-07-31T08:37:17.091Z</time>
      </trkpt>
      <trkpt lat="43.00646" lon="-1.313305">
        <ele>953.0</ele>
        <time>2019-07-31T08:37:18.097Z</time>
      </trkpt>
      <trkpt lat="43.00646167" lon="-1.31328333">
        <ele>953.0</ele>
        <time>2019-07-31T08:37:19.102Z</time>
      </trkpt>
      <trkpt lat="43.00646" lon="-1.313265">
        <ele>952.0</ele>
        <time>2019-07-31T08:37:20.106Z</time>
      </trkpt>
      <trkpt lat="43.00645667" lon="-1.31324667">
        <ele>952.0</ele>
        <time>2019-07-31T08:37:21.113Z</time>
      </trkpt>
      <trkpt lat="43.00644833" lon="-1.31323">
        <ele>952.0</ele>
        <time>2019-07-31T08:37:22.119Z</time>
      </trkpt>
      <trkpt lat="43.00644" lon="-1.313215">
        <ele>952.0</ele>
        <time>2019-07-31T08:37:23.124Z</time>
      </trkpt>
      <trkpt lat="43.006435" lon="-1.313205">
        <ele>952.0</ele>
        <time>2019-07-31T08:37:24.130Z</time>
      </trkpt>
      <trkpt lat="43.00642833" lon="-1.31319333">
        <ele>953.0</ele>
        <time>2019-07-31T08:37:25.136Z</time>
      </trkpt>
      <trkpt lat="43.00642333" lon="-1.31318167">
        <ele>953.0</ele>
        <time>2019-07-31T08:37:26.140Z</time>
      </trkpt>
      <trkpt lat="43.00642167" lon="-1.31316667">
        <ele>952.0</ele>
        <time>2019-07-31T08:37:27.145Z</time>
      </trkpt>
      <trkpt lat="43.00641833" lon="-1.31314833">
        <ele>952.0</ele>
        <time>2019-07-31T08:37:28.149Z</time>
      </trkpt>
      <trkpt lat="43.006415" lon="-1.31312333">
        <ele>952.0</ele>
        <time>2019-07-31T08:37:29.155Z</time>
      </trkpt>
      <trkpt lat="43.006415" lon="-1.31309833">
        <ele>951.0</ele>
        <time>2019-07-31T08:37:30.161Z</time>
      </trkpt>
      <trkpt lat="43.006415" lon="-1.31307167">
        <ele>951.0</ele>
        <time>2019-07-31T08:37:31.167Z</time>
      </trkpt>
      <trkpt lat="43.00641333" lon="-1.31304833">
        <ele>950.0</ele>
        <time>2019-07-31T08:37:32.172Z</time>
      </trkpt>
      <trkpt lat="43.006415" lon="-1.31302833">
        <ele>950.0</ele>
        <time>2019-07-31T08:37:33.177Z</time>
      </trkpt>
      <trkpt lat="43.006415" lon="-1.31300333">
        <ele>950.0</ele>
        <time>2019-07-31T08:37:34.181Z</time>
      </trkpt>
      <trkpt lat="43.006415" lon="-1.31298">
        <ele>950.0</ele>
        <time>2019-07-31T08:37:35.061Z</time>
      </trkpt>
      <trkpt lat="43.00641333" lon="-1.31296">
        <ele>949.0</ele>
        <time>2019-07-31T08:37:36.064Z</time>
      </trkpt>
      <trkpt lat="43.006415" lon="-1.31294167">
        <ele>950.0</ele>
        <time>2019-07-31T08:37:37.068Z</time>
      </trkpt>
      <trkpt lat="43.00641667" lon="-1.31292">
        <ele>950.0</ele>
        <time>2019-07-31T08:37:38.074Z</time>
      </trkpt>
      <trkpt lat="43.00641833" lon="-1.31290167">
        <ele>950.0</ele>
        <time>2019-07-31T08:37:39.079Z</time>
      </trkpt>
      <trkpt lat="43.006415" lon="-1.31289167">
        <ele>951.0</ele>
        <time>2019-07-31T08:37:40.085Z</time>
      </trkpt>
      <trkpt lat="43.00640667" lon="-1.31287833">
        <ele>952.0</ele>
        <time>2019-07-31T08:37:41.092Z</time>
      </trkpt>
      <trkpt lat="43.00640667" lon="-1.31286167">
        <ele>953.0</ele>
        <time>2019-07-31T08:37:42.100Z</time>
      </trkpt>
      <trkpt lat="43.006405" lon="-1.31284">
        <ele>954.0</ele>
        <time>2019-07-31T08:37:43.104Z</time>
      </trkpt>
      <trkpt lat="43.00640667" lon="-1.31281833">
        <ele>954.0</ele>
        <time>2019-07-31T08:37:44.110Z</time>
      </trkpt>
      <trkpt lat="43.006405" lon="-1.31279833">
        <ele>955.0</ele>
        <time>2019-07-31T08:37:45.114Z</time>
      </trkpt>
      <trkpt lat="43.006405" lon="-1.31278333">
        <ele>956.0</ele>
        <time>2019-07-31T08:37:46.120Z</time>
      </trkpt>
      <trkpt lat="43.006405" lon="-1.31276833">
        <ele>957.0</ele>
        <time>2019-07-31T08:37:47.126Z</time>
      </trkpt>
      <trkpt lat="43.0064" lon="-1.31274667">
        <ele>958.0</ele>
        <time>2019-07-31T08:37:48.131Z</time>
      </trkpt>
      <trkpt lat="43.00640333" lon="-1.31272167">
        <ele>958.0</ele>
        <time>2019-07-31T08:37:49.137Z</time>
      </trkpt>
      <trkpt lat="43.00640167" lon="-1.3127">
        <ele>959.0</ele>
        <time>2019-07-31T08:37:50.143Z</time>
      </trkpt>
      <trkpt lat="43.00639667" lon="-1.31267833">
        <ele>958.0</ele>
        <time>2019-07-31T08:37:51.148Z</time>
      </trkpt>
      <trkpt lat="43.00638667" lon="-1.31266167">
        <ele>958.0</ele>
        <time>2019-07-31T08:37:52.154Z</time>
      </trkpt>
      <trkpt lat="43.00637667" lon="-1.31264833">
        <ele>958.0</ele>
        <time>2019-07-31T08:37:53.159Z</time>
      </trkpt>
      <trkpt lat="43.00637" lon="-1.31262833">
        <ele>958.0</ele>
        <time>2019-07-31T08:37:54.164Z</time>
      </trkpt>
      <trkpt lat="43.00636833" lon="-1.31260667">
        <ele>958.0</ele>
        <time>2019-07-31T08:37:55.168Z</time>
      </trkpt>
      <trkpt lat="43.00636833" lon="-1.31258333">
        <ele>958.0</ele>
        <time>2019-07-31T08:37:56.173Z</time>
      </trkpt>
      <trkpt lat="43.00637" lon="-1.31255833">
        <ele>958.0</ele>
        <time>2019-07-31T08:37:57.179Z</time>
      </trkpt>
      <trkpt lat="43.00637" lon="-1.31253667">
        <ele>957.0</ele>
        <time>2019-07-31T08:37:58.184Z</time>
      </trkpt>
      <trkpt lat="43.00636833" lon="-1.31252">
        <ele>956.0</ele>
        <time>2019-07-31T08:37:59.064Z</time>
      </trkpt>
      <trkpt lat="43.00636333" lon="-1.31250667">
        <ele>954.0</ele>
        <time>2019-07-31T08:38:00.066Z</time>
      </trkpt>
      <trkpt lat="43.00636" lon="-1.31249167">
        <ele>954.0</ele>
        <time>2019-07-31T08:38:01.069Z</time>
      </trkpt>
      <trkpt lat="43.006355" lon="-1.31246833">
        <ele>954.0</ele>
        <time>2019-07-31T08:38:02.076Z</time>
      </trkpt>
      <trkpt lat="43.00635" lon="-1.31244333">
        <ele>954.0</ele>
        <time>2019-07-31T08:38:03.081Z</time>
      </trkpt>
      <trkpt lat="43.00635" lon="-1.31241667">
        <ele>953.0</ele>
        <time>2019-07-31T08:38:04.084Z</time>
      </trkpt>
      <trkpt lat="43.006345" lon="-1.31239833">
        <ele>953.0</ele>
        <time>2019-07-31T08:38:05.086Z</time>
      </trkpt>
      <trkpt lat="43.006335" lon="-1.312385">
        <ele>953.0</ele>
        <time>2019-07-31T08:38:06.090Z</time>
      </trkpt>
      <trkpt lat="43.00632667" lon="-1.31236833">
        <ele>954.0</ele>
        <time>2019-07-31T08:38:07.096Z</time>
      </trkpt>
      <trkpt lat="43.00632667" lon="-1.31235">
        <ele>954.0</ele>
        <time>2019-07-31T08:38:08.101Z</time>
      </trkpt>
      <trkpt lat="43.00632833" lon="-1.31232833">
        <ele>954.0</ele>
        <time>2019-07-31T08:38:09.104Z</time>
      </trkpt>
      <trkpt lat="43.00633333" lon="-1.312305">
        <ele>954.0</ele>
        <time>2019-07-31T08:38:10.109Z</time>
      </trkpt>
      <trkpt lat="43.00634" lon="-1.31227833">
        <ele>954.0</ele>
        <time>2019-07-31T08:38:11.115Z</time>
      </trkpt>
      <trkpt lat="43.00634" lon="-1.31225667">
        <ele>954.0</ele>
        <time>2019-07-31T08:38:12.121Z</time>
      </trkpt>
      <trkpt lat="43.00633667" lon="-1.31223">
        <ele>954.0</ele>
        <time>2019-07-31T08:38:13.126Z</time>
      </trkpt>
      <trkpt lat="43.00633333" lon="-1.3122">
        <ele>953.0</ele>
        <time>2019-07-31T08:38:14.132Z</time>
      </trkpt>
      <trkpt lat="43.00632667" lon="-1.31217333">
        <ele>952.0</ele>
        <time>2019-07-31T08:38:15.137Z</time>
      </trkpt>
      <trkpt lat="43.006325" lon="-1.31215">
        <ele>952.0</ele>
        <time>2019-07-31T08:38:16.144Z</time>
      </trkpt>
      <trkpt lat="43.00632" lon="-1.31213167">
        <ele>953.0</ele>
        <time>2019-07-31T08:38:17.150Z</time>
      </trkpt>
      <trkpt lat="43.00631667" lon="-1.31211667">
        <ele>953.0</ele>
        <time>2019-07-31T08:38:18.155Z</time>
      </trkpt>
      <trkpt lat="43.00631" lon="-1.312105">
        <ele>953.0</ele>
        <time>2019-07-31T08:38:19.159Z</time>
      </trkpt>
      <trkpt lat="43.00630167" lon="-1.3121">
        <ele>954.0</ele>
        <time>2019-07-31T08:38:20.165Z</time>
      </trkpt>
      <trkpt lat="43.00629833" lon="-1.312085">
        <ele>954.0</ele>
        <time>2019-07-31T08:38:21.170Z</time>
      </trkpt>
      <trkpt lat="43.00629833" lon="-1.31205833">
        <ele>955.0</ele>
        <time>2019-07-31T08:38:22.177Z</time>
      </trkpt>
      <trkpt lat="43.006295" lon="-1.312035">
        <ele>955.0</ele>
        <time>2019-07-31T08:38:23.183Z</time>
      </trkpt>
      <trkpt lat="43.0063" lon="-1.31201">
        <ele>955.0</ele>
        <time>2019-07-31T08:38:24.062Z</time>
      </trkpt>
      <trkpt lat="43.00630333" lon="-1.31198167">
        <ele>956.0</ele>
        <time>2019-07-31T08:38:25.069Z</time>
      </trkpt>
      <trkpt lat="43.00630333" lon="-1.31195667">
        <ele>956.0</ele>
        <time>2019-07-31T08:38:26.070Z</time>
      </trkpt>
      <trkpt lat="43.00629833" lon="-1.31193667">
        <ele>957.0</ele>
        <time>2019-07-31T08:38:27.075Z</time>
      </trkpt>
      <trkpt lat="43.00629667" lon="-1.31191667">
        <ele>958.0</ele>
        <time>2019-07-31T08:38:28.083Z</time>
      </trkpt>
      <trkpt lat="43.00629333" lon="-1.31189833">
        <ele>958.0</ele>
        <time>2019-07-31T08:38:29.087Z</time>
      </trkpt>
      <trkpt lat="43.00629167" lon="-1.31188167">
        <ele>958.0</ele>
        <time>2019-07-31T08:38:30.091Z</time>
      </trkpt>
      <trkpt lat="43.00628667" lon="-1.31187167">
        <ele>957.0</ele>
        <time>2019-07-31T08:38:31.098Z</time>
      </trkpt>
      <trkpt lat="43.00628333" lon="-1.31186333">
        <ele>957.0</ele>
        <time>2019-07-31T08:38:32.104Z</time>
      </trkpt>
      <trkpt lat="43.006285" lon="-1.311845">
        <ele>957.0</ele>
        <time>2019-07-31T08:38:33.110Z</time>
      </trkpt>
      <trkpt lat="43.006285" lon="-1.311825">
        <ele>957.0</ele>
        <time>2019-07-31T08:38:34.113Z</time>
      </trkpt>
      <trkpt lat="43.006295" lon="-1.31179833">
        <ele>957.0</ele>
        <time>2019-07-31T08:38:35.118Z</time>
      </trkpt>
      <trkpt lat="43.00630167" lon="-1.31177167">
        <ele>958.0</ele>
        <time>2019-07-31T08:38:36.123Z</time>
      </trkpt>
      <trkpt lat="43.00630667" lon="-1.31174333">
        <ele>958.0</ele>
        <time>2019-07-31T08:38:37.128Z</time>
      </trkpt>
      <trkpt lat="43.00630333" lon="-1.31173">
        <ele>958.0</ele>
        <time>2019-07-31T08:38:38.132Z</time>
      </trkpt>
      <trkpt lat="43.006295" lon="-1.311725">
        <ele>959.0</ele>
        <time>2019-07-31T08:38:39.137Z</time>
      </trkpt>
      <trkpt lat="43.00629" lon="-1.31172333">
        <ele>959.0</ele>
        <time>2019-07-31T08:38:40.141Z</time>
      </trkpt>
      <trkpt lat="43.00629833" lon="-1.31171333">
        <ele>959.0</ele>
        <time>2019-07-31T08:38:41.147Z</time>
      </trkpt>
      <trkpt lat="43.00630167" lon="-1.3117">
        <ele>960.0</ele>
        <time>2019-07-31T08:38:42.153Z</time>
      </trkpt>
      <trkpt lat="43.0063" lon="-1.31169333">
        <ele>962.0</ele>
        <time>2019-07-31T08:38:43.161Z</time>
      </trkpt>
      <trkpt lat="43.00629333" lon="-1.31169333">
        <ele>962.0</ele>
        <time>2019-07-31T08:38:44.166Z</time>
      </trkpt>
      <trkpt lat="43.006295" lon="-1.31168667">
        <ele>963.0</ele>
        <time>2019-07-31T08:38:45.171Z</time>
      </trkpt>
      <trkpt lat="43.00629667" lon="-1.31167833">
        <ele>964.0</ele>
        <time>2019-07-31T08:38:46.177Z</time>
      </trkpt>
      <trkpt lat="43.0063" lon="-1.31167167">
        <ele>964.0</ele>
        <time>2019-07-31T08:38:47.184Z</time>
      </trkpt>
      <trkpt lat="43.0063" lon="-1.31166833">
        <ele>965.0</ele>
        <time>2019-07-31T08:38:48.064Z</time>
      </trkpt>
      <trkpt lat="43.006295" lon="-1.31166667">
        <ele>966.0</ele>
        <time>2019-07-31T08:38:49.070Z</time>
      </trkpt>
      <trkpt lat="43.00629667" lon="-1.31166333">
        <ele>966.0</ele>
        <time>2019-07-31T08:38:50.076Z</time>
      </trkpt>
      <trkpt lat="43.00629167" lon="-1.31166833">
        <ele>967.0</ele>
        <time>2019-07-31T08:38:51.081Z</time>
      </trkpt>
      <trkpt lat="43.00628167" lon="-1.31167333">
        <ele>967.0</ele>
        <time>2019-07-31T08:38:52.086Z</time>
      </trkpt>
      <trkpt lat="43.00628" lon="-1.31167833">
        <ele>967.0</ele>
        <time>2019-07-31T08:38:53.091Z</time>
      </trkpt>
      <trkpt lat="43.006285" lon="-1.31167167">
        <ele>966.0</ele>
        <time>2019-07-31T08:38:54.096Z</time>
      </trkpt>
      <trkpt lat="43.006285" lon="-1.31167">
        <ele>966.0</ele>
        <time>2019-07-31T08:38:55.102Z</time>
      </trkpt>
      <trkpt lat="43.006285" lon="-1.31166833">
        <ele>966.0</ele>
        <time>2019-07-31T08:38:56.108Z</time>
      </trkpt>
      <trkpt lat="43.006285" lon="-1.31166833">
        <ele>966.0</ele>
        <time>2019-07-31T08:38:57.113Z</time>
      </trkpt>
      <trkpt lat="43.00628667" lon="-1.311665">
        <ele>966.0</ele>
        <time>2019-07-31T08:38:58.118Z</time>
      </trkpt>
      <trkpt lat="43.00628667" lon="-1.311665">
        <ele>967.0</ele>
        <time>2019-07-31T08:38:59.124Z</time>
      </trkpt>
      <trkpt lat="43.00628667" lon="-1.31166167">
        <ele>967.0</ele>
        <time>2019-07-31T08:39:00.131Z</time>
      </trkpt>
      <trkpt lat="43.006285" lon="-1.31166">
        <ele>967.0</ele>
        <time>2019-07-31T08:39:01.136Z</time>
      </trkpt>
      <trkpt lat="43.006285" lon="-1.31166">
        <ele>967.0</ele>
        <time>2019-07-31T08:39:02.141Z</time>
      </trkpt>
      <trkpt lat="43.00629" lon="-1.31165833">
        <ele>967.0</ele>
        <time>2019-07-31T08:39:03.145Z</time>
      </trkpt>
      <trkpt lat="43.00629333" lon="-1.31165667">
        <ele>968.0</ele>
        <time>2019-07-31T08:39:04.152Z</time>
      </trkpt>
      <trkpt lat="43.00629667" lon="-1.31165333">
        <ele>968.0</ele>
        <time>2019-07-31T08:39:05.158Z</time>
      </trkpt>
      <trkpt lat="43.00629833" lon="-1.31165">
        <ele>968.0</ele>
        <time>2019-07-31T08:39:06.164Z</time>
      </trkpt>
      <trkpt lat="43.00629833" lon="-1.31164667">
        <ele>968.0</ele>
        <time>2019-07-31T08:39:07.169Z</time>
      </trkpt>
      <trkpt lat="43.00629667" lon="-1.31164167">
        <ele>968.0</ele>
        <time>2019-07-31T08:39:08.173Z</time>
      </trkpt>
      <trkpt lat="43.006295" lon="-1.31163833">
        <ele>968.0</ele>
        <time>2019-07-31T08:39:09.176Z</time>
      </trkpt>
      <trkpt lat="43.00629167" lon="-1.31164">
        <ele>968.0</ele>
        <time>2019-07-31T08:39:10.183Z</time>
      </trkpt>
      <trkpt lat="43.00629167" lon="-1.31164">
        <ele>967.0</ele>
        <time>2019-07-31T08:39:11.063Z</time>
      </trkpt>
      <trkpt lat="43.00629333" lon="-1.31164">
        <ele>967.0</ele>
        <time>2019-07-31T08:39:12.067Z</time>
      </trkpt>
      <trkpt lat="43.00629333" lon="-1.31164167">
        <ele>967.0</ele>
        <time>2019-07-31T08:39:13.074Z</time>
      </trkpt>
      <trkpt lat="43.00629167" lon="-1.31164667">
        <ele>967.0</ele>
        <time>2019-07-31T08:39:14.080Z</time>
      </trkpt>
      <trkpt lat="43.00629167" lon="-1.31165">
        <ele>967.0</ele>
        <time>2019-07-31T08:39:15.085Z</time>
      </trkpt>
      <trkpt lat="43.00629167" lon="-1.31165333">
        <ele>966.0</ele>
        <time>2019-07-31T08:39:16.091Z</time>
      </trkpt>
      <trkpt lat="43.00629167" lon="-1.31165333">
        <ele>966.0</ele>
        <time>2019-07-31T08:39:17.098Z</time>
      </trkpt>
      <trkpt lat="43.00629167" lon="-1.31165">
        <ele>965.0</ele>
        <time>2019-07-31T08:39:18.104Z</time>
      </trkpt>
      <trkpt lat="43.00629" lon="-1.31164833">
        <ele>965.0</ele>
        <time>2019-07-31T08:39:19.110Z</time>
      </trkpt>
      <trkpt lat="43.00629" lon="-1.31165">
        <ele>964.0</ele>
        <time>2019-07-31T08:39:20.115Z</time>
      </trkpt>
      <trkpt lat="43.00628833" lon="-1.31165">
        <ele>964.0</ele>
        <time>2019-07-31T08:39:21.121Z</time>
      </trkpt>
      <trkpt lat="43.00628667" lon="-1.31165167">
        <ele>963.0</ele>
        <time>2019-07-31T08:39:22.126Z</time>
      </trkpt>
      <trkpt lat="43.006285" lon="-1.31164833">
        <ele>963.0</ele>
        <time>2019-07-31T08:39:23.130Z</time>
      </trkpt>
      <trkpt lat="43.00628667" lon="-1.311645">
        <ele>963.0</ele>
        <time>2019-07-31T08:39:24.136Z</time>
      </trkpt>
      <trkpt lat="43.00629" lon="-1.31164333">
        <ele>962.0</ele>
        <time>2019-07-31T08:39:25.143Z</time>
      </trkpt>
      <trkpt lat="43.00628833" lon="-1.31164167">
        <ele>962.0</ele>
        <time>2019-07-31T08:39:26.147Z</time>
      </trkpt>
      <trkpt lat="43.00629" lon="-1.31164">
        <ele>963.0</ele>
        <time>2019-07-31T08:39:27.153Z</time>
      </trkpt>
      <trkpt lat="43.00629" lon="-1.31163833">
        <ele>962.0</ele>
        <time>2019-07-31T08:39:28.156Z</time>
      </trkpt>
      <trkpt lat="43.00629333" lon="-1.31163833">
        <ele>962.0</ele>
        <time>2019-07-31T08:39:29.163Z</time>
      </trkpt>
      <trkpt lat="43.00629333" lon="-1.31164167">
        <ele>963.0</ele>
        <time>2019-07-31T08:39:30.168Z</time>
      </trkpt>
      <trkpt lat="43.00629333" lon="-1.31164167">
        <ele>962.0</ele>
        <time>2019-07-31T08:39:31.174Z</time>
      </trkpt>
      <trkpt lat="43.00629333" lon="-1.31164">
        <ele>963.0</ele>
        <time>2019-07-31T08:39:32.179Z</time>
      </trkpt>
      <trkpt lat="43.00629667" lon="-1.311635">
        <ele>963.0</ele>
        <time>2019-07-31T08:39:33.186Z</time>
      </trkpt>
      <trkpt lat="43.00629667" lon="-1.31163167">
        <ele>963.0</ele>
        <time>2019-07-31T08:39:34.067Z</time>
      </trkpt>
      <trkpt lat="43.00629333" lon="-1.31163167">
        <ele>963.0</ele>
        <time>2019-07-31T08:39:35.073Z</time>
      </trkpt>
      <trkpt lat="43.006295" lon="-1.31163">
        <ele>963.0</ele>
        <time>2019-07-31T08:39:36.078Z</time>
      </trkpt>
      <trkpt lat="43.00629833" lon="-1.31163">
        <ele>963.0</ele>
        <time>2019-07-31T08:39:37.082Z</time>
      </trkpt>
      <trkpt lat="43.00629833" lon="-1.31162833">
        <ele>962.0</ele>
        <time>2019-07-31T08:39:38.088Z</time>
      </trkpt>
      <trkpt lat="43.00630167" lon="-1.31162667">
        <ele>962.0</ele>
        <time>2019-07-31T08:39:39.091Z</time>
      </trkpt>
      <trkpt lat="43.00630333" lon="-1.31162667">
        <ele>962.0</ele>
        <time>2019-07-31T08:39:40.096Z</time>
      </trkpt>
      <trkpt lat="43.006305" lon="-1.31162333">
        <ele>962.0</ele>
        <time>2019-07-31T08:39:41.102Z</time>
      </trkpt>
      <trkpt lat="43.00630333" lon="-1.31162167">
        <ele>962.0</ele>
        <time>2019-07-31T08:39:42.108Z</time>
      </trkpt>
      <trkpt lat="43.0063" lon="-1.31162167">
        <ele>962.0</ele>
        <time>2019-07-31T08:39:43.114Z</time>
      </trkpt>
      <trkpt lat="43.00630333" lon="-1.31162167">
        <ele>962.0</ele>
        <time>2019-07-31T08:39:44.119Z</time>
      </trkpt>
      <trkpt lat="43.0063" lon="-1.311615">
        <ele>962.0</ele>
        <time>2019-07-31T08:39:45.124Z</time>
      </trkpt>
      <trkpt lat="43.00630333" lon="-1.311615">
        <ele>962.0</ele>
        <time>2019-07-31T08:39:46.131Z</time>
      </trkpt>
      <trkpt lat="43.0063" lon="-1.31161">
        <ele>962.0</ele>
        <time>2019-07-31T08:39:47.136Z</time>
      </trkpt>
      <trkpt lat="43.006295" lon="-1.31161667">
        <ele>962.0</ele>
        <time>2019-07-31T08:39:48.142Z</time>
      </trkpt>
      <trkpt lat="43.00629" lon="-1.31162">
        <ele>962.0</ele>
        <time>2019-07-31T08:39:49.147Z</time>
      </trkpt>
      <trkpt lat="43.00629" lon="-1.31161833">
        <ele>962.0</ele>
        <time>2019-07-31T08:39:50.153Z</time>
      </trkpt>
      <trkpt lat="43.00629167" lon="-1.31161667">
        <ele>962.0</ele>
        <time>2019-07-31T08:39:51.158Z</time>
      </trkpt>
      <trkpt lat="43.00629167" lon="-1.31161667">
        <ele>962.0</ele>
        <time>2019-07-31T08:39:52.163Z</time>
      </trkpt>
      <trkpt lat="43.00629167" lon="-1.31162167">
        <ele>962.0</ele>
        <time>2019-07-31T08:39:53.166Z</time>
      </trkpt>
      <trkpt lat="43.00629333" lon="-1.31162333">
        <ele>962.0</ele>
        <time>2019-07-31T08:39:54.172Z</time>
      </trkpt>
      <trkpt lat="43.00629333" lon="-1.31162667">
        <ele>962.0</ele>
        <time>2019-07-31T08:39:55.177Z</time>
      </trkpt>
      <trkpt lat="43.00629333" lon="-1.31162833">
        <ele>962.0</ele>
        <time>2019-07-31T08:39:56.183Z</time>
      </trkpt>
      <trkpt lat="43.006295" lon="-1.31163">
        <ele>962.0</ele>
        <time>2019-07-31T08:39:57.062Z</time>
      </trkpt>
      <trkpt lat="43.00629667" lon="-1.31163167">
        <ele>962.0</ele>
        <time>2019-07-31T08:39:58.067Z</time>
      </trkpt>
      <trkpt lat="43.00629667" lon="-1.31163333">
        <ele>961.0</ele>
        <time>2019-07-31T08:39:59.072Z</time>
      </trkpt>
      <trkpt lat="43.0063" lon="-1.31163167">
        <ele>961.0</ele>
        <time>2019-07-31T08:40:00.075Z</time>
      </trkpt>
      <trkpt lat="43.0063" lon="-1.31163667">
        <ele>961.0</ele>
        <time>2019-07-31T08:40:01.079Z</time>
      </trkpt>
      <trkpt lat="43.0063" lon="-1.31163667">
        <ele>961.0</ele>
        <time>2019-07-31T08:40:02.083Z</time>
      </trkpt>
      <trkpt lat="43.0063" lon="-1.31163167">
        <ele>961.0</ele>
        <time>2019-07-31T08:40:03.090Z</time>
      </trkpt>
      <trkpt lat="43.0063" lon="-1.31163">
        <ele>961.0</ele>
        <time>2019-07-31T08:40:04.097Z</time>
      </trkpt>
      <trkpt lat="43.00630167" lon="-1.31163">
        <ele>961.0</ele>
        <time>2019-07-31T08:40:05.101Z</time>
      </trkpt>
      <trkpt lat="43.00630333" lon="-1.31163">
        <ele>962.0</ele>
        <time>2019-07-31T08:40:06.105Z</time>
      </trkpt>
      <trkpt lat="43.006305" lon="-1.31163667">
        <ele>962.0</ele>
        <time>2019-07-31T08:40:07.111Z</time>
      </trkpt>
      <trkpt lat="43.00630667" lon="-1.311635">
        <ele>963.0</ele>
        <time>2019-07-31T08:40:08.116Z</time>
      </trkpt>
      <trkpt lat="43.00630333" lon="-1.31163667">
        <ele>963.0</ele>
        <time>2019-07-31T08:40:09.123Z</time>
      </trkpt>
      <trkpt lat="43.00629333" lon="-1.31163833">
        <ele>963.0</ele>
        <time>2019-07-31T08:40:10.129Z</time>
      </trkpt>
      <trkpt lat="43.00628333" lon="-1.31163833">
        <ele>963.0</ele>
        <time>2019-07-31T08:40:11.136Z</time>
      </trkpt>
      <trkpt lat="43.00628167" lon="-1.31164">
        <ele>963.0</ele>
        <time>2019-07-31T08:40:12.142Z</time>
      </trkpt>
      <trkpt lat="43.00628333" lon="-1.31163833">
        <ele>963.0</ele>
        <time>2019-07-31T08:40:13.147Z</time>
      </trkpt>
      <trkpt lat="43.00628667" lon="-1.31164">
        <ele>963.0</ele>
        <time>2019-07-31T08:40:14.152Z</time>
      </trkpt>
      <trkpt lat="43.00629167" lon="-1.31163833">
        <ele>963.0</ele>
        <time>2019-07-31T08:40:15.156Z</time>
      </trkpt>
      <trkpt lat="43.00629667" lon="-1.311635">
        <ele>963.0</ele>
        <time>2019-07-31T08:40:16.160Z</time>
      </trkpt>
      <trkpt lat="43.00629833" lon="-1.311635">
        <ele>962.0</ele>
        <time>2019-07-31T08:40:17.167Z</time>
      </trkpt>
      <trkpt lat="43.00629667" lon="-1.31163833">
        <ele>962.0</ele>
        <time>2019-07-31T08:40:18.172Z</time>
      </trkpt>
      <trkpt lat="43.00629167" lon="-1.31164">
        <ele>962.0</ele>
        <time>2019-07-31T08:40:19.178Z</time>
      </trkpt>
      <trkpt lat="43.00629167" lon="-1.311645">
        <ele>962.0</ele>
        <time>2019-07-31T08:40:20.182Z</time>
      </trkpt>
      <trkpt lat="43.00629" lon="-1.31164833">
        <ele>962.0</ele>
        <time>2019-07-31T08:40:21.063Z</time>
      </trkpt>
      <trkpt lat="43.00629" lon="-1.31165167">
        <ele>962.0</ele>
        <time>2019-07-31T08:40:22.066Z</time>
      </trkpt>
      <trkpt lat="43.00628667" lon="-1.31165667">
        <ele>962.0</ele>
        <time>2019-07-31T08:40:23.071Z</time>
      </trkpt>
      <trkpt lat="43.00628833" lon="-1.31165">
        <ele>963.0</ele>
        <time>2019-07-31T08:40:24.076Z</time>
      </trkpt>
      <trkpt lat="43.00629167" lon="-1.311645">
        <ele>963.0</ele>
        <time>2019-07-31T08:40:25.079Z</time>
      </trkpt>
      <trkpt lat="43.00629167" lon="-1.31163833">
        <ele>964.0</ele>
        <time>2019-07-31T08:40:26.082Z</time>
      </trkpt>
      <trkpt lat="43.00629" lon="-1.31162833">
        <ele>964.0</ele>
        <time>2019-07-31T08:40:27.087Z</time>
      </trkpt>
      <trkpt lat="43.00628333" lon="-1.31161667">
        <ele>964.0</ele>
        <time>2019-07-31T08:40:28.093Z</time>
      </trkpt>
      <trkpt lat="43.00627833" lon="-1.31161">
        <ele>964.0</ele>
        <time>2019-07-31T08:40:29.098Z</time>
      </trkpt>
      <trkpt lat="43.00626833" lon="-1.31160667">
        <ele>965.0</ele>
        <time>2019-07-31T08:40:30.104Z</time>
      </trkpt>
      <trkpt lat="43.00626333" lon="-1.31160833">
        <ele>964.0</ele>
        <time>2019-07-31T08:40:31.111Z</time>
      </trkpt>
      <trkpt lat="43.00626" lon="-1.311605">
        <ele>964.0</ele>
        <time>2019-07-31T08:40:32.117Z</time>
      </trkpt>
      <trkpt lat="43.006255" lon="-1.31159833">
        <ele>964.0</ele>
        <time>2019-07-31T08:40:33.120Z</time>
      </trkpt>
      <trkpt lat="43.00625667" lon="-1.31159667">
        <ele>964.0</ele>
        <time>2019-07-31T08:40:34.125Z</time>
      </trkpt>
      <trkpt lat="43.00626333" lon="-1.3116">
        <ele>964.0</ele>
        <time>2019-07-31T08:40:35.131Z</time>
      </trkpt>
      <trkpt lat="43.00627333" lon="-1.31161333">
        <ele>964.0</ele>
        <time>2019-07-31T08:40:36.135Z</time>
      </trkpt>
      <trkpt lat="43.00628" lon="-1.311615">
        <ele>964.0</ele>
        <time>2019-07-31T08:40:37.140Z</time>
      </trkpt>
      <trkpt lat="43.00628" lon="-1.31161">
        <ele>963.0</ele>
        <time>2019-07-31T08:40:38.146Z</time>
      </trkpt>
      <trkpt lat="43.00628333" lon="-1.311605">
        <ele>964.0</ele>
        <time>2019-07-31T08:40:39.151Z</time>
      </trkpt>
      <trkpt lat="43.00628167" lon="-1.311605">
        <ele>964.0</ele>
        <time>2019-07-31T08:40:40.157Z</time>
      </trkpt>
      <trkpt lat="43.00627833" lon="-1.31161167">
        <ele>964.0</ele>
        <time>2019-07-31T08:40:41.162Z</time>
      </trkpt>
      <trkpt lat="43.00627833" lon="-1.31161833">
        <ele>964.0</ele>
        <time>2019-07-31T08:40:42.168Z</time>
      </trkpt>
      <trkpt lat="43.00627333" lon="-1.311625">
        <ele>963.0</ele>
        <time>2019-07-31T08:40:43.175Z</time>
      </trkpt>
      <trkpt lat="43.006265" lon="-1.31163167">
        <ele>962.0</ele>
        <time>2019-07-31T08:40:44.181Z</time>
      </trkpt>
      <trkpt lat="43.00626167" lon="-1.31163667">
        <ele>961.0</ele>
        <time>2019-07-31T08:40:45.061Z</time>
      </trkpt>
      <trkpt lat="43.00626167" lon="-1.31163833">
        <ele>961.0</ele>
        <time>2019-07-31T08:40:46.066Z</time>
      </trkpt>
      <trkpt lat="43.00626333" lon="-1.31163833">
        <ele>962.0</ele>
        <time>2019-07-31T08:40:47.071Z</time>
      </trkpt>
      <trkpt lat="43.00626667" lon="-1.31163833">
        <ele>962.0</ele>
        <time>2019-07-31T08:40:48.078Z</time>
      </trkpt>
      <trkpt lat="43.00626833" lon="-1.311635">
        <ele>963.0</ele>
        <time>2019-07-31T08:40:49.083Z</time>
      </trkpt>
      <trkpt lat="43.00627" lon="-1.31163333">
        <ele>963.0</ele>
        <time>2019-07-31T08:40:50.089Z</time>
      </trkpt>
      <trkpt lat="43.00626833" lon="-1.31163333">
        <ele>964.0</ele>
        <time>2019-07-31T08:40:51.094Z</time>
      </trkpt>
      <trkpt lat="43.00627" lon="-1.31163167">
        <ele>964.0</ele>
        <time>2019-07-31T08:40:52.101Z</time>
      </trkpt>
      <trkpt lat="43.00627167" lon="-1.31162833">
        <ele>964.0</ele>
        <time>2019-07-31T08:40:53.107Z</time>
      </trkpt>
      <trkpt lat="43.00627333" lon="-1.31162833">
        <ele>965.0</ele>
        <time>2019-07-31T08:40:54.112Z</time>
      </trkpt>
      <trkpt lat="43.006275" lon="-1.31162833">
        <ele>965.0</ele>
        <time>2019-07-31T08:40:55.119Z</time>
      </trkpt>
      <trkpt lat="43.00627667" lon="-1.31162667">
        <ele>965.0</ele>
        <time>2019-07-31T08:40:56.123Z</time>
      </trkpt>
      <trkpt lat="43.00628" lon="-1.31162667">
        <ele>966.0</ele>
        <time>2019-07-31T08:40:57.127Z</time>
      </trkpt>
      <trkpt lat="43.00628333" lon="-1.31162833">
        <ele>966.0</ele>
        <time>2019-07-31T08:40:58.132Z</time>
      </trkpt>
      <trkpt lat="43.00628167" lon="-1.31163167">
        <ele>967.0</ele>
        <time>2019-07-31T08:40:59.138Z</time>
      </trkpt>
      <trkpt lat="43.00627833" lon="-1.311635">
        <ele>967.0</ele>
        <time>2019-07-31T08:41:00.144Z</time>
      </trkpt>
      <trkpt lat="43.00627333" lon="-1.31164">
        <ele>968.0</ele>
        <time>2019-07-31T08:41:01.149Z</time>
      </trkpt>
      <trkpt lat="43.00627333" lon="-1.31164333">
        <ele>968.0</ele>
        <time>2019-07-31T08:41:02.156Z</time>
      </trkpt>
      <trkpt lat="43.00627667" lon="-1.31164667">
        <ele>968.0</ele>
        <time>2019-07-31T08:41:03.162Z</time>
      </trkpt>
      <trkpt lat="43.00628167" lon="-1.31164167">
        <ele>968.0</ele>
        <time>2019-07-31T08:41:04.166Z</time>
      </trkpt>
      <trkpt lat="43.00628333" lon="-1.31163667">
        <ele>967.0</ele>
        <time>2019-07-31T08:41:05.171Z</time>
      </trkpt>
      <trkpt lat="43.00628333" lon="-1.31163333">
        <ele>968.0</ele>
        <time>2019-07-31T08:41:06.175Z</time>
      </trkpt>
      <trkpt lat="43.006285" lon="-1.31163333">
        <ele>968.0</ele>
        <time>2019-07-31T08:41:07.183Z</time>
      </trkpt>
      <trkpt lat="43.00629" lon="-1.311625">
        <ele>968.0</ele>
        <time>2019-07-31T08:41:08.064Z</time>
      </trkpt>
      <trkpt lat="43.00629167" lon="-1.31162167">
        <ele>967.0</ele>
        <time>2019-07-31T08:41:09.071Z</time>
      </trkpt>
      <trkpt lat="43.006295" lon="-1.31162">
        <ele>967.0</ele>
        <time>2019-07-31T08:41:10.077Z</time>
      </trkpt>
      <trkpt lat="43.00629667" lon="-1.31162">
        <ele>967.0</ele>
        <time>2019-07-31T08:41:11.083Z</time>
      </trkpt>
      <trkpt lat="43.00630167" lon="-1.31161667">
        <ele>967.0</ele>
        <time>2019-07-31T08:41:12.089Z</time>
      </trkpt>
      <trkpt lat="43.006305" lon="-1.31161333">
        <ele>967.0</ele>
        <time>2019-07-31T08:41:13.095Z</time>
      </trkpt>
      <trkpt lat="43.006305" lon="-1.31161">
        <ele>967.0</ele>
        <time>2019-07-31T08:41:14.100Z</time>
      </trkpt>
      <trkpt lat="43.00630167" lon="-1.31161333">
        <ele>966.0</ele>
        <time>2019-07-31T08:41:15.104Z</time>
      </trkpt>
      <trkpt lat="43.0063" lon="-1.311615">
        <ele>966.0</ele>
        <time>2019-07-31T08:41:16.110Z</time>
      </trkpt>
      <trkpt lat="43.00630167" lon="-1.31161333">
        <ele>965.0</ele>
        <time>2019-07-31T08:41:17.117Z</time>
      </trkpt>
      <trkpt lat="43.00630167" lon="-1.311615">
        <ele>965.0</ele>
        <time>2019-07-31T08:41:18.120Z</time>
      </trkpt>
      <trkpt lat="43.006305" lon="-1.31161667">
        <ele>966.0</ele>
        <time>2019-07-31T08:41:19.125Z</time>
      </trkpt>
      <trkpt lat="43.00630833" lon="-1.311615">
        <ele>966.0</ele>
        <time>2019-07-31T08:41:20.130Z</time>
      </trkpt>
      <trkpt lat="43.00631167" lon="-1.31161167">
        <ele>967.0</ele>
        <time>2019-07-31T08:41:21.135Z</time>
      </trkpt>
      <trkpt lat="43.00631167" lon="-1.31161">
        <ele>967.0</ele>
        <time>2019-07-31T08:41:22.141Z</time>
      </trkpt>
      <trkpt lat="43.00631" lon="-1.31161167">
        <ele>968.0</ele>
        <time>2019-07-31T08:41:23.148Z</time>
      </trkpt>
      <trkpt lat="43.00631" lon="-1.31161167">
        <ele>968.0</ele>
        <time>2019-07-31T08:41:24.152Z</time>
      </trkpt>
      <trkpt lat="43.00631" lon="-1.311615">
        <ele>969.0</ele>
        <time>2019-07-31T08:41:25.157Z</time>
      </trkpt>
      <trkpt lat="43.00630833" lon="-1.31161667">
        <ele>969.0</ele>
        <time>2019-07-31T08:41:26.163Z</time>
      </trkpt>
      <trkpt lat="43.00631" lon="-1.31161667">
        <ele>970.0</ele>
        <time>2019-07-31T08:41:27.168Z</time>
      </trkpt>
      <trkpt lat="43.00631333" lon="-1.31161833">
        <ele>969.0</ele>
        <time>2019-07-31T08:41:28.174Z</time>
      </trkpt>
      <trkpt lat="43.00631833" lon="-1.31161833">
        <ele>969.0</ele>
        <time>2019-07-31T08:41:29.181Z</time>
      </trkpt>
      <trkpt lat="43.00632" lon="-1.31162">
        <ele>970.0</ele>
        <time>2019-07-31T08:41:30.061Z</time>
      </trkpt>
      <trkpt lat="43.00631833" lon="-1.31162333">
        <ele>971.0</ele>
        <time>2019-07-31T08:41:31.068Z</time>
      </trkpt>
      <trkpt lat="43.00631833" lon="-1.311625">
        <ele>971.0</ele>
        <time>2019-07-31T08:41:32.072Z</time>
      </trkpt>
      <trkpt lat="43.00632" lon="-1.31162167">
        <ele>972.0</ele>
        <time>2019-07-31T08:41:33.079Z</time>
      </trkpt>
      <trkpt lat="43.00632" lon="-1.31161667">
        <ele>972.0</ele>
        <time>2019-07-31T08:41:34.083Z</time>
      </trkpt>
      <trkpt lat="43.00631833" lon="-1.31161167">
        <ele>973.0</ele>
        <time>2019-07-31T08:41:35.089Z</time>
      </trkpt>
      <trkpt lat="43.006315" lon="-1.31160667">
        <ele>973.0</ele>
        <time>2019-07-31T08:41:36.096Z</time>
      </trkpt>
      <trkpt lat="43.00631667" lon="-1.31160333">
        <ele>974.0</ele>
        <time>2019-07-31T08:41:37.101Z</time>
      </trkpt>
      <trkpt lat="43.00631833" lon="-1.31160167">
        <ele>975.0</ele>
        <time>2019-07-31T08:41:38.106Z</time>
      </trkpt>
      <trkpt lat="43.006315" lon="-1.31159667">
        <ele>975.0</ele>
        <time>2019-07-31T08:41:39.109Z</time>
      </trkpt>
      <trkpt lat="43.00631333" lon="-1.31159">
        <ele>975.0</ele>
        <time>2019-07-31T08:41:40.114Z</time>
      </trkpt>
      <trkpt lat="43.00631167" lon="-1.311585">
        <ele>976.0</ele>
        <time>2019-07-31T08:41:41.117Z</time>
      </trkpt>
      <trkpt lat="43.00631333" lon="-1.31157667">
        <ele>976.0</ele>
        <time>2019-07-31T08:41:42.123Z</time>
      </trkpt>
      <trkpt lat="43.006315" lon="-1.31157">
        <ele>976.0</ele>
        <time>2019-07-31T08:41:43.128Z</time>
      </trkpt>
      <trkpt lat="43.00631667" lon="-1.31157">
        <ele>976.0</ele>
        <time>2019-07-31T08:41:44.135Z</time>
      </trkpt>
      <trkpt lat="43.00631667" lon="-1.31156833">
        <ele>976.0</ele>
        <time>2019-07-31T08:41:45.141Z</time>
      </trkpt>
      <trkpt lat="43.00631667" lon="-1.31157167">
        <ele>975.0</ele>
        <time>2019-07-31T08:41:46.146Z</time>
      </trkpt>
      <trkpt lat="43.00631" lon="-1.31158167">
        <ele>975.0</ele>
        <time>2019-07-31T08:41:47.151Z</time>
      </trkpt>
      <trkpt lat="43.00631" lon="-1.31158667">
        <ele>975.0</ele>
        <time>2019-07-31T08:41:48.157Z</time>
      </trkpt>
      <trkpt lat="43.00630833" lon="-1.31158667">
        <ele>975.0</ele>
        <time>2019-07-31T08:41:49.162Z</time>
      </trkpt>
      <trkpt lat="43.006305" lon="-1.31158667">
        <ele>974.0</ele>
        <time>2019-07-31T08:41:50.167Z</time>
      </trkpt>
      <trkpt lat="43.0063" lon="-1.31158667">
        <ele>974.0</ele>
        <time>2019-07-31T08:41:51.175Z</time>
      </trkpt>
      <trkpt lat="43.00629" lon="-1.31158">
        <ele>974.0</ele>
        <time>2019-07-31T08:41:52.183Z</time>
      </trkpt>
      <trkpt lat="43.006285" lon="-1.31157333">
        <ele>974.0</ele>
        <time>2019-07-31T08:41:53.063Z</time>
      </trkpt>
      <trkpt lat="43.00628167" lon="-1.31156833">
        <ele>974.0</ele>
        <time>2019-07-31T08:41:54.068Z</time>
      </trkpt>
      <trkpt lat="43.00627833" lon="-1.31156667">
        <ele>974.0</ele>
        <time>2019-07-31T08:41:55.071Z</time>
      </trkpt>
      <trkpt lat="43.00627667" lon="-1.311565">
        <ele>974.0</ele>
        <time>2019-07-31T08:41:56.074Z</time>
      </trkpt>
      <trkpt lat="43.00627333" lon="-1.31156333">
        <ele>973.0</ele>
        <time>2019-07-31T08:41:57.081Z</time>
      </trkpt>
      <trkpt lat="43.00627167" lon="-1.31156333">
        <ele>973.0</ele>
        <time>2019-07-31T08:41:58.085Z</time>
      </trkpt>
      <trkpt lat="43.00626833" lon="-1.31156333">
        <ele>973.0</ele>
        <time>2019-07-31T08:41:59.091Z</time>
      </trkpt>
      <trkpt lat="43.00627" lon="-1.311565">
        <ele>973.0</ele>
        <time>2019-07-31T08:42:00.094Z</time>
      </trkpt>
      <trkpt lat="43.00627" lon="-1.311565">
        <ele>973.0</ele>
        <time>2019-07-31T08:42:01.097Z</time>
      </trkpt>
      <trkpt lat="43.00626667" lon="-1.311565">
        <ele>973.0</ele>
        <time>2019-07-31T08:42:02.101Z</time>
      </trkpt>
      <trkpt lat="43.006265" lon="-1.31157">
        <ele>972.0</ele>
        <time>2019-07-31T08:42:03.106Z</time>
      </trkpt>
      <trkpt lat="43.00626167" lon="-1.31157333">
        <ele>972.0</ele>
        <time>2019-07-31T08:42:04.111Z</time>
      </trkpt>
      <trkpt lat="43.00625667" lon="-1.311575">
        <ele>972.0</ele>
        <time>2019-07-31T08:42:05.115Z</time>
      </trkpt>
      <trkpt lat="43.00625833" lon="-1.31157333">
        <ele>972.0</ele>
        <time>2019-07-31T08:42:06.118Z</time>
      </trkpt>
      <trkpt lat="43.00626" lon="-1.31156833">
        <ele>972.0</ele>
        <time>2019-07-31T08:42:07.123Z</time>
      </trkpt>
      <trkpt lat="43.00626" lon="-1.311565">
        <ele>971.0</ele>
        <time>2019-07-31T08:42:08.126Z</time>
      </trkpt>
      <trkpt lat="43.00625667" lon="-1.31156667">
        <ele>971.0</ele>
        <time>2019-07-31T08:42:09.132Z</time>
      </trkpt>
      <trkpt lat="43.00625" lon="-1.311565">
        <ele>971.0</ele>
        <time>2019-07-31T08:42:10.135Z</time>
      </trkpt>
      <trkpt lat="43.00624333" lon="-1.31155833">
        <ele>971.0</ele>
        <time>2019-07-31T08:42:11.137Z</time>
      </trkpt>
      <trkpt lat="43.00623833" lon="-1.31155167">
        <ele>972.0</ele>
        <time>2019-07-31T08:42:12.143Z</time>
      </trkpt>
      <trkpt lat="43.006235" lon="-1.311545">
        <ele>971.0</ele>
        <time>2019-07-31T08:42:13.149Z</time>
      </trkpt>
      <trkpt lat="43.00623333" lon="-1.31154333">
        <ele>971.0</ele>
        <time>2019-07-31T08:42:14.155Z</time>
      </trkpt>
      <trkpt lat="43.00623" lon="-1.31154">
        <ele>970.0</ele>
        <time>2019-07-31T08:42:15.162Z</time>
      </trkpt>
      <trkpt lat="43.00622667" lon="-1.31153333">
        <ele>970.0</ele>
        <time>2019-07-31T08:42:16.167Z</time>
      </trkpt>
      <trkpt lat="43.006225" lon="-1.311525">
        <ele>969.0</ele>
        <time>2019-07-31T08:42:17.169Z</time>
      </trkpt>
      <trkpt lat="43.00622667" lon="-1.31152">
        <ele>969.0</ele>
        <time>2019-07-31T08:42:18.176Z</time>
      </trkpt>
      <trkpt lat="43.006225" lon="-1.31151833">
        <ele>970.0</ele>
        <time>2019-07-31T08:42:19.183Z</time>
      </trkpt>
      <trkpt lat="43.00622833" lon="-1.31151833">
        <ele>971.0</ele>
        <time>2019-07-31T08:42:20.063Z</time>
      </trkpt>
      <trkpt lat="43.00622667" lon="-1.31152167">
        <ele>972.0</ele>
        <time>2019-07-31T08:42:21.069Z</time>
      </trkpt>
      <trkpt lat="43.00623" lon="-1.311525">
        <ele>973.0</ele>
        <time>2019-07-31T08:42:22.075Z</time>
      </trkpt>
      <trkpt lat="43.00623167" lon="-1.31152833">
        <ele>974.0</ele>
        <time>2019-07-31T08:42:23.081Z</time>
      </trkpt>
      <trkpt lat="43.00623833" lon="-1.31152667">
        <ele>974.0</ele>
        <time>2019-07-31T08:42:24.086Z</time>
      </trkpt>
      <trkpt lat="43.00623667" lon="-1.311525">
        <ele>974.0</ele>
        <time>2019-07-31T08:42:25.092Z</time>
      </trkpt>
      <trkpt lat="43.006235" lon="-1.31152333">
        <ele>974.0</ele>
        <time>2019-07-31T08:42:26.097Z</time>
      </trkpt>
      <trkpt lat="43.00623333" lon="-1.31152667">
        <ele>974.0</ele>
        <time>2019-07-31T08:42:27.101Z</time>
      </trkpt>
      <trkpt lat="43.006235" lon="-1.311525">
        <ele>974.0</ele>
        <time>2019-07-31T08:42:28.108Z</time>
      </trkpt>
      <trkpt lat="43.006235" lon="-1.311525">
        <ele>973.0</ele>
        <time>2019-07-31T08:42:29.115Z</time>
      </trkpt>
      <trkpt lat="43.00623667" lon="-1.31152333">
        <ele>972.0</ele>
        <time>2019-07-31T08:42:30.121Z</time>
      </trkpt>
      <trkpt lat="43.00624167" lon="-1.311525">
        <ele>973.0</ele>
        <time>2019-07-31T08:42:31.124Z</time>
      </trkpt>
      <trkpt lat="43.006245" lon="-1.31152333">
        <ele>973.0</ele>
        <time>2019-07-31T08:42:32.128Z</time>
      </trkpt>
      <trkpt lat="43.00624667" lon="-1.31152167">
        <ele>973.0</ele>
        <time>2019-07-31T08:42:33.133Z</time>
      </trkpt>
      <trkpt lat="43.006245" lon="-1.31151667">
        <ele>972.0</ele>
        <time>2019-07-31T08:42:34.139Z</time>
      </trkpt>
      <trkpt lat="43.00624333" lon="-1.31151167">
        <ele>972.0</ele>
        <time>2019-07-31T08:42:35.144Z</time>
      </trkpt>
      <trkpt lat="43.00624" lon="-1.311505">
        <ele>973.0</ele>
        <time>2019-07-31T08:42:36.151Z</time>
      </trkpt>
      <trkpt lat="43.00623833" lon="-1.31149333">
        <ele>973.0</ele>
        <time>2019-07-31T08:42:37.156Z</time>
      </trkpt>
      <trkpt lat="43.006235" lon="-1.311485">
        <ele>973.0</ele>
        <time>2019-07-31T08:42:38.161Z</time>
      </trkpt>
      <trkpt lat="43.00623333" lon="-1.31147667">
        <ele>972.0</ele>
        <time>2019-07-31T08:42:39.165Z</time>
      </trkpt>
      <trkpt lat="43.00623" lon="-1.31147333">
        <ele>972.0</ele>
        <time>2019-07-31T08:42:40.169Z</time>
      </trkpt>
      <trkpt lat="43.00622667" lon="-1.31147">
        <ele>971.0</ele>
        <time>2019-07-31T08:42:41.175Z</time>
      </trkpt>
      <trkpt lat="43.00622167" lon="-1.31146167">
        <ele>970.0</ele>
        <time>2019-07-31T08:42:42.182Z</time>
      </trkpt>
      <trkpt lat="43.006215" lon="-1.31145">
        <ele>970.0</ele>
        <time>2019-07-31T08:42:43.061Z</time>
      </trkpt>
      <trkpt lat="43.00621333" lon="-1.31143667">
        <ele>969.0</ele>
        <time>2019-07-31T08:42:44.067Z</time>
      </trkpt>
      <trkpt lat="43.00621333" lon="-1.311425">
        <ele>968.0</ele>
        <time>2019-07-31T08:42:45.072Z</time>
      </trkpt>
      <trkpt lat="43.00621333" lon="-1.31141167">
        <ele>968.0</ele>
        <time>2019-07-31T08:42:46.078Z</time>
      </trkpt>
      <trkpt lat="43.006215" lon="-1.3114">
        <ele>969.0</ele>
        <time>2019-07-31T08:42:47.083Z</time>
      </trkpt>
      <trkpt lat="43.00621333" lon="-1.31138667">
        <ele>968.0</ele>
        <time>2019-07-31T08:42:48.088Z</time>
      </trkpt>
      <trkpt lat="43.00621" lon="-1.31137167">
        <ele>968.0</ele>
        <time>2019-07-31T08:42:49.093Z</time>
      </trkpt>
      <trkpt lat="43.00619667" lon="-1.31136">
        <ele>968.0</ele>
        <time>2019-07-31T08:42:50.097Z</time>
      </trkpt>
      <trkpt lat="43.00618833" lon="-1.31134833">
        <ele>968.0</ele>
        <time>2019-07-31T08:42:51.103Z</time>
      </trkpt>
      <trkpt lat="43.00618333" lon="-1.311335">
        <ele>968.0</ele>
        <time>2019-07-31T08:42:52.110Z</time>
      </trkpt>
      <trkpt lat="43.00618" lon="-1.31131833">
        <ele>967.0</ele>
        <time>2019-07-31T08:42:53.116Z</time>
      </trkpt>
      <trkpt lat="43.00617667" lon="-1.31130333">
        <ele>967.0</ele>
        <time>2019-07-31T08:42:54.121Z</time>
      </trkpt>
      <trkpt lat="43.006175" lon="-1.31128667">
        <ele>967.0</ele>
        <time>2019-07-31T08:42:55.125Z</time>
      </trkpt>
      <trkpt lat="43.00617" lon="-1.31127167">
        <ele>966.0</ele>
        <time>2019-07-31T08:42:56.129Z</time>
      </trkpt>
      <trkpt lat="43.00616333" lon="-1.31125667">
        <ele>966.0</ele>
        <time>2019-07-31T08:42:57.136Z</time>
      </trkpt>
      <trkpt lat="43.00615833" lon="-1.31123833">
        <ele>966.0</ele>
        <time>2019-07-31T08:42:58.142Z</time>
      </trkpt>
      <trkpt lat="43.00615667" lon="-1.31122333">
        <ele>967.0</ele>
        <time>2019-07-31T08:42:59.148Z</time>
      </trkpt>
      <trkpt lat="43.00615167" lon="-1.31120833">
        <ele>967.0</ele>
        <time>2019-07-31T08:43:00.154Z</time>
      </trkpt>
      <trkpt lat="43.00614667" lon="-1.31119167">
        <ele>967.0</ele>
        <time>2019-07-31T08:43:01.160Z</time>
      </trkpt>
      <trkpt lat="43.00614" lon="-1.31117167">
        <ele>967.0</ele>
        <time>2019-07-31T08:43:02.165Z</time>
      </trkpt>
      <trkpt lat="43.00613" lon="-1.31115167">
        <ele>966.0</ele>
        <time>2019-07-31T08:43:03.170Z</time>
      </trkpt>
      <trkpt lat="43.006125" lon="-1.31113167">
        <ele>966.0</ele>
        <time>2019-07-31T08:43:04.175Z</time>
      </trkpt>
      <trkpt lat="43.00612167" lon="-1.31111167">
        <ele>966.0</ele>
        <time>2019-07-31T08:43:05.177Z</time>
      </trkpt>
      <trkpt lat="43.00611833" lon="-1.31109167">
        <ele>966.0</ele>
        <time>2019-07-31T08:43:06.179Z</time>
      </trkpt>
      <trkpt lat="43.00611333" lon="-1.31107">
        <ele>966.0</ele>
        <time>2019-07-31T08:43:07.185Z</time>
      </trkpt>
      <trkpt lat="43.00610667" lon="-1.31105333">
        <ele>965.0</ele>
        <time>2019-07-31T08:43:08.063Z</time>
      </trkpt>
      <trkpt lat="43.0061" lon="-1.311035">
        <ele>965.0</ele>
        <time>2019-07-31T08:43:09.068Z</time>
      </trkpt>
      <trkpt lat="43.00609" lon="-1.31102167">
        <ele>964.0</ele>
        <time>2019-07-31T08:43:10.076Z</time>
      </trkpt>
      <trkpt lat="43.006085" lon="-1.311005">
        <ele>964.0</ele>
        <time>2019-07-31T08:43:11.082Z</time>
      </trkpt>
      <trkpt lat="43.00608" lon="-1.31098833">
        <ele>964.0</ele>
        <time>2019-07-31T08:43:12.087Z</time>
      </trkpt>
      <trkpt lat="43.00607667" lon="-1.31096833">
        <ele>964.0</ele>
        <time>2019-07-31T08:43:13.093Z</time>
      </trkpt>
      <trkpt lat="43.00607333" lon="-1.31094667">
        <ele>965.0</ele>
        <time>2019-07-31T08:43:14.099Z</time>
      </trkpt>
      <trkpt lat="43.006065" lon="-1.31092667">
        <ele>966.0</ele>
        <time>2019-07-31T08:43:15.104Z</time>
      </trkpt>
      <trkpt lat="43.00605667" lon="-1.31090667">
        <ele>966.0</ele>
        <time>2019-07-31T08:43:16.110Z</time>
      </trkpt>
      <trkpt lat="43.006055" lon="-1.31088667">
        <ele>965.0</ele>
        <time>2019-07-31T08:43:17.115Z</time>
      </trkpt>
      <trkpt lat="43.006055" lon="-1.31086833">
        <ele>965.0</ele>
        <time>2019-07-31T08:43:18.119Z</time>
      </trkpt>
      <trkpt lat="43.006055" lon="-1.31084667">
        <ele>964.0</ele>
        <time>2019-07-31T08:43:19.124Z</time>
      </trkpt>
      <trkpt lat="43.00605167" lon="-1.31082667">
        <ele>964.0</ele>
        <time>2019-07-31T08:43:20.127Z</time>
      </trkpt>
      <trkpt lat="43.00604833" lon="-1.31080333">
        <ele>964.0</ele>
        <time>2019-07-31T08:43:21.132Z</time>
      </trkpt>
      <trkpt lat="43.00604667" lon="-1.31078167">
        <ele>965.0</ele>
        <time>2019-07-31T08:43:22.139Z</time>
      </trkpt>
      <trkpt lat="43.00604" lon="-1.31075667">
        <ele>965.0</ele>
        <time>2019-07-31T08:43:23.145Z</time>
      </trkpt>
      <trkpt lat="43.00604" lon="-1.31073667">
        <ele>965.0</ele>
        <time>2019-07-31T08:43:24.149Z</time>
      </trkpt>
      <trkpt lat="43.00603833" lon="-1.31071667">
        <ele>965.0</ele>
        <time>2019-07-31T08:43:25.154Z</time>
      </trkpt>
      <trkpt lat="43.00603167" lon="-1.31070167">
        <ele>965.0</ele>
        <time>2019-07-31T08:43:26.160Z</time>
      </trkpt>
      <trkpt lat="43.00602667" lon="-1.31067667">
        <ele>965.0</ele>
        <time>2019-07-31T08:43:27.164Z</time>
      </trkpt>
      <trkpt lat="43.00602" lon="-1.31065833">
        <ele>965.0</ele>
        <time>2019-07-31T08:43:28.168Z</time>
      </trkpt>
      <trkpt lat="43.00601667" lon="-1.31065">
        <ele>965.0</ele>
        <time>2019-07-31T08:43:29.175Z</time>
      </trkpt>
      <trkpt lat="43.00601667" lon="-1.31064667">
        <ele>965.0</ele>
        <time>2019-07-31T08:43:30.179Z</time>
      </trkpt>
      <trkpt lat="43.006015" lon="-1.310635">
        <ele>964.0</ele>
        <time>2019-07-31T08:43:31.181Z</time>
      </trkpt>
      <trkpt lat="43.00601167" lon="-1.31062167">
        <ele>964.0</ele>
        <time>2019-07-31T08:43:32.186Z</time>
      </trkpt>
      <trkpt lat="43.00601" lon="-1.31060667">
        <ele>964.0</ele>
        <time>2019-07-31T08:43:33.065Z</time>
      </trkpt>
      <trkpt lat="43.00601" lon="-1.31058833">
        <ele>964.0</ele>
        <time>2019-07-31T08:43:34.068Z</time>
      </trkpt>
      <trkpt lat="43.006005" lon="-1.31057167">
        <ele>964.0</ele>
        <time>2019-07-31T08:43:35.075Z</time>
      </trkpt>
      <trkpt lat="43.006" lon="-1.31055667">
        <ele>964.0</ele>
        <time>2019-07-31T08:43:36.080Z</time>
      </trkpt>
      <trkpt lat="43.00599667" lon="-1.31054333">
        <ele>964.0</ele>
        <time>2019-07-31T08:43:37.085Z</time>
      </trkpt>
      <trkpt lat="43.00599167" lon="-1.310535">
        <ele>964.0</ele>
        <time>2019-07-31T08:43:38.091Z</time>
      </trkpt>
      <trkpt lat="43.00599" lon="-1.31052">
        <ele>964.0</ele>
        <time>2019-07-31T08:43:39.096Z</time>
      </trkpt>
      <trkpt lat="43.005985" lon="-1.310505">
        <ele>964.0</ele>
        <time>2019-07-31T08:43:40.103Z</time>
      </trkpt>
      <trkpt lat="43.00597667" lon="-1.31048667">
        <ele>964.0</ele>
        <time>2019-07-31T08:43:41.110Z</time>
      </trkpt>
      <trkpt lat="43.00597" lon="-1.31047167">
        <ele>964.0</ele>
        <time>2019-07-31T08:43:42.115Z</time>
      </trkpt>
      <trkpt lat="43.00596167" lon="-1.31045667">
        <ele>965.0</ele>
        <time>2019-07-31T08:43:43.121Z</time>
      </trkpt>
      <trkpt lat="43.00595333" lon="-1.31043833">
        <ele>965.0</ele>
        <time>2019-07-31T08:43:44.125Z</time>
      </trkpt>
      <trkpt lat="43.00594333" lon="-1.310425">
        <ele>965.0</ele>
        <time>2019-07-31T08:43:45.127Z</time>
      </trkpt>
      <trkpt lat="43.00593333" lon="-1.31041167">
        <ele>965.0</ele>
        <time>2019-07-31T08:43:46.131Z</time>
      </trkpt>
      <trkpt lat="43.00592167" lon="-1.31039">
        <ele>965.0</ele>
        <time>2019-07-31T08:43:47.137Z</time>
      </trkpt>
      <trkpt lat="43.005915" lon="-1.31036833">
        <ele>965.0</ele>
        <time>2019-07-31T08:43:48.143Z</time>
      </trkpt>
      <trkpt lat="43.00590667" lon="-1.31034667">
        <ele>965.0</ele>
        <time>2019-07-31T08:43:49.148Z</time>
      </trkpt>
      <trkpt lat="43.005895" lon="-1.31033">
        <ele>965.0</ele>
        <time>2019-07-31T08:43:50.155Z</time>
      </trkpt>
      <trkpt lat="43.005885" lon="-1.31031167">
        <ele>965.0</ele>
        <time>2019-07-31T08:43:51.160Z</time>
      </trkpt>
      <trkpt lat="43.00587333" lon="-1.31029333">
        <ele>965.0</ele>
        <time>2019-07-31T08:43:52.165Z</time>
      </trkpt>
      <trkpt lat="43.00585667" lon="-1.31027833">
        <ele>965.0</ele>
        <time>2019-07-31T08:43:53.166Z</time>
      </trkpt>
      <trkpt lat="43.005845" lon="-1.310265">
        <ele>965.0</ele>
        <time>2019-07-31T08:43:54.171Z</time>
      </trkpt>
      <trkpt lat="43.00583667" lon="-1.31025167">
        <ele>965.0</ele>
        <time>2019-07-31T08:43:55.177Z</time>
      </trkpt>
      <trkpt lat="43.00582833" lon="-1.31024167">
        <ele>965.0</ele>
        <time>2019-07-31T08:43:56.183Z</time>
      </trkpt>
      <trkpt lat="43.00581667" lon="-1.31023333">
        <ele>965.0</ele>
        <time>2019-07-31T08:43:57.063Z</time>
      </trkpt>
      <trkpt lat="43.00580333" lon="-1.31021833">
        <ele>965.0</ele>
        <time>2019-07-31T08:43:58.068Z</time>
      </trkpt>
      <trkpt lat="43.00579167" lon="-1.31020333">
        <ele>964.0</ele>
        <time>2019-07-31T08:43:59.074Z</time>
      </trkpt>
      <trkpt lat="43.00578" lon="-1.31018833">
        <ele>964.0</ele>
        <time>2019-07-31T08:44:00.080Z</time>
      </trkpt>
      <trkpt lat="43.00576833" lon="-1.31017">
        <ele>965.0</ele>
        <time>2019-07-31T08:44:01.085Z</time>
      </trkpt>
      <trkpt lat="43.00576333" lon="-1.31015167">
        <ele>965.0</ele>
        <time>2019-07-31T08:44:02.091Z</time>
      </trkpt>
      <trkpt lat="43.00575667" lon="-1.31013667">
        <ele>964.0</ele>
        <time>2019-07-31T08:44:03.096Z</time>
      </trkpt>
      <trkpt lat="43.00575" lon="-1.31011833">
        <ele>964.0</ele>
        <time>2019-07-31T08:44:04.102Z</time>
      </trkpt>
      <trkpt lat="43.005745" lon="-1.31010333">
        <ele>964.0</ele>
        <time>2019-07-31T08:44:05.110Z</time>
      </trkpt>
      <trkpt lat="43.00573667" lon="-1.31009167">
        <ele>963.0</ele>
        <time>2019-07-31T08:44:06.113Z</time>
      </trkpt>
      <trkpt lat="43.00572667" lon="-1.31008167">
        <ele>962.0</ele>
        <time>2019-07-31T08:44:07.116Z</time>
      </trkpt>
      <trkpt lat="43.00571667" lon="-1.31007833">
        <ele>961.0</ele>
        <time>2019-07-31T08:44:08.120Z</time>
      </trkpt>
      <trkpt lat="43.00571167" lon="-1.31006667">
        <ele>960.0</ele>
        <time>2019-07-31T08:44:09.124Z</time>
      </trkpt>
      <trkpt lat="43.00570667" lon="-1.31005167">
        <ele>960.0</ele>
        <time>2019-07-31T08:44:10.129Z</time>
      </trkpt>
      <trkpt lat="43.00570167" lon="-1.31003667">
        <ele>960.0</ele>
        <time>2019-07-31T08:44:11.135Z</time>
      </trkpt>
      <trkpt lat="43.00569833" lon="-1.31002333">
        <ele>960.0</ele>
        <time>2019-07-31T08:44:12.139Z</time>
      </trkpt>
      <trkpt lat="43.00569333" lon="-1.31001">
        <ele>960.0</ele>
        <time>2019-07-31T08:44:13.144Z</time>
      </trkpt>
      <trkpt lat="43.00568667" lon="-1.30999167">
        <ele>960.0</ele>
        <time>2019-07-31T08:44:14.148Z</time>
      </trkpt>
      <trkpt lat="43.00567833" lon="-1.30997333">
        <ele>960.0</ele>
        <time>2019-07-31T08:44:15.153Z</time>
      </trkpt>
      <trkpt lat="43.00567" lon="-1.30995333">
        <ele>961.0</ele>
        <time>2019-07-31T08:44:16.158Z</time>
      </trkpt>
      <trkpt lat="43.00566167" lon="-1.309935">
        <ele>961.0</ele>
        <time>2019-07-31T08:44:17.162Z</time>
      </trkpt>
      <trkpt lat="43.00565667" lon="-1.309915">
        <ele>962.0</ele>
        <time>2019-07-31T08:44:18.166Z</time>
      </trkpt>
      <trkpt lat="43.00565167" lon="-1.30989667">
        <ele>962.0</ele>
        <time>2019-07-31T08:44:19.173Z</time>
      </trkpt>
      <trkpt lat="43.00565167" lon="-1.309875">
        <ele>963.0</ele>
        <time>2019-07-31T08:44:20.177Z</time>
      </trkpt>
      <trkpt lat="43.00564833" lon="-1.30985167">
        <ele>963.0</ele>
        <time>2019-07-31T08:44:21.183Z</time>
      </trkpt>
      <trkpt lat="43.00564333" lon="-1.30982833">
        <ele>963.0</ele>
        <time>2019-07-31T08:44:22.063Z</time>
      </trkpt>
      <trkpt lat="43.00563667" lon="-1.309805">
        <ele>964.0</ele>
        <time>2019-07-31T08:44:23.069Z</time>
      </trkpt>
      <trkpt lat="43.00562833" lon="-1.30978333">
        <ele>964.0</ele>
        <time>2019-07-31T08:44:24.076Z</time>
      </trkpt>
      <trkpt lat="43.00562333" lon="-1.30976333">
        <ele>965.0</ele>
        <time>2019-07-31T08:44:25.079Z</time>
      </trkpt>
      <trkpt lat="43.00561833" lon="-1.30973667">
        <ele>966.0</ele>
        <time>2019-07-31T08:44:26.084Z</time>
      </trkpt>
      <trkpt lat="43.00561167" lon="-1.309715">
        <ele>967.0</ele>
        <time>2019-07-31T08:44:27.089Z</time>
      </trkpt>
      <trkpt lat="43.00559833" lon="-1.30969333">
        <ele>967.0</ele>
        <time>2019-07-31T08:44:28.093Z</time>
      </trkpt>
      <trkpt lat="43.005595" lon="-1.30966833">
        <ele>968.0</ele>
        <time>2019-07-31T08:44:29.100Z</time>
      </trkpt>
      <trkpt lat="43.00558667" lon="-1.309645">
        <ele>968.0</ele>
        <time>2019-07-31T08:44:30.104Z</time>
      </trkpt>
      <trkpt lat="43.00558333" lon="-1.30962167">
        <ele>968.0</ele>
        <time>2019-07-31T08:44:31.107Z</time>
      </trkpt>
      <trkpt lat="43.00558167" lon="-1.3096">
        <ele>969.0</ele>
        <time>2019-07-31T08:44:32.113Z</time>
      </trkpt>
      <trkpt lat="43.00558167" lon="-1.30958167">
        <ele>969.0</ele>
        <time>2019-07-31T08:44:33.118Z</time>
      </trkpt>
      <trkpt lat="43.00558" lon="-1.309565">
        <ele>969.0</ele>
        <time>2019-07-31T08:44:34.124Z</time>
      </trkpt>
      <trkpt lat="43.00558" lon="-1.309545">
        <ele>969.0</ele>
        <time>2019-07-31T08:44:35.127Z</time>
      </trkpt>
      <trkpt lat="43.00557667" lon="-1.309525">
        <ele>969.0</ele>
        <time>2019-07-31T08:44:36.129Z</time>
      </trkpt>
      <trkpt lat="43.00557667" lon="-1.309505">
        <ele>970.0</ele>
        <time>2019-07-31T08:44:37.134Z</time>
      </trkpt>
      <trkpt lat="43.00557667" lon="-1.309485">
        <ele>972.0</ele>
        <time>2019-07-31T08:44:38.139Z</time>
      </trkpt>
      <trkpt lat="43.005575" lon="-1.30946">
        <ele>973.0</ele>
        <time>2019-07-31T08:44:39.144Z</time>
      </trkpt>
      <trkpt lat="43.00556" lon="-1.309435">
        <ele>973.0</ele>
        <time>2019-07-31T08:44:40.151Z</time>
      </trkpt>
      <trkpt lat="43.00554667" lon="-1.30940667">
        <ele>973.0</ele>
        <time>2019-07-31T08:44:41.156Z</time>
      </trkpt>
      <trkpt lat="43.00552833" lon="-1.30938667">
        <ele>973.0</ele>
        <time>2019-07-31T08:44:42.163Z</time>
      </trkpt>
      <trkpt lat="43.00551833" lon="-1.30936833">
        <ele>972.0</ele>
        <time>2019-07-31T08:44:43.169Z</time>
      </trkpt>
      <trkpt lat="43.00550667" lon="-1.30934333">
        <ele>972.0</ele>
        <time>2019-07-31T08:44:44.174Z</time>
      </trkpt>
      <trkpt lat="43.00550167" lon="-1.309315">
        <ele>971.0</ele>
        <time>2019-07-31T08:44:45.179Z</time>
      </trkpt>
      <trkpt lat="43.00550333" lon="-1.30928833">
        <ele>972.0</ele>
        <time>2019-07-31T08:44:46.182Z</time>
      </trkpt>
      <trkpt lat="43.0055" lon="-1.30927167">
        <ele>972.0</ele>
        <time>2019-07-31T08:44:47.063Z</time>
      </trkpt>
      <trkpt lat="43.00549333" lon="-1.30924667">
        <ele>972.0</ele>
        <time>2019-07-31T08:44:48.069Z</time>
      </trkpt>
      <trkpt lat="43.00549167" lon="-1.30922833">
        <ele>972.0</ele>
        <time>2019-07-31T08:44:49.074Z</time>
      </trkpt>
      <trkpt lat="43.00549" lon="-1.30921">
        <ele>972.0</ele>
        <time>2019-07-31T08:44:50.078Z</time>
      </trkpt>
      <trkpt lat="43.00549" lon="-1.30919">
        <ele>972.0</ele>
        <time>2019-07-31T08:44:51.083Z</time>
      </trkpt>
      <trkpt lat="43.00549167" lon="-1.309165">
        <ele>973.0</ele>
        <time>2019-07-31T08:44:52.087Z</time>
      </trkpt>
      <trkpt lat="43.00549667" lon="-1.30914167">
        <ele>973.0</ele>
        <time>2019-07-31T08:44:53.093Z</time>
      </trkpt>
      <trkpt lat="43.00549667" lon="-1.30912">
        <ele>973.0</ele>
        <time>2019-07-31T08:44:54.098Z</time>
      </trkpt>
      <trkpt lat="43.00549333" lon="-1.3091">
        <ele>974.0</ele>
        <time>2019-07-31T08:44:55.105Z</time>
      </trkpt>
      <trkpt lat="43.00549167" lon="-1.30907833">
        <ele>974.0</ele>
        <time>2019-07-31T08:44:56.110Z</time>
      </trkpt>
      <trkpt lat="43.00548667" lon="-1.30906167">
        <ele>975.0</ele>
        <time>2019-07-31T08:44:57.117Z</time>
      </trkpt>
      <trkpt lat="43.00548333" lon="-1.30904333">
        <ele>975.0</ele>
        <time>2019-07-31T08:44:58.121Z</time>
      </trkpt>
      <trkpt lat="43.00547833" lon="-1.30902167">
        <ele>975.0</ele>
        <time>2019-07-31T08:44:59.124Z</time>
      </trkpt>
      <trkpt lat="43.005475" lon="-1.30900167">
        <ele>975.0</ele>
        <time>2019-07-31T08:45:00.129Z</time>
      </trkpt>
      <trkpt lat="43.00546833" lon="-1.30898167">
        <ele>975.0</ele>
        <time>2019-07-31T08:45:01.135Z</time>
      </trkpt>
      <trkpt lat="43.00546667" lon="-1.30895833">
        <ele>975.0</ele>
        <time>2019-07-31T08:45:02.140Z</time>
      </trkpt>
      <trkpt lat="43.00546333" lon="-1.308935">
        <ele>975.0</ele>
        <time>2019-07-31T08:45:03.144Z</time>
      </trkpt>
      <trkpt lat="43.00546167" lon="-1.308915">
        <ele>974.0</ele>
        <time>2019-07-31T08:45:04.150Z</time>
      </trkpt>
      <trkpt lat="43.00546333" lon="-1.30889333">
        <ele>974.0</ele>
        <time>2019-07-31T08:45:05.153Z</time>
      </trkpt>
      <trkpt lat="43.005465" lon="-1.30887333">
        <ele>973.0</ele>
        <time>2019-07-31T08:45:06.157Z</time>
      </trkpt>
      <trkpt lat="43.00546667" lon="-1.30885167">
        <ele>973.0</ele>
        <time>2019-07-31T08:45:07.162Z</time>
      </trkpt>
      <trkpt lat="43.00547" lon="-1.30882833">
        <ele>972.0</ele>
        <time>2019-07-31T08:45:08.166Z</time>
      </trkpt>
      <trkpt lat="43.00547" lon="-1.30880167">
        <ele>972.0</ele>
        <time>2019-07-31T08:45:09.172Z</time>
      </trkpt>
      <trkpt lat="43.00547167" lon="-1.30878167">
        <ele>971.0</ele>
        <time>2019-07-31T08:45:10.178Z</time>
      </trkpt>
      <trkpt lat="43.00547167" lon="-1.30876">
        <ele>970.0</ele>
        <time>2019-07-31T08:45:11.185Z</time>
      </trkpt>
      <trkpt lat="43.005475" lon="-1.30873833">
        <ele>969.0</ele>
        <time>2019-07-31T08:45:12.063Z</time>
      </trkpt>
      <trkpt lat="43.00548167" lon="-1.30872">
        <ele>969.0</ele>
        <time>2019-07-31T08:45:13.069Z</time>
      </trkpt>
      <trkpt lat="43.005485" lon="-1.3087">
        <ele>968.0</ele>
        <time>2019-07-31T08:45:14.075Z</time>
      </trkpt>
      <trkpt lat="43.00549" lon="-1.30868">
        <ele>968.0</ele>
        <time>2019-07-31T08:45:15.081Z</time>
      </trkpt>
      <trkpt lat="43.00549" lon="-1.30865833">
        <ele>967.0</ele>
        <time>2019-07-31T08:45:16.085Z</time>
      </trkpt>
      <trkpt lat="43.00549333" lon="-1.30864167">
        <ele>967.0</ele>
        <time>2019-07-31T08:45:17.091Z</time>
      </trkpt>
      <trkpt lat="43.0055" lon="-1.30862667">
        <ele>966.0</ele>
        <time>2019-07-31T08:45:18.097Z</time>
      </trkpt>
      <trkpt lat="43.0055" lon="-1.308615">
        <ele>967.0</ele>
        <time>2019-07-31T08:45:19.101Z</time>
      </trkpt>
      <trkpt lat="43.00550167" lon="-1.308605">
        <ele>967.0</ele>
        <time>2019-07-31T08:45:20.108Z</time>
      </trkpt>
      <trkpt lat="43.00549833" lon="-1.30860333">
        <ele>967.0</ele>
        <time>2019-07-31T08:45:21.115Z</time>
      </trkpt>
      <trkpt lat="43.00550167" lon="-1.30859833">
        <ele>968.0</ele>
        <time>2019-07-31T08:45:22.119Z</time>
      </trkpt>
      <trkpt lat="43.00551167" lon="-1.30859">
        <ele>968.0</ele>
        <time>2019-07-31T08:45:23.124Z</time>
      </trkpt>
      <trkpt lat="43.005525" lon="-1.30858">
        <ele>969.0</ele>
        <time>2019-07-31T08:45:24.128Z</time>
      </trkpt>
      <trkpt lat="43.00554167" lon="-1.30857333">
        <ele>970.0</ele>
        <time>2019-07-31T08:45:25.132Z</time>
      </trkpt>
      <trkpt lat="43.00556" lon="-1.308565">
        <ele>970.0</ele>
        <time>2019-07-31T08:45:26.136Z</time>
      </trkpt>
      <trkpt lat="43.00558333" lon="-1.30855167">
        <ele>970.0</ele>
        <time>2019-07-31T08:45:27.139Z</time>
      </trkpt>
      <trkpt lat="43.00560167" lon="-1.30854333">
        <ele>970.0</ele>
        <time>2019-07-31T08:45:28.145Z</time>
      </trkpt>
      <trkpt lat="43.00561333" lon="-1.30854167">
        <ele>972.0</ele>
        <time>2019-07-31T08:45:29.149Z</time>
      </trkpt>
      <trkpt lat="43.00562667" lon="-1.308535">
        <ele>973.0</ele>
        <time>2019-07-31T08:45:30.155Z</time>
      </trkpt>
      <trkpt lat="43.00564167" lon="-1.30852167">
        <ele>973.0</ele>
        <time>2019-07-31T08:45:31.161Z</time>
      </trkpt>
      <trkpt lat="43.00565333" lon="-1.30850833">
        <ele>973.0</ele>
        <time>2019-07-31T08:45:32.166Z</time>
      </trkpt>
      <trkpt lat="43.00566667" lon="-1.30848833">
        <ele>974.0</ele>
        <time>2019-07-31T08:45:33.172Z</time>
      </trkpt>
      <trkpt lat="43.00568333" lon="-1.30846">
        <ele>975.0</ele>
        <time>2019-07-31T08:45:34.178Z</time>
      </trkpt>
      <trkpt lat="43.00569667" lon="-1.30842833">
        <ele>975.0</ele>
        <time>2019-07-31T08:45:35.184Z</time>
      </trkpt>
      <trkpt lat="43.005705" lon="-1.30840333">
        <ele>974.0</ele>
        <time>2019-07-31T08:45:36.066Z</time>
      </trkpt>
      <trkpt lat="43.00572" lon="-1.30837833">
        <ele>974.0</ele>
        <time>2019-07-31T08:45:37.071Z</time>
      </trkpt>
      <trkpt lat="43.00573667" lon="-1.30835">
        <ele>974.0</ele>
        <time>2019-07-31T08:45:38.077Z</time>
      </trkpt>
      <trkpt lat="43.00575833" lon="-1.30832">
        <ele>975.0</ele>
        <time>2019-07-31T08:45:39.083Z</time>
      </trkpt>
      <trkpt lat="43.00576833" lon="-1.30829167">
        <ele>974.0</ele>
        <time>2019-07-31T08:45:40.089Z</time>
      </trkpt>
      <trkpt lat="43.005775" lon="-1.30826333">
        <ele>973.0</ele>
        <time>2019-07-31T08:45:41.094Z</time>
      </trkpt>
      <trkpt lat="43.00577333" lon="-1.30823833">
        <ele>972.0</ele>
        <time>2019-07-31T08:45:42.100Z</time>
      </trkpt>
      <trkpt lat="43.00577333" lon="-1.30821667">
        <ele>972.0</ele>
        <time>2019-07-31T08:45:43.106Z</time>
      </trkpt>
      <trkpt lat="43.00576833" lon="-1.30819667">
        <ele>972.0</ele>
        <time>2019-07-31T08:45:44.111Z</time>
      </trkpt>
      <trkpt lat="43.00576167" lon="-1.30818333">
        <ele>972.0</ele>
        <time>2019-07-31T08:45:45.114Z</time>
      </trkpt>
      <trkpt lat="43.00575833" lon="-1.30816833">
        <ele>973.0</ele>
        <time>2019-07-31T08:45:46.117Z</time>
      </trkpt>
      <trkpt lat="43.00575833" lon="-1.30815667">
        <ele>972.0</ele>
        <time>2019-07-31T08:45:47.120Z</time>
      </trkpt>
      <trkpt lat="43.00576" lon="-1.30814333">
        <ele>972.0</ele>
        <time>2019-07-31T08:45:48.126Z</time>
      </trkpt>
      <trkpt lat="43.00576167" lon="-1.30812833">
        <ele>971.0</ele>
        <time>2019-07-31T08:45:49.133Z</time>
      </trkpt>
      <trkpt lat="43.00575667" lon="-1.30811167">
        <ele>971.0</ele>
        <time>2019-07-31T08:45:50.136Z</time>
      </trkpt>
      <trkpt lat="43.00575833" lon="-1.30809667">
        <ele>971.0</ele>
        <time>2019-07-31T08:45:51.140Z</time>
      </trkpt>
      <trkpt lat="43.00575667" lon="-1.308075">
        <ele>971.0</ele>
        <time>2019-07-31T08:45:52.146Z</time>
      </trkpt>
      <trkpt lat="43.00575833" lon="-1.30805">
        <ele>970.0</ele>
        <time>2019-07-31T08:45:53.150Z</time>
      </trkpt>
      <trkpt lat="43.00576333" lon="-1.30802333">
        <ele>971.0</ele>
        <time>2019-07-31T08:45:54.155Z</time>
      </trkpt>
      <trkpt lat="43.005765" lon="-1.30799667">
        <ele>970.0</ele>
        <time>2019-07-31T08:45:55.157Z</time>
      </trkpt>
      <trkpt lat="43.00576667" lon="-1.30796667">
        <ele>970.0</ele>
        <time>2019-07-31T08:45:56.163Z</time>
      </trkpt>
      <trkpt lat="43.00576667" lon="-1.30794">
        <ele>970.0</ele>
        <time>2019-07-31T08:45:57.168Z</time>
      </trkpt>
      <trkpt lat="43.00576667" lon="-1.307915">
        <ele>970.0</ele>
        <time>2019-07-31T08:45:58.174Z</time>
      </trkpt>
      <trkpt lat="43.00576833" lon="-1.30788833">
        <ele>969.0</ele>
        <time>2019-07-31T08:45:59.179Z</time>
      </trkpt>
      <trkpt lat="43.00577" lon="-1.307865">
        <ele>970.0</ele>
        <time>2019-07-31T08:46:00.186Z</time>
      </trkpt>
      <trkpt lat="43.00577" lon="-1.30784333">
        <ele>971.0</ele>
        <time>2019-07-31T08:46:01.066Z</time>
      </trkpt>
      <trkpt lat="43.00577167" lon="-1.30782333">
        <ele>971.0</ele>
        <time>2019-07-31T08:46:02.069Z</time>
      </trkpt>
      <trkpt lat="43.00577" lon="-1.30780333">
        <ele>971.0</ele>
        <time>2019-07-31T08:46:03.074Z</time>
      </trkpt>
      <trkpt lat="43.005765" lon="-1.30779">
        <ele>971.0</ele>
        <time>2019-07-31T08:46:04.080Z</time>
      </trkpt>
      <trkpt lat="43.00576" lon="-1.30777333">
        <ele>972.0</ele>
        <time>2019-07-31T08:46:05.084Z</time>
      </trkpt>
      <trkpt lat="43.00576167" lon="-1.30775333">
        <ele>972.0</ele>
        <time>2019-07-31T08:46:06.090Z</time>
      </trkpt>
      <trkpt lat="43.00576333" lon="-1.30773333">
        <ele>972.0</ele>
        <time>2019-07-31T08:46:07.098Z</time>
      </trkpt>
      <trkpt lat="43.00576667" lon="-1.307715">
        <ele>972.0</ele>
        <time>2019-07-31T08:46:08.104Z</time>
      </trkpt>
      <trkpt lat="43.00576833" lon="-1.30769833">
        <ele>972.0</ele>
        <time>2019-07-31T08:46:09.111Z</time>
      </trkpt>
      <trkpt lat="43.00577333" lon="-1.30767833">
        <ele>971.0</ele>
        <time>2019-07-31T08:46:10.118Z</time>
      </trkpt>
      <trkpt lat="43.005785" lon="-1.30765">
        <ele>972.0</ele>
        <time>2019-07-31T08:46:11.123Z</time>
      </trkpt>
      <trkpt lat="43.00579167" lon="-1.30761833">
        <ele>972.0</ele>
        <time>2019-07-31T08:46:12.128Z</time>
      </trkpt>
      <trkpt lat="43.00579167" lon="-1.30758333">
        <ele>972.0</ele>
        <time>2019-07-31T08:46:13.133Z</time>
      </trkpt>
      <trkpt lat="43.00579333" lon="-1.30755">
        <ele>971.0</ele>
        <time>2019-07-31T08:46:14.139Z</time>
      </trkpt>
      <trkpt lat="43.00579667" lon="-1.30751833">
        <ele>971.0</ele>
        <time>2019-07-31T08:46:15.145Z</time>
      </trkpt>
      <trkpt lat="43.0058" lon="-1.307485">
        <ele>971.0</ele>
        <time>2019-07-31T08:46:16.150Z</time>
      </trkpt>
      <trkpt lat="43.00581" lon="-1.30745167">
        <ele>971.0</ele>
        <time>2019-07-31T08:46:17.155Z</time>
      </trkpt>
      <trkpt lat="43.00582333" lon="-1.30742">
        <ele>971.0</ele>
        <time>2019-07-31T08:46:18.159Z</time>
      </trkpt>
      <trkpt lat="43.00583167" lon="-1.30738833">
        <ele>971.0</ele>
        <time>2019-07-31T08:46:19.165Z</time>
      </trkpt>
      <trkpt lat="43.00583833" lon="-1.30736167">
        <ele>971.0</ele>
        <time>2019-07-31T08:46:20.169Z</time>
      </trkpt>
      <trkpt lat="43.00584667" lon="-1.30733167">
        <ele>972.0</ele>
        <time>2019-07-31T08:46:21.175Z</time>
      </trkpt>
      <trkpt lat="43.005845" lon="-1.30730333">
        <ele>972.0</ele>
        <time>2019-07-31T08:46:22.178Z</time>
      </trkpt>
      <trkpt lat="43.00583333" lon="-1.307275">
        <ele>971.0</ele>
        <time>2019-07-31T08:46:23.184Z</time>
      </trkpt>
      <trkpt lat="43.00582" lon="-1.30724667">
        <ele>971.0</ele>
        <time>2019-07-31T08:46:24.063Z</time>
      </trkpt>
      <trkpt lat="43.00581333" lon="-1.30723167">
        <ele>971.0</ele>
        <time>2019-07-31T08:46:25.069Z</time>
      </trkpt>
      <trkpt lat="43.005815" lon="-1.30721333">
        <ele>971.0</ele>
        <time>2019-07-31T08:46:26.075Z</time>
      </trkpt>
      <trkpt lat="43.00581167" lon="-1.307195">
        <ele>972.0</ele>
        <time>2019-07-31T08:46:27.081Z</time>
      </trkpt>
      <trkpt lat="43.00581" lon="-1.30717">
        <ele>972.0</ele>
        <time>2019-07-31T08:46:28.087Z</time>
      </trkpt>
      <trkpt lat="43.00581" lon="-1.30714333">
        <ele>972.0</ele>
        <time>2019-07-31T08:46:29.093Z</time>
      </trkpt>
      <trkpt lat="43.00581333" lon="-1.307115">
        <ele>972.0</ele>
        <time>2019-07-31T08:46:30.097Z</time>
      </trkpt>
      <trkpt lat="43.00580667" lon="-1.30708833">
        <ele>971.0</ele>
        <time>2019-07-31T08:46:31.105Z</time>
      </trkpt>
      <trkpt lat="43.005805" lon="-1.30706">
        <ele>971.0</ele>
        <time>2019-07-31T08:46:32.111Z</time>
      </trkpt>
      <trkpt lat="43.00579833" lon="-1.30703333">
        <ele>971.0</ele>
        <time>2019-07-31T08:46:33.117Z</time>
      </trkpt>
      <trkpt lat="43.00579333" lon="-1.30700833">
        <ele>970.0</ele>
        <time>2019-07-31T08:46:34.123Z</time>
      </trkpt>
      <trkpt lat="43.00578667" lon="-1.30698167">
        <ele>970.0</ele>
        <time>2019-07-31T08:46:35.126Z</time>
      </trkpt>
      <trkpt lat="43.00578167" lon="-1.30696167">
        <ele>970.0</ele>
        <time>2019-07-31T08:46:36.127Z</time>
      </trkpt>
      <trkpt lat="43.00577333" lon="-1.30693667">
        <ele>970.0</ele>
        <time>2019-07-31T08:46:37.131Z</time>
      </trkpt>
      <trkpt lat="43.00577" lon="-1.30691">
        <ele>971.0</ele>
        <time>2019-07-31T08:46:38.138Z</time>
      </trkpt>
      <trkpt lat="43.00576167" lon="-1.306885">
        <ele>970.0</ele>
        <time>2019-07-31T08:46:39.138Z</time>
      </trkpt>
      <trkpt lat="43.00575667" lon="-1.30686333">
        <ele>970.0</ele>
        <time>2019-07-31T08:46:40.141Z</time>
      </trkpt>
      <trkpt lat="43.00575" lon="-1.30684167">
        <ele>970.0</ele>
        <time>2019-07-31T08:46:41.143Z</time>
      </trkpt>
      <trkpt lat="43.00574333" lon="-1.30682833">
        <ele>969.0</ele>
        <time>2019-07-31T08:46:42.145Z</time>
      </trkpt>
      <trkpt lat="43.00573333" lon="-1.30681667">
        <ele>969.0</ele>
        <time>2019-07-31T08:46:43.146Z</time>
      </trkpt>
      <trkpt lat="43.005725" lon="-1.30681">
        <ele>969.0</ele>
        <time>2019-07-31T08:46:44.149Z</time>
      </trkpt>
      <trkpt lat="43.005715" lon="-1.3068">
        <ele>968.0</ele>
        <time>2019-07-31T08:46:45.153Z</time>
      </trkpt>
      <trkpt lat="43.00571333" lon="-1.30677833">
        <ele>968.0</ele>
        <time>2019-07-31T08:46:46.159Z</time>
      </trkpt>
      <trkpt lat="43.00570833" lon="-1.306755">
        <ele>967.0</ele>
        <time>2019-07-31T08:46:47.165Z</time>
      </trkpt>
      <trkpt lat="43.00570833" lon="-1.306735">
        <ele>968.0</ele>
        <time>2019-07-31T08:46:48.170Z</time>
      </trkpt>
      <trkpt lat="43.00571" lon="-1.30670833">
        <ele>967.0</ele>
        <time>2019-07-31T08:46:49.176Z</time>
      </trkpt>
      <trkpt lat="43.00571" lon="-1.30667667">
        <ele>967.0</ele>
        <time>2019-07-31T08:46:50.182Z</time>
      </trkpt>
      <trkpt lat="43.00570667" lon="-1.30665167">
        <ele>967.0</ele>
        <time>2019-07-31T08:46:51.061Z</time>
      </trkpt>
      <trkpt lat="43.00570333" lon="-1.30662667">
        <ele>967.0</ele>
        <time>2019-07-31T08:46:52.069Z</time>
      </trkpt>
      <trkpt lat="43.0057" lon="-1.30660167">
        <ele>967.0</ele>
        <time>2019-07-31T08:46:53.075Z</time>
      </trkpt>
      <trkpt lat="43.00570167" lon="-1.30657833">
        <ele>967.0</ele>
        <time>2019-07-31T08:46:54.079Z</time>
      </trkpt>
      <trkpt lat="43.00570333" lon="-1.30655333">
        <ele>966.0</ele>
        <time>2019-07-31T08:46:55.084Z</time>
      </trkpt>
      <trkpt lat="43.00570333" lon="-1.30652667">
        <ele>966.0</ele>
        <time>2019-07-31T08:46:56.090Z</time>
      </trkpt>
      <trkpt lat="43.005705" lon="-1.3065">
        <ele>967.0</ele>
        <time>2019-07-31T08:46:57.095Z</time>
      </trkpt>
      <trkpt lat="43.00570667" lon="-1.30647333">
        <ele>967.0</ele>
        <time>2019-07-31T08:46:58.101Z</time>
      </trkpt>
      <trkpt lat="43.00570833" lon="-1.30644667">
        <ele>967.0</ele>
        <time>2019-07-31T08:46:59.106Z</time>
      </trkpt>
      <trkpt lat="43.00571" lon="-1.30642">
        <ele>968.0</ele>
        <time>2019-07-31T08:47:00.112Z</time>
      </trkpt>
      <trkpt lat="43.00570667" lon="-1.30639333">
        <ele>967.0</ele>
        <time>2019-07-31T08:47:01.117Z</time>
      </trkpt>
      <trkpt lat="43.00570167" lon="-1.306365">
        <ele>967.0</ele>
        <time>2019-07-31T08:47:02.123Z</time>
      </trkpt>
      <trkpt lat="43.0057" lon="-1.30633667">
        <ele>967.0</ele>
        <time>2019-07-31T08:47:03.127Z</time>
      </trkpt>
      <trkpt lat="43.0057" lon="-1.30631333">
        <ele>967.0</ele>
        <time>2019-07-31T08:47:04.131Z</time>
      </trkpt>
      <trkpt lat="43.00569833" lon="-1.30628833">
        <ele>967.0</ele>
        <time>2019-07-31T08:47:05.137Z</time>
      </trkpt>
      <trkpt lat="43.00569833" lon="-1.30626333">
        <ele>967.0</ele>
        <time>2019-07-31T08:47:06.142Z</time>
      </trkpt>
      <trkpt lat="43.0057" lon="-1.30623833">
        <ele>967.0</ele>
        <time>2019-07-31T08:47:07.148Z</time>
      </trkpt>
      <trkpt lat="43.0057" lon="-1.30621167">
        <ele>967.0</ele>
        <time>2019-07-31T08:47:08.154Z</time>
      </trkpt>
      <trkpt lat="43.0057" lon="-1.30618667">
        <ele>966.0</ele>
        <time>2019-07-31T08:47:09.161Z</time>
      </trkpt>
      <trkpt lat="43.00570333" lon="-1.30616167">
        <ele>966.0</ele>
        <time>2019-07-31T08:47:10.165Z</time>
      </trkpt>
      <trkpt lat="43.00570167" lon="-1.306135">
        <ele>966.0</ele>
        <time>2019-07-31T08:47:11.170Z</time>
      </trkpt>
      <trkpt lat="43.00570167" lon="-1.30611167">
        <ele>966.0</ele>
        <time>2019-07-31T08:47:12.175Z</time>
      </trkpt>
      <trkpt lat="43.00570333" lon="-1.30608667">
        <ele>966.0</ele>
        <time>2019-07-31T08:47:13.181Z</time>
      </trkpt>
      <trkpt lat="43.005695" lon="-1.30606">
        <ele>966.0</ele>
        <time>2019-07-31T08:47:14.062Z</time>
      </trkpt>
      <trkpt lat="43.005685" lon="-1.306035">
        <ele>966.0</ele>
        <time>2019-07-31T08:47:15.066Z</time>
      </trkpt>
      <trkpt lat="43.005675" lon="-1.30601">
        <ele>966.0</ele>
        <time>2019-07-31T08:47:16.070Z</time>
      </trkpt>
      <trkpt lat="43.00566667" lon="-1.305985">
        <ele>966.0</ele>
        <time>2019-07-31T08:47:17.077Z</time>
      </trkpt>
      <trkpt lat="43.00565167" lon="-1.305965">
        <ele>965.0</ele>
        <time>2019-07-31T08:47:18.083Z</time>
      </trkpt>
      <trkpt lat="43.00563833" lon="-1.30593833">
        <ele>964.0</ele>
        <time>2019-07-31T08:47:19.088Z</time>
      </trkpt>
      <trkpt lat="43.005625" lon="-1.30591667">
        <ele>963.0</ele>
        <time>2019-07-31T08:47:20.092Z</time>
      </trkpt>
      <trkpt lat="43.00561667" lon="-1.305895">
        <ele>963.0</ele>
        <time>2019-07-31T08:47:21.099Z</time>
      </trkpt>
      <trkpt lat="43.00560167" lon="-1.305875">
        <ele>962.0</ele>
        <time>2019-07-31T08:47:22.105Z</time>
      </trkpt>
      <trkpt lat="43.00559167" lon="-1.30585833">
        <ele>961.0</ele>
        <time>2019-07-31T08:47:23.109Z</time>
      </trkpt>
      <trkpt lat="43.005585" lon="-1.30584333">
        <ele>961.0</ele>
        <time>2019-07-31T08:47:24.116Z</time>
      </trkpt>
      <trkpt lat="43.00558" lon="-1.30582333">
        <ele>961.0</ele>
        <time>2019-07-31T08:47:25.122Z</time>
      </trkpt>
      <trkpt lat="43.00557167" lon="-1.30580333">
        <ele>962.0</ele>
        <time>2019-07-31T08:47:26.127Z</time>
      </trkpt>
      <trkpt lat="43.00556167" lon="-1.30578167">
        <ele>962.0</ele>
        <time>2019-07-31T08:47:27.132Z</time>
      </trkpt>
      <trkpt lat="43.00555667" lon="-1.30575833">
        <ele>963.0</ele>
        <time>2019-07-31T08:47:28.137Z</time>
      </trkpt>
      <trkpt lat="43.00555333" lon="-1.30573667">
        <ele>963.0</ele>
        <time>2019-07-31T08:47:29.143Z</time>
      </trkpt>
      <trkpt lat="43.00554667" lon="-1.305715">
        <ele>963.0</ele>
        <time>2019-07-31T08:47:30.148Z</time>
      </trkpt>
      <trkpt lat="43.00553833" lon="-1.30569333">
        <ele>963.0</ele>
        <time>2019-07-31T08:47:31.156Z</time>
      </trkpt>
      <trkpt lat="43.00553" lon="-1.30567167">
        <ele>963.0</ele>
        <time>2019-07-31T08:47:32.162Z</time>
      </trkpt>
      <trkpt lat="43.005525" lon="-1.30565167">
        <ele>962.0</ele>
        <time>2019-07-31T08:47:33.168Z</time>
      </trkpt>
      <trkpt lat="43.00551833" lon="-1.305635">
        <ele>962.0</ele>
        <time>2019-07-31T08:47:34.174Z</time>
      </trkpt>
      <trkpt lat="43.00551167" lon="-1.30561667">
        <ele>962.0</ele>
        <time>2019-07-31T08:47:35.177Z</time>
      </trkpt>
      <trkpt lat="43.00550833" lon="-1.30559667">
        <ele>962.0</ele>
        <time>2019-07-31T08:47:36.180Z</time>
      </trkpt>
      <trkpt lat="43.00550667" lon="-1.30557833">
        <ele>962.0</ele>
        <time>2019-07-31T08:47:37.183Z</time>
      </trkpt>
      <trkpt lat="43.005505" lon="-1.30556">
        <ele>962.0</ele>
        <time>2019-07-31T08:47:38.062Z</time>
      </trkpt>
      <trkpt lat="43.005505" lon="-1.30553667">
        <ele>962.0</ele>
        <time>2019-07-31T08:47:39.070Z</time>
      </trkpt>
      <trkpt lat="43.00550167" lon="-1.305515">
        <ele>962.0</ele>
        <time>2019-07-31T08:47:40.076Z</time>
      </trkpt>
      <trkpt lat="43.00550167" lon="-1.30549167">
        <ele>962.0</ele>
        <time>2019-07-31T08:47:41.080Z</time>
      </trkpt>
      <trkpt lat="43.005505" lon="-1.30546667">
        <ele>962.0</ele>
        <time>2019-07-31T08:47:42.086Z</time>
      </trkpt>
      <trkpt lat="43.00550333" lon="-1.30543833">
        <ele>962.0</ele>
        <time>2019-07-31T08:47:43.091Z</time>
      </trkpt>
      <trkpt lat="43.00551" lon="-1.30541167">
        <ele>962.0</ele>
        <time>2019-07-31T08:47:44.097Z</time>
      </trkpt>
      <trkpt lat="43.00551833" lon="-1.305385">
        <ele>962.0</ele>
        <time>2019-07-31T08:47:45.103Z</time>
      </trkpt>
      <trkpt lat="43.00552167" lon="-1.30536167">
        <ele>963.0</ele>
        <time>2019-07-31T08:47:46.109Z</time>
      </trkpt>
      <trkpt lat="43.00552333" lon="-1.30533667">
        <ele>962.0</ele>
        <time>2019-07-31T08:47:47.116Z</time>
      </trkpt>
      <trkpt lat="43.00552667" lon="-1.305315">
        <ele>962.0</ele>
        <time>2019-07-31T08:47:48.120Z</time>
      </trkpt>
      <trkpt lat="43.00552833" lon="-1.30529167">
        <ele>962.0</ele>
        <time>2019-07-31T08:47:49.124Z</time>
      </trkpt>
      <trkpt lat="43.005535" lon="-1.30527">
        <ele>961.0</ele>
        <time>2019-07-31T08:47:50.127Z</time>
      </trkpt>
      <trkpt lat="43.00554" lon="-1.30524833">
        <ele>961.0</ele>
        <time>2019-07-31T08:47:51.132Z</time>
      </trkpt>
      <trkpt lat="43.00554" lon="-1.305225">
        <ele>960.0</ele>
        <time>2019-07-31T08:47:52.139Z</time>
      </trkpt>
      <trkpt lat="43.00554" lon="-1.30520333">
        <ele>959.0</ele>
        <time>2019-07-31T08:47:53.143Z</time>
      </trkpt>
      <trkpt lat="43.00554333" lon="-1.30518">
        <ele>959.0</ele>
        <time>2019-07-31T08:47:54.149Z</time>
      </trkpt>
      <trkpt lat="43.00555" lon="-1.30515833">
        <ele>959.0</ele>
        <time>2019-07-31T08:47:55.152Z</time>
      </trkpt>
      <trkpt lat="43.00556" lon="-1.30514167">
        <ele>960.0</ele>
        <time>2019-07-31T08:47:56.158Z</time>
      </trkpt>
      <trkpt lat="43.00557" lon="-1.30512">
        <ele>960.0</ele>
        <time>2019-07-31T08:47:57.163Z</time>
      </trkpt>
      <trkpt lat="43.00558167" lon="-1.3051">
        <ele>960.0</ele>
        <time>2019-07-31T08:47:58.166Z</time>
      </trkpt>
      <trkpt lat="43.00559333" lon="-1.305075">
        <ele>961.0</ele>
        <time>2019-07-31T08:47:59.170Z</time>
      </trkpt>
      <trkpt lat="43.005605" lon="-1.30505333">
        <ele>961.0</ele>
        <time>2019-07-31T08:48:00.176Z</time>
      </trkpt>
      <trkpt lat="43.00561333" lon="-1.30503333">
        <ele>960.0</ele>
        <time>2019-07-31T08:48:01.181Z</time>
      </trkpt>
      <trkpt lat="43.00562167" lon="-1.30501167">
        <ele>960.0</ele>
        <time>2019-07-31T08:48:02.061Z</time>
      </trkpt>
      <trkpt lat="43.00563667" lon="-1.30499">
        <ele>959.0</ele>
        <time>2019-07-31T08:48:03.067Z</time>
      </trkpt>
      <trkpt lat="43.00563833" lon="-1.30497667">
        <ele>958.0</ele>
        <time>2019-07-31T08:48:04.072Z</time>
      </trkpt>
      <trkpt lat="43.00564333" lon="-1.30496833">
        <ele>957.0</ele>
        <time>2019-07-31T08:48:05.076Z</time>
      </trkpt>
      <trkpt lat="43.00564833" lon="-1.30495333">
        <ele>957.0</ele>
        <time>2019-07-31T08:48:06.079Z</time>
      </trkpt>
      <trkpt lat="43.00565667" lon="-1.30493333">
        <ele>957.0</ele>
        <time>2019-07-31T08:48:07.083Z</time>
      </trkpt>
      <trkpt lat="43.00566833" lon="-1.30491167">
        <ele>957.0</ele>
        <time>2019-07-31T08:48:08.085Z</time>
      </trkpt>
      <trkpt lat="43.00567167" lon="-1.30489333">
        <ele>956.0</ele>
        <time>2019-07-31T08:48:09.092Z</time>
      </trkpt>
      <trkpt lat="43.00567667" lon="-1.30487333">
        <ele>956.0</ele>
        <time>2019-07-31T08:48:10.096Z</time>
      </trkpt>
      <trkpt lat="43.00568" lon="-1.30485667">
        <ele>956.0</ele>
        <time>2019-07-31T08:48:11.103Z</time>
      </trkpt>
      <trkpt lat="43.00568333" lon="-1.30483667">
        <ele>955.0</ele>
        <time>2019-07-31T08:48:12.109Z</time>
      </trkpt>
      <trkpt lat="43.00568333" lon="-1.30481667">
        <ele>955.0</ele>
        <time>2019-07-31T08:48:13.116Z</time>
      </trkpt>
      <trkpt lat="43.00568667" lon="-1.30479333">
        <ele>955.0</ele>
        <time>2019-07-31T08:48:14.120Z</time>
      </trkpt>
      <trkpt lat="43.00569167" lon="-1.30477167">
        <ele>955.0</ele>
        <time>2019-07-31T08:48:15.124Z</time>
      </trkpt>
      <trkpt lat="43.00569333" lon="-1.304745">
        <ele>956.0</ele>
        <time>2019-07-31T08:48:16.130Z</time>
      </trkpt>
      <trkpt lat="43.005695" lon="-1.304715">
        <ele>956.0</ele>
        <time>2019-07-31T08:48:17.135Z</time>
      </trkpt>
      <trkpt lat="43.00569333" lon="-1.30469">
        <ele>955.0</ele>
        <time>2019-07-31T08:48:18.140Z</time>
      </trkpt>
      <trkpt lat="43.00569167" lon="-1.304665">
        <ele>955.0</ele>
        <time>2019-07-31T08:48:19.143Z</time>
      </trkpt>
      <trkpt lat="43.00568667" lon="-1.30464333">
        <ele>955.0</ele>
        <time>2019-07-31T08:48:20.148Z</time>
      </trkpt>
      <trkpt lat="43.00568333" lon="-1.30462">
        <ele>955.0</ele>
        <time>2019-07-31T08:48:21.151Z</time>
      </trkpt>
      <trkpt lat="43.00568667" lon="-1.30459667">
        <ele>956.0</ele>
        <time>2019-07-31T08:48:22.156Z</time>
      </trkpt>
      <trkpt lat="43.00568333" lon="-1.304575">
        <ele>956.0</ele>
        <time>2019-07-31T08:48:23.162Z</time>
      </trkpt>
      <trkpt lat="43.00567667" lon="-1.30455333">
        <ele>956.0</ele>
        <time>2019-07-31T08:48:24.166Z</time>
      </trkpt>
      <trkpt lat="43.00567" lon="-1.30453">
        <ele>956.0</ele>
        <time>2019-07-31T08:48:25.172Z</time>
      </trkpt>
      <trkpt lat="43.00566333" lon="-1.30450667">
        <ele>955.0</ele>
        <time>2019-07-31T08:48:26.178Z</time>
      </trkpt>
      <trkpt lat="43.00566" lon="-1.30448167">
        <ele>955.0</ele>
        <time>2019-07-31T08:48:27.185Z</time>
      </trkpt>
      <trkpt lat="43.00565833" lon="-1.30445667">
        <ele>955.0</ele>
        <time>2019-07-31T08:48:28.065Z</time>
      </trkpt>
      <trkpt lat="43.00564667" lon="-1.304435">
        <ele>954.0</ele>
        <time>2019-07-31T08:48:29.070Z</time>
      </trkpt>
      <trkpt lat="43.00564667" lon="-1.30441">
        <ele>954.0</ele>
        <time>2019-07-31T08:48:30.074Z</time>
      </trkpt>
      <trkpt lat="43.00564167" lon="-1.30438667">
        <ele>954.0</ele>
        <time>2019-07-31T08:48:31.080Z</time>
      </trkpt>
      <trkpt lat="43.00562833" lon="-1.30436167">
        <ele>954.0</ele>
        <time>2019-07-31T08:48:32.086Z</time>
      </trkpt>
      <trkpt lat="43.00562333" lon="-1.30433333">
        <ele>953.0</ele>
        <time>2019-07-31T08:48:33.092Z</time>
      </trkpt>
      <trkpt lat="43.005615" lon="-1.30431">
        <ele>953.0</ele>
        <time>2019-07-31T08:48:34.099Z</time>
      </trkpt>
      <trkpt lat="43.005605" lon="-1.30428333">
        <ele>953.0</ele>
        <time>2019-07-31T08:48:35.106Z</time>
      </trkpt>
      <trkpt lat="43.00560167" lon="-1.304265">
        <ele>953.0</ele>
        <time>2019-07-31T08:48:36.113Z</time>
      </trkpt>
      <trkpt lat="43.00559333" lon="-1.30424833">
        <ele>953.0</ele>
        <time>2019-07-31T08:48:37.120Z</time>
      </trkpt>
      <trkpt lat="43.00559" lon="-1.30423333">
        <ele>953.0</ele>
        <time>2019-07-31T08:48:38.124Z</time>
      </trkpt>
      <trkpt lat="43.00558333" lon="-1.30422">
        <ele>953.0</ele>
        <time>2019-07-31T08:48:39.128Z</time>
      </trkpt>
      <trkpt lat="43.00557833" lon="-1.30421">
        <ele>953.0</ele>
        <time>2019-07-31T08:48:40.133Z</time>
      </trkpt>
      <trkpt lat="43.005575" lon="-1.304195">
        <ele>953.0</ele>
        <time>2019-07-31T08:48:41.138Z</time>
      </trkpt>
      <trkpt lat="43.00556333" lon="-1.304185">
        <ele>953.0</ele>
        <time>2019-07-31T08:48:42.144Z</time>
      </trkpt>
      <trkpt lat="43.00556" lon="-1.30418">
        <ele>953.0</ele>
        <time>2019-07-31T08:48:43.149Z</time>
      </trkpt>
      <trkpt lat="43.00555833" lon="-1.30417167">
        <ele>953.0</ele>
        <time>2019-07-31T08:48:44.155Z</time>
      </trkpt>
      <trkpt lat="43.00556167" lon="-1.30416667">
        <ele>953.0</ele>
        <time>2019-07-31T08:48:45.160Z</time>
      </trkpt>
      <trkpt lat="43.00555833" lon="-1.30416333">
        <ele>952.0</ele>
        <time>2019-07-31T08:48:46.165Z</time>
      </trkpt>
      <trkpt lat="43.00555667" lon="-1.30416333">
        <ele>952.0</ele>
        <time>2019-07-31T08:48:47.171Z</time>
      </trkpt>
      <trkpt lat="43.00555833" lon="-1.304165">
        <ele>951.0</ele>
        <time>2019-07-31T08:48:48.177Z</time>
      </trkpt>
      <trkpt lat="43.00556667" lon="-1.30417333">
        <ele>949.0</ele>
        <time>2019-07-31T08:48:49.183Z</time>
      </trkpt>
      <trkpt lat="43.00556667" lon="-1.30417667">
        <ele>948.0</ele>
        <time>2019-07-31T08:48:50.064Z</time>
      </trkpt>
      <trkpt lat="43.00556333" lon="-1.30417833">
        <ele>947.0</ele>
        <time>2019-07-31T08:48:51.071Z</time>
      </trkpt>
      <trkpt lat="43.00556167" lon="-1.30418">
        <ele>947.0</ele>
        <time>2019-07-31T08:48:52.078Z</time>
      </trkpt>
      <trkpt lat="43.00556" lon="-1.30418167">
        <ele>946.0</ele>
        <time>2019-07-31T08:48:53.083Z</time>
      </trkpt>
      <trkpt lat="43.00556" lon="-1.30418167">
        <ele>946.0</ele>
        <time>2019-07-31T08:48:54.089Z</time>
      </trkpt>
      <trkpt lat="43.00556" lon="-1.30418">
        <ele>945.0</ele>
        <time>2019-07-31T08:48:55.094Z</time>
      </trkpt>
      <trkpt lat="43.00556" lon="-1.30417833">
        <ele>945.0</ele>
        <time>2019-07-31T08:48:56.098Z</time>
      </trkpt>
      <trkpt lat="43.00556167" lon="-1.30417667">
        <ele>945.0</ele>
        <time>2019-07-31T08:48:57.104Z</time>
      </trkpt>
      <trkpt lat="43.00556" lon="-1.304175">
        <ele>945.0</ele>
        <time>2019-07-31T08:48:58.109Z</time>
      </trkpt>
      <trkpt lat="43.00556" lon="-1.304175">
        <ele>945.0</ele>
        <time>2019-07-31T08:48:59.116Z</time>
      </trkpt>
      <trkpt lat="43.00555667" lon="-1.30417167">
        <ele>945.0</ele>
        <time>2019-07-31T08:49:00.121Z</time>
      </trkpt>
      <trkpt lat="43.00555333" lon="-1.30416833">
        <ele>946.0</ele>
        <time>2019-07-31T08:49:01.126Z</time>
      </trkpt>
      <trkpt lat="43.00555167" lon="-1.30416667">
        <ele>946.0</ele>
        <time>2019-07-31T08:49:02.129Z</time>
      </trkpt>
      <trkpt lat="43.00554667" lon="-1.304165">
        <ele>946.0</ele>
        <time>2019-07-31T08:49:03.134Z</time>
      </trkpt>
      <trkpt lat="43.00554" lon="-1.30416333">
        <ele>946.0</ele>
        <time>2019-07-31T08:49:04.138Z</time>
      </trkpt>
      <trkpt lat="43.005535" lon="-1.30415833">
        <ele>946.0</ele>
        <time>2019-07-31T08:49:05.141Z</time>
      </trkpt>
      <trkpt lat="43.00553167" lon="-1.30415167">
        <ele>947.0</ele>
        <time>2019-07-31T08:49:06.148Z</time>
      </trkpt>
      <trkpt lat="43.00553167" lon="-1.304145">
        <ele>947.0</ele>
        <time>2019-07-31T08:49:07.154Z</time>
      </trkpt>
      <trkpt lat="43.00552667" lon="-1.30414167">
        <ele>946.0</ele>
        <time>2019-07-31T08:49:08.159Z</time>
      </trkpt>
      <trkpt lat="43.005525" lon="-1.30414">
        <ele>946.0</ele>
        <time>2019-07-31T08:49:09.164Z</time>
      </trkpt>
      <trkpt lat="43.005525" lon="-1.30413833">
        <ele>946.0</ele>
        <time>2019-07-31T08:49:10.165Z</time>
      </trkpt>
      <trkpt lat="43.00552333" lon="-1.30414">
        <ele>945.0</ele>
        <time>2019-07-31T08:49:11.167Z</time>
      </trkpt>
      <trkpt lat="43.00552" lon="-1.30414167">
        <ele>944.0</ele>
        <time>2019-07-31T08:49:12.173Z</time>
      </trkpt>
      <trkpt lat="43.00551667" lon="-1.304145">
        <ele>943.0</ele>
        <time>2019-07-31T08:49:13.179Z</time>
      </trkpt>
      <trkpt lat="43.005515" lon="-1.30414667">
        <ele>941.0</ele>
        <time>2019-07-31T08:49:14.184Z</time>
      </trkpt>
      <trkpt lat="43.00551333" lon="-1.30414833">
        <ele>941.0</ele>
        <time>2019-07-31T08:49:15.063Z</time>
      </trkpt>
      <trkpt lat="43.00550833" lon="-1.30415333">
        <ele>939.0</ele>
        <time>2019-07-31T08:49:16.067Z</time>
      </trkpt>
      <trkpt lat="43.00550833" lon="-1.304165">
        <ele>938.0</ele>
        <time>2019-07-31T08:49:17.073Z</time>
      </trkpt>
      <trkpt lat="43.00550833" lon="-1.30417167">
        <ele>936.0</ele>
        <time>2019-07-31T08:49:18.079Z</time>
      </trkpt>
      <trkpt lat="43.005505" lon="-1.30417833">
        <ele>935.0</ele>
        <time>2019-07-31T08:49:19.084Z</time>
      </trkpt>
      <trkpt lat="43.005505" lon="-1.30418667">
        <ele>934.0</ele>
        <time>2019-07-31T08:49:20.091Z</time>
      </trkpt>
      <trkpt lat="43.005505" lon="-1.30419167">
        <ele>933.0</ele>
        <time>2019-07-31T08:49:21.097Z</time>
      </trkpt>
      <trkpt lat="43.00550833" lon="-1.30420333">
        <ele>932.0</ele>
        <time>2019-07-31T08:49:22.103Z</time>
      </trkpt>
      <trkpt lat="43.00550833" lon="-1.30421333">
        <ele>931.0</ele>
        <time>2019-07-31T08:49:23.108Z</time>
      </trkpt>
      <trkpt lat="43.00551" lon="-1.30422">
        <ele>930.0</ele>
        <time>2019-07-31T08:49:24.113Z</time>
      </trkpt>
      <trkpt lat="43.00551" lon="-1.304225">
        <ele>929.0</ele>
        <time>2019-07-31T08:49:25.118Z</time>
      </trkpt>
      <trkpt lat="43.00551" lon="-1.304225">
        <ele>928.0</ele>
        <time>2019-07-31T08:49:26.122Z</time>
      </trkpt>
      <trkpt lat="43.00550667" lon="-1.30422667">
        <ele>927.0</ele>
        <time>2019-07-31T08:49:27.128Z</time>
      </trkpt>
      <trkpt lat="43.005505" lon="-1.30422833">
        <ele>927.0</ele>
        <time>2019-07-31T08:49:28.135Z</time>
      </trkpt>
      <trkpt lat="43.00550167" lon="-1.30422333">
        <ele>927.0</ele>
        <time>2019-07-31T08:49:29.140Z</time>
      </trkpt>
      <trkpt lat="43.00549833" lon="-1.30421833">
        <ele>927.0</ele>
        <time>2019-07-31T08:49:30.145Z</time>
      </trkpt>
      <trkpt lat="43.00549333" lon="-1.30421167">
        <ele>928.0</ele>
        <time>2019-07-31T08:49:31.148Z</time>
      </trkpt>
      <trkpt lat="43.00549" lon="-1.30420667">
        <ele>928.0</ele>
        <time>2019-07-31T08:49:32.152Z</time>
      </trkpt>
      <trkpt lat="43.00549" lon="-1.304205">
        <ele>928.0</ele>
        <time>2019-07-31T08:49:33.156Z</time>
      </trkpt>
      <trkpt lat="43.00549333" lon="-1.304205">
        <ele>927.0</ele>
        <time>2019-07-31T08:49:34.162Z</time>
      </trkpt>
      <trkpt lat="43.00549667" lon="-1.304205">
        <ele>927.0</ele>
        <time>2019-07-31T08:49:35.166Z</time>
      </trkpt>
      <trkpt lat="43.00550167" lon="-1.30420167">
        <ele>927.0</ele>
        <time>2019-07-31T08:49:36.172Z</time>
      </trkpt>
      <trkpt lat="43.00550167" lon="-1.30420167">
        <ele>927.0</ele>
        <time>2019-07-31T08:49:37.180Z</time>
      </trkpt>
      <trkpt lat="43.00550333" lon="-1.30420167">
        <ele>927.0</ele>
        <time>2019-07-31T08:49:38.185Z</time>
      </trkpt>
      <trkpt lat="43.005505" lon="-1.30420333">
        <ele>927.0</ele>
        <time>2019-07-31T08:49:39.067Z</time>
      </trkpt>
      <trkpt lat="43.005505" lon="-1.30420167">
        <ele>927.0</ele>
        <time>2019-07-31T08:49:40.071Z</time>
      </trkpt>
      <trkpt lat="43.00550833" lon="-1.30420667">
        <ele>927.0</ele>
        <time>2019-07-31T08:49:41.076Z</time>
      </trkpt>
      <trkpt lat="43.00550667" lon="-1.30420333">
        <ele>928.0</ele>
        <time>2019-07-31T08:49:42.080Z</time>
      </trkpt>
      <trkpt lat="43.00550333" lon="-1.30419833">
        <ele>928.0</ele>
        <time>2019-07-31T08:49:43.084Z</time>
      </trkpt>
      <trkpt lat="43.005505" lon="-1.304195">
        <ele>929.0</ele>
        <time>2019-07-31T08:49:44.089Z</time>
      </trkpt>
      <trkpt lat="43.005505" lon="-1.30419">
        <ele>929.0</ele>
        <time>2019-07-31T08:49:45.094Z</time>
      </trkpt>
      <trkpt lat="43.005505" lon="-1.30419">
        <ele>929.0</ele>
        <time>2019-07-31T08:49:46.099Z</time>
      </trkpt>
      <trkpt lat="43.00550667" lon="-1.30419">
        <ele>929.0</ele>
        <time>2019-07-31T08:49:47.104Z</time>
      </trkpt>
      <trkpt lat="43.00550833" lon="-1.30419333">
        <ele>929.0</ele>
        <time>2019-07-31T08:49:48.105Z</time>
      </trkpt>
      <trkpt lat="43.00550833" lon="-1.30419833">
        <ele>928.0</ele>
        <time>2019-07-31T08:49:49.106Z</time>
      </trkpt>
      <trkpt lat="43.00551167" lon="-1.304205">
        <ele>928.0</ele>
        <time>2019-07-31T08:49:50.108Z</time>
      </trkpt>
      <trkpt lat="43.00551333" lon="-1.30420667">
        <ele>928.0</ele>
        <time>2019-07-31T08:49:51.112Z</time>
      </trkpt>
      <trkpt lat="43.00551333" lon="-1.30421">
        <ele>928.0</ele>
        <time>2019-07-31T08:49:52.116Z</time>
      </trkpt>
      <trkpt lat="43.005515" lon="-1.30421167">
        <ele>927.0</ele>
        <time>2019-07-31T08:49:53.122Z</time>
      </trkpt>
      <trkpt lat="43.00551333" lon="-1.30421167">
        <ele>927.0</ele>
        <time>2019-07-31T08:49:54.125Z</time>
      </trkpt>
      <trkpt lat="43.00551333" lon="-1.30421167">
        <ele>926.0</ele>
        <time>2019-07-31T08:49:55.129Z</time>
      </trkpt>
      <trkpt lat="43.005515" lon="-1.30421333">
        <ele>926.0</ele>
        <time>2019-07-31T08:49:56.135Z</time>
      </trkpt>
      <trkpt lat="43.00551167" lon="-1.30421">
        <ele>926.0</ele>
        <time>2019-07-31T08:49:57.141Z</time>
      </trkpt>
      <trkpt lat="43.00551167" lon="-1.30421333">
        <ele>925.0</ele>
        <time>2019-07-31T08:49:58.147Z</time>
      </trkpt>
      <trkpt lat="43.00550833" lon="-1.30420833">
        <ele>926.0</ele>
        <time>2019-07-31T08:49:59.153Z</time>
      </trkpt>
      <trkpt lat="43.00550667" lon="-1.30420667">
        <ele>926.0</ele>
        <time>2019-07-31T08:50:00.158Z</time>
      </trkpt>
      <trkpt lat="43.00550667" lon="-1.30420833">
        <ele>925.0</ele>
        <time>2019-07-31T08:50:01.164Z</time>
      </trkpt>
      <trkpt lat="43.005505" lon="-1.304205">
        <ele>926.0</ele>
        <time>2019-07-31T08:50:02.167Z</time>
      </trkpt>
      <trkpt lat="43.00550333" lon="-1.30420167">
        <ele>926.0</ele>
        <time>2019-07-31T08:50:03.171Z</time>
      </trkpt>
      <trkpt lat="43.0055" lon="-1.30419667">
        <ele>926.0</ele>
        <time>2019-07-31T08:50:04.176Z</time>
      </trkpt>
      <trkpt lat="43.00549833" lon="-1.30419333">
        <ele>926.0</ele>
        <time>2019-07-31T08:50:05.180Z</time>
      </trkpt>
      <trkpt lat="43.005495" lon="-1.30419">
        <ele>926.0</ele>
        <time>2019-07-31T08:50:06.183Z</time>
      </trkpt>
      <trkpt lat="43.00549167" lon="-1.30418833">
        <ele>926.0</ele>
        <time>2019-07-31T08:50:07.062Z</time>
      </trkpt>
      <trkpt lat="43.00549167" lon="-1.30419">
        <ele>926.0</ele>
        <time>2019-07-31T08:50:08.069Z</time>
      </trkpt>
      <trkpt lat="43.00549167" lon="-1.30419167">
        <ele>926.0</ele>
        <time>2019-07-31T08:50:09.075Z</time>
      </trkpt>
      <trkpt lat="43.005495" lon="-1.30419">
        <ele>927.0</ele>
        <time>2019-07-31T08:50:10.078Z</time>
      </trkpt>
      <trkpt lat="43.00550167" lon="-1.30419167">
        <ele>928.0</ele>
        <time>2019-07-31T08:50:11.081Z</time>
      </trkpt>
      <trkpt lat="43.00551" lon="-1.30419333">
        <ele>929.0</ele>
        <time>2019-07-31T08:50:12.085Z</time>
      </trkpt>
      <trkpt lat="43.00551667" lon="-1.30419833">
        <ele>930.0</ele>
        <time>2019-07-31T08:50:13.090Z</time>
      </trkpt>
      <trkpt lat="43.00552333" lon="-1.30420333">
        <ele>931.0</ele>
        <time>2019-07-31T08:50:14.095Z</time>
      </trkpt>
      <trkpt lat="43.005525" lon="-1.30420167">
        <ele>931.0</ele>
        <time>2019-07-31T08:50:15.099Z</time>
      </trkpt>
      <trkpt lat="43.005525" lon="-1.30419667">
        <ele>931.0</ele>
        <time>2019-07-31T08:50:16.102Z</time>
      </trkpt>
      <trkpt lat="43.005525" lon="-1.304195">
        <ele>931.0</ele>
        <time>2019-07-31T08:50:17.108Z</time>
      </trkpt>
      <trkpt lat="43.005525" lon="-1.30418833">
        <ele>932.0</ele>
        <time>2019-07-31T08:50:18.114Z</time>
      </trkpt>
      <trkpt lat="43.005525" lon="-1.30418667">
        <ele>932.0</ele>
        <time>2019-07-31T08:50:19.120Z</time>
      </trkpt>
      <trkpt lat="43.005525" lon="-1.304185">
        <ele>933.0</ele>
        <time>2019-07-31T08:50:20.124Z</time>
      </trkpt>
      <trkpt lat="43.00552667" lon="-1.30418667">
        <ele>934.0</ele>
        <time>2019-07-31T08:50:21.126Z</time>
      </trkpt>
      <trkpt lat="43.00552833" lon="-1.30418667">
        <ele>934.0</ele>
        <time>2019-07-31T08:50:22.133Z</time>
      </trkpt>
      <trkpt lat="43.00553" lon="-1.30418167">
        <ele>935.0</ele>
        <time>2019-07-31T08:50:23.138Z</time>
      </trkpt>
      <trkpt lat="43.00552833" lon="-1.30417667">
        <ele>935.0</ele>
        <time>2019-07-31T08:50:24.141Z</time>
      </trkpt>
      <trkpt lat="43.005525" lon="-1.30417167">
        <ele>936.0</ele>
        <time>2019-07-31T08:50:25.145Z</time>
      </trkpt>
      <trkpt lat="43.005525" lon="-1.30417167">
        <ele>936.0</ele>
        <time>2019-07-31T08:50:26.152Z</time>
      </trkpt>
      <trkpt lat="43.00552833" lon="-1.30417833">
        <ele>936.0</ele>
        <time>2019-07-31T08:50:27.158Z</time>
      </trkpt>
      <trkpt lat="43.00553333" lon="-1.30418">
        <ele>938.0</ele>
        <time>2019-07-31T08:50:28.164Z</time>
      </trkpt>
      <trkpt lat="43.00554167" lon="-1.30418333">
        <ele>939.0</ele>
        <time>2019-07-31T08:50:29.169Z</time>
      </trkpt>
      <trkpt lat="43.00554667" lon="-1.30418833">
        <ele>940.0</ele>
        <time>2019-07-31T08:50:30.175Z</time>
      </trkpt>
      <trkpt lat="43.00555" lon="-1.30419">
        <ele>941.0</ele>
        <time>2019-07-31T08:50:31.180Z</time>
      </trkpt>
      <trkpt lat="43.005555" lon="-1.30419">
        <ele>942.0</ele>
        <time>2019-07-31T08:50:32.061Z</time>
      </trkpt>
      <trkpt lat="43.00556167" lon="-1.30419333">
        <ele>943.0</ele>
        <time>2019-07-31T08:50:33.067Z</time>
      </trkpt>
      <trkpt lat="43.00556833" lon="-1.30419667">
        <ele>944.0</ele>
        <time>2019-07-31T08:50:34.072Z</time>
      </trkpt>
      <trkpt lat="43.00557333" lon="-1.30419833">
        <ele>944.0</ele>
        <time>2019-07-31T08:50:35.078Z</time>
      </trkpt>
      <trkpt lat="43.00557833" lon="-1.3042">
        <ele>945.0</ele>
        <time>2019-07-31T08:50:36.083Z</time>
      </trkpt>
      <trkpt lat="43.00558167" lon="-1.304205">
        <ele>945.0</ele>
        <time>2019-07-31T08:50:37.090Z</time>
      </trkpt>
      <trkpt lat="43.005585" lon="-1.304205">
        <ele>946.0</ele>
        <time>2019-07-31T08:50:38.094Z</time>
      </trkpt>
      <trkpt lat="43.005585" lon="-1.30419833">
        <ele>947.0</ele>
        <time>2019-07-31T08:50:39.100Z</time>
      </trkpt>
      <trkpt lat="43.00558" lon="-1.30419">
        <ele>947.0</ele>
        <time>2019-07-31T08:50:40.103Z</time>
      </trkpt>
      <trkpt lat="43.005575" lon="-1.30418333">
        <ele>947.0</ele>
        <time>2019-07-31T08:50:41.108Z</time>
      </trkpt>
      <trkpt lat="43.00557167" lon="-1.30418667">
        <ele>946.0</ele>
        <time>2019-07-31T08:50:42.111Z</time>
      </trkpt>
      <trkpt lat="43.00557167" lon="-1.30419">
        <ele>945.0</ele>
        <time>2019-07-31T08:50:43.117Z</time>
      </trkpt>
      <trkpt lat="43.005575" lon="-1.30419667">
        <ele>945.0</ele>
        <time>2019-07-31T08:50:44.123Z</time>
      </trkpt>
      <trkpt lat="43.00557333" lon="-1.3042">
        <ele>945.0</ele>
        <time>2019-07-31T08:50:45.126Z</time>
      </trkpt>
      <trkpt lat="43.00557167" lon="-1.30420667">
        <ele>944.0</ele>
        <time>2019-07-31T08:50:46.132Z</time>
      </trkpt>
      <trkpt lat="43.00556833" lon="-1.30421167">
        <ele>943.0</ele>
        <time>2019-07-31T08:50:47.137Z</time>
      </trkpt>
      <trkpt lat="43.00556667" lon="-1.30421">
        <ele>943.0</ele>
        <time>2019-07-31T08:50:48.142Z</time>
      </trkpt>
      <trkpt lat="43.00556333" lon="-1.30420333">
        <ele>943.0</ele>
        <time>2019-07-31T08:50:49.146Z</time>
      </trkpt>
      <trkpt lat="43.00555833" lon="-1.30419333">
        <ele>943.0</ele>
        <time>2019-07-31T08:50:50.152Z</time>
      </trkpt>
      <trkpt lat="43.005555" lon="-1.30418833">
        <ele>944.0</ele>
        <time>2019-07-31T08:50:51.158Z</time>
      </trkpt>
      <trkpt lat="43.00555333" lon="-1.30418167">
        <ele>944.0</ele>
        <time>2019-07-31T08:50:52.163Z</time>
      </trkpt>
      <trkpt lat="43.00554833" lon="-1.30417333">
        <ele>944.0</ele>
        <time>2019-07-31T08:50:53.167Z</time>
      </trkpt>
      <trkpt lat="43.005545" lon="-1.304165">
        <ele>944.0</ele>
        <time>2019-07-31T08:50:54.173Z</time>
      </trkpt>
      <trkpt lat="43.00554" lon="-1.30415667">
        <ele>944.0</ele>
        <time>2019-07-31T08:50:55.178Z</time>
      </trkpt>
      <trkpt lat="43.00553667" lon="-1.30414833">
        <ele>944.0</ele>
        <time>2019-07-31T08:50:56.182Z</time>
      </trkpt>
      <trkpt lat="43.00553833" lon="-1.30414167">
        <ele>945.0</ele>
        <time>2019-07-31T08:50:57.061Z</time>
      </trkpt>
      <trkpt lat="43.00554" lon="-1.30414167">
        <ele>945.0</ele>
        <time>2019-07-31T08:50:58.067Z</time>
      </trkpt>
      <trkpt lat="43.005535" lon="-1.304135">
        <ele>946.0</ele>
        <time>2019-07-31T08:50:59.074Z</time>
      </trkpt>
      <trkpt lat="43.00553167" lon="-1.30413167">
        <ele>946.0</ele>
        <time>2019-07-31T08:51:00.081Z</time>
      </trkpt>
      <trkpt lat="43.00553667" lon="-1.30414">
        <ele>946.0</ele>
        <time>2019-07-31T08:51:01.087Z</time>
      </trkpt>
      <trkpt lat="43.00554167" lon="-1.30414833">
        <ele>946.0</ele>
        <time>2019-07-31T08:51:02.092Z</time>
      </trkpt>
      <trkpt lat="43.005555" lon="-1.30417167">
        <ele>947.0</ele>
        <time>2019-07-31T08:51:03.096Z</time>
      </trkpt>
      <trkpt lat="43.00555667" lon="-1.30417">
        <ele>947.0</ele>
        <time>2019-07-31T08:51:04.103Z</time>
      </trkpt>
      <trkpt lat="43.005555" lon="-1.30416833">
        <ele>947.0</ele>
        <time>2019-07-31T08:51:05.109Z</time>
      </trkpt>
      <trkpt lat="43.00555333" lon="-1.30416333">
        <ele>947.0</ele>
        <time>2019-07-31T08:51:06.115Z</time>
      </trkpt>
      <trkpt lat="43.00555333" lon="-1.30415833">
        <ele>947.0</ele>
        <time>2019-07-31T08:51:07.120Z</time>
      </trkpt>
      <trkpt lat="43.005555" lon="-1.304155">
        <ele>948.0</ele>
        <time>2019-07-31T08:51:08.124Z</time>
      </trkpt>
      <trkpt lat="43.00556" lon="-1.30415833">
        <ele>948.0</ele>
        <time>2019-07-31T08:51:09.127Z</time>
      </trkpt>
      <trkpt lat="43.005565" lon="-1.30416">
        <ele>948.0</ele>
        <time>2019-07-31T08:51:10.132Z</time>
      </trkpt>
      <trkpt lat="43.00556833" lon="-1.30416">
        <ele>948.0</ele>
        <time>2019-07-31T08:51:11.139Z</time>
      </trkpt>
      <trkpt lat="43.00557" lon="-1.30415667">
        <ele>949.0</ele>
        <time>2019-07-31T08:51:12.145Z</time>
      </trkpt>
      <trkpt lat="43.00556833" lon="-1.30415667">
        <ele>949.0</ele>
        <time>2019-07-31T08:51:13.151Z</time>
      </trkpt>
      <trkpt lat="43.00556667" lon="-1.30415833">
        <ele>948.0</ele>
        <time>2019-07-31T08:51:14.156Z</time>
      </trkpt>
      <trkpt lat="43.00556667" lon="-1.30416">
        <ele>948.0</ele>
        <time>2019-07-31T08:51:15.161Z</time>
      </trkpt>
      <trkpt lat="43.00556667" lon="-1.30416">
        <ele>949.0</ele>
        <time>2019-07-31T08:51:16.167Z</time>
      </trkpt>
      <trkpt lat="43.00557" lon="-1.30416">
        <ele>949.0</ele>
        <time>2019-07-31T08:51:17.172Z</time>
      </trkpt>
      <trkpt lat="43.00557" lon="-1.30416">
        <ele>949.0</ele>
        <time>2019-07-31T08:51:18.178Z</time>
      </trkpt>
      <trkpt lat="43.00556833" lon="-1.30416">
        <ele>950.0</ele>
        <time>2019-07-31T08:51:19.185Z</time>
      </trkpt>
      <trkpt lat="43.00557" lon="-1.30416">
        <ele>951.0</ele>
        <time>2019-07-31T08:51:20.065Z</time>
      </trkpt>
      <trkpt lat="43.00556833" lon="-1.30415333">
        <ele>952.0</ele>
        <time>2019-07-31T08:51:21.070Z</time>
      </trkpt>
      <trkpt lat="43.00556833" lon="-1.30414333">
        <ele>952.0</ele>
        <time>2019-07-31T08:51:22.077Z</time>
      </trkpt>
      <trkpt lat="43.00557167" lon="-1.30413333">
        <ele>952.0</ele>
        <time>2019-07-31T08:51:23.083Z</time>
      </trkpt>
      <trkpt lat="43.00557833" lon="-1.304125">
        <ele>953.0</ele>
        <time>2019-07-31T08:51:24.089Z</time>
      </trkpt>
      <trkpt lat="43.00558667" lon="-1.304115">
        <ele>953.0</ele>
        <time>2019-07-31T08:51:25.095Z</time>
      </trkpt>
      <trkpt lat="43.00559167" lon="-1.30411167">
        <ele>953.0</ele>
        <time>2019-07-31T08:51:26.099Z</time>
      </trkpt>
      <trkpt lat="43.00559667" lon="-1.30411">
        <ele>953.0</ele>
        <time>2019-07-31T08:51:27.104Z</time>
      </trkpt>
      <trkpt lat="43.00560167" lon="-1.30410667">
        <ele>953.0</ele>
        <time>2019-07-31T08:51:28.109Z</time>
      </trkpt>
      <trkpt lat="43.00561333" lon="-1.30409833">
        <ele>953.0</ele>
        <time>2019-07-31T08:51:29.115Z</time>
      </trkpt>
      <trkpt lat="43.00562667" lon="-1.30409167">
        <ele>952.0</ele>
        <time>2019-07-31T08:51:30.119Z</time>
      </trkpt>
      <trkpt lat="43.00563833" lon="-1.30408667">
        <ele>953.0</ele>
        <time>2019-07-31T08:51:31.125Z</time>
      </trkpt>
      <trkpt lat="43.00564833" lon="-1.304085">
        <ele>953.0</ele>
        <time>2019-07-31T08:51:32.131Z</time>
      </trkpt>
      <trkpt lat="43.00565833" lon="-1.30407833">
        <ele>953.0</ele>
        <time>2019-07-31T08:51:33.136Z</time>
      </trkpt>
      <trkpt lat="43.00566833" lon="-1.30407">
        <ele>953.0</ele>
        <time>2019-07-31T08:51:34.142Z</time>
      </trkpt>
      <trkpt lat="43.005675" lon="-1.30406">
        <ele>953.0</ele>
        <time>2019-07-31T08:51:35.146Z</time>
      </trkpt>
      <trkpt lat="43.00568667" lon="-1.30405167">
        <ele>953.0</ele>
        <time>2019-07-31T08:51:36.152Z</time>
      </trkpt>
      <trkpt lat="43.00570167" lon="-1.30404">
        <ele>953.0</ele>
        <time>2019-07-31T08:51:37.155Z</time>
      </trkpt>
      <trkpt lat="43.00571333" lon="-1.30402833">
        <ele>953.0</ele>
        <time>2019-07-31T08:51:38.159Z</time>
      </trkpt>
      <trkpt lat="43.00572167" lon="-1.30402">
        <ele>953.0</ele>
        <time>2019-07-31T08:51:39.162Z</time>
      </trkpt>
      <trkpt lat="43.00573167" lon="-1.30400667">
        <ele>953.0</ele>
        <time>2019-07-31T08:51:40.168Z</time>
      </trkpt>
      <trkpt lat="43.00574" lon="-1.303995">
        <ele>952.0</ele>
        <time>2019-07-31T08:51:41.175Z</time>
      </trkpt>
      <trkpt lat="43.005755" lon="-1.30398167">
        <ele>952.0</ele>
        <time>2019-07-31T08:51:42.181Z</time>
      </trkpt>
      <trkpt lat="43.00576667" lon="-1.30396167">
        <ele>952.0</ele>
        <time>2019-07-31T08:51:43.061Z</time>
      </trkpt>
      <trkpt lat="43.00577667" lon="-1.30394667">
        <ele>952.0</ele>
        <time>2019-07-31T08:51:44.068Z</time>
      </trkpt>
      <trkpt lat="43.00578167" lon="-1.30393167">
        <ele>952.0</ele>
        <time>2019-07-31T08:51:45.074Z</time>
      </trkpt>
      <trkpt lat="43.00578667" lon="-1.30391">
        <ele>951.0</ele>
        <time>2019-07-31T08:51:46.079Z</time>
      </trkpt>
      <trkpt lat="43.00579333" lon="-1.30389">
        <ele>950.0</ele>
        <time>2019-07-31T08:51:47.084Z</time>
      </trkpt>
      <trkpt lat="43.005795" lon="-1.30387333">
        <ele>950.0</ele>
        <time>2019-07-31T08:51:48.089Z</time>
      </trkpt>
      <trkpt lat="43.005795" lon="-1.30386333">
        <ele>949.0</ele>
        <time>2019-07-31T08:51:49.095Z</time>
      </trkpt>
      <trkpt lat="43.0058" lon="-1.30384">
        <ele>949.0</ele>
        <time>2019-07-31T08:51:50.098Z</time>
      </trkpt>
      <trkpt lat="43.00580333" lon="-1.30382333">
        <ele>950.0</ele>
        <time>2019-07-31T08:51:51.104Z</time>
      </trkpt>
      <trkpt lat="43.00580833" lon="-1.303805">
        <ele>950.0</ele>
        <time>2019-07-31T08:51:52.111Z</time>
      </trkpt>
      <trkpt lat="43.00581333" lon="-1.30378833">
        <ele>950.0</ele>
        <time>2019-07-31T08:51:53.118Z</time>
      </trkpt>
      <trkpt lat="43.00582" lon="-1.303765">
        <ele>949.0</ele>
        <time>2019-07-31T08:51:54.124Z</time>
      </trkpt>
      <trkpt lat="43.00582667" lon="-1.30374333">
        <ele>949.0</ele>
        <time>2019-07-31T08:51:55.127Z</time>
      </trkpt>
      <trkpt lat="43.005835" lon="-1.30372333">
        <ele>948.0</ele>
        <time>2019-07-31T08:51:56.131Z</time>
      </trkpt>
      <trkpt lat="43.005845" lon="-1.30370167">
        <ele>948.0</ele>
        <time>2019-07-31T08:51:57.137Z</time>
      </trkpt>
      <trkpt lat="43.00585" lon="-1.30368167">
        <ele>948.0</ele>
        <time>2019-07-31T08:51:58.142Z</time>
      </trkpt>
      <trkpt lat="43.005855" lon="-1.30365667">
        <ele>948.0</ele>
        <time>2019-07-31T08:51:59.146Z</time>
      </trkpt>
      <trkpt lat="43.00585833" lon="-1.30363">
        <ele>949.0</ele>
        <time>2019-07-31T08:52:00.150Z</time>
      </trkpt>
      <trkpt lat="43.00586333" lon="-1.30360833">
        <ele>949.0</ele>
        <time>2019-07-31T08:52:01.157Z</time>
      </trkpt>
      <trkpt lat="43.005865" lon="-1.30359167">
        <ele>949.0</ele>
        <time>2019-07-31T08:52:02.164Z</time>
      </trkpt>
      <trkpt lat="43.00586833" lon="-1.30357333">
        <ele>949.0</ele>
        <time>2019-07-31T08:52:03.168Z</time>
      </trkpt>
      <trkpt lat="43.00587333" lon="-1.30354833">
        <ele>950.0</ele>
        <time>2019-07-31T08:52:04.175Z</time>
      </trkpt>
      <trkpt lat="43.005875" lon="-1.30352667">
        <ele>950.0</ele>
        <time>2019-07-31T08:52:05.180Z</time>
      </trkpt>
      <trkpt lat="43.00587833" lon="-1.30351">
        <ele>950.0</ele>
        <time>2019-07-31T08:52:06.184Z</time>
      </trkpt>
      <trkpt lat="43.00587833" lon="-1.30348667">
        <ele>951.0</ele>
        <time>2019-07-31T08:52:07.064Z</time>
      </trkpt>
      <trkpt lat="43.00588167" lon="-1.303465">
        <ele>951.0</ele>
        <time>2019-07-31T08:52:08.068Z</time>
      </trkpt>
      <trkpt lat="43.00588167" lon="-1.303445">
        <ele>951.0</ele>
        <time>2019-07-31T08:52:09.074Z</time>
      </trkpt>
      <trkpt lat="43.00588" lon="-1.303425">
        <ele>952.0</ele>
        <time>2019-07-31T08:52:10.080Z</time>
      </trkpt>
      <trkpt lat="43.005875" lon="-1.30340167">
        <ele>953.0</ele>
        <time>2019-07-31T08:52:11.086Z</time>
      </trkpt>
      <trkpt lat="43.00587167" lon="-1.30338">
        <ele>953.0</ele>
        <time>2019-07-31T08:52:12.091Z</time>
      </trkpt>
      <trkpt lat="43.00586833" lon="-1.30335333">
        <ele>954.0</ele>
        <time>2019-07-31T08:52:13.098Z</time>
      </trkpt>
      <trkpt lat="43.005865" lon="-1.30333833">
        <ele>954.0</ele>
        <time>2019-07-31T08:52:14.105Z</time>
      </trkpt>
      <trkpt lat="43.00585833" lon="-1.30331833">
        <ele>954.0</ele>
        <time>2019-07-31T08:52:15.111Z</time>
      </trkpt>
      <trkpt lat="43.00585333" lon="-1.303295">
        <ele>955.0</ele>
        <time>2019-07-31T08:52:16.116Z</time>
      </trkpt>
      <trkpt lat="43.00584667" lon="-1.303275">
        <ele>955.0</ele>
        <time>2019-07-31T08:52:17.120Z</time>
      </trkpt>
      <trkpt lat="43.00584167" lon="-1.30325833">
        <ele>956.0</ele>
        <time>2019-07-31T08:52:18.125Z</time>
      </trkpt>
      <trkpt lat="43.00583833" lon="-1.30323833">
        <ele>956.0</ele>
        <time>2019-07-31T08:52:19.131Z</time>
      </trkpt>
      <trkpt lat="43.00583333" lon="-1.303215">
        <ele>957.0</ele>
        <time>2019-07-31T08:52:20.137Z</time>
      </trkpt>
      <trkpt lat="43.005825" lon="-1.30319667">
        <ele>958.0</ele>
        <time>2019-07-31T08:52:21.142Z</time>
      </trkpt>
      <trkpt lat="43.00581833" lon="-1.30318167">
        <ele>958.0</ele>
        <time>2019-07-31T08:52:22.148Z</time>
      </trkpt>
      <trkpt lat="43.00580833" lon="-1.30316667">
        <ele>958.0</ele>
        <time>2019-07-31T08:52:23.153Z</time>
      </trkpt>
      <trkpt lat="43.0058" lon="-1.30315">
        <ele>959.0</ele>
        <time>2019-07-31T08:52:24.158Z</time>
      </trkpt>
      <trkpt lat="43.005795" lon="-1.30313333">
        <ele>959.0</ele>
        <time>2019-07-31T08:52:25.162Z</time>
      </trkpt>
      <trkpt lat="43.00578667" lon="-1.30311167">
        <ele>959.0</ele>
        <time>2019-07-31T08:52:26.166Z</time>
      </trkpt>
      <trkpt lat="43.00578333" lon="-1.30309833">
        <ele>959.0</ele>
        <time>2019-07-31T08:52:27.171Z</time>
      </trkpt>
      <trkpt lat="43.00577667" lon="-1.30308">
        <ele>959.0</ele>
        <time>2019-07-31T08:52:28.178Z</time>
      </trkpt>
      <trkpt lat="43.00577167" lon="-1.30306333">
        <ele>960.0</ele>
        <time>2019-07-31T08:52:29.183Z</time>
      </trkpt>
      <trkpt lat="43.005765" lon="-1.303045">
        <ele>960.0</ele>
        <time>2019-07-31T08:52:30.061Z</time>
      </trkpt>
      <trkpt lat="43.00576167" lon="-1.303025">
        <ele>961.0</ele>
        <time>2019-07-31T08:52:31.064Z</time>
      </trkpt>
      <trkpt lat="43.005755" lon="-1.30300667">
        <ele>961.0</ele>
        <time>2019-07-31T08:52:32.068Z</time>
      </trkpt>
      <trkpt lat="43.00574833" lon="-1.30298833">
        <ele>962.0</ele>
        <time>2019-07-31T08:52:33.074Z</time>
      </trkpt>
      <trkpt lat="43.00574167" lon="-1.30297">
        <ele>963.0</ele>
        <time>2019-07-31T08:52:34.081Z</time>
      </trkpt>
      <trkpt lat="43.00573333" lon="-1.30295333">
        <ele>963.0</ele>
        <time>2019-07-31T08:52:35.088Z</time>
      </trkpt>
      <trkpt lat="43.00572667" lon="-1.30293667">
        <ele>964.0</ele>
        <time>2019-07-31T08:52:36.093Z</time>
      </trkpt>
      <trkpt lat="43.00572167" lon="-1.302915">
        <ele>964.0</ele>
        <time>2019-07-31T08:52:37.097Z</time>
      </trkpt>
      <trkpt lat="43.005715" lon="-1.302895">
        <ele>965.0</ele>
        <time>2019-07-31T08:52:38.102Z</time>
      </trkpt>
      <trkpt lat="43.00571167" lon="-1.302875">
        <ele>965.0</ele>
        <time>2019-07-31T08:52:39.108Z</time>
      </trkpt>
      <trkpt lat="43.00570667" lon="-1.30285167">
        <ele>966.0</ele>
        <time>2019-07-31T08:52:40.113Z</time>
      </trkpt>
      <trkpt lat="43.0057" lon="-1.30283333">
        <ele>966.0</ele>
        <time>2019-07-31T08:52:41.118Z</time>
      </trkpt>
      <trkpt lat="43.00569333" lon="-1.302815">
        <ele>966.0</ele>
        <time>2019-07-31T08:52:42.124Z</time>
      </trkpt>
      <trkpt lat="43.005685" lon="-1.30279667">
        <ele>966.0</ele>
        <time>2019-07-31T08:52:43.130Z</time>
      </trkpt>
      <trkpt lat="43.00567833" lon="-1.30278">
        <ele>966.0</ele>
        <time>2019-07-31T08:52:44.136Z</time>
      </trkpt>
      <trkpt lat="43.00567333" lon="-1.30276333">
        <ele>967.0</ele>
        <time>2019-07-31T08:52:45.141Z</time>
      </trkpt>
      <trkpt lat="43.00566833" lon="-1.30274667">
        <ele>967.0</ele>
        <time>2019-07-31T08:52:46.148Z</time>
      </trkpt>
      <trkpt lat="43.005665" lon="-1.30272667">
        <ele>967.0</ele>
        <time>2019-07-31T08:52:47.154Z</time>
      </trkpt>
      <trkpt lat="43.00566" lon="-1.30271">
        <ele>967.0</ele>
        <time>2019-07-31T08:52:48.160Z</time>
      </trkpt>
      <trkpt lat="43.005655" lon="-1.30269167">
        <ele>968.0</ele>
        <time>2019-07-31T08:52:49.166Z</time>
      </trkpt>
      <trkpt lat="43.00564833" lon="-1.30267">
        <ele>968.0</ele>
        <time>2019-07-31T08:52:50.174Z</time>
      </trkpt>
      <trkpt lat="43.00564333" lon="-1.30264833">
        <ele>968.0</ele>
        <time>2019-07-31T08:52:51.179Z</time>
      </trkpt>
      <trkpt lat="43.00564" lon="-1.30262833">
        <ele>969.0</ele>
        <time>2019-07-31T08:52:52.185Z</time>
      </trkpt>
      <trkpt lat="43.00563667" lon="-1.30260833">
        <ele>969.0</ele>
        <time>2019-07-31T08:52:53.064Z</time>
      </trkpt>
      <trkpt lat="43.00563167" lon="-1.30258833">
        <ele>969.0</ele>
        <time>2019-07-31T08:52:54.068Z</time>
      </trkpt>
      <trkpt lat="43.00562833" lon="-1.30257167">
        <ele>970.0</ele>
        <time>2019-07-31T08:52:55.073Z</time>
      </trkpt>
      <trkpt lat="43.00562667" lon="-1.30255167">
        <ele>970.0</ele>
        <time>2019-07-31T08:52:56.078Z</time>
      </trkpt>
      <trkpt lat="43.00562333" lon="-1.30253167">
        <ele>970.0</ele>
        <time>2019-07-31T08:52:57.084Z</time>
      </trkpt>
      <trkpt lat="43.00562333" lon="-1.302515">
        <ele>970.0</ele>
        <time>2019-07-31T08:52:58.089Z</time>
      </trkpt>
      <trkpt lat="43.00561833" lon="-1.302495">
        <ele>970.0</ele>
        <time>2019-07-31T08:52:59.092Z</time>
      </trkpt>
      <trkpt lat="43.00561" lon="-1.30247333">
        <ele>970.0</ele>
        <time>2019-07-31T08:53:00.098Z</time>
      </trkpt>
      <trkpt lat="43.00560333" lon="-1.30245">
        <ele>971.0</ele>
        <time>2019-07-31T08:53:01.102Z</time>
      </trkpt>
      <trkpt lat="43.0056" lon="-1.30242667">
        <ele>971.0</ele>
        <time>2019-07-31T08:53:02.108Z</time>
      </trkpt>
      <trkpt lat="43.00559833" lon="-1.30240333">
        <ele>971.0</ele>
        <time>2019-07-31T08:53:03.115Z</time>
      </trkpt>
      <trkpt lat="43.005595" lon="-1.30237833">
        <ele>971.0</ele>
        <time>2019-07-31T08:53:04.120Z</time>
      </trkpt>
      <trkpt lat="43.00559333" lon="-1.30235667">
        <ele>970.0</ele>
        <time>2019-07-31T08:53:05.125Z</time>
      </trkpt>
      <trkpt lat="43.00559" lon="-1.30233">
        <ele>970.0</ele>
        <time>2019-07-31T08:53:06.131Z</time>
      </trkpt>
      <trkpt lat="43.005585" lon="-1.30230833">
        <ele>970.0</ele>
        <time>2019-07-31T08:53:07.138Z</time>
      </trkpt>
      <trkpt lat="43.00557667" lon="-1.30229">
        <ele>970.0</ele>
        <time>2019-07-31T08:53:08.143Z</time>
      </trkpt>
      <trkpt lat="43.00557333" lon="-1.30227333">
        <ele>970.0</ele>
        <time>2019-07-31T08:53:09.149Z</time>
      </trkpt>
      <trkpt lat="43.00557167" lon="-1.30225">
        <ele>970.0</ele>
        <time>2019-07-31T08:53:10.156Z</time>
      </trkpt>
      <trkpt lat="43.00557" lon="-1.30222667">
        <ele>970.0</ele>
        <time>2019-07-31T08:53:11.162Z</time>
      </trkpt>
      <trkpt lat="43.00557167" lon="-1.30220167">
        <ele>971.0</ele>
        <time>2019-07-31T08:53:12.166Z</time>
      </trkpt>
      <trkpt lat="43.005565" lon="-1.30217667">
        <ele>972.0</ele>
        <time>2019-07-31T08:53:13.172Z</time>
      </trkpt>
      <trkpt lat="43.00556167" lon="-1.30216">
        <ele>972.0</ele>
        <time>2019-07-31T08:53:14.179Z</time>
      </trkpt>
      <trkpt lat="43.005555" lon="-1.30214167">
        <ele>971.0</ele>
        <time>2019-07-31T08:53:15.184Z</time>
      </trkpt>
      <trkpt lat="43.00554833" lon="-1.30212333">
        <ele>971.0</ele>
        <time>2019-07-31T08:53:16.064Z</time>
      </trkpt>
      <trkpt lat="43.00554333" lon="-1.30210333">
        <ele>969.0</ele>
        <time>2019-07-31T08:53:17.070Z</time>
      </trkpt>
      <trkpt lat="43.00554333" lon="-1.30208167">
        <ele>968.0</ele>
        <time>2019-07-31T08:53:18.076Z</time>
      </trkpt>
      <trkpt lat="43.00554167" lon="-1.30205333">
        <ele>968.0</ele>
        <time>2019-07-31T08:53:19.082Z</time>
      </trkpt>
      <trkpt lat="43.00553667" lon="-1.30202667">
        <ele>967.0</ele>
        <time>2019-07-31T08:53:20.087Z</time>
      </trkpt>
      <trkpt lat="43.00553167" lon="-1.302">
        <ele>967.0</ele>
        <time>2019-07-31T08:53:21.091Z</time>
      </trkpt>
      <trkpt lat="43.00553" lon="-1.30197167">
        <ele>967.0</ele>
        <time>2019-07-31T08:53:22.098Z</time>
      </trkpt>
      <trkpt lat="43.00553" lon="-1.30194667">
        <ele>967.0</ele>
        <time>2019-07-31T08:53:23.104Z</time>
      </trkpt>
      <trkpt lat="43.005535" lon="-1.30192">
        <ele>967.0</ele>
        <time>2019-07-31T08:53:24.109Z</time>
      </trkpt>
      <trkpt lat="43.00554167" lon="-1.30189333">
        <ele>967.0</ele>
        <time>2019-07-31T08:53:25.113Z</time>
      </trkpt>
      <trkpt lat="43.005545" lon="-1.30187167">
        <ele>967.0</ele>
        <time>2019-07-31T08:53:26.119Z</time>
      </trkpt>
      <trkpt lat="43.005555" lon="-1.30184667">
        <ele>968.0</ele>
        <time>2019-07-31T08:53:27.125Z</time>
      </trkpt>
      <trkpt lat="43.00556333" lon="-1.30181667">
        <ele>969.0</ele>
        <time>2019-07-31T08:53:28.131Z</time>
      </trkpt>
      <trkpt lat="43.00555833" lon="-1.30179">
        <ele>970.0</ele>
        <time>2019-07-31T08:53:29.136Z</time>
      </trkpt>
      <trkpt lat="43.00556" lon="-1.30176167">
        <ele>970.0</ele>
        <time>2019-07-31T08:53:30.141Z</time>
      </trkpt>
      <trkpt lat="43.00556167" lon="-1.301735">
        <ele>971.0</ele>
        <time>2019-07-31T08:53:31.149Z</time>
      </trkpt>
      <trkpt lat="43.00556" lon="-1.301705">
        <ele>972.0</ele>
        <time>2019-07-31T08:53:32.154Z</time>
      </trkpt>
      <trkpt lat="43.00555833" lon="-1.30168333">
        <ele>972.0</ele>
        <time>2019-07-31T08:53:33.156Z</time>
      </trkpt>
      <trkpt lat="43.005555" lon="-1.30165667">
        <ele>972.0</ele>
        <time>2019-07-31T08:53:34.162Z</time>
      </trkpt>
      <trkpt lat="43.00555333" lon="-1.30163">
        <ele>973.0</ele>
        <time>2019-07-31T08:53:35.167Z</time>
      </trkpt>
      <trkpt lat="43.00554167" lon="-1.30161">
        <ele>972.0</ele>
        <time>2019-07-31T08:53:36.171Z</time>
      </trkpt>
      <trkpt lat="43.00552833" lon="-1.30159167">
        <ele>971.0</ele>
        <time>2019-07-31T08:53:37.177Z</time>
      </trkpt>
      <trkpt lat="43.00552333" lon="-1.30157">
        <ele>970.0</ele>
        <time>2019-07-31T08:53:38.184Z</time>
      </trkpt>
      <trkpt lat="43.00551833" lon="-1.30154667">
        <ele>970.0</ele>
        <time>2019-07-31T08:53:39.065Z</time>
      </trkpt>
      <trkpt lat="43.005515" lon="-1.30152333">
        <ele>970.0</ele>
        <time>2019-07-31T08:53:40.069Z</time>
      </trkpt>
      <trkpt lat="43.00550833" lon="-1.30150333">
        <ele>970.0</ele>
        <time>2019-07-31T08:53:41.073Z</time>
      </trkpt>
      <trkpt lat="43.005505" lon="-1.30147833">
        <ele>970.0</ele>
        <time>2019-07-31T08:53:42.079Z</time>
      </trkpt>
      <trkpt lat="43.0055" lon="-1.30146">
        <ele>970.0</ele>
        <time>2019-07-31T08:53:43.083Z</time>
      </trkpt>
      <trkpt lat="43.005495" lon="-1.30144">
        <ele>970.0</ele>
        <time>2019-07-31T08:53:44.088Z</time>
      </trkpt>
      <trkpt lat="43.00549" lon="-1.30141667">
        <ele>971.0</ele>
        <time>2019-07-31T08:53:45.094Z</time>
      </trkpt>
      <trkpt lat="43.00548667" lon="-1.301395">
        <ele>971.0</ele>
        <time>2019-07-31T08:53:46.101Z</time>
      </trkpt>
      <trkpt lat="43.005485" lon="-1.30137167">
        <ele>971.0</ele>
        <time>2019-07-31T08:53:47.107Z</time>
      </trkpt>
      <trkpt lat="43.00548333" lon="-1.30135">
        <ele>971.0</ele>
        <time>2019-07-31T08:53:48.113Z</time>
      </trkpt>
      <trkpt lat="43.00547667" lon="-1.30133">
        <ele>971.0</ele>
        <time>2019-07-31T08:53:49.120Z</time>
      </trkpt>
      <trkpt lat="43.00547333" lon="-1.30130833">
        <ele>971.0</ele>
        <time>2019-07-31T08:53:50.125Z</time>
      </trkpt>
      <trkpt lat="43.00547" lon="-1.30128667">
        <ele>971.0</ele>
        <time>2019-07-31T08:53:51.130Z</time>
      </trkpt>
      <trkpt lat="43.00546333" lon="-1.30126667">
        <ele>970.0</ele>
        <time>2019-07-31T08:53:52.137Z</time>
      </trkpt>
      <trkpt lat="43.00545333" lon="-1.30124667">
        <ele>970.0</ele>
        <time>2019-07-31T08:53:53.140Z</time>
      </trkpt>
      <trkpt lat="43.00544667" lon="-1.301225">
        <ele>970.0</ele>
        <time>2019-07-31T08:53:54.144Z</time>
      </trkpt>
      <trkpt lat="43.00544333" lon="-1.30120333">
        <ele>970.0</ele>
        <time>2019-07-31T08:53:55.149Z</time>
      </trkpt>
      <trkpt lat="43.00543833" lon="-1.30118167">
        <ele>970.0</ele>
        <time>2019-07-31T08:53:56.156Z</time>
      </trkpt>
      <trkpt lat="43.00543667" lon="-1.30115833">
        <ele>971.0</ele>
        <time>2019-07-31T08:53:57.162Z</time>
      </trkpt>
      <trkpt lat="43.00543167" lon="-1.301135">
        <ele>971.0</ele>
        <time>2019-07-31T08:53:58.166Z</time>
      </trkpt>
      <trkpt lat="43.00542833" lon="-1.30111667">
        <ele>971.0</ele>
        <time>2019-07-31T08:53:59.173Z</time>
      </trkpt>
      <trkpt lat="43.00542667" lon="-1.30109667">
        <ele>972.0</ele>
        <time>2019-07-31T08:54:00.179Z</time>
      </trkpt>
      <trkpt lat="43.005425" lon="-1.30107167">
        <ele>973.0</ele>
        <time>2019-07-31T08:54:01.185Z</time>
      </trkpt>
      <trkpt lat="43.00542167" lon="-1.30105">
        <ele>973.0</ele>
        <time>2019-07-31T08:54:02.063Z</time>
      </trkpt>
      <trkpt lat="43.00542" lon="-1.301025">
        <ele>973.0</ele>
        <time>2019-07-31T08:54:03.068Z</time>
      </trkpt>
      <trkpt lat="43.005415" lon="-1.30100667">
        <ele>973.0</ele>
        <time>2019-07-31T08:54:04.073Z</time>
      </trkpt>
      <trkpt lat="43.00540667" lon="-1.30099333">
        <ele>972.0</ele>
        <time>2019-07-31T08:54:05.078Z</time>
      </trkpt>
      <trkpt lat="43.00539667" lon="-1.300975">
        <ele>972.0</ele>
        <time>2019-07-31T08:54:06.084Z</time>
      </trkpt>
      <trkpt lat="43.00539" lon="-1.30095833">
        <ele>973.0</ele>
        <time>2019-07-31T08:54:07.090Z</time>
      </trkpt>
      <trkpt lat="43.005385" lon="-1.30094">
        <ele>972.0</ele>
        <time>2019-07-31T08:54:08.096Z</time>
      </trkpt>
      <trkpt lat="43.00537833" lon="-1.30092">
        <ele>973.0</ele>
        <time>2019-07-31T08:54:09.102Z</time>
      </trkpt>
      <trkpt lat="43.00537333" lon="-1.30089833">
        <ele>973.0</ele>
        <time>2019-07-31T08:54:10.108Z</time>
      </trkpt>
      <trkpt lat="43.00536667" lon="-1.300875">
        <ele>973.0</ele>
        <time>2019-07-31T08:54:11.115Z</time>
      </trkpt>
      <trkpt lat="43.00536333" lon="-1.30085667">
        <ele>973.0</ele>
        <time>2019-07-31T08:54:12.119Z</time>
      </trkpt>
      <trkpt lat="43.00536" lon="-1.30083667">
        <ele>973.0</ele>
        <time>2019-07-31T08:54:13.124Z</time>
      </trkpt>
      <trkpt lat="43.00535333" lon="-1.300815">
        <ele>973.0</ele>
        <time>2019-07-31T08:54:14.130Z</time>
      </trkpt>
      <trkpt lat="43.00534667" lon="-1.30079667">
        <ele>973.0</ele>
        <time>2019-07-31T08:54:15.135Z</time>
      </trkpt>
      <trkpt lat="43.00534167" lon="-1.30077667">
        <ele>973.0</ele>
        <time>2019-07-31T08:54:16.141Z</time>
      </trkpt>
      <trkpt lat="43.005335" lon="-1.300755">
        <ele>973.0</ele>
        <time>2019-07-31T08:54:17.146Z</time>
      </trkpt>
      <trkpt lat="43.00533" lon="-1.30073333">
        <ele>973.0</ele>
        <time>2019-07-31T08:54:18.152Z</time>
      </trkpt>
      <trkpt lat="43.005325" lon="-1.30071333">
        <ele>973.0</ele>
        <time>2019-07-31T08:54:19.158Z</time>
      </trkpt>
      <trkpt lat="43.00532167" lon="-1.30069">
        <ele>973.0</ele>
        <time>2019-07-31T08:54:20.165Z</time>
      </trkpt>
      <trkpt lat="43.00532" lon="-1.30066667">
        <ele>974.0</ele>
        <time>2019-07-31T08:54:21.171Z</time>
      </trkpt>
      <trkpt lat="43.005315" lon="-1.30064333">
        <ele>974.0</ele>
        <time>2019-07-31T08:54:22.173Z</time>
      </trkpt>
      <trkpt lat="43.00531" lon="-1.30062167">
        <ele>974.0</ele>
        <time>2019-07-31T08:54:23.178Z</time>
      </trkpt>
      <trkpt lat="43.00530833" lon="-1.30059833">
        <ele>975.0</ele>
        <time>2019-07-31T08:54:24.184Z</time>
      </trkpt>
      <trkpt lat="43.005305" lon="-1.300575">
        <ele>975.0</ele>
        <time>2019-07-31T08:54:25.064Z</time>
      </trkpt>
      <trkpt lat="43.00529833" lon="-1.300555">
        <ele>974.0</ele>
        <time>2019-07-31T08:54:26.068Z</time>
      </trkpt>
      <trkpt lat="43.00528833" lon="-1.300535">
        <ele>974.0</ele>
        <time>2019-07-31T08:54:27.074Z</time>
      </trkpt>
      <trkpt lat="43.00528167" lon="-1.30051333">
        <ele>974.0</ele>
        <time>2019-07-31T08:54:28.080Z</time>
      </trkpt>
      <trkpt lat="43.005275" lon="-1.30049167">
        <ele>973.0</ele>
        <time>2019-07-31T08:54:29.085Z</time>
      </trkpt>
      <trkpt lat="43.00527167" lon="-1.30046667">
        <ele>973.0</ele>
        <time>2019-07-31T08:54:30.091Z</time>
      </trkpt>
      <trkpt lat="43.00527" lon="-1.30044">
        <ele>973.0</ele>
        <time>2019-07-31T08:54:31.094Z</time>
      </trkpt>
      <trkpt lat="43.005265" lon="-1.300415">
        <ele>973.0</ele>
        <time>2019-07-31T08:54:32.100Z</time>
      </trkpt>
      <trkpt lat="43.00525833" lon="-1.30038833">
        <ele>972.0</ele>
        <time>2019-07-31T08:54:33.104Z</time>
      </trkpt>
      <trkpt lat="43.00525167" lon="-1.30036333">
        <ele>972.0</ele>
        <time>2019-07-31T08:54:34.109Z</time>
      </trkpt>
      <trkpt lat="43.00524667" lon="-1.30034">
        <ele>972.0</ele>
        <time>2019-07-31T08:54:35.113Z</time>
      </trkpt>
      <trkpt lat="43.00524167" lon="-1.30031833">
        <ele>972.0</ele>
        <time>2019-07-31T08:54:36.119Z</time>
      </trkpt>
      <trkpt lat="43.00523667" lon="-1.300295">
        <ele>972.0</ele>
        <time>2019-07-31T08:54:37.124Z</time>
      </trkpt>
      <trkpt lat="43.00522833" lon="-1.30027167">
        <ele>972.0</ele>
        <time>2019-07-31T08:54:38.128Z</time>
      </trkpt>
      <trkpt lat="43.00521833" lon="-1.30025">
        <ele>972.0</ele>
        <time>2019-07-31T08:54:39.133Z</time>
      </trkpt>
      <trkpt lat="43.00521333" lon="-1.30022833">
        <ele>972.0</ele>
        <time>2019-07-31T08:54:40.138Z</time>
      </trkpt>
      <trkpt lat="43.00521" lon="-1.30020167">
        <ele>973.0</ele>
        <time>2019-07-31T08:54:41.145Z</time>
      </trkpt>
      <trkpt lat="43.00520333" lon="-1.30018167">
        <ele>973.0</ele>
        <time>2019-07-31T08:54:42.152Z</time>
      </trkpt>
      <trkpt lat="43.00519667" lon="-1.30016167">
        <ele>974.0</ele>
        <time>2019-07-31T08:54:43.158Z</time>
      </trkpt>
      <trkpt lat="43.005195" lon="-1.30013833">
        <ele>975.0</ele>
        <time>2019-07-31T08:54:44.164Z</time>
      </trkpt>
      <trkpt lat="43.00518667" lon="-1.30012">
        <ele>976.0</ele>
        <time>2019-07-31T08:54:45.166Z</time>
      </trkpt>
      <trkpt lat="43.00517667" lon="-1.30010167">
        <ele>975.0</ele>
        <time>2019-07-31T08:54:46.170Z</time>
      </trkpt>
      <trkpt lat="43.005165" lon="-1.30008833">
        <ele>974.0</ele>
        <time>2019-07-31T08:54:47.174Z</time>
      </trkpt>
      <trkpt lat="43.00515333" lon="-1.30007167">
        <ele>974.0</ele>
        <time>2019-07-31T08:54:48.179Z</time>
      </trkpt>
      <trkpt lat="43.00514" lon="-1.30005">
        <ele>974.0</ele>
        <time>2019-07-31T08:54:49.185Z</time>
      </trkpt>
      <trkpt lat="43.00512833" lon="-1.300035">
        <ele>974.0</ele>
        <time>2019-07-31T08:54:50.064Z</time>
      </trkpt>
      <trkpt lat="43.00511833" lon="-1.30002167">
        <ele>974.0</ele>
        <time>2019-07-31T08:54:51.069Z</time>
      </trkpt>
      <trkpt lat="43.00510833" lon="-1.300005">
        <ele>974.0</ele>
        <time>2019-07-31T08:54:52.074Z</time>
      </trkpt>
      <trkpt lat="43.00509833" lon="-1.29999167">
        <ele>975.0</ele>
        <time>2019-07-31T08:54:53.080Z</time>
      </trkpt>
      <trkpt lat="43.00508833" lon="-1.29997667">
        <ele>975.0</ele>
        <time>2019-07-31T08:54:54.084Z</time>
      </trkpt>
      <trkpt lat="43.00508" lon="-1.29996">
        <ele>976.0</ele>
        <time>2019-07-31T08:54:55.088Z</time>
      </trkpt>
      <trkpt lat="43.00507167" lon="-1.29994333">
        <ele>977.0</ele>
        <time>2019-07-31T08:54:56.093Z</time>
      </trkpt>
      <trkpt lat="43.00506167" lon="-1.29992833">
        <ele>977.0</ele>
        <time>2019-07-31T08:54:57.099Z</time>
      </trkpt>
      <trkpt lat="43.00504833" lon="-1.299915">
        <ele>977.0</ele>
        <time>2019-07-31T08:54:58.102Z</time>
      </trkpt>
      <trkpt lat="43.005035" lon="-1.29990333">
        <ele>978.0</ele>
        <time>2019-07-31T08:54:59.108Z</time>
      </trkpt>
      <trkpt lat="43.00502167" lon="-1.29989">
        <ele>978.0</ele>
        <time>2019-07-31T08:55:00.113Z</time>
      </trkpt>
      <trkpt lat="43.00500667" lon="-1.29987833">
        <ele>978.0</ele>
        <time>2019-07-31T08:55:01.120Z</time>
      </trkpt>
      <trkpt lat="43.00499833" lon="-1.29986167">
        <ele>978.0</ele>
        <time>2019-07-31T08:55:02.125Z</time>
      </trkpt>
      <trkpt lat="43.00498833" lon="-1.29984167">
        <ele>978.0</ele>
        <time>2019-07-31T08:55:03.131Z</time>
      </trkpt>
      <trkpt lat="43.00497667" lon="-1.299825">
        <ele>978.0</ele>
        <time>2019-07-31T08:55:04.138Z</time>
      </trkpt>
      <trkpt lat="43.00496333" lon="-1.29980667">
        <ele>978.0</ele>
        <time>2019-07-31T08:55:05.145Z</time>
      </trkpt>
      <trkpt lat="43.00495167" lon="-1.29979">
        <ele>977.0</ele>
        <time>2019-07-31T08:55:06.151Z</time>
      </trkpt>
      <trkpt lat="43.00494" lon="-1.29977">
        <ele>977.0</ele>
        <time>2019-07-31T08:55:07.157Z</time>
      </trkpt>
      <trkpt lat="43.00493333" lon="-1.29975167">
        <ele>977.0</ele>
        <time>2019-07-31T08:55:08.160Z</time>
      </trkpt>
      <trkpt lat="43.004925" lon="-1.299735">
        <ele>977.0</ele>
        <time>2019-07-31T08:55:09.163Z</time>
      </trkpt>
      <trkpt lat="43.00491667" lon="-1.29971667">
        <ele>977.0</ele>
        <time>2019-07-31T08:55:10.167Z</time>
      </trkpt>
      <trkpt lat="43.00491" lon="-1.29969667">
        <ele>977.0</ele>
        <time>2019-07-31T08:55:11.172Z</time>
      </trkpt>
      <trkpt lat="43.004905" lon="-1.29967833">
        <ele>977.0</ele>
        <time>2019-07-31T08:55:12.177Z</time>
      </trkpt>
      <trkpt lat="43.0049" lon="-1.29965833">
        <ele>976.0</ele>
        <time>2019-07-31T08:55:13.183Z</time>
      </trkpt>
      <trkpt lat="43.00488667" lon="-1.29964667">
        <ele>976.0</ele>
        <time>2019-07-31T08:55:14.063Z</time>
      </trkpt>
      <trkpt lat="43.00487" lon="-1.29963167">
        <ele>976.0</ele>
        <time>2019-07-31T08:55:15.070Z</time>
      </trkpt>
      <trkpt lat="43.00485833" lon="-1.29962">
        <ele>976.0</ele>
        <time>2019-07-31T08:55:16.076Z</time>
      </trkpt>
      <trkpt lat="43.00485" lon="-1.29960333">
        <ele>976.0</ele>
        <time>2019-07-31T08:55:17.082Z</time>
      </trkpt>
      <trkpt lat="43.004845" lon="-1.29958167">
        <ele>976.0</ele>
        <time>2019-07-31T08:55:18.086Z</time>
      </trkpt>
      <trkpt lat="43.00483667" lon="-1.29956333">
        <ele>976.0</ele>
        <time>2019-07-31T08:55:19.092Z</time>
      </trkpt>
      <trkpt lat="43.00482667" lon="-1.29954833">
        <ele>976.0</ele>
        <time>2019-07-31T08:55:20.098Z</time>
      </trkpt>
      <trkpt lat="43.00481833" lon="-1.29953167">
        <ele>976.0</ele>
        <time>2019-07-31T08:55:21.102Z</time>
      </trkpt>
      <trkpt lat="43.00480833" lon="-1.29951667">
        <ele>976.0</ele>
        <time>2019-07-31T08:55:22.109Z</time>
      </trkpt>
      <trkpt lat="43.00479833" lon="-1.29950167">
        <ele>976.0</ele>
        <time>2019-07-31T08:55:23.116Z</time>
      </trkpt>
      <trkpt lat="43.00479" lon="-1.29948667">
        <ele>976.0</ele>
        <time>2019-07-31T08:55:24.122Z</time>
      </trkpt>
      <trkpt lat="43.00478167" lon="-1.29947333">
        <ele>976.0</ele>
        <time>2019-07-31T08:55:25.128Z</time>
      </trkpt>
      <trkpt lat="43.00477" lon="-1.29945667">
        <ele>976.0</ele>
        <time>2019-07-31T08:55:26.132Z</time>
      </trkpt>
      <trkpt lat="43.00476167" lon="-1.29944">
        <ele>976.0</ele>
        <time>2019-07-31T08:55:27.139Z</time>
      </trkpt>
      <trkpt lat="43.00475333" lon="-1.299425">
        <ele>977.0</ele>
        <time>2019-07-31T08:55:28.142Z</time>
      </trkpt>
      <trkpt lat="43.004745" lon="-1.29940667">
        <ele>978.0</ele>
        <time>2019-07-31T08:55:29.147Z</time>
      </trkpt>
      <trkpt lat="43.00473667" lon="-1.29938667">
        <ele>978.0</ele>
        <time>2019-07-31T08:55:30.151Z</time>
      </trkpt>
      <trkpt lat="43.00472833" lon="-1.29936833">
        <ele>978.0</ele>
        <time>2019-07-31T08:55:31.157Z</time>
      </trkpt>
      <trkpt lat="43.00471833" lon="-1.299355">
        <ele>978.0</ele>
        <time>2019-07-31T08:55:32.162Z</time>
      </trkpt>
      <trkpt lat="43.00471333" lon="-1.29933667">
        <ele>979.0</ele>
        <time>2019-07-31T08:55:33.167Z</time>
      </trkpt>
      <trkpt lat="43.00470833" lon="-1.29931333">
        <ele>979.0</ele>
        <time>2019-07-31T08:55:34.173Z</time>
      </trkpt>
      <trkpt lat="43.004705" lon="-1.29929333">
        <ele>979.0</ele>
        <time>2019-07-31T08:55:35.178Z</time>
      </trkpt>
      <trkpt lat="43.00470167" lon="-1.29927333">
        <ele>979.0</ele>
        <time>2019-07-31T08:55:36.182Z</time>
      </trkpt>
      <trkpt lat="43.00469833" lon="-1.29925167">
        <ele>980.0</ele>
        <time>2019-07-31T08:55:37.062Z</time>
      </trkpt>
      <trkpt lat="43.004695" lon="-1.29923333">
        <ele>981.0</ele>
        <time>2019-07-31T08:55:38.068Z</time>
      </trkpt>
      <trkpt lat="43.00469" lon="-1.29921167">
        <ele>981.0</ele>
        <time>2019-07-31T08:55:39.071Z</time>
      </trkpt>
      <trkpt lat="43.00468833" lon="-1.29919167">
        <ele>982.0</ele>
        <time>2019-07-31T08:55:40.073Z</time>
      </trkpt>
      <trkpt lat="43.004685" lon="-1.29917167">
        <ele>982.0</ele>
        <time>2019-07-31T08:55:41.079Z</time>
      </trkpt>
      <trkpt lat="43.00468167" lon="-1.29915167">
        <ele>983.0</ele>
        <time>2019-07-31T08:55:42.086Z</time>
      </trkpt>
      <trkpt lat="43.00467667" lon="-1.29912833">
        <ele>983.0</ele>
        <time>2019-07-31T08:55:43.092Z</time>
      </trkpt>
      <trkpt lat="43.004675" lon="-1.29911">
        <ele>984.0</ele>
        <time>2019-07-31T08:55:44.099Z</time>
      </trkpt>
      <trkpt lat="43.00467" lon="-1.29909667">
        <ele>984.0</ele>
        <time>2019-07-31T08:55:45.106Z</time>
      </trkpt>
      <trkpt lat="43.004665" lon="-1.29907833">
        <ele>985.0</ele>
        <time>2019-07-31T08:55:46.112Z</time>
      </trkpt>
      <trkpt lat="43.00465833" lon="-1.29906167">
        <ele>986.0</ele>
        <time>2019-07-31T08:55:47.117Z</time>
      </trkpt>
      <trkpt lat="43.00465667" lon="-1.29904333">
        <ele>987.0</ele>
        <time>2019-07-31T08:55:48.121Z</time>
      </trkpt>
      <trkpt lat="43.00465333" lon="-1.29902167">
        <ele>987.0</ele>
        <time>2019-07-31T08:55:49.126Z</time>
      </trkpt>
      <trkpt lat="43.00465333" lon="-1.299">
        <ele>987.0</ele>
        <time>2019-07-31T08:55:50.132Z</time>
      </trkpt>
      <trkpt lat="43.00464833" lon="-1.29898167">
        <ele>987.0</ele>
        <time>2019-07-31T08:55:51.136Z</time>
      </trkpt>
      <trkpt lat="43.004645" lon="-1.29896">
        <ele>988.0</ele>
        <time>2019-07-31T08:55:52.142Z</time>
      </trkpt>
      <trkpt lat="43.00464" lon="-1.29894167">
        <ele>989.0</ele>
        <time>2019-07-31T08:55:53.148Z</time>
      </trkpt>
      <trkpt lat="43.00464" lon="-1.29892667">
        <ele>989.0</ele>
        <time>2019-07-31T08:55:54.154Z</time>
      </trkpt>
      <trkpt lat="43.004635" lon="-1.29891333">
        <ele>989.0</ele>
        <time>2019-07-31T08:55:55.158Z</time>
      </trkpt>
      <trkpt lat="43.00463" lon="-1.29889833">
        <ele>989.0</ele>
        <time>2019-07-31T08:55:56.161Z</time>
      </trkpt>
      <trkpt lat="43.004625" lon="-1.298885">
        <ele>989.0</ele>
        <time>2019-07-31T08:55:57.165Z</time>
      </trkpt>
      <trkpt lat="43.00462167" lon="-1.298865">
        <ele>990.0</ele>
        <time>2019-07-31T08:55:58.170Z</time>
      </trkpt>
      <trkpt lat="43.00461833" lon="-1.29884333">
        <ele>990.0</ele>
        <time>2019-07-31T08:55:59.175Z</time>
      </trkpt>
      <trkpt lat="43.00461833" lon="-1.29882167">
        <ele>990.0</ele>
        <time>2019-07-31T08:56:00.181Z</time>
      </trkpt>
      <trkpt lat="43.00461667" lon="-1.29879833">
        <ele>991.0</ele>
        <time>2019-07-31T08:56:01.185Z</time>
      </trkpt>
      <trkpt lat="43.004615" lon="-1.298775">
        <ele>991.0</ele>
        <time>2019-07-31T08:56:02.063Z</time>
      </trkpt>
      <trkpt lat="43.004615" lon="-1.29875">
        <ele>991.0</ele>
        <time>2019-07-31T08:56:03.068Z</time>
      </trkpt>
      <trkpt lat="43.004615" lon="-1.29873">
        <ele>990.0</ele>
        <time>2019-07-31T08:56:04.073Z</time>
      </trkpt>
      <trkpt lat="43.004615" lon="-1.29870833">
        <ele>989.0</ele>
        <time>2019-07-31T08:56:05.079Z</time>
      </trkpt>
      <trkpt lat="43.00460833" lon="-1.29869">
        <ele>989.0</ele>
        <time>2019-07-31T08:56:06.083Z</time>
      </trkpt>
      <trkpt lat="43.00460167" lon="-1.29867">
        <ele>989.0</ele>
        <time>2019-07-31T08:56:07.088Z</time>
      </trkpt>
      <trkpt lat="43.00459667" lon="-1.29864833">
        <ele>989.0</ele>
        <time>2019-07-31T08:56:08.093Z</time>
      </trkpt>
      <trkpt lat="43.00459" lon="-1.29862667">
        <ele>989.0</ele>
        <time>2019-07-31T08:56:09.098Z</time>
      </trkpt>
      <trkpt lat="43.00458167" lon="-1.29860333">
        <ele>990.0</ele>
        <time>2019-07-31T08:56:10.104Z</time>
      </trkpt>
      <trkpt lat="43.00457667" lon="-1.29858833">
        <ele>990.0</ele>
        <time>2019-07-31T08:56:11.109Z</time>
      </trkpt>
      <trkpt lat="43.00457833" lon="-1.29856833">
        <ele>991.0</ele>
        <time>2019-07-31T08:56:12.115Z</time>
      </trkpt>
      <trkpt lat="43.00457833" lon="-1.29854167">
        <ele>991.0</ele>
        <time>2019-07-31T08:56:13.121Z</time>
      </trkpt>
      <trkpt lat="43.00457833" lon="-1.29851833">
        <ele>992.0</ele>
        <time>2019-07-31T08:56:14.126Z</time>
      </trkpt>
      <trkpt lat="43.00457833" lon="-1.2985">
        <ele>992.0</ele>
        <time>2019-07-31T08:56:15.132Z</time>
      </trkpt>
      <trkpt lat="43.00458" lon="-1.29848167">
        <ele>993.0</ele>
        <time>2019-07-31T08:56:16.137Z</time>
      </trkpt>
      <trkpt lat="43.00458167" lon="-1.29845833">
        <ele>992.0</ele>
        <time>2019-07-31T08:56:17.142Z</time>
      </trkpt>
      <trkpt lat="43.00458167" lon="-1.298435">
        <ele>991.0</ele>
        <time>2019-07-31T08:56:18.148Z</time>
      </trkpt>
      <trkpt lat="43.00458" lon="-1.29841667">
        <ele>991.0</ele>
        <time>2019-07-31T08:56:19.154Z</time>
      </trkpt>
      <trkpt lat="43.00457667" lon="-1.29840167">
        <ele>991.0</ele>
        <time>2019-07-31T08:56:20.160Z</time>
      </trkpt>
      <trkpt lat="43.00457333" lon="-1.298385">
        <ele>992.0</ele>
        <time>2019-07-31T08:56:21.164Z</time>
      </trkpt>
      <trkpt lat="43.00456667" lon="-1.29836333">
        <ele>993.0</ele>
        <time>2019-07-31T08:56:22.167Z</time>
      </trkpt>
      <trkpt lat="43.00456167" lon="-1.29833667">
        <ele>993.0</ele>
        <time>2019-07-31T08:56:23.172Z</time>
      </trkpt>
      <trkpt lat="43.00456" lon="-1.29832">
        <ele>993.0</ele>
        <time>2019-07-31T08:56:24.178Z</time>
      </trkpt>
      <trkpt lat="43.00456" lon="-1.29829833">
        <ele>992.0</ele>
        <time>2019-07-31T08:56:25.184Z</time>
      </trkpt>
      <trkpt lat="43.00456" lon="-1.29827667">
        <ele>993.0</ele>
        <time>2019-07-31T08:56:26.064Z</time>
      </trkpt>
      <trkpt lat="43.00456167" lon="-1.298255">
        <ele>993.0</ele>
        <time>2019-07-31T08:56:27.071Z</time>
      </trkpt>
      <trkpt lat="43.00456167" lon="-1.298235">
        <ele>993.0</ele>
        <time>2019-07-31T08:56:28.077Z</time>
      </trkpt>
      <trkpt lat="43.00456167" lon="-1.29821833">
        <ele>993.0</ele>
        <time>2019-07-31T08:56:29.081Z</time>
      </trkpt>
      <trkpt lat="43.00456333" lon="-1.298195">
        <ele>993.0</ele>
        <time>2019-07-31T08:56:30.084Z</time>
      </trkpt>
      <trkpt lat="43.004565" lon="-1.29817167">
        <ele>994.0</ele>
        <time>2019-07-31T08:56:31.090Z</time>
      </trkpt>
      <trkpt lat="43.004565" lon="-1.29814833">
        <ele>994.0</ele>
        <time>2019-07-31T08:56:32.096Z</time>
      </trkpt>
      <trkpt lat="43.004565" lon="-1.298125">
        <ele>994.0</ele>
        <time>2019-07-31T08:56:33.100Z</time>
      </trkpt>
      <trkpt lat="43.00456167" lon="-1.2981">
        <ele>993.0</ele>
        <time>2019-07-31T08:56:34.105Z</time>
      </trkpt>
      <trkpt lat="43.00456333" lon="-1.29807167">
        <ele>993.0</ele>
        <time>2019-07-31T08:56:35.110Z</time>
      </trkpt>
      <trkpt lat="43.00456833" lon="-1.298045">
        <ele>992.0</ele>
        <time>2019-07-31T08:56:36.117Z</time>
      </trkpt>
      <trkpt lat="43.00457667" lon="-1.29802167">
        <ele>992.0</ele>
        <time>2019-07-31T08:56:37.123Z</time>
      </trkpt>
      <trkpt lat="43.00458333" lon="-1.29800333">
        <ele>990.0</ele>
        <time>2019-07-31T08:56:38.127Z</time>
      </trkpt>
      <trkpt lat="43.00458833" lon="-1.29798333">
        <ele>990.0</ele>
        <time>2019-07-31T08:56:39.132Z</time>
      </trkpt>
      <trkpt lat="43.00459333" lon="-1.29796167">
        <ele>990.0</ele>
        <time>2019-07-31T08:56:40.134Z</time>
      </trkpt>
      <trkpt lat="43.004595" lon="-1.29794333">
        <ele>989.0</ele>
        <time>2019-07-31T08:56:41.140Z</time>
      </trkpt>
      <trkpt lat="43.00459667" lon="-1.29792667">
        <ele>990.0</ele>
        <time>2019-07-31T08:56:42.145Z</time>
      </trkpt>
      <trkpt lat="43.0046" lon="-1.29791333">
        <ele>990.0</ele>
        <time>2019-07-31T08:56:43.150Z</time>
      </trkpt>
      <trkpt lat="43.00460333" lon="-1.29789333">
        <ele>990.0</ele>
        <time>2019-07-31T08:56:44.155Z</time>
      </trkpt>
      <trkpt lat="43.00460667" lon="-1.297875">
        <ele>991.0</ele>
        <time>2019-07-31T08:56:45.161Z</time>
      </trkpt>
      <trkpt lat="43.00460667" lon="-1.297855">
        <ele>991.0</ele>
        <time>2019-07-31T08:56:46.166Z</time>
      </trkpt>
      <trkpt lat="43.00460667" lon="-1.29783667">
        <ele>991.0</ele>
        <time>2019-07-31T08:56:47.169Z</time>
      </trkpt>
      <trkpt lat="43.00460667" lon="-1.29782">
        <ele>991.0</ele>
        <time>2019-07-31T08:56:48.174Z</time>
      </trkpt>
      <trkpt lat="43.00461" lon="-1.2978">
        <ele>992.0</ele>
        <time>2019-07-31T08:56:49.179Z</time>
      </trkpt>
      <trkpt lat="43.00461333" lon="-1.29777667">
        <ele>992.0</ele>
        <time>2019-07-31T08:56:50.183Z</time>
      </trkpt>
      <trkpt lat="43.00461667" lon="-1.29775333">
        <ele>991.0</ele>
        <time>2019-07-31T08:56:51.064Z</time>
      </trkpt>
      <trkpt lat="43.00462167" lon="-1.29773">
        <ele>991.0</ele>
        <time>2019-07-31T08:56:52.066Z</time>
      </trkpt>
      <trkpt lat="43.004625" lon="-1.29770833">
        <ele>991.0</ele>
        <time>2019-07-31T08:56:53.071Z</time>
      </trkpt>
      <trkpt lat="43.00462667" lon="-1.29768333">
        <ele>992.0</ele>
        <time>2019-07-31T08:56:54.075Z</time>
      </trkpt>
      <trkpt lat="43.00462833" lon="-1.29765833">
        <ele>992.0</ele>
        <time>2019-07-31T08:56:55.081Z</time>
      </trkpt>
      <trkpt lat="43.00463" lon="-1.297635">
        <ele>992.0</ele>
        <time>2019-07-31T08:56:56.086Z</time>
      </trkpt>
      <trkpt lat="43.00462833" lon="-1.29761167">
        <ele>992.0</ele>
        <time>2019-07-31T08:56:57.090Z</time>
      </trkpt>
      <trkpt lat="43.004625" lon="-1.29758667">
        <ele>992.0</ele>
        <time>2019-07-31T08:56:58.097Z</time>
      </trkpt>
      <trkpt lat="43.00461833" lon="-1.29756">
        <ele>991.0</ele>
        <time>2019-07-31T08:56:59.102Z</time>
      </trkpt>
      <trkpt lat="43.00461" lon="-1.29753667">
        <ele>991.0</ele>
        <time>2019-07-31T08:57:00.106Z</time>
      </trkpt>
      <trkpt lat="43.00460167" lon="-1.29751667">
        <ele>990.0</ele>
        <time>2019-07-31T08:57:01.112Z</time>
      </trkpt>
      <trkpt lat="43.00459167" lon="-1.29749833">
        <ele>991.0</ele>
        <time>2019-07-31T08:57:02.117Z</time>
      </trkpt>
      <trkpt lat="43.00458" lon="-1.29747833">
        <ele>992.0</ele>
        <time>2019-07-31T08:57:03.122Z</time>
      </trkpt>
      <trkpt lat="43.00457" lon="-1.29746167">
        <ele>992.0</ele>
        <time>2019-07-31T08:57:04.126Z</time>
      </trkpt>
      <trkpt lat="43.00455833" lon="-1.29744667">
        <ele>993.0</ele>
        <time>2019-07-31T08:57:05.130Z</time>
      </trkpt>
      <trkpt lat="43.004545" lon="-1.29743167">
        <ele>993.0</ele>
        <time>2019-07-31T08:57:06.136Z</time>
      </trkpt>
      <trkpt lat="43.00453333" lon="-1.29742167">
        <ele>993.0</ele>
        <time>2019-07-31T08:57:07.142Z</time>
      </trkpt>
      <trkpt lat="43.00452" lon="-1.29741">
        <ele>993.0</ele>
        <time>2019-07-31T08:57:08.149Z</time>
      </trkpt>
      <trkpt lat="43.004505" lon="-1.29739333">
        <ele>993.0</ele>
        <time>2019-07-31T08:57:09.153Z</time>
      </trkpt>
      <trkpt lat="43.00449167" lon="-1.29737667">
        <ele>993.0</ele>
        <time>2019-07-31T08:57:10.157Z</time>
      </trkpt>
      <trkpt lat="43.00447667" lon="-1.29735833">
        <ele>992.0</ele>
        <time>2019-07-31T08:57:11.163Z</time>
      </trkpt>
      <trkpt lat="43.00446667" lon="-1.29735">
        <ele>992.0</ele>
        <time>2019-07-31T08:57:12.167Z</time>
      </trkpt>
      <trkpt lat="43.00445833" lon="-1.29733833">
        <ele>992.0</ele>
        <time>2019-07-31T08:57:13.173Z</time>
      </trkpt>
      <trkpt lat="43.00443833" lon="-1.29733167">
        <ele>991.0</ele>
        <time>2019-07-31T08:57:14.178Z</time>
      </trkpt>
      <trkpt lat="43.004425" lon="-1.29732">
        <ele>992.0</ele>
        <time>2019-07-31T08:57:15.184Z</time>
      </trkpt>
      <trkpt lat="43.004415" lon="-1.297315">
        <ele>992.0</ele>
        <time>2019-07-31T08:57:16.065Z</time>
      </trkpt>
      <trkpt lat="43.00440167" lon="-1.29730667">
        <ele>992.0</ele>
        <time>2019-07-31T08:57:17.069Z</time>
      </trkpt>
      <trkpt lat="43.00439" lon="-1.29730833">
        <ele>992.0</ele>
        <time>2019-07-31T08:57:18.074Z</time>
      </trkpt>
      <trkpt lat="43.00437667" lon="-1.29730167">
        <ele>992.0</ele>
        <time>2019-07-31T08:57:19.079Z</time>
      </trkpt>
      <trkpt lat="43.00436833" lon="-1.29729833">
        <ele>992.0</ele>
        <time>2019-07-31T08:57:20.083Z</time>
      </trkpt>
      <trkpt lat="43.00436167" lon="-1.29729">
        <ele>991.0</ele>
        <time>2019-07-31T08:57:21.087Z</time>
      </trkpt>
      <trkpt lat="43.00435833" lon="-1.29728">
        <ele>992.0</ele>
        <time>2019-07-31T08:57:22.090Z</time>
      </trkpt>
      <trkpt lat="43.00434833" lon="-1.29727333">
        <ele>992.0</ele>
        <time>2019-07-31T08:57:23.094Z</time>
      </trkpt>
      <trkpt lat="43.00434" lon="-1.29726833">
        <ele>992.0</ele>
        <time>2019-07-31T08:57:24.099Z</time>
      </trkpt>
      <trkpt lat="43.00432833" lon="-1.29726333">
        <ele>993.0</ele>
        <time>2019-07-31T08:57:25.105Z</time>
      </trkpt>
      <trkpt lat="43.00431167" lon="-1.29726">
        <ele>993.0</ele>
        <time>2019-07-31T08:57:26.107Z</time>
      </trkpt>
      <trkpt lat="43.00429833" lon="-1.297255">
        <ele>993.0</ele>
        <time>2019-07-31T08:57:27.113Z</time>
      </trkpt>
      <trkpt lat="43.00428167" lon="-1.29725167">
        <ele>994.0</ele>
        <time>2019-07-31T08:57:28.121Z</time>
      </trkpt>
      <trkpt lat="43.00426667" lon="-1.29724167">
        <ele>995.0</ele>
        <time>2019-07-31T08:57:29.127Z</time>
      </trkpt>
      <trkpt lat="43.00425167" lon="-1.29723667">
        <ele>995.0</ele>
        <time>2019-07-31T08:57:30.133Z</time>
      </trkpt>
      <trkpt lat="43.00423833" lon="-1.29723333">
        <ele>995.0</ele>
        <time>2019-07-31T08:57:31.137Z</time>
      </trkpt>
      <trkpt lat="43.004225" lon="-1.29723167">
        <ele>994.0</ele>
        <time>2019-07-31T08:57:32.144Z</time>
      </trkpt>
      <trkpt lat="43.00421167" lon="-1.29723">
        <ele>994.0</ele>
        <time>2019-07-31T08:57:33.151Z</time>
      </trkpt>
      <trkpt lat="43.00419667" lon="-1.29721833">
        <ele>995.0</ele>
        <time>2019-07-31T08:57:34.155Z</time>
      </trkpt>
      <trkpt lat="43.00418167" lon="-1.297215">
        <ele>995.0</ele>
        <time>2019-07-31T08:57:35.160Z</time>
      </trkpt>
      <trkpt lat="43.00416833" lon="-1.29721167">
        <ele>995.0</ele>
        <time>2019-07-31T08:57:36.166Z</time>
      </trkpt>
      <trkpt lat="43.00415" lon="-1.29721333">
        <ele>995.0</ele>
        <time>2019-07-31T08:57:37.171Z</time>
      </trkpt>
      <trkpt lat="43.00413167" lon="-1.29721333">
        <ele>995.0</ele>
        <time>2019-07-31T08:57:38.177Z</time>
      </trkpt>
      <trkpt lat="43.00411833" lon="-1.29721">
        <ele>995.0</ele>
        <time>2019-07-31T08:57:39.184Z</time>
      </trkpt>
      <trkpt lat="43.00410667" lon="-1.29720667">
        <ele>995.0</ele>
        <time>2019-07-31T08:57:40.064Z</time>
      </trkpt>
      <trkpt lat="43.004095" lon="-1.29720333">
        <ele>995.0</ele>
        <time>2019-07-31T08:57:41.071Z</time>
      </trkpt>
      <trkpt lat="43.00408333" lon="-1.29719667">
        <ele>995.0</ele>
        <time>2019-07-31T08:57:42.076Z</time>
      </trkpt>
      <trkpt lat="43.00407167" lon="-1.29719667">
        <ele>995.0</ele>
        <time>2019-07-31T08:57:43.081Z</time>
      </trkpt>
      <trkpt lat="43.00405667" lon="-1.29719167">
        <ele>996.0</ele>
        <time>2019-07-31T08:57:44.086Z</time>
      </trkpt>
      <trkpt lat="43.00404167" lon="-1.29719333">
        <ele>996.0</ele>
        <time>2019-07-31T08:57:45.091Z</time>
      </trkpt>
      <trkpt lat="43.00402667" lon="-1.29719667">
        <ele>997.0</ele>
        <time>2019-07-31T08:57:46.097Z</time>
      </trkpt>
      <trkpt lat="43.00400833" lon="-1.2972">
        <ele>997.0</ele>
        <time>2019-07-31T08:57:47.102Z</time>
      </trkpt>
      <trkpt lat="43.00398833" lon="-1.29720167">
        <ele>996.0</ele>
        <time>2019-07-31T08:57:48.109Z</time>
      </trkpt>
      <trkpt lat="43.00397" lon="-1.2972">
        <ele>996.0</ele>
        <time>2019-07-31T08:57:49.114Z</time>
      </trkpt>
      <trkpt lat="43.00395333" lon="-1.297195">
        <ele>995.0</ele>
        <time>2019-07-31T08:57:50.119Z</time>
      </trkpt>
      <trkpt lat="43.003935" lon="-1.29718833">
        <ele>994.0</ele>
        <time>2019-07-31T08:57:51.124Z</time>
      </trkpt>
      <trkpt lat="43.00391833" lon="-1.29719">
        <ele>993.0</ele>
        <time>2019-07-31T08:57:52.129Z</time>
      </trkpt>
      <trkpt lat="43.00390333" lon="-1.29719167">
        <ele>993.0</ele>
        <time>2019-07-31T08:57:53.135Z</time>
      </trkpt>
      <trkpt lat="43.00388333" lon="-1.297185">
        <ele>994.0</ele>
        <time>2019-07-31T08:57:54.139Z</time>
      </trkpt>
      <trkpt lat="43.00386667" lon="-1.29717833">
        <ele>994.0</ele>
        <time>2019-07-31T08:57:55.144Z</time>
      </trkpt>
      <trkpt lat="43.00384333" lon="-1.29717">
        <ele>995.0</ele>
        <time>2019-07-31T08:57:56.149Z</time>
      </trkpt>
      <trkpt lat="43.00382667" lon="-1.29716167">
        <ele>996.0</ele>
        <time>2019-07-31T08:57:57.154Z</time>
      </trkpt>
      <trkpt lat="43.00381" lon="-1.297165">
        <ele>997.0</ele>
        <time>2019-07-31T08:57:58.160Z</time>
      </trkpt>
      <trkpt lat="43.003795" lon="-1.297165">
        <ele>998.0</ele>
        <time>2019-07-31T08:57:59.166Z</time>
      </trkpt>
      <trkpt lat="43.00377833" lon="-1.29716167">
        <ele>1000.0</ele>
        <time>2019-07-31T08:58:00.171Z</time>
      </trkpt>
      <trkpt lat="43.00376" lon="-1.29716">
        <ele>1001.0</ele>
        <time>2019-07-31T08:58:01.175Z</time>
      </trkpt>
      <trkpt lat="43.00373833" lon="-1.29716167">
        <ele>1001.0</ele>
        <time>2019-07-31T08:58:02.180Z</time>
      </trkpt>
      <trkpt lat="43.00371667" lon="-1.29716667">
        <ele>1002.0</ele>
        <time>2019-07-31T08:58:03.186Z</time>
      </trkpt>
      <trkpt lat="43.00369333" lon="-1.297175">
        <ele>1003.0</ele>
        <time>2019-07-31T08:58:04.066Z</time>
      </trkpt>
      <trkpt lat="43.00367333" lon="-1.29717167">
        <ele>1003.0</ele>
        <time>2019-07-31T08:58:05.069Z</time>
      </trkpt>
      <trkpt lat="43.00365667" lon="-1.29716667">
        <ele>1003.0</ele>
        <time>2019-07-31T08:58:06.073Z</time>
      </trkpt>
      <trkpt lat="43.00363667" lon="-1.29717">
        <ele>1003.0</ele>
        <time>2019-07-31T08:58:07.079Z</time>
      </trkpt>
      <trkpt lat="43.003615" lon="-1.29717333">
        <ele>1003.0</ele>
        <time>2019-07-31T08:58:08.084Z</time>
      </trkpt>
      <trkpt lat="43.0036" lon="-1.297185">
        <ele>1002.0</ele>
        <time>2019-07-31T08:58:09.090Z</time>
      </trkpt>
      <trkpt lat="43.003585" lon="-1.29719">
        <ele>1002.0</ele>
        <time>2019-07-31T08:58:10.097Z</time>
      </trkpt>
      <trkpt lat="43.00357167" lon="-1.297195">
        <ele>1002.0</ele>
        <time>2019-07-31T08:58:11.103Z</time>
      </trkpt>
      <trkpt lat="43.00355333" lon="-1.29720333">
        <ele>1001.0</ele>
        <time>2019-07-31T08:58:12.109Z</time>
      </trkpt>
      <trkpt lat="43.003535" lon="-1.29721333">
        <ele>1001.0</ele>
        <time>2019-07-31T08:58:13.114Z</time>
      </trkpt>
      <trkpt lat="43.00351833" lon="-1.29722167">
        <ele>1001.0</ele>
        <time>2019-07-31T08:58:14.119Z</time>
      </trkpt>
      <trkpt lat="43.0035" lon="-1.29723167">
        <ele>1001.0</ele>
        <time>2019-07-31T08:58:15.124Z</time>
      </trkpt>
      <trkpt lat="43.00348167" lon="-1.29724">
        <ele>1000.0</ele>
        <time>2019-07-31T08:58:16.128Z</time>
      </trkpt>
      <trkpt lat="43.00346667" lon="-1.29725333">
        <ele>1000.0</ele>
        <time>2019-07-31T08:58:17.134Z</time>
      </trkpt>
      <trkpt lat="43.00344833" lon="-1.29726167">
        <ele>1000.0</ele>
        <time>2019-07-31T08:58:18.140Z</time>
      </trkpt>
      <trkpt lat="43.00343" lon="-1.29726667">
        <ele>999.0</ele>
        <time>2019-07-31T08:58:19.146Z</time>
      </trkpt>
      <trkpt lat="43.003415" lon="-1.29727667">
        <ele>998.0</ele>
        <time>2019-07-31T08:58:20.152Z</time>
      </trkpt>
      <trkpt lat="43.00339667" lon="-1.29728333">
        <ele>998.0</ele>
        <time>2019-07-31T08:58:21.157Z</time>
      </trkpt>
      <trkpt lat="43.003385" lon="-1.29729667">
        <ele>997.0</ele>
        <time>2019-07-31T08:58:22.162Z</time>
      </trkpt>
      <trkpt lat="43.00337167" lon="-1.29730667">
        <ele>997.0</ele>
        <time>2019-07-31T08:58:23.166Z</time>
      </trkpt>
      <trkpt lat="43.00335167" lon="-1.29731333">
        <ele>996.0</ele>
        <time>2019-07-31T08:58:24.171Z</time>
      </trkpt>
      <trkpt lat="43.00333" lon="-1.29731">
        <ele>997.0</ele>
        <time>2019-07-31T08:58:25.175Z</time>
      </trkpt>
      <trkpt lat="43.00330833" lon="-1.29730833">
        <ele>996.0</ele>
        <time>2019-07-31T08:58:26.178Z</time>
      </trkpt>
      <trkpt lat="43.00328833" lon="-1.29731167">
        <ele>996.0</ele>
        <time>2019-07-31T08:58:27.181Z</time>
      </trkpt>
      <trkpt lat="43.00327333" lon="-1.29732">
        <ele>997.0</ele>
        <time>2019-07-31T08:58:28.185Z</time>
      </trkpt>
      <trkpt lat="43.00325667" lon="-1.29732667">
        <ele>998.0</ele>
        <time>2019-07-31T08:58:29.064Z</time>
      </trkpt>
      <trkpt lat="43.00324" lon="-1.297335">
        <ele>998.0</ele>
        <time>2019-07-31T08:58:30.071Z</time>
      </trkpt>
      <trkpt lat="43.00322333" lon="-1.29734167">
        <ele>998.0</ele>
        <time>2019-07-31T08:58:31.076Z</time>
      </trkpt>
      <trkpt lat="43.00321167" lon="-1.29735">
        <ele>998.0</ele>
        <time>2019-07-31T08:58:32.083Z</time>
      </trkpt>
      <trkpt lat="43.0032" lon="-1.297365">
        <ele>998.0</ele>
        <time>2019-07-31T08:58:33.087Z</time>
      </trkpt>
      <trkpt lat="43.00318667" lon="-1.297375">
        <ele>998.0</ele>
        <time>2019-07-31T08:58:34.092Z</time>
      </trkpt>
      <trkpt lat="43.00317167" lon="-1.29738667">
        <ele>999.0</ele>
        <time>2019-07-31T08:58:35.096Z</time>
      </trkpt>
      <trkpt lat="43.003155" lon="-1.29739833">
        <ele>999.0</ele>
        <time>2019-07-31T08:58:36.100Z</time>
      </trkpt>
      <trkpt lat="43.00314167" lon="-1.29740833">
        <ele>1000.0</ele>
        <time>2019-07-31T08:58:37.106Z</time>
      </trkpt>
      <trkpt lat="43.00312833" lon="-1.297415">
        <ele>1000.0</ele>
        <time>2019-07-31T08:58:38.109Z</time>
      </trkpt>
      <trkpt lat="43.003115" lon="-1.297425">
        <ele>1000.0</ele>
        <time>2019-07-31T08:58:39.116Z</time>
      </trkpt>
      <trkpt lat="43.0031" lon="-1.29743333">
        <ele>1000.0</ele>
        <time>2019-07-31T08:58:40.121Z</time>
      </trkpt>
      <trkpt lat="43.00308667" lon="-1.29744333">
        <ele>1000.0</ele>
        <time>2019-07-31T08:58:41.125Z</time>
      </trkpt>
      <trkpt lat="43.003075" lon="-1.29745167">
        <ele>1000.0</ele>
        <time>2019-07-31T08:58:42.130Z</time>
      </trkpt>
      <trkpt lat="43.00306167" lon="-1.29746167">
        <ele>1000.0</ele>
        <time>2019-07-31T08:58:43.135Z</time>
      </trkpt>
      <trkpt lat="43.00304833" lon="-1.29746833">
        <ele>1000.0</ele>
        <time>2019-07-31T08:58:44.140Z</time>
      </trkpt>
      <trkpt lat="43.00303333" lon="-1.297475">
        <ele>1000.0</ele>
        <time>2019-07-31T08:58:45.146Z</time>
      </trkpt>
      <trkpt lat="43.00302" lon="-1.29748167">
        <ele>1000.0</ele>
        <time>2019-07-31T08:58:46.150Z</time>
      </trkpt>
      <trkpt lat="43.00300167" lon="-1.29748667">
        <ele>1000.0</ele>
        <time>2019-07-31T08:58:47.157Z</time>
      </trkpt>
      <trkpt lat="43.00298667" lon="-1.29749167">
        <ele>1000.0</ele>
        <time>2019-07-31T08:58:48.161Z</time>
      </trkpt>
      <trkpt lat="43.00297333" lon="-1.29749667">
        <ele>1000.0</ele>
        <time>2019-07-31T08:58:49.166Z</time>
      </trkpt>
      <trkpt lat="43.00295833" lon="-1.297505">
        <ele>999.0</ele>
        <time>2019-07-31T08:58:50.169Z</time>
      </trkpt>
      <trkpt lat="43.00294333" lon="-1.29751333">
        <ele>999.0</ele>
        <time>2019-07-31T08:58:51.173Z</time>
      </trkpt>
      <trkpt lat="43.00292833" lon="-1.29752333">
        <ele>999.0</ele>
        <time>2019-07-31T08:58:52.178Z</time>
      </trkpt>
      <trkpt lat="43.002915" lon="-1.29753333">
        <ele>1000.0</ele>
        <time>2019-07-31T08:58:53.184Z</time>
      </trkpt>
      <trkpt lat="43.00290167" lon="-1.29754">
        <ele>1000.0</ele>
        <time>2019-07-31T08:58:54.061Z</time>
      </trkpt>
      <trkpt lat="43.002885" lon="-1.297545">
        <ele>1000.0</ele>
        <time>2019-07-31T08:58:55.066Z</time>
      </trkpt>
      <trkpt lat="43.00287" lon="-1.29755333">
        <ele>1000.0</ele>
        <time>2019-07-31T08:58:56.071Z</time>
      </trkpt>
      <trkpt lat="43.002855" lon="-1.29756167">
        <ele>1001.0</ele>
        <time>2019-07-31T08:58:57.077Z</time>
      </trkpt>
      <trkpt lat="43.00284167" lon="-1.29757333">
        <ele>1001.0</ele>
        <time>2019-07-31T08:58:58.082Z</time>
      </trkpt>
      <trkpt lat="43.00283" lon="-1.29758333">
        <ele>1001.0</ele>
        <time>2019-07-31T08:58:59.087Z</time>
      </trkpt>
      <trkpt lat="43.00281667" lon="-1.29758833">
        <ele>1002.0</ele>
        <time>2019-07-31T08:59:00.091Z</time>
      </trkpt>
      <trkpt lat="43.00280667" lon="-1.29759833">
        <ele>1003.0</ele>
        <time>2019-07-31T08:59:01.099Z</time>
      </trkpt>
      <trkpt lat="43.00279333" lon="-1.297605">
        <ele>1003.0</ele>
        <time>2019-07-31T08:59:02.106Z</time>
      </trkpt>
      <trkpt lat="43.00278167" lon="-1.29760667">
        <ele>1003.0</ele>
        <time>2019-07-31T08:59:03.112Z</time>
      </trkpt>
      <trkpt lat="43.00277167" lon="-1.29761">
        <ele>1003.0</ele>
        <time>2019-07-31T08:59:04.119Z</time>
      </trkpt>
      <trkpt lat="43.00276" lon="-1.29762">
        <ele>1003.0</ele>
        <time>2019-07-31T08:59:05.124Z</time>
      </trkpt>
      <trkpt lat="43.00275" lon="-1.29762333">
        <ele>1003.0</ele>
        <time>2019-07-31T08:59:06.129Z</time>
      </trkpt>
      <trkpt lat="43.00273667" lon="-1.29762667">
        <ele>1003.0</ele>
        <time>2019-07-31T08:59:07.135Z</time>
      </trkpt>
      <trkpt lat="43.00272333" lon="-1.29762833">
        <ele>1003.0</ele>
        <time>2019-07-31T08:59:08.141Z</time>
      </trkpt>
      <trkpt lat="43.00271" lon="-1.29762833">
        <ele>1003.0</ele>
        <time>2019-07-31T08:59:09.144Z</time>
      </trkpt>
      <trkpt lat="43.00269833" lon="-1.29762833">
        <ele>1004.0</ele>
        <time>2019-07-31T08:59:10.147Z</time>
      </trkpt>
      <trkpt lat="43.00268667" lon="-1.29763">
        <ele>1005.0</ele>
        <time>2019-07-31T08:59:11.150Z</time>
      </trkpt>
      <trkpt lat="43.002675" lon="-1.29763333">
        <ele>1006.0</ele>
        <time>2019-07-31T08:59:12.157Z</time>
      </trkpt>
      <trkpt lat="43.00266667" lon="-1.29763167">
        <ele>1007.0</ele>
        <time>2019-07-31T08:59:13.163Z</time>
      </trkpt>
      <trkpt lat="43.002655" lon="-1.29762667">
        <ele>1008.0</ele>
        <time>2019-07-31T08:59:14.169Z</time>
      </trkpt>
      <trkpt lat="43.00264" lon="-1.29762333">
        <ele>1008.0</ele>
        <time>2019-07-31T08:59:15.177Z</time>
      </trkpt>
      <trkpt lat="43.00262667" lon="-1.29762">
        <ele>1009.0</ele>
        <time>2019-07-31T08:59:16.182Z</time>
      </trkpt>
      <trkpt lat="43.00261167" lon="-1.29761833">
        <ele>1010.0</ele>
        <time>2019-07-31T08:59:17.061Z</time>
      </trkpt>
      <trkpt lat="43.00259833" lon="-1.29761333">
        <ele>1010.0</ele>
        <time>2019-07-31T08:59:18.067Z</time>
      </trkpt>
      <trkpt lat="43.00258833" lon="-1.29761">
        <ele>1011.0</ele>
        <time>2019-07-31T08:59:19.072Z</time>
      </trkpt>
      <trkpt lat="43.00257667" lon="-1.29760833">
        <ele>1011.0</ele>
        <time>2019-07-31T08:59:20.075Z</time>
      </trkpt>
      <trkpt lat="43.00256333" lon="-1.29760667">
        <ele>1012.0</ele>
        <time>2019-07-31T08:59:21.078Z</time>
      </trkpt>
      <trkpt lat="43.00255333" lon="-1.29761">
        <ele>1012.0</ele>
        <time>2019-07-31T08:59:22.083Z</time>
      </trkpt>
      <trkpt lat="43.00254333" lon="-1.29761167">
        <ele>1013.0</ele>
        <time>2019-07-31T08:59:23.088Z</time>
      </trkpt>
      <trkpt lat="43.00253167" lon="-1.29761333">
        <ele>1014.0</ele>
        <time>2019-07-31T08:59:24.091Z</time>
      </trkpt>
      <trkpt lat="43.00252167" lon="-1.297615">
        <ele>1014.0</ele>
        <time>2019-07-31T08:59:25.095Z</time>
      </trkpt>
      <trkpt lat="43.00251" lon="-1.29761833">
        <ele>1014.0</ele>
        <time>2019-07-31T08:59:26.102Z</time>
      </trkpt>
      <trkpt lat="43.0025" lon="-1.29762">
        <ele>1015.0</ele>
        <time>2019-07-31T08:59:27.106Z</time>
      </trkpt>
      <trkpt lat="43.00249" lon="-1.29762">
        <ele>1015.0</ele>
        <time>2019-07-31T08:59:28.111Z</time>
      </trkpt>
      <trkpt lat="43.00247833" lon="-1.29762">
        <ele>1016.0</ele>
        <time>2019-07-31T08:59:29.117Z</time>
      </trkpt>
      <trkpt lat="43.002465" lon="-1.297615">
        <ele>1016.0</ele>
        <time>2019-07-31T08:59:30.122Z</time>
      </trkpt>
      <trkpt lat="43.002455" lon="-1.29760667">
        <ele>1017.0</ele>
        <time>2019-07-31T08:59:31.128Z</time>
      </trkpt>
      <trkpt lat="43.002445" lon="-1.297605">
        <ele>1018.0</ele>
        <time>2019-07-31T08:59:32.134Z</time>
      </trkpt>
      <trkpt lat="43.00243333" lon="-1.297605">
        <ele>1019.0</ele>
        <time>2019-07-31T08:59:33.139Z</time>
      </trkpt>
      <trkpt lat="43.00241833" lon="-1.29760167">
        <ele>1020.0</ele>
        <time>2019-07-31T08:59:34.144Z</time>
      </trkpt>
      <trkpt lat="43.00240333" lon="-1.29759667">
        <ele>1021.0</ele>
        <time>2019-07-31T08:59:35.150Z</time>
      </trkpt>
      <trkpt lat="43.00239" lon="-1.29759167">
        <ele>1021.0</ele>
        <time>2019-07-31T08:59:36.154Z</time>
      </trkpt>
      <trkpt lat="43.00237667" lon="-1.297585">
        <ele>1022.0</ele>
        <time>2019-07-31T08:59:37.160Z</time>
      </trkpt>
      <trkpt lat="43.00236167" lon="-1.29757833">
        <ele>1023.0</ele>
        <time>2019-07-31T08:59:38.165Z</time>
      </trkpt>
      <trkpt lat="43.00235" lon="-1.29757667">
        <ele>1023.0</ele>
        <time>2019-07-31T08:59:39.169Z</time>
      </trkpt>
      <trkpt lat="43.00233833" lon="-1.29757667">
        <ele>1023.0</ele>
        <time>2019-07-31T08:59:40.175Z</time>
      </trkpt>
      <trkpt lat="43.00232667" lon="-1.297575">
        <ele>1023.0</ele>
        <time>2019-07-31T08:59:41.180Z</time>
      </trkpt>
      <trkpt lat="43.00231167" lon="-1.29757">
        <ele>1023.0</ele>
        <time>2019-07-31T08:59:42.061Z</time>
      </trkpt>
      <trkpt lat="43.00229667" lon="-1.297565">
        <ele>1023.0</ele>
        <time>2019-07-31T08:59:43.068Z</time>
      </trkpt>
      <trkpt lat="43.00228333" lon="-1.29756167">
        <ele>1024.0</ele>
        <time>2019-07-31T08:59:44.075Z</time>
      </trkpt>
      <trkpt lat="43.00227" lon="-1.29756">
        <ele>1024.0</ele>
        <time>2019-07-31T08:59:45.082Z</time>
      </trkpt>
      <trkpt lat="43.00225833" lon="-1.29755833">
        <ele>1024.0</ele>
        <time>2019-07-31T08:59:46.087Z</time>
      </trkpt>
      <trkpt lat="43.00224833" lon="-1.29755333">
        <ele>1025.0</ele>
        <time>2019-07-31T08:59:47.091Z</time>
      </trkpt>
      <trkpt lat="43.00223667" lon="-1.29754667">
        <ele>1025.0</ele>
        <time>2019-07-31T08:59:48.093Z</time>
      </trkpt>
      <trkpt lat="43.00222667" lon="-1.29753833">
        <ele>1026.0</ele>
        <time>2019-07-31T08:59:49.098Z</time>
      </trkpt>
      <trkpt lat="43.00221333" lon="-1.29752833">
        <ele>1027.0</ele>
        <time>2019-07-31T08:59:50.103Z</time>
      </trkpt>
      <trkpt lat="43.00220333" lon="-1.29752167">
        <ele>1027.0</ele>
        <time>2019-07-31T08:59:51.108Z</time>
      </trkpt>
      <trkpt lat="43.00219" lon="-1.29751333">
        <ele>1028.0</ele>
        <time>2019-07-31T08:59:52.112Z</time>
      </trkpt>
      <trkpt lat="43.00217333" lon="-1.297505">
        <ele>1028.0</ele>
        <time>2019-07-31T08:59:53.118Z</time>
      </trkpt>
      <trkpt lat="43.00215833" lon="-1.29749333">
        <ele>1029.0</ele>
        <time>2019-07-31T08:59:54.124Z</time>
      </trkpt>
      <trkpt lat="43.00214333" lon="-1.29748667">
        <ele>1029.0</ele>
        <time>2019-07-31T08:59:55.128Z</time>
      </trkpt>
      <trkpt lat="43.00213" lon="-1.29748333">
        <ele>1028.0</ele>
        <time>2019-07-31T08:59:56.133Z</time>
      </trkpt>
      <trkpt lat="43.00211667" lon="-1.297475">
        <ele>1028.0</ele>
        <time>2019-07-31T08:59:57.140Z</time>
      </trkpt>
      <trkpt lat="43.00210667" lon="-1.29746833">
        <ele>1029.0</ele>
        <time>2019-07-31T08:59:58.145Z</time>
      </trkpt>
      <trkpt lat="43.002095" lon="-1.29745833">
        <ele>1029.0</ele>
        <time>2019-07-31T08:59:59.150Z</time>
      </trkpt>
      <trkpt lat="43.00208167" lon="-1.29745">
        <ele>1029.0</ele>
        <time>2019-07-31T09:00:00.155Z</time>
      </trkpt>
      <trkpt lat="43.00206833" lon="-1.29744333">
        <ele>1030.0</ele>
        <time>2019-07-31T09:00:01.159Z</time>
      </trkpt>
      <trkpt lat="43.00205667" lon="-1.29743167">
        <ele>1029.0</ele>
        <time>2019-07-31T09:00:02.165Z</time>
      </trkpt>
      <trkpt lat="43.002045" lon="-1.29742333">
        <ele>1030.0</ele>
        <time>2019-07-31T09:00:03.168Z</time>
      </trkpt>
      <trkpt lat="43.00203667" lon="-1.297415">
        <ele>1030.0</ele>
        <time>2019-07-31T09:00:04.174Z</time>
      </trkpt>
      <trkpt lat="43.002025" lon="-1.297405">
        <ele>1029.0</ele>
        <time>2019-07-31T09:00:05.177Z</time>
      </trkpt>
      <trkpt lat="43.00200833" lon="-1.29739667">
        <ele>1029.0</ele>
        <time>2019-07-31T09:00:06.180Z</time>
      </trkpt>
      <trkpt lat="43.001995" lon="-1.29739">
        <ele>1029.0</ele>
        <time>2019-07-31T09:00:07.186Z</time>
      </trkpt>
      <trkpt lat="43.00198" lon="-1.29737833">
        <ele>1029.0</ele>
        <time>2019-07-31T09:00:08.065Z</time>
      </trkpt>
      <trkpt lat="43.001965" lon="-1.29737">
        <ele>1028.0</ele>
        <time>2019-07-31T09:00:09.069Z</time>
      </trkpt>
      <trkpt lat="43.00195167" lon="-1.297365">
        <ele>1028.0</ele>
        <time>2019-07-31T09:00:10.075Z</time>
      </trkpt>
      <trkpt lat="43.00193833" lon="-1.29735833">
        <ele>1028.0</ele>
        <time>2019-07-31T09:00:11.080Z</time>
      </trkpt>
      <trkpt lat="43.00192167" lon="-1.29735667">
        <ele>1027.0</ele>
        <time>2019-07-31T09:00:12.083Z</time>
      </trkpt>
      <trkpt lat="43.00190667" lon="-1.297355">
        <ele>1027.0</ele>
        <time>2019-07-31T09:00:13.088Z</time>
      </trkpt>
      <trkpt lat="43.00189333" lon="-1.297355">
        <ele>1026.0</ele>
        <time>2019-07-31T09:00:14.093Z</time>
      </trkpt>
      <trkpt lat="43.00187833" lon="-1.297355">
        <ele>1026.0</ele>
        <time>2019-07-31T09:00:15.099Z</time>
      </trkpt>
      <trkpt lat="43.001865" lon="-1.29735333">
        <ele>1025.0</ele>
        <time>2019-07-31T09:00:16.105Z</time>
      </trkpt>
      <trkpt lat="43.00185" lon="-1.29734667">
        <ele>1024.0</ele>
        <time>2019-07-31T09:00:17.112Z</time>
      </trkpt>
      <trkpt lat="43.001835" lon="-1.29734">
        <ele>1024.0</ele>
        <time>2019-07-31T09:00:18.118Z</time>
      </trkpt>
      <trkpt lat="43.00182333" lon="-1.29733167">
        <ele>1024.0</ele>
        <time>2019-07-31T09:00:19.122Z</time>
      </trkpt>
      <trkpt lat="43.00181" lon="-1.29732">
        <ele>1024.0</ele>
        <time>2019-07-31T09:00:20.126Z</time>
      </trkpt>
      <trkpt lat="43.00179833" lon="-1.29731167">
        <ele>1024.0</ele>
        <time>2019-07-31T09:00:21.132Z</time>
      </trkpt>
      <trkpt lat="43.001785" lon="-1.29730333">
        <ele>1024.0</ele>
        <time>2019-07-31T09:00:22.135Z</time>
      </trkpt>
      <trkpt lat="43.00177" lon="-1.29729167">
        <ele>1023.0</ele>
        <time>2019-07-31T09:00:23.140Z</time>
      </trkpt>
      <trkpt lat="43.00175667" lon="-1.297285">
        <ele>1024.0</ele>
        <time>2019-07-31T09:00:24.145Z</time>
      </trkpt>
      <trkpt lat="43.00174333" lon="-1.29727333">
        <ele>1024.0</ele>
        <time>2019-07-31T09:00:25.151Z</time>
      </trkpt>
      <trkpt lat="43.00173" lon="-1.29726">
        <ele>1024.0</ele>
        <time>2019-07-31T09:00:26.154Z</time>
      </trkpt>
      <trkpt lat="43.00171833" lon="-1.29724833">
        <ele>1025.0</ele>
        <time>2019-07-31T09:00:27.160Z</time>
      </trkpt>
      <trkpt lat="43.001705" lon="-1.297235">
        <ele>1026.0</ele>
        <time>2019-07-31T09:00:28.166Z</time>
      </trkpt>
      <trkpt lat="43.00168833" lon="-1.29722333">
        <ele>1026.0</ele>
        <time>2019-07-31T09:00:29.172Z</time>
      </trkpt>
      <trkpt lat="43.00167333" lon="-1.29720667">
        <ele>1027.0</ele>
        <time>2019-07-31T09:00:30.177Z</time>
      </trkpt>
      <trkpt lat="43.00166333" lon="-1.29718833">
        <ele>1028.0</ele>
        <time>2019-07-31T09:00:31.185Z</time>
      </trkpt>
      <trkpt lat="43.00164833" lon="-1.297175">
        <ele>1028.0</ele>
        <time>2019-07-31T09:00:32.066Z</time>
      </trkpt>
      <trkpt lat="43.00162667" lon="-1.29716167">
        <ele>1028.0</ele>
        <time>2019-07-31T09:00:33.072Z</time>
      </trkpt>
      <trkpt lat="43.00160833" lon="-1.29715667">
        <ele>1028.0</ele>
        <time>2019-07-31T09:00:34.077Z</time>
      </trkpt>
      <trkpt lat="43.00159333" lon="-1.29714833">
        <ele>1027.0</ele>
        <time>2019-07-31T09:00:35.082Z</time>
      </trkpt>
      <trkpt lat="43.001585" lon="-1.29713667">
        <ele>1027.0</ele>
        <time>2019-07-31T09:00:36.086Z</time>
      </trkpt>
      <trkpt lat="43.00157833" lon="-1.29712833">
        <ele>1027.0</ele>
        <time>2019-07-31T09:00:37.093Z</time>
      </trkpt>
      <trkpt lat="43.00156833" lon="-1.29712">
        <ele>1027.0</ele>
        <time>2019-07-31T09:00:38.100Z</time>
      </trkpt>
      <trkpt lat="43.001555" lon="-1.29711">
        <ele>1027.0</ele>
        <time>2019-07-31T09:00:39.106Z</time>
      </trkpt>
      <trkpt lat="43.00154333" lon="-1.29709833">
        <ele>1027.0</ele>
        <time>2019-07-31T09:00:40.110Z</time>
      </trkpt>
      <trkpt lat="43.00153" lon="-1.29708833">
        <ele>1028.0</ele>
        <time>2019-07-31T09:00:41.116Z</time>
      </trkpt>
      <trkpt lat="43.00151667" lon="-1.29707333">
        <ele>1028.0</ele>
        <time>2019-07-31T09:00:42.122Z</time>
      </trkpt>
      <trkpt lat="43.00150667" lon="-1.29706333">
        <ele>1028.0</ele>
        <time>2019-07-31T09:00:43.125Z</time>
      </trkpt>
      <trkpt lat="43.00149333" lon="-1.29705167">
        <ele>1028.0</ele>
        <time>2019-07-31T09:00:44.129Z</time>
      </trkpt>
      <trkpt lat="43.00148" lon="-1.29704333">
        <ele>1028.0</ele>
        <time>2019-07-31T09:00:45.133Z</time>
      </trkpt>
      <trkpt lat="43.00146833" lon="-1.29703333">
        <ele>1028.0</ele>
        <time>2019-07-31T09:00:46.140Z</time>
      </trkpt>
      <trkpt lat="43.001455" lon="-1.29702333">
        <ele>1029.0</ele>
        <time>2019-07-31T09:00:47.145Z</time>
      </trkpt>
      <trkpt lat="43.00144333" lon="-1.29701">
        <ele>1029.0</ele>
        <time>2019-07-31T09:00:48.150Z</time>
      </trkpt>
      <trkpt lat="43.00143167" lon="-1.297">
        <ele>1029.0</ele>
        <time>2019-07-31T09:00:49.156Z</time>
      </trkpt>
      <trkpt lat="43.00142" lon="-1.29698667">
        <ele>1029.0</ele>
        <time>2019-07-31T09:00:50.161Z</time>
      </trkpt>
      <trkpt lat="43.00141" lon="-1.296975">
        <ele>1029.0</ele>
        <time>2019-07-31T09:00:51.166Z</time>
      </trkpt>
      <trkpt lat="43.0014" lon="-1.296965">
        <ele>1029.0</ele>
        <time>2019-07-31T09:00:52.168Z</time>
      </trkpt>
      <trkpt lat="43.00138333" lon="-1.29695167">
        <ele>1029.0</ele>
        <time>2019-07-31T09:00:53.173Z</time>
      </trkpt>
      <trkpt lat="43.00136667" lon="-1.29694167">
        <ele>1028.0</ele>
        <time>2019-07-31T09:00:54.177Z</time>
      </trkpt>
      <trkpt lat="43.00135333" lon="-1.29692833">
        <ele>1029.0</ele>
        <time>2019-07-31T09:00:55.182Z</time>
      </trkpt>
      <trkpt lat="43.00133667" lon="-1.296915">
        <ele>1029.0</ele>
        <time>2019-07-31T09:00:56.063Z</time>
      </trkpt>
      <trkpt lat="43.00132333" lon="-1.29690167">
        <ele>1029.0</ele>
        <time>2019-07-31T09:00:57.067Z</time>
      </trkpt>
      <trkpt lat="43.00130833" lon="-1.29688833">
        <ele>1029.0</ele>
        <time>2019-07-31T09:00:58.073Z</time>
      </trkpt>
      <trkpt lat="43.00129667" lon="-1.29687333">
        <ele>1029.0</ele>
        <time>2019-07-31T09:00:59.080Z</time>
      </trkpt>
      <trkpt lat="43.00128333" lon="-1.29685833">
        <ele>1030.0</ele>
        <time>2019-07-31T09:01:00.083Z</time>
      </trkpt>
      <trkpt lat="43.00127167" lon="-1.29684833">
        <ele>1030.0</ele>
        <time>2019-07-31T09:01:01.086Z</time>
      </trkpt>
      <trkpt lat="43.00126167" lon="-1.29684167">
        <ele>1030.0</ele>
        <time>2019-07-31T09:01:02.092Z</time>
      </trkpt>
      <trkpt lat="43.001255" lon="-1.29683167">
        <ele>1031.0</ele>
        <time>2019-07-31T09:01:03.098Z</time>
      </trkpt>
      <trkpt lat="43.00125" lon="-1.29682333">
        <ele>1031.0</ele>
        <time>2019-07-31T09:01:04.102Z</time>
      </trkpt>
      <trkpt lat="43.00125167" lon="-1.296825">
        <ele>1031.0</ele>
        <time>2019-07-31T09:01:05.108Z</time>
      </trkpt>
      <trkpt lat="43.00125667" lon="-1.29682667">
        <ele>1031.0</ele>
        <time>2019-07-31T09:01:06.115Z</time>
      </trkpt>
      <trkpt lat="43.00126" lon="-1.296825">
        <ele>1031.0</ele>
        <time>2019-07-31T09:01:07.122Z</time>
      </trkpt>
      <trkpt lat="43.00125667" lon="-1.29682333">
        <ele>1030.0</ele>
        <time>2019-07-31T09:01:08.125Z</time>
      </trkpt>
      <trkpt lat="43.00124667" lon="-1.296825">
        <ele>1029.0</ele>
        <time>2019-07-31T09:01:09.133Z</time>
      </trkpt>
      <trkpt lat="43.00124167" lon="-1.29683167">
        <ele>1028.0</ele>
        <time>2019-07-31T09:01:10.139Z</time>
      </trkpt>
      <trkpt lat="43.00123833" lon="-1.29683833">
        <ele>1029.0</ele>
        <time>2019-07-31T09:01:11.144Z</time>
      </trkpt>
      <trkpt lat="43.00122833" lon="-1.29684333">
        <ele>1029.0</ele>
        <time>2019-07-31T09:01:12.150Z</time>
      </trkpt>
      <trkpt lat="43.00122333" lon="-1.29684">
        <ele>1028.0</ele>
        <time>2019-07-31T09:01:13.157Z</time>
      </trkpt>
      <trkpt lat="43.00122" lon="-1.29683333">
        <ele>1028.0</ele>
        <time>2019-07-31T09:01:14.163Z</time>
      </trkpt>
      <trkpt lat="43.00122" lon="-1.29682333">
        <ele>1028.0</ele>
        <time>2019-07-31T09:01:15.167Z</time>
      </trkpt>
      <trkpt lat="43.00122" lon="-1.29681333">
        <ele>1027.0</ele>
        <time>2019-07-31T09:01:16.172Z</time>
      </trkpt>
      <trkpt lat="43.00122" lon="-1.296805">
        <ele>1026.0</ele>
        <time>2019-07-31T09:01:17.177Z</time>
      </trkpt>
      <trkpt lat="43.00122" lon="-1.29679333">
        <ele>1026.0</ele>
        <time>2019-07-31T09:01:18.182Z</time>
      </trkpt>
      <trkpt lat="43.00121833" lon="-1.29677833">
        <ele>1026.0</ele>
        <time>2019-07-31T09:01:19.061Z</time>
      </trkpt>
      <trkpt lat="43.001215" lon="-1.29676333">
        <ele>1026.0</ele>
        <time>2019-07-31T09:01:20.068Z</time>
      </trkpt>
      <trkpt lat="43.00121333" lon="-1.29674833">
        <ele>1026.0</ele>
        <time>2019-07-31T09:01:21.073Z</time>
      </trkpt>
      <trkpt lat="43.00121" lon="-1.29673333">
        <ele>1026.0</ele>
        <time>2019-07-31T09:01:22.080Z</time>
      </trkpt>
      <trkpt lat="43.00120833" lon="-1.296715">
        <ele>1026.0</ele>
        <time>2019-07-31T09:01:23.086Z</time>
      </trkpt>
      <trkpt lat="43.00121" lon="-1.29669667">
        <ele>1026.0</ele>
        <time>2019-07-31T09:01:24.090Z</time>
      </trkpt>
      <trkpt lat="43.00121" lon="-1.29667667">
        <ele>1026.0</ele>
        <time>2019-07-31T09:01:25.095Z</time>
      </trkpt>
      <trkpt lat="43.00121167" lon="-1.29665833">
        <ele>1026.0</ele>
        <time>2019-07-31T09:01:26.100Z</time>
      </trkpt>
      <trkpt lat="43.001215" lon="-1.29664167">
        <ele>1026.0</ele>
        <time>2019-07-31T09:01:27.107Z</time>
      </trkpt>
      <trkpt lat="43.00122" lon="-1.296625">
        <ele>1026.0</ele>
        <time>2019-07-31T09:01:28.113Z</time>
      </trkpt>
      <trkpt lat="43.00122" lon="-1.29661667">
        <ele>1025.0</ele>
        <time>2019-07-31T09:01:29.118Z</time>
      </trkpt>
      <trkpt lat="43.00121833" lon="-1.296615">
        <ele>1024.0</ele>
        <time>2019-07-31T09:01:30.122Z</time>
      </trkpt>
      <trkpt lat="43.001215" lon="-1.29661667">
        <ele>1023.0</ele>
        <time>2019-07-31T09:01:31.125Z</time>
      </trkpt>
      <trkpt lat="43.00121167" lon="-1.29662">
        <ele>1022.0</ele>
        <time>2019-07-31T09:01:32.132Z</time>
      </trkpt>
      <trkpt lat="43.00121333" lon="-1.29662">
        <ele>1021.0</ele>
        <time>2019-07-31T09:01:33.137Z</time>
      </trkpt>
      <trkpt lat="43.00121333" lon="-1.29662167">
        <ele>1020.0</ele>
        <time>2019-07-31T09:01:34.144Z</time>
      </trkpt>
      <trkpt lat="43.00121333" lon="-1.29662">
        <ele>1020.0</ele>
        <time>2019-07-31T09:01:35.150Z</time>
      </trkpt>
      <trkpt lat="43.00121333" lon="-1.29662">
        <ele>1019.0</ele>
        <time>2019-07-31T09:01:36.155Z</time>
      </trkpt>
      <trkpt lat="43.00121333" lon="-1.29662">
        <ele>1019.0</ele>
        <time>2019-07-31T09:01:37.161Z</time>
      </trkpt>
      <trkpt lat="43.001215" lon="-1.29662333">
        <ele>1019.0</ele>
        <time>2019-07-31T09:01:38.166Z</time>
      </trkpt>
      <trkpt lat="43.00122" lon="-1.29663167">
        <ele>1019.0</ele>
        <time>2019-07-31T09:01:39.171Z</time>
      </trkpt>
      <trkpt lat="43.00121833" lon="-1.29662833">
        <ele>1018.0</ele>
        <time>2019-07-31T09:01:40.176Z</time>
      </trkpt>
      <trkpt lat="43.00121833" lon="-1.29662833">
        <ele>1018.0</ele>
        <time>2019-07-31T09:01:41.182Z</time>
      </trkpt>
      <trkpt lat="43.00122167" lon="-1.296635">
        <ele>1018.0</ele>
        <time>2019-07-31T09:01:42.062Z</time>
      </trkpt>
      <trkpt lat="43.00122167" lon="-1.29663833">
        <ele>1018.0</ele>
        <time>2019-07-31T09:01:43.068Z</time>
      </trkpt>
      <trkpt lat="43.00121833" lon="-1.29663667">
        <ele>1017.0</ele>
        <time>2019-07-31T09:01:44.072Z</time>
      </trkpt>
      <trkpt lat="43.001215" lon="-1.29663333">
        <ele>1016.0</ele>
        <time>2019-07-31T09:01:45.078Z</time>
      </trkpt>
      <trkpt lat="43.00121167" lon="-1.29663167">
        <ele>1015.0</ele>
        <time>2019-07-31T09:01:46.083Z</time>
      </trkpt>
      <trkpt lat="43.00121" lon="-1.29662833">
        <ele>1014.0</ele>
        <time>2019-07-31T09:01:47.089Z</time>
      </trkpt>
      <trkpt lat="43.001205" lon="-1.29662333">
        <ele>1013.0</ele>
        <time>2019-07-31T09:01:48.095Z</time>
      </trkpt>
      <trkpt lat="43.00120167" lon="-1.29662">
        <ele>1013.0</ele>
        <time>2019-07-31T09:01:49.101Z</time>
      </trkpt>
      <trkpt lat="43.0012" lon="-1.29661833">
        <ele>1012.0</ele>
        <time>2019-07-31T09:01:50.107Z</time>
      </trkpt>
      <trkpt lat="43.00119667" lon="-1.29661333">
        <ele>1011.0</ele>
        <time>2019-07-31T09:01:51.114Z</time>
      </trkpt>
      <trkpt lat="43.001195" lon="-1.29661167">
        <ele>1010.0</ele>
        <time>2019-07-31T09:01:52.120Z</time>
      </trkpt>
      <trkpt lat="43.00119167" lon="-1.29660833">
        <ele>1009.0</ele>
        <time>2019-07-31T09:01:53.125Z</time>
      </trkpt>
      <trkpt lat="43.00118833" lon="-1.29660333">
        <ele>1009.0</ele>
        <time>2019-07-31T09:01:54.131Z</time>
      </trkpt>
      <trkpt lat="43.001185" lon="-1.29659667">
        <ele>1010.0</ele>
        <time>2019-07-31T09:01:55.135Z</time>
      </trkpt>
      <trkpt lat="43.00118333" lon="-1.29659167">
        <ele>1009.0</ele>
        <time>2019-07-31T09:01:56.139Z</time>
      </trkpt>
      <trkpt lat="43.00118333" lon="-1.29659">
        <ele>1008.0</ele>
        <time>2019-07-31T09:01:57.145Z</time>
      </trkpt>
      <trkpt lat="43.00118167" lon="-1.29658667">
        <ele>1007.0</ele>
        <time>2019-07-31T09:01:58.149Z</time>
      </trkpt>
      <trkpt lat="43.00117833" lon="-1.29658333">
        <ele>1007.0</ele>
        <time>2019-07-31T09:01:59.155Z</time>
      </trkpt>
      <trkpt lat="43.001175" lon="-1.29657667">
        <ele>1007.0</ele>
        <time>2019-07-31T09:02:00.161Z</time>
      </trkpt>
      <trkpt lat="43.00117" lon="-1.29657">
        <ele>1006.0</ele>
        <time>2019-07-31T09:02:01.164Z</time>
      </trkpt>
      <trkpt lat="43.00116333" lon="-1.29655667">
        <ele>1008.0</ele>
        <time>2019-07-31T09:02:02.170Z</time>
      </trkpt>
      <trkpt lat="43.00116167" lon="-1.29655333">
        <ele>1008.0</ele>
        <time>2019-07-31T09:02:03.175Z</time>
      </trkpt>
      <trkpt lat="43.00116167" lon="-1.29654667">
        <ele>1009.0</ele>
        <time>2019-07-31T09:02:04.179Z</time>
      </trkpt>
      <trkpt lat="43.00116167" lon="-1.29654">
        <ele>1009.0</ele>
        <time>2019-07-31T09:02:05.182Z</time>
      </trkpt>
      <trkpt lat="43.00115833" lon="-1.29653333">
        <ele>1010.0</ele>
        <time>2019-07-31T09:02:06.061Z</time>
      </trkpt>
      <trkpt lat="43.001155" lon="-1.296525">
        <ele>1010.0</ele>
        <time>2019-07-31T09:02:07.067Z</time>
      </trkpt>
      <trkpt lat="43.00115167" lon="-1.296525">
        <ele>1010.0</ele>
        <time>2019-07-31T09:02:08.073Z</time>
      </trkpt>
      <trkpt lat="43.00114833" lon="-1.29652167">
        <ele>1010.0</ele>
        <time>2019-07-31T09:02:09.080Z</time>
      </trkpt>
      <trkpt lat="43.00114167" lon="-1.29651167">
        <ele>1009.0</ele>
        <time>2019-07-31T09:02:10.085Z</time>
      </trkpt>
      <trkpt lat="43.001135" lon="-1.29650667">
        <ele>1009.0</ele>
        <time>2019-07-31T09:02:11.089Z</time>
      </trkpt>
      <trkpt lat="43.00113333" lon="-1.29651">
        <ele>1010.0</ele>
        <time>2019-07-31T09:02:12.096Z</time>
      </trkpt>
      <trkpt lat="43.00113167" lon="-1.29652167">
        <ele>1012.0</ele>
        <time>2019-07-31T09:02:13.103Z</time>
      </trkpt>
      <trkpt lat="43.00114" lon="-1.296535">
        <ele>1013.0</ele>
        <time>2019-07-31T09:02:14.109Z</time>
      </trkpt>
      <trkpt lat="43.001145" lon="-1.296545">
        <ele>1014.0</ele>
        <time>2019-07-31T09:02:15.114Z</time>
      </trkpt>
      <trkpt lat="43.00115167" lon="-1.296555">
        <ele>1014.0</ele>
        <time>2019-07-31T09:02:16.118Z</time>
      </trkpt>
      <trkpt lat="43.001155" lon="-1.29656167">
        <ele>1015.0</ele>
        <time>2019-07-31T09:02:17.122Z</time>
      </trkpt>
      <trkpt lat="43.001155" lon="-1.29656333">
        <ele>1015.0</ele>
        <time>2019-07-31T09:02:18.126Z</time>
      </trkpt>
      <trkpt lat="43.00115333" lon="-1.296565">
        <ele>1015.0</ele>
        <time>2019-07-31T09:02:19.130Z</time>
      </trkpt>
      <trkpt lat="43.001155" lon="-1.29655833">
        <ele>1015.0</ele>
        <time>2019-07-31T09:02:20.136Z</time>
      </trkpt>
      <trkpt lat="43.00115333" lon="-1.29654833">
        <ele>1015.0</ele>
        <time>2019-07-31T09:02:21.140Z</time>
      </trkpt>
      <trkpt lat="43.00114833" lon="-1.29654">
        <ele>1014.0</ele>
        <time>2019-07-31T09:02:22.142Z</time>
      </trkpt>
      <trkpt lat="43.001145" lon="-1.29653667">
        <ele>1014.0</ele>
        <time>2019-07-31T09:02:23.150Z</time>
      </trkpt>
      <trkpt lat="43.001145" lon="-1.29653667">
        <ele>1014.0</ele>
        <time>2019-07-31T09:02:24.156Z</time>
      </trkpt>
      <trkpt lat="43.00114667" lon="-1.29654333">
        <ele>1014.0</ele>
        <time>2019-07-31T09:02:25.162Z</time>
      </trkpt>
      <trkpt lat="43.00114667" lon="-1.29655">
        <ele>1013.0</ele>
        <time>2019-07-31T09:02:26.167Z</time>
      </trkpt>
      <trkpt lat="43.00114667" lon="-1.29655667">
        <ele>1013.0</ele>
        <time>2019-07-31T09:02:27.168Z</time>
      </trkpt>
      <trkpt lat="43.00114667" lon="-1.29656">
        <ele>1013.0</ele>
        <time>2019-07-31T09:02:28.173Z</time>
      </trkpt>
      <trkpt lat="43.001145" lon="-1.29656333">
        <ele>1012.0</ele>
        <time>2019-07-31T09:02:29.178Z</time>
      </trkpt>
      <trkpt lat="43.00114667" lon="-1.29656167">
        <ele>1013.0</ele>
        <time>2019-07-31T09:02:30.182Z</time>
      </trkpt>
      <trkpt lat="43.00114833" lon="-1.29656333">
        <ele>1012.0</ele>
        <time>2019-07-31T09:02:31.062Z</time>
      </trkpt>
      <trkpt lat="43.00115" lon="-1.29656333">
        <ele>1012.0</ele>
        <time>2019-07-31T09:02:32.068Z</time>
      </trkpt>
      <trkpt lat="43.00115167" lon="-1.296565">
        <ele>1013.0</ele>
        <time>2019-07-31T09:02:33.075Z</time>
      </trkpt>
      <trkpt lat="43.00114833" lon="-1.29656833">
        <ele>1013.0</ele>
        <time>2019-07-31T09:02:34.083Z</time>
      </trkpt>
      <trkpt lat="43.00114667" lon="-1.29657167">
        <ele>1013.0</ele>
        <time>2019-07-31T09:02:35.087Z</time>
      </trkpt>
      <trkpt lat="43.001145" lon="-1.29656833">
        <ele>1014.0</ele>
        <time>2019-07-31T09:02:36.093Z</time>
      </trkpt>
      <trkpt lat="43.001145" lon="-1.29656667">
        <ele>1014.0</ele>
        <time>2019-07-31T09:02:37.097Z</time>
      </trkpt>
      <trkpt lat="43.00114167" lon="-1.296565">
        <ele>1015.0</ele>
        <time>2019-07-31T09:02:38.101Z</time>
      </trkpt>
      <trkpt lat="43.00114167" lon="-1.296565">
        <ele>1014.0</ele>
        <time>2019-07-31T09:02:39.105Z</time>
      </trkpt>
      <trkpt lat="43.00114" lon="-1.29656333">
        <ele>1014.0</ele>
        <time>2019-07-31T09:02:40.111Z</time>
      </trkpt>
      <trkpt lat="43.00113833" lon="-1.29655833">
        <ele>1014.0</ele>
        <time>2019-07-31T09:02:41.119Z</time>
      </trkpt>
      <trkpt lat="43.001135" lon="-1.296555">
        <ele>1015.0</ele>
        <time>2019-07-31T09:02:42.125Z</time>
      </trkpt>
      <trkpt lat="43.00113333" lon="-1.29655167">
        <ele>1015.0</ele>
        <time>2019-07-31T09:02:43.131Z</time>
      </trkpt>
      <trkpt lat="43.00113333" lon="-1.29655">
        <ele>1015.0</ele>
        <time>2019-07-31T09:02:44.137Z</time>
      </trkpt>
      <trkpt lat="43.00113167" lon="-1.29654667">
        <ele>1015.0</ele>
        <time>2019-07-31T09:02:45.142Z</time>
      </trkpt>
      <trkpt lat="43.00113" lon="-1.29654167">
        <ele>1016.0</ele>
        <time>2019-07-31T09:02:46.147Z</time>
      </trkpt>
      <trkpt lat="43.00112833" lon="-1.29653833">
        <ele>1016.0</ele>
        <time>2019-07-31T09:02:47.153Z</time>
      </trkpt>
      <trkpt lat="43.00113" lon="-1.29654">
        <ele>1016.0</ele>
        <time>2019-07-31T09:02:48.158Z</time>
      </trkpt>
      <trkpt lat="43.00113167" lon="-1.29654333">
        <ele>1016.0</ele>
        <time>2019-07-31T09:02:49.164Z</time>
      </trkpt>
      <trkpt lat="43.00113667" lon="-1.29655">
        <ele>1016.0</ele>
        <time>2019-07-31T09:02:50.168Z</time>
      </trkpt>
      <trkpt lat="43.00113833" lon="-1.29654833">
        <ele>1017.0</ele>
        <time>2019-07-31T09:02:51.173Z</time>
      </trkpt>
      <trkpt lat="43.00114667" lon="-1.296535">
        <ele>1017.0</ele>
        <time>2019-07-31T09:02:52.180Z</time>
      </trkpt>
      <trkpt lat="43.00115167" lon="-1.29652667">
        <ele>1017.0</ele>
        <time>2019-07-31T09:02:53.185Z</time>
      </trkpt>
      <trkpt lat="43.00115833" lon="-1.29651667">
        <ele>1017.0</ele>
        <time>2019-07-31T09:02:54.066Z</time>
      </trkpt>
      <trkpt lat="43.00116333" lon="-1.296505">
        <ele>1017.0</ele>
        <time>2019-07-31T09:02:55.073Z</time>
      </trkpt>
      <trkpt lat="43.00117" lon="-1.29649167">
        <ele>1017.0</ele>
        <time>2019-07-31T09:02:56.078Z</time>
      </trkpt>
      <trkpt lat="43.00117833" lon="-1.29648167">
        <ele>1016.0</ele>
        <time>2019-07-31T09:02:57.082Z</time>
      </trkpt>
      <trkpt lat="43.00118667" lon="-1.296465">
        <ele>1016.0</ele>
        <time>2019-07-31T09:02:58.087Z</time>
      </trkpt>
      <trkpt lat="43.001195" lon="-1.29644667">
        <ele>1015.0</ele>
        <time>2019-07-31T09:02:59.093Z</time>
      </trkpt>
      <trkpt lat="43.00120333" lon="-1.29642833">
        <ele>1015.0</ele>
        <time>2019-07-31T09:03:00.099Z</time>
      </trkpt>
      <trkpt lat="43.00121333" lon="-1.29640667">
        <ele>1016.0</ele>
        <time>2019-07-31T09:03:01.103Z</time>
      </trkpt>
      <trkpt lat="43.00122167" lon="-1.29638833">
        <ele>1016.0</ele>
        <time>2019-07-31T09:03:02.109Z</time>
      </trkpt>
      <trkpt lat="43.00122833" lon="-1.29636667">
        <ele>1016.0</ele>
        <time>2019-07-31T09:03:03.115Z</time>
      </trkpt>
      <trkpt lat="43.001235" lon="-1.29634833">
        <ele>1017.0</ele>
        <time>2019-07-31T09:03:04.123Z</time>
      </trkpt>
      <trkpt lat="43.00124333" lon="-1.29632833">
        <ele>1018.0</ele>
        <time>2019-07-31T09:03:05.127Z</time>
      </trkpt>
      <trkpt lat="43.00125333" lon="-1.29631">
        <ele>1018.0</ele>
        <time>2019-07-31T09:03:06.134Z</time>
      </trkpt>
      <trkpt lat="43.00126167" lon="-1.29629167">
        <ele>1019.0</ele>
        <time>2019-07-31T09:03:07.140Z</time>
      </trkpt>
      <trkpt lat="43.00126833" lon="-1.29627333">
        <ele>1020.0</ele>
        <time>2019-07-31T09:03:08.145Z</time>
      </trkpt>
      <trkpt lat="43.00127333" lon="-1.29625833">
        <ele>1020.0</ele>
        <time>2019-07-31T09:03:09.151Z</time>
      </trkpt>
      <trkpt lat="43.00127833" lon="-1.29624167">
        <ele>1021.0</ele>
        <time>2019-07-31T09:03:10.156Z</time>
      </trkpt>
      <trkpt lat="43.00128167" lon="-1.29622333">
        <ele>1021.0</ele>
        <time>2019-07-31T09:03:11.163Z</time>
      </trkpt>
      <trkpt lat="43.001285" lon="-1.296205">
        <ele>1022.0</ele>
        <time>2019-07-31T09:03:12.168Z</time>
      </trkpt>
      <trkpt lat="43.00128833" lon="-1.29618667">
        <ele>1023.0</ele>
        <time>2019-07-31T09:03:13.174Z</time>
      </trkpt>
      <trkpt lat="43.00129333" lon="-1.29616833">
        <ele>1024.0</ele>
        <time>2019-07-31T09:03:14.178Z</time>
      </trkpt>
      <trkpt lat="43.00129833" lon="-1.296145">
        <ele>1024.0</ele>
        <time>2019-07-31T09:03:15.183Z</time>
      </trkpt>
      <trkpt lat="43.0013" lon="-1.29613">
        <ele>1025.0</ele>
        <time>2019-07-31T09:03:16.063Z</time>
      </trkpt>
      <trkpt lat="43.00130167" lon="-1.29611667">
        <ele>1026.0</ele>
        <time>2019-07-31T09:03:17.070Z</time>
      </trkpt>
      <trkpt lat="43.00130333" lon="-1.29609667">
        <ele>1027.0</ele>
        <time>2019-07-31T09:03:18.075Z</time>
      </trkpt>
      <trkpt lat="43.00130667" lon="-1.296075">
        <ele>1026.0</ele>
        <time>2019-07-31T09:03:19.080Z</time>
      </trkpt>
      <trkpt lat="43.00131" lon="-1.296055">
        <ele>1026.0</ele>
        <time>2019-07-31T09:03:20.084Z</time>
      </trkpt>
      <trkpt lat="43.00131333" lon="-1.296035">
        <ele>1026.0</ele>
        <time>2019-07-31T09:03:21.090Z</time>
      </trkpt>
      <trkpt lat="43.00131333" lon="-1.29601667">
        <ele>1026.0</ele>
        <time>2019-07-31T09:03:22.095Z</time>
      </trkpt>
      <trkpt lat="43.00131333" lon="-1.295995">
        <ele>1026.0</ele>
        <time>2019-07-31T09:03:23.099Z</time>
      </trkpt>
      <trkpt lat="43.001315" lon="-1.29597333">
        <ele>1026.0</ele>
        <time>2019-07-31T09:03:24.105Z</time>
      </trkpt>
      <trkpt lat="43.00131333" lon="-1.29595333">
        <ele>1026.0</ele>
        <time>2019-07-31T09:03:25.111Z</time>
      </trkpt>
      <trkpt lat="43.00131" lon="-1.295935">
        <ele>1026.0</ele>
        <time>2019-07-31T09:03:26.118Z</time>
      </trkpt>
      <trkpt lat="43.00130833" lon="-1.29591333">
        <ele>1026.0</ele>
        <time>2019-07-31T09:03:27.124Z</time>
      </trkpt>
      <trkpt lat="43.00130833" lon="-1.295895">
        <ele>1027.0</ele>
        <time>2019-07-31T09:03:28.128Z</time>
      </trkpt>
      <trkpt lat="43.00131" lon="-1.29587333">
        <ele>1027.0</ele>
        <time>2019-07-31T09:03:29.133Z</time>
      </trkpt>
      <trkpt lat="43.00131167" lon="-1.29584833">
        <ele>1027.0</ele>
        <time>2019-07-31T09:03:30.137Z</time>
      </trkpt>
      <trkpt lat="43.001315" lon="-1.29582167">
        <ele>1027.0</ele>
        <time>2019-07-31T09:03:31.143Z</time>
      </trkpt>
      <trkpt lat="43.00131667" lon="-1.295795">
        <ele>1027.0</ele>
        <time>2019-07-31T09:03:32.149Z</time>
      </trkpt>
      <trkpt lat="43.00132" lon="-1.29577">
        <ele>1027.0</ele>
        <time>2019-07-31T09:03:33.154Z</time>
      </trkpt>
      <trkpt lat="43.00132167" lon="-1.29574833">
        <ele>1027.0</ele>
        <time>2019-07-31T09:03:34.160Z</time>
      </trkpt>
      <trkpt lat="43.00132333" lon="-1.29572833">
        <ele>1027.0</ele>
        <time>2019-07-31T09:03:35.165Z</time>
      </trkpt>
      <trkpt lat="43.00132333" lon="-1.29570833">
        <ele>1027.0</ele>
        <time>2019-07-31T09:03:36.166Z</time>
      </trkpt>
      <trkpt lat="43.00132333" lon="-1.29568667">
        <ele>1028.0</ele>
        <time>2019-07-31T09:03:37.168Z</time>
      </trkpt>
      <trkpt lat="43.001325" lon="-1.29566">
        <ele>1028.0</ele>
        <time>2019-07-31T09:03:38.170Z</time>
      </trkpt>
      <trkpt lat="43.00133" lon="-1.29563">
        <ele>1028.0</ele>
        <time>2019-07-31T09:03:39.171Z</time>
      </trkpt>
      <trkpt lat="43.00133667" lon="-1.29560167">
        <ele>1027.0</ele>
        <time>2019-07-31T09:03:40.177Z</time>
      </trkpt>
      <trkpt lat="43.00134167" lon="-1.29557333">
        <ele>1027.0</ele>
        <time>2019-07-31T09:03:41.180Z</time>
      </trkpt>
      <trkpt lat="43.00134" lon="-1.29554667">
        <ele>1027.0</ele>
        <time>2019-07-31T09:03:42.185Z</time>
      </trkpt>
      <trkpt lat="43.00134" lon="-1.29552833">
        <ele>1027.0</ele>
        <time>2019-07-31T09:03:43.061Z</time>
      </trkpt>
      <trkpt lat="43.00134333" lon="-1.29551">
        <ele>1027.0</ele>
        <time>2019-07-31T09:03:44.066Z</time>
      </trkpt>
      <trkpt lat="43.001345" lon="-1.29548833">
        <ele>1027.0</ele>
        <time>2019-07-31T09:03:45.073Z</time>
      </trkpt>
      <trkpt lat="43.00135167" lon="-1.29546167">
        <ele>1027.0</ele>
        <time>2019-07-31T09:03:46.080Z</time>
      </trkpt>
      <trkpt lat="43.00135667" lon="-1.29543333">
        <ele>1027.0</ele>
        <time>2019-07-31T09:03:47.085Z</time>
      </trkpt>
      <trkpt lat="43.00136167" lon="-1.29540833">
        <ele>1027.0</ele>
        <time>2019-07-31T09:03:48.091Z</time>
      </trkpt>
      <trkpt lat="43.001365" lon="-1.29538667">
        <ele>1026.0</ele>
        <time>2019-07-31T09:03:49.095Z</time>
      </trkpt>
      <trkpt lat="43.00137" lon="-1.29535833">
        <ele>1026.0</ele>
        <time>2019-07-31T09:03:50.101Z</time>
      </trkpt>
      <trkpt lat="43.00137333" lon="-1.29533">
        <ele>1026.0</ele>
        <time>2019-07-31T09:03:51.105Z</time>
      </trkpt>
      <trkpt lat="43.00137333" lon="-1.29529833">
        <ele>1027.0</ele>
        <time>2019-07-31T09:03:52.110Z</time>
      </trkpt>
      <trkpt lat="43.00136833" lon="-1.29526833">
        <ele>1027.0</ele>
        <time>2019-07-31T09:03:53.114Z</time>
      </trkpt>
      <trkpt lat="43.00136833" lon="-1.29524333">
        <ele>1027.0</ele>
        <time>2019-07-31T09:03:54.120Z</time>
      </trkpt>
      <trkpt lat="43.00137" lon="-1.295215">
        <ele>1027.0</ele>
        <time>2019-07-31T09:03:55.124Z</time>
      </trkpt>
      <trkpt lat="43.00137" lon="-1.29518667">
        <ele>1028.0</ele>
        <time>2019-07-31T09:03:56.130Z</time>
      </trkpt>
      <trkpt lat="43.00137" lon="-1.29515833">
        <ele>1028.0</ele>
        <time>2019-07-31T09:03:57.135Z</time>
      </trkpt>
      <trkpt lat="43.00136833" lon="-1.29512833">
        <ele>1028.0</ele>
        <time>2019-07-31T09:03:58.143Z</time>
      </trkpt>
      <trkpt lat="43.00137333" lon="-1.295105">
        <ele>1028.0</ele>
        <time>2019-07-31T09:03:59.146Z</time>
      </trkpt>
      <trkpt lat="43.00138167" lon="-1.295085">
        <ele>1027.0</ele>
        <time>2019-07-31T09:04:00.150Z</time>
      </trkpt>
      <trkpt lat="43.00138333" lon="-1.29506667">
        <ele>1027.0</ele>
        <time>2019-07-31T09:04:01.154Z</time>
      </trkpt>
      <trkpt lat="43.00138833" lon="-1.29504167">
        <ele>1026.0</ele>
        <time>2019-07-31T09:04:02.157Z</time>
      </trkpt>
      <trkpt lat="43.00138667" lon="-1.29501667">
        <ele>1027.0</ele>
        <time>2019-07-31T09:04:03.162Z</time>
      </trkpt>
      <trkpt lat="43.001385" lon="-1.29499333">
        <ele>1027.0</ele>
        <time>2019-07-31T09:04:04.166Z</time>
      </trkpt>
      <trkpt lat="43.00138333" lon="-1.29497">
        <ele>1027.0</ele>
        <time>2019-07-31T09:04:05.171Z</time>
      </trkpt>
      <trkpt lat="43.00138167" lon="-1.29494667">
        <ele>1027.0</ele>
        <time>2019-07-31T09:04:06.178Z</time>
      </trkpt>
      <trkpt lat="43.00138333" lon="-1.29492333">
        <ele>1027.0</ele>
        <time>2019-07-31T09:04:07.183Z</time>
      </trkpt>
      <trkpt lat="43.001385" lon="-1.2949">
        <ele>1028.0</ele>
        <time>2019-07-31T09:04:08.064Z</time>
      </trkpt>
      <trkpt lat="43.001385" lon="-1.29487833">
        <ele>1028.0</ele>
        <time>2019-07-31T09:04:09.068Z</time>
      </trkpt>
      <trkpt lat="43.00138667" lon="-1.294855">
        <ele>1028.0</ele>
        <time>2019-07-31T09:04:10.071Z</time>
      </trkpt>
      <trkpt lat="43.001385" lon="-1.29483333">
        <ele>1028.0</ele>
        <time>2019-07-31T09:04:11.078Z</time>
      </trkpt>
      <trkpt lat="43.00138667" lon="-1.29481167">
        <ele>1028.0</ele>
        <time>2019-07-31T09:04:12.083Z</time>
      </trkpt>
      <trkpt lat="43.00138833" lon="-1.29478667">
        <ele>1029.0</ele>
        <time>2019-07-31T09:04:13.087Z</time>
      </trkpt>
      <trkpt lat="43.00139167" lon="-1.29476333">
        <ele>1029.0</ele>
        <time>2019-07-31T09:04:14.095Z</time>
      </trkpt>
      <trkpt lat="43.001395" lon="-1.29474">
        <ele>1029.0</ele>
        <time>2019-07-31T09:04:15.100Z</time>
      </trkpt>
      <trkpt lat="43.00139833" lon="-1.29471667">
        <ele>1030.0</ele>
        <time>2019-07-31T09:04:16.107Z</time>
      </trkpt>
      <trkpt lat="43.00140167" lon="-1.29469333">
        <ele>1030.0</ele>
        <time>2019-07-31T09:04:17.112Z</time>
      </trkpt>
      <trkpt lat="43.00140167" lon="-1.29467333">
        <ele>1030.0</ele>
        <time>2019-07-31T09:04:18.117Z</time>
      </trkpt>
      <trkpt lat="43.00140167" lon="-1.29465">
        <ele>1030.0</ele>
        <time>2019-07-31T09:04:19.124Z</time>
      </trkpt>
      <trkpt lat="43.00140333" lon="-1.29462667">
        <ele>1030.0</ele>
        <time>2019-07-31T09:04:20.127Z</time>
      </trkpt>
      <trkpt lat="43.00140667" lon="-1.29460333">
        <ele>1030.0</ele>
        <time>2019-07-31T09:04:21.131Z</time>
      </trkpt>
      <trkpt lat="43.00141" lon="-1.29458">
        <ele>1030.0</ele>
        <time>2019-07-31T09:04:22.135Z</time>
      </trkpt>
      <trkpt lat="43.00141333" lon="-1.29455667">
        <ele>1030.0</ele>
        <time>2019-07-31T09:04:23.141Z</time>
      </trkpt>
      <trkpt lat="43.001415" lon="-1.29453667">
        <ele>1030.0</ele>
        <time>2019-07-31T09:04:24.145Z</time>
      </trkpt>
      <trkpt lat="43.00141833" lon="-1.294515">
        <ele>1030.0</ele>
        <time>2019-07-31T09:04:25.150Z</time>
      </trkpt>
      <trkpt lat="43.00142" lon="-1.29449333">
        <ele>1030.0</ele>
        <time>2019-07-31T09:04:26.153Z</time>
      </trkpt>
      <trkpt lat="43.001425" lon="-1.29447333">
        <ele>1030.0</ele>
        <time>2019-07-31T09:04:27.158Z</time>
      </trkpt>
      <trkpt lat="43.00143167" lon="-1.29445167">
        <ele>1030.0</ele>
        <time>2019-07-31T09:04:28.163Z</time>
      </trkpt>
      <trkpt lat="43.00143833" lon="-1.29443167">
        <ele>1030.0</ele>
        <time>2019-07-31T09:04:29.169Z</time>
      </trkpt>
      <trkpt lat="43.001445" lon="-1.29441">
        <ele>1030.0</ele>
        <time>2019-07-31T09:04:30.173Z</time>
      </trkpt>
      <trkpt lat="43.00145" lon="-1.294385">
        <ele>1030.0</ele>
        <time>2019-07-31T09:04:31.175Z</time>
      </trkpt>
      <trkpt lat="43.001455" lon="-1.29436167">
        <ele>1030.0</ele>
        <time>2019-07-31T09:04:32.179Z</time>
      </trkpt>
      <trkpt lat="43.00146" lon="-1.29434333">
        <ele>1030.0</ele>
        <time>2019-07-31T09:04:33.185Z</time>
      </trkpt>
      <trkpt lat="43.00146333" lon="-1.29432167">
        <ele>1030.0</ele>
        <time>2019-07-31T09:04:34.063Z</time>
      </trkpt>
      <trkpt lat="43.00147167" lon="-1.29430167">
        <ele>1030.0</ele>
        <time>2019-07-31T09:04:35.068Z</time>
      </trkpt>
      <trkpt lat="43.00148" lon="-1.29428333">
        <ele>1030.0</ele>
        <time>2019-07-31T09:04:36.075Z</time>
      </trkpt>
      <trkpt lat="43.00148833" lon="-1.29426333">
        <ele>1030.0</ele>
        <time>2019-07-31T09:04:37.082Z</time>
      </trkpt>
      <trkpt lat="43.00149833" lon="-1.29424167">
        <ele>1030.0</ele>
        <time>2019-07-31T09:04:38.087Z</time>
      </trkpt>
      <trkpt lat="43.00150667" lon="-1.29422333">
        <ele>1030.0</ele>
        <time>2019-07-31T09:04:39.092Z</time>
      </trkpt>
      <trkpt lat="43.00151667" lon="-1.29420333">
        <ele>1029.0</ele>
        <time>2019-07-31T09:04:40.098Z</time>
      </trkpt>
      <trkpt lat="43.001525" lon="-1.29418333">
        <ele>1030.0</ele>
        <time>2019-07-31T09:04:41.102Z</time>
      </trkpt>
      <trkpt lat="43.00153333" lon="-1.29416667">
        <ele>1029.0</ele>
        <time>2019-07-31T09:04:42.109Z</time>
      </trkpt>
      <trkpt lat="43.00154333" lon="-1.29415">
        <ele>1029.0</ele>
        <time>2019-07-31T09:04:43.113Z</time>
      </trkpt>
      <trkpt lat="43.00155" lon="-1.29413667">
        <ele>1029.0</ele>
        <time>2019-07-31T09:04:44.118Z</time>
      </trkpt>
      <trkpt lat="43.00155833" lon="-1.29412167">
        <ele>1029.0</ele>
        <time>2019-07-31T09:04:45.123Z</time>
      </trkpt>
      <trkpt lat="43.00156833" lon="-1.294105">
        <ele>1029.0</ele>
        <time>2019-07-31T09:04:46.128Z</time>
      </trkpt>
      <trkpt lat="43.00157667" lon="-1.29409167">
        <ele>1029.0</ele>
        <time>2019-07-31T09:04:47.135Z</time>
      </trkpt>
      <trkpt lat="43.00158667" lon="-1.29407833">
        <ele>1029.0</ele>
        <time>2019-07-31T09:04:48.141Z</time>
      </trkpt>
      <trkpt lat="43.00159667" lon="-1.294065">
        <ele>1029.0</ele>
        <time>2019-07-31T09:04:49.148Z</time>
      </trkpt>
      <trkpt lat="43.00160833" lon="-1.29405167">
        <ele>1029.0</ele>
        <time>2019-07-31T09:04:50.154Z</time>
      </trkpt>
      <trkpt lat="43.00161833" lon="-1.29404">
        <ele>1029.0</ele>
        <time>2019-07-31T09:04:51.160Z</time>
      </trkpt>
      <trkpt lat="43.00163" lon="-1.294025">
        <ele>1029.0</ele>
        <time>2019-07-31T09:04:52.166Z</time>
      </trkpt>
      <trkpt lat="43.00164333" lon="-1.29401167">
        <ele>1029.0</ele>
        <time>2019-07-31T09:04:53.171Z</time>
      </trkpt>
      <trkpt lat="43.00165667" lon="-1.29399667">
        <ele>1029.0</ele>
        <time>2019-07-31T09:04:54.176Z</time>
      </trkpt>
      <trkpt lat="43.00166833" lon="-1.293985">
        <ele>1029.0</ele>
        <time>2019-07-31T09:04:55.183Z</time>
      </trkpt>
      <trkpt lat="43.001685" lon="-1.29397167">
        <ele>1029.0</ele>
        <time>2019-07-31T09:04:56.062Z</time>
      </trkpt>
      <trkpt lat="43.00169667" lon="-1.29396">
        <ele>1029.0</ele>
        <time>2019-07-31T09:04:57.065Z</time>
      </trkpt>
      <trkpt lat="43.00171" lon="-1.29394667">
        <ele>1029.0</ele>
        <time>2019-07-31T09:04:58.070Z</time>
      </trkpt>
      <trkpt lat="43.00172167" lon="-1.29393667">
        <ele>1029.0</ele>
        <time>2019-07-31T09:04:59.076Z</time>
      </trkpt>
      <trkpt lat="43.001735" lon="-1.29392333">
        <ele>1029.0</ele>
        <time>2019-07-31T09:05:00.080Z</time>
      </trkpt>
      <trkpt lat="43.00175" lon="-1.29391">
        <ele>1029.0</ele>
        <time>2019-07-31T09:05:01.083Z</time>
      </trkpt>
      <trkpt lat="43.001765" lon="-1.29389833">
        <ele>1029.0</ele>
        <time>2019-07-31T09:05:02.088Z</time>
      </trkpt>
      <trkpt lat="43.00178" lon="-1.29388667">
        <ele>1029.0</ele>
        <time>2019-07-31T09:05:03.093Z</time>
      </trkpt>
      <trkpt lat="43.001795" lon="-1.29387667">
        <ele>1029.0</ele>
        <time>2019-07-31T09:05:04.098Z</time>
      </trkpt>
      <trkpt lat="43.00181167" lon="-1.29386667">
        <ele>1029.0</ele>
        <time>2019-07-31T09:05:05.105Z</time>
      </trkpt>
      <trkpt lat="43.001825" lon="-1.29385833">
        <ele>1029.0</ele>
        <time>2019-07-31T09:05:06.111Z</time>
      </trkpt>
      <trkpt lat="43.00183833" lon="-1.29385167">
        <ele>1029.0</ele>
        <time>2019-07-31T09:05:07.116Z</time>
      </trkpt>
      <trkpt lat="43.00185167" lon="-1.29384167">
        <ele>1028.0</ele>
        <time>2019-07-31T09:05:08.122Z</time>
      </trkpt>
      <trkpt lat="43.00186833" lon="-1.29383">
        <ele>1028.0</ele>
        <time>2019-07-31T09:05:09.128Z</time>
      </trkpt>
      <trkpt lat="43.00188333" lon="-1.29382167">
        <ele>1028.0</ele>
        <time>2019-07-31T09:05:10.132Z</time>
      </trkpt>
      <trkpt lat="43.0019" lon="-1.29381167">
        <ele>1028.0</ele>
        <time>2019-07-31T09:05:11.137Z</time>
      </trkpt>
      <trkpt lat="43.00191667" lon="-1.293805">
        <ele>1028.0</ele>
        <time>2019-07-31T09:05:12.142Z</time>
      </trkpt>
      <trkpt lat="43.00193" lon="-1.29379667">
        <ele>1028.0</ele>
        <time>2019-07-31T09:05:13.148Z</time>
      </trkpt>
      <trkpt lat="43.001945" lon="-1.29378667">
        <ele>1029.0</ele>
        <time>2019-07-31T09:05:14.152Z</time>
      </trkpt>
      <trkpt lat="43.00196" lon="-1.29377667">
        <ele>1029.0</ele>
        <time>2019-07-31T09:05:15.157Z</time>
      </trkpt>
      <trkpt lat="43.00197333" lon="-1.29376167">
        <ele>1029.0</ele>
        <time>2019-07-31T09:05:16.160Z</time>
      </trkpt>
      <trkpt lat="43.001985" lon="-1.29375">
        <ele>1029.0</ele>
        <time>2019-07-31T09:05:17.164Z</time>
      </trkpt>
      <trkpt lat="43.002" lon="-1.29373833">
        <ele>1029.0</ele>
        <time>2019-07-31T09:05:18.167Z</time>
      </trkpt>
      <trkpt lat="43.00201333" lon="-1.29372333">
        <ele>1029.0</ele>
        <time>2019-07-31T09:05:19.173Z</time>
      </trkpt>
      <trkpt lat="43.00202333" lon="-1.29371333">
        <ele>1029.0</ele>
        <time>2019-07-31T09:05:20.178Z</time>
      </trkpt>
      <trkpt lat="43.00203667" lon="-1.29370167">
        <ele>1030.0</ele>
        <time>2019-07-31T09:05:21.181Z</time>
      </trkpt>
      <trkpt lat="43.00205167" lon="-1.29368833">
        <ele>1030.0</ele>
        <time>2019-07-31T09:05:22.061Z</time>
      </trkpt>
      <trkpt lat="43.00206333" lon="-1.293675">
        <ele>1030.0</ele>
        <time>2019-07-31T09:05:23.067Z</time>
      </trkpt>
      <trkpt lat="43.002075" lon="-1.29366167">
        <ele>1029.0</ele>
        <time>2019-07-31T09:05:24.074Z</time>
      </trkpt>
      <trkpt lat="43.00209" lon="-1.29364833">
        <ele>1029.0</ele>
        <time>2019-07-31T09:05:25.079Z</time>
      </trkpt>
      <trkpt lat="43.00210167" lon="-1.293635">
        <ele>1029.0</ele>
        <time>2019-07-31T09:05:26.084Z</time>
      </trkpt>
      <trkpt lat="43.00211333" lon="-1.29362">
        <ele>1030.0</ele>
        <time>2019-07-31T09:05:27.088Z</time>
      </trkpt>
      <trkpt lat="43.002125" lon="-1.29360667">
        <ele>1030.0</ele>
        <time>2019-07-31T09:05:28.094Z</time>
      </trkpt>
      <trkpt lat="43.00213667" lon="-1.29359167">
        <ele>1030.0</ele>
        <time>2019-07-31T09:05:29.101Z</time>
      </trkpt>
      <trkpt lat="43.00214833" lon="-1.29357333">
        <ele>1030.0</ele>
        <time>2019-07-31T09:05:30.109Z</time>
      </trkpt>
      <trkpt lat="43.00216" lon="-1.29355833">
        <ele>1031.0</ele>
        <time>2019-07-31T09:05:31.117Z</time>
      </trkpt>
      <trkpt lat="43.00217167" lon="-1.29354167">
        <ele>1031.0</ele>
        <time>2019-07-31T09:05:32.124Z</time>
      </trkpt>
      <trkpt lat="43.00218333" lon="-1.29352">
        <ele>1031.0</ele>
        <time>2019-07-31T09:05:33.128Z</time>
      </trkpt>
      <trkpt lat="43.00219167" lon="-1.29350167">
        <ele>1031.0</ele>
        <time>2019-07-31T09:05:34.134Z</time>
      </trkpt>
      <trkpt lat="43.00220167" lon="-1.29348">
        <ele>1031.0</ele>
        <time>2019-07-31T09:05:35.138Z</time>
      </trkpt>
      <trkpt lat="43.00221" lon="-1.29346">
        <ele>1031.0</ele>
        <time>2019-07-31T09:05:36.142Z</time>
      </trkpt>
      <trkpt lat="43.00222" lon="-1.29344">
        <ele>1031.0</ele>
        <time>2019-07-31T09:05:37.149Z</time>
      </trkpt>
      <trkpt lat="43.00222833" lon="-1.29341833">
        <ele>1031.0</ele>
        <time>2019-07-31T09:05:38.153Z</time>
      </trkpt>
      <trkpt lat="43.00223667" lon="-1.29339667">
        <ele>1032.0</ele>
        <time>2019-07-31T09:05:39.158Z</time>
      </trkpt>
      <trkpt lat="43.00224333" lon="-1.29337667">
        <ele>1032.0</ele>
        <time>2019-07-31T09:05:40.163Z</time>
      </trkpt>
      <trkpt lat="43.00225333" lon="-1.293355">
        <ele>1032.0</ele>
        <time>2019-07-31T09:05:41.169Z</time>
      </trkpt>
      <trkpt lat="43.00226" lon="-1.29333167">
        <ele>1032.0</ele>
        <time>2019-07-31T09:05:42.175Z</time>
      </trkpt>
      <trkpt lat="43.00226667" lon="-1.29330833">
        <ele>1032.0</ele>
        <time>2019-07-31T09:05:43.183Z</time>
      </trkpt>
      <trkpt lat="43.00227167" lon="-1.29328667">
        <ele>1032.0</ele>
        <time>2019-07-31T09:05:44.062Z</time>
      </trkpt>
      <trkpt lat="43.00227333" lon="-1.29326333">
        <ele>1032.0</ele>
        <time>2019-07-31T09:05:45.068Z</time>
      </trkpt>
      <trkpt lat="43.00227833" lon="-1.29324167">
        <ele>1032.0</ele>
        <time>2019-07-31T09:05:46.072Z</time>
      </trkpt>
      <trkpt lat="43.00228333" lon="-1.29322">
        <ele>1033.0</ele>
        <time>2019-07-31T09:05:47.078Z</time>
      </trkpt>
      <trkpt lat="43.00228667" lon="-1.29320167">
        <ele>1033.0</ele>
        <time>2019-07-31T09:05:48.083Z</time>
      </trkpt>
      <trkpt lat="43.00229167" lon="-1.29318">
        <ele>1033.0</ele>
        <time>2019-07-31T09:05:49.087Z</time>
      </trkpt>
      <trkpt lat="43.00229333" lon="-1.29315667">
        <ele>1033.0</ele>
        <time>2019-07-31T09:05:50.093Z</time>
      </trkpt>
      <trkpt lat="43.00229833" lon="-1.293135">
        <ele>1033.0</ele>
        <time>2019-07-31T09:05:51.097Z</time>
      </trkpt>
      <trkpt lat="43.00230167" lon="-1.293115">
        <ele>1033.0</ele>
        <time>2019-07-31T09:05:52.103Z</time>
      </trkpt>
      <trkpt lat="43.00230167" lon="-1.29309333">
        <ele>1033.0</ele>
        <time>2019-07-31T09:05:53.109Z</time>
      </trkpt>
      <trkpt lat="43.00230333" lon="-1.29307333">
        <ele>1033.0</ele>
        <time>2019-07-31T09:05:54.116Z</time>
      </trkpt>
      <trkpt lat="43.00230333" lon="-1.29304833">
        <ele>1033.0</ele>
        <time>2019-07-31T09:05:55.120Z</time>
      </trkpt>
      <trkpt lat="43.00230167" lon="-1.293025">
        <ele>1034.0</ele>
        <time>2019-07-31T09:05:56.124Z</time>
      </trkpt>
      <trkpt lat="43.00229667" lon="-1.29300167">
        <ele>1033.0</ele>
        <time>2019-07-31T09:05:57.127Z</time>
      </trkpt>
      <trkpt lat="43.0023" lon="-1.29297833">
        <ele>1033.0</ele>
        <time>2019-07-31T09:05:58.132Z</time>
      </trkpt>
      <trkpt lat="43.00229167" lon="-1.292955">
        <ele>1034.0</ele>
        <time>2019-07-31T09:05:59.138Z</time>
      </trkpt>
      <trkpt lat="43.00229" lon="-1.292935">
        <ele>1033.0</ele>
        <time>2019-07-31T09:06:00.146Z</time>
      </trkpt>
      <trkpt lat="43.002285" lon="-1.29291333">
        <ele>1034.0</ele>
        <time>2019-07-31T09:06:01.153Z</time>
      </trkpt>
      <trkpt lat="43.00228" lon="-1.29289167">
        <ele>1034.0</ele>
        <time>2019-07-31T09:06:02.159Z</time>
      </trkpt>
      <trkpt lat="43.00227333" lon="-1.29287167">
        <ele>1034.0</ele>
        <time>2019-07-31T09:06:03.165Z</time>
      </trkpt>
      <trkpt lat="43.00226667" lon="-1.29285167">
        <ele>1034.0</ele>
        <time>2019-07-31T09:06:04.171Z</time>
      </trkpt>
      <trkpt lat="43.00225833" lon="-1.29283333">
        <ele>1034.0</ele>
        <time>2019-07-31T09:06:05.177Z</time>
      </trkpt>
      <trkpt lat="43.00225167" lon="-1.292815">
        <ele>1034.0</ele>
        <time>2019-07-31T09:06:06.183Z</time>
      </trkpt>
      <trkpt lat="43.00224333" lon="-1.29279333">
        <ele>1034.0</ele>
        <time>2019-07-31T09:06:07.064Z</time>
      </trkpt>
      <trkpt lat="43.00223833" lon="-1.29277167">
        <ele>1035.0</ele>
        <time>2019-07-31T09:06:08.069Z</time>
      </trkpt>
      <trkpt lat="43.00223167" lon="-1.29275">
        <ele>1035.0</ele>
        <time>2019-07-31T09:06:09.072Z</time>
      </trkpt>
      <trkpt lat="43.00222333" lon="-1.29272833">
        <ele>1035.0</ele>
        <time>2019-07-31T09:06:10.076Z</time>
      </trkpt>
      <trkpt lat="43.002215" lon="-1.29270667">
        <ele>1035.0</ele>
        <time>2019-07-31T09:06:11.082Z</time>
      </trkpt>
      <trkpt lat="43.00220667" lon="-1.29269">
        <ele>1035.0</ele>
        <time>2019-07-31T09:06:12.087Z</time>
      </trkpt>
      <trkpt lat="43.00219833" lon="-1.29266833">
        <ele>1035.0</ele>
        <time>2019-07-31T09:06:13.092Z</time>
      </trkpt>
      <trkpt lat="43.00219" lon="-1.29265">
        <ele>1035.0</ele>
        <time>2019-07-31T09:06:14.099Z</time>
      </trkpt>
      <trkpt lat="43.00218167" lon="-1.29263167">
        <ele>1035.0</ele>
        <time>2019-07-31T09:06:15.105Z</time>
      </trkpt>
      <trkpt lat="43.00217333" lon="-1.29261167">
        <ele>1035.0</ele>
        <time>2019-07-31T09:06:16.112Z</time>
      </trkpt>
      <trkpt lat="43.00216333" lon="-1.29259167">
        <ele>1035.0</ele>
        <time>2019-07-31T09:06:17.117Z</time>
      </trkpt>
      <trkpt lat="43.002155" lon="-1.29257167">
        <ele>1035.0</ele>
        <time>2019-07-31T09:06:18.124Z</time>
      </trkpt>
      <trkpt lat="43.00214667" lon="-1.29255167">
        <ele>1035.0</ele>
        <time>2019-07-31T09:06:19.130Z</time>
      </trkpt>
      <trkpt lat="43.002135" lon="-1.29253333">
        <ele>1035.0</ele>
        <time>2019-07-31T09:06:20.136Z</time>
      </trkpt>
      <trkpt lat="43.002125" lon="-1.292515">
        <ele>1034.0</ele>
        <time>2019-07-31T09:06:21.142Z</time>
      </trkpt>
      <trkpt lat="43.00211667" lon="-1.29249667">
        <ele>1034.0</ele>
        <time>2019-07-31T09:06:22.146Z</time>
      </trkpt>
      <trkpt lat="43.00210833" lon="-1.29247667">
        <ele>1034.0</ele>
        <time>2019-07-31T09:06:23.151Z</time>
      </trkpt>
      <trkpt lat="43.00210333" lon="-1.29245833">
        <ele>1034.0</ele>
        <time>2019-07-31T09:06:24.156Z</time>
      </trkpt>
      <trkpt lat="43.002095" lon="-1.29244167">
        <ele>1034.0</ele>
        <time>2019-07-31T09:06:25.163Z</time>
      </trkpt>
      <trkpt lat="43.00208667" lon="-1.29242">
        <ele>1034.0</ele>
        <time>2019-07-31T09:06:26.164Z</time>
      </trkpt>
      <trkpt lat="43.00208" lon="-1.29240167">
        <ele>1034.0</ele>
        <time>2019-07-31T09:06:27.166Z</time>
      </trkpt>
      <trkpt lat="43.002075" lon="-1.292385">
        <ele>1034.0</ele>
        <time>2019-07-31T09:06:28.171Z</time>
      </trkpt>
      <trkpt lat="43.002065" lon="-1.292365">
        <ele>1034.0</ele>
        <time>2019-07-31T09:06:29.175Z</time>
      </trkpt>
      <trkpt lat="43.00205667" lon="-1.29234667">
        <ele>1033.0</ele>
        <time>2019-07-31T09:06:30.181Z</time>
      </trkpt>
      <trkpt lat="43.00204833" lon="-1.29232667">
        <ele>1033.0</ele>
        <time>2019-07-31T09:06:31.061Z</time>
      </trkpt>
      <trkpt lat="43.00204167" lon="-1.29230833">
        <ele>1033.0</ele>
        <time>2019-07-31T09:06:32.068Z</time>
      </trkpt>
      <trkpt lat="43.00203333" lon="-1.29229167">
        <ele>1033.0</ele>
        <time>2019-07-31T09:06:33.076Z</time>
      </trkpt>
      <trkpt lat="43.002025" lon="-1.29227">
        <ele>1034.0</ele>
        <time>2019-07-31T09:06:34.082Z</time>
      </trkpt>
      <trkpt lat="43.00201833" lon="-1.29225">
        <ele>1033.0</ele>
        <time>2019-07-31T09:06:35.087Z</time>
      </trkpt>
      <trkpt lat="43.00201" lon="-1.29222833">
        <ele>1033.0</ele>
        <time>2019-07-31T09:06:36.093Z</time>
      </trkpt>
      <trkpt lat="43.00200167" lon="-1.29220833">
        <ele>1034.0</ele>
        <time>2019-07-31T09:06:37.100Z</time>
      </trkpt>
      <trkpt lat="43.001995" lon="-1.29218833">
        <ele>1033.0</ele>
        <time>2019-07-31T09:06:38.105Z</time>
      </trkpt>
      <trkpt lat="43.00198667" lon="-1.29216833">
        <ele>1033.0</ele>
        <time>2019-07-31T09:06:39.110Z</time>
      </trkpt>
      <trkpt lat="43.00197667" lon="-1.29214667">
        <ele>1033.0</ele>
        <time>2019-07-31T09:06:40.115Z</time>
      </trkpt>
      <trkpt lat="43.00197" lon="-1.292125">
        <ele>1034.0</ele>
        <time>2019-07-31T09:06:41.121Z</time>
      </trkpt>
      <trkpt lat="43.00196" lon="-1.29210167">
        <ele>1034.0</ele>
        <time>2019-07-31T09:06:42.127Z</time>
      </trkpt>
      <trkpt lat="43.00195" lon="-1.29208167">
        <ele>1035.0</ele>
        <time>2019-07-31T09:06:43.135Z</time>
      </trkpt>
      <trkpt lat="43.00194167" lon="-1.29206">
        <ele>1035.0</ele>
        <time>2019-07-31T09:06:44.142Z</time>
      </trkpt>
      <trkpt lat="43.00193333" lon="-1.29203833">
        <ele>1035.0</ele>
        <time>2019-07-31T09:06:45.147Z</time>
      </trkpt>
      <trkpt lat="43.00192333" lon="-1.29201833">
        <ele>1034.0</ele>
        <time>2019-07-31T09:06:46.153Z</time>
      </trkpt>
      <trkpt lat="43.00191333" lon="-1.291995">
        <ele>1034.0</ele>
        <time>2019-07-31T09:06:47.156Z</time>
      </trkpt>
      <trkpt lat="43.00190667" lon="-1.291975">
        <ele>1034.0</ele>
        <time>2019-07-31T09:06:48.163Z</time>
      </trkpt>
      <trkpt lat="43.00189833" lon="-1.29195333">
        <ele>1034.0</ele>
        <time>2019-07-31T09:06:49.166Z</time>
      </trkpt>
      <trkpt lat="43.00189167" lon="-1.29193333">
        <ele>1033.0</ele>
        <time>2019-07-31T09:06:50.170Z</time>
      </trkpt>
      <trkpt lat="43.001885" lon="-1.29191167">
        <ele>1034.0</ele>
        <time>2019-07-31T09:06:51.173Z</time>
      </trkpt>
      <trkpt lat="43.00187833" lon="-1.29188833">
        <ele>1034.0</ele>
        <time>2019-07-31T09:06:52.177Z</time>
      </trkpt>
      <trkpt lat="43.00187167" lon="-1.29186667">
        <ele>1034.0</ele>
        <time>2019-07-31T09:06:53.182Z</time>
      </trkpt>
      <trkpt lat="43.00186667" lon="-1.29184667">
        <ele>1033.0</ele>
        <time>2019-07-31T09:06:54.061Z</time>
      </trkpt>
      <trkpt lat="43.00186167" lon="-1.29182667">
        <ele>1033.0</ele>
        <time>2019-07-31T09:06:55.065Z</time>
      </trkpt>
      <trkpt lat="43.00185667" lon="-1.29180833">
        <ele>1033.0</ele>
        <time>2019-07-31T09:06:56.069Z</time>
      </trkpt>
      <trkpt lat="43.00185333" lon="-1.29178833">
        <ele>1033.0</ele>
        <time>2019-07-31T09:06:57.072Z</time>
      </trkpt>
      <trkpt lat="43.00185" lon="-1.29176667">
        <ele>1033.0</ele>
        <time>2019-07-31T09:06:58.078Z</time>
      </trkpt>
      <trkpt lat="43.00184667" lon="-1.291745">
        <ele>1034.0</ele>
        <time>2019-07-31T09:06:59.080Z</time>
      </trkpt>
      <trkpt lat="43.00184333" lon="-1.29172167">
        <ele>1034.0</ele>
        <time>2019-07-31T09:07:00.083Z</time>
      </trkpt>
      <trkpt lat="43.00184333" lon="-1.29170333">
        <ele>1034.0</ele>
        <time>2019-07-31T09:07:01.089Z</time>
      </trkpt>
      <trkpt lat="43.00184167" lon="-1.29168333">
        <ele>1034.0</ele>
        <time>2019-07-31T09:07:02.094Z</time>
      </trkpt>
      <trkpt lat="43.00184" lon="-1.29166333">
        <ele>1034.0</ele>
        <time>2019-07-31T09:07:03.099Z</time>
      </trkpt>
      <trkpt lat="43.00184167" lon="-1.29164333">
        <ele>1033.0</ele>
        <time>2019-07-31T09:07:04.105Z</time>
      </trkpt>
      <trkpt lat="43.001845" lon="-1.29162333">
        <ele>1033.0</ele>
        <time>2019-07-31T09:07:05.111Z</time>
      </trkpt>
      <trkpt lat="43.00184667" lon="-1.291605">
        <ele>1033.0</ele>
        <time>2019-07-31T09:07:06.117Z</time>
      </trkpt>
      <trkpt lat="43.00185" lon="-1.29158667">
        <ele>1033.0</ele>
        <time>2019-07-31T09:07:07.121Z</time>
      </trkpt>
      <trkpt lat="43.00185667" lon="-1.29156833">
        <ele>1033.0</ele>
        <time>2019-07-31T09:07:08.126Z</time>
      </trkpt>
      <trkpt lat="43.00186333" lon="-1.29155167">
        <ele>1033.0</ele>
        <time>2019-07-31T09:07:09.132Z</time>
      </trkpt>
      <trkpt lat="43.00187333" lon="-1.29153667">
        <ele>1033.0</ele>
        <time>2019-07-31T09:07:10.137Z</time>
      </trkpt>
      <trkpt lat="43.00188333" lon="-1.29152667">
        <ele>1033.0</ele>
        <time>2019-07-31T09:07:11.142Z</time>
      </trkpt>
      <trkpt lat="43.001895" lon="-1.29152">
        <ele>1034.0</ele>
        <time>2019-07-31T09:07:12.148Z</time>
      </trkpt>
      <trkpt lat="43.00190667" lon="-1.29151667">
        <ele>1034.0</ele>
        <time>2019-07-31T09:07:13.152Z</time>
      </trkpt>
      <trkpt lat="43.00191667" lon="-1.29151">
        <ele>1034.0</ele>
        <time>2019-07-31T09:07:14.156Z</time>
      </trkpt>
      <trkpt lat="43.001925" lon="-1.2915">
        <ele>1034.0</ele>
        <time>2019-07-31T09:07:15.161Z</time>
      </trkpt>
      <trkpt lat="43.00193167" lon="-1.29148833">
        <ele>1034.0</ele>
        <time>2019-07-31T09:07:16.166Z</time>
      </trkpt>
      <trkpt lat="43.00194167" lon="-1.29147833">
        <ele>1035.0</ele>
        <time>2019-07-31T09:07:17.171Z</time>
      </trkpt>
      <trkpt lat="43.00195333" lon="-1.29147">
        <ele>1035.0</ele>
        <time>2019-07-31T09:07:18.176Z</time>
      </trkpt>
      <trkpt lat="43.00196833" lon="-1.29146167">
        <ele>1036.0</ele>
        <time>2019-07-31T09:07:19.181Z</time>
      </trkpt>
      <trkpt lat="43.00198333" lon="-1.291455">
        <ele>1036.0</ele>
        <time>2019-07-31T09:07:20.187Z</time>
      </trkpt>
      <trkpt lat="43.00199667" lon="-1.291445">
        <ele>1037.0</ele>
        <time>2019-07-31T09:07:21.066Z</time>
      </trkpt>
      <trkpt lat="43.00201" lon="-1.29143667">
        <ele>1037.0</ele>
        <time>2019-07-31T09:07:22.071Z</time>
      </trkpt>
      <trkpt lat="43.002025" lon="-1.29143333">
        <ele>1038.0</ele>
        <time>2019-07-31T09:07:23.075Z</time>
      </trkpt>
      <trkpt lat="43.00203833" lon="-1.29143">
        <ele>1038.0</ele>
        <time>2019-07-31T09:07:24.079Z</time>
      </trkpt>
      <trkpt lat="43.00205167" lon="-1.29143">
        <ele>1039.0</ele>
        <time>2019-07-31T09:07:25.085Z</time>
      </trkpt>
      <trkpt lat="43.00206333" lon="-1.29143">
        <ele>1039.0</ele>
        <time>2019-07-31T09:07:26.087Z</time>
      </trkpt>
      <trkpt lat="43.00207667" lon="-1.29143167">
        <ele>1039.0</ele>
        <time>2019-07-31T09:07:27.090Z</time>
      </trkpt>
      <trkpt lat="43.00209" lon="-1.29143333">
        <ele>1039.0</ele>
        <time>2019-07-31T09:07:28.094Z</time>
      </trkpt>
      <trkpt lat="43.00210167" lon="-1.291435">
        <ele>1040.0</ele>
        <time>2019-07-31T09:07:29.101Z</time>
      </trkpt>
      <trkpt lat="43.002115" lon="-1.29143833">
        <ele>1040.0</ele>
        <time>2019-07-31T09:07:30.105Z</time>
      </trkpt>
      <trkpt lat="43.00213" lon="-1.29143833">
        <ele>1040.0</ele>
        <time>2019-07-31T09:07:31.111Z</time>
      </trkpt>
      <trkpt lat="43.002145" lon="-1.29144">
        <ele>1040.0</ele>
        <time>2019-07-31T09:07:32.117Z</time>
      </trkpt>
      <trkpt lat="43.00215667" lon="-1.29144">
        <ele>1040.0</ele>
        <time>2019-07-31T09:07:33.121Z</time>
      </trkpt>
      <trkpt lat="43.00217167" lon="-1.29143833">
        <ele>1041.0</ele>
        <time>2019-07-31T09:07:34.126Z</time>
      </trkpt>
      <trkpt lat="43.002185" lon="-1.29143833">
        <ele>1041.0</ele>
        <time>2019-07-31T09:07:35.131Z</time>
      </trkpt>
      <trkpt lat="43.0022" lon="-1.29143833">
        <ele>1041.0</ele>
        <time>2019-07-31T09:07:36.137Z</time>
      </trkpt>
      <trkpt lat="43.002215" lon="-1.29143833">
        <ele>1041.0</ele>
        <time>2019-07-31T09:07:37.141Z</time>
      </trkpt>
      <trkpt lat="43.00222833" lon="-1.29143833">
        <ele>1041.0</ele>
        <time>2019-07-31T09:07:38.148Z</time>
      </trkpt>
      <trkpt lat="43.00224167" lon="-1.29143833">
        <ele>1042.0</ele>
        <time>2019-07-31T09:07:39.154Z</time>
      </trkpt>
      <trkpt lat="43.002255" lon="-1.29144">
        <ele>1042.0</ele>
        <time>2019-07-31T09:07:40.160Z</time>
      </trkpt>
      <trkpt lat="43.00226667" lon="-1.29144167">
        <ele>1042.0</ele>
        <time>2019-07-31T09:07:41.165Z</time>
      </trkpt>
      <trkpt lat="43.00228" lon="-1.29144333">
        <ele>1042.0</ele>
        <time>2019-07-31T09:07:42.169Z</time>
      </trkpt>
      <trkpt lat="43.00229333" lon="-1.291445">
        <ele>1042.0</ele>
        <time>2019-07-31T09:07:43.175Z</time>
      </trkpt>
      <trkpt lat="43.00230667" lon="-1.291445">
        <ele>1042.0</ele>
        <time>2019-07-31T09:07:44.179Z</time>
      </trkpt>
      <trkpt lat="43.00232167" lon="-1.29144667">
        <ele>1042.0</ele>
        <time>2019-07-31T09:07:45.184Z</time>
      </trkpt>
      <trkpt lat="43.00233667" lon="-1.291445">
        <ele>1042.0</ele>
        <time>2019-07-31T09:07:46.063Z</time>
      </trkpt>
      <trkpt lat="43.00235167" lon="-1.29144333">
        <ele>1042.0</ele>
        <time>2019-07-31T09:07:47.070Z</time>
      </trkpt>
      <trkpt lat="43.00236833" lon="-1.29144167">
        <ele>1042.0</ele>
        <time>2019-07-31T09:07:48.075Z</time>
      </trkpt>
      <trkpt lat="43.00238333" lon="-1.29144333">
        <ele>1042.0</ele>
        <time>2019-07-31T09:07:49.081Z</time>
      </trkpt>
      <trkpt lat="43.00239667" lon="-1.291445">
        <ele>1042.0</ele>
        <time>2019-07-31T09:07:50.086Z</time>
      </trkpt>
      <trkpt lat="43.00241167" lon="-1.29144667">
        <ele>1042.0</ele>
        <time>2019-07-31T09:07:51.093Z</time>
      </trkpt>
      <trkpt lat="43.00242667" lon="-1.29144833">
        <ele>1042.0</ele>
        <time>2019-07-31T09:07:52.098Z</time>
      </trkpt>
      <trkpt lat="43.00244" lon="-1.29144833">
        <ele>1042.0</ele>
        <time>2019-07-31T09:07:53.103Z</time>
      </trkpt>
      <trkpt lat="43.002455" lon="-1.29145">
        <ele>1042.0</ele>
        <time>2019-07-31T09:07:54.106Z</time>
      </trkpt>
      <trkpt lat="43.00247" lon="-1.29145">
        <ele>1042.0</ele>
        <time>2019-07-31T09:07:55.109Z</time>
      </trkpt>
      <trkpt lat="43.00248667" lon="-1.29144833">
        <ele>1043.0</ele>
        <time>2019-07-31T09:07:56.115Z</time>
      </trkpt>
      <trkpt lat="43.0025" lon="-1.29144833">
        <ele>1043.0</ele>
        <time>2019-07-31T09:07:57.121Z</time>
      </trkpt>
      <trkpt lat="43.002515" lon="-1.29144833">
        <ele>1043.0</ele>
        <time>2019-07-31T09:07:58.125Z</time>
      </trkpt>
      <trkpt lat="43.00253" lon="-1.29145">
        <ele>1044.0</ele>
        <time>2019-07-31T09:07:59.131Z</time>
      </trkpt>
      <trkpt lat="43.002545" lon="-1.29145333">
        <ele>1044.0</ele>
        <time>2019-07-31T09:08:00.137Z</time>
      </trkpt>
      <trkpt lat="43.00256" lon="-1.29145667">
        <ele>1044.0</ele>
        <time>2019-07-31T09:08:01.140Z</time>
      </trkpt>
      <trkpt lat="43.00257667" lon="-1.29146">
        <ele>1045.0</ele>
        <time>2019-07-31T09:08:02.146Z</time>
      </trkpt>
      <trkpt lat="43.00259167" lon="-1.29146333">
        <ele>1045.0</ele>
        <time>2019-07-31T09:08:03.152Z</time>
      </trkpt>
      <trkpt lat="43.00260667" lon="-1.29146333">
        <ele>1045.0</ele>
        <time>2019-07-31T09:08:04.157Z</time>
      </trkpt>
      <trkpt lat="43.002625" lon="-1.29146333">
        <ele>1045.0</ele>
        <time>2019-07-31T09:08:05.162Z</time>
      </trkpt>
      <trkpt lat="43.00264" lon="-1.29146167">
        <ele>1045.0</ele>
        <time>2019-07-31T09:08:06.167Z</time>
      </trkpt>
      <trkpt lat="43.00265667" lon="-1.29146333">
        <ele>1045.0</ele>
        <time>2019-07-31T09:08:07.173Z</time>
      </trkpt>
      <trkpt lat="43.00267167" lon="-1.291465">
        <ele>1046.0</ele>
        <time>2019-07-31T09:08:08.178Z</time>
      </trkpt>
      <trkpt lat="43.002685" lon="-1.291465">
        <ele>1046.0</ele>
        <time>2019-07-31T09:08:09.183Z</time>
      </trkpt>
      <trkpt lat="43.00270333" lon="-1.291465">
        <ele>1046.0</ele>
        <time>2019-07-31T09:08:10.064Z</time>
      </trkpt>
      <trkpt lat="43.00271833" lon="-1.29146333">
        <ele>1046.0</ele>
        <time>2019-07-31T09:08:11.068Z</time>
      </trkpt>
      <trkpt lat="43.00273333" lon="-1.29146667">
        <ele>1046.0</ele>
        <time>2019-07-31T09:08:12.074Z</time>
      </trkpt>
      <trkpt lat="43.00275" lon="-1.29147">
        <ele>1047.0</ele>
        <time>2019-07-31T09:08:13.081Z</time>
      </trkpt>
      <trkpt lat="43.00276333" lon="-1.29147333">
        <ele>1047.0</ele>
        <time>2019-07-31T09:08:14.087Z</time>
      </trkpt>
      <trkpt lat="43.00277833" lon="-1.29147667">
        <ele>1048.0</ele>
        <time>2019-07-31T09:08:15.091Z</time>
      </trkpt>
      <trkpt lat="43.00279333" lon="-1.29148">
        <ele>1048.0</ele>
        <time>2019-07-31T09:08:16.096Z</time>
      </trkpt>
      <trkpt lat="43.00280833" lon="-1.29148333">
        <ele>1048.0</ele>
        <time>2019-07-31T09:08:17.102Z</time>
      </trkpt>
      <trkpt lat="43.002825" lon="-1.291485">
        <ele>1048.0</ele>
        <time>2019-07-31T09:08:18.108Z</time>
      </trkpt>
      <trkpt lat="43.00284" lon="-1.29148833">
        <ele>1048.0</ele>
        <time>2019-07-31T09:08:19.113Z</time>
      </trkpt>
      <trkpt lat="43.00285667" lon="-1.29149333">
        <ele>1048.0</ele>
        <time>2019-07-31T09:08:20.119Z</time>
      </trkpt>
      <trkpt lat="43.00287167" lon="-1.291495">
        <ele>1048.0</ele>
        <time>2019-07-31T09:08:21.124Z</time>
      </trkpt>
      <trkpt lat="43.00288833" lon="-1.29149667">
        <ele>1048.0</ele>
        <time>2019-07-31T09:08:22.130Z</time>
      </trkpt>
      <trkpt lat="43.002905" lon="-1.29149833">
        <ele>1049.0</ele>
        <time>2019-07-31T09:08:23.136Z</time>
      </trkpt>
      <trkpt lat="43.00292167" lon="-1.29150167">
        <ele>1049.0</ele>
        <time>2019-07-31T09:08:24.142Z</time>
      </trkpt>
      <trkpt lat="43.00293667" lon="-1.29150333">
        <ele>1049.0</ele>
        <time>2019-07-31T09:08:25.148Z</time>
      </trkpt>
      <trkpt lat="43.00295167" lon="-1.29150667">
        <ele>1049.0</ele>
        <time>2019-07-31T09:08:26.155Z</time>
      </trkpt>
      <trkpt lat="43.00296667" lon="-1.29150833">
        <ele>1050.0</ele>
        <time>2019-07-31T09:08:27.161Z</time>
      </trkpt>
      <trkpt lat="43.00298" lon="-1.29151167">
        <ele>1050.0</ele>
        <time>2019-07-31T09:08:28.164Z</time>
      </trkpt>
      <trkpt lat="43.002995" lon="-1.291515">
        <ele>1050.0</ele>
        <time>2019-07-31T09:08:29.167Z</time>
      </trkpt>
      <trkpt lat="43.00301167" lon="-1.29151833">
        <ele>1051.0</ele>
        <time>2019-07-31T09:08:30.172Z</time>
      </trkpt>
      <trkpt lat="43.00302667" lon="-1.29152333">
        <ele>1051.0</ele>
        <time>2019-07-31T09:08:31.179Z</time>
      </trkpt>
      <trkpt lat="43.00304" lon="-1.29152667">
        <ele>1051.0</ele>
        <time>2019-07-31T09:08:32.185Z</time>
      </trkpt>
      <trkpt lat="43.003055" lon="-1.29153167">
        <ele>1052.0</ele>
        <time>2019-07-31T09:08:33.064Z</time>
      </trkpt>
      <trkpt lat="43.00307" lon="-1.291535">
        <ele>1052.0</ele>
        <time>2019-07-31T09:08:34.069Z</time>
      </trkpt>
      <trkpt lat="43.00308667" lon="-1.29154167">
        <ele>1053.0</ele>
        <time>2019-07-31T09:08:35.076Z</time>
      </trkpt>
      <trkpt lat="43.00310167" lon="-1.29154833">
        <ele>1053.0</ele>
        <time>2019-07-31T09:08:36.081Z</time>
      </trkpt>
      <trkpt lat="43.00311667" lon="-1.29155167">
        <ele>1053.0</ele>
        <time>2019-07-31T09:08:37.084Z</time>
      </trkpt>
      <trkpt lat="43.00313333" lon="-1.29155167">
        <ele>1053.0</ele>
        <time>2019-07-31T09:08:38.090Z</time>
      </trkpt>
      <trkpt lat="43.00315" lon="-1.29155333">
        <ele>1053.0</ele>
        <time>2019-07-31T09:08:39.097Z</time>
      </trkpt>
      <trkpt lat="43.00316667" lon="-1.29155667">
        <ele>1053.0</ele>
        <time>2019-07-31T09:08:40.102Z</time>
      </trkpt>
      <trkpt lat="43.00318167" lon="-1.29155833">
        <ele>1053.0</ele>
        <time>2019-07-31T09:08:41.109Z</time>
      </trkpt>
      <trkpt lat="43.00319333" lon="-1.29155667">
        <ele>1054.0</ele>
        <time>2019-07-31T09:08:42.114Z</time>
      </trkpt>
      <trkpt lat="43.00320667" lon="-1.291555">
        <ele>1055.0</ele>
        <time>2019-07-31T09:08:43.120Z</time>
      </trkpt>
      <trkpt lat="43.00322" lon="-1.29155">
        <ele>1055.0</ele>
        <time>2019-07-31T09:08:44.125Z</time>
      </trkpt>
      <trkpt lat="43.003235" lon="-1.29154833">
        <ele>1055.0</ele>
        <time>2019-07-31T09:08:45.132Z</time>
      </trkpt>
      <trkpt lat="43.00325" lon="-1.29154667">
        <ele>1056.0</ele>
        <time>2019-07-31T09:08:46.137Z</time>
      </trkpt>
      <trkpt lat="43.003265" lon="-1.291545">
        <ele>1056.0</ele>
        <time>2019-07-31T09:08:47.144Z</time>
      </trkpt>
      <trkpt lat="43.00328167" lon="-1.291545">
        <ele>1056.0</ele>
        <time>2019-07-31T09:08:48.151Z</time>
      </trkpt>
      <trkpt lat="43.00329667" lon="-1.29154333">
        <ele>1056.0</ele>
        <time>2019-07-31T09:08:49.157Z</time>
      </trkpt>
      <trkpt lat="43.00331" lon="-1.291535">
        <ele>1056.0</ele>
        <time>2019-07-31T09:08:50.161Z</time>
      </trkpt>
      <trkpt lat="43.00332333" lon="-1.29153">
        <ele>1056.0</ele>
        <time>2019-07-31T09:08:51.166Z</time>
      </trkpt>
      <trkpt lat="43.00333667" lon="-1.29152333">
        <ele>1057.0</ele>
        <time>2019-07-31T09:08:52.171Z</time>
      </trkpt>
      <trkpt lat="43.00335" lon="-1.29151167">
        <ele>1058.0</ele>
        <time>2019-07-31T09:08:53.176Z</time>
      </trkpt>
      <trkpt lat="43.00336333" lon="-1.29150667">
        <ele>1058.0</ele>
        <time>2019-07-31T09:08:54.181Z</time>
      </trkpt>
      <trkpt lat="43.00337667" lon="-1.29150167">
        <ele>1058.0</ele>
        <time>2019-07-31T09:08:55.062Z</time>
      </trkpt>
      <trkpt lat="43.00338833" lon="-1.29149667">
        <ele>1058.0</ele>
        <time>2019-07-31T09:08:56.068Z</time>
      </trkpt>
      <trkpt lat="43.0034" lon="-1.29149333">
        <ele>1059.0</ele>
        <time>2019-07-31T09:08:57.073Z</time>
      </trkpt>
      <trkpt lat="43.00340833" lon="-1.29148833">
        <ele>1059.0</ele>
        <time>2019-07-31T09:08:58.079Z</time>
      </trkpt>
      <trkpt lat="43.00341833" lon="-1.29148167">
        <ele>1060.0</ele>
        <time>2019-07-31T09:08:59.083Z</time>
      </trkpt>
      <trkpt lat="43.00342833" lon="-1.29147167">
        <ele>1061.0</ele>
        <time>2019-07-31T09:09:00.089Z</time>
      </trkpt>
      <trkpt lat="43.00344" lon="-1.29146167">
        <ele>1061.0</ele>
        <time>2019-07-31T09:09:01.095Z</time>
      </trkpt>
      <trkpt lat="43.00345333" lon="-1.29144833">
        <ele>1061.0</ele>
        <time>2019-07-31T09:09:02.102Z</time>
      </trkpt>
      <trkpt lat="43.00346667" lon="-1.29143667">
        <ele>1061.0</ele>
        <time>2019-07-31T09:09:03.106Z</time>
      </trkpt>
      <trkpt lat="43.00348167" lon="-1.29142">
        <ele>1061.0</ele>
        <time>2019-07-31T09:09:04.111Z</time>
      </trkpt>
      <trkpt lat="43.003495" lon="-1.29140333">
        <ele>1060.0</ele>
        <time>2019-07-31T09:09:05.114Z</time>
      </trkpt>
      <trkpt lat="43.00350667" lon="-1.29139167">
        <ele>1061.0</ele>
        <time>2019-07-31T09:09:06.120Z</time>
      </trkpt>
      <trkpt lat="43.00352" lon="-1.29138167">
        <ele>1061.0</ele>
        <time>2019-07-31T09:09:07.123Z</time>
      </trkpt>
      <trkpt lat="43.00353" lon="-1.29137167">
        <ele>1061.0</ele>
        <time>2019-07-31T09:09:08.128Z</time>
      </trkpt>
      <trkpt lat="43.00353833" lon="-1.29135833">
        <ele>1061.0</ele>
        <time>2019-07-31T09:09:09.134Z</time>
      </trkpt>
      <trkpt lat="43.00354667" lon="-1.29134333">
        <ele>1062.0</ele>
        <time>2019-07-31T09:09:10.139Z</time>
      </trkpt>
      <trkpt lat="43.00355833" lon="-1.29132333">
        <ele>1061.0</ele>
        <time>2019-07-31T09:09:11.146Z</time>
      </trkpt>
      <trkpt lat="43.00356833" lon="-1.2913">
        <ele>1061.0</ele>
        <time>2019-07-31T09:09:12.152Z</time>
      </trkpt>
      <trkpt lat="43.00357667" lon="-1.291275">
        <ele>1062.0</ele>
        <time>2019-07-31T09:09:13.158Z</time>
      </trkpt>
      <trkpt lat="43.003585" lon="-1.29125167">
        <ele>1062.0</ele>
        <time>2019-07-31T09:09:14.162Z</time>
      </trkpt>
      <trkpt lat="43.003595" lon="-1.29123333">
        <ele>1062.0</ele>
        <time>2019-07-31T09:09:15.166Z</time>
      </trkpt>
      <trkpt lat="43.00360167" lon="-1.29121833">
        <ele>1062.0</ele>
        <time>2019-07-31T09:09:16.172Z</time>
      </trkpt>
      <trkpt lat="43.00361" lon="-1.29120167">
        <ele>1063.0</ele>
        <time>2019-07-31T09:09:17.175Z</time>
      </trkpt>
      <trkpt lat="43.00362" lon="-1.29118333">
        <ele>1064.0</ele>
        <time>2019-07-31T09:09:18.180Z</time>
      </trkpt>
      <trkpt lat="43.00363" lon="-1.291165">
        <ele>1065.0</ele>
        <time>2019-07-31T09:09:19.186Z</time>
      </trkpt>
      <trkpt lat="43.00363333" lon="-1.29115167">
        <ele>1066.0</ele>
        <time>2019-07-31T09:09:20.065Z</time>
      </trkpt>
      <trkpt lat="43.003635" lon="-1.291135">
        <ele>1067.0</ele>
        <time>2019-07-31T09:09:21.070Z</time>
      </trkpt>
      <trkpt lat="43.00364" lon="-1.29111167">
        <ele>1068.0</ele>
        <time>2019-07-31T09:09:22.076Z</time>
      </trkpt>
      <trkpt lat="43.00364833" lon="-1.291085">
        <ele>1068.0</ele>
        <time>2019-07-31T09:09:23.082Z</time>
      </trkpt>
      <trkpt lat="43.003655" lon="-1.29105833">
        <ele>1069.0</ele>
        <time>2019-07-31T09:09:24.087Z</time>
      </trkpt>
      <trkpt lat="43.00366333" lon="-1.291035">
        <ele>1070.0</ele>
        <time>2019-07-31T09:09:25.091Z</time>
      </trkpt>
      <trkpt lat="43.00367167" lon="-1.29101">
        <ele>1070.0</ele>
        <time>2019-07-31T09:09:26.096Z</time>
      </trkpt>
      <trkpt lat="43.00367667" lon="-1.29098333">
        <ele>1070.0</ele>
        <time>2019-07-31T09:09:27.103Z</time>
      </trkpt>
      <trkpt lat="43.00368" lon="-1.290955">
        <ele>1070.0</ele>
        <time>2019-07-31T09:09:28.109Z</time>
      </trkpt>
      <trkpt lat="43.00368" lon="-1.29092">
        <ele>1069.0</ele>
        <time>2019-07-31T09:09:29.114Z</time>
      </trkpt>
      <trkpt lat="43.00367833" lon="-1.29088833">
        <ele>1067.0</ele>
        <time>2019-07-31T09:09:30.121Z</time>
      </trkpt>
      <trkpt lat="43.00368" lon="-1.29086167">
        <ele>1067.0</ele>
        <time>2019-07-31T09:09:31.124Z</time>
      </trkpt>
      <trkpt lat="43.00367667" lon="-1.29083833">
        <ele>1066.0</ele>
        <time>2019-07-31T09:09:32.129Z</time>
      </trkpt>
      <trkpt lat="43.00367667" lon="-1.29081333">
        <ele>1066.0</ele>
        <time>2019-07-31T09:09:33.136Z</time>
      </trkpt>
      <trkpt lat="43.00367333" lon="-1.29078667">
        <ele>1066.0</ele>
        <time>2019-07-31T09:09:34.142Z</time>
      </trkpt>
      <trkpt lat="43.003665" lon="-1.29076667">
        <ele>1066.0</ele>
        <time>2019-07-31T09:09:35.148Z</time>
      </trkpt>
      <trkpt lat="43.00366333" lon="-1.29073667">
        <ele>1066.0</ele>
        <time>2019-07-31T09:09:36.152Z</time>
      </trkpt>
      <trkpt lat="43.00366167" lon="-1.29071667">
        <ele>1066.0</ele>
        <time>2019-07-31T09:09:37.159Z</time>
      </trkpt>
      <trkpt lat="43.00365833" lon="-1.29069">
        <ele>1066.0</ele>
        <time>2019-07-31T09:09:38.165Z</time>
      </trkpt>
      <trkpt lat="43.003655" lon="-1.29067">
        <ele>1065.0</ele>
        <time>2019-07-31T09:09:39.168Z</time>
      </trkpt>
      <trkpt lat="43.003655" lon="-1.290655">
        <ele>1065.0</ele>
        <time>2019-07-31T09:09:40.174Z</time>
      </trkpt>
      <trkpt lat="43.00365333" lon="-1.29063833">
        <ele>1066.0</ele>
        <time>2019-07-31T09:09:41.178Z</time>
      </trkpt>
      <trkpt lat="43.003655" lon="-1.29061833">
        <ele>1066.0</ele>
        <time>2019-07-31T09:09:42.181Z</time>
      </trkpt>
      <trkpt lat="43.00366" lon="-1.29059667">
        <ele>1065.0</ele>
        <time>2019-07-31T09:09:43.061Z</time>
      </trkpt>
      <trkpt lat="43.003655" lon="-1.29057833">
        <ele>1066.0</ele>
        <time>2019-07-31T09:09:44.068Z</time>
      </trkpt>
      <trkpt lat="43.00365" lon="-1.29056333">
        <ele>1066.0</ele>
        <time>2019-07-31T09:09:45.072Z</time>
      </trkpt>
      <trkpt lat="43.003645" lon="-1.29054167">
        <ele>1066.0</ele>
        <time>2019-07-31T09:09:46.075Z</time>
      </trkpt>
      <trkpt lat="43.00363833" lon="-1.290525">
        <ele>1066.0</ele>
        <time>2019-07-31T09:09:47.080Z</time>
      </trkpt>
      <trkpt lat="43.003635" lon="-1.290505">
        <ele>1066.0</ele>
        <time>2019-07-31T09:09:48.087Z</time>
      </trkpt>
      <trkpt lat="43.00363167" lon="-1.290485">
        <ele>1065.0</ele>
        <time>2019-07-31T09:09:49.091Z</time>
      </trkpt>
      <trkpt lat="43.00363" lon="-1.29046333">
        <ele>1066.0</ele>
        <time>2019-07-31T09:09:50.098Z</time>
      </trkpt>
      <trkpt lat="43.00362333" lon="-1.290445">
        <ele>1066.0</ele>
        <time>2019-07-31T09:09:51.103Z</time>
      </trkpt>
      <trkpt lat="43.00361833" lon="-1.29042667">
        <ele>1065.0</ele>
        <time>2019-07-31T09:09:52.110Z</time>
      </trkpt>
      <trkpt lat="43.00361" lon="-1.29040667">
        <ele>1065.0</ele>
        <time>2019-07-31T09:09:53.116Z</time>
      </trkpt>
      <trkpt lat="43.003605" lon="-1.290385">
        <ele>1066.0</ele>
        <time>2019-07-31T09:09:54.122Z</time>
      </trkpt>
      <trkpt lat="43.00359833" lon="-1.290365">
        <ele>1066.0</ele>
        <time>2019-07-31T09:09:55.127Z</time>
      </trkpt>
      <trkpt lat="43.00359667" lon="-1.29034333">
        <ele>1066.0</ele>
        <time>2019-07-31T09:09:56.132Z</time>
      </trkpt>
      <trkpt lat="43.00359667" lon="-1.29032333">
        <ele>1066.0</ele>
        <time>2019-07-31T09:09:57.139Z</time>
      </trkpt>
      <trkpt lat="43.003595" lon="-1.2903">
        <ele>1065.0</ele>
        <time>2019-07-31T09:09:58.145Z</time>
      </trkpt>
      <trkpt lat="43.003595" lon="-1.29027667">
        <ele>1066.0</ele>
        <time>2019-07-31T09:09:59.151Z</time>
      </trkpt>
      <trkpt lat="43.00359167" lon="-1.290255">
        <ele>1066.0</ele>
        <time>2019-07-31T09:10:00.156Z</time>
      </trkpt>
      <trkpt lat="43.00359" lon="-1.29022833">
        <ele>1066.0</ele>
        <time>2019-07-31T09:10:01.161Z</time>
      </trkpt>
      <trkpt lat="43.00358833" lon="-1.290205">
        <ele>1066.0</ele>
        <time>2019-07-31T09:10:02.167Z</time>
      </trkpt>
      <trkpt lat="43.003585" lon="-1.29017833">
        <ele>1067.0</ele>
        <time>2019-07-31T09:10:03.174Z</time>
      </trkpt>
      <trkpt lat="43.00358" lon="-1.29015333">
        <ele>1067.0</ele>
        <time>2019-07-31T09:10:04.179Z</time>
      </trkpt>
      <trkpt lat="43.00358" lon="-1.29013167">
        <ele>1067.0</ele>
        <time>2019-07-31T09:10:05.186Z</time>
      </trkpt>
      <trkpt lat="43.00358167" lon="-1.29010833">
        <ele>1066.0</ele>
        <time>2019-07-31T09:10:06.066Z</time>
      </trkpt>
      <trkpt lat="43.00358333" lon="-1.29008">
        <ele>1066.0</ele>
        <time>2019-07-31T09:10:07.071Z</time>
      </trkpt>
      <trkpt lat="43.00358333" lon="-1.29005333">
        <ele>1065.0</ele>
        <time>2019-07-31T09:10:08.075Z</time>
      </trkpt>
      <trkpt lat="43.00358167" lon="-1.29002667">
        <ele>1065.0</ele>
        <time>2019-07-31T09:10:09.080Z</time>
      </trkpt>
      <trkpt lat="43.003585" lon="-1.29000667">
        <ele>1064.0</ele>
        <time>2019-07-31T09:10:10.084Z</time>
      </trkpt>
      <trkpt lat="43.00358667" lon="-1.28998333">
        <ele>1064.0</ele>
        <time>2019-07-31T09:10:11.086Z</time>
      </trkpt>
      <trkpt lat="43.00358833" lon="-1.289965">
        <ele>1064.0</ele>
        <time>2019-07-31T09:10:12.091Z</time>
      </trkpt>
      <trkpt lat="43.00359167" lon="-1.28994">
        <ele>1064.0</ele>
        <time>2019-07-31T09:10:13.098Z</time>
      </trkpt>
      <trkpt lat="43.00359667" lon="-1.28991">
        <ele>1064.0</ele>
        <time>2019-07-31T09:10:14.104Z</time>
      </trkpt>
      <trkpt lat="43.00359667" lon="-1.28988667">
        <ele>1064.0</ele>
        <time>2019-07-31T09:10:15.108Z</time>
      </trkpt>
      <trkpt lat="43.00359833" lon="-1.28986333">
        <ele>1064.0</ele>
        <time>2019-07-31T09:10:16.112Z</time>
      </trkpt>
      <trkpt lat="43.00359833" lon="-1.28984167">
        <ele>1065.0</ele>
        <time>2019-07-31T09:10:17.120Z</time>
      </trkpt>
      <trkpt lat="43.0036" lon="-1.28982167">
        <ele>1065.0</ele>
        <time>2019-07-31T09:10:18.125Z</time>
      </trkpt>
      <trkpt lat="43.00360333" lon="-1.2898">
        <ele>1065.0</ele>
        <time>2019-07-31T09:10:19.130Z</time>
      </trkpt>
      <trkpt lat="43.003605" lon="-1.28977833">
        <ele>1065.0</ele>
        <time>2019-07-31T09:10:20.135Z</time>
      </trkpt>
      <trkpt lat="43.00360833" lon="-1.28975333">
        <ele>1065.0</ele>
        <time>2019-07-31T09:10:21.141Z</time>
      </trkpt>
      <trkpt lat="43.00361167" lon="-1.28973167">
        <ele>1065.0</ele>
        <time>2019-07-31T09:10:22.148Z</time>
      </trkpt>
      <trkpt lat="43.003615" lon="-1.28970833">
        <ele>1065.0</ele>
        <time>2019-07-31T09:10:23.154Z</time>
      </trkpt>
      <trkpt lat="43.00362" lon="-1.28968667">
        <ele>1065.0</ele>
        <time>2019-07-31T09:10:24.159Z</time>
      </trkpt>
      <trkpt lat="43.003625" lon="-1.289665">
        <ele>1065.0</ele>
        <time>2019-07-31T09:10:25.163Z</time>
      </trkpt>
      <trkpt lat="43.00363" lon="-1.28964">
        <ele>1065.0</ele>
        <time>2019-07-31T09:10:26.170Z</time>
      </trkpt>
      <trkpt lat="43.00363667" lon="-1.289615">
        <ele>1065.0</ele>
        <time>2019-07-31T09:10:27.174Z</time>
      </trkpt>
      <trkpt lat="43.003645" lon="-1.28959667">
        <ele>1065.0</ele>
        <time>2019-07-31T09:10:28.177Z</time>
      </trkpt>
      <trkpt lat="43.00364833" lon="-1.28957833">
        <ele>1064.0</ele>
        <time>2019-07-31T09:10:29.182Z</time>
      </trkpt>
      <trkpt lat="43.00365667" lon="-1.28955667">
        <ele>1064.0</ele>
        <time>2019-07-31T09:10:30.061Z</time>
      </trkpt>
      <trkpt lat="43.00366333" lon="-1.28953833">
        <ele>1063.0</ele>
        <time>2019-07-31T09:10:31.064Z</time>
      </trkpt>
      <trkpt lat="43.00367" lon="-1.28951833">
        <ele>1063.0</ele>
        <time>2019-07-31T09:10:32.067Z</time>
      </trkpt>
      <trkpt lat="43.00367667" lon="-1.2895">
        <ele>1063.0</ele>
        <time>2019-07-31T09:10:33.073Z</time>
      </trkpt>
      <trkpt lat="43.00368333" lon="-1.28948">
        <ele>1063.0</ele>
        <time>2019-07-31T09:10:34.079Z</time>
      </trkpt>
      <trkpt lat="43.00368667" lon="-1.28946333">
        <ele>1063.0</ele>
        <time>2019-07-31T09:10:35.084Z</time>
      </trkpt>
      <trkpt lat="43.00369167" lon="-1.28944333">
        <ele>1063.0</ele>
        <time>2019-07-31T09:10:36.086Z</time>
      </trkpt>
      <trkpt lat="43.00369833" lon="-1.28942667">
        <ele>1063.0</ele>
        <time>2019-07-31T09:10:37.088Z</time>
      </trkpt>
      <trkpt lat="43.00370667" lon="-1.28941">
        <ele>1063.0</ele>
        <time>2019-07-31T09:10:38.093Z</time>
      </trkpt>
      <trkpt lat="43.003715" lon="-1.289395">
        <ele>1063.0</ele>
        <time>2019-07-31T09:10:39.099Z</time>
      </trkpt>
      <trkpt lat="43.00372333" lon="-1.28937667">
        <ele>1063.0</ele>
        <time>2019-07-31T09:10:40.104Z</time>
      </trkpt>
      <trkpt lat="43.00373333" lon="-1.28936">
        <ele>1063.0</ele>
        <time>2019-07-31T09:10:41.111Z</time>
      </trkpt>
      <trkpt lat="43.00374333" lon="-1.28934167">
        <ele>1063.0</ele>
        <time>2019-07-31T09:10:42.118Z</time>
      </trkpt>
      <trkpt lat="43.003755" lon="-1.28932667">
        <ele>1062.0</ele>
        <time>2019-07-31T09:10:43.122Z</time>
      </trkpt>
      <trkpt lat="43.00376667" lon="-1.28930833">
        <ele>1062.0</ele>
        <time>2019-07-31T09:10:44.127Z</time>
      </trkpt>
      <trkpt lat="43.003775" lon="-1.28929">
        <ele>1062.0</ele>
        <time>2019-07-31T09:10:45.132Z</time>
      </trkpt>
      <trkpt lat="43.003785" lon="-1.28927">
        <ele>1062.0</ele>
        <time>2019-07-31T09:10:46.138Z</time>
      </trkpt>
      <trkpt lat="43.003795" lon="-1.28924833">
        <ele>1062.0</ele>
        <time>2019-07-31T09:10:47.145Z</time>
      </trkpt>
      <trkpt lat="43.00380333" lon="-1.28922667">
        <ele>1062.0</ele>
        <time>2019-07-31T09:10:48.152Z</time>
      </trkpt>
      <trkpt lat="43.00381167" lon="-1.28920833">
        <ele>1062.0</ele>
        <time>2019-07-31T09:10:49.157Z</time>
      </trkpt>
      <trkpt lat="43.00382" lon="-1.28918833">
        <ele>1062.0</ele>
        <time>2019-07-31T09:10:50.162Z</time>
      </trkpt>
      <trkpt lat="43.00383" lon="-1.28917">
        <ele>1062.0</ele>
        <time>2019-07-31T09:10:51.168Z</time>
      </trkpt>
      <trkpt lat="43.00384" lon="-1.28915333">
        <ele>1062.0</ele>
        <time>2019-07-31T09:10:52.175Z</time>
      </trkpt>
      <trkpt lat="43.00385167" lon="-1.28913833">
        <ele>1062.0</ele>
        <time>2019-07-31T09:10:53.180Z</time>
      </trkpt>
      <trkpt lat="43.00386333" lon="-1.289125">
        <ele>1061.0</ele>
        <time>2019-07-31T09:10:54.184Z</time>
      </trkpt>
      <trkpt lat="43.003875" lon="-1.28910833">
        <ele>1062.0</ele>
        <time>2019-07-31T09:10:55.063Z</time>
      </trkpt>
      <trkpt lat="43.003885" lon="-1.28909">
        <ele>1062.0</ele>
        <time>2019-07-31T09:10:56.069Z</time>
      </trkpt>
      <trkpt lat="43.0039" lon="-1.28907333">
        <ele>1062.0</ele>
        <time>2019-07-31T09:10:57.074Z</time>
      </trkpt>
      <trkpt lat="43.00391" lon="-1.289055">
        <ele>1062.0</ele>
        <time>2019-07-31T09:10:58.082Z</time>
      </trkpt>
      <trkpt lat="43.00392333" lon="-1.28904333">
        <ele>1061.0</ele>
        <time>2019-07-31T09:10:59.086Z</time>
      </trkpt>
      <trkpt lat="43.003935" lon="-1.28903">
        <ele>1061.0</ele>
        <time>2019-07-31T09:11:00.092Z</time>
      </trkpt>
      <trkpt lat="43.00394667" lon="-1.28901833">
        <ele>1061.0</ele>
        <time>2019-07-31T09:11:01.099Z</time>
      </trkpt>
      <trkpt lat="43.00395833" lon="-1.28900667">
        <ele>1062.0</ele>
        <time>2019-07-31T09:11:02.104Z</time>
      </trkpt>
      <trkpt lat="43.00396833" lon="-1.28899333">
        <ele>1062.0</ele>
        <time>2019-07-31T09:11:03.111Z</time>
      </trkpt>
      <trkpt lat="43.00398" lon="-1.28898167">
        <ele>1062.0</ele>
        <time>2019-07-31T09:11:04.118Z</time>
      </trkpt>
      <trkpt lat="43.00399167" lon="-1.28896667">
        <ele>1062.0</ele>
        <time>2019-07-31T09:11:05.124Z</time>
      </trkpt>
      <trkpt lat="43.004005" lon="-1.28895667">
        <ele>1062.0</ele>
        <time>2019-07-31T09:11:06.130Z</time>
      </trkpt>
      <trkpt lat="43.00401833" lon="-1.28894667">
        <ele>1061.0</ele>
        <time>2019-07-31T09:11:07.137Z</time>
      </trkpt>
      <trkpt lat="43.00403167" lon="-1.28893833">
        <ele>1061.0</ele>
        <time>2019-07-31T09:11:08.142Z</time>
      </trkpt>
      <trkpt lat="43.00404333" lon="-1.28892833">
        <ele>1060.0</ele>
        <time>2019-07-31T09:11:09.148Z</time>
      </trkpt>
      <trkpt lat="43.00405667" lon="-1.28891833">
        <ele>1060.0</ele>
        <time>2019-07-31T09:11:10.154Z</time>
      </trkpt>
      <trkpt lat="43.00407" lon="-1.28890667">
        <ele>1060.0</ele>
        <time>2019-07-31T09:11:11.161Z</time>
      </trkpt>
      <trkpt lat="43.004085" lon="-1.28889833">
        <ele>1060.0</ele>
        <time>2019-07-31T09:11:12.167Z</time>
      </trkpt>
      <trkpt lat="43.00409833" lon="-1.28889">
        <ele>1059.0</ele>
        <time>2019-07-31T09:11:13.173Z</time>
      </trkpt>
      <trkpt lat="43.00411" lon="-1.28888">
        <ele>1059.0</ele>
        <time>2019-07-31T09:11:14.179Z</time>
      </trkpt>
      <trkpt lat="43.004125" lon="-1.28886833">
        <ele>1059.0</ele>
        <time>2019-07-31T09:11:15.183Z</time>
      </trkpt>
      <trkpt lat="43.00413833" lon="-1.28885833">
        <ele>1059.0</ele>
        <time>2019-07-31T09:11:16.063Z</time>
      </trkpt>
      <trkpt lat="43.004155" lon="-1.28885">
        <ele>1058.0</ele>
        <time>2019-07-31T09:11:17.068Z</time>
      </trkpt>
      <trkpt lat="43.00417" lon="-1.28883833">
        <ele>1058.0</ele>
        <time>2019-07-31T09:11:18.073Z</time>
      </trkpt>
      <trkpt lat="43.004185" lon="-1.28882833">
        <ele>1057.0</ele>
        <time>2019-07-31T09:11:19.080Z</time>
      </trkpt>
      <trkpt lat="43.0042" lon="-1.28882">
        <ele>1057.0</ele>
        <time>2019-07-31T09:11:20.084Z</time>
      </trkpt>
      <trkpt lat="43.00421333" lon="-1.288815">
        <ele>1058.0</ele>
        <time>2019-07-31T09:11:21.088Z</time>
      </trkpt>
      <trkpt lat="43.00422833" lon="-1.28880833">
        <ele>1058.0</ele>
        <time>2019-07-31T09:11:22.093Z</time>
      </trkpt>
      <trkpt lat="43.004245" lon="-1.28880333">
        <ele>1058.0</ele>
        <time>2019-07-31T09:11:23.099Z</time>
      </trkpt>
      <trkpt lat="43.00426" lon="-1.28879833">
        <ele>1058.0</ele>
        <time>2019-07-31T09:11:24.105Z</time>
      </trkpt>
      <trkpt lat="43.004275" lon="-1.28879333">
        <ele>1059.0</ele>
        <time>2019-07-31T09:11:25.111Z</time>
      </trkpt>
      <trkpt lat="43.00428833" lon="-1.28879">
        <ele>1059.0</ele>
        <time>2019-07-31T09:11:26.116Z</time>
      </trkpt>
      <trkpt lat="43.00430667" lon="-1.28878333">
        <ele>1059.0</ele>
        <time>2019-07-31T09:11:27.122Z</time>
      </trkpt>
      <trkpt lat="43.00432333" lon="-1.28877833">
        <ele>1059.0</ele>
        <time>2019-07-31T09:11:28.127Z</time>
      </trkpt>
      <trkpt lat="43.00434" lon="-1.28877333">
        <ele>1059.0</ele>
        <time>2019-07-31T09:11:29.131Z</time>
      </trkpt>
      <trkpt lat="43.004355" lon="-1.28877">
        <ele>1059.0</ele>
        <time>2019-07-31T09:11:30.137Z</time>
      </trkpt>
      <trkpt lat="43.00437167" lon="-1.28876167">
        <ele>1058.0</ele>
        <time>2019-07-31T09:11:31.144Z</time>
      </trkpt>
      <trkpt lat="43.004385" lon="-1.288755">
        <ele>1058.0</ele>
        <time>2019-07-31T09:11:32.149Z</time>
      </trkpt>
      <trkpt lat="43.00440167" lon="-1.28875">
        <ele>1059.0</ele>
        <time>2019-07-31T09:11:33.155Z</time>
      </trkpt>
      <trkpt lat="43.00441667" lon="-1.28874667">
        <ele>1059.0</ele>
        <time>2019-07-31T09:11:34.162Z</time>
      </trkpt>
      <trkpt lat="43.00443167" lon="-1.28874333">
        <ele>1059.0</ele>
        <time>2019-07-31T09:11:35.166Z</time>
      </trkpt>
      <trkpt lat="43.00444833" lon="-1.28874167">
        <ele>1059.0</ele>
        <time>2019-07-31T09:11:36.171Z</time>
      </trkpt>
      <trkpt lat="43.00446333" lon="-1.28874167">
        <ele>1059.0</ele>
        <time>2019-07-31T09:11:37.178Z</time>
      </trkpt>
      <trkpt lat="43.00447833" lon="-1.28874">
        <ele>1059.0</ele>
        <time>2019-07-31T09:11:38.183Z</time>
      </trkpt>
      <trkpt lat="43.004495" lon="-1.28873833">
        <ele>1059.0</ele>
        <time>2019-07-31T09:11:39.063Z</time>
      </trkpt>
      <trkpt lat="43.00451167" lon="-1.28873667">
        <ele>1059.0</ele>
        <time>2019-07-31T09:11:40.070Z</time>
      </trkpt>
      <trkpt lat="43.00452667" lon="-1.28873667">
        <ele>1059.0</ele>
        <time>2019-07-31T09:11:41.075Z</time>
      </trkpt>
      <trkpt lat="43.00453667" lon="-1.28873833">
        <ele>1060.0</ele>
        <time>2019-07-31T09:11:42.080Z</time>
      </trkpt>
      <trkpt lat="43.00454667" lon="-1.28874">
        <ele>1060.0</ele>
        <time>2019-07-31T09:11:43.085Z</time>
      </trkpt>
      <trkpt lat="43.00456" lon="-1.28874">
        <ele>1061.0</ele>
        <time>2019-07-31T09:11:44.091Z</time>
      </trkpt>
      <trkpt lat="43.00457333" lon="-1.28873833">
        <ele>1061.0</ele>
        <time>2019-07-31T09:11:45.096Z</time>
      </trkpt>
      <trkpt lat="43.00459" lon="-1.28874167">
        <ele>1062.0</ele>
        <time>2019-07-31T09:11:46.101Z</time>
      </trkpt>
      <trkpt lat="43.004605" lon="-1.28874667">
        <ele>1063.0</ele>
        <time>2019-07-31T09:11:47.105Z</time>
      </trkpt>
      <trkpt lat="43.00462167" lon="-1.28875">
        <ele>1063.0</ele>
        <time>2019-07-31T09:11:48.112Z</time>
      </trkpt>
      <trkpt lat="43.00464" lon="-1.28875333">
        <ele>1063.0</ele>
        <time>2019-07-31T09:11:49.118Z</time>
      </trkpt>
      <trkpt lat="43.004655" lon="-1.288765">
        <ele>1064.0</ele>
        <time>2019-07-31T09:11:50.124Z</time>
      </trkpt>
      <trkpt lat="43.00466833" lon="-1.288775">
        <ele>1064.0</ele>
        <time>2019-07-31T09:11:51.128Z</time>
      </trkpt>
      <trkpt lat="43.00468333" lon="-1.28878">
        <ele>1065.0</ele>
        <time>2019-07-31T09:11:52.135Z</time>
      </trkpt>
      <trkpt lat="43.0047" lon="-1.28878167">
        <ele>1064.0</ele>
        <time>2019-07-31T09:11:53.140Z</time>
      </trkpt>
      <trkpt lat="43.00471833" lon="-1.28877667">
        <ele>1064.0</ele>
        <time>2019-07-31T09:11:54.143Z</time>
      </trkpt>
      <trkpt lat="43.00473833" lon="-1.28876667">
        <ele>1064.0</ele>
        <time>2019-07-31T09:11:55.148Z</time>
      </trkpt>
      <trkpt lat="43.00475833" lon="-1.28876333">
        <ele>1063.0</ele>
        <time>2019-07-31T09:11:56.152Z</time>
      </trkpt>
      <trkpt lat="43.004775" lon="-1.28877">
        <ele>1063.0</ele>
        <time>2019-07-31T09:11:57.156Z</time>
      </trkpt>
      <trkpt lat="43.00479" lon="-1.28877667">
        <ele>1062.0</ele>
        <time>2019-07-31T09:11:58.160Z</time>
      </trkpt>
      <trkpt lat="43.00480333" lon="-1.28878667">
        <ele>1062.0</ele>
        <time>2019-07-31T09:11:59.166Z</time>
      </trkpt>
      <trkpt lat="43.00481667" lon="-1.28879667">
        <ele>1061.0</ele>
        <time>2019-07-31T09:12:00.169Z</time>
      </trkpt>
      <trkpt lat="43.00483" lon="-1.288805">
        <ele>1061.0</ele>
        <time>2019-07-31T09:12:01.176Z</time>
      </trkpt>
      <trkpt lat="43.004845" lon="-1.28881333">
        <ele>1061.0</ele>
        <time>2019-07-31T09:12:02.181Z</time>
      </trkpt>
      <trkpt lat="43.00486" lon="-1.28882">
        <ele>1061.0</ele>
        <time>2019-07-31T09:12:03.062Z</time>
      </trkpt>
      <trkpt lat="43.00487333" lon="-1.288825">
        <ele>1061.0</ele>
        <time>2019-07-31T09:12:04.067Z</time>
      </trkpt>
      <trkpt lat="43.00488833" lon="-1.28882833">
        <ele>1062.0</ele>
        <time>2019-07-31T09:12:05.072Z</time>
      </trkpt>
      <trkpt lat="43.00490667" lon="-1.28883">
        <ele>1063.0</ele>
        <time>2019-07-31T09:12:06.078Z</time>
      </trkpt>
      <trkpt lat="43.00492667" lon="-1.28883">
        <ele>1063.0</ele>
        <time>2019-07-31T09:12:07.083Z</time>
      </trkpt>
      <trkpt lat="43.00494667" lon="-1.28881833">
        <ele>1063.0</ele>
        <time>2019-07-31T09:12:08.087Z</time>
      </trkpt>
      <trkpt lat="43.004965" lon="-1.2888">
        <ele>1063.0</ele>
        <time>2019-07-31T09:12:09.093Z</time>
      </trkpt>
      <trkpt lat="43.00497667" lon="-1.28877667">
        <ele>1063.0</ele>
        <time>2019-07-31T09:12:10.099Z</time>
      </trkpt>
      <trkpt lat="43.00498333" lon="-1.28875">
        <ele>1063.0</ele>
        <time>2019-07-31T09:12:11.105Z</time>
      </trkpt>
      <trkpt lat="43.004985" lon="-1.28872667">
        <ele>1062.0</ele>
        <time>2019-07-31T09:12:12.111Z</time>
      </trkpt>
      <trkpt lat="43.004985" lon="-1.28870333">
        <ele>1061.0</ele>
        <time>2019-07-31T09:12:13.117Z</time>
      </trkpt>
      <trkpt lat="43.00498167" lon="-1.28867667">
        <ele>1061.0</ele>
        <time>2019-07-31T09:12:14.122Z</time>
      </trkpt>
      <trkpt lat="43.00498167" lon="-1.28864833">
        <ele>1060.0</ele>
        <time>2019-07-31T09:12:15.127Z</time>
      </trkpt>
      <trkpt lat="43.00498167" lon="-1.28861667">
        <ele>1061.0</ele>
        <time>2019-07-31T09:12:16.131Z</time>
      </trkpt>
      <trkpt lat="43.004985" lon="-1.28858333">
        <ele>1060.0</ele>
        <time>2019-07-31T09:12:17.133Z</time>
      </trkpt>
      <trkpt lat="43.00499" lon="-1.28855167">
        <ele>1059.0</ele>
        <time>2019-07-31T09:12:18.139Z</time>
      </trkpt>
      <trkpt lat="43.00499" lon="-1.28852">
        <ele>1059.0</ele>
        <time>2019-07-31T09:12:19.145Z</time>
      </trkpt>
      <trkpt lat="43.00499" lon="-1.28849167">
        <ele>1059.0</ele>
        <time>2019-07-31T09:12:20.151Z</time>
      </trkpt>
      <trkpt lat="43.00499" lon="-1.28846167">
        <ele>1060.0</ele>
        <time>2019-07-31T09:12:21.157Z</time>
      </trkpt>
      <trkpt lat="43.004985" lon="-1.28844">
        <ele>1060.0</ele>
        <time>2019-07-31T09:12:22.164Z</time>
      </trkpt>
      <trkpt lat="43.00498" lon="-1.288415">
        <ele>1059.0</ele>
        <time>2019-07-31T09:12:23.168Z</time>
      </trkpt>
      <trkpt lat="43.00497167" lon="-1.288385">
        <ele>1059.0</ele>
        <time>2019-07-31T09:12:24.174Z</time>
      </trkpt>
      <trkpt lat="43.00496667" lon="-1.28835667">
        <ele>1059.0</ele>
        <time>2019-07-31T09:12:25.179Z</time>
      </trkpt>
      <trkpt lat="43.00496667" lon="-1.28832833">
        <ele>1058.0</ele>
        <time>2019-07-31T09:12:26.186Z</time>
      </trkpt>
      <trkpt lat="43.00496667" lon="-1.28830833">
        <ele>1058.0</ele>
        <time>2019-07-31T09:12:27.065Z</time>
      </trkpt>
      <trkpt lat="43.00496833" lon="-1.28828333">
        <ele>1058.0</ele>
        <time>2019-07-31T09:12:28.070Z</time>
      </trkpt>
      <trkpt lat="43.00497" lon="-1.28826167">
        <ele>1058.0</ele>
        <time>2019-07-31T09:12:29.073Z</time>
      </trkpt>
      <trkpt lat="43.00497167" lon="-1.288235">
        <ele>1058.0</ele>
        <time>2019-07-31T09:12:30.077Z</time>
      </trkpt>
      <trkpt lat="43.00497" lon="-1.288205">
        <ele>1059.0</ele>
        <time>2019-07-31T09:12:31.083Z</time>
      </trkpt>
      <trkpt lat="43.004965" lon="-1.28817667">
        <ele>1059.0</ele>
        <time>2019-07-31T09:12:32.088Z</time>
      </trkpt>
      <trkpt lat="43.00495833" lon="-1.28815167">
        <ele>1060.0</ele>
        <time>2019-07-31T09:12:33.093Z</time>
      </trkpt>
      <trkpt lat="43.00495333" lon="-1.28812667">
        <ele>1060.0</ele>
        <time>2019-07-31T09:12:34.097Z</time>
      </trkpt>
      <trkpt lat="43.00494" lon="-1.288105">
        <ele>1059.0</ele>
        <time>2019-07-31T09:12:35.102Z</time>
      </trkpt>
      <trkpt lat="43.00492667" lon="-1.28808167">
        <ele>1059.0</ele>
        <time>2019-07-31T09:12:36.106Z</time>
      </trkpt>
      <trkpt lat="43.00491" lon="-1.28806">
        <ele>1059.0</ele>
        <time>2019-07-31T09:12:37.111Z</time>
      </trkpt>
      <trkpt lat="43.00489333" lon="-1.288045">
        <ele>1058.0</ele>
        <time>2019-07-31T09:12:38.117Z</time>
      </trkpt>
      <trkpt lat="43.00488167" lon="-1.28802667">
        <ele>1059.0</ele>
        <time>2019-07-31T09:12:39.123Z</time>
      </trkpt>
      <trkpt lat="43.00487" lon="-1.28801">
        <ele>1059.0</ele>
        <time>2019-07-31T09:12:40.129Z</time>
      </trkpt>
      <trkpt lat="43.00486" lon="-1.287995">
        <ele>1058.0</ele>
        <time>2019-07-31T09:12:41.133Z</time>
      </trkpt>
      <trkpt lat="43.00484833" lon="-1.28798">
        <ele>1058.0</ele>
        <time>2019-07-31T09:12:42.138Z</time>
      </trkpt>
      <trkpt lat="43.00483833" lon="-1.287965">
        <ele>1059.0</ele>
        <time>2019-07-31T09:12:43.145Z</time>
      </trkpt>
      <trkpt lat="43.00482833" lon="-1.28794667">
        <ele>1059.0</ele>
        <time>2019-07-31T09:12:44.150Z</time>
      </trkpt>
      <trkpt lat="43.00481833" lon="-1.28793167">
        <ele>1059.0</ele>
        <time>2019-07-31T09:12:45.156Z</time>
      </trkpt>
      <trkpt lat="43.00480667" lon="-1.28791833">
        <ele>1058.0</ele>
        <time>2019-07-31T09:12:46.160Z</time>
      </trkpt>
      <trkpt lat="43.004795" lon="-1.28790667">
        <ele>1058.0</ele>
        <time>2019-07-31T09:12:47.165Z</time>
      </trkpt>
      <trkpt lat="43.00478" lon="-1.28789667">
        <ele>1058.0</ele>
        <time>2019-07-31T09:12:48.170Z</time>
      </trkpt>
      <trkpt lat="43.00476833" lon="-1.28788333">
        <ele>1058.0</ele>
        <time>2019-07-31T09:12:49.174Z</time>
      </trkpt>
      <trkpt lat="43.00475833" lon="-1.28786667">
        <ele>1058.0</ele>
        <time>2019-07-31T09:12:50.178Z</time>
      </trkpt>
      <trkpt lat="43.004745" lon="-1.28784833">
        <ele>1058.0</ele>
        <time>2019-07-31T09:12:51.185Z</time>
      </trkpt>
      <trkpt lat="43.00473" lon="-1.28782833">
        <ele>1058.0</ele>
        <time>2019-07-31T09:12:52.065Z</time>
      </trkpt>
      <trkpt lat="43.004715" lon="-1.28780833">
        <ele>1058.0</ele>
        <time>2019-07-31T09:12:53.070Z</time>
      </trkpt>
      <trkpt lat="43.0047" lon="-1.28779">
        <ele>1058.0</ele>
        <time>2019-07-31T09:12:54.075Z</time>
      </trkpt>
      <trkpt lat="43.00468833" lon="-1.28777333">
        <ele>1057.0</ele>
        <time>2019-07-31T09:12:55.081Z</time>
      </trkpt>
      <trkpt lat="43.00467333" lon="-1.28775833">
        <ele>1057.0</ele>
        <time>2019-07-31T09:12:56.087Z</time>
      </trkpt>
      <trkpt lat="43.00465833" lon="-1.28774333">
        <ele>1056.0</ele>
        <time>2019-07-31T09:12:57.093Z</time>
      </trkpt>
      <trkpt lat="43.00464333" lon="-1.28773167">
        <ele>1056.0</ele>
        <time>2019-07-31T09:12:58.099Z</time>
      </trkpt>
      <trkpt lat="43.00462833" lon="-1.28772167">
        <ele>1055.0</ele>
        <time>2019-07-31T09:12:59.104Z</time>
      </trkpt>
      <trkpt lat="43.00461" lon="-1.28771">
        <ele>1055.0</ele>
        <time>2019-07-31T09:13:00.110Z</time>
      </trkpt>
      <trkpt lat="43.004595" lon="-1.28769833">
        <ele>1055.0</ele>
        <time>2019-07-31T09:13:01.117Z</time>
      </trkpt>
      <trkpt lat="43.00458167" lon="-1.28768333">
        <ele>1055.0</ele>
        <time>2019-07-31T09:13:02.124Z</time>
      </trkpt>
      <trkpt lat="43.00457" lon="-1.28766667">
        <ele>1054.0</ele>
        <time>2019-07-31T09:13:03.130Z</time>
      </trkpt>
      <trkpt lat="43.00456" lon="-1.28764833">
        <ele>1054.0</ele>
        <time>2019-07-31T09:13:04.136Z</time>
      </trkpt>
      <trkpt lat="43.00454833" lon="-1.28763">
        <ele>1054.0</ele>
        <time>2019-07-31T09:13:05.142Z</time>
      </trkpt>
      <trkpt lat="43.00453667" lon="-1.28761333">
        <ele>1054.0</ele>
        <time>2019-07-31T09:13:06.146Z</time>
      </trkpt>
      <trkpt lat="43.00452333" lon="-1.28759667">
        <ele>1054.0</ele>
        <time>2019-07-31T09:13:07.152Z</time>
      </trkpt>
      <trkpt lat="43.00450667" lon="-1.28758167">
        <ele>1054.0</ele>
        <time>2019-07-31T09:13:08.158Z</time>
      </trkpt>
      <trkpt lat="43.00449333" lon="-1.28756667">
        <ele>1054.0</ele>
        <time>2019-07-31T09:13:09.164Z</time>
      </trkpt>
      <trkpt lat="43.00447833" lon="-1.28754833">
        <ele>1053.0</ele>
        <time>2019-07-31T09:13:10.169Z</time>
      </trkpt>
      <trkpt lat="43.00446333" lon="-1.287535">
        <ele>1053.0</ele>
        <time>2019-07-31T09:13:11.177Z</time>
      </trkpt>
      <trkpt lat="43.00444833" lon="-1.28752">
        <ele>1052.0</ele>
        <time>2019-07-31T09:13:12.184Z</time>
      </trkpt>
      <trkpt lat="43.004435" lon="-1.28750167">
        <ele>1052.0</ele>
        <time>2019-07-31T09:13:13.065Z</time>
      </trkpt>
      <trkpt lat="43.00441833" lon="-1.28748667">
        <ele>1051.0</ele>
        <time>2019-07-31T09:13:14.072Z</time>
      </trkpt>
      <trkpt lat="43.00440667" lon="-1.28746833">
        <ele>1051.0</ele>
        <time>2019-07-31T09:13:15.077Z</time>
      </trkpt>
      <trkpt lat="43.00439667" lon="-1.28745">
        <ele>1051.0</ele>
        <time>2019-07-31T09:13:16.081Z</time>
      </trkpt>
      <trkpt lat="43.00438833" lon="-1.28743167">
        <ele>1051.0</ele>
        <time>2019-07-31T09:13:17.086Z</time>
      </trkpt>
      <trkpt lat="43.00438" lon="-1.28741167">
        <ele>1051.0</ele>
        <time>2019-07-31T09:13:18.091Z</time>
      </trkpt>
      <trkpt lat="43.00437667" lon="-1.28738833">
        <ele>1051.0</ele>
        <time>2019-07-31T09:13:19.095Z</time>
      </trkpt>
      <trkpt lat="43.004375" lon="-1.287365">
        <ele>1051.0</ele>
        <time>2019-07-31T09:13:20.101Z</time>
      </trkpt>
      <trkpt lat="43.004375" lon="-1.28734167">
        <ele>1051.0</ele>
        <time>2019-07-31T09:13:21.108Z</time>
      </trkpt>
      <trkpt lat="43.004375" lon="-1.28732167">
        <ele>1050.0</ele>
        <time>2019-07-31T09:13:22.114Z</time>
      </trkpt>
      <trkpt lat="43.00437833" lon="-1.28729833">
        <ele>1050.0</ele>
        <time>2019-07-31T09:13:23.120Z</time>
      </trkpt>
      <trkpt lat="43.00438333" lon="-1.28728">
        <ele>1050.0</ele>
        <time>2019-07-31T09:13:24.125Z</time>
      </trkpt>
      <trkpt lat="43.00439167" lon="-1.287265">
        <ele>1050.0</ele>
        <time>2019-07-31T09:13:25.131Z</time>
      </trkpt>
      <trkpt lat="43.00440167" lon="-1.28724667">
        <ele>1050.0</ele>
        <time>2019-07-31T09:13:26.136Z</time>
      </trkpt>
      <trkpt lat="43.00441167" lon="-1.28723333">
        <ele>1050.0</ele>
        <time>2019-07-31T09:13:27.142Z</time>
      </trkpt>
      <trkpt lat="43.00442167" lon="-1.28722167">
        <ele>1049.0</ele>
        <time>2019-07-31T09:13:28.148Z</time>
      </trkpt>
      <trkpt lat="43.00443333" lon="-1.28721333">
        <ele>1049.0</ele>
        <time>2019-07-31T09:13:29.153Z</time>
      </trkpt>
      <trkpt lat="43.00444333" lon="-1.28721">
        <ele>1050.0</ele>
        <time>2019-07-31T09:13:30.159Z</time>
      </trkpt>
      <trkpt lat="43.004455" lon="-1.28720833">
        <ele>1050.0</ele>
        <time>2019-07-31T09:13:31.165Z</time>
      </trkpt>
      <trkpt lat="43.00447" lon="-1.287205">
        <ele>1049.0</ele>
        <time>2019-07-31T09:13:32.166Z</time>
      </trkpt>
      <trkpt lat="43.00448333" lon="-1.28720167">
        <ele>1049.0</ele>
        <time>2019-07-31T09:13:33.171Z</time>
      </trkpt>
      <trkpt lat="43.0045" lon="-1.2872">
        <ele>1049.0</ele>
        <time>2019-07-31T09:13:34.177Z</time>
      </trkpt>
      <trkpt lat="43.004515" lon="-1.28719667">
        <ele>1048.0</ele>
        <time>2019-07-31T09:13:35.183Z</time>
      </trkpt>
      <trkpt lat="43.00453" lon="-1.287195">
        <ele>1048.0</ele>
        <time>2019-07-31T09:13:36.066Z</time>
      </trkpt>
      <trkpt lat="43.00454333" lon="-1.28719833">
        <ele>1048.0</ele>
        <time>2019-07-31T09:13:37.073Z</time>
      </trkpt>
      <trkpt lat="43.00455667" lon="-1.28720333">
        <ele>1048.0</ele>
        <time>2019-07-31T09:13:38.079Z</time>
      </trkpt>
      <trkpt lat="43.00457167" lon="-1.28720667">
        <ele>1048.0</ele>
        <time>2019-07-31T09:13:39.083Z</time>
      </trkpt>
      <trkpt lat="43.00458667" lon="-1.28720667">
        <ele>1049.0</ele>
        <time>2019-07-31T09:13:40.088Z</time>
      </trkpt>
      <trkpt lat="43.0046" lon="-1.28720333">
        <ele>1049.0</ele>
        <time>2019-07-31T09:13:41.094Z</time>
      </trkpt>
      <trkpt lat="43.00461667" lon="-1.28720167">
        <ele>1049.0</ele>
        <time>2019-07-31T09:13:42.099Z</time>
      </trkpt>
      <trkpt lat="43.004635" lon="-1.28720333">
        <ele>1048.0</ele>
        <time>2019-07-31T09:13:43.103Z</time>
      </trkpt>
      <trkpt lat="43.00464833" lon="-1.28720833">
        <ele>1048.0</ele>
        <time>2019-07-31T09:13:44.109Z</time>
      </trkpt>
      <trkpt lat="43.00466167" lon="-1.28721333">
        <ele>1048.0</ele>
        <time>2019-07-31T09:13:45.116Z</time>
      </trkpt>
      <trkpt lat="43.004675" lon="-1.28721667">
        <ele>1049.0</ele>
        <time>2019-07-31T09:13:46.122Z</time>
      </trkpt>
      <trkpt lat="43.00468833" lon="-1.28721667">
        <ele>1049.0</ele>
        <time>2019-07-31T09:13:47.127Z</time>
      </trkpt>
      <trkpt lat="43.00470333" lon="-1.28722">
        <ele>1049.0</ele>
        <time>2019-07-31T09:13:48.133Z</time>
      </trkpt>
      <trkpt lat="43.00471833" lon="-1.287225">
        <ele>1050.0</ele>
        <time>2019-07-31T09:13:49.139Z</time>
      </trkpt>
      <trkpt lat="43.004735" lon="-1.28722667">
        <ele>1050.0</ele>
        <time>2019-07-31T09:13:50.145Z</time>
      </trkpt>
      <trkpt lat="43.00475167" lon="-1.28723167">
        <ele>1050.0</ele>
        <time>2019-07-31T09:13:51.151Z</time>
      </trkpt>
      <trkpt lat="43.00476667" lon="-1.28723333">
        <ele>1050.0</ele>
        <time>2019-07-31T09:13:52.157Z</time>
      </trkpt>
      <trkpt lat="43.00478333" lon="-1.287235">
        <ele>1051.0</ele>
        <time>2019-07-31T09:13:53.161Z</time>
      </trkpt>
      <trkpt lat="43.00480167" lon="-1.287235">
        <ele>1051.0</ele>
        <time>2019-07-31T09:13:54.166Z</time>
      </trkpt>
      <trkpt lat="43.00481833" lon="-1.28723833">
        <ele>1051.0</ele>
        <time>2019-07-31T09:13:55.171Z</time>
      </trkpt>
      <trkpt lat="43.004835" lon="-1.28723833">
        <ele>1050.0</ele>
        <time>2019-07-31T09:13:56.176Z</time>
      </trkpt>
      <trkpt lat="43.00485167" lon="-1.28724">
        <ele>1050.0</ele>
        <time>2019-07-31T09:13:57.180Z</time>
      </trkpt>
      <trkpt lat="43.00486833" lon="-1.28724333">
        <ele>1050.0</ele>
        <time>2019-07-31T09:13:58.186Z</time>
      </trkpt>
      <trkpt lat="43.00488667" lon="-1.28724667">
        <ele>1049.0</ele>
        <time>2019-07-31T09:13:59.066Z</time>
      </trkpt>
      <trkpt lat="43.004905" lon="-1.28724667">
        <ele>1048.0</ele>
        <time>2019-07-31T09:14:00.074Z</time>
      </trkpt>
      <trkpt lat="43.00492167" lon="-1.28724333">
        <ele>1048.0</ele>
        <time>2019-07-31T09:14:01.083Z</time>
      </trkpt>
      <trkpt lat="43.00493833" lon="-1.28724333">
        <ele>1048.0</ele>
        <time>2019-07-31T09:14:02.088Z</time>
      </trkpt>
      <trkpt lat="43.00495333" lon="-1.28724333">
        <ele>1048.0</ele>
        <time>2019-07-31T09:14:03.093Z</time>
      </trkpt>
      <trkpt lat="43.00497" lon="-1.28724167">
        <ele>1048.0</ele>
        <time>2019-07-31T09:14:04.099Z</time>
      </trkpt>
      <trkpt lat="43.00498833" lon="-1.28723833">
        <ele>1048.0</ele>
        <time>2019-07-31T09:14:05.105Z</time>
      </trkpt>
      <trkpt lat="43.005005" lon="-1.287235">
        <ele>1047.0</ele>
        <time>2019-07-31T09:14:06.109Z</time>
      </trkpt>
      <trkpt lat="43.00502333" lon="-1.28723667">
        <ele>1046.0</ele>
        <time>2019-07-31T09:14:07.114Z</time>
      </trkpt>
      <trkpt lat="43.00503667" lon="-1.28723667">
        <ele>1045.0</ele>
        <time>2019-07-31T09:14:08.121Z</time>
      </trkpt>
      <trkpt lat="43.00505167" lon="-1.287235">
        <ele>1045.0</ele>
        <time>2019-07-31T09:14:09.125Z</time>
      </trkpt>
      <trkpt lat="43.005065" lon="-1.287235">
        <ele>1045.0</ele>
        <time>2019-07-31T09:14:10.130Z</time>
      </trkpt>
      <trkpt lat="43.00507833" lon="-1.28723">
        <ele>1045.0</ele>
        <time>2019-07-31T09:14:11.135Z</time>
      </trkpt>
      <trkpt lat="43.00508833" lon="-1.28722667">
        <ele>1045.0</ele>
        <time>2019-07-31T09:14:12.141Z</time>
      </trkpt>
      <trkpt lat="43.0051" lon="-1.28722167">
        <ele>1045.0</ele>
        <time>2019-07-31T09:14:13.146Z</time>
      </trkpt>
      <trkpt lat="43.00510833" lon="-1.28721833">
        <ele>1045.0</ele>
        <time>2019-07-31T09:14:14.152Z</time>
      </trkpt>
      <trkpt lat="43.00512" lon="-1.28721833">
        <ele>1045.0</ele>
        <time>2019-07-31T09:14:15.158Z</time>
      </trkpt>
      <trkpt lat="43.005135" lon="-1.287215">
        <ele>1045.0</ele>
        <time>2019-07-31T09:14:16.164Z</time>
      </trkpt>
      <trkpt lat="43.00515333" lon="-1.28721333">
        <ele>1044.0</ele>
        <time>2019-07-31T09:14:17.169Z</time>
      </trkpt>
      <trkpt lat="43.00517" lon="-1.28721333">
        <ele>1044.0</ele>
        <time>2019-07-31T09:14:18.176Z</time>
      </trkpt>
      <trkpt lat="43.00518667" lon="-1.28721667">
        <ele>1044.0</ele>
        <time>2019-07-31T09:14:19.182Z</time>
      </trkpt>
      <trkpt lat="43.00520333" lon="-1.28721833">
        <ele>1044.0</ele>
        <time>2019-07-31T09:14:20.063Z</time>
      </trkpt>
      <trkpt lat="43.00521833" lon="-1.28721833">
        <ele>1045.0</ele>
        <time>2019-07-31T09:14:21.068Z</time>
      </trkpt>
      <trkpt lat="43.00523333" lon="-1.287215">
        <ele>1045.0</ele>
        <time>2019-07-31T09:14:22.072Z</time>
      </trkpt>
      <trkpt lat="43.00524667" lon="-1.28720833">
        <ele>1045.0</ele>
        <time>2019-07-31T09:14:23.077Z</time>
      </trkpt>
      <trkpt lat="43.00525833" lon="-1.2872">
        <ele>1045.0</ele>
        <time>2019-07-31T09:14:24.081Z</time>
      </trkpt>
      <trkpt lat="43.005275" lon="-1.28719667">
        <ele>1045.0</ele>
        <time>2019-07-31T09:14:25.083Z</time>
      </trkpt>
      <trkpt lat="43.00529167" lon="-1.287195">
        <ele>1045.0</ele>
        <time>2019-07-31T09:14:26.089Z</time>
      </trkpt>
      <trkpt lat="43.00530333" lon="-1.28719">
        <ele>1046.0</ele>
        <time>2019-07-31T09:14:27.095Z</time>
      </trkpt>
      <trkpt lat="43.00531667" lon="-1.28718333">
        <ele>1046.0</ele>
        <time>2019-07-31T09:14:28.100Z</time>
      </trkpt>
      <trkpt lat="43.00532833" lon="-1.28717667">
        <ele>1047.0</ele>
        <time>2019-07-31T09:14:29.106Z</time>
      </trkpt>
      <trkpt lat="43.00534333" lon="-1.28717">
        <ele>1048.0</ele>
        <time>2019-07-31T09:14:30.111Z</time>
      </trkpt>
      <trkpt lat="43.00535667" lon="-1.287165">
        <ele>1048.0</ele>
        <time>2019-07-31T09:14:31.113Z</time>
      </trkpt>
      <trkpt lat="43.00537" lon="-1.28715667">
        <ele>1047.0</ele>
        <time>2019-07-31T09:14:32.119Z</time>
      </trkpt>
      <trkpt lat="43.005385" lon="-1.28714667">
        <ele>1047.0</ele>
        <time>2019-07-31T09:14:33.125Z</time>
      </trkpt>
      <trkpt lat="43.00540167" lon="-1.28714">
        <ele>1047.0</ele>
        <time>2019-07-31T09:14:34.128Z</time>
      </trkpt>
      <trkpt lat="43.005415" lon="-1.28713">
        <ele>1046.0</ele>
        <time>2019-07-31T09:14:35.134Z</time>
      </trkpt>
      <trkpt lat="43.00543" lon="-1.28711833">
        <ele>1046.0</ele>
        <time>2019-07-31T09:14:36.141Z</time>
      </trkpt>
      <trkpt lat="43.005445" lon="-1.28710667">
        <ele>1046.0</ele>
        <time>2019-07-31T09:14:37.148Z</time>
      </trkpt>
      <trkpt lat="43.00546167" lon="-1.28709333">
        <ele>1046.0</ele>
        <time>2019-07-31T09:14:38.154Z</time>
      </trkpt>
      <trkpt lat="43.00547833" lon="-1.28708333">
        <ele>1046.0</ele>
        <time>2019-07-31T09:14:39.159Z</time>
      </trkpt>
      <trkpt lat="43.00549333" lon="-1.28707667">
        <ele>1045.0</ele>
        <time>2019-07-31T09:14:40.163Z</time>
      </trkpt>
      <trkpt lat="43.00550833" lon="-1.28706833">
        <ele>1045.0</ele>
        <time>2019-07-31T09:14:41.169Z</time>
      </trkpt>
      <trkpt lat="43.00552667" lon="-1.28705">
        <ele>1045.0</ele>
        <time>2019-07-31T09:14:42.175Z</time>
      </trkpt>
      <trkpt lat="43.00553" lon="-1.28704">
        <ele>1044.0</ele>
        <time>2019-07-31T09:14:43.182Z</time>
      </trkpt>
      <trkpt lat="43.00554" lon="-1.28702833">
        <ele>1043.0</ele>
        <time>2019-07-31T09:14:44.062Z</time>
      </trkpt>
      <trkpt lat="43.00555333" lon="-1.28702">
        <ele>1043.0</ele>
        <time>2019-07-31T09:14:45.067Z</time>
      </trkpt>
      <trkpt lat="43.00556833" lon="-1.28701">
        <ele>1044.0</ele>
        <time>2019-07-31T09:14:46.072Z</time>
      </trkpt>
      <trkpt lat="43.00558333" lon="-1.28700167">
        <ele>1044.0</ele>
        <time>2019-07-31T09:14:47.076Z</time>
      </trkpt>
      <trkpt lat="43.00559833" lon="-1.28699667">
        <ele>1045.0</ele>
        <time>2019-07-31T09:14:48.080Z</time>
      </trkpt>
      <trkpt lat="43.00561667" lon="-1.28698833">
        <ele>1045.0</ele>
        <time>2019-07-31T09:14:49.086Z</time>
      </trkpt>
      <trkpt lat="43.00563167" lon="-1.28698">
        <ele>1045.0</ele>
        <time>2019-07-31T09:14:50.092Z</time>
      </trkpt>
      <trkpt lat="43.005645" lon="-1.28698167">
        <ele>1046.0</ele>
        <time>2019-07-31T09:14:51.098Z</time>
      </trkpt>
      <trkpt lat="43.00565833" lon="-1.28698333">
        <ele>1047.0</ele>
        <time>2019-07-31T09:14:52.104Z</time>
      </trkpt>
      <trkpt lat="43.00567333" lon="-1.28698333">
        <ele>1047.0</ele>
        <time>2019-07-31T09:14:53.109Z</time>
      </trkpt>
      <trkpt lat="43.00568833" lon="-1.28697333">
        <ele>1048.0</ele>
        <time>2019-07-31T09:14:54.114Z</time>
      </trkpt>
      <trkpt lat="43.005705" lon="-1.286965">
        <ele>1049.0</ele>
        <time>2019-07-31T09:14:55.119Z</time>
      </trkpt>
      <trkpt lat="43.00572333" lon="-1.286955">
        <ele>1049.0</ele>
        <time>2019-07-31T09:14:56.124Z</time>
      </trkpt>
      <trkpt lat="43.00573833" lon="-1.286945">
        <ele>1049.0</ele>
        <time>2019-07-31T09:14:57.131Z</time>
      </trkpt>
      <trkpt lat="43.00575333" lon="-1.286935">
        <ele>1049.0</ele>
        <time>2019-07-31T09:14:58.138Z</time>
      </trkpt>
      <trkpt lat="43.00576833" lon="-1.28692667">
        <ele>1050.0</ele>
        <time>2019-07-31T09:14:59.143Z</time>
      </trkpt>
      <trkpt lat="43.00578333" lon="-1.28692667">
        <ele>1050.0</ele>
        <time>2019-07-31T09:15:00.149Z</time>
      </trkpt>
      <trkpt lat="43.00579833" lon="-1.28692667">
        <ele>1050.0</ele>
        <time>2019-07-31T09:15:01.153Z</time>
      </trkpt>
      <trkpt lat="43.005815" lon="-1.28692167">
        <ele>1049.0</ele>
        <time>2019-07-31T09:15:02.160Z</time>
      </trkpt>
      <trkpt lat="43.00583333" lon="-1.28691333">
        <ele>1049.0</ele>
        <time>2019-07-31T09:15:03.166Z</time>
      </trkpt>
      <trkpt lat="43.00584667" lon="-1.28691">
        <ele>1049.0</ele>
        <time>2019-07-31T09:15:04.167Z</time>
      </trkpt>
      <trkpt lat="43.00586" lon="-1.286905">
        <ele>1050.0</ele>
        <time>2019-07-31T09:15:05.171Z</time>
      </trkpt>
      <trkpt lat="43.00587667" lon="-1.2869">
        <ele>1050.0</ele>
        <time>2019-07-31T09:15:06.174Z</time>
      </trkpt>
      <trkpt lat="43.005895" lon="-1.28688833">
        <ele>1050.0</ele>
        <time>2019-07-31T09:15:07.178Z</time>
      </trkpt>
      <trkpt lat="43.00591167" lon="-1.28688333">
        <ele>1050.0</ele>
        <time>2019-07-31T09:15:08.184Z</time>
      </trkpt>
      <trkpt lat="43.00592833" lon="-1.28687333">
        <ele>1051.0</ele>
        <time>2019-07-31T09:15:09.063Z</time>
      </trkpt>
      <trkpt lat="43.00594667" lon="-1.28685833">
        <ele>1051.0</ele>
        <time>2019-07-31T09:15:10.070Z</time>
      </trkpt>
      <trkpt lat="43.005965" lon="-1.28684667">
        <ele>1050.0</ele>
        <time>2019-07-31T09:15:11.075Z</time>
      </trkpt>
      <trkpt lat="43.00598167" lon="-1.28683333">
        <ele>1051.0</ele>
        <time>2019-07-31T09:15:12.079Z</time>
      </trkpt>
      <trkpt lat="43.006" lon="-1.28681833">
        <ele>1051.0</ele>
        <time>2019-07-31T09:15:13.083Z</time>
      </trkpt>
      <trkpt lat="43.006015" lon="-1.28681167">
        <ele>1052.0</ele>
        <time>2019-07-31T09:15:14.088Z</time>
      </trkpt>
      <trkpt lat="43.00603" lon="-1.2868">
        <ele>1052.0</ele>
        <time>2019-07-31T09:15:15.092Z</time>
      </trkpt>
      <trkpt lat="43.00605" lon="-1.28678167">
        <ele>1051.0</ele>
        <time>2019-07-31T09:15:16.096Z</time>
      </trkpt>
      <trkpt lat="43.00606167" lon="-1.28677167">
        <ele>1052.0</ele>
        <time>2019-07-31T09:15:17.101Z</time>
      </trkpt>
      <trkpt lat="43.00607167" lon="-1.28675833">
        <ele>1052.0</ele>
        <time>2019-07-31T09:15:18.105Z</time>
      </trkpt>
      <trkpt lat="43.00608333" lon="-1.28675">
        <ele>1053.0</ele>
        <time>2019-07-31T09:15:19.112Z</time>
      </trkpt>
      <trkpt lat="43.00609167" lon="-1.286735">
        <ele>1055.0</ele>
        <time>2019-07-31T09:15:20.115Z</time>
      </trkpt>
      <trkpt lat="43.0061" lon="-1.28671833">
        <ele>1056.0</ele>
        <time>2019-07-31T09:15:21.118Z</time>
      </trkpt>
      <trkpt lat="43.00611667" lon="-1.28669333">
        <ele>1056.0</ele>
        <time>2019-07-31T09:15:22.121Z</time>
      </trkpt>
      <trkpt lat="43.00612833" lon="-1.28667333">
        <ele>1057.0</ele>
        <time>2019-07-31T09:15:23.126Z</time>
      </trkpt>
      <trkpt lat="43.00614" lon="-1.286645">
        <ele>1057.0</ele>
        <time>2019-07-31T09:15:24.131Z</time>
      </trkpt>
      <trkpt lat="43.00614167" lon="-1.28662167">
        <ele>1059.0</ele>
        <time>2019-07-31T09:15:25.134Z</time>
      </trkpt>
      <trkpt lat="43.00614" lon="-1.286615">
        <ele>1060.0</ele>
        <time>2019-07-31T09:15:26.140Z</time>
      </trkpt>
      <trkpt lat="43.00614" lon="-1.28660333">
        <ele>1059.0</ele>
        <time>2019-07-31T09:15:27.146Z</time>
      </trkpt>
      <trkpt lat="43.006135" lon="-1.286595">
        <ele>1060.0</ele>
        <time>2019-07-31T09:15:28.151Z</time>
      </trkpt>
      <trkpt lat="43.00613667" lon="-1.28656833">
        <ele>1060.0</ele>
        <time>2019-07-31T09:15:29.158Z</time>
      </trkpt>
      <trkpt lat="43.00614" lon="-1.28655167">
        <ele>1059.0</ele>
        <time>2019-07-31T09:15:30.162Z</time>
      </trkpt>
      <trkpt lat="43.00613833" lon="-1.28652833">
        <ele>1059.0</ele>
        <time>2019-07-31T09:15:31.166Z</time>
      </trkpt>
      <trkpt lat="43.00613333" lon="-1.28650667">
        <ele>1059.0</ele>
        <time>2019-07-31T09:15:32.172Z</time>
      </trkpt>
      <trkpt lat="43.00612667" lon="-1.28649">
        <ele>1060.0</ele>
        <time>2019-07-31T09:15:33.176Z</time>
      </trkpt>
      <trkpt lat="43.00611833" lon="-1.28647167">
        <ele>1060.0</ele>
        <time>2019-07-31T09:15:34.183Z</time>
      </trkpt>
      <trkpt lat="43.00610833" lon="-1.28645667">
        <ele>1060.0</ele>
        <time>2019-07-31T09:15:35.062Z</time>
      </trkpt>
      <trkpt lat="43.0061" lon="-1.28644">
        <ele>1060.0</ele>
        <time>2019-07-31T09:15:36.067Z</time>
      </trkpt>
      <trkpt lat="43.00609" lon="-1.28642333">
        <ele>1059.0</ele>
        <time>2019-07-31T09:15:37.073Z</time>
      </trkpt>
      <trkpt lat="43.006075" lon="-1.286405">
        <ele>1059.0</ele>
        <time>2019-07-31T09:15:38.077Z</time>
      </trkpt>
      <trkpt lat="43.006065" lon="-1.28639333">
        <ele>1059.0</ele>
        <time>2019-07-31T09:15:39.082Z</time>
      </trkpt>
      <trkpt lat="43.006055" lon="-1.28638167">
        <ele>1059.0</ele>
        <time>2019-07-31T09:15:40.087Z</time>
      </trkpt>
      <trkpt lat="43.006045" lon="-1.286375">
        <ele>1058.0</ele>
        <time>2019-07-31T09:15:41.093Z</time>
      </trkpt>
      <trkpt lat="43.006035" lon="-1.28637">
        <ele>1058.0</ele>
        <time>2019-07-31T09:15:42.100Z</time>
      </trkpt>
      <trkpt lat="43.00602167" lon="-1.28635833">
        <ele>1058.0</ele>
        <time>2019-07-31T09:15:43.105Z</time>
      </trkpt>
      <trkpt lat="43.00600833" lon="-1.286345">
        <ele>1058.0</ele>
        <time>2019-07-31T09:15:44.111Z</time>
      </trkpt>
      <trkpt lat="43.005995" lon="-1.28632833">
        <ele>1059.0</ele>
        <time>2019-07-31T09:15:45.117Z</time>
      </trkpt>
      <trkpt lat="43.00598167" lon="-1.28631667">
        <ele>1059.0</ele>
        <time>2019-07-31T09:15:46.122Z</time>
      </trkpt>
      <trkpt lat="43.00596833" lon="-1.28630333">
        <ele>1059.0</ele>
        <time>2019-07-31T09:15:47.125Z</time>
      </trkpt>
      <trkpt lat="43.005955" lon="-1.28629167">
        <ele>1059.0</ele>
        <time>2019-07-31T09:15:48.130Z</time>
      </trkpt>
      <trkpt lat="43.00594" lon="-1.28628">
        <ele>1060.0</ele>
        <time>2019-07-31T09:15:49.136Z</time>
      </trkpt>
      <trkpt lat="43.00592833" lon="-1.28626667">
        <ele>1060.0</ele>
        <time>2019-07-31T09:15:50.142Z</time>
      </trkpt>
      <trkpt lat="43.00591333" lon="-1.28626167">
        <ele>1062.0</ele>
        <time>2019-07-31T09:15:51.145Z</time>
      </trkpt>
      <trkpt lat="43.00589667" lon="-1.28625667">
        <ele>1063.0</ele>
        <time>2019-07-31T09:15:52.149Z</time>
      </trkpt>
      <trkpt lat="43.005885" lon="-1.28624167">
        <ele>1064.0</ele>
        <time>2019-07-31T09:15:53.155Z</time>
      </trkpt>
      <trkpt lat="43.00587" lon="-1.28623167">
        <ele>1065.0</ele>
        <time>2019-07-31T09:15:54.161Z</time>
      </trkpt>
      <trkpt lat="43.00586" lon="-1.28621833">
        <ele>1066.0</ele>
        <time>2019-07-31T09:15:55.166Z</time>
      </trkpt>
      <trkpt lat="43.00584333" lon="-1.28621167">
        <ele>1067.0</ele>
        <time>2019-07-31T09:15:56.170Z</time>
      </trkpt>
      <trkpt lat="43.00582333" lon="-1.28620333">
        <ele>1067.0</ele>
        <time>2019-07-31T09:15:57.174Z</time>
      </trkpt>
      <trkpt lat="43.005805" lon="-1.2862">
        <ele>1068.0</ele>
        <time>2019-07-31T09:15:58.179Z</time>
      </trkpt>
      <trkpt lat="43.005785" lon="-1.28619333">
        <ele>1068.0</ele>
        <time>2019-07-31T09:15:59.182Z</time>
      </trkpt>
      <trkpt lat="43.00577" lon="-1.28619167">
        <ele>1069.0</ele>
        <time>2019-07-31T09:16:00.062Z</time>
      </trkpt>
      <trkpt lat="43.00575333" lon="-1.28618333">
        <ele>1068.0</ele>
        <time>2019-07-31T09:16:01.065Z</time>
      </trkpt>
      <trkpt lat="43.00573167" lon="-1.28618167">
        <ele>1069.0</ele>
        <time>2019-07-31T09:16:02.070Z</time>
      </trkpt>
      <trkpt lat="43.005715" lon="-1.28616833">
        <ele>1069.0</ele>
        <time>2019-07-31T09:16:03.076Z</time>
      </trkpt>
      <trkpt lat="43.00569833" lon="-1.286155">
        <ele>1069.0</ele>
        <time>2019-07-31T09:16:04.082Z</time>
      </trkpt>
      <trkpt lat="43.00568333" lon="-1.28614">
        <ele>1069.0</ele>
        <time>2019-07-31T09:16:05.086Z</time>
      </trkpt>
      <trkpt lat="43.00566833" lon="-1.286125">
        <ele>1069.0</ele>
        <time>2019-07-31T09:16:06.091Z</time>
      </trkpt>
      <trkpt lat="43.00565333" lon="-1.28610333">
        <ele>1068.0</ele>
        <time>2019-07-31T09:16:07.097Z</time>
      </trkpt>
      <trkpt lat="43.00563333" lon="-1.28608833">
        <ele>1068.0</ele>
        <time>2019-07-31T09:16:08.102Z</time>
      </trkpt>
      <trkpt lat="43.00561833" lon="-1.28607">
        <ele>1066.0</ele>
        <time>2019-07-31T09:16:09.106Z</time>
      </trkpt>
      <trkpt lat="43.00559667" lon="-1.28606167">
        <ele>1066.0</ele>
        <time>2019-07-31T09:16:10.109Z</time>
      </trkpt>
      <trkpt lat="43.00558" lon="-1.28605667">
        <ele>1065.0</ele>
        <time>2019-07-31T09:16:11.115Z</time>
      </trkpt>
      <trkpt lat="43.005565" lon="-1.28605167">
        <ele>1064.0</ele>
        <time>2019-07-31T09:16:12.119Z</time>
      </trkpt>
      <trkpt lat="43.00555167" lon="-1.28604333">
        <ele>1063.0</ele>
        <time>2019-07-31T09:16:13.124Z</time>
      </trkpt>
      <trkpt lat="43.00553833" lon="-1.28603667">
        <ele>1062.0</ele>
        <time>2019-07-31T09:16:14.130Z</time>
      </trkpt>
      <trkpt lat="43.00553167" lon="-1.28602667">
        <ele>1061.0</ele>
        <time>2019-07-31T09:16:15.135Z</time>
      </trkpt>
      <trkpt lat="43.00552" lon="-1.28601167">
        <ele>1061.0</ele>
        <time>2019-07-31T09:16:16.138Z</time>
      </trkpt>
      <trkpt lat="43.00550667" lon="-1.286">
        <ele>1061.0</ele>
        <time>2019-07-31T09:16:17.144Z</time>
      </trkpt>
      <trkpt lat="43.00549667" lon="-1.28598333">
        <ele>1061.0</ele>
        <time>2019-07-31T09:16:18.148Z</time>
      </trkpt>
      <trkpt lat="43.00548667" lon="-1.28597">
        <ele>1061.0</ele>
        <time>2019-07-31T09:16:19.153Z</time>
      </trkpt>
      <trkpt lat="43.00547667" lon="-1.285955">
        <ele>1061.0</ele>
        <time>2019-07-31T09:16:20.159Z</time>
      </trkpt>
      <trkpt lat="43.00546833" lon="-1.28594">
        <ele>1060.0</ele>
        <time>2019-07-31T09:16:21.165Z</time>
      </trkpt>
      <trkpt lat="43.00545833" lon="-1.28592667">
        <ele>1059.0</ele>
        <time>2019-07-31T09:16:22.170Z</time>
      </trkpt>
      <trkpt lat="43.00544833" lon="-1.28591667">
        <ele>1059.0</ele>
        <time>2019-07-31T09:16:23.174Z</time>
      </trkpt>
      <trkpt lat="43.00543667" lon="-1.285905">
        <ele>1059.0</ele>
        <time>2019-07-31T09:16:24.180Z</time>
      </trkpt>
      <trkpt lat="43.00542667" lon="-1.28589">
        <ele>1058.0</ele>
        <time>2019-07-31T09:16:25.186Z</time>
      </trkpt>
      <trkpt lat="43.00541833" lon="-1.28587667">
        <ele>1058.0</ele>
        <time>2019-07-31T09:16:26.063Z</time>
      </trkpt>
      <trkpt lat="43.00540833" lon="-1.28586167">
        <ele>1058.0</ele>
        <time>2019-07-31T09:16:27.066Z</time>
      </trkpt>
      <trkpt lat="43.0054" lon="-1.28584667">
        <ele>1058.0</ele>
        <time>2019-07-31T09:16:28.072Z</time>
      </trkpt>
      <trkpt lat="43.00539333" lon="-1.28583333">
        <ele>1057.0</ele>
        <time>2019-07-31T09:16:29.075Z</time>
      </trkpt>
      <trkpt lat="43.005385" lon="-1.28582">
        <ele>1057.0</ele>
        <time>2019-07-31T09:16:30.079Z</time>
      </trkpt>
      <trkpt lat="43.00537167" lon="-1.28580833">
        <ele>1056.0</ele>
        <time>2019-07-31T09:16:31.083Z</time>
      </trkpt>
      <trkpt lat="43.00536167" lon="-1.285795">
        <ele>1056.0</ele>
        <time>2019-07-31T09:16:32.087Z</time>
      </trkpt>
      <trkpt lat="43.00535167" lon="-1.28578">
        <ele>1056.0</ele>
        <time>2019-07-31T09:16:33.092Z</time>
      </trkpt>
      <trkpt lat="43.00534333" lon="-1.285765">
        <ele>1056.0</ele>
        <time>2019-07-31T09:16:34.098Z</time>
      </trkpt>
      <trkpt lat="43.005335" lon="-1.28575">
        <ele>1056.0</ele>
        <time>2019-07-31T09:16:35.103Z</time>
      </trkpt>
      <trkpt lat="43.005325" lon="-1.28573333">
        <ele>1056.0</ele>
        <time>2019-07-31T09:16:36.106Z</time>
      </trkpt>
      <trkpt lat="43.00531667" lon="-1.28571833">
        <ele>1056.0</ele>
        <time>2019-07-31T09:16:37.108Z</time>
      </trkpt>
      <trkpt lat="43.00531" lon="-1.28570167">
        <ele>1056.0</ele>
        <time>2019-07-31T09:16:38.114Z</time>
      </trkpt>
      <trkpt lat="43.00530167" lon="-1.28568333">
        <ele>1055.0</ele>
        <time>2019-07-31T09:16:39.119Z</time>
      </trkpt>
      <trkpt lat="43.00529167" lon="-1.28566667">
        <ele>1055.0</ele>
        <time>2019-07-31T09:16:40.124Z</time>
      </trkpt>
      <trkpt lat="43.005285" lon="-1.28564833">
        <ele>1055.0</ele>
        <time>2019-07-31T09:16:41.129Z</time>
      </trkpt>
      <trkpt lat="43.00527667" lon="-1.28563">
        <ele>1055.0</ele>
        <time>2019-07-31T09:16:42.132Z</time>
      </trkpt>
      <trkpt lat="43.005265" lon="-1.28561">
        <ele>1054.0</ele>
        <time>2019-07-31T09:16:43.137Z</time>
      </trkpt>
      <trkpt lat="43.00525333" lon="-1.28559333">
        <ele>1054.0</ele>
        <time>2019-07-31T09:16:44.143Z</time>
      </trkpt>
      <trkpt lat="43.00524167" lon="-1.28558">
        <ele>1054.0</ele>
        <time>2019-07-31T09:16:45.149Z</time>
      </trkpt>
      <trkpt lat="43.00523" lon="-1.28557">
        <ele>1054.0</ele>
        <time>2019-07-31T09:16:46.154Z</time>
      </trkpt>
      <trkpt lat="43.00521667" lon="-1.28555667">
        <ele>1054.0</ele>
        <time>2019-07-31T09:16:47.161Z</time>
      </trkpt>
      <trkpt lat="43.00520333" lon="-1.28554333">
        <ele>1053.0</ele>
        <time>2019-07-31T09:16:48.167Z</time>
      </trkpt>
      <trkpt lat="43.00519" lon="-1.28553">
        <ele>1053.0</ele>
        <time>2019-07-31T09:16:49.173Z</time>
      </trkpt>
      <trkpt lat="43.00517833" lon="-1.28551333">
        <ele>1053.0</ele>
        <time>2019-07-31T09:16:50.179Z</time>
      </trkpt>
      <trkpt lat="43.00516667" lon="-1.28549833">
        <ele>1052.0</ele>
        <time>2019-07-31T09:16:51.184Z</time>
      </trkpt>
      <trkpt lat="43.00515833" lon="-1.28548333">
        <ele>1052.0</ele>
        <time>2019-07-31T09:16:52.065Z</time>
      </trkpt>
      <trkpt lat="43.00514667" lon="-1.28547167">
        <ele>1052.0</ele>
        <time>2019-07-31T09:16:53.070Z</time>
      </trkpt>
      <trkpt lat="43.00513833" lon="-1.28545333">
        <ele>1053.0</ele>
        <time>2019-07-31T09:16:54.075Z</time>
      </trkpt>
      <trkpt lat="43.00513" lon="-1.28543833">
        <ele>1053.0</ele>
        <time>2019-07-31T09:16:55.081Z</time>
      </trkpt>
      <trkpt lat="43.00512167" lon="-1.28542333">
        <ele>1053.0</ele>
        <time>2019-07-31T09:16:56.085Z</time>
      </trkpt>
      <trkpt lat="43.00510833" lon="-1.28540833">
        <ele>1053.0</ele>
        <time>2019-07-31T09:16:57.089Z</time>
      </trkpt>
      <trkpt lat="43.00509667" lon="-1.28539167">
        <ele>1053.0</ele>
        <time>2019-07-31T09:16:58.092Z</time>
      </trkpt>
      <trkpt lat="43.005085" lon="-1.28537667">
        <ele>1053.0</ele>
        <time>2019-07-31T09:16:59.098Z</time>
      </trkpt>
      <trkpt lat="43.005075" lon="-1.28536">
        <ele>1053.0</ele>
        <time>2019-07-31T09:17:00.103Z</time>
      </trkpt>
      <trkpt lat="43.005065" lon="-1.28534833">
        <ele>1053.0</ele>
        <time>2019-07-31T09:17:01.108Z</time>
      </trkpt>
      <trkpt lat="43.00505167" lon="-1.28533333">
        <ele>1052.0</ele>
        <time>2019-07-31T09:17:02.115Z</time>
      </trkpt>
      <trkpt lat="43.00504" lon="-1.28532">
        <ele>1052.0</ele>
        <time>2019-07-31T09:17:03.122Z</time>
      </trkpt>
      <trkpt lat="43.00502667" lon="-1.285305">
        <ele>1052.0</ele>
        <time>2019-07-31T09:17:04.128Z</time>
      </trkpt>
      <trkpt lat="43.005015" lon="-1.28529">
        <ele>1051.0</ele>
        <time>2019-07-31T09:17:05.135Z</time>
      </trkpt>
      <trkpt lat="43.00500167" lon="-1.28527667">
        <ele>1051.0</ele>
        <time>2019-07-31T09:17:06.142Z</time>
      </trkpt>
      <trkpt lat="43.00499167" lon="-1.285265">
        <ele>1050.0</ele>
        <time>2019-07-31T09:17:07.148Z</time>
      </trkpt>
      <trkpt lat="43.00497833" lon="-1.28525167">
        <ele>1050.0</ele>
        <time>2019-07-31T09:17:08.153Z</time>
      </trkpt>
      <trkpt lat="43.00496667" lon="-1.28523667">
        <ele>1050.0</ele>
        <time>2019-07-31T09:17:09.161Z</time>
      </trkpt>
      <trkpt lat="43.00495333" lon="-1.28522">
        <ele>1050.0</ele>
        <time>2019-07-31T09:17:10.165Z</time>
      </trkpt>
      <trkpt lat="43.00494167" lon="-1.28520333">
        <ele>1050.0</ele>
        <time>2019-07-31T09:17:11.167Z</time>
      </trkpt>
      <trkpt lat="43.00493167" lon="-1.28518667">
        <ele>1050.0</ele>
        <time>2019-07-31T09:17:12.170Z</time>
      </trkpt>
      <trkpt lat="43.00492167" lon="-1.285175">
        <ele>1050.0</ele>
        <time>2019-07-31T09:17:13.177Z</time>
      </trkpt>
      <trkpt lat="43.00491167" lon="-1.285165">
        <ele>1050.0</ele>
        <time>2019-07-31T09:17:14.183Z</time>
      </trkpt>
      <trkpt lat="43.004905" lon="-1.28515">
        <ele>1050.0</ele>
        <time>2019-07-31T09:17:15.061Z</time>
      </trkpt>
      <trkpt lat="43.004895" lon="-1.285135">
        <ele>1050.0</ele>
        <time>2019-07-31T09:17:16.065Z</time>
      </trkpt>
      <trkpt lat="43.004885" lon="-1.28512">
        <ele>1050.0</ele>
        <time>2019-07-31T09:17:17.071Z</time>
      </trkpt>
      <trkpt lat="43.004875" lon="-1.28510167">
        <ele>1050.0</ele>
        <time>2019-07-31T09:17:18.079Z</time>
      </trkpt>
      <trkpt lat="43.004865" lon="-1.285085">
        <ele>1050.0</ele>
        <time>2019-07-31T09:17:19.083Z</time>
      </trkpt>
      <trkpt lat="43.004855" lon="-1.28506667">
        <ele>1050.0</ele>
        <time>2019-07-31T09:17:20.090Z</time>
      </trkpt>
      <trkpt lat="43.00484333" lon="-1.28504667">
        <ele>1051.0</ele>
        <time>2019-07-31T09:17:21.097Z</time>
      </trkpt>
      <trkpt lat="43.004835" lon="-1.28502667">
        <ele>1051.0</ele>
        <time>2019-07-31T09:17:22.103Z</time>
      </trkpt>
      <trkpt lat="43.00482667" lon="-1.285005">
        <ele>1052.0</ele>
        <time>2019-07-31T09:17:23.108Z</time>
      </trkpt>
      <trkpt lat="43.00481833" lon="-1.28498333">
        <ele>1052.0</ele>
        <time>2019-07-31T09:17:24.112Z</time>
      </trkpt>
      <trkpt lat="43.00481167" lon="-1.284965">
        <ele>1052.0</ele>
        <time>2019-07-31T09:17:25.118Z</time>
      </trkpt>
      <trkpt lat="43.004805" lon="-1.284945">
        <ele>1052.0</ele>
        <time>2019-07-31T09:17:26.124Z</time>
      </trkpt>
      <trkpt lat="43.00479333" lon="-1.28492333">
        <ele>1052.0</ele>
        <time>2019-07-31T09:17:27.130Z</time>
      </trkpt>
      <trkpt lat="43.00478167" lon="-1.28490333">
        <ele>1052.0</ele>
        <time>2019-07-31T09:17:28.137Z</time>
      </trkpt>
      <trkpt lat="43.00476833" lon="-1.28488333">
        <ele>1052.0</ele>
        <time>2019-07-31T09:17:29.142Z</time>
      </trkpt>
      <trkpt lat="43.00476" lon="-1.284865">
        <ele>1051.0</ele>
        <time>2019-07-31T09:17:30.148Z</time>
      </trkpt>
      <trkpt lat="43.00475167" lon="-1.28484667">
        <ele>1051.0</ele>
        <time>2019-07-31T09:17:31.153Z</time>
      </trkpt>
      <trkpt lat="43.00474167" lon="-1.28482667">
        <ele>1051.0</ele>
        <time>2019-07-31T09:17:32.156Z</time>
      </trkpt>
      <trkpt lat="43.004735" lon="-1.28480667">
        <ele>1051.0</ele>
        <time>2019-07-31T09:17:33.162Z</time>
      </trkpt>
      <trkpt lat="43.00472667" lon="-1.284785">
        <ele>1052.0</ele>
        <time>2019-07-31T09:17:34.166Z</time>
      </trkpt>
      <trkpt lat="43.00472" lon="-1.28476167">
        <ele>1052.0</ele>
        <time>2019-07-31T09:17:35.171Z</time>
      </trkpt>
      <trkpt lat="43.00471167" lon="-1.28474167">
        <ele>1053.0</ele>
        <time>2019-07-31T09:17:36.177Z</time>
      </trkpt>
      <trkpt lat="43.00470167" lon="-1.28472333">
        <ele>1053.0</ele>
        <time>2019-07-31T09:17:37.185Z</time>
      </trkpt>
      <trkpt lat="43.00469" lon="-1.28470667">
        <ele>1052.0</ele>
        <time>2019-07-31T09:17:38.064Z</time>
      </trkpt>
      <trkpt lat="43.00467667" lon="-1.28469">
        <ele>1052.0</ele>
        <time>2019-07-31T09:17:39.069Z</time>
      </trkpt>
      <trkpt lat="43.00466333" lon="-1.28467167">
        <ele>1052.0</ele>
        <time>2019-07-31T09:17:40.073Z</time>
      </trkpt>
      <trkpt lat="43.00465333" lon="-1.28465333">
        <ele>1052.0</ele>
        <time>2019-07-31T09:17:41.081Z</time>
      </trkpt>
      <trkpt lat="43.00464333" lon="-1.284635">
        <ele>1051.0</ele>
        <time>2019-07-31T09:17:42.086Z</time>
      </trkpt>
      <trkpt lat="43.00463333" lon="-1.28461667">
        <ele>1051.0</ele>
        <time>2019-07-31T09:17:43.090Z</time>
      </trkpt>
      <trkpt lat="43.00462333" lon="-1.2846">
        <ele>1051.0</ele>
        <time>2019-07-31T09:17:44.092Z</time>
      </trkpt>
      <trkpt lat="43.00461167" lon="-1.28457833">
        <ele>1051.0</ele>
        <time>2019-07-31T09:17:45.095Z</time>
      </trkpt>
      <trkpt lat="43.00460333" lon="-1.28455833">
        <ele>1051.0</ele>
        <time>2019-07-31T09:17:46.098Z</time>
      </trkpt>
      <trkpt lat="43.004595" lon="-1.28453667">
        <ele>1051.0</ele>
        <time>2019-07-31T09:17:47.101Z</time>
      </trkpt>
      <trkpt lat="43.004585" lon="-1.28451667">
        <ele>1051.0</ele>
        <time>2019-07-31T09:17:48.106Z</time>
      </trkpt>
      <trkpt lat="43.00457667" lon="-1.28449833">
        <ele>1051.0</ele>
        <time>2019-07-31T09:17:49.110Z</time>
      </trkpt>
      <trkpt lat="43.00456833" lon="-1.28447833">
        <ele>1050.0</ele>
        <time>2019-07-31T09:17:50.113Z</time>
      </trkpt>
      <trkpt lat="43.00455667" lon="-1.28446">
        <ele>1050.0</ele>
        <time>2019-07-31T09:17:51.120Z</time>
      </trkpt>
      <trkpt lat="43.00454667" lon="-1.28444">
        <ele>1051.0</ele>
        <time>2019-07-31T09:17:52.125Z</time>
      </trkpt>
      <trkpt lat="43.00453833" lon="-1.28442167">
        <ele>1050.0</ele>
        <time>2019-07-31T09:17:53.129Z</time>
      </trkpt>
      <trkpt lat="43.00453" lon="-1.28440167">
        <ele>1050.0</ele>
        <time>2019-07-31T09:17:54.134Z</time>
      </trkpt>
      <trkpt lat="43.00452333" lon="-1.28438167">
        <ele>1050.0</ele>
        <time>2019-07-31T09:17:55.139Z</time>
      </trkpt>
      <trkpt lat="43.00451667" lon="-1.28435833">
        <ele>1050.0</ele>
        <time>2019-07-31T09:17:56.144Z</time>
      </trkpt>
      <trkpt lat="43.00450833" lon="-1.28433667">
        <ele>1051.0</ele>
        <time>2019-07-31T09:17:57.151Z</time>
      </trkpt>
      <trkpt lat="43.00450167" lon="-1.28431667">
        <ele>1050.0</ele>
        <time>2019-07-31T09:17:58.158Z</time>
      </trkpt>
      <trkpt lat="43.00449333" lon="-1.28429667">
        <ele>1050.0</ele>
        <time>2019-07-31T09:17:59.163Z</time>
      </trkpt>
      <trkpt lat="43.00448167" lon="-1.28427667">
        <ele>1050.0</ele>
        <time>2019-07-31T09:18:00.168Z</time>
      </trkpt>
      <trkpt lat="43.00447167" lon="-1.284255">
        <ele>1050.0</ele>
        <time>2019-07-31T09:18:01.174Z</time>
      </trkpt>
      <trkpt lat="43.00446333" lon="-1.284235">
        <ele>1050.0</ele>
        <time>2019-07-31T09:18:02.180Z</time>
      </trkpt>
      <trkpt lat="43.00445333" lon="-1.284215">
        <ele>1050.0</ele>
        <time>2019-07-31T09:18:03.062Z</time>
      </trkpt>
      <trkpt lat="43.00444333" lon="-1.28419333">
        <ele>1049.0</ele>
        <time>2019-07-31T09:18:04.065Z</time>
      </trkpt>
      <trkpt lat="43.00443333" lon="-1.28417167">
        <ele>1050.0</ele>
        <time>2019-07-31T09:18:05.069Z</time>
      </trkpt>
      <trkpt lat="43.004425" lon="-1.28415">
        <ele>1050.0</ele>
        <time>2019-07-31T09:18:06.076Z</time>
      </trkpt>
      <trkpt lat="43.004415" lon="-1.28412667">
        <ele>1050.0</ele>
        <time>2019-07-31T09:18:07.082Z</time>
      </trkpt>
      <trkpt lat="43.00440833" lon="-1.28410667">
        <ele>1050.0</ele>
        <time>2019-07-31T09:18:08.088Z</time>
      </trkpt>
      <trkpt lat="43.0044" lon="-1.284085">
        <ele>1049.0</ele>
        <time>2019-07-31T09:18:09.095Z</time>
      </trkpt>
      <trkpt lat="43.00439167" lon="-1.284065">
        <ele>1049.0</ele>
        <time>2019-07-31T09:18:10.102Z</time>
      </trkpt>
      <trkpt lat="43.00438333" lon="-1.28404333">
        <ele>1049.0</ele>
        <time>2019-07-31T09:18:11.108Z</time>
      </trkpt>
      <trkpt lat="43.00437667" lon="-1.28402167">
        <ele>1049.0</ele>
        <time>2019-07-31T09:18:12.115Z</time>
      </trkpt>
      <trkpt lat="43.00437" lon="-1.28400167">
        <ele>1049.0</ele>
        <time>2019-07-31T09:18:13.122Z</time>
      </trkpt>
      <trkpt lat="43.004365" lon="-1.28397833">
        <ele>1048.0</ele>
        <time>2019-07-31T09:18:14.127Z</time>
      </trkpt>
      <trkpt lat="43.00435667" lon="-1.28395333">
        <ele>1049.0</ele>
        <time>2019-07-31T09:18:15.132Z</time>
      </trkpt>
      <trkpt lat="43.00435" lon="-1.28393">
        <ele>1049.0</ele>
        <time>2019-07-31T09:18:16.137Z</time>
      </trkpt>
      <trkpt lat="43.004345" lon="-1.28391">
        <ele>1049.0</ele>
        <time>2019-07-31T09:18:17.143Z</time>
      </trkpt>
      <trkpt lat="43.00434" lon="-1.28388667">
        <ele>1049.0</ele>
        <time>2019-07-31T09:18:18.150Z</time>
      </trkpt>
      <trkpt lat="43.00433333" lon="-1.283865">
        <ele>1049.0</ele>
        <time>2019-07-31T09:18:19.156Z</time>
      </trkpt>
      <trkpt lat="43.00432667" lon="-1.28384333">
        <ele>1050.0</ele>
        <time>2019-07-31T09:18:20.162Z</time>
      </trkpt>
      <trkpt lat="43.00432167" lon="-1.28382">
        <ele>1049.0</ele>
        <time>2019-07-31T09:18:21.165Z</time>
      </trkpt>
      <trkpt lat="43.00431833" lon="-1.28379667">
        <ele>1049.0</ele>
        <time>2019-07-31T09:18:22.168Z</time>
      </trkpt>
      <trkpt lat="43.00431167" lon="-1.28377333">
        <ele>1049.0</ele>
        <time>2019-07-31T09:18:23.173Z</time>
      </trkpt>
      <trkpt lat="43.00430667" lon="-1.28375">
        <ele>1049.0</ele>
        <time>2019-07-31T09:18:24.178Z</time>
      </trkpt>
      <trkpt lat="43.0043" lon="-1.28372833">
        <ele>1049.0</ele>
        <time>2019-07-31T09:18:25.181Z</time>
      </trkpt>
      <trkpt lat="43.00429333" lon="-1.283705">
        <ele>1049.0</ele>
        <time>2019-07-31T09:18:26.061Z</time>
      </trkpt>
      <trkpt lat="43.00428833" lon="-1.28368167">
        <ele>1049.0</ele>
        <time>2019-07-31T09:18:27.068Z</time>
      </trkpt>
      <trkpt lat="43.00428333" lon="-1.28365833">
        <ele>1049.0</ele>
        <time>2019-07-31T09:18:28.074Z</time>
      </trkpt>
      <trkpt lat="43.00427667" lon="-1.283635">
        <ele>1049.0</ele>
        <time>2019-07-31T09:18:29.079Z</time>
      </trkpt>
      <trkpt lat="43.00427167" lon="-1.283615">
        <ele>1049.0</ele>
        <time>2019-07-31T09:18:30.085Z</time>
      </trkpt>
      <trkpt lat="43.00426667" lon="-1.28359167">
        <ele>1049.0</ele>
        <time>2019-07-31T09:18:31.092Z</time>
      </trkpt>
      <trkpt lat="43.00426167" lon="-1.28356833">
        <ele>1049.0</ele>
        <time>2019-07-31T09:18:32.098Z</time>
      </trkpt>
      <trkpt lat="43.004255" lon="-1.28354667">
        <ele>1049.0</ele>
        <time>2019-07-31T09:18:33.102Z</time>
      </trkpt>
      <trkpt lat="43.00424833" lon="-1.283525">
        <ele>1048.0</ele>
        <time>2019-07-31T09:18:34.108Z</time>
      </trkpt>
      <trkpt lat="43.00424167" lon="-1.283505">
        <ele>1048.0</ele>
        <time>2019-07-31T09:18:35.113Z</time>
      </trkpt>
      <trkpt lat="43.00423667" lon="-1.28348333">
        <ele>1048.0</ele>
        <time>2019-07-31T09:18:36.120Z</time>
      </trkpt>
      <trkpt lat="43.00423167" lon="-1.28345833">
        <ele>1048.0</ele>
        <time>2019-07-31T09:18:37.125Z</time>
      </trkpt>
      <trkpt lat="43.00422667" lon="-1.28344">
        <ele>1048.0</ele>
        <time>2019-07-31T09:18:38.131Z</time>
      </trkpt>
      <trkpt lat="43.00422" lon="-1.28341667">
        <ele>1048.0</ele>
        <time>2019-07-31T09:18:39.139Z</time>
      </trkpt>
      <trkpt lat="43.00421167" lon="-1.28339333">
        <ele>1048.0</ele>
        <time>2019-07-31T09:18:40.147Z</time>
      </trkpt>
      <trkpt lat="43.00420667" lon="-1.28337">
        <ele>1048.0</ele>
        <time>2019-07-31T09:18:41.154Z</time>
      </trkpt>
      <trkpt lat="43.00420333" lon="-1.283345">
        <ele>1049.0</ele>
        <time>2019-07-31T09:18:42.161Z</time>
      </trkpt>
      <trkpt lat="43.00419833" lon="-1.28332">
        <ele>1049.0</ele>
        <time>2019-07-31T09:18:43.167Z</time>
      </trkpt>
      <trkpt lat="43.00419333" lon="-1.28329667">
        <ele>1049.0</ele>
        <time>2019-07-31T09:18:44.172Z</time>
      </trkpt>
      <trkpt lat="43.00418833" lon="-1.283275">
        <ele>1048.0</ele>
        <time>2019-07-31T09:18:45.177Z</time>
      </trkpt>
      <trkpt lat="43.00418167" lon="-1.28325333">
        <ele>1048.0</ele>
        <time>2019-07-31T09:18:46.181Z</time>
      </trkpt>
      <trkpt lat="43.004175" lon="-1.28323167">
        <ele>1048.0</ele>
        <time>2019-07-31T09:18:47.184Z</time>
      </trkpt>
      <trkpt lat="43.00416833" lon="-1.28321">
        <ele>1048.0</ele>
        <time>2019-07-31T09:18:48.065Z</time>
      </trkpt>
      <trkpt lat="43.00416167" lon="-1.28319167">
        <ele>1048.0</ele>
        <time>2019-07-31T09:18:49.071Z</time>
      </trkpt>
      <trkpt lat="43.00415333" lon="-1.28317">
        <ele>1047.0</ele>
        <time>2019-07-31T09:18:50.075Z</time>
      </trkpt>
      <trkpt lat="43.00414667" lon="-1.28314833">
        <ele>1047.0</ele>
        <time>2019-07-31T09:18:51.080Z</time>
      </trkpt>
      <trkpt lat="43.00413833" lon="-1.283125">
        <ele>1047.0</ele>
        <time>2019-07-31T09:18:52.085Z</time>
      </trkpt>
      <trkpt lat="43.00413167" lon="-1.28310333">
        <ele>1047.0</ele>
        <time>2019-07-31T09:18:53.092Z</time>
      </trkpt>
      <trkpt lat="43.004125" lon="-1.28307833">
        <ele>1047.0</ele>
        <time>2019-07-31T09:18:54.097Z</time>
      </trkpt>
      <trkpt lat="43.00412" lon="-1.28305667">
        <ele>1047.0</ele>
        <time>2019-07-31T09:18:55.103Z</time>
      </trkpt>
      <trkpt lat="43.00411333" lon="-1.28303667">
        <ele>1047.0</ele>
        <time>2019-07-31T09:18:56.108Z</time>
      </trkpt>
      <trkpt lat="43.00410833" lon="-1.28301333">
        <ele>1047.0</ele>
        <time>2019-07-31T09:18:57.114Z</time>
      </trkpt>
      <trkpt lat="43.0041" lon="-1.28299">
        <ele>1047.0</ele>
        <time>2019-07-31T09:18:58.119Z</time>
      </trkpt>
      <trkpt lat="43.004095" lon="-1.28296833">
        <ele>1047.0</ele>
        <time>2019-07-31T09:18:59.124Z</time>
      </trkpt>
      <trkpt lat="43.00408833" lon="-1.282945">
        <ele>1047.0</ele>
        <time>2019-07-31T09:19:00.127Z</time>
      </trkpt>
      <trkpt lat="43.00408" lon="-1.28292167">
        <ele>1048.0</ele>
        <time>2019-07-31T09:19:01.134Z</time>
      </trkpt>
      <trkpt lat="43.00407167" lon="-1.2829">
        <ele>1048.0</ele>
        <time>2019-07-31T09:19:02.139Z</time>
      </trkpt>
      <trkpt lat="43.00406667" lon="-1.28288167">
        <ele>1047.0</ele>
        <time>2019-07-31T09:19:03.144Z</time>
      </trkpt>
      <trkpt lat="43.00406" lon="-1.28285833">
        <ele>1048.0</ele>
        <time>2019-07-31T09:19:04.150Z</time>
      </trkpt>
      <trkpt lat="43.00405333" lon="-1.28283833">
        <ele>1048.0</ele>
        <time>2019-07-31T09:19:05.156Z</time>
      </trkpt>
      <trkpt lat="43.00404833" lon="-1.28281667">
        <ele>1048.0</ele>
        <time>2019-07-31T09:19:06.160Z</time>
      </trkpt>
      <trkpt lat="43.00404167" lon="-1.28279667">
        <ele>1047.0</ele>
        <time>2019-07-31T09:19:07.163Z</time>
      </trkpt>
      <trkpt lat="43.004035" lon="-1.28277333">
        <ele>1047.0</ele>
        <time>2019-07-31T09:19:08.167Z</time>
      </trkpt>
      <trkpt lat="43.00403" lon="-1.282755">
        <ele>1047.0</ele>
        <time>2019-07-31T09:19:09.171Z</time>
      </trkpt>
      <trkpt lat="43.00402333" lon="-1.28273667">
        <ele>1047.0</ele>
        <time>2019-07-31T09:19:10.175Z</time>
      </trkpt>
      <trkpt lat="43.00401667" lon="-1.282715">
        <ele>1047.0</ele>
        <time>2019-07-31T09:19:11.181Z</time>
      </trkpt>
      <trkpt lat="43.00401" lon="-1.28269333">
        <ele>1047.0</ele>
        <time>2019-07-31T09:19:12.062Z</time>
      </trkpt>
      <trkpt lat="43.00400167" lon="-1.28267167">
        <ele>1047.0</ele>
        <time>2019-07-31T09:19:13.068Z</time>
      </trkpt>
      <trkpt lat="43.00399667" lon="-1.28264667">
        <ele>1048.0</ele>
        <time>2019-07-31T09:19:14.074Z</time>
      </trkpt>
      <trkpt lat="43.00399333" lon="-1.282625">
        <ele>1047.0</ele>
        <time>2019-07-31T09:19:15.080Z</time>
      </trkpt>
      <trkpt lat="43.00398833" lon="-1.2826">
        <ele>1047.0</ele>
        <time>2019-07-31T09:19:16.084Z</time>
      </trkpt>
      <trkpt lat="43.00398333" lon="-1.28258">
        <ele>1047.0</ele>
        <time>2019-07-31T09:19:17.090Z</time>
      </trkpt>
      <trkpt lat="43.00397667" lon="-1.28255667">
        <ele>1047.0</ele>
        <time>2019-07-31T09:19:18.093Z</time>
      </trkpt>
      <trkpt lat="43.00397" lon="-1.28253333">
        <ele>1047.0</ele>
        <time>2019-07-31T09:19:19.099Z</time>
      </trkpt>
      <trkpt lat="43.00396333" lon="-1.28251333">
        <ele>1047.0</ele>
        <time>2019-07-31T09:19:20.104Z</time>
      </trkpt>
      <trkpt lat="43.00395667" lon="-1.28249167">
        <ele>1047.0</ele>
        <time>2019-07-31T09:19:21.110Z</time>
      </trkpt>
      <trkpt lat="43.00395" lon="-1.28247">
        <ele>1047.0</ele>
        <time>2019-07-31T09:19:22.117Z</time>
      </trkpt>
      <trkpt lat="43.00394333" lon="-1.28244833">
        <ele>1047.0</ele>
        <time>2019-07-31T09:19:23.123Z</time>
      </trkpt>
      <trkpt lat="43.00393667" lon="-1.28243">
        <ele>1046.0</ele>
        <time>2019-07-31T09:19:24.126Z</time>
      </trkpt>
      <trkpt lat="43.00393167" lon="-1.28241167">
        <ele>1046.0</ele>
        <time>2019-07-31T09:19:25.132Z</time>
      </trkpt>
      <trkpt lat="43.00392333" lon="-1.28239">
        <ele>1047.0</ele>
        <time>2019-07-31T09:19:26.138Z</time>
      </trkpt>
      <trkpt lat="43.00391833" lon="-1.28237333">
        <ele>1047.0</ele>
        <time>2019-07-31T09:19:27.142Z</time>
      </trkpt>
      <trkpt lat="43.00391" lon="-1.28235">
        <ele>1047.0</ele>
        <time>2019-07-31T09:19:28.146Z</time>
      </trkpt>
      <trkpt lat="43.00390333" lon="-1.28233">
        <ele>1047.0</ele>
        <time>2019-07-31T09:19:29.153Z</time>
      </trkpt>
      <trkpt lat="43.00389667" lon="-1.28230833">
        <ele>1047.0</ele>
        <time>2019-07-31T09:19:30.159Z</time>
      </trkpt>
      <trkpt lat="43.00388833" lon="-1.28228833">
        <ele>1047.0</ele>
        <time>2019-07-31T09:19:31.161Z</time>
      </trkpt>
      <trkpt lat="43.003885" lon="-1.28226833">
        <ele>1047.0</ele>
        <time>2019-07-31T09:19:32.164Z</time>
      </trkpt>
      <trkpt lat="43.003875" lon="-1.28224833">
        <ele>1047.0</ele>
        <time>2019-07-31T09:19:33.166Z</time>
      </trkpt>
      <trkpt lat="43.00387" lon="-1.282225">
        <ele>1047.0</ele>
        <time>2019-07-31T09:19:34.170Z</time>
      </trkpt>
      <trkpt lat="43.00386167" lon="-1.28220333">
        <ele>1047.0</ele>
        <time>2019-07-31T09:19:35.175Z</time>
      </trkpt>
      <trkpt lat="43.00385167" lon="-1.28218167">
        <ele>1047.0</ele>
        <time>2019-07-31T09:19:36.179Z</time>
      </trkpt>
      <trkpt lat="43.00384667" lon="-1.28216167">
        <ele>1047.0</ele>
        <time>2019-07-31T09:19:37.184Z</time>
      </trkpt>
      <trkpt lat="43.00384333" lon="-1.28213833">
        <ele>1047.0</ele>
        <time>2019-07-31T09:19:38.185Z</time>
      </trkpt>
      <trkpt lat="43.003835" lon="-1.282115">
        <ele>1047.0</ele>
        <time>2019-07-31T09:19:39.064Z</time>
      </trkpt>
      <trkpt lat="43.00383167" lon="-1.28209667">
        <ele>1047.0</ele>
        <time>2019-07-31T09:19:40.068Z</time>
      </trkpt>
      <trkpt lat="43.00382833" lon="-1.28207667">
        <ele>1047.0</ele>
        <time>2019-07-31T09:19:41.073Z</time>
      </trkpt>
      <trkpt lat="43.00382333" lon="-1.28205333">
        <ele>1046.0</ele>
        <time>2019-07-31T09:19:42.077Z</time>
      </trkpt>
      <trkpt lat="43.00381833" lon="-1.28202833">
        <ele>1046.0</ele>
        <time>2019-07-31T09:19:43.083Z</time>
      </trkpt>
      <trkpt lat="43.00381167" lon="-1.28200167">
        <ele>1046.0</ele>
        <time>2019-07-31T09:19:44.088Z</time>
      </trkpt>
      <trkpt lat="43.00380667" lon="-1.28198167">
        <ele>1046.0</ele>
        <time>2019-07-31T09:19:45.094Z</time>
      </trkpt>
      <trkpt lat="43.00380333" lon="-1.28196">
        <ele>1046.0</ele>
        <time>2019-07-31T09:19:46.098Z</time>
      </trkpt>
      <trkpt lat="43.0038" lon="-1.28193833">
        <ele>1047.0</ele>
        <time>2019-07-31T09:19:47.101Z</time>
      </trkpt>
      <trkpt lat="43.00379667" lon="-1.28191833">
        <ele>1046.0</ele>
        <time>2019-07-31T09:19:48.105Z</time>
      </trkpt>
      <trkpt lat="43.00379" lon="-1.28189833">
        <ele>1046.0</ele>
        <time>2019-07-31T09:19:49.107Z</time>
      </trkpt>
      <trkpt lat="43.00378333" lon="-1.281875">
        <ele>1046.0</ele>
        <time>2019-07-31T09:19:50.112Z</time>
      </trkpt>
      <trkpt lat="43.00377667" lon="-1.28185167">
        <ele>1046.0</ele>
        <time>2019-07-31T09:19:51.119Z</time>
      </trkpt>
      <trkpt lat="43.003775" lon="-1.28183">
        <ele>1046.0</ele>
        <time>2019-07-31T09:19:52.123Z</time>
      </trkpt>
      <trkpt lat="43.00377333" lon="-1.281805">
        <ele>1046.0</ele>
        <time>2019-07-31T09:19:53.127Z</time>
      </trkpt>
      <trkpt lat="43.00376833" lon="-1.28178667">
        <ele>1047.0</ele>
        <time>2019-07-31T09:19:54.133Z</time>
      </trkpt>
      <trkpt lat="43.00376333" lon="-1.28176667">
        <ele>1047.0</ele>
        <time>2019-07-31T09:19:55.138Z</time>
      </trkpt>
      <trkpt lat="43.00375667" lon="-1.28174833">
        <ele>1047.0</ele>
        <time>2019-07-31T09:19:56.143Z</time>
      </trkpt>
      <trkpt lat="43.00374667" lon="-1.28172833">
        <ele>1047.0</ele>
        <time>2019-07-31T09:19:57.150Z</time>
      </trkpt>
      <trkpt lat="43.00373667" lon="-1.28171">
        <ele>1047.0</ele>
        <time>2019-07-31T09:19:58.154Z</time>
      </trkpt>
      <trkpt lat="43.00372667" lon="-1.28169667">
        <ele>1047.0</ele>
        <time>2019-07-31T09:19:59.157Z</time>
      </trkpt>
      <trkpt lat="43.00371667" lon="-1.281685">
        <ele>1047.0</ele>
        <time>2019-07-31T09:20:00.161Z</time>
      </trkpt>
      <trkpt lat="43.00370833" lon="-1.28167333">
        <ele>1047.0</ele>
        <time>2019-07-31T09:20:01.167Z</time>
      </trkpt>
      <trkpt lat="43.00369833" lon="-1.28166">
        <ele>1047.0</ele>
        <time>2019-07-31T09:20:02.173Z</time>
      </trkpt>
      <trkpt lat="43.003685" lon="-1.28164667">
        <ele>1047.0</ele>
        <time>2019-07-31T09:20:03.178Z</time>
      </trkpt>
      <trkpt lat="43.00367167" lon="-1.28163">
        <ele>1047.0</ele>
        <time>2019-07-31T09:20:04.185Z</time>
      </trkpt>
      <trkpt lat="43.003655" lon="-1.28162167">
        <ele>1048.0</ele>
        <time>2019-07-31T09:20:05.063Z</time>
      </trkpt>
      <trkpt lat="43.00364167" lon="-1.28161167">
        <ele>1048.0</ele>
        <time>2019-07-31T09:20:06.068Z</time>
      </trkpt>
      <trkpt lat="43.00362667" lon="-1.2816">
        <ele>1048.0</ele>
        <time>2019-07-31T09:20:07.073Z</time>
      </trkpt>
      <trkpt lat="43.00361167" lon="-1.28159">
        <ele>1049.0</ele>
        <time>2019-07-31T09:20:08.080Z</time>
      </trkpt>
      <trkpt lat="43.00360333" lon="-1.281575">
        <ele>1050.0</ele>
        <time>2019-07-31T09:20:09.084Z</time>
      </trkpt>
      <trkpt lat="43.00359167" lon="-1.28156333">
        <ele>1050.0</ele>
        <time>2019-07-31T09:20:10.090Z</time>
      </trkpt>
      <trkpt lat="43.00358167" lon="-1.28155167">
        <ele>1051.0</ele>
        <time>2019-07-31T09:20:11.097Z</time>
      </trkpt>
      <trkpt lat="43.00356667" lon="-1.28154167">
        <ele>1051.0</ele>
        <time>2019-07-31T09:20:12.102Z</time>
      </trkpt>
      <trkpt lat="43.00355333" lon="-1.28152833">
        <ele>1052.0</ele>
        <time>2019-07-31T09:20:13.108Z</time>
      </trkpt>
      <trkpt lat="43.00354" lon="-1.28151833">
        <ele>1053.0</ele>
        <time>2019-07-31T09:20:14.113Z</time>
      </trkpt>
      <trkpt lat="43.00352833" lon="-1.281505">
        <ele>1053.0</ele>
        <time>2019-07-31T09:20:15.120Z</time>
      </trkpt>
      <trkpt lat="43.003515" lon="-1.281495">
        <ele>1052.0</ele>
        <time>2019-07-31T09:20:16.124Z</time>
      </trkpt>
      <trkpt lat="43.0035" lon="-1.28148667">
        <ele>1052.0</ele>
        <time>2019-07-31T09:20:17.130Z</time>
      </trkpt>
      <trkpt lat="43.00348667" lon="-1.28147833">
        <ele>1053.0</ele>
        <time>2019-07-31T09:20:18.138Z</time>
      </trkpt>
      <trkpt lat="43.00347333" lon="-1.28147333">
        <ele>1053.0</ele>
        <time>2019-07-31T09:20:19.145Z</time>
      </trkpt>
      <trkpt lat="43.00346" lon="-1.28146333">
        <ele>1052.0</ele>
        <time>2019-07-31T09:20:20.150Z</time>
      </trkpt>
      <trkpt lat="43.00345167" lon="-1.281445">
        <ele>1052.0</ele>
        <time>2019-07-31T09:20:21.157Z</time>
      </trkpt>
      <trkpt lat="43.00343667" lon="-1.28143">
        <ele>1052.0</ele>
        <time>2019-07-31T09:20:22.162Z</time>
      </trkpt>
      <trkpt lat="43.00342" lon="-1.28142333">
        <ele>1053.0</ele>
        <time>2019-07-31T09:20:23.167Z</time>
      </trkpt>
      <trkpt lat="43.00339667" lon="-1.28142">
        <ele>1053.0</ele>
        <time>2019-07-31T09:20:24.172Z</time>
      </trkpt>
      <trkpt lat="43.00338333" lon="-1.28140833">
        <ele>1053.0</ele>
        <time>2019-07-31T09:20:25.178Z</time>
      </trkpt>
      <trkpt lat="43.00336833" lon="-1.2814">
        <ele>1053.0</ele>
        <time>2019-07-31T09:20:26.183Z</time>
      </trkpt>
      <trkpt lat="43.00335333" lon="-1.281385">
        <ele>1052.0</ele>
        <time>2019-07-31T09:20:27.061Z</time>
      </trkpt>
      <trkpt lat="43.003345" lon="-1.28136833">
        <ele>1051.0</ele>
        <time>2019-07-31T09:20:28.065Z</time>
      </trkpt>
      <trkpt lat="43.00333167" lon="-1.281355">
        <ele>1050.0</ele>
        <time>2019-07-31T09:20:29.071Z</time>
      </trkpt>
      <trkpt lat="43.00331833" lon="-1.28134">
        <ele>1050.0</ele>
        <time>2019-07-31T09:20:30.076Z</time>
      </trkpt>
      <trkpt lat="43.0033" lon="-1.28132333">
        <ele>1050.0</ele>
        <time>2019-07-31T09:20:31.081Z</time>
      </trkpt>
      <trkpt lat="43.00328667" lon="-1.28131167">
        <ele>1050.0</ele>
        <time>2019-07-31T09:20:32.085Z</time>
      </trkpt>
      <trkpt lat="43.00327" lon="-1.2813">
        <ele>1050.0</ele>
        <time>2019-07-31T09:20:33.090Z</time>
      </trkpt>
      <trkpt lat="43.00325333" lon="-1.28129167">
        <ele>1050.0</ele>
        <time>2019-07-31T09:20:34.095Z</time>
      </trkpt>
      <trkpt lat="43.00324333" lon="-1.28128167">
        <ele>1049.0</ele>
        <time>2019-07-31T09:20:35.101Z</time>
      </trkpt>
      <trkpt lat="43.00322667" lon="-1.28126833">
        <ele>1048.0</ele>
        <time>2019-07-31T09:20:36.107Z</time>
      </trkpt>
      <trkpt lat="43.00320833" lon="-1.28126">
        <ele>1048.0</ele>
        <time>2019-07-31T09:20:37.111Z</time>
      </trkpt>
      <trkpt lat="43.003195" lon="-1.28124667">
        <ele>1047.0</ele>
        <time>2019-07-31T09:20:38.115Z</time>
      </trkpt>
      <trkpt lat="43.00318167" lon="-1.28123667">
        <ele>1047.0</ele>
        <time>2019-07-31T09:20:39.120Z</time>
      </trkpt>
      <trkpt lat="43.00316667" lon="-1.28123">
        <ele>1046.0</ele>
        <time>2019-07-31T09:20:40.124Z</time>
      </trkpt>
      <trkpt lat="43.00315167" lon="-1.28121667">
        <ele>1046.0</ele>
        <time>2019-07-31T09:20:41.129Z</time>
      </trkpt>
      <trkpt lat="43.003135" lon="-1.2812">
        <ele>1046.0</ele>
        <time>2019-07-31T09:20:42.134Z</time>
      </trkpt>
      <trkpt lat="43.00311833" lon="-1.281185">
        <ele>1046.0</ele>
        <time>2019-07-31T09:20:43.138Z</time>
      </trkpt>
      <trkpt lat="43.00309833" lon="-1.28117167">
        <ele>1046.0</ele>
        <time>2019-07-31T09:20:44.144Z</time>
      </trkpt>
      <trkpt lat="43.00308" lon="-1.28116167">
        <ele>1047.0</ele>
        <time>2019-07-31T09:20:45.149Z</time>
      </trkpt>
      <trkpt lat="43.00306667" lon="-1.28114833">
        <ele>1047.0</ele>
        <time>2019-07-31T09:20:46.155Z</time>
      </trkpt>
      <trkpt lat="43.00305" lon="-1.28114">
        <ele>1046.0</ele>
        <time>2019-07-31T09:20:47.162Z</time>
      </trkpt>
      <trkpt lat="43.00303667" lon="-1.28113">
        <ele>1046.0</ele>
        <time>2019-07-31T09:20:48.168Z</time>
      </trkpt>
      <trkpt lat="43.00302167" lon="-1.28111833">
        <ele>1046.0</ele>
        <time>2019-07-31T09:20:49.173Z</time>
      </trkpt>
      <trkpt lat="43.00300333" lon="-1.28110667">
        <ele>1046.0</ele>
        <time>2019-07-31T09:20:50.179Z</time>
      </trkpt>
      <trkpt lat="43.00299167" lon="-1.28108833">
        <ele>1046.0</ele>
        <time>2019-07-31T09:20:51.183Z</time>
      </trkpt>
      <trkpt lat="43.00297833" lon="-1.28107333">
        <ele>1045.0</ele>
        <time>2019-07-31T09:20:52.064Z</time>
      </trkpt>
      <trkpt lat="43.00296667" lon="-1.281055">
        <ele>1045.0</ele>
        <time>2019-07-31T09:20:53.068Z</time>
      </trkpt>
      <trkpt lat="43.00295333" lon="-1.28104167">
        <ele>1045.0</ele>
        <time>2019-07-31T09:20:54.074Z</time>
      </trkpt>
      <trkpt lat="43.00293667" lon="-1.28102833">
        <ele>1045.0</ele>
        <time>2019-07-31T09:20:55.078Z</time>
      </trkpt>
      <trkpt lat="43.002925" lon="-1.28101667">
        <ele>1045.0</ele>
        <time>2019-07-31T09:20:56.084Z</time>
      </trkpt>
      <trkpt lat="43.00291167" lon="-1.28100333">
        <ele>1045.0</ele>
        <time>2019-07-31T09:20:57.090Z</time>
      </trkpt>
      <trkpt lat="43.00289667" lon="-1.28099">
        <ele>1045.0</ele>
        <time>2019-07-31T09:20:58.097Z</time>
      </trkpt>
      <trkpt lat="43.00288167" lon="-1.28097667">
        <ele>1045.0</ele>
        <time>2019-07-31T09:20:59.101Z</time>
      </trkpt>
      <trkpt lat="43.00286833" lon="-1.28096167">
        <ele>1045.0</ele>
        <time>2019-07-31T09:21:00.107Z</time>
      </trkpt>
      <trkpt lat="43.002855" lon="-1.28094833">
        <ele>1045.0</ele>
        <time>2019-07-31T09:21:01.113Z</time>
      </trkpt>
      <trkpt lat="43.00284167" lon="-1.28093333">
        <ele>1044.0</ele>
        <time>2019-07-31T09:21:02.118Z</time>
      </trkpt>
      <trkpt lat="43.00283" lon="-1.28091833">
        <ele>1044.0</ele>
        <time>2019-07-31T09:21:03.124Z</time>
      </trkpt>
      <trkpt lat="43.00282" lon="-1.28090167">
        <ele>1044.0</ele>
        <time>2019-07-31T09:21:04.130Z</time>
      </trkpt>
      <trkpt lat="43.00281167" lon="-1.28088833">
        <ele>1044.0</ele>
        <time>2019-07-31T09:21:05.136Z</time>
      </trkpt>
      <trkpt lat="43.00280167" lon="-1.28087167">
        <ele>1044.0</ele>
        <time>2019-07-31T09:21:06.140Z</time>
      </trkpt>
      <trkpt lat="43.00279" lon="-1.280855">
        <ele>1044.0</ele>
        <time>2019-07-31T09:21:07.145Z</time>
      </trkpt>
      <trkpt lat="43.00278" lon="-1.28083833">
        <ele>1044.0</ele>
        <time>2019-07-31T09:21:08.151Z</time>
      </trkpt>
      <trkpt lat="43.00276833" lon="-1.28081667">
        <ele>1043.0</ele>
        <time>2019-07-31T09:21:09.157Z</time>
      </trkpt>
      <trkpt lat="43.00276" lon="-1.28079667">
        <ele>1043.0</ele>
        <time>2019-07-31T09:21:10.163Z</time>
      </trkpt>
      <trkpt lat="43.00275" lon="-1.28077667">
        <ele>1043.0</ele>
        <time>2019-07-31T09:21:11.166Z</time>
      </trkpt>
      <trkpt lat="43.00273833" lon="-1.28075667">
        <ele>1043.0</ele>
        <time>2019-07-31T09:21:12.172Z</time>
      </trkpt>
      <trkpt lat="43.00272667" lon="-1.28073833">
        <ele>1043.0</ele>
        <time>2019-07-31T09:21:13.177Z</time>
      </trkpt>
      <trkpt lat="43.00271333" lon="-1.28072167">
        <ele>1043.0</ele>
        <time>2019-07-31T09:21:14.182Z</time>
      </trkpt>
      <trkpt lat="43.00270167" lon="-1.28070667">
        <ele>1043.0</ele>
        <time>2019-07-31T09:21:15.062Z</time>
      </trkpt>
      <trkpt lat="43.00269" lon="-1.28068833">
        <ele>1043.0</ele>
        <time>2019-07-31T09:21:16.068Z</time>
      </trkpt>
      <trkpt lat="43.00268" lon="-1.28067167">
        <ele>1042.0</ele>
        <time>2019-07-31T09:21:17.073Z</time>
      </trkpt>
      <trkpt lat="43.00267" lon="-1.280655">
        <ele>1042.0</ele>
        <time>2019-07-31T09:21:18.077Z</time>
      </trkpt>
      <trkpt lat="43.00265833" lon="-1.28063667">
        <ele>1042.0</ele>
        <time>2019-07-31T09:21:19.082Z</time>
      </trkpt>
      <trkpt lat="43.00264667" lon="-1.28061667">
        <ele>1041.0</ele>
        <time>2019-07-31T09:21:20.085Z</time>
      </trkpt>
      <trkpt lat="43.002635" lon="-1.2806">
        <ele>1041.0</ele>
        <time>2019-07-31T09:21:21.089Z</time>
      </trkpt>
      <trkpt lat="43.002625" lon="-1.28057833">
        <ele>1041.0</ele>
        <time>2019-07-31T09:21:22.095Z</time>
      </trkpt>
      <trkpt lat="43.002615" lon="-1.28055833">
        <ele>1041.0</ele>
        <time>2019-07-31T09:21:23.099Z</time>
      </trkpt>
      <trkpt lat="43.00260667" lon="-1.28054">
        <ele>1040.0</ele>
        <time>2019-07-31T09:21:24.102Z</time>
      </trkpt>
      <trkpt lat="43.00259833" lon="-1.28052167">
        <ele>1040.0</ele>
        <time>2019-07-31T09:21:25.108Z</time>
      </trkpt>
      <trkpt lat="43.00258833" lon="-1.2805">
        <ele>1040.0</ele>
        <time>2019-07-31T09:21:26.113Z</time>
      </trkpt>
      <trkpt lat="43.00258" lon="-1.28048333">
        <ele>1040.0</ele>
        <time>2019-07-31T09:21:27.120Z</time>
      </trkpt>
      <trkpt lat="43.002575" lon="-1.280465">
        <ele>1039.0</ele>
        <time>2019-07-31T09:21:28.124Z</time>
      </trkpt>
      <trkpt lat="43.00256667" lon="-1.28044167">
        <ele>1039.0</ele>
        <time>2019-07-31T09:21:29.130Z</time>
      </trkpt>
      <trkpt lat="43.00256333" lon="-1.28042667">
        <ele>1039.0</ele>
        <time>2019-07-31T09:21:30.137Z</time>
      </trkpt>
      <trkpt lat="43.00255833" lon="-1.28040333">
        <ele>1039.0</ele>
        <time>2019-07-31T09:21:31.141Z</time>
      </trkpt>
      <trkpt lat="43.002555" lon="-1.28038167">
        <ele>1039.0</ele>
        <time>2019-07-31T09:21:32.149Z</time>
      </trkpt>
      <trkpt lat="43.00255333" lon="-1.280355">
        <ele>1039.0</ele>
        <time>2019-07-31T09:21:33.153Z</time>
      </trkpt>
      <trkpt lat="43.00255167" lon="-1.28033">
        <ele>1039.0</ele>
        <time>2019-07-31T09:21:34.157Z</time>
      </trkpt>
      <trkpt lat="43.00255167" lon="-1.28031167">
        <ele>1039.0</ele>
        <time>2019-07-31T09:21:35.161Z</time>
      </trkpt>
      <trkpt lat="43.00255" lon="-1.280285">
        <ele>1039.0</ele>
        <time>2019-07-31T09:21:36.166Z</time>
      </trkpt>
      <trkpt lat="43.00255" lon="-1.28026667">
        <ele>1038.0</ele>
        <time>2019-07-31T09:21:37.172Z</time>
      </trkpt>
      <trkpt lat="43.00255" lon="-1.28024167">
        <ele>1038.0</ele>
        <time>2019-07-31T09:21:38.178Z</time>
      </trkpt>
      <trkpt lat="43.00255333" lon="-1.28022">
        <ele>1038.0</ele>
        <time>2019-07-31T09:21:39.183Z</time>
      </trkpt>
      <trkpt lat="43.002555" lon="-1.28019833">
        <ele>1038.0</ele>
        <time>2019-07-31T09:21:40.062Z</time>
      </trkpt>
      <trkpt lat="43.00255667" lon="-1.28018">
        <ele>1038.0</ele>
        <time>2019-07-31T09:21:41.065Z</time>
      </trkpt>
      <trkpt lat="43.00256" lon="-1.280155">
        <ele>1037.0</ele>
        <time>2019-07-31T09:21:42.071Z</time>
      </trkpt>
      <trkpt lat="43.00256" lon="-1.280135">
        <ele>1038.0</ele>
        <time>2019-07-31T09:21:43.077Z</time>
      </trkpt>
      <trkpt lat="43.00256167" lon="-1.280115">
        <ele>1038.0</ele>
        <time>2019-07-31T09:21:44.081Z</time>
      </trkpt>
      <trkpt lat="43.00256333" lon="-1.28009167">
        <ele>1038.0</ele>
        <time>2019-07-31T09:21:45.083Z</time>
      </trkpt>
      <trkpt lat="43.002565" lon="-1.28007">
        <ele>1038.0</ele>
        <time>2019-07-31T09:21:46.090Z</time>
      </trkpt>
      <trkpt lat="43.00256667" lon="-1.28004833">
        <ele>1038.0</ele>
        <time>2019-07-31T09:21:47.096Z</time>
      </trkpt>
      <trkpt lat="43.00256833" lon="-1.280025">
        <ele>1037.0</ele>
        <time>2019-07-31T09:21:48.101Z</time>
      </trkpt>
      <trkpt lat="43.00257" lon="-1.28">
        <ele>1036.0</ele>
        <time>2019-07-31T09:21:49.108Z</time>
      </trkpt>
      <trkpt lat="43.00257167" lon="-1.27997667">
        <ele>1036.0</ele>
        <time>2019-07-31T09:21:50.114Z</time>
      </trkpt>
      <trkpt lat="43.00257333" lon="-1.27995667">
        <ele>1036.0</ele>
        <time>2019-07-31T09:21:51.120Z</time>
      </trkpt>
      <trkpt lat="43.00257667" lon="-1.279935">
        <ele>1036.0</ele>
        <time>2019-07-31T09:21:52.124Z</time>
      </trkpt>
      <trkpt lat="43.00258" lon="-1.27991333">
        <ele>1036.0</ele>
        <time>2019-07-31T09:21:53.131Z</time>
      </trkpt>
      <trkpt lat="43.00258333" lon="-1.279895">
        <ele>1036.0</ele>
        <time>2019-07-31T09:21:54.137Z</time>
      </trkpt>
      <trkpt lat="43.00258333" lon="-1.27987667">
        <ele>1036.0</ele>
        <time>2019-07-31T09:21:55.141Z</time>
      </trkpt>
      <trkpt lat="43.002585" lon="-1.279855">
        <ele>1036.0</ele>
        <time>2019-07-31T09:21:56.148Z</time>
      </trkpt>
      <trkpt lat="43.00258833" lon="-1.27983167">
        <ele>1036.0</ele>
        <time>2019-07-31T09:21:57.155Z</time>
      </trkpt>
      <trkpt lat="43.00259" lon="-1.27980833">
        <ele>1036.0</ele>
        <time>2019-07-31T09:21:58.162Z</time>
      </trkpt>
      <trkpt lat="43.00259167" lon="-1.27978167">
        <ele>1035.0</ele>
        <time>2019-07-31T09:21:59.168Z</time>
      </trkpt>
      <trkpt lat="43.00259333" lon="-1.27975833">
        <ele>1035.0</ele>
        <time>2019-07-31T09:22:00.173Z</time>
      </trkpt>
      <trkpt lat="43.00259167" lon="-1.27973333">
        <ele>1035.0</ele>
        <time>2019-07-31T09:22:01.178Z</time>
      </trkpt>
      <trkpt lat="43.00259" lon="-1.27971167">
        <ele>1035.0</ele>
        <time>2019-07-31T09:22:02.184Z</time>
      </trkpt>
      <trkpt lat="43.00259333" lon="-1.27969">
        <ele>1035.0</ele>
        <time>2019-07-31T09:22:03.063Z</time>
      </trkpt>
      <trkpt lat="43.00259" lon="-1.279665">
        <ele>1036.0</ele>
        <time>2019-07-31T09:22:04.068Z</time>
      </trkpt>
      <trkpt lat="43.00259" lon="-1.27964333">
        <ele>1035.0</ele>
        <time>2019-07-31T09:22:05.072Z</time>
      </trkpt>
      <trkpt lat="43.002585" lon="-1.27962167">
        <ele>1035.0</ele>
        <time>2019-07-31T09:22:06.077Z</time>
      </trkpt>
      <trkpt lat="43.00257833" lon="-1.27960167">
        <ele>1035.0</ele>
        <time>2019-07-31T09:22:07.081Z</time>
      </trkpt>
      <trkpt lat="43.00257333" lon="-1.27957667">
        <ele>1035.0</ele>
        <time>2019-07-31T09:22:08.085Z</time>
      </trkpt>
      <trkpt lat="43.00256833" lon="-1.27955167">
        <ele>1035.0</ele>
        <time>2019-07-31T09:22:09.091Z</time>
      </trkpt>
      <trkpt lat="43.002565" lon="-1.27952667">
        <ele>1035.0</ele>
        <time>2019-07-31T09:22:10.097Z</time>
      </trkpt>
      <trkpt lat="43.00256" lon="-1.27950333">
        <ele>1035.0</ele>
        <time>2019-07-31T09:22:11.103Z</time>
      </trkpt>
      <trkpt lat="43.00255333" lon="-1.27948333">
        <ele>1036.0</ele>
        <time>2019-07-31T09:22:12.108Z</time>
      </trkpt>
      <trkpt lat="43.00254333" lon="-1.27946">
        <ele>1037.0</ele>
        <time>2019-07-31T09:22:13.113Z</time>
      </trkpt>
      <trkpt lat="43.00253167" lon="-1.27944">
        <ele>1037.0</ele>
        <time>2019-07-31T09:22:14.118Z</time>
      </trkpt>
      <trkpt lat="43.00252" lon="-1.27942">
        <ele>1037.0</ele>
        <time>2019-07-31T09:22:15.123Z</time>
      </trkpt>
      <trkpt lat="43.00251" lon="-1.2794">
        <ele>1037.0</ele>
        <time>2019-07-31T09:22:16.127Z</time>
      </trkpt>
      <trkpt lat="43.00250333" lon="-1.27937833">
        <ele>1037.0</ele>
        <time>2019-07-31T09:22:17.133Z</time>
      </trkpt>
      <trkpt lat="43.002495" lon="-1.279355">
        <ele>1037.0</ele>
        <time>2019-07-31T09:22:18.139Z</time>
      </trkpt>
      <trkpt lat="43.00248667" lon="-1.27933167">
        <ele>1037.0</ele>
        <time>2019-07-31T09:22:19.143Z</time>
      </trkpt>
      <trkpt lat="43.00248" lon="-1.27931667">
        <ele>1037.0</ele>
        <time>2019-07-31T09:22:20.150Z</time>
      </trkpt>
      <trkpt lat="43.002475" lon="-1.2793">
        <ele>1036.0</ele>
        <time>2019-07-31T09:22:21.157Z</time>
      </trkpt>
      <trkpt lat="43.00247" lon="-1.27928">
        <ele>1035.0</ele>
        <time>2019-07-31T09:22:22.163Z</time>
      </trkpt>
      <trkpt lat="43.00246" lon="-1.27926">
        <ele>1035.0</ele>
        <time>2019-07-31T09:22:23.167Z</time>
      </trkpt>
      <trkpt lat="43.00245333" lon="-1.27924833">
        <ele>1034.0</ele>
        <time>2019-07-31T09:22:24.174Z</time>
      </trkpt>
      <trkpt lat="43.00244833" lon="-1.27923167">
        <ele>1034.0</ele>
        <time>2019-07-31T09:22:25.178Z</time>
      </trkpt>
      <trkpt lat="43.00243667" lon="-1.27921167">
        <ele>1033.0</ele>
        <time>2019-07-31T09:22:26.183Z</time>
      </trkpt>
      <trkpt lat="43.00242667" lon="-1.27920167">
        <ele>1032.0</ele>
        <time>2019-07-31T09:22:27.063Z</time>
      </trkpt>
      <trkpt lat="43.00241667" lon="-1.27918667">
        <ele>1032.0</ele>
        <time>2019-07-31T09:22:28.066Z</time>
      </trkpt>
      <trkpt lat="43.00241" lon="-1.27916667">
        <ele>1031.0</ele>
        <time>2019-07-31T09:22:29.071Z</time>
      </trkpt>
      <trkpt lat="43.00240333" lon="-1.27915">
        <ele>1031.0</ele>
        <time>2019-07-31T09:22:30.076Z</time>
      </trkpt>
      <trkpt lat="43.00239167" lon="-1.279125">
        <ele>1030.0</ele>
        <time>2019-07-31T09:22:31.083Z</time>
      </trkpt>
      <trkpt lat="43.00238333" lon="-1.27909667">
        <ele>1030.0</ele>
        <time>2019-07-31T09:22:32.088Z</time>
      </trkpt>
      <trkpt lat="43.00237333" lon="-1.27907667">
        <ele>1030.0</ele>
        <time>2019-07-31T09:22:33.093Z</time>
      </trkpt>
      <trkpt lat="43.00235833" lon="-1.27906">
        <ele>1030.0</ele>
        <time>2019-07-31T09:22:34.097Z</time>
      </trkpt>
      <trkpt lat="43.00234333" lon="-1.27904">
        <ele>1030.0</ele>
        <time>2019-07-31T09:22:35.101Z</time>
      </trkpt>
      <trkpt lat="43.00233" lon="-1.27901833">
        <ele>1031.0</ele>
        <time>2019-07-31T09:22:36.106Z</time>
      </trkpt>
      <trkpt lat="43.00231" lon="-1.279005">
        <ele>1031.0</ele>
        <time>2019-07-31T09:22:37.111Z</time>
      </trkpt>
      <trkpt lat="43.00229167" lon="-1.27899833">
        <ele>1032.0</ele>
        <time>2019-07-31T09:22:38.116Z</time>
      </trkpt>
      <trkpt lat="43.00227833" lon="-1.27897667">
        <ele>1031.0</ele>
        <time>2019-07-31T09:22:39.121Z</time>
      </trkpt>
      <trkpt lat="43.002265" lon="-1.27895333">
        <ele>1031.0</ele>
        <time>2019-07-31T09:22:40.125Z</time>
      </trkpt>
      <trkpt lat="43.00225667" lon="-1.27893833">
        <ele>1031.0</ele>
        <time>2019-07-31T09:22:41.130Z</time>
      </trkpt>
      <trkpt lat="43.00223333" lon="-1.278925">
        <ele>1032.0</ele>
        <time>2019-07-31T09:22:42.138Z</time>
      </trkpt>
      <trkpt lat="43.00221333" lon="-1.27890333">
        <ele>1032.0</ele>
        <time>2019-07-31T09:22:43.142Z</time>
      </trkpt>
      <trkpt lat="43.00220167" lon="-1.27889">
        <ele>1033.0</ele>
        <time>2019-07-31T09:22:44.149Z</time>
      </trkpt>
      <trkpt lat="43.00218667" lon="-1.27887667">
        <ele>1033.0</ele>
        <time>2019-07-31T09:22:45.155Z</time>
      </trkpt>
      <trkpt lat="43.00217333" lon="-1.27886333">
        <ele>1034.0</ele>
        <time>2019-07-31T09:22:46.160Z</time>
      </trkpt>
      <trkpt lat="43.00217" lon="-1.27884">
        <ele>1034.0</ele>
        <time>2019-07-31T09:22:47.164Z</time>
      </trkpt>
      <trkpt lat="43.00216" lon="-1.278825">
        <ele>1034.0</ele>
        <time>2019-07-31T09:22:48.168Z</time>
      </trkpt>
      <trkpt lat="43.00215" lon="-1.27881">
        <ele>1034.0</ele>
        <time>2019-07-31T09:22:49.173Z</time>
      </trkpt>
      <trkpt lat="43.00213833" lon="-1.27879167">
        <ele>1034.0</ele>
        <time>2019-07-31T09:22:50.180Z</time>
      </trkpt>
      <trkpt lat="43.00212833" lon="-1.278775">
        <ele>1034.0</ele>
        <time>2019-07-31T09:22:51.184Z</time>
      </trkpt>
      <trkpt lat="43.002115" lon="-1.27875833">
        <ele>1035.0</ele>
        <time>2019-07-31T09:22:52.062Z</time>
      </trkpt>
      <trkpt lat="43.00210333" lon="-1.27874">
        <ele>1035.0</ele>
        <time>2019-07-31T09:22:53.069Z</time>
      </trkpt>
      <trkpt lat="43.00209167" lon="-1.27872167">
        <ele>1036.0</ele>
        <time>2019-07-31T09:22:54.074Z</time>
      </trkpt>
      <trkpt lat="43.00208" lon="-1.27870333">
        <ele>1036.0</ele>
        <time>2019-07-31T09:22:55.079Z</time>
      </trkpt>
      <trkpt lat="43.00206833" lon="-1.278685">
        <ele>1036.0</ele>
        <time>2019-07-31T09:22:56.083Z</time>
      </trkpt>
      <trkpt lat="43.00205667" lon="-1.27866833">
        <ele>1036.0</ele>
        <time>2019-07-31T09:22:57.083Z</time>
      </trkpt>
      <trkpt lat="43.002045" lon="-1.27864833">
        <ele>1037.0</ele>
        <time>2019-07-31T09:22:58.086Z</time>
      </trkpt>
      <trkpt lat="43.002035" lon="-1.27863333">
        <ele>1037.0</ele>
        <time>2019-07-31T09:22:59.091Z</time>
      </trkpt>
      <trkpt lat="43.00202667" lon="-1.278615">
        <ele>1037.0</ele>
        <time>2019-07-31T09:23:00.097Z</time>
      </trkpt>
      <trkpt lat="43.00201833" lon="-1.27859833">
        <ele>1037.0</ele>
        <time>2019-07-31T09:23:01.103Z</time>
      </trkpt>
      <trkpt lat="43.00201167" lon="-1.27857833">
        <ele>1037.0</ele>
        <time>2019-07-31T09:23:02.108Z</time>
      </trkpt>
      <trkpt lat="43.00200333" lon="-1.27856">
        <ele>1038.0</ele>
        <time>2019-07-31T09:23:03.114Z</time>
      </trkpt>
      <trkpt lat="43.00199167" lon="-1.27854">
        <ele>1038.0</ele>
        <time>2019-07-31T09:23:04.119Z</time>
      </trkpt>
      <trkpt lat="43.00198" lon="-1.27852167">
        <ele>1039.0</ele>
        <time>2019-07-31T09:23:05.124Z</time>
      </trkpt>
      <trkpt lat="43.00196667" lon="-1.278505">
        <ele>1039.0</ele>
        <time>2019-07-31T09:23:06.129Z</time>
      </trkpt>
      <trkpt lat="43.001955" lon="-1.27848833">
        <ele>1039.0</ele>
        <time>2019-07-31T09:23:07.132Z</time>
      </trkpt>
      <trkpt lat="43.00194167" lon="-1.27846667">
        <ele>1040.0</ele>
        <time>2019-07-31T09:23:08.136Z</time>
      </trkpt>
      <trkpt lat="43.00193333" lon="-1.27845">
        <ele>1040.0</ele>
        <time>2019-07-31T09:23:09.142Z</time>
      </trkpt>
      <trkpt lat="43.001925" lon="-1.27843333">
        <ele>1040.0</ele>
        <time>2019-07-31T09:23:10.148Z</time>
      </trkpt>
      <trkpt lat="43.00191667" lon="-1.278415">
        <ele>1040.0</ele>
        <time>2019-07-31T09:23:11.154Z</time>
      </trkpt>
      <trkpt lat="43.00191" lon="-1.278395">
        <ele>1039.0</ele>
        <time>2019-07-31T09:23:12.162Z</time>
      </trkpt>
      <trkpt lat="43.00190167" lon="-1.27837">
        <ele>1039.0</ele>
        <time>2019-07-31T09:23:13.168Z</time>
      </trkpt>
      <trkpt lat="43.00189167" lon="-1.27834667">
        <ele>1038.0</ele>
        <time>2019-07-31T09:23:14.174Z</time>
      </trkpt>
      <trkpt lat="43.00188" lon="-1.27833">
        <ele>1038.0</ele>
        <time>2019-07-31T09:23:15.181Z</time>
      </trkpt>
      <trkpt lat="43.00186833" lon="-1.27831167">
        <ele>1038.0</ele>
        <time>2019-07-31T09:23:16.186Z</time>
      </trkpt>
      <trkpt lat="43.00186" lon="-1.27829333">
        <ele>1038.0</ele>
        <time>2019-07-31T09:23:17.066Z</time>
      </trkpt>
      <trkpt lat="43.00185" lon="-1.278275">
        <ele>1038.0</ele>
        <time>2019-07-31T09:23:18.070Z</time>
      </trkpt>
      <trkpt lat="43.00184167" lon="-1.278255">
        <ele>1037.0</ele>
        <time>2019-07-31T09:23:19.076Z</time>
      </trkpt>
      <trkpt lat="43.001835" lon="-1.27823667">
        <ele>1037.0</ele>
        <time>2019-07-31T09:23:20.080Z</time>
      </trkpt>
      <trkpt lat="43.00182667" lon="-1.27821333">
        <ele>1037.0</ele>
        <time>2019-07-31T09:23:21.083Z</time>
      </trkpt>
      <trkpt lat="43.00181667" lon="-1.27819333">
        <ele>1037.0</ele>
        <time>2019-07-31T09:23:22.087Z</time>
      </trkpt>
      <trkpt lat="43.00181" lon="-1.27817667">
        <ele>1037.0</ele>
        <time>2019-07-31T09:23:23.093Z</time>
      </trkpt>
      <trkpt lat="43.0018" lon="-1.27815667">
        <ele>1037.0</ele>
        <time>2019-07-31T09:23:24.099Z</time>
      </trkpt>
      <trkpt lat="43.00179" lon="-1.27813">
        <ele>1037.0</ele>
        <time>2019-07-31T09:23:25.104Z</time>
      </trkpt>
      <trkpt lat="43.00178" lon="-1.27811">
        <ele>1037.0</ele>
        <time>2019-07-31T09:23:26.109Z</time>
      </trkpt>
      <trkpt lat="43.00176833" lon="-1.27808667">
        <ele>1038.0</ele>
        <time>2019-07-31T09:23:27.115Z</time>
      </trkpt>
      <trkpt lat="43.00175833" lon="-1.27806667">
        <ele>1037.0</ele>
        <time>2019-07-31T09:23:28.120Z</time>
      </trkpt>
      <trkpt lat="43.00174833" lon="-1.27804833">
        <ele>1037.0</ele>
        <time>2019-07-31T09:23:29.125Z</time>
      </trkpt>
      <trkpt lat="43.00174" lon="-1.27802667">
        <ele>1036.0</ele>
        <time>2019-07-31T09:23:30.130Z</time>
      </trkpt>
      <trkpt lat="43.00173167" lon="-1.27800667">
        <ele>1036.0</ele>
        <time>2019-07-31T09:23:31.136Z</time>
      </trkpt>
      <trkpt lat="43.00172167" lon="-1.27798667">
        <ele>1036.0</ele>
        <time>2019-07-31T09:23:32.143Z</time>
      </trkpt>
      <trkpt lat="43.00171167" lon="-1.27796667">
        <ele>1035.0</ele>
        <time>2019-07-31T09:23:33.149Z</time>
      </trkpt>
      <trkpt lat="43.0017" lon="-1.27794667">
        <ele>1035.0</ele>
        <time>2019-07-31T09:23:34.157Z</time>
      </trkpt>
      <trkpt lat="43.00169167" lon="-1.27792667">
        <ele>1035.0</ele>
        <time>2019-07-31T09:23:35.163Z</time>
      </trkpt>
      <trkpt lat="43.00168667" lon="-1.27790667">
        <ele>1035.0</ele>
        <time>2019-07-31T09:23:36.169Z</time>
      </trkpt>
      <trkpt lat="43.00168" lon="-1.27788667">
        <ele>1035.0</ele>
        <time>2019-07-31T09:23:37.176Z</time>
      </trkpt>
      <trkpt lat="43.00167167" lon="-1.27786833">
        <ele>1035.0</ele>
        <time>2019-07-31T09:23:38.180Z</time>
      </trkpt>
      <trkpt lat="43.00166333" lon="-1.27785">
        <ele>1035.0</ele>
        <time>2019-07-31T09:23:39.184Z</time>
      </trkpt>
      <trkpt lat="43.00165833" lon="-1.27783333">
        <ele>1035.0</ele>
        <time>2019-07-31T09:23:40.064Z</time>
      </trkpt>
      <trkpt lat="43.00165167" lon="-1.27781167">
        <ele>1034.0</ele>
        <time>2019-07-31T09:23:41.070Z</time>
      </trkpt>
      <trkpt lat="43.00164667" lon="-1.27779">
        <ele>1034.0</ele>
        <time>2019-07-31T09:23:42.075Z</time>
      </trkpt>
      <trkpt lat="43.00164167" lon="-1.27777167">
        <ele>1035.0</ele>
        <time>2019-07-31T09:23:43.081Z</time>
      </trkpt>
      <trkpt lat="43.00163833" lon="-1.27775">
        <ele>1035.0</ele>
        <time>2019-07-31T09:23:44.086Z</time>
      </trkpt>
      <trkpt lat="43.00163333" lon="-1.27773167">
        <ele>1036.0</ele>
        <time>2019-07-31T09:23:45.093Z</time>
      </trkpt>
      <trkpt lat="43.00162667" lon="-1.27771167">
        <ele>1036.0</ele>
        <time>2019-07-31T09:23:46.098Z</time>
      </trkpt>
      <trkpt lat="43.00162333" lon="-1.27769">
        <ele>1036.0</ele>
        <time>2019-07-31T09:23:47.100Z</time>
      </trkpt>
      <trkpt lat="43.00161333" lon="-1.27767">
        <ele>1036.0</ele>
        <time>2019-07-31T09:23:48.106Z</time>
      </trkpt>
      <trkpt lat="43.00160333" lon="-1.27765167">
        <ele>1037.0</ele>
        <time>2019-07-31T09:23:49.113Z</time>
      </trkpt>
      <trkpt lat="43.001595" lon="-1.277635">
        <ele>1038.0</ele>
        <time>2019-07-31T09:23:50.118Z</time>
      </trkpt>
      <trkpt lat="43.00159167" lon="-1.27761167">
        <ele>1038.0</ele>
        <time>2019-07-31T09:23:51.125Z</time>
      </trkpt>
      <trkpt lat="43.001585" lon="-1.27759">
        <ele>1037.0</ele>
        <time>2019-07-31T09:23:52.131Z</time>
      </trkpt>
      <trkpt lat="43.00157667" lon="-1.27756833">
        <ele>1037.0</ele>
        <time>2019-07-31T09:23:53.136Z</time>
      </trkpt>
      <trkpt lat="43.00156833" lon="-1.27754667">
        <ele>1038.0</ele>
        <time>2019-07-31T09:23:54.141Z</time>
      </trkpt>
      <trkpt lat="43.00156167" lon="-1.27752667">
        <ele>1038.0</ele>
        <time>2019-07-31T09:23:55.148Z</time>
      </trkpt>
      <trkpt lat="43.001555" lon="-1.277505">
        <ele>1039.0</ele>
        <time>2019-07-31T09:23:56.154Z</time>
      </trkpt>
      <trkpt lat="43.00155167" lon="-1.27748167">
        <ele>1038.0</ele>
        <time>2019-07-31T09:23:57.160Z</time>
      </trkpt>
      <trkpt lat="43.00154333" lon="-1.27745833">
        <ele>1039.0</ele>
        <time>2019-07-31T09:23:58.164Z</time>
      </trkpt>
      <trkpt lat="43.00153667" lon="-1.27744">
        <ele>1039.0</ele>
        <time>2019-07-31T09:23:59.169Z</time>
      </trkpt>
      <trkpt lat="43.00152833" lon="-1.27742167">
        <ele>1039.0</ele>
        <time>2019-07-31T09:24:00.173Z</time>
      </trkpt>
      <trkpt lat="43.00152167" lon="-1.27740333">
        <ele>1040.0</ele>
        <time>2019-07-31T09:24:01.178Z</time>
      </trkpt>
      <trkpt lat="43.00151667" lon="-1.27738167">
        <ele>1040.0</ele>
        <time>2019-07-31T09:24:02.184Z</time>
      </trkpt>
      <trkpt lat="43.00150667" lon="-1.277365">
        <ele>1040.0</ele>
        <time>2019-07-31T09:24:03.065Z</time>
      </trkpt>
      <trkpt lat="43.00149833" lon="-1.27734833">
        <ele>1040.0</ele>
        <time>2019-07-31T09:24:04.071Z</time>
      </trkpt>
      <trkpt lat="43.00149" lon="-1.27733167">
        <ele>1041.0</ele>
        <time>2019-07-31T09:24:05.078Z</time>
      </trkpt>
      <trkpt lat="43.00148333" lon="-1.27731333">
        <ele>1041.0</ele>
        <time>2019-07-31T09:24:06.083Z</time>
      </trkpt>
      <trkpt lat="43.001475" lon="-1.27729667">
        <ele>1041.0</ele>
        <time>2019-07-31T09:24:07.089Z</time>
      </trkpt>
      <trkpt lat="43.001465" lon="-1.27728">
        <ele>1041.0</ele>
        <time>2019-07-31T09:24:08.095Z</time>
      </trkpt>
      <trkpt lat="43.00145667" lon="-1.27726333">
        <ele>1041.0</ele>
        <time>2019-07-31T09:24:09.099Z</time>
      </trkpt>
      <trkpt lat="43.00145" lon="-1.277245">
        <ele>1040.0</ele>
        <time>2019-07-31T09:24:10.105Z</time>
      </trkpt>
      <trkpt lat="43.00144333" lon="-1.27722333">
        <ele>1040.0</ele>
        <time>2019-07-31T09:24:11.112Z</time>
      </trkpt>
      <trkpt lat="43.001435" lon="-1.277205">
        <ele>1039.0</ele>
        <time>2019-07-31T09:24:12.118Z</time>
      </trkpt>
      <trkpt lat="43.00142333" lon="-1.27718833">
        <ele>1039.0</ele>
        <time>2019-07-31T09:24:13.123Z</time>
      </trkpt>
      <trkpt lat="43.00141" lon="-1.27717">
        <ele>1039.0</ele>
        <time>2019-07-31T09:24:14.127Z</time>
      </trkpt>
      <trkpt lat="43.00140167" lon="-1.27714833">
        <ele>1039.0</ele>
        <time>2019-07-31T09:24:15.134Z</time>
      </trkpt>
      <trkpt lat="43.00139333" lon="-1.277125">
        <ele>1038.0</ele>
        <time>2019-07-31T09:24:16.140Z</time>
      </trkpt>
      <trkpt lat="43.00138333" lon="-1.27710667">
        <ele>1038.0</ele>
        <time>2019-07-31T09:24:17.147Z</time>
      </trkpt>
      <trkpt lat="43.00137167" lon="-1.27708667">
        <ele>1038.0</ele>
        <time>2019-07-31T09:24:18.155Z</time>
      </trkpt>
      <trkpt lat="43.00136" lon="-1.27706667">
        <ele>1038.0</ele>
        <time>2019-07-31T09:24:19.162Z</time>
      </trkpt>
      <trkpt lat="43.00134833" lon="-1.27704833">
        <ele>1038.0</ele>
        <time>2019-07-31T09:24:20.168Z</time>
      </trkpt>
      <trkpt lat="43.00133667" lon="-1.27703167">
        <ele>1037.0</ele>
        <time>2019-07-31T09:24:21.173Z</time>
      </trkpt>
      <trkpt lat="43.00132667" lon="-1.27701167">
        <ele>1037.0</ele>
        <time>2019-07-31T09:24:22.179Z</time>
      </trkpt>
      <trkpt lat="43.00131833" lon="-1.27698833">
        <ele>1037.0</ele>
        <time>2019-07-31T09:24:23.183Z</time>
      </trkpt>
      <trkpt lat="43.00130833" lon="-1.27697">
        <ele>1037.0</ele>
        <time>2019-07-31T09:24:24.064Z</time>
      </trkpt>
      <trkpt lat="43.0013" lon="-1.27695">
        <ele>1036.0</ele>
        <time>2019-07-31T09:24:25.070Z</time>
      </trkpt>
      <trkpt lat="43.00129" lon="-1.276935">
        <ele>1036.0</ele>
        <time>2019-07-31T09:24:26.076Z</time>
      </trkpt>
      <trkpt lat="43.00128167" lon="-1.276915">
        <ele>1035.0</ele>
        <time>2019-07-31T09:24:27.083Z</time>
      </trkpt>
      <trkpt lat="43.00127333" lon="-1.27689167">
        <ele>1035.0</ele>
        <time>2019-07-31T09:24:28.088Z</time>
      </trkpt>
      <trkpt lat="43.00126" lon="-1.276875">
        <ele>1035.0</ele>
        <time>2019-07-31T09:24:29.095Z</time>
      </trkpt>
      <trkpt lat="43.001245" lon="-1.27686167">
        <ele>1035.0</ele>
        <time>2019-07-31T09:24:30.100Z</time>
      </trkpt>
      <trkpt lat="43.00123333" lon="-1.276845">
        <ele>1035.0</ele>
        <time>2019-07-31T09:24:31.105Z</time>
      </trkpt>
      <trkpt lat="43.00121667" lon="-1.27682333">
        <ele>1035.0</ele>
        <time>2019-07-31T09:24:32.111Z</time>
      </trkpt>
      <trkpt lat="43.001205" lon="-1.27680333">
        <ele>1035.0</ele>
        <time>2019-07-31T09:24:33.115Z</time>
      </trkpt>
      <trkpt lat="43.001195" lon="-1.27678833">
        <ele>1035.0</ele>
        <time>2019-07-31T09:24:34.120Z</time>
      </trkpt>
      <trkpt lat="43.00118167" lon="-1.27677167">
        <ele>1034.0</ele>
        <time>2019-07-31T09:24:35.125Z</time>
      </trkpt>
      <trkpt lat="43.00116833" lon="-1.27675833">
        <ele>1034.0</ele>
        <time>2019-07-31T09:24:36.130Z</time>
      </trkpt>
      <trkpt lat="43.00115333" lon="-1.27674">
        <ele>1034.0</ele>
        <time>2019-07-31T09:24:37.136Z</time>
      </trkpt>
      <trkpt lat="43.00114167" lon="-1.27672667">
        <ele>1033.0</ele>
        <time>2019-07-31T09:24:38.142Z</time>
      </trkpt>
      <trkpt lat="43.00112833" lon="-1.27671333">
        <ele>1033.0</ele>
        <time>2019-07-31T09:24:39.146Z</time>
      </trkpt>
      <trkpt lat="43.00112" lon="-1.27670167">
        <ele>1032.0</ele>
        <time>2019-07-31T09:24:40.150Z</time>
      </trkpt>
      <trkpt lat="43.00110833" lon="-1.27669167">
        <ele>1031.0</ele>
        <time>2019-07-31T09:24:41.154Z</time>
      </trkpt>
      <trkpt lat="43.00109667" lon="-1.27667667">
        <ele>1031.0</ele>
        <time>2019-07-31T09:24:42.162Z</time>
      </trkpt>
      <trkpt lat="43.001085" lon="-1.27666167">
        <ele>1030.0</ele>
        <time>2019-07-31T09:24:43.166Z</time>
      </trkpt>
      <trkpt lat="43.00107333" lon="-1.27664833">
        <ele>1030.0</ele>
        <time>2019-07-31T09:24:44.172Z</time>
      </trkpt>
      <trkpt lat="43.00106333" lon="-1.27663333">
        <ele>1030.0</ele>
        <time>2019-07-31T09:24:45.178Z</time>
      </trkpt>
      <trkpt lat="43.00105667" lon="-1.276625">
        <ele>1029.0</ele>
        <time>2019-07-31T09:24:46.186Z</time>
      </trkpt>
      <trkpt lat="43.00105" lon="-1.27661667">
        <ele>1028.0</ele>
        <time>2019-07-31T09:24:47.064Z</time>
      </trkpt>
      <trkpt lat="43.00103833" lon="-1.27661">
        <ele>1027.0</ele>
        <time>2019-07-31T09:24:48.069Z</time>
      </trkpt>
      <trkpt lat="43.00102833" lon="-1.276595">
        <ele>1026.0</ele>
        <time>2019-07-31T09:24:49.075Z</time>
      </trkpt>
      <trkpt lat="43.00101833" lon="-1.27657667">
        <ele>1025.0</ele>
        <time>2019-07-31T09:24:50.080Z</time>
      </trkpt>
      <trkpt lat="43.00100833" lon="-1.27656333">
        <ele>1024.0</ele>
        <time>2019-07-31T09:24:51.082Z</time>
      </trkpt>
      <trkpt lat="43.001" lon="-1.27655167">
        <ele>1024.0</ele>
        <time>2019-07-31T09:24:52.084Z</time>
      </trkpt>
      <trkpt lat="43.00099" lon="-1.27654167">
        <ele>1024.0</ele>
        <time>2019-07-31T09:24:53.086Z</time>
      </trkpt>
      <trkpt lat="43.00097667" lon="-1.276525">
        <ele>1024.0</ele>
        <time>2019-07-31T09:24:54.092Z</time>
      </trkpt>
      <trkpt lat="43.00096333" lon="-1.27650667">
        <ele>1024.0</ele>
        <time>2019-07-31T09:24:55.096Z</time>
      </trkpt>
      <trkpt lat="43.00095" lon="-1.276495">
        <ele>1025.0</ele>
        <time>2019-07-31T09:24:56.102Z</time>
      </trkpt>
      <trkpt lat="43.000935" lon="-1.27647667">
        <ele>1026.0</ele>
        <time>2019-07-31T09:24:57.107Z</time>
      </trkpt>
      <trkpt lat="43.00092833" lon="-1.27646">
        <ele>1026.0</ele>
        <time>2019-07-31T09:24:58.113Z</time>
      </trkpt>
      <trkpt lat="43.00092333" lon="-1.27643667">
        <ele>1027.0</ele>
        <time>2019-07-31T09:24:59.120Z</time>
      </trkpt>
      <trkpt lat="43.000915" lon="-1.276425">
        <ele>1027.0</ele>
        <time>2019-07-31T09:25:00.124Z</time>
      </trkpt>
      <trkpt lat="43.00090667" lon="-1.276405">
        <ele>1027.0</ele>
        <time>2019-07-31T09:25:01.126Z</time>
      </trkpt>
      <trkpt lat="43.00091167" lon="-1.27638667">
        <ele>1027.0</ele>
        <time>2019-07-31T09:25:02.129Z</time>
      </trkpt>
      <trkpt lat="43.00092" lon="-1.27636833">
        <ele>1027.0</ele>
        <time>2019-07-31T09:25:03.132Z</time>
      </trkpt>
      <trkpt lat="43.00092833" lon="-1.27634333">
        <ele>1026.0</ele>
        <time>2019-07-31T09:25:04.136Z</time>
      </trkpt>
      <trkpt lat="43.00093" lon="-1.27633333">
        <ele>1026.0</ele>
        <time>2019-07-31T09:25:05.140Z</time>
      </trkpt>
      <trkpt lat="43.00093" lon="-1.27632167">
        <ele>1026.0</ele>
        <time>2019-07-31T09:25:06.146Z</time>
      </trkpt>
      <trkpt lat="43.00093167" lon="-1.27631167">
        <ele>1026.0</ele>
        <time>2019-07-31T09:25:07.152Z</time>
      </trkpt>
      <trkpt lat="43.00093333" lon="-1.27629833">
        <ele>1025.0</ele>
        <time>2019-07-31T09:25:08.155Z</time>
      </trkpt>
      <trkpt lat="43.000935" lon="-1.27628">
        <ele>1025.0</ele>
        <time>2019-07-31T09:25:09.163Z</time>
      </trkpt>
      <trkpt lat="43.000935" lon="-1.27626167">
        <ele>1025.0</ele>
        <time>2019-07-31T09:25:10.168Z</time>
      </trkpt>
      <trkpt lat="43.00093333" lon="-1.27624167">
        <ele>1026.0</ele>
        <time>2019-07-31T09:25:11.174Z</time>
      </trkpt>
      <trkpt lat="43.00093333" lon="-1.27622333">
        <ele>1025.0</ele>
        <time>2019-07-31T09:25:12.179Z</time>
      </trkpt>
      <trkpt lat="43.00093333" lon="-1.27620167">
        <ele>1025.0</ele>
        <time>2019-07-31T09:25:13.183Z</time>
      </trkpt>
      <trkpt lat="43.00093167" lon="-1.27617833">
        <ele>1024.0</ele>
        <time>2019-07-31T09:25:14.063Z</time>
      </trkpt>
      <trkpt lat="43.00093" lon="-1.27615167">
        <ele>1024.0</ele>
        <time>2019-07-31T09:25:15.068Z</time>
      </trkpt>
      <trkpt lat="43.00093" lon="-1.276125">
        <ele>1024.0</ele>
        <time>2019-07-31T09:25:16.075Z</time>
      </trkpt>
      <trkpt lat="43.00093167" lon="-1.2761">
        <ele>1024.0</ele>
        <time>2019-07-31T09:25:17.082Z</time>
      </trkpt>
      <trkpt lat="43.00093667" lon="-1.276075">
        <ele>1024.0</ele>
        <time>2019-07-31T09:25:18.087Z</time>
      </trkpt>
      <trkpt lat="43.00093833" lon="-1.27605167">
        <ele>1024.0</ele>
        <time>2019-07-31T09:25:19.092Z</time>
      </trkpt>
      <trkpt lat="43.00094167" lon="-1.27602833">
        <ele>1024.0</ele>
        <time>2019-07-31T09:25:20.098Z</time>
      </trkpt>
      <trkpt lat="43.000945" lon="-1.276005">
        <ele>1025.0</ele>
        <time>2019-07-31T09:25:21.100Z</time>
      </trkpt>
      <trkpt lat="43.00095" lon="-1.27598333">
        <ele>1025.0</ele>
        <time>2019-07-31T09:25:22.104Z</time>
      </trkpt>
      <trkpt lat="43.00095333" lon="-1.27595833">
        <ele>1025.0</ele>
        <time>2019-07-31T09:25:23.109Z</time>
      </trkpt>
      <trkpt lat="43.00095833" lon="-1.275935">
        <ele>1025.0</ele>
        <time>2019-07-31T09:25:24.114Z</time>
      </trkpt>
      <trkpt lat="43.00096" lon="-1.27590833">
        <ele>1026.0</ele>
        <time>2019-07-31T09:25:25.119Z</time>
      </trkpt>
      <trkpt lat="43.00096667" lon="-1.27588167">
        <ele>1026.0</ele>
        <time>2019-07-31T09:25:26.124Z</time>
      </trkpt>
      <trkpt lat="43.00097167" lon="-1.27585667">
        <ele>1026.0</ele>
        <time>2019-07-31T09:25:27.129Z</time>
      </trkpt>
      <trkpt lat="43.00097333" lon="-1.27584">
        <ele>1026.0</ele>
        <time>2019-07-31T09:25:28.133Z</time>
      </trkpt>
      <trkpt lat="43.000975" lon="-1.27582">
        <ele>1026.0</ele>
        <time>2019-07-31T09:25:29.139Z</time>
      </trkpt>
      <trkpt lat="43.00097833" lon="-1.275795">
        <ele>1026.0</ele>
        <time>2019-07-31T09:25:30.145Z</time>
      </trkpt>
      <trkpt lat="43.000985" lon="-1.27576667">
        <ele>1025.0</ele>
        <time>2019-07-31T09:25:31.149Z</time>
      </trkpt>
      <trkpt lat="43.00098833" lon="-1.275745">
        <ele>1025.0</ele>
        <time>2019-07-31T09:25:32.155Z</time>
      </trkpt>
      <trkpt lat="43.00099167" lon="-1.27572">
        <ele>1025.0</ele>
        <time>2019-07-31T09:25:33.160Z</time>
      </trkpt>
      <trkpt lat="43.00099667" lon="-1.275695">
        <ele>1025.0</ele>
        <time>2019-07-31T09:25:34.165Z</time>
      </trkpt>
      <trkpt lat="43.00100333" lon="-1.27566833">
        <ele>1025.0</ele>
        <time>2019-07-31T09:25:35.170Z</time>
      </trkpt>
      <trkpt lat="43.00100833" lon="-1.27564333">
        <ele>1026.0</ele>
        <time>2019-07-31T09:25:36.175Z</time>
      </trkpt>
      <trkpt lat="43.00101333" lon="-1.27561833">
        <ele>1025.0</ele>
        <time>2019-07-31T09:25:37.182Z</time>
      </trkpt>
      <trkpt lat="43.00101833" lon="-1.27559667">
        <ele>1026.0</ele>
        <time>2019-07-31T09:25:38.062Z</time>
      </trkpt>
      <trkpt lat="43.00102333" lon="-1.275575">
        <ele>1026.0</ele>
        <time>2019-07-31T09:25:39.068Z</time>
      </trkpt>
      <trkpt lat="43.00102833" lon="-1.27555333">
        <ele>1026.0</ele>
        <time>2019-07-31T09:25:40.071Z</time>
      </trkpt>
      <trkpt lat="43.00103333" lon="-1.27553167">
        <ele>1026.0</ele>
        <time>2019-07-31T09:25:41.076Z</time>
      </trkpt>
      <trkpt lat="43.00104" lon="-1.27551167">
        <ele>1026.0</ele>
        <time>2019-07-31T09:25:42.079Z</time>
      </trkpt>
      <trkpt lat="43.00104667" lon="-1.27549">
        <ele>1026.0</ele>
        <time>2019-07-31T09:25:43.082Z</time>
      </trkpt>
      <trkpt lat="43.00105333" lon="-1.27546667">
        <ele>1026.0</ele>
        <time>2019-07-31T09:25:44.086Z</time>
      </trkpt>
      <trkpt lat="43.00106333" lon="-1.275445">
        <ele>1026.0</ele>
        <time>2019-07-31T09:25:45.092Z</time>
      </trkpt>
      <trkpt lat="43.001075" lon="-1.27542333">
        <ele>1026.0</ele>
        <time>2019-07-31T09:25:46.098Z</time>
      </trkpt>
      <trkpt lat="43.00108167" lon="-1.27540333">
        <ele>1026.0</ele>
        <time>2019-07-31T09:25:47.104Z</time>
      </trkpt>
      <trkpt lat="43.00109" lon="-1.275385">
        <ele>1026.0</ele>
        <time>2019-07-31T09:25:48.111Z</time>
      </trkpt>
      <trkpt lat="43.00110167" lon="-1.275365">
        <ele>1026.0</ele>
        <time>2019-07-31T09:25:49.117Z</time>
      </trkpt>
      <trkpt lat="43.00111167" lon="-1.275345">
        <ele>1026.0</ele>
        <time>2019-07-31T09:25:50.123Z</time>
      </trkpt>
      <trkpt lat="43.00112" lon="-1.27532667">
        <ele>1026.0</ele>
        <time>2019-07-31T09:25:51.126Z</time>
      </trkpt>
      <trkpt lat="43.00113" lon="-1.27530833">
        <ele>1026.0</ele>
        <time>2019-07-31T09:25:52.131Z</time>
      </trkpt>
      <trkpt lat="43.00113833" lon="-1.27529167">
        <ele>1026.0</ele>
        <time>2019-07-31T09:25:53.136Z</time>
      </trkpt>
      <trkpt lat="43.00114833" lon="-1.27527167">
        <ele>1026.0</ele>
        <time>2019-07-31T09:25:54.142Z</time>
      </trkpt>
      <trkpt lat="43.00116167" lon="-1.27525">
        <ele>1026.0</ele>
        <time>2019-07-31T09:25:55.145Z</time>
      </trkpt>
      <trkpt lat="43.00117667" lon="-1.27523333">
        <ele>1026.0</ele>
        <time>2019-07-31T09:25:56.149Z</time>
      </trkpt>
      <trkpt lat="43.00118667" lon="-1.27522">
        <ele>1026.0</ele>
        <time>2019-07-31T09:25:57.156Z</time>
      </trkpt>
      <trkpt lat="43.00119833" lon="-1.27520333">
        <ele>1026.0</ele>
        <time>2019-07-31T09:25:58.162Z</time>
      </trkpt>
      <trkpt lat="43.00121" lon="-1.27518833">
        <ele>1026.0</ele>
        <time>2019-07-31T09:25:59.168Z</time>
      </trkpt>
      <trkpt lat="43.001225" lon="-1.27517167">
        <ele>1025.0</ele>
        <time>2019-07-31T09:26:00.175Z</time>
      </trkpt>
      <trkpt lat="43.00123833" lon="-1.27516167">
        <ele>1025.0</ele>
        <time>2019-07-31T09:26:01.180Z</time>
      </trkpt>
      <trkpt lat="43.00125167" lon="-1.27514833">
        <ele>1025.0</ele>
        <time>2019-07-31T09:26:02.184Z</time>
      </trkpt>
      <trkpt lat="43.00126167" lon="-1.27513833">
        <ele>1025.0</ele>
        <time>2019-07-31T09:26:03.064Z</time>
      </trkpt>
      <trkpt lat="43.00127667" lon="-1.27512667">
        <ele>1026.0</ele>
        <time>2019-07-31T09:26:04.069Z</time>
      </trkpt>
      <trkpt lat="43.00129167" lon="-1.27511167">
        <ele>1026.0</ele>
        <time>2019-07-31T09:26:05.075Z</time>
      </trkpt>
      <trkpt lat="43.001305" lon="-1.27510333">
        <ele>1027.0</ele>
        <time>2019-07-31T09:26:06.081Z</time>
      </trkpt>
      <trkpt lat="43.00131667" lon="-1.27509333">
        <ele>1027.0</ele>
        <time>2019-07-31T09:26:07.086Z</time>
      </trkpt>
      <trkpt lat="43.00133" lon="-1.27508333">
        <ele>1027.0</ele>
        <time>2019-07-31T09:26:08.093Z</time>
      </trkpt>
      <trkpt lat="43.00134167" lon="-1.27507167">
        <ele>1027.0</ele>
        <time>2019-07-31T09:26:09.100Z</time>
      </trkpt>
      <trkpt lat="43.001355" lon="-1.27506167">
        <ele>1027.0</ele>
        <time>2019-07-31T09:26:10.107Z</time>
      </trkpt>
      <trkpt lat="43.00136833" lon="-1.27505333">
        <ele>1028.0</ele>
        <time>2019-07-31T09:26:11.114Z</time>
      </trkpt>
      <trkpt lat="43.00138167" lon="-1.27504833">
        <ele>1028.0</ele>
        <time>2019-07-31T09:26:12.120Z</time>
      </trkpt>
      <trkpt lat="43.00139333" lon="-1.27504">
        <ele>1028.0</ele>
        <time>2019-07-31T09:26:13.125Z</time>
      </trkpt>
      <trkpt lat="43.00141" lon="-1.27503667">
        <ele>1030.0</ele>
        <time>2019-07-31T09:26:14.130Z</time>
      </trkpt>
      <trkpt lat="43.001425" lon="-1.27503">
        <ele>1030.0</ele>
        <time>2019-07-31T09:26:15.135Z</time>
      </trkpt>
      <trkpt lat="43.00143833" lon="-1.275025">
        <ele>1031.0</ele>
        <time>2019-07-31T09:26:16.141Z</time>
      </trkpt>
      <trkpt lat="43.00145333" lon="-1.27501667">
        <ele>1031.0</ele>
        <time>2019-07-31T09:26:17.147Z</time>
      </trkpt>
      <trkpt lat="43.00146833" lon="-1.27501333">
        <ele>1032.0</ele>
        <time>2019-07-31T09:26:18.152Z</time>
      </trkpt>
      <trkpt lat="43.00148333" lon="-1.27500833">
        <ele>1032.0</ele>
        <time>2019-07-31T09:26:19.157Z</time>
      </trkpt>
      <trkpt lat="43.00149833" lon="-1.27500333">
        <ele>1033.0</ele>
        <time>2019-07-31T09:26:20.162Z</time>
      </trkpt>
      <trkpt lat="43.00150667" lon="-1.27500333">
        <ele>1033.0</ele>
        <time>2019-07-31T09:26:21.167Z</time>
      </trkpt>
      <trkpt lat="43.00152" lon="-1.27500167">
        <ele>1032.0</ele>
        <time>2019-07-31T09:26:22.173Z</time>
      </trkpt>
      <trkpt lat="43.00153667" lon="-1.27499833">
        <ele>1032.0</ele>
        <time>2019-07-31T09:26:23.179Z</time>
      </trkpt>
      <trkpt lat="43.00155667" lon="-1.27499">
        <ele>1031.0</ele>
        <time>2019-07-31T09:26:24.185Z</time>
      </trkpt>
      <trkpt lat="43.00157167" lon="-1.27498333">
        <ele>1031.0</ele>
        <time>2019-07-31T09:26:25.063Z</time>
      </trkpt>
      <trkpt lat="43.00159" lon="-1.27498">
        <ele>1031.0</ele>
        <time>2019-07-31T09:26:26.066Z</time>
      </trkpt>
      <trkpt lat="43.00160667" lon="-1.27497667">
        <ele>1030.0</ele>
        <time>2019-07-31T09:26:27.069Z</time>
      </trkpt>
      <trkpt lat="43.00162167" lon="-1.27497167">
        <ele>1030.0</ele>
        <time>2019-07-31T09:26:28.073Z</time>
      </trkpt>
      <trkpt lat="43.00164333" lon="-1.274965">
        <ele>1030.0</ele>
        <time>2019-07-31T09:26:29.077Z</time>
      </trkpt>
      <trkpt lat="43.00166" lon="-1.27496">
        <ele>1030.0</ele>
        <time>2019-07-31T09:26:30.081Z</time>
      </trkpt>
      <trkpt lat="43.00167667" lon="-1.274955">
        <ele>1029.0</ele>
        <time>2019-07-31T09:26:31.087Z</time>
      </trkpt>
      <trkpt lat="43.00169833" lon="-1.274945">
        <ele>1029.0</ele>
        <time>2019-07-31T09:26:32.094Z</time>
      </trkpt>
      <trkpt lat="43.00171333" lon="-1.27493833">
        <ele>1028.0</ele>
        <time>2019-07-31T09:26:33.100Z</time>
      </trkpt>
      <trkpt lat="43.001735" lon="-1.27493">
        <ele>1028.0</ele>
        <time>2019-07-31T09:26:34.107Z</time>
      </trkpt>
      <trkpt lat="43.00175" lon="-1.274925">
        <ele>1027.0</ele>
        <time>2019-07-31T09:26:35.113Z</time>
      </trkpt>
      <trkpt lat="43.00176833" lon="-1.27492167">
        <ele>1027.0</ele>
        <time>2019-07-31T09:26:36.116Z</time>
      </trkpt>
      <trkpt lat="43.001785" lon="-1.27491667">
        <ele>1028.0</ele>
        <time>2019-07-31T09:26:37.118Z</time>
      </trkpt>
      <trkpt lat="43.00179667" lon="-1.274915">
        <ele>1028.0</ele>
        <time>2019-07-31T09:26:38.121Z</time>
      </trkpt>
      <trkpt lat="43.00180667" lon="-1.27491167">
        <ele>1029.0</ele>
        <time>2019-07-31T09:26:39.124Z</time>
      </trkpt>
      <trkpt lat="43.001825" lon="-1.274905">
        <ele>1030.0</ele>
        <time>2019-07-31T09:26:40.128Z</time>
      </trkpt>
      <trkpt lat="43.00184333" lon="-1.27489833">
        <ele>1030.0</ele>
        <time>2019-07-31T09:26:41.134Z</time>
      </trkpt>
      <trkpt lat="43.00186" lon="-1.27489167">
        <ele>1029.0</ele>
        <time>2019-07-31T09:26:42.141Z</time>
      </trkpt>
      <trkpt lat="43.00187167" lon="-1.27488833">
        <ele>1029.0</ele>
        <time>2019-07-31T09:26:43.148Z</time>
      </trkpt>
      <trkpt lat="43.00188833" lon="-1.27488167">
        <ele>1029.0</ele>
        <time>2019-07-31T09:26:44.157Z</time>
      </trkpt>
      <trkpt lat="43.001905" lon="-1.27487667">
        <ele>1028.0</ele>
        <time>2019-07-31T09:26:45.162Z</time>
      </trkpt>
      <trkpt lat="43.00192333" lon="-1.27486833">
        <ele>1028.0</ele>
        <time>2019-07-31T09:26:46.167Z</time>
      </trkpt>
      <trkpt lat="43.00194" lon="-1.27486333">
        <ele>1028.0</ele>
        <time>2019-07-31T09:26:47.174Z</time>
      </trkpt>
      <trkpt lat="43.00195667" lon="-1.27485833">
        <ele>1027.0</ele>
        <time>2019-07-31T09:26:48.178Z</time>
      </trkpt>
      <trkpt lat="43.001975" lon="-1.27485167">
        <ele>1027.0</ele>
        <time>2019-07-31T09:26:49.181Z</time>
      </trkpt>
      <trkpt lat="43.00199167" lon="-1.27484667">
        <ele>1026.0</ele>
        <time>2019-07-31T09:26:50.184Z</time>
      </trkpt>
      <trkpt lat="43.00200667" lon="-1.27484167">
        <ele>1026.0</ele>
        <time>2019-07-31T09:26:51.064Z</time>
      </trkpt>
      <trkpt lat="43.00202667" lon="-1.27484">
        <ele>1025.0</ele>
        <time>2019-07-31T09:26:52.070Z</time>
      </trkpt>
      <trkpt lat="43.00203833" lon="-1.27483833">
        <ele>1025.0</ele>
        <time>2019-07-31T09:26:53.075Z</time>
      </trkpt>
      <trkpt lat="43.002055" lon="-1.27484">
        <ele>1025.0</ele>
        <time>2019-07-31T09:26:54.083Z</time>
      </trkpt>
      <trkpt lat="43.00207167" lon="-1.27484">
        <ele>1024.0</ele>
        <time>2019-07-31T09:26:55.087Z</time>
      </trkpt>
      <trkpt lat="43.00208833" lon="-1.27483667">
        <ele>1024.0</ele>
        <time>2019-07-31T09:26:56.091Z</time>
      </trkpt>
      <trkpt lat="43.00210333" lon="-1.27483667">
        <ele>1024.0</ele>
        <time>2019-07-31T09:26:57.097Z</time>
      </trkpt>
      <trkpt lat="43.00212167" lon="-1.27484">
        <ele>1024.0</ele>
        <time>2019-07-31T09:26:58.102Z</time>
      </trkpt>
      <trkpt lat="43.00213333" lon="-1.27484167">
        <ele>1024.0</ele>
        <time>2019-07-31T09:26:59.106Z</time>
      </trkpt>
      <trkpt lat="43.00215" lon="-1.274845">
        <ele>1024.0</ele>
        <time>2019-07-31T09:27:00.110Z</time>
      </trkpt>
      <trkpt lat="43.00216833" lon="-1.274845">
        <ele>1023.0</ele>
        <time>2019-07-31T09:27:01.116Z</time>
      </trkpt>
      <trkpt lat="43.002185" lon="-1.27484667">
        <ele>1022.0</ele>
        <time>2019-07-31T09:27:02.123Z</time>
      </trkpt>
      <trkpt lat="43.00220167" lon="-1.27485">
        <ele>1022.0</ele>
        <time>2019-07-31T09:27:03.127Z</time>
      </trkpt>
      <trkpt lat="43.00221667" lon="-1.27485667">
        <ele>1021.0</ele>
        <time>2019-07-31T09:27:04.132Z</time>
      </trkpt>
      <trkpt lat="43.00223167" lon="-1.27486333">
        <ele>1021.0</ele>
        <time>2019-07-31T09:27:05.138Z</time>
      </trkpt>
      <trkpt lat="43.00224333" lon="-1.27486833">
        <ele>1021.0</ele>
        <time>2019-07-31T09:27:06.140Z</time>
      </trkpt>
      <trkpt lat="43.00225667" lon="-1.27487167">
        <ele>1021.0</ele>
        <time>2019-07-31T09:27:07.144Z</time>
      </trkpt>
      <trkpt lat="43.00226667" lon="-1.274875">
        <ele>1021.0</ele>
        <time>2019-07-31T09:27:08.151Z</time>
      </trkpt>
      <trkpt lat="43.00227667" lon="-1.27487833">
        <ele>1021.0</ele>
        <time>2019-07-31T09:27:09.157Z</time>
      </trkpt>
      <trkpt lat="43.00229167" lon="-1.27487833">
        <ele>1021.0</ele>
        <time>2019-07-31T09:27:10.161Z</time>
      </trkpt>
      <trkpt lat="43.002305" lon="-1.27487833">
        <ele>1021.0</ele>
        <time>2019-07-31T09:27:11.167Z</time>
      </trkpt>
      <trkpt lat="43.00232" lon="-1.27488">
        <ele>1021.0</ele>
        <time>2019-07-31T09:27:12.174Z</time>
      </trkpt>
      <trkpt lat="43.00234" lon="-1.27487833">
        <ele>1020.0</ele>
        <time>2019-07-31T09:27:13.179Z</time>
      </trkpt>
      <trkpt lat="43.002355" lon="-1.274875">
        <ele>1020.0</ele>
        <time>2019-07-31T09:27:14.185Z</time>
      </trkpt>
      <trkpt lat="43.00237" lon="-1.27486833">
        <ele>1020.0</ele>
        <time>2019-07-31T09:27:15.067Z</time>
      </trkpt>
      <trkpt lat="43.00238333" lon="-1.27486">
        <ele>1021.0</ele>
        <time>2019-07-31T09:27:16.071Z</time>
      </trkpt>
      <trkpt lat="43.00239833" lon="-1.27485333">
        <ele>1021.0</ele>
        <time>2019-07-31T09:27:17.075Z</time>
      </trkpt>
      <trkpt lat="43.00241333" lon="-1.27484">
        <ele>1021.0</ele>
        <time>2019-07-31T09:27:18.080Z</time>
      </trkpt>
      <trkpt lat="43.002425" lon="-1.274825">
        <ele>1021.0</ele>
        <time>2019-07-31T09:27:19.085Z</time>
      </trkpt>
      <trkpt lat="43.00243167" lon="-1.27480667">
        <ele>1021.0</ele>
        <time>2019-07-31T09:27:20.091Z</time>
      </trkpt>
      <trkpt lat="43.00243833" lon="-1.27479333">
        <ele>1020.0</ele>
        <time>2019-07-31T09:27:21.097Z</time>
      </trkpt>
      <trkpt lat="43.00244333" lon="-1.274775">
        <ele>1020.0</ele>
        <time>2019-07-31T09:27:22.102Z</time>
      </trkpt>
      <trkpt lat="43.00244667" lon="-1.27475167">
        <ele>1020.0</ele>
        <time>2019-07-31T09:27:23.108Z</time>
      </trkpt>
      <trkpt lat="43.00244833" lon="-1.27472333">
        <ele>1020.0</ele>
        <time>2019-07-31T09:27:24.114Z</time>
      </trkpt>
      <trkpt lat="43.00244667" lon="-1.27470333">
        <ele>1020.0</ele>
        <time>2019-07-31T09:27:25.121Z</time>
      </trkpt>
      <trkpt lat="43.002445" lon="-1.27467167">
        <ele>1019.0</ele>
        <time>2019-07-31T09:27:26.124Z</time>
      </trkpt>
      <trkpt lat="43.002445" lon="-1.27464833">
        <ele>1019.0</ele>
        <time>2019-07-31T09:27:27.127Z</time>
      </trkpt>
      <trkpt lat="43.00244333" lon="-1.27462333">
        <ele>1019.0</ele>
        <time>2019-07-31T09:27:28.133Z</time>
      </trkpt>
      <trkpt lat="43.002445" lon="-1.27459833">
        <ele>1018.0</ele>
        <time>2019-07-31T09:27:29.138Z</time>
      </trkpt>
      <trkpt lat="43.00244167" lon="-1.27458">
        <ele>1018.0</ele>
        <time>2019-07-31T09:27:30.142Z</time>
      </trkpt>
      <trkpt lat="43.00244167" lon="-1.27454833">
        <ele>1018.0</ele>
        <time>2019-07-31T09:27:31.146Z</time>
      </trkpt>
      <trkpt lat="43.002445" lon="-1.27453">
        <ele>1018.0</ele>
        <time>2019-07-31T09:27:32.152Z</time>
      </trkpt>
      <trkpt lat="43.00245167" lon="-1.274495">
        <ele>1019.0</ele>
        <time>2019-07-31T09:27:33.159Z</time>
      </trkpt>
      <trkpt lat="43.00245167" lon="-1.27447667">
        <ele>1019.0</ele>
        <time>2019-07-31T09:27:34.163Z</time>
      </trkpt>
      <trkpt lat="43.00245333" lon="-1.27445">
        <ele>1018.0</ele>
        <time>2019-07-31T09:27:35.169Z</time>
      </trkpt>
      <trkpt lat="43.00244667" lon="-1.27443167">
        <ele>1018.0</ele>
        <time>2019-07-31T09:27:36.175Z</time>
      </trkpt>
      <trkpt lat="43.00245" lon="-1.27440167">
        <ele>1018.0</ele>
        <time>2019-07-31T09:27:37.179Z</time>
      </trkpt>
      <trkpt lat="43.00244667" lon="-1.274385">
        <ele>1018.0</ele>
        <time>2019-07-31T09:27:38.186Z</time>
      </trkpt>
      <trkpt lat="43.00245" lon="-1.27435333">
        <ele>1018.0</ele>
        <time>2019-07-31T09:27:39.066Z</time>
      </trkpt>
      <trkpt lat="43.00245833" lon="-1.274325">
        <ele>1017.0</ele>
        <time>2019-07-31T09:27:40.072Z</time>
      </trkpt>
      <trkpt lat="43.00245833" lon="-1.274305">
        <ele>1017.0</ele>
        <time>2019-07-31T09:27:41.077Z</time>
      </trkpt>
      <trkpt lat="43.00246333" lon="-1.27427667">
        <ele>1017.0</ele>
        <time>2019-07-31T09:27:42.083Z</time>
      </trkpt>
      <trkpt lat="43.00246667" lon="-1.27425167">
        <ele>1017.0</ele>
        <time>2019-07-31T09:27:43.086Z</time>
      </trkpt>
      <trkpt lat="43.00247833" lon="-1.27421833">
        <ele>1016.0</ele>
        <time>2019-07-31T09:27:44.092Z</time>
      </trkpt>
      <trkpt lat="43.00248" lon="-1.27419167">
        <ele>1016.0</ele>
        <time>2019-07-31T09:27:45.098Z</time>
      </trkpt>
      <trkpt lat="43.00248667" lon="-1.27415333">
        <ele>1017.0</ele>
        <time>2019-07-31T09:27:46.103Z</time>
      </trkpt>
      <trkpt lat="43.00249333" lon="-1.27413">
        <ele>1018.0</ele>
        <time>2019-07-31T09:27:47.109Z</time>
      </trkpt>
      <trkpt lat="43.00249667" lon="-1.27410833">
        <ele>1020.0</ele>
        <time>2019-07-31T09:27:48.114Z</time>
      </trkpt>
      <trkpt lat="43.00250333" lon="-1.27408167">
        <ele>1021.0</ele>
        <time>2019-07-31T09:27:49.120Z</time>
      </trkpt>
      <trkpt lat="43.00251167" lon="-1.27406">
        <ele>1021.0</ele>
        <time>2019-07-31T09:27:50.123Z</time>
      </trkpt>
      <trkpt lat="43.00251667" lon="-1.27403833">
        <ele>1021.0</ele>
        <time>2019-07-31T09:27:51.126Z</time>
      </trkpt>
      <trkpt lat="43.002525" lon="-1.27400667">
        <ele>1020.0</ele>
        <time>2019-07-31T09:27:52.131Z</time>
      </trkpt>
      <trkpt lat="43.002525" lon="-1.27397">
        <ele>1019.0</ele>
        <time>2019-07-31T09:27:53.137Z</time>
      </trkpt>
      <trkpt lat="43.00252167" lon="-1.27394">
        <ele>1018.0</ele>
        <time>2019-07-31T09:27:54.144Z</time>
      </trkpt>
      <trkpt lat="43.00252167" lon="-1.273915">
        <ele>1017.0</ele>
        <time>2019-07-31T09:27:55.150Z</time>
      </trkpt>
      <trkpt lat="43.00251167" lon="-1.27390333">
        <ele>1015.0</ele>
        <time>2019-07-31T09:27:56.154Z</time>
      </trkpt>
      <trkpt lat="43.00250333" lon="-1.27388333">
        <ele>1015.0</ele>
        <time>2019-07-31T09:27:57.160Z</time>
      </trkpt>
      <trkpt lat="43.00249833" lon="-1.27386333">
        <ele>1014.0</ele>
        <time>2019-07-31T09:27:58.165Z</time>
      </trkpt>
      <trkpt lat="43.00249333" lon="-1.27383333">
        <ele>1013.0</ele>
        <time>2019-07-31T09:27:59.170Z</time>
      </trkpt>
      <trkpt lat="43.00249167" lon="-1.27380833">
        <ele>1012.0</ele>
        <time>2019-07-31T09:28:00.175Z</time>
      </trkpt>
      <trkpt lat="43.00248833" lon="-1.27378667">
        <ele>1012.0</ele>
        <time>2019-07-31T09:28:01.179Z</time>
      </trkpt>
      <trkpt lat="43.002485" lon="-1.27375833">
        <ele>1012.0</ele>
        <time>2019-07-31T09:28:02.181Z</time>
      </trkpt>
      <trkpt lat="43.00248333" lon="-1.27374167">
        <ele>1012.0</ele>
        <time>2019-07-31T09:28:03.061Z</time>
      </trkpt>
      <trkpt lat="43.00248" lon="-1.27372">
        <ele>1012.0</ele>
        <time>2019-07-31T09:28:04.066Z</time>
      </trkpt>
      <trkpt lat="43.00247667" lon="-1.27369833">
        <ele>1012.0</ele>
        <time>2019-07-31T09:28:05.070Z</time>
      </trkpt>
      <trkpt lat="43.002475" lon="-1.273675">
        <ele>1012.0</ele>
        <time>2019-07-31T09:28:06.076Z</time>
      </trkpt>
      <trkpt lat="43.00247333" lon="-1.27365167">
        <ele>1012.0</ele>
        <time>2019-07-31T09:28:07.083Z</time>
      </trkpt>
      <trkpt lat="43.00247167" lon="-1.27363">
        <ele>1011.0</ele>
        <time>2019-07-31T09:28:08.084Z</time>
      </trkpt>
      <trkpt lat="43.00247" lon="-1.27360667">
        <ele>1011.0</ele>
        <time>2019-07-31T09:28:09.089Z</time>
      </trkpt>
      <trkpt lat="43.00246833" lon="-1.27358333">
        <ele>1011.0</ele>
        <time>2019-07-31T09:28:10.095Z</time>
      </trkpt>
      <trkpt lat="43.00246833" lon="-1.27355833">
        <ele>1011.0</ele>
        <time>2019-07-31T09:28:11.101Z</time>
      </trkpt>
      <trkpt lat="43.00246667" lon="-1.27353667">
        <ele>1012.0</ele>
        <time>2019-07-31T09:28:12.106Z</time>
      </trkpt>
      <trkpt lat="43.00246333" lon="-1.27351333">
        <ele>1012.0</ele>
        <time>2019-07-31T09:28:13.109Z</time>
      </trkpt>
      <trkpt lat="43.00246" lon="-1.27348833">
        <ele>1012.0</ele>
        <time>2019-07-31T09:28:14.113Z</time>
      </trkpt>
      <trkpt lat="43.00245833" lon="-1.273465">
        <ele>1012.0</ele>
        <time>2019-07-31T09:28:15.119Z</time>
      </trkpt>
      <trkpt lat="43.002455" lon="-1.27343833">
        <ele>1012.0</ele>
        <time>2019-07-31T09:28:16.125Z</time>
      </trkpt>
      <trkpt lat="43.00245333" lon="-1.27342167">
        <ele>1011.0</ele>
        <time>2019-07-31T09:28:17.132Z</time>
      </trkpt>
      <trkpt lat="43.00245167" lon="-1.27340167">
        <ele>1011.0</ele>
        <time>2019-07-31T09:28:18.137Z</time>
      </trkpt>
      <trkpt lat="43.00244833" lon="-1.27338">
        <ele>1012.0</ele>
        <time>2019-07-31T09:28:19.142Z</time>
      </trkpt>
      <trkpt lat="43.002445" lon="-1.27335667">
        <ele>1012.0</ele>
        <time>2019-07-31T09:28:20.147Z</time>
      </trkpt>
      <trkpt lat="43.00244333" lon="-1.27333667">
        <ele>1011.0</ele>
        <time>2019-07-31T09:28:21.152Z</time>
      </trkpt>
      <trkpt lat="43.00244167" lon="-1.27331667">
        <ele>1011.0</ele>
        <time>2019-07-31T09:28:22.158Z</time>
      </trkpt>
      <trkpt lat="43.00244167" lon="-1.27329333">
        <ele>1010.0</ele>
        <time>2019-07-31T09:28:23.163Z</time>
      </trkpt>
      <trkpt lat="43.00244167" lon="-1.27326833">
        <ele>1010.0</ele>
        <time>2019-07-31T09:28:24.168Z</time>
      </trkpt>
      <trkpt lat="43.00244" lon="-1.27324667">
        <ele>1010.0</ele>
        <time>2019-07-31T09:28:25.175Z</time>
      </trkpt>
      <trkpt lat="43.00244167" lon="-1.27322">
        <ele>1010.0</ele>
        <time>2019-07-31T09:28:26.181Z</time>
      </trkpt>
      <trkpt lat="43.00244167" lon="-1.27320333">
        <ele>1009.0</ele>
        <time>2019-07-31T09:28:27.185Z</time>
      </trkpt>
      <trkpt lat="43.00244333" lon="-1.27317833">
        <ele>1009.0</ele>
        <time>2019-07-31T09:28:28.066Z</time>
      </trkpt>
      <trkpt lat="43.002445" lon="-1.27316167">
        <ele>1009.0</ele>
        <time>2019-07-31T09:28:29.070Z</time>
      </trkpt>
      <trkpt lat="43.00244667" lon="-1.27313333">
        <ele>1008.0</ele>
        <time>2019-07-31T09:28:30.075Z</time>
      </trkpt>
      <trkpt lat="43.00244833" lon="-1.27311333">
        <ele>1008.0</ele>
        <time>2019-07-31T09:28:31.082Z</time>
      </trkpt>
      <trkpt lat="43.00244667" lon="-1.27309167">
        <ele>1008.0</ele>
        <time>2019-07-31T09:28:32.085Z</time>
      </trkpt>
      <trkpt lat="43.00245" lon="-1.273075">
        <ele>1008.0</ele>
        <time>2019-07-31T09:28:33.087Z</time>
      </trkpt>
      <trkpt lat="43.00245167" lon="-1.27305">
        <ele>1008.0</ele>
        <time>2019-07-31T09:28:34.090Z</time>
      </trkpt>
      <trkpt lat="43.00245333" lon="-1.27302833">
        <ele>1007.0</ele>
        <time>2019-07-31T09:28:35.094Z</time>
      </trkpt>
      <trkpt lat="43.00245667" lon="-1.27301">
        <ele>1007.0</ele>
        <time>2019-07-31T09:28:36.100Z</time>
      </trkpt>
      <trkpt lat="43.00246" lon="-1.27298833">
        <ele>1007.0</ele>
        <time>2019-07-31T09:28:37.107Z</time>
      </trkpt>
      <trkpt lat="43.002465" lon="-1.27296667">
        <ele>1007.0</ele>
        <time>2019-07-31T09:28:38.113Z</time>
      </trkpt>
      <trkpt lat="43.00246833" lon="-1.27294">
        <ele>1006.0</ele>
        <time>2019-07-31T09:28:39.119Z</time>
      </trkpt>
      <trkpt lat="43.00247167" lon="-1.27291833">
        <ele>1006.0</ele>
        <time>2019-07-31T09:28:40.124Z</time>
      </trkpt>
      <trkpt lat="43.002475" lon="-1.272895">
        <ele>1005.0</ele>
        <time>2019-07-31T09:28:41.128Z</time>
      </trkpt>
      <trkpt lat="43.00247833" lon="-1.27287667">
        <ele>1005.0</ele>
        <time>2019-07-31T09:28:42.134Z</time>
      </trkpt>
      <trkpt lat="43.00248167" lon="-1.27285167">
        <ele>1004.0</ele>
        <time>2019-07-31T09:28:43.141Z</time>
      </trkpt>
      <trkpt lat="43.00248333" lon="-1.27283">
        <ele>1004.0</ele>
        <time>2019-07-31T09:28:44.146Z</time>
      </trkpt>
      <trkpt lat="43.002485" lon="-1.27281167">
        <ele>1005.0</ele>
        <time>2019-07-31T09:28:45.151Z</time>
      </trkpt>
      <trkpt lat="43.002485" lon="-1.27279">
        <ele>1005.0</ele>
        <time>2019-07-31T09:28:46.157Z</time>
      </trkpt>
      <trkpt lat="43.00248833" lon="-1.27276667">
        <ele>1004.0</ele>
        <time>2019-07-31T09:28:47.163Z</time>
      </trkpt>
      <trkpt lat="43.00249167" lon="-1.27274667">
        <ele>1004.0</ele>
        <time>2019-07-31T09:28:48.169Z</time>
      </trkpt>
      <trkpt lat="43.00249667" lon="-1.27272167">
        <ele>1004.0</ele>
        <time>2019-07-31T09:28:49.176Z</time>
      </trkpt>
      <trkpt lat="43.0025" lon="-1.272695">
        <ele>1004.0</ele>
        <time>2019-07-31T09:28:50.182Z</time>
      </trkpt>
      <trkpt lat="43.00250167" lon="-1.272675">
        <ele>1004.0</ele>
        <time>2019-07-31T09:28:51.063Z</time>
      </trkpt>
      <trkpt lat="43.002505" lon="-1.27265">
        <ele>1004.0</ele>
        <time>2019-07-31T09:28:52.069Z</time>
      </trkpt>
      <trkpt lat="43.00250833" lon="-1.27262667">
        <ele>1003.0</ele>
        <time>2019-07-31T09:28:53.076Z</time>
      </trkpt>
      <trkpt lat="43.00251167" lon="-1.27260167">
        <ele>1003.0</ele>
        <time>2019-07-31T09:28:54.082Z</time>
      </trkpt>
      <trkpt lat="43.00251167" lon="-1.272575">
        <ele>1002.0</ele>
        <time>2019-07-31T09:28:55.085Z</time>
      </trkpt>
      <trkpt lat="43.00251333" lon="-1.27255667">
        <ele>1003.0</ele>
        <time>2019-07-31T09:28:56.091Z</time>
      </trkpt>
      <trkpt lat="43.002515" lon="-1.272535">
        <ele>1003.0</ele>
        <time>2019-07-31T09:28:57.098Z</time>
      </trkpt>
      <trkpt lat="43.00251833" lon="-1.272515">
        <ele>1003.0</ele>
        <time>2019-07-31T09:28:58.104Z</time>
      </trkpt>
      <trkpt lat="43.00252" lon="-1.27249333">
        <ele>1002.0</ele>
        <time>2019-07-31T09:28:59.110Z</time>
      </trkpt>
      <trkpt lat="43.00252333" lon="-1.27247">
        <ele>1002.0</ele>
        <time>2019-07-31T09:29:00.116Z</time>
      </trkpt>
      <trkpt lat="43.00252667" lon="-1.272445">
        <ele>1001.0</ele>
        <time>2019-07-31T09:29:01.122Z</time>
      </trkpt>
      <trkpt lat="43.00252667" lon="-1.27242333">
        <ele>1001.0</ele>
        <time>2019-07-31T09:29:02.127Z</time>
      </trkpt>
      <trkpt lat="43.00252667" lon="-1.2724">
        <ele>1000.0</ele>
        <time>2019-07-31T09:29:03.132Z</time>
      </trkpt>
      <trkpt lat="43.00252667" lon="-1.27237833">
        <ele>1001.0</ele>
        <time>2019-07-31T09:29:04.137Z</time>
      </trkpt>
      <trkpt lat="43.00252833" lon="-1.27235333">
        <ele>1000.0</ele>
        <time>2019-07-31T09:29:05.141Z</time>
      </trkpt>
      <trkpt lat="43.00252833" lon="-1.27233333">
        <ele>1001.0</ele>
        <time>2019-07-31T09:29:06.147Z</time>
      </trkpt>
      <trkpt lat="43.00253333" lon="-1.27230833">
        <ele>1000.0</ele>
        <time>2019-07-31T09:29:07.151Z</time>
      </trkpt>
      <trkpt lat="43.00253667" lon="-1.27228333">
        <ele>1000.0</ele>
        <time>2019-07-31T09:29:08.159Z</time>
      </trkpt>
      <trkpt lat="43.00253667" lon="-1.27225833">
        <ele>1000.0</ele>
        <time>2019-07-31T09:29:09.165Z</time>
      </trkpt>
      <trkpt lat="43.00253833" lon="-1.27223667">
        <ele>1000.0</ele>
        <time>2019-07-31T09:29:10.170Z</time>
      </trkpt>
      <trkpt lat="43.00254167" lon="-1.27221667">
        <ele>1000.0</ele>
        <time>2019-07-31T09:29:11.176Z</time>
      </trkpt>
      <trkpt lat="43.00254833" lon="-1.27219333">
        <ele>1000.0</ele>
        <time>2019-07-31T09:29:12.182Z</time>
      </trkpt>
      <trkpt lat="43.00255" lon="-1.27217167">
        <ele>1000.0</ele>
        <time>2019-07-31T09:29:13.186Z</time>
      </trkpt>
      <trkpt lat="43.00255167" lon="-1.27214833">
        <ele>1000.0</ele>
        <time>2019-07-31T09:29:14.067Z</time>
      </trkpt>
      <trkpt lat="43.002555" lon="-1.27212667">
        <ele>999.0</ele>
        <time>2019-07-31T09:29:15.071Z</time>
      </trkpt>
      <trkpt lat="43.00255667" lon="-1.272105">
        <ele>999.0</ele>
        <time>2019-07-31T09:29:16.077Z</time>
      </trkpt>
      <trkpt lat="43.00255833" lon="-1.27208333">
        <ele>1000.0</ele>
        <time>2019-07-31T09:29:17.081Z</time>
      </trkpt>
      <trkpt lat="43.00256" lon="-1.27205833">
        <ele>999.0</ele>
        <time>2019-07-31T09:29:18.085Z</time>
      </trkpt>
      <trkpt lat="43.002565" lon="-1.27203667">
        <ele>999.0</ele>
        <time>2019-07-31T09:29:19.091Z</time>
      </trkpt>
      <trkpt lat="43.00256667" lon="-1.27201333">
        <ele>998.0</ele>
        <time>2019-07-31T09:29:20.098Z</time>
      </trkpt>
      <trkpt lat="43.00257" lon="-1.27199">
        <ele>998.0</ele>
        <time>2019-07-31T09:29:21.105Z</time>
      </trkpt>
      <trkpt lat="43.00257333" lon="-1.27196333">
        <ele>998.0</ele>
        <time>2019-07-31T09:29:22.109Z</time>
      </trkpt>
      <trkpt lat="43.00257667" lon="-1.27194">
        <ele>997.0</ele>
        <time>2019-07-31T09:29:23.114Z</time>
      </trkpt>
      <trkpt lat="43.00258167" lon="-1.27191833">
        <ele>997.0</ele>
        <time>2019-07-31T09:29:24.120Z</time>
      </trkpt>
      <trkpt lat="43.00258833" lon="-1.27189833">
        <ele>998.0</ele>
        <time>2019-07-31T09:29:25.124Z</time>
      </trkpt>
      <trkpt lat="43.002595" lon="-1.27188">
        <ele>997.0</ele>
        <time>2019-07-31T09:29:26.127Z</time>
      </trkpt>
      <trkpt lat="43.0026" lon="-1.27185833">
        <ele>998.0</ele>
        <time>2019-07-31T09:29:27.132Z</time>
      </trkpt>
      <trkpt lat="43.00260167" lon="-1.27184">
        <ele>998.0</ele>
        <time>2019-07-31T09:29:28.137Z</time>
      </trkpt>
      <trkpt lat="43.002605" lon="-1.27182167">
        <ele>999.0</ele>
        <time>2019-07-31T09:29:29.144Z</time>
      </trkpt>
      <trkpt lat="43.00260833" lon="-1.27180167">
        <ele>999.0</ele>
        <time>2019-07-31T09:29:30.150Z</time>
      </trkpt>
      <trkpt lat="43.00261167" lon="-1.271775">
        <ele>999.0</ele>
        <time>2019-07-31T09:29:31.156Z</time>
      </trkpt>
      <trkpt lat="43.002615" lon="-1.27175667">
        <ele>1000.0</ele>
        <time>2019-07-31T09:29:32.163Z</time>
      </trkpt>
      <trkpt lat="43.00261167" lon="-1.27173667">
        <ele>1000.0</ele>
        <time>2019-07-31T09:29:33.168Z</time>
      </trkpt>
      <trkpt lat="43.00261" lon="-1.27171333">
        <ele>1000.0</ele>
        <time>2019-07-31T09:29:34.172Z</time>
      </trkpt>
      <trkpt lat="43.00261" lon="-1.27169167">
        <ele>1000.0</ele>
        <time>2019-07-31T09:29:35.177Z</time>
      </trkpt>
      <trkpt lat="43.00261333" lon="-1.27167333">
        <ele>1000.0</ele>
        <time>2019-07-31T09:29:36.182Z</time>
      </trkpt>
      <trkpt lat="43.002615" lon="-1.27165333">
        <ele>1000.0</ele>
        <time>2019-07-31T09:29:37.063Z</time>
      </trkpt>
      <trkpt lat="43.00261833" lon="-1.27163333">
        <ele>999.0</ele>
        <time>2019-07-31T09:29:38.068Z</time>
      </trkpt>
      <trkpt lat="43.00262" lon="-1.27160833">
        <ele>999.0</ele>
        <time>2019-07-31T09:29:39.075Z</time>
      </trkpt>
      <trkpt lat="43.00262167" lon="-1.27159">
        <ele>999.0</ele>
        <time>2019-07-31T09:29:40.079Z</time>
      </trkpt>
      <trkpt lat="43.00262333" lon="-1.27156833">
        <ele>999.0</ele>
        <time>2019-07-31T09:29:41.086Z</time>
      </trkpt>
      <trkpt lat="43.00262667" lon="-1.27154167">
        <ele>999.0</ele>
        <time>2019-07-31T09:29:42.092Z</time>
      </trkpt>
      <trkpt lat="43.00262667" lon="-1.271525">
        <ele>999.0</ele>
        <time>2019-07-31T09:29:43.099Z</time>
      </trkpt>
      <trkpt lat="43.00262667" lon="-1.27150333">
        <ele>999.0</ele>
        <time>2019-07-31T09:29:44.105Z</time>
      </trkpt>
      <trkpt lat="43.00262833" lon="-1.27148">
        <ele>998.0</ele>
        <time>2019-07-31T09:29:45.111Z</time>
      </trkpt>
      <trkpt lat="43.00263" lon="-1.27145667">
        <ele>998.0</ele>
        <time>2019-07-31T09:29:46.115Z</time>
      </trkpt>
      <trkpt lat="43.00263167" lon="-1.271435">
        <ele>998.0</ele>
        <time>2019-07-31T09:29:47.120Z</time>
      </trkpt>
      <trkpt lat="43.00263167" lon="-1.271415">
        <ele>997.0</ele>
        <time>2019-07-31T09:29:48.125Z</time>
      </trkpt>
      <trkpt lat="43.00263" lon="-1.27139167">
        <ele>997.0</ele>
        <time>2019-07-31T09:29:49.129Z</time>
      </trkpt>
      <trkpt lat="43.00262833" lon="-1.27137167">
        <ele>997.0</ele>
        <time>2019-07-31T09:29:50.136Z</time>
      </trkpt>
      <trkpt lat="43.00263167" lon="-1.27134833">
        <ele>996.0</ele>
        <time>2019-07-31T09:29:51.141Z</time>
      </trkpt>
      <trkpt lat="43.002635" lon="-1.27132667">
        <ele>996.0</ele>
        <time>2019-07-31T09:29:52.148Z</time>
      </trkpt>
      <trkpt lat="43.00263667" lon="-1.27130333">
        <ele>996.0</ele>
        <time>2019-07-31T09:29:53.154Z</time>
      </trkpt>
      <trkpt lat="43.00263833" lon="-1.27128">
        <ele>996.0</ele>
        <time>2019-07-31T09:29:54.158Z</time>
      </trkpt>
      <trkpt lat="43.00263833" lon="-1.27125833">
        <ele>996.0</ele>
        <time>2019-07-31T09:29:55.161Z</time>
      </trkpt>
      <trkpt lat="43.00264" lon="-1.27123667">
        <ele>996.0</ele>
        <time>2019-07-31T09:29:56.166Z</time>
      </trkpt>
      <trkpt lat="43.00264" lon="-1.27121333">
        <ele>995.0</ele>
        <time>2019-07-31T09:29:57.171Z</time>
      </trkpt>
      <trkpt lat="43.00264" lon="-1.27118833">
        <ele>995.0</ele>
        <time>2019-07-31T09:29:58.177Z</time>
      </trkpt>
      <trkpt lat="43.00264" lon="-1.27117167">
        <ele>995.0</ele>
        <time>2019-07-31T09:29:59.184Z</time>
      </trkpt>
      <trkpt lat="43.00264333" lon="-1.27115">
        <ele>995.0</ele>
        <time>2019-07-31T09:30:00.064Z</time>
      </trkpt>
      <trkpt lat="43.00264833" lon="-1.27112667">
        <ele>995.0</ele>
        <time>2019-07-31T09:30:01.070Z</time>
      </trkpt>
      <trkpt lat="43.00265167" lon="-1.27110667">
        <ele>994.0</ele>
        <time>2019-07-31T09:30:02.076Z</time>
      </trkpt>
      <trkpt lat="43.00265667" lon="-1.271085">
        <ele>994.0</ele>
        <time>2019-07-31T09:30:03.083Z</time>
      </trkpt>
      <trkpt lat="43.00265833" lon="-1.271065">
        <ele>995.0</ele>
        <time>2019-07-31T09:30:04.088Z</time>
      </trkpt>
      <trkpt lat="43.00266167" lon="-1.27104167">
        <ele>994.0</ele>
        <time>2019-07-31T09:30:05.093Z</time>
      </trkpt>
      <trkpt lat="43.002665" lon="-1.27102">
        <ele>994.0</ele>
        <time>2019-07-31T09:30:06.097Z</time>
      </trkpt>
      <trkpt lat="43.00266833" lon="-1.271">
        <ele>994.0</ele>
        <time>2019-07-31T09:30:07.104Z</time>
      </trkpt>
      <trkpt lat="43.00267333" lon="-1.27098">
        <ele>994.0</ele>
        <time>2019-07-31T09:30:08.109Z</time>
      </trkpt>
      <trkpt lat="43.00268" lon="-1.27095833">
        <ele>993.0</ele>
        <time>2019-07-31T09:30:09.113Z</time>
      </trkpt>
      <trkpt lat="43.00268667" lon="-1.27093667">
        <ele>993.0</ele>
        <time>2019-07-31T09:30:10.119Z</time>
      </trkpt>
      <trkpt lat="43.00269167" lon="-1.270915">
        <ele>992.0</ele>
        <time>2019-07-31T09:30:11.124Z</time>
      </trkpt>
      <trkpt lat="43.00269667" lon="-1.27089833">
        <ele>991.0</ele>
        <time>2019-07-31T09:30:12.127Z</time>
      </trkpt>
      <trkpt lat="43.00270333" lon="-1.27087833">
        <ele>991.0</ele>
        <time>2019-07-31T09:30:13.132Z</time>
      </trkpt>
      <trkpt lat="43.00271167" lon="-1.27085833">
        <ele>990.0</ele>
        <time>2019-07-31T09:30:14.134Z</time>
      </trkpt>
      <trkpt lat="43.00272167" lon="-1.27083667">
        <ele>989.0</ele>
        <time>2019-07-31T09:30:15.137Z</time>
      </trkpt>
      <trkpt lat="43.00273" lon="-1.27081167">
        <ele>988.0</ele>
        <time>2019-07-31T09:30:16.141Z</time>
      </trkpt>
      <trkpt lat="43.00273167" lon="-1.27079">
        <ele>988.0</ele>
        <time>2019-07-31T09:30:17.147Z</time>
      </trkpt>
      <trkpt lat="43.00273833" lon="-1.27077">
        <ele>988.0</ele>
        <time>2019-07-31T09:30:18.153Z</time>
      </trkpt>
      <trkpt lat="43.00274333" lon="-1.27074833">
        <ele>988.0</ele>
        <time>2019-07-31T09:30:19.157Z</time>
      </trkpt>
      <trkpt lat="43.00274833" lon="-1.27072833">
        <ele>988.0</ele>
        <time>2019-07-31T09:30:20.161Z</time>
      </trkpt>
      <trkpt lat="43.00275167" lon="-1.27070833">
        <ele>988.0</ele>
        <time>2019-07-31T09:30:21.166Z</time>
      </trkpt>
      <trkpt lat="43.002755" lon="-1.27068833">
        <ele>988.0</ele>
        <time>2019-07-31T09:30:22.170Z</time>
      </trkpt>
      <trkpt lat="43.00276167" lon="-1.27066667">
        <ele>988.0</ele>
        <time>2019-07-31T09:30:23.176Z</time>
      </trkpt>
      <trkpt lat="43.00276333" lon="-1.27064833">
        <ele>987.0</ele>
        <time>2019-07-31T09:30:24.184Z</time>
      </trkpt>
      <trkpt lat="43.00276667" lon="-1.27062667">
        <ele>987.0</ele>
        <time>2019-07-31T09:30:25.064Z</time>
      </trkpt>
      <trkpt lat="43.002775" lon="-1.27060167">
        <ele>987.0</ele>
        <time>2019-07-31T09:30:26.069Z</time>
      </trkpt>
      <trkpt lat="43.00278167" lon="-1.27057833">
        <ele>987.0</ele>
        <time>2019-07-31T09:30:27.075Z</time>
      </trkpt>
      <trkpt lat="43.00278667" lon="-1.27055833">
        <ele>987.0</ele>
        <time>2019-07-31T09:30:28.081Z</time>
      </trkpt>
      <trkpt lat="43.00279333" lon="-1.27053333">
        <ele>987.0</ele>
        <time>2019-07-31T09:30:29.085Z</time>
      </trkpt>
      <trkpt lat="43.00279667" lon="-1.27051167">
        <ele>987.0</ele>
        <time>2019-07-31T09:30:30.090Z</time>
      </trkpt>
      <trkpt lat="43.00279833" lon="-1.27049333">
        <ele>987.0</ele>
        <time>2019-07-31T09:30:31.096Z</time>
      </trkpt>
      <trkpt lat="43.00280333" lon="-1.27047167">
        <ele>987.0</ele>
        <time>2019-07-31T09:30:32.102Z</time>
      </trkpt>
      <trkpt lat="43.00280833" lon="-1.27044667">
        <ele>987.0</ele>
        <time>2019-07-31T09:30:33.106Z</time>
      </trkpt>
      <trkpt lat="43.00281667" lon="-1.27042333">
        <ele>987.0</ele>
        <time>2019-07-31T09:30:34.113Z</time>
      </trkpt>
      <trkpt lat="43.00282" lon="-1.2704">
        <ele>987.0</ele>
        <time>2019-07-31T09:30:35.119Z</time>
      </trkpt>
      <trkpt lat="43.00282333" lon="-1.27037833">
        <ele>988.0</ele>
        <time>2019-07-31T09:30:36.124Z</time>
      </trkpt>
      <trkpt lat="43.00282833" lon="-1.27035167">
        <ele>988.0</ele>
        <time>2019-07-31T09:30:37.128Z</time>
      </trkpt>
      <trkpt lat="43.00283167" lon="-1.27033">
        <ele>988.0</ele>
        <time>2019-07-31T09:30:38.132Z</time>
      </trkpt>
      <trkpt lat="43.002835" lon="-1.270305">
        <ele>988.0</ele>
        <time>2019-07-31T09:30:39.136Z</time>
      </trkpt>
      <trkpt lat="43.00283833" lon="-1.270285">
        <ele>988.0</ele>
        <time>2019-07-31T09:30:40.140Z</time>
      </trkpt>
      <trkpt lat="43.00284167" lon="-1.27026167">
        <ele>988.0</ele>
        <time>2019-07-31T09:30:41.147Z</time>
      </trkpt>
      <trkpt lat="43.00284667" lon="-1.27023333">
        <ele>988.0</ele>
        <time>2019-07-31T09:30:42.153Z</time>
      </trkpt>
      <trkpt lat="43.00285" lon="-1.27021667">
        <ele>988.0</ele>
        <time>2019-07-31T09:30:43.157Z</time>
      </trkpt>
      <trkpt lat="43.00285667" lon="-1.27019667">
        <ele>988.0</ele>
        <time>2019-07-31T09:30:44.162Z</time>
      </trkpt>
      <trkpt lat="43.00286167" lon="-1.27017333">
        <ele>988.0</ele>
        <time>2019-07-31T09:30:45.167Z</time>
      </trkpt>
      <trkpt lat="43.00286833" lon="-1.270155">
        <ele>988.0</ele>
        <time>2019-07-31T09:30:46.171Z</time>
      </trkpt>
      <trkpt lat="43.00287833" lon="-1.27013167">
        <ele>988.0</ele>
        <time>2019-07-31T09:30:47.174Z</time>
      </trkpt>
      <trkpt lat="43.00288667" lon="-1.27011">
        <ele>988.0</ele>
        <time>2019-07-31T09:30:48.183Z</time>
      </trkpt>
      <trkpt lat="43.00289667" lon="-1.27008833">
        <ele>988.0</ele>
        <time>2019-07-31T09:30:49.062Z</time>
      </trkpt>
      <trkpt lat="43.00290667" lon="-1.27007">
        <ele>988.0</ele>
        <time>2019-07-31T09:30:50.069Z</time>
      </trkpt>
      <trkpt lat="43.00291667" lon="-1.27005">
        <ele>989.0</ele>
        <time>2019-07-31T09:30:51.073Z</time>
      </trkpt>
      <trkpt lat="43.00292667" lon="-1.27003167">
        <ele>989.0</ele>
        <time>2019-07-31T09:30:52.079Z</time>
      </trkpt>
      <trkpt lat="43.00293667" lon="-1.27001667">
        <ele>990.0</ele>
        <time>2019-07-31T09:30:53.083Z</time>
      </trkpt>
      <trkpt lat="43.002945" lon="-1.270005">
        <ele>991.0</ele>
        <time>2019-07-31T09:30:54.088Z</time>
      </trkpt>
      <trkpt lat="43.00295667" lon="-1.26999333">
        <ele>992.0</ele>
        <time>2019-07-31T09:30:55.093Z</time>
      </trkpt>
      <trkpt lat="43.00297167" lon="-1.26998">
        <ele>992.0</ele>
        <time>2019-07-31T09:30:56.099Z</time>
      </trkpt>
      <trkpt lat="43.002985" lon="-1.269965">
        <ele>992.0</ele>
        <time>2019-07-31T09:30:57.105Z</time>
      </trkpt>
      <trkpt lat="43.00299667" lon="-1.269955">
        <ele>991.0</ele>
        <time>2019-07-31T09:30:58.111Z</time>
      </trkpt>
      <trkpt lat="43.00301" lon="-1.26994833">
        <ele>991.0</ele>
        <time>2019-07-31T09:30:59.116Z</time>
      </trkpt>
      <trkpt lat="43.00302333" lon="-1.26993833">
        <ele>991.0</ele>
        <time>2019-07-31T09:31:00.120Z</time>
      </trkpt>
      <trkpt lat="43.003035" lon="-1.26993333">
        <ele>992.0</ele>
        <time>2019-07-31T09:31:01.125Z</time>
      </trkpt>
      <trkpt lat="43.00305167" lon="-1.26993">
        <ele>992.0</ele>
        <time>2019-07-31T09:31:02.131Z</time>
      </trkpt>
      <trkpt lat="43.00306667" lon="-1.26992667">
        <ele>994.0</ele>
        <time>2019-07-31T09:31:03.137Z</time>
      </trkpt>
      <trkpt lat="43.00308167" lon="-1.26992333">
        <ele>994.0</ele>
        <time>2019-07-31T09:31:04.142Z</time>
      </trkpt>
      <trkpt lat="43.0031" lon="-1.26991667">
        <ele>994.0</ele>
        <time>2019-07-31T09:31:05.147Z</time>
      </trkpt>
      <trkpt lat="43.00311833" lon="-1.26991167">
        <ele>993.0</ele>
        <time>2019-07-31T09:31:06.154Z</time>
      </trkpt>
      <trkpt lat="43.00313667" lon="-1.26990833">
        <ele>994.0</ele>
        <time>2019-07-31T09:31:07.161Z</time>
      </trkpt>
      <trkpt lat="43.00315333" lon="-1.26990667">
        <ele>993.0</ele>
        <time>2019-07-31T09:31:08.168Z</time>
      </trkpt>
      <trkpt lat="43.00317" lon="-1.26990333">
        <ele>993.0</ele>
        <time>2019-07-31T09:31:09.176Z</time>
      </trkpt>
      <trkpt lat="43.00318333" lon="-1.26990167">
        <ele>993.0</ele>
        <time>2019-07-31T09:31:10.180Z</time>
      </trkpt>
      <trkpt lat="43.00320167" lon="-1.26989833">
        <ele>993.0</ele>
        <time>2019-07-31T09:31:11.183Z</time>
      </trkpt>
      <trkpt lat="43.00321667" lon="-1.26989667">
        <ele>993.0</ele>
        <time>2019-07-31T09:31:12.185Z</time>
      </trkpt>
      <trkpt lat="43.00323167" lon="-1.26989167">
        <ele>993.0</ele>
        <time>2019-07-31T09:31:13.065Z</time>
      </trkpt>
      <trkpt lat="43.00324833" lon="-1.26988333">
        <ele>993.0</ele>
        <time>2019-07-31T09:31:14.071Z</time>
      </trkpt>
      <trkpt lat="43.00326333" lon="-1.26987167">
        <ele>994.0</ele>
        <time>2019-07-31T09:31:15.076Z</time>
      </trkpt>
      <trkpt lat="43.00328333" lon="-1.269855">
        <ele>994.0</ele>
        <time>2019-07-31T09:31:16.081Z</time>
      </trkpt>
      <trkpt lat="43.00330167" lon="-1.269835">
        <ele>996.0</ele>
        <time>2019-07-31T09:31:17.086Z</time>
      </trkpt>
      <trkpt lat="43.00331667" lon="-1.26981">
        <ele>997.0</ele>
        <time>2019-07-31T09:31:18.093Z</time>
      </trkpt>
      <trkpt lat="43.00333" lon="-1.26978667">
        <ele>997.0</ele>
        <time>2019-07-31T09:31:19.098Z</time>
      </trkpt>
      <trkpt lat="43.00334" lon="-1.269755">
        <ele>997.0</ele>
        <time>2019-07-31T09:31:20.103Z</time>
      </trkpt>
      <trkpt lat="43.00334167" lon="-1.26972667">
        <ele>996.0</ele>
        <time>2019-07-31T09:31:21.108Z</time>
      </trkpt>
      <trkpt lat="43.00334333" lon="-1.26970333">
        <ele>996.0</ele>
        <time>2019-07-31T09:31:22.110Z</time>
      </trkpt>
      <trkpt lat="43.003345" lon="-1.26967667">
        <ele>995.0</ele>
        <time>2019-07-31T09:31:23.115Z</time>
      </trkpt>
      <trkpt lat="43.00334167" lon="-1.26965333">
        <ele>994.0</ele>
        <time>2019-07-31T09:31:24.121Z</time>
      </trkpt>
      <trkpt lat="43.00334" lon="-1.26963">
        <ele>993.0</ele>
        <time>2019-07-31T09:31:25.126Z</time>
      </trkpt>
      <trkpt lat="43.00334167" lon="-1.26959833">
        <ele>993.0</ele>
        <time>2019-07-31T09:31:26.129Z</time>
      </trkpt>
      <trkpt lat="43.003345" lon="-1.26956833">
        <ele>992.0</ele>
        <time>2019-07-31T09:31:27.133Z</time>
      </trkpt>
      <trkpt lat="43.00335" lon="-1.26954167">
        <ele>991.0</ele>
        <time>2019-07-31T09:31:28.138Z</time>
      </trkpt>
      <trkpt lat="43.00335" lon="-1.26951833">
        <ele>991.0</ele>
        <time>2019-07-31T09:31:29.144Z</time>
      </trkpt>
      <trkpt lat="43.00335" lon="-1.26948833">
        <ele>991.0</ele>
        <time>2019-07-31T09:31:30.150Z</time>
      </trkpt>
      <trkpt lat="43.00334833" lon="-1.26947">
        <ele>991.0</ele>
        <time>2019-07-31T09:31:31.154Z</time>
      </trkpt>
      <trkpt lat="43.00334667" lon="-1.26944667">
        <ele>991.0</ele>
        <time>2019-07-31T09:31:32.161Z</time>
      </trkpt>
      <trkpt lat="43.003345" lon="-1.26942333">
        <ele>991.0</ele>
        <time>2019-07-31T09:31:33.166Z</time>
      </trkpt>
      <trkpt lat="43.003345" lon="-1.2694">
        <ele>991.0</ele>
        <time>2019-07-31T09:31:34.172Z</time>
      </trkpt>
      <trkpt lat="43.00334333" lon="-1.26938167">
        <ele>990.0</ele>
        <time>2019-07-31T09:31:35.179Z</time>
      </trkpt>
      <trkpt lat="43.00334167" lon="-1.26936167">
        <ele>989.0</ele>
        <time>2019-07-31T09:31:36.185Z</time>
      </trkpt>
      <trkpt lat="43.00334167" lon="-1.269335">
        <ele>989.0</ele>
        <time>2019-07-31T09:31:37.064Z</time>
      </trkpt>
      <trkpt lat="43.00334167" lon="-1.26931667">
        <ele>989.0</ele>
        <time>2019-07-31T09:31:38.069Z</time>
      </trkpt>
      <trkpt lat="43.00334333" lon="-1.26929167">
        <ele>989.0</ele>
        <time>2019-07-31T09:31:39.076Z</time>
      </trkpt>
      <trkpt lat="43.00334333" lon="-1.26927667">
        <ele>988.0</ele>
        <time>2019-07-31T09:31:40.081Z</time>
      </trkpt>
      <trkpt lat="43.003345" lon="-1.26925167">
        <ele>987.0</ele>
        <time>2019-07-31T09:31:41.083Z</time>
      </trkpt>
      <trkpt lat="43.00334333" lon="-1.26923167">
        <ele>987.0</ele>
        <time>2019-07-31T09:31:42.087Z</time>
      </trkpt>
      <trkpt lat="43.00334" lon="-1.269215">
        <ele>986.0</ele>
        <time>2019-07-31T09:31:43.091Z</time>
      </trkpt>
      <trkpt lat="43.003335" lon="-1.269195">
        <ele>986.0</ele>
        <time>2019-07-31T09:31:44.095Z</time>
      </trkpt>
      <trkpt lat="43.00333333" lon="-1.26918">
        <ele>986.0</ele>
        <time>2019-07-31T09:31:45.100Z</time>
      </trkpt>
      <trkpt lat="43.003335" lon="-1.269165">
        <ele>986.0</ele>
        <time>2019-07-31T09:31:46.104Z</time>
      </trkpt>
      <trkpt lat="43.00333667" lon="-1.269145">
        <ele>986.0</ele>
        <time>2019-07-31T09:31:47.108Z</time>
      </trkpt>
      <trkpt lat="43.00333833" lon="-1.26912333">
        <ele>986.0</ele>
        <time>2019-07-31T09:31:48.112Z</time>
      </trkpt>
      <trkpt lat="43.00333667" lon="-1.26910167">
        <ele>986.0</ele>
        <time>2019-07-31T09:31:49.115Z</time>
      </trkpt>
      <trkpt lat="43.00333667" lon="-1.26908333">
        <ele>986.0</ele>
        <time>2019-07-31T09:31:50.120Z</time>
      </trkpt>
      <trkpt lat="43.00333667" lon="-1.269065">
        <ele>986.0</ele>
        <time>2019-07-31T09:31:51.124Z</time>
      </trkpt>
      <trkpt lat="43.00333667" lon="-1.26904667">
        <ele>986.0</ele>
        <time>2019-07-31T09:31:52.128Z</time>
      </trkpt>
      <trkpt lat="43.00333333" lon="-1.26902667">
        <ele>985.0</ele>
        <time>2019-07-31T09:31:53.134Z</time>
      </trkpt>
      <trkpt lat="43.00333" lon="-1.269005">
        <ele>985.0</ele>
        <time>2019-07-31T09:31:54.140Z</time>
      </trkpt>
      <trkpt lat="43.00333" lon="-1.26898667">
        <ele>984.0</ele>
        <time>2019-07-31T09:31:55.146Z</time>
      </trkpt>
      <trkpt lat="43.00333167" lon="-1.26897167">
        <ele>984.0</ele>
        <time>2019-07-31T09:31:56.153Z</time>
      </trkpt>
      <trkpt lat="43.00333333" lon="-1.268955">
        <ele>984.0</ele>
        <time>2019-07-31T09:31:57.160Z</time>
      </trkpt>
      <trkpt lat="43.00333333" lon="-1.268935">
        <ele>983.0</ele>
        <time>2019-07-31T09:31:58.166Z</time>
      </trkpt>
      <trkpt lat="43.00333167" lon="-1.26891333">
        <ele>982.0</ele>
        <time>2019-07-31T09:31:59.172Z</time>
      </trkpt>
      <trkpt lat="43.00333" lon="-1.26889">
        <ele>982.0</ele>
        <time>2019-07-31T09:32:00.178Z</time>
      </trkpt>
      <trkpt lat="43.00332667" lon="-1.26886667">
        <ele>982.0</ele>
        <time>2019-07-31T09:32:01.184Z</time>
      </trkpt>
      <trkpt lat="43.00332333" lon="-1.26884333">
        <ele>982.0</ele>
        <time>2019-07-31T09:32:02.064Z</time>
      </trkpt>
      <trkpt lat="43.00332" lon="-1.26882167">
        <ele>982.0</ele>
        <time>2019-07-31T09:32:03.069Z</time>
      </trkpt>
      <trkpt lat="43.00332167" lon="-1.26880167">
        <ele>981.0</ele>
        <time>2019-07-31T09:32:04.073Z</time>
      </trkpt>
      <trkpt lat="43.00332667" lon="-1.26877833">
        <ele>980.0</ele>
        <time>2019-07-31T09:32:05.077Z</time>
      </trkpt>
      <trkpt lat="43.00333167" lon="-1.26875667">
        <ele>979.0</ele>
        <time>2019-07-31T09:32:06.083Z</time>
      </trkpt>
      <trkpt lat="43.00333167" lon="-1.26873667">
        <ele>978.0</ele>
        <time>2019-07-31T09:32:07.084Z</time>
      </trkpt>
      <trkpt lat="43.003335" lon="-1.26871333">
        <ele>977.0</ele>
        <time>2019-07-31T09:32:08.089Z</time>
      </trkpt>
      <trkpt lat="43.00333833" lon="-1.26868833">
        <ele>976.0</ele>
        <time>2019-07-31T09:32:09.096Z</time>
      </trkpt>
      <trkpt lat="43.00334167" lon="-1.26866667">
        <ele>975.0</ele>
        <time>2019-07-31T09:32:10.101Z</time>
      </trkpt>
      <trkpt lat="43.00334833" lon="-1.26864833">
        <ele>975.0</ele>
        <time>2019-07-31T09:32:11.105Z</time>
      </trkpt>
      <trkpt lat="43.00334667" lon="-1.26862667">
        <ele>974.0</ele>
        <time>2019-07-31T09:32:12.108Z</time>
      </trkpt>
      <trkpt lat="43.00335167" lon="-1.26859667">
        <ele>972.0</ele>
        <time>2019-07-31T09:32:13.113Z</time>
      </trkpt>
      <trkpt lat="43.003355" lon="-1.26856667">
        <ele>971.0</ele>
        <time>2019-07-31T09:32:14.117Z</time>
      </trkpt>
      <trkpt lat="43.00336" lon="-1.26853333">
        <ele>970.0</ele>
        <time>2019-07-31T09:32:15.121Z</time>
      </trkpt>
      <trkpt lat="43.00336667" lon="-1.2685">
        <ele>970.0</ele>
        <time>2019-07-31T09:32:16.125Z</time>
      </trkpt>
      <trkpt lat="43.00337333" lon="-1.26847333">
        <ele>969.0</ele>
        <time>2019-07-31T09:32:17.132Z</time>
      </trkpt>
      <trkpt lat="43.00338167" lon="-1.26844833">
        <ele>969.0</ele>
        <time>2019-07-31T09:32:18.138Z</time>
      </trkpt>
      <trkpt lat="43.00339167" lon="-1.26843">
        <ele>969.0</ele>
        <time>2019-07-31T09:32:19.144Z</time>
      </trkpt>
      <trkpt lat="43.00339833" lon="-1.26841167">
        <ele>969.0</ele>
        <time>2019-07-31T09:32:20.150Z</time>
      </trkpt>
      <trkpt lat="43.00340333" lon="-1.26839333">
        <ele>969.0</ele>
        <time>2019-07-31T09:32:21.156Z</time>
      </trkpt>
      <trkpt lat="43.00341" lon="-1.26837333">
        <ele>969.0</ele>
        <time>2019-07-31T09:32:22.161Z</time>
      </trkpt>
      <trkpt lat="43.00341167" lon="-1.26835167">
        <ele>969.0</ele>
        <time>2019-07-31T09:32:23.167Z</time>
      </trkpt>
      <trkpt lat="43.00340833" lon="-1.26834167">
        <ele>968.0</ele>
        <time>2019-07-31T09:32:24.173Z</time>
      </trkpt>
      <trkpt lat="43.00341167" lon="-1.26832333">
        <ele>967.0</ele>
        <time>2019-07-31T09:32:25.178Z</time>
      </trkpt>
      <trkpt lat="43.00341667" lon="-1.26830167">
        <ele>967.0</ele>
        <time>2019-07-31T09:32:26.185Z</time>
      </trkpt>
      <trkpt lat="43.00342333" lon="-1.26827833">
        <ele>968.0</ele>
        <time>2019-07-31T09:32:27.065Z</time>
      </trkpt>
      <trkpt lat="43.003425" lon="-1.26824333">
        <ele>967.0</ele>
        <time>2019-07-31T09:32:28.071Z</time>
      </trkpt>
      <trkpt lat="43.00342667" lon="-1.26821833">
        <ele>967.0</ele>
        <time>2019-07-31T09:32:29.078Z</time>
      </trkpt>
      <trkpt lat="43.00343" lon="-1.26819167">
        <ele>966.0</ele>
        <time>2019-07-31T09:32:30.083Z</time>
      </trkpt>
      <trkpt lat="43.003435" lon="-1.26817167">
        <ele>965.0</ele>
        <time>2019-07-31T09:32:31.088Z</time>
      </trkpt>
      <trkpt lat="43.00343833" lon="-1.26815333">
        <ele>964.0</ele>
        <time>2019-07-31T09:32:32.090Z</time>
      </trkpt>
      <trkpt lat="43.00343667" lon="-1.26814">
        <ele>964.0</ele>
        <time>2019-07-31T09:32:33.093Z</time>
      </trkpt>
      <trkpt lat="43.00344333" lon="-1.268125">
        <ele>965.0</ele>
        <time>2019-07-31T09:32:34.098Z</time>
      </trkpt>
      <trkpt lat="43.00344833" lon="-1.26810667">
        <ele>966.0</ele>
        <time>2019-07-31T09:32:35.104Z</time>
      </trkpt>
      <trkpt lat="43.00345667" lon="-1.26808167">
        <ele>966.0</ele>
        <time>2019-07-31T09:32:36.109Z</time>
      </trkpt>
      <trkpt lat="43.00345667" lon="-1.26806167">
        <ele>967.0</ele>
        <time>2019-07-31T09:32:37.116Z</time>
      </trkpt>
      <trkpt lat="43.003455" lon="-1.26804667">
        <ele>969.0</ele>
        <time>2019-07-31T09:32:38.122Z</time>
      </trkpt>
      <trkpt lat="43.00345833" lon="-1.26803">
        <ele>970.0</ele>
        <time>2019-07-31T09:32:39.126Z</time>
      </trkpt>
      <trkpt lat="43.00346333" lon="-1.26801667">
        <ele>971.0</ele>
        <time>2019-07-31T09:32:40.132Z</time>
      </trkpt>
      <trkpt lat="43.00346667" lon="-1.26800333">
        <ele>971.0</ele>
        <time>2019-07-31T09:32:41.137Z</time>
      </trkpt>
      <trkpt lat="43.00347167" lon="-1.26798833">
        <ele>969.0</ele>
        <time>2019-07-31T09:32:42.143Z</time>
      </trkpt>
      <trkpt lat="43.00347167" lon="-1.26796833">
        <ele>968.0</ele>
        <time>2019-07-31T09:32:43.149Z</time>
      </trkpt>
      <trkpt lat="43.003475" lon="-1.26794667">
        <ele>967.0</ele>
        <time>2019-07-31T09:32:44.154Z</time>
      </trkpt>
      <trkpt lat="43.003475" lon="-1.26792833">
        <ele>966.0</ele>
        <time>2019-07-31T09:32:45.158Z</time>
      </trkpt>
      <trkpt lat="43.00347167" lon="-1.26790667">
        <ele>965.0</ele>
        <time>2019-07-31T09:32:46.164Z</time>
      </trkpt>
      <trkpt lat="43.003475" lon="-1.26788833">
        <ele>965.0</ele>
        <time>2019-07-31T09:32:47.167Z</time>
      </trkpt>
      <trkpt lat="43.003475" lon="-1.26787167">
        <ele>964.0</ele>
        <time>2019-07-31T09:32:48.170Z</time>
      </trkpt>
      <trkpt lat="43.00347833" lon="-1.26785333">
        <ele>963.0</ele>
        <time>2019-07-31T09:32:49.175Z</time>
      </trkpt>
      <trkpt lat="43.003485" lon="-1.26782833">
        <ele>963.0</ele>
        <time>2019-07-31T09:32:50.180Z</time>
      </trkpt>
      <trkpt lat="43.00349333" lon="-1.26779833">
        <ele>962.0</ele>
        <time>2019-07-31T09:32:51.062Z</time>
      </trkpt>
      <trkpt lat="43.00349833" lon="-1.26777167">
        <ele>962.0</ele>
        <time>2019-07-31T09:32:52.067Z</time>
      </trkpt>
      <trkpt lat="43.003505" lon="-1.26774833">
        <ele>961.0</ele>
        <time>2019-07-31T09:32:53.073Z</time>
      </trkpt>
      <trkpt lat="43.00351167" lon="-1.26772833">
        <ele>960.0</ele>
        <time>2019-07-31T09:32:54.079Z</time>
      </trkpt>
      <trkpt lat="43.00351667" lon="-1.26771">
        <ele>959.0</ele>
        <time>2019-07-31T09:32:55.083Z</time>
      </trkpt>
      <trkpt lat="43.00352167" lon="-1.26768667">
        <ele>958.0</ele>
        <time>2019-07-31T09:32:56.089Z</time>
      </trkpt>
      <trkpt lat="43.00352667" lon="-1.267665">
        <ele>957.0</ele>
        <time>2019-07-31T09:32:57.094Z</time>
      </trkpt>
      <trkpt lat="43.003535" lon="-1.26764333">
        <ele>957.0</ele>
        <time>2019-07-31T09:32:58.101Z</time>
      </trkpt>
      <trkpt lat="43.00354667" lon="-1.26762167">
        <ele>957.0</ele>
        <time>2019-07-31T09:32:59.107Z</time>
      </trkpt>
      <trkpt lat="43.00355167" lon="-1.26759667">
        <ele>956.0</ele>
        <time>2019-07-31T09:33:00.113Z</time>
      </trkpt>
      <trkpt lat="43.00355667" lon="-1.26757833">
        <ele>956.0</ele>
        <time>2019-07-31T09:33:01.119Z</time>
      </trkpt>
      <trkpt lat="43.00356167" lon="-1.267555">
        <ele>956.0</ele>
        <time>2019-07-31T09:33:02.123Z</time>
      </trkpt>
      <trkpt lat="43.00356667" lon="-1.26753167">
        <ele>956.0</ele>
        <time>2019-07-31T09:33:03.125Z</time>
      </trkpt>
      <trkpt lat="43.00357" lon="-1.26750333">
        <ele>956.0</ele>
        <time>2019-07-31T09:33:04.131Z</time>
      </trkpt>
      <trkpt lat="43.00357833" lon="-1.267475">
        <ele>957.0</ele>
        <time>2019-07-31T09:33:05.137Z</time>
      </trkpt>
      <trkpt lat="43.00358667" lon="-1.26744667">
        <ele>957.0</ele>
        <time>2019-07-31T09:33:06.142Z</time>
      </trkpt>
      <trkpt lat="43.00358833" lon="-1.26741833">
        <ele>958.0</ele>
        <time>2019-07-31T09:33:07.150Z</time>
      </trkpt>
      <trkpt lat="43.00358667" lon="-1.26738833">
        <ele>958.0</ele>
        <time>2019-07-31T09:33:08.156Z</time>
      </trkpt>
      <trkpt lat="43.00359" lon="-1.26736">
        <ele>958.0</ele>
        <time>2019-07-31T09:33:09.162Z</time>
      </trkpt>
      <trkpt lat="43.00359833" lon="-1.267335">
        <ele>958.0</ele>
        <time>2019-07-31T09:33:10.168Z</time>
      </trkpt>
      <trkpt lat="43.00361" lon="-1.26730833">
        <ele>959.0</ele>
        <time>2019-07-31T09:33:11.173Z</time>
      </trkpt>
      <trkpt lat="43.00362" lon="-1.26728167">
        <ele>959.0</ele>
        <time>2019-07-31T09:33:12.181Z</time>
      </trkpt>
      <trkpt lat="43.00363" lon="-1.267255">
        <ele>959.0</ele>
        <time>2019-07-31T09:33:13.061Z</time>
      </trkpt>
      <trkpt lat="43.00363667" lon="-1.267225">
        <ele>960.0</ele>
        <time>2019-07-31T09:33:14.064Z</time>
      </trkpt>
      <trkpt lat="43.00363667" lon="-1.2672">
        <ele>961.0</ele>
        <time>2019-07-31T09:33:15.069Z</time>
      </trkpt>
      <trkpt lat="43.00363167" lon="-1.26717667">
        <ele>962.0</ele>
        <time>2019-07-31T09:33:16.075Z</time>
      </trkpt>
      <trkpt lat="43.00362667" lon="-1.267155">
        <ele>962.0</ele>
        <time>2019-07-31T09:33:17.079Z</time>
      </trkpt>
      <trkpt lat="43.00362333" lon="-1.26713167">
        <ele>963.0</ele>
        <time>2019-07-31T09:33:18.083Z</time>
      </trkpt>
      <trkpt lat="43.00362167" lon="-1.26711333">
        <ele>964.0</ele>
        <time>2019-07-31T09:33:19.088Z</time>
      </trkpt>
      <trkpt lat="43.003625" lon="-1.26709333">
        <ele>965.0</ele>
        <time>2019-07-31T09:33:20.094Z</time>
      </trkpt>
      <trkpt lat="43.00362833" lon="-1.26707333">
        <ele>966.0</ele>
        <time>2019-07-31T09:33:21.100Z</time>
      </trkpt>
      <trkpt lat="43.00363333" lon="-1.26705167">
        <ele>966.0</ele>
        <time>2019-07-31T09:33:22.105Z</time>
      </trkpt>
      <trkpt lat="43.00364167" lon="-1.26703">
        <ele>966.0</ele>
        <time>2019-07-31T09:33:23.110Z</time>
      </trkpt>
      <trkpt lat="43.00364667" lon="-1.26700833">
        <ele>965.0</ele>
        <time>2019-07-31T09:33:24.116Z</time>
      </trkpt>
      <trkpt lat="43.00365667" lon="-1.26699">
        <ele>964.0</ele>
        <time>2019-07-31T09:33:25.121Z</time>
      </trkpt>
      <trkpt lat="43.00366333" lon="-1.26697333">
        <ele>964.0</ele>
        <time>2019-07-31T09:33:26.126Z</time>
      </trkpt>
      <trkpt lat="43.00366833" lon="-1.26695333">
        <ele>964.0</ele>
        <time>2019-07-31T09:33:27.131Z</time>
      </trkpt>
      <trkpt lat="43.003675" lon="-1.266935">
        <ele>964.0</ele>
        <time>2019-07-31T09:33:28.137Z</time>
      </trkpt>
      <trkpt lat="43.00368333" lon="-1.26691667">
        <ele>964.0</ele>
        <time>2019-07-31T09:33:29.143Z</time>
      </trkpt>
      <trkpt lat="43.00369" lon="-1.26689667">
        <ele>964.0</ele>
        <time>2019-07-31T09:33:30.150Z</time>
      </trkpt>
      <trkpt lat="43.00369833" lon="-1.26687833">
        <ele>964.0</ele>
        <time>2019-07-31T09:33:31.155Z</time>
      </trkpt>
      <trkpt lat="43.00370667" lon="-1.26685667">
        <ele>964.0</ele>
        <time>2019-07-31T09:33:32.162Z</time>
      </trkpt>
      <trkpt lat="43.003715" lon="-1.26684">
        <ele>964.0</ele>
        <time>2019-07-31T09:33:33.168Z</time>
      </trkpt>
      <trkpt lat="43.00371667" lon="-1.26682333">
        <ele>964.0</ele>
        <time>2019-07-31T09:33:34.172Z</time>
      </trkpt>
      <trkpt lat="43.00372333" lon="-1.266805">
        <ele>964.0</ele>
        <time>2019-07-31T09:33:35.178Z</time>
      </trkpt>
      <trkpt lat="43.00373" lon="-1.26678667">
        <ele>964.0</ele>
        <time>2019-07-31T09:33:36.183Z</time>
      </trkpt>
      <trkpt lat="43.00373667" lon="-1.26676833">
        <ele>964.0</ele>
        <time>2019-07-31T09:33:37.063Z</time>
      </trkpt>
      <trkpt lat="43.00374333" lon="-1.26675">
        <ele>964.0</ele>
        <time>2019-07-31T09:33:38.069Z</time>
      </trkpt>
      <trkpt lat="43.00375167" lon="-1.26673333">
        <ele>965.0</ele>
        <time>2019-07-31T09:33:39.074Z</time>
      </trkpt>
      <trkpt lat="43.00376167" lon="-1.266715">
        <ele>965.0</ele>
        <time>2019-07-31T09:33:40.080Z</time>
      </trkpt>
      <trkpt lat="43.00377167" lon="-1.26670167">
        <ele>965.0</ele>
        <time>2019-07-31T09:33:41.085Z</time>
      </trkpt>
      <trkpt lat="43.00378167" lon="-1.26668667">
        <ele>966.0</ele>
        <time>2019-07-31T09:33:42.090Z</time>
      </trkpt>
      <trkpt lat="43.00379" lon="-1.26667333">
        <ele>966.0</ele>
        <time>2019-07-31T09:33:43.097Z</time>
      </trkpt>
      <trkpt lat="43.0038" lon="-1.26665833">
        <ele>967.0</ele>
        <time>2019-07-31T09:33:44.103Z</time>
      </trkpt>
      <trkpt lat="43.00381167" lon="-1.266645">
        <ele>967.0</ele>
        <time>2019-07-31T09:33:45.107Z</time>
      </trkpt>
      <trkpt lat="43.003825" lon="-1.26663167">
        <ele>968.0</ele>
        <time>2019-07-31T09:33:46.109Z</time>
      </trkpt>
      <trkpt lat="43.00384" lon="-1.26661333">
        <ele>968.0</ele>
        <time>2019-07-31T09:33:47.116Z</time>
      </trkpt>
      <trkpt lat="43.00385167" lon="-1.26659833">
        <ele>967.0</ele>
        <time>2019-07-31T09:33:48.123Z</time>
      </trkpt>
      <trkpt lat="43.00386" lon="-1.26658333">
        <ele>967.0</ele>
        <time>2019-07-31T09:33:49.126Z</time>
      </trkpt>
      <trkpt lat="43.00386667" lon="-1.26657167">
        <ele>967.0</ele>
        <time>2019-07-31T09:33:50.131Z</time>
      </trkpt>
      <trkpt lat="43.00387833" lon="-1.26656">
        <ele>967.0</ele>
        <time>2019-07-31T09:33:51.136Z</time>
      </trkpt>
      <trkpt lat="43.00389" lon="-1.26654833">
        <ele>967.0</ele>
        <time>2019-07-31T09:33:52.142Z</time>
      </trkpt>
      <trkpt lat="43.00390167" lon="-1.26653667">
        <ele>967.0</ele>
        <time>2019-07-31T09:33:53.148Z</time>
      </trkpt>
      <trkpt lat="43.00391333" lon="-1.26652667">
        <ele>967.0</ele>
        <time>2019-07-31T09:33:54.151Z</time>
      </trkpt>
      <trkpt lat="43.00392667" lon="-1.26652">
        <ele>967.0</ele>
        <time>2019-07-31T09:33:55.155Z</time>
      </trkpt>
      <trkpt lat="43.00394167" lon="-1.26651333">
        <ele>967.0</ele>
        <time>2019-07-31T09:33:56.160Z</time>
      </trkpt>
      <trkpt lat="43.003955" lon="-1.26650833">
        <ele>968.0</ele>
        <time>2019-07-31T09:33:57.166Z</time>
      </trkpt>
      <trkpt lat="43.00397" lon="-1.26650167">
        <ele>968.0</ele>
        <time>2019-07-31T09:33:58.173Z</time>
      </trkpt>
      <trkpt lat="43.00398667" lon="-1.26649667">
        <ele>969.0</ele>
        <time>2019-07-31T09:33:59.179Z</time>
      </trkpt>
      <trkpt lat="43.00400333" lon="-1.26649333">
        <ele>969.0</ele>
        <time>2019-07-31T09:34:00.184Z</time>
      </trkpt>
      <trkpt lat="43.00401833" lon="-1.26649167">
        <ele>970.0</ele>
        <time>2019-07-31T09:34:01.064Z</time>
      </trkpt>
      <trkpt lat="43.00403333" lon="-1.26649167">
        <ele>971.0</ele>
        <time>2019-07-31T09:34:02.071Z</time>
      </trkpt>
      <trkpt lat="43.00405167" lon="-1.26648667">
        <ele>971.0</ele>
        <time>2019-07-31T09:34:03.079Z</time>
      </trkpt>
      <trkpt lat="43.00406667" lon="-1.26648167">
        <ele>971.0</ele>
        <time>2019-07-31T09:34:04.084Z</time>
      </trkpt>
      <trkpt lat="43.00408167" lon="-1.26648">
        <ele>972.0</ele>
        <time>2019-07-31T09:34:05.089Z</time>
      </trkpt>
      <trkpt lat="43.00409833" lon="-1.26647333">
        <ele>972.0</ele>
        <time>2019-07-31T09:34:06.094Z</time>
      </trkpt>
      <trkpt lat="43.00412" lon="-1.26646">
        <ele>972.0</ele>
        <time>2019-07-31T09:34:07.099Z</time>
      </trkpt>
      <trkpt lat="43.00413667" lon="-1.26645167">
        <ele>971.0</ele>
        <time>2019-07-31T09:34:08.106Z</time>
      </trkpt>
      <trkpt lat="43.00415167" lon="-1.26644667">
        <ele>970.0</ele>
        <time>2019-07-31T09:34:09.113Z</time>
      </trkpt>
      <trkpt lat="43.00416333" lon="-1.26644333">
        <ele>971.0</ele>
        <time>2019-07-31T09:34:10.118Z</time>
      </trkpt>
      <trkpt lat="43.00418" lon="-1.26643667">
        <ele>971.0</ele>
        <time>2019-07-31T09:34:11.124Z</time>
      </trkpt>
      <trkpt lat="43.00419667" lon="-1.26642833">
        <ele>972.0</ele>
        <time>2019-07-31T09:34:12.130Z</time>
      </trkpt>
      <trkpt lat="43.00421333" lon="-1.26641167">
        <ele>972.0</ele>
        <time>2019-07-31T09:34:13.136Z</time>
      </trkpt>
      <trkpt lat="43.00423" lon="-1.26639">
        <ele>972.0</ele>
        <time>2019-07-31T09:34:14.142Z</time>
      </trkpt>
      <trkpt lat="43.00425" lon="-1.26637333">
        <ele>972.0</ele>
        <time>2019-07-31T09:34:15.147Z</time>
      </trkpt>
      <trkpt lat="43.00427" lon="-1.26636167">
        <ele>972.0</ele>
        <time>2019-07-31T09:34:16.153Z</time>
      </trkpt>
      <trkpt lat="43.00428667" lon="-1.26635">
        <ele>972.0</ele>
        <time>2019-07-31T09:34:17.157Z</time>
      </trkpt>
      <trkpt lat="43.00430167" lon="-1.26633">
        <ele>971.0</ele>
        <time>2019-07-31T09:34:18.162Z</time>
      </trkpt>
      <trkpt lat="43.00431833" lon="-1.266315">
        <ele>970.0</ele>
        <time>2019-07-31T09:34:19.166Z</time>
      </trkpt>
      <trkpt lat="43.00432833" lon="-1.266305">
        <ele>970.0</ele>
        <time>2019-07-31T09:34:20.172Z</time>
      </trkpt>
      <trkpt lat="43.00434333" lon="-1.26629">
        <ele>970.0</ele>
        <time>2019-07-31T09:34:21.179Z</time>
      </trkpt>
      <trkpt lat="43.00436667" lon="-1.26626333">
        <ele>969.0</ele>
        <time>2019-07-31T09:34:22.186Z</time>
      </trkpt>
      <trkpt lat="43.00438833" lon="-1.26624333">
        <ele>968.0</ele>
        <time>2019-07-31T09:34:23.066Z</time>
      </trkpt>
      <trkpt lat="43.00440167" lon="-1.26622833">
        <ele>968.0</ele>
        <time>2019-07-31T09:34:24.071Z</time>
      </trkpt>
      <trkpt lat="43.00442333" lon="-1.26621167">
        <ele>967.0</ele>
        <time>2019-07-31T09:34:25.077Z</time>
      </trkpt>
      <trkpt lat="43.00444833" lon="-1.26619833">
        <ele>967.0</ele>
        <time>2019-07-31T09:34:26.081Z</time>
      </trkpt>
      <trkpt lat="43.00446667" lon="-1.26618667">
        <ele>966.0</ele>
        <time>2019-07-31T09:34:27.085Z</time>
      </trkpt>
      <trkpt lat="43.00447833" lon="-1.26617">
        <ele>966.0</ele>
        <time>2019-07-31T09:34:28.089Z</time>
      </trkpt>
      <trkpt lat="43.00448167" lon="-1.266155">
        <ele>966.0</ele>
        <time>2019-07-31T09:34:29.093Z</time>
      </trkpt>
      <trkpt lat="43.00448667" lon="-1.266135">
        <ele>965.0</ele>
        <time>2019-07-31T09:34:30.099Z</time>
      </trkpt>
      <trkpt lat="43.004495" lon="-1.26611">
        <ele>964.0</ele>
        <time>2019-07-31T09:34:31.103Z</time>
      </trkpt>
      <trkpt lat="43.00450167" lon="-1.26609167">
        <ele>964.0</ele>
        <time>2019-07-31T09:34:32.109Z</time>
      </trkpt>
      <trkpt lat="43.00450833" lon="-1.26606667">
        <ele>964.0</ele>
        <time>2019-07-31T09:34:33.116Z</time>
      </trkpt>
      <trkpt lat="43.004525" lon="-1.26604">
        <ele>964.0</ele>
        <time>2019-07-31T09:34:34.122Z</time>
      </trkpt>
      <trkpt lat="43.00454" lon="-1.26601833">
        <ele>963.0</ele>
        <time>2019-07-31T09:34:35.126Z</time>
      </trkpt>
      <trkpt lat="43.00455167" lon="-1.26600167">
        <ele>962.0</ele>
        <time>2019-07-31T09:34:36.129Z</time>
      </trkpt>
      <trkpt lat="43.00456833" lon="-1.265975">
        <ele>962.0</ele>
        <time>2019-07-31T09:34:37.133Z</time>
      </trkpt>
      <trkpt lat="43.00457167" lon="-1.26595833">
        <ele>962.0</ele>
        <time>2019-07-31T09:34:38.140Z</time>
      </trkpt>
      <trkpt lat="43.00457833" lon="-1.26593667">
        <ele>963.0</ele>
        <time>2019-07-31T09:34:39.143Z</time>
      </trkpt>
      <trkpt lat="43.00458333" lon="-1.26591333">
        <ele>963.0</ele>
        <time>2019-07-31T09:34:40.149Z</time>
      </trkpt>
      <trkpt lat="43.00459" lon="-1.265885">
        <ele>964.0</ele>
        <time>2019-07-31T09:34:41.155Z</time>
      </trkpt>
      <trkpt lat="43.00459333" lon="-1.26585667">
        <ele>964.0</ele>
        <time>2019-07-31T09:34:42.159Z</time>
      </trkpt>
      <trkpt lat="43.00459333" lon="-1.26583">
        <ele>965.0</ele>
        <time>2019-07-31T09:34:43.164Z</time>
      </trkpt>
      <trkpt lat="43.00458833" lon="-1.26580667">
        <ele>965.0</ele>
        <time>2019-07-31T09:34:44.170Z</time>
      </trkpt>
      <trkpt lat="43.004585" lon="-1.26577833">
        <ele>966.0</ele>
        <time>2019-07-31T09:34:45.176Z</time>
      </trkpt>
      <trkpt lat="43.00457833" lon="-1.265755">
        <ele>965.0</ele>
        <time>2019-07-31T09:34:46.183Z</time>
      </trkpt>
      <trkpt lat="43.00457333" lon="-1.26572833">
        <ele>965.0</ele>
        <time>2019-07-31T09:34:47.064Z</time>
      </trkpt>
      <trkpt lat="43.00457" lon="-1.26570167">
        <ele>964.0</ele>
        <time>2019-07-31T09:34:48.069Z</time>
      </trkpt>
      <trkpt lat="43.004565" lon="-1.26567833">
        <ele>963.0</ele>
        <time>2019-07-31T09:34:49.074Z</time>
      </trkpt>
      <trkpt lat="43.00455333" lon="-1.26566333">
        <ele>964.0</ele>
        <time>2019-07-31T09:34:50.081Z</time>
      </trkpt>
      <trkpt lat="43.00454333" lon="-1.26563833">
        <ele>965.0</ele>
        <time>2019-07-31T09:34:51.086Z</time>
      </trkpt>
      <trkpt lat="43.00453167" lon="-1.26561833">
        <ele>965.0</ele>
        <time>2019-07-31T09:34:52.091Z</time>
      </trkpt>
      <trkpt lat="43.00452167" lon="-1.26559667">
        <ele>965.0</ele>
        <time>2019-07-31T09:34:53.095Z</time>
      </trkpt>
      <trkpt lat="43.00451667" lon="-1.26557833">
        <ele>964.0</ele>
        <time>2019-07-31T09:34:54.101Z</time>
      </trkpt>
      <trkpt lat="43.00450833" lon="-1.26555667">
        <ele>964.0</ele>
        <time>2019-07-31T09:34:55.106Z</time>
      </trkpt>
      <trkpt lat="43.00450333" lon="-1.26553333">
        <ele>964.0</ele>
        <time>2019-07-31T09:34:56.111Z</time>
      </trkpt>
      <trkpt lat="43.00449833" lon="-1.26551167">
        <ele>964.0</ele>
        <time>2019-07-31T09:34:57.115Z</time>
      </trkpt>
      <trkpt lat="43.00449167" lon="-1.26549">
        <ele>964.0</ele>
        <time>2019-07-31T09:34:58.120Z</time>
      </trkpt>
      <trkpt lat="43.00448667" lon="-1.26546833">
        <ele>963.0</ele>
        <time>2019-07-31T09:34:59.124Z</time>
      </trkpt>
      <trkpt lat="43.00448167" lon="-1.26544833">
        <ele>963.0</ele>
        <time>2019-07-31T09:35:00.128Z</time>
      </trkpt>
      <trkpt lat="43.00447833" lon="-1.26542333">
        <ele>962.0</ele>
        <time>2019-07-31T09:35:01.134Z</time>
      </trkpt>
      <trkpt lat="43.00447167" lon="-1.2654">
        <ele>962.0</ele>
        <time>2019-07-31T09:35:02.136Z</time>
      </trkpt>
      <trkpt lat="43.00446833" lon="-1.265375">
        <ele>961.0</ele>
        <time>2019-07-31T09:35:03.141Z</time>
      </trkpt>
      <trkpt lat="43.00446333" lon="-1.26535167">
        <ele>961.0</ele>
        <time>2019-07-31T09:35:04.148Z</time>
      </trkpt>
      <trkpt lat="43.00446" lon="-1.26533">
        <ele>961.0</ele>
        <time>2019-07-31T09:35:05.153Z</time>
      </trkpt>
      <trkpt lat="43.004455" lon="-1.26531">
        <ele>961.0</ele>
        <time>2019-07-31T09:35:06.158Z</time>
      </trkpt>
      <trkpt lat="43.00445" lon="-1.26528833">
        <ele>961.0</ele>
        <time>2019-07-31T09:35:07.163Z</time>
      </trkpt>
      <trkpt lat="43.004445" lon="-1.26526667">
        <ele>961.0</ele>
        <time>2019-07-31T09:35:08.167Z</time>
      </trkpt>
      <trkpt lat="43.00444167" lon="-1.26524167">
        <ele>961.0</ele>
        <time>2019-07-31T09:35:09.172Z</time>
      </trkpt>
      <trkpt lat="43.00443833" lon="-1.265215">
        <ele>960.0</ele>
        <time>2019-07-31T09:35:10.178Z</time>
      </trkpt>
      <trkpt lat="43.004435" lon="-1.26519167">
        <ele>960.0</ele>
        <time>2019-07-31T09:35:11.183Z</time>
      </trkpt>
      <trkpt lat="43.004425" lon="-1.26517167">
        <ele>960.0</ele>
        <time>2019-07-31T09:35:12.062Z</time>
      </trkpt>
      <trkpt lat="43.00442167" lon="-1.26514833">
        <ele>962.0</ele>
        <time>2019-07-31T09:35:13.068Z</time>
      </trkpt>
      <trkpt lat="43.00442167" lon="-1.26512833">
        <ele>963.0</ele>
        <time>2019-07-31T09:35:14.074Z</time>
      </trkpt>
      <trkpt lat="43.00442" lon="-1.26510333">
        <ele>963.0</ele>
        <time>2019-07-31T09:35:15.080Z</time>
      </trkpt>
      <trkpt lat="43.00441833" lon="-1.26508">
        <ele>962.0</ele>
        <time>2019-07-31T09:35:16.083Z</time>
      </trkpt>
      <trkpt lat="43.004415" lon="-1.26506">
        <ele>962.0</ele>
        <time>2019-07-31T09:35:17.087Z</time>
      </trkpt>
      <trkpt lat="43.00441833" lon="-1.26503667">
        <ele>961.0</ele>
        <time>2019-07-31T09:35:18.095Z</time>
      </trkpt>
      <trkpt lat="43.00442" lon="-1.265015">
        <ele>961.0</ele>
        <time>2019-07-31T09:35:19.099Z</time>
      </trkpt>
      <trkpt lat="43.00442" lon="-1.264995">
        <ele>961.0</ele>
        <time>2019-07-31T09:35:20.104Z</time>
      </trkpt>
      <trkpt lat="43.00441833" lon="-1.264975">
        <ele>961.0</ele>
        <time>2019-07-31T09:35:21.110Z</time>
      </trkpt>
      <trkpt lat="43.00441833" lon="-1.26495167">
        <ele>961.0</ele>
        <time>2019-07-31T09:35:22.114Z</time>
      </trkpt>
      <trkpt lat="43.00442" lon="-1.26492833">
        <ele>960.0</ele>
        <time>2019-07-31T09:35:23.119Z</time>
      </trkpt>
      <trkpt lat="43.00442" lon="-1.26490667">
        <ele>960.0</ele>
        <time>2019-07-31T09:35:24.123Z</time>
      </trkpt>
      <trkpt lat="43.00442333" lon="-1.26488333">
        <ele>960.0</ele>
        <time>2019-07-31T09:35:25.127Z</time>
      </trkpt>
      <trkpt lat="43.004425" lon="-1.26486167">
        <ele>960.0</ele>
        <time>2019-07-31T09:35:26.132Z</time>
      </trkpt>
      <trkpt lat="43.004425" lon="-1.26484">
        <ele>959.0</ele>
        <time>2019-07-31T09:35:27.139Z</time>
      </trkpt>
      <trkpt lat="43.00442833" lon="-1.26482">
        <ele>959.0</ele>
        <time>2019-07-31T09:35:28.145Z</time>
      </trkpt>
      <trkpt lat="43.00443" lon="-1.2648">
        <ele>960.0</ele>
        <time>2019-07-31T09:35:29.150Z</time>
      </trkpt>
      <trkpt lat="43.00443333" lon="-1.26477667">
        <ele>960.0</ele>
        <time>2019-07-31T09:35:30.155Z</time>
      </trkpt>
      <trkpt lat="43.00443833" lon="-1.26476167">
        <ele>959.0</ele>
        <time>2019-07-31T09:35:31.159Z</time>
      </trkpt>
      <trkpt lat="43.00444333" lon="-1.26474333">
        <ele>958.0</ele>
        <time>2019-07-31T09:35:32.166Z</time>
      </trkpt>
      <trkpt lat="43.00445" lon="-1.26472167">
        <ele>958.0</ele>
        <time>2019-07-31T09:35:33.171Z</time>
      </trkpt>
      <trkpt lat="43.00445333" lon="-1.26470333">
        <ele>957.0</ele>
        <time>2019-07-31T09:35:34.176Z</time>
      </trkpt>
      <trkpt lat="43.00445833" lon="-1.26468333">
        <ele>957.0</ele>
        <time>2019-07-31T09:35:35.182Z</time>
      </trkpt>
      <trkpt lat="43.00446" lon="-1.26467">
        <ele>957.0</ele>
        <time>2019-07-31T09:35:36.063Z</time>
      </trkpt>
      <trkpt lat="43.00446333" lon="-1.264655">
        <ele>956.0</ele>
        <time>2019-07-31T09:35:37.068Z</time>
      </trkpt>
      <trkpt lat="43.00446833" lon="-1.26463333">
        <ele>956.0</ele>
        <time>2019-07-31T09:35:38.072Z</time>
      </trkpt>
      <trkpt lat="43.00447333" lon="-1.26461833">
        <ele>956.0</ele>
        <time>2019-07-31T09:35:39.079Z</time>
      </trkpt>
      <trkpt lat="43.00447667" lon="-1.2646">
        <ele>955.0</ele>
        <time>2019-07-31T09:35:40.083Z</time>
      </trkpt>
      <trkpt lat="43.004475" lon="-1.264585">
        <ele>955.0</ele>
        <time>2019-07-31T09:35:41.089Z</time>
      </trkpt>
      <trkpt lat="43.00447667" lon="-1.26456667">
        <ele>955.0</ele>
        <time>2019-07-31T09:35:42.096Z</time>
      </trkpt>
      <trkpt lat="43.00447667" lon="-1.26454833">
        <ele>954.0</ele>
        <time>2019-07-31T09:35:43.102Z</time>
      </trkpt>
      <trkpt lat="43.00448" lon="-1.26452833">
        <ele>954.0</ele>
        <time>2019-07-31T09:35:44.107Z</time>
      </trkpt>
      <trkpt lat="43.00448333" lon="-1.26450833">
        <ele>954.0</ele>
        <time>2019-07-31T09:35:45.112Z</time>
      </trkpt>
      <trkpt lat="43.00448833" lon="-1.26449">
        <ele>953.0</ele>
        <time>2019-07-31T09:35:46.118Z</time>
      </trkpt>
      <trkpt lat="43.00449167" lon="-1.264475">
        <ele>953.0</ele>
        <time>2019-07-31T09:35:47.123Z</time>
      </trkpt>
      <trkpt lat="43.004495" lon="-1.26445667">
        <ele>953.0</ele>
        <time>2019-07-31T09:35:48.128Z</time>
      </trkpt>
      <trkpt lat="43.00450333" lon="-1.264435">
        <ele>952.0</ele>
        <time>2019-07-31T09:35:49.134Z</time>
      </trkpt>
      <trkpt lat="43.00450833" lon="-1.26441833">
        <ele>951.0</ele>
        <time>2019-07-31T09:35:50.139Z</time>
      </trkpt>
      <trkpt lat="43.00451667" lon="-1.26439667">
        <ele>950.0</ele>
        <time>2019-07-31T09:35:51.144Z</time>
      </trkpt>
      <trkpt lat="43.00452667" lon="-1.26437">
        <ele>949.0</ele>
        <time>2019-07-31T09:35:52.150Z</time>
      </trkpt>
      <trkpt lat="43.00453167" lon="-1.26435">
        <ele>948.0</ele>
        <time>2019-07-31T09:35:53.157Z</time>
      </trkpt>
      <trkpt lat="43.00453667" lon="-1.264325">
        <ele>947.0</ele>
        <time>2019-07-31T09:35:54.162Z</time>
      </trkpt>
      <trkpt lat="43.00454833" lon="-1.264305">
        <ele>946.0</ele>
        <time>2019-07-31T09:35:55.166Z</time>
      </trkpt>
      <trkpt lat="43.00455167" lon="-1.26429333">
        <ele>947.0</ele>
        <time>2019-07-31T09:35:56.172Z</time>
      </trkpt>
      <trkpt lat="43.00455833" lon="-1.26427667">
        <ele>946.0</ele>
        <time>2019-07-31T09:35:57.179Z</time>
      </trkpt>
      <trkpt lat="43.004565" lon="-1.264255">
        <ele>946.0</ele>
        <time>2019-07-31T09:35:58.185Z</time>
      </trkpt>
      <trkpt lat="43.00457333" lon="-1.26423">
        <ele>945.0</ele>
        <time>2019-07-31T09:35:59.064Z</time>
      </trkpt>
      <trkpt lat="43.00458167" lon="-1.26420833">
        <ele>944.0</ele>
        <time>2019-07-31T09:36:00.070Z</time>
      </trkpt>
      <trkpt lat="43.00458833" lon="-1.26418667">
        <ele>943.0</ele>
        <time>2019-07-31T09:36:01.075Z</time>
      </trkpt>
      <trkpt lat="43.00459167" lon="-1.264165">
        <ele>943.0</ele>
        <time>2019-07-31T09:36:02.080Z</time>
      </trkpt>
      <trkpt lat="43.00459" lon="-1.26414167">
        <ele>943.0</ele>
        <time>2019-07-31T09:36:03.085Z</time>
      </trkpt>
      <trkpt lat="43.00459667" lon="-1.26411333">
        <ele>943.0</ele>
        <time>2019-07-31T09:36:04.091Z</time>
      </trkpt>
      <trkpt lat="43.00460167" lon="-1.264085">
        <ele>942.0</ele>
        <time>2019-07-31T09:36:05.097Z</time>
      </trkpt>
      <trkpt lat="43.00460333" lon="-1.26406">
        <ele>942.0</ele>
        <time>2019-07-31T09:36:06.101Z</time>
      </trkpt>
      <trkpt lat="43.00460333" lon="-1.26404">
        <ele>943.0</ele>
        <time>2019-07-31T09:36:07.107Z</time>
      </trkpt>
      <trkpt lat="43.00461167" lon="-1.26401333">
        <ele>943.0</ele>
        <time>2019-07-31T09:36:08.114Z</time>
      </trkpt>
      <trkpt lat="43.00461333" lon="-1.26398833">
        <ele>943.0</ele>
        <time>2019-07-31T09:36:09.120Z</time>
      </trkpt>
      <trkpt lat="43.004615" lon="-1.26396167">
        <ele>942.0</ele>
        <time>2019-07-31T09:36:10.125Z</time>
      </trkpt>
      <trkpt lat="43.00461833" lon="-1.26393667">
        <ele>942.0</ele>
        <time>2019-07-31T09:36:11.131Z</time>
      </trkpt>
      <trkpt lat="43.004615" lon="-1.26391833">
        <ele>943.0</ele>
        <time>2019-07-31T09:36:12.134Z</time>
      </trkpt>
      <trkpt lat="43.00461167" lon="-1.26389833">
        <ele>943.0</ele>
        <time>2019-07-31T09:36:13.134Z</time>
      </trkpt>
      <trkpt lat="43.00461333" lon="-1.26387">
        <ele>943.0</ele>
        <time>2019-07-31T09:36:14.141Z</time>
      </trkpt>
      <trkpt lat="43.004615" lon="-1.26384333">
        <ele>941.0</ele>
        <time>2019-07-31T09:36:15.145Z</time>
      </trkpt>
      <trkpt lat="43.00460833" lon="-1.26381667">
        <ele>940.0</ele>
        <time>2019-07-31T09:36:16.149Z</time>
      </trkpt>
      <trkpt lat="43.00460333" lon="-1.263795">
        <ele>940.0</ele>
        <time>2019-07-31T09:36:17.155Z</time>
      </trkpt>
      <trkpt lat="43.0046" lon="-1.26377333">
        <ele>940.0</ele>
        <time>2019-07-31T09:36:18.163Z</time>
      </trkpt>
      <trkpt lat="43.00459667" lon="-1.26375167">
        <ele>940.0</ele>
        <time>2019-07-31T09:36:19.168Z</time>
      </trkpt>
      <trkpt lat="43.00459167" lon="-1.26372833">
        <ele>940.0</ele>
        <time>2019-07-31T09:36:20.175Z</time>
      </trkpt>
      <trkpt lat="43.00459" lon="-1.26370667">
        <ele>941.0</ele>
        <time>2019-07-31T09:36:21.180Z</time>
      </trkpt>
      <trkpt lat="43.00458667" lon="-1.26368667">
        <ele>941.0</ele>
        <time>2019-07-31T09:36:22.061Z</time>
      </trkpt>
      <trkpt lat="43.004585" lon="-1.26366333">
        <ele>941.0</ele>
        <time>2019-07-31T09:36:23.064Z</time>
      </trkpt>
      <trkpt lat="43.00458333" lon="-1.26364167">
        <ele>941.0</ele>
        <time>2019-07-31T09:36:24.070Z</time>
      </trkpt>
      <trkpt lat="43.00457833" lon="-1.26362167">
        <ele>941.0</ele>
        <time>2019-07-31T09:36:25.076Z</time>
      </trkpt>
      <trkpt lat="43.004575" lon="-1.26360167">
        <ele>941.0</ele>
        <time>2019-07-31T09:36:26.082Z</time>
      </trkpt>
      <trkpt lat="43.00457333" lon="-1.26358167">
        <ele>941.0</ele>
        <time>2019-07-31T09:36:27.086Z</time>
      </trkpt>
      <trkpt lat="43.00457" lon="-1.26356">
        <ele>941.0</ele>
        <time>2019-07-31T09:36:28.091Z</time>
      </trkpt>
      <trkpt lat="43.00456667" lon="-1.26353667">
        <ele>941.0</ele>
        <time>2019-07-31T09:36:29.097Z</time>
      </trkpt>
      <trkpt lat="43.00456333" lon="-1.26351">
        <ele>940.0</ele>
        <time>2019-07-31T09:36:30.102Z</time>
      </trkpt>
      <trkpt lat="43.00456" lon="-1.26349167">
        <ele>940.0</ele>
        <time>2019-07-31T09:36:31.109Z</time>
      </trkpt>
      <trkpt lat="43.00455667" lon="-1.26347167">
        <ele>940.0</ele>
        <time>2019-07-31T09:36:32.115Z</time>
      </trkpt>
      <trkpt lat="43.00455333" lon="-1.26345167">
        <ele>939.0</ele>
        <time>2019-07-31T09:36:33.120Z</time>
      </trkpt>
      <trkpt lat="43.00455" lon="-1.26342667">
        <ele>939.0</ele>
        <time>2019-07-31T09:36:34.124Z</time>
      </trkpt>
      <trkpt lat="43.00454833" lon="-1.26340333">
        <ele>939.0</ele>
        <time>2019-07-31T09:36:35.130Z</time>
      </trkpt>
      <trkpt lat="43.004545" lon="-1.26338">
        <ele>938.0</ele>
        <time>2019-07-31T09:36:36.136Z</time>
      </trkpt>
      <trkpt lat="43.00454333" lon="-1.26335667">
        <ele>938.0</ele>
        <time>2019-07-31T09:36:37.139Z</time>
      </trkpt>
      <trkpt lat="43.004545" lon="-1.263335">
        <ele>937.0</ele>
        <time>2019-07-31T09:36:38.146Z</time>
      </trkpt>
      <trkpt lat="43.00454667" lon="-1.26331667">
        <ele>937.0</ele>
        <time>2019-07-31T09:36:39.151Z</time>
      </trkpt>
      <trkpt lat="43.00454167" lon="-1.26329667">
        <ele>937.0</ele>
        <time>2019-07-31T09:36:40.158Z</time>
      </trkpt>
      <trkpt lat="43.00454" lon="-1.26327667">
        <ele>938.0</ele>
        <time>2019-07-31T09:36:41.164Z</time>
      </trkpt>
      <trkpt lat="43.00454" lon="-1.26325667">
        <ele>938.0</ele>
        <time>2019-07-31T09:36:42.170Z</time>
      </trkpt>
      <trkpt lat="43.00454167" lon="-1.26323333">
        <ele>938.0</ele>
        <time>2019-07-31T09:36:43.177Z</time>
      </trkpt>
      <trkpt lat="43.004545" lon="-1.26321167">
        <ele>938.0</ele>
        <time>2019-07-31T09:36:44.183Z</time>
      </trkpt>
      <trkpt lat="43.00454667" lon="-1.26319">
        <ele>937.0</ele>
        <time>2019-07-31T09:36:45.062Z</time>
      </trkpt>
      <trkpt lat="43.00454667" lon="-1.26316833">
        <ele>937.0</ele>
        <time>2019-07-31T09:36:46.068Z</time>
      </trkpt>
      <trkpt lat="43.00454667" lon="-1.26314833">
        <ele>937.0</ele>
        <time>2019-07-31T09:36:47.073Z</time>
      </trkpt>
      <trkpt lat="43.00454833" lon="-1.26313">
        <ele>936.0</ele>
        <time>2019-07-31T09:36:48.076Z</time>
      </trkpt>
      <trkpt lat="43.00454833" lon="-1.26310833">
        <ele>936.0</ele>
        <time>2019-07-31T09:36:49.081Z</time>
      </trkpt>
      <trkpt lat="43.00455333" lon="-1.26308667">
        <ele>936.0</ele>
        <time>2019-07-31T09:36:50.086Z</time>
      </trkpt>
      <trkpt lat="43.00455833" lon="-1.26306667">
        <ele>935.0</ele>
        <time>2019-07-31T09:36:51.092Z</time>
      </trkpt>
      <trkpt lat="43.004565" lon="-1.26304833">
        <ele>935.0</ele>
        <time>2019-07-31T09:36:52.098Z</time>
      </trkpt>
      <trkpt lat="43.00457" lon="-1.26303167">
        <ele>935.0</ele>
        <time>2019-07-31T09:36:53.102Z</time>
      </trkpt>
      <trkpt lat="43.004575" lon="-1.26301333">
        <ele>934.0</ele>
        <time>2019-07-31T09:36:54.106Z</time>
      </trkpt>
      <trkpt lat="43.00458" lon="-1.26299333">
        <ele>934.0</ele>
        <time>2019-07-31T09:36:55.109Z</time>
      </trkpt>
      <trkpt lat="43.00458667" lon="-1.262975">
        <ele>934.0</ele>
        <time>2019-07-31T09:36:56.115Z</time>
      </trkpt>
      <trkpt lat="43.004595" lon="-1.26295833">
        <ele>934.0</ele>
        <time>2019-07-31T09:36:57.118Z</time>
      </trkpt>
      <trkpt lat="43.00460333" lon="-1.26294">
        <ele>933.0</ele>
        <time>2019-07-31T09:36:58.124Z</time>
      </trkpt>
      <trkpt lat="43.00461333" lon="-1.26292167">
        <ele>933.0</ele>
        <time>2019-07-31T09:36:59.129Z</time>
      </trkpt>
      <trkpt lat="43.00462667" lon="-1.26290333">
        <ele>933.0</ele>
        <time>2019-07-31T09:37:00.136Z</time>
      </trkpt>
      <trkpt lat="43.00463667" lon="-1.262885">
        <ele>933.0</ele>
        <time>2019-07-31T09:37:01.142Z</time>
      </trkpt>
      <trkpt lat="43.004645" lon="-1.26286667">
        <ele>933.0</ele>
        <time>2019-07-31T09:37:02.149Z</time>
      </trkpt>
      <trkpt lat="43.004655" lon="-1.262845">
        <ele>934.0</ele>
        <time>2019-07-31T09:37:03.156Z</time>
      </trkpt>
      <trkpt lat="43.004665" lon="-1.26282833">
        <ele>934.0</ele>
        <time>2019-07-31T09:37:04.162Z</time>
      </trkpt>
      <trkpt lat="43.004675" lon="-1.26281">
        <ele>935.0</ele>
        <time>2019-07-31T09:37:05.168Z</time>
      </trkpt>
      <trkpt lat="43.00468833" lon="-1.26279167">
        <ele>935.0</ele>
        <time>2019-07-31T09:37:06.174Z</time>
      </trkpt>
      <trkpt lat="43.0047" lon="-1.26277333">
        <ele>935.0</ele>
        <time>2019-07-31T09:37:07.180Z</time>
      </trkpt>
      <trkpt lat="43.00471333" lon="-1.26275167">
        <ele>935.0</ele>
        <time>2019-07-31T09:37:08.061Z</time>
      </trkpt>
      <trkpt lat="43.00472167" lon="-1.262735">
        <ele>935.0</ele>
        <time>2019-07-31T09:37:09.067Z</time>
      </trkpt>
      <trkpt lat="43.00472833" lon="-1.26271833">
        <ele>934.0</ele>
        <time>2019-07-31T09:37:10.071Z</time>
      </trkpt>
      <trkpt lat="43.00473667" lon="-1.2627">
        <ele>935.0</ele>
        <time>2019-07-31T09:37:11.077Z</time>
      </trkpt>
      <trkpt lat="43.004745" lon="-1.26268333">
        <ele>935.0</ele>
        <time>2019-07-31T09:37:12.083Z</time>
      </trkpt>
      <trkpt lat="43.00475333" lon="-1.26266667">
        <ele>936.0</ele>
        <time>2019-07-31T09:37:13.087Z</time>
      </trkpt>
      <trkpt lat="43.00476333" lon="-1.26264667">
        <ele>936.0</ele>
        <time>2019-07-31T09:37:14.091Z</time>
      </trkpt>
      <trkpt lat="43.00477" lon="-1.26262833">
        <ele>936.0</ele>
        <time>2019-07-31T09:37:15.095Z</time>
      </trkpt>
      <trkpt lat="43.00477333" lon="-1.26261">
        <ele>936.0</ele>
        <time>2019-07-31T09:37:16.099Z</time>
      </trkpt>
      <trkpt lat="43.00477833" lon="-1.26259">
        <ele>936.0</ele>
        <time>2019-07-31T09:37:17.105Z</time>
      </trkpt>
      <trkpt lat="43.004785" lon="-1.26256667">
        <ele>935.0</ele>
        <time>2019-07-31T09:37:18.111Z</time>
      </trkpt>
      <trkpt lat="43.00478667" lon="-1.26254667">
        <ele>935.0</ele>
        <time>2019-07-31T09:37:19.115Z</time>
      </trkpt>
      <trkpt lat="43.00479" lon="-1.262525">
        <ele>935.0</ele>
        <time>2019-07-31T09:37:20.121Z</time>
      </trkpt>
      <trkpt lat="43.00479667" lon="-1.26250167">
        <ele>934.0</ele>
        <time>2019-07-31T09:37:21.126Z</time>
      </trkpt>
      <trkpt lat="43.00479833" lon="-1.262485">
        <ele>934.0</ele>
        <time>2019-07-31T09:37:22.132Z</time>
      </trkpt>
      <trkpt lat="43.00480167" lon="-1.26246833">
        <ele>933.0</ele>
        <time>2019-07-31T09:37:23.138Z</time>
      </trkpt>
      <trkpt lat="43.00480833" lon="-1.262445">
        <ele>933.0</ele>
        <time>2019-07-31T09:37:24.145Z</time>
      </trkpt>
      <trkpt lat="43.00481167" lon="-1.26241833">
        <ele>933.0</ele>
        <time>2019-07-31T09:37:25.151Z</time>
      </trkpt>
      <trkpt lat="43.004815" lon="-1.26239333">
        <ele>933.0</ele>
        <time>2019-07-31T09:37:26.157Z</time>
      </trkpt>
      <trkpt lat="43.00482" lon="-1.26237">
        <ele>933.0</ele>
        <time>2019-07-31T09:37:27.163Z</time>
      </trkpt>
      <trkpt lat="43.00481833" lon="-1.26235167">
        <ele>931.0</ele>
        <time>2019-07-31T09:37:28.167Z</time>
      </trkpt>
      <trkpt lat="43.00481667" lon="-1.26233">
        <ele>930.0</ele>
        <time>2019-07-31T09:37:29.169Z</time>
      </trkpt>
      <trkpt lat="43.004815" lon="-1.26231167">
        <ele>929.0</ele>
        <time>2019-07-31T09:37:30.177Z</time>
      </trkpt>
      <trkpt lat="43.00482" lon="-1.262285">
        <ele>928.0</ele>
        <time>2019-07-31T09:37:31.184Z</time>
      </trkpt>
      <trkpt lat="43.004825" lon="-1.26226833">
        <ele>927.0</ele>
        <time>2019-07-31T09:37:32.064Z</time>
      </trkpt>
      <trkpt lat="43.00482833" lon="-1.26224667">
        <ele>926.0</ele>
        <time>2019-07-31T09:37:33.068Z</time>
      </trkpt>
      <trkpt lat="43.00483167" lon="-1.26222833">
        <ele>925.0</ele>
        <time>2019-07-31T09:37:34.072Z</time>
      </trkpt>
      <trkpt lat="43.00483333" lon="-1.262205">
        <ele>924.0</ele>
        <time>2019-07-31T09:37:35.079Z</time>
      </trkpt>
      <trkpt lat="43.00483833" lon="-1.26218">
        <ele>923.0</ele>
        <time>2019-07-31T09:37:36.083Z</time>
      </trkpt>
      <trkpt lat="43.00484333" lon="-1.26216">
        <ele>923.0</ele>
        <time>2019-07-31T09:37:37.086Z</time>
      </trkpt>
      <trkpt lat="43.00485" lon="-1.26213667">
        <ele>923.0</ele>
        <time>2019-07-31T09:37:38.090Z</time>
      </trkpt>
      <trkpt lat="43.004855" lon="-1.262115">
        <ele>923.0</ele>
        <time>2019-07-31T09:37:39.095Z</time>
      </trkpt>
      <trkpt lat="43.00486167" lon="-1.26209333">
        <ele>924.0</ele>
        <time>2019-07-31T09:37:40.098Z</time>
      </trkpt>
      <trkpt lat="43.00486833" lon="-1.26207">
        <ele>923.0</ele>
        <time>2019-07-31T09:37:41.103Z</time>
      </trkpt>
      <trkpt lat="43.00487333" lon="-1.26204333">
        <ele>923.0</ele>
        <time>2019-07-31T09:37:42.109Z</time>
      </trkpt>
      <trkpt lat="43.004875" lon="-1.262025">
        <ele>923.0</ele>
        <time>2019-07-31T09:37:43.115Z</time>
      </trkpt>
      <trkpt lat="43.00487667" lon="-1.262">
        <ele>923.0</ele>
        <time>2019-07-31T09:37:44.120Z</time>
      </trkpt>
      <trkpt lat="43.00488" lon="-1.261975">
        <ele>922.0</ele>
        <time>2019-07-31T09:37:45.124Z</time>
      </trkpt>
      <trkpt lat="43.00488167" lon="-1.26195167">
        <ele>922.0</ele>
        <time>2019-07-31T09:37:46.131Z</time>
      </trkpt>
      <trkpt lat="43.00488333" lon="-1.26193">
        <ele>922.0</ele>
        <time>2019-07-31T09:37:47.135Z</time>
      </trkpt>
      <trkpt lat="43.004885" lon="-1.26190667">
        <ele>921.0</ele>
        <time>2019-07-31T09:37:48.138Z</time>
      </trkpt>
      <trkpt lat="43.00488667" lon="-1.26188667">
        <ele>921.0</ele>
        <time>2019-07-31T09:37:49.143Z</time>
      </trkpt>
      <trkpt lat="43.00488667" lon="-1.261865">
        <ele>921.0</ele>
        <time>2019-07-31T09:37:50.148Z</time>
      </trkpt>
      <trkpt lat="43.00489167" lon="-1.26184">
        <ele>922.0</ele>
        <time>2019-07-31T09:37:51.153Z</time>
      </trkpt>
      <trkpt lat="43.004895" lon="-1.26181833">
        <ele>922.0</ele>
        <time>2019-07-31T09:37:52.159Z</time>
      </trkpt>
      <trkpt lat="43.00489833" lon="-1.261795">
        <ele>922.0</ele>
        <time>2019-07-31T09:37:53.166Z</time>
      </trkpt>
      <trkpt lat="43.0049" lon="-1.26177167">
        <ele>922.0</ele>
        <time>2019-07-31T09:37:54.173Z</time>
      </trkpt>
      <trkpt lat="43.0049" lon="-1.26175">
        <ele>922.0</ele>
        <time>2019-07-31T09:37:55.180Z</time>
      </trkpt>
      <trkpt lat="43.00489833" lon="-1.26172833">
        <ele>921.0</ele>
        <time>2019-07-31T09:37:56.061Z</time>
      </trkpt>
      <trkpt lat="43.00489833" lon="-1.26170667">
        <ele>921.0</ele>
        <time>2019-07-31T09:37:57.067Z</time>
      </trkpt>
      <trkpt lat="43.00490167" lon="-1.26168167">
        <ele>921.0</ele>
        <time>2019-07-31T09:37:58.071Z</time>
      </trkpt>
      <trkpt lat="43.00490333" lon="-1.26165667">
        <ele>922.0</ele>
        <time>2019-07-31T09:37:59.076Z</time>
      </trkpt>
      <trkpt lat="43.004905" lon="-1.26163167">
        <ele>922.0</ele>
        <time>2019-07-31T09:38:00.081Z</time>
      </trkpt>
      <trkpt lat="43.004905" lon="-1.26160667">
        <ele>922.0</ele>
        <time>2019-07-31T09:38:01.084Z</time>
      </trkpt>
      <trkpt lat="43.00490667" lon="-1.261585">
        <ele>922.0</ele>
        <time>2019-07-31T09:38:02.090Z</time>
      </trkpt>
      <trkpt lat="43.00490667" lon="-1.26156167">
        <ele>922.0</ele>
        <time>2019-07-31T09:38:03.097Z</time>
      </trkpt>
      <trkpt lat="43.004905" lon="-1.26154167">
        <ele>922.0</ele>
        <time>2019-07-31T09:38:04.103Z</time>
      </trkpt>
      <trkpt lat="43.004905" lon="-1.261515">
        <ele>922.0</ele>
        <time>2019-07-31T09:38:05.108Z</time>
      </trkpt>
      <trkpt lat="43.004905" lon="-1.26149333">
        <ele>922.0</ele>
        <time>2019-07-31T09:38:06.114Z</time>
      </trkpt>
      <trkpt lat="43.00490833" lon="-1.26147">
        <ele>922.0</ele>
        <time>2019-07-31T09:38:07.122Z</time>
      </trkpt>
      <trkpt lat="43.00491" lon="-1.26144333">
        <ele>922.0</ele>
        <time>2019-07-31T09:38:08.127Z</time>
      </trkpt>
      <trkpt lat="43.00491167" lon="-1.26142">
        <ele>922.0</ele>
        <time>2019-07-31T09:38:09.134Z</time>
      </trkpt>
      <trkpt lat="43.00490833" lon="-1.26139667">
        <ele>922.0</ele>
        <time>2019-07-31T09:38:10.138Z</time>
      </trkpt>
      <trkpt lat="43.00490833" lon="-1.261375">
        <ele>921.0</ele>
        <time>2019-07-31T09:38:11.142Z</time>
      </trkpt>
      <trkpt lat="43.00491" lon="-1.26135167">
        <ele>921.0</ele>
        <time>2019-07-31T09:38:12.148Z</time>
      </trkpt>
      <trkpt lat="43.00491167" lon="-1.26132667">
        <ele>921.0</ele>
        <time>2019-07-31T09:38:13.154Z</time>
      </trkpt>
      <trkpt lat="43.004915" lon="-1.261305">
        <ele>921.0</ele>
        <time>2019-07-31T09:38:14.160Z</time>
      </trkpt>
      <trkpt lat="43.004915" lon="-1.261285">
        <ele>920.0</ele>
        <time>2019-07-31T09:38:15.165Z</time>
      </trkpt>
      <trkpt lat="43.00492" lon="-1.26126333">
        <ele>920.0</ele>
        <time>2019-07-31T09:38:16.170Z</time>
      </trkpt>
      <trkpt lat="43.00492167" lon="-1.26124167">
        <ele>920.0</ele>
        <time>2019-07-31T09:38:17.177Z</time>
      </trkpt>
      <trkpt lat="43.00492333" lon="-1.26122">
        <ele>920.0</ele>
        <time>2019-07-31T09:38:18.183Z</time>
      </trkpt>
      <trkpt lat="43.00492667" lon="-1.261195">
        <ele>920.0</ele>
        <time>2019-07-31T09:38:19.064Z</time>
      </trkpt>
      <trkpt lat="43.00493167" lon="-1.26117333">
        <ele>920.0</ele>
        <time>2019-07-31T09:38:20.070Z</time>
      </trkpt>
      <trkpt lat="43.00493333" lon="-1.26115333">
        <ele>920.0</ele>
        <time>2019-07-31T09:38:21.073Z</time>
      </trkpt>
      <trkpt lat="43.00493833" lon="-1.26113">
        <ele>920.0</ele>
        <time>2019-07-31T09:38:22.077Z</time>
      </trkpt>
      <trkpt lat="43.00494333" lon="-1.26111">
        <ele>920.0</ele>
        <time>2019-07-31T09:38:23.083Z</time>
      </trkpt>
      <trkpt lat="43.00494833" lon="-1.26109167">
        <ele>920.0</ele>
        <time>2019-07-31T09:38:24.088Z</time>
      </trkpt>
      <trkpt lat="43.00495333" lon="-1.26107667">
        <ele>920.0</ele>
        <time>2019-07-31T09:38:25.094Z</time>
      </trkpt>
      <trkpt lat="43.00496" lon="-1.26105333">
        <ele>919.0</ele>
        <time>2019-07-31T09:38:26.099Z</time>
      </trkpt>
      <trkpt lat="43.00496333" lon="-1.26104">
        <ele>919.0</ele>
        <time>2019-07-31T09:38:27.106Z</time>
      </trkpt>
      <trkpt lat="43.00496833" lon="-1.26102">
        <ele>919.0</ele>
        <time>2019-07-31T09:38:28.111Z</time>
      </trkpt>
      <trkpt lat="43.00497167" lon="-1.261">
        <ele>919.0</ele>
        <time>2019-07-31T09:38:29.115Z</time>
      </trkpt>
      <trkpt lat="43.00497667" lon="-1.26098">
        <ele>919.0</ele>
        <time>2019-07-31T09:38:30.120Z</time>
      </trkpt>
      <trkpt lat="43.00498167" lon="-1.26096">
        <ele>919.0</ele>
        <time>2019-07-31T09:38:31.124Z</time>
      </trkpt>
      <trkpt lat="43.004985" lon="-1.26094167">
        <ele>920.0</ele>
        <time>2019-07-31T09:38:32.131Z</time>
      </trkpt>
      <trkpt lat="43.00499" lon="-1.26092167">
        <ele>920.0</ele>
        <time>2019-07-31T09:38:33.135Z</time>
      </trkpt>
      <trkpt lat="43.00499333" lon="-1.26089667">
        <ele>921.0</ele>
        <time>2019-07-31T09:38:34.141Z</time>
      </trkpt>
      <trkpt lat="43.00499667" lon="-1.26087">
        <ele>921.0</ele>
        <time>2019-07-31T09:38:35.148Z</time>
      </trkpt>
      <trkpt lat="43.005" lon="-1.260845">
        <ele>921.0</ele>
        <time>2019-07-31T09:38:36.153Z</time>
      </trkpt>
      <trkpt lat="43.00500167" lon="-1.26082167">
        <ele>921.0</ele>
        <time>2019-07-31T09:38:37.160Z</time>
      </trkpt>
      <trkpt lat="43.00500167" lon="-1.26079833">
        <ele>921.0</ele>
        <time>2019-07-31T09:38:38.167Z</time>
      </trkpt>
      <trkpt lat="43.00500333" lon="-1.26077167">
        <ele>921.0</ele>
        <time>2019-07-31T09:38:39.173Z</time>
      </trkpt>
      <trkpt lat="43.005005" lon="-1.26074833">
        <ele>921.0</ele>
        <time>2019-07-31T09:38:40.178Z</time>
      </trkpt>
      <trkpt lat="43.005005" lon="-1.26072667">
        <ele>920.0</ele>
        <time>2019-07-31T09:38:41.184Z</time>
      </trkpt>
      <trkpt lat="43.00500667" lon="-1.26070667">
        <ele>919.0</ele>
        <time>2019-07-31T09:38:42.064Z</time>
      </trkpt>
      <trkpt lat="43.005005" lon="-1.260685">
        <ele>919.0</ele>
        <time>2019-07-31T09:38:43.067Z</time>
      </trkpt>
      <trkpt lat="43.005005" lon="-1.26066333">
        <ele>918.0</ele>
        <time>2019-07-31T09:38:44.070Z</time>
      </trkpt>
      <trkpt lat="43.00500833" lon="-1.26063667">
        <ele>917.0</ele>
        <time>2019-07-31T09:38:45.073Z</time>
      </trkpt>
      <trkpt lat="43.00501167" lon="-1.26061333">
        <ele>917.0</ele>
        <time>2019-07-31T09:38:46.078Z</time>
      </trkpt>
      <trkpt lat="43.00501333" lon="-1.26059">
        <ele>916.0</ele>
        <time>2019-07-31T09:38:47.083Z</time>
      </trkpt>
      <trkpt lat="43.00501667" lon="-1.26056667">
        <ele>916.0</ele>
        <time>2019-07-31T09:38:48.090Z</time>
      </trkpt>
      <trkpt lat="43.00502" lon="-1.260545">
        <ele>915.0</ele>
        <time>2019-07-31T09:38:49.095Z</time>
      </trkpt>
      <trkpt lat="43.005025" lon="-1.26052333">
        <ele>915.0</ele>
        <time>2019-07-31T09:38:50.100Z</time>
      </trkpt>
      <trkpt lat="43.00502667" lon="-1.26050333">
        <ele>915.0</ele>
        <time>2019-07-31T09:38:51.108Z</time>
      </trkpt>
      <trkpt lat="43.00503167" lon="-1.26048333">
        <ele>915.0</ele>
        <time>2019-07-31T09:38:52.112Z</time>
      </trkpt>
      <trkpt lat="43.00503667" lon="-1.26046167">
        <ele>914.0</ele>
        <time>2019-07-31T09:38:53.118Z</time>
      </trkpt>
      <trkpt lat="43.00503667" lon="-1.26044">
        <ele>914.0</ele>
        <time>2019-07-31T09:38:54.122Z</time>
      </trkpt>
      <trkpt lat="43.00503833" lon="-1.26041833">
        <ele>914.0</ele>
        <time>2019-07-31T09:38:55.126Z</time>
      </trkpt>
      <trkpt lat="43.00504333" lon="-1.26039667">
        <ele>914.0</ele>
        <time>2019-07-31T09:38:56.130Z</time>
      </trkpt>
      <trkpt lat="43.00505167" lon="-1.260375">
        <ele>914.0</ele>
        <time>2019-07-31T09:38:57.135Z</time>
      </trkpt>
      <trkpt lat="43.00506" lon="-1.26035833">
        <ele>914.0</ele>
        <time>2019-07-31T09:38:58.140Z</time>
      </trkpt>
      <trkpt lat="43.00506833" lon="-1.26034167">
        <ele>914.0</ele>
        <time>2019-07-31T09:38:59.145Z</time>
      </trkpt>
      <trkpt lat="43.00507833" lon="-1.26032">
        <ele>914.0</ele>
        <time>2019-07-31T09:39:00.149Z</time>
      </trkpt>
      <trkpt lat="43.00509" lon="-1.26030167">
        <ele>914.0</ele>
        <time>2019-07-31T09:39:01.154Z</time>
      </trkpt>
      <trkpt lat="43.0051" lon="-1.260285">
        <ele>914.0</ele>
        <time>2019-07-31T09:39:02.157Z</time>
      </trkpt>
      <trkpt lat="43.00511" lon="-1.26026833">
        <ele>914.0</ele>
        <time>2019-07-31T09:39:03.161Z</time>
      </trkpt>
      <trkpt lat="43.00512" lon="-1.26025167">
        <ele>914.0</ele>
        <time>2019-07-31T09:39:04.165Z</time>
      </trkpt>
      <trkpt lat="43.00513" lon="-1.260235">
        <ele>914.0</ele>
        <time>2019-07-31T09:39:05.170Z</time>
      </trkpt>
      <trkpt lat="43.00514" lon="-1.26021833">
        <ele>914.0</ele>
        <time>2019-07-31T09:39:06.175Z</time>
      </trkpt>
      <trkpt lat="43.00515" lon="-1.26020167">
        <ele>914.0</ele>
        <time>2019-07-31T09:39:07.182Z</time>
      </trkpt>
      <trkpt lat="43.00515833" lon="-1.26018333">
        <ele>914.0</ele>
        <time>2019-07-31T09:39:08.062Z</time>
      </trkpt>
      <trkpt lat="43.00517" lon="-1.26016833">
        <ele>914.0</ele>
        <time>2019-07-31T09:39:09.068Z</time>
      </trkpt>
      <trkpt lat="43.00518167" lon="-1.260155">
        <ele>914.0</ele>
        <time>2019-07-31T09:39:10.073Z</time>
      </trkpt>
      <trkpt lat="43.00519" lon="-1.26014">
        <ele>915.0</ele>
        <time>2019-07-31T09:39:11.077Z</time>
      </trkpt>
      <trkpt lat="43.0052" lon="-1.26012333">
        <ele>915.0</ele>
        <time>2019-07-31T09:39:12.083Z</time>
      </trkpt>
      <trkpt lat="43.00521333" lon="-1.260105">
        <ele>916.0</ele>
        <time>2019-07-31T09:39:13.087Z</time>
      </trkpt>
      <trkpt lat="43.00522167" lon="-1.260085">
        <ele>916.0</ele>
        <time>2019-07-31T09:39:14.091Z</time>
      </trkpt>
      <trkpt lat="43.00522667" lon="-1.26006333">
        <ele>916.0</ele>
        <time>2019-07-31T09:39:15.098Z</time>
      </trkpt>
      <trkpt lat="43.005235" lon="-1.26004167">
        <ele>916.0</ele>
        <time>2019-07-31T09:39:16.103Z</time>
      </trkpt>
      <trkpt lat="43.005245" lon="-1.26002667">
        <ele>916.0</ele>
        <time>2019-07-31T09:39:17.108Z</time>
      </trkpt>
      <trkpt lat="43.00525833" lon="-1.26000833">
        <ele>917.0</ele>
        <time>2019-07-31T09:39:18.113Z</time>
      </trkpt>
      <trkpt lat="43.00526833" lon="-1.25998833">
        <ele>916.0</ele>
        <time>2019-07-31T09:39:19.118Z</time>
      </trkpt>
      <trkpt lat="43.00528167" lon="-1.259965">
        <ele>916.0</ele>
        <time>2019-07-31T09:39:20.123Z</time>
      </trkpt>
      <trkpt lat="43.00529333" lon="-1.259945">
        <ele>916.0</ele>
        <time>2019-07-31T09:39:21.128Z</time>
      </trkpt>
      <trkpt lat="43.00530333" lon="-1.259925">
        <ele>916.0</ele>
        <time>2019-07-31T09:39:22.130Z</time>
      </trkpt>
      <trkpt lat="43.00531333" lon="-1.25990667">
        <ele>917.0</ele>
        <time>2019-07-31T09:39:23.134Z</time>
      </trkpt>
      <trkpt lat="43.00532167" lon="-1.259885">
        <ele>918.0</ele>
        <time>2019-07-31T09:39:24.141Z</time>
      </trkpt>
      <trkpt lat="43.00532667" lon="-1.25986333">
        <ele>918.0</ele>
        <time>2019-07-31T09:39:25.146Z</time>
      </trkpt>
      <trkpt lat="43.00533333" lon="-1.25984333">
        <ele>919.0</ele>
        <time>2019-07-31T09:39:26.152Z</time>
      </trkpt>
      <trkpt lat="43.00534167" lon="-1.25982333">
        <ele>919.0</ele>
        <time>2019-07-31T09:39:27.153Z</time>
      </trkpt>
      <trkpt lat="43.00535167" lon="-1.2598">
        <ele>919.0</ele>
        <time>2019-07-31T09:39:28.158Z</time>
      </trkpt>
      <trkpt lat="43.00536333" lon="-1.25978">
        <ele>919.0</ele>
        <time>2019-07-31T09:39:29.164Z</time>
      </trkpt>
      <trkpt lat="43.00537167" lon="-1.25976">
        <ele>919.0</ele>
        <time>2019-07-31T09:39:30.168Z</time>
      </trkpt>
      <trkpt lat="43.00537667" lon="-1.25974667">
        <ele>919.0</ele>
        <time>2019-07-31T09:39:31.174Z</time>
      </trkpt>
      <trkpt lat="43.00538167" lon="-1.25973167">
        <ele>919.0</ele>
        <time>2019-07-31T09:39:32.176Z</time>
      </trkpt>
      <trkpt lat="43.00539333" lon="-1.25970833">
        <ele>920.0</ele>
        <time>2019-07-31T09:39:33.179Z</time>
      </trkpt>
      <trkpt lat="43.00539833" lon="-1.25969833">
        <ele>920.0</ele>
        <time>2019-07-31T09:39:34.186Z</time>
      </trkpt>
      <trkpt lat="43.00540667" lon="-1.25968167">
        <ele>920.0</ele>
        <time>2019-07-31T09:39:35.067Z</time>
      </trkpt>
      <trkpt lat="43.00541833" lon="-1.25966">
        <ele>920.0</ele>
        <time>2019-07-31T09:39:36.073Z</time>
      </trkpt>
      <trkpt lat="43.005425" lon="-1.25963833">
        <ele>921.0</ele>
        <time>2019-07-31T09:39:37.080Z</time>
      </trkpt>
      <trkpt lat="43.00544" lon="-1.25962">
        <ele>921.0</ele>
        <time>2019-07-31T09:39:38.084Z</time>
      </trkpt>
      <trkpt lat="43.00545167" lon="-1.2596">
        <ele>922.0</ele>
        <time>2019-07-31T09:39:39.087Z</time>
      </trkpt>
      <trkpt lat="43.005465" lon="-1.25958">
        <ele>923.0</ele>
        <time>2019-07-31T09:39:40.089Z</time>
      </trkpt>
      <trkpt lat="43.00548" lon="-1.25956333">
        <ele>922.0</ele>
        <time>2019-07-31T09:39:41.093Z</time>
      </trkpt>
      <trkpt lat="43.005495" lon="-1.25955">
        <ele>922.0</ele>
        <time>2019-07-31T09:39:42.098Z</time>
      </trkpt>
      <trkpt lat="43.00550833" lon="-1.25953167">
        <ele>923.0</ele>
        <time>2019-07-31T09:39:43.103Z</time>
      </trkpt>
      <trkpt lat="43.00552" lon="-1.259515">
        <ele>923.0</ele>
        <time>2019-07-31T09:39:44.108Z</time>
      </trkpt>
      <trkpt lat="43.00553667" lon="-1.2595">
        <ele>924.0</ele>
        <time>2019-07-31T09:39:45.115Z</time>
      </trkpt>
      <trkpt lat="43.00555333" lon="-1.25948167">
        <ele>925.0</ele>
        <time>2019-07-31T09:39:46.120Z</time>
      </trkpt>
      <trkpt lat="43.00557" lon="-1.259465">
        <ele>926.0</ele>
        <time>2019-07-31T09:39:47.124Z</time>
      </trkpt>
      <trkpt lat="43.005585" lon="-1.259445">
        <ele>926.0</ele>
        <time>2019-07-31T09:39:48.130Z</time>
      </trkpt>
      <trkpt lat="43.00560167" lon="-1.25942667">
        <ele>926.0</ele>
        <time>2019-07-31T09:39:49.135Z</time>
      </trkpt>
      <trkpt lat="43.00561333" lon="-1.259405">
        <ele>926.0</ele>
        <time>2019-07-31T09:39:50.141Z</time>
      </trkpt>
      <trkpt lat="43.00562667" lon="-1.25939">
        <ele>926.0</ele>
        <time>2019-07-31T09:39:51.146Z</time>
      </trkpt>
      <trkpt lat="43.00564" lon="-1.259375">
        <ele>926.0</ele>
        <time>2019-07-31T09:39:52.150Z</time>
      </trkpt>
      <trkpt lat="43.005645" lon="-1.25936833">
        <ele>926.0</ele>
        <time>2019-07-31T09:39:53.156Z</time>
      </trkpt>
      <trkpt lat="43.00564833" lon="-1.25936333">
        <ele>927.0</ele>
        <time>2019-07-31T09:39:54.162Z</time>
      </trkpt>
      <trkpt lat="43.00564667" lon="-1.25936">
        <ele>928.0</ele>
        <time>2019-07-31T09:39:55.167Z</time>
      </trkpt>
      <trkpt lat="43.00565333" lon="-1.25935167">
        <ele>927.0</ele>
        <time>2019-07-31T09:39:56.173Z</time>
      </trkpt>
      <trkpt lat="43.00565167" lon="-1.25935">
        <ele>927.0</ele>
        <time>2019-07-31T09:39:57.178Z</time>
      </trkpt>
      <trkpt lat="43.00565833" lon="-1.25934667">
        <ele>927.0</ele>
        <time>2019-07-31T09:39:58.181Z</time>
      </trkpt>
      <trkpt lat="43.00566833" lon="-1.25933833">
        <ele>926.0</ele>
        <time>2019-07-31T09:39:59.063Z</time>
      </trkpt>
      <trkpt lat="43.00568" lon="-1.25932667">
        <ele>926.0</ele>
        <time>2019-07-31T09:40:00.064Z</time>
      </trkpt>
      <trkpt lat="43.00569167" lon="-1.25930667">
        <ele>926.0</ele>
        <time>2019-07-31T09:40:01.070Z</time>
      </trkpt>
      <trkpt lat="43.00570333" lon="-1.25929">
        <ele>927.0</ele>
        <time>2019-07-31T09:40:02.074Z</time>
      </trkpt>
      <trkpt lat="43.00571667" lon="-1.25927667">
        <ele>927.0</ele>
        <time>2019-07-31T09:40:03.078Z</time>
      </trkpt>
      <trkpt lat="43.00573" lon="-1.259265">
        <ele>927.0</ele>
        <time>2019-07-31T09:40:04.083Z</time>
      </trkpt>
      <trkpt lat="43.00574167" lon="-1.25925333">
        <ele>927.0</ele>
        <time>2019-07-31T09:40:05.088Z</time>
      </trkpt>
      <trkpt lat="43.00575333" lon="-1.259245">
        <ele>926.0</ele>
        <time>2019-07-31T09:40:06.094Z</time>
      </trkpt>
      <trkpt lat="43.005765" lon="-1.25923333">
        <ele>926.0</ele>
        <time>2019-07-31T09:40:07.098Z</time>
      </trkpt>
      <trkpt lat="43.00578167" lon="-1.25922333">
        <ele>925.0</ele>
        <time>2019-07-31T09:40:08.100Z</time>
      </trkpt>
      <trkpt lat="43.00579667" lon="-1.25921333">
        <ele>924.0</ele>
        <time>2019-07-31T09:40:09.104Z</time>
      </trkpt>
      <trkpt lat="43.00581167" lon="-1.25920333">
        <ele>923.0</ele>
        <time>2019-07-31T09:40:10.110Z</time>
      </trkpt>
      <trkpt lat="43.00582167" lon="-1.25919167">
        <ele>922.0</ele>
        <time>2019-07-31T09:40:11.116Z</time>
      </trkpt>
      <trkpt lat="43.00583333" lon="-1.25918">
        <ele>921.0</ele>
        <time>2019-07-31T09:40:12.122Z</time>
      </trkpt>
      <trkpt lat="43.00584167" lon="-1.25917333">
        <ele>920.0</ele>
        <time>2019-07-31T09:40:13.128Z</time>
      </trkpt>
      <trkpt lat="43.00585333" lon="-1.25916167">
        <ele>919.0</ele>
        <time>2019-07-31T09:40:14.134Z</time>
      </trkpt>
      <trkpt lat="43.005865" lon="-1.25914833">
        <ele>918.0</ele>
        <time>2019-07-31T09:40:15.140Z</time>
      </trkpt>
      <trkpt lat="43.00587833" lon="-1.25913333">
        <ele>917.0</ele>
        <time>2019-07-31T09:40:16.147Z</time>
      </trkpt>
      <trkpt lat="43.005895" lon="-1.25912167">
        <ele>916.0</ele>
        <time>2019-07-31T09:40:17.154Z</time>
      </trkpt>
      <trkpt lat="43.00591" lon="-1.25911">
        <ele>916.0</ele>
        <time>2019-07-31T09:40:18.158Z</time>
      </trkpt>
      <trkpt lat="43.00592167" lon="-1.25909833">
        <ele>915.0</ele>
        <time>2019-07-31T09:40:19.162Z</time>
      </trkpt>
      <trkpt lat="43.00593667" lon="-1.259085">
        <ele>915.0</ele>
        <time>2019-07-31T09:40:20.166Z</time>
      </trkpt>
      <trkpt lat="43.00595" lon="-1.25907333">
        <ele>914.0</ele>
        <time>2019-07-31T09:40:21.169Z</time>
      </trkpt>
      <trkpt lat="43.00596167" lon="-1.25905833">
        <ele>914.0</ele>
        <time>2019-07-31T09:40:22.176Z</time>
      </trkpt>
      <trkpt lat="43.00597667" lon="-1.25904667">
        <ele>913.0</ele>
        <time>2019-07-31T09:40:23.180Z</time>
      </trkpt>
      <trkpt lat="43.00599167" lon="-1.259035">
        <ele>912.0</ele>
        <time>2019-07-31T09:40:24.185Z</time>
      </trkpt>
      <trkpt lat="43.00600667" lon="-1.259025">
        <ele>911.0</ele>
        <time>2019-07-31T09:40:25.063Z</time>
      </trkpt>
      <trkpt lat="43.00602333" lon="-1.25901167">
        <ele>911.0</ele>
        <time>2019-07-31T09:40:26.069Z</time>
      </trkpt>
      <trkpt lat="43.00603667" lon="-1.25900167">
        <ele>910.0</ele>
        <time>2019-07-31T09:40:27.076Z</time>
      </trkpt>
      <trkpt lat="43.00604833" lon="-1.25899167">
        <ele>911.0</ele>
        <time>2019-07-31T09:40:28.081Z</time>
      </trkpt>
      <trkpt lat="43.00606167" lon="-1.25898333">
        <ele>911.0</ele>
        <time>2019-07-31T09:40:29.086Z</time>
      </trkpt>
      <trkpt lat="43.00607833" lon="-1.25897167">
        <ele>911.0</ele>
        <time>2019-07-31T09:40:30.092Z</time>
      </trkpt>
      <trkpt lat="43.00609" lon="-1.25896167">
        <ele>911.0</ele>
        <time>2019-07-31T09:40:31.097Z</time>
      </trkpt>
      <trkpt lat="43.00610667" lon="-1.258945">
        <ele>911.0</ele>
        <time>2019-07-31T09:40:32.101Z</time>
      </trkpt>
      <trkpt lat="43.00612167" lon="-1.258935">
        <ele>911.0</ele>
        <time>2019-07-31T09:40:33.106Z</time>
      </trkpt>
      <trkpt lat="43.00613833" lon="-1.258925">
        <ele>910.0</ele>
        <time>2019-07-31T09:40:34.112Z</time>
      </trkpt>
      <trkpt lat="43.00615333" lon="-1.258915">
        <ele>910.0</ele>
        <time>2019-07-31T09:40:35.117Z</time>
      </trkpt>
      <trkpt lat="43.006165" lon="-1.25890667">
        <ele>910.0</ele>
        <time>2019-07-31T09:40:36.124Z</time>
      </trkpt>
      <trkpt lat="43.006185" lon="-1.25889667">
        <ele>910.0</ele>
        <time>2019-07-31T09:40:37.129Z</time>
      </trkpt>
      <trkpt lat="43.00619833" lon="-1.25889167">
        <ele>911.0</ele>
        <time>2019-07-31T09:40:38.133Z</time>
      </trkpt>
      <trkpt lat="43.00621667" lon="-1.25888667">
        <ele>911.0</ele>
        <time>2019-07-31T09:40:39.138Z</time>
      </trkpt>
      <trkpt lat="43.00623" lon="-1.258885">
        <ele>912.0</ele>
        <time>2019-07-31T09:40:40.144Z</time>
      </trkpt>
      <trkpt lat="43.00624667" lon="-1.25887667">
        <ele>912.0</ele>
        <time>2019-07-31T09:40:41.150Z</time>
      </trkpt>
      <trkpt lat="43.00626333" lon="-1.25887">
        <ele>912.0</ele>
        <time>2019-07-31T09:40:42.156Z</time>
      </trkpt>
      <trkpt lat="43.00628" lon="-1.25886333">
        <ele>912.0</ele>
        <time>2019-07-31T09:40:43.163Z</time>
      </trkpt>
      <trkpt lat="43.006295" lon="-1.25886333">
        <ele>913.0</ele>
        <time>2019-07-31T09:40:44.166Z</time>
      </trkpt>
      <trkpt lat="43.00630833" lon="-1.25886">
        <ele>914.0</ele>
        <time>2019-07-31T09:40:45.171Z</time>
      </trkpt>
      <trkpt lat="43.00632333" lon="-1.25886167">
        <ele>914.0</ele>
        <time>2019-07-31T09:40:46.177Z</time>
      </trkpt>
      <trkpt lat="43.00634167" lon="-1.25886">
        <ele>915.0</ele>
        <time>2019-07-31T09:40:47.183Z</time>
      </trkpt>
      <trkpt lat="43.00635833" lon="-1.25885833">
        <ele>915.0</ele>
        <time>2019-07-31T09:40:48.065Z</time>
      </trkpt>
      <trkpt lat="43.00637833" lon="-1.258855">
        <ele>916.0</ele>
        <time>2019-07-31T09:40:49.069Z</time>
      </trkpt>
      <trkpt lat="43.006395" lon="-1.258855">
        <ele>916.0</ele>
        <time>2019-07-31T09:40:50.075Z</time>
      </trkpt>
      <trkpt lat="43.00641333" lon="-1.25885167">
        <ele>916.0</ele>
        <time>2019-07-31T09:40:51.080Z</time>
      </trkpt>
      <trkpt lat="43.00642667" lon="-1.25885167">
        <ele>917.0</ele>
        <time>2019-07-31T09:40:52.086Z</time>
      </trkpt>
      <trkpt lat="43.00644" lon="-1.25884667">
        <ele>918.0</ele>
        <time>2019-07-31T09:40:53.091Z</time>
      </trkpt>
      <trkpt lat="43.00646333" lon="-1.25883333">
        <ele>918.0</ele>
        <time>2019-07-31T09:40:54.097Z</time>
      </trkpt>
      <trkpt lat="43.00648" lon="-1.25883667">
        <ele>919.0</ele>
        <time>2019-07-31T09:40:55.103Z</time>
      </trkpt>
      <trkpt lat="43.00649833" lon="-1.25883833">
        <ele>920.0</ele>
        <time>2019-07-31T09:40:56.107Z</time>
      </trkpt>
      <trkpt lat="43.006515" lon="-1.25883833">
        <ele>920.0</ele>
        <time>2019-07-31T09:40:57.111Z</time>
      </trkpt>
      <trkpt lat="43.00653333" lon="-1.25883667">
        <ele>920.0</ele>
        <time>2019-07-31T09:40:58.119Z</time>
      </trkpt>
      <trkpt lat="43.00655" lon="-1.258835">
        <ele>920.0</ele>
        <time>2019-07-31T09:40:59.124Z</time>
      </trkpt>
      <trkpt lat="43.006565" lon="-1.258835">
        <ele>920.0</ele>
        <time>2019-07-31T09:41:00.130Z</time>
      </trkpt>
      <trkpt lat="43.00658167" lon="-1.258835">
        <ele>920.0</ele>
        <time>2019-07-31T09:41:01.135Z</time>
      </trkpt>
      <trkpt lat="43.00660167" lon="-1.258835">
        <ele>920.0</ele>
        <time>2019-07-31T09:41:02.142Z</time>
      </trkpt>
      <trkpt lat="43.00661833" lon="-1.25884167">
        <ele>921.0</ele>
        <time>2019-07-31T09:41:03.149Z</time>
      </trkpt>
      <trkpt lat="43.006635" lon="-1.25884">
        <ele>920.0</ele>
        <time>2019-07-31T09:41:04.155Z</time>
      </trkpt>
      <trkpt lat="43.00665333" lon="-1.25884">
        <ele>920.0</ele>
        <time>2019-07-31T09:41:05.162Z</time>
      </trkpt>
      <trkpt lat="43.00667333" lon="-1.25884167">
        <ele>920.0</ele>
        <time>2019-07-31T09:41:06.166Z</time>
      </trkpt>
      <trkpt lat="43.00669" lon="-1.25884">
        <ele>920.0</ele>
        <time>2019-07-31T09:41:07.172Z</time>
      </trkpt>
      <trkpt lat="43.00670667" lon="-1.25884167">
        <ele>920.0</ele>
        <time>2019-07-31T09:41:08.179Z</time>
      </trkpt>
      <trkpt lat="43.00672333" lon="-1.25884333">
        <ele>920.0</ele>
        <time>2019-07-31T09:41:09.061Z</time>
      </trkpt>
      <trkpt lat="43.006735" lon="-1.25884667">
        <ele>921.0</ele>
        <time>2019-07-31T09:41:10.065Z</time>
      </trkpt>
      <trkpt lat="43.00674833" lon="-1.25885167">
        <ele>921.0</ele>
        <time>2019-07-31T09:41:11.070Z</time>
      </trkpt>
      <trkpt lat="43.00676333" lon="-1.25885667">
        <ele>921.0</ele>
        <time>2019-07-31T09:41:12.078Z</time>
      </trkpt>
      <trkpt lat="43.00677833" lon="-1.25885833">
        <ele>920.0</ele>
        <time>2019-07-31T09:41:13.082Z</time>
      </trkpt>
      <trkpt lat="43.00679667" lon="-1.25885833">
        <ele>920.0</ele>
        <time>2019-07-31T09:41:14.085Z</time>
      </trkpt>
      <trkpt lat="43.00681667" lon="-1.25885833">
        <ele>920.0</ele>
        <time>2019-07-31T09:41:15.090Z</time>
      </trkpt>
      <trkpt lat="43.006835" lon="-1.25886333">
        <ele>920.0</ele>
        <time>2019-07-31T09:41:16.094Z</time>
      </trkpt>
      <trkpt lat="43.00685167" lon="-1.25887333">
        <ele>920.0</ele>
        <time>2019-07-31T09:41:17.097Z</time>
      </trkpt>
      <trkpt lat="43.00686667" lon="-1.25888333">
        <ele>921.0</ele>
        <time>2019-07-31T09:41:18.104Z</time>
      </trkpt>
      <trkpt lat="43.00688333" lon="-1.25888833">
        <ele>921.0</ele>
        <time>2019-07-31T09:41:19.111Z</time>
      </trkpt>
      <trkpt lat="43.00689667" lon="-1.25889333">
        <ele>921.0</ele>
        <time>2019-07-31T09:41:20.114Z</time>
      </trkpt>
      <trkpt lat="43.00691167" lon="-1.25890167">
        <ele>921.0</ele>
        <time>2019-07-31T09:41:21.120Z</time>
      </trkpt>
      <trkpt lat="43.00693" lon="-1.258905">
        <ele>921.0</ele>
        <time>2019-07-31T09:41:22.125Z</time>
      </trkpt>
      <trkpt lat="43.00694833" lon="-1.25890667">
        <ele>921.0</ele>
        <time>2019-07-31T09:41:23.131Z</time>
      </trkpt>
      <trkpt lat="43.006965" lon="-1.25891">
        <ele>922.0</ele>
        <time>2019-07-31T09:41:24.138Z</time>
      </trkpt>
      <trkpt lat="43.00698167" lon="-1.25891333">
        <ele>923.0</ele>
        <time>2019-07-31T09:41:25.145Z</time>
      </trkpt>
      <trkpt lat="43.00699833" lon="-1.25891667">
        <ele>923.0</ele>
        <time>2019-07-31T09:41:26.150Z</time>
      </trkpt>
      <trkpt lat="43.007015" lon="-1.258925">
        <ele>924.0</ele>
        <time>2019-07-31T09:41:27.157Z</time>
      </trkpt>
      <trkpt lat="43.00703167" lon="-1.25893167">
        <ele>924.0</ele>
        <time>2019-07-31T09:41:28.163Z</time>
      </trkpt>
      <trkpt lat="43.00704667" lon="-1.25893333">
        <ele>925.0</ele>
        <time>2019-07-31T09:41:29.168Z</time>
      </trkpt>
      <trkpt lat="43.00706667" lon="-1.258935">
        <ele>925.0</ele>
        <time>2019-07-31T09:41:30.174Z</time>
      </trkpt>
      <trkpt lat="43.007085" lon="-1.25893333">
        <ele>925.0</ele>
        <time>2019-07-31T09:41:31.181Z</time>
      </trkpt>
      <trkpt lat="43.00709667" lon="-1.25894">
        <ele>925.0</ele>
        <time>2019-07-31T09:41:32.062Z</time>
      </trkpt>
      <trkpt lat="43.00711167" lon="-1.25894333">
        <ele>925.0</ele>
        <time>2019-07-31T09:41:33.065Z</time>
      </trkpt>
      <trkpt lat="43.00712833" lon="-1.25894667">
        <ele>924.0</ele>
        <time>2019-07-31T09:41:34.070Z</time>
      </trkpt>
      <trkpt lat="43.007145" lon="-1.25894333">
        <ele>924.0</ele>
        <time>2019-07-31T09:41:35.076Z</time>
      </trkpt>
      <trkpt lat="43.00716333" lon="-1.25893833">
        <ele>924.0</ele>
        <time>2019-07-31T09:41:36.083Z</time>
      </trkpt>
      <trkpt lat="43.00718167" lon="-1.25893333">
        <ele>924.0</ele>
        <time>2019-07-31T09:41:37.089Z</time>
      </trkpt>
      <trkpt lat="43.00719667" lon="-1.25893167">
        <ele>924.0</ele>
        <time>2019-07-31T09:41:38.096Z</time>
      </trkpt>
      <trkpt lat="43.00721333" lon="-1.25893333">
        <ele>924.0</ele>
        <time>2019-07-31T09:41:39.103Z</time>
      </trkpt>
      <trkpt lat="43.007225" lon="-1.25893833">
        <ele>923.0</ele>
        <time>2019-07-31T09:41:40.108Z</time>
      </trkpt>
      <trkpt lat="43.00724167" lon="-1.25894">
        <ele>923.0</ele>
        <time>2019-07-31T09:41:41.112Z</time>
      </trkpt>
      <trkpt lat="43.00726333" lon="-1.25893167">
        <ele>923.0</ele>
        <time>2019-07-31T09:41:42.117Z</time>
      </trkpt>
      <trkpt lat="43.00728667" lon="-1.258925">
        <ele>923.0</ele>
        <time>2019-07-31T09:41:43.124Z</time>
      </trkpt>
      <trkpt lat="43.007305" lon="-1.25892">
        <ele>923.0</ele>
        <time>2019-07-31T09:41:44.128Z</time>
      </trkpt>
      <trkpt lat="43.00732167" lon="-1.25891833">
        <ele>923.0</ele>
        <time>2019-07-31T09:41:45.134Z</time>
      </trkpt>
      <trkpt lat="43.007335" lon="-1.25891333">
        <ele>922.0</ele>
        <time>2019-07-31T09:41:46.141Z</time>
      </trkpt>
      <trkpt lat="43.00735" lon="-1.25890667">
        <ele>922.0</ele>
        <time>2019-07-31T09:41:47.147Z</time>
      </trkpt>
      <trkpt lat="43.00736667" lon="-1.25889833">
        <ele>922.0</ele>
        <time>2019-07-31T09:41:48.154Z</time>
      </trkpt>
      <trkpt lat="43.007385" lon="-1.25889833">
        <ele>921.0</ele>
        <time>2019-07-31T09:41:49.160Z</time>
      </trkpt>
      <trkpt lat="43.0074" lon="-1.258895">
        <ele>921.0</ele>
        <time>2019-07-31T09:41:50.166Z</time>
      </trkpt>
      <trkpt lat="43.00741833" lon="-1.25889167">
        <ele>921.0</ele>
        <time>2019-07-31T09:41:51.170Z</time>
      </trkpt>
      <trkpt lat="43.00743833" lon="-1.25888667">
        <ele>921.0</ele>
        <time>2019-07-31T09:41:52.175Z</time>
      </trkpt>
      <trkpt lat="43.00745667" lon="-1.258885">
        <ele>920.0</ele>
        <time>2019-07-31T09:41:53.179Z</time>
      </trkpt>
      <trkpt lat="43.00747167" lon="-1.25888333">
        <ele>919.0</ele>
        <time>2019-07-31T09:41:54.185Z</time>
      </trkpt>
      <trkpt lat="43.00748" lon="-1.25888167">
        <ele>918.0</ele>
        <time>2019-07-31T09:41:55.065Z</time>
      </trkpt>
      <trkpt lat="43.007495" lon="-1.25887667">
        <ele>918.0</ele>
        <time>2019-07-31T09:41:56.072Z</time>
      </trkpt>
      <trkpt lat="43.00751" lon="-1.25887">
        <ele>918.0</ele>
        <time>2019-07-31T09:41:57.077Z</time>
      </trkpt>
      <trkpt lat="43.00752667" lon="-1.25885667">
        <ele>918.0</ele>
        <time>2019-07-31T09:41:58.082Z</time>
      </trkpt>
      <trkpt lat="43.00754167" lon="-1.25884833">
        <ele>918.0</ele>
        <time>2019-07-31T09:41:59.086Z</time>
      </trkpt>
      <trkpt lat="43.007555" lon="-1.25883">
        <ele>918.0</ele>
        <time>2019-07-31T09:42:00.094Z</time>
      </trkpt>
      <trkpt lat="43.00757333" lon="-1.25881333">
        <ele>919.0</ele>
        <time>2019-07-31T09:42:01.101Z</time>
      </trkpt>
      <trkpt lat="43.00759" lon="-1.25880167">
        <ele>918.0</ele>
        <time>2019-07-31T09:42:02.106Z</time>
      </trkpt>
      <trkpt lat="43.00760833" lon="-1.25879167">
        <ele>918.0</ele>
        <time>2019-07-31T09:42:03.111Z</time>
      </trkpt>
      <trkpt lat="43.00763" lon="-1.25877833">
        <ele>918.0</ele>
        <time>2019-07-31T09:42:04.115Z</time>
      </trkpt>
      <trkpt lat="43.00764333" lon="-1.258775">
        <ele>917.0</ele>
        <time>2019-07-31T09:42:05.120Z</time>
      </trkpt>
      <trkpt lat="43.00766167" lon="-1.25876667">
        <ele>917.0</ele>
        <time>2019-07-31T09:42:06.124Z</time>
      </trkpt>
      <trkpt lat="43.00767667" lon="-1.25875667">
        <ele>917.0</ele>
        <time>2019-07-31T09:42:07.129Z</time>
      </trkpt>
      <trkpt lat="43.007695" lon="-1.25875">
        <ele>916.0</ele>
        <time>2019-07-31T09:42:08.136Z</time>
      </trkpt>
      <trkpt lat="43.00771833" lon="-1.25874167">
        <ele>916.0</ele>
        <time>2019-07-31T09:42:09.142Z</time>
      </trkpt>
      <trkpt lat="43.00774167" lon="-1.258725">
        <ele>915.0</ele>
        <time>2019-07-31T09:42:10.146Z</time>
      </trkpt>
      <trkpt lat="43.00775833" lon="-1.25871167">
        <ele>915.0</ele>
        <time>2019-07-31T09:42:11.151Z</time>
      </trkpt>
      <trkpt lat="43.007775" lon="-1.25869667">
        <ele>915.0</ele>
        <time>2019-07-31T09:42:12.155Z</time>
      </trkpt>
      <trkpt lat="43.007795" lon="-1.258685">
        <ele>914.0</ele>
        <time>2019-07-31T09:42:13.161Z</time>
      </trkpt>
      <trkpt lat="43.00781333" lon="-1.25867667">
        <ele>914.0</ele>
        <time>2019-07-31T09:42:14.164Z</time>
      </trkpt>
      <trkpt lat="43.00782833" lon="-1.25866833">
        <ele>914.0</ele>
        <time>2019-07-31T09:42:15.169Z</time>
      </trkpt>
      <trkpt lat="43.00784" lon="-1.25865667">
        <ele>914.0</ele>
        <time>2019-07-31T09:42:16.175Z</time>
      </trkpt>
      <trkpt lat="43.00785333" lon="-1.25864667">
        <ele>914.0</ele>
        <time>2019-07-31T09:42:17.180Z</time>
      </trkpt>
      <trkpt lat="43.00786833" lon="-1.25863833">
        <ele>914.0</ele>
        <time>2019-07-31T09:42:18.185Z</time>
      </trkpt>
      <trkpt lat="43.00788167" lon="-1.258635">
        <ele>915.0</ele>
        <time>2019-07-31T09:42:19.065Z</time>
      </trkpt>
      <trkpt lat="43.00789667" lon="-1.25863167">
        <ele>914.0</ele>
        <time>2019-07-31T09:42:20.072Z</time>
      </trkpt>
      <trkpt lat="43.00791333" lon="-1.25862333">
        <ele>915.0</ele>
        <time>2019-07-31T09:42:21.077Z</time>
      </trkpt>
      <trkpt lat="43.00793" lon="-1.25861167">
        <ele>915.0</ele>
        <time>2019-07-31T09:42:22.083Z</time>
      </trkpt>
      <trkpt lat="43.00794667" lon="-1.25860167">
        <ele>915.0</ele>
        <time>2019-07-31T09:42:23.089Z</time>
      </trkpt>
      <trkpt lat="43.00796167" lon="-1.258595">
        <ele>915.0</ele>
        <time>2019-07-31T09:42:24.093Z</time>
      </trkpt>
      <trkpt lat="43.00797333" lon="-1.25858833">
        <ele>914.0</ele>
        <time>2019-07-31T09:42:25.099Z</time>
      </trkpt>
      <trkpt lat="43.00798833" lon="-1.25858167">
        <ele>914.0</ele>
        <time>2019-07-31T09:42:26.105Z</time>
      </trkpt>
      <trkpt lat="43.00800167" lon="-1.258575">
        <ele>913.0</ele>
        <time>2019-07-31T09:42:27.110Z</time>
      </trkpt>
      <trkpt lat="43.008015" lon="-1.25857167">
        <ele>913.0</ele>
        <time>2019-07-31T09:42:28.115Z</time>
      </trkpt>
      <trkpt lat="43.00802833" lon="-1.25857">
        <ele>913.0</ele>
        <time>2019-07-31T09:42:29.121Z</time>
      </trkpt>
      <trkpt lat="43.00804167" lon="-1.25856833">
        <ele>913.0</ele>
        <time>2019-07-31T09:42:30.126Z</time>
      </trkpt>
      <trkpt lat="43.00805667" lon="-1.25856333">
        <ele>913.0</ele>
        <time>2019-07-31T09:42:31.132Z</time>
      </trkpt>
      <trkpt lat="43.00807167" lon="-1.25855667">
        <ele>914.0</ele>
        <time>2019-07-31T09:42:32.137Z</time>
      </trkpt>
      <trkpt lat="43.00809" lon="-1.25855">
        <ele>914.0</ele>
        <time>2019-07-31T09:42:33.144Z</time>
      </trkpt>
      <trkpt lat="43.008105" lon="-1.258545">
        <ele>914.0</ele>
        <time>2019-07-31T09:42:34.147Z</time>
      </trkpt>
      <trkpt lat="43.00812333" lon="-1.25854333">
        <ele>914.0</ele>
        <time>2019-07-31T09:42:35.152Z</time>
      </trkpt>
      <trkpt lat="43.00814167" lon="-1.25854">
        <ele>915.0</ele>
        <time>2019-07-31T09:42:36.156Z</time>
      </trkpt>
      <trkpt lat="43.00816" lon="-1.25853333">
        <ele>915.0</ele>
        <time>2019-07-31T09:42:37.160Z</time>
      </trkpt>
      <trkpt lat="43.00817333" lon="-1.25852667">
        <ele>915.0</ele>
        <time>2019-07-31T09:42:38.166Z</time>
      </trkpt>
      <trkpt lat="43.00818833" lon="-1.25851833">
        <ele>916.0</ele>
        <time>2019-07-31T09:42:39.172Z</time>
      </trkpt>
      <trkpt lat="43.00820167" lon="-1.25851">
        <ele>916.0</ele>
        <time>2019-07-31T09:42:40.178Z</time>
      </trkpt>
      <trkpt lat="43.008215" lon="-1.258505">
        <ele>916.0</ele>
        <time>2019-07-31T09:42:41.183Z</time>
      </trkpt>
      <trkpt lat="43.00822167" lon="-1.25849833">
        <ele>917.0</ele>
        <time>2019-07-31T09:42:42.062Z</time>
      </trkpt>
      <trkpt lat="43.00823167" lon="-1.25848667">
        <ele>917.0</ele>
        <time>2019-07-31T09:42:43.067Z</time>
      </trkpt>
      <trkpt lat="43.008245" lon="-1.25847833">
        <ele>917.0</ele>
        <time>2019-07-31T09:42:44.072Z</time>
      </trkpt>
      <trkpt lat="43.00825833" lon="-1.25847167">
        <ele>917.0</ele>
        <time>2019-07-31T09:42:45.077Z</time>
      </trkpt>
      <trkpt lat="43.008265" lon="-1.25847">
        <ele>917.0</ele>
        <time>2019-07-31T09:42:46.082Z</time>
      </trkpt>
      <trkpt lat="43.00826833" lon="-1.25846833">
        <ele>918.0</ele>
        <time>2019-07-31T09:42:47.086Z</time>
      </trkpt>
      <trkpt lat="43.00827333" lon="-1.25846">
        <ele>919.0</ele>
        <time>2019-07-31T09:42:48.089Z</time>
      </trkpt>
      <trkpt lat="43.008285" lon="-1.258455">
        <ele>920.0</ele>
        <time>2019-07-31T09:42:49.095Z</time>
      </trkpt>
      <trkpt lat="43.00829833" lon="-1.25845">
        <ele>920.0</ele>
        <time>2019-07-31T09:42:50.101Z</time>
      </trkpt>
      <trkpt lat="43.00831" lon="-1.25844667">
        <ele>920.0</ele>
        <time>2019-07-31T09:42:51.107Z</time>
      </trkpt>
      <trkpt lat="43.00832833" lon="-1.25843667">
        <ele>921.0</ele>
        <time>2019-07-31T09:42:52.110Z</time>
      </trkpt>
      <trkpt lat="43.00834667" lon="-1.258425">
        <ele>921.0</ele>
        <time>2019-07-31T09:42:53.114Z</time>
      </trkpt>
      <trkpt lat="43.00836667" lon="-1.25841333">
        <ele>922.0</ele>
        <time>2019-07-31T09:42:54.120Z</time>
      </trkpt>
      <trkpt lat="43.008385" lon="-1.258405">
        <ele>922.0</ele>
        <time>2019-07-31T09:42:55.124Z</time>
      </trkpt>
      <trkpt lat="43.008405" lon="-1.258395">
        <ele>923.0</ele>
        <time>2019-07-31T09:42:56.128Z</time>
      </trkpt>
      <trkpt lat="43.008425" lon="-1.25838167">
        <ele>924.0</ele>
        <time>2019-07-31T09:42:57.135Z</time>
      </trkpt>
      <trkpt lat="43.00844667" lon="-1.258375">
        <ele>924.0</ele>
        <time>2019-07-31T09:42:58.141Z</time>
      </trkpt>
      <trkpt lat="43.00846667" lon="-1.25836333">
        <ele>925.0</ele>
        <time>2019-07-31T09:42:59.146Z</time>
      </trkpt>
      <trkpt lat="43.00848333" lon="-1.258355">
        <ele>925.0</ele>
        <time>2019-07-31T09:43:00.152Z</time>
      </trkpt>
      <trkpt lat="43.008495" lon="-1.25834667">
        <ele>925.0</ele>
        <time>2019-07-31T09:43:01.156Z</time>
      </trkpt>
      <trkpt lat="43.00850667" lon="-1.25833667">
        <ele>926.0</ele>
        <time>2019-07-31T09:43:02.161Z</time>
      </trkpt>
      <trkpt lat="43.00851333" lon="-1.25833">
        <ele>925.0</ele>
        <time>2019-07-31T09:43:03.167Z</time>
      </trkpt>
      <trkpt lat="43.00853167" lon="-1.25831833">
        <ele>924.0</ele>
        <time>2019-07-31T09:43:04.174Z</time>
      </trkpt>
      <trkpt lat="43.00855" lon="-1.2583">
        <ele>923.0</ele>
        <time>2019-07-31T09:43:05.179Z</time>
      </trkpt>
      <trkpt lat="43.008565" lon="-1.258285">
        <ele>922.0</ele>
        <time>2019-07-31T09:43:06.184Z</time>
      </trkpt>
      <trkpt lat="43.00858" lon="-1.25826333">
        <ele>922.0</ele>
        <time>2019-07-31T09:43:07.064Z</time>
      </trkpt>
      <trkpt lat="43.00859333" lon="-1.25824833">
        <ele>921.0</ele>
        <time>2019-07-31T09:43:08.071Z</time>
      </trkpt>
      <trkpt lat="43.00861" lon="-1.25823">
        <ele>919.0</ele>
        <time>2019-07-31T09:43:09.078Z</time>
      </trkpt>
      <trkpt lat="43.00861833" lon="-1.258215">
        <ele>918.0</ele>
        <time>2019-07-31T09:43:10.083Z</time>
      </trkpt>
      <trkpt lat="43.00862667" lon="-1.2582">
        <ele>916.0</ele>
        <time>2019-07-31T09:43:11.087Z</time>
      </trkpt>
      <trkpt lat="43.00864167" lon="-1.25817667">
        <ele>915.0</ele>
        <time>2019-07-31T09:43:12.093Z</time>
      </trkpt>
      <trkpt lat="43.00865167" lon="-1.25815833">
        <ele>913.0</ele>
        <time>2019-07-31T09:43:13.097Z</time>
      </trkpt>
      <trkpt lat="43.00866333" lon="-1.25814">
        <ele>912.0</ele>
        <time>2019-07-31T09:43:14.102Z</time>
      </trkpt>
      <trkpt lat="43.00867167" lon="-1.25812667">
        <ele>911.0</ele>
        <time>2019-07-31T09:43:15.108Z</time>
      </trkpt>
      <trkpt lat="43.00868" lon="-1.258115">
        <ele>911.0</ele>
        <time>2019-07-31T09:43:16.115Z</time>
      </trkpt>
      <trkpt lat="43.00869" lon="-1.2581">
        <ele>909.0</ele>
        <time>2019-07-31T09:43:17.120Z</time>
      </trkpt>
      <trkpt lat="43.00869833" lon="-1.25808667">
        <ele>909.0</ele>
        <time>2019-07-31T09:43:18.126Z</time>
      </trkpt>
      <trkpt lat="43.00870833" lon="-1.25807167">
        <ele>908.0</ele>
        <time>2019-07-31T09:43:19.130Z</time>
      </trkpt>
      <trkpt lat="43.008715" lon="-1.258055">
        <ele>907.0</ele>
        <time>2019-07-31T09:43:20.137Z</time>
      </trkpt>
      <trkpt lat="43.00872333" lon="-1.25803833">
        <ele>907.0</ele>
        <time>2019-07-31T09:43:21.143Z</time>
      </trkpt>
      <trkpt lat="43.00873167" lon="-1.25802">
        <ele>906.0</ele>
        <time>2019-07-31T09:43:22.148Z</time>
      </trkpt>
      <trkpt lat="43.00874" lon="-1.25800167">
        <ele>906.0</ele>
        <time>2019-07-31T09:43:23.154Z</time>
      </trkpt>
      <trkpt lat="43.00875" lon="-1.25798">
        <ele>905.0</ele>
        <time>2019-07-31T09:43:24.159Z</time>
      </trkpt>
      <trkpt lat="43.00875667" lon="-1.25796">
        <ele>904.0</ele>
        <time>2019-07-31T09:43:25.165Z</time>
      </trkpt>
      <trkpt lat="43.00876167" lon="-1.25794333">
        <ele>904.0</ele>
        <time>2019-07-31T09:43:26.169Z</time>
      </trkpt>
      <trkpt lat="43.00876667" lon="-1.25792667">
        <ele>903.0</ele>
        <time>2019-07-31T09:43:27.175Z</time>
      </trkpt>
      <trkpt lat="43.00877" lon="-1.25790833">
        <ele>903.0</ele>
        <time>2019-07-31T09:43:28.182Z</time>
      </trkpt>
      <trkpt lat="43.00877667" lon="-1.25788667">
        <ele>902.0</ele>
        <time>2019-07-31T09:43:29.061Z</time>
      </trkpt>
      <trkpt lat="43.00878333" lon="-1.25786333">
        <ele>902.0</ele>
        <time>2019-07-31T09:43:30.067Z</time>
      </trkpt>
      <trkpt lat="43.00879167" lon="-1.25783833">
        <ele>901.0</ele>
        <time>2019-07-31T09:43:31.073Z</time>
      </trkpt>
      <trkpt lat="43.00879833" lon="-1.257815">
        <ele>901.0</ele>
        <time>2019-07-31T09:43:32.077Z</time>
      </trkpt>
      <trkpt lat="43.008805" lon="-1.25779167">
        <ele>901.0</ele>
        <time>2019-07-31T09:43:33.082Z</time>
      </trkpt>
      <trkpt lat="43.00881333" lon="-1.257765">
        <ele>900.0</ele>
        <time>2019-07-31T09:43:34.088Z</time>
      </trkpt>
      <trkpt lat="43.00881833" lon="-1.25773833">
        <ele>901.0</ele>
        <time>2019-07-31T09:43:35.093Z</time>
      </trkpt>
      <trkpt lat="43.008825" lon="-1.257715">
        <ele>901.0</ele>
        <time>2019-07-31T09:43:36.099Z</time>
      </trkpt>
      <trkpt lat="43.00883" lon="-1.257695">
        <ele>901.0</ele>
        <time>2019-07-31T09:43:37.105Z</time>
      </trkpt>
      <trkpt lat="43.008835" lon="-1.257675">
        <ele>902.0</ele>
        <time>2019-07-31T09:43:38.111Z</time>
      </trkpt>
      <trkpt lat="43.00884" lon="-1.25765333">
        <ele>902.0</ele>
        <time>2019-07-31T09:43:39.117Z</time>
      </trkpt>
      <trkpt lat="43.00884333" lon="-1.25763">
        <ele>903.0</ele>
        <time>2019-07-31T09:43:40.123Z</time>
      </trkpt>
      <trkpt lat="43.00885" lon="-1.257605">
        <ele>903.0</ele>
        <time>2019-07-31T09:43:41.128Z</time>
      </trkpt>
      <trkpt lat="43.00885667" lon="-1.25758333">
        <ele>903.0</ele>
        <time>2019-07-31T09:43:42.135Z</time>
      </trkpt>
      <trkpt lat="43.00886667" lon="-1.25756167">
        <ele>903.0</ele>
        <time>2019-07-31T09:43:43.141Z</time>
      </trkpt>
      <trkpt lat="43.00887" lon="-1.25754333">
        <ele>903.0</ele>
        <time>2019-07-31T09:43:44.148Z</time>
      </trkpt>
      <trkpt lat="43.00887833" lon="-1.257525">
        <ele>903.0</ele>
        <time>2019-07-31T09:43:45.154Z</time>
      </trkpt>
      <trkpt lat="43.008885" lon="-1.25749833">
        <ele>904.0</ele>
        <time>2019-07-31T09:43:46.159Z</time>
      </trkpt>
      <trkpt lat="43.00889" lon="-1.25747833">
        <ele>904.0</ele>
        <time>2019-07-31T09:43:47.164Z</time>
      </trkpt>
      <trkpt lat="43.00889667" lon="-1.25745833">
        <ele>904.0</ele>
        <time>2019-07-31T09:43:48.168Z</time>
      </trkpt>
      <trkpt lat="43.00890667" lon="-1.25743833">
        <ele>904.0</ele>
        <time>2019-07-31T09:43:49.175Z</time>
      </trkpt>
      <trkpt lat="43.00891833" lon="-1.25741833">
        <ele>904.0</ele>
        <time>2019-07-31T09:43:50.182Z</time>
      </trkpt>
      <trkpt lat="43.00892833" lon="-1.25739833">
        <ele>904.0</ele>
        <time>2019-07-31T09:43:51.062Z</time>
      </trkpt>
      <trkpt lat="43.00893667" lon="-1.25737667">
        <ele>904.0</ele>
        <time>2019-07-31T09:43:52.070Z</time>
      </trkpt>
      <trkpt lat="43.00894667" lon="-1.25735667">
        <ele>904.0</ele>
        <time>2019-07-31T09:43:53.076Z</time>
      </trkpt>
      <trkpt lat="43.008955" lon="-1.25734">
        <ele>904.0</ele>
        <time>2019-07-31T09:43:54.083Z</time>
      </trkpt>
      <trkpt lat="43.008965" lon="-1.25732333">
        <ele>904.0</ele>
        <time>2019-07-31T09:43:55.087Z</time>
      </trkpt>
      <trkpt lat="43.008975" lon="-1.25730667">
        <ele>904.0</ele>
        <time>2019-07-31T09:43:56.093Z</time>
      </trkpt>
      <trkpt lat="43.00898667" lon="-1.25729">
        <ele>904.0</ele>
        <time>2019-07-31T09:43:57.097Z</time>
      </trkpt>
      <trkpt lat="43.008995" lon="-1.25727667">
        <ele>905.0</ele>
        <time>2019-07-31T09:43:58.102Z</time>
      </trkpt>
      <trkpt lat="43.009005" lon="-1.25726333">
        <ele>906.0</ele>
        <time>2019-07-31T09:43:59.106Z</time>
      </trkpt>
      <trkpt lat="43.00901667" lon="-1.25725167">
        <ele>907.0</ele>
        <time>2019-07-31T09:44:00.109Z</time>
      </trkpt>
      <trkpt lat="43.00903167" lon="-1.25723833">
        <ele>908.0</ele>
        <time>2019-07-31T09:44:01.113Z</time>
      </trkpt>
      <trkpt lat="43.009045" lon="-1.25722667">
        <ele>909.0</ele>
        <time>2019-07-31T09:44:02.118Z</time>
      </trkpt>
      <trkpt lat="43.009055" lon="-1.25722">
        <ele>909.0</ele>
        <time>2019-07-31T09:44:03.122Z</time>
      </trkpt>
      <trkpt lat="43.009065" lon="-1.25721167">
        <ele>908.0</ele>
        <time>2019-07-31T09:44:04.127Z</time>
      </trkpt>
      <trkpt lat="43.00907667" lon="-1.25720333">
        <ele>908.0</ele>
        <time>2019-07-31T09:44:05.133Z</time>
      </trkpt>
      <trkpt lat="43.00909333" lon="-1.25719333">
        <ele>907.0</ele>
        <time>2019-07-31T09:44:06.137Z</time>
      </trkpt>
      <trkpt lat="43.00911" lon="-1.257185">
        <ele>907.0</ele>
        <time>2019-07-31T09:44:07.141Z</time>
      </trkpt>
      <trkpt lat="43.00912667" lon="-1.257175">
        <ele>908.0</ele>
        <time>2019-07-31T09:44:08.146Z</time>
      </trkpt>
      <trkpt lat="43.00914167" lon="-1.257165">
        <ele>908.0</ele>
        <time>2019-07-31T09:44:09.150Z</time>
      </trkpt>
      <trkpt lat="43.009155" lon="-1.257155">
        <ele>909.0</ele>
        <time>2019-07-31T09:44:10.153Z</time>
      </trkpt>
      <trkpt lat="43.00917" lon="-1.25714833">
        <ele>909.0</ele>
        <time>2019-07-31T09:44:11.158Z</time>
      </trkpt>
      <trkpt lat="43.00918167" lon="-1.25714333">
        <ele>909.0</ele>
        <time>2019-07-31T09:44:12.163Z</time>
      </trkpt>
      <trkpt lat="43.009195" lon="-1.25714">
        <ele>910.0</ele>
        <time>2019-07-31T09:44:13.170Z</time>
      </trkpt>
      <trkpt lat="43.00920833" lon="-1.25713333">
        <ele>910.0</ele>
        <time>2019-07-31T09:44:14.177Z</time>
      </trkpt>
      <trkpt lat="43.00922167" lon="-1.25712667">
        <ele>909.0</ele>
        <time>2019-07-31T09:44:15.183Z</time>
      </trkpt>
      <trkpt lat="43.009235" lon="-1.25711667">
        <ele>908.0</ele>
        <time>2019-07-31T09:44:16.062Z</time>
      </trkpt>
      <trkpt lat="43.00924667" lon="-1.257105">
        <ele>908.0</ele>
        <time>2019-07-31T09:44:17.066Z</time>
      </trkpt>
      <trkpt lat="43.00926167" lon="-1.25709167">
        <ele>908.0</ele>
        <time>2019-07-31T09:44:18.069Z</time>
      </trkpt>
      <trkpt lat="43.009275" lon="-1.25707667">
        <ele>907.0</ele>
        <time>2019-07-31T09:44:19.075Z</time>
      </trkpt>
      <trkpt lat="43.00929167" lon="-1.25706333">
        <ele>907.0</ele>
        <time>2019-07-31T09:44:20.081Z</time>
      </trkpt>
      <trkpt lat="43.00930833" lon="-1.25705">
        <ele>907.0</ele>
        <time>2019-07-31T09:44:21.085Z</time>
      </trkpt>
      <trkpt lat="43.00932333" lon="-1.257035">
        <ele>907.0</ele>
        <time>2019-07-31T09:44:22.092Z</time>
      </trkpt>
      <trkpt lat="43.009335" lon="-1.257025">
        <ele>907.0</ele>
        <time>2019-07-31T09:44:23.096Z</time>
      </trkpt>
      <trkpt lat="43.00935167" lon="-1.25700833">
        <ele>907.0</ele>
        <time>2019-07-31T09:44:24.100Z</time>
      </trkpt>
      <trkpt lat="43.00936667" lon="-1.25699167">
        <ele>907.0</ele>
        <time>2019-07-31T09:44:25.105Z</time>
      </trkpt>
      <trkpt lat="43.00938167" lon="-1.25697833">
        <ele>907.0</ele>
        <time>2019-07-31T09:44:26.109Z</time>
      </trkpt>
      <trkpt lat="43.00939333" lon="-1.25696667">
        <ele>907.0</ele>
        <time>2019-07-31T09:44:27.114Z</time>
      </trkpt>
      <trkpt lat="43.009405" lon="-1.25694667">
        <ele>908.0</ele>
        <time>2019-07-31T09:44:28.120Z</time>
      </trkpt>
      <trkpt lat="43.009415" lon="-1.25692667">
        <ele>909.0</ele>
        <time>2019-07-31T09:44:29.124Z</time>
      </trkpt>
      <trkpt lat="43.009425" lon="-1.256915">
        <ele>909.0</ele>
        <time>2019-07-31T09:44:30.129Z</time>
      </trkpt>
      <trkpt lat="43.00943" lon="-1.25690333">
        <ele>909.0</ele>
        <time>2019-07-31T09:44:31.133Z</time>
      </trkpt>
      <trkpt lat="43.00944333" lon="-1.25688667">
        <ele>909.0</ele>
        <time>2019-07-31T09:44:32.137Z</time>
      </trkpt>
      <trkpt lat="43.00945167" lon="-1.25687333">
        <ele>909.0</ele>
        <time>2019-07-31T09:44:33.144Z</time>
      </trkpt>
      <trkpt lat="43.00945833" lon="-1.25685667">
        <ele>909.0</ele>
        <time>2019-07-31T09:44:34.149Z</time>
      </trkpt>
      <trkpt lat="43.00947167" lon="-1.25683333">
        <ele>909.0</ele>
        <time>2019-07-31T09:44:35.156Z</time>
      </trkpt>
      <trkpt lat="43.00948" lon="-1.25681">
        <ele>909.0</ele>
        <time>2019-07-31T09:44:36.162Z</time>
      </trkpt>
      <trkpt lat="43.00949167" lon="-1.25678">
        <ele>909.0</ele>
        <time>2019-07-31T09:44:37.166Z</time>
      </trkpt>
      <trkpt lat="43.00950333" lon="-1.25676">
        <ele>909.0</ele>
        <time>2019-07-31T09:44:38.173Z</time>
      </trkpt>
      <trkpt lat="43.009515" lon="-1.25674">
        <ele>908.0</ele>
        <time>2019-07-31T09:44:39.177Z</time>
      </trkpt>
      <trkpt lat="43.00952833" lon="-1.256715">
        <ele>908.0</ele>
        <time>2019-07-31T09:44:40.182Z</time>
      </trkpt>
      <trkpt lat="43.00954167" lon="-1.25669667">
        <ele>908.0</ele>
        <time>2019-07-31T09:44:41.063Z</time>
      </trkpt>
      <trkpt lat="43.009555" lon="-1.25667167">
        <ele>908.0</ele>
        <time>2019-07-31T09:44:42.070Z</time>
      </trkpt>
      <trkpt lat="43.00956333" lon="-1.25665833">
        <ele>908.0</ele>
        <time>2019-07-31T09:44:43.076Z</time>
      </trkpt>
      <trkpt lat="43.00957667" lon="-1.25663833">
        <ele>907.0</ele>
        <time>2019-07-31T09:44:44.082Z</time>
      </trkpt>
      <trkpt lat="43.00959" lon="-1.25661667">
        <ele>906.0</ele>
        <time>2019-07-31T09:44:45.086Z</time>
      </trkpt>
      <trkpt lat="43.00959833" lon="-1.2566">
        <ele>905.0</ele>
        <time>2019-07-31T09:44:46.092Z</time>
      </trkpt>
      <trkpt lat="43.009605" lon="-1.25658833">
        <ele>904.0</ele>
        <time>2019-07-31T09:44:47.097Z</time>
      </trkpt>
      <trkpt lat="43.00961167" lon="-1.25657">
        <ele>905.0</ele>
        <time>2019-07-31T09:44:48.102Z</time>
      </trkpt>
      <trkpt lat="43.00962" lon="-1.25655167">
        <ele>905.0</ele>
        <time>2019-07-31T09:44:49.109Z</time>
      </trkpt>
      <trkpt lat="43.009635" lon="-1.25653167">
        <ele>905.0</ele>
        <time>2019-07-31T09:44:50.114Z</time>
      </trkpt>
      <trkpt lat="43.00964667" lon="-1.25651167">
        <ele>905.0</ele>
        <time>2019-07-31T09:44:51.119Z</time>
      </trkpt>
      <trkpt lat="43.00966167" lon="-1.25649">
        <ele>905.0</ele>
        <time>2019-07-31T09:44:52.123Z</time>
      </trkpt>
      <trkpt lat="43.00967167" lon="-1.256475">
        <ele>904.0</ele>
        <time>2019-07-31T09:44:53.125Z</time>
      </trkpt>
      <trkpt lat="43.00968333" lon="-1.25646">
        <ele>903.0</ele>
        <time>2019-07-31T09:44:54.131Z</time>
      </trkpt>
      <trkpt lat="43.00969167" lon="-1.25644333">
        <ele>903.0</ele>
        <time>2019-07-31T09:44:55.137Z</time>
      </trkpt>
      <trkpt lat="43.00970333" lon="-1.25642">
        <ele>903.0</ele>
        <time>2019-07-31T09:44:56.142Z</time>
      </trkpt>
      <trkpt lat="43.00972167" lon="-1.256395">
        <ele>904.0</ele>
        <time>2019-07-31T09:44:57.145Z</time>
      </trkpt>
      <trkpt lat="43.00973333" lon="-1.25636833">
        <ele>904.0</ele>
        <time>2019-07-31T09:44:58.147Z</time>
      </trkpt>
      <trkpt lat="43.00974333" lon="-1.25634833">
        <ele>904.0</ele>
        <time>2019-07-31T09:44:59.152Z</time>
      </trkpt>
      <trkpt lat="43.00975833" lon="-1.25632667">
        <ele>904.0</ele>
        <time>2019-07-31T09:45:00.158Z</time>
      </trkpt>
      <trkpt lat="43.009775" lon="-1.25631">
        <ele>903.0</ele>
        <time>2019-07-31T09:45:01.162Z</time>
      </trkpt>
      <trkpt lat="43.00978333" lon="-1.256295">
        <ele>903.0</ele>
        <time>2019-07-31T09:45:02.166Z</time>
      </trkpt>
      <trkpt lat="43.00979333" lon="-1.25627333">
        <ele>903.0</ele>
        <time>2019-07-31T09:45:03.172Z</time>
      </trkpt>
      <trkpt lat="43.00979667" lon="-1.25626">
        <ele>903.0</ele>
        <time>2019-07-31T09:45:04.180Z</time>
      </trkpt>
      <trkpt lat="43.009805" lon="-1.25624833">
        <ele>903.0</ele>
        <time>2019-07-31T09:45:05.186Z</time>
      </trkpt>
      <trkpt lat="43.00980667" lon="-1.25624333">
        <ele>903.0</ele>
        <time>2019-07-31T09:45:06.067Z</time>
      </trkpt>
      <trkpt lat="43.00981333" lon="-1.25623167">
        <ele>903.0</ele>
        <time>2019-07-31T09:45:07.073Z</time>
      </trkpt>
      <trkpt lat="43.00982167" lon="-1.256215">
        <ele>904.0</ele>
        <time>2019-07-31T09:45:08.079Z</time>
      </trkpt>
      <trkpt lat="43.00982833" lon="-1.256205">
        <ele>904.0</ele>
        <time>2019-07-31T09:45:09.084Z</time>
      </trkpt>
      <trkpt lat="43.00983667" lon="-1.25620333">
        <ele>904.0</ele>
        <time>2019-07-31T09:45:10.090Z</time>
      </trkpt>
      <trkpt lat="43.00984333" lon="-1.25618667">
        <ele>905.0</ele>
        <time>2019-07-31T09:45:11.096Z</time>
      </trkpt>
      <trkpt lat="43.00985667" lon="-1.25616833">
        <ele>905.0</ele>
        <time>2019-07-31T09:45:12.099Z</time>
      </trkpt>
      <trkpt lat="43.00987" lon="-1.25614833">
        <ele>905.0</ele>
        <time>2019-07-31T09:45:13.102Z</time>
      </trkpt>
      <trkpt lat="43.00987833" lon="-1.25613167">
        <ele>905.0</ele>
        <time>2019-07-31T09:45:14.109Z</time>
      </trkpt>
      <trkpt lat="43.00988667" lon="-1.25611333">
        <ele>905.0</ele>
        <time>2019-07-31T09:45:15.115Z</time>
      </trkpt>
      <trkpt lat="43.00989333" lon="-1.25609833">
        <ele>905.0</ele>
        <time>2019-07-31T09:45:16.120Z</time>
      </trkpt>
      <trkpt lat="43.00990167" lon="-1.25608">
        <ele>906.0</ele>
        <time>2019-07-31T09:45:17.126Z</time>
      </trkpt>
      <trkpt lat="43.00990833" lon="-1.25605833">
        <ele>907.0</ele>
        <time>2019-07-31T09:45:18.131Z</time>
      </trkpt>
      <trkpt lat="43.00992" lon="-1.25603833">
        <ele>908.0</ele>
        <time>2019-07-31T09:45:19.136Z</time>
      </trkpt>
      <trkpt lat="43.009935" lon="-1.25601833">
        <ele>908.0</ele>
        <time>2019-07-31T09:45:20.142Z</time>
      </trkpt>
      <trkpt lat="43.00994833" lon="-1.25599833">
        <ele>909.0</ele>
        <time>2019-07-31T09:45:21.148Z</time>
      </trkpt>
      <trkpt lat="43.00996" lon="-1.25598">
        <ele>910.0</ele>
        <time>2019-07-31T09:45:22.153Z</time>
      </trkpt>
      <trkpt lat="43.00996833" lon="-1.25596167">
        <ele>910.0</ele>
        <time>2019-07-31T09:45:23.160Z</time>
      </trkpt>
      <trkpt lat="43.00997667" lon="-1.25593833">
        <ele>912.0</ele>
        <time>2019-07-31T09:45:24.165Z</time>
      </trkpt>
      <trkpt lat="43.00998667" lon="-1.25591667">
        <ele>912.0</ele>
        <time>2019-07-31T09:45:25.169Z</time>
      </trkpt>
      <trkpt lat="43.01" lon="-1.25589833">
        <ele>912.0</ele>
        <time>2019-07-31T09:45:26.174Z</time>
      </trkpt>
      <trkpt lat="43.01000833" lon="-1.25588">
        <ele>913.0</ele>
        <time>2019-07-31T09:45:27.181Z</time>
      </trkpt>
      <trkpt lat="43.01001667" lon="-1.25586333">
        <ele>913.0</ele>
        <time>2019-07-31T09:45:28.185Z</time>
      </trkpt>
      <trkpt lat="43.01002333" lon="-1.25584333">
        <ele>913.0</ele>
        <time>2019-07-31T09:45:29.065Z</time>
      </trkpt>
      <trkpt lat="43.01003333" lon="-1.255815">
        <ele>913.0</ele>
        <time>2019-07-31T09:45:30.071Z</time>
      </trkpt>
      <trkpt lat="43.01004" lon="-1.25579">
        <ele>912.0</ele>
        <time>2019-07-31T09:45:31.075Z</time>
      </trkpt>
      <trkpt lat="43.01004833" lon="-1.25576833">
        <ele>911.0</ele>
        <time>2019-07-31T09:45:32.080Z</time>
      </trkpt>
      <trkpt lat="43.01005667" lon="-1.25574833">
        <ele>910.0</ele>
        <time>2019-07-31T09:45:33.084Z</time>
      </trkpt>
      <trkpt lat="43.010065" lon="-1.255735">
        <ele>909.0</ele>
        <time>2019-07-31T09:45:34.090Z</time>
      </trkpt>
      <trkpt lat="43.01007" lon="-1.25572333">
        <ele>907.0</ele>
        <time>2019-07-31T09:45:35.095Z</time>
      </trkpt>
      <trkpt lat="43.01007833" lon="-1.25570667">
        <ele>907.0</ele>
        <time>2019-07-31T09:45:36.100Z</time>
      </trkpt>
      <trkpt lat="43.01009" lon="-1.25568167">
        <ele>907.0</ele>
        <time>2019-07-31T09:45:37.106Z</time>
      </trkpt>
      <trkpt lat="43.01009833" lon="-1.255665">
        <ele>908.0</ele>
        <time>2019-07-31T09:45:38.111Z</time>
      </trkpt>
      <trkpt lat="43.01010167" lon="-1.255645">
        <ele>909.0</ele>
        <time>2019-07-31T09:45:39.117Z</time>
      </trkpt>
      <trkpt lat="43.01011" lon="-1.25562667">
        <ele>909.0</ele>
        <time>2019-07-31T09:45:40.123Z</time>
      </trkpt>
      <trkpt lat="43.010115" lon="-1.25560833">
        <ele>910.0</ele>
        <time>2019-07-31T09:45:41.128Z</time>
      </trkpt>
      <trkpt lat="43.010125" lon="-1.25558667">
        <ele>909.0</ele>
        <time>2019-07-31T09:45:42.131Z</time>
      </trkpt>
      <trkpt lat="43.01013333" lon="-1.25556833">
        <ele>909.0</ele>
        <time>2019-07-31T09:45:43.138Z</time>
      </trkpt>
      <trkpt lat="43.010145" lon="-1.25554">
        <ele>908.0</ele>
        <time>2019-07-31T09:45:44.142Z</time>
      </trkpt>
      <trkpt lat="43.01015167" lon="-1.25552167">
        <ele>908.0</ele>
        <time>2019-07-31T09:45:45.148Z</time>
      </trkpt>
      <trkpt lat="43.01016333" lon="-1.255495">
        <ele>907.0</ele>
        <time>2019-07-31T09:45:46.151Z</time>
      </trkpt>
      <trkpt lat="43.01017333" lon="-1.25546667">
        <ele>907.0</ele>
        <time>2019-07-31T09:45:47.158Z</time>
      </trkpt>
      <trkpt lat="43.01018667" lon="-1.25544333">
        <ele>906.0</ele>
        <time>2019-07-31T09:45:48.166Z</time>
      </trkpt>
      <trkpt lat="43.01019333" lon="-1.25542333">
        <ele>906.0</ele>
        <time>2019-07-31T09:45:49.171Z</time>
      </trkpt>
      <trkpt lat="43.010205" lon="-1.25540333">
        <ele>905.0</ele>
        <time>2019-07-31T09:45:50.177Z</time>
      </trkpt>
      <trkpt lat="43.01021" lon="-1.25538333">
        <ele>905.0</ele>
        <time>2019-07-31T09:45:51.183Z</time>
      </trkpt>
      <trkpt lat="43.010215" lon="-1.25536667">
        <ele>904.0</ele>
        <time>2019-07-31T09:45:52.064Z</time>
      </trkpt>
      <trkpt lat="43.01022" lon="-1.25535">
        <ele>904.0</ele>
        <time>2019-07-31T09:45:53.070Z</time>
      </trkpt>
      <trkpt lat="43.01023" lon="-1.25532833">
        <ele>903.0</ele>
        <time>2019-07-31T09:45:54.075Z</time>
      </trkpt>
      <trkpt lat="43.010235" lon="-1.25530667">
        <ele>903.0</ele>
        <time>2019-07-31T09:45:55.079Z</time>
      </trkpt>
      <trkpt lat="43.01024167" lon="-1.25528333">
        <ele>902.0</ele>
        <time>2019-07-31T09:45:56.084Z</time>
      </trkpt>
      <trkpt lat="43.01024833" lon="-1.25526333">
        <ele>901.0</ele>
        <time>2019-07-31T09:45:57.090Z</time>
      </trkpt>
      <trkpt lat="43.010255" lon="-1.25524167">
        <ele>900.0</ele>
        <time>2019-07-31T09:45:58.094Z</time>
      </trkpt>
      <trkpt lat="43.01026333" lon="-1.25522">
        <ele>899.0</ele>
        <time>2019-07-31T09:45:59.100Z</time>
      </trkpt>
      <trkpt lat="43.010265" lon="-1.255195">
        <ele>899.0</ele>
        <time>2019-07-31T09:46:00.106Z</time>
      </trkpt>
      <trkpt lat="43.01027167" lon="-1.25517">
        <ele>899.0</ele>
        <time>2019-07-31T09:46:01.111Z</time>
      </trkpt>
      <trkpt lat="43.010275" lon="-1.25515167">
        <ele>899.0</ele>
        <time>2019-07-31T09:46:02.117Z</time>
      </trkpt>
      <trkpt lat="43.01028" lon="-1.25513333">
        <ele>900.0</ele>
        <time>2019-07-31T09:46:03.124Z</time>
      </trkpt>
      <trkpt lat="43.01028333" lon="-1.25511167">
        <ele>900.0</ele>
        <time>2019-07-31T09:46:04.128Z</time>
      </trkpt>
      <trkpt lat="43.010285" lon="-1.25508667">
        <ele>901.0</ele>
        <time>2019-07-31T09:46:05.133Z</time>
      </trkpt>
      <trkpt lat="43.01029" lon="-1.25506833">
        <ele>901.0</ele>
        <time>2019-07-31T09:46:06.139Z</time>
      </trkpt>
      <trkpt lat="43.01029667" lon="-1.25504">
        <ele>901.0</ele>
        <time>2019-07-31T09:46:07.143Z</time>
      </trkpt>
      <trkpt lat="43.01029333" lon="-1.25502333">
        <ele>901.0</ele>
        <time>2019-07-31T09:46:08.150Z</time>
      </trkpt>
      <trkpt lat="43.0103" lon="-1.25499833">
        <ele>900.0</ele>
        <time>2019-07-31T09:46:09.154Z</time>
      </trkpt>
      <trkpt lat="43.01029833" lon="-1.254975">
        <ele>899.0</ele>
        <time>2019-07-31T09:46:10.160Z</time>
      </trkpt>
      <trkpt lat="43.01029667" lon="-1.25495333">
        <ele>898.0</ele>
        <time>2019-07-31T09:46:11.166Z</time>
      </trkpt>
      <trkpt lat="43.01029333" lon="-1.25493667">
        <ele>899.0</ele>
        <time>2019-07-31T09:46:12.172Z</time>
      </trkpt>
      <trkpt lat="43.01028833" lon="-1.25492">
        <ele>899.0</ele>
        <time>2019-07-31T09:46:13.178Z</time>
      </trkpt>
      <trkpt lat="43.01028833" lon="-1.2549">
        <ele>899.0</ele>
        <time>2019-07-31T09:46:14.182Z</time>
      </trkpt>
      <trkpt lat="43.01028833" lon="-1.25487833">
        <ele>899.0</ele>
        <time>2019-07-31T09:46:15.062Z</time>
      </trkpt>
      <trkpt lat="43.01028833" lon="-1.25485833">
        <ele>898.0</ele>
        <time>2019-07-31T09:46:16.067Z</time>
      </trkpt>
      <trkpt lat="43.01028667" lon="-1.25483833">
        <ele>899.0</ele>
        <time>2019-07-31T09:46:17.074Z</time>
      </trkpt>
      <trkpt lat="43.010285" lon="-1.25481833">
        <ele>898.0</ele>
        <time>2019-07-31T09:46:18.081Z</time>
      </trkpt>
      <trkpt lat="43.01028167" lon="-1.25479667">
        <ele>898.0</ele>
        <time>2019-07-31T09:46:19.088Z</time>
      </trkpt>
      <trkpt lat="43.01028167" lon="-1.25477333">
        <ele>897.0</ele>
        <time>2019-07-31T09:46:20.093Z</time>
      </trkpt>
      <trkpt lat="43.01028" lon="-1.25474833">
        <ele>896.0</ele>
        <time>2019-07-31T09:46:21.099Z</time>
      </trkpt>
      <trkpt lat="43.01027667" lon="-1.25472">
        <ele>895.0</ele>
        <time>2019-07-31T09:46:22.104Z</time>
      </trkpt>
      <trkpt lat="43.01027167" lon="-1.254695">
        <ele>895.0</ele>
        <time>2019-07-31T09:46:23.110Z</time>
      </trkpt>
      <trkpt lat="43.01026833" lon="-1.25466833">
        <ele>895.0</ele>
        <time>2019-07-31T09:46:24.116Z</time>
      </trkpt>
      <trkpt lat="43.010265" lon="-1.25464833">
        <ele>894.0</ele>
        <time>2019-07-31T09:46:25.119Z</time>
      </trkpt>
      <trkpt lat="43.01026167" lon="-1.25462833">
        <ele>893.0</ele>
        <time>2019-07-31T09:46:26.124Z</time>
      </trkpt>
      <trkpt lat="43.010255" lon="-1.25460667">
        <ele>894.0</ele>
        <time>2019-07-31T09:46:27.130Z</time>
      </trkpt>
      <trkpt lat="43.01024833" lon="-1.25458167">
        <ele>893.0</ele>
        <time>2019-07-31T09:46:28.136Z</time>
      </trkpt>
      <trkpt lat="43.01024167" lon="-1.25456667">
        <ele>892.0</ele>
        <time>2019-07-31T09:46:29.142Z</time>
      </trkpt>
      <trkpt lat="43.010235" lon="-1.25454167">
        <ele>890.0</ele>
        <time>2019-07-31T09:46:30.147Z</time>
      </trkpt>
      <trkpt lat="43.01022833" lon="-1.254515">
        <ele>889.0</ele>
        <time>2019-07-31T09:46:31.148Z</time>
      </trkpt>
      <trkpt lat="43.010225" lon="-1.25449167">
        <ele>889.0</ele>
        <time>2019-07-31T09:46:32.153Z</time>
      </trkpt>
      <trkpt lat="43.01022" lon="-1.25447167">
        <ele>889.0</ele>
        <time>2019-07-31T09:46:33.159Z</time>
      </trkpt>
      <trkpt lat="43.01021667" lon="-1.254455">
        <ele>888.0</ele>
        <time>2019-07-31T09:46:34.165Z</time>
      </trkpt>
      <trkpt lat="43.01021333" lon="-1.25443167">
        <ele>888.0</ele>
        <time>2019-07-31T09:46:35.166Z</time>
      </trkpt>
      <trkpt lat="43.010215" lon="-1.25440167">
        <ele>888.0</ele>
        <time>2019-07-31T09:46:36.171Z</time>
      </trkpt>
      <trkpt lat="43.010215" lon="-1.25437667">
        <ele>889.0</ele>
        <time>2019-07-31T09:46:37.178Z</time>
      </trkpt>
      <trkpt lat="43.01021" lon="-1.254355">
        <ele>889.0</ele>
        <time>2019-07-31T09:46:38.183Z</time>
      </trkpt>
      <trkpt lat="43.01020667" lon="-1.254325">
        <ele>888.0</ele>
        <time>2019-07-31T09:46:39.063Z</time>
      </trkpt>
      <trkpt lat="43.01020333" lon="-1.25430667">
        <ele>888.0</ele>
        <time>2019-07-31T09:46:40.068Z</time>
      </trkpt>
      <trkpt lat="43.01019833" lon="-1.25428333">
        <ele>887.0</ele>
        <time>2019-07-31T09:46:41.072Z</time>
      </trkpt>
      <trkpt lat="43.01019833" lon="-1.25425833">
        <ele>887.0</ele>
        <time>2019-07-31T09:46:42.080Z</time>
      </trkpt>
      <trkpt lat="43.010195" lon="-1.254235">
        <ele>887.0</ele>
        <time>2019-07-31T09:46:43.084Z</time>
      </trkpt>
      <trkpt lat="43.01019833" lon="-1.25421333">
        <ele>888.0</ele>
        <time>2019-07-31T09:46:44.090Z</time>
      </trkpt>
      <trkpt lat="43.0102" lon="-1.25419">
        <ele>888.0</ele>
        <time>2019-07-31T09:46:45.095Z</time>
      </trkpt>
      <trkpt lat="43.01020333" lon="-1.25416667">
        <ele>887.0</ele>
        <time>2019-07-31T09:46:46.100Z</time>
      </trkpt>
      <trkpt lat="43.01020833" lon="-1.25414333">
        <ele>887.0</ele>
        <time>2019-07-31T09:46:47.105Z</time>
      </trkpt>
      <trkpt lat="43.01021" lon="-1.25412">
        <ele>887.0</ele>
        <time>2019-07-31T09:46:48.111Z</time>
      </trkpt>
      <trkpt lat="43.010215" lon="-1.2541">
        <ele>887.0</ele>
        <time>2019-07-31T09:46:49.117Z</time>
      </trkpt>
      <trkpt lat="43.01022" lon="-1.25408">
        <ele>887.0</ele>
        <time>2019-07-31T09:46:50.122Z</time>
      </trkpt>
      <trkpt lat="43.01022333" lon="-1.25405667">
        <ele>886.0</ele>
        <time>2019-07-31T09:46:51.126Z</time>
      </trkpt>
      <trkpt lat="43.01023" lon="-1.25403833">
        <ele>885.0</ele>
        <time>2019-07-31T09:46:52.132Z</time>
      </trkpt>
      <trkpt lat="43.010235" lon="-1.25402167">
        <ele>885.0</ele>
        <time>2019-07-31T09:46:53.137Z</time>
      </trkpt>
      <trkpt lat="43.01024167" lon="-1.25400333">
        <ele>885.0</ele>
        <time>2019-07-31T09:46:54.140Z</time>
      </trkpt>
      <trkpt lat="43.01024833" lon="-1.25398333">
        <ele>884.0</ele>
        <time>2019-07-31T09:46:55.145Z</time>
      </trkpt>
      <trkpt lat="43.01025667" lon="-1.25396167">
        <ele>884.0</ele>
        <time>2019-07-31T09:46:56.149Z</time>
      </trkpt>
      <trkpt lat="43.01026667" lon="-1.25394167">
        <ele>883.0</ele>
        <time>2019-07-31T09:46:57.153Z</time>
      </trkpt>
      <trkpt lat="43.010275" lon="-1.25391833">
        <ele>884.0</ele>
        <time>2019-07-31T09:46:58.159Z</time>
      </trkpt>
      <trkpt lat="43.01028167" lon="-1.25390167">
        <ele>884.0</ele>
        <time>2019-07-31T09:46:59.164Z</time>
      </trkpt>
      <trkpt lat="43.01029" lon="-1.25388167">
        <ele>884.0</ele>
        <time>2019-07-31T09:47:00.168Z</time>
      </trkpt>
      <trkpt lat="43.01029667" lon="-1.25386333">
        <ele>884.0</ele>
        <time>2019-07-31T09:47:01.174Z</time>
      </trkpt>
      <trkpt lat="43.010305" lon="-1.25384">
        <ele>884.0</ele>
        <time>2019-07-31T09:47:02.179Z</time>
      </trkpt>
      <trkpt lat="43.01031333" lon="-1.25382333">
        <ele>884.0</ele>
        <time>2019-07-31T09:47:03.184Z</time>
      </trkpt>
      <trkpt lat="43.01032167" lon="-1.25380333">
        <ele>883.0</ele>
        <time>2019-07-31T09:47:04.063Z</time>
      </trkpt>
      <trkpt lat="43.01033333" lon="-1.25378167">
        <ele>883.0</ele>
        <time>2019-07-31T09:47:05.068Z</time>
      </trkpt>
      <trkpt lat="43.01034333" lon="-1.25376">
        <ele>884.0</ele>
        <time>2019-07-31T09:47:06.074Z</time>
      </trkpt>
      <trkpt lat="43.01035167" lon="-1.25374167">
        <ele>884.0</ele>
        <time>2019-07-31T09:47:07.078Z</time>
      </trkpt>
      <trkpt lat="43.01036167" lon="-1.25372">
        <ele>885.0</ele>
        <time>2019-07-31T09:47:08.083Z</time>
      </trkpt>
      <trkpt lat="43.01037" lon="-1.2537">
        <ele>884.0</ele>
        <time>2019-07-31T09:47:09.088Z</time>
      </trkpt>
      <trkpt lat="43.01037833" lon="-1.25368">
        <ele>884.0</ele>
        <time>2019-07-31T09:47:10.093Z</time>
      </trkpt>
      <trkpt lat="43.010385" lon="-1.25365833">
        <ele>885.0</ele>
        <time>2019-07-31T09:47:11.097Z</time>
      </trkpt>
      <trkpt lat="43.01039333" lon="-1.25363833">
        <ele>884.0</ele>
        <time>2019-07-31T09:47:12.101Z</time>
      </trkpt>
      <trkpt lat="43.01040333" lon="-1.25361667">
        <ele>884.0</ele>
        <time>2019-07-31T09:47:13.107Z</time>
      </trkpt>
      <trkpt lat="43.010415" lon="-1.25359667">
        <ele>884.0</ele>
        <time>2019-07-31T09:47:14.113Z</time>
      </trkpt>
      <trkpt lat="43.01042833" lon="-1.25357667">
        <ele>884.0</ele>
        <time>2019-07-31T09:47:15.119Z</time>
      </trkpt>
      <trkpt lat="43.01043833" lon="-1.25355667">
        <ele>885.0</ele>
        <time>2019-07-31T09:47:16.124Z</time>
      </trkpt>
      <trkpt lat="43.010445" lon="-1.25353667">
        <ele>885.0</ele>
        <time>2019-07-31T09:47:17.127Z</time>
      </trkpt>
      <trkpt lat="43.010455" lon="-1.253515">
        <ele>885.0</ele>
        <time>2019-07-31T09:47:18.131Z</time>
      </trkpt>
      <trkpt lat="43.01045833" lon="-1.25349167">
        <ele>886.0</ele>
        <time>2019-07-31T09:47:19.136Z</time>
      </trkpt>
      <trkpt lat="43.010465" lon="-1.25346833">
        <ele>886.0</ele>
        <time>2019-07-31T09:47:20.142Z</time>
      </trkpt>
      <trkpt lat="43.01047167" lon="-1.25344667">
        <ele>886.0</ele>
        <time>2019-07-31T09:47:21.146Z</time>
      </trkpt>
      <trkpt lat="43.01047667" lon="-1.25342167">
        <ele>886.0</ele>
        <time>2019-07-31T09:47:22.153Z</time>
      </trkpt>
      <trkpt lat="43.01048667" lon="-1.25340333">
        <ele>886.0</ele>
        <time>2019-07-31T09:47:23.160Z</time>
      </trkpt>
      <trkpt lat="43.01049333" lon="-1.25338833">
        <ele>886.0</ele>
        <time>2019-07-31T09:47:24.166Z</time>
      </trkpt>
      <trkpt lat="43.01050833" lon="-1.25336667">
        <ele>887.0</ele>
        <time>2019-07-31T09:47:25.171Z</time>
      </trkpt>
      <trkpt lat="43.01051833" lon="-1.25334667">
        <ele>887.0</ele>
        <time>2019-07-31T09:47:26.177Z</time>
      </trkpt>
      <trkpt lat="43.01053" lon="-1.25332333">
        <ele>888.0</ele>
        <time>2019-07-31T09:47:27.181Z</time>
      </trkpt>
      <trkpt lat="43.01053333" lon="-1.25330833">
        <ele>888.0</ele>
        <time>2019-07-31T09:47:28.062Z</time>
      </trkpt>
      <trkpt lat="43.01054" lon="-1.25328833">
        <ele>887.0</ele>
        <time>2019-07-31T09:47:29.068Z</time>
      </trkpt>
      <trkpt lat="43.01054667" lon="-1.25326333">
        <ele>886.0</ele>
        <time>2019-07-31T09:47:30.074Z</time>
      </trkpt>
      <trkpt lat="43.010555" lon="-1.25323333">
        <ele>886.0</ele>
        <time>2019-07-31T09:47:31.081Z</time>
      </trkpt>
      <trkpt lat="43.010555" lon="-1.25321333">
        <ele>886.0</ele>
        <time>2019-07-31T09:47:32.087Z</time>
      </trkpt>
      <trkpt lat="43.01056" lon="-1.253185">
        <ele>887.0</ele>
        <time>2019-07-31T09:47:33.094Z</time>
      </trkpt>
      <trkpt lat="43.01056333" lon="-1.25316333">
        <ele>888.0</ele>
        <time>2019-07-31T09:47:34.100Z</time>
      </trkpt>
      <trkpt lat="43.01056833" lon="-1.25314">
        <ele>888.0</ele>
        <time>2019-07-31T09:47:35.107Z</time>
      </trkpt>
      <trkpt lat="43.010575" lon="-1.25310833">
        <ele>889.0</ele>
        <time>2019-07-31T09:47:36.112Z</time>
      </trkpt>
      <trkpt lat="43.01057833" lon="-1.25308333">
        <ele>890.0</ele>
        <time>2019-07-31T09:47:37.117Z</time>
      </trkpt>
      <trkpt lat="43.01058167" lon="-1.25306">
        <ele>890.0</ele>
        <time>2019-07-31T09:47:38.122Z</time>
      </trkpt>
      <trkpt lat="43.010585" lon="-1.25303167">
        <ele>891.0</ele>
        <time>2019-07-31T09:47:39.127Z</time>
      </trkpt>
      <trkpt lat="43.01059" lon="-1.25300833">
        <ele>892.0</ele>
        <time>2019-07-31T09:47:40.132Z</time>
      </trkpt>
      <trkpt lat="43.010595" lon="-1.25299">
        <ele>893.0</ele>
        <time>2019-07-31T09:47:41.138Z</time>
      </trkpt>
      <trkpt lat="43.01059667" lon="-1.25296667">
        <ele>892.0</ele>
        <time>2019-07-31T09:47:42.142Z</time>
      </trkpt>
      <trkpt lat="43.01059667" lon="-1.25294">
        <ele>893.0</ele>
        <time>2019-07-31T09:47:43.148Z</time>
      </trkpt>
      <trkpt lat="43.01059667" lon="-1.25292">
        <ele>892.0</ele>
        <time>2019-07-31T09:47:44.154Z</time>
      </trkpt>
      <trkpt lat="43.01059" lon="-1.2529">
        <ele>893.0</ele>
        <time>2019-07-31T09:47:45.159Z</time>
      </trkpt>
      <trkpt lat="43.01059" lon="-1.25288167">
        <ele>893.0</ele>
        <time>2019-07-31T09:47:46.166Z</time>
      </trkpt>
      <trkpt lat="43.01059" lon="-1.25286167">
        <ele>894.0</ele>
        <time>2019-07-31T09:47:47.172Z</time>
      </trkpt>
      <trkpt lat="43.01059" lon="-1.25284167">
        <ele>894.0</ele>
        <time>2019-07-31T09:47:48.175Z</time>
      </trkpt>
      <trkpt lat="43.01058667" lon="-1.25282">
        <ele>894.0</ele>
        <time>2019-07-31T09:47:49.180Z</time>
      </trkpt>
      <trkpt lat="43.01058333" lon="-1.25279833">
        <ele>893.0</ele>
        <time>2019-07-31T09:47:50.061Z</time>
      </trkpt>
      <trkpt lat="43.01058333" lon="-1.252775">
        <ele>893.0</ele>
        <time>2019-07-31T09:47:51.066Z</time>
      </trkpt>
      <trkpt lat="43.01058167" lon="-1.25275167">
        <ele>893.0</ele>
        <time>2019-07-31T09:47:52.073Z</time>
      </trkpt>
      <trkpt lat="43.01058167" lon="-1.25272833">
        <ele>893.0</ele>
        <time>2019-07-31T09:47:53.081Z</time>
      </trkpt>
      <trkpt lat="43.01057667" lon="-1.25270833">
        <ele>894.0</ele>
        <time>2019-07-31T09:47:54.085Z</time>
      </trkpt>
      <trkpt lat="43.01057" lon="-1.25268667">
        <ele>894.0</ele>
        <time>2019-07-31T09:47:55.089Z</time>
      </trkpt>
      <trkpt lat="43.01056167" lon="-1.25266667">
        <ele>894.0</ele>
        <time>2019-07-31T09:47:56.095Z</time>
      </trkpt>
      <trkpt lat="43.01055833" lon="-1.252645">
        <ele>894.0</ele>
        <time>2019-07-31T09:47:57.099Z</time>
      </trkpt>
      <trkpt lat="43.01055333" lon="-1.25262167">
        <ele>894.0</ele>
        <time>2019-07-31T09:47:58.105Z</time>
      </trkpt>
      <trkpt lat="43.010545" lon="-1.25259833">
        <ele>894.0</ele>
        <time>2019-07-31T09:47:59.111Z</time>
      </trkpt>
      <trkpt lat="43.01054167" lon="-1.25257667">
        <ele>893.0</ele>
        <time>2019-07-31T09:48:00.116Z</time>
      </trkpt>
      <trkpt lat="43.01053667" lon="-1.252555">
        <ele>893.0</ele>
        <time>2019-07-31T09:48:01.121Z</time>
      </trkpt>
      <trkpt lat="43.01053" lon="-1.25253667">
        <ele>892.0</ele>
        <time>2019-07-31T09:48:02.129Z</time>
      </trkpt>
      <trkpt lat="43.010525" lon="-1.25251833">
        <ele>892.0</ele>
        <time>2019-07-31T09:48:03.134Z</time>
      </trkpt>
      <trkpt lat="43.01052" lon="-1.25249833">
        <ele>892.0</ele>
        <time>2019-07-31T09:48:04.139Z</time>
      </trkpt>
      <trkpt lat="43.01051333" lon="-1.25247833">
        <ele>892.0</ele>
        <time>2019-07-31T09:48:05.145Z</time>
      </trkpt>
      <trkpt lat="43.010505" lon="-1.25245667">
        <ele>892.0</ele>
        <time>2019-07-31T09:48:06.151Z</time>
      </trkpt>
      <trkpt lat="43.01049833" lon="-1.252435">
        <ele>892.0</ele>
        <time>2019-07-31T09:48:07.157Z</time>
      </trkpt>
      <trkpt lat="43.01049167" lon="-1.25241833">
        <ele>893.0</ele>
        <time>2019-07-31T09:48:08.161Z</time>
      </trkpt>
      <trkpt lat="43.01048" lon="-1.25239667">
        <ele>892.0</ele>
        <time>2019-07-31T09:48:09.166Z</time>
      </trkpt>
      <trkpt lat="43.01047333" lon="-1.25237667">
        <ele>893.0</ele>
        <time>2019-07-31T09:48:10.170Z</time>
      </trkpt>
      <trkpt lat="43.01046333" lon="-1.252355">
        <ele>893.0</ele>
        <time>2019-07-31T09:48:11.175Z</time>
      </trkpt>
      <trkpt lat="43.010455" lon="-1.25233167">
        <ele>893.0</ele>
        <time>2019-07-31T09:48:12.180Z</time>
      </trkpt>
      <trkpt lat="43.01044167" lon="-1.25230833">
        <ele>893.0</ele>
        <time>2019-07-31T09:48:13.186Z</time>
      </trkpt>
      <trkpt lat="43.010435" lon="-1.25229">
        <ele>892.0</ele>
        <time>2019-07-31T09:48:14.068Z</time>
      </trkpt>
      <trkpt lat="43.01042667" lon="-1.25227167">
        <ele>892.0</ele>
        <time>2019-07-31T09:48:15.074Z</time>
      </trkpt>
      <trkpt lat="43.01042" lon="-1.25225333">
        <ele>891.0</ele>
        <time>2019-07-31T09:48:16.079Z</time>
      </trkpt>
      <trkpt lat="43.01041" lon="-1.25223833">
        <ele>891.0</ele>
        <time>2019-07-31T09:48:17.085Z</time>
      </trkpt>
      <trkpt lat="43.01040333" lon="-1.25222">
        <ele>891.0</ele>
        <time>2019-07-31T09:48:18.090Z</time>
      </trkpt>
      <trkpt lat="43.01039667" lon="-1.25219833">
        <ele>891.0</ele>
        <time>2019-07-31T09:48:19.097Z</time>
      </trkpt>
      <trkpt lat="43.01039" lon="-1.25217833">
        <ele>890.0</ele>
        <time>2019-07-31T09:48:20.102Z</time>
      </trkpt>
      <trkpt lat="43.01038333" lon="-1.25216">
        <ele>890.0</ele>
        <time>2019-07-31T09:48:21.108Z</time>
      </trkpt>
      <trkpt lat="43.01037833" lon="-1.25214">
        <ele>890.0</ele>
        <time>2019-07-31T09:48:22.113Z</time>
      </trkpt>
      <trkpt lat="43.01037333" lon="-1.25211833">
        <ele>891.0</ele>
        <time>2019-07-31T09:48:23.118Z</time>
      </trkpt>
      <trkpt lat="43.010365" lon="-1.252095">
        <ele>891.0</ele>
        <time>2019-07-31T09:48:24.124Z</time>
      </trkpt>
      <trkpt lat="43.010355" lon="-1.25207167">
        <ele>891.0</ele>
        <time>2019-07-31T09:48:25.130Z</time>
      </trkpt>
      <trkpt lat="43.01034833" lon="-1.25205333">
        <ele>891.0</ele>
        <time>2019-07-31T09:48:26.135Z</time>
      </trkpt>
      <trkpt lat="43.010345" lon="-1.25203167">
        <ele>890.0</ele>
        <time>2019-07-31T09:48:27.142Z</time>
      </trkpt>
      <trkpt lat="43.01033833" lon="-1.25201333">
        <ele>891.0</ele>
        <time>2019-07-31T09:48:28.144Z</time>
      </trkpt>
      <trkpt lat="43.01033667" lon="-1.25199333">
        <ele>891.0</ele>
        <time>2019-07-31T09:48:29.150Z</time>
      </trkpt>
      <trkpt lat="43.01033167" lon="-1.25197333">
        <ele>890.0</ele>
        <time>2019-07-31T09:48:30.157Z</time>
      </trkpt>
      <trkpt lat="43.01033333" lon="-1.25195">
        <ele>890.0</ele>
        <time>2019-07-31T09:48:31.160Z</time>
      </trkpt>
      <trkpt lat="43.01033333" lon="-1.25192667">
        <ele>890.0</ele>
        <time>2019-07-31T09:48:32.166Z</time>
      </trkpt>
      <trkpt lat="43.01033833" lon="-1.25191167">
        <ele>890.0</ele>
        <time>2019-07-31T09:48:33.172Z</time>
      </trkpt>
      <trkpt lat="43.01034" lon="-1.25189667">
        <ele>890.0</ele>
        <time>2019-07-31T09:48:34.176Z</time>
      </trkpt>
      <trkpt lat="43.01034333" lon="-1.25188">
        <ele>890.0</ele>
        <time>2019-07-31T09:48:35.181Z</time>
      </trkpt>
      <trkpt lat="43.01035" lon="-1.25185833">
        <ele>889.0</ele>
        <time>2019-07-31T09:48:36.062Z</time>
      </trkpt>
      <trkpt lat="43.01035833" lon="-1.25184167">
        <ele>889.0</ele>
        <time>2019-07-31T09:48:37.068Z</time>
      </trkpt>
      <trkpt lat="43.01036833" lon="-1.25181667">
        <ele>889.0</ele>
        <time>2019-07-31T09:48:38.074Z</time>
      </trkpt>
      <trkpt lat="43.01038" lon="-1.25179667">
        <ele>889.0</ele>
        <time>2019-07-31T09:48:39.080Z</time>
      </trkpt>
      <trkpt lat="43.01038333" lon="-1.25177333">
        <ele>889.0</ele>
        <time>2019-07-31T09:48:40.083Z</time>
      </trkpt>
      <trkpt lat="43.010385" lon="-1.251755">
        <ele>888.0</ele>
        <time>2019-07-31T09:48:41.087Z</time>
      </trkpt>
      <trkpt lat="43.01039" lon="-1.25173167">
        <ele>888.0</ele>
        <time>2019-07-31T09:48:42.091Z</time>
      </trkpt>
      <trkpt lat="43.010395" lon="-1.25171333">
        <ele>887.0</ele>
        <time>2019-07-31T09:48:43.094Z</time>
      </trkpt>
      <trkpt lat="43.01040667" lon="-1.251695">
        <ele>888.0</ele>
        <time>2019-07-31T09:48:44.099Z</time>
      </trkpt>
      <trkpt lat="43.010415" lon="-1.25168">
        <ele>888.0</ele>
        <time>2019-07-31T09:48:45.105Z</time>
      </trkpt>
      <trkpt lat="43.01042167" lon="-1.25167">
        <ele>888.0</ele>
        <time>2019-07-31T09:48:46.112Z</time>
      </trkpt>
      <trkpt lat="43.01043167" lon="-1.25165667">
        <ele>887.0</ele>
        <time>2019-07-31T09:48:47.118Z</time>
      </trkpt>
      <trkpt lat="43.01044333" lon="-1.25164">
        <ele>888.0</ele>
        <time>2019-07-31T09:48:48.124Z</time>
      </trkpt>
      <trkpt lat="43.01045333" lon="-1.251625">
        <ele>887.0</ele>
        <time>2019-07-31T09:48:49.130Z</time>
      </trkpt>
      <trkpt lat="43.01046333" lon="-1.25160833">
        <ele>887.0</ele>
        <time>2019-07-31T09:48:50.136Z</time>
      </trkpt>
      <trkpt lat="43.01048" lon="-1.25158833">
        <ele>887.0</ele>
        <time>2019-07-31T09:48:51.142Z</time>
      </trkpt>
      <trkpt lat="43.01048667" lon="-1.25157167">
        <ele>888.0</ele>
        <time>2019-07-31T09:48:52.148Z</time>
      </trkpt>
      <trkpt lat="43.010495" lon="-1.25155667">
        <ele>887.0</ele>
        <time>2019-07-31T09:48:53.154Z</time>
      </trkpt>
      <trkpt lat="43.01050333" lon="-1.25154167">
        <ele>887.0</ele>
        <time>2019-07-31T09:48:54.160Z</time>
      </trkpt>
      <trkpt lat="43.01051667" lon="-1.251525">
        <ele>887.0</ele>
        <time>2019-07-31T09:48:55.166Z</time>
      </trkpt>
      <trkpt lat="43.01052833" lon="-1.25151">
        <ele>888.0</ele>
        <time>2019-07-31T09:48:56.170Z</time>
      </trkpt>
      <trkpt lat="43.01054167" lon="-1.2515">
        <ele>887.0</ele>
        <time>2019-07-31T09:48:57.173Z</time>
      </trkpt>
      <trkpt lat="43.01054833" lon="-1.25149">
        <ele>888.0</ele>
        <time>2019-07-31T09:48:58.180Z</time>
      </trkpt>
      <trkpt lat="43.01056167" lon="-1.251475">
        <ele>888.0</ele>
        <time>2019-07-31T09:48:59.185Z</time>
      </trkpt>
      <trkpt lat="43.01057667" lon="-1.25146333">
        <ele>888.0</ele>
        <time>2019-07-31T09:49:00.064Z</time>
      </trkpt>
      <trkpt lat="43.01058833" lon="-1.25145333">
        <ele>889.0</ele>
        <time>2019-07-31T09:49:01.069Z</time>
      </trkpt>
      <trkpt lat="43.01059667" lon="-1.251445">
        <ele>889.0</ele>
        <time>2019-07-31T09:49:02.073Z</time>
      </trkpt>
      <trkpt lat="43.01061" lon="-1.25143833">
        <ele>890.0</ele>
        <time>2019-07-31T09:49:03.079Z</time>
      </trkpt>
      <trkpt lat="43.01062333" lon="-1.25143">
        <ele>891.0</ele>
        <time>2019-07-31T09:49:04.083Z</time>
      </trkpt>
      <trkpt lat="43.01062833" lon="-1.25142167">
        <ele>892.0</ele>
        <time>2019-07-31T09:49:05.087Z</time>
      </trkpt>
      <trkpt lat="43.01062667" lon="-1.25141167">
        <ele>892.0</ele>
        <time>2019-07-31T09:49:06.094Z</time>
      </trkpt>
      <trkpt lat="43.01062667" lon="-1.25140333">
        <ele>892.0</ele>
        <time>2019-07-31T09:49:07.098Z</time>
      </trkpt>
      <trkpt lat="43.010625" lon="-1.25139833">
        <ele>892.0</ele>
        <time>2019-07-31T09:49:08.101Z</time>
      </trkpt>
      <trkpt lat="43.01062" lon="-1.251395">
        <ele>891.0</ele>
        <time>2019-07-31T09:49:09.106Z</time>
      </trkpt>
      <trkpt lat="43.01062167" lon="-1.25139333">
        <ele>890.0</ele>
        <time>2019-07-31T09:49:10.110Z</time>
      </trkpt>
      <trkpt lat="43.01061833" lon="-1.25139">
        <ele>890.0</ele>
        <time>2019-07-31T09:49:11.113Z</time>
      </trkpt>
      <trkpt lat="43.01062" lon="-1.251385">
        <ele>890.0</ele>
        <time>2019-07-31T09:49:12.117Z</time>
      </trkpt>
      <trkpt lat="43.01061833" lon="-1.25138">
        <ele>890.0</ele>
        <time>2019-07-31T09:49:13.120Z</time>
      </trkpt>
      <trkpt lat="43.01061667" lon="-1.25137833">
        <ele>890.0</ele>
        <time>2019-07-31T09:49:14.122Z</time>
      </trkpt>
      <trkpt lat="43.01061833" lon="-1.25137333">
        <ele>890.0</ele>
        <time>2019-07-31T09:49:15.126Z</time>
      </trkpt>
      <trkpt lat="43.01061667" lon="-1.25136833">
        <ele>890.0</ele>
        <time>2019-07-31T09:49:16.132Z</time>
      </trkpt>
      <trkpt lat="43.010615" lon="-1.251365">
        <ele>890.0</ele>
        <time>2019-07-31T09:49:17.138Z</time>
      </trkpt>
      <trkpt lat="43.01061333" lon="-1.25135833">
        <ele>890.0</ele>
        <time>2019-07-31T09:49:18.146Z</time>
      </trkpt>
      <trkpt lat="43.010615" lon="-1.25135667">
        <ele>890.0</ele>
        <time>2019-07-31T09:49:19.153Z</time>
      </trkpt>
      <trkpt lat="43.01061667" lon="-1.25135667">
        <ele>890.0</ele>
        <time>2019-07-31T09:49:20.160Z</time>
      </trkpt>
      <trkpt lat="43.01061833" lon="-1.25134833">
        <ele>890.0</ele>
        <time>2019-07-31T09:49:21.166Z</time>
      </trkpt>
      <trkpt lat="43.01061833" lon="-1.25134">
        <ele>889.0</ele>
        <time>2019-07-31T09:49:22.171Z</time>
      </trkpt>
      <trkpt lat="43.01062" lon="-1.25132667">
        <ele>889.0</ele>
        <time>2019-07-31T09:49:23.177Z</time>
      </trkpt>
      <trkpt lat="43.010625" lon="-1.25131333">
        <ele>889.0</ele>
        <time>2019-07-31T09:49:24.181Z</time>
      </trkpt>
      <trkpt lat="43.010625" lon="-1.25130833">
        <ele>889.0</ele>
        <time>2019-07-31T09:49:25.062Z</time>
      </trkpt>
      <trkpt lat="43.01063" lon="-1.25129833">
        <ele>889.0</ele>
        <time>2019-07-31T09:49:26.067Z</time>
      </trkpt>
      <trkpt lat="43.01063" lon="-1.25129667">
        <ele>890.0</ele>
        <time>2019-07-31T09:49:27.073Z</time>
      </trkpt>
      <trkpt lat="43.01062833" lon="-1.25129833">
        <ele>889.0</ele>
        <time>2019-07-31T09:49:28.078Z</time>
      </trkpt>
      <trkpt lat="43.01063" lon="-1.25129167">
        <ele>888.0</ele>
        <time>2019-07-31T09:49:29.083Z</time>
      </trkpt>
      <trkpt lat="43.010635" lon="-1.25128">
        <ele>888.0</ele>
        <time>2019-07-31T09:49:30.089Z</time>
      </trkpt>
      <trkpt lat="43.01063167" lon="-1.251275">
        <ele>888.0</ele>
        <time>2019-07-31T09:49:31.093Z</time>
      </trkpt>
      <trkpt lat="43.01062667" lon="-1.251265">
        <ele>889.0</ele>
        <time>2019-07-31T09:49:32.098Z</time>
      </trkpt>
      <trkpt lat="43.010625" lon="-1.251255">
        <ele>889.0</ele>
        <time>2019-07-31T09:49:33.102Z</time>
      </trkpt>
      <trkpt lat="43.010625" lon="-1.251255">
        <ele>889.0</ele>
        <time>2019-07-31T09:49:34.106Z</time>
      </trkpt>
      <trkpt lat="43.010625" lon="-1.25125333">
        <ele>890.0</ele>
        <time>2019-07-31T09:49:35.110Z</time>
      </trkpt>
      <trkpt lat="43.01062333" lon="-1.25124833">
        <ele>890.0</ele>
        <time>2019-07-31T09:49:36.114Z</time>
      </trkpt>
      <trkpt lat="43.01062167" lon="-1.25124667">
        <ele>892.0</ele>
        <time>2019-07-31T09:49:37.118Z</time>
      </trkpt>
      <trkpt lat="43.01061667" lon="-1.25124">
        <ele>894.0</ele>
        <time>2019-07-31T09:49:38.124Z</time>
      </trkpt>
      <trkpt lat="43.01061167" lon="-1.25123667">
        <ele>897.0</ele>
        <time>2019-07-31T09:49:39.129Z</time>
      </trkpt>
      <trkpt lat="43.01060833" lon="-1.25123833">
        <ele>897.0</ele>
        <time>2019-07-31T09:49:40.135Z</time>
      </trkpt>
      <trkpt lat="43.010605" lon="-1.25124333">
        <ele>897.0</ele>
        <time>2019-07-31T09:49:41.141Z</time>
      </trkpt>
      <trkpt lat="43.010605" lon="-1.25124333">
        <ele>897.0</ele>
        <time>2019-07-31T09:49:42.147Z</time>
      </trkpt>
      <trkpt lat="43.01060833" lon="-1.25123833">
        <ele>897.0</ele>
        <time>2019-07-31T09:49:43.155Z</time>
      </trkpt>
      <trkpt lat="43.010605" lon="-1.25123167">
        <ele>897.0</ele>
        <time>2019-07-31T09:49:44.160Z</time>
      </trkpt>
      <trkpt lat="43.01060333" lon="-1.251225">
        <ele>897.0</ele>
        <time>2019-07-31T09:49:45.166Z</time>
      </trkpt>
      <trkpt lat="43.0106" lon="-1.25122333">
        <ele>897.0</ele>
        <time>2019-07-31T09:49:46.172Z</time>
      </trkpt>
      <trkpt lat="43.01059167" lon="-1.251225">
        <ele>897.0</ele>
        <time>2019-07-31T09:49:47.178Z</time>
      </trkpt>
      <trkpt lat="43.01058333" lon="-1.25122833">
        <ele>896.0</ele>
        <time>2019-07-31T09:49:48.183Z</time>
      </trkpt>
      <trkpt lat="43.01058333" lon="-1.25123">
        <ele>895.0</ele>
        <time>2019-07-31T09:49:49.064Z</time>
      </trkpt>
      <trkpt lat="43.01058" lon="-1.25123">
        <ele>895.0</ele>
        <time>2019-07-31T09:49:50.071Z</time>
      </trkpt>
      <trkpt lat="43.01057333" lon="-1.25122833">
        <ele>894.0</ele>
        <time>2019-07-31T09:49:51.078Z</time>
      </trkpt>
      <trkpt lat="43.01056833" lon="-1.25123333">
        <ele>892.0</ele>
        <time>2019-07-31T09:49:52.086Z</time>
      </trkpt>
      <trkpt lat="43.01056667" lon="-1.25124">
        <ele>891.0</ele>
        <time>2019-07-31T09:49:53.092Z</time>
      </trkpt>
      <trkpt lat="43.01056833" lon="-1.25124667">
        <ele>890.0</ele>
        <time>2019-07-31T09:49:54.098Z</time>
      </trkpt>
      <trkpt lat="43.01056667" lon="-1.251255">
        <ele>889.0</ele>
        <time>2019-07-31T09:49:55.102Z</time>
      </trkpt>
      <trkpt lat="43.01057" lon="-1.25125667">
        <ele>888.0</ele>
        <time>2019-07-31T09:49:56.106Z</time>
      </trkpt>
      <trkpt lat="43.01057167" lon="-1.25125833">
        <ele>888.0</ele>
        <time>2019-07-31T09:49:57.111Z</time>
      </trkpt>
      <trkpt lat="43.010575" lon="-1.25125833">
        <ele>889.0</ele>
        <time>2019-07-31T09:49:58.112Z</time>
      </trkpt>
      <trkpt lat="43.01057" lon="-1.25125667">
        <ele>887.0</ele>
        <time>2019-07-31T09:49:59.116Z</time>
      </trkpt>
      <trkpt lat="43.01056667" lon="-1.25126">
        <ele>886.0</ele>
        <time>2019-07-31T09:50:00.122Z</time>
      </trkpt>
      <trkpt lat="43.01056667" lon="-1.251265">
        <ele>886.0</ele>
        <time>2019-07-31T09:50:01.127Z</time>
      </trkpt>
      <trkpt lat="43.01057667" lon="-1.251265">
        <ele>885.0</ele>
        <time>2019-07-31T09:50:02.133Z</time>
      </trkpt>
      <trkpt lat="43.01057833" lon="-1.25126833">
        <ele>885.0</ele>
        <time>2019-07-31T09:50:03.137Z</time>
      </trkpt>
      <trkpt lat="43.01058" lon="-1.25127">
        <ele>885.0</ele>
        <time>2019-07-31T09:50:04.143Z</time>
      </trkpt>
      <trkpt lat="43.01058167" lon="-1.25127">
        <ele>886.0</ele>
        <time>2019-07-31T09:50:05.146Z</time>
      </trkpt>
      <trkpt lat="43.01058333" lon="-1.25127">
        <ele>886.0</ele>
        <time>2019-07-31T09:50:06.152Z</time>
      </trkpt>
      <trkpt lat="43.01058667" lon="-1.25126167">
        <ele>886.0</ele>
        <time>2019-07-31T09:50:07.156Z</time>
      </trkpt>
      <trkpt lat="43.01059" lon="-1.25125167">
        <ele>887.0</ele>
        <time>2019-07-31T09:50:08.162Z</time>
      </trkpt>
      <trkpt lat="43.01059333" lon="-1.25124333">
        <ele>887.0</ele>
        <time>2019-07-31T09:50:09.167Z</time>
      </trkpt>
      <trkpt lat="43.010595" lon="-1.25124">
        <ele>887.0</ele>
        <time>2019-07-31T09:50:10.174Z</time>
      </trkpt>
      <trkpt lat="43.01059333" lon="-1.25124">
        <ele>887.0</ele>
        <time>2019-07-31T09:50:11.180Z</time>
      </trkpt>
      <trkpt lat="43.01059333" lon="-1.25124333">
        <ele>887.0</ele>
        <time>2019-07-31T09:50:12.186Z</time>
      </trkpt>
      <trkpt lat="43.01059167" lon="-1.251245">
        <ele>888.0</ele>
        <time>2019-07-31T09:50:13.066Z</time>
      </trkpt>
      <trkpt lat="43.01059167" lon="-1.25124333">
        <ele>889.0</ele>
        <time>2019-07-31T09:50:14.070Z</time>
      </trkpt>
      <trkpt lat="43.01059333" lon="-1.25124167">
        <ele>889.0</ele>
        <time>2019-07-31T09:50:15.077Z</time>
      </trkpt>
      <trkpt lat="43.010595" lon="-1.25123833">
        <ele>889.0</ele>
        <time>2019-07-31T09:50:16.083Z</time>
      </trkpt>
      <trkpt lat="43.01059833" lon="-1.251235">
        <ele>889.0</ele>
        <time>2019-07-31T09:50:17.089Z</time>
      </trkpt>
      <trkpt lat="43.01059667" lon="-1.25123833">
        <ele>889.0</ele>
        <time>2019-07-31T09:50:18.095Z</time>
      </trkpt>
      <trkpt lat="43.01059167" lon="-1.25124167">
        <ele>889.0</ele>
        <time>2019-07-31T09:50:19.101Z</time>
      </trkpt>
      <trkpt lat="43.01059" lon="-1.25124167">
        <ele>889.0</ele>
        <time>2019-07-31T09:50:20.107Z</time>
      </trkpt>
      <trkpt lat="43.01058667" lon="-1.25124">
        <ele>890.0</ele>
        <time>2019-07-31T09:50:21.113Z</time>
      </trkpt>
      <trkpt lat="43.010585" lon="-1.25124">
        <ele>890.0</ele>
        <time>2019-07-31T09:50:22.117Z</time>
      </trkpt>
      <trkpt lat="43.01058333" lon="-1.25123833">
        <ele>889.0</ele>
        <time>2019-07-31T09:50:23.120Z</time>
      </trkpt>
      <trkpt lat="43.01057833" lon="-1.25123833">
        <ele>889.0</ele>
        <time>2019-07-31T09:50:24.123Z</time>
      </trkpt>
      <trkpt lat="43.01057167" lon="-1.25123667">
        <ele>889.0</ele>
        <time>2019-07-31T09:50:25.128Z</time>
      </trkpt>
      <trkpt lat="43.01056833" lon="-1.251235">
        <ele>888.0</ele>
        <time>2019-07-31T09:50:26.133Z</time>
      </trkpt>
      <trkpt lat="43.010565" lon="-1.251235">
        <ele>888.0</ele>
        <time>2019-07-31T09:50:27.137Z</time>
      </trkpt>
      <trkpt lat="43.010565" lon="-1.251235">
        <ele>888.0</ele>
        <time>2019-07-31T09:50:28.141Z</time>
      </trkpt>
      <trkpt lat="43.01056167" lon="-1.25124167">
        <ele>888.0</ele>
        <time>2019-07-31T09:50:29.149Z</time>
      </trkpt>
      <trkpt lat="43.01055667" lon="-1.25124667">
        <ele>888.0</ele>
        <time>2019-07-31T09:50:30.155Z</time>
      </trkpt>
      <trkpt lat="43.010555" lon="-1.25124833">
        <ele>889.0</ele>
        <time>2019-07-31T09:50:31.158Z</time>
      </trkpt>
      <trkpt lat="43.01055667" lon="-1.25125">
        <ele>888.0</ele>
        <time>2019-07-31T09:50:32.164Z</time>
      </trkpt>
      <trkpt lat="43.01056167" lon="-1.25125667">
        <ele>888.0</ele>
        <time>2019-07-31T09:50:33.168Z</time>
      </trkpt>
      <trkpt lat="43.01056667" lon="-1.251265">
        <ele>888.0</ele>
        <time>2019-07-31T09:50:34.174Z</time>
      </trkpt>
      <trkpt lat="43.01057167" lon="-1.25127167">
        <ele>887.0</ele>
        <time>2019-07-31T09:50:35.179Z</time>
      </trkpt>
      <trkpt lat="43.01057" lon="-1.25127833">
        <ele>887.0</ele>
        <time>2019-07-31T09:50:36.184Z</time>
      </trkpt>
      <trkpt lat="43.01057333" lon="-1.25127833">
        <ele>887.0</ele>
        <time>2019-07-31T09:50:37.063Z</time>
      </trkpt>
      <trkpt lat="43.01057667" lon="-1.25127667">
        <ele>888.0</ele>
        <time>2019-07-31T09:50:38.069Z</time>
      </trkpt>
      <trkpt lat="43.01058" lon="-1.25127833">
        <ele>889.0</ele>
        <time>2019-07-31T09:50:39.072Z</time>
      </trkpt>
      <trkpt lat="43.010585" lon="-1.251275">
        <ele>890.0</ele>
        <time>2019-07-31T09:50:40.078Z</time>
      </trkpt>
      <trkpt lat="43.01058667" lon="-1.251275">
        <ele>890.0</ele>
        <time>2019-07-31T09:50:41.083Z</time>
      </trkpt>
      <trkpt lat="43.01058833" lon="-1.25127667">
        <ele>890.0</ele>
        <time>2019-07-31T09:50:42.090Z</time>
      </trkpt>
      <trkpt lat="43.01058833" lon="-1.25127667">
        <ele>890.0</ele>
        <time>2019-07-31T09:50:43.095Z</time>
      </trkpt>
      <trkpt lat="43.01059" lon="-1.25127167">
        <ele>891.0</ele>
        <time>2019-07-31T09:50:44.102Z</time>
      </trkpt>
      <trkpt lat="43.01058833" lon="-1.25126167">
        <ele>891.0</ele>
        <time>2019-07-31T09:50:45.108Z</time>
      </trkpt>
      <trkpt lat="43.010585" lon="-1.251255">
        <ele>892.0</ele>
        <time>2019-07-31T09:50:46.113Z</time>
      </trkpt>
      <trkpt lat="43.010595" lon="-1.25124833">
        <ele>892.0</ele>
        <time>2019-07-31T09:50:47.116Z</time>
      </trkpt>
      <trkpt lat="43.01059667" lon="-1.25125333">
        <ele>891.0</ele>
        <time>2019-07-31T09:50:48.118Z</time>
      </trkpt>
      <trkpt lat="43.01059667" lon="-1.25125667">
        <ele>891.0</ele>
        <time>2019-07-31T09:50:49.123Z</time>
      </trkpt>
      <trkpt lat="43.010595" lon="-1.25126">
        <ele>892.0</ele>
        <time>2019-07-31T09:50:50.127Z</time>
      </trkpt>
      <trkpt lat="43.01059333" lon="-1.251265">
        <ele>891.0</ele>
        <time>2019-07-31T09:50:51.132Z</time>
      </trkpt>
      <trkpt lat="43.01059333" lon="-1.25126833">
        <ele>891.0</ele>
        <time>2019-07-31T09:50:52.135Z</time>
      </trkpt>
      <trkpt lat="43.010595" lon="-1.25127">
        <ele>891.0</ele>
        <time>2019-07-31T09:50:53.138Z</time>
      </trkpt>
      <trkpt lat="43.01059667" lon="-1.25127">
        <ele>890.0</ele>
        <time>2019-07-31T09:50:54.144Z</time>
      </trkpt>
      <trkpt lat="43.01059667" lon="-1.25126833">
        <ele>890.0</ele>
        <time>2019-07-31T09:50:55.149Z</time>
      </trkpt>
      <trkpt lat="43.010595" lon="-1.25126333">
        <ele>890.0</ele>
        <time>2019-07-31T09:50:56.154Z</time>
      </trkpt>
      <trkpt lat="43.010595" lon="-1.25125833">
        <ele>890.0</ele>
        <time>2019-07-31T09:50:57.158Z</time>
      </trkpt>
      <trkpt lat="43.010595" lon="-1.25125167">
        <ele>890.0</ele>
        <time>2019-07-31T09:50:58.162Z</time>
      </trkpt>
      <trkpt lat="43.01059667" lon="-1.25124667">
        <ele>889.0</ele>
        <time>2019-07-31T09:50:59.168Z</time>
      </trkpt>
      <trkpt lat="43.01059667" lon="-1.25124333">
        <ele>889.0</ele>
        <time>2019-07-31T09:51:00.173Z</time>
      </trkpt>
      <trkpt lat="43.01059833" lon="-1.25124">
        <ele>888.0</ele>
        <time>2019-07-31T09:51:01.179Z</time>
      </trkpt>
      <trkpt lat="43.01059833" lon="-1.25123833">
        <ele>888.0</ele>
        <time>2019-07-31T09:51:02.061Z</time>
      </trkpt>
      <trkpt lat="43.0106" lon="-1.251235">
        <ele>887.0</ele>
        <time>2019-07-31T09:51:03.069Z</time>
      </trkpt>
      <trkpt lat="43.01060333" lon="-1.25123333">
        <ele>887.0</ele>
        <time>2019-07-31T09:51:04.075Z</time>
      </trkpt>
      <trkpt lat="43.01060667" lon="-1.25123167">
        <ele>887.0</ele>
        <time>2019-07-31T09:51:05.082Z</time>
      </trkpt>
      <trkpt lat="43.01060667" lon="-1.25123167">
        <ele>886.0</ele>
        <time>2019-07-31T09:51:06.086Z</time>
      </trkpt>
      <trkpt lat="43.01060667" lon="-1.25123167">
        <ele>886.0</ele>
        <time>2019-07-31T09:51:07.089Z</time>
      </trkpt>
      <trkpt lat="43.01060833" lon="-1.25123333">
        <ele>885.0</ele>
        <time>2019-07-31T09:51:08.092Z</time>
      </trkpt>
      <trkpt lat="43.01060833" lon="-1.25123833">
        <ele>885.0</ele>
        <time>2019-07-31T09:51:09.095Z</time>
      </trkpt>
      <trkpt lat="43.01061" lon="-1.25124833">
        <ele>884.0</ele>
        <time>2019-07-31T09:51:10.101Z</time>
      </trkpt>
      <trkpt lat="43.01061167" lon="-1.25125667">
        <ele>884.0</ele>
        <time>2019-07-31T09:51:11.105Z</time>
      </trkpt>
      <trkpt lat="43.010615" lon="-1.25126">
        <ele>883.0</ele>
        <time>2019-07-31T09:51:12.109Z</time>
      </trkpt>
      <trkpt lat="43.01061167" lon="-1.25125833">
        <ele>883.0</ele>
        <time>2019-07-31T09:51:13.112Z</time>
      </trkpt>
      <trkpt lat="43.01060833" lon="-1.25125667">
        <ele>883.0</ele>
        <time>2019-07-31T09:51:14.117Z</time>
      </trkpt>
      <trkpt lat="43.01060833" lon="-1.25125333">
        <ele>883.0</ele>
        <time>2019-07-31T09:51:15.121Z</time>
      </trkpt>
      <trkpt lat="43.01060833" lon="-1.25125333">
        <ele>882.0</ele>
        <time>2019-07-31T09:51:16.126Z</time>
      </trkpt>
      <trkpt lat="43.01060667" lon="-1.25125833">
        <ele>882.0</ele>
        <time>2019-07-31T09:51:17.130Z</time>
      </trkpt>
      <trkpt lat="43.010605" lon="-1.25126167">
        <ele>883.0</ele>
        <time>2019-07-31T09:51:18.135Z</time>
      </trkpt>
      <trkpt lat="43.01060333" lon="-1.25125833">
        <ele>883.0</ele>
        <time>2019-07-31T09:51:19.139Z</time>
      </trkpt>
      <trkpt lat="43.01060333" lon="-1.251255">
        <ele>883.0</ele>
        <time>2019-07-31T09:51:20.143Z</time>
      </trkpt>
      <trkpt lat="43.01060167" lon="-1.25125333">
        <ele>883.0</ele>
        <time>2019-07-31T09:51:21.149Z</time>
      </trkpt>
      <trkpt lat="43.01059833" lon="-1.25125333">
        <ele>884.0</ele>
        <time>2019-07-31T09:51:22.153Z</time>
      </trkpt>
      <trkpt lat="43.01059333" lon="-1.25125333">
        <ele>884.0</ele>
        <time>2019-07-31T09:51:23.160Z</time>
      </trkpt>
      <trkpt lat="43.01058667" lon="-1.25125167">
        <ele>885.0</ele>
        <time>2019-07-31T09:51:24.165Z</time>
      </trkpt>
      <trkpt lat="43.01058167" lon="-1.25125167">
        <ele>886.0</ele>
        <time>2019-07-31T09:51:25.171Z</time>
      </trkpt>
      <trkpt lat="43.01058333" lon="-1.25124833">
        <ele>886.0</ele>
        <time>2019-07-31T09:51:26.178Z</time>
      </trkpt>
      <trkpt lat="43.01058167" lon="-1.25124833">
        <ele>886.0</ele>
        <time>2019-07-31T09:51:27.181Z</time>
      </trkpt>
      <trkpt lat="43.01058" lon="-1.25124833">
        <ele>886.0</ele>
        <time>2019-07-31T09:51:28.062Z</time>
      </trkpt>
      <trkpt lat="43.01058167" lon="-1.25125333">
        <ele>886.0</ele>
        <time>2019-07-31T09:51:29.070Z</time>
      </trkpt>
      <trkpt lat="43.01058167" lon="-1.25125833">
        <ele>886.0</ele>
        <time>2019-07-31T09:51:30.076Z</time>
      </trkpt>
      <trkpt lat="43.01058" lon="-1.25126333">
        <ele>885.0</ele>
        <time>2019-07-31T09:51:31.080Z</time>
      </trkpt>
      <trkpt lat="43.01058167" lon="-1.25127167">
        <ele>884.0</ele>
        <time>2019-07-31T09:51:32.085Z</time>
      </trkpt>
      <trkpt lat="43.01058167" lon="-1.25127667">
        <ele>883.0</ele>
        <time>2019-07-31T09:51:33.091Z</time>
      </trkpt>
      <trkpt lat="43.01058167" lon="-1.251285">
        <ele>882.0</ele>
        <time>2019-07-31T09:51:34.099Z</time>
      </trkpt>
      <trkpt lat="43.01058667" lon="-1.25128333">
        <ele>882.0</ele>
        <time>2019-07-31T09:51:35.105Z</time>
      </trkpt>
      <trkpt lat="43.01058833" lon="-1.25128167">
        <ele>882.0</ele>
        <time>2019-07-31T09:51:36.111Z</time>
      </trkpt>
      <trkpt lat="43.01059333" lon="-1.25128">
        <ele>883.0</ele>
        <time>2019-07-31T09:51:37.116Z</time>
      </trkpt>
      <trkpt lat="43.010595" lon="-1.251285">
        <ele>883.0</ele>
        <time>2019-07-31T09:51:38.122Z</time>
      </trkpt>
      <trkpt lat="43.01059667" lon="-1.25128833">
        <ele>883.0</ele>
        <time>2019-07-31T09:51:39.125Z</time>
      </trkpt>
      <trkpt lat="43.010595" lon="-1.25129">
        <ele>883.0</ele>
        <time>2019-07-31T09:51:40.129Z</time>
      </trkpt>
      <trkpt lat="43.01059167" lon="-1.251295">
        <ele>882.0</ele>
        <time>2019-07-31T09:51:41.133Z</time>
      </trkpt>
      <trkpt lat="43.01058833" lon="-1.2513">
        <ele>882.0</ele>
        <time>2019-07-31T09:51:42.139Z</time>
      </trkpt>
      <trkpt lat="43.01058833" lon="-1.251305">
        <ele>883.0</ele>
        <time>2019-07-31T09:51:43.145Z</time>
      </trkpt>
      <trkpt lat="43.01058833" lon="-1.25130833">
        <ele>882.0</ele>
        <time>2019-07-31T09:51:44.150Z</time>
      </trkpt>
      <trkpt lat="43.01059167" lon="-1.25130833">
        <ele>882.0</ele>
        <time>2019-07-31T09:51:45.157Z</time>
      </trkpt>
      <trkpt lat="43.01059333" lon="-1.25130833">
        <ele>882.0</ele>
        <time>2019-07-31T09:51:46.164Z</time>
      </trkpt>
      <trkpt lat="43.01059667" lon="-1.25130833">
        <ele>883.0</ele>
        <time>2019-07-31T09:51:47.170Z</time>
      </trkpt>
      <trkpt lat="43.01060333" lon="-1.25130333">
        <ele>883.0</ele>
        <time>2019-07-31T09:51:48.176Z</time>
      </trkpt>
      <trkpt lat="43.01060833" lon="-1.2513">
        <ele>883.0</ele>
        <time>2019-07-31T09:51:49.182Z</time>
      </trkpt>
      <trkpt lat="43.01061167" lon="-1.25130333">
        <ele>883.0</ele>
        <time>2019-07-31T09:51:50.061Z</time>
      </trkpt>
      <trkpt lat="43.010615" lon="-1.25130667">
        <ele>883.0</ele>
        <time>2019-07-31T09:51:51.066Z</time>
      </trkpt>
      <trkpt lat="43.01061333" lon="-1.25131333">
        <ele>883.0</ele>
        <time>2019-07-31T09:51:52.071Z</time>
      </trkpt>
      <trkpt lat="43.01061" lon="-1.25132167">
        <ele>883.0</ele>
        <time>2019-07-31T09:51:53.078Z</time>
      </trkpt>
      <trkpt lat="43.01061" lon="-1.25132833">
        <ele>883.0</ele>
        <time>2019-07-31T09:51:54.084Z</time>
      </trkpt>
      <trkpt lat="43.01061333" lon="-1.25132667">
        <ele>883.0</ele>
        <time>2019-07-31T09:51:55.089Z</time>
      </trkpt>
      <trkpt lat="43.01062" lon="-1.25132333">
        <ele>883.0</ele>
        <time>2019-07-31T09:51:56.095Z</time>
      </trkpt>
      <trkpt lat="43.01062667" lon="-1.25132">
        <ele>883.0</ele>
        <time>2019-07-31T09:51:57.098Z</time>
      </trkpt>
      <trkpt lat="43.01063167" lon="-1.25131667">
        <ele>883.0</ele>
        <time>2019-07-31T09:51:58.104Z</time>
      </trkpt>
      <trkpt lat="43.01063833" lon="-1.25131667">
        <ele>884.0</ele>
        <time>2019-07-31T09:51:59.109Z</time>
      </trkpt>
      <trkpt lat="43.010645" lon="-1.251315">
        <ele>884.0</ele>
        <time>2019-07-31T09:52:00.115Z</time>
      </trkpt>
      <trkpt lat="43.01065333" lon="-1.25131167">
        <ele>884.0</ele>
        <time>2019-07-31T09:52:01.121Z</time>
      </trkpt>
      <trkpt lat="43.01065667" lon="-1.25131">
        <ele>884.0</ele>
        <time>2019-07-31T09:52:02.124Z</time>
      </trkpt>
      <trkpt lat="43.01066667" lon="-1.25130667">
        <ele>885.0</ele>
        <time>2019-07-31T09:52:03.128Z</time>
      </trkpt>
      <trkpt lat="43.010675" lon="-1.25130667">
        <ele>886.0</ele>
        <time>2019-07-31T09:52:04.133Z</time>
      </trkpt>
      <trkpt lat="43.01068667" lon="-1.251305">
        <ele>887.0</ele>
        <time>2019-07-31T09:52:05.139Z</time>
      </trkpt>
      <trkpt lat="43.01069667" lon="-1.251295">
        <ele>887.0</ele>
        <time>2019-07-31T09:52:06.146Z</time>
      </trkpt>
      <trkpt lat="43.01070667" lon="-1.25128833">
        <ele>887.0</ele>
        <time>2019-07-31T09:52:07.152Z</time>
      </trkpt>
      <trkpt lat="43.01072" lon="-1.25129167">
        <ele>887.0</ele>
        <time>2019-07-31T09:52:08.155Z</time>
      </trkpt>
      <trkpt lat="43.01073333" lon="-1.2513">
        <ele>887.0</ele>
        <time>2019-07-31T09:52:09.161Z</time>
      </trkpt>
      <trkpt lat="43.01074833" lon="-1.25131167">
        <ele>887.0</ele>
        <time>2019-07-31T09:52:10.166Z</time>
      </trkpt>
      <trkpt lat="43.01076833" lon="-1.25131333">
        <ele>887.0</ele>
        <time>2019-07-31T09:52:11.171Z</time>
      </trkpt>
      <trkpt lat="43.01078833" lon="-1.25131167">
        <ele>888.0</ele>
        <time>2019-07-31T09:52:12.176Z</time>
      </trkpt>
      <trkpt lat="43.010805" lon="-1.25131">
        <ele>888.0</ele>
        <time>2019-07-31T09:52:13.184Z</time>
      </trkpt>
      <trkpt lat="43.01081667" lon="-1.25130333">
        <ele>887.0</ele>
        <time>2019-07-31T09:52:14.063Z</time>
      </trkpt>
      <trkpt lat="43.01083667" lon="-1.25129667">
        <ele>887.0</ele>
        <time>2019-07-31T09:52:15.069Z</time>
      </trkpt>
      <trkpt lat="43.01085333" lon="-1.25128833">
        <ele>886.0</ele>
        <time>2019-07-31T09:52:16.076Z</time>
      </trkpt>
      <trkpt lat="43.01086833" lon="-1.25127833">
        <ele>885.0</ele>
        <time>2019-07-31T09:52:17.083Z</time>
      </trkpt>
      <trkpt lat="43.01088667" lon="-1.25127">
        <ele>884.0</ele>
        <time>2019-07-31T09:52:18.089Z</time>
      </trkpt>
      <trkpt lat="43.01089833" lon="-1.25126167">
        <ele>884.0</ele>
        <time>2019-07-31T09:52:19.094Z</time>
      </trkpt>
      <trkpt lat="43.01091" lon="-1.25124667">
        <ele>883.0</ele>
        <time>2019-07-31T09:52:20.099Z</time>
      </trkpt>
      <trkpt lat="43.010925" lon="-1.251235">
        <ele>883.0</ele>
        <time>2019-07-31T09:52:21.105Z</time>
      </trkpt>
      <trkpt lat="43.01093833" lon="-1.25122">
        <ele>883.0</ele>
        <time>2019-07-31T09:52:22.110Z</time>
      </trkpt>
      <trkpt lat="43.01094833" lon="-1.25120167">
        <ele>882.0</ele>
        <time>2019-07-31T09:52:23.112Z</time>
      </trkpt>
      <trkpt lat="43.010945" lon="-1.25118333">
        <ele>881.0</ele>
        <time>2019-07-31T09:52:24.119Z</time>
      </trkpt>
      <trkpt lat="43.01094167" lon="-1.251165">
        <ele>880.0</ele>
        <time>2019-07-31T09:52:25.125Z</time>
      </trkpt>
      <trkpt lat="43.01093833" lon="-1.251145">
        <ele>879.0</ele>
        <time>2019-07-31T09:52:26.131Z</time>
      </trkpt>
      <trkpt lat="43.010935" lon="-1.251125">
        <ele>878.0</ele>
        <time>2019-07-31T09:52:27.136Z</time>
      </trkpt>
      <trkpt lat="43.01092667" lon="-1.251105">
        <ele>877.0</ele>
        <time>2019-07-31T09:52:28.141Z</time>
      </trkpt>
      <trkpt lat="43.010925" lon="-1.25107833">
        <ele>877.0</ele>
        <time>2019-07-31T09:52:29.144Z</time>
      </trkpt>
      <trkpt lat="43.01092167" lon="-1.25105833">
        <ele>877.0</ele>
        <time>2019-07-31T09:52:30.149Z</time>
      </trkpt>
      <trkpt lat="43.01092" lon="-1.25104">
        <ele>877.0</ele>
        <time>2019-07-31T09:52:31.156Z</time>
      </trkpt>
      <trkpt lat="43.010915" lon="-1.25101833">
        <ele>876.0</ele>
        <time>2019-07-31T09:52:32.159Z</time>
      </trkpt>
      <trkpt lat="43.01090833" lon="-1.25100333">
        <ele>876.0</ele>
        <time>2019-07-31T09:52:33.165Z</time>
      </trkpt>
      <trkpt lat="43.01090333" lon="-1.25098833">
        <ele>875.0</ele>
        <time>2019-07-31T09:52:34.171Z</time>
      </trkpt>
      <trkpt lat="43.01090667" lon="-1.25097">
        <ele>875.0</ele>
        <time>2019-07-31T09:52:35.177Z</time>
      </trkpt>
      <trkpt lat="43.010905" lon="-1.25095667">
        <ele>875.0</ele>
        <time>2019-07-31T09:52:36.183Z</time>
      </trkpt>
      <trkpt lat="43.01090167" lon="-1.250935">
        <ele>875.0</ele>
        <time>2019-07-31T09:52:37.064Z</time>
      </trkpt>
      <trkpt lat="43.0109" lon="-1.250915">
        <ele>875.0</ele>
        <time>2019-07-31T09:52:38.072Z</time>
      </trkpt>
      <trkpt lat="43.010895" lon="-1.25089167">
        <ele>875.0</ele>
        <time>2019-07-31T09:52:39.078Z</time>
      </trkpt>
      <trkpt lat="43.01089167" lon="-1.25087667">
        <ele>874.0</ele>
        <time>2019-07-31T09:52:40.083Z</time>
      </trkpt>
      <trkpt lat="43.01088833" lon="-1.25085">
        <ele>874.0</ele>
        <time>2019-07-31T09:52:41.087Z</time>
      </trkpt>
      <trkpt lat="43.01088833" lon="-1.25082833">
        <ele>874.0</ele>
        <time>2019-07-31T09:52:42.093Z</time>
      </trkpt>
      <trkpt lat="43.01088833" lon="-1.250805">
        <ele>874.0</ele>
        <time>2019-07-31T09:52:43.098Z</time>
      </trkpt>
      <trkpt lat="43.01088667" lon="-1.25078833">
        <ele>874.0</ele>
        <time>2019-07-31T09:52:44.103Z</time>
      </trkpt>
      <trkpt lat="43.01089167" lon="-1.250765">
        <ele>874.0</ele>
        <time>2019-07-31T09:52:45.107Z</time>
      </trkpt>
      <trkpt lat="43.01089333" lon="-1.25073667">
        <ele>874.0</ele>
        <time>2019-07-31T09:52:46.112Z</time>
      </trkpt>
      <trkpt lat="43.01089333" lon="-1.25071833">
        <ele>874.0</ele>
        <time>2019-07-31T09:52:47.118Z</time>
      </trkpt>
      <trkpt lat="43.01089333" lon="-1.25069833">
        <ele>874.0</ele>
        <time>2019-07-31T09:52:48.124Z</time>
      </trkpt>
      <trkpt lat="43.01089333" lon="-1.25068">
        <ele>874.0</ele>
        <time>2019-07-31T09:52:49.129Z</time>
      </trkpt>
      <trkpt lat="43.010895" lon="-1.25065333">
        <ele>874.0</ele>
        <time>2019-07-31T09:52:50.134Z</time>
      </trkpt>
      <trkpt lat="43.01090167" lon="-1.25063167">
        <ele>874.0</ele>
        <time>2019-07-31T09:52:51.139Z</time>
      </trkpt>
      <trkpt lat="43.01091167" lon="-1.25061167">
        <ele>874.0</ele>
        <time>2019-07-31T09:52:52.144Z</time>
      </trkpt>
      <trkpt lat="43.01092333" lon="-1.25059167">
        <ele>875.0</ele>
        <time>2019-07-31T09:52:53.149Z</time>
      </trkpt>
      <trkpt lat="43.01092833" lon="-1.25057">
        <ele>876.0</ele>
        <time>2019-07-31T09:52:54.152Z</time>
      </trkpt>
      <trkpt lat="43.01093167" lon="-1.25055333">
        <ele>877.0</ele>
        <time>2019-07-31T09:52:55.157Z</time>
      </trkpt>
      <trkpt lat="43.01094333" lon="-1.25053333">
        <ele>878.0</ele>
        <time>2019-07-31T09:52:56.163Z</time>
      </trkpt>
      <trkpt lat="43.01095" lon="-1.25051333">
        <ele>877.0</ele>
        <time>2019-07-31T09:52:57.169Z</time>
      </trkpt>
      <trkpt lat="43.010955" lon="-1.25049833">
        <ele>877.0</ele>
        <time>2019-07-31T09:52:58.175Z</time>
      </trkpt>
      <trkpt lat="43.01096167" lon="-1.25047667">
        <ele>876.0</ele>
        <time>2019-07-31T09:52:59.179Z</time>
      </trkpt>
      <trkpt lat="43.01097" lon="-1.25046">
        <ele>874.0</ele>
        <time>2019-07-31T09:53:00.184Z</time>
      </trkpt>
      <trkpt lat="43.01097667" lon="-1.25044167">
        <ele>873.0</ele>
        <time>2019-07-31T09:53:01.063Z</time>
      </trkpt>
      <trkpt lat="43.01098167" lon="-1.25042333">
        <ele>873.0</ele>
        <time>2019-07-31T09:53:02.067Z</time>
      </trkpt>
      <trkpt lat="43.01098167" lon="-1.25041">
        <ele>873.0</ele>
        <time>2019-07-31T09:53:03.073Z</time>
      </trkpt>
      <trkpt lat="43.01099" lon="-1.25038667">
        <ele>874.0</ele>
        <time>2019-07-31T09:53:04.079Z</time>
      </trkpt>
      <trkpt lat="43.011" lon="-1.25036167">
        <ele>874.0</ele>
        <time>2019-07-31T09:53:05.084Z</time>
      </trkpt>
      <trkpt lat="43.01101" lon="-1.25034833">
        <ele>875.0</ele>
        <time>2019-07-31T09:53:06.090Z</time>
      </trkpt>
      <trkpt lat="43.01102167" lon="-1.25032667">
        <ele>875.0</ele>
        <time>2019-07-31T09:53:07.097Z</time>
      </trkpt>
      <trkpt lat="43.01103333" lon="-1.25030167">
        <ele>875.0</ele>
        <time>2019-07-31T09:53:08.103Z</time>
      </trkpt>
      <trkpt lat="43.01104833" lon="-1.25027167">
        <ele>876.0</ele>
        <time>2019-07-31T09:53:09.111Z</time>
      </trkpt>
      <trkpt lat="43.01105667" lon="-1.25025">
        <ele>878.0</ele>
        <time>2019-07-31T09:53:10.117Z</time>
      </trkpt>
      <trkpt lat="43.01107333" lon="-1.250225">
        <ele>879.0</ele>
        <time>2019-07-31T09:53:11.122Z</time>
      </trkpt>
      <trkpt lat="43.01108833" lon="-1.25020667">
        <ele>879.0</ele>
        <time>2019-07-31T09:53:12.127Z</time>
      </trkpt>
      <trkpt lat="43.01111" lon="-1.25018333">
        <ele>879.0</ele>
        <time>2019-07-31T09:53:13.134Z</time>
      </trkpt>
      <trkpt lat="43.01112333" lon="-1.25016333">
        <ele>880.0</ele>
        <time>2019-07-31T09:53:14.140Z</time>
      </trkpt>
      <trkpt lat="43.01113667" lon="-1.25013833">
        <ele>881.0</ele>
        <time>2019-07-31T09:53:15.146Z</time>
      </trkpt>
      <trkpt lat="43.01115667" lon="-1.250115">
        <ele>883.0</ele>
        <time>2019-07-31T09:53:16.150Z</time>
      </trkpt>
      <trkpt lat="43.01116833" lon="-1.25009667">
        <ele>885.0</ele>
        <time>2019-07-31T09:53:17.157Z</time>
      </trkpt>
      <trkpt lat="43.011195" lon="-1.25006667">
        <ele>886.0</ele>
        <time>2019-07-31T09:53:18.162Z</time>
      </trkpt>
      <trkpt lat="43.01121333" lon="-1.25004667">
        <ele>884.0</ele>
        <time>2019-07-31T09:53:19.167Z</time>
      </trkpt>
      <trkpt lat="43.01122" lon="-1.25002167">
        <ele>883.0</ele>
        <time>2019-07-31T09:53:20.172Z</time>
      </trkpt>
      <trkpt lat="43.01122667" lon="-1.250005">
        <ele>882.0</ele>
        <time>2019-07-31T09:53:21.177Z</time>
      </trkpt>
      <trkpt lat="43.01123667" lon="-1.249985">
        <ele>882.0</ele>
        <time>2019-07-31T09:53:22.181Z</time>
      </trkpt>
      <trkpt lat="43.01125" lon="-1.249965">
        <ele>882.0</ele>
        <time>2019-07-31T09:53:23.061Z</time>
      </trkpt>
      <trkpt lat="43.01126167" lon="-1.24994833">
        <ele>883.0</ele>
        <time>2019-07-31T09:53:24.068Z</time>
      </trkpt>
      <trkpt lat="43.01126333" lon="-1.24994">
        <ele>884.0</ele>
        <time>2019-07-31T09:53:25.075Z</time>
      </trkpt>
      <trkpt lat="43.011265" lon="-1.24991667">
        <ele>883.0</ele>
        <time>2019-07-31T09:53:26.081Z</time>
      </trkpt>
      <trkpt lat="43.011275" lon="-1.24990167">
        <ele>883.0</ele>
        <time>2019-07-31T09:53:27.087Z</time>
      </trkpt>
      <trkpt lat="43.01128333" lon="-1.249885">
        <ele>884.0</ele>
        <time>2019-07-31T09:53:28.092Z</time>
      </trkpt>
      <trkpt lat="43.01129" lon="-1.24987167">
        <ele>884.0</ele>
        <time>2019-07-31T09:53:29.097Z</time>
      </trkpt>
      <trkpt lat="43.01130167" lon="-1.249855">
        <ele>884.0</ele>
        <time>2019-07-31T09:53:30.103Z</time>
      </trkpt>
      <trkpt lat="43.01131333" lon="-1.249845">
        <ele>884.0</ele>
        <time>2019-07-31T09:53:31.109Z</time>
      </trkpt>
      <trkpt lat="43.01132667" lon="-1.24983">
        <ele>885.0</ele>
        <time>2019-07-31T09:53:32.113Z</time>
      </trkpt>
      <trkpt lat="43.01133667" lon="-1.24981667">
        <ele>884.0</ele>
        <time>2019-07-31T09:53:33.119Z</time>
      </trkpt>
      <trkpt lat="43.01134833" lon="-1.24980667">
        <ele>884.0</ele>
        <time>2019-07-31T09:53:34.124Z</time>
      </trkpt>
      <trkpt lat="43.011355" lon="-1.24979833">
        <ele>884.0</ele>
        <time>2019-07-31T09:53:35.130Z</time>
      </trkpt>
      <trkpt lat="43.01136833" lon="-1.24978333">
        <ele>885.0</ele>
        <time>2019-07-31T09:53:36.134Z</time>
      </trkpt>
      <trkpt lat="43.01137833" lon="-1.24976833">
        <ele>885.0</ele>
        <time>2019-07-31T09:53:37.140Z</time>
      </trkpt>
      <trkpt lat="43.01138667" lon="-1.24975333">
        <ele>886.0</ele>
        <time>2019-07-31T09:53:38.147Z</time>
      </trkpt>
      <trkpt lat="43.01139833" lon="-1.24973833">
        <ele>887.0</ele>
        <time>2019-07-31T09:53:39.153Z</time>
      </trkpt>
      <trkpt lat="43.01140833" lon="-1.249725">
        <ele>887.0</ele>
        <time>2019-07-31T09:53:40.160Z</time>
      </trkpt>
      <trkpt lat="43.01142667" lon="-1.24970833">
        <ele>888.0</ele>
        <time>2019-07-31T09:53:41.166Z</time>
      </trkpt>
      <trkpt lat="43.01143667" lon="-1.24969167">
        <ele>889.0</ele>
        <time>2019-07-31T09:53:42.169Z</time>
      </trkpt>
      <trkpt lat="43.01145" lon="-1.24967333">
        <ele>889.0</ele>
        <time>2019-07-31T09:53:43.175Z</time>
      </trkpt>
      <trkpt lat="43.01146333" lon="-1.24966">
        <ele>890.0</ele>
        <time>2019-07-31T09:53:44.180Z</time>
      </trkpt>
      <trkpt lat="43.011485" lon="-1.24963667">
        <ele>891.0</ele>
        <time>2019-07-31T09:53:45.183Z</time>
      </trkpt>
      <trkpt lat="43.011505" lon="-1.24961167">
        <ele>891.0</ele>
        <time>2019-07-31T09:53:46.063Z</time>
      </trkpt>
      <trkpt lat="43.01151833" lon="-1.24959333">
        <ele>892.0</ele>
        <time>2019-07-31T09:53:47.068Z</time>
      </trkpt>
      <trkpt lat="43.01152667" lon="-1.24957833">
        <ele>892.0</ele>
        <time>2019-07-31T09:53:48.074Z</time>
      </trkpt>
      <trkpt lat="43.01153667" lon="-1.24956">
        <ele>891.0</ele>
        <time>2019-07-31T09:53:49.080Z</time>
      </trkpt>
      <trkpt lat="43.01155" lon="-1.24954">
        <ele>891.0</ele>
        <time>2019-07-31T09:53:50.086Z</time>
      </trkpt>
      <trkpt lat="43.01157" lon="-1.24952167">
        <ele>891.0</ele>
        <time>2019-07-31T09:53:51.090Z</time>
      </trkpt>
      <trkpt lat="43.01158833" lon="-1.24950167">
        <ele>892.0</ele>
        <time>2019-07-31T09:53:52.094Z</time>
      </trkpt>
      <trkpt lat="43.01159667" lon="-1.24948667">
        <ele>894.0</ele>
        <time>2019-07-31T09:53:53.097Z</time>
      </trkpt>
      <trkpt lat="43.01161333" lon="-1.24947333">
        <ele>895.0</ele>
        <time>2019-07-31T09:53:54.099Z</time>
      </trkpt>
      <trkpt lat="43.01163167" lon="-1.249465">
        <ele>896.0</ele>
        <time>2019-07-31T09:53:55.106Z</time>
      </trkpt>
      <trkpt lat="43.01164667" lon="-1.24946667">
        <ele>896.0</ele>
        <time>2019-07-31T09:53:56.112Z</time>
      </trkpt>
      <trkpt lat="43.01165667" lon="-1.24945333">
        <ele>897.0</ele>
        <time>2019-07-31T09:53:57.116Z</time>
      </trkpt>
      <trkpt lat="43.011675" lon="-1.24942333">
        <ele>897.0</ele>
        <time>2019-07-31T09:53:58.122Z</time>
      </trkpt>
      <trkpt lat="43.01169333" lon="-1.24940667">
        <ele>897.0</ele>
        <time>2019-07-31T09:53:59.128Z</time>
      </trkpt>
      <trkpt lat="43.01170833" lon="-1.249395">
        <ele>897.0</ele>
        <time>2019-07-31T09:54:00.134Z</time>
      </trkpt>
      <trkpt lat="43.01172333" lon="-1.249385">
        <ele>897.0</ele>
        <time>2019-07-31T09:54:01.141Z</time>
      </trkpt>
      <trkpt lat="43.01173667" lon="-1.24937333">
        <ele>897.0</ele>
        <time>2019-07-31T09:54:02.146Z</time>
      </trkpt>
      <trkpt lat="43.01175" lon="-1.24935667">
        <ele>896.0</ele>
        <time>2019-07-31T09:54:03.149Z</time>
      </trkpt>
      <trkpt lat="43.01176" lon="-1.24934">
        <ele>896.0</ele>
        <time>2019-07-31T09:54:04.154Z</time>
      </trkpt>
      <trkpt lat="43.01177" lon="-1.24932333">
        <ele>896.0</ele>
        <time>2019-07-31T09:54:05.159Z</time>
      </trkpt>
      <trkpt lat="43.01178" lon="-1.24930167">
        <ele>897.0</ele>
        <time>2019-07-31T09:54:06.165Z</time>
      </trkpt>
      <trkpt lat="43.01178833" lon="-1.24928167">
        <ele>898.0</ele>
        <time>2019-07-31T09:54:07.169Z</time>
      </trkpt>
      <trkpt lat="43.011795" lon="-1.24926">
        <ele>898.0</ele>
        <time>2019-07-31T09:54:08.176Z</time>
      </trkpt>
      <trkpt lat="43.01179833" lon="-1.24923167">
        <ele>898.0</ele>
        <time>2019-07-31T09:54:09.182Z</time>
      </trkpt>
      <trkpt lat="43.01179833" lon="-1.24921333">
        <ele>898.0</ele>
        <time>2019-07-31T09:54:10.062Z</time>
      </trkpt>
      <trkpt lat="43.0118" lon="-1.24919167">
        <ele>897.0</ele>
        <time>2019-07-31T09:54:11.069Z</time>
      </trkpt>
      <trkpt lat="43.01179833" lon="-1.24917333">
        <ele>897.0</ele>
        <time>2019-07-31T09:54:12.074Z</time>
      </trkpt>
      <trkpt lat="43.01180333" lon="-1.24914667">
        <ele>896.0</ele>
        <time>2019-07-31T09:54:13.081Z</time>
      </trkpt>
      <trkpt lat="43.01180167" lon="-1.24912333">
        <ele>896.0</ele>
        <time>2019-07-31T09:54:14.085Z</time>
      </trkpt>
      <trkpt lat="43.0118" lon="-1.24910667">
        <ele>895.0</ele>
        <time>2019-07-31T09:54:15.091Z</time>
      </trkpt>
      <trkpt lat="43.01180167" lon="-1.24908333">
        <ele>895.0</ele>
        <time>2019-07-31T09:54:16.096Z</time>
      </trkpt>
      <trkpt lat="43.011805" lon="-1.24905833">
        <ele>894.0</ele>
        <time>2019-07-31T09:54:17.103Z</time>
      </trkpt>
      <trkpt lat="43.01181333" lon="-1.24902667">
        <ele>894.0</ele>
        <time>2019-07-31T09:54:18.110Z</time>
      </trkpt>
      <trkpt lat="43.01181667" lon="-1.248995">
        <ele>894.0</ele>
        <time>2019-07-31T09:54:19.117Z</time>
      </trkpt>
      <trkpt lat="43.01181833" lon="-1.24896667">
        <ele>893.0</ele>
        <time>2019-07-31T09:54:20.122Z</time>
      </trkpt>
      <trkpt lat="43.011825" lon="-1.24893833">
        <ele>892.0</ele>
        <time>2019-07-31T09:54:21.127Z</time>
      </trkpt>
      <trkpt lat="43.01183" lon="-1.24891167">
        <ele>891.0</ele>
        <time>2019-07-31T09:54:22.133Z</time>
      </trkpt>
      <trkpt lat="43.01183333" lon="-1.24887833">
        <ele>891.0</ele>
        <time>2019-07-31T09:54:23.137Z</time>
      </trkpt>
      <trkpt lat="43.01183667" lon="-1.24885167">
        <ele>891.0</ele>
        <time>2019-07-31T09:54:24.144Z</time>
      </trkpt>
      <trkpt lat="43.01184333" lon="-1.24882833">
        <ele>891.0</ele>
        <time>2019-07-31T09:54:25.149Z</time>
      </trkpt>
      <trkpt lat="43.01184833" lon="-1.248805">
        <ele>891.0</ele>
        <time>2019-07-31T09:54:26.155Z</time>
      </trkpt>
      <trkpt lat="43.01185667" lon="-1.24878">
        <ele>889.0</ele>
        <time>2019-07-31T09:54:27.161Z</time>
      </trkpt>
      <trkpt lat="43.01186333" lon="-1.24875833">
        <ele>888.0</ele>
        <time>2019-07-31T09:54:28.166Z</time>
      </trkpt>
      <trkpt lat="43.011865" lon="-1.24874833">
        <ele>887.0</ele>
        <time>2019-07-31T09:54:29.171Z</time>
      </trkpt>
      <trkpt lat="43.01186333" lon="-1.24873167">
        <ele>886.0</ele>
        <time>2019-07-31T09:54:30.178Z</time>
      </trkpt>
      <trkpt lat="43.01186" lon="-1.24872167">
        <ele>885.0</ele>
        <time>2019-07-31T09:54:31.183Z</time>
      </trkpt>
      <trkpt lat="43.01186667" lon="-1.248695">
        <ele>884.0</ele>
        <time>2019-07-31T09:54:32.063Z</time>
      </trkpt>
      <trkpt lat="43.01186833" lon="-1.24867167">
        <ele>884.0</ele>
        <time>2019-07-31T09:54:33.070Z</time>
      </trkpt>
      <trkpt lat="43.01187667" lon="-1.24864">
        <ele>884.0</ele>
        <time>2019-07-31T09:54:34.075Z</time>
      </trkpt>
      <trkpt lat="43.01188667" lon="-1.24861833">
        <ele>883.0</ele>
        <time>2019-07-31T09:54:35.079Z</time>
      </trkpt>
      <trkpt lat="43.01188" lon="-1.248595">
        <ele>883.0</ele>
        <time>2019-07-31T09:54:36.083Z</time>
      </trkpt>
      <trkpt lat="43.01188667" lon="-1.24857167">
        <ele>884.0</ele>
        <time>2019-07-31T09:54:37.087Z</time>
      </trkpt>
      <trkpt lat="43.01189167" lon="-1.24854333">
        <ele>884.0</ele>
        <time>2019-07-31T09:54:38.093Z</time>
      </trkpt>
      <trkpt lat="43.01188833" lon="-1.248515">
        <ele>883.0</ele>
        <time>2019-07-31T09:54:39.097Z</time>
      </trkpt>
      <trkpt lat="43.01188667" lon="-1.24849167">
        <ele>883.0</ele>
        <time>2019-07-31T09:54:40.102Z</time>
      </trkpt>
      <trkpt lat="43.01189" lon="-1.24846167">
        <ele>882.0</ele>
        <time>2019-07-31T09:54:41.108Z</time>
      </trkpt>
      <trkpt lat="43.01189" lon="-1.24843833">
        <ele>883.0</ele>
        <time>2019-07-31T09:54:42.114Z</time>
      </trkpt>
      <trkpt lat="43.01189167" lon="-1.24841">
        <ele>884.0</ele>
        <time>2019-07-31T09:54:43.122Z</time>
      </trkpt>
      <trkpt lat="43.01188667" lon="-1.2484">
        <ele>884.0</ele>
        <time>2019-07-31T09:54:44.126Z</time>
      </trkpt>
      <trkpt lat="43.01188833" lon="-1.24836833">
        <ele>885.0</ele>
        <time>2019-07-31T09:54:45.133Z</time>
      </trkpt>
      <trkpt lat="43.01188833" lon="-1.24834167">
        <ele>886.0</ele>
        <time>2019-07-31T09:54:46.139Z</time>
      </trkpt>
      <trkpt lat="43.01189667" lon="-1.24831333">
        <ele>886.0</ele>
        <time>2019-07-31T09:54:47.143Z</time>
      </trkpt>
      <trkpt lat="43.01190833" lon="-1.24829333">
        <ele>886.0</ele>
        <time>2019-07-31T09:54:48.149Z</time>
      </trkpt>
      <trkpt lat="43.01192" lon="-1.24827">
        <ele>886.0</ele>
        <time>2019-07-31T09:54:49.154Z</time>
      </trkpt>
      <trkpt lat="43.01192167" lon="-1.24824333">
        <ele>886.0</ele>
        <time>2019-07-31T09:54:50.158Z</time>
      </trkpt>
      <trkpt lat="43.01192333" lon="-1.248215">
        <ele>885.0</ele>
        <time>2019-07-31T09:54:51.163Z</time>
      </trkpt>
      <trkpt lat="43.011925" lon="-1.24819">
        <ele>884.0</ele>
        <time>2019-07-31T09:54:52.169Z</time>
      </trkpt>
      <trkpt lat="43.01192333" lon="-1.24816667">
        <ele>884.0</ele>
        <time>2019-07-31T09:54:53.172Z</time>
      </trkpt>
      <trkpt lat="43.01192" lon="-1.248145">
        <ele>882.0</ele>
        <time>2019-07-31T09:54:54.176Z</time>
      </trkpt>
      <trkpt lat="43.011925" lon="-1.24812333">
        <ele>882.0</ele>
        <time>2019-07-31T09:54:55.182Z</time>
      </trkpt>
      <trkpt lat="43.01193" lon="-1.248095">
        <ele>883.0</ele>
        <time>2019-07-31T09:54:56.063Z</time>
      </trkpt>
      <trkpt lat="43.01193333" lon="-1.24807">
        <ele>884.0</ele>
        <time>2019-07-31T09:54:57.067Z</time>
      </trkpt>
      <trkpt lat="43.01193667" lon="-1.24804833">
        <ele>883.0</ele>
        <time>2019-07-31T09:54:58.070Z</time>
      </trkpt>
      <trkpt lat="43.01194" lon="-1.24802">
        <ele>883.0</ele>
        <time>2019-07-31T09:54:59.075Z</time>
      </trkpt>
      <trkpt lat="43.01194167" lon="-1.24799333">
        <ele>884.0</ele>
        <time>2019-07-31T09:55:00.080Z</time>
      </trkpt>
      <trkpt lat="43.01194333" lon="-1.24796333">
        <ele>884.0</ele>
        <time>2019-07-31T09:55:01.084Z</time>
      </trkpt>
      <trkpt lat="43.01194333" lon="-1.24794167">
        <ele>883.0</ele>
        <time>2019-07-31T09:55:02.091Z</time>
      </trkpt>
      <trkpt lat="43.01194" lon="-1.24791667">
        <ele>884.0</ele>
        <time>2019-07-31T09:55:03.096Z</time>
      </trkpt>
      <trkpt lat="43.01193667" lon="-1.247885">
        <ele>882.0</ele>
        <time>2019-07-31T09:55:04.102Z</time>
      </trkpt>
      <trkpt lat="43.01193" lon="-1.24786833">
        <ele>881.0</ele>
        <time>2019-07-31T09:55:05.109Z</time>
      </trkpt>
      <trkpt lat="43.01193167" lon="-1.24784333">
        <ele>879.0</ele>
        <time>2019-07-31T09:55:06.114Z</time>
      </trkpt>
      <trkpt lat="43.01193167" lon="-1.24781667">
        <ele>878.0</ele>
        <time>2019-07-31T09:55:07.118Z</time>
      </trkpt>
      <trkpt lat="43.01193167" lon="-1.247785">
        <ele>877.0</ele>
        <time>2019-07-31T09:55:08.123Z</time>
      </trkpt>
      <trkpt lat="43.01193" lon="-1.24776333">
        <ele>876.0</ele>
        <time>2019-07-31T09:55:09.126Z</time>
      </trkpt>
      <trkpt lat="43.01192667" lon="-1.24774167">
        <ele>876.0</ele>
        <time>2019-07-31T09:55:10.131Z</time>
      </trkpt>
      <trkpt lat="43.011925" lon="-1.24771833">
        <ele>876.0</ele>
        <time>2019-07-31T09:55:11.135Z</time>
      </trkpt>
      <trkpt lat="43.011925" lon="-1.24769667">
        <ele>876.0</ele>
        <time>2019-07-31T09:55:12.142Z</time>
      </trkpt>
      <trkpt lat="43.01192333" lon="-1.24767833">
        <ele>877.0</ele>
        <time>2019-07-31T09:55:13.148Z</time>
      </trkpt>
      <trkpt lat="43.011925" lon="-1.24766">
        <ele>877.0</ele>
        <time>2019-07-31T09:55:14.154Z</time>
      </trkpt>
      <trkpt lat="43.01192833" lon="-1.247635">
        <ele>878.0</ele>
        <time>2019-07-31T09:55:15.161Z</time>
      </trkpt>
      <trkpt lat="43.01193" lon="-1.247615">
        <ele>878.0</ele>
        <time>2019-07-31T09:55:16.166Z</time>
      </trkpt>
      <trkpt lat="43.01193167" lon="-1.24759833">
        <ele>878.0</ele>
        <time>2019-07-31T09:55:17.168Z</time>
      </trkpt>
      <trkpt lat="43.011935" lon="-1.24757833">
        <ele>877.0</ele>
        <time>2019-07-31T09:55:18.170Z</time>
      </trkpt>
      <trkpt lat="43.01193667" lon="-1.24755667">
        <ele>877.0</ele>
        <time>2019-07-31T09:55:19.176Z</time>
      </trkpt>
      <trkpt lat="43.01194" lon="-1.24754333">
        <ele>877.0</ele>
        <time>2019-07-31T09:55:20.182Z</time>
      </trkpt>
      <trkpt lat="43.011945" lon="-1.24752333">
        <ele>877.0</ele>
        <time>2019-07-31T09:55:21.185Z</time>
      </trkpt>
      <trkpt lat="43.01194833" lon="-1.24750333">
        <ele>878.0</ele>
        <time>2019-07-31T09:55:22.066Z</time>
      </trkpt>
      <trkpt lat="43.01195" lon="-1.24748">
        <ele>877.0</ele>
        <time>2019-07-31T09:55:23.072Z</time>
      </trkpt>
      <trkpt lat="43.01195" lon="-1.24745833">
        <ele>877.0</ele>
        <time>2019-07-31T09:55:24.079Z</time>
      </trkpt>
      <trkpt lat="43.01194833" lon="-1.24743833">
        <ele>877.0</ele>
        <time>2019-07-31T09:55:25.084Z</time>
      </trkpt>
      <trkpt lat="43.01194833" lon="-1.247415">
        <ele>877.0</ele>
        <time>2019-07-31T09:55:26.089Z</time>
      </trkpt>
      <trkpt lat="43.01195167" lon="-1.247395">
        <ele>877.0</ele>
        <time>2019-07-31T09:55:27.094Z</time>
      </trkpt>
      <trkpt lat="43.01195833" lon="-1.24737">
        <ele>877.0</ele>
        <time>2019-07-31T09:55:28.099Z</time>
      </trkpt>
      <trkpt lat="43.01196333" lon="-1.24735">
        <ele>876.0</ele>
        <time>2019-07-31T09:55:29.103Z</time>
      </trkpt>
      <trkpt lat="43.011965" lon="-1.24732833">
        <ele>877.0</ele>
        <time>2019-07-31T09:55:30.110Z</time>
      </trkpt>
      <trkpt lat="43.01196833" lon="-1.2473">
        <ele>877.0</ele>
        <time>2019-07-31T09:55:31.116Z</time>
      </trkpt>
      <trkpt lat="43.01197333" lon="-1.247275">
        <ele>877.0</ele>
        <time>2019-07-31T09:55:32.122Z</time>
      </trkpt>
      <trkpt lat="43.01197833" lon="-1.24725">
        <ele>877.0</ele>
        <time>2019-07-31T09:55:33.128Z</time>
      </trkpt>
      <trkpt lat="43.01198333" lon="-1.24723">
        <ele>877.0</ele>
        <time>2019-07-31T09:55:34.133Z</time>
      </trkpt>
      <trkpt lat="43.01198667" lon="-1.24721167">
        <ele>877.0</ele>
        <time>2019-07-31T09:55:35.138Z</time>
      </trkpt>
      <trkpt lat="43.01199" lon="-1.24719">
        <ele>878.0</ele>
        <time>2019-07-31T09:55:36.145Z</time>
      </trkpt>
      <trkpt lat="43.01199167" lon="-1.24717">
        <ele>878.0</ele>
        <time>2019-07-31T09:55:37.150Z</time>
      </trkpt>
      <trkpt lat="43.01199" lon="-1.24714667">
        <ele>877.0</ele>
        <time>2019-07-31T09:55:38.153Z</time>
      </trkpt>
      <trkpt lat="43.01199" lon="-1.24712">
        <ele>877.0</ele>
        <time>2019-07-31T09:55:39.157Z</time>
      </trkpt>
      <trkpt lat="43.01198833" lon="-1.24709667">
        <ele>877.0</ele>
        <time>2019-07-31T09:55:40.163Z</time>
      </trkpt>
      <trkpt lat="43.011985" lon="-1.247075">
        <ele>876.0</ele>
        <time>2019-07-31T09:55:41.167Z</time>
      </trkpt>
      <trkpt lat="43.01198167" lon="-1.24706">
        <ele>875.0</ele>
        <time>2019-07-31T09:55:42.172Z</time>
      </trkpt>
      <trkpt lat="43.01198167" lon="-1.24703333">
        <ele>875.0</ele>
        <time>2019-07-31T09:55:43.179Z</time>
      </trkpt>
      <trkpt lat="43.01198333" lon="-1.24700333">
        <ele>875.0</ele>
        <time>2019-07-31T09:55:44.185Z</time>
      </trkpt>
      <trkpt lat="43.01198167" lon="-1.24697667">
        <ele>874.0</ele>
        <time>2019-07-31T09:55:45.066Z</time>
      </trkpt>
      <trkpt lat="43.01197833" lon="-1.24695167">
        <ele>873.0</ele>
        <time>2019-07-31T09:55:46.073Z</time>
      </trkpt>
      <trkpt lat="43.01198" lon="-1.24692333">
        <ele>872.0</ele>
        <time>2019-07-31T09:55:47.079Z</time>
      </trkpt>
      <trkpt lat="43.01197667" lon="-1.246905">
        <ele>871.0</ele>
        <time>2019-07-31T09:55:48.084Z</time>
      </trkpt>
      <trkpt lat="43.01197667" lon="-1.24688">
        <ele>871.0</ele>
        <time>2019-07-31T09:55:49.088Z</time>
      </trkpt>
      <trkpt lat="43.01198" lon="-1.24685667">
        <ele>871.0</ele>
        <time>2019-07-31T09:55:50.093Z</time>
      </trkpt>
      <trkpt lat="43.01198833" lon="-1.24683167">
        <ele>871.0</ele>
        <time>2019-07-31T09:55:51.098Z</time>
      </trkpt>
      <trkpt lat="43.01198667" lon="-1.246805">
        <ele>871.0</ele>
        <time>2019-07-31T09:55:52.104Z</time>
      </trkpt>
      <trkpt lat="43.01199333" lon="-1.24678">
        <ele>871.0</ele>
        <time>2019-07-31T09:55:53.107Z</time>
      </trkpt>
      <trkpt lat="43.01200167" lon="-1.24674833">
        <ele>871.0</ele>
        <time>2019-07-31T09:55:54.111Z</time>
      </trkpt>
      <trkpt lat="43.01200833" lon="-1.24671333">
        <ele>870.0</ele>
        <time>2019-07-31T09:55:55.117Z</time>
      </trkpt>
      <trkpt lat="43.01201167" lon="-1.24668667">
        <ele>869.0</ele>
        <time>2019-07-31T09:55:56.123Z</time>
      </trkpt>
      <trkpt lat="43.01201667" lon="-1.246665">
        <ele>869.0</ele>
        <time>2019-07-31T09:55:57.127Z</time>
      </trkpt>
      <trkpt lat="43.01202167" lon="-1.24663667">
        <ele>868.0</ele>
        <time>2019-07-31T09:55:58.132Z</time>
      </trkpt>
      <trkpt lat="43.01202333" lon="-1.24661333">
        <ele>867.0</ele>
        <time>2019-07-31T09:55:59.137Z</time>
      </trkpt>
      <trkpt lat="43.01202833" lon="-1.24658">
        <ele>865.0</ele>
        <time>2019-07-31T09:56:00.140Z</time>
      </trkpt>
      <trkpt lat="43.01203167" lon="-1.24655333">
        <ele>863.0</ele>
        <time>2019-07-31T09:56:01.147Z</time>
      </trkpt>
      <trkpt lat="43.01202667" lon="-1.24653">
        <ele>863.0</ele>
        <time>2019-07-31T09:56:02.152Z</time>
      </trkpt>
      <trkpt lat="43.01202167" lon="-1.2465">
        <ele>862.0</ele>
        <time>2019-07-31T09:56:03.153Z</time>
      </trkpt>
      <trkpt lat="43.012015" lon="-1.24648">
        <ele>861.0</ele>
        <time>2019-07-31T09:56:04.157Z</time>
      </trkpt>
      <trkpt lat="43.01200333" lon="-1.24645167">
        <ele>861.0</ele>
        <time>2019-07-31T09:56:05.163Z</time>
      </trkpt>
      <trkpt lat="43.011985" lon="-1.24643">
        <ele>861.0</ele>
        <time>2019-07-31T09:56:06.169Z</time>
      </trkpt>
      <trkpt lat="43.01197333" lon="-1.24640833">
        <ele>860.0</ele>
        <time>2019-07-31T09:56:07.173Z</time>
      </trkpt>
      <trkpt lat="43.01195167" lon="-1.246385">
        <ele>860.0</ele>
        <time>2019-07-31T09:56:08.178Z</time>
      </trkpt>
      <trkpt lat="43.01193" lon="-1.24636833">
        <ele>860.0</ele>
        <time>2019-07-31T09:56:09.185Z</time>
      </trkpt>
      <trkpt lat="43.01190833" lon="-1.24635333">
        <ele>861.0</ele>
        <time>2019-07-31T09:56:10.064Z</time>
      </trkpt>
      <trkpt lat="43.011885" lon="-1.24634667">
        <ele>861.0</ele>
        <time>2019-07-31T09:56:11.070Z</time>
      </trkpt>
      <trkpt lat="43.011865" lon="-1.24633833">
        <ele>861.0</ele>
        <time>2019-07-31T09:56:12.073Z</time>
      </trkpt>
      <trkpt lat="43.01184833" lon="-1.24632333">
        <ele>861.0</ele>
        <time>2019-07-31T09:56:13.080Z</time>
      </trkpt>
      <trkpt lat="43.01182833" lon="-1.24630667">
        <ele>861.0</ele>
        <time>2019-07-31T09:56:14.086Z</time>
      </trkpt>
      <trkpt lat="43.01181" lon="-1.24628667">
        <ele>861.0</ele>
        <time>2019-07-31T09:56:15.092Z</time>
      </trkpt>
      <trkpt lat="43.01179333" lon="-1.24627167">
        <ele>863.0</ele>
        <time>2019-07-31T09:56:16.097Z</time>
      </trkpt>
      <trkpt lat="43.01177333" lon="-1.24625333">
        <ele>864.0</ele>
        <time>2019-07-31T09:56:17.102Z</time>
      </trkpt>
      <trkpt lat="43.01175167" lon="-1.24624">
        <ele>864.0</ele>
        <time>2019-07-31T09:56:18.108Z</time>
      </trkpt>
      <trkpt lat="43.01173167" lon="-1.24622">
        <ele>865.0</ele>
        <time>2019-07-31T09:56:19.114Z</time>
      </trkpt>
      <trkpt lat="43.01172" lon="-1.24620667">
        <ele>865.0</ele>
        <time>2019-07-31T09:56:20.120Z</time>
      </trkpt>
      <trkpt lat="43.01170667" lon="-1.246195">
        <ele>865.0</ele>
        <time>2019-07-31T09:56:21.124Z</time>
      </trkpt>
      <trkpt lat="43.01169" lon="-1.246175">
        <ele>864.0</ele>
        <time>2019-07-31T09:56:22.128Z</time>
      </trkpt>
      <trkpt lat="43.011675" lon="-1.24616">
        <ele>863.0</ele>
        <time>2019-07-31T09:56:23.135Z</time>
      </trkpt>
      <trkpt lat="43.01166" lon="-1.24614">
        <ele>863.0</ele>
        <time>2019-07-31T09:56:24.141Z</time>
      </trkpt>
      <trkpt lat="43.011645" lon="-1.24613333">
        <ele>862.0</ele>
        <time>2019-07-31T09:56:25.145Z</time>
      </trkpt>
      <trkpt lat="43.011635" lon="-1.24612833">
        <ele>862.0</ele>
        <time>2019-07-31T09:56:26.150Z</time>
      </trkpt>
      <trkpt lat="43.01162" lon="-1.24611667">
        <ele>861.0</ele>
        <time>2019-07-31T09:56:27.156Z</time>
      </trkpt>
      <trkpt lat="43.01160667" lon="-1.24611">
        <ele>860.0</ele>
        <time>2019-07-31T09:56:28.161Z</time>
      </trkpt>
      <trkpt lat="43.01159333" lon="-1.24609667">
        <ele>860.0</ele>
        <time>2019-07-31T09:56:29.166Z</time>
      </trkpt>
      <trkpt lat="43.01158167" lon="-1.246085">
        <ele>860.0</ele>
        <time>2019-07-31T09:56:30.173Z</time>
      </trkpt>
      <trkpt lat="43.01156833" lon="-1.24606833">
        <ele>860.0</ele>
        <time>2019-07-31T09:56:31.178Z</time>
      </trkpt>
      <trkpt lat="43.01155833" lon="-1.24605333">
        <ele>860.0</ele>
        <time>2019-07-31T09:56:32.182Z</time>
      </trkpt>
      <trkpt lat="43.01155" lon="-1.24603833">
        <ele>860.0</ele>
        <time>2019-07-31T09:56:33.062Z</time>
      </trkpt>
      <trkpt lat="43.01153833" lon="-1.24602167">
        <ele>860.0</ele>
        <time>2019-07-31T09:56:34.069Z</time>
      </trkpt>
      <trkpt lat="43.011525" lon="-1.246">
        <ele>860.0</ele>
        <time>2019-07-31T09:56:35.076Z</time>
      </trkpt>
      <trkpt lat="43.01151167" lon="-1.245985">
        <ele>860.0</ele>
        <time>2019-07-31T09:56:36.081Z</time>
      </trkpt>
      <trkpt lat="43.0115" lon="-1.24597167">
        <ele>860.0</ele>
        <time>2019-07-31T09:56:37.084Z</time>
      </trkpt>
      <trkpt lat="43.01148833" lon="-1.245955">
        <ele>860.0</ele>
        <time>2019-07-31T09:56:38.091Z</time>
      </trkpt>
      <trkpt lat="43.01147667" lon="-1.24594333">
        <ele>860.0</ele>
        <time>2019-07-31T09:56:39.097Z</time>
      </trkpt>
      <trkpt lat="43.01145833" lon="-1.24592667">
        <ele>861.0</ele>
        <time>2019-07-31T09:56:40.104Z</time>
      </trkpt>
      <trkpt lat="43.01144667" lon="-1.24590833">
        <ele>861.0</ele>
        <time>2019-07-31T09:56:41.111Z</time>
      </trkpt>
      <trkpt lat="43.01143833" lon="-1.24588833">
        <ele>861.0</ele>
        <time>2019-07-31T09:56:42.115Z</time>
      </trkpt>
      <trkpt lat="43.01143" lon="-1.24587167">
        <ele>861.0</ele>
        <time>2019-07-31T09:56:43.120Z</time>
      </trkpt>
      <trkpt lat="43.01142" lon="-1.24585">
        <ele>861.0</ele>
        <time>2019-07-31T09:56:44.126Z</time>
      </trkpt>
      <trkpt lat="43.01141333" lon="-1.245835">
        <ele>861.0</ele>
        <time>2019-07-31T09:56:45.130Z</time>
      </trkpt>
      <trkpt lat="43.011405" lon="-1.24581333">
        <ele>861.0</ele>
        <time>2019-07-31T09:56:46.135Z</time>
      </trkpt>
      <trkpt lat="43.01139667" lon="-1.245795">
        <ele>861.0</ele>
        <time>2019-07-31T09:56:47.140Z</time>
      </trkpt>
      <trkpt lat="43.01139" lon="-1.24577833">
        <ele>861.0</ele>
        <time>2019-07-31T09:56:48.148Z</time>
      </trkpt>
      <trkpt lat="43.01138167" lon="-1.24575833">
        <ele>861.0</ele>
        <time>2019-07-31T09:56:49.153Z</time>
      </trkpt>
      <trkpt lat="43.011375" lon="-1.24574">
        <ele>861.0</ele>
        <time>2019-07-31T09:56:50.160Z</time>
      </trkpt>
      <trkpt lat="43.01136833" lon="-1.24572">
        <ele>861.0</ele>
        <time>2019-07-31T09:56:51.165Z</time>
      </trkpt>
      <trkpt lat="43.01136" lon="-1.2457">
        <ele>861.0</ele>
        <time>2019-07-31T09:56:52.169Z</time>
      </trkpt>
      <trkpt lat="43.01135333" lon="-1.24567667">
        <ele>861.0</ele>
        <time>2019-07-31T09:56:53.172Z</time>
      </trkpt>
      <trkpt lat="43.011345" lon="-1.24565167">
        <ele>861.0</ele>
        <time>2019-07-31T09:56:54.176Z</time>
      </trkpt>
      <trkpt lat="43.01134167" lon="-1.24563333">
        <ele>861.0</ele>
        <time>2019-07-31T09:56:55.180Z</time>
      </trkpt>
      <trkpt lat="43.01133667" lon="-1.24561">
        <ele>861.0</ele>
        <time>2019-07-31T09:56:56.185Z</time>
      </trkpt>
      <trkpt lat="43.01133167" lon="-1.24558833">
        <ele>862.0</ele>
        <time>2019-07-31T09:56:57.062Z</time>
      </trkpt>
      <trkpt lat="43.01132333" lon="-1.24556167">
        <ele>862.0</ele>
        <time>2019-07-31T09:56:58.067Z</time>
      </trkpt>
      <trkpt lat="43.01131833" lon="-1.245545">
        <ele>862.0</ele>
        <time>2019-07-31T09:56:59.073Z</time>
      </trkpt>
      <trkpt lat="43.01131333" lon="-1.24552333">
        <ele>863.0</ele>
        <time>2019-07-31T09:57:00.080Z</time>
      </trkpt>
      <trkpt lat="43.01130833" lon="-1.2455">
        <ele>863.0</ele>
        <time>2019-07-31T09:57:01.085Z</time>
      </trkpt>
      <trkpt lat="43.0113" lon="-1.24548">
        <ele>862.0</ele>
        <time>2019-07-31T09:57:02.092Z</time>
      </trkpt>
      <trkpt lat="43.01129" lon="-1.24545667">
        <ele>862.0</ele>
        <time>2019-07-31T09:57:03.098Z</time>
      </trkpt>
      <trkpt lat="43.01128167" lon="-1.24543">
        <ele>862.0</ele>
        <time>2019-07-31T09:57:04.104Z</time>
      </trkpt>
      <trkpt lat="43.011275" lon="-1.24540833">
        <ele>862.0</ele>
        <time>2019-07-31T09:57:05.109Z</time>
      </trkpt>
      <trkpt lat="43.01126667" lon="-1.24538333">
        <ele>862.0</ele>
        <time>2019-07-31T09:57:06.113Z</time>
      </trkpt>
      <trkpt lat="43.011265" lon="-1.24536667">
        <ele>862.0</ele>
        <time>2019-07-31T09:57:07.119Z</time>
      </trkpt>
      <trkpt lat="43.01125667" lon="-1.24534">
        <ele>862.0</ele>
        <time>2019-07-31T09:57:08.124Z</time>
      </trkpt>
      <trkpt lat="43.01125167" lon="-1.245315">
        <ele>862.0</ele>
        <time>2019-07-31T09:57:09.127Z</time>
      </trkpt>
      <trkpt lat="43.01124667" lon="-1.245295">
        <ele>863.0</ele>
        <time>2019-07-31T09:57:10.133Z</time>
      </trkpt>
      <trkpt lat="43.01124667" lon="-1.24527833">
        <ele>863.0</ele>
        <time>2019-07-31T09:57:11.139Z</time>
      </trkpt>
      <trkpt lat="43.01124333" lon="-1.24525667">
        <ele>863.0</ele>
        <time>2019-07-31T09:57:12.146Z</time>
      </trkpt>
      <trkpt lat="43.011245" lon="-1.245235">
        <ele>863.0</ele>
        <time>2019-07-31T09:57:13.151Z</time>
      </trkpt>
      <trkpt lat="43.01124667" lon="-1.24521167">
        <ele>863.0</ele>
        <time>2019-07-31T09:57:14.158Z</time>
      </trkpt>
      <trkpt lat="43.01124167" lon="-1.24519">
        <ele>864.0</ele>
        <time>2019-07-31T09:57:15.163Z</time>
      </trkpt>
      <trkpt lat="43.01124" lon="-1.24517167">
        <ele>865.0</ele>
        <time>2019-07-31T09:57:16.167Z</time>
      </trkpt>
      <trkpt lat="43.01123833" lon="-1.24515">
        <ele>865.0</ele>
        <time>2019-07-31T09:57:17.173Z</time>
      </trkpt>
      <trkpt lat="43.011235" lon="-1.24512833">
        <ele>866.0</ele>
        <time>2019-07-31T09:57:18.180Z</time>
      </trkpt>
      <trkpt lat="43.01122833" lon="-1.24510333">
        <ele>866.0</ele>
        <time>2019-07-31T09:57:19.062Z</time>
      </trkpt>
      <trkpt lat="43.01122" lon="-1.24508167">
        <ele>866.0</ele>
        <time>2019-07-31T09:57:20.067Z</time>
      </trkpt>
      <trkpt lat="43.011215" lon="-1.24506333">
        <ele>865.0</ele>
        <time>2019-07-31T09:57:21.073Z</time>
      </trkpt>
      <trkpt lat="43.01120833" lon="-1.245045">
        <ele>865.0</ele>
        <time>2019-07-31T09:57:22.078Z</time>
      </trkpt>
      <trkpt lat="43.01120167" lon="-1.24502667">
        <ele>865.0</ele>
        <time>2019-07-31T09:57:23.084Z</time>
      </trkpt>
      <trkpt lat="43.01119" lon="-1.24500667">
        <ele>864.0</ele>
        <time>2019-07-31T09:57:24.087Z</time>
      </trkpt>
      <trkpt lat="43.01117833" lon="-1.24498667">
        <ele>865.0</ele>
        <time>2019-07-31T09:57:25.095Z</time>
      </trkpt>
      <trkpt lat="43.01116833" lon="-1.24496167">
        <ele>864.0</ele>
        <time>2019-07-31T09:57:26.101Z</time>
      </trkpt>
      <trkpt lat="43.01116167" lon="-1.24494">
        <ele>864.0</ele>
        <time>2019-07-31T09:57:27.104Z</time>
      </trkpt>
      <trkpt lat="43.01115" lon="-1.24492">
        <ele>864.0</ele>
        <time>2019-07-31T09:57:28.108Z</time>
      </trkpt>
      <trkpt lat="43.01114167" lon="-1.2449">
        <ele>864.0</ele>
        <time>2019-07-31T09:57:29.114Z</time>
      </trkpt>
      <trkpt lat="43.011135" lon="-1.24488">
        <ele>864.0</ele>
        <time>2019-07-31T09:57:30.120Z</time>
      </trkpt>
      <trkpt lat="43.01112" lon="-1.24486">
        <ele>863.0</ele>
        <time>2019-07-31T09:57:31.126Z</time>
      </trkpt>
      <trkpt lat="43.01110667" lon="-1.24485">
        <ele>863.0</ele>
        <time>2019-07-31T09:57:32.132Z</time>
      </trkpt>
      <trkpt lat="43.01109" lon="-1.24483667">
        <ele>863.0</ele>
        <time>2019-07-31T09:57:33.139Z</time>
      </trkpt>
      <trkpt lat="43.011075" lon="-1.24481667">
        <ele>863.0</ele>
        <time>2019-07-31T09:57:34.144Z</time>
      </trkpt>
      <trkpt lat="43.01106667" lon="-1.24479667">
        <ele>863.0</ele>
        <time>2019-07-31T09:57:35.151Z</time>
      </trkpt>
      <trkpt lat="43.01105333" lon="-1.24478333">
        <ele>861.0</ele>
        <time>2019-07-31T09:57:36.156Z</time>
      </trkpt>
      <trkpt lat="43.01104" lon="-1.24476833">
        <ele>861.0</ele>
        <time>2019-07-31T09:57:37.162Z</time>
      </trkpt>
      <trkpt lat="43.01102667" lon="-1.244755">
        <ele>861.0</ele>
        <time>2019-07-31T09:57:38.167Z</time>
      </trkpt>
      <trkpt lat="43.01101333" lon="-1.24474">
        <ele>859.0</ele>
        <time>2019-07-31T09:57:39.175Z</time>
      </trkpt>
      <trkpt lat="43.01099833" lon="-1.24472833">
        <ele>859.0</ele>
        <time>2019-07-31T09:57:40.181Z</time>
      </trkpt>
      <trkpt lat="43.01098" lon="-1.244715">
        <ele>859.0</ele>
        <time>2019-07-31T09:57:41.061Z</time>
      </trkpt>
      <trkpt lat="43.01097167" lon="-1.24469667">
        <ele>858.0</ele>
        <time>2019-07-31T09:57:42.066Z</time>
      </trkpt>
      <trkpt lat="43.010965" lon="-1.24468167">
        <ele>857.0</ele>
        <time>2019-07-31T09:57:43.070Z</time>
      </trkpt>
      <trkpt lat="43.01094833" lon="-1.24466167">
        <ele>856.0</ele>
        <time>2019-07-31T09:57:44.075Z</time>
      </trkpt>
      <trkpt lat="43.01092833" lon="-1.24465">
        <ele>856.0</ele>
        <time>2019-07-31T09:57:45.080Z</time>
      </trkpt>
      <trkpt lat="43.01091333" lon="-1.24464">
        <ele>857.0</ele>
        <time>2019-07-31T09:57:46.084Z</time>
      </trkpt>
      <trkpt lat="43.010895" lon="-1.24462167">
        <ele>858.0</ele>
        <time>2019-07-31T09:57:47.089Z</time>
      </trkpt>
      <trkpt lat="43.01088333" lon="-1.24460333">
        <ele>858.0</ele>
        <time>2019-07-31T09:57:48.094Z</time>
      </trkpt>
      <trkpt lat="43.01086833" lon="-1.24457833">
        <ele>859.0</ele>
        <time>2019-07-31T09:57:49.097Z</time>
      </trkpt>
      <trkpt lat="43.01085" lon="-1.244555">
        <ele>859.0</ele>
        <time>2019-07-31T09:57:50.103Z</time>
      </trkpt>
      <trkpt lat="43.01083667" lon="-1.24453333">
        <ele>860.0</ele>
        <time>2019-07-31T09:57:51.108Z</time>
      </trkpt>
      <trkpt lat="43.01082" lon="-1.24451167">
        <ele>860.0</ele>
        <time>2019-07-31T09:57:52.114Z</time>
      </trkpt>
      <trkpt lat="43.01079833" lon="-1.24448833">
        <ele>859.0</ele>
        <time>2019-07-31T09:57:53.118Z</time>
      </trkpt>
      <trkpt lat="43.01078333" lon="-1.24447833">
        <ele>858.0</ele>
        <time>2019-07-31T09:57:54.124Z</time>
      </trkpt>
      <trkpt lat="43.010765" lon="-1.24447333">
        <ele>858.0</ele>
        <time>2019-07-31T09:57:55.128Z</time>
      </trkpt>
      <trkpt lat="43.01075333" lon="-1.24446333">
        <ele>858.0</ele>
        <time>2019-07-31T09:57:56.133Z</time>
      </trkpt>
      <trkpt lat="43.010745" lon="-1.24444333">
        <ele>858.0</ele>
        <time>2019-07-31T09:57:57.138Z</time>
      </trkpt>
      <trkpt lat="43.01073167" lon="-1.24442167">
        <ele>857.0</ele>
        <time>2019-07-31T09:57:58.143Z</time>
      </trkpt>
      <trkpt lat="43.010725" lon="-1.24440167">
        <ele>857.0</ele>
        <time>2019-07-31T09:57:59.145Z</time>
      </trkpt>
      <trkpt lat="43.01071667" lon="-1.244385">
        <ele>857.0</ele>
        <time>2019-07-31T09:58:00.150Z</time>
      </trkpt>
      <trkpt lat="43.01070833" lon="-1.24437">
        <ele>856.0</ele>
        <time>2019-07-31T09:58:01.156Z</time>
      </trkpt>
      <trkpt lat="43.010695" lon="-1.24435167">
        <ele>855.0</ele>
        <time>2019-07-31T09:58:02.162Z</time>
      </trkpt>
      <trkpt lat="43.010685" lon="-1.244335">
        <ele>855.0</ele>
        <time>2019-07-31T09:58:03.167Z</time>
      </trkpt>
      <trkpt lat="43.01067833" lon="-1.24431667">
        <ele>855.0</ele>
        <time>2019-07-31T09:58:04.172Z</time>
      </trkpt>
      <trkpt lat="43.01067667" lon="-1.24429833">
        <ele>854.0</ele>
        <time>2019-07-31T09:58:05.174Z</time>
      </trkpt>
      <trkpt lat="43.01066833" lon="-1.24428333">
        <ele>854.0</ele>
        <time>2019-07-31T09:58:06.178Z</time>
      </trkpt>
      <trkpt lat="43.01066" lon="-1.24426">
        <ele>853.0</ele>
        <time>2019-07-31T09:58:07.183Z</time>
      </trkpt>
      <trkpt lat="43.010655" lon="-1.24423833">
        <ele>853.0</ele>
        <time>2019-07-31T09:58:08.062Z</time>
      </trkpt>
      <trkpt lat="43.01065333" lon="-1.24421833">
        <ele>854.0</ele>
        <time>2019-07-31T09:58:09.066Z</time>
      </trkpt>
      <trkpt lat="43.01065167" lon="-1.24419333">
        <ele>854.0</ele>
        <time>2019-07-31T09:58:10.068Z</time>
      </trkpt>
      <trkpt lat="43.01064833" lon="-1.24417833">
        <ele>855.0</ele>
        <time>2019-07-31T09:58:11.075Z</time>
      </trkpt>
      <trkpt lat="43.01064667" lon="-1.24415667">
        <ele>856.0</ele>
        <time>2019-07-31T09:58:12.081Z</time>
      </trkpt>
      <trkpt lat="43.01065" lon="-1.24413667">
        <ele>856.0</ele>
        <time>2019-07-31T09:58:13.087Z</time>
      </trkpt>
      <trkpt lat="43.01065667" lon="-1.24411833">
        <ele>856.0</ele>
        <time>2019-07-31T09:58:14.095Z</time>
      </trkpt>
      <trkpt lat="43.01066333" lon="-1.24409333">
        <ele>856.0</ele>
        <time>2019-07-31T09:58:15.101Z</time>
      </trkpt>
      <trkpt lat="43.01066333" lon="-1.24407">
        <ele>856.0</ele>
        <time>2019-07-31T09:58:16.106Z</time>
      </trkpt>
      <trkpt lat="43.01066333" lon="-1.24404333">
        <ele>857.0</ele>
        <time>2019-07-31T09:58:17.113Z</time>
      </trkpt>
      <trkpt lat="43.01066333" lon="-1.24402167">
        <ele>857.0</ele>
        <time>2019-07-31T09:58:18.119Z</time>
      </trkpt>
      <trkpt lat="43.01066333" lon="-1.24399833">
        <ele>857.0</ele>
        <time>2019-07-31T09:58:19.124Z</time>
      </trkpt>
      <trkpt lat="43.01066167" lon="-1.24397833">
        <ele>857.0</ele>
        <time>2019-07-31T09:58:20.130Z</time>
      </trkpt>
      <trkpt lat="43.01066333" lon="-1.24395">
        <ele>858.0</ele>
        <time>2019-07-31T09:58:21.136Z</time>
      </trkpt>
      <trkpt lat="43.010665" lon="-1.24391833">
        <ele>858.0</ele>
        <time>2019-07-31T09:58:22.141Z</time>
      </trkpt>
      <trkpt lat="43.01065833" lon="-1.24390333">
        <ele>859.0</ele>
        <time>2019-07-31T09:58:23.147Z</time>
      </trkpt>
      <trkpt lat="43.01065833" lon="-1.24388">
        <ele>859.0</ele>
        <time>2019-07-31T09:58:24.153Z</time>
      </trkpt>
      <trkpt lat="43.01065667" lon="-1.24386">
        <ele>859.0</ele>
        <time>2019-07-31T09:58:25.159Z</time>
      </trkpt>
      <trkpt lat="43.01065" lon="-1.24385">
        <ele>859.0</ele>
        <time>2019-07-31T09:58:26.164Z</time>
      </trkpt>
      <trkpt lat="43.010635" lon="-1.24384">
        <ele>861.0</ele>
        <time>2019-07-31T09:58:27.167Z</time>
      </trkpt>
      <trkpt lat="43.01063167" lon="-1.24381667">
        <ele>861.0</ele>
        <time>2019-07-31T09:58:28.174Z</time>
      </trkpt>
      <trkpt lat="43.01062667" lon="-1.24379667">
        <ele>862.0</ele>
        <time>2019-07-31T09:58:29.180Z</time>
      </trkpt>
      <trkpt lat="43.010625" lon="-1.243775">
        <ele>861.0</ele>
        <time>2019-07-31T09:58:30.185Z</time>
      </trkpt>
      <trkpt lat="43.01062167" lon="-1.24374667">
        <ele>861.0</ele>
        <time>2019-07-31T09:58:31.065Z</time>
      </trkpt>
      <trkpt lat="43.01062333" lon="-1.24372167">
        <ele>862.0</ele>
        <time>2019-07-31T09:58:32.073Z</time>
      </trkpt>
      <trkpt lat="43.010625" lon="-1.24369833">
        <ele>862.0</ele>
        <time>2019-07-31T09:58:33.075Z</time>
      </trkpt>
      <trkpt lat="43.01062667" lon="-1.24367833">
        <ele>862.0</ele>
        <time>2019-07-31T09:58:34.081Z</time>
      </trkpt>
      <trkpt lat="43.01063" lon="-1.24365833">
        <ele>861.0</ele>
        <time>2019-07-31T09:58:35.087Z</time>
      </trkpt>
      <trkpt lat="43.01062833" lon="-1.24363667">
        <ele>861.0</ele>
        <time>2019-07-31T09:58:36.093Z</time>
      </trkpt>
      <trkpt lat="43.01062833" lon="-1.24361333">
        <ele>861.0</ele>
        <time>2019-07-31T09:58:37.097Z</time>
      </trkpt>
      <trkpt lat="43.01062833" lon="-1.24359">
        <ele>861.0</ele>
        <time>2019-07-31T09:58:38.102Z</time>
      </trkpt>
      <trkpt lat="43.01062667" lon="-1.243565">
        <ele>861.0</ele>
        <time>2019-07-31T09:58:39.109Z</time>
      </trkpt>
      <trkpt lat="43.01063" lon="-1.243535">
        <ele>860.0</ele>
        <time>2019-07-31T09:58:40.115Z</time>
      </trkpt>
      <trkpt lat="43.01063333" lon="-1.24350833">
        <ele>859.0</ele>
        <time>2019-07-31T09:58:41.120Z</time>
      </trkpt>
      <trkpt lat="43.01063333" lon="-1.24349">
        <ele>860.0</ele>
        <time>2019-07-31T09:58:42.125Z</time>
      </trkpt>
      <trkpt lat="43.010635" lon="-1.24346667">
        <ele>860.0</ele>
        <time>2019-07-31T09:58:43.130Z</time>
      </trkpt>
      <trkpt lat="43.01063167" lon="-1.243445">
        <ele>860.0</ele>
        <time>2019-07-31T09:58:44.135Z</time>
      </trkpt>
      <trkpt lat="43.01062833" lon="-1.24342667">
        <ele>859.0</ele>
        <time>2019-07-31T09:58:45.142Z</time>
      </trkpt>
      <trkpt lat="43.01062667" lon="-1.24341">
        <ele>858.0</ele>
        <time>2019-07-31T09:58:46.148Z</time>
      </trkpt>
      <trkpt lat="43.010625" lon="-1.24339">
        <ele>857.0</ele>
        <time>2019-07-31T09:58:47.154Z</time>
      </trkpt>
      <trkpt lat="43.010625" lon="-1.243365">
        <ele>857.0</ele>
        <time>2019-07-31T09:58:48.160Z</time>
      </trkpt>
      <trkpt lat="43.01062833" lon="-1.24334167">
        <ele>857.0</ele>
        <time>2019-07-31T09:58:49.164Z</time>
      </trkpt>
      <trkpt lat="43.01063167" lon="-1.24332333">
        <ele>857.0</ele>
        <time>2019-07-31T09:58:50.169Z</time>
      </trkpt>
      <trkpt lat="43.01062833" lon="-1.2433">
        <ele>857.0</ele>
        <time>2019-07-31T09:58:51.176Z</time>
      </trkpt>
      <trkpt lat="43.010625" lon="-1.243275">
        <ele>858.0</ele>
        <time>2019-07-31T09:58:52.181Z</time>
      </trkpt>
      <trkpt lat="43.01062" lon="-1.243245">
        <ele>858.0</ele>
        <time>2019-07-31T09:58:53.185Z</time>
      </trkpt>
      <trkpt lat="43.01061833" lon="-1.24322">
        <ele>859.0</ele>
        <time>2019-07-31T09:58:54.064Z</time>
      </trkpt>
      <trkpt lat="43.01061667" lon="-1.24319667">
        <ele>859.0</ele>
        <time>2019-07-31T09:58:55.071Z</time>
      </trkpt>
      <trkpt lat="43.01061333" lon="-1.24316833">
        <ele>859.0</ele>
        <time>2019-07-31T09:58:56.078Z</time>
      </trkpt>
      <trkpt lat="43.010615" lon="-1.24315">
        <ele>859.0</ele>
        <time>2019-07-31T09:58:57.083Z</time>
      </trkpt>
      <trkpt lat="43.01061333" lon="-1.24312333">
        <ele>858.0</ele>
        <time>2019-07-31T09:58:58.086Z</time>
      </trkpt>
      <trkpt lat="43.01061" lon="-1.24309167">
        <ele>859.0</ele>
        <time>2019-07-31T09:58:59.092Z</time>
      </trkpt>
      <trkpt lat="43.01061" lon="-1.24306667">
        <ele>860.0</ele>
        <time>2019-07-31T09:59:00.097Z</time>
      </trkpt>
      <trkpt lat="43.01061" lon="-1.24304833">
        <ele>860.0</ele>
        <time>2019-07-31T09:59:01.102Z</time>
      </trkpt>
      <trkpt lat="43.010615" lon="-1.24302">
        <ele>860.0</ele>
        <time>2019-07-31T09:59:02.106Z</time>
      </trkpt>
      <trkpt lat="43.010615" lon="-1.24299667">
        <ele>859.0</ele>
        <time>2019-07-31T09:59:03.110Z</time>
      </trkpt>
      <trkpt lat="43.01061667" lon="-1.24297">
        <ele>858.0</ele>
        <time>2019-07-31T09:59:04.114Z</time>
      </trkpt>
      <trkpt lat="43.01061667" lon="-1.242945">
        <ele>856.0</ele>
        <time>2019-07-31T09:59:05.120Z</time>
      </trkpt>
      <trkpt lat="43.01062" lon="-1.242925">
        <ele>856.0</ele>
        <time>2019-07-31T09:59:06.124Z</time>
      </trkpt>
      <trkpt lat="43.01062" lon="-1.242895">
        <ele>855.0</ele>
        <time>2019-07-31T09:59:07.126Z</time>
      </trkpt>
      <trkpt lat="43.01062167" lon="-1.24287667">
        <ele>855.0</ele>
        <time>2019-07-31T09:59:08.132Z</time>
      </trkpt>
      <trkpt lat="43.01061833" lon="-1.24285167">
        <ele>855.0</ele>
        <time>2019-07-31T09:59:09.136Z</time>
      </trkpt>
      <trkpt lat="43.01061833" lon="-1.24282833">
        <ele>855.0</ele>
        <time>2019-07-31T09:59:10.142Z</time>
      </trkpt>
      <trkpt lat="43.01062" lon="-1.242805">
        <ele>855.0</ele>
        <time>2019-07-31T09:59:11.148Z</time>
      </trkpt>
      <trkpt lat="43.01062167" lon="-1.24278167">
        <ele>855.0</ele>
        <time>2019-07-31T09:59:12.154Z</time>
      </trkpt>
      <trkpt lat="43.01062333" lon="-1.24275833">
        <ele>855.0</ele>
        <time>2019-07-31T09:59:13.160Z</time>
      </trkpt>
      <trkpt lat="43.010625" lon="-1.24273333">
        <ele>855.0</ele>
        <time>2019-07-31T09:59:14.165Z</time>
      </trkpt>
      <trkpt lat="43.01062833" lon="-1.242705">
        <ele>855.0</ele>
        <time>2019-07-31T09:59:15.170Z</time>
      </trkpt>
      <trkpt lat="43.01063" lon="-1.24268667">
        <ele>855.0</ele>
        <time>2019-07-31T09:59:16.176Z</time>
      </trkpt>
      <trkpt lat="43.01063167" lon="-1.24266333">
        <ele>855.0</ele>
        <time>2019-07-31T09:59:17.181Z</time>
      </trkpt>
      <trkpt lat="43.01063333" lon="-1.24263833">
        <ele>855.0</ele>
        <time>2019-07-31T09:59:18.062Z</time>
      </trkpt>
      <trkpt lat="43.01063333" lon="-1.24261667">
        <ele>856.0</ele>
        <time>2019-07-31T09:59:19.066Z</time>
      </trkpt>
      <trkpt lat="43.01063333" lon="-1.24259667">
        <ele>856.0</ele>
        <time>2019-07-31T09:59:20.073Z</time>
      </trkpt>
      <trkpt lat="43.01063667" lon="-1.24257167">
        <ele>856.0</ele>
        <time>2019-07-31T09:59:21.079Z</time>
      </trkpt>
      <trkpt lat="43.01064167" lon="-1.24254667">
        <ele>857.0</ele>
        <time>2019-07-31T09:59:22.083Z</time>
      </trkpt>
      <trkpt lat="43.010645" lon="-1.24252333">
        <ele>857.0</ele>
        <time>2019-07-31T09:59:23.090Z</time>
      </trkpt>
      <trkpt lat="43.010645" lon="-1.242505">
        <ele>858.0</ele>
        <time>2019-07-31T09:59:24.098Z</time>
      </trkpt>
      <trkpt lat="43.01064667" lon="-1.242485">
        <ele>859.0</ele>
        <time>2019-07-31T09:59:25.103Z</time>
      </trkpt>
      <trkpt lat="43.01064833" lon="-1.24246333">
        <ele>859.0</ele>
        <time>2019-07-31T09:59:26.109Z</time>
      </trkpt>
      <trkpt lat="43.01064833" lon="-1.24244333">
        <ele>859.0</ele>
        <time>2019-07-31T09:59:27.114Z</time>
      </trkpt>
      <trkpt lat="43.01065" lon="-1.24241667">
        <ele>859.0</ele>
        <time>2019-07-31T09:59:28.121Z</time>
      </trkpt>
      <trkpt lat="43.01065" lon="-1.24239833">
        <ele>858.0</ele>
        <time>2019-07-31T09:59:29.124Z</time>
      </trkpt>
      <trkpt lat="43.01065167" lon="-1.24237167">
        <ele>858.0</ele>
        <time>2019-07-31T09:59:30.128Z</time>
      </trkpt>
      <trkpt lat="43.01065333" lon="-1.24234833">
        <ele>859.0</ele>
        <time>2019-07-31T09:59:31.132Z</time>
      </trkpt>
      <trkpt lat="43.01065667" lon="-1.242325">
        <ele>859.0</ele>
        <time>2019-07-31T09:59:32.137Z</time>
      </trkpt>
      <trkpt lat="43.010665" lon="-1.2423">
        <ele>859.0</ele>
        <time>2019-07-31T09:59:33.143Z</time>
      </trkpt>
      <trkpt lat="43.01067167" lon="-1.24227833">
        <ele>859.0</ele>
        <time>2019-07-31T09:59:34.150Z</time>
      </trkpt>
      <trkpt lat="43.01067667" lon="-1.24226">
        <ele>860.0</ele>
        <time>2019-07-31T09:59:35.156Z</time>
      </trkpt>
      <trkpt lat="43.01068167" lon="-1.24223333">
        <ele>860.0</ele>
        <time>2019-07-31T09:59:36.162Z</time>
      </trkpt>
      <trkpt lat="43.01068333" lon="-1.24220833">
        <ele>860.0</ele>
        <time>2019-07-31T09:59:37.168Z</time>
      </trkpt>
      <trkpt lat="43.01068833" lon="-1.24218333">
        <ele>860.0</ele>
        <time>2019-07-31T09:59:38.174Z</time>
      </trkpt>
      <trkpt lat="43.01069167" lon="-1.24216667">
        <ele>860.0</ele>
        <time>2019-07-31T09:59:39.178Z</time>
      </trkpt>
      <trkpt lat="43.01069833" lon="-1.24214333">
        <ele>860.0</ele>
        <time>2019-07-31T09:59:40.181Z</time>
      </trkpt>
      <trkpt lat="43.01070333" lon="-1.24212">
        <ele>860.0</ele>
        <time>2019-07-31T09:59:41.062Z</time>
      </trkpt>
      <trkpt lat="43.010705" lon="-1.24210167">
        <ele>861.0</ele>
        <time>2019-07-31T09:59:42.067Z</time>
      </trkpt>
      <trkpt lat="43.01070833" lon="-1.24207667">
        <ele>861.0</ele>
        <time>2019-07-31T09:59:43.072Z</time>
      </trkpt>
      <trkpt lat="43.01070667" lon="-1.24205167">
        <ele>862.0</ele>
        <time>2019-07-31T09:59:44.076Z</time>
      </trkpt>
      <trkpt lat="43.01071333" lon="-1.242025">
        <ele>863.0</ele>
        <time>2019-07-31T09:59:45.082Z</time>
      </trkpt>
      <trkpt lat="43.01071833" lon="-1.24200333">
        <ele>863.0</ele>
        <time>2019-07-31T09:59:46.087Z</time>
      </trkpt>
      <trkpt lat="43.01072" lon="-1.241985">
        <ele>863.0</ele>
        <time>2019-07-31T09:59:47.095Z</time>
      </trkpt>
      <trkpt lat="43.01072" lon="-1.24196167">
        <ele>863.0</ele>
        <time>2019-07-31T09:59:48.101Z</time>
      </trkpt>
      <trkpt lat="43.01072333" lon="-1.24194">
        <ele>863.0</ele>
        <time>2019-07-31T09:59:49.107Z</time>
      </trkpt>
      <trkpt lat="43.01072333" lon="-1.241925">
        <ele>862.0</ele>
        <time>2019-07-31T09:59:50.112Z</time>
      </trkpt>
      <trkpt lat="43.01072833" lon="-1.241905">
        <ele>862.0</ele>
        <time>2019-07-31T09:59:51.117Z</time>
      </trkpt>
      <trkpt lat="43.01072833" lon="-1.24188167">
        <ele>861.0</ele>
        <time>2019-07-31T09:59:52.121Z</time>
      </trkpt>
      <trkpt lat="43.01072833" lon="-1.24186">
        <ele>860.0</ele>
        <time>2019-07-31T09:59:53.126Z</time>
      </trkpt>
      <trkpt lat="43.01073167" lon="-1.24183333">
        <ele>861.0</ele>
        <time>2019-07-31T09:59:54.133Z</time>
      </trkpt>
      <trkpt lat="43.01073" lon="-1.24181167">
        <ele>861.0</ele>
        <time>2019-07-31T09:59:55.137Z</time>
      </trkpt>
      <trkpt lat="43.01072833" lon="-1.24179">
        <ele>861.0</ele>
        <time>2019-07-31T09:59:56.143Z</time>
      </trkpt>
      <trkpt lat="43.01072" lon="-1.241775">
        <ele>861.0</ele>
        <time>2019-07-31T09:59:57.149Z</time>
      </trkpt>
      <trkpt lat="43.010715" lon="-1.24174833">
        <ele>860.0</ele>
        <time>2019-07-31T09:59:58.156Z</time>
      </trkpt>
      <trkpt lat="43.01070333" lon="-1.24173333">
        <ele>861.0</ele>
        <time>2019-07-31T09:59:59.163Z</time>
      </trkpt>
      <trkpt lat="43.01069667" lon="-1.241715">
        <ele>861.0</ele>
        <time>2019-07-31T10:00:00.167Z</time>
      </trkpt>
      <trkpt lat="43.01068333" lon="-1.24170167">
        <ele>860.0</ele>
        <time>2019-07-31T10:00:01.173Z</time>
      </trkpt>
      <trkpt lat="43.01067" lon="-1.24169">
        <ele>860.0</ele>
        <time>2019-07-31T10:00:02.179Z</time>
      </trkpt>
      <trkpt lat="43.01065333" lon="-1.24167">
        <ele>859.0</ele>
        <time>2019-07-31T10:00:03.183Z</time>
      </trkpt>
      <trkpt lat="43.01064333" lon="-1.24164667">
        <ele>859.0</ele>
        <time>2019-07-31T10:00:04.064Z</time>
      </trkpt>
      <trkpt lat="43.010635" lon="-1.24162667">
        <ele>858.0</ele>
        <time>2019-07-31T10:00:05.070Z</time>
      </trkpt>
      <trkpt lat="43.01062667" lon="-1.24160833">
        <ele>857.0</ele>
        <time>2019-07-31T10:00:06.075Z</time>
      </trkpt>
      <trkpt lat="43.01061833" lon="-1.24159167">
        <ele>857.0</ele>
        <time>2019-07-31T10:00:07.080Z</time>
      </trkpt>
      <trkpt lat="43.010605" lon="-1.241565">
        <ele>856.0</ele>
        <time>2019-07-31T10:00:08.086Z</time>
      </trkpt>
      <trkpt lat="43.01059333" lon="-1.241545">
        <ele>855.0</ele>
        <time>2019-07-31T10:00:09.093Z</time>
      </trkpt>
      <trkpt lat="43.010575" lon="-1.24153167">
        <ele>855.0</ele>
        <time>2019-07-31T10:00:10.099Z</time>
      </trkpt>
      <trkpt lat="43.01056167" lon="-1.24152">
        <ele>854.0</ele>
        <time>2019-07-31T10:00:11.105Z</time>
      </trkpt>
      <trkpt lat="43.01054" lon="-1.24150833">
        <ele>853.0</ele>
        <time>2019-07-31T10:00:12.110Z</time>
      </trkpt>
      <trkpt lat="43.01051833" lon="-1.24149167">
        <ele>852.0</ele>
        <time>2019-07-31T10:00:13.116Z</time>
      </trkpt>
      <trkpt lat="43.010505" lon="-1.241475">
        <ele>851.0</ele>
        <time>2019-07-31T10:00:14.122Z</time>
      </trkpt>
      <trkpt lat="43.01048833" lon="-1.24146333">
        <ele>851.0</ele>
        <time>2019-07-31T10:00:15.125Z</time>
      </trkpt>
      <trkpt lat="43.01047333" lon="-1.24145">
        <ele>850.0</ele>
        <time>2019-07-31T10:00:16.129Z</time>
      </trkpt>
      <trkpt lat="43.01045333" lon="-1.24142667">
        <ele>850.0</ele>
        <time>2019-07-31T10:00:17.135Z</time>
      </trkpt>
      <trkpt lat="43.01044333" lon="-1.24141167">
        <ele>849.0</ele>
        <time>2019-07-31T10:00:18.141Z</time>
      </trkpt>
      <trkpt lat="43.010435" lon="-1.2414">
        <ele>848.0</ele>
        <time>2019-07-31T10:00:19.147Z</time>
      </trkpt>
      <trkpt lat="43.010425" lon="-1.24138">
        <ele>849.0</ele>
        <time>2019-07-31T10:00:20.151Z</time>
      </trkpt>
      <trkpt lat="43.01041333" lon="-1.24136667">
        <ele>850.0</ele>
        <time>2019-07-31T10:00:21.154Z</time>
      </trkpt>
      <trkpt lat="43.01039333" lon="-1.241345">
        <ele>850.0</ele>
        <time>2019-07-31T10:00:22.158Z</time>
      </trkpt>
      <trkpt lat="43.010375" lon="-1.24132833">
        <ele>850.0</ele>
        <time>2019-07-31T10:00:23.165Z</time>
      </trkpt>
      <trkpt lat="43.010355" lon="-1.24131333">
        <ele>850.0</ele>
        <time>2019-07-31T10:00:24.168Z</time>
      </trkpt>
      <trkpt lat="43.01033833" lon="-1.2413">
        <ele>851.0</ele>
        <time>2019-07-31T10:00:25.173Z</time>
      </trkpt>
      <trkpt lat="43.01032333" lon="-1.24128167">
        <ele>852.0</ele>
        <time>2019-07-31T10:00:26.179Z</time>
      </trkpt>
      <trkpt lat="43.01030833" lon="-1.24125833">
        <ele>853.0</ele>
        <time>2019-07-31T10:00:27.183Z</time>
      </trkpt>
      <trkpt lat="43.01029333" lon="-1.24123833">
        <ele>852.0</ele>
        <time>2019-07-31T10:00:28.064Z</time>
      </trkpt>
      <trkpt lat="43.01027833" lon="-1.24122333">
        <ele>853.0</ele>
        <time>2019-07-31T10:00:29.070Z</time>
      </trkpt>
      <trkpt lat="43.01027333" lon="-1.24120833">
        <ele>853.0</ele>
        <time>2019-07-31T10:00:30.077Z</time>
      </trkpt>
      <trkpt lat="43.01025667" lon="-1.24118667">
        <ele>852.0</ele>
        <time>2019-07-31T10:00:31.083Z</time>
      </trkpt>
      <trkpt lat="43.010245" lon="-1.24117167">
        <ele>852.0</ele>
        <time>2019-07-31T10:00:32.089Z</time>
      </trkpt>
      <trkpt lat="43.01024333" lon="-1.24115667">
        <ele>851.0</ele>
        <time>2019-07-31T10:00:33.094Z</time>
      </trkpt>
      <trkpt lat="43.01023667" lon="-1.241145">
        <ele>851.0</ele>
        <time>2019-07-31T10:00:34.101Z</time>
      </trkpt>
      <trkpt lat="43.010215" lon="-1.24113833">
        <ele>850.0</ele>
        <time>2019-07-31T10:00:35.108Z</time>
      </trkpt>
      <trkpt lat="43.0102" lon="-1.24113">
        <ele>849.0</ele>
        <time>2019-07-31T10:00:36.114Z</time>
      </trkpt>
      <trkpt lat="43.01018667" lon="-1.24112167">
        <ele>848.0</ele>
        <time>2019-07-31T10:00:37.119Z</time>
      </trkpt>
      <trkpt lat="43.01017167" lon="-1.24111333">
        <ele>847.0</ele>
        <time>2019-07-31T10:00:38.123Z</time>
      </trkpt>
      <trkpt lat="43.01015667" lon="-1.241105">
        <ele>847.0</ele>
        <time>2019-07-31T10:00:39.128Z</time>
      </trkpt>
      <trkpt lat="43.01014167" lon="-1.24109667">
        <ele>847.0</ele>
        <time>2019-07-31T10:00:40.133Z</time>
      </trkpt>
      <trkpt lat="43.01012667" lon="-1.241085">
        <ele>846.0</ele>
        <time>2019-07-31T10:00:41.139Z</time>
      </trkpt>
      <trkpt lat="43.01011333" lon="-1.24107333">
        <ele>846.0</ele>
        <time>2019-07-31T10:00:42.145Z</time>
      </trkpt>
      <trkpt lat="43.01010167" lon="-1.24106167">
        <ele>846.0</ele>
        <time>2019-07-31T10:00:43.150Z</time>
      </trkpt>
      <trkpt lat="43.01009333" lon="-1.24104667">
        <ele>846.0</ele>
        <time>2019-07-31T10:00:44.155Z</time>
      </trkpt>
      <trkpt lat="43.01008167" lon="-1.24103">
        <ele>845.0</ele>
        <time>2019-07-31T10:00:45.160Z</time>
      </trkpt>
      <trkpt lat="43.01007333" lon="-1.24101167">
        <ele>845.0</ele>
        <time>2019-07-31T10:00:46.164Z</time>
      </trkpt>
      <trkpt lat="43.01006333" lon="-1.240995">
        <ele>845.0</ele>
        <time>2019-07-31T10:00:47.167Z</time>
      </trkpt>
      <trkpt lat="43.01005667" lon="-1.24097333">
        <ele>845.0</ele>
        <time>2019-07-31T10:00:48.174Z</time>
      </trkpt>
      <trkpt lat="43.01004833" lon="-1.24095833">
        <ele>845.0</ele>
        <time>2019-07-31T10:00:49.181Z</time>
      </trkpt>
      <trkpt lat="43.01003833" lon="-1.240945">
        <ele>845.0</ele>
        <time>2019-07-31T10:00:50.186Z</time>
      </trkpt>
      <trkpt lat="43.01002833" lon="-1.24092833">
        <ele>845.0</ele>
        <time>2019-07-31T10:00:51.067Z</time>
      </trkpt>
      <trkpt lat="43.01001833" lon="-1.24090667">
        <ele>844.0</ele>
        <time>2019-07-31T10:00:52.073Z</time>
      </trkpt>
      <trkpt lat="43.01000833" lon="-1.24088833">
        <ele>844.0</ele>
        <time>2019-07-31T10:00:53.081Z</time>
      </trkpt>
      <trkpt lat="43.01000167" lon="-1.24087167">
        <ele>843.0</ele>
        <time>2019-07-31T10:00:54.087Z</time>
      </trkpt>
      <trkpt lat="43.00999333" lon="-1.24086">
        <ele>843.0</ele>
        <time>2019-07-31T10:00:55.093Z</time>
      </trkpt>
      <trkpt lat="43.00999167" lon="-1.24084167">
        <ele>844.0</ele>
        <time>2019-07-31T10:00:56.098Z</time>
      </trkpt>
      <trkpt lat="43.00998333" lon="-1.240835">
        <ele>843.0</ele>
        <time>2019-07-31T10:00:57.102Z</time>
      </trkpt>
      <trkpt lat="43.00997667" lon="-1.24081333">
        <ele>844.0</ele>
        <time>2019-07-31T10:00:58.107Z</time>
      </trkpt>
      <trkpt lat="43.009975" lon="-1.240795">
        <ele>844.0</ele>
        <time>2019-07-31T10:00:59.114Z</time>
      </trkpt>
      <trkpt lat="43.009975" lon="-1.24077167">
        <ele>844.0</ele>
        <time>2019-07-31T10:01:00.118Z</time>
      </trkpt>
      <trkpt lat="43.00997167" lon="-1.24075">
        <ele>844.0</ele>
        <time>2019-07-31T10:01:01.124Z</time>
      </trkpt>
      <trkpt lat="43.009965" lon="-1.24073">
        <ele>844.0</ele>
        <time>2019-07-31T10:01:02.130Z</time>
      </trkpt>
      <trkpt lat="43.00995" lon="-1.24070167">
        <ele>844.0</ele>
        <time>2019-07-31T10:01:03.137Z</time>
      </trkpt>
      <trkpt lat="43.00993833" lon="-1.24068">
        <ele>843.0</ele>
        <time>2019-07-31T10:01:04.141Z</time>
      </trkpt>
      <trkpt lat="43.009935" lon="-1.24065333">
        <ele>843.0</ele>
        <time>2019-07-31T10:01:05.147Z</time>
      </trkpt>
      <trkpt lat="43.00992667" lon="-1.24063333">
        <ele>842.0</ele>
        <time>2019-07-31T10:01:06.152Z</time>
      </trkpt>
      <trkpt lat="43.00992167" lon="-1.240615">
        <ele>843.0</ele>
        <time>2019-07-31T10:01:07.156Z</time>
      </trkpt>
      <trkpt lat="43.00991667" lon="-1.24059667">
        <ele>844.0</ele>
        <time>2019-07-31T10:01:08.160Z</time>
      </trkpt>
      <trkpt lat="43.00990833" lon="-1.24058167">
        <ele>844.0</ele>
        <time>2019-07-31T10:01:09.165Z</time>
      </trkpt>
      <trkpt lat="43.0099" lon="-1.24056667">
        <ele>843.0</ele>
        <time>2019-07-31T10:01:10.171Z</time>
      </trkpt>
      <trkpt lat="43.00989333" lon="-1.240555">
        <ele>844.0</ele>
        <time>2019-07-31T10:01:11.177Z</time>
      </trkpt>
      <trkpt lat="43.009885" lon="-1.240535">
        <ele>844.0</ele>
        <time>2019-07-31T10:01:12.182Z</time>
      </trkpt>
      <trkpt lat="43.00987333" lon="-1.24051333">
        <ele>844.0</ele>
        <time>2019-07-31T10:01:13.184Z</time>
      </trkpt>
      <trkpt lat="43.00986833" lon="-1.240495">
        <ele>844.0</ele>
        <time>2019-07-31T10:01:14.063Z</time>
      </trkpt>
      <trkpt lat="43.00986833" lon="-1.24047833">
        <ele>844.0</ele>
        <time>2019-07-31T10:01:15.068Z</time>
      </trkpt>
      <trkpt lat="43.00986667" lon="-1.24045833">
        <ele>844.0</ele>
        <time>2019-07-31T10:01:16.073Z</time>
      </trkpt>
      <trkpt lat="43.00986833" lon="-1.240435">
        <ele>844.0</ele>
        <time>2019-07-31T10:01:17.078Z</time>
      </trkpt>
      <trkpt lat="43.00986667" lon="-1.240415">
        <ele>844.0</ele>
        <time>2019-07-31T10:01:18.079Z</time>
      </trkpt>
      <trkpt lat="43.00986667" lon="-1.24039333">
        <ele>844.0</ele>
        <time>2019-07-31T10:01:19.083Z</time>
      </trkpt>
      <trkpt lat="43.009865" lon="-1.24037333">
        <ele>845.0</ele>
        <time>2019-07-31T10:01:20.090Z</time>
      </trkpt>
      <trkpt lat="43.00986167" lon="-1.24035667">
        <ele>845.0</ele>
        <time>2019-07-31T10:01:21.095Z</time>
      </trkpt>
      <trkpt lat="43.00985333" lon="-1.24033167">
        <ele>845.0</ele>
        <time>2019-07-31T10:01:22.101Z</time>
      </trkpt>
      <trkpt lat="43.00985167" lon="-1.240315">
        <ele>846.0</ele>
        <time>2019-07-31T10:01:23.108Z</time>
      </trkpt>
      <trkpt lat="43.00985" lon="-1.24028833">
        <ele>846.0</ele>
        <time>2019-07-31T10:01:24.114Z</time>
      </trkpt>
      <trkpt lat="43.00984667" lon="-1.24026333">
        <ele>846.0</ele>
        <time>2019-07-31T10:01:25.118Z</time>
      </trkpt>
      <trkpt lat="43.00984667" lon="-1.240245">
        <ele>847.0</ele>
        <time>2019-07-31T10:01:26.124Z</time>
      </trkpt>
      <trkpt lat="43.00984667" lon="-1.24022">
        <ele>847.0</ele>
        <time>2019-07-31T10:01:27.127Z</time>
      </trkpt>
      <trkpt lat="43.00984667" lon="-1.24019833">
        <ele>847.0</ele>
        <time>2019-07-31T10:01:28.132Z</time>
      </trkpt>
      <trkpt lat="43.00984667" lon="-1.24017833">
        <ele>847.0</ele>
        <time>2019-07-31T10:01:29.136Z</time>
      </trkpt>
      <trkpt lat="43.00985" lon="-1.24016333">
        <ele>848.0</ele>
        <time>2019-07-31T10:01:30.141Z</time>
      </trkpt>
      <trkpt lat="43.00985167" lon="-1.24013833">
        <ele>848.0</ele>
        <time>2019-07-31T10:01:31.146Z</time>
      </trkpt>
      <trkpt lat="43.00986" lon="-1.24012">
        <ele>849.0</ele>
        <time>2019-07-31T10:01:32.152Z</time>
      </trkpt>
      <trkpt lat="43.00986667" lon="-1.24010167">
        <ele>850.0</ele>
        <time>2019-07-31T10:01:33.157Z</time>
      </trkpt>
      <trkpt lat="43.00987333" lon="-1.240085">
        <ele>851.0</ele>
        <time>2019-07-31T10:01:34.164Z</time>
      </trkpt>
      <trkpt lat="43.00988167" lon="-1.24007">
        <ele>851.0</ele>
        <time>2019-07-31T10:01:35.168Z</time>
      </trkpt>
      <trkpt lat="43.00988667" lon="-1.24005167">
        <ele>852.0</ele>
        <time>2019-07-31T10:01:36.172Z</time>
      </trkpt>
      <trkpt lat="43.00989167" lon="-1.24003">
        <ele>852.0</ele>
        <time>2019-07-31T10:01:37.179Z</time>
      </trkpt>
      <trkpt lat="43.00989833" lon="-1.24001">
        <ele>852.0</ele>
        <time>2019-07-31T10:01:38.061Z</time>
      </trkpt>
      <trkpt lat="43.009905" lon="-1.239995">
        <ele>852.0</ele>
        <time>2019-07-31T10:01:39.067Z</time>
      </trkpt>
      <trkpt lat="43.00991167" lon="-1.23997333">
        <ele>852.0</ele>
        <time>2019-07-31T10:01:40.073Z</time>
      </trkpt>
      <trkpt lat="43.00992667" lon="-1.23995167">
        <ele>852.0</ele>
        <time>2019-07-31T10:01:41.080Z</time>
      </trkpt>
      <trkpt lat="43.00993333" lon="-1.23994">
        <ele>852.0</ele>
        <time>2019-07-31T10:01:42.084Z</time>
      </trkpt>
      <trkpt lat="43.009945" lon="-1.23992333">
        <ele>852.0</ele>
        <time>2019-07-31T10:01:43.091Z</time>
      </trkpt>
      <trkpt lat="43.009955" lon="-1.23990833">
        <ele>852.0</ele>
        <time>2019-07-31T10:01:44.098Z</time>
      </trkpt>
      <trkpt lat="43.00996667" lon="-1.23989167">
        <ele>852.0</ele>
        <time>2019-07-31T10:01:45.103Z</time>
      </trkpt>
      <trkpt lat="43.009975" lon="-1.23987333">
        <ele>852.0</ele>
        <time>2019-07-31T10:01:46.107Z</time>
      </trkpt>
      <trkpt lat="43.009985" lon="-1.23986167">
        <ele>853.0</ele>
        <time>2019-07-31T10:01:47.113Z</time>
      </trkpt>
      <trkpt lat="43.00999167" lon="-1.23984833">
        <ele>853.0</ele>
        <time>2019-07-31T10:01:48.122Z</time>
      </trkpt>
      <trkpt lat="43.01000333" lon="-1.23983833">
        <ele>854.0</ele>
        <time>2019-07-31T10:01:49.126Z</time>
      </trkpt>
      <trkpt lat="43.01001" lon="-1.23983">
        <ele>854.0</ele>
        <time>2019-07-31T10:01:50.131Z</time>
      </trkpt>
      <trkpt lat="43.01002" lon="-1.23981833">
        <ele>855.0</ele>
        <time>2019-07-31T10:01:51.137Z</time>
      </trkpt>
      <trkpt lat="43.01003667" lon="-1.23980833">
        <ele>856.0</ele>
        <time>2019-07-31T10:01:52.143Z</time>
      </trkpt>
      <trkpt lat="43.01004667" lon="-1.23980333">
        <ele>857.0</ele>
        <time>2019-07-31T10:01:53.148Z</time>
      </trkpt>
      <trkpt lat="43.01006667" lon="-1.239795">
        <ele>858.0</ele>
        <time>2019-07-31T10:01:54.150Z</time>
      </trkpt>
      <trkpt lat="43.01008667" lon="-1.239785">
        <ele>859.0</ele>
        <time>2019-07-31T10:01:55.152Z</time>
      </trkpt>
      <trkpt lat="43.01010167" lon="-1.23978167">
        <ele>860.0</ele>
        <time>2019-07-31T10:01:56.154Z</time>
      </trkpt>
      <trkpt lat="43.010115" lon="-1.23977667">
        <ele>861.0</ele>
        <time>2019-07-31T10:01:57.158Z</time>
      </trkpt>
      <trkpt lat="43.01012333" lon="-1.23977167">
        <ele>862.0</ele>
        <time>2019-07-31T10:01:58.162Z</time>
      </trkpt>
      <trkpt lat="43.010135" lon="-1.23976333">
        <ele>862.0</ele>
        <time>2019-07-31T10:01:59.166Z</time>
      </trkpt>
      <trkpt lat="43.010145" lon="-1.23975167">
        <ele>862.0</ele>
        <time>2019-07-31T10:02:00.170Z</time>
      </trkpt>
      <trkpt lat="43.01015167" lon="-1.239745">
        <ele>863.0</ele>
        <time>2019-07-31T10:02:01.174Z</time>
      </trkpt>
      <trkpt lat="43.01016667" lon="-1.23974333">
        <ele>864.0</ele>
        <time>2019-07-31T10:02:02.180Z</time>
      </trkpt>
      <trkpt lat="43.01018167" lon="-1.23974667">
        <ele>865.0</ele>
        <time>2019-07-31T10:02:03.061Z</time>
      </trkpt>
      <trkpt lat="43.0102" lon="-1.23975167">
        <ele>867.0</ele>
        <time>2019-07-31T10:02:04.069Z</time>
      </trkpt>
      <trkpt lat="43.010215" lon="-1.23975667">
        <ele>868.0</ele>
        <time>2019-07-31T10:02:05.075Z</time>
      </trkpt>
      <trkpt lat="43.01022833" lon="-1.23976167">
        <ele>869.0</ele>
        <time>2019-07-31T10:02:06.081Z</time>
      </trkpt>
      <trkpt lat="43.01024167" lon="-1.23976667">
        <ele>871.0</ele>
        <time>2019-07-31T10:02:07.085Z</time>
      </trkpt>
      <trkpt lat="43.01026" lon="-1.23976833">
        <ele>873.0</ele>
        <time>2019-07-31T10:02:08.090Z</time>
      </trkpt>
      <trkpt lat="43.01027333" lon="-1.23977">
        <ele>874.0</ele>
        <time>2019-07-31T10:02:09.097Z</time>
      </trkpt>
      <trkpt lat="43.010285" lon="-1.23977667">
        <ele>875.0</ele>
        <time>2019-07-31T10:02:10.102Z</time>
      </trkpt>
      <trkpt lat="43.01030167" lon="-1.23978">
        <ele>875.0</ele>
        <time>2019-07-31T10:02:11.106Z</time>
      </trkpt>
      <trkpt lat="43.01031333" lon="-1.23978">
        <ele>875.0</ele>
        <time>2019-07-31T10:02:12.111Z</time>
      </trkpt>
      <trkpt lat="43.01033833" lon="-1.23978333">
        <ele>875.0</ele>
        <time>2019-07-31T10:02:13.119Z</time>
      </trkpt>
      <trkpt lat="43.010355" lon="-1.239785">
        <ele>876.0</ele>
        <time>2019-07-31T10:02:14.124Z</time>
      </trkpt>
      <trkpt lat="43.01036667" lon="-1.23979">
        <ele>876.0</ele>
        <time>2019-07-31T10:02:15.129Z</time>
      </trkpt>
      <trkpt lat="43.01037833" lon="-1.239795">
        <ele>876.0</ele>
        <time>2019-07-31T10:02:16.134Z</time>
      </trkpt>
      <trkpt lat="43.01038833" lon="-1.2398">
        <ele>876.0</ele>
        <time>2019-07-31T10:02:17.140Z</time>
      </trkpt>
      <trkpt lat="43.01040167" lon="-1.23980167">
        <ele>875.0</ele>
        <time>2019-07-31T10:02:18.145Z</time>
      </trkpt>
      <trkpt lat="43.01041" lon="-1.23980333">
        <ele>875.0</ele>
        <time>2019-07-31T10:02:19.150Z</time>
      </trkpt>
      <trkpt lat="43.010425" lon="-1.23980167">
        <ele>875.0</ele>
        <time>2019-07-31T10:02:20.156Z</time>
      </trkpt>
      <trkpt lat="43.01043833" lon="-1.23979667">
        <ele>875.0</ele>
        <time>2019-07-31T10:02:21.161Z</time>
      </trkpt>
      <trkpt lat="43.01045" lon="-1.23978667">
        <ele>875.0</ele>
        <time>2019-07-31T10:02:22.163Z</time>
      </trkpt>
      <trkpt lat="43.010465" lon="-1.23977333">
        <ele>875.0</ele>
        <time>2019-07-31T10:02:23.168Z</time>
      </trkpt>
      <trkpt lat="43.01048" lon="-1.239765">
        <ele>874.0</ele>
        <time>2019-07-31T10:02:24.175Z</time>
      </trkpt>
      <trkpt lat="43.0105" lon="-1.23975833">
        <ele>874.0</ele>
        <time>2019-07-31T10:02:25.180Z</time>
      </trkpt>
      <trkpt lat="43.01051333" lon="-1.23975667">
        <ele>874.0</ele>
        <time>2019-07-31T10:02:26.061Z</time>
      </trkpt>
      <trkpt lat="43.01053" lon="-1.23975167">
        <ele>873.0</ele>
        <time>2019-07-31T10:02:27.067Z</time>
      </trkpt>
      <trkpt lat="43.01053667" lon="-1.23974833">
        <ele>873.0</ele>
        <time>2019-07-31T10:02:28.073Z</time>
      </trkpt>
      <trkpt lat="43.01054333" lon="-1.23974833">
        <ele>872.0</ele>
        <time>2019-07-31T10:02:29.079Z</time>
      </trkpt>
      <trkpt lat="43.01055167" lon="-1.23974667">
        <ele>872.0</ele>
        <time>2019-07-31T10:02:30.084Z</time>
      </trkpt>
      <trkpt lat="43.01056333" lon="-1.23974333">
        <ele>872.0</ele>
        <time>2019-07-31T10:02:31.090Z</time>
      </trkpt>
      <trkpt lat="43.01057833" lon="-1.23973667">
        <ele>871.0</ele>
        <time>2019-07-31T10:02:32.097Z</time>
      </trkpt>
      <trkpt lat="43.01059167" lon="-1.23973333">
        <ele>871.0</ele>
        <time>2019-07-31T10:02:33.103Z</time>
      </trkpt>
      <trkpt lat="43.01060667" lon="-1.23973">
        <ele>871.0</ele>
        <time>2019-07-31T10:02:34.110Z</time>
      </trkpt>
      <trkpt lat="43.01062" lon="-1.23972333">
        <ele>872.0</ele>
        <time>2019-07-31T10:02:35.116Z</time>
      </trkpt>
      <trkpt lat="43.01063833" lon="-1.23971667">
        <ele>872.0</ele>
        <time>2019-07-31T10:02:36.122Z</time>
      </trkpt>
      <trkpt lat="43.01065333" lon="-1.23970667">
        <ele>873.0</ele>
        <time>2019-07-31T10:02:37.125Z</time>
      </trkpt>
      <trkpt lat="43.01067167" lon="-1.23969333">
        <ele>872.0</ele>
        <time>2019-07-31T10:02:38.130Z</time>
      </trkpt>
      <trkpt lat="43.010685" lon="-1.23968333">
        <ele>872.0</ele>
        <time>2019-07-31T10:02:39.136Z</time>
      </trkpt>
      <trkpt lat="43.01069667" lon="-1.23967667">
        <ele>872.0</ele>
        <time>2019-07-31T10:02:40.142Z</time>
      </trkpt>
      <trkpt lat="43.01071333" lon="-1.23966333">
        <ele>871.0</ele>
        <time>2019-07-31T10:02:41.147Z</time>
      </trkpt>
      <trkpt lat="43.01072833" lon="-1.239645">
        <ele>871.0</ele>
        <time>2019-07-31T10:02:42.152Z</time>
      </trkpt>
      <trkpt lat="43.01074" lon="-1.239625">
        <ele>871.0</ele>
        <time>2019-07-31T10:02:43.155Z</time>
      </trkpt>
      <trkpt lat="43.01075" lon="-1.23960833">
        <ele>871.0</ele>
        <time>2019-07-31T10:02:44.159Z</time>
      </trkpt>
      <trkpt lat="43.010765" lon="-1.239595">
        <ele>871.0</ele>
        <time>2019-07-31T10:02:45.165Z</time>
      </trkpt>
      <trkpt lat="43.01077667" lon="-1.239585">
        <ele>871.0</ele>
        <time>2019-07-31T10:02:46.170Z</time>
      </trkpt>
      <trkpt lat="43.010785" lon="-1.23957">
        <ele>869.0</ele>
        <time>2019-07-31T10:02:47.175Z</time>
      </trkpt>
      <trkpt lat="43.01079333" lon="-1.23955333">
        <ele>868.0</ele>
        <time>2019-07-31T10:02:48.181Z</time>
      </trkpt>
      <trkpt lat="43.01080667" lon="-1.23953667">
        <ele>867.0</ele>
        <time>2019-07-31T10:02:49.185Z</time>
      </trkpt>
      <trkpt lat="43.01082333" lon="-1.239515">
        <ele>867.0</ele>
        <time>2019-07-31T10:02:50.064Z</time>
      </trkpt>
      <trkpt lat="43.01083333" lon="-1.23949833">
        <ele>866.0</ele>
        <time>2019-07-31T10:02:51.070Z</time>
      </trkpt>
      <trkpt lat="43.01084333" lon="-1.23948">
        <ele>866.0</ele>
        <time>2019-07-31T10:02:52.077Z</time>
      </trkpt>
      <trkpt lat="43.01085333" lon="-1.239465">
        <ele>864.0</ele>
        <time>2019-07-31T10:02:53.083Z</time>
      </trkpt>
      <trkpt lat="43.01086667" lon="-1.23943333">
        <ele>864.0</ele>
        <time>2019-07-31T10:02:54.089Z</time>
      </trkpt>
      <trkpt lat="43.01087167" lon="-1.23941">
        <ele>865.0</ele>
        <time>2019-07-31T10:02:55.096Z</time>
      </trkpt>
      <trkpt lat="43.01088" lon="-1.23938667">
        <ele>865.0</ele>
        <time>2019-07-31T10:02:56.103Z</time>
      </trkpt>
      <trkpt lat="43.01088667" lon="-1.23936">
        <ele>865.0</ele>
        <time>2019-07-31T10:02:57.110Z</time>
      </trkpt>
      <trkpt lat="43.01089667" lon="-1.23933667">
        <ele>864.0</ele>
        <time>2019-07-31T10:02:58.117Z</time>
      </trkpt>
      <trkpt lat="43.0109" lon="-1.23932">
        <ele>863.0</ele>
        <time>2019-07-31T10:02:59.123Z</time>
      </trkpt>
      <trkpt lat="43.01090833" lon="-1.23930167">
        <ele>862.0</ele>
        <time>2019-07-31T10:03:00.127Z</time>
      </trkpt>
      <trkpt lat="43.01092" lon="-1.23928667">
        <ele>862.0</ele>
        <time>2019-07-31T10:03:01.131Z</time>
      </trkpt>
      <trkpt lat="43.010935" lon="-1.23927">
        <ele>863.0</ele>
        <time>2019-07-31T10:03:02.136Z</time>
      </trkpt>
      <trkpt lat="43.01094667" lon="-1.23925333">
        <ele>864.0</ele>
        <time>2019-07-31T10:03:03.141Z</time>
      </trkpt>
      <trkpt lat="43.01096" lon="-1.23922667">
        <ele>864.0</ele>
        <time>2019-07-31T10:03:04.147Z</time>
      </trkpt>
      <trkpt lat="43.01097" lon="-1.23920167">
        <ele>864.0</ele>
        <time>2019-07-31T10:03:05.153Z</time>
      </trkpt>
      <trkpt lat="43.010975" lon="-1.23918333">
        <ele>864.0</ele>
        <time>2019-07-31T10:03:06.158Z</time>
      </trkpt>
      <trkpt lat="43.010995" lon="-1.239155">
        <ele>865.0</ele>
        <time>2019-07-31T10:03:07.162Z</time>
      </trkpt>
      <trkpt lat="43.01101333" lon="-1.23912833">
        <ele>865.0</ele>
        <time>2019-07-31T10:03:08.166Z</time>
      </trkpt>
      <trkpt lat="43.01102833" lon="-1.23910667">
        <ele>865.0</ele>
        <time>2019-07-31T10:03:09.172Z</time>
      </trkpt>
      <trkpt lat="43.01104667" lon="-1.23909333">
        <ele>866.0</ele>
        <time>2019-07-31T10:03:10.178Z</time>
      </trkpt>
      <trkpt lat="43.01105667" lon="-1.23907667">
        <ele>866.0</ele>
        <time>2019-07-31T10:03:11.182Z</time>
      </trkpt>
      <trkpt lat="43.01106333" lon="-1.23906167">
        <ele>867.0</ele>
        <time>2019-07-31T10:03:12.063Z</time>
      </trkpt>
      <trkpt lat="43.011075" lon="-1.23903167">
        <ele>869.0</ele>
        <time>2019-07-31T10:03:13.069Z</time>
      </trkpt>
      <trkpt lat="43.01108" lon="-1.239">
        <ele>869.0</ele>
        <time>2019-07-31T10:03:14.077Z</time>
      </trkpt>
      <trkpt lat="43.01108167" lon="-1.23898333">
        <ele>869.0</ele>
        <time>2019-07-31T10:03:15.082Z</time>
      </trkpt>
      <trkpt lat="43.01107667" lon="-1.23897167">
        <ele>870.0</ele>
        <time>2019-07-31T10:03:16.088Z</time>
      </trkpt>
      <trkpt lat="43.01107667" lon="-1.23896">
        <ele>870.0</ele>
        <time>2019-07-31T10:03:17.095Z</time>
      </trkpt>
      <trkpt lat="43.01108" lon="-1.238945">
        <ele>871.0</ele>
        <time>2019-07-31T10:03:18.102Z</time>
      </trkpt>
      <trkpt lat="43.01108167" lon="-1.23892667">
        <ele>871.0</ele>
        <time>2019-07-31T10:03:19.108Z</time>
      </trkpt>
      <trkpt lat="43.01108333" lon="-1.23890833">
        <ele>871.0</ele>
        <time>2019-07-31T10:03:20.115Z</time>
      </trkpt>
      <trkpt lat="43.01108333" lon="-1.238895">
        <ele>872.0</ele>
        <time>2019-07-31T10:03:21.118Z</time>
      </trkpt>
      <trkpt lat="43.01108333" lon="-1.23887833">
        <ele>872.0</ele>
        <time>2019-07-31T10:03:22.123Z</time>
      </trkpt>
      <trkpt lat="43.011085" lon="-1.23886">
        <ele>872.0</ele>
        <time>2019-07-31T10:03:23.126Z</time>
      </trkpt>
      <trkpt lat="43.011085" lon="-1.23884167">
        <ele>873.0</ele>
        <time>2019-07-31T10:03:24.130Z</time>
      </trkpt>
      <trkpt lat="43.01108667" lon="-1.23882333">
        <ele>874.0</ele>
        <time>2019-07-31T10:03:25.135Z</time>
      </trkpt>
      <trkpt lat="43.01108833" lon="-1.23880667">
        <ele>874.0</ele>
        <time>2019-07-31T10:03:26.139Z</time>
      </trkpt>
      <trkpt lat="43.01109333" lon="-1.23878333">
        <ele>875.0</ele>
        <time>2019-07-31T10:03:27.146Z</time>
      </trkpt>
      <trkpt lat="43.01109833" lon="-1.23876667">
        <ele>875.0</ele>
        <time>2019-07-31T10:03:28.150Z</time>
      </trkpt>
      <trkpt lat="43.01110167" lon="-1.23874833">
        <ele>875.0</ele>
        <time>2019-07-31T10:03:29.153Z</time>
      </trkpt>
      <trkpt lat="43.01110167" lon="-1.23873167">
        <ele>876.0</ele>
        <time>2019-07-31T10:03:30.158Z</time>
      </trkpt>
      <trkpt lat="43.01110167" lon="-1.238715">
        <ele>876.0</ele>
        <time>2019-07-31T10:03:31.162Z</time>
      </trkpt>
      <trkpt lat="43.01110167" lon="-1.23869833">
        <ele>878.0</ele>
        <time>2019-07-31T10:03:32.166Z</time>
      </trkpt>
      <trkpt lat="43.01109667" lon="-1.23869">
        <ele>879.0</ele>
        <time>2019-07-31T10:03:33.173Z</time>
      </trkpt>
      <trkpt lat="43.01109" lon="-1.23867333">
        <ele>880.0</ele>
        <time>2019-07-31T10:03:34.178Z</time>
      </trkpt>
      <trkpt lat="43.01109167" lon="-1.23865333">
        <ele>880.0</ele>
        <time>2019-07-31T10:03:35.183Z</time>
      </trkpt>
      <trkpt lat="43.01109667" lon="-1.23863167">
        <ele>880.0</ele>
        <time>2019-07-31T10:03:36.062Z</time>
      </trkpt>
      <trkpt lat="43.01110167" lon="-1.23860667">
        <ele>880.0</ele>
        <time>2019-07-31T10:03:37.070Z</time>
      </trkpt>
      <trkpt lat="43.0111" lon="-1.23858333">
        <ele>880.0</ele>
        <time>2019-07-31T10:03:38.076Z</time>
      </trkpt>
      <trkpt lat="43.01109167" lon="-1.23856333">
        <ele>880.0</ele>
        <time>2019-07-31T10:03:39.083Z</time>
      </trkpt>
      <trkpt lat="43.01108833" lon="-1.23854667">
        <ele>881.0</ele>
        <time>2019-07-31T10:03:40.086Z</time>
      </trkpt>
      <trkpt lat="43.01109" lon="-1.23853">
        <ele>880.0</ele>
        <time>2019-07-31T10:03:41.091Z</time>
      </trkpt>
      <trkpt lat="43.01109833" lon="-1.238515">
        <ele>881.0</ele>
        <time>2019-07-31T10:03:42.096Z</time>
      </trkpt>
      <trkpt lat="43.01111" lon="-1.2385">
        <ele>881.0</ele>
        <time>2019-07-31T10:03:43.101Z</time>
      </trkpt>
      <trkpt lat="43.011115" lon="-1.23848833">
        <ele>881.0</ele>
        <time>2019-07-31T10:03:44.105Z</time>
      </trkpt>
      <trkpt lat="43.01111167" lon="-1.23846833">
        <ele>881.0</ele>
        <time>2019-07-31T10:03:45.111Z</time>
      </trkpt>
      <trkpt lat="43.011115" lon="-1.23844667">
        <ele>881.0</ele>
        <time>2019-07-31T10:03:46.115Z</time>
      </trkpt>
      <trkpt lat="43.01111667" lon="-1.23842667">
        <ele>880.0</ele>
        <time>2019-07-31T10:03:47.120Z</time>
      </trkpt>
      <trkpt lat="43.01111833" lon="-1.23840167">
        <ele>879.0</ele>
        <time>2019-07-31T10:03:48.123Z</time>
      </trkpt>
      <trkpt lat="43.01112833" lon="-1.23838167">
        <ele>879.0</ele>
        <time>2019-07-31T10:03:49.126Z</time>
      </trkpt>
      <trkpt lat="43.01113333" lon="-1.23835667">
        <ele>880.0</ele>
        <time>2019-07-31T10:03:50.134Z</time>
      </trkpt>
      <trkpt lat="43.01113833" lon="-1.23833667">
        <ele>879.0</ele>
        <time>2019-07-31T10:03:51.140Z</time>
      </trkpt>
      <trkpt lat="43.01114333" lon="-1.23832167">
        <ele>878.0</ele>
        <time>2019-07-31T10:03:52.145Z</time>
      </trkpt>
      <trkpt lat="43.01115167" lon="-1.23829667">
        <ele>877.0</ele>
        <time>2019-07-31T10:03:53.149Z</time>
      </trkpt>
      <trkpt lat="43.01115333" lon="-1.23827">
        <ele>876.0</ele>
        <time>2019-07-31T10:03:54.155Z</time>
      </trkpt>
      <trkpt lat="43.01115833" lon="-1.238255">
        <ele>875.0</ele>
        <time>2019-07-31T10:03:55.160Z</time>
      </trkpt>
      <trkpt lat="43.01115833" lon="-1.23823667">
        <ele>874.0</ele>
        <time>2019-07-31T10:03:56.164Z</time>
      </trkpt>
      <trkpt lat="43.01115167" lon="-1.23821833">
        <ele>873.0</ele>
        <time>2019-07-31T10:03:57.168Z</time>
      </trkpt>
      <trkpt lat="43.01114667" lon="-1.238195">
        <ele>872.0</ele>
        <time>2019-07-31T10:03:58.174Z</time>
      </trkpt>
      <trkpt lat="43.011145" lon="-1.23816833">
        <ele>872.0</ele>
        <time>2019-07-31T10:03:59.180Z</time>
      </trkpt>
      <trkpt lat="43.01114833" lon="-1.23815">
        <ele>872.0</ele>
        <time>2019-07-31T10:04:00.061Z</time>
      </trkpt>
      <trkpt lat="43.01115" lon="-1.23813333">
        <ele>872.0</ele>
        <time>2019-07-31T10:04:01.065Z</time>
      </trkpt>
      <trkpt lat="43.01115333" lon="-1.23811167">
        <ele>871.0</ele>
        <time>2019-07-31T10:04:02.069Z</time>
      </trkpt>
      <trkpt lat="43.01115667" lon="-1.23809333">
        <ele>872.0</ele>
        <time>2019-07-31T10:04:03.073Z</time>
      </trkpt>
      <trkpt lat="43.011155" lon="-1.23806833">
        <ele>871.0</ele>
        <time>2019-07-31T10:04:04.079Z</time>
      </trkpt>
      <trkpt lat="43.01116" lon="-1.238045">
        <ele>870.0</ele>
        <time>2019-07-31T10:04:05.083Z</time>
      </trkpt>
      <trkpt lat="43.01116667" lon="-1.23802167">
        <ele>869.0</ele>
        <time>2019-07-31T10:04:06.088Z</time>
      </trkpt>
      <trkpt lat="43.01117167" lon="-1.238">
        <ele>869.0</ele>
        <time>2019-07-31T10:04:07.094Z</time>
      </trkpt>
      <trkpt lat="43.011175" lon="-1.23797667">
        <ele>868.0</ele>
        <time>2019-07-31T10:04:08.101Z</time>
      </trkpt>
      <trkpt lat="43.01117667" lon="-1.237955">
        <ele>867.0</ele>
        <time>2019-07-31T10:04:09.107Z</time>
      </trkpt>
      <trkpt lat="43.01117667" lon="-1.23793">
        <ele>866.0</ele>
        <time>2019-07-31T10:04:10.114Z</time>
      </trkpt>
      <trkpt lat="43.01117667" lon="-1.237905">
        <ele>866.0</ele>
        <time>2019-07-31T10:04:11.121Z</time>
      </trkpt>
      <trkpt lat="43.01117667" lon="-1.237885">
        <ele>865.0</ele>
        <time>2019-07-31T10:04:12.125Z</time>
      </trkpt>
      <trkpt lat="43.01117667" lon="-1.23786">
        <ele>865.0</ele>
        <time>2019-07-31T10:04:13.131Z</time>
      </trkpt>
      <trkpt lat="43.01117667" lon="-1.23784167">
        <ele>864.0</ele>
        <time>2019-07-31T10:04:14.137Z</time>
      </trkpt>
      <trkpt lat="43.01117833" lon="-1.23781667">
        <ele>863.0</ele>
        <time>2019-07-31T10:04:15.144Z</time>
      </trkpt>
      <trkpt lat="43.01118167" lon="-1.23779833">
        <ele>863.0</ele>
        <time>2019-07-31T10:04:16.148Z</time>
      </trkpt>
      <trkpt lat="43.011185" lon="-1.237785">
        <ele>863.0</ele>
        <time>2019-07-31T10:04:17.153Z</time>
      </trkpt>
      <trkpt lat="43.011185" lon="-1.23776667">
        <ele>863.0</ele>
        <time>2019-07-31T10:04:18.158Z</time>
      </trkpt>
      <trkpt lat="43.01118667" lon="-1.23775167">
        <ele>863.0</ele>
        <time>2019-07-31T10:04:19.164Z</time>
      </trkpt>
      <trkpt lat="43.01118833" lon="-1.237735">
        <ele>864.0</ele>
        <time>2019-07-31T10:04:20.167Z</time>
      </trkpt>
      <trkpt lat="43.01118667" lon="-1.237715">
        <ele>863.0</ele>
        <time>2019-07-31T10:04:21.173Z</time>
      </trkpt>
      <trkpt lat="43.01118167" lon="-1.23769333">
        <ele>863.0</ele>
        <time>2019-07-31T10:04:22.181Z</time>
      </trkpt>
      <trkpt lat="43.01117667" lon="-1.23767833">
        <ele>862.0</ele>
        <time>2019-07-31T10:04:23.061Z</time>
      </trkpt>
      <trkpt lat="43.01117" lon="-1.237655">
        <ele>861.0</ele>
        <time>2019-07-31T10:04:24.067Z</time>
      </trkpt>
      <trkpt lat="43.01117" lon="-1.23763667">
        <ele>861.0</ele>
        <time>2019-07-31T10:04:25.072Z</time>
      </trkpt>
      <trkpt lat="43.01117167" lon="-1.23761833">
        <ele>860.0</ele>
        <time>2019-07-31T10:04:26.076Z</time>
      </trkpt>
      <trkpt lat="43.01117" lon="-1.23759667">
        <ele>860.0</ele>
        <time>2019-07-31T10:04:27.081Z</time>
      </trkpt>
      <trkpt lat="43.01117167" lon="-1.237575">
        <ele>860.0</ele>
        <time>2019-07-31T10:04:28.085Z</time>
      </trkpt>
      <trkpt lat="43.011175" lon="-1.23755167">
        <ele>860.0</ele>
        <time>2019-07-31T10:04:29.092Z</time>
      </trkpt>
      <trkpt lat="43.01118" lon="-1.237525">
        <ele>859.0</ele>
        <time>2019-07-31T10:04:30.097Z</time>
      </trkpt>
      <trkpt lat="43.01117833" lon="-1.23750167">
        <ele>859.0</ele>
        <time>2019-07-31T10:04:31.102Z</time>
      </trkpt>
      <trkpt lat="43.011175" lon="-1.23747667">
        <ele>859.0</ele>
        <time>2019-07-31T10:04:32.109Z</time>
      </trkpt>
      <trkpt lat="43.01117" lon="-1.237455">
        <ele>859.0</ele>
        <time>2019-07-31T10:04:33.114Z</time>
      </trkpt>
      <trkpt lat="43.011165" lon="-1.237435">
        <ele>859.0</ele>
        <time>2019-07-31T10:04:34.116Z</time>
      </trkpt>
      <trkpt lat="43.01116" lon="-1.23741667">
        <ele>859.0</ele>
        <time>2019-07-31T10:04:35.121Z</time>
      </trkpt>
      <trkpt lat="43.011155" lon="-1.23739833">
        <ele>860.0</ele>
        <time>2019-07-31T10:04:36.125Z</time>
      </trkpt>
      <trkpt lat="43.01115" lon="-1.23738167">
        <ele>861.0</ele>
        <time>2019-07-31T10:04:37.132Z</time>
      </trkpt>
      <trkpt lat="43.01114833" lon="-1.23736167">
        <ele>862.0</ele>
        <time>2019-07-31T10:04:38.137Z</time>
      </trkpt>
      <trkpt lat="43.01114667" lon="-1.23733833">
        <ele>861.0</ele>
        <time>2019-07-31T10:04:39.142Z</time>
      </trkpt>
      <trkpt lat="43.011145" lon="-1.23731167">
        <ele>860.0</ele>
        <time>2019-07-31T10:04:40.145Z</time>
      </trkpt>
      <trkpt lat="43.01114" lon="-1.237285">
        <ele>861.0</ele>
        <time>2019-07-31T10:04:41.151Z</time>
      </trkpt>
      <trkpt lat="43.01113167" lon="-1.23725833">
        <ele>861.0</ele>
        <time>2019-07-31T10:04:42.158Z</time>
      </trkpt>
      <trkpt lat="43.01112333" lon="-1.23723333">
        <ele>860.0</ele>
        <time>2019-07-31T10:04:43.161Z</time>
      </trkpt>
      <trkpt lat="43.01110667" lon="-1.23721667">
        <ele>859.0</ele>
        <time>2019-07-31T10:04:44.166Z</time>
      </trkpt>
      <trkpt lat="43.01109167" lon="-1.23719167">
        <ele>859.0</ele>
        <time>2019-07-31T10:04:45.170Z</time>
      </trkpt>
      <trkpt lat="43.011085" lon="-1.23716">
        <ele>858.0</ele>
        <time>2019-07-31T10:04:46.175Z</time>
      </trkpt>
      <trkpt lat="43.01107833" lon="-1.237135">
        <ele>857.0</ele>
        <time>2019-07-31T10:04:47.179Z</time>
      </trkpt>
      <trkpt lat="43.01106667" lon="-1.23711333">
        <ele>856.0</ele>
        <time>2019-07-31T10:04:48.182Z</time>
      </trkpt>
      <trkpt lat="43.011055" lon="-1.237095">
        <ele>857.0</ele>
        <time>2019-07-31T10:04:49.062Z</time>
      </trkpt>
      <trkpt lat="43.01105" lon="-1.23706667">
        <ele>857.0</ele>
        <time>2019-07-31T10:04:50.070Z</time>
      </trkpt>
      <trkpt lat="43.01104167" lon="-1.23704">
        <ele>858.0</ele>
        <time>2019-07-31T10:04:51.076Z</time>
      </trkpt>
      <trkpt lat="43.01103333" lon="-1.23701833">
        <ele>858.0</ele>
        <time>2019-07-31T10:04:52.081Z</time>
      </trkpt>
      <trkpt lat="43.01103" lon="-1.23700167">
        <ele>860.0</ele>
        <time>2019-07-31T10:04:53.087Z</time>
      </trkpt>
      <trkpt lat="43.011015" lon="-1.23699167">
        <ele>861.0</ele>
        <time>2019-07-31T10:04:54.093Z</time>
      </trkpt>
      <trkpt lat="43.01100167" lon="-1.23698167">
        <ele>863.0</ele>
        <time>2019-07-31T10:04:55.098Z</time>
      </trkpt>
      <trkpt lat="43.01099333" lon="-1.23696667">
        <ele>864.0</ele>
        <time>2019-07-31T10:04:56.103Z</time>
      </trkpt>
      <trkpt lat="43.01098667" lon="-1.23695">
        <ele>864.0</ele>
        <time>2019-07-31T10:04:57.107Z</time>
      </trkpt>
      <trkpt lat="43.01098667" lon="-1.23693333">
        <ele>865.0</ele>
        <time>2019-07-31T10:04:58.112Z</time>
      </trkpt>
      <trkpt lat="43.01098333" lon="-1.23691667">
        <ele>865.0</ele>
        <time>2019-07-31T10:04:59.117Z</time>
      </trkpt>
      <trkpt lat="43.01098167" lon="-1.23689667">
        <ele>866.0</ele>
        <time>2019-07-31T10:05:00.121Z</time>
      </trkpt>
      <trkpt lat="43.01097833" lon="-1.23687833">
        <ele>866.0</ele>
        <time>2019-07-31T10:05:01.126Z</time>
      </trkpt>
      <trkpt lat="43.010975" lon="-1.236855">
        <ele>866.0</ele>
        <time>2019-07-31T10:05:02.131Z</time>
      </trkpt>
      <trkpt lat="43.01097167" lon="-1.23683167">
        <ele>866.0</ele>
        <time>2019-07-31T10:05:03.139Z</time>
      </trkpt>
      <trkpt lat="43.01097" lon="-1.23680667">
        <ele>865.0</ele>
        <time>2019-07-31T10:05:04.145Z</time>
      </trkpt>
      <trkpt lat="43.01097167" lon="-1.23678167">
        <ele>865.0</ele>
        <time>2019-07-31T10:05:05.151Z</time>
      </trkpt>
      <trkpt lat="43.01097333" lon="-1.23675833">
        <ele>865.0</ele>
        <time>2019-07-31T10:05:06.157Z</time>
      </trkpt>
      <trkpt lat="43.01097" lon="-1.236735">
        <ele>865.0</ele>
        <time>2019-07-31T10:05:07.163Z</time>
      </trkpt>
      <trkpt lat="43.01097" lon="-1.23671">
        <ele>865.0</ele>
        <time>2019-07-31T10:05:08.168Z</time>
      </trkpt>
      <trkpt lat="43.01097" lon="-1.23668667">
        <ele>865.0</ele>
        <time>2019-07-31T10:05:09.171Z</time>
      </trkpt>
      <trkpt lat="43.01097167" lon="-1.23666333">
        <ele>865.0</ele>
        <time>2019-07-31T10:05:10.177Z</time>
      </trkpt>
      <trkpt lat="43.01097333" lon="-1.23664333">
        <ele>865.0</ele>
        <time>2019-07-31T10:05:11.183Z</time>
      </trkpt>
      <trkpt lat="43.010975" lon="-1.23662333">
        <ele>865.0</ele>
        <time>2019-07-31T10:05:12.063Z</time>
      </trkpt>
      <trkpt lat="43.01098" lon="-1.2366">
        <ele>865.0</ele>
        <time>2019-07-31T10:05:13.066Z</time>
      </trkpt>
      <trkpt lat="43.01098333" lon="-1.23657667">
        <ele>864.0</ele>
        <time>2019-07-31T10:05:14.069Z</time>
      </trkpt>
      <trkpt lat="43.01098667" lon="-1.236555">
        <ele>865.0</ele>
        <time>2019-07-31T10:05:15.075Z</time>
      </trkpt>
      <trkpt lat="43.010985" lon="-1.23653167">
        <ele>866.0</ele>
        <time>2019-07-31T10:05:16.081Z</time>
      </trkpt>
      <trkpt lat="43.01098333" lon="-1.23650833">
        <ele>866.0</ele>
        <time>2019-07-31T10:05:17.085Z</time>
      </trkpt>
      <trkpt lat="43.01098" lon="-1.23648333">
        <ele>866.0</ele>
        <time>2019-07-31T10:05:18.091Z</time>
      </trkpt>
      <trkpt lat="43.01098333" lon="-1.23645667">
        <ele>866.0</ele>
        <time>2019-07-31T10:05:19.096Z</time>
      </trkpt>
      <trkpt lat="43.01098667" lon="-1.23643667">
        <ele>865.0</ele>
        <time>2019-07-31T10:05:20.102Z</time>
      </trkpt>
      <trkpt lat="43.01098833" lon="-1.23641167">
        <ele>864.0</ele>
        <time>2019-07-31T10:05:21.108Z</time>
      </trkpt>
      <trkpt lat="43.01099167" lon="-1.23638">
        <ele>863.0</ele>
        <time>2019-07-31T10:05:22.114Z</time>
      </trkpt>
      <trkpt lat="43.01098833" lon="-1.23635333">
        <ele>862.0</ele>
        <time>2019-07-31T10:05:23.119Z</time>
      </trkpt>
      <trkpt lat="43.01098833" lon="-1.23632667">
        <ele>862.0</ele>
        <time>2019-07-31T10:05:24.124Z</time>
      </trkpt>
      <trkpt lat="43.01099" lon="-1.2363">
        <ele>861.0</ele>
        <time>2019-07-31T10:05:25.126Z</time>
      </trkpt>
      <trkpt lat="43.010995" lon="-1.236275">
        <ele>861.0</ele>
        <time>2019-07-31T10:05:26.131Z</time>
      </trkpt>
      <trkpt lat="43.01099667" lon="-1.23624667">
        <ele>860.0</ele>
        <time>2019-07-31T10:05:27.135Z</time>
      </trkpt>
      <trkpt lat="43.01100333" lon="-1.23622167">
        <ele>859.0</ele>
        <time>2019-07-31T10:05:28.142Z</time>
      </trkpt>
      <trkpt lat="43.01101167" lon="-1.2362">
        <ele>859.0</ele>
        <time>2019-07-31T10:05:29.148Z</time>
      </trkpt>
      <trkpt lat="43.01102667" lon="-1.236175">
        <ele>858.0</ele>
        <time>2019-07-31T10:05:30.151Z</time>
      </trkpt>
      <trkpt lat="43.01104" lon="-1.23615667">
        <ele>858.0</ele>
        <time>2019-07-31T10:05:31.154Z</time>
      </trkpt>
      <trkpt lat="43.01105667" lon="-1.23614">
        <ele>860.0</ele>
        <time>2019-07-31T10:05:32.160Z</time>
      </trkpt>
      <trkpt lat="43.011075" lon="-1.23612">
        <ele>861.0</ele>
        <time>2019-07-31T10:05:33.164Z</time>
      </trkpt>
      <trkpt lat="43.01108833" lon="-1.23610833">
        <ele>861.0</ele>
        <time>2019-07-31T10:05:34.166Z</time>
      </trkpt>
      <trkpt lat="43.0111" lon="-1.23610333">
        <ele>861.0</ele>
        <time>2019-07-31T10:05:35.171Z</time>
      </trkpt>
      <trkpt lat="43.01110833" lon="-1.23608833">
        <ele>862.0</ele>
        <time>2019-07-31T10:05:36.176Z</time>
      </trkpt>
      <trkpt lat="43.01110833" lon="-1.23606333">
        <ele>863.0</ele>
        <time>2019-07-31T10:05:37.180Z</time>
      </trkpt>
      <trkpt lat="43.011105" lon="-1.23604">
        <ele>864.0</ele>
        <time>2019-07-31T10:05:38.186Z</time>
      </trkpt>
      <trkpt lat="43.01110333" lon="-1.23601">
        <ele>866.0</ele>
        <time>2019-07-31T10:05:39.065Z</time>
      </trkpt>
      <trkpt lat="43.011095" lon="-1.23598667">
        <ele>867.0</ele>
        <time>2019-07-31T10:05:40.071Z</time>
      </trkpt>
      <trkpt lat="43.01109667" lon="-1.23594667">
        <ele>868.0</ele>
        <time>2019-07-31T10:05:41.078Z</time>
      </trkpt>
      <trkpt lat="43.01110167" lon="-1.23591667">
        <ele>868.0</ele>
        <time>2019-07-31T10:05:42.080Z</time>
      </trkpt>
      <trkpt lat="43.01111" lon="-1.23588667">
        <ele>869.0</ele>
        <time>2019-07-31T10:05:43.086Z</time>
      </trkpt>
      <trkpt lat="43.011115" lon="-1.235855">
        <ele>868.0</ele>
        <time>2019-07-31T10:05:44.094Z</time>
      </trkpt>
      <trkpt lat="43.01111167" lon="-1.23583">
        <ele>868.0</ele>
        <time>2019-07-31T10:05:45.100Z</time>
      </trkpt>
      <trkpt lat="43.01111" lon="-1.23582">
        <ele>867.0</ele>
        <time>2019-07-31T10:05:46.104Z</time>
      </trkpt>
      <trkpt lat="43.01111" lon="-1.2358">
        <ele>864.0</ele>
        <time>2019-07-31T10:05:47.108Z</time>
      </trkpt>
      <trkpt lat="43.01110833" lon="-1.23578667">
        <ele>863.0</ele>
        <time>2019-07-31T10:05:48.113Z</time>
      </trkpt>
      <trkpt lat="43.01111333" lon="-1.23575833">
        <ele>862.0</ele>
        <time>2019-07-31T10:05:49.120Z</time>
      </trkpt>
      <trkpt lat="43.01111167" lon="-1.23573333">
        <ele>861.0</ele>
        <time>2019-07-31T10:05:50.123Z</time>
      </trkpt>
      <trkpt lat="43.01111333" lon="-1.23570667">
        <ele>859.0</ele>
        <time>2019-07-31T10:05:51.125Z</time>
      </trkpt>
      <trkpt lat="43.01112" lon="-1.23568">
        <ele>858.0</ele>
        <time>2019-07-31T10:05:52.129Z</time>
      </trkpt>
      <trkpt lat="43.011125" lon="-1.23565667">
        <ele>858.0</ele>
        <time>2019-07-31T10:05:53.131Z</time>
      </trkpt>
      <trkpt lat="43.011125" lon="-1.23563667">
        <ele>857.0</ele>
        <time>2019-07-31T10:05:54.134Z</time>
      </trkpt>
      <trkpt lat="43.011125" lon="-1.23561667">
        <ele>857.0</ele>
        <time>2019-07-31T10:05:55.140Z</time>
      </trkpt>
      <trkpt lat="43.01112167" lon="-1.23559833">
        <ele>856.0</ele>
        <time>2019-07-31T10:05:56.147Z</time>
      </trkpt>
      <trkpt lat="43.01112333" lon="-1.23558">
        <ele>855.0</ele>
        <time>2019-07-31T10:05:57.152Z</time>
      </trkpt>
      <trkpt lat="43.01112667" lon="-1.23556">
        <ele>855.0</ele>
        <time>2019-07-31T10:05:58.158Z</time>
      </trkpt>
      <trkpt lat="43.01112833" lon="-1.23553833">
        <ele>855.0</ele>
        <time>2019-07-31T10:05:59.165Z</time>
      </trkpt>
      <trkpt lat="43.01113" lon="-1.23552">
        <ele>855.0</ele>
        <time>2019-07-31T10:06:00.168Z</time>
      </trkpt>
      <trkpt lat="43.011135" lon="-1.23550167">
        <ele>855.0</ele>
        <time>2019-07-31T10:06:01.172Z</time>
      </trkpt>
      <trkpt lat="43.01114" lon="-1.235485">
        <ele>855.0</ele>
        <time>2019-07-31T10:06:02.177Z</time>
      </trkpt>
      <trkpt lat="43.01114167" lon="-1.23547167">
        <ele>855.0</ele>
        <time>2019-07-31T10:06:03.182Z</time>
      </trkpt>
      <trkpt lat="43.01114" lon="-1.23546167">
        <ele>856.0</ele>
        <time>2019-07-31T10:06:04.062Z</time>
      </trkpt>
      <trkpt lat="43.01114333" lon="-1.235445">
        <ele>856.0</ele>
        <time>2019-07-31T10:06:05.068Z</time>
      </trkpt>
      <trkpt lat="43.01114833" lon="-1.235425">
        <ele>856.0</ele>
        <time>2019-07-31T10:06:06.075Z</time>
      </trkpt>
      <trkpt lat="43.01115333" lon="-1.2354">
        <ele>856.0</ele>
        <time>2019-07-31T10:06:07.081Z</time>
      </trkpt>
      <trkpt lat="43.01115667" lon="-1.23538">
        <ele>857.0</ele>
        <time>2019-07-31T10:06:08.087Z</time>
      </trkpt>
      <trkpt lat="43.01115333" lon="-1.23536333">
        <ele>858.0</ele>
        <time>2019-07-31T10:06:09.092Z</time>
      </trkpt>
      <trkpt lat="43.01114333" lon="-1.23535">
        <ele>858.0</ele>
        <time>2019-07-31T10:06:10.096Z</time>
      </trkpt>
      <trkpt lat="43.01113167" lon="-1.23533667">
        <ele>859.0</ele>
        <time>2019-07-31T10:06:11.102Z</time>
      </trkpt>
      <trkpt lat="43.01112167" lon="-1.23532">
        <ele>860.0</ele>
        <time>2019-07-31T10:06:12.107Z</time>
      </trkpt>
      <trkpt lat="43.01111667" lon="-1.23529667">
        <ele>859.0</ele>
        <time>2019-07-31T10:06:13.111Z</time>
      </trkpt>
      <trkpt lat="43.01111167" lon="-1.23527667">
        <ele>858.0</ele>
        <time>2019-07-31T10:06:14.115Z</time>
      </trkpt>
      <trkpt lat="43.01111167" lon="-1.235255">
        <ele>858.0</ele>
        <time>2019-07-31T10:06:15.117Z</time>
      </trkpt>
      <trkpt lat="43.01111167" lon="-1.23522667">
        <ele>859.0</ele>
        <time>2019-07-31T10:06:16.122Z</time>
      </trkpt>
      <trkpt lat="43.01111167" lon="-1.23520167">
        <ele>860.0</ele>
        <time>2019-07-31T10:06:17.129Z</time>
      </trkpt>
      <trkpt lat="43.01111667" lon="-1.23517667">
        <ele>860.0</ele>
        <time>2019-07-31T10:06:18.134Z</time>
      </trkpt>
      <trkpt lat="43.011115" lon="-1.23515667">
        <ele>862.0</ele>
        <time>2019-07-31T10:06:19.139Z</time>
      </trkpt>
      <trkpt lat="43.01111333" lon="-1.23514333">
        <ele>862.0</ele>
        <time>2019-07-31T10:06:20.144Z</time>
      </trkpt>
      <trkpt lat="43.01111333" lon="-1.23513">
        <ele>863.0</ele>
        <time>2019-07-31T10:06:21.149Z</time>
      </trkpt>
      <trkpt lat="43.01111833" lon="-1.23510833">
        <ele>864.0</ele>
        <time>2019-07-31T10:06:22.153Z</time>
      </trkpt>
      <trkpt lat="43.011125" lon="-1.23508167">
        <ele>865.0</ele>
        <time>2019-07-31T10:06:23.158Z</time>
      </trkpt>
      <trkpt lat="43.01112833" lon="-1.23505833">
        <ele>865.0</ele>
        <time>2019-07-31T10:06:24.165Z</time>
      </trkpt>
      <trkpt lat="43.01113333" lon="-1.23503667">
        <ele>864.0</ele>
        <time>2019-07-31T10:06:25.171Z</time>
      </trkpt>
      <trkpt lat="43.01113667" lon="-1.23501167">
        <ele>864.0</ele>
        <time>2019-07-31T10:06:26.176Z</time>
      </trkpt>
      <trkpt lat="43.011145" lon="-1.23499167">
        <ele>865.0</ele>
        <time>2019-07-31T10:06:27.179Z</time>
      </trkpt>
      <trkpt lat="43.01114833" lon="-1.23497167">
        <ele>864.0</ele>
        <time>2019-07-31T10:06:28.185Z</time>
      </trkpt>
      <trkpt lat="43.01115" lon="-1.23495">
        <ele>865.0</ele>
        <time>2019-07-31T10:06:29.065Z</time>
      </trkpt>
      <trkpt lat="43.01114833" lon="-1.23493">
        <ele>865.0</ele>
        <time>2019-07-31T10:06:30.072Z</time>
      </trkpt>
      <trkpt lat="43.01114833" lon="-1.234905">
        <ele>865.0</ele>
        <time>2019-07-31T10:06:31.079Z</time>
      </trkpt>
      <trkpt lat="43.01115" lon="-1.23487667">
        <ele>865.0</ele>
        <time>2019-07-31T10:06:32.084Z</time>
      </trkpt>
      <trkpt lat="43.011155" lon="-1.23485167">
        <ele>865.0</ele>
        <time>2019-07-31T10:06:33.089Z</time>
      </trkpt>
      <trkpt lat="43.01115333" lon="-1.23483">
        <ele>865.0</ele>
        <time>2019-07-31T10:06:34.095Z</time>
      </trkpt>
      <trkpt lat="43.01114667" lon="-1.23481">
        <ele>866.0</ele>
        <time>2019-07-31T10:06:35.101Z</time>
      </trkpt>
      <trkpt lat="43.01114" lon="-1.23479">
        <ele>866.0</ele>
        <time>2019-07-31T10:06:36.108Z</time>
      </trkpt>
      <trkpt lat="43.01113833" lon="-1.23476">
        <ele>868.0</ele>
        <time>2019-07-31T10:06:37.113Z</time>
      </trkpt>
      <trkpt lat="43.01114167" lon="-1.23473667">
        <ele>869.0</ele>
        <time>2019-07-31T10:06:38.120Z</time>
      </trkpt>
      <trkpt lat="43.01114667" lon="-1.234715">
        <ele>870.0</ele>
        <time>2019-07-31T10:06:39.126Z</time>
      </trkpt>
      <trkpt lat="43.01114167" lon="-1.23469333">
        <ele>870.0</ele>
        <time>2019-07-31T10:06:40.130Z</time>
      </trkpt>
      <trkpt lat="43.01114" lon="-1.23467833">
        <ele>871.0</ele>
        <time>2019-07-31T10:06:41.136Z</time>
      </trkpt>
      <trkpt lat="43.01114333" lon="-1.23465167">
        <ele>872.0</ele>
        <time>2019-07-31T10:06:42.141Z</time>
      </trkpt>
      <trkpt lat="43.01115167" lon="-1.23462167">
        <ele>872.0</ele>
        <time>2019-07-31T10:06:43.144Z</time>
      </trkpt>
      <trkpt lat="43.01116167" lon="-1.23459167">
        <ele>872.0</ele>
        <time>2019-07-31T10:06:44.146Z</time>
      </trkpt>
      <trkpt lat="43.01116833" lon="-1.23456833">
        <ele>871.0</ele>
        <time>2019-07-31T10:06:45.148Z</time>
      </trkpt>
      <trkpt lat="43.011165" lon="-1.23455">
        <ele>871.0</ele>
        <time>2019-07-31T10:06:46.153Z</time>
      </trkpt>
      <trkpt lat="43.01117" lon="-1.23452833">
        <ele>871.0</ele>
        <time>2019-07-31T10:06:47.158Z</time>
      </trkpt>
      <trkpt lat="43.01117833" lon="-1.23451">
        <ele>871.0</ele>
        <time>2019-07-31T10:06:48.160Z</time>
      </trkpt>
      <trkpt lat="43.011185" lon="-1.23449">
        <ele>871.0</ele>
        <time>2019-07-31T10:06:49.164Z</time>
      </trkpt>
      <trkpt lat="43.01119167" lon="-1.23446667">
        <ele>870.0</ele>
        <time>2019-07-31T10:06:50.167Z</time>
      </trkpt>
      <trkpt lat="43.0112" lon="-1.23443167">
        <ele>870.0</ele>
        <time>2019-07-31T10:06:51.171Z</time>
      </trkpt>
      <trkpt lat="43.011205" lon="-1.234405">
        <ele>870.0</ele>
        <time>2019-07-31T10:06:52.175Z</time>
      </trkpt>
      <trkpt lat="43.01121" lon="-1.23438333">
        <ele>869.0</ele>
        <time>2019-07-31T10:06:53.182Z</time>
      </trkpt>
      <trkpt lat="43.0112" lon="-1.23436">
        <ele>869.0</ele>
        <time>2019-07-31T10:06:54.062Z</time>
      </trkpt>
      <trkpt lat="43.0112" lon="-1.23433167">
        <ele>869.0</ele>
        <time>2019-07-31T10:06:55.067Z</time>
      </trkpt>
      <trkpt lat="43.01120333" lon="-1.23431">
        <ele>870.0</ele>
        <time>2019-07-31T10:06:56.074Z</time>
      </trkpt>
      <trkpt lat="43.01120667" lon="-1.234285">
        <ele>870.0</ele>
        <time>2019-07-31T10:06:57.079Z</time>
      </trkpt>
      <trkpt lat="43.01120333" lon="-1.23426">
        <ele>870.0</ele>
        <time>2019-07-31T10:06:58.085Z</time>
      </trkpt>
      <trkpt lat="43.0112" lon="-1.23423333">
        <ele>869.0</ele>
        <time>2019-07-31T10:06:59.093Z</time>
      </trkpt>
      <trkpt lat="43.01119833" lon="-1.23421167">
        <ele>867.0</ele>
        <time>2019-07-31T10:07:00.099Z</time>
      </trkpt>
      <trkpt lat="43.01119667" lon="-1.23419">
        <ele>867.0</ele>
        <time>2019-07-31T10:07:01.105Z</time>
      </trkpt>
      <trkpt lat="43.01120333" lon="-1.234165">
        <ele>866.0</ele>
        <time>2019-07-31T10:07:02.110Z</time>
      </trkpt>
      <trkpt lat="43.01120667" lon="-1.23414333">
        <ele>865.0</ele>
        <time>2019-07-31T10:07:03.117Z</time>
      </trkpt>
      <trkpt lat="43.011205" lon="-1.23412833">
        <ele>865.0</ele>
        <time>2019-07-31T10:07:04.123Z</time>
      </trkpt>
      <trkpt lat="43.01120333" lon="-1.234125">
        <ele>866.0</ele>
        <time>2019-07-31T10:07:05.125Z</time>
      </trkpt>
      <trkpt lat="43.01120667" lon="-1.23412667">
        <ele>870.0</ele>
        <time>2019-07-31T10:07:06.129Z</time>
      </trkpt>
      <trkpt lat="43.01120667" lon="-1.23413333">
        <ele>872.0</ele>
        <time>2019-07-31T10:07:07.135Z</time>
      </trkpt>
      <trkpt lat="43.01120667" lon="-1.234135">
        <ele>873.0</ele>
        <time>2019-07-31T10:07:08.138Z</time>
      </trkpt>
      <trkpt lat="43.01120167" lon="-1.23413833">
        <ele>874.0</ele>
        <time>2019-07-31T10:07:09.142Z</time>
      </trkpt>
      <trkpt lat="43.01119" lon="-1.23414167">
        <ele>874.0</ele>
        <time>2019-07-31T10:07:10.147Z</time>
      </trkpt>
      <trkpt lat="43.01118833" lon="-1.23414833">
        <ele>874.0</ele>
        <time>2019-07-31T10:07:11.151Z</time>
      </trkpt>
      <trkpt lat="43.01118667" lon="-1.23414667">
        <ele>873.0</ele>
        <time>2019-07-31T10:07:12.155Z</time>
      </trkpt>
      <trkpt lat="43.01118833" lon="-1.23414">
        <ele>873.0</ele>
        <time>2019-07-31T10:07:13.161Z</time>
      </trkpt>
      <trkpt lat="43.01119" lon="-1.234125">
        <ele>873.0</ele>
        <time>2019-07-31T10:07:14.168Z</time>
      </trkpt>
      <trkpt lat="43.01118833" lon="-1.23411">
        <ele>873.0</ele>
        <time>2019-07-31T10:07:15.172Z</time>
      </trkpt>
      <trkpt lat="43.01118667" lon="-1.23409333">
        <ele>873.0</ele>
        <time>2019-07-31T10:07:16.177Z</time>
      </trkpt>
      <trkpt lat="43.01118667" lon="-1.234075">
        <ele>873.0</ele>
        <time>2019-07-31T10:07:17.182Z</time>
      </trkpt>
      <trkpt lat="43.01118833" lon="-1.23405667">
        <ele>872.0</ele>
        <time>2019-07-31T10:07:18.062Z</time>
      </trkpt>
      <trkpt lat="43.01118833" lon="-1.23403667">
        <ele>872.0</ele>
        <time>2019-07-31T10:07:19.067Z</time>
      </trkpt>
      <trkpt lat="43.01118833" lon="-1.23401167">
        <ele>871.0</ele>
        <time>2019-07-31T10:07:20.069Z</time>
      </trkpt>
      <trkpt lat="43.011185" lon="-1.23399">
        <ele>870.0</ele>
        <time>2019-07-31T10:07:21.074Z</time>
      </trkpt>
      <trkpt lat="43.01117833" lon="-1.23397">
        <ele>870.0</ele>
        <time>2019-07-31T10:07:22.076Z</time>
      </trkpt>
      <trkpt lat="43.01117167" lon="-1.23394833">
        <ele>869.0</ele>
        <time>2019-07-31T10:07:23.079Z</time>
      </trkpt>
      <trkpt lat="43.01116667" lon="-1.233925">
        <ele>868.0</ele>
        <time>2019-07-31T10:07:24.079Z</time>
      </trkpt>
      <trkpt lat="43.01115333" lon="-1.2339">
        <ele>867.0</ele>
        <time>2019-07-31T10:07:25.083Z</time>
      </trkpt>
      <trkpt lat="43.011155" lon="-1.23387667">
        <ele>866.0</ele>
        <time>2019-07-31T10:07:26.089Z</time>
      </trkpt>
      <trkpt lat="43.01115667" lon="-1.23385167">
        <ele>866.0</ele>
        <time>2019-07-31T10:07:27.093Z</time>
      </trkpt>
      <trkpt lat="43.01116" lon="-1.23382167">
        <ele>865.0</ele>
        <time>2019-07-31T10:07:28.096Z</time>
      </trkpt>
      <trkpt lat="43.01116167" lon="-1.233795">
        <ele>865.0</ele>
        <time>2019-07-31T10:07:29.103Z</time>
      </trkpt>
      <trkpt lat="43.01116333" lon="-1.23376667">
        <ele>865.0</ele>
        <time>2019-07-31T10:07:30.111Z</time>
      </trkpt>
      <trkpt lat="43.01116" lon="-1.233745">
        <ele>865.0</ele>
        <time>2019-07-31T10:07:31.115Z</time>
      </trkpt>
      <trkpt lat="43.011155" lon="-1.23372167">
        <ele>865.0</ele>
        <time>2019-07-31T10:07:32.118Z</time>
      </trkpt>
      <trkpt lat="43.01115333" lon="-1.2337">
        <ele>866.0</ele>
        <time>2019-07-31T10:07:33.122Z</time>
      </trkpt>
      <trkpt lat="43.01115" lon="-1.23367833">
        <ele>866.0</ele>
        <time>2019-07-31T10:07:34.127Z</time>
      </trkpt>
      <trkpt lat="43.01115" lon="-1.23364667">
        <ele>866.0</ele>
        <time>2019-07-31T10:07:35.133Z</time>
      </trkpt>
      <trkpt lat="43.01114667" lon="-1.23362833">
        <ele>865.0</ele>
        <time>2019-07-31T10:07:36.136Z</time>
      </trkpt>
      <trkpt lat="43.01115" lon="-1.23359333">
        <ele>864.0</ele>
        <time>2019-07-31T10:07:37.142Z</time>
      </trkpt>
      <trkpt lat="43.011145" lon="-1.23356333">
        <ele>863.0</ele>
        <time>2019-07-31T10:07:38.147Z</time>
      </trkpt>
      <trkpt lat="43.01114167" lon="-1.23352667">
        <ele>863.0</ele>
        <time>2019-07-31T10:07:39.154Z</time>
      </trkpt>
      <trkpt lat="43.01114167" lon="-1.23348333">
        <ele>863.0</ele>
        <time>2019-07-31T10:07:40.161Z</time>
      </trkpt>
      <trkpt lat="43.01114833" lon="-1.23344667">
        <ele>862.0</ele>
        <time>2019-07-31T10:07:41.165Z</time>
      </trkpt>
      <trkpt lat="43.01115" lon="-1.233415">
        <ele>862.0</ele>
        <time>2019-07-31T10:07:42.169Z</time>
      </trkpt>
      <trkpt lat="43.01115167" lon="-1.23339">
        <ele>862.0</ele>
        <time>2019-07-31T10:07:43.175Z</time>
      </trkpt>
      <trkpt lat="43.01115833" lon="-1.23337">
        <ele>861.0</ele>
        <time>2019-07-31T10:07:44.179Z</time>
      </trkpt>
      <trkpt lat="43.01116167" lon="-1.23335167">
        <ele>861.0</ele>
        <time>2019-07-31T10:07:45.185Z</time>
      </trkpt>
      <trkpt lat="43.01116333" lon="-1.23332833">
        <ele>861.0</ele>
        <time>2019-07-31T10:07:46.065Z</time>
      </trkpt>
      <trkpt lat="43.01116667" lon="-1.233315">
        <ele>860.0</ele>
        <time>2019-07-31T10:07:47.070Z</time>
      </trkpt>
      <trkpt lat="43.011165" lon="-1.23329333">
        <ele>859.0</ele>
        <time>2019-07-31T10:07:48.075Z</time>
      </trkpt>
      <trkpt lat="43.01115333" lon="-1.23327833">
        <ele>859.0</ele>
        <time>2019-07-31T10:07:49.082Z</time>
      </trkpt>
      <trkpt lat="43.01114167" lon="-1.23326167">
        <ele>859.0</ele>
        <time>2019-07-31T10:07:50.087Z</time>
      </trkpt>
      <trkpt lat="43.011135" lon="-1.23324167">
        <ele>859.0</ele>
        <time>2019-07-31T10:07:51.093Z</time>
      </trkpt>
      <trkpt lat="43.011135" lon="-1.23321667">
        <ele>859.0</ele>
        <time>2019-07-31T10:07:52.098Z</time>
      </trkpt>
      <trkpt lat="43.01113167" lon="-1.23319">
        <ele>858.0</ele>
        <time>2019-07-31T10:07:53.104Z</time>
      </trkpt>
      <trkpt lat="43.01113167" lon="-1.233165">
        <ele>857.0</ele>
        <time>2019-07-31T10:07:54.108Z</time>
      </trkpt>
      <trkpt lat="43.01113167" lon="-1.23314">
        <ele>857.0</ele>
        <time>2019-07-31T10:07:55.113Z</time>
      </trkpt>
      <trkpt lat="43.011135" lon="-1.233115">
        <ele>857.0</ele>
        <time>2019-07-31T10:07:56.119Z</time>
      </trkpt>
      <trkpt lat="43.01113833" lon="-1.23309167">
        <ele>857.0</ele>
        <time>2019-07-31T10:07:57.122Z</time>
      </trkpt>
      <trkpt lat="43.01114167" lon="-1.23307">
        <ele>857.0</ele>
        <time>2019-07-31T10:07:58.124Z</time>
      </trkpt>
      <trkpt lat="43.01114333" lon="-1.23305167">
        <ele>857.0</ele>
        <time>2019-07-31T10:07:59.129Z</time>
      </trkpt>
      <trkpt lat="43.01113833" lon="-1.233035">
        <ele>857.0</ele>
        <time>2019-07-31T10:08:00.136Z</time>
      </trkpt>
      <trkpt lat="43.011135" lon="-1.23302">
        <ele>856.0</ele>
        <time>2019-07-31T10:08:01.141Z</time>
      </trkpt>
      <trkpt lat="43.01113" lon="-1.233005">
        <ele>856.0</ele>
        <time>2019-07-31T10:08:02.146Z</time>
      </trkpt>
      <trkpt lat="43.01112667" lon="-1.23299167">
        <ele>855.0</ele>
        <time>2019-07-31T10:08:03.150Z</time>
      </trkpt>
      <trkpt lat="43.011125" lon="-1.23297167">
        <ele>854.0</ele>
        <time>2019-07-31T10:08:04.152Z</time>
      </trkpt>
      <trkpt lat="43.01112667" lon="-1.23294833">
        <ele>853.0</ele>
        <time>2019-07-31T10:08:05.159Z</time>
      </trkpt>
      <trkpt lat="43.01112833" lon="-1.23292333">
        <ele>852.0</ele>
        <time>2019-07-31T10:08:06.165Z</time>
      </trkpt>
      <trkpt lat="43.01113" lon="-1.23290167">
        <ele>852.0</ele>
        <time>2019-07-31T10:08:07.166Z</time>
      </trkpt>
      <trkpt lat="43.01113" lon="-1.23287833">
        <ele>851.0</ele>
        <time>2019-07-31T10:08:08.168Z</time>
      </trkpt>
      <trkpt lat="43.01113333" lon="-1.23285667">
        <ele>850.0</ele>
        <time>2019-07-31T10:08:09.173Z</time>
      </trkpt>
      <trkpt lat="43.01113667" lon="-1.232835">
        <ele>850.0</ele>
        <time>2019-07-31T10:08:10.179Z</time>
      </trkpt>
      <trkpt lat="43.011145" lon="-1.23280667">
        <ele>850.0</ele>
        <time>2019-07-31T10:08:11.184Z</time>
      </trkpt>
      <trkpt lat="43.011155" lon="-1.23278167">
        <ele>849.0</ele>
        <time>2019-07-31T10:08:12.064Z</time>
      </trkpt>
      <trkpt lat="43.01116333" lon="-1.23275667">
        <ele>850.0</ele>
        <time>2019-07-31T10:08:13.070Z</time>
      </trkpt>
      <trkpt lat="43.01116167" lon="-1.23273167">
        <ele>849.0</ele>
        <time>2019-07-31T10:08:14.077Z</time>
      </trkpt>
      <trkpt lat="43.01116167" lon="-1.23270667">
        <ele>849.0</ele>
        <time>2019-07-31T10:08:15.083Z</time>
      </trkpt>
      <trkpt lat="43.01116333" lon="-1.23268333">
        <ele>849.0</ele>
        <time>2019-07-31T10:08:16.087Z</time>
      </trkpt>
      <trkpt lat="43.011165" lon="-1.23266333">
        <ele>848.0</ele>
        <time>2019-07-31T10:08:17.092Z</time>
      </trkpt>
      <trkpt lat="43.011165" lon="-1.23264">
        <ele>847.0</ele>
        <time>2019-07-31T10:08:18.098Z</time>
      </trkpt>
      <trkpt lat="43.011165" lon="-1.23261833">
        <ele>846.0</ele>
        <time>2019-07-31T10:08:19.104Z</time>
      </trkpt>
      <trkpt lat="43.01115833" lon="-1.2326">
        <ele>845.0</ele>
        <time>2019-07-31T10:08:20.109Z</time>
      </trkpt>
      <trkpt lat="43.01115167" lon="-1.23258333">
        <ele>843.0</ele>
        <time>2019-07-31T10:08:21.114Z</time>
      </trkpt>
      <trkpt lat="43.01115" lon="-1.23255833">
        <ele>843.0</ele>
        <time>2019-07-31T10:08:22.121Z</time>
      </trkpt>
      <trkpt lat="43.01114833" lon="-1.232535">
        <ele>843.0</ele>
        <time>2019-07-31T10:08:23.125Z</time>
      </trkpt>
      <trkpt lat="43.01113833" lon="-1.23250667">
        <ele>843.0</ele>
        <time>2019-07-31T10:08:24.130Z</time>
      </trkpt>
      <trkpt lat="43.01113667" lon="-1.23247667">
        <ele>842.0</ele>
        <time>2019-07-31T10:08:25.136Z</time>
      </trkpt>
      <trkpt lat="43.01114" lon="-1.23244667">
        <ele>841.0</ele>
        <time>2019-07-31T10:08:26.143Z</time>
      </trkpt>
      <trkpt lat="43.011145" lon="-1.23241667">
        <ele>841.0</ele>
        <time>2019-07-31T10:08:27.150Z</time>
      </trkpt>
      <trkpt lat="43.01114167" lon="-1.232395">
        <ele>841.0</ele>
        <time>2019-07-31T10:08:28.154Z</time>
      </trkpt>
      <trkpt lat="43.01114167" lon="-1.23237667">
        <ele>841.0</ele>
        <time>2019-07-31T10:08:29.158Z</time>
      </trkpt>
      <trkpt lat="43.011135" lon="-1.23236">
        <ele>840.0</ele>
        <time>2019-07-31T10:08:30.163Z</time>
      </trkpt>
      <trkpt lat="43.01113333" lon="-1.23234167">
        <ele>840.0</ele>
        <time>2019-07-31T10:08:31.169Z</time>
      </trkpt>
      <trkpt lat="43.01113167" lon="-1.23232167">
        <ele>840.0</ele>
        <time>2019-07-31T10:08:32.174Z</time>
      </trkpt>
      <trkpt lat="43.01112667" lon="-1.23229167">
        <ele>839.0</ele>
        <time>2019-07-31T10:08:33.177Z</time>
      </trkpt>
      <trkpt lat="43.01112" lon="-1.23228">
        <ele>839.0</ele>
        <time>2019-07-31T10:08:34.181Z</time>
      </trkpt>
      <trkpt lat="43.01111833" lon="-1.23226333">
        <ele>839.0</ele>
        <time>2019-07-31T10:08:35.062Z</time>
      </trkpt>
      <trkpt lat="43.01111333" lon="-1.23225">
        <ele>838.0</ele>
        <time>2019-07-31T10:08:36.068Z</time>
      </trkpt>
      <trkpt lat="43.01111167" lon="-1.23223333">
        <ele>838.0</ele>
        <time>2019-07-31T10:08:37.073Z</time>
      </trkpt>
      <trkpt lat="43.011115" lon="-1.23221333">
        <ele>837.0</ele>
        <time>2019-07-31T10:08:38.074Z</time>
      </trkpt>
      <trkpt lat="43.01111833" lon="-1.23219333">
        <ele>837.0</ele>
        <time>2019-07-31T10:08:39.079Z</time>
      </trkpt>
      <trkpt lat="43.01111833" lon="-1.23217333">
        <ele>837.0</ele>
        <time>2019-07-31T10:08:40.082Z</time>
      </trkpt>
      <trkpt lat="43.01111667" lon="-1.23215833">
        <ele>837.0</ele>
        <time>2019-07-31T10:08:41.087Z</time>
      </trkpt>
      <trkpt lat="43.01111667" lon="-1.23214167">
        <ele>837.0</ele>
        <time>2019-07-31T10:08:42.093Z</time>
      </trkpt>
      <trkpt lat="43.01111333" lon="-1.23211833">
        <ele>837.0</ele>
        <time>2019-07-31T10:08:43.099Z</time>
      </trkpt>
      <trkpt lat="43.01111" lon="-1.23209833">
        <ele>838.0</ele>
        <time>2019-07-31T10:08:44.102Z</time>
      </trkpt>
      <trkpt lat="43.01110667" lon="-1.23207333">
        <ele>838.0</ele>
        <time>2019-07-31T10:08:45.107Z</time>
      </trkpt>
      <trkpt lat="43.01110667" lon="-1.232055">
        <ele>838.0</ele>
        <time>2019-07-31T10:08:46.114Z</time>
      </trkpt>
      <trkpt lat="43.01110833" lon="-1.23203667">
        <ele>839.0</ele>
        <time>2019-07-31T10:08:47.120Z</time>
      </trkpt>
      <trkpt lat="43.01111167" lon="-1.23201333">
        <ele>839.0</ele>
        <time>2019-07-31T10:08:48.125Z</time>
      </trkpt>
      <trkpt lat="43.01111667" lon="-1.23199167">
        <ele>839.0</ele>
        <time>2019-07-31T10:08:49.131Z</time>
      </trkpt>
      <trkpt lat="43.01111833" lon="-1.23197">
        <ele>839.0</ele>
        <time>2019-07-31T10:08:50.136Z</time>
      </trkpt>
      <trkpt lat="43.01111667" lon="-1.231945">
        <ele>838.0</ele>
        <time>2019-07-31T10:08:51.141Z</time>
      </trkpt>
      <trkpt lat="43.01111333" lon="-1.23192167">
        <ele>838.0</ele>
        <time>2019-07-31T10:08:52.148Z</time>
      </trkpt>
      <trkpt lat="43.01111167" lon="-1.23189833">
        <ele>838.0</ele>
        <time>2019-07-31T10:08:53.153Z</time>
      </trkpt>
      <trkpt lat="43.01110667" lon="-1.23187833">
        <ele>838.0</ele>
        <time>2019-07-31T10:08:54.158Z</time>
      </trkpt>
      <trkpt lat="43.011105" lon="-1.23185833">
        <ele>838.0</ele>
        <time>2019-07-31T10:08:55.164Z</time>
      </trkpt>
      <trkpt lat="43.01110833" lon="-1.23183667">
        <ele>838.0</ele>
        <time>2019-07-31T10:08:56.168Z</time>
      </trkpt>
      <trkpt lat="43.011105" lon="-1.23181333">
        <ele>838.0</ele>
        <time>2019-07-31T10:08:57.173Z</time>
      </trkpt>
      <trkpt lat="43.011105" lon="-1.23179">
        <ele>838.0</ele>
        <time>2019-07-31T10:08:58.179Z</time>
      </trkpt>
      <trkpt lat="43.011105" lon="-1.23176667">
        <ele>838.0</ele>
        <time>2019-07-31T10:08:59.183Z</time>
      </trkpt>
      <trkpt lat="43.01110167" lon="-1.23173667">
        <ele>837.0</ele>
        <time>2019-07-31T10:09:00.064Z</time>
      </trkpt>
      <trkpt lat="43.01110167" lon="-1.231715">
        <ele>835.0</ele>
        <time>2019-07-31T10:09:01.070Z</time>
      </trkpt>
      <trkpt lat="43.01109667" lon="-1.231705">
        <ele>833.0</ele>
        <time>2019-07-31T10:09:02.076Z</time>
      </trkpt>
      <trkpt lat="43.01109167" lon="-1.23168667">
        <ele>831.0</ele>
        <time>2019-07-31T10:09:03.081Z</time>
      </trkpt>
      <trkpt lat="43.01108833" lon="-1.23166833">
        <ele>831.0</ele>
        <time>2019-07-31T10:09:04.084Z</time>
      </trkpt>
      <trkpt lat="43.011085" lon="-1.23164">
        <ele>830.0</ele>
        <time>2019-07-31T10:09:05.089Z</time>
      </trkpt>
      <trkpt lat="43.01108" lon="-1.23161167">
        <ele>830.0</ele>
        <time>2019-07-31T10:09:06.093Z</time>
      </trkpt>
      <trkpt lat="43.01106833" lon="-1.231575">
        <ele>831.0</ele>
        <time>2019-07-31T10:09:07.098Z</time>
      </trkpt>
      <trkpt lat="43.01107167" lon="-1.231545">
        <ele>831.0</ele>
        <time>2019-07-31T10:09:08.104Z</time>
      </trkpt>
      <trkpt lat="43.01106667" lon="-1.23151833">
        <ele>830.0</ele>
        <time>2019-07-31T10:09:09.111Z</time>
      </trkpt>
      <trkpt lat="43.01105667" lon="-1.23149333">
        <ele>830.0</ele>
        <time>2019-07-31T10:09:10.118Z</time>
      </trkpt>
      <trkpt lat="43.01105333" lon="-1.23146167">
        <ele>829.0</ele>
        <time>2019-07-31T10:09:11.122Z</time>
      </trkpt>
      <trkpt lat="43.01104667" lon="-1.23144">
        <ele>827.0</ele>
        <time>2019-07-31T10:09:12.124Z</time>
      </trkpt>
      <trkpt lat="43.011045" lon="-1.23141333">
        <ele>826.0</ele>
        <time>2019-07-31T10:09:13.130Z</time>
      </trkpt>
      <trkpt lat="43.01103667" lon="-1.23139167">
        <ele>826.0</ele>
        <time>2019-07-31T10:09:14.138Z</time>
      </trkpt>
      <trkpt lat="43.01103667" lon="-1.23136667">
        <ele>826.0</ele>
        <time>2019-07-31T10:09:15.144Z</time>
      </trkpt>
      <trkpt lat="43.01103333" lon="-1.23134833">
        <ele>825.0</ele>
        <time>2019-07-31T10:09:16.149Z</time>
      </trkpt>
      <trkpt lat="43.01102333" lon="-1.23132667">
        <ele>824.0</ele>
        <time>2019-07-31T10:09:17.154Z</time>
      </trkpt>
      <trkpt lat="43.01101833" lon="-1.231305">
        <ele>823.0</ele>
        <time>2019-07-31T10:09:18.158Z</time>
      </trkpt>
      <trkpt lat="43.01101833" lon="-1.23128">
        <ele>823.0</ele>
        <time>2019-07-31T10:09:19.164Z</time>
      </trkpt>
      <trkpt lat="43.01101" lon="-1.23126">
        <ele>822.0</ele>
        <time>2019-07-31T10:09:20.168Z</time>
      </trkpt>
      <trkpt lat="43.011005" lon="-1.23123833">
        <ele>821.0</ele>
        <time>2019-07-31T10:09:21.173Z</time>
      </trkpt>
      <trkpt lat="43.01099833" lon="-1.23122">
        <ele>822.0</ele>
        <time>2019-07-31T10:09:22.178Z</time>
      </trkpt>
      <trkpt lat="43.01099333" lon="-1.23120333">
        <ele>822.0</ele>
        <time>2019-07-31T10:09:23.185Z</time>
      </trkpt>
      <trkpt lat="43.01098833" lon="-1.231185">
        <ele>823.0</ele>
        <time>2019-07-31T10:09:24.065Z</time>
      </trkpt>
      <trkpt lat="43.010985" lon="-1.23116667">
        <ele>822.0</ele>
        <time>2019-07-31T10:09:25.072Z</time>
      </trkpt>
      <trkpt lat="43.01098667" lon="-1.23114667">
        <ele>823.0</ele>
        <time>2019-07-31T10:09:26.079Z</time>
      </trkpt>
      <trkpt lat="43.01098833" lon="-1.23112333">
        <ele>823.0</ele>
        <time>2019-07-31T10:09:27.084Z</time>
      </trkpt>
      <trkpt lat="43.010985" lon="-1.23110167">
        <ele>823.0</ele>
        <time>2019-07-31T10:09:28.088Z</time>
      </trkpt>
      <trkpt lat="43.01098333" lon="-1.23107833">
        <ele>823.0</ele>
        <time>2019-07-31T10:09:29.090Z</time>
      </trkpt>
      <trkpt lat="43.01098333" lon="-1.231055">
        <ele>823.0</ele>
        <time>2019-07-31T10:09:30.097Z</time>
      </trkpt>
      <trkpt lat="43.010985" lon="-1.23103167">
        <ele>823.0</ele>
        <time>2019-07-31T10:09:31.104Z</time>
      </trkpt>
      <trkpt lat="43.01098833" lon="-1.23100833">
        <ele>824.0</ele>
        <time>2019-07-31T10:09:32.109Z</time>
      </trkpt>
      <trkpt lat="43.01098667" lon="-1.23098667">
        <ele>825.0</ele>
        <time>2019-07-31T10:09:33.111Z</time>
      </trkpt>
      <trkpt lat="43.010985" lon="-1.23096667">
        <ele>826.0</ele>
        <time>2019-07-31T10:09:34.114Z</time>
      </trkpt>
      <trkpt lat="43.01098" lon="-1.23094">
        <ele>826.0</ele>
        <time>2019-07-31T10:09:35.117Z</time>
      </trkpt>
      <trkpt lat="43.01097833" lon="-1.23092167">
        <ele>826.0</ele>
        <time>2019-07-31T10:09:36.124Z</time>
      </trkpt>
      <trkpt lat="43.010975" lon="-1.2309">
        <ele>826.0</ele>
        <time>2019-07-31T10:09:37.128Z</time>
      </trkpt>
      <trkpt lat="43.010975" lon="-1.230875">
        <ele>827.0</ele>
        <time>2019-07-31T10:09:38.134Z</time>
      </trkpt>
      <trkpt lat="43.01097333" lon="-1.23085">
        <ele>827.0</ele>
        <time>2019-07-31T10:09:39.140Z</time>
      </trkpt>
      <trkpt lat="43.01097" lon="-1.230825">
        <ele>827.0</ele>
        <time>2019-07-31T10:09:40.146Z</time>
      </trkpt>
      <trkpt lat="43.01096667" lon="-1.230805">
        <ele>826.0</ele>
        <time>2019-07-31T10:09:41.152Z</time>
      </trkpt>
      <trkpt lat="43.01096667" lon="-1.23077833">
        <ele>826.0</ele>
        <time>2019-07-31T10:09:42.156Z</time>
      </trkpt>
      <trkpt lat="43.01096167" lon="-1.23075833">
        <ele>826.0</ele>
        <time>2019-07-31T10:09:43.161Z</time>
      </trkpt>
      <trkpt lat="43.01095667" lon="-1.23074333">
        <ele>826.0</ele>
        <time>2019-07-31T10:09:44.166Z</time>
      </trkpt>
      <trkpt lat="43.01095833" lon="-1.230725">
        <ele>826.0</ele>
        <time>2019-07-31T10:09:45.170Z</time>
      </trkpt>
      <trkpt lat="43.01096167" lon="-1.230705">
        <ele>826.0</ele>
        <time>2019-07-31T10:09:46.175Z</time>
      </trkpt>
      <trkpt lat="43.01095833" lon="-1.23067667">
        <ele>825.0</ele>
        <time>2019-07-31T10:09:47.181Z</time>
      </trkpt>
      <trkpt lat="43.01095333" lon="-1.23065333">
        <ele>824.0</ele>
        <time>2019-07-31T10:09:48.061Z</time>
      </trkpt>
      <trkpt lat="43.01095167" lon="-1.23062833">
        <ele>823.0</ele>
        <time>2019-07-31T10:09:49.067Z</time>
      </trkpt>
      <trkpt lat="43.01094833" lon="-1.23060667">
        <ele>822.0</ele>
        <time>2019-07-31T10:09:50.072Z</time>
      </trkpt>
      <trkpt lat="43.01094667" lon="-1.23058167">
        <ele>822.0</ele>
        <time>2019-07-31T10:09:51.078Z</time>
      </trkpt>
      <trkpt lat="43.01093833" lon="-1.23055667">
        <ele>822.0</ele>
        <time>2019-07-31T10:09:52.083Z</time>
      </trkpt>
      <trkpt lat="43.01093333" lon="-1.23053167">
        <ele>821.0</ele>
        <time>2019-07-31T10:09:53.088Z</time>
      </trkpt>
      <trkpt lat="43.01093833" lon="-1.23051">
        <ele>821.0</ele>
        <time>2019-07-31T10:09:54.093Z</time>
      </trkpt>
      <trkpt lat="43.01094667" lon="-1.23048">
        <ele>821.0</ele>
        <time>2019-07-31T10:09:55.099Z</time>
      </trkpt>
      <trkpt lat="43.01094333" lon="-1.230455">
        <ele>822.0</ele>
        <time>2019-07-31T10:09:56.107Z</time>
      </trkpt>
      <trkpt lat="43.01093333" lon="-1.23041833">
        <ele>822.0</ele>
        <time>2019-07-31T10:09:57.114Z</time>
      </trkpt>
      <trkpt lat="43.010925" lon="-1.23039">
        <ele>822.0</ele>
        <time>2019-07-31T10:09:58.118Z</time>
      </trkpt>
      <trkpt lat="43.01091667" lon="-1.23036333">
        <ele>823.0</ele>
        <time>2019-07-31T10:09:59.124Z</time>
      </trkpt>
      <trkpt lat="43.010905" lon="-1.23033167">
        <ele>823.0</ele>
        <time>2019-07-31T10:10:00.130Z</time>
      </trkpt>
      <trkpt lat="43.01090667" lon="-1.2303">
        <ele>823.0</ele>
        <time>2019-07-31T10:10:01.136Z</time>
      </trkpt>
      <trkpt lat="43.0109" lon="-1.230285">
        <ele>823.0</ele>
        <time>2019-07-31T10:10:02.141Z</time>
      </trkpt>
      <trkpt lat="43.01089" lon="-1.23026833">
        <ele>823.0</ele>
        <time>2019-07-31T10:10:03.144Z</time>
      </trkpt>
      <trkpt lat="43.01088667" lon="-1.23025">
        <ele>823.0</ele>
        <time>2019-07-31T10:10:04.148Z</time>
      </trkpt>
      <trkpt lat="43.01088333" lon="-1.23023">
        <ele>822.0</ele>
        <time>2019-07-31T10:10:05.152Z</time>
      </trkpt>
      <trkpt lat="43.01087333" lon="-1.23021">
        <ele>822.0</ele>
        <time>2019-07-31T10:10:06.157Z</time>
      </trkpt>
      <trkpt lat="43.01087" lon="-1.23019">
        <ele>822.0</ele>
        <time>2019-07-31T10:10:07.163Z</time>
      </trkpt>
      <trkpt lat="43.010865" lon="-1.230175">
        <ele>821.0</ele>
        <time>2019-07-31T10:10:08.167Z</time>
      </trkpt>
      <trkpt lat="43.01085833" lon="-1.23015833">
        <ele>821.0</ele>
        <time>2019-07-31T10:10:09.171Z</time>
      </trkpt>
      <trkpt lat="43.010865" lon="-1.23013667">
        <ele>822.0</ele>
        <time>2019-07-31T10:10:10.176Z</time>
      </trkpt>
      <trkpt lat="43.01087" lon="-1.23012333">
        <ele>822.0</ele>
        <time>2019-07-31T10:10:11.181Z</time>
      </trkpt>
      <trkpt lat="43.01086667" lon="-1.23009833">
        <ele>822.0</ele>
        <time>2019-07-31T10:10:12.062Z</time>
      </trkpt>
      <trkpt lat="43.010865" lon="-1.23007833">
        <ele>823.0</ele>
        <time>2019-07-31T10:10:13.068Z</time>
      </trkpt>
      <trkpt lat="43.01086333" lon="-1.230055">
        <ele>823.0</ele>
        <time>2019-07-31T10:10:14.071Z</time>
      </trkpt>
      <trkpt lat="43.01086167" lon="-1.23003167">
        <ele>823.0</ele>
        <time>2019-07-31T10:10:15.077Z</time>
      </trkpt>
      <trkpt lat="43.01085833" lon="-1.230005">
        <ele>823.0</ele>
        <time>2019-07-31T10:10:16.082Z</time>
      </trkpt>
      <trkpt lat="43.01085667" lon="-1.22998667">
        <ele>823.0</ele>
        <time>2019-07-31T10:10:17.088Z</time>
      </trkpt>
      <trkpt lat="43.010855" lon="-1.22996667">
        <ele>822.0</ele>
        <time>2019-07-31T10:10:18.094Z</time>
      </trkpt>
      <trkpt lat="43.01085167" lon="-1.229945">
        <ele>822.0</ele>
        <time>2019-07-31T10:10:19.099Z</time>
      </trkpt>
      <trkpt lat="43.010845" lon="-1.22992333">
        <ele>822.0</ele>
        <time>2019-07-31T10:10:20.106Z</time>
      </trkpt>
      <trkpt lat="43.01083667" lon="-1.22990333">
        <ele>822.0</ele>
        <time>2019-07-31T10:10:21.111Z</time>
      </trkpt>
      <trkpt lat="43.01082667" lon="-1.22988333">
        <ele>822.0</ele>
        <time>2019-07-31T10:10:22.117Z</time>
      </trkpt>
      <trkpt lat="43.01081333" lon="-1.22986833">
        <ele>822.0</ele>
        <time>2019-07-31T10:10:23.121Z</time>
      </trkpt>
      <trkpt lat="43.0108" lon="-1.229855">
        <ele>822.0</ele>
        <time>2019-07-31T10:10:24.124Z</time>
      </trkpt>
      <trkpt lat="43.010785" lon="-1.229845">
        <ele>822.0</ele>
        <time>2019-07-31T10:10:25.127Z</time>
      </trkpt>
      <trkpt lat="43.01077" lon="-1.22983667">
        <ele>821.0</ele>
        <time>2019-07-31T10:10:26.133Z</time>
      </trkpt>
      <trkpt lat="43.01075167" lon="-1.22983">
        <ele>821.0</ele>
        <time>2019-07-31T10:10:27.139Z</time>
      </trkpt>
      <trkpt lat="43.01073833" lon="-1.22982333">
        <ele>820.0</ele>
        <time>2019-07-31T10:10:28.145Z</time>
      </trkpt>
      <trkpt lat="43.01072" lon="-1.229815">
        <ele>820.0</ele>
        <time>2019-07-31T10:10:29.152Z</time>
      </trkpt>
      <trkpt lat="43.01070333" lon="-1.22981">
        <ele>819.0</ele>
        <time>2019-07-31T10:10:30.158Z</time>
      </trkpt>
      <trkpt lat="43.01068667" lon="-1.22981">
        <ele>819.0</ele>
        <time>2019-07-31T10:10:31.162Z</time>
      </trkpt>
      <trkpt lat="43.01067833" lon="-1.22980667">
        <ele>819.0</ele>
        <time>2019-07-31T10:10:32.167Z</time>
      </trkpt>
      <trkpt lat="43.01067333" lon="-1.22980667">
        <ele>819.0</ele>
        <time>2019-07-31T10:10:33.170Z</time>
      </trkpt>
      <trkpt lat="43.01066833" lon="-1.22980333">
        <ele>818.0</ele>
        <time>2019-07-31T10:10:34.173Z</time>
      </trkpt>
      <trkpt lat="43.010665" lon="-1.22980667">
        <ele>818.0</ele>
        <time>2019-07-31T10:10:35.177Z</time>
      </trkpt>
      <trkpt lat="43.01066" lon="-1.22980833">
        <ele>818.0</ele>
        <time>2019-07-31T10:10:36.182Z</time>
      </trkpt>
      <trkpt lat="43.010655" lon="-1.22980833">
        <ele>817.0</ele>
        <time>2019-07-31T10:10:37.061Z</time>
      </trkpt>
      <trkpt lat="43.01065333" lon="-1.229805">
        <ele>817.0</ele>
        <time>2019-07-31T10:10:38.066Z</time>
      </trkpt>
      <trkpt lat="43.01065167" lon="-1.22980167">
        <ele>818.0</ele>
        <time>2019-07-31T10:10:39.072Z</time>
      </trkpt>
      <trkpt lat="43.01064" lon="-1.22979833">
        <ele>818.0</ele>
        <time>2019-07-31T10:10:40.078Z</time>
      </trkpt>
      <trkpt lat="43.01062667" lon="-1.22979167">
        <ele>817.0</ele>
        <time>2019-07-31T10:10:41.083Z</time>
      </trkpt>
      <trkpt lat="43.01061667" lon="-1.22978667">
        <ele>817.0</ele>
        <time>2019-07-31T10:10:42.089Z</time>
      </trkpt>
      <trkpt lat="43.0106" lon="-1.22978333">
        <ele>817.0</ele>
        <time>2019-07-31T10:10:43.094Z</time>
      </trkpt>
      <trkpt lat="43.01058333" lon="-1.22978">
        <ele>817.0</ele>
        <time>2019-07-31T10:10:44.098Z</time>
      </trkpt>
      <trkpt lat="43.01057" lon="-1.22977667">
        <ele>817.0</ele>
        <time>2019-07-31T10:10:45.102Z</time>
      </trkpt>
      <trkpt lat="43.01055167" lon="-1.229775">
        <ele>817.0</ele>
        <time>2019-07-31T10:10:46.109Z</time>
      </trkpt>
      <trkpt lat="43.01053167" lon="-1.22976833">
        <ele>818.0</ele>
        <time>2019-07-31T10:10:47.115Z</time>
      </trkpt>
      <trkpt lat="43.01051833" lon="-1.22975833">
        <ele>818.0</ele>
        <time>2019-07-31T10:10:48.120Z</time>
      </trkpt>
      <trkpt lat="43.01050167" lon="-1.22975">
        <ele>819.0</ele>
        <time>2019-07-31T10:10:49.124Z</time>
      </trkpt>
      <trkpt lat="43.01048167" lon="-1.22974">
        <ele>819.0</ele>
        <time>2019-07-31T10:10:50.129Z</time>
      </trkpt>
      <trkpt lat="43.010465" lon="-1.22973333">
        <ele>819.0</ele>
        <time>2019-07-31T10:10:51.133Z</time>
      </trkpt>
      <trkpt lat="43.01044667" lon="-1.22972667">
        <ele>820.0</ele>
        <time>2019-07-31T10:10:52.140Z</time>
      </trkpt>
      <trkpt lat="43.01042667" lon="-1.22972167">
        <ele>820.0</ele>
        <time>2019-07-31T10:10:53.145Z</time>
      </trkpt>
      <trkpt lat="43.01041" lon="-1.229715">
        <ele>820.0</ele>
        <time>2019-07-31T10:10:54.151Z</time>
      </trkpt>
      <trkpt lat="43.01039333" lon="-1.22971">
        <ele>819.0</ele>
        <time>2019-07-31T10:10:55.155Z</time>
      </trkpt>
      <trkpt lat="43.01037833" lon="-1.229705">
        <ele>819.0</ele>
        <time>2019-07-31T10:10:56.159Z</time>
      </trkpt>
      <trkpt lat="43.01035833" lon="-1.22969833">
        <ele>820.0</ele>
        <time>2019-07-31T10:10:57.165Z</time>
      </trkpt>
      <trkpt lat="43.01033833" lon="-1.22969167">
        <ele>820.0</ele>
        <time>2019-07-31T10:10:58.171Z</time>
      </trkpt>
      <trkpt lat="43.01032" lon="-1.229685">
        <ele>820.0</ele>
        <time>2019-07-31T10:10:59.176Z</time>
      </trkpt>
      <trkpt lat="43.010305" lon="-1.22967667">
        <ele>821.0</ele>
        <time>2019-07-31T10:11:00.183Z</time>
      </trkpt>
      <trkpt lat="43.01029333" lon="-1.22966667">
        <ele>821.0</ele>
        <time>2019-07-31T10:11:01.062Z</time>
      </trkpt>
      <trkpt lat="43.01027833" lon="-1.22965833">
        <ele>821.0</ele>
        <time>2019-07-31T10:11:02.066Z</time>
      </trkpt>
      <trkpt lat="43.01026333" lon="-1.22965167">
        <ele>820.0</ele>
        <time>2019-07-31T10:11:03.070Z</time>
      </trkpt>
      <trkpt lat="43.01024833" lon="-1.22964">
        <ele>819.0</ele>
        <time>2019-07-31T10:11:04.075Z</time>
      </trkpt>
      <trkpt lat="43.010235" lon="-1.22962667">
        <ele>819.0</ele>
        <time>2019-07-31T10:11:05.080Z</time>
      </trkpt>
      <trkpt lat="43.01022167" lon="-1.229615">
        <ele>818.0</ele>
        <time>2019-07-31T10:11:06.085Z</time>
      </trkpt>
      <trkpt lat="43.01020833" lon="-1.22960167">
        <ele>818.0</ele>
        <time>2019-07-31T10:11:07.090Z</time>
      </trkpt>
      <trkpt lat="43.01019667" lon="-1.22958833">
        <ele>818.0</ele>
        <time>2019-07-31T10:11:08.096Z</time>
      </trkpt>
      <trkpt lat="43.010185" lon="-1.22957333">
        <ele>818.0</ele>
        <time>2019-07-31T10:11:09.101Z</time>
      </trkpt>
      <trkpt lat="43.01017333" lon="-1.22956">
        <ele>817.0</ele>
        <time>2019-07-31T10:11:10.108Z</time>
      </trkpt>
      <trkpt lat="43.01015833" lon="-1.22954">
        <ele>817.0</ele>
        <time>2019-07-31T10:11:11.113Z</time>
      </trkpt>
      <trkpt lat="43.01014667" lon="-1.229525">
        <ele>817.0</ele>
        <time>2019-07-31T10:11:12.118Z</time>
      </trkpt>
      <trkpt lat="43.01013333" lon="-1.22951167">
        <ele>817.0</ele>
        <time>2019-07-31T10:11:13.123Z</time>
      </trkpt>
      <trkpt lat="43.01012167" lon="-1.2295">
        <ele>817.0</ele>
        <time>2019-07-31T10:11:14.127Z</time>
      </trkpt>
      <trkpt lat="43.01011167" lon="-1.22949167">
        <ele>816.0</ele>
        <time>2019-07-31T10:11:15.133Z</time>
      </trkpt>
      <trkpt lat="43.01010167" lon="-1.229475">
        <ele>816.0</ele>
        <time>2019-07-31T10:11:16.139Z</time>
      </trkpt>
      <trkpt lat="43.01009667" lon="-1.22946">
        <ele>816.0</ele>
        <time>2019-07-31T10:11:17.144Z</time>
      </trkpt>
      <trkpt lat="43.010095" lon="-1.22944333">
        <ele>816.0</ele>
        <time>2019-07-31T10:11:18.149Z</time>
      </trkpt>
      <trkpt lat="43.01009667" lon="-1.22943">
        <ele>816.0</ele>
        <time>2019-07-31T10:11:19.156Z</time>
      </trkpt>
      <trkpt lat="43.01009833" lon="-1.22941167">
        <ele>816.0</ele>
        <time>2019-07-31T10:11:20.161Z</time>
      </trkpt>
      <trkpt lat="43.0101" lon="-1.22939">
        <ele>816.0</ele>
        <time>2019-07-31T10:11:21.166Z</time>
      </trkpt>
      <trkpt lat="43.01010167" lon="-1.22937167">
        <ele>816.0</ele>
        <time>2019-07-31T10:11:22.170Z</time>
      </trkpt>
      <trkpt lat="43.010105" lon="-1.229355">
        <ele>816.0</ele>
        <time>2019-07-31T10:11:23.173Z</time>
      </trkpt>
      <trkpt lat="43.01011167" lon="-1.22934167">
        <ele>816.0</ele>
        <time>2019-07-31T10:11:24.177Z</time>
      </trkpt>
      <trkpt lat="43.01012167" lon="-1.22932167">
        <ele>816.0</ele>
        <time>2019-07-31T10:11:25.183Z</time>
      </trkpt>
      <trkpt lat="43.01012333" lon="-1.229305">
        <ele>816.0</ele>
        <time>2019-07-31T10:11:26.063Z</time>
      </trkpt>
      <trkpt lat="43.01012167" lon="-1.22928833">
        <ele>816.0</ele>
        <time>2019-07-31T10:11:27.069Z</time>
      </trkpt>
      <trkpt lat="43.01011833" lon="-1.22927">
        <ele>816.0</ele>
        <time>2019-07-31T10:11:28.074Z</time>
      </trkpt>
      <trkpt lat="43.010115" lon="-1.22925833">
        <ele>817.0</ele>
        <time>2019-07-31T10:11:29.078Z</time>
      </trkpt>
      <trkpt lat="43.01011167" lon="-1.22923833">
        <ele>817.0</ele>
        <time>2019-07-31T10:11:30.083Z</time>
      </trkpt>
      <trkpt lat="43.010105" lon="-1.22922167">
        <ele>817.0</ele>
        <time>2019-07-31T10:11:31.088Z</time>
      </trkpt>
      <trkpt lat="43.01009833" lon="-1.22920333">
        <ele>817.0</ele>
        <time>2019-07-31T10:11:32.093Z</time>
      </trkpt>
      <trkpt lat="43.01009167" lon="-1.22919167">
        <ele>818.0</ele>
        <time>2019-07-31T10:11:33.097Z</time>
      </trkpt>
      <trkpt lat="43.01008333" lon="-1.229175">
        <ele>819.0</ele>
        <time>2019-07-31T10:11:34.101Z</time>
      </trkpt>
      <trkpt lat="43.01007167" lon="-1.22915667">
        <ele>819.0</ele>
        <time>2019-07-31T10:11:35.106Z</time>
      </trkpt>
      <trkpt lat="43.01006333" lon="-1.22914333">
        <ele>819.0</ele>
        <time>2019-07-31T10:11:36.112Z</time>
      </trkpt>
      <trkpt lat="43.01005167" lon="-1.22913">
        <ele>819.0</ele>
        <time>2019-07-31T10:11:37.117Z</time>
      </trkpt>
      <trkpt lat="43.01004333" lon="-1.22911667">
        <ele>819.0</ele>
        <time>2019-07-31T10:11:38.122Z</time>
      </trkpt>
      <trkpt lat="43.01003667" lon="-1.22910667">
        <ele>819.0</ele>
        <time>2019-07-31T10:11:39.124Z</time>
      </trkpt>
      <trkpt lat="43.01002333" lon="-1.22909167">
        <ele>819.0</ele>
        <time>2019-07-31T10:11:40.132Z</time>
      </trkpt>
      <trkpt lat="43.01001667" lon="-1.22907833">
        <ele>819.0</ele>
        <time>2019-07-31T10:11:41.138Z</time>
      </trkpt>
      <trkpt lat="43.01000667" lon="-1.22906333">
        <ele>820.0</ele>
        <time>2019-07-31T10:11:42.142Z</time>
      </trkpt>
      <trkpt lat="43.00999833" lon="-1.22905167">
        <ele>820.0</ele>
        <time>2019-07-31T10:11:43.149Z</time>
      </trkpt>
      <trkpt lat="43.00999" lon="-1.22903833">
        <ele>820.0</ele>
        <time>2019-07-31T10:11:44.155Z</time>
      </trkpt>
      <trkpt lat="43.00998333" lon="-1.22902333">
        <ele>820.0</ele>
        <time>2019-07-31T10:11:45.159Z</time>
      </trkpt>
      <trkpt lat="43.00997833" lon="-1.22900833">
        <ele>821.0</ele>
        <time>2019-07-31T10:11:46.165Z</time>
      </trkpt>
      <trkpt lat="43.00997333" lon="-1.228995">
        <ele>821.0</ele>
        <time>2019-07-31T10:11:47.170Z</time>
      </trkpt>
      <trkpt lat="43.00996667" lon="-1.22898333">
        <ele>822.0</ele>
        <time>2019-07-31T10:11:48.174Z</time>
      </trkpt>
      <trkpt lat="43.00996167" lon="-1.22897167">
        <ele>822.0</ele>
        <time>2019-07-31T10:11:49.178Z</time>
      </trkpt>
      <trkpt lat="43.00995333" lon="-1.22896">
        <ele>822.0</ele>
        <time>2019-07-31T10:11:50.183Z</time>
      </trkpt>
      <trkpt lat="43.009945" lon="-1.22894833">
        <ele>822.0</ele>
        <time>2019-07-31T10:11:51.064Z</time>
      </trkpt>
      <trkpt lat="43.00993833" lon="-1.22893667">
        <ele>823.0</ele>
        <time>2019-07-31T10:11:52.069Z</time>
      </trkpt>
      <trkpt lat="43.00993167" lon="-1.22892833">
        <ele>823.0</ele>
        <time>2019-07-31T10:11:53.073Z</time>
      </trkpt>
      <trkpt lat="43.00992667" lon="-1.22891167">
        <ele>822.0</ele>
        <time>2019-07-31T10:11:54.075Z</time>
      </trkpt>
      <trkpt lat="43.00991833" lon="-1.22889333">
        <ele>822.0</ele>
        <time>2019-07-31T10:11:55.081Z</time>
      </trkpt>
      <trkpt lat="43.00991833" lon="-1.22887833">
        <ele>821.0</ele>
        <time>2019-07-31T10:11:56.085Z</time>
      </trkpt>
      <trkpt lat="43.00991333" lon="-1.22885667">
        <ele>821.0</ele>
        <time>2019-07-31T10:11:57.090Z</time>
      </trkpt>
      <trkpt lat="43.00990667" lon="-1.22883667">
        <ele>821.0</ele>
        <time>2019-07-31T10:11:58.095Z</time>
      </trkpt>
      <trkpt lat="43.0099" lon="-1.22882">
        <ele>820.0</ele>
        <time>2019-07-31T10:11:59.101Z</time>
      </trkpt>
      <trkpt lat="43.00989333" lon="-1.22880167">
        <ele>821.0</ele>
        <time>2019-07-31T10:12:00.105Z</time>
      </trkpt>
      <trkpt lat="43.00988333" lon="-1.22878">
        <ele>821.0</ele>
        <time>2019-07-31T10:12:01.109Z</time>
      </trkpt>
      <trkpt lat="43.009875" lon="-1.22876333">
        <ele>821.0</ele>
        <time>2019-07-31T10:12:02.115Z</time>
      </trkpt>
      <trkpt lat="43.00986833" lon="-1.22874333">
        <ele>821.0</ele>
        <time>2019-07-31T10:12:03.121Z</time>
      </trkpt>
      <trkpt lat="43.00985833" lon="-1.22872167">
        <ele>822.0</ele>
        <time>2019-07-31T10:12:04.125Z</time>
      </trkpt>
      <trkpt lat="43.00985167" lon="-1.22870667">
        <ele>821.0</ele>
        <time>2019-07-31T10:12:05.131Z</time>
      </trkpt>
      <trkpt lat="43.00984167" lon="-1.22868667">
        <ele>821.0</ele>
        <time>2019-07-31T10:12:06.137Z</time>
      </trkpt>
      <trkpt lat="43.00983667" lon="-1.22867">
        <ele>821.0</ele>
        <time>2019-07-31T10:12:07.144Z</time>
      </trkpt>
      <trkpt lat="43.00982833" lon="-1.22865">
        <ele>821.0</ele>
        <time>2019-07-31T10:12:08.150Z</time>
      </trkpt>
      <trkpt lat="43.00982167" lon="-1.22863">
        <ele>821.0</ele>
        <time>2019-07-31T10:12:09.157Z</time>
      </trkpt>
      <trkpt lat="43.00981333" lon="-1.22861333">
        <ele>822.0</ele>
        <time>2019-07-31T10:12:10.162Z</time>
      </trkpt>
      <trkpt lat="43.00980333" lon="-1.22859">
        <ele>822.0</ele>
        <time>2019-07-31T10:12:11.166Z</time>
      </trkpt>
      <trkpt lat="43.009795" lon="-1.22857333">
        <ele>822.0</ele>
        <time>2019-07-31T10:12:12.171Z</time>
      </trkpt>
      <trkpt lat="43.00979" lon="-1.228555">
        <ele>822.0</ele>
        <time>2019-07-31T10:12:13.176Z</time>
      </trkpt>
      <trkpt lat="43.00978667" lon="-1.22854167">
        <ele>822.0</ele>
        <time>2019-07-31T10:12:14.180Z</time>
      </trkpt>
      <trkpt lat="43.00978" lon="-1.228525">
        <ele>821.0</ele>
        <time>2019-07-31T10:12:15.185Z</time>
      </trkpt>
      <trkpt lat="43.00977167" lon="-1.22850333">
        <ele>821.0</ele>
        <time>2019-07-31T10:12:16.065Z</time>
      </trkpt>
      <trkpt lat="43.009765" lon="-1.228485">
        <ele>821.0</ele>
        <time>2019-07-31T10:12:17.071Z</time>
      </trkpt>
      <trkpt lat="43.00975833" lon="-1.22846833">
        <ele>822.0</ele>
        <time>2019-07-31T10:12:18.076Z</time>
      </trkpt>
      <trkpt lat="43.00975" lon="-1.228455">
        <ele>822.0</ele>
        <time>2019-07-31T10:12:19.081Z</time>
      </trkpt>
      <trkpt lat="43.00974" lon="-1.228435">
        <ele>822.0</ele>
        <time>2019-07-31T10:12:20.085Z</time>
      </trkpt>
      <trkpt lat="43.00972833" lon="-1.22841667">
        <ele>822.0</ele>
        <time>2019-07-31T10:12:21.089Z</time>
      </trkpt>
      <trkpt lat="43.00972" lon="-1.22840167">
        <ele>822.0</ele>
        <time>2019-07-31T10:12:22.095Z</time>
      </trkpt>
      <trkpt lat="43.00971333" lon="-1.228385">
        <ele>821.0</ele>
        <time>2019-07-31T10:12:23.100Z</time>
      </trkpt>
      <trkpt lat="43.00970667" lon="-1.22836667">
        <ele>821.0</ele>
        <time>2019-07-31T10:12:24.105Z</time>
      </trkpt>
      <trkpt lat="43.00969333" lon="-1.22835167">
        <ele>821.0</ele>
        <time>2019-07-31T10:12:25.110Z</time>
      </trkpt>
      <trkpt lat="43.00968333" lon="-1.228335">
        <ele>821.0</ele>
        <time>2019-07-31T10:12:26.114Z</time>
      </trkpt>
      <trkpt lat="43.00967" lon="-1.22832167">
        <ele>821.0</ele>
        <time>2019-07-31T10:12:27.119Z</time>
      </trkpt>
      <trkpt lat="43.00966" lon="-1.22830667">
        <ele>821.0</ele>
        <time>2019-07-31T10:12:28.122Z</time>
      </trkpt>
      <trkpt lat="43.00965" lon="-1.228295">
        <ele>821.0</ele>
        <time>2019-07-31T10:12:29.126Z</time>
      </trkpt>
      <trkpt lat="43.00964" lon="-1.228275">
        <ele>821.0</ele>
        <time>2019-07-31T10:12:30.131Z</time>
      </trkpt>
      <trkpt lat="43.009635" lon="-1.228255">
        <ele>822.0</ele>
        <time>2019-07-31T10:12:31.136Z</time>
      </trkpt>
      <trkpt lat="43.009625" lon="-1.22823667">
        <ele>823.0</ele>
        <time>2019-07-31T10:12:32.140Z</time>
      </trkpt>
      <trkpt lat="43.009615" lon="-1.22822167">
        <ele>823.0</ele>
        <time>2019-07-31T10:12:33.145Z</time>
      </trkpt>
      <trkpt lat="43.00961" lon="-1.228205">
        <ele>824.0</ele>
        <time>2019-07-31T10:12:34.150Z</time>
      </trkpt>
      <trkpt lat="43.00960333" lon="-1.22818667">
        <ele>823.0</ele>
        <time>2019-07-31T10:12:35.157Z</time>
      </trkpt>
      <trkpt lat="43.00959333" lon="-1.22816667">
        <ele>824.0</ele>
        <time>2019-07-31T10:12:36.163Z</time>
      </trkpt>
      <trkpt lat="43.00958333" lon="-1.22814833">
        <ele>824.0</ele>
        <time>2019-07-31T10:12:37.168Z</time>
      </trkpt>
      <trkpt lat="43.00957333" lon="-1.22813">
        <ele>824.0</ele>
        <time>2019-07-31T10:12:38.175Z</time>
      </trkpt>
      <trkpt lat="43.00957" lon="-1.22811167">
        <ele>824.0</ele>
        <time>2019-07-31T10:12:39.181Z</time>
      </trkpt>
      <trkpt lat="43.009565" lon="-1.228095">
        <ele>824.0</ele>
        <time>2019-07-31T10:12:40.061Z</time>
      </trkpt>
      <trkpt lat="43.00955833" lon="-1.22808333">
        <ele>824.0</ele>
        <time>2019-07-31T10:12:41.067Z</time>
      </trkpt>
      <trkpt lat="43.00955333" lon="-1.22807167">
        <ele>824.0</ele>
        <time>2019-07-31T10:12:42.071Z</time>
      </trkpt>
      <trkpt lat="43.00955" lon="-1.22806333">
        <ele>824.0</ele>
        <time>2019-07-31T10:12:43.076Z</time>
      </trkpt>
      <trkpt lat="43.00954333" lon="-1.22805667">
        <ele>823.0</ele>
        <time>2019-07-31T10:12:44.083Z</time>
      </trkpt>
      <trkpt lat="43.00954" lon="-1.22805167">
        <ele>824.0</ele>
        <time>2019-07-31T10:12:45.089Z</time>
      </trkpt>
      <trkpt lat="43.00953667" lon="-1.22804833">
        <ele>824.0</ele>
        <time>2019-07-31T10:12:46.096Z</time>
      </trkpt>
      <trkpt lat="43.00953333" lon="-1.22804667">
        <ele>824.0</ele>
        <time>2019-07-31T10:12:47.103Z</time>
      </trkpt>
      <trkpt lat="43.00953333" lon="-1.22804833">
        <ele>823.0</ele>
        <time>2019-07-31T10:12:48.107Z</time>
      </trkpt>
      <trkpt lat="43.009535" lon="-1.22804833">
        <ele>823.0</ele>
        <time>2019-07-31T10:12:49.111Z</time>
      </trkpt>
      <trkpt lat="43.00953333" lon="-1.22804667">
        <ele>823.0</ele>
        <time>2019-07-31T10:12:50.118Z</time>
      </trkpt>
      <trkpt lat="43.009535" lon="-1.22804167">
        <ele>823.0</ele>
        <time>2019-07-31T10:12:51.123Z</time>
      </trkpt>
      <trkpt lat="43.00953333" lon="-1.22804167">
        <ele>823.0</ele>
        <time>2019-07-31T10:12:52.127Z</time>
      </trkpt>
      <trkpt lat="43.00953333" lon="-1.22804167">
        <ele>823.0</ele>
        <time>2019-07-31T10:12:53.132Z</time>
      </trkpt>
      <trkpt lat="43.009535" lon="-1.22804">
        <ele>823.0</ele>
        <time>2019-07-31T10:12:54.134Z</time>
      </trkpt>
      <trkpt lat="43.00953333" lon="-1.22804">
        <ele>823.0</ele>
        <time>2019-07-31T10:12:55.139Z</time>
      </trkpt>
      <trkpt lat="43.00953333" lon="-1.22804333">
        <ele>823.0</ele>
        <time>2019-07-31T10:12:56.144Z</time>
      </trkpt>
      <trkpt lat="43.00953167" lon="-1.22804333">
        <ele>824.0</ele>
        <time>2019-07-31T10:12:57.148Z</time>
      </trkpt>
      <trkpt lat="43.00953" lon="-1.22804667">
        <ele>824.0</ele>
        <time>2019-07-31T10:12:58.155Z</time>
      </trkpt>
      <trkpt lat="43.00953333" lon="-1.22805">
        <ele>824.0</ele>
        <time>2019-07-31T10:12:59.161Z</time>
      </trkpt>
      <trkpt lat="43.00953333" lon="-1.22805">
        <ele>824.0</ele>
        <time>2019-07-31T10:13:00.167Z</time>
      </trkpt>
      <trkpt lat="43.009535" lon="-1.22805">
        <ele>824.0</ele>
        <time>2019-07-31T10:13:01.171Z</time>
      </trkpt>
      <trkpt lat="43.009535" lon="-1.22804833">
        <ele>825.0</ele>
        <time>2019-07-31T10:13:02.177Z</time>
      </trkpt>
      <trkpt lat="43.00953333" lon="-1.22805167">
        <ele>825.0</ele>
        <time>2019-07-31T10:13:03.182Z</time>
      </trkpt>
      <trkpt lat="43.00953333" lon="-1.22805333">
        <ele>826.0</ele>
        <time>2019-07-31T10:13:04.063Z</time>
      </trkpt>
      <trkpt lat="43.00953167" lon="-1.22805167">
        <ele>826.0</ele>
        <time>2019-07-31T10:13:05.069Z</time>
      </trkpt>
      <trkpt lat="43.00952833" lon="-1.22804667">
        <ele>826.0</ele>
        <time>2019-07-31T10:13:06.075Z</time>
      </trkpt>
      <trkpt lat="43.00952667" lon="-1.22804667">
        <ele>826.0</ele>
        <time>2019-07-31T10:13:07.079Z</time>
      </trkpt>
      <trkpt lat="43.00952333" lon="-1.22804333">
        <ele>826.0</ele>
        <time>2019-07-31T10:13:08.086Z</time>
      </trkpt>
      <trkpt lat="43.009525" lon="-1.22803667">
        <ele>826.0</ele>
        <time>2019-07-31T10:13:09.092Z</time>
      </trkpt>
      <trkpt lat="43.00952667" lon="-1.228035">
        <ele>827.0</ele>
        <time>2019-07-31T10:13:10.099Z</time>
      </trkpt>
      <trkpt lat="43.00952833" lon="-1.22803">
        <ele>827.0</ele>
        <time>2019-07-31T10:13:11.105Z</time>
      </trkpt>
      <trkpt lat="43.00952833" lon="-1.228025">
        <ele>827.0</ele>
        <time>2019-07-31T10:13:12.109Z</time>
      </trkpt>
      <trkpt lat="43.00952833" lon="-1.22802">
        <ele>828.0</ele>
        <time>2019-07-31T10:13:13.114Z</time>
      </trkpt>
      <trkpt lat="43.00952833" lon="-1.22801833">
        <ele>827.0</ele>
        <time>2019-07-31T10:13:14.119Z</time>
      </trkpt>
      <trkpt lat="43.00952833" lon="-1.22801833">
        <ele>827.0</ele>
        <time>2019-07-31T10:13:15.124Z</time>
      </trkpt>
      <trkpt lat="43.00952833" lon="-1.22802333">
        <ele>826.0</ele>
        <time>2019-07-31T10:13:16.129Z</time>
      </trkpt>
      <trkpt lat="43.00952667" lon="-1.22803">
        <ele>825.0</ele>
        <time>2019-07-31T10:13:17.135Z</time>
      </trkpt>
      <trkpt lat="43.00952333" lon="-1.22803167">
        <ele>825.0</ele>
        <time>2019-07-31T10:13:18.141Z</time>
      </trkpt>
      <trkpt lat="43.00952167" lon="-1.22803333">
        <ele>824.0</ele>
        <time>2019-07-31T10:13:19.147Z</time>
      </trkpt>
      <trkpt lat="43.00952333" lon="-1.22803333">
        <ele>823.0</ele>
        <time>2019-07-31T10:13:20.154Z</time>
      </trkpt>
      <trkpt lat="43.009525" lon="-1.22803167">
        <ele>823.0</ele>
        <time>2019-07-31T10:13:21.159Z</time>
      </trkpt>
      <trkpt lat="43.009525" lon="-1.22803">
        <ele>823.0</ele>
        <time>2019-07-31T10:13:22.164Z</time>
      </trkpt>
      <trkpt lat="43.009525" lon="-1.22803167">
        <ele>822.0</ele>
        <time>2019-07-31T10:13:23.167Z</time>
      </trkpt>
      <trkpt lat="43.009525" lon="-1.228035">
        <ele>821.0</ele>
        <time>2019-07-31T10:13:24.176Z</time>
      </trkpt>
      <trkpt lat="43.00952667" lon="-1.228035">
        <ele>821.0</ele>
        <time>2019-07-31T10:13:25.183Z</time>
      </trkpt>
      <trkpt lat="43.00953" lon="-1.22803167">
        <ele>821.0</ele>
        <time>2019-07-31T10:13:26.063Z</time>
      </trkpt>
      <trkpt lat="43.00953333" lon="-1.22803333">
        <ele>821.0</ele>
        <time>2019-07-31T10:13:27.069Z</time>
      </trkpt>
      <trkpt lat="43.00953333" lon="-1.22804">
        <ele>821.0</ele>
        <time>2019-07-31T10:13:28.075Z</time>
      </trkpt>
      <trkpt lat="43.00953333" lon="-1.228045">
        <ele>821.0</ele>
        <time>2019-07-31T10:13:29.081Z</time>
      </trkpt>
      <trkpt lat="43.00953" lon="-1.22805167">
        <ele>821.0</ele>
        <time>2019-07-31T10:13:30.087Z</time>
      </trkpt>
      <trkpt lat="43.009525" lon="-1.22805333">
        <ele>821.0</ele>
        <time>2019-07-31T10:13:31.094Z</time>
      </trkpt>
      <trkpt lat="43.009515" lon="-1.22805833">
        <ele>821.0</ele>
        <time>2019-07-31T10:13:32.100Z</time>
      </trkpt>
      <trkpt lat="43.00950333" lon="-1.22806167">
        <ele>821.0</ele>
        <time>2019-07-31T10:13:33.105Z</time>
      </trkpt>
      <trkpt lat="43.00949333" lon="-1.22806667">
        <ele>821.0</ele>
        <time>2019-07-31T10:13:34.110Z</time>
      </trkpt>
      <trkpt lat="43.00948333" lon="-1.22807333">
        <ele>820.0</ele>
        <time>2019-07-31T10:13:35.115Z</time>
      </trkpt>
      <trkpt lat="43.009475" lon="-1.22808">
        <ele>820.0</ele>
        <time>2019-07-31T10:13:36.121Z</time>
      </trkpt>
      <trkpt lat="43.009465" lon="-1.228095">
        <ele>820.0</ele>
        <time>2019-07-31T10:13:37.125Z</time>
      </trkpt>
      <trkpt lat="43.00945667" lon="-1.22810333">
        <ele>820.0</ele>
        <time>2019-07-31T10:13:38.131Z</time>
      </trkpt>
      <trkpt lat="43.00945" lon="-1.22811">
        <ele>820.0</ele>
        <time>2019-07-31T10:13:39.136Z</time>
      </trkpt>
      <trkpt lat="43.00944167" lon="-1.22811167">
        <ele>821.0</ele>
        <time>2019-07-31T10:13:40.141Z</time>
      </trkpt>
      <trkpt lat="43.00943833" lon="-1.22811333">
        <ele>821.0</ele>
        <time>2019-07-31T10:13:41.148Z</time>
      </trkpt>
      <trkpt lat="43.00943333" lon="-1.22811333">
        <ele>821.0</ele>
        <time>2019-07-31T10:13:42.156Z</time>
      </trkpt>
      <trkpt lat="43.00942833" lon="-1.22811833">
        <ele>821.0</ele>
        <time>2019-07-31T10:13:43.161Z</time>
      </trkpt>
      <trkpt lat="43.00942333" lon="-1.22812333">
        <ele>820.0</ele>
        <time>2019-07-31T10:13:44.166Z</time>
      </trkpt>
      <trkpt lat="43.00941667" lon="-1.22813">
        <ele>820.0</ele>
        <time>2019-07-31T10:13:45.170Z</time>
      </trkpt>
      <trkpt lat="43.00941" lon="-1.22813">
        <ele>820.0</ele>
        <time>2019-07-31T10:13:46.175Z</time>
      </trkpt>
      <trkpt lat="43.00940167" lon="-1.22812667">
        <ele>820.0</ele>
        <time>2019-07-31T10:13:47.180Z</time>
      </trkpt>
      <trkpt lat="43.0094" lon="-1.22812">
        <ele>820.0</ele>
        <time>2019-07-31T10:13:48.184Z</time>
      </trkpt>
      <trkpt lat="43.00939833" lon="-1.22811167">
        <ele>820.0</ele>
        <time>2019-07-31T10:13:49.063Z</time>
      </trkpt>
      <trkpt lat="43.009395" lon="-1.228105">
        <ele>820.0</ele>
        <time>2019-07-31T10:13:50.068Z</time>
      </trkpt>
      <trkpt lat="43.00939167" lon="-1.22810167">
        <ele>820.0</ele>
        <time>2019-07-31T10:13:51.073Z</time>
      </trkpt>
      <trkpt lat="43.00939167" lon="-1.22808667">
        <ele>819.0</ele>
        <time>2019-07-31T10:13:52.078Z</time>
      </trkpt>
      <trkpt lat="43.00939167" lon="-1.22807333">
        <ele>819.0</ele>
        <time>2019-07-31T10:13:53.080Z</time>
      </trkpt>
      <trkpt lat="43.00939" lon="-1.22805833">
        <ele>819.0</ele>
        <time>2019-07-31T10:13:54.083Z</time>
      </trkpt>
      <trkpt lat="43.00938667" lon="-1.22804167">
        <ele>819.0</ele>
        <time>2019-07-31T10:13:55.088Z</time>
      </trkpt>
      <trkpt lat="43.00938" lon="-1.22802833">
        <ele>820.0</ele>
        <time>2019-07-31T10:13:56.095Z</time>
      </trkpt>
      <trkpt lat="43.00937167" lon="-1.22801333">
        <ele>819.0</ele>
        <time>2019-07-31T10:13:57.102Z</time>
      </trkpt>
      <trkpt lat="43.00936667" lon="-1.22799833">
        <ele>819.0</ele>
        <time>2019-07-31T10:13:58.110Z</time>
      </trkpt>
      <trkpt lat="43.00936333" lon="-1.22798333">
        <ele>819.0</ele>
        <time>2019-07-31T10:13:59.117Z</time>
      </trkpt>
      <trkpt lat="43.00936167" lon="-1.22796667">
        <ele>819.0</ele>
        <time>2019-07-31T10:14:00.122Z</time>
      </trkpt>
      <trkpt lat="43.00936" lon="-1.22794833">
        <ele>819.0</ele>
        <time>2019-07-31T10:14:01.128Z</time>
      </trkpt>
      <trkpt lat="43.00935333" lon="-1.22793333">
        <ele>820.0</ele>
        <time>2019-07-31T10:14:02.135Z</time>
      </trkpt>
      <trkpt lat="43.00934667" lon="-1.22792333">
        <ele>820.0</ele>
        <time>2019-07-31T10:14:03.141Z</time>
      </trkpt>
      <trkpt lat="43.009345" lon="-1.22792">
        <ele>820.0</ele>
        <time>2019-07-31T10:14:04.147Z</time>
      </trkpt>
      <trkpt lat="43.00934333" lon="-1.227915">
        <ele>820.0</ele>
        <time>2019-07-31T10:14:05.152Z</time>
      </trkpt>
      <trkpt lat="43.00934" lon="-1.22791">
        <ele>820.0</ele>
        <time>2019-07-31T10:14:06.157Z</time>
      </trkpt>
      <trkpt lat="43.00933833" lon="-1.22790833">
        <ele>819.0</ele>
        <time>2019-07-31T10:14:07.163Z</time>
      </trkpt>
      <trkpt lat="43.00934" lon="-1.22790667">
        <ele>819.0</ele>
        <time>2019-07-31T10:14:08.167Z</time>
      </trkpt>
      <trkpt lat="43.009345" lon="-1.22790333">
        <ele>819.0</ele>
        <time>2019-07-31T10:14:09.172Z</time>
      </trkpt>
      <trkpt lat="43.00934833" lon="-1.22790667">
        <ele>818.0</ele>
        <time>2019-07-31T10:14:10.179Z</time>
      </trkpt>
      <trkpt lat="43.00934833" lon="-1.22791">
        <ele>817.0</ele>
        <time>2019-07-31T10:14:11.186Z</time>
      </trkpt>
      <trkpt lat="43.00934667" lon="-1.22791">
        <ele>818.0</ele>
        <time>2019-07-31T10:14:12.066Z</time>
      </trkpt>
      <trkpt lat="43.00934667" lon="-1.227905">
        <ele>818.0</ele>
        <time>2019-07-31T10:14:13.071Z</time>
      </trkpt>
      <trkpt lat="43.00934833" lon="-1.22789667">
        <ele>819.0</ele>
        <time>2019-07-31T10:14:14.073Z</time>
      </trkpt>
      <trkpt lat="43.00934833" lon="-1.22787833">
        <ele>819.0</ele>
        <time>2019-07-31T10:14:15.077Z</time>
      </trkpt>
      <trkpt lat="43.00934333" lon="-1.227865">
        <ele>820.0</ele>
        <time>2019-07-31T10:14:16.081Z</time>
      </trkpt>
      <trkpt lat="43.00933833" lon="-1.22785">
        <ele>820.0</ele>
        <time>2019-07-31T10:14:17.086Z</time>
      </trkpt>
      <trkpt lat="43.00933333" lon="-1.22783833">
        <ele>821.0</ele>
        <time>2019-07-31T10:14:18.090Z</time>
      </trkpt>
      <trkpt lat="43.00933" lon="-1.227825">
        <ele>820.0</ele>
        <time>2019-07-31T10:14:19.094Z</time>
      </trkpt>
      <trkpt lat="43.00932667" lon="-1.22780833">
        <ele>821.0</ele>
        <time>2019-07-31T10:14:20.100Z</time>
      </trkpt>
      <trkpt lat="43.009325" lon="-1.22779167">
        <ele>820.0</ele>
        <time>2019-07-31T10:14:21.106Z</time>
      </trkpt>
      <trkpt lat="43.00932167" lon="-1.227775">
        <ele>820.0</ele>
        <time>2019-07-31T10:14:22.111Z</time>
      </trkpt>
      <trkpt lat="43.00931833" lon="-1.22775833">
        <ele>820.0</ele>
        <time>2019-07-31T10:14:23.118Z</time>
      </trkpt>
      <trkpt lat="43.00931333" lon="-1.22774167">
        <ele>819.0</ele>
        <time>2019-07-31T10:14:24.123Z</time>
      </trkpt>
      <trkpt lat="43.00930667" lon="-1.22772333">
        <ele>819.0</ele>
        <time>2019-07-31T10:14:25.128Z</time>
      </trkpt>
      <trkpt lat="43.00930333" lon="-1.22770833">
        <ele>819.0</ele>
        <time>2019-07-31T10:14:26.132Z</time>
      </trkpt>
      <trkpt lat="43.0093" lon="-1.22769333">
        <ele>819.0</ele>
        <time>2019-07-31T10:14:27.136Z</time>
      </trkpt>
      <trkpt lat="43.00929667" lon="-1.22768">
        <ele>818.0</ele>
        <time>2019-07-31T10:14:28.140Z</time>
      </trkpt>
      <trkpt lat="43.00929333" lon="-1.227665">
        <ele>819.0</ele>
        <time>2019-07-31T10:14:29.147Z</time>
      </trkpt>
      <trkpt lat="43.00929" lon="-1.22765">
        <ele>818.0</ele>
        <time>2019-07-31T10:14:30.151Z</time>
      </trkpt>
      <trkpt lat="43.009285" lon="-1.22763833">
        <ele>818.0</ele>
        <time>2019-07-31T10:14:31.158Z</time>
      </trkpt>
      <trkpt lat="43.00928" lon="-1.22763333">
        <ele>818.0</ele>
        <time>2019-07-31T10:14:32.165Z</time>
      </trkpt>
      <trkpt lat="43.00927833" lon="-1.22763">
        <ele>817.0</ele>
        <time>2019-07-31T10:14:33.168Z</time>
      </trkpt>
      <trkpt lat="43.00927833" lon="-1.227625">
        <ele>817.0</ele>
        <time>2019-07-31T10:14:34.174Z</time>
      </trkpt>
      <trkpt lat="43.00927833" lon="-1.22762">
        <ele>816.0</ele>
        <time>2019-07-31T10:14:35.178Z</time>
      </trkpt>
      <trkpt lat="43.00927833" lon="-1.22761167">
        <ele>817.0</ele>
        <time>2019-07-31T10:14:36.182Z</time>
      </trkpt>
      <trkpt lat="43.00928" lon="-1.22760167">
        <ele>817.0</ele>
        <time>2019-07-31T10:14:37.062Z</time>
      </trkpt>
      <trkpt lat="43.00927833" lon="-1.22758667">
        <ele>817.0</ele>
        <time>2019-07-31T10:14:38.067Z</time>
      </trkpt>
      <trkpt lat="43.00927667" lon="-1.22757167">
        <ele>816.0</ele>
        <time>2019-07-31T10:14:39.074Z</time>
      </trkpt>
      <trkpt lat="43.00927333" lon="-1.22755833">
        <ele>816.0</ele>
        <time>2019-07-31T10:14:40.079Z</time>
      </trkpt>
      <trkpt lat="43.00926833" lon="-1.227545">
        <ele>816.0</ele>
        <time>2019-07-31T10:14:41.083Z</time>
      </trkpt>
      <trkpt lat="43.009265" lon="-1.22753167">
        <ele>816.0</ele>
        <time>2019-07-31T10:14:42.085Z</time>
      </trkpt>
      <trkpt lat="43.00926" lon="-1.22752333">
        <ele>815.0</ele>
        <time>2019-07-31T10:14:43.090Z</time>
      </trkpt>
      <trkpt lat="43.00925333" lon="-1.22752">
        <ele>815.0</ele>
        <time>2019-07-31T10:14:44.092Z</time>
      </trkpt>
      <trkpt lat="43.00925" lon="-1.22751833">
        <ele>815.0</ele>
        <time>2019-07-31T10:14:45.098Z</time>
      </trkpt>
      <trkpt lat="43.009245" lon="-1.227515">
        <ele>814.0</ele>
        <time>2019-07-31T10:14:46.104Z</time>
      </trkpt>
      <trkpt lat="43.00924" lon="-1.227515">
        <ele>814.0</ele>
        <time>2019-07-31T10:14:47.109Z</time>
      </trkpt>
      <trkpt lat="43.00923667" lon="-1.227515">
        <ele>814.0</ele>
        <time>2019-07-31T10:14:48.112Z</time>
      </trkpt>
      <trkpt lat="43.00923333" lon="-1.227515">
        <ele>815.0</ele>
        <time>2019-07-31T10:14:49.116Z</time>
      </trkpt>
      <trkpt lat="43.00923167" lon="-1.22751667">
        <ele>814.0</ele>
        <time>2019-07-31T10:14:50.123Z</time>
      </trkpt>
      <trkpt lat="43.00923167" lon="-1.227515">
        <ele>815.0</ele>
        <time>2019-07-31T10:14:51.128Z</time>
      </trkpt>
      <trkpt lat="43.00923" lon="-1.22751167">
        <ele>815.0</ele>
        <time>2019-07-31T10:14:52.134Z</time>
      </trkpt>
      <trkpt lat="43.00923167" lon="-1.22750667">
        <ele>815.0</ele>
        <time>2019-07-31T10:14:53.140Z</time>
      </trkpt>
      <trkpt lat="43.00923167" lon="-1.22751">
        <ele>815.0</ele>
        <time>2019-07-31T10:14:54.145Z</time>
      </trkpt>
      <trkpt lat="43.00923" lon="-1.22751667">
        <ele>814.0</ele>
        <time>2019-07-31T10:14:55.152Z</time>
      </trkpt>
      <trkpt lat="43.00922833" lon="-1.22751667">
        <ele>814.0</ele>
        <time>2019-07-31T10:14:56.157Z</time>
      </trkpt>
      <trkpt lat="43.00922667" lon="-1.22751833">
        <ele>814.0</ele>
        <time>2019-07-31T10:14:57.161Z</time>
      </trkpt>
      <trkpt lat="43.00922167" lon="-1.22752167">
        <ele>814.0</ele>
        <time>2019-07-31T10:14:58.166Z</time>
      </trkpt>
      <trkpt lat="43.00922" lon="-1.22752333">
        <ele>814.0</ele>
        <time>2019-07-31T10:14:59.171Z</time>
      </trkpt>
      <trkpt lat="43.00921833" lon="-1.22752667">
        <ele>814.0</ele>
        <time>2019-07-31T10:15:00.175Z</time>
      </trkpt>
      <trkpt lat="43.00921667" lon="-1.22752333">
        <ele>814.0</ele>
        <time>2019-07-31T10:15:01.182Z</time>
      </trkpt>
      <trkpt lat="43.00921667" lon="-1.22752167">
        <ele>813.0</ele>
        <time>2019-07-31T10:15:02.063Z</time>
      </trkpt>
      <trkpt lat="43.00922" lon="-1.22751833">
        <ele>813.0</ele>
        <time>2019-07-31T10:15:03.070Z</time>
      </trkpt>
      <trkpt lat="43.00922" lon="-1.227515">
        <ele>812.0</ele>
        <time>2019-07-31T10:15:04.076Z</time>
      </trkpt>
      <trkpt lat="43.00922" lon="-1.22751833">
        <ele>812.0</ele>
        <time>2019-07-31T10:15:05.082Z</time>
      </trkpt>
      <trkpt lat="43.00922" lon="-1.22752">
        <ele>812.0</ele>
        <time>2019-07-31T10:15:06.086Z</time>
      </trkpt>
      <trkpt lat="43.00922167" lon="-1.22752167">
        <ele>812.0</ele>
        <time>2019-07-31T10:15:07.092Z</time>
      </trkpt>
      <trkpt lat="43.00922" lon="-1.227525">
        <ele>812.0</ele>
        <time>2019-07-31T10:15:08.099Z</time>
      </trkpt>
      <trkpt lat="43.00922" lon="-1.22752833">
        <ele>812.0</ele>
        <time>2019-07-31T10:15:09.106Z</time>
      </trkpt>
      <trkpt lat="43.00921833" lon="-1.22753">
        <ele>813.0</ele>
        <time>2019-07-31T10:15:10.113Z</time>
      </trkpt>
      <trkpt lat="43.00921667" lon="-1.22753167">
        <ele>813.0</ele>
        <time>2019-07-31T10:15:11.118Z</time>
      </trkpt>
      <trkpt lat="43.009215" lon="-1.22753167">
        <ele>813.0</ele>
        <time>2019-07-31T10:15:12.123Z</time>
      </trkpt>
      <trkpt lat="43.00921333" lon="-1.22753167">
        <ele>814.0</ele>
        <time>2019-07-31T10:15:13.127Z</time>
      </trkpt>
      <trkpt lat="43.009215" lon="-1.22753167">
        <ele>814.0</ele>
        <time>2019-07-31T10:15:14.134Z</time>
      </trkpt>
      <trkpt lat="43.00921667" lon="-1.22753333">
        <ele>814.0</ele>
        <time>2019-07-31T10:15:15.139Z</time>
      </trkpt>
      <trkpt lat="43.009215" lon="-1.22753333">
        <ele>815.0</ele>
        <time>2019-07-31T10:15:16.145Z</time>
      </trkpt>
      <trkpt lat="43.009215" lon="-1.227535">
        <ele>815.0</ele>
        <time>2019-07-31T10:15:17.150Z</time>
      </trkpt>
      <trkpt lat="43.009215" lon="-1.22753833">
        <ele>815.0</ele>
        <time>2019-07-31T10:15:18.153Z</time>
      </trkpt>
      <trkpt lat="43.00921333" lon="-1.22753833">
        <ele>815.0</ele>
        <time>2019-07-31T10:15:19.158Z</time>
      </trkpt>
      <trkpt lat="43.009215" lon="-1.22754">
        <ele>815.0</ele>
        <time>2019-07-31T10:15:20.164Z</time>
      </trkpt>
      <trkpt lat="43.009215" lon="-1.22754">
        <ele>815.0</ele>
        <time>2019-07-31T10:15:21.169Z</time>
      </trkpt>
      <trkpt lat="43.00921667" lon="-1.22753833">
        <ele>816.0</ele>
        <time>2019-07-31T10:15:22.174Z</time>
      </trkpt>
      <trkpt lat="43.00921833" lon="-1.22753833">
        <ele>815.0</ele>
        <time>2019-07-31T10:15:23.178Z</time>
      </trkpt>
      <trkpt lat="43.00921833" lon="-1.22753667">
        <ele>816.0</ele>
        <time>2019-07-31T10:15:24.184Z</time>
      </trkpt>
      <trkpt lat="43.00921667" lon="-1.22753833">
        <ele>816.0</ele>
        <time>2019-07-31T10:15:25.065Z</time>
      </trkpt>
      <trkpt lat="43.009215" lon="-1.22754">
        <ele>815.0</ele>
        <time>2019-07-31T10:15:26.073Z</time>
      </trkpt>
      <trkpt lat="43.00921667" lon="-1.22754">
        <ele>815.0</ele>
        <time>2019-07-31T10:15:27.079Z</time>
      </trkpt>
      <trkpt lat="43.00921833" lon="-1.22754">
        <ele>815.0</ele>
        <time>2019-07-31T10:15:28.083Z</time>
      </trkpt>
      <trkpt lat="43.00921833" lon="-1.22753667">
        <ele>815.0</ele>
        <time>2019-07-31T10:15:29.087Z</time>
      </trkpt>
      <trkpt lat="43.00922" lon="-1.22753833">
        <ele>815.0</ele>
        <time>2019-07-31T10:15:30.094Z</time>
      </trkpt>
      <trkpt lat="43.00922333" lon="-1.22753833">
        <ele>815.0</ele>
        <time>2019-07-31T10:15:31.100Z</time>
      </trkpt>
      <trkpt lat="43.00922333" lon="-1.22753833">
        <ele>815.0</ele>
        <time>2019-07-31T10:15:32.106Z</time>
      </trkpt>
      <trkpt lat="43.00921667" lon="-1.22753667">
        <ele>815.0</ele>
        <time>2019-07-31T10:15:33.107Z</time>
      </trkpt>
      <trkpt lat="43.00921333" lon="-1.22753667">
        <ele>815.0</ele>
        <time>2019-07-31T10:15:34.109Z</time>
      </trkpt>
      <trkpt lat="43.00921167" lon="-1.227535">
        <ele>815.0</ele>
        <time>2019-07-31T10:15:35.115Z</time>
      </trkpt>
      <trkpt lat="43.00921333" lon="-1.22753667">
        <ele>815.0</ele>
        <time>2019-07-31T10:15:36.120Z</time>
      </trkpt>
      <trkpt lat="43.00921333" lon="-1.22753667">
        <ele>815.0</ele>
        <time>2019-07-31T10:15:37.125Z</time>
      </trkpt>
      <trkpt lat="43.009215" lon="-1.22753833">
        <ele>815.0</ele>
        <time>2019-07-31T10:15:38.131Z</time>
      </trkpt>
      <trkpt lat="43.00921333" lon="-1.22753833">
        <ele>816.0</ele>
        <time>2019-07-31T10:15:39.136Z</time>
      </trkpt>
      <trkpt lat="43.00921333" lon="-1.22753167">
        <ele>816.0</ele>
        <time>2019-07-31T10:15:40.140Z</time>
      </trkpt>
      <trkpt lat="43.00921" lon="-1.22752667">
        <ele>815.0</ele>
        <time>2019-07-31T10:15:41.143Z</time>
      </trkpt>
      <trkpt lat="43.00921" lon="-1.22751833">
        <ele>815.0</ele>
        <time>2019-07-31T10:15:42.148Z</time>
      </trkpt>
      <trkpt lat="43.00920667" lon="-1.22751">
        <ele>815.0</ele>
        <time>2019-07-31T10:15:43.152Z</time>
      </trkpt>
      <trkpt lat="43.00920333" lon="-1.22749667">
        <ele>816.0</ele>
        <time>2019-07-31T10:15:44.157Z</time>
      </trkpt>
      <trkpt lat="43.00920167" lon="-1.22748167">
        <ele>816.0</ele>
        <time>2019-07-31T10:15:45.162Z</time>
      </trkpt>
      <trkpt lat="43.0092" lon="-1.22746833">
        <ele>816.0</ele>
        <time>2019-07-31T10:15:46.167Z</time>
      </trkpt>
      <trkpt lat="43.00919667" lon="-1.22746">
        <ele>816.0</ele>
        <time>2019-07-31T10:15:47.173Z</time>
      </trkpt>
      <trkpt lat="43.009195" lon="-1.22745167">
        <ele>816.0</ele>
        <time>2019-07-31T10:15:48.178Z</time>
      </trkpt>
      <trkpt lat="43.00919333" lon="-1.22744333">
        <ele>815.0</ele>
        <time>2019-07-31T10:15:49.181Z</time>
      </trkpt>
      <trkpt lat="43.00919333" lon="-1.22743333">
        <ele>815.0</ele>
        <time>2019-07-31T10:15:50.186Z</time>
      </trkpt>
      <trkpt lat="43.00919" lon="-1.22742667">
        <ele>815.0</ele>
        <time>2019-07-31T10:15:51.066Z</time>
      </trkpt>
      <trkpt lat="43.00918833" lon="-1.22741667">
        <ele>816.0</ele>
        <time>2019-07-31T10:15:52.072Z</time>
      </trkpt>
      <trkpt lat="43.00918667" lon="-1.2274">
        <ele>816.0</ele>
        <time>2019-07-31T10:15:53.076Z</time>
      </trkpt>
      <trkpt lat="43.00918" lon="-1.22739333">
        <ele>816.0</ele>
        <time>2019-07-31T10:15:54.083Z</time>
      </trkpt>
      <trkpt lat="43.00917667" lon="-1.22738333">
        <ele>816.0</ele>
        <time>2019-07-31T10:15:55.086Z</time>
      </trkpt>
      <trkpt lat="43.00917333" lon="-1.22737">
        <ele>815.0</ele>
        <time>2019-07-31T10:15:56.093Z</time>
      </trkpt>
      <trkpt lat="43.00917" lon="-1.227355">
        <ele>815.0</ele>
        <time>2019-07-31T10:15:57.098Z</time>
      </trkpt>
      <trkpt lat="43.009165" lon="-1.22734167">
        <ele>815.0</ele>
        <time>2019-07-31T10:15:58.104Z</time>
      </trkpt>
      <trkpt lat="43.00916167" lon="-1.22732833">
        <ele>815.0</ele>
        <time>2019-07-31T10:15:59.111Z</time>
      </trkpt>
      <trkpt lat="43.00915833" lon="-1.22731167">
        <ele>815.0</ele>
        <time>2019-07-31T10:16:00.116Z</time>
      </trkpt>
      <trkpt lat="43.00915" lon="-1.22729833">
        <ele>815.0</ele>
        <time>2019-07-31T10:16:01.121Z</time>
      </trkpt>
      <trkpt lat="43.009145" lon="-1.227285">
        <ele>816.0</ele>
        <time>2019-07-31T10:16:02.125Z</time>
      </trkpt>
      <trkpt lat="43.00914" lon="-1.22727">
        <ele>816.0</ele>
        <time>2019-07-31T10:16:03.130Z</time>
      </trkpt>
      <trkpt lat="43.009135" lon="-1.227255">
        <ele>816.0</ele>
        <time>2019-07-31T10:16:04.133Z</time>
      </trkpt>
      <trkpt lat="43.00913167" lon="-1.22724167">
        <ele>816.0</ele>
        <time>2019-07-31T10:16:05.138Z</time>
      </trkpt>
      <trkpt lat="43.00912833" lon="-1.22722667">
        <ele>817.0</ele>
        <time>2019-07-31T10:16:06.144Z</time>
      </trkpt>
      <trkpt lat="43.009125" lon="-1.22721333">
        <ele>817.0</ele>
        <time>2019-07-31T10:16:07.150Z</time>
      </trkpt>
      <trkpt lat="43.00912333" lon="-1.22720167">
        <ele>816.0</ele>
        <time>2019-07-31T10:16:08.155Z</time>
      </trkpt>
      <trkpt lat="43.00911833" lon="-1.22718667">
        <ele>817.0</ele>
        <time>2019-07-31T10:16:09.163Z</time>
      </trkpt>
      <trkpt lat="43.009115" lon="-1.22717167">
        <ele>817.0</ele>
        <time>2019-07-31T10:16:10.166Z</time>
      </trkpt>
      <trkpt lat="43.00911167" lon="-1.22715667">
        <ele>816.0</ele>
        <time>2019-07-31T10:16:11.171Z</time>
      </trkpt>
      <trkpt lat="43.00910667" lon="-1.22714333">
        <ele>816.0</ele>
        <time>2019-07-31T10:16:12.175Z</time>
      </trkpt>
      <trkpt lat="43.00910167" lon="-1.22713167">
        <ele>816.0</ele>
        <time>2019-07-31T10:16:13.181Z</time>
      </trkpt>
      <trkpt lat="43.00909833" lon="-1.22711833">
        <ele>816.0</ele>
        <time>2019-07-31T10:16:14.186Z</time>
      </trkpt>
      <trkpt lat="43.009095" lon="-1.227105">
        <ele>816.0</ele>
        <time>2019-07-31T10:16:15.068Z</time>
      </trkpt>
      <trkpt lat="43.00909333" lon="-1.22709333">
        <ele>817.0</ele>
        <time>2019-07-31T10:16:16.075Z</time>
      </trkpt>
      <trkpt lat="43.00909167" lon="-1.22707833">
        <ele>817.0</ele>
        <time>2019-07-31T10:16:17.082Z</time>
      </trkpt>
      <trkpt lat="43.00909" lon="-1.227065">
        <ele>817.0</ele>
        <time>2019-07-31T10:16:18.087Z</time>
      </trkpt>
      <trkpt lat="43.00908667" lon="-1.22704833">
        <ele>817.0</ele>
        <time>2019-07-31T10:16:19.094Z</time>
      </trkpt>
      <trkpt lat="43.009085" lon="-1.22703167">
        <ele>817.0</ele>
        <time>2019-07-31T10:16:20.100Z</time>
      </trkpt>
      <trkpt lat="43.009085" lon="-1.227015">
        <ele>817.0</ele>
        <time>2019-07-31T10:16:21.103Z</time>
      </trkpt>
      <trkpt lat="43.00908333" lon="-1.22699833">
        <ele>817.0</ele>
        <time>2019-07-31T10:16:22.108Z</time>
      </trkpt>
      <trkpt lat="43.00908333" lon="-1.226985">
        <ele>817.0</ele>
        <time>2019-07-31T10:16:23.114Z</time>
      </trkpt>
      <trkpt lat="43.00908167" lon="-1.22697333">
        <ele>817.0</ele>
        <time>2019-07-31T10:16:24.118Z</time>
      </trkpt>
      <trkpt lat="43.00908333" lon="-1.226955">
        <ele>817.0</ele>
        <time>2019-07-31T10:16:25.122Z</time>
      </trkpt>
      <trkpt lat="43.009085" lon="-1.22694">
        <ele>816.0</ele>
        <time>2019-07-31T10:16:26.126Z</time>
      </trkpt>
      <trkpt lat="43.00908833" lon="-1.22692333">
        <ele>816.0</ele>
        <time>2019-07-31T10:16:27.132Z</time>
      </trkpt>
      <trkpt lat="43.00909333" lon="-1.226905">
        <ele>817.0</ele>
        <time>2019-07-31T10:16:28.138Z</time>
      </trkpt>
      <trkpt lat="43.00909667" lon="-1.22688667">
        <ele>816.0</ele>
        <time>2019-07-31T10:16:29.139Z</time>
      </trkpt>
      <trkpt lat="43.0091" lon="-1.22687">
        <ele>816.0</ele>
        <time>2019-07-31T10:16:30.142Z</time>
      </trkpt>
      <trkpt lat="43.0091" lon="-1.226855">
        <ele>816.0</ele>
        <time>2019-07-31T10:16:31.147Z</time>
      </trkpt>
      <trkpt lat="43.00910333" lon="-1.22683667">
        <ele>816.0</ele>
        <time>2019-07-31T10:16:32.151Z</time>
      </trkpt>
      <trkpt lat="43.009105" lon="-1.22682333">
        <ele>816.0</ele>
        <time>2019-07-31T10:16:33.158Z</time>
      </trkpt>
      <trkpt lat="43.00910667" lon="-1.22680667">
        <ele>816.0</ele>
        <time>2019-07-31T10:16:34.164Z</time>
      </trkpt>
      <trkpt lat="43.00911" lon="-1.22679">
        <ele>815.0</ele>
        <time>2019-07-31T10:16:35.168Z</time>
      </trkpt>
      <trkpt lat="43.00911167" lon="-1.22677167">
        <ele>815.0</ele>
        <time>2019-07-31T10:16:36.173Z</time>
      </trkpt>
      <trkpt lat="43.00911167" lon="-1.22675333">
        <ele>815.0</ele>
        <time>2019-07-31T10:16:37.178Z</time>
      </trkpt>
      <trkpt lat="43.00911" lon="-1.22673667">
        <ele>815.0</ele>
        <time>2019-07-31T10:16:38.183Z</time>
      </trkpt>
      <trkpt lat="43.00910667" lon="-1.22671833">
        <ele>816.0</ele>
        <time>2019-07-31T10:16:39.062Z</time>
      </trkpt>
      <trkpt lat="43.00910167" lon="-1.2267">
        <ele>816.0</ele>
        <time>2019-07-31T10:16:40.069Z</time>
      </trkpt>
      <trkpt lat="43.00909333" lon="-1.22668">
        <ele>816.0</ele>
        <time>2019-07-31T10:16:41.074Z</time>
      </trkpt>
      <trkpt lat="43.00908667" lon="-1.22666333">
        <ele>816.0</ele>
        <time>2019-07-31T10:16:42.077Z</time>
      </trkpt>
      <trkpt lat="43.00907667" lon="-1.22664667">
        <ele>816.0</ele>
        <time>2019-07-31T10:16:43.082Z</time>
      </trkpt>
      <trkpt lat="43.00907" lon="-1.22663167">
        <ele>816.0</ele>
        <time>2019-07-31T10:16:44.085Z</time>
      </trkpt>
      <trkpt lat="43.00906" lon="-1.226615">
        <ele>816.0</ele>
        <time>2019-07-31T10:16:45.091Z</time>
      </trkpt>
      <trkpt lat="43.00905" lon="-1.22659667">
        <ele>816.0</ele>
        <time>2019-07-31T10:16:46.097Z</time>
      </trkpt>
      <trkpt lat="43.00904" lon="-1.22658">
        <ele>816.0</ele>
        <time>2019-07-31T10:16:47.105Z</time>
      </trkpt>
      <trkpt lat="43.00903333" lon="-1.22656333">
        <ele>816.0</ele>
        <time>2019-07-31T10:16:48.111Z</time>
      </trkpt>
      <trkpt lat="43.00902667" lon="-1.22655">
        <ele>816.0</ele>
        <time>2019-07-31T10:16:49.115Z</time>
      </trkpt>
      <trkpt lat="43.00901667" lon="-1.22653833">
        <ele>816.0</ele>
        <time>2019-07-31T10:16:50.121Z</time>
      </trkpt>
      <trkpt lat="43.00900667" lon="-1.226525">
        <ele>816.0</ele>
        <time>2019-07-31T10:16:51.126Z</time>
      </trkpt>
      <trkpt lat="43.00899833" lon="-1.22651167">
        <ele>816.0</ele>
        <time>2019-07-31T10:16:52.132Z</time>
      </trkpt>
      <trkpt lat="43.00898667" lon="-1.22649833">
        <ele>816.0</ele>
        <time>2019-07-31T10:16:53.137Z</time>
      </trkpt>
      <trkpt lat="43.008975" lon="-1.22648833">
        <ele>816.0</ele>
        <time>2019-07-31T10:16:54.141Z</time>
      </trkpt>
      <trkpt lat="43.008965" lon="-1.226475">
        <ele>817.0</ele>
        <time>2019-07-31T10:16:55.148Z</time>
      </trkpt>
      <trkpt lat="43.00895167" lon="-1.22646167">
        <ele>817.0</ele>
        <time>2019-07-31T10:16:56.154Z</time>
      </trkpt>
      <trkpt lat="43.00893833" lon="-1.22645333">
        <ele>817.0</ele>
        <time>2019-07-31T10:16:57.161Z</time>
      </trkpt>
      <trkpt lat="43.008925" lon="-1.226445">
        <ele>818.0</ele>
        <time>2019-07-31T10:16:58.165Z</time>
      </trkpt>
      <trkpt lat="43.00891" lon="-1.22643833">
        <ele>818.0</ele>
        <time>2019-07-31T10:16:59.170Z</time>
      </trkpt>
      <trkpt lat="43.00889833" lon="-1.22643">
        <ele>818.0</ele>
        <time>2019-07-31T10:17:00.176Z</time>
      </trkpt>
      <trkpt lat="43.00888667" lon="-1.22642667">
        <ele>818.0</ele>
        <time>2019-07-31T10:17:01.182Z</time>
      </trkpt>
      <trkpt lat="43.00887167" lon="-1.226425">
        <ele>818.0</ele>
        <time>2019-07-31T10:17:02.063Z</time>
      </trkpt>
      <trkpt lat="43.00885833" lon="-1.226425">
        <ele>819.0</ele>
        <time>2019-07-31T10:17:03.066Z</time>
      </trkpt>
      <trkpt lat="43.008845" lon="-1.226425">
        <ele>819.0</ele>
        <time>2019-07-31T10:17:04.073Z</time>
      </trkpt>
      <trkpt lat="43.00883167" lon="-1.226425">
        <ele>820.0</ele>
        <time>2019-07-31T10:17:05.078Z</time>
      </trkpt>
      <trkpt lat="43.00882" lon="-1.22642833">
        <ele>821.0</ele>
        <time>2019-07-31T10:17:06.083Z</time>
      </trkpt>
      <trkpt lat="43.00880667" lon="-1.22643333">
        <ele>821.0</ele>
        <time>2019-07-31T10:17:07.088Z</time>
      </trkpt>
      <trkpt lat="43.00879333" lon="-1.22643667">
        <ele>821.0</ele>
        <time>2019-07-31T10:17:08.095Z</time>
      </trkpt>
      <trkpt lat="43.00878167" lon="-1.22644">
        <ele>821.0</ele>
        <time>2019-07-31T10:17:09.101Z</time>
      </trkpt>
      <trkpt lat="43.00876833" lon="-1.226445">
        <ele>820.0</ele>
        <time>2019-07-31T10:17:10.108Z</time>
      </trkpt>
      <trkpt lat="43.00875167" lon="-1.22645333">
        <ele>820.0</ele>
        <time>2019-07-31T10:17:11.112Z</time>
      </trkpt>
      <trkpt lat="43.00873667" lon="-1.22646167">
        <ele>820.0</ele>
        <time>2019-07-31T10:17:12.117Z</time>
      </trkpt>
      <trkpt lat="43.00872167" lon="-1.22646667">
        <ele>820.0</ele>
        <time>2019-07-31T10:17:13.123Z</time>
      </trkpt>
      <trkpt lat="43.00870667" lon="-1.22647">
        <ele>820.0</ele>
        <time>2019-07-31T10:17:14.128Z</time>
      </trkpt>
      <trkpt lat="43.00869333" lon="-1.22647667">
        <ele>820.0</ele>
        <time>2019-07-31T10:17:15.132Z</time>
      </trkpt>
      <trkpt lat="43.00867833" lon="-1.22648333">
        <ele>820.0</ele>
        <time>2019-07-31T10:17:16.138Z</time>
      </trkpt>
      <trkpt lat="43.008665" lon="-1.22648833">
        <ele>820.0</ele>
        <time>2019-07-31T10:17:17.145Z</time>
      </trkpt>
      <trkpt lat="43.00865167" lon="-1.22649333">
        <ele>820.0</ele>
        <time>2019-07-31T10:17:18.150Z</time>
      </trkpt>
      <trkpt lat="43.00864" lon="-1.22650167">
        <ele>819.0</ele>
        <time>2019-07-31T10:17:19.156Z</time>
      </trkpt>
      <trkpt lat="43.00862667" lon="-1.22650833">
        <ele>819.0</ele>
        <time>2019-07-31T10:17:20.163Z</time>
      </trkpt>
      <trkpt lat="43.00861333" lon="-1.22651667">
        <ele>820.0</ele>
        <time>2019-07-31T10:17:21.167Z</time>
      </trkpt>
      <trkpt lat="43.00860167" lon="-1.22652167">
        <ele>820.0</ele>
        <time>2019-07-31T10:17:22.172Z</time>
      </trkpt>
      <trkpt lat="43.00859" lon="-1.22652667">
        <ele>821.0</ele>
        <time>2019-07-31T10:17:23.177Z</time>
      </trkpt>
      <trkpt lat="43.00857667" lon="-1.22653333">
        <ele>821.0</ele>
        <time>2019-07-31T10:17:24.179Z</time>
      </trkpt>
      <trkpt lat="43.00856333" lon="-1.22653667">
        <ele>822.0</ele>
        <time>2019-07-31T10:17:25.182Z</time>
      </trkpt>
      <trkpt lat="43.00855167" lon="-1.22653833">
        <ele>823.0</ele>
        <time>2019-07-31T10:17:26.186Z</time>
      </trkpt>
      <trkpt lat="43.00853667" lon="-1.22653833">
        <ele>825.0</ele>
        <time>2019-07-31T10:17:27.067Z</time>
      </trkpt>
      <trkpt lat="43.008525" lon="-1.22653833">
        <ele>826.0</ele>
        <time>2019-07-31T10:17:28.073Z</time>
      </trkpt>
      <trkpt lat="43.00850833" lon="-1.226545">
        <ele>827.0</ele>
        <time>2019-07-31T10:17:29.079Z</time>
      </trkpt>
      <trkpt lat="43.00849167" lon="-1.226555">
        <ele>827.0</ele>
        <time>2019-07-31T10:17:30.084Z</time>
      </trkpt>
      <trkpt lat="43.008475" lon="-1.22656833">
        <ele>826.0</ele>
        <time>2019-07-31T10:17:31.091Z</time>
      </trkpt>
      <trkpt lat="43.00846333" lon="-1.22658">
        <ele>826.0</ele>
        <time>2019-07-31T10:17:32.097Z</time>
      </trkpt>
      <trkpt lat="43.00845" lon="-1.22658667">
        <ele>826.0</ele>
        <time>2019-07-31T10:17:33.103Z</time>
      </trkpt>
      <trkpt lat="43.008435" lon="-1.22659667">
        <ele>826.0</ele>
        <time>2019-07-31T10:17:34.109Z</time>
      </trkpt>
      <trkpt lat="43.00842167" lon="-1.22661">
        <ele>826.0</ele>
        <time>2019-07-31T10:17:35.116Z</time>
      </trkpt>
      <trkpt lat="43.00840833" lon="-1.22662333">
        <ele>825.0</ele>
        <time>2019-07-31T10:17:36.121Z</time>
      </trkpt>
      <trkpt lat="43.00839167" lon="-1.22663">
        <ele>825.0</ele>
        <time>2019-07-31T10:17:37.125Z</time>
      </trkpt>
      <trkpt lat="43.00837667" lon="-1.22664167">
        <ele>825.0</ele>
        <time>2019-07-31T10:17:38.129Z</time>
      </trkpt>
      <trkpt lat="43.008365" lon="-1.22665333">
        <ele>824.0</ele>
        <time>2019-07-31T10:17:39.134Z</time>
      </trkpt>
      <trkpt lat="43.00835333" lon="-1.22666167">
        <ele>824.0</ele>
        <time>2019-07-31T10:17:40.140Z</time>
      </trkpt>
      <trkpt lat="43.00834" lon="-1.22666833">
        <ele>825.0</ele>
        <time>2019-07-31T10:17:41.146Z</time>
      </trkpt>
      <trkpt lat="43.008325" lon="-1.22668">
        <ele>824.0</ele>
        <time>2019-07-31T10:17:42.152Z</time>
      </trkpt>
      <trkpt lat="43.00831333" lon="-1.22669167">
        <ele>824.0</ele>
        <time>2019-07-31T10:17:43.157Z</time>
      </trkpt>
      <trkpt lat="43.0083" lon="-1.22670167">
        <ele>824.0</ele>
        <time>2019-07-31T10:17:44.163Z</time>
      </trkpt>
      <trkpt lat="43.00828833" lon="-1.22671833">
        <ele>824.0</ele>
        <time>2019-07-31T10:17:45.168Z</time>
      </trkpt>
      <trkpt lat="43.00828167" lon="-1.22673667">
        <ele>824.0</ele>
        <time>2019-07-31T10:17:46.174Z</time>
      </trkpt>
      <trkpt lat="43.008275" lon="-1.22675667">
        <ele>823.0</ele>
        <time>2019-07-31T10:17:47.179Z</time>
      </trkpt>
      <trkpt lat="43.00827167" lon="-1.22678">
        <ele>823.0</ele>
        <time>2019-07-31T10:17:48.183Z</time>
      </trkpt>
      <trkpt lat="43.00827" lon="-1.22680167">
        <ele>823.0</ele>
        <time>2019-07-31T10:17:49.064Z</time>
      </trkpt>
      <trkpt lat="43.00827167" lon="-1.226825">
        <ele>822.0</ele>
        <time>2019-07-31T10:17:50.069Z</time>
      </trkpt>
      <trkpt lat="43.00828167" lon="-1.22685">
        <ele>821.0</ele>
        <time>2019-07-31T10:17:51.075Z</time>
      </trkpt>
      <trkpt lat="43.00828833" lon="-1.22686333">
        <ele>821.0</ele>
        <time>2019-07-31T10:17:52.081Z</time>
      </trkpt>
      <trkpt lat="43.0083" lon="-1.22687667">
        <ele>821.0</ele>
        <time>2019-07-31T10:17:53.083Z</time>
      </trkpt>
      <trkpt lat="43.00831333" lon="-1.22688667">
        <ele>821.0</ele>
        <time>2019-07-31T10:17:54.086Z</time>
      </trkpt>
      <trkpt lat="43.00832833" lon="-1.22689167">
        <ele>821.0</ele>
        <time>2019-07-31T10:17:55.093Z</time>
      </trkpt>
      <trkpt lat="43.00834167" lon="-1.22690167">
        <ele>820.0</ele>
        <time>2019-07-31T10:17:56.099Z</time>
      </trkpt>
      <trkpt lat="43.00834833" lon="-1.22691167">
        <ele>820.0</ele>
        <time>2019-07-31T10:17:57.104Z</time>
      </trkpt>
      <trkpt lat="43.00835667" lon="-1.22692167">
        <ele>820.0</ele>
        <time>2019-07-31T10:17:58.110Z</time>
      </trkpt>
      <trkpt lat="43.00836833" lon="-1.22693167">
        <ele>820.0</ele>
        <time>2019-07-31T10:17:59.117Z</time>
      </trkpt>
      <trkpt lat="43.00838" lon="-1.22694167">
        <ele>819.0</ele>
        <time>2019-07-31T10:18:00.123Z</time>
      </trkpt>
      <trkpt lat="43.00839" lon="-1.226955">
        <ele>819.0</ele>
        <time>2019-07-31T10:18:01.128Z</time>
      </trkpt>
      <trkpt lat="43.00840167" lon="-1.226965">
        <ele>819.0</ele>
        <time>2019-07-31T10:18:02.134Z</time>
      </trkpt>
      <trkpt lat="43.00841667" lon="-1.22697167">
        <ele>819.0</ele>
        <time>2019-07-31T10:18:03.137Z</time>
      </trkpt>
      <trkpt lat="43.00843167" lon="-1.22697833">
        <ele>818.0</ele>
        <time>2019-07-31T10:18:04.142Z</time>
      </trkpt>
      <trkpt lat="43.00844667" lon="-1.22698167">
        <ele>818.0</ele>
        <time>2019-07-31T10:18:05.148Z</time>
      </trkpt>
      <trkpt lat="43.00846" lon="-1.22698333">
        <ele>820.0</ele>
        <time>2019-07-31T10:18:06.153Z</time>
      </trkpt>
      <trkpt lat="43.00847667" lon="-1.22699167">
        <ele>821.0</ele>
        <time>2019-07-31T10:18:07.156Z</time>
      </trkpt>
      <trkpt lat="43.00848667" lon="-1.22700667">
        <ele>821.0</ele>
        <time>2019-07-31T10:18:08.163Z</time>
      </trkpt>
      <trkpt lat="43.00849667" lon="-1.22701667">
        <ele>821.0</ele>
        <time>2019-07-31T10:18:09.169Z</time>
      </trkpt>
      <trkpt lat="43.00851167" lon="-1.227025">
        <ele>821.0</ele>
        <time>2019-07-31T10:18:10.175Z</time>
      </trkpt>
      <trkpt lat="43.00852667" lon="-1.22703333">
        <ele>821.0</ele>
        <time>2019-07-31T10:18:11.181Z</time>
      </trkpt>
      <trkpt lat="43.00854333" lon="-1.22704333">
        <ele>821.0</ele>
        <time>2019-07-31T10:18:12.186Z</time>
      </trkpt>
      <trkpt lat="43.00855167" lon="-1.22705667">
        <ele>821.0</ele>
        <time>2019-07-31T10:18:13.064Z</time>
      </trkpt>
      <trkpt lat="43.00855333" lon="-1.22707">
        <ele>822.0</ele>
        <time>2019-07-31T10:18:14.072Z</time>
      </trkpt>
      <trkpt lat="43.008555" lon="-1.22708833">
        <ele>823.0</ele>
        <time>2019-07-31T10:18:15.077Z</time>
      </trkpt>
      <trkpt lat="43.00855833" lon="-1.22710833">
        <ele>823.0</ele>
        <time>2019-07-31T10:18:16.082Z</time>
      </trkpt>
      <trkpt lat="43.00856667" lon="-1.22712167">
        <ele>822.0</ele>
        <time>2019-07-31T10:18:17.087Z</time>
      </trkpt>
      <trkpt lat="43.00857833" lon="-1.22714">
        <ele>819.0</ele>
        <time>2019-07-31T10:18:18.091Z</time>
      </trkpt>
      <trkpt lat="43.008595" lon="-1.22715167">
        <ele>819.0</ele>
        <time>2019-07-31T10:18:19.096Z</time>
      </trkpt>
      <trkpt lat="43.00860667" lon="-1.22716667">
        <ele>818.0</ele>
        <time>2019-07-31T10:18:20.103Z</time>
      </trkpt>
      <trkpt lat="43.008615" lon="-1.22718167">
        <ele>818.0</ele>
        <time>2019-07-31T10:18:21.110Z</time>
      </trkpt>
      <trkpt lat="43.00862333" lon="-1.22719833">
        <ele>818.0</ele>
        <time>2019-07-31T10:18:22.115Z</time>
      </trkpt>
      <trkpt lat="43.00863" lon="-1.227215">
        <ele>818.0</ele>
        <time>2019-07-31T10:18:23.121Z</time>
      </trkpt>
      <trkpt lat="43.00863333" lon="-1.227235">
        <ele>818.0</ele>
        <time>2019-07-31T10:18:24.124Z</time>
      </trkpt>
      <trkpt lat="43.00863833" lon="-1.22725333">
        <ele>818.0</ele>
        <time>2019-07-31T10:18:25.129Z</time>
      </trkpt>
      <trkpt lat="43.00864667" lon="-1.22727167">
        <ele>818.0</ele>
        <time>2019-07-31T10:18:26.135Z</time>
      </trkpt>
      <trkpt lat="43.00865333" lon="-1.22728833">
        <ele>818.0</ele>
        <time>2019-07-31T10:18:27.140Z</time>
      </trkpt>
      <trkpt lat="43.00866" lon="-1.22730833">
        <ele>818.0</ele>
        <time>2019-07-31T10:18:28.144Z</time>
      </trkpt>
      <trkpt lat="43.00866833" lon="-1.22732667">
        <ele>818.0</ele>
        <time>2019-07-31T10:18:29.151Z</time>
      </trkpt>
      <trkpt lat="43.00867667" lon="-1.22734333">
        <ele>818.0</ele>
        <time>2019-07-31T10:18:30.156Z</time>
      </trkpt>
      <trkpt lat="43.00868667" lon="-1.22735667">
        <ele>818.0</ele>
        <time>2019-07-31T10:18:31.161Z</time>
      </trkpt>
      <trkpt lat="43.008695" lon="-1.227365">
        <ele>818.0</ele>
        <time>2019-07-31T10:18:32.166Z</time>
      </trkpt>
      <trkpt lat="43.0087" lon="-1.227365">
        <ele>818.0</ele>
        <time>2019-07-31T10:18:33.172Z</time>
      </trkpt>
      <trkpt lat="43.00870333" lon="-1.22737167">
        <ele>817.0</ele>
        <time>2019-07-31T10:18:34.177Z</time>
      </trkpt>
      <trkpt lat="43.00870667" lon="-1.22738167">
        <ele>817.0</ele>
        <time>2019-07-31T10:18:35.182Z</time>
      </trkpt>
      <trkpt lat="43.00871" lon="-1.22739833">
        <ele>817.0</ele>
        <time>2019-07-31T10:18:36.061Z</time>
      </trkpt>
      <trkpt lat="43.00871333" lon="-1.22741667">
        <ele>816.0</ele>
        <time>2019-07-31T10:18:37.067Z</time>
      </trkpt>
      <trkpt lat="43.00871833" lon="-1.22743167">
        <ele>816.0</ele>
        <time>2019-07-31T10:18:38.072Z</time>
      </trkpt>
      <trkpt lat="43.008725" lon="-1.22745">
        <ele>815.0</ele>
        <time>2019-07-31T10:18:39.077Z</time>
      </trkpt>
      <trkpt lat="43.00872667" lon="-1.22747">
        <ele>815.0</ele>
        <time>2019-07-31T10:18:40.080Z</time>
      </trkpt>
      <trkpt lat="43.008735" lon="-1.22748833">
        <ele>815.0</ele>
        <time>2019-07-31T10:18:41.085Z</time>
      </trkpt>
      <trkpt lat="43.00874167" lon="-1.22750667">
        <ele>814.0</ele>
        <time>2019-07-31T10:18:42.091Z</time>
      </trkpt>
      <trkpt lat="43.00874833" lon="-1.22752667">
        <ele>814.0</ele>
        <time>2019-07-31T10:18:43.097Z</time>
      </trkpt>
      <trkpt lat="43.00875667" lon="-1.22754333">
        <ele>814.0</ele>
        <time>2019-07-31T10:18:44.104Z</time>
      </trkpt>
      <trkpt lat="43.008765" lon="-1.227555">
        <ele>814.0</ele>
        <time>2019-07-31T10:18:45.110Z</time>
      </trkpt>
      <trkpt lat="43.00877333" lon="-1.22756">
        <ele>814.0</ele>
        <time>2019-07-31T10:18:46.116Z</time>
      </trkpt>
      <trkpt lat="43.008785" lon="-1.22756">
        <ele>815.0</ele>
        <time>2019-07-31T10:18:47.121Z</time>
      </trkpt>
      <trkpt lat="43.008795" lon="-1.22755667">
        <ele>815.0</ele>
        <time>2019-07-31T10:18:48.124Z</time>
      </trkpt>
      <trkpt lat="43.00880833" lon="-1.22755167">
        <ele>815.0</ele>
        <time>2019-07-31T10:18:49.131Z</time>
      </trkpt>
      <trkpt lat="43.00882167" lon="-1.227545">
        <ele>815.0</ele>
        <time>2019-07-31T10:18:50.137Z</time>
      </trkpt>
      <trkpt lat="43.00883167" lon="-1.22754167">
        <ele>815.0</ele>
        <time>2019-07-31T10:18:51.142Z</time>
      </trkpt>
      <trkpt lat="43.00884333" lon="-1.227535">
        <ele>815.0</ele>
        <time>2019-07-31T10:18:52.147Z</time>
      </trkpt>
      <trkpt lat="43.008855" lon="-1.22752667">
        <ele>815.0</ele>
        <time>2019-07-31T10:18:53.152Z</time>
      </trkpt>
      <trkpt lat="43.008865" lon="-1.22751667">
        <ele>814.0</ele>
        <time>2019-07-31T10:18:54.157Z</time>
      </trkpt>
      <trkpt lat="43.00887333" lon="-1.22751167">
        <ele>814.0</ele>
        <time>2019-07-31T10:18:55.162Z</time>
      </trkpt>
      <trkpt lat="43.00887833" lon="-1.22750833">
        <ele>814.0</ele>
        <time>2019-07-31T10:18:56.168Z</time>
      </trkpt>
      <trkpt lat="43.00888167" lon="-1.227505">
        <ele>814.0</ele>
        <time>2019-07-31T10:18:57.174Z</time>
      </trkpt>
      <trkpt lat="43.00888" lon="-1.227505">
        <ele>814.0</ele>
        <time>2019-07-31T10:18:58.179Z</time>
      </trkpt>
      <trkpt lat="43.00887833" lon="-1.2275">
        <ele>814.0</ele>
        <time>2019-07-31T10:18:59.185Z</time>
      </trkpt>
      <trkpt lat="43.008875" lon="-1.227495">
        <ele>815.0</ele>
        <time>2019-07-31T10:19:00.065Z</time>
      </trkpt>
      <trkpt lat="43.00886833" lon="-1.22749667">
        <ele>815.0</ele>
        <time>2019-07-31T10:19:01.071Z</time>
      </trkpt>
      <trkpt lat="43.00885833" lon="-1.22749833">
        <ele>815.0</ele>
        <time>2019-07-31T10:19:02.078Z</time>
      </trkpt>
      <trkpt lat="43.00884667" lon="-1.22749833">
        <ele>815.0</ele>
        <time>2019-07-31T10:19:03.084Z</time>
      </trkpt>
      <trkpt lat="43.008835" lon="-1.22750333">
        <ele>815.0</ele>
        <time>2019-07-31T10:19:04.090Z</time>
      </trkpt>
      <trkpt lat="43.00882333" lon="-1.22751">
        <ele>815.0</ele>
        <time>2019-07-31T10:19:05.094Z</time>
      </trkpt>
      <trkpt lat="43.00881167" lon="-1.22752">
        <ele>815.0</ele>
        <time>2019-07-31T10:19:06.099Z</time>
      </trkpt>
      <trkpt lat="43.00880167" lon="-1.22753167">
        <ele>816.0</ele>
        <time>2019-07-31T10:19:07.105Z</time>
      </trkpt>
      <trkpt lat="43.00879667" lon="-1.227545">
        <ele>816.0</ele>
        <time>2019-07-31T10:19:08.111Z</time>
      </trkpt>
      <trkpt lat="43.008795" lon="-1.22756333">
        <ele>816.0</ele>
        <time>2019-07-31T10:19:09.117Z</time>
      </trkpt>
      <trkpt lat="43.00879833" lon="-1.22757833">
        <ele>816.0</ele>
        <time>2019-07-31T10:19:10.123Z</time>
      </trkpt>
      <trkpt lat="43.00880167" lon="-1.2276">
        <ele>816.0</ele>
        <time>2019-07-31T10:19:11.128Z</time>
      </trkpt>
      <trkpt lat="43.00880333" lon="-1.22762">
        <ele>816.0</ele>
        <time>2019-07-31T10:19:12.134Z</time>
      </trkpt>
      <trkpt lat="43.00880667" lon="-1.22764">
        <ele>816.0</ele>
        <time>2019-07-31T10:19:13.139Z</time>
      </trkpt>
      <trkpt lat="43.00881167" lon="-1.22766167">
        <ele>816.0</ele>
        <time>2019-07-31T10:19:14.144Z</time>
      </trkpt>
      <trkpt lat="43.008815" lon="-1.22768167">
        <ele>816.0</ele>
        <time>2019-07-31T10:19:15.151Z</time>
      </trkpt>
      <trkpt lat="43.00882" lon="-1.22770333">
        <ele>816.0</ele>
        <time>2019-07-31T10:19:16.156Z</time>
      </trkpt>
      <trkpt lat="43.008825" lon="-1.227725">
        <ele>815.0</ele>
        <time>2019-07-31T10:19:17.160Z</time>
      </trkpt>
      <trkpt lat="43.00883" lon="-1.22774667">
        <ele>815.0</ele>
        <time>2019-07-31T10:19:18.165Z</time>
      </trkpt>
      <trkpt lat="43.008835" lon="-1.22776667">
        <ele>814.0</ele>
        <time>2019-07-31T10:19:19.166Z</time>
      </trkpt>
      <trkpt lat="43.00884167" lon="-1.22778833">
        <ele>813.0</ele>
        <time>2019-07-31T10:19:20.168Z</time>
      </trkpt>
      <trkpt lat="43.00884667" lon="-1.227805">
        <ele>812.0</ele>
        <time>2019-07-31T10:19:21.172Z</time>
      </trkpt>
      <trkpt lat="43.00885333" lon="-1.22782333">
        <ele>812.0</ele>
        <time>2019-07-31T10:19:22.173Z</time>
      </trkpt>
      <trkpt lat="43.00885833" lon="-1.22784667">
        <ele>811.0</ele>
        <time>2019-07-31T10:19:23.178Z</time>
      </trkpt>
      <trkpt lat="43.008865" lon="-1.22786667">
        <ele>811.0</ele>
        <time>2019-07-31T10:19:24.185Z</time>
      </trkpt>
      <trkpt lat="43.00887333" lon="-1.227885">
        <ele>811.0</ele>
        <time>2019-07-31T10:19:25.065Z</time>
      </trkpt>
      <trkpt lat="43.00888167" lon="-1.22790167">
        <ele>811.0</ele>
        <time>2019-07-31T10:19:26.069Z</time>
      </trkpt>
      <trkpt lat="43.00889" lon="-1.22791833">
        <ele>810.0</ele>
        <time>2019-07-31T10:19:27.075Z</time>
      </trkpt>
      <trkpt lat="43.00889667" lon="-1.22794">
        <ele>810.0</ele>
        <time>2019-07-31T10:19:28.079Z</time>
      </trkpt>
      <trkpt lat="43.00890167" lon="-1.22796">
        <ele>809.0</ele>
        <time>2019-07-31T10:19:29.083Z</time>
      </trkpt>
      <trkpt lat="43.00890833" lon="-1.22798">
        <ele>808.0</ele>
        <time>2019-07-31T10:19:30.088Z</time>
      </trkpt>
      <trkpt lat="43.00891333" lon="-1.22800167">
        <ele>808.0</ele>
        <time>2019-07-31T10:19:31.093Z</time>
      </trkpt>
      <trkpt lat="43.008915" lon="-1.22802167">
        <ele>808.0</ele>
        <time>2019-07-31T10:19:32.098Z</time>
      </trkpt>
      <trkpt lat="43.00892" lon="-1.22804167">
        <ele>808.0</ele>
        <time>2019-07-31T10:19:33.105Z</time>
      </trkpt>
      <trkpt lat="43.00892833" lon="-1.22806">
        <ele>809.0</ele>
        <time>2019-07-31T10:19:34.110Z</time>
      </trkpt>
      <trkpt lat="43.00893833" lon="-1.22807333">
        <ele>809.0</ele>
        <time>2019-07-31T10:19:35.118Z</time>
      </trkpt>
      <trkpt lat="43.00895" lon="-1.228085">
        <ele>810.0</ele>
        <time>2019-07-31T10:19:36.124Z</time>
      </trkpt>
      <trkpt lat="43.00896" lon="-1.22808833">
        <ele>810.0</ele>
        <time>2019-07-31T10:19:37.130Z</time>
      </trkpt>
      <trkpt lat="43.00897167" lon="-1.22808833">
        <ele>810.0</ele>
        <time>2019-07-31T10:19:38.135Z</time>
      </trkpt>
      <trkpt lat="43.00898333" lon="-1.22808333">
        <ele>811.0</ele>
        <time>2019-07-31T10:19:39.141Z</time>
      </trkpt>
      <trkpt lat="43.00899667" lon="-1.22807833">
        <ele>810.0</ele>
        <time>2019-07-31T10:19:40.149Z</time>
      </trkpt>
      <trkpt lat="43.00900833" lon="-1.22807">
        <ele>811.0</ele>
        <time>2019-07-31T10:19:41.153Z</time>
      </trkpt>
      <trkpt lat="43.00902167" lon="-1.228065">
        <ele>811.0</ele>
        <time>2019-07-31T10:19:42.158Z</time>
      </trkpt>
      <trkpt lat="43.00903333" lon="-1.22806167">
        <ele>811.0</ele>
        <time>2019-07-31T10:19:43.164Z</time>
      </trkpt>
      <trkpt lat="43.00904167" lon="-1.22805833">
        <ele>812.0</ele>
        <time>2019-07-31T10:19:44.168Z</time>
      </trkpt>
      <trkpt lat="43.00904833" lon="-1.228055">
        <ele>812.0</ele>
        <time>2019-07-31T10:19:45.176Z</time>
      </trkpt>
      <trkpt lat="43.00905167" lon="-1.228055">
        <ele>813.0</ele>
        <time>2019-07-31T10:19:46.182Z</time>
      </trkpt>
      <trkpt lat="43.00905" lon="-1.22805667">
        <ele>813.0</ele>
        <time>2019-07-31T10:19:47.061Z</time>
      </trkpt>
      <trkpt lat="43.009045" lon="-1.228055">
        <ele>814.0</ele>
        <time>2019-07-31T10:19:48.064Z</time>
      </trkpt>
      <trkpt lat="43.00904" lon="-1.22805833">
        <ele>814.0</ele>
        <time>2019-07-31T10:19:49.070Z</time>
      </trkpt>
      <trkpt lat="43.00903333" lon="-1.22806167">
        <ele>814.0</ele>
        <time>2019-07-31T10:19:50.076Z</time>
      </trkpt>
      <trkpt lat="43.009025" lon="-1.22806833">
        <ele>815.0</ele>
        <time>2019-07-31T10:19:51.082Z</time>
      </trkpt>
      <trkpt lat="43.00901333" lon="-1.22807833">
        <ele>815.0</ele>
        <time>2019-07-31T10:19:52.083Z</time>
      </trkpt>
      <trkpt lat="43.009" lon="-1.228085">
        <ele>815.0</ele>
        <time>2019-07-31T10:19:53.087Z</time>
      </trkpt>
      <trkpt lat="43.00899" lon="-1.22809333">
        <ele>815.0</ele>
        <time>2019-07-31T10:19:54.093Z</time>
      </trkpt>
      <trkpt lat="43.00897833" lon="-1.2281">
        <ele>815.0</ele>
        <time>2019-07-31T10:19:55.101Z</time>
      </trkpt>
      <trkpt lat="43.00897" lon="-1.22810667">
        <ele>816.0</ele>
        <time>2019-07-31T10:19:56.106Z</time>
      </trkpt>
      <trkpt lat="43.00896667" lon="-1.22812">
        <ele>815.0</ele>
        <time>2019-07-31T10:19:57.112Z</time>
      </trkpt>
      <trkpt lat="43.00896667" lon="-1.22813833">
        <ele>815.0</ele>
        <time>2019-07-31T10:19:58.119Z</time>
      </trkpt>
      <trkpt lat="43.008965" lon="-1.22815833">
        <ele>814.0</ele>
        <time>2019-07-31T10:19:59.124Z</time>
      </trkpt>
      <trkpt lat="43.00897" lon="-1.22817833">
        <ele>814.0</ele>
        <time>2019-07-31T10:20:00.127Z</time>
      </trkpt>
      <trkpt lat="43.00897333" lon="-1.2282">
        <ele>814.0</ele>
        <time>2019-07-31T10:20:01.132Z</time>
      </trkpt>
      <trkpt lat="43.00897667" lon="-1.22821833">
        <ele>814.0</ele>
        <time>2019-07-31T10:20:02.136Z</time>
      </trkpt>
      <trkpt lat="43.00898333" lon="-1.22823667">
        <ele>814.0</ele>
        <time>2019-07-31T10:20:03.140Z</time>
      </trkpt>
      <trkpt lat="43.00898833" lon="-1.228255">
        <ele>814.0</ele>
        <time>2019-07-31T10:20:04.146Z</time>
      </trkpt>
      <trkpt lat="43.008995" lon="-1.22826833">
        <ele>815.0</ele>
        <time>2019-07-31T10:20:05.154Z</time>
      </trkpt>
      <trkpt lat="43.00900333" lon="-1.228285">
        <ele>815.0</ele>
        <time>2019-07-31T10:20:06.161Z</time>
      </trkpt>
      <trkpt lat="43.00900833" lon="-1.22830333">
        <ele>816.0</ele>
        <time>2019-07-31T10:20:07.165Z</time>
      </trkpt>
      <trkpt lat="43.00901333" lon="-1.22831833">
        <ele>816.0</ele>
        <time>2019-07-31T10:20:08.169Z</time>
      </trkpt>
      <trkpt lat="43.00902167" lon="-1.228335">
        <ele>817.0</ele>
        <time>2019-07-31T10:20:09.171Z</time>
      </trkpt>
      <trkpt lat="43.00902333" lon="-1.22835333">
        <ele>817.0</ele>
        <time>2019-07-31T10:20:10.176Z</time>
      </trkpt>
      <trkpt lat="43.00902833" lon="-1.22837167">
        <ele>817.0</ele>
        <time>2019-07-31T10:20:11.182Z</time>
      </trkpt>
      <trkpt lat="43.00903" lon="-1.22839333">
        <ele>817.0</ele>
        <time>2019-07-31T10:20:12.186Z</time>
      </trkpt>
      <trkpt lat="43.009035" lon="-1.22841">
        <ele>818.0</ele>
        <time>2019-07-31T10:20:13.065Z</time>
      </trkpt>
      <trkpt lat="43.00904167" lon="-1.22843">
        <ele>818.0</ele>
        <time>2019-07-31T10:20:14.069Z</time>
      </trkpt>
      <trkpt lat="43.00904833" lon="-1.22844833">
        <ele>818.0</ele>
        <time>2019-07-31T10:20:15.076Z</time>
      </trkpt>
      <trkpt lat="43.009055" lon="-1.22846833">
        <ele>818.0</ele>
        <time>2019-07-31T10:20:16.082Z</time>
      </trkpt>
      <trkpt lat="43.00906167" lon="-1.228485">
        <ele>818.0</ele>
        <time>2019-07-31T10:20:17.085Z</time>
      </trkpt>
      <trkpt lat="43.00906833" lon="-1.22850333">
        <ele>818.0</ele>
        <time>2019-07-31T10:20:18.087Z</time>
      </trkpt>
      <trkpt lat="43.00907667" lon="-1.22852167">
        <ele>818.0</ele>
        <time>2019-07-31T10:20:19.093Z</time>
      </trkpt>
      <trkpt lat="43.00908333" lon="-1.22853833">
        <ele>818.0</ele>
        <time>2019-07-31T10:20:20.096Z</time>
      </trkpt>
      <trkpt lat="43.00909167" lon="-1.228555">
        <ele>818.0</ele>
        <time>2019-07-31T10:20:21.101Z</time>
      </trkpt>
      <trkpt lat="43.00909833" lon="-1.22857">
        <ele>817.0</ele>
        <time>2019-07-31T10:20:22.105Z</time>
      </trkpt>
      <trkpt lat="43.00910167" lon="-1.22858833">
        <ele>817.0</ele>
        <time>2019-07-31T10:20:23.111Z</time>
      </trkpt>
      <trkpt lat="43.00910333" lon="-1.22860667">
        <ele>816.0</ele>
        <time>2019-07-31T10:20:24.114Z</time>
      </trkpt>
      <trkpt lat="43.00911" lon="-1.228625">
        <ele>816.0</ele>
        <time>2019-07-31T10:20:25.119Z</time>
      </trkpt>
      <trkpt lat="43.009115" lon="-1.22864167">
        <ele>816.0</ele>
        <time>2019-07-31T10:20:26.125Z</time>
      </trkpt>
      <trkpt lat="43.00912" lon="-1.22866167">
        <ele>816.0</ele>
        <time>2019-07-31T10:20:27.130Z</time>
      </trkpt>
      <trkpt lat="43.00912667" lon="-1.22868">
        <ele>815.0</ele>
        <time>2019-07-31T10:20:28.134Z</time>
      </trkpt>
      <trkpt lat="43.009135" lon="-1.22870333">
        <ele>815.0</ele>
        <time>2019-07-31T10:20:29.138Z</time>
      </trkpt>
      <trkpt lat="43.00914333" lon="-1.22871833">
        <ele>816.0</ele>
        <time>2019-07-31T10:20:30.143Z</time>
      </trkpt>
      <trkpt lat="43.00915833" lon="-1.22873833">
        <ele>817.0</ele>
        <time>2019-07-31T10:20:31.148Z</time>
      </trkpt>
      <trkpt lat="43.00917" lon="-1.22875">
        <ele>817.0</ele>
        <time>2019-07-31T10:20:32.154Z</time>
      </trkpt>
      <trkpt lat="43.00918167" lon="-1.22876333">
        <ele>817.0</ele>
        <time>2019-07-31T10:20:33.159Z</time>
      </trkpt>
      <trkpt lat="43.00919167" lon="-1.22878167">
        <ele>817.0</ele>
        <time>2019-07-31T10:20:34.164Z</time>
      </trkpt>
      <trkpt lat="43.0092" lon="-1.2288">
        <ele>817.0</ele>
        <time>2019-07-31T10:20:35.167Z</time>
      </trkpt>
      <trkpt lat="43.00920667" lon="-1.22882">
        <ele>817.0</ele>
        <time>2019-07-31T10:20:36.174Z</time>
      </trkpt>
      <trkpt lat="43.009215" lon="-1.22884333">
        <ele>816.0</ele>
        <time>2019-07-31T10:20:37.180Z</time>
      </trkpt>
      <trkpt lat="43.00922167" lon="-1.228865">
        <ele>815.0</ele>
        <time>2019-07-31T10:20:38.184Z</time>
      </trkpt>
      <trkpt lat="43.00922667" lon="-1.22888333">
        <ele>815.0</ele>
        <time>2019-07-31T10:20:39.064Z</time>
      </trkpt>
      <trkpt lat="43.009235" lon="-1.22889667">
        <ele>814.0</ele>
        <time>2019-07-31T10:20:40.070Z</time>
      </trkpt>
      <trkpt lat="43.00924167" lon="-1.22891667">
        <ele>814.0</ele>
        <time>2019-07-31T10:20:41.074Z</time>
      </trkpt>
      <trkpt lat="43.00925" lon="-1.228935">
        <ele>814.0</ele>
        <time>2019-07-31T10:20:42.080Z</time>
      </trkpt>
      <trkpt lat="43.00926167" lon="-1.228955">
        <ele>814.0</ele>
        <time>2019-07-31T10:20:43.084Z</time>
      </trkpt>
      <trkpt lat="43.00926833" lon="-1.22897">
        <ele>814.0</ele>
        <time>2019-07-31T10:20:44.090Z</time>
      </trkpt>
      <trkpt lat="43.00927833" lon="-1.22898833">
        <ele>814.0</ele>
        <time>2019-07-31T10:20:45.097Z</time>
      </trkpt>
      <trkpt lat="43.00928833" lon="-1.22900333">
        <ele>814.0</ele>
        <time>2019-07-31T10:20:46.102Z</time>
      </trkpt>
      <trkpt lat="43.00929833" lon="-1.229015">
        <ele>814.0</ele>
        <time>2019-07-31T10:20:47.108Z</time>
      </trkpt>
      <trkpt lat="43.00931" lon="-1.22903">
        <ele>815.0</ele>
        <time>2019-07-31T10:20:48.114Z</time>
      </trkpt>
      <trkpt lat="43.00932" lon="-1.22904333">
        <ele>815.0</ele>
        <time>2019-07-31T10:20:49.122Z</time>
      </trkpt>
      <trkpt lat="43.00933333" lon="-1.22905833">
        <ele>815.0</ele>
        <time>2019-07-31T10:20:50.128Z</time>
      </trkpt>
      <trkpt lat="43.00934167" lon="-1.22907333">
        <ele>815.0</ele>
        <time>2019-07-31T10:20:51.135Z</time>
      </trkpt>
      <trkpt lat="43.00935" lon="-1.229085">
        <ele>815.0</ele>
        <time>2019-07-31T10:20:52.141Z</time>
      </trkpt>
      <trkpt lat="43.00936" lon="-1.22909667">
        <ele>816.0</ele>
        <time>2019-07-31T10:20:53.147Z</time>
      </trkpt>
      <trkpt lat="43.00937167" lon="-1.22911">
        <ele>815.0</ele>
        <time>2019-07-31T10:20:54.152Z</time>
      </trkpt>
      <trkpt lat="43.00938333" lon="-1.22912167">
        <ele>815.0</ele>
        <time>2019-07-31T10:20:55.159Z</time>
      </trkpt>
      <trkpt lat="43.00939833" lon="-1.229135">
        <ele>815.0</ele>
        <time>2019-07-31T10:20:56.164Z</time>
      </trkpt>
      <trkpt lat="43.00940833" lon="-1.22915167">
        <ele>815.0</ele>
        <time>2019-07-31T10:20:57.171Z</time>
      </trkpt>
      <trkpt lat="43.00942" lon="-1.22916667">
        <ele>815.0</ele>
        <time>2019-07-31T10:20:58.176Z</time>
      </trkpt>
      <trkpt lat="43.00943" lon="-1.22918167">
        <ele>814.0</ele>
        <time>2019-07-31T10:20:59.183Z</time>
      </trkpt>
      <trkpt lat="43.009435" lon="-1.22919">
        <ele>814.0</ele>
        <time>2019-07-31T10:21:00.064Z</time>
      </trkpt>
      <trkpt lat="43.00944333" lon="-1.229205">
        <ele>814.0</ele>
        <time>2019-07-31T10:21:01.070Z</time>
      </trkpt>
      <trkpt lat="43.00945" lon="-1.22922167">
        <ele>815.0</ele>
        <time>2019-07-31T10:21:02.074Z</time>
      </trkpt>
      <trkpt lat="43.00945667" lon="-1.22924">
        <ele>815.0</ele>
        <time>2019-07-31T10:21:03.079Z</time>
      </trkpt>
      <trkpt lat="43.00946" lon="-1.22925667">
        <ele>814.0</ele>
        <time>2019-07-31T10:21:04.082Z</time>
      </trkpt>
      <trkpt lat="43.009465" lon="-1.22927333">
        <ele>813.0</ele>
        <time>2019-07-31T10:21:05.085Z</time>
      </trkpt>
      <trkpt lat="43.00947667" lon="-1.22928833">
        <ele>813.0</ele>
        <time>2019-07-31T10:21:06.091Z</time>
      </trkpt>
      <trkpt lat="43.00948833" lon="-1.2293">
        <ele>813.0</ele>
        <time>2019-07-31T10:21:07.098Z</time>
      </trkpt>
      <trkpt lat="43.00949833" lon="-1.22930833">
        <ele>813.0</ele>
        <time>2019-07-31T10:21:08.104Z</time>
      </trkpt>
      <trkpt lat="43.009505" lon="-1.229325">
        <ele>812.0</ele>
        <time>2019-07-31T10:21:09.110Z</time>
      </trkpt>
      <trkpt lat="43.00951667" lon="-1.22933833">
        <ele>813.0</ele>
        <time>2019-07-31T10:21:10.115Z</time>
      </trkpt>
      <trkpt lat="43.00953" lon="-1.22934833">
        <ele>813.0</ele>
        <time>2019-07-31T10:21:11.120Z</time>
      </trkpt>
      <trkpt lat="43.00954167" lon="-1.22936">
        <ele>813.0</ele>
        <time>2019-07-31T10:21:12.124Z</time>
      </trkpt>
      <trkpt lat="43.00955667" lon="-1.22937333">
        <ele>814.0</ele>
        <time>2019-07-31T10:21:13.129Z</time>
      </trkpt>
      <trkpt lat="43.00956833" lon="-1.229385">
        <ele>814.0</ele>
        <time>2019-07-31T10:21:14.137Z</time>
      </trkpt>
      <trkpt lat="43.009585" lon="-1.22939833">
        <ele>814.0</ele>
        <time>2019-07-31T10:21:15.143Z</time>
      </trkpt>
      <trkpt lat="43.00960167" lon="-1.22940667">
        <ele>815.0</ele>
        <time>2019-07-31T10:21:16.148Z</time>
      </trkpt>
      <trkpt lat="43.00961667" lon="-1.22942">
        <ele>816.0</ele>
        <time>2019-07-31T10:21:17.154Z</time>
      </trkpt>
      <trkpt lat="43.00962833" lon="-1.22943">
        <ele>816.0</ele>
        <time>2019-07-31T10:21:18.160Z</time>
      </trkpt>
      <trkpt lat="43.00963833" lon="-1.22944333">
        <ele>817.0</ele>
        <time>2019-07-31T10:21:19.166Z</time>
      </trkpt>
      <trkpt lat="43.00965" lon="-1.22945833">
        <ele>816.0</ele>
        <time>2019-07-31T10:21:20.171Z</time>
      </trkpt>
      <trkpt lat="43.00966833" lon="-1.22946667">
        <ele>817.0</ele>
        <time>2019-07-31T10:21:21.176Z</time>
      </trkpt>
      <trkpt lat="43.00968833" lon="-1.22947167">
        <ele>818.0</ele>
        <time>2019-07-31T10:21:22.182Z</time>
      </trkpt>
      <trkpt lat="43.00970667" lon="-1.22947167">
        <ele>818.0</ele>
        <time>2019-07-31T10:21:23.185Z</time>
      </trkpt>
      <trkpt lat="43.00972667" lon="-1.22947167">
        <ele>817.0</ele>
        <time>2019-07-31T10:21:24.065Z</time>
      </trkpt>
      <trkpt lat="43.009745" lon="-1.22947">
        <ele>816.0</ele>
        <time>2019-07-31T10:21:25.071Z</time>
      </trkpt>
      <trkpt lat="43.00976167" lon="-1.229465">
        <ele>816.0</ele>
        <time>2019-07-31T10:21:26.078Z</time>
      </trkpt>
      <trkpt lat="43.00978" lon="-1.22946333">
        <ele>816.0</ele>
        <time>2019-07-31T10:21:27.082Z</time>
      </trkpt>
      <trkpt lat="43.00979833" lon="-1.22946">
        <ele>816.0</ele>
        <time>2019-07-31T10:21:28.089Z</time>
      </trkpt>
      <trkpt lat="43.00981667" lon="-1.22945833">
        <ele>817.0</ele>
        <time>2019-07-31T10:21:29.093Z</time>
      </trkpt>
      <trkpt lat="43.00983167" lon="-1.22946167">
        <ele>817.0</ele>
        <time>2019-07-31T10:21:30.099Z</time>
      </trkpt>
      <trkpt lat="43.00984833" lon="-1.229465">
        <ele>818.0</ele>
        <time>2019-07-31T10:21:31.103Z</time>
      </trkpt>
      <trkpt lat="43.00986167" lon="-1.22947333">
        <ele>819.0</ele>
        <time>2019-07-31T10:21:32.109Z</time>
      </trkpt>
      <trkpt lat="43.00987667" lon="-1.22947667">
        <ele>820.0</ele>
        <time>2019-07-31T10:21:33.114Z</time>
      </trkpt>
      <trkpt lat="43.00989333" lon="-1.22948333">
        <ele>820.0</ele>
        <time>2019-07-31T10:21:34.119Z</time>
      </trkpt>
      <trkpt lat="43.00991" lon="-1.22948333">
        <ele>820.0</ele>
        <time>2019-07-31T10:21:35.124Z</time>
      </trkpt>
      <trkpt lat="43.00992167" lon="-1.22948667">
        <ele>819.0</ele>
        <time>2019-07-31T10:21:36.130Z</time>
      </trkpt>
      <trkpt lat="43.00993333" lon="-1.22949167">
        <ele>818.0</ele>
        <time>2019-07-31T10:21:37.136Z</time>
      </trkpt>
      <trkpt lat="43.00994667" lon="-1.229495">
        <ele>818.0</ele>
        <time>2019-07-31T10:21:38.142Z</time>
      </trkpt>
      <trkpt lat="43.00996" lon="-1.22950167">
        <ele>818.0</ele>
        <time>2019-07-31T10:21:39.145Z</time>
      </trkpt>
      <trkpt lat="43.00997333" lon="-1.229505">
        <ele>818.0</ele>
        <time>2019-07-31T10:21:40.149Z</time>
      </trkpt>
      <trkpt lat="43.00999" lon="-1.22951">
        <ele>818.0</ele>
        <time>2019-07-31T10:21:41.156Z</time>
      </trkpt>
      <trkpt lat="43.01000333" lon="-1.22951667">
        <ele>818.0</ele>
        <time>2019-07-31T10:21:42.160Z</time>
      </trkpt>
      <trkpt lat="43.01001667" lon="-1.22952167">
        <ele>819.0</ele>
        <time>2019-07-31T10:21:43.165Z</time>
      </trkpt>
      <trkpt lat="43.01003167" lon="-1.22952333">
        <ele>819.0</ele>
        <time>2019-07-31T10:21:44.169Z</time>
      </trkpt>
      <trkpt lat="43.01004833" lon="-1.22951667">
        <ele>819.0</ele>
        <time>2019-07-31T10:21:45.176Z</time>
      </trkpt>
      <trkpt lat="43.01006167" lon="-1.22950333">
        <ele>819.0</ele>
        <time>2019-07-31T10:21:46.182Z</time>
      </trkpt>
      <trkpt lat="43.01007333" lon="-1.22948667">
        <ele>819.0</ele>
        <time>2019-07-31T10:21:47.061Z</time>
      </trkpt>
      <trkpt lat="43.01008333" lon="-1.22946667">
        <ele>819.0</ele>
        <time>2019-07-31T10:21:48.066Z</time>
      </trkpt>
      <trkpt lat="43.01009167" lon="-1.229445">
        <ele>819.0</ele>
        <time>2019-07-31T10:21:49.071Z</time>
      </trkpt>
      <trkpt lat="43.01009667" lon="-1.22942167">
        <ele>819.0</ele>
        <time>2019-07-31T10:21:50.074Z</time>
      </trkpt>
      <trkpt lat="43.01009833" lon="-1.2294">
        <ele>819.0</ele>
        <time>2019-07-31T10:21:51.081Z</time>
      </trkpt>
      <trkpt lat="43.01010167" lon="-1.22937667">
        <ele>819.0</ele>
        <time>2019-07-31T10:21:52.086Z</time>
      </trkpt>
      <trkpt lat="43.01010333" lon="-1.229355">
        <ele>819.0</ele>
        <time>2019-07-31T10:21:53.092Z</time>
      </trkpt>
      <trkpt lat="43.010105" lon="-1.22933">
        <ele>819.0</ele>
        <time>2019-07-31T10:21:54.098Z</time>
      </trkpt>
      <trkpt lat="43.010105" lon="-1.22930667">
        <ele>819.0</ele>
        <time>2019-07-31T10:21:55.102Z</time>
      </trkpt>
      <trkpt lat="43.01009833" lon="-1.22928667">
        <ele>819.0</ele>
        <time>2019-07-31T10:21:56.106Z</time>
      </trkpt>
      <trkpt lat="43.01009167" lon="-1.22926667">
        <ele>819.0</ele>
        <time>2019-07-31T10:21:57.111Z</time>
      </trkpt>
      <trkpt lat="43.01008167" lon="-1.22924667">
        <ele>820.0</ele>
        <time>2019-07-31T10:21:58.116Z</time>
      </trkpt>
      <trkpt lat="43.01007167" lon="-1.22922667">
        <ele>820.0</ele>
        <time>2019-07-31T10:21:59.119Z</time>
      </trkpt>
      <trkpt lat="43.01006167" lon="-1.22921333">
        <ele>819.0</ele>
        <time>2019-07-31T10:22:00.124Z</time>
      </trkpt>
      <trkpt lat="43.01005167" lon="-1.22919667">
        <ele>819.0</ele>
        <time>2019-07-31T10:22:01.131Z</time>
      </trkpt>
      <trkpt lat="43.01004167" lon="-1.22918333">
        <ele>819.0</ele>
        <time>2019-07-31T10:22:02.138Z</time>
      </trkpt>
      <trkpt lat="43.01003" lon="-1.22916833">
        <ele>819.0</ele>
        <time>2019-07-31T10:22:03.145Z</time>
      </trkpt>
      <trkpt lat="43.01002333" lon="-1.229155">
        <ele>819.0</ele>
        <time>2019-07-31T10:22:04.147Z</time>
      </trkpt>
      <trkpt lat="43.01002" lon="-1.22914">
        <ele>819.0</ele>
        <time>2019-07-31T10:22:05.150Z</time>
      </trkpt>
      <trkpt lat="43.010015" lon="-1.22912833">
        <ele>818.0</ele>
        <time>2019-07-31T10:22:06.155Z</time>
      </trkpt>
      <trkpt lat="43.01001" lon="-1.22911333">
        <ele>818.0</ele>
        <time>2019-07-31T10:22:07.158Z</time>
      </trkpt>
      <trkpt lat="43.01000167" lon="-1.22909667">
        <ele>819.0</ele>
        <time>2019-07-31T10:22:08.164Z</time>
      </trkpt>
      <trkpt lat="43.00999667" lon="-1.22908333">
        <ele>819.0</ele>
        <time>2019-07-31T10:22:09.168Z</time>
      </trkpt>
      <trkpt lat="43.00998833" lon="-1.22906833">
        <ele>819.0</ele>
        <time>2019-07-31T10:22:10.176Z</time>
      </trkpt>
      <trkpt lat="43.00997833" lon="-1.22905333">
        <ele>819.0</ele>
        <time>2019-07-31T10:22:11.181Z</time>
      </trkpt>
      <trkpt lat="43.00997" lon="-1.22904167">
        <ele>819.0</ele>
        <time>2019-07-31T10:22:12.061Z</time>
      </trkpt>
      <trkpt lat="43.00996167" lon="-1.22902833">
        <ele>819.0</ele>
        <time>2019-07-31T10:22:13.067Z</time>
      </trkpt>
      <trkpt lat="43.00995333" lon="-1.229015">
        <ele>819.0</ele>
        <time>2019-07-31T10:22:14.074Z</time>
      </trkpt>
      <trkpt lat="43.00994667" lon="-1.22900167">
        <ele>819.0</ele>
        <time>2019-07-31T10:22:15.080Z</time>
      </trkpt>
      <trkpt lat="43.00993833" lon="-1.22898833">
        <ele>819.0</ele>
        <time>2019-07-31T10:22:16.085Z</time>
      </trkpt>
      <trkpt lat="43.00993" lon="-1.228975">
        <ele>819.0</ele>
        <time>2019-07-31T10:22:17.087Z</time>
      </trkpt>
      <trkpt lat="43.00992167" lon="-1.22896167">
        <ele>820.0</ele>
        <time>2019-07-31T10:22:18.092Z</time>
      </trkpt>
      <trkpt lat="43.009915" lon="-1.22894833">
        <ele>820.0</ele>
        <time>2019-07-31T10:22:19.097Z</time>
      </trkpt>
      <trkpt lat="43.00991" lon="-1.22893333">
        <ele>820.0</ele>
        <time>2019-07-31T10:22:20.100Z</time>
      </trkpt>
      <trkpt lat="43.00990667" lon="-1.22891833">
        <ele>820.0</ele>
        <time>2019-07-31T10:22:21.108Z</time>
      </trkpt>
      <trkpt lat="43.0099" lon="-1.22890167">
        <ele>820.0</ele>
        <time>2019-07-31T10:22:22.114Z</time>
      </trkpt>
      <trkpt lat="43.00989333" lon="-1.228885">
        <ele>820.0</ele>
        <time>2019-07-31T10:22:23.120Z</time>
      </trkpt>
      <trkpt lat="43.00988667" lon="-1.22886833">
        <ele>820.0</ele>
        <time>2019-07-31T10:22:24.125Z</time>
      </trkpt>
      <trkpt lat="43.00988333" lon="-1.22885">
        <ele>821.0</ele>
        <time>2019-07-31T10:22:25.131Z</time>
      </trkpt>
      <trkpt lat="43.00987667" lon="-1.22883">
        <ele>822.0</ele>
        <time>2019-07-31T10:22:26.137Z</time>
      </trkpt>
      <trkpt lat="43.00987" lon="-1.22881167">
        <ele>822.0</ele>
        <time>2019-07-31T10:22:27.143Z</time>
      </trkpt>
      <trkpt lat="43.009865" lon="-1.22879">
        <ele>822.0</ele>
        <time>2019-07-31T10:22:28.148Z</time>
      </trkpt>
      <trkpt lat="43.00986167" lon="-1.22877">
        <ele>822.0</ele>
        <time>2019-07-31T10:22:29.151Z</time>
      </trkpt>
      <trkpt lat="43.009855" lon="-1.22875">
        <ele>822.0</ele>
        <time>2019-07-31T10:22:30.155Z</time>
      </trkpt>
      <trkpt lat="43.00985167" lon="-1.22873167">
        <ele>822.0</ele>
        <time>2019-07-31T10:22:31.162Z</time>
      </trkpt>
      <trkpt lat="43.009845" lon="-1.228715">
        <ele>822.0</ele>
        <time>2019-07-31T10:22:32.167Z</time>
      </trkpt>
      <trkpt lat="43.00984" lon="-1.22869667">
        <ele>822.0</ele>
        <time>2019-07-31T10:22:33.173Z</time>
      </trkpt>
      <trkpt lat="43.009835" lon="-1.22867833">
        <ele>823.0</ele>
        <time>2019-07-31T10:22:34.179Z</time>
      </trkpt>
      <trkpt lat="43.00983167" lon="-1.22866167">
        <ele>823.0</ele>
        <time>2019-07-31T10:22:35.186Z</time>
      </trkpt>
      <trkpt lat="43.009825" lon="-1.22864167">
        <ele>824.0</ele>
        <time>2019-07-31T10:22:36.065Z</time>
      </trkpt>
      <trkpt lat="43.00981667" lon="-1.22862">
        <ele>824.0</ele>
        <time>2019-07-31T10:22:37.070Z</time>
      </trkpt>
      <trkpt lat="43.00981167" lon="-1.22860333">
        <ele>824.0</ele>
        <time>2019-07-31T10:22:38.075Z</time>
      </trkpt>
      <trkpt lat="43.00980333" lon="-1.22858333">
        <ele>824.0</ele>
        <time>2019-07-31T10:22:39.080Z</time>
      </trkpt>
      <trkpt lat="43.00979833" lon="-1.22856667">
        <ele>824.0</ele>
        <time>2019-07-31T10:22:40.084Z</time>
      </trkpt>
      <trkpt lat="43.00979" lon="-1.22855167">
        <ele>825.0</ele>
        <time>2019-07-31T10:22:41.089Z</time>
      </trkpt>
      <trkpt lat="43.00978333" lon="-1.22853167">
        <ele>825.0</ele>
        <time>2019-07-31T10:22:42.096Z</time>
      </trkpt>
      <trkpt lat="43.00977833" lon="-1.228515">
        <ele>825.0</ele>
        <time>2019-07-31T10:22:43.101Z</time>
      </trkpt>
      <trkpt lat="43.00977167" lon="-1.22849667">
        <ele>824.0</ele>
        <time>2019-07-31T10:22:44.108Z</time>
      </trkpt>
      <trkpt lat="43.009765" lon="-1.22848167">
        <ele>823.0</ele>
        <time>2019-07-31T10:22:45.113Z</time>
      </trkpt>
      <trkpt lat="43.00975667" lon="-1.22846667">
        <ele>823.0</ele>
        <time>2019-07-31T10:22:46.119Z</time>
      </trkpt>
      <trkpt lat="43.00974667" lon="-1.22844833">
        <ele>823.0</ele>
        <time>2019-07-31T10:22:47.123Z</time>
      </trkpt>
      <trkpt lat="43.00973833" lon="-1.22843">
        <ele>823.0</ele>
        <time>2019-07-31T10:22:48.127Z</time>
      </trkpt>
      <trkpt lat="43.00973" lon="-1.22841167">
        <ele>823.0</ele>
        <time>2019-07-31T10:22:49.131Z</time>
      </trkpt>
      <trkpt lat="43.00972167" lon="-1.22839333">
        <ele>823.0</ele>
        <time>2019-07-31T10:22:50.135Z</time>
      </trkpt>
      <trkpt lat="43.00971167" lon="-1.228375">
        <ele>823.0</ele>
        <time>2019-07-31T10:22:51.139Z</time>
      </trkpt>
      <trkpt lat="43.009705" lon="-1.228355">
        <ele>822.0</ele>
        <time>2019-07-31T10:22:52.145Z</time>
      </trkpt>
      <trkpt lat="43.00969333" lon="-1.22833833">
        <ele>822.0</ele>
        <time>2019-07-31T10:22:53.152Z</time>
      </trkpt>
      <trkpt lat="43.009685" lon="-1.22832333">
        <ele>822.0</ele>
        <time>2019-07-31T10:22:54.160Z</time>
      </trkpt>
      <trkpt lat="43.009675" lon="-1.228305">
        <ele>822.0</ele>
        <time>2019-07-31T10:22:55.165Z</time>
      </trkpt>
      <trkpt lat="43.00967" lon="-1.22828667">
        <ele>821.0</ele>
        <time>2019-07-31T10:22:56.168Z</time>
      </trkpt>
      <trkpt lat="43.00966" lon="-1.22826833">
        <ele>821.0</ele>
        <time>2019-07-31T10:22:57.173Z</time>
      </trkpt>
      <trkpt lat="43.00965167" lon="-1.22825167">
        <ele>821.0</ele>
        <time>2019-07-31T10:22:58.177Z</time>
      </trkpt>
      <trkpt lat="43.00964333" lon="-1.22823167">
        <ele>822.0</ele>
        <time>2019-07-31T10:22:59.183Z</time>
      </trkpt>
      <trkpt lat="43.009635" lon="-1.228215">
        <ele>821.0</ele>
        <time>2019-07-31T10:23:00.062Z</time>
      </trkpt>
      <trkpt lat="43.009625" lon="-1.228195">
        <ele>822.0</ele>
        <time>2019-07-31T10:23:01.066Z</time>
      </trkpt>
      <trkpt lat="43.00962" lon="-1.228175">
        <ele>822.0</ele>
        <time>2019-07-31T10:23:02.070Z</time>
      </trkpt>
      <trkpt lat="43.009615" lon="-1.22815167">
        <ele>821.0</ele>
        <time>2019-07-31T10:23:03.074Z</time>
      </trkpt>
      <trkpt lat="43.00960833" lon="-1.22813167">
        <ele>821.0</ele>
        <time>2019-07-31T10:23:04.081Z</time>
      </trkpt>
      <trkpt lat="43.00959833" lon="-1.22811667">
        <ele>820.0</ele>
        <time>2019-07-31T10:23:05.084Z</time>
      </trkpt>
      <trkpt lat="43.00959" lon="-1.22809833">
        <ele>819.0</ele>
        <time>2019-07-31T10:23:06.090Z</time>
      </trkpt>
      <trkpt lat="43.009585" lon="-1.22808">
        <ele>819.0</ele>
        <time>2019-07-31T10:23:07.095Z</time>
      </trkpt>
      <trkpt lat="43.00958167" lon="-1.22805667">
        <ele>818.0</ele>
        <time>2019-07-31T10:23:08.102Z</time>
      </trkpt>
      <trkpt lat="43.00957667" lon="-1.22803833">
        <ele>818.0</ele>
        <time>2019-07-31T10:23:09.109Z</time>
      </trkpt>
      <trkpt lat="43.00957167" lon="-1.22801833">
        <ele>818.0</ele>
        <time>2019-07-31T10:23:10.114Z</time>
      </trkpt>
      <trkpt lat="43.00956667" lon="-1.228">
        <ele>818.0</ele>
        <time>2019-07-31T10:23:11.118Z</time>
      </trkpt>
      <trkpt lat="43.00956167" lon="-1.22798">
        <ele>817.0</ele>
        <time>2019-07-31T10:23:12.124Z</time>
      </trkpt>
      <trkpt lat="43.009555" lon="-1.22796333">
        <ele>817.0</ele>
        <time>2019-07-31T10:23:13.128Z</time>
      </trkpt>
      <trkpt lat="43.00955" lon="-1.22794667">
        <ele>817.0</ele>
        <time>2019-07-31T10:23:14.135Z</time>
      </trkpt>
      <trkpt lat="43.00954333" lon="-1.22792667">
        <ele>818.0</ele>
        <time>2019-07-31T10:23:15.141Z</time>
      </trkpt>
      <trkpt lat="43.00953667" lon="-1.22790833">
        <ele>818.0</ele>
        <time>2019-07-31T10:23:16.147Z</time>
      </trkpt>
      <trkpt lat="43.00953" lon="-1.22789333">
        <ele>818.0</ele>
        <time>2019-07-31T10:23:17.152Z</time>
      </trkpt>
      <trkpt lat="43.00952167" lon="-1.22787667">
        <ele>818.0</ele>
        <time>2019-07-31T10:23:18.158Z</time>
      </trkpt>
      <trkpt lat="43.009515" lon="-1.22785833">
        <ele>819.0</ele>
        <time>2019-07-31T10:23:19.163Z</time>
      </trkpt>
      <trkpt lat="43.00950667" lon="-1.22784167">
        <ele>819.0</ele>
        <time>2019-07-31T10:23:20.169Z</time>
      </trkpt>
      <trkpt lat="43.0095" lon="-1.22782333">
        <ele>819.0</ele>
        <time>2019-07-31T10:23:21.173Z</time>
      </trkpt>
      <trkpt lat="43.009495" lon="-1.22780667">
        <ele>819.0</ele>
        <time>2019-07-31T10:23:22.177Z</time>
      </trkpt>
      <trkpt lat="43.00949" lon="-1.22778667">
        <ele>820.0</ele>
        <time>2019-07-31T10:23:23.183Z</time>
      </trkpt>
      <trkpt lat="43.00948333" lon="-1.22776833">
        <ele>820.0</ele>
        <time>2019-07-31T10:23:24.062Z</time>
      </trkpt>
      <trkpt lat="43.00947833" lon="-1.22775">
        <ele>820.0</ele>
        <time>2019-07-31T10:23:25.068Z</time>
      </trkpt>
      <trkpt lat="43.00947167" lon="-1.22773333">
        <ele>820.0</ele>
        <time>2019-07-31T10:23:26.073Z</time>
      </trkpt>
      <trkpt lat="43.009465" lon="-1.22771333">
        <ele>819.0</ele>
        <time>2019-07-31T10:23:27.077Z</time>
      </trkpt>
      <trkpt lat="43.00946" lon="-1.227695">
        <ele>819.0</ele>
        <time>2019-07-31T10:23:28.079Z</time>
      </trkpt>
      <trkpt lat="43.00945167" lon="-1.227675">
        <ele>818.0</ele>
        <time>2019-07-31T10:23:29.083Z</time>
      </trkpt>
      <trkpt lat="43.009445" lon="-1.22765833">
        <ele>818.0</ele>
        <time>2019-07-31T10:23:30.089Z</time>
      </trkpt>
      <trkpt lat="43.00943833" lon="-1.22763833">
        <ele>818.0</ele>
        <time>2019-07-31T10:23:31.093Z</time>
      </trkpt>
      <trkpt lat="43.00943" lon="-1.22762167">
        <ele>818.0</ele>
        <time>2019-07-31T10:23:32.097Z</time>
      </trkpt>
      <trkpt lat="43.00942333" lon="-1.227605">
        <ele>818.0</ele>
        <time>2019-07-31T10:23:33.102Z</time>
      </trkpt>
      <trkpt lat="43.00941667" lon="-1.22758667">
        <ele>818.0</ele>
        <time>2019-07-31T10:23:34.109Z</time>
      </trkpt>
      <trkpt lat="43.00941" lon="-1.22756833">
        <ele>818.0</ele>
        <time>2019-07-31T10:23:35.115Z</time>
      </trkpt>
      <trkpt lat="43.009405" lon="-1.22755167">
        <ele>818.0</ele>
        <time>2019-07-31T10:23:36.121Z</time>
      </trkpt>
      <trkpt lat="43.00939833" lon="-1.227535">
        <ele>819.0</ele>
        <time>2019-07-31T10:23:37.126Z</time>
      </trkpt>
      <trkpt lat="43.00939167" lon="-1.22752167">
        <ele>819.0</ele>
        <time>2019-07-31T10:23:38.130Z</time>
      </trkpt>
      <trkpt lat="43.009385" lon="-1.22750833">
        <ele>819.0</ele>
        <time>2019-07-31T10:23:39.135Z</time>
      </trkpt>
      <trkpt lat="43.00938" lon="-1.22749667">
        <ele>818.0</ele>
        <time>2019-07-31T10:23:40.142Z</time>
      </trkpt>
      <trkpt lat="43.00937167" lon="-1.22749167">
        <ele>818.0</ele>
        <time>2019-07-31T10:23:41.148Z</time>
      </trkpt>
      <trkpt lat="43.00936833" lon="-1.22748667">
        <ele>818.0</ele>
        <time>2019-07-31T10:23:42.153Z</time>
      </trkpt>
      <trkpt lat="43.00936833" lon="-1.22748333">
        <ele>818.0</ele>
        <time>2019-07-31T10:23:43.158Z</time>
      </trkpt>
      <trkpt lat="43.00936833" lon="-1.22748167">
        <ele>818.0</ele>
        <time>2019-07-31T10:23:44.163Z</time>
      </trkpt>
      <trkpt lat="43.00937167" lon="-1.227475">
        <ele>817.0</ele>
        <time>2019-07-31T10:23:45.167Z</time>
      </trkpt>
      <trkpt lat="43.00936833" lon="-1.22747167">
        <ele>818.0</ele>
        <time>2019-07-31T10:23:46.172Z</time>
      </trkpt>
      <trkpt lat="43.00936333" lon="-1.22746833">
        <ele>818.0</ele>
        <time>2019-07-31T10:23:47.179Z</time>
      </trkpt>
      <trkpt lat="43.00935833" lon="-1.22746333">
        <ele>818.0</ele>
        <time>2019-07-31T10:23:48.185Z</time>
      </trkpt>
      <trkpt lat="43.009355" lon="-1.22746">
        <ele>819.0</ele>
        <time>2019-07-31T10:23:49.065Z</time>
      </trkpt>
      <trkpt lat="43.00935167" lon="-1.22746">
        <ele>819.0</ele>
        <time>2019-07-31T10:23:50.070Z</time>
      </trkpt>
      <trkpt lat="43.00934667" lon="-1.22745667">
        <ele>819.0</ele>
        <time>2019-07-31T10:23:51.074Z</time>
      </trkpt>
      <trkpt lat="43.009345" lon="-1.22745667">
        <ele>820.0</ele>
        <time>2019-07-31T10:23:52.078Z</time>
      </trkpt>
      <trkpt lat="43.00934333" lon="-1.22745167">
        <ele>820.0</ele>
        <time>2019-07-31T10:23:53.083Z</time>
      </trkpt>
      <trkpt lat="43.00934333" lon="-1.22745">
        <ele>820.0</ele>
        <time>2019-07-31T10:23:54.091Z</time>
      </trkpt>
      <trkpt lat="43.009345" lon="-1.227445">
        <ele>821.0</ele>
        <time>2019-07-31T10:23:55.098Z</time>
      </trkpt>
      <trkpt lat="43.00934333" lon="-1.22745">
        <ele>821.0</ele>
        <time>2019-07-31T10:23:56.104Z</time>
      </trkpt>
      <trkpt lat="43.00934" lon="-1.227455">
        <ele>821.0</ele>
        <time>2019-07-31T10:23:57.111Z</time>
      </trkpt>
      <trkpt lat="43.00933833" lon="-1.22746">
        <ele>820.0</ele>
        <time>2019-07-31T10:23:58.118Z</time>
      </trkpt>
      <trkpt lat="43.00933667" lon="-1.22746333">
        <ele>819.0</ele>
        <time>2019-07-31T10:23:59.124Z</time>
      </trkpt>
      <trkpt lat="43.00933833" lon="-1.22746667">
        <ele>819.0</ele>
        <time>2019-07-31T10:24:00.127Z</time>
      </trkpt>
      <trkpt lat="43.00933833" lon="-1.22747167">
        <ele>818.0</ele>
        <time>2019-07-31T10:24:01.133Z</time>
      </trkpt>
      <trkpt lat="43.00934" lon="-1.22747">
        <ele>818.0</ele>
        <time>2019-07-31T10:24:02.137Z</time>
      </trkpt>
      <trkpt lat="43.00934167" lon="-1.22746833">
        <ele>818.0</ele>
        <time>2019-07-31T10:24:03.143Z</time>
      </trkpt>
      <trkpt lat="43.009345" lon="-1.22747167">
        <ele>818.0</ele>
        <time>2019-07-31T10:24:04.145Z</time>
      </trkpt>
      <trkpt lat="43.009345" lon="-1.227475">
        <ele>818.0</ele>
        <time>2019-07-31T10:24:05.151Z</time>
      </trkpt>
      <trkpt lat="43.009345" lon="-1.22748167">
        <ele>818.0</ele>
        <time>2019-07-31T10:24:06.157Z</time>
      </trkpt>
      <trkpt lat="43.009345" lon="-1.227485">
        <ele>818.0</ele>
        <time>2019-07-31T10:24:07.163Z</time>
      </trkpt>
      <trkpt lat="43.009345" lon="-1.227485">
        <ele>817.0</ele>
        <time>2019-07-31T10:24:08.167Z</time>
      </trkpt>
      <trkpt lat="43.009345" lon="-1.22748667">
        <ele>817.0</ele>
        <time>2019-07-31T10:24:09.173Z</time>
      </trkpt>
      <trkpt lat="43.009345" lon="-1.22748667">
        <ele>817.0</ele>
        <time>2019-07-31T10:24:10.178Z</time>
      </trkpt>
      <trkpt lat="43.00934333" lon="-1.227485">
        <ele>817.0</ele>
        <time>2019-07-31T10:24:11.183Z</time>
      </trkpt>
      <trkpt lat="43.009345" lon="-1.22748333">
        <ele>817.0</ele>
        <time>2019-07-31T10:24:12.062Z</time>
      </trkpt>
      <trkpt lat="43.00934667" lon="-1.22747833">
        <ele>817.0</ele>
        <time>2019-07-31T10:24:13.065Z</time>
      </trkpt>
      <trkpt lat="43.00934833" lon="-1.22747667">
        <ele>817.0</ele>
        <time>2019-07-31T10:24:14.071Z</time>
      </trkpt>
      <trkpt lat="43.00935" lon="-1.227475">
        <ele>816.0</ele>
        <time>2019-07-31T10:24:15.078Z</time>
      </trkpt>
      <trkpt lat="43.00934833" lon="-1.22747667">
        <ele>816.0</ele>
        <time>2019-07-31T10:24:16.083Z</time>
      </trkpt>
      <trkpt lat="43.00934667" lon="-1.227475">
        <ele>816.0</ele>
        <time>2019-07-31T10:24:17.089Z</time>
      </trkpt>
      <trkpt lat="43.00934333" lon="-1.22747167">
        <ele>816.0</ele>
        <time>2019-07-31T10:24:18.095Z</time>
      </trkpt>
      <trkpt lat="43.00934167" lon="-1.22746667">
        <ele>816.0</ele>
        <time>2019-07-31T10:24:19.102Z</time>
      </trkpt>
      <trkpt lat="43.00934167" lon="-1.22746667">
        <ele>816.0</ele>
        <time>2019-07-31T10:24:20.107Z</time>
      </trkpt>
      <trkpt lat="43.00934167" lon="-1.22746333">
        <ele>817.0</ele>
        <time>2019-07-31T10:24:21.114Z</time>
      </trkpt>
      <trkpt lat="43.00934333" lon="-1.227465">
        <ele>817.0</ele>
        <time>2019-07-31T10:24:22.119Z</time>
      </trkpt>
      <trkpt lat="43.009345" lon="-1.22746833">
        <ele>817.0</ele>
        <time>2019-07-31T10:24:23.123Z</time>
      </trkpt>
      <trkpt lat="43.00934667" lon="-1.22747">
        <ele>817.0</ele>
        <time>2019-07-31T10:24:24.128Z</time>
      </trkpt>
      <trkpt lat="43.00934667" lon="-1.22747333">
        <ele>817.0</ele>
        <time>2019-07-31T10:24:25.135Z</time>
      </trkpt>
      <trkpt lat="43.00935167" lon="-1.227475">
        <ele>817.0</ele>
        <time>2019-07-31T10:24:26.141Z</time>
      </trkpt>
      <trkpt lat="43.00935333" lon="-1.22747667">
        <ele>817.0</ele>
        <time>2019-07-31T10:24:27.147Z</time>
      </trkpt>
      <trkpt lat="43.009355" lon="-1.22747667">
        <ele>818.0</ele>
        <time>2019-07-31T10:24:28.151Z</time>
      </trkpt>
      <trkpt lat="43.00935333" lon="-1.22747833">
        <ele>817.0</ele>
        <time>2019-07-31T10:24:29.158Z</time>
      </trkpt>
      <trkpt lat="43.00935167" lon="-1.22747833">
        <ele>817.0</ele>
        <time>2019-07-31T10:24:30.164Z</time>
      </trkpt>
      <trkpt lat="43.00935" lon="-1.22748">
        <ele>817.0</ele>
        <time>2019-07-31T10:24:31.167Z</time>
      </trkpt>
      <trkpt lat="43.00935167" lon="-1.22748">
        <ele>817.0</ele>
        <time>2019-07-31T10:24:32.173Z</time>
      </trkpt>
      <trkpt lat="43.00935167" lon="-1.22748">
        <ele>817.0</ele>
        <time>2019-07-31T10:24:33.179Z</time>
      </trkpt>
      <trkpt lat="43.00935333" lon="-1.22748167">
        <ele>817.0</ele>
        <time>2019-07-31T10:24:34.185Z</time>
      </trkpt>
      <trkpt lat="43.00935167" lon="-1.22748667">
        <ele>816.0</ele>
        <time>2019-07-31T10:24:35.065Z</time>
      </trkpt>
      <trkpt lat="43.00935333" lon="-1.227485">
        <ele>816.0</ele>
        <time>2019-07-31T10:24:36.071Z</time>
      </trkpt>
      <trkpt lat="43.009355" lon="-1.227485">
        <ele>817.0</ele>
        <time>2019-07-31T10:24:37.077Z</time>
      </trkpt>
      <trkpt lat="43.009355" lon="-1.22748333">
        <ele>817.0</ele>
        <time>2019-07-31T10:24:38.081Z</time>
      </trkpt>
      <trkpt lat="43.009355" lon="-1.227485">
        <ele>816.0</ele>
        <time>2019-07-31T10:24:39.087Z</time>
      </trkpt>
      <trkpt lat="43.009355" lon="-1.22748667">
        <ele>817.0</ele>
        <time>2019-07-31T10:24:40.093Z</time>
      </trkpt>
      <trkpt lat="43.009355" lon="-1.227485">
        <ele>817.0</ele>
        <time>2019-07-31T10:24:41.098Z</time>
      </trkpt>
      <trkpt lat="43.00935667" lon="-1.227485">
        <ele>816.0</ele>
        <time>2019-07-31T10:24:42.102Z</time>
      </trkpt>
      <trkpt lat="43.00936" lon="-1.22748667">
        <ele>817.0</ele>
        <time>2019-07-31T10:24:43.107Z</time>
      </trkpt>
      <trkpt lat="43.00936" lon="-1.22748833">
        <ele>817.0</ele>
        <time>2019-07-31T10:24:44.111Z</time>
      </trkpt>
      <trkpt lat="43.00936" lon="-1.22749">
        <ele>818.0</ele>
        <time>2019-07-31T10:24:45.116Z</time>
      </trkpt>
      <trkpt lat="43.00936167" lon="-1.22748667">
        <ele>818.0</ele>
        <time>2019-07-31T10:24:46.123Z</time>
      </trkpt>
      <trkpt lat="43.00935833" lon="-1.227485">
        <ele>818.0</ele>
        <time>2019-07-31T10:24:47.128Z</time>
      </trkpt>
      <trkpt lat="43.00936" lon="-1.22748333">
        <ele>818.0</ele>
        <time>2019-07-31T10:24:48.133Z</time>
      </trkpt>
      <trkpt lat="43.00936167" lon="-1.22748333">
        <ele>817.0</ele>
        <time>2019-07-31T10:24:49.139Z</time>
      </trkpt>
      <trkpt lat="43.009365" lon="-1.22748167">
        <ele>817.0</ele>
        <time>2019-07-31T10:24:50.145Z</time>
      </trkpt>
      <trkpt lat="43.00936667" lon="-1.227485">
        <ele>816.0</ele>
        <time>2019-07-31T10:24:51.151Z</time>
      </trkpt>
      <trkpt lat="43.00936667" lon="-1.22748667">
        <ele>816.0</ele>
        <time>2019-07-31T10:24:52.156Z</time>
      </trkpt>
      <trkpt lat="43.00937" lon="-1.22749">
        <ele>817.0</ele>
        <time>2019-07-31T10:24:53.159Z</time>
      </trkpt>
      <trkpt lat="43.00937333" lon="-1.227495">
        <ele>817.0</ele>
        <time>2019-07-31T10:24:54.164Z</time>
      </trkpt>
      <trkpt lat="43.00937667" lon="-1.22749667">
        <ele>816.0</ele>
        <time>2019-07-31T10:24:55.166Z</time>
      </trkpt>
      <trkpt lat="43.00937833" lon="-1.2275">
        <ele>815.0</ele>
        <time>2019-07-31T10:24:56.169Z</time>
      </trkpt>
      <trkpt lat="43.00938" lon="-1.2275">
        <ele>814.0</ele>
        <time>2019-07-31T10:24:57.175Z</time>
      </trkpt>
      <trkpt lat="43.00937833" lon="-1.22750167">
        <ele>814.0</ele>
        <time>2019-07-31T10:24:58.181Z</time>
      </trkpt>
      <trkpt lat="43.00937667" lon="-1.2275">
        <ele>814.0</ele>
        <time>2019-07-31T10:24:59.061Z</time>
      </trkpt>
      <trkpt lat="43.00937833" lon="-1.22749833">
        <ele>814.0</ele>
        <time>2019-07-31T10:25:00.067Z</time>
      </trkpt>
      <trkpt lat="43.00937333" lon="-1.227495">
        <ele>814.0</ele>
        <time>2019-07-31T10:25:01.073Z</time>
      </trkpt>
      <trkpt lat="43.00937" lon="-1.22749667">
        <ele>814.0</ele>
        <time>2019-07-31T10:25:02.079Z</time>
      </trkpt>
      <trkpt lat="43.00936667" lon="-1.2275">
        <ele>813.0</ele>
        <time>2019-07-31T10:25:03.083Z</time>
      </trkpt>
      <trkpt lat="43.00936833" lon="-1.2275">
        <ele>813.0</ele>
        <time>2019-07-31T10:25:04.090Z</time>
      </trkpt>
      <trkpt lat="43.00936667" lon="-1.22750167">
        <ele>813.0</ele>
        <time>2019-07-31T10:25:05.095Z</time>
      </trkpt>
      <trkpt lat="43.00936833" lon="-1.22749833">
        <ele>813.0</ele>
        <time>2019-07-31T10:25:06.100Z</time>
      </trkpt>
      <trkpt lat="43.00937167" lon="-1.22749333">
        <ele>813.0</ele>
        <time>2019-07-31T10:25:07.104Z</time>
      </trkpt>
      <trkpt lat="43.00937333" lon="-1.22748833">
        <ele>813.0</ele>
        <time>2019-07-31T10:25:08.107Z</time>
      </trkpt>
      <trkpt lat="43.00937667" lon="-1.22748667">
        <ele>813.0</ele>
        <time>2019-07-31T10:25:09.110Z</time>
      </trkpt>
      <trkpt lat="43.00937833" lon="-1.22748667">
        <ele>813.0</ele>
        <time>2019-07-31T10:25:10.115Z</time>
      </trkpt>
      <trkpt lat="43.00937667" lon="-1.22749">
        <ele>814.0</ele>
        <time>2019-07-31T10:25:11.122Z</time>
      </trkpt>
      <trkpt lat="43.00936833" lon="-1.227495">
        <ele>814.0</ele>
        <time>2019-07-31T10:25:12.125Z</time>
      </trkpt>
      <trkpt lat="43.00936333" lon="-1.22749833">
        <ele>814.0</ele>
        <time>2019-07-31T10:25:13.131Z</time>
      </trkpt>
      <trkpt lat="43.00936333" lon="-1.22749833">
        <ele>814.0</ele>
        <time>2019-07-31T10:25:14.137Z</time>
      </trkpt>
      <trkpt lat="43.009365" lon="-1.22749667">
        <ele>814.0</ele>
        <time>2019-07-31T10:25:15.144Z</time>
      </trkpt>
      <trkpt lat="43.00936833" lon="-1.227495">
        <ele>815.0</ele>
        <time>2019-07-31T10:25:16.149Z</time>
      </trkpt>
      <trkpt lat="43.00936833" lon="-1.22749">
        <ele>815.0</ele>
        <time>2019-07-31T10:25:17.153Z</time>
      </trkpt>
      <trkpt lat="43.00937" lon="-1.22749">
        <ele>815.0</ele>
        <time>2019-07-31T10:25:18.157Z</time>
      </trkpt>
      <trkpt lat="43.00937667" lon="-1.22749333">
        <ele>816.0</ele>
        <time>2019-07-31T10:25:19.162Z</time>
      </trkpt>
      <trkpt lat="43.00938333" lon="-1.22749167">
        <ele>817.0</ele>
        <time>2019-07-31T10:25:20.166Z</time>
      </trkpt>
      <trkpt lat="43.009385" lon="-1.227495">
        <ele>817.0</ele>
        <time>2019-07-31T10:25:21.173Z</time>
      </trkpt>
      <trkpt lat="43.009385" lon="-1.22749667">
        <ele>817.0</ele>
        <time>2019-07-31T10:25:22.179Z</time>
      </trkpt>
      <trkpt lat="43.00938333" lon="-1.22749833">
        <ele>817.0</ele>
        <time>2019-07-31T10:25:23.186Z</time>
      </trkpt>
      <trkpt lat="43.00938333" lon="-1.22749833">
        <ele>817.0</ele>
        <time>2019-07-31T10:25:24.066Z</time>
      </trkpt>
      <trkpt lat="43.00938" lon="-1.22749667">
        <ele>817.0</ele>
        <time>2019-07-31T10:25:25.071Z</time>
      </trkpt>
      <trkpt lat="43.00938167" lon="-1.227495">
        <ele>817.0</ele>
        <time>2019-07-31T10:25:26.077Z</time>
      </trkpt>
      <trkpt lat="43.00937833" lon="-1.227495">
        <ele>816.0</ele>
        <time>2019-07-31T10:25:27.081Z</time>
      </trkpt>
      <trkpt lat="43.009375" lon="-1.22749833">
        <ele>817.0</ele>
        <time>2019-07-31T10:25:28.086Z</time>
      </trkpt>
      <trkpt lat="43.00937167" lon="-1.2275">
        <ele>817.0</ele>
        <time>2019-07-31T10:25:29.091Z</time>
      </trkpt>
      <trkpt lat="43.00937167" lon="-1.22750333">
        <ele>817.0</ele>
        <time>2019-07-31T10:25:30.098Z</time>
      </trkpt>
      <trkpt lat="43.00937333" lon="-1.22750333">
        <ele>817.0</ele>
        <time>2019-07-31T10:25:31.104Z</time>
      </trkpt>
      <trkpt lat="43.009375" lon="-1.227505">
        <ele>817.0</ele>
        <time>2019-07-31T10:25:32.109Z</time>
      </trkpt>
      <trkpt lat="43.00937833" lon="-1.227505">
        <ele>817.0</ele>
        <time>2019-07-31T10:25:33.115Z</time>
      </trkpt>
      <trkpt lat="43.00938167" lon="-1.227505">
        <ele>816.0</ele>
        <time>2019-07-31T10:25:34.121Z</time>
      </trkpt>
      <trkpt lat="43.00938167" lon="-1.22750667">
        <ele>816.0</ele>
        <time>2019-07-31T10:25:35.127Z</time>
      </trkpt>
      <trkpt lat="43.00938" lon="-1.22750833">
        <ele>815.0</ele>
        <time>2019-07-31T10:25:36.133Z</time>
      </trkpt>
      <trkpt lat="43.009385" lon="-1.22750833">
        <ele>815.0</ele>
        <time>2019-07-31T10:25:37.139Z</time>
      </trkpt>
      <trkpt lat="43.00938833" lon="-1.22750667">
        <ele>815.0</ele>
        <time>2019-07-31T10:25:38.144Z</time>
      </trkpt>
      <trkpt lat="43.00939" lon="-1.22750667">
        <ele>814.0</ele>
        <time>2019-07-31T10:25:39.149Z</time>
      </trkpt>
      <trkpt lat="43.00939333" lon="-1.22750833">
        <ele>814.0</ele>
        <time>2019-07-31T10:25:40.156Z</time>
      </trkpt>
      <trkpt lat="43.00939667" lon="-1.22751167">
        <ele>814.0</ele>
        <time>2019-07-31T10:25:41.162Z</time>
      </trkpt>
      <trkpt lat="43.00939667" lon="-1.227515">
        <ele>813.0</ele>
        <time>2019-07-31T10:25:42.166Z</time>
      </trkpt>
      <trkpt lat="43.00939333" lon="-1.22751333">
        <ele>813.0</ele>
        <time>2019-07-31T10:25:43.171Z</time>
      </trkpt>
      <trkpt lat="43.00938833" lon="-1.227515">
        <ele>814.0</ele>
        <time>2019-07-31T10:25:44.177Z</time>
      </trkpt>
      <trkpt lat="43.009385" lon="-1.22752">
        <ele>814.0</ele>
        <time>2019-07-31T10:25:45.183Z</time>
      </trkpt>
      <trkpt lat="43.009385" lon="-1.22751833">
        <ele>813.0</ele>
        <time>2019-07-31T10:25:46.061Z</time>
      </trkpt>
      <trkpt lat="43.00938833" lon="-1.22751833">
        <ele>813.0</ele>
        <time>2019-07-31T10:25:47.065Z</time>
      </trkpt>
      <trkpt lat="43.00939167" lon="-1.22751667">
        <ele>813.0</ele>
        <time>2019-07-31T10:25:48.070Z</time>
      </trkpt>
      <trkpt lat="43.009395" lon="-1.227515">
        <ele>813.0</ele>
        <time>2019-07-31T10:25:49.074Z</time>
      </trkpt>
      <trkpt lat="43.009395" lon="-1.227515">
        <ele>814.0</ele>
        <time>2019-07-31T10:25:50.080Z</time>
      </trkpt>
      <trkpt lat="43.009395" lon="-1.22751167">
        <ele>814.0</ele>
        <time>2019-07-31T10:25:51.085Z</time>
      </trkpt>
      <trkpt lat="43.009395" lon="-1.22751">
        <ele>814.0</ele>
        <time>2019-07-31T10:25:52.091Z</time>
      </trkpt>
      <trkpt lat="43.009395" lon="-1.22751">
        <ele>815.0</ele>
        <time>2019-07-31T10:25:53.097Z</time>
      </trkpt>
      <trkpt lat="43.00939333" lon="-1.22750833">
        <ele>815.0</ele>
        <time>2019-07-31T10:25:54.099Z</time>
      </trkpt>
      <trkpt lat="43.00939" lon="-1.22750667">
        <ele>815.0</ele>
        <time>2019-07-31T10:25:55.102Z</time>
      </trkpt>
      <trkpt lat="43.00939167" lon="-1.22750667">
        <ele>816.0</ele>
        <time>2019-07-31T10:25:56.107Z</time>
      </trkpt>
      <trkpt lat="43.00939333" lon="-1.22750667">
        <ele>816.0</ele>
        <time>2019-07-31T10:25:57.112Z</time>
      </trkpt>
      <trkpt lat="43.00939667" lon="-1.22750833">
        <ele>816.0</ele>
        <time>2019-07-31T10:25:58.118Z</time>
      </trkpt>
      <trkpt lat="43.00940167" lon="-1.22750667">
        <ele>816.0</ele>
        <time>2019-07-31T10:25:59.125Z</time>
      </trkpt>
      <trkpt lat="43.00940333" lon="-1.22750833">
        <ele>817.0</ele>
        <time>2019-07-31T10:26:00.128Z</time>
      </trkpt>
      <trkpt lat="43.009405" lon="-1.22750833">
        <ele>817.0</ele>
        <time>2019-07-31T10:26:01.133Z</time>
      </trkpt>
      <trkpt lat="43.009405" lon="-1.22750833">
        <ele>818.0</ele>
        <time>2019-07-31T10:26:02.139Z</time>
      </trkpt>
      <trkpt lat="43.00940333" lon="-1.22751">
        <ele>818.0</ele>
        <time>2019-07-31T10:26:03.145Z</time>
      </trkpt>
      <trkpt lat="43.00940333" lon="-1.22751333">
        <ele>817.0</ele>
        <time>2019-07-31T10:26:04.151Z</time>
      </trkpt>
      <trkpt lat="43.00940333" lon="-1.22751833">
        <ele>817.0</ele>
        <time>2019-07-31T10:26:05.156Z</time>
      </trkpt>
      <trkpt lat="43.00940667" lon="-1.22752167">
        <ele>817.0</ele>
        <time>2019-07-31T10:26:06.162Z</time>
      </trkpt>
      <trkpt lat="43.00940833" lon="-1.22752167">
        <ele>818.0</ele>
        <time>2019-07-31T10:26:07.166Z</time>
      </trkpt>
      <trkpt lat="43.00940667" lon="-1.22752">
        <ele>819.0</ele>
        <time>2019-07-31T10:26:08.172Z</time>
      </trkpt>
      <trkpt lat="43.00940833" lon="-1.22751667">
        <ele>821.0</ele>
        <time>2019-07-31T10:26:09.175Z</time>
      </trkpt>
      <trkpt lat="43.00940667" lon="-1.22751667">
        <ele>821.0</ele>
        <time>2019-07-31T10:26:10.180Z</time>
      </trkpt>
      <trkpt lat="43.00940333" lon="-1.22751833">
        <ele>820.0</ele>
        <time>2019-07-31T10:26:11.185Z</time>
      </trkpt>
      <trkpt lat="43.009405" lon="-1.22751667">
        <ele>820.0</ele>
        <time>2019-07-31T10:26:12.064Z</time>
      </trkpt>
      <trkpt lat="43.00940667" lon="-1.22751833">
        <ele>820.0</ele>
        <time>2019-07-31T10:26:13.070Z</time>
      </trkpt>
      <trkpt lat="43.00940667" lon="-1.22752167">
        <ele>820.0</ele>
        <time>2019-07-31T10:26:14.076Z</time>
      </trkpt>
      <trkpt lat="43.00940667" lon="-1.22752333">
        <ele>820.0</ele>
        <time>2019-07-31T10:26:15.083Z</time>
      </trkpt>
      <trkpt lat="43.00940667" lon="-1.227525">
        <ele>821.0</ele>
        <time>2019-07-31T10:26:16.086Z</time>
      </trkpt>
      <trkpt lat="43.009405" lon="-1.22752667">
        <ele>821.0</ele>
        <time>2019-07-31T10:26:17.091Z</time>
      </trkpt>
      <trkpt lat="43.009405" lon="-1.22752667">
        <ele>822.0</ele>
        <time>2019-07-31T10:26:18.096Z</time>
      </trkpt>
      <trkpt lat="43.009405" lon="-1.22752667">
        <ele>822.0</ele>
        <time>2019-07-31T10:26:19.102Z</time>
      </trkpt>
      <trkpt lat="43.00940167" lon="-1.22753">
        <ele>822.0</ele>
        <time>2019-07-31T10:26:20.107Z</time>
      </trkpt>
      <trkpt lat="43.009395" lon="-1.22753">
        <ele>821.0</ele>
        <time>2019-07-31T10:26:21.113Z</time>
      </trkpt>
      <trkpt lat="43.00939" lon="-1.22753167">
        <ele>821.0</ele>
        <time>2019-07-31T10:26:22.120Z</time>
      </trkpt>
      <trkpt lat="43.00938667" lon="-1.22753">
        <ele>821.0</ele>
        <time>2019-07-31T10:26:23.126Z</time>
      </trkpt>
      <trkpt lat="43.00938167" lon="-1.22753">
        <ele>821.0</ele>
        <time>2019-07-31T10:26:24.130Z</time>
      </trkpt>
      <trkpt lat="43.00937667" lon="-1.22752833">
        <ele>820.0</ele>
        <time>2019-07-31T10:26:25.134Z</time>
      </trkpt>
      <trkpt lat="43.00937" lon="-1.227525">
        <ele>820.0</ele>
        <time>2019-07-31T10:26:26.140Z</time>
      </trkpt>
      <trkpt lat="43.00936333" lon="-1.22752167">
        <ele>818.0</ele>
        <time>2019-07-31T10:26:27.145Z</time>
      </trkpt>
      <trkpt lat="43.00935833" lon="-1.22751833">
        <ele>817.0</ele>
        <time>2019-07-31T10:26:28.150Z</time>
      </trkpt>
      <trkpt lat="43.00935833" lon="-1.227515">
        <ele>817.0</ele>
        <time>2019-07-31T10:26:29.157Z</time>
      </trkpt>
      <trkpt lat="43.00936167" lon="-1.227505">
        <ele>816.0</ele>
        <time>2019-07-31T10:26:30.163Z</time>
      </trkpt>
      <trkpt lat="43.00936333" lon="-1.22749667">
        <ele>815.0</ele>
        <time>2019-07-31T10:26:31.166Z</time>
      </trkpt>
      <trkpt lat="43.00936667" lon="-1.22748833">
        <ele>814.0</ele>
        <time>2019-07-31T10:26:32.172Z</time>
      </trkpt>
      <trkpt lat="43.00937333" lon="-1.22747833">
        <ele>813.0</ele>
        <time>2019-07-31T10:26:33.177Z</time>
      </trkpt>
      <trkpt lat="43.00937667" lon="-1.22746667">
        <ele>812.0</ele>
        <time>2019-07-31T10:26:34.184Z</time>
      </trkpt>
      <trkpt lat="43.00938333" lon="-1.22745667">
        <ele>812.0</ele>
        <time>2019-07-31T10:26:35.064Z</time>
      </trkpt>
      <trkpt lat="43.009385" lon="-1.227455">
        <ele>811.0</ele>
        <time>2019-07-31T10:26:36.070Z</time>
      </trkpt>
      <trkpt lat="43.00938667" lon="-1.22745333">
        <ele>810.0</ele>
        <time>2019-07-31T10:26:37.075Z</time>
      </trkpt>
      <trkpt lat="43.009385" lon="-1.22745167">
        <ele>811.0</ele>
        <time>2019-07-31T10:26:38.079Z</time>
      </trkpt>
      <trkpt lat="43.00938167" lon="-1.227455">
        <ele>811.0</ele>
        <time>2019-07-31T10:26:39.083Z</time>
      </trkpt>
      <trkpt lat="43.009385" lon="-1.22745333">
        <ele>811.0</ele>
        <time>2019-07-31T10:26:40.088Z</time>
      </trkpt>
      <trkpt lat="43.00938667" lon="-1.227455">
        <ele>811.0</ele>
        <time>2019-07-31T10:26:41.094Z</time>
      </trkpt>
      <trkpt lat="43.00938833" lon="-1.22745833">
        <ele>811.0</ele>
        <time>2019-07-31T10:26:42.099Z</time>
      </trkpt>
      <trkpt lat="43.009385" lon="-1.22745667">
        <ele>810.0</ele>
        <time>2019-07-31T10:26:43.106Z</time>
      </trkpt>
      <trkpt lat="43.00938333" lon="-1.22745833">
        <ele>810.0</ele>
        <time>2019-07-31T10:26:44.111Z</time>
      </trkpt>
      <trkpt lat="43.00938333" lon="-1.22745833">
        <ele>810.0</ele>
        <time>2019-07-31T10:26:45.118Z</time>
      </trkpt>
      <trkpt lat="43.009385" lon="-1.22746167">
        <ele>810.0</ele>
        <time>2019-07-31T10:26:46.122Z</time>
      </trkpt>
      <trkpt lat="43.009385" lon="-1.22746333">
        <ele>810.0</ele>
        <time>2019-07-31T10:26:47.126Z</time>
      </trkpt>
      <trkpt lat="43.00938333" lon="-1.22746667">
        <ele>810.0</ele>
        <time>2019-07-31T10:26:48.131Z</time>
      </trkpt>
      <trkpt lat="43.00938667" lon="-1.22747">
        <ele>810.0</ele>
        <time>2019-07-31T10:26:49.133Z</time>
      </trkpt>
      <trkpt lat="43.00938833" lon="-1.22747333">
        <ele>810.0</ele>
        <time>2019-07-31T10:26:50.137Z</time>
      </trkpt>
      <trkpt lat="43.00939167" lon="-1.22747833">
        <ele>811.0</ele>
        <time>2019-07-31T10:26:51.142Z</time>
      </trkpt>
      <trkpt lat="43.00939333" lon="-1.227485">
        <ele>811.0</ele>
        <time>2019-07-31T10:26:52.148Z</time>
      </trkpt>
      <trkpt lat="43.00939167" lon="-1.22749167">
        <ele>812.0</ele>
        <time>2019-07-31T10:26:53.155Z</time>
      </trkpt>
      <trkpt lat="43.00939167" lon="-1.227495">
        <ele>811.0</ele>
        <time>2019-07-31T10:26:54.160Z</time>
      </trkpt>
      <trkpt lat="43.00939333" lon="-1.22749667">
        <ele>812.0</ele>
        <time>2019-07-31T10:26:55.165Z</time>
      </trkpt>
      <trkpt lat="43.009395" lon="-1.22749333">
        <ele>812.0</ele>
        <time>2019-07-31T10:26:56.170Z</time>
      </trkpt>
      <trkpt lat="43.00939667" lon="-1.22749">
        <ele>813.0</ele>
        <time>2019-07-31T10:26:57.174Z</time>
      </trkpt>
      <trkpt lat="43.00939667" lon="-1.22748167">
        <ele>813.0</ele>
        <time>2019-07-31T10:26:58.178Z</time>
      </trkpt>
      <trkpt lat="43.0094" lon="-1.22748">
        <ele>813.0</ele>
        <time>2019-07-31T10:26:59.182Z</time>
      </trkpt>
      <trkpt lat="43.00940333" lon="-1.22748333">
        <ele>812.0</ele>
        <time>2019-07-31T10:27:00.063Z</time>
      </trkpt>
      <trkpt lat="43.00940167" lon="-1.22748">
        <ele>812.0</ele>
        <time>2019-07-31T10:27:01.067Z</time>
      </trkpt>
      <trkpt lat="43.0094" lon="-1.22747333">
        <ele>812.0</ele>
        <time>2019-07-31T10:27:02.073Z</time>
      </trkpt>
      <trkpt lat="43.0094" lon="-1.22747">
        <ele>812.0</ele>
        <time>2019-07-31T10:27:03.080Z</time>
      </trkpt>
      <trkpt lat="43.00939667" lon="-1.22746833">
        <ele>813.0</ele>
        <time>2019-07-31T10:27:04.083Z</time>
      </trkpt>
      <trkpt lat="43.00939833" lon="-1.22746833">
        <ele>813.0</ele>
        <time>2019-07-31T10:27:05.086Z</time>
      </trkpt>
      <trkpt lat="43.00939833" lon="-1.22746833">
        <ele>813.0</ele>
        <time>2019-07-31T10:27:06.092Z</time>
      </trkpt>
      <trkpt lat="43.00939833" lon="-1.22747167">
        <ele>813.0</ele>
        <time>2019-07-31T10:27:07.098Z</time>
      </trkpt>
      <trkpt lat="43.00940167" lon="-1.227475">
        <ele>813.0</ele>
        <time>2019-07-31T10:27:08.103Z</time>
      </trkpt>
      <trkpt lat="43.00940167" lon="-1.22748">
        <ele>814.0</ele>
        <time>2019-07-31T10:27:09.110Z</time>
      </trkpt>
      <trkpt lat="43.00940167" lon="-1.22748667">
        <ele>814.0</ele>
        <time>2019-07-31T10:27:10.117Z</time>
      </trkpt>
      <trkpt lat="43.00940333" lon="-1.22749167">
        <ele>814.0</ele>
        <time>2019-07-31T10:27:11.123Z</time>
      </trkpt>
      <trkpt lat="43.00940333" lon="-1.22749667">
        <ele>814.0</ele>
        <time>2019-07-31T10:27:12.128Z</time>
      </trkpt>
      <trkpt lat="43.009405" lon="-1.2275">
        <ele>814.0</ele>
        <time>2019-07-31T10:27:13.135Z</time>
      </trkpt>
      <trkpt lat="43.00941" lon="-1.22749833">
        <ele>815.0</ele>
        <time>2019-07-31T10:27:14.142Z</time>
      </trkpt>
      <trkpt lat="43.00941167" lon="-1.22749333">
        <ele>816.0</ele>
        <time>2019-07-31T10:27:15.147Z</time>
      </trkpt>
      <trkpt lat="43.00941167" lon="-1.22749167">
        <ele>816.0</ele>
        <time>2019-07-31T10:27:16.153Z</time>
      </trkpt>
      <trkpt lat="43.00941333" lon="-1.22748833">
        <ele>817.0</ele>
        <time>2019-07-31T10:27:17.160Z</time>
      </trkpt>
      <trkpt lat="43.00941333" lon="-1.22748333">
        <ele>817.0</ele>
        <time>2019-07-31T10:27:18.165Z</time>
      </trkpt>
      <trkpt lat="43.00942" lon="-1.22748">
        <ele>817.0</ele>
        <time>2019-07-31T10:27:19.169Z</time>
      </trkpt>
      <trkpt lat="43.009425" lon="-1.22747833">
        <ele>817.0</ele>
        <time>2019-07-31T10:27:20.175Z</time>
      </trkpt>
      <trkpt lat="43.00943333" lon="-1.22747667">
        <ele>818.0</ele>
        <time>2019-07-31T10:27:21.180Z</time>
      </trkpt>
      <trkpt lat="43.00943833" lon="-1.227475">
        <ele>818.0</ele>
        <time>2019-07-31T10:27:22.184Z</time>
      </trkpt>
      <trkpt lat="43.00944" lon="-1.22747667">
        <ele>818.0</ele>
        <time>2019-07-31T10:27:23.063Z</time>
      </trkpt>
      <trkpt lat="43.00943667" lon="-1.22747833">
        <ele>819.0</ele>
        <time>2019-07-31T10:27:24.069Z</time>
      </trkpt>
      <trkpt lat="43.00943167" lon="-1.22747833">
        <ele>820.0</ele>
        <time>2019-07-31T10:27:25.074Z</time>
      </trkpt>
      <trkpt lat="43.00943167" lon="-1.22747333">
        <ele>820.0</ele>
        <time>2019-07-31T10:27:26.082Z</time>
      </trkpt>
      <trkpt lat="43.00943167" lon="-1.227475">
        <ele>820.0</ele>
        <time>2019-07-31T10:27:27.087Z</time>
      </trkpt>
      <trkpt lat="43.00943167" lon="-1.22748167">
        <ele>820.0</ele>
        <time>2019-07-31T10:27:28.093Z</time>
      </trkpt>
      <trkpt lat="43.00943167" lon="-1.22748333">
        <ele>820.0</ele>
        <time>2019-07-31T10:27:29.099Z</time>
      </trkpt>
      <trkpt lat="43.00943333" lon="-1.22747833">
        <ele>820.0</ele>
        <time>2019-07-31T10:27:30.103Z</time>
      </trkpt>
      <trkpt lat="43.00943667" lon="-1.22747667">
        <ele>820.0</ele>
        <time>2019-07-31T10:27:31.108Z</time>
      </trkpt>
      <trkpt lat="43.00943833" lon="-1.22747667">
        <ele>819.0</ele>
        <time>2019-07-31T10:27:32.112Z</time>
      </trkpt>
      <trkpt lat="43.00944" lon="-1.22747667">
        <ele>819.0</ele>
        <time>2019-07-31T10:27:33.117Z</time>
      </trkpt>
      <trkpt lat="43.00944167" lon="-1.22747833">
        <ele>818.0</ele>
        <time>2019-07-31T10:27:34.124Z</time>
      </trkpt>
      <trkpt lat="43.00944" lon="-1.22748">
        <ele>818.0</ele>
        <time>2019-07-31T10:27:35.130Z</time>
      </trkpt>
      <trkpt lat="43.00943833" lon="-1.22747833">
        <ele>817.0</ele>
        <time>2019-07-31T10:27:36.136Z</time>
      </trkpt>
      <trkpt lat="43.009435" lon="-1.22748">
        <ele>817.0</ele>
        <time>2019-07-31T10:27:37.142Z</time>
      </trkpt>
      <trkpt lat="43.00943167" lon="-1.22748167">
        <ele>816.0</ele>
        <time>2019-07-31T10:27:38.149Z</time>
      </trkpt>
      <trkpt lat="43.00943167" lon="-1.22748167">
        <ele>816.0</ele>
        <time>2019-07-31T10:27:39.155Z</time>
      </trkpt>
      <trkpt lat="43.00943167" lon="-1.227485">
        <ele>816.0</ele>
        <time>2019-07-31T10:27:40.160Z</time>
      </trkpt>
      <trkpt lat="43.00943333" lon="-1.22748667">
        <ele>815.0</ele>
        <time>2019-07-31T10:27:41.165Z</time>
      </trkpt>
      <trkpt lat="43.009435" lon="-1.22748667">
        <ele>814.0</ele>
        <time>2019-07-31T10:27:42.169Z</time>
      </trkpt>
      <trkpt lat="43.00943333" lon="-1.22748667">
        <ele>813.0</ele>
        <time>2019-07-31T10:27:43.176Z</time>
      </trkpt>
      <trkpt lat="43.00943" lon="-1.22748667">
        <ele>812.0</ele>
        <time>2019-07-31T10:27:44.181Z</time>
      </trkpt>
      <trkpt lat="43.009425" lon="-1.22748667">
        <ele>811.0</ele>
        <time>2019-07-31T10:27:45.061Z</time>
      </trkpt>
      <trkpt lat="43.00942" lon="-1.22748667">
        <ele>810.0</ele>
        <time>2019-07-31T10:27:46.068Z</time>
      </trkpt>
      <trkpt lat="43.00941833" lon="-1.227485">
        <ele>810.0</ele>
        <time>2019-07-31T10:27:47.073Z</time>
      </trkpt>
      <trkpt lat="43.00941833" lon="-1.227485">
        <ele>809.0</ele>
        <time>2019-07-31T10:27:48.078Z</time>
      </trkpt>
      <trkpt lat="43.00941667" lon="-1.22748333">
        <ele>808.0</ele>
        <time>2019-07-31T10:27:49.084Z</time>
      </trkpt>
      <trkpt lat="43.00941667" lon="-1.22748">
        <ele>808.0</ele>
        <time>2019-07-31T10:27:50.090Z</time>
      </trkpt>
      <trkpt lat="43.00941667" lon="-1.22747667">
        <ele>807.0</ele>
        <time>2019-07-31T10:27:51.095Z</time>
      </trkpt>
      <trkpt lat="43.009415" lon="-1.22747833">
        <ele>806.0</ele>
        <time>2019-07-31T10:27:52.101Z</time>
      </trkpt>
      <trkpt lat="43.00941333" lon="-1.22747833">
        <ele>805.0</ele>
        <time>2019-07-31T10:27:53.106Z</time>
      </trkpt>
      <trkpt lat="43.00941" lon="-1.22747833">
        <ele>805.0</ele>
        <time>2019-07-31T10:27:54.112Z</time>
      </trkpt>
      <trkpt lat="43.009405" lon="-1.227475">
        <ele>804.0</ele>
        <time>2019-07-31T10:27:55.120Z</time>
      </trkpt>
      <trkpt lat="43.00939833" lon="-1.22747667">
        <ele>804.0</ele>
        <time>2019-07-31T10:27:56.125Z</time>
      </trkpt>
      <trkpt lat="43.00939167" lon="-1.22747833">
        <ele>804.0</ele>
        <time>2019-07-31T10:27:57.132Z</time>
      </trkpt>
      <trkpt lat="43.00938167" lon="-1.22747833">
        <ele>804.0</ele>
        <time>2019-07-31T10:27:58.139Z</time>
      </trkpt>
      <trkpt lat="43.00937333" lon="-1.22748">
        <ele>804.0</ele>
        <time>2019-07-31T10:27:59.147Z</time>
      </trkpt>
      <trkpt lat="43.00936667" lon="-1.22748333">
        <ele>805.0</ele>
        <time>2019-07-31T10:28:00.151Z</time>
      </trkpt>
      <trkpt lat="43.009365" lon="-1.22749">
        <ele>805.0</ele>
        <time>2019-07-31T10:28:01.158Z</time>
      </trkpt>
      <trkpt lat="43.00936167" lon="-1.22749333">
        <ele>804.0</ele>
        <time>2019-07-31T10:28:02.163Z</time>
      </trkpt>
      <trkpt lat="43.00935833" lon="-1.227495">
        <ele>804.0</ele>
        <time>2019-07-31T10:28:03.168Z</time>
      </trkpt>
      <trkpt lat="43.00935667" lon="-1.22749667">
        <ele>804.0</ele>
        <time>2019-07-31T10:28:04.173Z</time>
      </trkpt>
      <trkpt lat="43.00935667" lon="-1.22749833">
        <ele>804.0</ele>
        <time>2019-07-31T10:28:05.178Z</time>
      </trkpt>
      <trkpt lat="43.00935167" lon="-1.22749833">
        <ele>804.0</ele>
        <time>2019-07-31T10:28:06.183Z</time>
      </trkpt>
      <trkpt lat="43.00935" lon="-1.227495">
        <ele>803.0</ele>
        <time>2019-07-31T10:28:07.063Z</time>
      </trkpt>
      <trkpt lat="43.00934833" lon="-1.22749167">
        <ele>803.0</ele>
        <time>2019-07-31T10:28:08.069Z</time>
      </trkpt>
      <trkpt lat="43.009345" lon="-1.22748333">
        <ele>802.0</ele>
        <time>2019-07-31T10:28:09.076Z</time>
      </trkpt>
      <trkpt lat="43.00934333" lon="-1.22747333">
        <ele>802.0</ele>
        <time>2019-07-31T10:28:10.083Z</time>
      </trkpt>
      <trkpt lat="43.00934" lon="-1.22746667">
        <ele>802.0</ele>
        <time>2019-07-31T10:28:11.089Z</time>
      </trkpt>
      <trkpt lat="43.00933667" lon="-1.22747">
        <ele>802.0</ele>
        <time>2019-07-31T10:28:12.095Z</time>
      </trkpt>
      <trkpt lat="43.00933667" lon="-1.22747167">
        <ele>801.0</ele>
        <time>2019-07-31T10:28:13.100Z</time>
      </trkpt>
      <trkpt lat="43.00933667" lon="-1.22747333">
        <ele>802.0</ele>
        <time>2019-07-31T10:28:14.104Z</time>
      </trkpt>
      <trkpt lat="43.00933333" lon="-1.227475">
        <ele>802.0</ele>
        <time>2019-07-31T10:28:15.109Z</time>
      </trkpt>
      <trkpt lat="43.00933167" lon="-1.22747667">
        <ele>802.0</ele>
        <time>2019-07-31T10:28:16.115Z</time>
      </trkpt>
      <trkpt lat="43.00932833" lon="-1.227475">
        <ele>803.0</ele>
        <time>2019-07-31T10:28:17.120Z</time>
      </trkpt>
      <trkpt lat="43.00933333" lon="-1.22746833">
        <ele>804.0</ele>
        <time>2019-07-31T10:28:18.125Z</time>
      </trkpt>
      <trkpt lat="43.00934167" lon="-1.22746167">
        <ele>804.0</ele>
        <time>2019-07-31T10:28:19.131Z</time>
      </trkpt>
      <trkpt lat="43.00934833" lon="-1.22745667">
        <ele>805.0</ele>
        <time>2019-07-31T10:28:20.138Z</time>
      </trkpt>
      <trkpt lat="43.00935" lon="-1.22745667">
        <ele>805.0</ele>
        <time>2019-07-31T10:28:21.143Z</time>
      </trkpt>
      <trkpt lat="43.00935333" lon="-1.22745833">
        <ele>805.0</ele>
        <time>2019-07-31T10:28:22.150Z</time>
      </trkpt>
      <trkpt lat="43.00935667" lon="-1.22746">
        <ele>805.0</ele>
        <time>2019-07-31T10:28:23.154Z</time>
      </trkpt>
      <trkpt lat="43.00936" lon="-1.22746333">
        <ele>806.0</ele>
        <time>2019-07-31T10:28:24.157Z</time>
      </trkpt>
      <trkpt lat="43.00936" lon="-1.22746667">
        <ele>806.0</ele>
        <time>2019-07-31T10:28:25.161Z</time>
      </trkpt>
      <trkpt lat="43.00936333" lon="-1.22747">
        <ele>807.0</ele>
        <time>2019-07-31T10:28:26.165Z</time>
      </trkpt>
      <trkpt lat="43.00936667" lon="-1.22747">
        <ele>807.0</ele>
        <time>2019-07-31T10:28:27.168Z</time>
      </trkpt>
      <trkpt lat="43.00937" lon="-1.22747167">
        <ele>808.0</ele>
        <time>2019-07-31T10:28:28.174Z</time>
      </trkpt>
      <trkpt lat="43.009375" lon="-1.22747333">
        <ele>808.0</ele>
        <time>2019-07-31T10:28:29.181Z</time>
      </trkpt>
      <trkpt lat="43.00937833" lon="-1.22747667">
        <ele>809.0</ele>
        <time>2019-07-31T10:28:30.061Z</time>
      </trkpt>
      <trkpt lat="43.00938" lon="-1.22748167">
        <ele>810.0</ele>
        <time>2019-07-31T10:28:31.065Z</time>
      </trkpt>
      <trkpt lat="43.009385" lon="-1.22748833">
        <ele>811.0</ele>
        <time>2019-07-31T10:28:32.071Z</time>
      </trkpt>
      <trkpt lat="43.00939333" lon="-1.22749333">
        <ele>811.0</ele>
        <time>2019-07-31T10:28:33.076Z</time>
      </trkpt>
      <trkpt lat="43.0094" lon="-1.227495">
        <ele>811.0</ele>
        <time>2019-07-31T10:28:34.083Z</time>
      </trkpt>
      <trkpt lat="43.00940833" lon="-1.22749333">
        <ele>811.0</ele>
        <time>2019-07-31T10:28:35.089Z</time>
      </trkpt>
      <trkpt lat="43.00941333" lon="-1.22749167">
        <ele>812.0</ele>
        <time>2019-07-31T10:28:36.093Z</time>
      </trkpt>
      <trkpt lat="43.00940833" lon="-1.22749167">
        <ele>813.0</ele>
        <time>2019-07-31T10:28:37.100Z</time>
      </trkpt>
      <trkpt lat="43.00941" lon="-1.227485">
        <ele>815.0</ele>
        <time>2019-07-31T10:28:38.107Z</time>
      </trkpt>
      <trkpt lat="43.00941333" lon="-1.22748333">
        <ele>815.0</ele>
        <time>2019-07-31T10:28:39.110Z</time>
      </trkpt>
      <trkpt lat="43.00941667" lon="-1.22747833">
        <ele>815.0</ele>
        <time>2019-07-31T10:28:40.115Z</time>
      </trkpt>
      <trkpt lat="43.00941833" lon="-1.227475">
        <ele>815.0</ele>
        <time>2019-07-31T10:28:41.121Z</time>
      </trkpt>
      <trkpt lat="43.00942" lon="-1.22747167">
        <ele>815.0</ele>
        <time>2019-07-31T10:28:42.124Z</time>
      </trkpt>
      <trkpt lat="43.00942" lon="-1.227465">
        <ele>815.0</ele>
        <time>2019-07-31T10:28:43.127Z</time>
      </trkpt>
      <trkpt lat="43.00941667" lon="-1.22746333">
        <ele>816.0</ele>
        <time>2019-07-31T10:28:44.133Z</time>
      </trkpt>
      <trkpt lat="43.00941667" lon="-1.22746833">
        <ele>816.0</ele>
        <time>2019-07-31T10:28:45.138Z</time>
      </trkpt>
      <trkpt lat="43.00942" lon="-1.22747">
        <ele>817.0</ele>
        <time>2019-07-31T10:28:46.144Z</time>
      </trkpt>
      <trkpt lat="43.00942333" lon="-1.22747167">
        <ele>817.0</ele>
        <time>2019-07-31T10:28:47.148Z</time>
      </trkpt>
      <trkpt lat="43.00942167" lon="-1.227475">
        <ele>818.0</ele>
        <time>2019-07-31T10:28:48.152Z</time>
      </trkpt>
      <trkpt lat="43.00942" lon="-1.22747333">
        <ele>817.0</ele>
        <time>2019-07-31T10:28:49.158Z</time>
      </trkpt>
      <trkpt lat="43.00941667" lon="-1.22747167">
        <ele>818.0</ele>
        <time>2019-07-31T10:28:50.166Z</time>
      </trkpt>
      <trkpt lat="43.00941833" lon="-1.22747167">
        <ele>818.0</ele>
        <time>2019-07-31T10:28:51.171Z</time>
      </trkpt>
      <trkpt lat="43.00942" lon="-1.22747">
        <ele>817.0</ele>
        <time>2019-07-31T10:28:52.176Z</time>
      </trkpt>
      <trkpt lat="43.00942" lon="-1.22746833">
        <ele>817.0</ele>
        <time>2019-07-31T10:28:53.182Z</time>
      </trkpt>
      <trkpt lat="43.00942" lon="-1.227465">
        <ele>817.0</ele>
        <time>2019-07-31T10:28:54.061Z</time>
      </trkpt>
      <trkpt lat="43.009415" lon="-1.22746167">
        <ele>818.0</ele>
        <time>2019-07-31T10:28:55.067Z</time>
      </trkpt>
      <trkpt lat="43.00941" lon="-1.22746">
        <ele>818.0</ele>
        <time>2019-07-31T10:28:56.074Z</time>
      </trkpt>
      <trkpt lat="43.00940833" lon="-1.22745833">
        <ele>818.0</ele>
        <time>2019-07-31T10:28:57.077Z</time>
      </trkpt>
      <trkpt lat="43.00940833" lon="-1.22745833">
        <ele>818.0</ele>
        <time>2019-07-31T10:28:58.083Z</time>
      </trkpt>
      <trkpt lat="43.00940833" lon="-1.22745833">
        <ele>818.0</ele>
        <time>2019-07-31T10:28:59.085Z</time>
      </trkpt>
      <trkpt lat="43.00941167" lon="-1.22746">
        <ele>819.0</ele>
        <time>2019-07-31T10:29:00.090Z</time>
      </trkpt>
      <trkpt lat="43.00941167" lon="-1.22746333">
        <ele>819.0</ele>
        <time>2019-07-31T10:29:01.095Z</time>
      </trkpt>
      <trkpt lat="43.00941667" lon="-1.22747">
        <ele>820.0</ele>
        <time>2019-07-31T10:29:02.101Z</time>
      </trkpt>
      <trkpt lat="43.00942" lon="-1.22747667">
        <ele>821.0</ele>
        <time>2019-07-31T10:29:03.107Z</time>
      </trkpt>
      <trkpt lat="43.00942333" lon="-1.22748">
        <ele>821.0</ele>
        <time>2019-07-31T10:29:04.114Z</time>
      </trkpt>
      <trkpt lat="43.00942833" lon="-1.22748167">
        <ele>821.0</ele>
        <time>2019-07-31T10:29:05.120Z</time>
      </trkpt>
      <trkpt lat="43.00943167" lon="-1.22748167">
        <ele>821.0</ele>
        <time>2019-07-31T10:29:06.124Z</time>
      </trkpt>
      <trkpt lat="43.00943" lon="-1.22748167">
        <ele>821.0</ele>
        <time>2019-07-31T10:29:07.129Z</time>
      </trkpt>
      <trkpt lat="43.009435" lon="-1.22748333">
        <ele>820.0</ele>
        <time>2019-07-31T10:29:08.135Z</time>
      </trkpt>
      <trkpt lat="43.00943833" lon="-1.22748333">
        <ele>819.0</ele>
        <time>2019-07-31T10:29:09.141Z</time>
      </trkpt>
      <trkpt lat="43.00943667" lon="-1.22748333">
        <ele>819.0</ele>
        <time>2019-07-31T10:29:10.147Z</time>
      </trkpt>
      <trkpt lat="43.00944" lon="-1.22748">
        <ele>819.0</ele>
        <time>2019-07-31T10:29:11.153Z</time>
      </trkpt>
      <trkpt lat="43.00943833" lon="-1.227475">
        <ele>819.0</ele>
        <time>2019-07-31T10:29:12.159Z</time>
      </trkpt>
      <trkpt lat="43.00944" lon="-1.22747167">
        <ele>818.0</ele>
        <time>2019-07-31T10:29:13.165Z</time>
      </trkpt>
      <trkpt lat="43.00943333" lon="-1.22747167">
        <ele>817.0</ele>
        <time>2019-07-31T10:29:14.170Z</time>
      </trkpt>
      <trkpt lat="43.00942833" lon="-1.22747">
        <ele>817.0</ele>
        <time>2019-07-31T10:29:15.176Z</time>
      </trkpt>
      <trkpt lat="43.00942" lon="-1.22746333">
        <ele>816.0</ele>
        <time>2019-07-31T10:29:16.182Z</time>
      </trkpt>
      <trkpt lat="43.009415" lon="-1.22745833">
        <ele>815.0</ele>
        <time>2019-07-31T10:29:17.063Z</time>
      </trkpt>
      <trkpt lat="43.009415" lon="-1.22746">
        <ele>814.0</ele>
        <time>2019-07-31T10:29:18.067Z</time>
      </trkpt>
      <trkpt lat="43.00940833" lon="-1.22746167">
        <ele>814.0</ele>
        <time>2019-07-31T10:29:19.073Z</time>
      </trkpt>
      <trkpt lat="43.00940333" lon="-1.227465">
        <ele>814.0</ele>
        <time>2019-07-31T10:29:20.079Z</time>
      </trkpt>
      <trkpt lat="43.00940167" lon="-1.22747">
        <ele>813.0</ele>
        <time>2019-07-31T10:29:21.084Z</time>
      </trkpt>
      <trkpt lat="43.00940333" lon="-1.22747">
        <ele>813.0</ele>
        <time>2019-07-31T10:29:22.087Z</time>
      </trkpt>
      <trkpt lat="43.00940167" lon="-1.22747333">
        <ele>813.0</ele>
        <time>2019-07-31T10:29:23.094Z</time>
      </trkpt>
      <trkpt lat="43.00940333" lon="-1.22747667">
        <ele>813.0</ele>
        <time>2019-07-31T10:29:24.099Z</time>
      </trkpt>
      <trkpt lat="43.00940667" lon="-1.227475">
        <ele>813.0</ele>
        <time>2019-07-31T10:29:25.103Z</time>
      </trkpt>
      <trkpt lat="43.00940833" lon="-1.227475">
        <ele>813.0</ele>
        <time>2019-07-31T10:29:26.108Z</time>
      </trkpt>
      <trkpt lat="43.00940833" lon="-1.227475">
        <ele>813.0</ele>
        <time>2019-07-31T10:29:27.115Z</time>
      </trkpt>
      <trkpt lat="43.00940833" lon="-1.22747333">
        <ele>813.0</ele>
        <time>2019-07-31T10:29:28.120Z</time>
      </trkpt>
      <trkpt lat="43.00941" lon="-1.22747333">
        <ele>813.0</ele>
        <time>2019-07-31T10:29:29.124Z</time>
      </trkpt>
      <trkpt lat="43.00941" lon="-1.22746833">
        <ele>813.0</ele>
        <time>2019-07-31T10:29:30.126Z</time>
      </trkpt>
      <trkpt lat="43.00940833" lon="-1.227465">
        <ele>813.0</ele>
        <time>2019-07-31T10:29:31.134Z</time>
      </trkpt>
      <trkpt lat="43.00940833" lon="-1.227465">
        <ele>814.0</ele>
        <time>2019-07-31T10:29:32.139Z</time>
      </trkpt>
      <trkpt lat="43.00941167" lon="-1.22746667">
        <ele>815.0</ele>
        <time>2019-07-31T10:29:33.145Z</time>
      </trkpt>
      <trkpt lat="43.00941833" lon="-1.22746833">
        <ele>816.0</ele>
        <time>2019-07-31T10:29:34.151Z</time>
      </trkpt>
      <trkpt lat="43.00941667" lon="-1.22746667">
        <ele>816.0</ele>
        <time>2019-07-31T10:29:35.158Z</time>
      </trkpt>
      <trkpt lat="43.009415" lon="-1.22747">
        <ele>818.0</ele>
        <time>2019-07-31T10:29:36.162Z</time>
      </trkpt>
      <trkpt lat="43.00941667" lon="-1.22747167">
        <ele>819.0</ele>
        <time>2019-07-31T10:29:37.166Z</time>
      </trkpt>
      <trkpt lat="43.00942" lon="-1.227475">
        <ele>819.0</ele>
        <time>2019-07-31T10:29:38.173Z</time>
      </trkpt>
      <trkpt lat="43.00942167" lon="-1.22748">
        <ele>819.0</ele>
        <time>2019-07-31T10:29:39.178Z</time>
      </trkpt>
      <trkpt lat="43.00942" lon="-1.22748667">
        <ele>819.0</ele>
        <time>2019-07-31T10:29:40.183Z</time>
      </trkpt>
      <trkpt lat="43.00941667" lon="-1.22749">
        <ele>819.0</ele>
        <time>2019-07-31T10:29:41.062Z</time>
      </trkpt>
      <trkpt lat="43.009415" lon="-1.22749167">
        <ele>820.0</ele>
        <time>2019-07-31T10:29:42.068Z</time>
      </trkpt>
      <trkpt lat="43.00941333" lon="-1.22749333">
        <ele>820.0</ele>
        <time>2019-07-31T10:29:43.073Z</time>
      </trkpt>
      <trkpt lat="43.00941" lon="-1.22749">
        <ele>821.0</ele>
        <time>2019-07-31T10:29:44.078Z</time>
      </trkpt>
      <trkpt lat="43.00940833" lon="-1.227485">
        <ele>822.0</ele>
        <time>2019-07-31T10:29:45.083Z</time>
      </trkpt>
      <trkpt lat="43.007925" lon="-1.22591333">
        <ele>844.0</ele>
        <time>2019-07-31T10:29:47.089Z</time>
      </trkpt>
      <trkpt lat="43.007915" lon="-1.22590667">
        <ele>843.0</ele>
        <time>2019-07-31T10:29:48.096Z</time>
      </trkpt>
      <trkpt lat="43.00790333" lon="-1.22589833">
        <ele>843.0</ele>
        <time>2019-07-31T10:29:49.101Z</time>
      </trkpt>
      <trkpt lat="43.00789167" lon="-1.22589">
        <ele>843.0</ele>
        <time>2019-07-31T10:29:50.107Z</time>
      </trkpt>
      <trkpt lat="43.00788" lon="-1.22588">
        <ele>842.0</ele>
        <time>2019-07-31T10:29:51.113Z</time>
      </trkpt>
      <trkpt lat="43.00786833" lon="-1.225875">
        <ele>842.0</ele>
        <time>2019-07-31T10:29:52.120Z</time>
      </trkpt>
      <trkpt lat="43.00785667" lon="-1.22586667">
        <ele>842.0</ele>
        <time>2019-07-31T10:29:53.124Z</time>
      </trkpt>
      <trkpt lat="43.00784333" lon="-1.225855">
        <ele>842.0</ele>
        <time>2019-07-31T10:29:54.130Z</time>
      </trkpt>
      <trkpt lat="43.00782833" lon="-1.22584667">
        <ele>841.0</ele>
        <time>2019-07-31T10:29:55.135Z</time>
      </trkpt>
      <trkpt lat="43.00782" lon="-1.22584">
        <ele>840.0</ele>
        <time>2019-07-31T10:29:56.141Z</time>
      </trkpt>
      <trkpt lat="43.007825" lon="-1.22583167">
        <ele>841.0</ele>
        <time>2019-07-31T10:29:57.147Z</time>
      </trkpt>
      <trkpt lat="43.00783167" lon="-1.22582833">
        <ele>841.0</ele>
        <time>2019-07-31T10:29:58.153Z</time>
      </trkpt>
      <trkpt lat="43.007835" lon="-1.22583333">
        <ele>842.0</ele>
        <time>2019-07-31T10:29:59.160Z</time>
      </trkpt>
      <trkpt lat="43.00784" lon="-1.22584667">
        <ele>842.0</ele>
        <time>2019-07-31T10:30:00.165Z</time>
      </trkpt>
      <trkpt lat="43.00784" lon="-1.22587">
        <ele>843.0</ele>
        <time>2019-07-31T10:30:01.171Z</time>
      </trkpt>
      <trkpt lat="43.00784333" lon="-1.22589">
        <ele>844.0</ele>
        <time>2019-07-31T10:30:02.177Z</time>
      </trkpt>
      <trkpt lat="43.00785167" lon="-1.22589833">
        <ele>844.0</ele>
        <time>2019-07-31T10:30:03.182Z</time>
      </trkpt>
      <trkpt lat="43.007855" lon="-1.22590333">
        <ele>844.0</ele>
        <time>2019-07-31T10:30:04.061Z</time>
      </trkpt>
      <trkpt lat="43.00785833" lon="-1.22590333">
        <ele>843.0</ele>
        <time>2019-07-31T10:30:05.067Z</time>
      </trkpt>
      <trkpt lat="43.00786" lon="-1.22589667">
        <ele>843.0</ele>
        <time>2019-07-31T10:30:06.072Z</time>
      </trkpt>
      <trkpt lat="43.00785833" lon="-1.22588833">
        <ele>843.0</ele>
        <time>2019-07-31T10:30:07.079Z</time>
      </trkpt>
      <trkpt lat="43.00785167" lon="-1.22588">
        <ele>843.0</ele>
        <time>2019-07-31T10:30:08.084Z</time>
      </trkpt>
      <trkpt lat="43.00784" lon="-1.225875">
        <ele>843.0</ele>
        <time>2019-07-31T10:30:09.090Z</time>
      </trkpt>
      <trkpt lat="43.00782833" lon="-1.22587">
        <ele>842.0</ele>
        <time>2019-07-31T10:30:10.095Z</time>
      </trkpt>
      <trkpt lat="43.00781333" lon="-1.22586333">
        <ele>842.0</ele>
        <time>2019-07-31T10:30:11.098Z</time>
      </trkpt>
      <trkpt lat="43.00779833" lon="-1.225855">
        <ele>842.0</ele>
        <time>2019-07-31T10:30:12.104Z</time>
      </trkpt>
      <trkpt lat="43.00778167" lon="-1.22584833">
        <ele>841.0</ele>
        <time>2019-07-31T10:30:13.109Z</time>
      </trkpt>
      <trkpt lat="43.00777" lon="-1.22584">
        <ele>841.0</ele>
        <time>2019-07-31T10:30:14.114Z</time>
      </trkpt>
      <trkpt lat="43.00775667" lon="-1.22583333">
        <ele>840.0</ele>
        <time>2019-07-31T10:30:15.120Z</time>
      </trkpt>
      <trkpt lat="43.00774333" lon="-1.22582833">
        <ele>840.0</ele>
        <time>2019-07-31T10:30:16.125Z</time>
      </trkpt>
      <trkpt lat="43.00772833" lon="-1.22582">
        <ele>839.0</ele>
        <time>2019-07-31T10:30:17.133Z</time>
      </trkpt>
      <trkpt lat="43.007715" lon="-1.22581167">
        <ele>839.0</ele>
        <time>2019-07-31T10:30:18.140Z</time>
      </trkpt>
      <trkpt lat="43.00770167" lon="-1.22580333">
        <ele>838.0</ele>
        <time>2019-07-31T10:30:19.146Z</time>
      </trkpt>
      <trkpt lat="43.00768833" lon="-1.225795">
        <ele>837.0</ele>
        <time>2019-07-31T10:30:20.151Z</time>
      </trkpt>
      <trkpt lat="43.007675" lon="-1.22578667">
        <ele>837.0</ele>
        <time>2019-07-31T10:30:21.156Z</time>
      </trkpt>
      <trkpt lat="43.007655" lon="-1.22578">
        <ele>837.0</ele>
        <time>2019-07-31T10:30:22.160Z</time>
      </trkpt>
      <trkpt lat="43.00764" lon="-1.22577167">
        <ele>837.0</ele>
        <time>2019-07-31T10:30:23.165Z</time>
      </trkpt>
      <trkpt lat="43.007625" lon="-1.22576167">
        <ele>837.0</ele>
        <time>2019-07-31T10:30:24.169Z</time>
      </trkpt>
      <trkpt lat="43.00761167" lon="-1.22575167">
        <ele>837.0</ele>
        <time>2019-07-31T10:30:25.174Z</time>
      </trkpt>
      <trkpt lat="43.00759167" lon="-1.22574667">
        <ele>838.0</ele>
        <time>2019-07-31T10:30:26.177Z</time>
      </trkpt>
      <trkpt lat="43.00757667" lon="-1.22573167">
        <ele>839.0</ele>
        <time>2019-07-31T10:30:27.181Z</time>
      </trkpt>
      <trkpt lat="43.00756" lon="-1.22572667">
        <ele>840.0</ele>
        <time>2019-07-31T10:30:28.186Z</time>
      </trkpt>
      <trkpt lat="43.00754333" lon="-1.225715">
        <ele>841.0</ele>
        <time>2019-07-31T10:30:29.067Z</time>
      </trkpt>
      <trkpt lat="43.00752667" lon="-1.22570667">
        <ele>841.0</ele>
        <time>2019-07-31T10:30:30.072Z</time>
      </trkpt>
      <trkpt lat="43.00751167" lon="-1.22569667">
        <ele>841.0</ele>
        <time>2019-07-31T10:30:31.078Z</time>
      </trkpt>
      <trkpt lat="43.00749833" lon="-1.22568667">
        <ele>841.0</ele>
        <time>2019-07-31T10:30:32.084Z</time>
      </trkpt>
      <trkpt lat="43.00748333" lon="-1.22567833">
        <ele>841.0</ele>
        <time>2019-07-31T10:30:33.089Z</time>
      </trkpt>
      <trkpt lat="43.00747333" lon="-1.22566667">
        <ele>840.0</ele>
        <time>2019-07-31T10:30:34.095Z</time>
      </trkpt>
      <trkpt lat="43.007465" lon="-1.22565167">
        <ele>840.0</ele>
        <time>2019-07-31T10:30:35.099Z</time>
      </trkpt>
      <trkpt lat="43.00745167" lon="-1.22563667">
        <ele>839.0</ele>
        <time>2019-07-31T10:30:36.107Z</time>
      </trkpt>
      <trkpt lat="43.00744333" lon="-1.22562333">
        <ele>838.0</ele>
        <time>2019-07-31T10:30:37.112Z</time>
      </trkpt>
      <trkpt lat="43.00743167" lon="-1.22561333">
        <ele>838.0</ele>
        <time>2019-07-31T10:30:38.118Z</time>
      </trkpt>
      <trkpt lat="43.00742" lon="-1.22559667">
        <ele>839.0</ele>
        <time>2019-07-31T10:30:39.122Z</time>
      </trkpt>
      <trkpt lat="43.00740667" lon="-1.22558">
        <ele>839.0</ele>
        <time>2019-07-31T10:30:40.129Z</time>
      </trkpt>
      <trkpt lat="43.00739167" lon="-1.225565">
        <ele>840.0</ele>
        <time>2019-07-31T10:30:41.137Z</time>
      </trkpt>
      <trkpt lat="43.00738167" lon="-1.22555">
        <ele>839.0</ele>
        <time>2019-07-31T10:30:42.142Z</time>
      </trkpt>
      <trkpt lat="43.00737" lon="-1.22553">
        <ele>839.0</ele>
        <time>2019-07-31T10:30:43.148Z</time>
      </trkpt>
      <trkpt lat="43.00735833" lon="-1.22551167">
        <ele>840.0</ele>
        <time>2019-07-31T10:30:44.154Z</time>
      </trkpt>
      <trkpt lat="43.00733833" lon="-1.22550167">
        <ele>839.0</ele>
        <time>2019-07-31T10:30:45.161Z</time>
      </trkpt>
      <trkpt lat="43.00732" lon="-1.22549833">
        <ele>839.0</ele>
        <time>2019-07-31T10:30:46.166Z</time>
      </trkpt>
      <trkpt lat="43.00730667" lon="-1.22548833">
        <ele>839.0</ele>
        <time>2019-07-31T10:30:47.173Z</time>
      </trkpt>
      <trkpt lat="43.00729667" lon="-1.22548833">
        <ele>838.0</ele>
        <time>2019-07-31T10:30:48.180Z</time>
      </trkpt>
      <trkpt lat="43.00728667" lon="-1.22547667">
        <ele>839.0</ele>
        <time>2019-07-31T10:30:49.186Z</time>
      </trkpt>
      <trkpt lat="43.00727833" lon="-1.22546667">
        <ele>840.0</ele>
        <time>2019-07-31T10:30:50.065Z</time>
      </trkpt>
      <trkpt lat="43.007265" lon="-1.22545833">
        <ele>841.0</ele>
        <time>2019-07-31T10:30:51.072Z</time>
      </trkpt>
      <trkpt lat="43.00725333" lon="-1.225445">
        <ele>842.0</ele>
        <time>2019-07-31T10:30:52.077Z</time>
      </trkpt>
      <trkpt lat="43.00724333" lon="-1.22543">
        <ele>842.0</ele>
        <time>2019-07-31T10:30:53.081Z</time>
      </trkpt>
      <trkpt lat="43.00723167" lon="-1.225415">
        <ele>843.0</ele>
        <time>2019-07-31T10:30:54.085Z</time>
      </trkpt>
      <trkpt lat="43.00722167" lon="-1.22540667">
        <ele>843.0</ele>
        <time>2019-07-31T10:30:55.090Z</time>
      </trkpt>
      <trkpt lat="43.007215" lon="-1.22540833">
        <ele>844.0</ele>
        <time>2019-07-31T10:30:56.096Z</time>
      </trkpt>
      <trkpt lat="43.007215" lon="-1.22541">
        <ele>844.0</ele>
        <time>2019-07-31T10:30:57.103Z</time>
      </trkpt>
      <trkpt lat="43.00721333" lon="-1.22541">
        <ele>844.0</ele>
        <time>2019-07-31T10:30:58.109Z</time>
      </trkpt>
      <trkpt lat="43.00720833" lon="-1.22540833">
        <ele>844.0</ele>
        <time>2019-07-31T10:30:59.115Z</time>
      </trkpt>
      <trkpt lat="43.00719833" lon="-1.225405">
        <ele>844.0</ele>
        <time>2019-07-31T10:31:00.119Z</time>
      </trkpt>
      <trkpt lat="43.00718833" lon="-1.2254">
        <ele>843.0</ele>
        <time>2019-07-31T10:31:01.122Z</time>
      </trkpt>
      <trkpt lat="43.007175" lon="-1.225395">
        <ele>843.0</ele>
        <time>2019-07-31T10:31:02.127Z</time>
      </trkpt>
      <trkpt lat="43.00716333" lon="-1.22538833">
        <ele>842.0</ele>
        <time>2019-07-31T10:31:03.132Z</time>
      </trkpt>
      <trkpt lat="43.00715" lon="-1.22538333">
        <ele>841.0</ele>
        <time>2019-07-31T10:31:04.138Z</time>
      </trkpt>
      <trkpt lat="43.00713667" lon="-1.225375">
        <ele>841.0</ele>
        <time>2019-07-31T10:31:05.144Z</time>
      </trkpt>
      <trkpt lat="43.00712333" lon="-1.22536667">
        <ele>841.0</ele>
        <time>2019-07-31T10:31:06.150Z</time>
      </trkpt>
      <trkpt lat="43.00711167" lon="-1.22536">
        <ele>840.0</ele>
        <time>2019-07-31T10:31:07.155Z</time>
      </trkpt>
      <trkpt lat="43.00709833" lon="-1.225355">
        <ele>840.0</ele>
        <time>2019-07-31T10:31:08.161Z</time>
      </trkpt>
      <trkpt lat="43.007085" lon="-1.22535167">
        <ele>840.0</ele>
        <time>2019-07-31T10:31:09.165Z</time>
      </trkpt>
      <trkpt lat="43.007075" lon="-1.22534667">
        <ele>840.0</ele>
        <time>2019-07-31T10:31:10.171Z</time>
      </trkpt>
      <trkpt lat="43.00706333" lon="-1.22534167">
        <ele>840.0</ele>
        <time>2019-07-31T10:31:11.177Z</time>
      </trkpt>
      <trkpt lat="43.00705" lon="-1.22533667">
        <ele>839.0</ele>
        <time>2019-07-31T10:31:12.183Z</time>
      </trkpt>
      <trkpt lat="43.00703667" lon="-1.22533">
        <ele>839.0</ele>
        <time>2019-07-31T10:31:13.062Z</time>
      </trkpt>
      <trkpt lat="43.00702167" lon="-1.22532667">
        <ele>838.0</ele>
        <time>2019-07-31T10:31:14.066Z</time>
      </trkpt>
      <trkpt lat="43.00700667" lon="-1.22532167">
        <ele>837.0</ele>
        <time>2019-07-31T10:31:15.073Z</time>
      </trkpt>
      <trkpt lat="43.00699167" lon="-1.22531833">
        <ele>837.0</ele>
        <time>2019-07-31T10:31:16.074Z</time>
      </trkpt>
      <trkpt lat="43.00697833" lon="-1.22531333">
        <ele>837.0</ele>
        <time>2019-07-31T10:31:17.076Z</time>
      </trkpt>
      <trkpt lat="43.00696333" lon="-1.22531">
        <ele>837.0</ele>
        <time>2019-07-31T10:31:18.081Z</time>
      </trkpt>
      <trkpt lat="43.00694833" lon="-1.22530667">
        <ele>837.0</ele>
        <time>2019-07-31T10:31:19.087Z</time>
      </trkpt>
      <trkpt lat="43.00693333" lon="-1.22530333">
        <ele>836.0</ele>
        <time>2019-07-31T10:31:20.093Z</time>
      </trkpt>
      <trkpt lat="43.00692" lon="-1.22529833">
        <ele>836.0</ele>
        <time>2019-07-31T10:31:21.097Z</time>
      </trkpt>
      <trkpt lat="43.00690667" lon="-1.225295">
        <ele>835.0</ele>
        <time>2019-07-31T10:31:22.100Z</time>
      </trkpt>
      <trkpt lat="43.00689333" lon="-1.22529167">
        <ele>835.0</ele>
        <time>2019-07-31T10:31:23.104Z</time>
      </trkpt>
      <trkpt lat="43.00687833" lon="-1.22528667">
        <ele>835.0</ele>
        <time>2019-07-31T10:31:24.109Z</time>
      </trkpt>
      <trkpt lat="43.00686333" lon="-1.22527667">
        <ele>835.0</ele>
        <time>2019-07-31T10:31:25.114Z</time>
      </trkpt>
      <trkpt lat="43.00684833" lon="-1.22526833">
        <ele>835.0</ele>
        <time>2019-07-31T10:31:26.119Z</time>
      </trkpt>
      <trkpt lat="43.00683333" lon="-1.22526333">
        <ele>836.0</ele>
        <time>2019-07-31T10:31:27.123Z</time>
      </trkpt>
      <trkpt lat="43.00682" lon="-1.22525833">
        <ele>836.0</ele>
        <time>2019-07-31T10:31:28.129Z</time>
      </trkpt>
      <trkpt lat="43.006805" lon="-1.225255">
        <ele>836.0</ele>
        <time>2019-07-31T10:31:29.134Z</time>
      </trkpt>
      <trkpt lat="43.00678833" lon="-1.22525">
        <ele>836.0</ele>
        <time>2019-07-31T10:31:30.139Z</time>
      </trkpt>
      <trkpt lat="43.00677333" lon="-1.225245">
        <ele>837.0</ele>
        <time>2019-07-31T10:31:31.144Z</time>
      </trkpt>
      <trkpt lat="43.00675667" lon="-1.22524">
        <ele>837.0</ele>
        <time>2019-07-31T10:31:32.151Z</time>
      </trkpt>
      <trkpt lat="43.00674167" lon="-1.22523833">
        <ele>838.0</ele>
        <time>2019-07-31T10:31:33.157Z</time>
      </trkpt>
      <trkpt lat="43.006725" lon="-1.22523167">
        <ele>838.0</ele>
        <time>2019-07-31T10:31:34.162Z</time>
      </trkpt>
      <trkpt lat="43.00671" lon="-1.22522667">
        <ele>838.0</ele>
        <time>2019-07-31T10:31:35.166Z</time>
      </trkpt>
      <trkpt lat="43.006695" lon="-1.22522167">
        <ele>839.0</ele>
        <time>2019-07-31T10:31:36.173Z</time>
      </trkpt>
      <trkpt lat="43.00668" lon="-1.22521833">
        <ele>839.0</ele>
        <time>2019-07-31T10:31:37.180Z</time>
      </trkpt>
      <trkpt lat="43.00666667" lon="-1.225215">
        <ele>840.0</ele>
        <time>2019-07-31T10:31:38.185Z</time>
      </trkpt>
      <trkpt lat="43.00665" lon="-1.22521">
        <ele>840.0</ele>
        <time>2019-07-31T10:31:39.065Z</time>
      </trkpt>
      <trkpt lat="43.006635" lon="-1.225205">
        <ele>841.0</ele>
        <time>2019-07-31T10:31:40.070Z</time>
      </trkpt>
      <trkpt lat="43.00662" lon="-1.2252">
        <ele>841.0</ele>
        <time>2019-07-31T10:31:41.073Z</time>
      </trkpt>
      <trkpt lat="43.006605" lon="-1.22519333">
        <ele>841.0</ele>
        <time>2019-07-31T10:31:42.078Z</time>
      </trkpt>
      <trkpt lat="43.00659" lon="-1.22518667">
        <ele>841.0</ele>
        <time>2019-07-31T10:31:43.083Z</time>
      </trkpt>
      <trkpt lat="43.00657333" lon="-1.22518167">
        <ele>842.0</ele>
        <time>2019-07-31T10:31:44.089Z</time>
      </trkpt>
      <trkpt lat="43.00656" lon="-1.22518">
        <ele>842.0</ele>
        <time>2019-07-31T10:31:45.093Z</time>
      </trkpt>
      <trkpt lat="43.006545" lon="-1.22517667">
        <ele>843.0</ele>
        <time>2019-07-31T10:31:46.097Z</time>
      </trkpt>
      <trkpt lat="43.00652833" lon="-1.22517">
        <ele>843.0</ele>
        <time>2019-07-31T10:31:47.100Z</time>
      </trkpt>
      <trkpt lat="43.00651333" lon="-1.225165">
        <ele>843.0</ele>
        <time>2019-07-31T10:31:48.105Z</time>
      </trkpt>
      <trkpt lat="43.00649833" lon="-1.22515833">
        <ele>843.0</ele>
        <time>2019-07-31T10:31:49.112Z</time>
      </trkpt>
      <trkpt lat="43.00648167" lon="-1.22515167">
        <ele>843.0</ele>
        <time>2019-07-31T10:31:50.119Z</time>
      </trkpt>
      <trkpt lat="43.00646667" lon="-1.22514833">
        <ele>843.0</ele>
        <time>2019-07-31T10:31:51.124Z</time>
      </trkpt>
      <trkpt lat="43.00645167" lon="-1.225145">
        <ele>843.0</ele>
        <time>2019-07-31T10:31:52.132Z</time>
      </trkpt>
      <trkpt lat="43.00643667" lon="-1.22513833">
        <ele>843.0</ele>
        <time>2019-07-31T10:31:53.139Z</time>
      </trkpt>
      <trkpt lat="43.00642333" lon="-1.22513333">
        <ele>843.0</ele>
        <time>2019-07-31T10:31:54.143Z</time>
      </trkpt>
      <trkpt lat="43.00640833" lon="-1.22513">
        <ele>843.0</ele>
        <time>2019-07-31T10:31:55.147Z</time>
      </trkpt>
      <trkpt lat="43.006395" lon="-1.225125">
        <ele>843.0</ele>
        <time>2019-07-31T10:31:56.153Z</time>
      </trkpt>
      <trkpt lat="43.00638" lon="-1.22512167">
        <ele>844.0</ele>
        <time>2019-07-31T10:31:57.162Z</time>
      </trkpt>
      <trkpt lat="43.00636667" lon="-1.22511667">
        <ele>844.0</ele>
        <time>2019-07-31T10:31:58.166Z</time>
      </trkpt>
      <trkpt lat="43.00635333" lon="-1.22510833">
        <ele>844.0</ele>
        <time>2019-07-31T10:31:59.172Z</time>
      </trkpt>
      <trkpt lat="43.00633833" lon="-1.22510333">
        <ele>843.0</ele>
        <time>2019-07-31T10:32:00.178Z</time>
      </trkpt>
      <trkpt lat="43.00632333" lon="-1.22509833">
        <ele>843.0</ele>
        <time>2019-07-31T10:32:01.183Z</time>
      </trkpt>
      <trkpt lat="43.00630833" lon="-1.225095">
        <ele>843.0</ele>
        <time>2019-07-31T10:32:02.061Z</time>
      </trkpt>
      <trkpt lat="43.006295" lon="-1.22509333">
        <ele>843.0</ele>
        <time>2019-07-31T10:32:03.067Z</time>
      </trkpt>
      <trkpt lat="43.00628" lon="-1.22509">
        <ele>843.0</ele>
        <time>2019-07-31T10:32:04.072Z</time>
      </trkpt>
      <trkpt lat="43.00626833" lon="-1.22508667">
        <ele>843.0</ele>
        <time>2019-07-31T10:32:05.078Z</time>
      </trkpt>
      <trkpt lat="43.00625833" lon="-1.22508">
        <ele>843.0</ele>
        <time>2019-07-31T10:32:06.083Z</time>
      </trkpt>
      <trkpt lat="43.00624667" lon="-1.22507667">
        <ele>843.0</ele>
        <time>2019-07-31T10:32:07.089Z</time>
      </trkpt>
      <trkpt lat="43.006235" lon="-1.22507333">
        <ele>843.0</ele>
        <time>2019-07-31T10:32:08.094Z</time>
      </trkpt>
      <trkpt lat="43.00622167" lon="-1.22506833">
        <ele>843.0</ele>
        <time>2019-07-31T10:32:09.099Z</time>
      </trkpt>
      <trkpt lat="43.00620833" lon="-1.22506833">
        <ele>843.0</ele>
        <time>2019-07-31T10:32:10.104Z</time>
      </trkpt>
      <trkpt lat="43.00619333" lon="-1.22506667">
        <ele>843.0</ele>
        <time>2019-07-31T10:32:11.108Z</time>
      </trkpt>
      <trkpt lat="43.00618167" lon="-1.225065">
        <ele>844.0</ele>
        <time>2019-07-31T10:32:12.112Z</time>
      </trkpt>
      <trkpt lat="43.00616667" lon="-1.22506333">
        <ele>844.0</ele>
        <time>2019-07-31T10:32:13.119Z</time>
      </trkpt>
      <trkpt lat="43.00615167" lon="-1.22506">
        <ele>843.0</ele>
        <time>2019-07-31T10:32:14.125Z</time>
      </trkpt>
      <trkpt lat="43.00613833" lon="-1.225055">
        <ele>843.0</ele>
        <time>2019-07-31T10:32:15.130Z</time>
      </trkpt>
      <trkpt lat="43.006125" lon="-1.22505167">
        <ele>843.0</ele>
        <time>2019-07-31T10:32:16.137Z</time>
      </trkpt>
      <trkpt lat="43.00611" lon="-1.22505167">
        <ele>842.0</ele>
        <time>2019-07-31T10:32:17.143Z</time>
      </trkpt>
      <trkpt lat="43.00609667" lon="-1.22504667">
        <ele>842.0</ele>
        <time>2019-07-31T10:32:18.149Z</time>
      </trkpt>
      <trkpt lat="43.00608167" lon="-1.22504333">
        <ele>842.0</ele>
        <time>2019-07-31T10:32:19.154Z</time>
      </trkpt>
      <trkpt lat="43.00607" lon="-1.22503833">
        <ele>841.0</ele>
        <time>2019-07-31T10:32:20.161Z</time>
      </trkpt>
      <trkpt lat="43.00605833" lon="-1.22503">
        <ele>841.0</ele>
        <time>2019-07-31T10:32:21.167Z</time>
      </trkpt>
      <trkpt lat="43.00604833" lon="-1.22502">
        <ele>840.0</ele>
        <time>2019-07-31T10:32:22.174Z</time>
      </trkpt>
      <trkpt lat="43.006035" lon="-1.22501">
        <ele>840.0</ele>
        <time>2019-07-31T10:32:23.180Z</time>
      </trkpt>
      <trkpt lat="43.00602667" lon="-1.22500333">
        <ele>839.0</ele>
        <time>2019-07-31T10:32:24.061Z</time>
      </trkpt>
      <trkpt lat="43.00602667" lon="-1.22499667">
        <ele>840.0</ele>
        <time>2019-07-31T10:32:25.067Z</time>
      </trkpt>
      <trkpt lat="43.00602833" lon="-1.22499333">
        <ele>839.0</ele>
        <time>2019-07-31T10:32:26.073Z</time>
      </trkpt>
      <trkpt lat="43.00602333" lon="-1.22498833">
        <ele>840.0</ele>
        <time>2019-07-31T10:32:27.079Z</time>
      </trkpt>
      <trkpt lat="43.00601167" lon="-1.22498667">
        <ele>840.0</ele>
        <time>2019-07-31T10:32:28.083Z</time>
      </trkpt>
      <trkpt lat="43.006" lon="-1.22498333">
        <ele>840.0</ele>
        <time>2019-07-31T10:32:29.088Z</time>
      </trkpt>
      <trkpt lat="43.00598667" lon="-1.22497667">
        <ele>840.0</ele>
        <time>2019-07-31T10:32:30.093Z</time>
      </trkpt>
      <trkpt lat="43.00597167" lon="-1.22496833">
        <ele>840.0</ele>
        <time>2019-07-31T10:32:31.100Z</time>
      </trkpt>
      <trkpt lat="43.005955" lon="-1.224965">
        <ele>840.0</ele>
        <time>2019-07-31T10:32:32.106Z</time>
      </trkpt>
      <trkpt lat="43.00593667" lon="-1.22496333">
        <ele>840.0</ele>
        <time>2019-07-31T10:32:33.112Z</time>
      </trkpt>
      <trkpt lat="43.00591833" lon="-1.22495667">
        <ele>839.0</ele>
        <time>2019-07-31T10:32:34.117Z</time>
      </trkpt>
      <trkpt lat="43.00590167" lon="-1.22495">
        <ele>840.0</ele>
        <time>2019-07-31T10:32:35.122Z</time>
      </trkpt>
      <trkpt lat="43.005885" lon="-1.22494667">
        <ele>840.0</ele>
        <time>2019-07-31T10:32:36.128Z</time>
      </trkpt>
      <trkpt lat="43.005865" lon="-1.22494">
        <ele>840.0</ele>
        <time>2019-07-31T10:32:37.132Z</time>
      </trkpt>
      <trkpt lat="43.00584667" lon="-1.22493">
        <ele>842.0</ele>
        <time>2019-07-31T10:32:38.137Z</time>
      </trkpt>
      <trkpt lat="43.00582833" lon="-1.22492667">
        <ele>844.0</ele>
        <time>2019-07-31T10:32:39.141Z</time>
      </trkpt>
      <trkpt lat="43.005805" lon="-1.22492667">
        <ele>845.0</ele>
        <time>2019-07-31T10:32:40.146Z</time>
      </trkpt>
      <trkpt lat="43.00578333" lon="-1.22491833">
        <ele>845.0</ele>
        <time>2019-07-31T10:32:41.149Z</time>
      </trkpt>
      <trkpt lat="43.00576333" lon="-1.224915">
        <ele>845.0</ele>
        <time>2019-07-31T10:32:42.153Z</time>
      </trkpt>
      <trkpt lat="43.005745" lon="-1.22491167">
        <ele>845.0</ele>
        <time>2019-07-31T10:32:43.158Z</time>
      </trkpt>
      <trkpt lat="43.00572333" lon="-1.22490167">
        <ele>844.0</ele>
        <time>2019-07-31T10:32:44.164Z</time>
      </trkpt>
      <trkpt lat="43.00570667" lon="-1.22489167">
        <ele>843.0</ele>
        <time>2019-07-31T10:32:45.170Z</time>
      </trkpt>
      <trkpt lat="43.005695" lon="-1.22488333">
        <ele>844.0</ele>
        <time>2019-07-31T10:32:46.174Z</time>
      </trkpt>
      <trkpt lat="43.00567833" lon="-1.22487667">
        <ele>845.0</ele>
        <time>2019-07-31T10:32:47.178Z</time>
      </trkpt>
      <trkpt lat="43.00566" lon="-1.22486833">
        <ele>845.0</ele>
        <time>2019-07-31T10:32:48.186Z</time>
      </trkpt>
      <trkpt lat="43.005645" lon="-1.22486167">
        <ele>844.0</ele>
        <time>2019-07-31T10:32:49.065Z</time>
      </trkpt>
      <trkpt lat="43.00563" lon="-1.22484667">
        <ele>844.0</ele>
        <time>2019-07-31T10:32:50.069Z</time>
      </trkpt>
      <trkpt lat="43.005615" lon="-1.22484">
        <ele>844.0</ele>
        <time>2019-07-31T10:32:51.076Z</time>
      </trkpt>
      <trkpt lat="43.0056" lon="-1.22483333">
        <ele>844.0</ele>
        <time>2019-07-31T10:32:52.083Z</time>
      </trkpt>
      <trkpt lat="43.00558667" lon="-1.22482667">
        <ele>843.0</ele>
        <time>2019-07-31T10:32:53.090Z</time>
      </trkpt>
      <trkpt lat="43.00557" lon="-1.22482">
        <ele>843.0</ele>
        <time>2019-07-31T10:32:54.096Z</time>
      </trkpt>
      <trkpt lat="43.005555" lon="-1.22481167">
        <ele>843.0</ele>
        <time>2019-07-31T10:32:55.102Z</time>
      </trkpt>
      <trkpt lat="43.00553833" lon="-1.224805">
        <ele>842.0</ele>
        <time>2019-07-31T10:32:56.108Z</time>
      </trkpt>
      <trkpt lat="43.00552167" lon="-1.22479833">
        <ele>842.0</ele>
        <time>2019-07-31T10:32:57.113Z</time>
      </trkpt>
      <trkpt lat="43.005505" lon="-1.22479">
        <ele>842.0</ele>
        <time>2019-07-31T10:32:58.118Z</time>
      </trkpt>
      <trkpt lat="43.00549" lon="-1.22478">
        <ele>842.0</ele>
        <time>2019-07-31T10:32:59.123Z</time>
      </trkpt>
      <trkpt lat="43.00547667" lon="-1.22477333">
        <ele>841.0</ele>
        <time>2019-07-31T10:33:00.128Z</time>
      </trkpt>
      <trkpt lat="43.005465" lon="-1.22476667">
        <ele>842.0</ele>
        <time>2019-07-31T10:33:01.133Z</time>
      </trkpt>
      <trkpt lat="43.00545333" lon="-1.22476">
        <ele>842.0</ele>
        <time>2019-07-31T10:33:02.138Z</time>
      </trkpt>
      <trkpt lat="43.00544" lon="-1.22475333">
        <ele>841.0</ele>
        <time>2019-07-31T10:33:03.144Z</time>
      </trkpt>
      <trkpt lat="43.00542667" lon="-1.22474667">
        <ele>841.0</ele>
        <time>2019-07-31T10:33:04.151Z</time>
      </trkpt>
      <trkpt lat="43.005415" lon="-1.22473833">
        <ele>841.0</ele>
        <time>2019-07-31T10:33:05.157Z</time>
      </trkpt>
      <trkpt lat="43.00540333" lon="-1.22472833">
        <ele>840.0</ele>
        <time>2019-07-31T10:33:06.164Z</time>
      </trkpt>
      <trkpt lat="43.00539333" lon="-1.22471833">
        <ele>839.0</ele>
        <time>2019-07-31T10:33:07.170Z</time>
      </trkpt>
      <trkpt lat="43.005385" lon="-1.22470833">
        <ele>838.0</ele>
        <time>2019-07-31T10:33:08.176Z</time>
      </trkpt>
      <trkpt lat="43.00537833" lon="-1.22470167">
        <ele>838.0</ele>
        <time>2019-07-31T10:33:09.183Z</time>
      </trkpt>
      <trkpt lat="43.005375" lon="-1.22469667">
        <ele>838.0</ele>
        <time>2019-07-31T10:33:10.061Z</time>
      </trkpt>
      <trkpt lat="43.005375" lon="-1.22469833">
        <ele>838.0</ele>
        <time>2019-07-31T10:33:11.068Z</time>
      </trkpt>
      <trkpt lat="43.00537667" lon="-1.22470167">
        <ele>838.0</ele>
        <time>2019-07-31T10:33:12.075Z</time>
      </trkpt>
      <trkpt lat="43.00537667" lon="-1.22470333">
        <ele>838.0</ele>
        <time>2019-07-31T10:33:13.080Z</time>
      </trkpt>
      <trkpt lat="43.00538" lon="-1.22470667">
        <ele>838.0</ele>
        <time>2019-07-31T10:33:14.084Z</time>
      </trkpt>
      <trkpt lat="43.00538333" lon="-1.22470833">
        <ele>839.0</ele>
        <time>2019-07-31T10:33:15.089Z</time>
      </trkpt>
      <trkpt lat="43.00538667" lon="-1.22470333">
        <ele>839.0</ele>
        <time>2019-07-31T10:33:16.096Z</time>
      </trkpt>
      <trkpt lat="43.00538667" lon="-1.22469333">
        <ele>839.0</ele>
        <time>2019-07-31T10:33:17.100Z</time>
      </trkpt>
      <trkpt lat="43.00538667" lon="-1.22469">
        <ele>839.0</ele>
        <time>2019-07-31T10:33:18.105Z</time>
      </trkpt>
      <trkpt lat="43.00538667" lon="-1.224685">
        <ele>840.0</ele>
        <time>2019-07-31T10:33:19.110Z</time>
      </trkpt>
      <trkpt lat="43.00538667" lon="-1.22468">
        <ele>841.0</ele>
        <time>2019-07-31T10:33:20.115Z</time>
      </trkpt>
      <trkpt lat="43.00538333" lon="-1.22467167">
        <ele>842.0</ele>
        <time>2019-07-31T10:33:21.121Z</time>
      </trkpt>
      <trkpt lat="43.00538" lon="-1.22466667">
        <ele>842.0</ele>
        <time>2019-07-31T10:33:22.125Z</time>
      </trkpt>
      <trkpt lat="43.00537833" lon="-1.22466167">
        <ele>843.0</ele>
        <time>2019-07-31T10:33:23.129Z</time>
      </trkpt>
      <trkpt lat="43.00538" lon="-1.22466167">
        <ele>844.0</ele>
        <time>2019-07-31T10:33:24.135Z</time>
      </trkpt>
      <trkpt lat="43.005385" lon="-1.22465833">
        <ele>844.0</ele>
        <time>2019-07-31T10:33:25.140Z</time>
      </trkpt>
      <trkpt lat="43.00538833" lon="-1.22466">
        <ele>844.0</ele>
        <time>2019-07-31T10:33:26.147Z</time>
      </trkpt>
      <trkpt lat="43.00539333" lon="-1.224665">
        <ele>844.0</ele>
        <time>2019-07-31T10:33:27.153Z</time>
      </trkpt>
      <trkpt lat="43.00539667" lon="-1.224665">
        <ele>844.0</ele>
        <time>2019-07-31T10:33:28.158Z</time>
      </trkpt>
      <trkpt lat="43.005395" lon="-1.22466667">
        <ele>844.0</ele>
        <time>2019-07-31T10:33:29.164Z</time>
      </trkpt>
      <trkpt lat="43.00539333" lon="-1.224665">
        <ele>845.0</ele>
        <time>2019-07-31T10:33:30.167Z</time>
      </trkpt>
      <trkpt lat="43.0054" lon="-1.22465167">
        <ele>847.0</ele>
        <time>2019-07-31T10:33:31.174Z</time>
      </trkpt>
      <trkpt lat="43.00540333" lon="-1.22464833">
        <ele>849.0</ele>
        <time>2019-07-31T10:33:32.180Z</time>
      </trkpt>
      <trkpt lat="43.00541" lon="-1.224645">
        <ele>849.0</ele>
        <time>2019-07-31T10:33:33.186Z</time>
      </trkpt>
      <trkpt lat="43.005415" lon="-1.22464667">
        <ele>850.0</ele>
        <time>2019-07-31T10:33:34.066Z</time>
      </trkpt>
      <trkpt lat="43.00541333" lon="-1.22464833">
        <ele>850.0</ele>
        <time>2019-07-31T10:33:35.072Z</time>
      </trkpt>
      <trkpt lat="43.005405" lon="-1.224645">
        <ele>849.0</ele>
        <time>2019-07-31T10:33:36.075Z</time>
      </trkpt>
      <trkpt lat="43.00540167" lon="-1.22464833">
        <ele>849.0</ele>
        <time>2019-07-31T10:33:37.081Z</time>
      </trkpt>
      <trkpt lat="43.00539833" lon="-1.224645">
        <ele>849.0</ele>
        <time>2019-07-31T10:33:38.088Z</time>
      </trkpt>
      <trkpt lat="43.00539667" lon="-1.22463833">
        <ele>849.0</ele>
        <time>2019-07-31T10:33:39.091Z</time>
      </trkpt>
      <trkpt lat="43.00539667" lon="-1.22464">
        <ele>849.0</ele>
        <time>2019-07-31T10:33:40.095Z</time>
      </trkpt>
      <trkpt lat="43.00539667" lon="-1.22463833">
        <ele>849.0</ele>
        <time>2019-07-31T10:33:41.100Z</time>
      </trkpt>
      <trkpt lat="43.00539667" lon="-1.22463833">
        <ele>849.0</ele>
        <time>2019-07-31T10:33:42.107Z</time>
      </trkpt>
      <trkpt lat="43.00539667" lon="-1.22463667">
        <ele>850.0</ele>
        <time>2019-07-31T10:33:43.113Z</time>
      </trkpt>
      <trkpt lat="43.00539667" lon="-1.224635">
        <ele>850.0</ele>
        <time>2019-07-31T10:33:44.118Z</time>
      </trkpt>
      <trkpt lat="43.00539667" lon="-1.22463333">
        <ele>849.0</ele>
        <time>2019-07-31T10:33:45.124Z</time>
      </trkpt>
      <trkpt lat="43.00539667" lon="-1.224635">
        <ele>850.0</ele>
        <time>2019-07-31T10:33:46.130Z</time>
      </trkpt>
      <trkpt lat="43.005395" lon="-1.22463667">
        <ele>850.0</ele>
        <time>2019-07-31T10:33:47.137Z</time>
      </trkpt>
      <trkpt lat="43.00539333" lon="-1.224635">
        <ele>850.0</ele>
        <time>2019-07-31T10:33:48.142Z</time>
      </trkpt>
      <trkpt lat="43.00539333" lon="-1.224635">
        <ele>850.0</ele>
        <time>2019-07-31T10:33:49.149Z</time>
      </trkpt>
      <trkpt lat="43.005395" lon="-1.224635">
        <ele>849.0</ele>
        <time>2019-07-31T10:33:50.155Z</time>
      </trkpt>
      <trkpt lat="43.005395" lon="-1.22463333">
        <ele>849.0</ele>
        <time>2019-07-31T10:33:51.160Z</time>
      </trkpt>
      <trkpt lat="43.00539667" lon="-1.22463333">
        <ele>849.0</ele>
        <time>2019-07-31T10:33:52.164Z</time>
      </trkpt>
      <trkpt lat="43.005395" lon="-1.22463667">
        <ele>849.0</ele>
        <time>2019-07-31T10:33:53.168Z</time>
      </trkpt>
      <trkpt lat="43.005395" lon="-1.22464">
        <ele>850.0</ele>
        <time>2019-07-31T10:33:54.171Z</time>
      </trkpt>
      <trkpt lat="43.00539667" lon="-1.22464333">
        <ele>850.0</ele>
        <time>2019-07-31T10:33:55.176Z</time>
      </trkpt>
      <trkpt lat="43.00539667" lon="-1.22464333">
        <ele>851.0</ele>
        <time>2019-07-31T10:33:56.180Z</time>
      </trkpt>
      <trkpt lat="43.00539667" lon="-1.224645">
        <ele>851.0</ele>
        <time>2019-07-31T10:33:57.061Z</time>
      </trkpt>
      <trkpt lat="43.00539833" lon="-1.22464667">
        <ele>851.0</ele>
        <time>2019-07-31T10:33:58.066Z</time>
      </trkpt>
      <trkpt lat="43.0054" lon="-1.22465">
        <ele>851.0</ele>
        <time>2019-07-31T10:33:59.072Z</time>
      </trkpt>
      <trkpt lat="43.0054" lon="-1.22464833">
        <ele>851.0</ele>
        <time>2019-07-31T10:34:00.078Z</time>
      </trkpt>
      <trkpt lat="43.0054" lon="-1.224645">
        <ele>850.0</ele>
        <time>2019-07-31T10:34:01.083Z</time>
      </trkpt>
      <trkpt lat="43.00540333" lon="-1.224645">
        <ele>850.0</ele>
        <time>2019-07-31T10:34:02.090Z</time>
      </trkpt>
      <trkpt lat="43.00540667" lon="-1.22465">
        <ele>851.0</ele>
        <time>2019-07-31T10:34:03.096Z</time>
      </trkpt>
      <trkpt lat="43.00541" lon="-1.22465333">
        <ele>851.0</ele>
        <time>2019-07-31T10:34:04.102Z</time>
      </trkpt>
      <trkpt lat="43.00541" lon="-1.22465333">
        <ele>851.0</ele>
        <time>2019-07-31T10:34:05.107Z</time>
      </trkpt>
      <trkpt lat="43.00541167" lon="-1.22465167">
        <ele>850.0</ele>
        <time>2019-07-31T10:34:06.114Z</time>
      </trkpt>
      <trkpt lat="43.00541167" lon="-1.22465167">
        <ele>851.0</ele>
        <time>2019-07-31T10:34:07.121Z</time>
      </trkpt>
      <trkpt lat="43.00541333" lon="-1.22465333">
        <ele>851.0</ele>
        <time>2019-07-31T10:34:08.126Z</time>
      </trkpt>
      <trkpt lat="43.00541167" lon="-1.22465333">
        <ele>851.0</ele>
        <time>2019-07-31T10:34:09.131Z</time>
      </trkpt>
      <trkpt lat="43.00541" lon="-1.224655">
        <ele>850.0</ele>
        <time>2019-07-31T10:34:10.136Z</time>
      </trkpt>
      <trkpt lat="43.00540833" lon="-1.22465667">
        <ele>850.0</ele>
        <time>2019-07-31T10:34:11.140Z</time>
      </trkpt>
      <trkpt lat="43.00540667" lon="-1.224655">
        <ele>850.0</ele>
        <time>2019-07-31T10:34:12.146Z</time>
      </trkpt>
      <trkpt lat="43.00540833" lon="-1.22465333">
        <ele>849.0</ele>
        <time>2019-07-31T10:34:13.150Z</time>
      </trkpt>
      <trkpt lat="43.00541" lon="-1.22465333">
        <ele>849.0</ele>
        <time>2019-07-31T10:34:14.157Z</time>
      </trkpt>
      <trkpt lat="43.00541167" lon="-1.224655">
        <ele>850.0</ele>
        <time>2019-07-31T10:34:15.163Z</time>
      </trkpt>
      <trkpt lat="43.00541167" lon="-1.22465833">
        <ele>850.0</ele>
        <time>2019-07-31T10:34:16.168Z</time>
      </trkpt>
      <trkpt lat="43.00541333" lon="-1.22466">
        <ele>851.0</ele>
        <time>2019-07-31T10:34:17.171Z</time>
      </trkpt>
      <trkpt lat="43.00541167" lon="-1.22466167">
        <ele>851.0</ele>
        <time>2019-07-31T10:34:18.177Z</time>
      </trkpt>
      <trkpt lat="43.00541167" lon="-1.22466167">
        <ele>851.0</ele>
        <time>2019-07-31T10:34:19.184Z</time>
      </trkpt>
      <trkpt lat="43.00541" lon="-1.22465833">
        <ele>851.0</ele>
        <time>2019-07-31T10:34:20.064Z</time>
      </trkpt>
      <trkpt lat="43.00541" lon="-1.224655">
        <ele>851.0</ele>
        <time>2019-07-31T10:34:21.068Z</time>
      </trkpt>
      <trkpt lat="43.00541" lon="-1.22465167">
        <ele>851.0</ele>
        <time>2019-07-31T10:34:22.071Z</time>
      </trkpt>
      <trkpt lat="43.00541" lon="-1.22465333">
        <ele>851.0</ele>
        <time>2019-07-31T10:34:23.076Z</time>
      </trkpt>
      <trkpt lat="43.00540833" lon="-1.22465167">
        <ele>850.0</ele>
        <time>2019-07-31T10:34:24.081Z</time>
      </trkpt>
      <trkpt lat="43.005405" lon="-1.22465167">
        <ele>850.0</ele>
        <time>2019-07-31T10:34:25.086Z</time>
      </trkpt>
      <trkpt lat="43.00540333" lon="-1.22465333">
        <ele>849.0</ele>
        <time>2019-07-31T10:34:26.092Z</time>
      </trkpt>
      <trkpt lat="43.00540167" lon="-1.22465333">
        <ele>849.0</ele>
        <time>2019-07-31T10:34:27.096Z</time>
      </trkpt>
      <trkpt lat="43.0054" lon="-1.224655">
        <ele>849.0</ele>
        <time>2019-07-31T10:34:28.101Z</time>
      </trkpt>
      <trkpt lat="43.00539667" lon="-1.22466">
        <ele>849.0</ele>
        <time>2019-07-31T10:34:29.108Z</time>
      </trkpt>
      <trkpt lat="43.00539667" lon="-1.22466167">
        <ele>849.0</ele>
        <time>2019-07-31T10:34:30.114Z</time>
      </trkpt>
      <trkpt lat="43.00539833" lon="-1.22466333">
        <ele>849.0</ele>
        <time>2019-07-31T10:34:31.120Z</time>
      </trkpt>
      <trkpt lat="43.0054" lon="-1.224665">
        <ele>849.0</ele>
        <time>2019-07-31T10:34:32.125Z</time>
      </trkpt>
      <trkpt lat="43.00539833" lon="-1.224665">
        <ele>848.0</ele>
        <time>2019-07-31T10:34:33.129Z</time>
      </trkpt>
      <trkpt lat="43.00539667" lon="-1.22466667">
        <ele>848.0</ele>
        <time>2019-07-31T10:34:34.134Z</time>
      </trkpt>
      <trkpt lat="43.00539667" lon="-1.22466833">
        <ele>848.0</ele>
        <time>2019-07-31T10:34:35.138Z</time>
      </trkpt>
      <trkpt lat="43.00539833" lon="-1.22466667">
        <ele>848.0</ele>
        <time>2019-07-31T10:34:36.144Z</time>
      </trkpt>
      <trkpt lat="43.00539833" lon="-1.22466833">
        <ele>848.0</ele>
        <time>2019-07-31T10:34:37.150Z</time>
      </trkpt>
      <trkpt lat="43.00539833" lon="-1.22467">
        <ele>848.0</ele>
        <time>2019-07-31T10:34:38.156Z</time>
      </trkpt>
      <trkpt lat="43.0054" lon="-1.22467">
        <ele>848.0</ele>
        <time>2019-07-31T10:34:39.162Z</time>
      </trkpt>
      <trkpt lat="43.0054" lon="-1.22467">
        <ele>848.0</ele>
        <time>2019-07-31T10:34:40.168Z</time>
      </trkpt>
      <trkpt lat="43.0054" lon="-1.22467">
        <ele>847.0</ele>
        <time>2019-07-31T10:34:41.175Z</time>
      </trkpt>
      <trkpt lat="43.00539667" lon="-1.22467167">
        <ele>847.0</ele>
        <time>2019-07-31T10:34:42.179Z</time>
      </trkpt>
      <trkpt lat="43.00539667" lon="-1.22467">
        <ele>846.0</ele>
        <time>2019-07-31T10:34:43.185Z</time>
      </trkpt>
      <trkpt lat="43.005395" lon="-1.22467333">
        <ele>847.0</ele>
        <time>2019-07-31T10:34:44.064Z</time>
      </trkpt>
      <trkpt lat="43.00539667" lon="-1.224675">
        <ele>847.0</ele>
        <time>2019-07-31T10:34:45.071Z</time>
      </trkpt>
      <trkpt lat="43.00539667" lon="-1.22467833">
        <ele>847.0</ele>
        <time>2019-07-31T10:34:46.076Z</time>
      </trkpt>
      <trkpt lat="43.005395" lon="-1.22468167">
        <ele>847.0</ele>
        <time>2019-07-31T10:34:47.081Z</time>
      </trkpt>
      <trkpt lat="43.005395" lon="-1.22468167">
        <ele>847.0</ele>
        <time>2019-07-31T10:34:48.086Z</time>
      </trkpt>
      <trkpt lat="43.005395" lon="-1.22468333">
        <ele>847.0</ele>
        <time>2019-07-31T10:34:49.092Z</time>
      </trkpt>
      <trkpt lat="43.00539333" lon="-1.224685">
        <ele>847.0</ele>
        <time>2019-07-31T10:34:50.099Z</time>
      </trkpt>
      <trkpt lat="43.00539167" lon="-1.224685">
        <ele>848.0</ele>
        <time>2019-07-31T10:34:51.105Z</time>
      </trkpt>
      <trkpt lat="43.00539167" lon="-1.22468167">
        <ele>848.0</ele>
        <time>2019-07-31T10:34:52.112Z</time>
      </trkpt>
      <trkpt lat="43.00539167" lon="-1.22467833">
        <ele>848.0</ele>
        <time>2019-07-31T10:34:53.118Z</time>
      </trkpt>
      <trkpt lat="43.00539333" lon="-1.22467833">
        <ele>848.0</ele>
        <time>2019-07-31T10:34:54.122Z</time>
      </trkpt>
      <trkpt lat="43.00539667" lon="-1.22467833">
        <ele>848.0</ele>
        <time>2019-07-31T10:34:55.127Z</time>
      </trkpt>
      <trkpt lat="43.00539833" lon="-1.22467667">
        <ele>848.0</ele>
        <time>2019-07-31T10:34:56.131Z</time>
      </trkpt>
      <trkpt lat="43.00539833" lon="-1.22467667">
        <ele>847.0</ele>
        <time>2019-07-31T10:34:57.136Z</time>
      </trkpt>
      <trkpt lat="43.00539833" lon="-1.22467667">
        <ele>847.0</ele>
        <time>2019-07-31T10:34:58.143Z</time>
      </trkpt>
      <trkpt lat="43.0054" lon="-1.224675">
        <ele>846.0</ele>
        <time>2019-07-31T10:34:59.149Z</time>
      </trkpt>
      <trkpt lat="43.00540167" lon="-1.22467333">
        <ele>846.0</ele>
        <time>2019-07-31T10:35:00.155Z</time>
      </trkpt>
      <trkpt lat="43.00540333" lon="-1.22467167">
        <ele>847.0</ele>
        <time>2019-07-31T10:35:01.160Z</time>
      </trkpt>
      <trkpt lat="43.005405" lon="-1.22467167">
        <ele>846.0</ele>
        <time>2019-07-31T10:35:02.166Z</time>
      </trkpt>
      <trkpt lat="43.005405" lon="-1.22467167">
        <ele>846.0</ele>
        <time>2019-07-31T10:35:03.172Z</time>
      </trkpt>
      <trkpt lat="43.00540333" lon="-1.22467167">
        <ele>846.0</ele>
        <time>2019-07-31T10:35:04.177Z</time>
      </trkpt>
      <trkpt lat="43.00540333" lon="-1.22467">
        <ele>846.0</ele>
        <time>2019-07-31T10:35:05.182Z</time>
      </trkpt>
      <trkpt lat="43.00540333" lon="-1.22466667">
        <ele>846.0</ele>
        <time>2019-07-31T10:35:06.061Z</time>
      </trkpt>
      <trkpt lat="43.00540333" lon="-1.224665">
        <ele>846.0</ele>
        <time>2019-07-31T10:35:07.066Z</time>
      </trkpt>
      <trkpt lat="43.00540333" lon="-1.22466667">
        <ele>846.0</ele>
        <time>2019-07-31T10:35:08.070Z</time>
      </trkpt>
      <trkpt lat="43.005405" lon="-1.22466667">
        <ele>846.0</ele>
        <time>2019-07-31T10:35:09.076Z</time>
      </trkpt>
      <trkpt lat="43.005405" lon="-1.22466667">
        <ele>847.0</ele>
        <time>2019-07-31T10:35:10.082Z</time>
      </trkpt>
      <trkpt lat="43.00540833" lon="-1.224665">
        <ele>847.0</ele>
        <time>2019-07-31T10:35:11.088Z</time>
      </trkpt>
      <trkpt lat="43.00540833" lon="-1.22466333">
        <ele>847.0</ele>
        <time>2019-07-31T10:35:12.096Z</time>
      </trkpt>
      <trkpt lat="43.00541167" lon="-1.22466333">
        <ele>847.0</ele>
        <time>2019-07-31T10:35:13.101Z</time>
      </trkpt>
      <trkpt lat="43.00541167" lon="-1.224665">
        <ele>847.0</ele>
        <time>2019-07-31T10:35:14.105Z</time>
      </trkpt>
      <trkpt lat="43.00540833" lon="-1.22467">
        <ele>847.0</ele>
        <time>2019-07-31T10:35:15.109Z</time>
      </trkpt>
      <trkpt lat="43.00540667" lon="-1.224675">
        <ele>848.0</ele>
        <time>2019-07-31T10:35:16.112Z</time>
      </trkpt>
      <trkpt lat="43.00540667" lon="-1.22467667">
        <ele>847.0</ele>
        <time>2019-07-31T10:35:17.117Z</time>
      </trkpt>
      <trkpt lat="43.00540667" lon="-1.22467667">
        <ele>847.0</ele>
        <time>2019-07-31T10:35:18.122Z</time>
      </trkpt>
      <trkpt lat="43.00540667" lon="-1.224675">
        <ele>847.0</ele>
        <time>2019-07-31T10:35:19.126Z</time>
      </trkpt>
      <trkpt lat="43.00540667" lon="-1.22467167">
        <ele>846.0</ele>
        <time>2019-07-31T10:35:20.133Z</time>
      </trkpt>
      <trkpt lat="43.00540667" lon="-1.22467167">
        <ele>846.0</ele>
        <time>2019-07-31T10:35:21.140Z</time>
      </trkpt>
      <trkpt lat="43.005405" lon="-1.22467">
        <ele>845.0</ele>
        <time>2019-07-31T10:35:22.145Z</time>
      </trkpt>
      <trkpt lat="43.005405" lon="-1.22467167">
        <ele>845.0</ele>
        <time>2019-07-31T10:35:23.153Z</time>
      </trkpt>
      <trkpt lat="43.005405" lon="-1.22467333">
        <ele>845.0</ele>
        <time>2019-07-31T10:35:24.157Z</time>
      </trkpt>
      <trkpt lat="43.00540667" lon="-1.224675">
        <ele>845.0</ele>
        <time>2019-07-31T10:35:25.162Z</time>
      </trkpt>
      <trkpt lat="43.005405" lon="-1.22467833">
        <ele>845.0</ele>
        <time>2019-07-31T10:35:26.167Z</time>
      </trkpt>
      <trkpt lat="43.005405" lon="-1.22467833">
        <ele>844.0</ele>
        <time>2019-07-31T10:35:27.172Z</time>
      </trkpt>
      <trkpt lat="43.00540333" lon="-1.22468">
        <ele>844.0</ele>
        <time>2019-07-31T10:35:28.176Z</time>
      </trkpt>
      <trkpt lat="43.00540333" lon="-1.22468167">
        <ele>844.0</ele>
        <time>2019-07-31T10:35:29.182Z</time>
      </trkpt>
      <trkpt lat="43.00540333" lon="-1.22468333">
        <ele>845.0</ele>
        <time>2019-07-31T10:35:30.062Z</time>
      </trkpt>
      <trkpt lat="43.00540333" lon="-1.22468167">
        <ele>845.0</ele>
        <time>2019-07-31T10:35:31.067Z</time>
      </trkpt>
      <trkpt lat="43.00540167" lon="-1.22468333">
        <ele>845.0</ele>
        <time>2019-07-31T10:35:32.071Z</time>
      </trkpt>
      <trkpt lat="43.0054" lon="-1.22468167">
        <ele>844.0</ele>
        <time>2019-07-31T10:35:33.077Z</time>
      </trkpt>
      <trkpt lat="43.00539833" lon="-1.22467833">
        <ele>844.0</ele>
        <time>2019-07-31T10:35:34.082Z</time>
      </trkpt>
      <trkpt lat="43.0054" lon="-1.22468167">
        <ele>844.0</ele>
        <time>2019-07-31T10:35:35.087Z</time>
      </trkpt>
      <trkpt lat="43.0054" lon="-1.22468167">
        <ele>844.0</ele>
        <time>2019-07-31T10:35:36.092Z</time>
      </trkpt>
      <trkpt lat="43.0054" lon="-1.22468333">
        <ele>844.0</ele>
        <time>2019-07-31T10:35:37.097Z</time>
      </trkpt>
      <trkpt lat="43.00539833" lon="-1.22468333">
        <ele>843.0</ele>
        <time>2019-07-31T10:35:38.102Z</time>
      </trkpt>
      <trkpt lat="43.00539667" lon="-1.22468333">
        <ele>843.0</ele>
        <time>2019-07-31T10:35:39.107Z</time>
      </trkpt>
      <trkpt lat="43.00539167" lon="-1.22468667">
        <ele>843.0</ele>
        <time>2019-07-31T10:35:40.112Z</time>
      </trkpt>
      <trkpt lat="43.00539" lon="-1.224685">
        <ele>844.0</ele>
        <time>2019-07-31T10:35:41.118Z</time>
      </trkpt>
      <trkpt lat="43.00539167" lon="-1.22468333">
        <ele>844.0</ele>
        <time>2019-07-31T10:35:42.124Z</time>
      </trkpt>
      <trkpt lat="43.00539167" lon="-1.22468333">
        <ele>844.0</ele>
        <time>2019-07-31T10:35:43.129Z</time>
      </trkpt>
      <trkpt lat="43.00539167" lon="-1.22468333">
        <ele>844.0</ele>
        <time>2019-07-31T10:35:44.135Z</time>
      </trkpt>
      <trkpt lat="43.00539167" lon="-1.22468167">
        <ele>844.0</ele>
        <time>2019-07-31T10:35:45.140Z</time>
      </trkpt>
      <trkpt lat="43.00539167" lon="-1.22468167">
        <ele>844.0</ele>
        <time>2019-07-31T10:35:46.145Z</time>
      </trkpt>
      <trkpt lat="43.00539" lon="-1.22468">
        <ele>844.0</ele>
        <time>2019-07-31T10:35:47.151Z</time>
      </trkpt>
      <trkpt lat="43.00539" lon="-1.22468">
        <ele>844.0</ele>
        <time>2019-07-31T10:35:48.158Z</time>
      </trkpt>
      <trkpt lat="43.00539167" lon="-1.22467833">
        <ele>844.0</ele>
        <time>2019-07-31T10:35:49.164Z</time>
      </trkpt>
      <trkpt lat="43.00539" lon="-1.22467667">
        <ele>844.0</ele>
        <time>2019-07-31T10:35:50.168Z</time>
      </trkpt>
      <trkpt lat="43.00539" lon="-1.22467833">
        <ele>844.0</ele>
        <time>2019-07-31T10:35:51.173Z</time>
      </trkpt>
      <trkpt lat="43.00539" lon="-1.22467833">
        <ele>844.0</ele>
        <time>2019-07-31T10:35:52.178Z</time>
      </trkpt>
      <trkpt lat="43.00538833" lon="-1.22467667">
        <ele>844.0</ele>
        <time>2019-07-31T10:35:53.183Z</time>
      </trkpt>
      <trkpt lat="43.00538833" lon="-1.22467667">
        <ele>844.0</ele>
        <time>2019-07-31T10:35:54.064Z</time>
      </trkpt>
      <trkpt lat="43.00538833" lon="-1.22468">
        <ele>844.0</ele>
        <time>2019-07-31T10:35:55.070Z</time>
      </trkpt>
      <trkpt lat="43.00539" lon="-1.22468">
        <ele>844.0</ele>
        <time>2019-07-31T10:35:56.075Z</time>
      </trkpt>
      <trkpt lat="43.00538833" lon="-1.22467833">
        <ele>844.0</ele>
        <time>2019-07-31T10:35:57.081Z</time>
      </trkpt>
      <trkpt lat="43.00538833" lon="-1.22467333">
        <ele>844.0</ele>
        <time>2019-07-31T10:35:58.085Z</time>
      </trkpt>
      <trkpt lat="43.00538833" lon="-1.22467">
        <ele>844.0</ele>
        <time>2019-07-31T10:35:59.091Z</time>
      </trkpt>
      <trkpt lat="43.00538833" lon="-1.22466667">
        <ele>844.0</ele>
        <time>2019-07-31T10:36:00.095Z</time>
      </trkpt>
      <trkpt lat="43.00539" lon="-1.22466167">
        <ele>843.0</ele>
        <time>2019-07-31T10:36:01.100Z</time>
      </trkpt>
      <trkpt lat="43.00539167" lon="-1.22466333">
        <ele>843.0</ele>
        <time>2019-07-31T10:36:02.104Z</time>
      </trkpt>
      <trkpt lat="43.00538833" lon="-1.22466667">
        <ele>843.0</ele>
        <time>2019-07-31T10:36:03.109Z</time>
      </trkpt>
      <trkpt lat="43.00538667" lon="-1.22467167">
        <ele>843.0</ele>
        <time>2019-07-31T10:36:04.115Z</time>
      </trkpt>
      <trkpt lat="43.00538667" lon="-1.22467333">
        <ele>844.0</ele>
        <time>2019-07-31T10:36:05.121Z</time>
      </trkpt>
      <trkpt lat="43.005385" lon="-1.224675">
        <ele>844.0</ele>
        <time>2019-07-31T10:36:06.126Z</time>
      </trkpt>
      <trkpt lat="43.00538333" lon="-1.22467667">
        <ele>844.0</ele>
        <time>2019-07-31T10:36:07.133Z</time>
      </trkpt>
      <trkpt lat="43.00538333" lon="-1.22468">
        <ele>844.0</ele>
        <time>2019-07-31T10:36:08.138Z</time>
      </trkpt>
      <trkpt lat="43.00538167" lon="-1.224685">
        <ele>844.0</ele>
        <time>2019-07-31T10:36:09.143Z</time>
      </trkpt>
      <trkpt lat="43.00538" lon="-1.22469">
        <ele>844.0</ele>
        <time>2019-07-31T10:36:10.148Z</time>
      </trkpt>
      <trkpt lat="43.00538167" lon="-1.22468833">
        <ele>845.0</ele>
        <time>2019-07-31T10:36:11.152Z</time>
      </trkpt>
      <trkpt lat="43.005385" lon="-1.224685">
        <ele>845.0</ele>
        <time>2019-07-31T10:36:12.155Z</time>
      </trkpt>
      <trkpt lat="43.005385" lon="-1.22468167">
        <ele>846.0</ele>
        <time>2019-07-31T10:36:13.161Z</time>
      </trkpt>
      <trkpt lat="43.00538333" lon="-1.22468167">
        <ele>846.0</ele>
        <time>2019-07-31T10:36:14.167Z</time>
      </trkpt>
      <trkpt lat="43.00537833" lon="-1.22468333">
        <ele>847.0</ele>
        <time>2019-07-31T10:36:15.173Z</time>
      </trkpt>
      <trkpt lat="43.00538" lon="-1.22468167">
        <ele>848.0</ele>
        <time>2019-07-31T10:36:16.178Z</time>
      </trkpt>
      <trkpt lat="43.00538" lon="-1.22468167">
        <ele>848.0</ele>
        <time>2019-07-31T10:36:17.185Z</time>
      </trkpt>
      <trkpt lat="43.00538167" lon="-1.22468333">
        <ele>849.0</ele>
        <time>2019-07-31T10:36:18.064Z</time>
      </trkpt>
      <trkpt lat="43.00538" lon="-1.22468167">
        <ele>849.0</ele>
        <time>2019-07-31T10:36:19.071Z</time>
      </trkpt>
      <trkpt lat="43.005385" lon="-1.22468">
        <ele>849.0</ele>
        <time>2019-07-31T10:36:20.077Z</time>
      </trkpt>
      <trkpt lat="43.00538833" lon="-1.22467833">
        <ele>848.0</ele>
        <time>2019-07-31T10:36:21.081Z</time>
      </trkpt>
      <trkpt lat="43.00538833" lon="-1.22467667">
        <ele>848.0</ele>
        <time>2019-07-31T10:36:22.087Z</time>
      </trkpt>
      <trkpt lat="43.00539167" lon="-1.22467667">
        <ele>848.0</ele>
        <time>2019-07-31T10:36:23.094Z</time>
      </trkpt>
      <trkpt lat="43.00539333" lon="-1.224675">
        <ele>848.0</ele>
        <time>2019-07-31T10:36:24.100Z</time>
      </trkpt>
      <trkpt lat="43.00539333" lon="-1.22467167">
        <ele>849.0</ele>
        <time>2019-07-31T10:36:25.108Z</time>
      </trkpt>
      <trkpt lat="43.00539667" lon="-1.22467167">
        <ele>849.0</ele>
        <time>2019-07-31T10:36:26.114Z</time>
      </trkpt>
      <trkpt lat="43.00539667" lon="-1.22467333">
        <ele>849.0</ele>
        <time>2019-07-31T10:36:27.119Z</time>
      </trkpt>
      <trkpt lat="43.005395" lon="-1.224675">
        <ele>849.0</ele>
        <time>2019-07-31T10:36:28.122Z</time>
      </trkpt>
      <trkpt lat="43.00539667" lon="-1.22467667">
        <ele>848.0</ele>
        <time>2019-07-31T10:36:29.127Z</time>
      </trkpt>
      <trkpt lat="43.0054" lon="-1.224675">
        <ele>848.0</ele>
        <time>2019-07-31T10:36:30.133Z</time>
      </trkpt>
      <trkpt lat="43.00540333" lon="-1.22467667">
        <ele>848.0</ele>
        <time>2019-07-31T10:36:31.137Z</time>
      </trkpt>
      <trkpt lat="43.00540333" lon="-1.22467833">
        <ele>848.0</ele>
        <time>2019-07-31T10:36:32.143Z</time>
      </trkpt>
      <trkpt lat="43.00540167" lon="-1.22468167">
        <ele>848.0</ele>
        <time>2019-07-31T10:36:33.149Z</time>
      </trkpt>
      <trkpt lat="43.00539833" lon="-1.22468667">
        <ele>849.0</ele>
        <time>2019-07-31T10:36:34.154Z</time>
      </trkpt>
      <trkpt lat="43.00539667" lon="-1.22469167">
        <ele>849.0</ele>
        <time>2019-07-31T10:36:35.162Z</time>
      </trkpt>
      <trkpt lat="43.00539667" lon="-1.22469667">
        <ele>849.0</ele>
        <time>2019-07-31T10:36:36.167Z</time>
      </trkpt>
      <trkpt lat="43.005395" lon="-1.2247">
        <ele>849.0</ele>
        <time>2019-07-31T10:36:37.174Z</time>
      </trkpt>
      <trkpt lat="43.00539333" lon="-1.224705">
        <ele>850.0</ele>
        <time>2019-07-31T10:36:38.178Z</time>
      </trkpt>
      <trkpt lat="43.00539" lon="-1.22471">
        <ele>851.0</ele>
        <time>2019-07-31T10:36:39.183Z</time>
      </trkpt>
      <trkpt lat="43.00539167" lon="-1.22471167">
        <ele>852.0</ele>
        <time>2019-07-31T10:36:40.063Z</time>
      </trkpt>
      <trkpt lat="43.005395" lon="-1.22471167">
        <ele>852.0</ele>
        <time>2019-07-31T10:36:41.067Z</time>
      </trkpt>
      <trkpt lat="43.00539333" lon="-1.22471333">
        <ele>852.0</ele>
        <time>2019-07-31T10:36:42.070Z</time>
      </trkpt>
      <trkpt lat="43.00539167" lon="-1.224715">
        <ele>852.0</ele>
        <time>2019-07-31T10:36:43.075Z</time>
      </trkpt>
      <trkpt lat="43.005395" lon="-1.22470833">
        <ele>851.0</ele>
        <time>2019-07-31T10:36:44.081Z</time>
      </trkpt>
      <trkpt lat="43.005395" lon="-1.22469667">
        <ele>850.0</ele>
        <time>2019-07-31T10:36:45.084Z</time>
      </trkpt>
      <trkpt lat="43.0054" lon="-1.22469167">
        <ele>849.0</ele>
        <time>2019-07-31T10:36:46.090Z</time>
      </trkpt>
      <trkpt lat="43.00540167" lon="-1.22468667">
        <ele>849.0</ele>
        <time>2019-07-31T10:36:47.096Z</time>
      </trkpt>
      <trkpt lat="43.00540333" lon="-1.22468167">
        <ele>849.0</ele>
        <time>2019-07-31T10:36:48.102Z</time>
      </trkpt>
      <trkpt lat="43.005405" lon="-1.22468">
        <ele>849.0</ele>
        <time>2019-07-31T10:36:49.108Z</time>
      </trkpt>
      <trkpt lat="43.005405" lon="-1.22468">
        <ele>849.0</ele>
        <time>2019-07-31T10:36:50.114Z</time>
      </trkpt>
      <trkpt lat="43.005405" lon="-1.22467833">
        <ele>848.0</ele>
        <time>2019-07-31T10:36:51.119Z</time>
      </trkpt>
      <trkpt lat="43.005405" lon="-1.22467667">
        <ele>847.0</ele>
        <time>2019-07-31T10:36:52.123Z</time>
      </trkpt>
      <trkpt lat="43.00540333" lon="-1.224675">
        <ele>847.0</ele>
        <time>2019-07-31T10:36:53.130Z</time>
      </trkpt>
      <trkpt lat="43.00540333" lon="-1.224675">
        <ele>847.0</ele>
        <time>2019-07-31T10:36:54.134Z</time>
      </trkpt>
      <trkpt lat="43.00540333" lon="-1.224675">
        <ele>848.0</ele>
        <time>2019-07-31T10:36:55.139Z</time>
      </trkpt>
      <trkpt lat="43.005405" lon="-1.224675">
        <ele>848.0</ele>
        <time>2019-07-31T10:36:56.142Z</time>
      </trkpt>
      <trkpt lat="43.005405" lon="-1.22467667">
        <ele>849.0</ele>
        <time>2019-07-31T10:36:57.148Z</time>
      </trkpt>
      <trkpt lat="43.005405" lon="-1.22467833">
        <ele>849.0</ele>
        <time>2019-07-31T10:36:58.155Z</time>
      </trkpt>
      <trkpt lat="43.005405" lon="-1.22468">
        <ele>849.0</ele>
        <time>2019-07-31T10:36:59.161Z</time>
      </trkpt>
      <trkpt lat="43.00540667" lon="-1.22468">
        <ele>849.0</ele>
        <time>2019-07-31T10:37:00.165Z</time>
      </trkpt>
      <trkpt lat="43.005405" lon="-1.22468167">
        <ele>850.0</ele>
        <time>2019-07-31T10:37:01.171Z</time>
      </trkpt>
      <trkpt lat="43.00540167" lon="-1.22468167">
        <ele>850.0</ele>
        <time>2019-07-31T10:37:02.177Z</time>
      </trkpt>
      <trkpt lat="43.00540167" lon="-1.22468">
        <ele>850.0</ele>
        <time>2019-07-31T10:37:03.181Z</time>
      </trkpt>
      <trkpt lat="43.0054" lon="-1.22468">
        <ele>850.0</ele>
        <time>2019-07-31T10:37:04.061Z</time>
      </trkpt>
      <trkpt lat="43.0054" lon="-1.22467833">
        <ele>850.0</ele>
        <time>2019-07-31T10:37:05.065Z</time>
      </trkpt>
      <trkpt lat="43.00540167" lon="-1.22467833">
        <ele>850.0</ele>
        <time>2019-07-31T10:37:06.071Z</time>
      </trkpt>
      <trkpt lat="43.00540167" lon="-1.22467667">
        <ele>850.0</ele>
        <time>2019-07-31T10:37:07.077Z</time>
      </trkpt>
      <trkpt lat="43.00540167" lon="-1.224675">
        <ele>850.0</ele>
        <time>2019-07-31T10:37:08.082Z</time>
      </trkpt>
      <trkpt lat="43.00540167" lon="-1.224675">
        <ele>850.0</ele>
        <time>2019-07-31T10:37:09.089Z</time>
      </trkpt>
      <trkpt lat="43.00540333" lon="-1.22467333">
        <ele>850.0</ele>
        <time>2019-07-31T10:37:10.093Z</time>
      </trkpt>
      <trkpt lat="43.0054" lon="-1.22467667">
        <ele>850.0</ele>
        <time>2019-07-31T10:37:11.097Z</time>
      </trkpt>
      <trkpt lat="43.00539833" lon="-1.22468167">
        <ele>850.0</ele>
        <time>2019-07-31T10:37:12.101Z</time>
      </trkpt>
      <trkpt lat="43.0054" lon="-1.22468333">
        <ele>850.0</ele>
        <time>2019-07-31T10:37:13.105Z</time>
      </trkpt>
      <trkpt lat="43.0054" lon="-1.22468333">
        <ele>850.0</ele>
        <time>2019-07-31T10:37:14.110Z</time>
      </trkpt>
      <trkpt lat="43.00540167" lon="-1.22468167">
        <ele>850.0</ele>
        <time>2019-07-31T10:37:15.115Z</time>
      </trkpt>
      <trkpt lat="43.00540333" lon="-1.22468167">
        <ele>850.0</ele>
        <time>2019-07-31T10:37:16.120Z</time>
      </trkpt>
      <trkpt lat="43.00540167" lon="-1.22468333">
        <ele>850.0</ele>
        <time>2019-07-31T10:37:17.126Z</time>
      </trkpt>
      <trkpt lat="43.0054" lon="-1.224685">
        <ele>850.0</ele>
        <time>2019-07-31T10:37:18.132Z</time>
      </trkpt>
      <trkpt lat="43.00539667" lon="-1.22468833">
        <ele>850.0</ele>
        <time>2019-07-31T10:37:19.139Z</time>
      </trkpt>
      <trkpt lat="43.005395" lon="-1.22468667">
        <ele>850.0</ele>
        <time>2019-07-31T10:37:20.143Z</time>
      </trkpt>
      <trkpt lat="43.00539333" lon="-1.22468833">
        <ele>850.0</ele>
        <time>2019-07-31T10:37:21.148Z</time>
      </trkpt>
      <trkpt lat="43.00539333" lon="-1.22468667">
        <ele>850.0</ele>
        <time>2019-07-31T10:37:22.153Z</time>
      </trkpt>
      <trkpt lat="43.005395" lon="-1.224685">
        <ele>850.0</ele>
        <time>2019-07-31T10:37:23.159Z</time>
      </trkpt>
      <trkpt lat="43.005395" lon="-1.22468667">
        <ele>850.0</ele>
        <time>2019-07-31T10:37:24.164Z</time>
      </trkpt>
      <trkpt lat="43.00539167" lon="-1.22469">
        <ele>850.0</ele>
        <time>2019-07-31T10:37:25.169Z</time>
      </trkpt>
      <trkpt lat="43.00539167" lon="-1.22469333">
        <ele>850.0</ele>
        <time>2019-07-31T10:37:26.174Z</time>
      </trkpt>
      <trkpt lat="43.00539667" lon="-1.22468833">
        <ele>850.0</ele>
        <time>2019-07-31T10:37:27.180Z</time>
      </trkpt>
      <trkpt lat="43.00539667" lon="-1.22468833">
        <ele>851.0</ele>
        <time>2019-07-31T10:37:28.183Z</time>
      </trkpt>
      <trkpt lat="43.00539833" lon="-1.22468833">
        <ele>850.0</ele>
        <time>2019-07-31T10:37:29.062Z</time>
      </trkpt>
      <trkpt lat="43.00539833" lon="-1.22469">
        <ele>850.0</ele>
        <time>2019-07-31T10:37:30.067Z</time>
      </trkpt>
      <trkpt lat="43.00539667" lon="-1.22469167">
        <ele>850.0</ele>
        <time>2019-07-31T10:37:31.071Z</time>
      </trkpt>
      <trkpt lat="43.005395" lon="-1.22469667">
        <ele>850.0</ele>
        <time>2019-07-31T10:37:32.074Z</time>
      </trkpt>
      <trkpt lat="43.00539333" lon="-1.22470167">
        <ele>850.0</ele>
        <time>2019-07-31T10:37:33.079Z</time>
      </trkpt>
      <trkpt lat="43.005395" lon="-1.2247">
        <ele>849.0</ele>
        <time>2019-07-31T10:37:34.082Z</time>
      </trkpt>
      <trkpt lat="43.00539333" lon="-1.2247">
        <ele>849.0</ele>
        <time>2019-07-31T10:37:35.088Z</time>
      </trkpt>
      <trkpt lat="43.005395" lon="-1.224695">
        <ele>849.0</ele>
        <time>2019-07-31T10:37:36.094Z</time>
      </trkpt>
      <trkpt lat="43.005395" lon="-1.224695">
        <ele>850.0</ele>
        <time>2019-07-31T10:37:37.099Z</time>
      </trkpt>
      <trkpt lat="43.00539167" lon="-1.224695">
        <ele>850.0</ele>
        <time>2019-07-31T10:37:38.104Z</time>
      </trkpt>
      <trkpt lat="43.00539333" lon="-1.22469333">
        <ele>850.0</ele>
        <time>2019-07-31T10:37:39.109Z</time>
      </trkpt>
      <trkpt lat="43.00539667" lon="-1.22469167">
        <ele>851.0</ele>
        <time>2019-07-31T10:37:40.116Z</time>
      </trkpt>
      <trkpt lat="43.00539667" lon="-1.22469333">
        <ele>850.0</ele>
        <time>2019-07-31T10:37:41.122Z</time>
      </trkpt>
      <trkpt lat="43.00539667" lon="-1.22469333">
        <ele>850.0</ele>
        <time>2019-07-31T10:37:42.125Z</time>
      </trkpt>
      <trkpt lat="43.00539667" lon="-1.22469333">
        <ele>850.0</ele>
        <time>2019-07-31T10:37:43.132Z</time>
      </trkpt>
      <trkpt lat="43.00539833" lon="-1.22469">
        <ele>850.0</ele>
        <time>2019-07-31T10:37:44.136Z</time>
      </trkpt>
      <trkpt lat="43.00539833" lon="-1.22468833">
        <ele>850.0</ele>
        <time>2019-07-31T10:37:45.141Z</time>
      </trkpt>
      <trkpt lat="43.00539833" lon="-1.22468667">
        <ele>849.0</ele>
        <time>2019-07-31T10:37:46.147Z</time>
      </trkpt>
      <trkpt lat="43.00539667" lon="-1.22468833">
        <ele>849.0</ele>
        <time>2019-07-31T10:37:47.153Z</time>
      </trkpt>
      <trkpt lat="43.00539333" lon="-1.22469">
        <ele>849.0</ele>
        <time>2019-07-31T10:37:48.158Z</time>
      </trkpt>
      <trkpt lat="43.00539167" lon="-1.22469">
        <ele>848.0</ele>
        <time>2019-07-31T10:37:49.164Z</time>
      </trkpt>
      <trkpt lat="43.00539167" lon="-1.22468833">
        <ele>847.0</ele>
        <time>2019-07-31T10:37:50.168Z</time>
      </trkpt>
      <trkpt lat="43.00539333" lon="-1.22468667">
        <ele>847.0</ele>
        <time>2019-07-31T10:37:51.174Z</time>
      </trkpt>
      <trkpt lat="43.00539333" lon="-1.224685">
        <ele>847.0</ele>
        <time>2019-07-31T10:37:52.180Z</time>
      </trkpt>
      <trkpt lat="43.00539333" lon="-1.22468667">
        <ele>847.0</ele>
        <time>2019-07-31T10:37:53.184Z</time>
      </trkpt>
      <trkpt lat="43.00539167" lon="-1.224685">
        <ele>847.0</ele>
        <time>2019-07-31T10:37:54.063Z</time>
      </trkpt>
      <trkpt lat="43.00538333" lon="-1.22467833">
        <ele>847.0</ele>
        <time>2019-07-31T10:37:55.068Z</time>
      </trkpt>
      <trkpt lat="43.00537333" lon="-1.22467167">
        <ele>847.0</ele>
        <time>2019-07-31T10:37:56.074Z</time>
      </trkpt>
      <trkpt lat="43.00536" lon="-1.224665">
        <ele>847.0</ele>
        <time>2019-07-31T10:37:57.079Z</time>
      </trkpt>
      <trkpt lat="43.00534667" lon="-1.224655">
        <ele>847.0</ele>
        <time>2019-07-31T10:37:58.084Z</time>
      </trkpt>
      <trkpt lat="43.00533167" lon="-1.224645">
        <ele>848.0</ele>
        <time>2019-07-31T10:37:59.087Z</time>
      </trkpt>
      <trkpt lat="43.00531667" lon="-1.22463667">
        <ele>848.0</ele>
        <time>2019-07-31T10:38:00.095Z</time>
      </trkpt>
      <trkpt lat="43.00529833" lon="-1.22462667">
        <ele>848.0</ele>
        <time>2019-07-31T10:38:01.102Z</time>
      </trkpt>
      <trkpt lat="43.00528333" lon="-1.22461167">
        <ele>848.0</ele>
        <time>2019-07-31T10:38:02.107Z</time>
      </trkpt>
      <trkpt lat="43.00527167" lon="-1.22459667">
        <ele>848.0</ele>
        <time>2019-07-31T10:38:03.112Z</time>
      </trkpt>
      <trkpt lat="43.00525667" lon="-1.22458167">
        <ele>849.0</ele>
        <time>2019-07-31T10:38:04.117Z</time>
      </trkpt>
      <trkpt lat="43.00524" lon="-1.224565">
        <ele>849.0</ele>
        <time>2019-07-31T10:38:05.121Z</time>
      </trkpt>
      <trkpt lat="43.00522667" lon="-1.22454833">
        <ele>849.0</ele>
        <time>2019-07-31T10:38:06.125Z</time>
      </trkpt>
      <trkpt lat="43.00521167" lon="-1.22453333">
        <ele>849.0</ele>
        <time>2019-07-31T10:38:07.130Z</time>
      </trkpt>
      <trkpt lat="43.00519667" lon="-1.22452">
        <ele>849.0</ele>
        <time>2019-07-31T10:38:08.136Z</time>
      </trkpt>
      <trkpt lat="43.00518" lon="-1.22450667">
        <ele>849.0</ele>
        <time>2019-07-31T10:38:09.142Z</time>
      </trkpt>
      <trkpt lat="43.005165" lon="-1.224495">
        <ele>848.0</ele>
        <time>2019-07-31T10:38:10.149Z</time>
      </trkpt>
      <trkpt lat="43.00515" lon="-1.22448">
        <ele>848.0</ele>
        <time>2019-07-31T10:38:11.157Z</time>
      </trkpt>
      <trkpt lat="43.005135" lon="-1.224465">
        <ele>848.0</ele>
        <time>2019-07-31T10:38:12.163Z</time>
      </trkpt>
      <trkpt lat="43.00512167" lon="-1.224455">
        <ele>848.0</ele>
        <time>2019-07-31T10:38:13.167Z</time>
      </trkpt>
      <trkpt lat="43.00510667" lon="-1.22444167">
        <ele>848.0</ele>
        <time>2019-07-31T10:38:14.173Z</time>
      </trkpt>
      <trkpt lat="43.00509" lon="-1.22443">
        <ele>848.0</ele>
        <time>2019-07-31T10:38:15.179Z</time>
      </trkpt>
      <trkpt lat="43.00507333" lon="-1.22442">
        <ele>848.0</ele>
        <time>2019-07-31T10:38:16.184Z</time>
      </trkpt>
      <trkpt lat="43.00505667" lon="-1.22440833">
        <ele>848.0</ele>
        <time>2019-07-31T10:38:17.186Z</time>
      </trkpt>
      <trkpt lat="43.00504167" lon="-1.22439333">
        <ele>848.0</ele>
        <time>2019-07-31T10:38:18.065Z</time>
      </trkpt>
      <trkpt lat="43.00502833" lon="-1.22438">
        <ele>847.0</ele>
        <time>2019-07-31T10:38:19.070Z</time>
      </trkpt>
      <trkpt lat="43.00501333" lon="-1.22436667">
        <ele>847.0</ele>
        <time>2019-07-31T10:38:20.076Z</time>
      </trkpt>
      <trkpt lat="43.005" lon="-1.22435167">
        <ele>848.0</ele>
        <time>2019-07-31T10:38:21.081Z</time>
      </trkpt>
      <trkpt lat="43.00498667" lon="-1.22433833">
        <ele>848.0</ele>
        <time>2019-07-31T10:38:22.086Z</time>
      </trkpt>
      <trkpt lat="43.00497333" lon="-1.224325">
        <ele>848.0</ele>
        <time>2019-07-31T10:38:23.090Z</time>
      </trkpt>
      <trkpt lat="43.00496" lon="-1.22431333">
        <ele>848.0</ele>
        <time>2019-07-31T10:38:24.096Z</time>
      </trkpt>
      <trkpt lat="43.004945" lon="-1.2243">
        <ele>848.0</ele>
        <time>2019-07-31T10:38:25.101Z</time>
      </trkpt>
      <trkpt lat="43.00493" lon="-1.22428333">
        <ele>848.0</ele>
        <time>2019-07-31T10:38:26.105Z</time>
      </trkpt>
      <trkpt lat="43.004915" lon="-1.224265">
        <ele>849.0</ele>
        <time>2019-07-31T10:38:27.108Z</time>
      </trkpt>
      <trkpt lat="43.0049" lon="-1.22425167">
        <ele>849.0</ele>
        <time>2019-07-31T10:38:28.113Z</time>
      </trkpt>
      <trkpt lat="43.004885" lon="-1.22423333">
        <ele>849.0</ele>
        <time>2019-07-31T10:38:29.118Z</time>
      </trkpt>
      <trkpt lat="43.00487167" lon="-1.22421833">
        <ele>850.0</ele>
        <time>2019-07-31T10:38:30.123Z</time>
      </trkpt>
      <trkpt lat="43.00485667" lon="-1.22420167">
        <ele>849.0</ele>
        <time>2019-07-31T10:38:31.128Z</time>
      </trkpt>
      <trkpt lat="43.00484167" lon="-1.22419">
        <ele>849.0</ele>
        <time>2019-07-31T10:38:32.135Z</time>
      </trkpt>
      <trkpt lat="43.00482667" lon="-1.22417667">
        <ele>850.0</ele>
        <time>2019-07-31T10:38:33.140Z</time>
      </trkpt>
      <trkpt lat="43.00481333" lon="-1.22416333">
        <ele>849.0</ele>
        <time>2019-07-31T10:38:34.146Z</time>
      </trkpt>
      <trkpt lat="43.00479833" lon="-1.22415167">
        <ele>849.0</ele>
        <time>2019-07-31T10:38:35.154Z</time>
      </trkpt>
      <trkpt lat="43.004785" lon="-1.22413833">
        <ele>850.0</ele>
        <time>2019-07-31T10:38:36.157Z</time>
      </trkpt>
      <trkpt lat="43.00477167" lon="-1.22412333">
        <ele>850.0</ele>
        <time>2019-07-31T10:38:37.159Z</time>
      </trkpt>
      <trkpt lat="43.00475833" lon="-1.22411">
        <ele>850.0</ele>
        <time>2019-07-31T10:38:38.165Z</time>
      </trkpt>
      <trkpt lat="43.004745" lon="-1.22409667">
        <ele>851.0</ele>
        <time>2019-07-31T10:38:39.170Z</time>
      </trkpt>
      <trkpt lat="43.00473167" lon="-1.22408333">
        <ele>851.0</ele>
        <time>2019-07-31T10:38:40.176Z</time>
      </trkpt>
      <trkpt lat="43.00471833" lon="-1.22406833">
        <ele>851.0</ele>
        <time>2019-07-31T10:38:41.182Z</time>
      </trkpt>
      <trkpt lat="43.00470333" lon="-1.224055">
        <ele>852.0</ele>
        <time>2019-07-31T10:38:42.061Z</time>
      </trkpt>
      <trkpt lat="43.00469" lon="-1.22403667">
        <ele>852.0</ele>
        <time>2019-07-31T10:38:43.066Z</time>
      </trkpt>
      <trkpt lat="43.00467833" lon="-1.224025">
        <ele>852.0</ele>
        <time>2019-07-31T10:38:44.071Z</time>
      </trkpt>
      <trkpt lat="43.004665" lon="-1.22401167">
        <ele>852.0</ele>
        <time>2019-07-31T10:38:45.077Z</time>
      </trkpt>
      <trkpt lat="43.00465" lon="-1.22399833">
        <ele>853.0</ele>
        <time>2019-07-31T10:38:46.083Z</time>
      </trkpt>
      <trkpt lat="43.00463833" lon="-1.22398667">
        <ele>853.0</ele>
        <time>2019-07-31T10:38:47.088Z</time>
      </trkpt>
      <trkpt lat="43.004625" lon="-1.22397333">
        <ele>853.0</ele>
        <time>2019-07-31T10:38:48.091Z</time>
      </trkpt>
      <trkpt lat="43.00461167" lon="-1.22396167">
        <ele>853.0</ele>
        <time>2019-07-31T10:38:49.096Z</time>
      </trkpt>
      <trkpt lat="43.00459833" lon="-1.22394833">
        <ele>853.0</ele>
        <time>2019-07-31T10:38:50.101Z</time>
      </trkpt>
      <trkpt lat="43.004585" lon="-1.223935">
        <ele>852.0</ele>
        <time>2019-07-31T10:38:51.106Z</time>
      </trkpt>
      <trkpt lat="43.00457167" lon="-1.22392167">
        <ele>852.0</ele>
        <time>2019-07-31T10:38:52.113Z</time>
      </trkpt>
      <trkpt lat="43.00455667" lon="-1.22390833">
        <ele>852.0</ele>
        <time>2019-07-31T10:38:53.119Z</time>
      </trkpt>
      <trkpt lat="43.00454333" lon="-1.223895">
        <ele>852.0</ele>
        <time>2019-07-31T10:38:54.123Z</time>
      </trkpt>
      <trkpt lat="43.00452833" lon="-1.22388">
        <ele>852.0</ele>
        <time>2019-07-31T10:38:55.129Z</time>
      </trkpt>
      <trkpt lat="43.004515" lon="-1.223865">
        <ele>853.0</ele>
        <time>2019-07-31T10:38:56.131Z</time>
      </trkpt>
      <trkpt lat="43.00450167" lon="-1.22385167">
        <ele>853.0</ele>
        <time>2019-07-31T10:38:57.136Z</time>
      </trkpt>
      <trkpt lat="43.00448833" lon="-1.22383667">
        <ele>853.0</ele>
        <time>2019-07-31T10:38:58.143Z</time>
      </trkpt>
      <trkpt lat="43.004475" lon="-1.22382333">
        <ele>853.0</ele>
        <time>2019-07-31T10:38:59.149Z</time>
      </trkpt>
      <trkpt lat="43.00446" lon="-1.22380833">
        <ele>854.0</ele>
        <time>2019-07-31T10:39:00.156Z</time>
      </trkpt>
      <trkpt lat="43.00444667" lon="-1.22379333">
        <ele>854.0</ele>
        <time>2019-07-31T10:39:01.162Z</time>
      </trkpt>
      <trkpt lat="43.00443333" lon="-1.22377833">
        <ele>854.0</ele>
        <time>2019-07-31T10:39:02.167Z</time>
      </trkpt>
      <trkpt lat="43.00442167" lon="-1.223765">
        <ele>855.0</ele>
        <time>2019-07-31T10:39:03.173Z</time>
      </trkpt>
      <trkpt lat="43.00440667" lon="-1.22375">
        <ele>855.0</ele>
        <time>2019-07-31T10:39:04.179Z</time>
      </trkpt>
      <trkpt lat="43.00439333" lon="-1.22373333">
        <ele>855.0</ele>
        <time>2019-07-31T10:39:05.185Z</time>
      </trkpt>
      <trkpt lat="43.00437833" lon="-1.22372167">
        <ele>855.0</ele>
        <time>2019-07-31T10:39:06.063Z</time>
      </trkpt>
      <trkpt lat="43.00436333" lon="-1.22371">
        <ele>855.0</ele>
        <time>2019-07-31T10:39:07.068Z</time>
      </trkpt>
      <trkpt lat="43.00435167" lon="-1.22369667">
        <ele>855.0</ele>
        <time>2019-07-31T10:39:08.072Z</time>
      </trkpt>
      <trkpt lat="43.00434" lon="-1.22367833">
        <ele>857.0</ele>
        <time>2019-07-31T10:39:09.077Z</time>
      </trkpt>
      <trkpt lat="43.00433167" lon="-1.223665">
        <ele>858.0</ele>
        <time>2019-07-31T10:39:10.082Z</time>
      </trkpt>
      <trkpt lat="43.00431667" lon="-1.22364667">
        <ele>860.0</ele>
        <time>2019-07-31T10:39:11.087Z</time>
      </trkpt>
      <trkpt lat="43.00430333" lon="-1.22363">
        <ele>860.0</ele>
        <time>2019-07-31T10:39:12.092Z</time>
      </trkpt>
      <trkpt lat="43.00429167" lon="-1.22361333">
        <ele>860.0</ele>
        <time>2019-07-31T10:39:13.098Z</time>
      </trkpt>
      <trkpt lat="43.00428333" lon="-1.2236">
        <ele>860.0</ele>
        <time>2019-07-31T10:39:14.103Z</time>
      </trkpt>
      <trkpt lat="43.00427333" lon="-1.22358667">
        <ele>860.0</ele>
        <time>2019-07-31T10:39:15.108Z</time>
      </trkpt>
      <trkpt lat="43.00426" lon="-1.22356833">
        <ele>860.0</ele>
        <time>2019-07-31T10:39:16.115Z</time>
      </trkpt>
      <trkpt lat="43.00425167" lon="-1.22355">
        <ele>859.0</ele>
        <time>2019-07-31T10:39:17.120Z</time>
      </trkpt>
      <trkpt lat="43.00424333" lon="-1.22353167">
        <ele>859.0</ele>
        <time>2019-07-31T10:39:18.125Z</time>
      </trkpt>
      <trkpt lat="43.00423833" lon="-1.223515">
        <ele>859.0</ele>
        <time>2019-07-31T10:39:19.130Z</time>
      </trkpt>
      <trkpt lat="43.00423333" lon="-1.223495">
        <ele>859.0</ele>
        <time>2019-07-31T10:39:20.134Z</time>
      </trkpt>
      <trkpt lat="43.00422833" lon="-1.22346833">
        <ele>858.0</ele>
        <time>2019-07-31T10:39:21.142Z</time>
      </trkpt>
      <trkpt lat="43.00422667" lon="-1.22344833">
        <ele>858.0</ele>
        <time>2019-07-31T10:39:22.147Z</time>
      </trkpt>
      <trkpt lat="43.004225" lon="-1.22342667">
        <ele>857.0</ele>
        <time>2019-07-31T10:39:23.152Z</time>
      </trkpt>
      <trkpt lat="43.00422333" lon="-1.22340833">
        <ele>857.0</ele>
        <time>2019-07-31T10:39:24.158Z</time>
      </trkpt>
      <trkpt lat="43.00422167" lon="-1.22338167">
        <ele>857.0</ele>
        <time>2019-07-31T10:39:25.162Z</time>
      </trkpt>
      <trkpt lat="43.00422167" lon="-1.22335833">
        <ele>857.0</ele>
        <time>2019-07-31T10:39:26.168Z</time>
      </trkpt>
      <trkpt lat="43.00422" lon="-1.22333667">
        <ele>857.0</ele>
        <time>2019-07-31T10:39:27.173Z</time>
      </trkpt>
      <trkpt lat="43.00421667" lon="-1.22331333">
        <ele>857.0</ele>
        <time>2019-07-31T10:39:28.178Z</time>
      </trkpt>
      <trkpt lat="43.00421333" lon="-1.22329833">
        <ele>856.0</ele>
        <time>2019-07-31T10:39:29.184Z</time>
      </trkpt>
      <trkpt lat="43.00421167" lon="-1.22327333">
        <ele>856.0</ele>
        <time>2019-07-31T10:39:30.063Z</time>
      </trkpt>
      <trkpt lat="43.00421167" lon="-1.22325167">
        <ele>856.0</ele>
        <time>2019-07-31T10:39:31.067Z</time>
      </trkpt>
      <trkpt lat="43.00420667" lon="-1.22323">
        <ele>856.0</ele>
        <time>2019-07-31T10:39:32.069Z</time>
      </trkpt>
      <trkpt lat="43.004205" lon="-1.22321333">
        <ele>856.0</ele>
        <time>2019-07-31T10:39:33.075Z</time>
      </trkpt>
      <trkpt lat="43.0042" lon="-1.22319167">
        <ele>856.0</ele>
        <time>2019-07-31T10:39:34.081Z</time>
      </trkpt>
      <trkpt lat="43.00419167" lon="-1.22316667">
        <ele>856.0</ele>
        <time>2019-07-31T10:39:35.086Z</time>
      </trkpt>
      <trkpt lat="43.004185" lon="-1.22314667">
        <ele>856.0</ele>
        <time>2019-07-31T10:39:36.092Z</time>
      </trkpt>
      <trkpt lat="43.00417667" lon="-1.22312667">
        <ele>856.0</ele>
        <time>2019-07-31T10:39:37.098Z</time>
      </trkpt>
      <trkpt lat="43.00417167" lon="-1.22310667">
        <ele>856.0</ele>
        <time>2019-07-31T10:39:38.104Z</time>
      </trkpt>
      <trkpt lat="43.00416333" lon="-1.22308667">
        <ele>856.0</ele>
        <time>2019-07-31T10:39:39.107Z</time>
      </trkpt>
      <trkpt lat="43.00415667" lon="-1.22306667">
        <ele>856.0</ele>
        <time>2019-07-31T10:39:40.111Z</time>
      </trkpt>
      <trkpt lat="43.00414667" lon="-1.22304667">
        <ele>856.0</ele>
        <time>2019-07-31T10:39:41.117Z</time>
      </trkpt>
      <trkpt lat="43.00413833" lon="-1.22302833">
        <ele>856.0</ele>
        <time>2019-07-31T10:39:42.119Z</time>
      </trkpt>
      <trkpt lat="43.00413" lon="-1.22301333">
        <ele>857.0</ele>
        <time>2019-07-31T10:39:43.124Z</time>
      </trkpt>
      <trkpt lat="43.00412" lon="-1.222995">
        <ele>857.0</ele>
        <time>2019-07-31T10:39:44.130Z</time>
      </trkpt>
      <trkpt lat="43.00410667" lon="-1.22297333">
        <ele>857.0</ele>
        <time>2019-07-31T10:39:45.136Z</time>
      </trkpt>
      <trkpt lat="43.00409667" lon="-1.22295333">
        <ele>857.0</ele>
        <time>2019-07-31T10:39:46.141Z</time>
      </trkpt>
      <trkpt lat="43.00408333" lon="-1.22293833">
        <ele>858.0</ele>
        <time>2019-07-31T10:39:47.148Z</time>
      </trkpt>
      <trkpt lat="43.00407333" lon="-1.22292333">
        <ele>858.0</ele>
        <time>2019-07-31T10:39:48.153Z</time>
      </trkpt>
      <trkpt lat="43.00405667" lon="-1.22291">
        <ele>858.0</ele>
        <time>2019-07-31T10:39:49.157Z</time>
      </trkpt>
      <trkpt lat="43.00404167" lon="-1.22289667">
        <ele>859.0</ele>
        <time>2019-07-31T10:39:50.163Z</time>
      </trkpt>
      <trkpt lat="43.00402833" lon="-1.222885">
        <ele>859.0</ele>
        <time>2019-07-31T10:39:51.167Z</time>
      </trkpt>
      <trkpt lat="43.00401167" lon="-1.22287667">
        <ele>859.0</ele>
        <time>2019-07-31T10:39:52.170Z</time>
      </trkpt>
      <trkpt lat="43.003995" lon="-1.22286833">
        <ele>860.0</ele>
        <time>2019-07-31T10:39:53.178Z</time>
      </trkpt>
      <trkpt lat="43.00398" lon="-1.22286167">
        <ele>859.0</ele>
        <time>2019-07-31T10:39:54.184Z</time>
      </trkpt>
      <trkpt lat="43.003965" lon="-1.22285833">
        <ele>859.0</ele>
        <time>2019-07-31T10:39:55.063Z</time>
      </trkpt>
      <trkpt lat="43.00394833" lon="-1.22285333">
        <ele>859.0</ele>
        <time>2019-07-31T10:39:56.068Z</time>
      </trkpt>
      <trkpt lat="43.00393167" lon="-1.22284667">
        <ele>860.0</ele>
        <time>2019-07-31T10:39:57.074Z</time>
      </trkpt>
      <trkpt lat="43.00391667" lon="-1.22284333">
        <ele>860.0</ele>
        <time>2019-07-31T10:39:58.079Z</time>
      </trkpt>
      <trkpt lat="43.0039" lon="-1.22283833">
        <ele>860.0</ele>
        <time>2019-07-31T10:39:59.082Z</time>
      </trkpt>
      <trkpt lat="43.00388167" lon="-1.22283167">
        <ele>860.0</ele>
        <time>2019-07-31T10:40:00.087Z</time>
      </trkpt>
      <trkpt lat="43.003865" lon="-1.22282667">
        <ele>860.0</ele>
        <time>2019-07-31T10:40:01.092Z</time>
      </trkpt>
      <trkpt lat="43.00385" lon="-1.22282">
        <ele>859.0</ele>
        <time>2019-07-31T10:40:02.098Z</time>
      </trkpt>
      <trkpt lat="43.00383333" lon="-1.222815">
        <ele>859.0</ele>
        <time>2019-07-31T10:40:03.103Z</time>
      </trkpt>
      <trkpt lat="43.00382" lon="-1.22281">
        <ele>860.0</ele>
        <time>2019-07-31T10:40:04.109Z</time>
      </trkpt>
      <trkpt lat="43.003805" lon="-1.22280333">
        <ele>860.0</ele>
        <time>2019-07-31T10:40:05.115Z</time>
      </trkpt>
      <trkpt lat="43.00378833" lon="-1.22279333">
        <ele>860.0</ele>
        <time>2019-07-31T10:40:06.121Z</time>
      </trkpt>
      <trkpt lat="43.00377333" lon="-1.22278667">
        <ele>861.0</ele>
        <time>2019-07-31T10:40:07.128Z</time>
      </trkpt>
      <trkpt lat="43.00375833" lon="-1.22278">
        <ele>861.0</ele>
        <time>2019-07-31T10:40:08.133Z</time>
      </trkpt>
      <trkpt lat="43.00374333" lon="-1.22277">
        <ele>862.0</ele>
        <time>2019-07-31T10:40:09.138Z</time>
      </trkpt>
      <trkpt lat="43.00372667" lon="-1.22276167">
        <ele>862.0</ele>
        <time>2019-07-31T10:40:10.142Z</time>
      </trkpt>
      <trkpt lat="43.00371" lon="-1.22275833">
        <ele>862.0</ele>
        <time>2019-07-31T10:40:11.148Z</time>
      </trkpt>
      <trkpt lat="43.00369333" lon="-1.22275">
        <ele>862.0</ele>
        <time>2019-07-31T10:40:12.152Z</time>
      </trkpt>
      <trkpt lat="43.00367667" lon="-1.22274333">
        <ele>861.0</ele>
        <time>2019-07-31T10:40:13.159Z</time>
      </trkpt>
      <trkpt lat="43.00366167" lon="-1.22273667">
        <ele>861.0</ele>
        <time>2019-07-31T10:40:14.165Z</time>
      </trkpt>
      <trkpt lat="43.00364667" lon="-1.22272833">
        <ele>862.0</ele>
        <time>2019-07-31T10:40:15.170Z</time>
      </trkpt>
      <trkpt lat="43.00363167" lon="-1.22271667">
        <ele>862.0</ele>
        <time>2019-07-31T10:40:16.175Z</time>
      </trkpt>
      <trkpt lat="43.00361667" lon="-1.22270833">
        <ele>862.0</ele>
        <time>2019-07-31T10:40:17.183Z</time>
      </trkpt>
      <trkpt lat="43.00360167" lon="-1.22269833">
        <ele>862.0</ele>
        <time>2019-07-31T10:40:18.063Z</time>
      </trkpt>
      <trkpt lat="43.00358667" lon="-1.22268833">
        <ele>862.0</ele>
        <time>2019-07-31T10:40:19.067Z</time>
      </trkpt>
      <trkpt lat="43.00357167" lon="-1.22267833">
        <ele>862.0</ele>
        <time>2019-07-31T10:40:20.073Z</time>
      </trkpt>
      <trkpt lat="43.003555" lon="-1.22266833">
        <ele>862.0</ele>
        <time>2019-07-31T10:40:21.076Z</time>
      </trkpt>
      <trkpt lat="43.00353833" lon="-1.22266">
        <ele>863.0</ele>
        <time>2019-07-31T10:40:22.079Z</time>
      </trkpt>
      <trkpt lat="43.00352167" lon="-1.22265333">
        <ele>863.0</ele>
        <time>2019-07-31T10:40:23.083Z</time>
      </trkpt>
      <trkpt lat="43.00350667" lon="-1.22264667">
        <ele>863.0</ele>
        <time>2019-07-31T10:40:24.088Z</time>
      </trkpt>
      <trkpt lat="43.00349" lon="-1.22263667">
        <ele>863.0</ele>
        <time>2019-07-31T10:40:25.094Z</time>
      </trkpt>
      <trkpt lat="43.003475" lon="-1.22262667">
        <ele>863.0</ele>
        <time>2019-07-31T10:40:26.098Z</time>
      </trkpt>
      <trkpt lat="43.00345833" lon="-1.22261833">
        <ele>862.0</ele>
        <time>2019-07-31T10:40:27.101Z</time>
      </trkpt>
      <trkpt lat="43.00344167" lon="-1.22260667">
        <ele>863.0</ele>
        <time>2019-07-31T10:40:28.107Z</time>
      </trkpt>
      <trkpt lat="43.00342667" lon="-1.22259667">
        <ele>863.0</ele>
        <time>2019-07-31T10:40:29.113Z</time>
      </trkpt>
      <trkpt lat="43.00341167" lon="-1.22258667">
        <ele>863.0</ele>
        <time>2019-07-31T10:40:30.117Z</time>
      </trkpt>
      <trkpt lat="43.00339667" lon="-1.22257667">
        <ele>863.0</ele>
        <time>2019-07-31T10:40:31.122Z</time>
      </trkpt>
      <trkpt lat="43.00338" lon="-1.222565">
        <ele>863.0</ele>
        <time>2019-07-31T10:40:32.127Z</time>
      </trkpt>
      <trkpt lat="43.00336333" lon="-1.222555">
        <ele>862.0</ele>
        <time>2019-07-31T10:40:33.132Z</time>
      </trkpt>
      <trkpt lat="43.00334833" lon="-1.22254667">
        <ele>862.0</ele>
        <time>2019-07-31T10:40:34.139Z</time>
      </trkpt>
      <trkpt lat="43.00333333" lon="-1.22253833">
        <ele>862.0</ele>
        <time>2019-07-31T10:40:35.145Z</time>
      </trkpt>
      <trkpt lat="43.00332" lon="-1.22252833">
        <ele>861.0</ele>
        <time>2019-07-31T10:40:36.153Z</time>
      </trkpt>
      <trkpt lat="43.00330333" lon="-1.22252">
        <ele>861.0</ele>
        <time>2019-07-31T10:40:37.159Z</time>
      </trkpt>
      <trkpt lat="43.00328833" lon="-1.22250667">
        <ele>861.0</ele>
        <time>2019-07-31T10:40:38.165Z</time>
      </trkpt>
      <trkpt lat="43.00327333" lon="-1.222495">
        <ele>861.0</ele>
        <time>2019-07-31T10:40:39.171Z</time>
      </trkpt>
      <trkpt lat="43.00325833" lon="-1.22248333">
        <ele>861.0</ele>
        <time>2019-07-31T10:40:40.173Z</time>
      </trkpt>
      <trkpt lat="43.00324333" lon="-1.22247167">
        <ele>861.0</ele>
        <time>2019-07-31T10:40:41.179Z</time>
      </trkpt>
      <trkpt lat="43.00322833" lon="-1.22246167">
        <ele>861.0</ele>
        <time>2019-07-31T10:40:42.184Z</time>
      </trkpt>
      <trkpt lat="43.00321333" lon="-1.22244833">
        <ele>861.0</ele>
        <time>2019-07-31T10:40:43.063Z</time>
      </trkpt>
      <trkpt lat="43.00319833" lon="-1.222435">
        <ele>861.0</ele>
        <time>2019-07-31T10:40:44.064Z</time>
      </trkpt>
      <trkpt lat="43.003185" lon="-1.22242333">
        <ele>861.0</ele>
        <time>2019-07-31T10:40:45.066Z</time>
      </trkpt>
      <trkpt lat="43.00316833" lon="-1.22241167">
        <ele>861.0</ele>
        <time>2019-07-31T10:40:46.068Z</time>
      </trkpt>
      <trkpt lat="43.00315333" lon="-1.22239833">
        <ele>861.0</ele>
        <time>2019-07-31T10:40:47.070Z</time>
      </trkpt>
      <trkpt lat="43.00314" lon="-1.22238667">
        <ele>861.0</ele>
        <time>2019-07-31T10:40:48.076Z</time>
      </trkpt>
      <trkpt lat="43.00312667" lon="-1.22237667">
        <ele>861.0</ele>
        <time>2019-07-31T10:40:49.081Z</time>
      </trkpt>
      <trkpt lat="43.00311333" lon="-1.222365">
        <ele>861.0</ele>
        <time>2019-07-31T10:40:50.085Z</time>
      </trkpt>
      <trkpt lat="43.0031" lon="-1.222355">
        <ele>861.0</ele>
        <time>2019-07-31T10:40:51.090Z</time>
      </trkpt>
      <trkpt lat="43.00308667" lon="-1.22234">
        <ele>861.0</ele>
        <time>2019-07-31T10:40:52.094Z</time>
      </trkpt>
      <trkpt lat="43.00307333" lon="-1.22232833">
        <ele>861.0</ele>
        <time>2019-07-31T10:40:53.099Z</time>
      </trkpt>
      <trkpt lat="43.00306" lon="-1.222315">
        <ele>861.0</ele>
        <time>2019-07-31T10:40:54.104Z</time>
      </trkpt>
      <trkpt lat="43.00304833" lon="-1.2223">
        <ele>861.0</ele>
        <time>2019-07-31T10:40:55.110Z</time>
      </trkpt>
      <trkpt lat="43.003035" lon="-1.222285">
        <ele>862.0</ele>
        <time>2019-07-31T10:40:56.116Z</time>
      </trkpt>
      <trkpt lat="43.00302333" lon="-1.22226833">
        <ele>862.0</ele>
        <time>2019-07-31T10:40:57.121Z</time>
      </trkpt>
      <trkpt lat="43.00301167" lon="-1.22225333">
        <ele>862.0</ele>
        <time>2019-07-31T10:40:58.125Z</time>
      </trkpt>
      <trkpt lat="43.00299833" lon="-1.22224">
        <ele>863.0</ele>
        <time>2019-07-31T10:40:59.132Z</time>
      </trkpt>
      <trkpt lat="43.00298833" lon="-1.22222667">
        <ele>863.0</ele>
        <time>2019-07-31T10:41:00.138Z</time>
      </trkpt>
      <trkpt lat="43.002975" lon="-1.22221333">
        <ele>864.0</ele>
        <time>2019-07-31T10:41:01.144Z</time>
      </trkpt>
      <trkpt lat="43.00296167" lon="-1.22219833">
        <ele>864.0</ele>
        <time>2019-07-31T10:41:02.149Z</time>
      </trkpt>
      <trkpt lat="43.00294833" lon="-1.22218333">
        <ele>864.0</ele>
        <time>2019-07-31T10:41:03.156Z</time>
      </trkpt>
      <trkpt lat="43.002935" lon="-1.22216833">
        <ele>864.0</ele>
        <time>2019-07-31T10:41:04.161Z</time>
      </trkpt>
      <trkpt lat="43.002925" lon="-1.22215667">
        <ele>864.0</ele>
        <time>2019-07-31T10:41:05.166Z</time>
      </trkpt>
      <trkpt lat="43.00291167" lon="-1.22214167">
        <ele>864.0</ele>
        <time>2019-07-31T10:41:06.174Z</time>
      </trkpt>
      <trkpt lat="43.0029" lon="-1.22212667">
        <ele>864.0</ele>
        <time>2019-07-31T10:41:07.180Z</time>
      </trkpt>
      <trkpt lat="43.00288833" lon="-1.22211333">
        <ele>864.0</ele>
        <time>2019-07-31T10:41:08.185Z</time>
      </trkpt>
      <trkpt lat="43.00287667" lon="-1.22209833">
        <ele>864.0</ele>
        <time>2019-07-31T10:41:09.066Z</time>
      </trkpt>
      <trkpt lat="43.00286167" lon="-1.222085">
        <ele>864.0</ele>
        <time>2019-07-31T10:41:10.072Z</time>
      </trkpt>
      <trkpt lat="43.00285" lon="-1.22207167">
        <ele>864.0</ele>
        <time>2019-07-31T10:41:11.078Z</time>
      </trkpt>
      <trkpt lat="43.00283667" lon="-1.22206">
        <ele>865.0</ele>
        <time>2019-07-31T10:41:12.082Z</time>
      </trkpt>
      <trkpt lat="43.00282833" lon="-1.222045">
        <ele>865.0</ele>
        <time>2019-07-31T10:41:13.088Z</time>
      </trkpt>
      <trkpt lat="43.002815" lon="-1.22203333">
        <ele>865.0</ele>
        <time>2019-07-31T10:41:14.094Z</time>
      </trkpt>
      <trkpt lat="43.00280333" lon="-1.22201833">
        <ele>865.0</ele>
        <time>2019-07-31T10:41:15.097Z</time>
      </trkpt>
      <trkpt lat="43.00279167" lon="-1.22200167">
        <ele>865.0</ele>
        <time>2019-07-31T10:41:16.102Z</time>
      </trkpt>
      <trkpt lat="43.00278333" lon="-1.22198833">
        <ele>865.0</ele>
        <time>2019-07-31T10:41:17.105Z</time>
      </trkpt>
      <trkpt lat="43.002775" lon="-1.22197333">
        <ele>865.0</ele>
        <time>2019-07-31T10:41:18.110Z</time>
      </trkpt>
      <trkpt lat="43.00276667" lon="-1.22196">
        <ele>865.0</ele>
        <time>2019-07-31T10:41:19.116Z</time>
      </trkpt>
      <trkpt lat="43.00275833" lon="-1.22195">
        <ele>865.0</ele>
        <time>2019-07-31T10:41:20.122Z</time>
      </trkpt>
      <trkpt lat="43.00274833" lon="-1.22193667">
        <ele>866.0</ele>
        <time>2019-07-31T10:41:21.123Z</time>
      </trkpt>
      <trkpt lat="43.00273667" lon="-1.22192167">
        <ele>867.0</ele>
        <time>2019-07-31T10:41:22.127Z</time>
      </trkpt>
      <trkpt lat="43.00272667" lon="-1.22190833">
        <ele>868.0</ele>
        <time>2019-07-31T10:41:23.133Z</time>
      </trkpt>
      <trkpt lat="43.00271833" lon="-1.22189667">
        <ele>868.0</ele>
        <time>2019-07-31T10:41:24.138Z</time>
      </trkpt>
      <trkpt lat="43.00270833" lon="-1.22188167">
        <ele>869.0</ele>
        <time>2019-07-31T10:41:25.141Z</time>
      </trkpt>
      <trkpt lat="43.0027" lon="-1.22186667">
        <ele>869.0</ele>
        <time>2019-07-31T10:41:26.148Z</time>
      </trkpt>
      <trkpt lat="43.00268667" lon="-1.22185">
        <ele>870.0</ele>
        <time>2019-07-31T10:41:27.151Z</time>
      </trkpt>
      <trkpt lat="43.00267167" lon="-1.22183333">
        <ele>870.0</ele>
        <time>2019-07-31T10:41:28.156Z</time>
      </trkpt>
      <trkpt lat="43.00266167" lon="-1.22181667">
        <ele>870.0</ele>
        <time>2019-07-31T10:41:29.162Z</time>
      </trkpt>
      <trkpt lat="43.00265" lon="-1.22180333">
        <ele>871.0</ele>
        <time>2019-07-31T10:41:30.167Z</time>
      </trkpt>
      <trkpt lat="43.00263833" lon="-1.22179">
        <ele>871.0</ele>
        <time>2019-07-31T10:41:31.172Z</time>
      </trkpt>
      <trkpt lat="43.002625" lon="-1.22177667">
        <ele>871.0</ele>
        <time>2019-07-31T10:41:32.178Z</time>
      </trkpt>
      <trkpt lat="43.002615" lon="-1.22176">
        <ele>871.0</ele>
        <time>2019-07-31T10:41:33.183Z</time>
      </trkpt>
      <trkpt lat="43.00260333" lon="-1.221745">
        <ele>871.0</ele>
        <time>2019-07-31T10:41:34.063Z</time>
      </trkpt>
      <trkpt lat="43.00259167" lon="-1.22172833">
        <ele>871.0</ele>
        <time>2019-07-31T10:41:35.066Z</time>
      </trkpt>
      <trkpt lat="43.00257833" lon="-1.22171167">
        <ele>871.0</ele>
        <time>2019-07-31T10:41:36.070Z</time>
      </trkpt>
      <trkpt lat="43.00256667" lon="-1.221695">
        <ele>871.0</ele>
        <time>2019-07-31T10:41:37.078Z</time>
      </trkpt>
      <trkpt lat="43.00255667" lon="-1.22168">
        <ele>871.0</ele>
        <time>2019-07-31T10:41:38.084Z</time>
      </trkpt>
      <trkpt lat="43.002545" lon="-1.221665">
        <ele>871.0</ele>
        <time>2019-07-31T10:41:39.090Z</time>
      </trkpt>
      <trkpt lat="43.00253333" lon="-1.22165333">
        <ele>871.0</ele>
        <time>2019-07-31T10:41:40.096Z</time>
      </trkpt>
      <trkpt lat="43.00252" lon="-1.22163667">
        <ele>872.0</ele>
        <time>2019-07-31T10:41:41.101Z</time>
      </trkpt>
      <trkpt lat="43.00250667" lon="-1.22162333">
        <ele>872.0</ele>
        <time>2019-07-31T10:41:42.105Z</time>
      </trkpt>
      <trkpt lat="43.00249667" lon="-1.221605">
        <ele>872.0</ele>
        <time>2019-07-31T10:41:43.110Z</time>
      </trkpt>
      <trkpt lat="43.002485" lon="-1.221585">
        <ele>872.0</ele>
        <time>2019-07-31T10:41:44.115Z</time>
      </trkpt>
      <trkpt lat="43.00247333" lon="-1.22156667">
        <ele>872.0</ele>
        <time>2019-07-31T10:41:45.120Z</time>
      </trkpt>
      <trkpt lat="43.00246167" lon="-1.22155">
        <ele>872.0</ele>
        <time>2019-07-31T10:41:46.124Z</time>
      </trkpt>
      <trkpt lat="43.00244833" lon="-1.22153167">
        <ele>872.0</ele>
        <time>2019-07-31T10:41:47.132Z</time>
      </trkpt>
      <trkpt lat="43.00243667" lon="-1.221515">
        <ele>872.0</ele>
        <time>2019-07-31T10:41:48.136Z</time>
      </trkpt>
      <trkpt lat="43.00242667" lon="-1.22149833">
        <ele>871.0</ele>
        <time>2019-07-31T10:41:49.142Z</time>
      </trkpt>
      <trkpt lat="43.00241333" lon="-1.22148167">
        <ele>871.0</ele>
        <time>2019-07-31T10:41:50.149Z</time>
      </trkpt>
      <trkpt lat="43.00240333" lon="-1.22146667">
        <ele>871.0</ele>
        <time>2019-07-31T10:41:51.156Z</time>
      </trkpt>
      <trkpt lat="43.00239333" lon="-1.22145167">
        <ele>871.0</ele>
        <time>2019-07-31T10:41:52.159Z</time>
      </trkpt>
      <trkpt lat="43.00238167" lon="-1.22144">
        <ele>871.0</ele>
        <time>2019-07-31T10:41:53.164Z</time>
      </trkpt>
      <trkpt lat="43.00237167" lon="-1.22142667">
        <ele>870.0</ele>
        <time>2019-07-31T10:41:54.168Z</time>
      </trkpt>
      <trkpt lat="43.00236" lon="-1.22141167">
        <ele>870.0</ele>
        <time>2019-07-31T10:41:55.174Z</time>
      </trkpt>
      <trkpt lat="43.00234833" lon="-1.221395">
        <ele>870.0</ele>
        <time>2019-07-31T10:41:56.176Z</time>
      </trkpt>
      <trkpt lat="43.00233667" lon="-1.22138">
        <ele>870.0</ele>
        <time>2019-07-31T10:41:57.178Z</time>
      </trkpt>
      <trkpt lat="43.00232667" lon="-1.221365">
        <ele>870.0</ele>
        <time>2019-07-31T10:41:58.184Z</time>
      </trkpt>
      <trkpt lat="43.00231333" lon="-1.22134833">
        <ele>870.0</ele>
        <time>2019-07-31T10:41:59.064Z</time>
      </trkpt>
      <trkpt lat="43.0023" lon="-1.22133667">
        <ele>870.0</ele>
        <time>2019-07-31T10:42:00.070Z</time>
      </trkpt>
      <trkpt lat="43.00228833" lon="-1.22132333">
        <ele>870.0</ele>
        <time>2019-07-31T10:42:01.076Z</time>
      </trkpt>
      <trkpt lat="43.00227667" lon="-1.22130667">
        <ele>869.0</ele>
        <time>2019-07-31T10:42:02.082Z</time>
      </trkpt>
      <trkpt lat="43.002265" lon="-1.22129167">
        <ele>869.0</ele>
        <time>2019-07-31T10:42:03.089Z</time>
      </trkpt>
      <trkpt lat="43.00225333" lon="-1.221275">
        <ele>869.0</ele>
        <time>2019-07-31T10:42:04.094Z</time>
      </trkpt>
      <trkpt lat="43.00224333" lon="-1.22126">
        <ele>869.0</ele>
        <time>2019-07-31T10:42:05.098Z</time>
      </trkpt>
      <trkpt lat="43.00223167" lon="-1.221245">
        <ele>869.0</ele>
        <time>2019-07-31T10:42:06.104Z</time>
      </trkpt>
      <trkpt lat="43.00222" lon="-1.22123">
        <ele>869.0</ele>
        <time>2019-07-31T10:42:07.110Z</time>
      </trkpt>
      <trkpt lat="43.00221" lon="-1.22121333">
        <ele>869.0</ele>
        <time>2019-07-31T10:42:08.115Z</time>
      </trkpt>
      <trkpt lat="43.00219667" lon="-1.221195">
        <ele>869.0</ele>
        <time>2019-07-31T10:42:09.120Z</time>
      </trkpt>
      <trkpt lat="43.002185" lon="-1.22117667">
        <ele>869.0</ele>
        <time>2019-07-31T10:42:10.125Z</time>
      </trkpt>
      <trkpt lat="43.00217333" lon="-1.22115833">
        <ele>869.0</ele>
        <time>2019-07-31T10:42:11.129Z</time>
      </trkpt>
      <trkpt lat="43.00216333" lon="-1.22114333">
        <ele>869.0</ele>
        <time>2019-07-31T10:42:12.135Z</time>
      </trkpt>
      <trkpt lat="43.00215167" lon="-1.22112667">
        <ele>869.0</ele>
        <time>2019-07-31T10:42:13.140Z</time>
      </trkpt>
      <trkpt lat="43.00214167" lon="-1.22111167">
        <ele>869.0</ele>
        <time>2019-07-31T10:42:14.145Z</time>
      </trkpt>
      <trkpt lat="43.00213333" lon="-1.22109333">
        <ele>870.0</ele>
        <time>2019-07-31T10:42:15.149Z</time>
      </trkpt>
      <trkpt lat="43.00212667" lon="-1.22108167">
        <ele>870.0</ele>
        <time>2019-07-31T10:42:16.156Z</time>
      </trkpt>
      <trkpt lat="43.00211667" lon="-1.221065">
        <ele>870.0</ele>
        <time>2019-07-31T10:42:17.163Z</time>
      </trkpt>
      <trkpt lat="43.00210667" lon="-1.22105333">
        <ele>871.0</ele>
        <time>2019-07-31T10:42:18.169Z</time>
      </trkpt>
      <trkpt lat="43.002095" lon="-1.22104">
        <ele>871.0</ele>
        <time>2019-07-31T10:42:19.174Z</time>
      </trkpt>
      <trkpt lat="43.002085" lon="-1.221025">
        <ele>871.0</ele>
        <time>2019-07-31T10:42:20.182Z</time>
      </trkpt>
      <trkpt lat="43.00207667" lon="-1.22100833">
        <ele>871.0</ele>
        <time>2019-07-31T10:42:21.185Z</time>
      </trkpt>
      <trkpt lat="43.00206667" lon="-1.22099667">
        <ele>871.0</ele>
        <time>2019-07-31T10:42:22.064Z</time>
      </trkpt>
      <trkpt lat="43.002055" lon="-1.220985">
        <ele>871.0</ele>
        <time>2019-07-31T10:42:23.069Z</time>
      </trkpt>
      <trkpt lat="43.00204667" lon="-1.22098">
        <ele>871.0</ele>
        <time>2019-07-31T10:42:24.076Z</time>
      </trkpt>
      <trkpt lat="43.00204" lon="-1.22097833">
        <ele>871.0</ele>
        <time>2019-07-31T10:42:25.080Z</time>
      </trkpt>
      <trkpt lat="43.00203667" lon="-1.22097667">
        <ele>871.0</ele>
        <time>2019-07-31T10:42:26.084Z</time>
      </trkpt>
      <trkpt lat="43.00203667" lon="-1.22097167">
        <ele>871.0</ele>
        <time>2019-07-31T10:42:27.090Z</time>
      </trkpt>
      <trkpt lat="43.00203333" lon="-1.22097167">
        <ele>870.0</ele>
        <time>2019-07-31T10:42:28.095Z</time>
      </trkpt>
      <trkpt lat="43.00203167" lon="-1.22097">
        <ele>870.0</ele>
        <time>2019-07-31T10:42:29.100Z</time>
      </trkpt>
      <trkpt lat="43.00203167" lon="-1.22097333">
        <ele>869.0</ele>
        <time>2019-07-31T10:42:30.105Z</time>
      </trkpt>
      <trkpt lat="43.00203" lon="-1.22097333">
        <ele>870.0</ele>
        <time>2019-07-31T10:42:31.112Z</time>
      </trkpt>
      <trkpt lat="43.00203167" lon="-1.22097167">
        <ele>870.0</ele>
        <time>2019-07-31T10:42:32.119Z</time>
      </trkpt>
      <trkpt lat="43.00203167" lon="-1.22096833">
        <ele>869.0</ele>
        <time>2019-07-31T10:42:33.125Z</time>
      </trkpt>
      <trkpt lat="43.00203" lon="-1.22096833">
        <ele>869.0</ele>
        <time>2019-07-31T10:42:34.131Z</time>
      </trkpt>
      <trkpt lat="43.00202667" lon="-1.22097">
        <ele>869.0</ele>
        <time>2019-07-31T10:42:35.137Z</time>
      </trkpt>
      <trkpt lat="43.00202333" lon="-1.220975">
        <ele>869.0</ele>
        <time>2019-07-31T10:42:36.141Z</time>
      </trkpt>
      <trkpt lat="43.00202333" lon="-1.22097667">
        <ele>870.0</ele>
        <time>2019-07-31T10:42:37.147Z</time>
      </trkpt>
      <trkpt lat="43.00202333" lon="-1.22097833">
        <ele>870.0</ele>
        <time>2019-07-31T10:42:38.153Z</time>
      </trkpt>
      <trkpt lat="43.00202167" lon="-1.22098">
        <ele>869.0</ele>
        <time>2019-07-31T10:42:39.160Z</time>
      </trkpt>
      <trkpt lat="43.00201833" lon="-1.22098333">
        <ele>869.0</ele>
        <time>2019-07-31T10:42:40.165Z</time>
      </trkpt>
      <trkpt lat="43.00201333" lon="-1.220985">
        <ele>868.0</ele>
        <time>2019-07-31T10:42:41.172Z</time>
      </trkpt>
      <trkpt lat="43.00201" lon="-1.22098667">
        <ele>868.0</ele>
        <time>2019-07-31T10:42:42.178Z</time>
      </trkpt>
      <trkpt lat="43.002005" lon="-1.22099">
        <ele>868.0</ele>
        <time>2019-07-31T10:42:43.183Z</time>
      </trkpt>
      <trkpt lat="43.00200333" lon="-1.22099333">
        <ele>868.0</ele>
        <time>2019-07-31T10:42:44.063Z</time>
      </trkpt>
      <trkpt lat="43.00200333" lon="-1.22100333">
        <ele>868.0</ele>
        <time>2019-07-31T10:42:45.068Z</time>
      </trkpt>
      <trkpt lat="43.002005" lon="-1.22100333">
        <ele>869.0</ele>
        <time>2019-07-31T10:42:46.076Z</time>
      </trkpt>
      <trkpt lat="43.00201167" lon="-1.22099667">
        <ele>869.0</ele>
        <time>2019-07-31T10:42:47.080Z</time>
      </trkpt>
      <trkpt lat="43.00202" lon="-1.22099167">
        <ele>870.0</ele>
        <time>2019-07-31T10:42:48.084Z</time>
      </trkpt>
      <trkpt lat="43.00203" lon="-1.22098">
        <ele>870.0</ele>
        <time>2019-07-31T10:42:49.089Z</time>
      </trkpt>
      <trkpt lat="43.00203167" lon="-1.22097833">
        <ele>870.0</ele>
        <time>2019-07-31T10:42:50.094Z</time>
      </trkpt>
      <trkpt lat="43.00203333" lon="-1.22097667">
        <ele>870.0</ele>
        <time>2019-07-31T10:42:51.098Z</time>
      </trkpt>
      <trkpt lat="43.00203333" lon="-1.22097667">
        <ele>871.0</ele>
        <time>2019-07-31T10:42:52.102Z</time>
      </trkpt>
      <trkpt lat="43.00203167" lon="-1.22097667">
        <ele>871.0</ele>
        <time>2019-07-31T10:42:53.106Z</time>
      </trkpt>
      <trkpt lat="43.00203167" lon="-1.22097833">
        <ele>871.0</ele>
        <time>2019-07-31T10:42:54.112Z</time>
      </trkpt>
      <trkpt lat="43.00203" lon="-1.220975">
        <ele>872.0</ele>
        <time>2019-07-31T10:42:55.117Z</time>
      </trkpt>
      <trkpt lat="43.002025" lon="-1.22097167">
        <ele>872.0</ele>
        <time>2019-07-31T10:42:56.120Z</time>
      </trkpt>
      <trkpt lat="43.00201667" lon="-1.22097">
        <ele>872.0</ele>
        <time>2019-07-31T10:42:57.125Z</time>
      </trkpt>
      <trkpt lat="43.00201167" lon="-1.22097">
        <ele>873.0</ele>
        <time>2019-07-31T10:42:58.130Z</time>
      </trkpt>
      <trkpt lat="43.00201333" lon="-1.220965">
        <ele>874.0</ele>
        <time>2019-07-31T10:42:59.131Z</time>
      </trkpt>
      <trkpt lat="43.00201167" lon="-1.22096167">
        <ele>875.0</ele>
        <time>2019-07-31T10:43:00.136Z</time>
      </trkpt>
      <trkpt lat="43.00201167" lon="-1.22096167">
        <ele>875.0</ele>
        <time>2019-07-31T10:43:01.142Z</time>
      </trkpt>
      <trkpt lat="43.00201333" lon="-1.220965">
        <ele>876.0</ele>
        <time>2019-07-31T10:43:02.148Z</time>
      </trkpt>
      <trkpt lat="43.00201667" lon="-1.22097">
        <ele>876.0</ele>
        <time>2019-07-31T10:43:03.155Z</time>
      </trkpt>
      <trkpt lat="43.00201667" lon="-1.220975">
        <ele>875.0</ele>
        <time>2019-07-31T10:43:04.162Z</time>
      </trkpt>
      <trkpt lat="43.00201833" lon="-1.220975">
        <ele>874.0</ele>
        <time>2019-07-31T10:43:05.164Z</time>
      </trkpt>
      <trkpt lat="43.00202" lon="-1.22097333">
        <ele>874.0</ele>
        <time>2019-07-31T10:43:06.170Z</time>
      </trkpt>
      <trkpt lat="43.00202167" lon="-1.22097">
        <ele>874.0</ele>
        <time>2019-07-31T10:43:07.175Z</time>
      </trkpt>
      <trkpt lat="43.002025" lon="-1.22096333">
        <ele>874.0</ele>
        <time>2019-07-31T10:43:08.182Z</time>
      </trkpt>
      <trkpt lat="43.00203" lon="-1.22095833">
        <ele>875.0</ele>
        <time>2019-07-31T10:43:09.062Z</time>
      </trkpt>
      <trkpt lat="43.00203167" lon="-1.22096">
        <ele>875.0</ele>
        <time>2019-07-31T10:43:10.066Z</time>
      </trkpt>
      <trkpt lat="43.00203167" lon="-1.22095833">
        <ele>875.0</ele>
        <time>2019-07-31T10:43:11.072Z</time>
      </trkpt>
      <trkpt lat="43.00203" lon="-1.22095333">
        <ele>875.0</ele>
        <time>2019-07-31T10:43:12.078Z</time>
      </trkpt>
      <trkpt lat="43.00202833" lon="-1.22094333">
        <ele>875.0</ele>
        <time>2019-07-31T10:43:13.081Z</time>
      </trkpt>
      <trkpt lat="43.00202833" lon="-1.22092667">
        <ele>875.0</ele>
        <time>2019-07-31T10:43:14.086Z</time>
      </trkpt>
      <trkpt lat="43.00202667" lon="-1.22091">
        <ele>875.0</ele>
        <time>2019-07-31T10:43:15.092Z</time>
      </trkpt>
      <trkpt lat="43.00202667" lon="-1.22089167">
        <ele>875.0</ele>
        <time>2019-07-31T10:43:16.098Z</time>
      </trkpt>
      <trkpt lat="43.002025" lon="-1.22087167">
        <ele>875.0</ele>
        <time>2019-07-31T10:43:17.104Z</time>
      </trkpt>
      <trkpt lat="43.00202167" lon="-1.22085">
        <ele>875.0</ele>
        <time>2019-07-31T10:43:18.107Z</time>
      </trkpt>
      <trkpt lat="43.00201667" lon="-1.22082833">
        <ele>875.0</ele>
        <time>2019-07-31T10:43:19.112Z</time>
      </trkpt>
      <trkpt lat="43.002015" lon="-1.22081">
        <ele>875.0</ele>
        <time>2019-07-31T10:43:20.116Z</time>
      </trkpt>
      <trkpt lat="43.00201167" lon="-1.22078833">
        <ele>876.0</ele>
        <time>2019-07-31T10:43:21.122Z</time>
      </trkpt>
      <trkpt lat="43.00200667" lon="-1.22076667">
        <ele>875.0</ele>
        <time>2019-07-31T10:43:22.127Z</time>
      </trkpt>
      <trkpt lat="43.00200167" lon="-1.22074833">
        <ele>875.0</ele>
        <time>2019-07-31T10:43:23.133Z</time>
      </trkpt>
      <trkpt lat="43.00199667" lon="-1.22073">
        <ele>875.0</ele>
        <time>2019-07-31T10:43:24.138Z</time>
      </trkpt>
      <trkpt lat="43.00199" lon="-1.22071167">
        <ele>875.0</ele>
        <time>2019-07-31T10:43:25.142Z</time>
      </trkpt>
      <trkpt lat="43.00198667" lon="-1.220695">
        <ele>874.0</ele>
        <time>2019-07-31T10:43:26.147Z</time>
      </trkpt>
      <trkpt lat="43.00198167" lon="-1.220675">
        <ele>874.0</ele>
        <time>2019-07-31T10:43:27.152Z</time>
      </trkpt>
      <trkpt lat="43.00197667" lon="-1.22065667">
        <ele>874.0</ele>
        <time>2019-07-31T10:43:28.157Z</time>
      </trkpt>
      <trkpt lat="43.00197167" lon="-1.22063833">
        <ele>875.0</ele>
        <time>2019-07-31T10:43:29.163Z</time>
      </trkpt>
      <trkpt lat="43.00196833" lon="-1.22061833">
        <ele>875.0</ele>
        <time>2019-07-31T10:43:30.167Z</time>
      </trkpt>
      <trkpt lat="43.001965" lon="-1.22059667">
        <ele>875.0</ele>
        <time>2019-07-31T10:43:31.172Z</time>
      </trkpt>
      <trkpt lat="43.00196333" lon="-1.22058">
        <ele>875.0</ele>
        <time>2019-07-31T10:43:32.179Z</time>
      </trkpt>
      <trkpt lat="43.00195833" lon="-1.22056667">
        <ele>875.0</ele>
        <time>2019-07-31T10:43:33.185Z</time>
      </trkpt>
      <trkpt lat="43.001955" lon="-1.22055833">
        <ele>875.0</ele>
        <time>2019-07-31T10:43:34.064Z</time>
      </trkpt>
      <trkpt lat="43.00195" lon="-1.220555">
        <ele>875.0</ele>
        <time>2019-07-31T10:43:35.068Z</time>
      </trkpt>
      <trkpt lat="43.00194667" lon="-1.22055333">
        <ele>875.0</ele>
        <time>2019-07-31T10:43:36.073Z</time>
      </trkpt>
      <trkpt lat="43.00194333" lon="-1.22055167">
        <ele>875.0</ele>
        <time>2019-07-31T10:43:37.079Z</time>
      </trkpt>
      <trkpt lat="43.00194333" lon="-1.22055">
        <ele>875.0</ele>
        <time>2019-07-31T10:43:38.083Z</time>
      </trkpt>
      <trkpt lat="43.00194167" lon="-1.22054667">
        <ele>874.0</ele>
        <time>2019-07-31T10:43:39.089Z</time>
      </trkpt>
      <trkpt lat="43.00193833" lon="-1.22054333">
        <ele>874.0</ele>
        <time>2019-07-31T10:43:40.096Z</time>
      </trkpt>
      <trkpt lat="43.001935" lon="-1.22054167">
        <ele>873.0</ele>
        <time>2019-07-31T10:43:41.102Z</time>
      </trkpt>
      <trkpt lat="43.00193667" lon="-1.22054167">
        <ele>873.0</ele>
        <time>2019-07-31T10:43:42.106Z</time>
      </trkpt>
      <trkpt lat="43.00194" lon="-1.22054">
        <ele>874.0</ele>
        <time>2019-07-31T10:43:43.112Z</time>
      </trkpt>
      <trkpt lat="43.00194167" lon="-1.22054">
        <ele>874.0</ele>
        <time>2019-07-31T10:43:44.119Z</time>
      </trkpt>
      <trkpt lat="43.001945" lon="-1.220545">
        <ele>874.0</ele>
        <time>2019-07-31T10:43:45.123Z</time>
      </trkpt>
      <trkpt lat="43.001945" lon="-1.22055167">
        <ele>873.0</ele>
        <time>2019-07-31T10:43:46.129Z</time>
      </trkpt>
      <trkpt lat="43.00194667" lon="-1.220555">
        <ele>873.0</ele>
        <time>2019-07-31T10:43:47.135Z</time>
      </trkpt>
      <trkpt lat="43.00194667" lon="-1.22055833">
        <ele>873.0</ele>
        <time>2019-07-31T10:43:48.140Z</time>
      </trkpt>
      <trkpt lat="43.001945" lon="-1.22056333">
        <ele>872.0</ele>
        <time>2019-07-31T10:43:49.145Z</time>
      </trkpt>
      <trkpt lat="43.001945" lon="-1.22056667">
        <ele>872.0</ele>
        <time>2019-07-31T10:43:50.149Z</time>
      </trkpt>
      <trkpt lat="43.00194667" lon="-1.22057">
        <ele>872.0</ele>
        <time>2019-07-31T10:43:51.155Z</time>
      </trkpt>
      <trkpt lat="43.00194667" lon="-1.22056667">
        <ele>872.0</ele>
        <time>2019-07-31T10:43:52.161Z</time>
      </trkpt>
      <trkpt lat="43.001945" lon="-1.22056333">
        <ele>872.0</ele>
        <time>2019-07-31T10:43:53.168Z</time>
      </trkpt>
      <trkpt lat="43.00194167" lon="-1.22056">
        <ele>872.0</ele>
        <time>2019-07-31T10:43:54.173Z</time>
      </trkpt>
      <trkpt lat="43.00194333" lon="-1.22056167">
        <ele>872.0</ele>
        <time>2019-07-31T10:43:55.178Z</time>
      </trkpt>
      <trkpt lat="43.00194333" lon="-1.22056333">
        <ele>872.0</ele>
        <time>2019-07-31T10:43:56.184Z</time>
      </trkpt>
      <trkpt lat="43.001945" lon="-1.22056833">
        <ele>872.0</ele>
        <time>2019-07-31T10:43:57.065Z</time>
      </trkpt>
      <trkpt lat="43.00194667" lon="-1.22057333">
        <ele>871.0</ele>
        <time>2019-07-31T10:43:58.070Z</time>
      </trkpt>
      <trkpt lat="43.00194667" lon="-1.22057667">
        <ele>870.0</ele>
        <time>2019-07-31T10:43:59.075Z</time>
      </trkpt>
      <trkpt lat="43.00194667" lon="-1.22057667">
        <ele>870.0</ele>
        <time>2019-07-31T10:44:00.079Z</time>
      </trkpt>
      <trkpt lat="43.00194667" lon="-1.22057667">
        <ele>870.0</ele>
        <time>2019-07-31T10:44:01.083Z</time>
      </trkpt>
      <trkpt lat="43.00194667" lon="-1.220575">
        <ele>870.0</ele>
        <time>2019-07-31T10:44:02.089Z</time>
      </trkpt>
      <trkpt lat="43.00194667" lon="-1.22057667">
        <ele>870.0</ele>
        <time>2019-07-31T10:44:03.092Z</time>
      </trkpt>
      <trkpt lat="43.00194833" lon="-1.22058">
        <ele>869.0</ele>
        <time>2019-07-31T10:44:04.099Z</time>
      </trkpt>
      <trkpt lat="43.00195167" lon="-1.220585">
        <ele>869.0</ele>
        <time>2019-07-31T10:44:05.103Z</time>
      </trkpt>
      <trkpt lat="43.00195167" lon="-1.22058333">
        <ele>869.0</ele>
        <time>2019-07-31T10:44:06.109Z</time>
      </trkpt>
      <trkpt lat="43.00195167" lon="-1.22058333">
        <ele>869.0</ele>
        <time>2019-07-31T10:44:07.114Z</time>
      </trkpt>
      <trkpt lat="43.00195333" lon="-1.22058333">
        <ele>868.0</ele>
        <time>2019-07-31T10:44:08.119Z</time>
      </trkpt>
      <trkpt lat="43.001955" lon="-1.220585">
        <ele>868.0</ele>
        <time>2019-07-31T10:44:09.124Z</time>
      </trkpt>
      <trkpt lat="43.00195667" lon="-1.22058667">
        <ele>868.0</ele>
        <time>2019-07-31T10:44:10.130Z</time>
      </trkpt>
      <trkpt lat="43.00196" lon="-1.22059">
        <ele>868.0</ele>
        <time>2019-07-31T10:44:11.137Z</time>
      </trkpt>
      <trkpt lat="43.00196" lon="-1.22059167">
        <ele>868.0</ele>
        <time>2019-07-31T10:44:12.143Z</time>
      </trkpt>
      <trkpt lat="43.00196" lon="-1.220595">
        <ele>867.0</ele>
        <time>2019-07-31T10:44:13.147Z</time>
      </trkpt>
      <trkpt lat="43.00196" lon="-1.22059667">
        <ele>867.0</ele>
        <time>2019-07-31T10:44:14.153Z</time>
      </trkpt>
      <trkpt lat="43.00195833" lon="-1.220595">
        <ele>866.0</ele>
        <time>2019-07-31T10:44:15.159Z</time>
      </trkpt>
      <trkpt lat="43.00195667" lon="-1.22059167">
        <ele>866.0</ele>
        <time>2019-07-31T10:44:16.164Z</time>
      </trkpt>
      <trkpt lat="43.00195333" lon="-1.220585">
        <ele>866.0</ele>
        <time>2019-07-31T10:44:17.171Z</time>
      </trkpt>
      <trkpt lat="43.00195167" lon="-1.22058333">
        <ele>866.0</ele>
        <time>2019-07-31T10:44:18.178Z</time>
      </trkpt>
      <trkpt lat="43.00195" lon="-1.22058">
        <ele>866.0</ele>
        <time>2019-07-31T10:44:19.182Z</time>
      </trkpt>
      <trkpt lat="43.00195167" lon="-1.22058167">
        <ele>867.0</ele>
        <time>2019-07-31T10:44:20.062Z</time>
      </trkpt>
      <trkpt lat="43.00195333" lon="-1.22059167">
        <ele>867.0</ele>
        <time>2019-07-31T10:44:21.067Z</time>
      </trkpt>
      <trkpt lat="43.00195333" lon="-1.22060833">
        <ele>867.0</ele>
        <time>2019-07-31T10:44:22.071Z</time>
      </trkpt>
      <trkpt lat="43.00195333" lon="-1.22062833">
        <ele>867.0</ele>
        <time>2019-07-31T10:44:23.076Z</time>
      </trkpt>
      <trkpt lat="43.00195667" lon="-1.22064667">
        <ele>868.0</ele>
        <time>2019-07-31T10:44:24.081Z</time>
      </trkpt>
      <trkpt lat="43.00195833" lon="-1.22067">
        <ele>868.0</ele>
        <time>2019-07-31T10:44:25.086Z</time>
      </trkpt>
      <trkpt lat="43.00196167" lon="-1.22069167">
        <ele>868.0</ele>
        <time>2019-07-31T10:44:26.091Z</time>
      </trkpt>
      <trkpt lat="43.00196667" lon="-1.22070833">
        <ele>868.0</ele>
        <time>2019-07-31T10:44:27.096Z</time>
      </trkpt>
      <trkpt lat="43.00197333" lon="-1.22072833">
        <ele>868.0</ele>
        <time>2019-07-31T10:44:28.103Z</time>
      </trkpt>
      <trkpt lat="43.00197667" lon="-1.22074667">
        <ele>867.0</ele>
        <time>2019-07-31T10:44:29.108Z</time>
      </trkpt>
      <trkpt lat="43.00198167" lon="-1.220765">
        <ele>867.0</ele>
        <time>2019-07-31T10:44:30.115Z</time>
      </trkpt>
      <trkpt lat="43.00199" lon="-1.22078833">
        <ele>868.0</ele>
        <time>2019-07-31T10:44:31.119Z</time>
      </trkpt>
      <trkpt lat="43.00199667" lon="-1.22080833">
        <ele>868.0</ele>
        <time>2019-07-31T10:44:32.124Z</time>
      </trkpt>
      <trkpt lat="43.00200167" lon="-1.22083">
        <ele>868.0</ele>
        <time>2019-07-31T10:44:33.129Z</time>
      </trkpt>
      <trkpt lat="43.00200667" lon="-1.22084833">
        <ele>868.0</ele>
        <time>2019-07-31T10:44:34.133Z</time>
      </trkpt>
      <trkpt lat="43.00200667" lon="-1.22086833">
        <ele>868.0</ele>
        <time>2019-07-31T10:44:35.139Z</time>
      </trkpt>
      <trkpt lat="43.00200333" lon="-1.22088833">
        <ele>869.0</ele>
        <time>2019-07-31T10:44:36.143Z</time>
      </trkpt>
      <trkpt lat="43.00199833" lon="-1.220905">
        <ele>869.0</ele>
        <time>2019-07-31T10:44:37.147Z</time>
      </trkpt>
      <trkpt lat="43.00199167" lon="-1.22091333">
        <ele>869.0</ele>
        <time>2019-07-31T10:44:38.152Z</time>
      </trkpt>
      <trkpt lat="43.00198167" lon="-1.220915">
        <ele>869.0</ele>
        <time>2019-07-31T10:44:39.157Z</time>
      </trkpt>
      <trkpt lat="43.00197167" lon="-1.22090833">
        <ele>869.0</ele>
        <time>2019-07-31T10:44:40.164Z</time>
      </trkpt>
      <trkpt lat="43.00196167" lon="-1.22089833">
        <ele>869.0</ele>
        <time>2019-07-31T10:44:41.169Z</time>
      </trkpt>
      <trkpt lat="43.00194833" lon="-1.220885">
        <ele>869.0</ele>
        <time>2019-07-31T10:44:42.176Z</time>
      </trkpt>
      <trkpt lat="43.00193667" lon="-1.22086833">
        <ele>869.0</ele>
        <time>2019-07-31T10:44:43.182Z</time>
      </trkpt>
      <trkpt lat="43.001925" lon="-1.22085167">
        <ele>870.0</ele>
        <time>2019-07-31T10:44:44.061Z</time>
      </trkpt>
      <trkpt lat="43.00191333" lon="-1.22083333">
        <ele>870.0</ele>
        <time>2019-07-31T10:44:45.066Z</time>
      </trkpt>
      <trkpt lat="43.00190333" lon="-1.22081333">
        <ele>870.0</ele>
        <time>2019-07-31T10:44:46.071Z</time>
      </trkpt>
      <trkpt lat="43.00189333" lon="-1.220795">
        <ele>870.0</ele>
        <time>2019-07-31T10:44:47.077Z</time>
      </trkpt>
      <trkpt lat="43.00188333" lon="-1.22077667">
        <ele>871.0</ele>
        <time>2019-07-31T10:44:48.081Z</time>
      </trkpt>
      <trkpt lat="43.00187333" lon="-1.22075833">
        <ele>871.0</ele>
        <time>2019-07-31T10:44:49.087Z</time>
      </trkpt>
      <trkpt lat="43.00186167" lon="-1.22074">
        <ele>871.0</ele>
        <time>2019-07-31T10:44:50.092Z</time>
      </trkpt>
      <trkpt lat="43.00184833" lon="-1.22072333">
        <ele>871.0</ele>
        <time>2019-07-31T10:44:51.097Z</time>
      </trkpt>
      <trkpt lat="43.00183667" lon="-1.220705">
        <ele>871.0</ele>
        <time>2019-07-31T10:44:52.103Z</time>
      </trkpt>
      <trkpt lat="43.00182333" lon="-1.22068833">
        <ele>871.0</ele>
        <time>2019-07-31T10:44:53.110Z</time>
      </trkpt>
      <trkpt lat="43.00181" lon="-1.22067167">
        <ele>871.0</ele>
        <time>2019-07-31T10:44:54.115Z</time>
      </trkpt>
      <trkpt lat="43.0018" lon="-1.220655">
        <ele>871.0</ele>
        <time>2019-07-31T10:44:55.120Z</time>
      </trkpt>
      <trkpt lat="43.00178833" lon="-1.220635">
        <ele>871.0</ele>
        <time>2019-07-31T10:44:56.124Z</time>
      </trkpt>
      <trkpt lat="43.00177667" lon="-1.22061667">
        <ele>871.0</ele>
        <time>2019-07-31T10:44:57.129Z</time>
      </trkpt>
      <trkpt lat="43.00176333" lon="-1.2206">
        <ele>871.0</ele>
        <time>2019-07-31T10:44:58.135Z</time>
      </trkpt>
      <trkpt lat="43.00175" lon="-1.22058333">
        <ele>871.0</ele>
        <time>2019-07-31T10:44:59.139Z</time>
      </trkpt>
      <trkpt lat="43.00174" lon="-1.220565">
        <ele>871.0</ele>
        <time>2019-07-31T10:45:00.146Z</time>
      </trkpt>
      <trkpt lat="43.00173" lon="-1.22054667">
        <ele>871.0</ele>
        <time>2019-07-31T10:45:01.152Z</time>
      </trkpt>
      <trkpt lat="43.00171833" lon="-1.22053">
        <ele>871.0</ele>
        <time>2019-07-31T10:45:02.158Z</time>
      </trkpt>
      <trkpt lat="43.00170667" lon="-1.22051333">
        <ele>871.0</ele>
        <time>2019-07-31T10:45:03.162Z</time>
      </trkpt>
      <trkpt lat="43.001695" lon="-1.22049667">
        <ele>871.0</ele>
        <time>2019-07-31T10:45:04.167Z</time>
      </trkpt>
      <trkpt lat="43.00168167" lon="-1.22048">
        <ele>871.0</ele>
        <time>2019-07-31T10:45:05.174Z</time>
      </trkpt>
      <trkpt lat="43.00166667" lon="-1.220465">
        <ele>870.0</ele>
        <time>2019-07-31T10:45:06.182Z</time>
      </trkpt>
      <trkpt lat="43.00165167" lon="-1.22045333">
        <ele>870.0</ele>
        <time>2019-07-31T10:45:07.061Z</time>
      </trkpt>
      <trkpt lat="43.00163667" lon="-1.22044">
        <ele>870.0</ele>
        <time>2019-07-31T10:45:08.066Z</time>
      </trkpt>
      <trkpt lat="43.00162167" lon="-1.22042833">
        <ele>870.0</ele>
        <time>2019-07-31T10:45:09.072Z</time>
      </trkpt>
      <trkpt lat="43.00160667" lon="-1.22041833">
        <ele>870.0</ele>
        <time>2019-07-31T10:45:10.077Z</time>
      </trkpt>
      <trkpt lat="43.00159167" lon="-1.22041">
        <ele>870.0</ele>
        <time>2019-07-31T10:45:11.081Z</time>
      </trkpt>
      <trkpt lat="43.001575" lon="-1.2204">
        <ele>870.0</ele>
        <time>2019-07-31T10:45:12.087Z</time>
      </trkpt>
      <trkpt lat="43.00156167" lon="-1.22039167">
        <ele>870.0</ele>
        <time>2019-07-31T10:45:13.092Z</time>
      </trkpt>
      <trkpt lat="43.00154667" lon="-1.220385">
        <ele>869.0</ele>
        <time>2019-07-31T10:45:14.097Z</time>
      </trkpt>
      <trkpt lat="43.00153167" lon="-1.22038">
        <ele>869.0</ele>
        <time>2019-07-31T10:45:15.102Z</time>
      </trkpt>
      <trkpt lat="43.001515" lon="-1.22037833">
        <ele>869.0</ele>
        <time>2019-07-31T10:45:16.108Z</time>
      </trkpt>
      <trkpt lat="43.0015" lon="-1.22037667">
        <ele>869.0</ele>
        <time>2019-07-31T10:45:17.113Z</time>
      </trkpt>
      <trkpt lat="43.00148333" lon="-1.22037833">
        <ele>868.0</ele>
        <time>2019-07-31T10:45:18.119Z</time>
      </trkpt>
      <trkpt lat="43.00146667" lon="-1.22037667">
        <ele>868.0</ele>
        <time>2019-07-31T10:45:19.124Z</time>
      </trkpt>
      <trkpt lat="43.00145167" lon="-1.22037667">
        <ele>868.0</ele>
        <time>2019-07-31T10:45:20.130Z</time>
      </trkpt>
      <trkpt lat="43.001435" lon="-1.22037667">
        <ele>868.0</ele>
        <time>2019-07-31T10:45:21.134Z</time>
      </trkpt>
      <trkpt lat="43.00142" lon="-1.220375">
        <ele>867.0</ele>
        <time>2019-07-31T10:45:22.143Z</time>
      </trkpt>
      <trkpt lat="43.001405" lon="-1.22037">
        <ele>867.0</ele>
        <time>2019-07-31T10:45:23.147Z</time>
      </trkpt>
      <trkpt lat="43.00139" lon="-1.22036833">
        <ele>867.0</ele>
        <time>2019-07-31T10:45:24.153Z</time>
      </trkpt>
      <trkpt lat="43.00137333" lon="-1.22036667">
        <ele>867.0</ele>
        <time>2019-07-31T10:45:25.160Z</time>
      </trkpt>
      <trkpt lat="43.00135833" lon="-1.22036667">
        <ele>866.0</ele>
        <time>2019-07-31T10:45:26.164Z</time>
      </trkpt>
      <trkpt lat="43.001345" lon="-1.22036833">
        <ele>866.0</ele>
        <time>2019-07-31T10:45:27.167Z</time>
      </trkpt>
      <trkpt lat="43.00133" lon="-1.22036833">
        <ele>866.0</ele>
        <time>2019-07-31T10:45:28.173Z</time>
      </trkpt>
      <trkpt lat="43.001315" lon="-1.22037">
        <ele>865.0</ele>
        <time>2019-07-31T10:45:29.177Z</time>
      </trkpt>
      <trkpt lat="43.00129833" lon="-1.220365">
        <ele>864.0</ele>
        <time>2019-07-31T10:45:30.183Z</time>
      </trkpt>
      <trkpt lat="43.00128333" lon="-1.22036">
        <ele>864.0</ele>
        <time>2019-07-31T10:45:31.061Z</time>
      </trkpt>
      <trkpt lat="43.00126833" lon="-1.220355">
        <ele>864.0</ele>
        <time>2019-07-31T10:45:32.064Z</time>
      </trkpt>
      <trkpt lat="43.00125333" lon="-1.22035167">
        <ele>864.0</ele>
        <time>2019-07-31T10:45:33.069Z</time>
      </trkpt>
      <trkpt lat="43.00123833" lon="-1.22034833">
        <ele>863.0</ele>
        <time>2019-07-31T10:45:34.074Z</time>
      </trkpt>
      <trkpt lat="43.001225" lon="-1.22034833">
        <ele>863.0</ele>
        <time>2019-07-31T10:45:35.080Z</time>
      </trkpt>
      <trkpt lat="43.00121167" lon="-1.22034667">
        <ele>862.0</ele>
        <time>2019-07-31T10:45:36.084Z</time>
      </trkpt>
      <trkpt lat="43.00119667" lon="-1.22034">
        <ele>862.0</ele>
        <time>2019-07-31T10:45:37.091Z</time>
      </trkpt>
      <trkpt lat="43.001185" lon="-1.22033333">
        <ele>861.0</ele>
        <time>2019-07-31T10:45:38.097Z</time>
      </trkpt>
      <trkpt lat="43.00117333" lon="-1.220325">
        <ele>861.0</ele>
        <time>2019-07-31T10:45:39.102Z</time>
      </trkpt>
      <trkpt lat="43.00116333" lon="-1.22031333">
        <ele>860.0</ele>
        <time>2019-07-31T10:45:40.105Z</time>
      </trkpt>
      <trkpt lat="43.00115333" lon="-1.22029667">
        <ele>860.0</ele>
        <time>2019-07-31T10:45:41.109Z</time>
      </trkpt>
      <trkpt lat="43.00114667" lon="-1.22028">
        <ele>860.0</ele>
        <time>2019-07-31T10:45:42.115Z</time>
      </trkpt>
      <trkpt lat="43.001145" lon="-1.22026">
        <ele>859.0</ele>
        <time>2019-07-31T10:45:43.116Z</time>
      </trkpt>
      <trkpt lat="43.00114333" lon="-1.22024">
        <ele>859.0</ele>
        <time>2019-07-31T10:45:44.119Z</time>
      </trkpt>
      <trkpt lat="43.001145" lon="-1.220225">
        <ele>858.0</ele>
        <time>2019-07-31T10:45:45.122Z</time>
      </trkpt>
      <trkpt lat="43.00115" lon="-1.22020667">
        <ele>858.0</ele>
        <time>2019-07-31T10:45:46.124Z</time>
      </trkpt>
      <trkpt lat="43.00115833" lon="-1.22018667">
        <ele>857.0</ele>
        <time>2019-07-31T10:45:47.126Z</time>
      </trkpt>
      <trkpt lat="43.001165" lon="-1.22017">
        <ele>857.0</ele>
        <time>2019-07-31T10:45:48.131Z</time>
      </trkpt>
      <trkpt lat="43.00117167" lon="-1.22015333">
        <ele>857.0</ele>
        <time>2019-07-31T10:45:49.133Z</time>
      </trkpt>
      <trkpt lat="43.00118167" lon="-1.22013833">
        <ele>857.0</ele>
        <time>2019-07-31T10:45:50.136Z</time>
      </trkpt>
      <trkpt lat="43.00119167" lon="-1.220125">
        <ele>857.0</ele>
        <time>2019-07-31T10:45:51.139Z</time>
      </trkpt>
      <trkpt lat="43.00120167" lon="-1.22010833">
        <ele>856.0</ele>
        <time>2019-07-31T10:45:52.146Z</time>
      </trkpt>
      <trkpt lat="43.00121333" lon="-1.22009333">
        <ele>856.0</ele>
        <time>2019-07-31T10:45:53.152Z</time>
      </trkpt>
      <trkpt lat="43.001225" lon="-1.22007833">
        <ele>856.0</ele>
        <time>2019-07-31T10:45:54.157Z</time>
      </trkpt>
      <trkpt lat="43.001235" lon="-1.22006167">
        <ele>856.0</ele>
        <time>2019-07-31T10:45:55.163Z</time>
      </trkpt>
      <trkpt lat="43.001245" lon="-1.220045">
        <ele>856.0</ele>
        <time>2019-07-31T10:45:56.166Z</time>
      </trkpt>
      <trkpt lat="43.00125333" lon="-1.220025">
        <ele>856.0</ele>
        <time>2019-07-31T10:45:57.171Z</time>
      </trkpt>
      <trkpt lat="43.00126333" lon="-1.22001">
        <ele>855.0</ele>
        <time>2019-07-31T10:45:58.176Z</time>
      </trkpt>
      <trkpt lat="43.00127167" lon="-1.21999667">
        <ele>856.0</ele>
        <time>2019-07-31T10:45:59.183Z</time>
      </trkpt>
      <trkpt lat="43.00128167" lon="-1.21998">
        <ele>855.0</ele>
        <time>2019-07-31T10:46:00.186Z</time>
      </trkpt>
      <trkpt lat="43.00129333" lon="-1.21996333">
        <ele>855.0</ele>
        <time>2019-07-31T10:46:01.063Z</time>
      </trkpt>
      <trkpt lat="43.001305" lon="-1.21994667">
        <ele>855.0</ele>
        <time>2019-07-31T10:46:02.068Z</time>
      </trkpt>
      <trkpt lat="43.00131833" lon="-1.21993167">
        <ele>855.0</ele>
        <time>2019-07-31T10:46:03.073Z</time>
      </trkpt>
      <trkpt lat="43.00132667" lon="-1.21991333">
        <ele>855.0</ele>
        <time>2019-07-31T10:46:04.077Z</time>
      </trkpt>
      <trkpt lat="43.00133667" lon="-1.21989333">
        <ele>854.0</ele>
        <time>2019-07-31T10:46:05.081Z</time>
      </trkpt>
      <trkpt lat="43.00134667" lon="-1.21987333">
        <ele>854.0</ele>
        <time>2019-07-31T10:46:06.088Z</time>
      </trkpt>
      <trkpt lat="43.00136" lon="-1.21985333">
        <ele>853.0</ele>
        <time>2019-07-31T10:46:07.095Z</time>
      </trkpt>
      <trkpt lat="43.00137" lon="-1.219835">
        <ele>853.0</ele>
        <time>2019-07-31T10:46:08.101Z</time>
      </trkpt>
      <trkpt lat="43.00138" lon="-1.21981667">
        <ele>853.0</ele>
        <time>2019-07-31T10:46:09.106Z</time>
      </trkpt>
      <trkpt lat="43.00138667" lon="-1.21979833">
        <ele>853.0</ele>
        <time>2019-07-31T10:46:10.112Z</time>
      </trkpt>
      <trkpt lat="43.001395" lon="-1.21978167">
        <ele>853.0</ele>
        <time>2019-07-31T10:46:11.119Z</time>
      </trkpt>
      <trkpt lat="43.00140333" lon="-1.21976333">
        <ele>853.0</ele>
        <time>2019-07-31T10:46:12.123Z</time>
      </trkpt>
      <trkpt lat="43.00141333" lon="-1.219745">
        <ele>853.0</ele>
        <time>2019-07-31T10:46:13.128Z</time>
      </trkpt>
      <trkpt lat="43.00142167" lon="-1.21972833">
        <ele>853.0</ele>
        <time>2019-07-31T10:46:14.133Z</time>
      </trkpt>
      <trkpt lat="43.00142667" lon="-1.21971167">
        <ele>853.0</ele>
        <time>2019-07-31T10:46:15.135Z</time>
      </trkpt>
      <trkpt lat="43.00143167" lon="-1.219695">
        <ele>853.0</ele>
        <time>2019-07-31T10:46:16.140Z</time>
      </trkpt>
      <trkpt lat="43.00144" lon="-1.21967333">
        <ele>853.0</ele>
        <time>2019-07-31T10:46:17.145Z</time>
      </trkpt>
      <trkpt lat="43.00144167" lon="-1.21965">
        <ele>852.0</ele>
        <time>2019-07-31T10:46:18.152Z</time>
      </trkpt>
      <trkpt lat="43.001435" lon="-1.21962833">
        <ele>852.0</ele>
        <time>2019-07-31T10:46:19.156Z</time>
      </trkpt>
      <trkpt lat="43.00143" lon="-1.219605">
        <ele>852.0</ele>
        <time>2019-07-31T10:46:20.162Z</time>
      </trkpt>
      <trkpt lat="43.00142333" lon="-1.219585">
        <ele>852.0</ele>
        <time>2019-07-31T10:46:21.167Z</time>
      </trkpt>
      <trkpt lat="43.00141167" lon="-1.21956833">
        <ele>852.0</ele>
        <time>2019-07-31T10:46:22.173Z</time>
      </trkpt>
      <trkpt lat="43.00139833" lon="-1.21955167">
        <ele>851.0</ele>
        <time>2019-07-31T10:46:23.179Z</time>
      </trkpt>
      <trkpt lat="43.00138333" lon="-1.21954">
        <ele>851.0</ele>
        <time>2019-07-31T10:46:24.183Z</time>
      </trkpt>
      <trkpt lat="43.00136667" lon="-1.21952833">
        <ele>851.0</ele>
        <time>2019-07-31T10:46:25.063Z</time>
      </trkpt>
      <trkpt lat="43.00135167" lon="-1.21951833">
        <ele>850.0</ele>
        <time>2019-07-31T10:46:26.069Z</time>
      </trkpt>
      <trkpt lat="43.001335" lon="-1.21950833">
        <ele>850.0</ele>
        <time>2019-07-31T10:46:27.075Z</time>
      </trkpt>
      <trkpt lat="43.00131667" lon="-1.21950167">
        <ele>850.0</ele>
        <time>2019-07-31T10:46:28.080Z</time>
      </trkpt>
      <trkpt lat="43.0013" lon="-1.219495">
        <ele>850.0</ele>
        <time>2019-07-31T10:46:29.085Z</time>
      </trkpt>
      <trkpt lat="43.001285" lon="-1.21948833">
        <ele>850.0</ele>
        <time>2019-07-31T10:46:30.090Z</time>
      </trkpt>
      <trkpt lat="43.00126667" lon="-1.21948167">
        <ele>850.0</ele>
        <time>2019-07-31T10:46:31.097Z</time>
      </trkpt>
      <trkpt lat="43.00125167" lon="-1.219475">
        <ele>850.0</ele>
        <time>2019-07-31T10:46:32.105Z</time>
      </trkpt>
      <trkpt lat="43.001235" lon="-1.219465">
        <ele>850.0</ele>
        <time>2019-07-31T10:46:33.110Z</time>
      </trkpt>
      <trkpt lat="43.00121833" lon="-1.21945667">
        <ele>850.0</ele>
        <time>2019-07-31T10:46:34.116Z</time>
      </trkpt>
      <trkpt lat="43.00120333" lon="-1.21944667">
        <ele>851.0</ele>
        <time>2019-07-31T10:46:35.122Z</time>
      </trkpt>
      <trkpt lat="43.001185" lon="-1.21944">
        <ele>851.0</ele>
        <time>2019-07-31T10:46:36.125Z</time>
      </trkpt>
      <trkpt lat="43.00116833" lon="-1.21943333">
        <ele>851.0</ele>
        <time>2019-07-31T10:46:37.133Z</time>
      </trkpt>
      <trkpt lat="43.00115167" lon="-1.21942833">
        <ele>850.0</ele>
        <time>2019-07-31T10:46:38.140Z</time>
      </trkpt>
      <trkpt lat="43.001135" lon="-1.21942167">
        <ele>851.0</ele>
        <time>2019-07-31T10:46:39.145Z</time>
      </trkpt>
      <trkpt lat="43.00111833" lon="-1.21941333">
        <ele>851.0</ele>
        <time>2019-07-31T10:46:40.149Z</time>
      </trkpt>
      <trkpt lat="43.001105" lon="-1.219405">
        <ele>851.0</ele>
        <time>2019-07-31T10:46:41.153Z</time>
      </trkpt>
      <trkpt lat="43.00109" lon="-1.21939833">
        <ele>851.0</ele>
        <time>2019-07-31T10:46:42.160Z</time>
      </trkpt>
      <trkpt lat="43.00107333" lon="-1.21939167">
        <ele>851.0</ele>
        <time>2019-07-31T10:46:43.164Z</time>
      </trkpt>
      <trkpt lat="43.00105833" lon="-1.219385">
        <ele>851.0</ele>
        <time>2019-07-31T10:46:44.169Z</time>
      </trkpt>
      <trkpt lat="43.00104167" lon="-1.21938">
        <ele>851.0</ele>
        <time>2019-07-31T10:46:45.175Z</time>
      </trkpt>
      <trkpt lat="43.00102667" lon="-1.219375">
        <ele>850.0</ele>
        <time>2019-07-31T10:46:46.179Z</time>
      </trkpt>
      <trkpt lat="43.00101167" lon="-1.21936833">
        <ele>850.0</ele>
        <time>2019-07-31T10:46:47.183Z</time>
      </trkpt>
      <trkpt lat="43.00099667" lon="-1.21936167">
        <ele>849.0</ele>
        <time>2019-07-31T10:46:48.063Z</time>
      </trkpt>
      <trkpt lat="43.00098167" lon="-1.219355">
        <ele>850.0</ele>
        <time>2019-07-31T10:46:49.070Z</time>
      </trkpt>
      <trkpt lat="43.00096667" lon="-1.21935167">
        <ele>850.0</ele>
        <time>2019-07-31T10:46:50.076Z</time>
      </trkpt>
      <trkpt lat="43.00095167" lon="-1.21934667">
        <ele>850.0</ele>
        <time>2019-07-31T10:46:51.081Z</time>
      </trkpt>
      <trkpt lat="43.000935" lon="-1.21933833">
        <ele>849.0</ele>
        <time>2019-07-31T10:46:52.086Z</time>
      </trkpt>
      <trkpt lat="43.00092" lon="-1.21933333">
        <ele>849.0</ele>
        <time>2019-07-31T10:46:53.089Z</time>
      </trkpt>
      <trkpt lat="43.00090667" lon="-1.21932833">
        <ele>849.0</ele>
        <time>2019-07-31T10:46:54.095Z</time>
      </trkpt>
      <trkpt lat="43.00089333" lon="-1.219325">
        <ele>849.0</ele>
        <time>2019-07-31T10:46:55.102Z</time>
      </trkpt>
      <trkpt lat="43.00087833" lon="-1.21932167">
        <ele>848.0</ele>
        <time>2019-07-31T10:46:56.107Z</time>
      </trkpt>
      <trkpt lat="43.00086167" lon="-1.21931667">
        <ele>848.0</ele>
        <time>2019-07-31T10:46:57.111Z</time>
      </trkpt>
      <trkpt lat="43.00084667" lon="-1.21931">
        <ele>848.0</ele>
        <time>2019-07-31T10:46:58.115Z</time>
      </trkpt>
      <trkpt lat="43.00083333" lon="-1.21930333">
        <ele>848.0</ele>
        <time>2019-07-31T10:46:59.120Z</time>
      </trkpt>
      <trkpt lat="43.00081833" lon="-1.21929833">
        <ele>848.0</ele>
        <time>2019-07-31T10:47:00.125Z</time>
      </trkpt>
      <trkpt lat="43.000805" lon="-1.21929167">
        <ele>848.0</ele>
        <time>2019-07-31T10:47:01.132Z</time>
      </trkpt>
      <trkpt lat="43.00079167" lon="-1.219285">
        <ele>848.0</ele>
        <time>2019-07-31T10:47:02.139Z</time>
      </trkpt>
      <trkpt lat="43.00077833" lon="-1.21927833">
        <ele>847.0</ele>
        <time>2019-07-31T10:47:03.146Z</time>
      </trkpt>
      <trkpt lat="43.00076333" lon="-1.21927167">
        <ele>847.0</ele>
        <time>2019-07-31T10:47:04.151Z</time>
      </trkpt>
      <trkpt lat="43.00074833" lon="-1.219265">
        <ele>846.0</ele>
        <time>2019-07-31T10:47:05.156Z</time>
      </trkpt>
      <trkpt lat="43.00073333" lon="-1.21925833">
        <ele>847.0</ele>
        <time>2019-07-31T10:47:06.164Z</time>
      </trkpt>
      <trkpt lat="43.00071833" lon="-1.21925333">
        <ele>847.0</ele>
        <time>2019-07-31T10:47:07.170Z</time>
      </trkpt>
      <trkpt lat="43.000705" lon="-1.21925167">
        <ele>847.0</ele>
        <time>2019-07-31T10:47:08.176Z</time>
      </trkpt>
      <trkpt lat="43.00069167" lon="-1.21924667">
        <ele>846.0</ele>
        <time>2019-07-31T10:47:09.181Z</time>
      </trkpt>
      <trkpt lat="43.00067667" lon="-1.21924167">
        <ele>846.0</ele>
        <time>2019-07-31T10:47:10.186Z</time>
      </trkpt>
      <trkpt lat="43.00066167" lon="-1.21923667">
        <ele>846.0</ele>
        <time>2019-07-31T10:47:11.064Z</time>
      </trkpt>
      <trkpt lat="43.000645" lon="-1.21923167">
        <ele>846.0</ele>
        <time>2019-07-31T10:47:12.068Z</time>
      </trkpt>
      <trkpt lat="43.00063" lon="-1.21922833">
        <ele>846.0</ele>
        <time>2019-07-31T10:47:13.073Z</time>
      </trkpt>
      <trkpt lat="43.000615" lon="-1.21922167">
        <ele>846.0</ele>
        <time>2019-07-31T10:47:14.078Z</time>
      </trkpt>
      <trkpt lat="43.00060167" lon="-1.21921667">
        <ele>846.0</ele>
        <time>2019-07-31T10:47:15.082Z</time>
      </trkpt>
      <trkpt lat="43.00058667" lon="-1.21920833">
        <ele>846.0</ele>
        <time>2019-07-31T10:47:16.087Z</time>
      </trkpt>
      <trkpt lat="43.00057333" lon="-1.219205">
        <ele>846.0</ele>
        <time>2019-07-31T10:47:17.091Z</time>
      </trkpt>
      <trkpt lat="43.00055833" lon="-1.2192">
        <ele>845.0</ele>
        <time>2019-07-31T10:47:18.096Z</time>
      </trkpt>
      <trkpt lat="43.00054333" lon="-1.219195">
        <ele>845.0</ele>
        <time>2019-07-31T10:47:19.102Z</time>
      </trkpt>
      <trkpt lat="43.00052833" lon="-1.21919333">
        <ele>845.0</ele>
        <time>2019-07-31T10:47:20.108Z</time>
      </trkpt>
      <trkpt lat="43.00051333" lon="-1.21919">
        <ele>844.0</ele>
        <time>2019-07-31T10:47:21.114Z</time>
      </trkpt>
      <trkpt lat="43.00049833" lon="-1.21919">
        <ele>844.0</ele>
        <time>2019-07-31T10:47:22.120Z</time>
      </trkpt>
      <trkpt lat="43.00048333" lon="-1.21919">
        <ele>843.0</ele>
        <time>2019-07-31T10:47:23.124Z</time>
      </trkpt>
      <trkpt lat="43.00047" lon="-1.21919">
        <ele>843.0</ele>
        <time>2019-07-31T10:47:24.129Z</time>
      </trkpt>
      <trkpt lat="43.000455" lon="-1.21918667">
        <ele>843.0</ele>
        <time>2019-07-31T10:47:25.135Z</time>
      </trkpt>
      <trkpt lat="43.00044" lon="-1.21918667">
        <ele>842.0</ele>
        <time>2019-07-31T10:47:26.141Z</time>
      </trkpt>
      <trkpt lat="43.00042667" lon="-1.21918667">
        <ele>842.0</ele>
        <time>2019-07-31T10:47:27.148Z</time>
      </trkpt>
      <trkpt lat="43.00041167" lon="-1.219185">
        <ele>842.0</ele>
        <time>2019-07-31T10:47:28.155Z</time>
      </trkpt>
      <trkpt lat="43.00039833" lon="-1.21918">
        <ele>842.0</ele>
        <time>2019-07-31T10:47:29.160Z</time>
      </trkpt>
      <trkpt lat="43.00038333" lon="-1.21917667">
        <ele>842.0</ele>
        <time>2019-07-31T10:47:30.164Z</time>
      </trkpt>
      <trkpt lat="43.00036833" lon="-1.21917333">
        <ele>841.0</ele>
        <time>2019-07-31T10:47:31.170Z</time>
      </trkpt>
      <trkpt lat="43.00035333" lon="-1.21917167">
        <ele>841.0</ele>
        <time>2019-07-31T10:47:32.175Z</time>
      </trkpt>
      <trkpt lat="43.00033667" lon="-1.21917333">
        <ele>841.0</ele>
        <time>2019-07-31T10:47:33.181Z</time>
      </trkpt>
      <trkpt lat="43.00032167" lon="-1.21917333">
        <ele>841.0</ele>
        <time>2019-07-31T10:47:34.062Z</time>
      </trkpt>
      <trkpt lat="43.00030667" lon="-1.21917167">
        <ele>841.0</ele>
        <time>2019-07-31T10:47:35.067Z</time>
      </trkpt>
      <trkpt lat="43.00029167" lon="-1.21917167">
        <ele>840.0</ele>
        <time>2019-07-31T10:47:36.071Z</time>
      </trkpt>
      <trkpt lat="43.00027833" lon="-1.21917167">
        <ele>840.0</ele>
        <time>2019-07-31T10:47:37.075Z</time>
      </trkpt>
      <trkpt lat="43.000265" lon="-1.21917">
        <ele>840.0</ele>
        <time>2019-07-31T10:47:38.081Z</time>
      </trkpt>
      <trkpt lat="43.00025167" lon="-1.21916667">
        <ele>840.0</ele>
        <time>2019-07-31T10:47:39.087Z</time>
      </trkpt>
      <trkpt lat="43.00023667" lon="-1.21916667">
        <ele>840.0</ele>
        <time>2019-07-31T10:47:40.092Z</time>
      </trkpt>
      <trkpt lat="43.00022333" lon="-1.21916833">
        <ele>839.0</ele>
        <time>2019-07-31T10:47:41.099Z</time>
      </trkpt>
      <trkpt lat="43.00021" lon="-1.21917">
        <ele>839.0</ele>
        <time>2019-07-31T10:47:42.101Z</time>
      </trkpt>
      <trkpt lat="43.000195" lon="-1.21917">
        <ele>839.0</ele>
        <time>2019-07-31T10:47:43.105Z</time>
      </trkpt>
      <trkpt lat="43.00018167" lon="-1.21917">
        <ele>838.0</ele>
        <time>2019-07-31T10:47:44.112Z</time>
      </trkpt>
      <trkpt lat="43.00016667" lon="-1.21916833">
        <ele>837.0</ele>
        <time>2019-07-31T10:47:45.118Z</time>
      </trkpt>
      <trkpt lat="43.00015333" lon="-1.21917">
        <ele>837.0</ele>
        <time>2019-07-31T10:47:46.122Z</time>
      </trkpt>
      <trkpt lat="43.00014" lon="-1.21916833">
        <ele>837.0</ele>
        <time>2019-07-31T10:47:47.127Z</time>
      </trkpt>
      <trkpt lat="43.000125" lon="-1.21916833">
        <ele>837.0</ele>
        <time>2019-07-31T10:47:48.134Z</time>
      </trkpt>
      <trkpt lat="43.00011167" lon="-1.21916667">
        <ele>837.0</ele>
        <time>2019-07-31T10:47:49.140Z</time>
      </trkpt>
      <trkpt lat="43.00009667" lon="-1.219165">
        <ele>836.0</ele>
        <time>2019-07-31T10:47:50.145Z</time>
      </trkpt>
      <trkpt lat="43.00008333" lon="-1.219165">
        <ele>836.0</ele>
        <time>2019-07-31T10:47:51.150Z</time>
      </trkpt>
      <trkpt lat="43.00006833" lon="-1.21916333">
        <ele>836.0</ele>
        <time>2019-07-31T10:47:52.154Z</time>
      </trkpt>
      <trkpt lat="43.000055" lon="-1.219165">
        <ele>835.0</ele>
        <time>2019-07-31T10:47:53.159Z</time>
      </trkpt>
      <trkpt lat="43.00004167" lon="-1.219165">
        <ele>835.0</ele>
        <time>2019-07-31T10:47:54.164Z</time>
      </trkpt>
      <trkpt lat="43.00002833" lon="-1.219165">
        <ele>834.0</ele>
        <time>2019-07-31T10:47:55.170Z</time>
      </trkpt>
      <trkpt lat="43.00001333" lon="-1.21916">
        <ele>834.0</ele>
        <time>2019-07-31T10:47:56.177Z</time>
      </trkpt>
      <trkpt lat="43.00000167" lon="-1.21915833">
        <ele>834.0</ele>
        <time>2019-07-31T10:47:57.183Z</time>
      </trkpt>
      <trkpt lat="42.99998667" lon="-1.21915667">
        <ele>833.0</ele>
        <time>2019-07-31T10:47:58.063Z</time>
      </trkpt>
      <trkpt lat="42.999975" lon="-1.21915667">
        <ele>833.0</ele>
        <time>2019-07-31T10:47:59.069Z</time>
      </trkpt>
      <trkpt lat="42.99996167" lon="-1.219155">
        <ele>833.0</ele>
        <time>2019-07-31T10:48:00.072Z</time>
      </trkpt>
      <trkpt lat="42.99994833" lon="-1.219155">
        <ele>832.0</ele>
        <time>2019-07-31T10:48:01.077Z</time>
      </trkpt>
      <trkpt lat="42.999935" lon="-1.21915333">
        <ele>832.0</ele>
        <time>2019-07-31T10:48:02.083Z</time>
      </trkpt>
      <trkpt lat="42.99992167" lon="-1.21914833">
        <ele>832.0</ele>
        <time>2019-07-31T10:48:03.091Z</time>
      </trkpt>
      <trkpt lat="42.99990833" lon="-1.219145">
        <ele>832.0</ele>
        <time>2019-07-31T10:48:04.094Z</time>
      </trkpt>
      <trkpt lat="42.99989667" lon="-1.21914333">
        <ele>832.0</ele>
        <time>2019-07-31T10:48:05.099Z</time>
      </trkpt>
      <trkpt lat="42.99988333" lon="-1.21914167">
        <ele>831.0</ele>
        <time>2019-07-31T10:48:06.103Z</time>
      </trkpt>
      <trkpt lat="42.99987167" lon="-1.21913833">
        <ele>831.0</ele>
        <time>2019-07-31T10:48:07.106Z</time>
      </trkpt>
      <trkpt lat="42.99985833" lon="-1.21913833">
        <ele>831.0</ele>
        <time>2019-07-31T10:48:08.110Z</time>
      </trkpt>
      <trkpt lat="42.999845" lon="-1.219135">
        <ele>830.0</ele>
        <time>2019-07-31T10:48:09.115Z</time>
      </trkpt>
      <trkpt lat="42.99983167" lon="-1.21913167">
        <ele>829.0</ele>
        <time>2019-07-31T10:48:10.120Z</time>
      </trkpt>
      <trkpt lat="42.99982" lon="-1.21913">
        <ele>829.0</ele>
        <time>2019-07-31T10:48:11.126Z</time>
      </trkpt>
      <trkpt lat="42.99980667" lon="-1.21912833">
        <ele>829.0</ele>
        <time>2019-07-31T10:48:12.131Z</time>
      </trkpt>
      <trkpt lat="42.99979333" lon="-1.219125">
        <ele>829.0</ele>
        <time>2019-07-31T10:48:13.139Z</time>
      </trkpt>
      <trkpt lat="42.99978167" lon="-1.21912167">
        <ele>829.0</ele>
        <time>2019-07-31T10:48:14.144Z</time>
      </trkpt>
      <trkpt lat="42.99976833" lon="-1.21911833">
        <ele>828.0</ele>
        <time>2019-07-31T10:48:15.151Z</time>
      </trkpt>
      <trkpt lat="42.99975667" lon="-1.219115">
        <ele>828.0</ele>
        <time>2019-07-31T10:48:16.157Z</time>
      </trkpt>
      <trkpt lat="42.999745" lon="-1.21911">
        <ele>829.0</ele>
        <time>2019-07-31T10:48:17.164Z</time>
      </trkpt>
      <trkpt lat="42.99973333" lon="-1.21910833">
        <ele>829.0</ele>
        <time>2019-07-31T10:48:18.169Z</time>
      </trkpt>
      <trkpt lat="42.99972" lon="-1.219105">
        <ele>829.0</ele>
        <time>2019-07-31T10:48:19.176Z</time>
      </trkpt>
      <trkpt lat="42.99970833" lon="-1.21910333">
        <ele>828.0</ele>
        <time>2019-07-31T10:48:20.184Z</time>
      </trkpt>
      <trkpt lat="42.99969667" lon="-1.21910167">
        <ele>828.0</ele>
        <time>2019-07-31T10:48:21.065Z</time>
      </trkpt>
      <trkpt lat="42.99968333" lon="-1.21909833">
        <ele>828.0</ele>
        <time>2019-07-31T10:48:22.069Z</time>
      </trkpt>
      <trkpt lat="42.99967167" lon="-1.21909667">
        <ele>827.0</ele>
        <time>2019-07-31T10:48:23.075Z</time>
      </trkpt>
      <trkpt lat="42.99965833" lon="-1.21909333">
        <ele>827.0</ele>
        <time>2019-07-31T10:48:24.081Z</time>
      </trkpt>
      <trkpt lat="42.99964667" lon="-1.21909167">
        <ele>827.0</ele>
        <time>2019-07-31T10:48:25.087Z</time>
      </trkpt>
      <trkpt lat="42.99963333" lon="-1.21909">
        <ele>827.0</ele>
        <time>2019-07-31T10:48:26.091Z</time>
      </trkpt>
      <trkpt lat="42.99962167" lon="-1.21908833">
        <ele>826.0</ele>
        <time>2019-07-31T10:48:27.096Z</time>
      </trkpt>
      <trkpt lat="42.99960833" lon="-1.219085">
        <ele>825.0</ele>
        <time>2019-07-31T10:48:28.102Z</time>
      </trkpt>
      <trkpt lat="42.999595" lon="-1.219085">
        <ele>825.0</ele>
        <time>2019-07-31T10:48:29.106Z</time>
      </trkpt>
      <trkpt lat="42.99958333" lon="-1.219085">
        <ele>824.0</ele>
        <time>2019-07-31T10:48:30.111Z</time>
      </trkpt>
      <trkpt lat="42.99957" lon="-1.21908333">
        <ele>824.0</ele>
        <time>2019-07-31T10:48:31.117Z</time>
      </trkpt>
      <trkpt lat="42.99955667" lon="-1.21908333">
        <ele>823.0</ele>
        <time>2019-07-31T10:48:32.122Z</time>
      </trkpt>
      <trkpt lat="42.99954333" lon="-1.21908">
        <ele>822.0</ele>
        <time>2019-07-31T10:48:33.126Z</time>
      </trkpt>
      <trkpt lat="42.99953" lon="-1.21907833">
        <ele>822.0</ele>
        <time>2019-07-31T10:48:34.133Z</time>
      </trkpt>
      <trkpt lat="42.99951833" lon="-1.219075">
        <ele>822.0</ele>
        <time>2019-07-31T10:48:35.138Z</time>
      </trkpt>
      <trkpt lat="42.99950667" lon="-1.21907">
        <ele>822.0</ele>
        <time>2019-07-31T10:48:36.143Z</time>
      </trkpt>
      <trkpt lat="42.99949333" lon="-1.219065">
        <ele>822.0</ele>
        <time>2019-07-31T10:48:37.149Z</time>
      </trkpt>
      <trkpt lat="42.99948167" lon="-1.21906667">
        <ele>822.0</ele>
        <time>2019-07-31T10:48:38.156Z</time>
      </trkpt>
      <trkpt lat="42.99947" lon="-1.21906333">
        <ele>822.0</ele>
        <time>2019-07-31T10:48:39.161Z</time>
      </trkpt>
      <trkpt lat="42.99945833" lon="-1.21906">
        <ele>822.0</ele>
        <time>2019-07-31T10:48:40.166Z</time>
      </trkpt>
      <trkpt lat="42.99944667" lon="-1.21905833">
        <ele>821.0</ele>
        <time>2019-07-31T10:48:41.171Z</time>
      </trkpt>
      <trkpt lat="42.99943167" lon="-1.21905833">
        <ele>821.0</ele>
        <time>2019-07-31T10:48:42.179Z</time>
      </trkpt>
      <trkpt lat="42.99941833" lon="-1.21905667">
        <ele>820.0</ele>
        <time>2019-07-31T10:48:43.184Z</time>
      </trkpt>
      <trkpt lat="42.999405" lon="-1.21905333">
        <ele>820.0</ele>
        <time>2019-07-31T10:48:44.066Z</time>
      </trkpt>
      <trkpt lat="42.99939167" lon="-1.21905">
        <ele>820.0</ele>
        <time>2019-07-31T10:48:45.073Z</time>
      </trkpt>
      <trkpt lat="42.99937833" lon="-1.21905">
        <ele>819.0</ele>
        <time>2019-07-31T10:48:46.076Z</time>
      </trkpt>
      <trkpt lat="42.999365" lon="-1.21905">
        <ele>819.0</ele>
        <time>2019-07-31T10:48:47.079Z</time>
      </trkpt>
      <trkpt lat="42.99935167" lon="-1.21905167">
        <ele>819.0</ele>
        <time>2019-07-31T10:48:48.083Z</time>
      </trkpt>
      <trkpt lat="42.99933833" lon="-1.21905167">
        <ele>819.0</ele>
        <time>2019-07-31T10:48:49.087Z</time>
      </trkpt>
      <trkpt lat="42.999325" lon="-1.21905167">
        <ele>819.0</ele>
        <time>2019-07-31T10:48:50.092Z</time>
      </trkpt>
      <trkpt lat="42.99931" lon="-1.21904833">
        <ele>819.0</ele>
        <time>2019-07-31T10:48:51.101Z</time>
      </trkpt>
      <trkpt lat="42.99929667" lon="-1.21904833">
        <ele>818.0</ele>
        <time>2019-07-31T10:48:52.105Z</time>
      </trkpt>
      <trkpt lat="42.99928333" lon="-1.21904667">
        <ele>818.0</ele>
        <time>2019-07-31T10:48:53.110Z</time>
      </trkpt>
      <trkpt lat="42.99927" lon="-1.21904833">
        <ele>818.0</ele>
        <time>2019-07-31T10:48:54.116Z</time>
      </trkpt>
      <trkpt lat="42.99925667" lon="-1.21905">
        <ele>818.0</ele>
        <time>2019-07-31T10:48:55.121Z</time>
      </trkpt>
      <trkpt lat="42.99924333" lon="-1.21905">
        <ele>817.0</ele>
        <time>2019-07-31T10:48:56.125Z</time>
      </trkpt>
      <trkpt lat="42.99923" lon="-1.21905333">
        <ele>817.0</ele>
        <time>2019-07-31T10:48:57.128Z</time>
      </trkpt>
      <trkpt lat="42.99921667" lon="-1.21905667">
        <ele>817.0</ele>
        <time>2019-07-31T10:48:58.134Z</time>
      </trkpt>
      <trkpt lat="42.99920333" lon="-1.21906">
        <ele>816.0</ele>
        <time>2019-07-31T10:48:59.141Z</time>
      </trkpt>
      <trkpt lat="42.99919167" lon="-1.219065">
        <ele>816.0</ele>
        <time>2019-07-31T10:49:00.146Z</time>
      </trkpt>
      <trkpt lat="42.99917833" lon="-1.21907">
        <ele>816.0</ele>
        <time>2019-07-31T10:49:01.150Z</time>
      </trkpt>
      <trkpt lat="42.999165" lon="-1.21907333">
        <ele>815.0</ele>
        <time>2019-07-31T10:49:02.157Z</time>
      </trkpt>
      <trkpt lat="42.99915167" lon="-1.21907667">
        <ele>815.0</ele>
        <time>2019-07-31T10:49:03.161Z</time>
      </trkpt>
      <trkpt lat="42.99913833" lon="-1.21907833">
        <ele>815.0</ele>
        <time>2019-07-31T10:49:04.165Z</time>
      </trkpt>
      <trkpt lat="42.99912333" lon="-1.21908333">
        <ele>815.0</ele>
        <time>2019-07-31T10:49:05.171Z</time>
      </trkpt>
      <trkpt lat="42.99911" lon="-1.21909">
        <ele>815.0</ele>
        <time>2019-07-31T10:49:06.177Z</time>
      </trkpt>
      <trkpt lat="42.99909833" lon="-1.21909833">
        <ele>814.0</ele>
        <time>2019-07-31T10:49:07.183Z</time>
      </trkpt>
      <trkpt lat="42.99908333" lon="-1.21910333">
        <ele>814.0</ele>
        <time>2019-07-31T10:49:08.062Z</time>
      </trkpt>
      <trkpt lat="42.99907167" lon="-1.21911">
        <ele>814.0</ele>
        <time>2019-07-31T10:49:09.067Z</time>
      </trkpt>
      <trkpt lat="42.99905833" lon="-1.21911667">
        <ele>813.0</ele>
        <time>2019-07-31T10:49:10.074Z</time>
      </trkpt>
      <trkpt lat="42.99904667" lon="-1.21912333">
        <ele>813.0</ele>
        <time>2019-07-31T10:49:11.078Z</time>
      </trkpt>
      <trkpt lat="42.99903333" lon="-1.21912833">
        <ele>813.0</ele>
        <time>2019-07-31T10:49:12.084Z</time>
      </trkpt>
      <trkpt lat="42.99902167" lon="-1.21913">
        <ele>813.0</ele>
        <time>2019-07-31T10:49:13.088Z</time>
      </trkpt>
      <trkpt lat="42.99900833" lon="-1.219135">
        <ele>813.0</ele>
        <time>2019-07-31T10:49:14.093Z</time>
      </trkpt>
      <trkpt lat="42.998995" lon="-1.21913833">
        <ele>813.0</ele>
        <time>2019-07-31T10:49:15.098Z</time>
      </trkpt>
      <trkpt lat="42.99898333" lon="-1.219145">
        <ele>812.0</ele>
        <time>2019-07-31T10:49:16.104Z</time>
      </trkpt>
      <trkpt lat="42.99897" lon="-1.21915">
        <ele>812.0</ele>
        <time>2019-07-31T10:49:17.110Z</time>
      </trkpt>
      <trkpt lat="42.99895833" lon="-1.21915667">
        <ele>812.0</ele>
        <time>2019-07-31T10:49:18.115Z</time>
      </trkpt>
      <trkpt lat="42.998945" lon="-1.21916333">
        <ele>812.0</ele>
        <time>2019-07-31T10:49:19.120Z</time>
      </trkpt>
      <trkpt lat="42.99893167" lon="-1.21916833">
        <ele>811.0</ele>
        <time>2019-07-31T10:49:20.125Z</time>
      </trkpt>
      <trkpt lat="42.99892" lon="-1.21917167">
        <ele>811.0</ele>
        <time>2019-07-31T10:49:21.130Z</time>
      </trkpt>
      <trkpt lat="42.998905" lon="-1.219175">
        <ele>811.0</ele>
        <time>2019-07-31T10:49:22.137Z</time>
      </trkpt>
      <trkpt lat="42.99889167" lon="-1.21918">
        <ele>811.0</ele>
        <time>2019-07-31T10:49:23.143Z</time>
      </trkpt>
      <trkpt lat="42.99887833" lon="-1.21918333">
        <ele>811.0</ele>
        <time>2019-07-31T10:49:24.148Z</time>
      </trkpt>
      <trkpt lat="42.99886333" lon="-1.21918833">
        <ele>811.0</ele>
        <time>2019-07-31T10:49:25.153Z</time>
      </trkpt>
      <trkpt lat="42.99885" lon="-1.21919333">
        <ele>810.0</ele>
        <time>2019-07-31T10:49:26.159Z</time>
      </trkpt>
      <trkpt lat="42.99883833" lon="-1.21919833">
        <ele>810.0</ele>
        <time>2019-07-31T10:49:27.163Z</time>
      </trkpt>
      <trkpt lat="42.99882333" lon="-1.2192">
        <ele>810.0</ele>
        <time>2019-07-31T10:49:28.165Z</time>
      </trkpt>
      <trkpt lat="42.99881" lon="-1.21920333">
        <ele>810.0</ele>
        <time>2019-07-31T10:49:29.169Z</time>
      </trkpt>
      <trkpt lat="42.99879667" lon="-1.21920333">
        <ele>810.0</ele>
        <time>2019-07-31T10:49:30.174Z</time>
      </trkpt>
      <trkpt lat="42.99878333" lon="-1.2192">
        <ele>810.0</ele>
        <time>2019-07-31T10:49:31.180Z</time>
      </trkpt>
      <trkpt lat="42.99876833" lon="-1.21919667">
        <ele>809.0</ele>
        <time>2019-07-31T10:49:32.062Z</time>
      </trkpt>
      <trkpt lat="42.99875833" lon="-1.21919333">
        <ele>809.0</ele>
        <time>2019-07-31T10:49:33.068Z</time>
      </trkpt>
      <trkpt lat="42.99874667" lon="-1.21918667">
        <ele>809.0</ele>
        <time>2019-07-31T10:49:34.075Z</time>
      </trkpt>
      <trkpt lat="42.99873333" lon="-1.21917833">
        <ele>808.0</ele>
        <time>2019-07-31T10:49:35.081Z</time>
      </trkpt>
      <trkpt lat="42.99872333" lon="-1.21916833">
        <ele>808.0</ele>
        <time>2019-07-31T10:49:36.085Z</time>
      </trkpt>
      <trkpt lat="42.99871333" lon="-1.21915833">
        <ele>807.0</ele>
        <time>2019-07-31T10:49:37.092Z</time>
      </trkpt>
      <trkpt lat="42.99870333" lon="-1.21914833">
        <ele>807.0</ele>
        <time>2019-07-31T10:49:38.098Z</time>
      </trkpt>
      <trkpt lat="42.99869333" lon="-1.21913667">
        <ele>807.0</ele>
        <time>2019-07-31T10:49:39.102Z</time>
      </trkpt>
      <trkpt lat="42.99868333" lon="-1.219125">
        <ele>806.0</ele>
        <time>2019-07-31T10:49:40.108Z</time>
      </trkpt>
      <trkpt lat="42.998675" lon="-1.21911333">
        <ele>806.0</ele>
        <time>2019-07-31T10:49:41.113Z</time>
      </trkpt>
      <trkpt lat="42.998665" lon="-1.21910333">
        <ele>805.0</ele>
        <time>2019-07-31T10:49:42.118Z</time>
      </trkpt>
      <trkpt lat="42.99865667" lon="-1.21909">
        <ele>805.0</ele>
        <time>2019-07-31T10:49:43.123Z</time>
      </trkpt>
      <trkpt lat="42.99864833" lon="-1.21907833">
        <ele>805.0</ele>
        <time>2019-07-31T10:49:44.128Z</time>
      </trkpt>
      <trkpt lat="42.99863833" lon="-1.219065">
        <ele>804.0</ele>
        <time>2019-07-31T10:49:45.134Z</time>
      </trkpt>
      <trkpt lat="42.99863" lon="-1.219055">
        <ele>804.0</ele>
        <time>2019-07-31T10:49:46.140Z</time>
      </trkpt>
      <trkpt lat="42.998625" lon="-1.21904167">
        <ele>804.0</ele>
        <time>2019-07-31T10:49:47.147Z</time>
      </trkpt>
      <trkpt lat="42.99861833" lon="-1.219025">
        <ele>803.0</ele>
        <time>2019-07-31T10:49:48.152Z</time>
      </trkpt>
      <trkpt lat="42.998615" lon="-1.21901333">
        <ele>803.0</ele>
        <time>2019-07-31T10:49:49.158Z</time>
      </trkpt>
      <trkpt lat="42.99861167" lon="-1.219">
        <ele>803.0</ele>
        <time>2019-07-31T10:49:50.163Z</time>
      </trkpt>
      <trkpt lat="42.99861167" lon="-1.21898667">
        <ele>803.0</ele>
        <time>2019-07-31T10:49:51.166Z</time>
      </trkpt>
      <trkpt lat="42.99860667" lon="-1.21897667">
        <ele>803.0</ele>
        <time>2019-07-31T10:49:52.170Z</time>
      </trkpt>
      <trkpt lat="42.99860333" lon="-1.21896333">
        <ele>803.0</ele>
        <time>2019-07-31T10:49:53.175Z</time>
      </trkpt>
      <trkpt lat="42.99859833" lon="-1.21895167">
        <ele>802.0</ele>
        <time>2019-07-31T10:49:54.180Z</time>
      </trkpt>
      <trkpt lat="42.99859167" lon="-1.21894167">
        <ele>803.0</ele>
        <time>2019-07-31T10:49:55.184Z</time>
      </trkpt>
      <trkpt lat="42.99859" lon="-1.21892667">
        <ele>803.0</ele>
        <time>2019-07-31T10:49:56.063Z</time>
      </trkpt>
      <trkpt lat="42.99859" lon="-1.21891">
        <ele>802.0</ele>
        <time>2019-07-31T10:49:57.069Z</time>
      </trkpt>
      <trkpt lat="42.99858833" lon="-1.218895">
        <ele>802.0</ele>
        <time>2019-07-31T10:49:58.074Z</time>
      </trkpt>
      <trkpt lat="42.99858833" lon="-1.21887833">
        <ele>802.0</ele>
        <time>2019-07-31T10:49:59.079Z</time>
      </trkpt>
      <trkpt lat="42.99858833" lon="-1.21886333">
        <ele>802.0</ele>
        <time>2019-07-31T10:50:00.083Z</time>
      </trkpt>
      <trkpt lat="42.99858833" lon="-1.21885">
        <ele>802.0</ele>
        <time>2019-07-31T10:50:01.088Z</time>
      </trkpt>
      <trkpt lat="42.99858833" lon="-1.21883667">
        <ele>802.0</ele>
        <time>2019-07-31T10:50:02.092Z</time>
      </trkpt>
      <trkpt lat="42.99859333" lon="-1.218825">
        <ele>803.0</ele>
        <time>2019-07-31T10:50:03.096Z</time>
      </trkpt>
      <trkpt lat="42.998595" lon="-1.218815">
        <ele>803.0</ele>
        <time>2019-07-31T10:50:04.101Z</time>
      </trkpt>
      <trkpt lat="42.99859667" lon="-1.21880667">
        <ele>803.0</ele>
        <time>2019-07-31T10:50:05.106Z</time>
      </trkpt>
      <trkpt lat="42.9986" lon="-1.21880333">
        <ele>802.0</ele>
        <time>2019-07-31T10:50:06.112Z</time>
      </trkpt>
      <trkpt lat="42.9986" lon="-1.21879667">
        <ele>802.0</ele>
        <time>2019-07-31T10:50:07.118Z</time>
      </trkpt>
      <trkpt lat="42.99859667" lon="-1.218795">
        <ele>802.0</ele>
        <time>2019-07-31T10:50:08.121Z</time>
      </trkpt>
      <trkpt lat="42.99859333" lon="-1.21879333">
        <ele>802.0</ele>
        <time>2019-07-31T10:50:09.125Z</time>
      </trkpt>
      <trkpt lat="42.998595" lon="-1.21879333">
        <ele>802.0</ele>
        <time>2019-07-31T10:50:10.131Z</time>
      </trkpt>
      <trkpt lat="42.99859667" lon="-1.21879333">
        <ele>803.0</ele>
        <time>2019-07-31T10:50:11.136Z</time>
      </trkpt>
      <trkpt lat="42.99859667" lon="-1.21879333">
        <ele>803.0</ele>
        <time>2019-07-31T10:50:12.142Z</time>
      </trkpt>
      <trkpt lat="42.99859667" lon="-1.21879333">
        <ele>804.0</ele>
        <time>2019-07-31T10:50:13.147Z</time>
      </trkpt>
      <trkpt lat="42.99859833" lon="-1.218795">
        <ele>804.0</ele>
        <time>2019-07-31T10:50:14.154Z</time>
      </trkpt>
      <trkpt lat="42.99860167" lon="-1.21879333">
        <ele>805.0</ele>
        <time>2019-07-31T10:50:15.161Z</time>
      </trkpt>
      <trkpt lat="42.99860333" lon="-1.21879667">
        <ele>806.0</ele>
        <time>2019-07-31T10:50:16.167Z</time>
      </trkpt>
      <trkpt lat="42.99860333" lon="-1.21879667">
        <ele>807.0</ele>
        <time>2019-07-31T10:50:17.173Z</time>
      </trkpt>
      <trkpt lat="42.99860333" lon="-1.21879667">
        <ele>807.0</ele>
        <time>2019-07-31T10:50:18.177Z</time>
      </trkpt>
      <trkpt lat="42.99860333" lon="-1.218795">
        <ele>807.0</ele>
        <time>2019-07-31T10:50:19.184Z</time>
      </trkpt>
      <trkpt lat="42.998605" lon="-1.218795">
        <ele>807.0</ele>
        <time>2019-07-31T10:50:20.064Z</time>
      </trkpt>
      <trkpt lat="42.998605" lon="-1.218795">
        <ele>807.0</ele>
        <time>2019-07-31T10:50:21.068Z</time>
      </trkpt>
      <trkpt lat="42.998605" lon="-1.21879667">
        <ele>807.0</ele>
        <time>2019-07-31T10:50:22.074Z</time>
      </trkpt>
      <trkpt lat="42.99860667" lon="-1.21879833">
        <ele>807.0</ele>
        <time>2019-07-31T10:50:23.079Z</time>
      </trkpt>
      <trkpt lat="42.99860667" lon="-1.21879667">
        <ele>808.0</ele>
        <time>2019-07-31T10:50:24.084Z</time>
      </trkpt>
      <trkpt lat="42.99860833" lon="-1.21879667">
        <ele>808.0</ele>
        <time>2019-07-31T10:50:25.088Z</time>
      </trkpt>
      <trkpt lat="42.99860833" lon="-1.218795">
        <ele>809.0</ele>
        <time>2019-07-31T10:50:26.093Z</time>
      </trkpt>
      <trkpt lat="42.99861" lon="-1.21879667">
        <ele>809.0</ele>
        <time>2019-07-31T10:50:27.100Z</time>
      </trkpt>
      <trkpt lat="42.99861167" lon="-1.21879833">
        <ele>811.0</ele>
        <time>2019-07-31T10:50:28.105Z</time>
      </trkpt>
      <trkpt lat="42.998615" lon="-1.21880167">
        <ele>812.0</ele>
        <time>2019-07-31T10:50:29.110Z</time>
      </trkpt>
      <trkpt lat="42.99861667" lon="-1.21880167">
        <ele>812.0</ele>
        <time>2019-07-31T10:50:30.116Z</time>
      </trkpt>
      <trkpt lat="42.998615" lon="-1.21880333">
        <ele>813.0</ele>
        <time>2019-07-31T10:50:31.116Z</time>
      </trkpt>
      <trkpt lat="42.99861667" lon="-1.218805">
        <ele>814.0</ele>
        <time>2019-07-31T10:50:32.119Z</time>
      </trkpt>
      <trkpt lat="42.99861667" lon="-1.21880833">
        <ele>814.0</ele>
        <time>2019-07-31T10:50:33.122Z</time>
      </trkpt>
      <trkpt lat="42.99861833" lon="-1.21881">
        <ele>815.0</ele>
        <time>2019-07-31T10:50:34.125Z</time>
      </trkpt>
      <trkpt lat="42.99861833" lon="-1.21881">
        <ele>816.0</ele>
        <time>2019-07-31T10:50:35.127Z</time>
      </trkpt>
      <trkpt lat="42.99861833" lon="-1.21880833">
        <ele>816.0</ele>
        <time>2019-07-31T10:50:36.129Z</time>
      </trkpt>
      <trkpt lat="42.99861833" lon="-1.21881">
        <ele>817.0</ele>
        <time>2019-07-31T10:50:37.136Z</time>
      </trkpt>
      <trkpt lat="42.99861667" lon="-1.21881">
        <ele>817.0</ele>
        <time>2019-07-31T10:50:38.140Z</time>
      </trkpt>
      <trkpt lat="42.99861667" lon="-1.21881">
        <ele>817.0</ele>
        <time>2019-07-31T10:50:39.146Z</time>
      </trkpt>
      <trkpt lat="42.99861833" lon="-1.21881167">
        <ele>817.0</ele>
        <time>2019-07-31T10:50:40.153Z</time>
      </trkpt>
      <trkpt lat="42.99861833" lon="-1.21881667">
        <ele>816.0</ele>
        <time>2019-07-31T10:50:41.160Z</time>
      </trkpt>
      <trkpt lat="42.99861667" lon="-1.218815">
        <ele>816.0</ele>
        <time>2019-07-31T10:50:42.164Z</time>
      </trkpt>
      <trkpt lat="42.998615" lon="-1.218815">
        <ele>816.0</ele>
        <time>2019-07-31T10:50:43.169Z</time>
      </trkpt>
      <trkpt lat="42.998615" lon="-1.21881333">
        <ele>815.0</ele>
        <time>2019-07-31T10:50:44.175Z</time>
      </trkpt>
      <trkpt lat="42.998615" lon="-1.21881167">
        <ele>815.0</ele>
        <time>2019-07-31T10:50:45.181Z</time>
      </trkpt>
      <trkpt lat="42.99861333" lon="-1.21881">
        <ele>815.0</ele>
        <time>2019-07-31T10:50:46.185Z</time>
      </trkpt>
      <trkpt lat="42.99861333" lon="-1.21880667">
        <ele>815.0</ele>
        <time>2019-07-31T10:50:47.064Z</time>
      </trkpt>
      <trkpt lat="42.99861" lon="-1.21880167">
        <ele>815.0</ele>
        <time>2019-07-31T10:50:48.070Z</time>
      </trkpt>
      <trkpt lat="42.99860833" lon="-1.2188">
        <ele>814.0</ele>
        <time>2019-07-31T10:50:49.075Z</time>
      </trkpt>
      <trkpt lat="42.99860333" lon="-1.21880167">
        <ele>814.0</ele>
        <time>2019-07-31T10:50:50.081Z</time>
      </trkpt>
      <trkpt lat="42.9986" lon="-1.21880833">
        <ele>814.0</ele>
        <time>2019-07-31T10:50:51.086Z</time>
      </trkpt>
      <trkpt lat="42.99859833" lon="-1.21881">
        <ele>814.0</ele>
        <time>2019-07-31T10:50:52.090Z</time>
      </trkpt>
      <trkpt lat="42.99859333" lon="-1.21881167">
        <ele>813.0</ele>
        <time>2019-07-31T10:50:53.097Z</time>
      </trkpt>
      <trkpt lat="42.99859" lon="-1.21881333">
        <ele>812.0</ele>
        <time>2019-07-31T10:50:54.100Z</time>
      </trkpt>
      <trkpt lat="42.99858833" lon="-1.21881333">
        <ele>812.0</ele>
        <time>2019-07-31T10:50:55.104Z</time>
      </trkpt>
      <trkpt lat="42.99858333" lon="-1.21881333">
        <ele>811.0</ele>
        <time>2019-07-31T10:50:56.108Z</time>
      </trkpt>
      <trkpt lat="42.99858167" lon="-1.21881667">
        <ele>810.0</ele>
        <time>2019-07-31T10:50:57.113Z</time>
      </trkpt>
      <trkpt lat="42.99858" lon="-1.21882">
        <ele>809.0</ele>
        <time>2019-07-31T10:50:58.118Z</time>
      </trkpt>
      <trkpt lat="42.99857833" lon="-1.21882">
        <ele>809.0</ele>
        <time>2019-07-31T10:50:59.123Z</time>
      </trkpt>
      <trkpt lat="42.99857833" lon="-1.21882">
        <ele>809.0</ele>
        <time>2019-07-31T10:51:00.126Z</time>
      </trkpt>
      <trkpt lat="42.99857833" lon="-1.21881833">
        <ele>809.0</ele>
        <time>2019-07-31T10:51:01.133Z</time>
      </trkpt>
      <trkpt lat="42.99858167" lon="-1.21881667">
        <ele>809.0</ele>
        <time>2019-07-31T10:51:02.140Z</time>
      </trkpt>
      <trkpt lat="42.99858" lon="-1.21882">
        <ele>809.0</ele>
        <time>2019-07-31T10:51:03.147Z</time>
      </trkpt>
      <trkpt lat="42.99857667" lon="-1.218825">
        <ele>808.0</ele>
        <time>2019-07-31T10:51:04.153Z</time>
      </trkpt>
      <trkpt lat="42.99857333" lon="-1.21883333">
        <ele>808.0</ele>
        <time>2019-07-31T10:51:05.159Z</time>
      </trkpt>
      <trkpt lat="42.99856667" lon="-1.218845">
        <ele>808.0</ele>
        <time>2019-07-31T10:51:06.164Z</time>
      </trkpt>
      <trkpt lat="42.99856167" lon="-1.21885667">
        <ele>807.0</ele>
        <time>2019-07-31T10:51:07.168Z</time>
      </trkpt>
      <trkpt lat="42.998555" lon="-1.21886833">
        <ele>808.0</ele>
        <time>2019-07-31T10:51:08.171Z</time>
      </trkpt>
      <trkpt lat="42.99855167" lon="-1.21888667">
        <ele>808.0</ele>
        <time>2019-07-31T10:51:09.177Z</time>
      </trkpt>
      <trkpt lat="42.99854667" lon="-1.21890333">
        <ele>808.0</ele>
        <time>2019-07-31T10:51:10.182Z</time>
      </trkpt>
      <trkpt lat="42.99854333" lon="-1.21891333">
        <ele>808.0</ele>
        <time>2019-07-31T10:51:11.061Z</time>
      </trkpt>
      <trkpt lat="42.99854" lon="-1.21892167">
        <ele>808.0</ele>
        <time>2019-07-31T10:51:12.064Z</time>
      </trkpt>
      <trkpt lat="42.998535" lon="-1.21893333">
        <ele>807.0</ele>
        <time>2019-07-31T10:51:13.070Z</time>
      </trkpt>
      <trkpt lat="42.99853167" lon="-1.218945">
        <ele>807.0</ele>
        <time>2019-07-31T10:51:14.074Z</time>
      </trkpt>
      <trkpt lat="42.99852833" lon="-1.21896167">
        <ele>806.0</ele>
        <time>2019-07-31T10:51:15.077Z</time>
      </trkpt>
      <trkpt lat="42.99852167" lon="-1.218975">
        <ele>806.0</ele>
        <time>2019-07-31T10:51:16.081Z</time>
      </trkpt>
      <trkpt lat="42.99851667" lon="-1.21899">
        <ele>806.0</ele>
        <time>2019-07-31T10:51:17.086Z</time>
      </trkpt>
      <trkpt lat="42.99850833" lon="-1.21900167">
        <ele>806.0</ele>
        <time>2019-07-31T10:51:18.092Z</time>
      </trkpt>
      <trkpt lat="42.9985" lon="-1.21902167">
        <ele>807.0</ele>
        <time>2019-07-31T10:51:19.097Z</time>
      </trkpt>
      <trkpt lat="42.99849167" lon="-1.21904">
        <ele>807.0</ele>
        <time>2019-07-31T10:51:20.104Z</time>
      </trkpt>
      <trkpt lat="42.99848333" lon="-1.21905667">
        <ele>807.0</ele>
        <time>2019-07-31T10:51:21.107Z</time>
      </trkpt>
      <trkpt lat="42.998475" lon="-1.219075">
        <ele>807.0</ele>
        <time>2019-07-31T10:51:22.110Z</time>
      </trkpt>
      <trkpt lat="42.99847" lon="-1.219095">
        <ele>807.0</ele>
        <time>2019-07-31T10:51:23.115Z</time>
      </trkpt>
      <trkpt lat="42.99846667" lon="-1.21911667">
        <ele>807.0</ele>
        <time>2019-07-31T10:51:24.121Z</time>
      </trkpt>
      <trkpt lat="42.99846167" lon="-1.21913667">
        <ele>807.0</ele>
        <time>2019-07-31T10:51:25.123Z</time>
      </trkpt>
      <trkpt lat="42.99845833" lon="-1.219155">
        <ele>806.0</ele>
        <time>2019-07-31T10:51:26.129Z</time>
      </trkpt>
      <trkpt lat="42.998455" lon="-1.219175">
        <ele>806.0</ele>
        <time>2019-07-31T10:51:27.131Z</time>
      </trkpt>
      <trkpt lat="42.99845" lon="-1.21919667">
        <ele>805.0</ele>
        <time>2019-07-31T10:51:28.136Z</time>
      </trkpt>
      <trkpt lat="42.998445" lon="-1.219215">
        <ele>805.0</ele>
        <time>2019-07-31T10:51:29.142Z</time>
      </trkpt>
      <trkpt lat="42.99844" lon="-1.21923667">
        <ele>804.0</ele>
        <time>2019-07-31T10:51:30.149Z</time>
      </trkpt>
      <trkpt lat="42.998435" lon="-1.21925833">
        <ele>804.0</ele>
        <time>2019-07-31T10:51:31.155Z</time>
      </trkpt>
      <trkpt lat="42.99843167" lon="-1.21927833">
        <ele>803.0</ele>
        <time>2019-07-31T10:51:32.160Z</time>
      </trkpt>
      <trkpt lat="42.99842667" lon="-1.21929667">
        <ele>803.0</ele>
        <time>2019-07-31T10:51:33.165Z</time>
      </trkpt>
      <trkpt lat="42.99842167" lon="-1.219315">
        <ele>803.0</ele>
        <time>2019-07-31T10:51:34.171Z</time>
      </trkpt>
      <trkpt lat="42.99842167" lon="-1.21933167">
        <ele>803.0</ele>
        <time>2019-07-31T10:51:35.179Z</time>
      </trkpt>
      <trkpt lat="42.99841833" lon="-1.21934833">
        <ele>803.0</ele>
        <time>2019-07-31T10:51:36.184Z</time>
      </trkpt>
      <trkpt lat="42.998415" lon="-1.219365">
        <ele>803.0</ele>
        <time>2019-07-31T10:51:37.063Z</time>
      </trkpt>
      <trkpt lat="42.99841167" lon="-1.21937333">
        <ele>804.0</ele>
        <time>2019-07-31T10:51:38.069Z</time>
      </trkpt>
      <trkpt lat="42.99841" lon="-1.21937833">
        <ele>804.0</ele>
        <time>2019-07-31T10:51:39.076Z</time>
      </trkpt>
      <trkpt lat="42.99840833" lon="-1.219385">
        <ele>804.0</ele>
        <time>2019-07-31T10:51:40.080Z</time>
      </trkpt>
      <trkpt lat="42.99840667" lon="-1.21938667">
        <ele>805.0</ele>
        <time>2019-07-31T10:51:41.084Z</time>
      </trkpt>
      <trkpt lat="42.99840833" lon="-1.21938833">
        <ele>805.0</ele>
        <time>2019-07-31T10:51:42.088Z</time>
      </trkpt>
      <trkpt lat="42.99841" lon="-1.219385">
        <ele>804.0</ele>
        <time>2019-07-31T10:51:43.093Z</time>
      </trkpt>
      <trkpt lat="42.99840667" lon="-1.21938333">
        <ele>804.0</ele>
        <time>2019-07-31T10:51:44.099Z</time>
      </trkpt>
      <trkpt lat="42.99840667" lon="-1.21938167">
        <ele>804.0</ele>
        <time>2019-07-31T10:51:45.104Z</time>
      </trkpt>
      <trkpt lat="42.99841" lon="-1.21937667">
        <ele>803.0</ele>
        <time>2019-07-31T10:51:46.108Z</time>
      </trkpt>
      <trkpt lat="42.99840667" lon="-1.21937667">
        <ele>803.0</ele>
        <time>2019-07-31T10:51:47.112Z</time>
      </trkpt>
      <trkpt lat="42.99840833" lon="-1.219375">
        <ele>803.0</ele>
        <time>2019-07-31T10:51:48.116Z</time>
      </trkpt>
      <trkpt lat="42.99840833" lon="-1.21937833">
        <ele>803.0</ele>
        <time>2019-07-31T10:51:49.121Z</time>
      </trkpt>
      <trkpt lat="42.99840833" lon="-1.21938667">
        <ele>802.0</ele>
        <time>2019-07-31T10:51:50.125Z</time>
      </trkpt>
      <trkpt lat="42.998405" lon="-1.2194">
        <ele>802.0</ele>
        <time>2019-07-31T10:51:51.130Z</time>
      </trkpt>
      <trkpt lat="42.99840167" lon="-1.219415">
        <ele>801.0</ele>
        <time>2019-07-31T10:51:52.134Z</time>
      </trkpt>
      <trkpt lat="42.99839667" lon="-1.21942833">
        <ele>801.0</ele>
        <time>2019-07-31T10:51:53.142Z</time>
      </trkpt>
      <trkpt lat="42.99839167" lon="-1.21944333">
        <ele>801.0</ele>
        <time>2019-07-31T10:51:54.147Z</time>
      </trkpt>
      <trkpt lat="42.99838833" lon="-1.21946">
        <ele>800.0</ele>
        <time>2019-07-31T10:51:55.154Z</time>
      </trkpt>
      <trkpt lat="42.998385" lon="-1.21947833">
        <ele>800.0</ele>
        <time>2019-07-31T10:51:56.159Z</time>
      </trkpt>
      <trkpt lat="42.99838" lon="-1.21949667">
        <ele>800.0</ele>
        <time>2019-07-31T10:51:57.164Z</time>
      </trkpt>
      <trkpt lat="42.99837333" lon="-1.21952167">
        <ele>800.0</ele>
        <time>2019-07-31T10:51:58.170Z</time>
      </trkpt>
      <trkpt lat="42.99836833" lon="-1.21954167">
        <ele>799.0</ele>
        <time>2019-07-31T10:51:59.175Z</time>
      </trkpt>
      <trkpt lat="42.99836333" lon="-1.21956333">
        <ele>799.0</ele>
        <time>2019-07-31T10:52:00.182Z</time>
      </trkpt>
      <trkpt lat="42.99836" lon="-1.21957667">
        <ele>799.0</ele>
        <time>2019-07-31T10:52:01.062Z</time>
      </trkpt>
      <trkpt lat="42.998355" lon="-1.219595">
        <ele>799.0</ele>
        <time>2019-07-31T10:52:02.068Z</time>
      </trkpt>
      <trkpt lat="42.99835" lon="-1.21961333">
        <ele>798.0</ele>
        <time>2019-07-31T10:52:03.075Z</time>
      </trkpt>
      <trkpt lat="42.99834333" lon="-1.21963">
        <ele>798.0</ele>
        <time>2019-07-31T10:52:04.081Z</time>
      </trkpt>
      <trkpt lat="42.99833667" lon="-1.21964833">
        <ele>797.0</ele>
        <time>2019-07-31T10:52:05.087Z</time>
      </trkpt>
      <trkpt lat="42.99832667" lon="-1.21966667">
        <ele>797.0</ele>
        <time>2019-07-31T10:52:06.092Z</time>
      </trkpt>
      <trkpt lat="42.99831833" lon="-1.21968667">
        <ele>797.0</ele>
        <time>2019-07-31T10:52:07.098Z</time>
      </trkpt>
      <trkpt lat="42.99831" lon="-1.21970833">
        <ele>796.0</ele>
        <time>2019-07-31T10:52:08.105Z</time>
      </trkpt>
      <trkpt lat="42.9983" lon="-1.21972667">
        <ele>796.0</ele>
        <time>2019-07-31T10:52:09.110Z</time>
      </trkpt>
      <trkpt lat="42.99829167" lon="-1.21974167">
        <ele>796.0</ele>
        <time>2019-07-31T10:52:10.116Z</time>
      </trkpt>
      <trkpt lat="42.99828333" lon="-1.21976">
        <ele>795.0</ele>
        <time>2019-07-31T10:52:11.122Z</time>
      </trkpt>
      <trkpt lat="42.998275" lon="-1.21978">
        <ele>795.0</ele>
        <time>2019-07-31T10:52:12.128Z</time>
      </trkpt>
      <trkpt lat="42.99826667" lon="-1.21979833">
        <ele>795.0</ele>
        <time>2019-07-31T10:52:13.132Z</time>
      </trkpt>
      <trkpt lat="42.99825833" lon="-1.21981333">
        <ele>795.0</ele>
        <time>2019-07-31T10:52:14.139Z</time>
      </trkpt>
      <trkpt lat="42.99824833" lon="-1.21982667">
        <ele>795.0</ele>
        <time>2019-07-31T10:52:15.145Z</time>
      </trkpt>
      <trkpt lat="42.99823833" lon="-1.21984333">
        <ele>795.0</ele>
        <time>2019-07-31T10:52:16.150Z</time>
      </trkpt>
      <trkpt lat="42.99822833" lon="-1.21985833">
        <ele>795.0</ele>
        <time>2019-07-31T10:52:17.157Z</time>
      </trkpt>
      <trkpt lat="42.99822" lon="-1.21987833">
        <ele>795.0</ele>
        <time>2019-07-31T10:52:18.163Z</time>
      </trkpt>
      <trkpt lat="42.99821167" lon="-1.219895">
        <ele>795.0</ele>
        <time>2019-07-31T10:52:19.169Z</time>
      </trkpt>
      <trkpt lat="42.99820333" lon="-1.21990833">
        <ele>795.0</ele>
        <time>2019-07-31T10:52:20.175Z</time>
      </trkpt>
      <trkpt lat="42.99819333" lon="-1.219925">
        <ele>795.0</ele>
        <time>2019-07-31T10:52:21.183Z</time>
      </trkpt>
      <trkpt lat="42.99818333" lon="-1.21994">
        <ele>795.0</ele>
        <time>2019-07-31T10:52:22.062Z</time>
      </trkpt>
      <trkpt lat="42.99817333" lon="-1.21995833">
        <ele>795.0</ele>
        <time>2019-07-31T10:52:23.066Z</time>
      </trkpt>
      <trkpt lat="42.99816167" lon="-1.21997667">
        <ele>795.0</ele>
        <time>2019-07-31T10:52:24.074Z</time>
      </trkpt>
      <trkpt lat="42.99815" lon="-1.21999167">
        <ele>795.0</ele>
        <time>2019-07-31T10:52:25.081Z</time>
      </trkpt>
      <trkpt lat="42.99813833" lon="-1.220005">
        <ele>795.0</ele>
        <time>2019-07-31T10:52:26.085Z</time>
      </trkpt>
      <trkpt lat="42.998125" lon="-1.22002">
        <ele>795.0</ele>
        <time>2019-07-31T10:52:27.090Z</time>
      </trkpt>
      <trkpt lat="42.998115" lon="-1.220035">
        <ele>795.0</ele>
        <time>2019-07-31T10:52:28.094Z</time>
      </trkpt>
      <trkpt lat="42.998105" lon="-1.22005167">
        <ele>795.0</ele>
        <time>2019-07-31T10:52:29.099Z</time>
      </trkpt>
      <trkpt lat="42.99809333" lon="-1.22006667">
        <ele>795.0</ele>
        <time>2019-07-31T10:52:30.104Z</time>
      </trkpt>
      <trkpt lat="42.99808167" lon="-1.22008167">
        <ele>795.0</ele>
        <time>2019-07-31T10:52:31.108Z</time>
      </trkpt>
      <trkpt lat="42.99806833" lon="-1.220095">
        <ele>795.0</ele>
        <time>2019-07-31T10:52:32.113Z</time>
      </trkpt>
      <trkpt lat="42.998055" lon="-1.22011">
        <ele>795.0</ele>
        <time>2019-07-31T10:52:33.120Z</time>
      </trkpt>
      <trkpt lat="42.99804" lon="-1.220125">
        <ele>795.0</ele>
        <time>2019-07-31T10:52:34.124Z</time>
      </trkpt>
      <trkpt lat="42.99802667" lon="-1.22014167">
        <ele>795.0</ele>
        <time>2019-07-31T10:52:35.131Z</time>
      </trkpt>
      <trkpt lat="42.99801333" lon="-1.220155">
        <ele>795.0</ele>
        <time>2019-07-31T10:52:36.137Z</time>
      </trkpt>
      <trkpt lat="42.99800333" lon="-1.22016167">
        <ele>794.0</ele>
        <time>2019-07-31T10:52:37.144Z</time>
      </trkpt>
      <trkpt lat="42.99799167" lon="-1.22017333">
        <ele>794.0</ele>
        <time>2019-07-31T10:52:38.149Z</time>
      </trkpt>
      <trkpt lat="42.99798" lon="-1.220185">
        <ele>795.0</ele>
        <time>2019-07-31T10:52:39.152Z</time>
      </trkpt>
      <trkpt lat="42.99796667" lon="-1.220195">
        <ele>795.0</ele>
        <time>2019-07-31T10:52:40.156Z</time>
      </trkpt>
      <trkpt lat="42.99795167" lon="-1.22020667">
        <ele>796.0</ele>
        <time>2019-07-31T10:52:41.162Z</time>
      </trkpt>
      <trkpt lat="42.99793833" lon="-1.22022">
        <ele>796.0</ele>
        <time>2019-07-31T10:52:42.167Z</time>
      </trkpt>
      <trkpt lat="42.99792333" lon="-1.22023167">
        <ele>795.0</ele>
        <time>2019-07-31T10:52:43.171Z</time>
      </trkpt>
      <trkpt lat="42.99791167" lon="-1.22024333">
        <ele>795.0</ele>
        <time>2019-07-31T10:52:44.176Z</time>
      </trkpt>
      <trkpt lat="42.9979" lon="-1.220255">
        <ele>795.0</ele>
        <time>2019-07-31T10:52:45.182Z</time>
      </trkpt>
      <trkpt lat="42.99788667" lon="-1.22026667">
        <ele>795.0</ele>
        <time>2019-07-31T10:52:46.061Z</time>
      </trkpt>
      <trkpt lat="42.997875" lon="-1.22027333">
        <ele>795.0</ele>
        <time>2019-07-31T10:52:47.066Z</time>
      </trkpt>
      <trkpt lat="42.99786" lon="-1.22028333">
        <ele>796.0</ele>
        <time>2019-07-31T10:52:48.071Z</time>
      </trkpt>
      <trkpt lat="42.997845" lon="-1.22029667">
        <ele>797.0</ele>
        <time>2019-07-31T10:52:49.075Z</time>
      </trkpt>
      <trkpt lat="42.99782833" lon="-1.22030667">
        <ele>797.0</ele>
        <time>2019-07-31T10:52:50.079Z</time>
      </trkpt>
      <trkpt lat="42.99781667" lon="-1.22032">
        <ele>798.0</ele>
        <time>2019-07-31T10:52:51.083Z</time>
      </trkpt>
      <trkpt lat="42.99780667" lon="-1.22033833">
        <ele>798.0</ele>
        <time>2019-07-31T10:52:52.088Z</time>
      </trkpt>
      <trkpt lat="42.9978" lon="-1.22036">
        <ele>799.0</ele>
        <time>2019-07-31T10:52:53.094Z</time>
      </trkpt>
      <trkpt lat="42.9978" lon="-1.22038">
        <ele>799.0</ele>
        <time>2019-07-31T10:52:54.099Z</time>
      </trkpt>
      <trkpt lat="42.997795" lon="-1.22039833">
        <ele>799.0</ele>
        <time>2019-07-31T10:52:55.104Z</time>
      </trkpt>
      <trkpt lat="42.99778667" lon="-1.22042167">
        <ele>799.0</ele>
        <time>2019-07-31T10:52:56.109Z</time>
      </trkpt>
      <trkpt lat="42.99778" lon="-1.22044333">
        <ele>798.0</ele>
        <time>2019-07-31T10:52:57.116Z</time>
      </trkpt>
      <trkpt lat="42.99777167" lon="-1.22046">
        <ele>798.0</ele>
        <time>2019-07-31T10:52:58.122Z</time>
      </trkpt>
      <trkpt lat="42.99776333" lon="-1.22047667">
        <ele>798.0</ele>
        <time>2019-07-31T10:52:59.126Z</time>
      </trkpt>
      <trkpt lat="42.997755" lon="-1.22049833">
        <ele>798.0</ele>
        <time>2019-07-31T10:53:00.131Z</time>
      </trkpt>
      <trkpt lat="42.997745" lon="-1.22052">
        <ele>797.0</ele>
        <time>2019-07-31T10:53:01.137Z</time>
      </trkpt>
      <trkpt lat="42.997735" lon="-1.22054167">
        <ele>797.0</ele>
        <time>2019-07-31T10:53:02.143Z</time>
      </trkpt>
      <trkpt lat="42.99772833" lon="-1.220565">
        <ele>798.0</ele>
        <time>2019-07-31T10:53:03.148Z</time>
      </trkpt>
      <trkpt lat="42.99772" lon="-1.22058667">
        <ele>798.0</ele>
        <time>2019-07-31T10:53:04.156Z</time>
      </trkpt>
      <trkpt lat="42.99771" lon="-1.22060833">
        <ele>798.0</ele>
        <time>2019-07-31T10:53:05.162Z</time>
      </trkpt>
      <trkpt lat="42.99770333" lon="-1.22063">
        <ele>798.0</ele>
        <time>2019-07-31T10:53:06.166Z</time>
      </trkpt>
      <trkpt lat="42.99769333" lon="-1.22065333">
        <ele>798.0</ele>
        <time>2019-07-31T10:53:07.169Z</time>
      </trkpt>
      <trkpt lat="42.997685" lon="-1.22067667">
        <ele>798.0</ele>
        <time>2019-07-31T10:53:08.173Z</time>
      </trkpt>
      <trkpt lat="42.99767667" lon="-1.22069667">
        <ele>798.0</ele>
        <time>2019-07-31T10:53:09.179Z</time>
      </trkpt>
      <trkpt lat="42.99767167" lon="-1.22071667">
        <ele>797.0</ele>
        <time>2019-07-31T10:53:10.185Z</time>
      </trkpt>
      <trkpt lat="42.997665" lon="-1.22074">
        <ele>797.0</ele>
        <time>2019-07-31T10:53:11.064Z</time>
      </trkpt>
      <trkpt lat="42.997655" lon="-1.22075667">
        <ele>797.0</ele>
        <time>2019-07-31T10:53:12.069Z</time>
      </trkpt>
      <trkpt lat="42.997645" lon="-1.22078">
        <ele>797.0</ele>
        <time>2019-07-31T10:53:13.076Z</time>
      </trkpt>
      <trkpt lat="42.99763667" lon="-1.22080167">
        <ele>797.0</ele>
        <time>2019-07-31T10:53:14.081Z</time>
      </trkpt>
      <trkpt lat="42.99763" lon="-1.220825">
        <ele>797.0</ele>
        <time>2019-07-31T10:53:15.087Z</time>
      </trkpt>
      <trkpt lat="42.99762" lon="-1.22084833">
        <ele>797.0</ele>
        <time>2019-07-31T10:53:16.092Z</time>
      </trkpt>
      <trkpt lat="42.99761" lon="-1.22087">
        <ele>797.0</ele>
        <time>2019-07-31T10:53:17.097Z</time>
      </trkpt>
      <trkpt lat="42.99760167" lon="-1.22089167">
        <ele>797.0</ele>
        <time>2019-07-31T10:53:18.104Z</time>
      </trkpt>
      <trkpt lat="42.99759167" lon="-1.22091333">
        <ele>797.0</ele>
        <time>2019-07-31T10:53:19.108Z</time>
      </trkpt>
      <trkpt lat="42.99758333" lon="-1.22093667">
        <ele>797.0</ele>
        <time>2019-07-31T10:53:20.112Z</time>
      </trkpt>
      <trkpt lat="42.997575" lon="-1.22095667">
        <ele>797.0</ele>
        <time>2019-07-31T10:53:21.118Z</time>
      </trkpt>
      <trkpt lat="42.997565" lon="-1.22097667">
        <ele>797.0</ele>
        <time>2019-07-31T10:53:22.123Z</time>
      </trkpt>
      <trkpt lat="42.997555" lon="-1.220995">
        <ele>797.0</ele>
        <time>2019-07-31T10:53:23.127Z</time>
      </trkpt>
      <trkpt lat="42.99754667" lon="-1.22101333">
        <ele>797.0</ele>
        <time>2019-07-31T10:53:24.133Z</time>
      </trkpt>
      <trkpt lat="42.99753833" lon="-1.221035">
        <ele>797.0</ele>
        <time>2019-07-31T10:53:25.137Z</time>
      </trkpt>
      <trkpt lat="42.99753" lon="-1.22105667">
        <ele>797.0</ele>
        <time>2019-07-31T10:53:26.144Z</time>
      </trkpt>
      <trkpt lat="42.99752" lon="-1.22107667">
        <ele>797.0</ele>
        <time>2019-07-31T10:53:27.150Z</time>
      </trkpt>
      <trkpt lat="42.99750833" lon="-1.221095">
        <ele>797.0</ele>
        <time>2019-07-31T10:53:28.154Z</time>
      </trkpt>
      <trkpt lat="42.99749833" lon="-1.221115">
        <ele>797.0</ele>
        <time>2019-07-31T10:53:29.157Z</time>
      </trkpt>
      <trkpt lat="42.99748667" lon="-1.221135">
        <ele>796.0</ele>
        <time>2019-07-31T10:53:30.162Z</time>
      </trkpt>
      <trkpt lat="42.997475" lon="-1.221155">
        <ele>796.0</ele>
        <time>2019-07-31T10:53:31.164Z</time>
      </trkpt>
      <trkpt lat="42.997465" lon="-1.221175">
        <ele>796.0</ele>
        <time>2019-07-31T10:53:32.172Z</time>
      </trkpt>
      <trkpt lat="42.997455" lon="-1.22119667">
        <ele>796.0</ele>
        <time>2019-07-31T10:53:33.176Z</time>
      </trkpt>
      <trkpt lat="42.99744333" lon="-1.22121667">
        <ele>796.0</ele>
        <time>2019-07-31T10:53:34.181Z</time>
      </trkpt>
      <trkpt lat="42.99743167" lon="-1.22123833">
        <ele>796.0</ele>
        <time>2019-07-31T10:53:35.183Z</time>
      </trkpt>
      <trkpt lat="42.99742" lon="-1.22125667">
        <ele>796.0</ele>
        <time>2019-07-31T10:53:36.064Z</time>
      </trkpt>
      <trkpt lat="42.99741" lon="-1.221275">
        <ele>796.0</ele>
        <time>2019-07-31T10:53:37.070Z</time>
      </trkpt>
      <trkpt lat="42.9974" lon="-1.221295">
        <ele>796.0</ele>
        <time>2019-07-31T10:53:38.076Z</time>
      </trkpt>
      <trkpt lat="42.99739" lon="-1.22131333">
        <ele>796.0</ele>
        <time>2019-07-31T10:53:39.080Z</time>
      </trkpt>
      <trkpt lat="42.99737833" lon="-1.22133333">
        <ele>796.0</ele>
        <time>2019-07-31T10:53:40.083Z</time>
      </trkpt>
      <trkpt lat="42.99736667" lon="-1.22135">
        <ele>795.0</ele>
        <time>2019-07-31T10:53:41.088Z</time>
      </trkpt>
      <trkpt lat="42.99735667" lon="-1.22137">
        <ele>795.0</ele>
        <time>2019-07-31T10:53:42.095Z</time>
      </trkpt>
      <trkpt lat="42.99734667" lon="-1.22138667">
        <ele>795.0</ele>
        <time>2019-07-31T10:53:43.100Z</time>
      </trkpt>
      <trkpt lat="42.997335" lon="-1.221405">
        <ele>795.0</ele>
        <time>2019-07-31T10:53:44.105Z</time>
      </trkpt>
      <trkpt lat="42.99732333" lon="-1.22142">
        <ele>795.0</ele>
        <time>2019-07-31T10:53:45.112Z</time>
      </trkpt>
      <trkpt lat="42.997315" lon="-1.22143833">
        <ele>795.0</ele>
        <time>2019-07-31T10:53:46.117Z</time>
      </trkpt>
      <trkpt lat="42.99730167" lon="-1.221455">
        <ele>795.0</ele>
        <time>2019-07-31T10:53:47.122Z</time>
      </trkpt>
      <trkpt lat="42.99729167" lon="-1.22147167">
        <ele>795.0</ele>
        <time>2019-07-31T10:53:48.126Z</time>
      </trkpt>
      <trkpt lat="42.99728167" lon="-1.22148833">
        <ele>795.0</ele>
        <time>2019-07-31T10:53:49.132Z</time>
      </trkpt>
      <trkpt lat="42.99727333" lon="-1.22150167">
        <ele>794.0</ele>
        <time>2019-07-31T10:53:50.137Z</time>
      </trkpt>
      <trkpt lat="42.99726" lon="-1.22152">
        <ele>795.0</ele>
        <time>2019-07-31T10:53:51.141Z</time>
      </trkpt>
      <trkpt lat="42.99725" lon="-1.22153833">
        <ele>795.0</ele>
        <time>2019-07-31T10:53:52.147Z</time>
      </trkpt>
      <trkpt lat="42.99723833" lon="-1.22155833">
        <ele>795.0</ele>
        <time>2019-07-31T10:53:53.152Z</time>
      </trkpt>
      <trkpt lat="42.997225" lon="-1.22157333">
        <ele>796.0</ele>
        <time>2019-07-31T10:53:54.156Z</time>
      </trkpt>
      <trkpt lat="42.99721333" lon="-1.22159167">
        <ele>795.0</ele>
        <time>2019-07-31T10:53:55.162Z</time>
      </trkpt>
      <trkpt lat="42.99720167" lon="-1.22160833">
        <ele>795.0</ele>
        <time>2019-07-31T10:53:56.169Z</time>
      </trkpt>
      <trkpt lat="42.99719" lon="-1.22162333">
        <ele>795.0</ele>
        <time>2019-07-31T10:53:57.174Z</time>
      </trkpt>
      <trkpt lat="42.99717833" lon="-1.22164333">
        <ele>795.0</ele>
        <time>2019-07-31T10:53:58.178Z</time>
      </trkpt>
      <trkpt lat="42.99716667" lon="-1.22166167">
        <ele>794.0</ele>
        <time>2019-07-31T10:53:59.185Z</time>
      </trkpt>
      <trkpt lat="42.99715167" lon="-1.22167833">
        <ele>794.0</ele>
        <time>2019-07-31T10:54:00.065Z</time>
      </trkpt>
      <trkpt lat="42.99714" lon="-1.22169333">
        <ele>794.0</ele>
        <time>2019-07-31T10:54:01.072Z</time>
      </trkpt>
      <trkpt lat="42.99712667" lon="-1.22170833">
        <ele>794.0</ele>
        <time>2019-07-31T10:54:02.077Z</time>
      </trkpt>
      <trkpt lat="42.99711333" lon="-1.221725">
        <ele>794.0</ele>
        <time>2019-07-31T10:54:03.081Z</time>
      </trkpt>
      <trkpt lat="42.99710167" lon="-1.22174">
        <ele>793.0</ele>
        <time>2019-07-31T10:54:04.084Z</time>
      </trkpt>
      <trkpt lat="42.99708833" lon="-1.22175667">
        <ele>793.0</ele>
        <time>2019-07-31T10:54:05.088Z</time>
      </trkpt>
      <trkpt lat="42.997075" lon="-1.22177333">
        <ele>793.0</ele>
        <time>2019-07-31T10:54:06.094Z</time>
      </trkpt>
      <trkpt lat="42.99706167" lon="-1.22178833">
        <ele>793.0</ele>
        <time>2019-07-31T10:54:07.098Z</time>
      </trkpt>
      <trkpt lat="42.99704833" lon="-1.22180333">
        <ele>793.0</ele>
        <time>2019-07-31T10:54:08.101Z</time>
      </trkpt>
      <trkpt lat="42.99703667" lon="-1.22182167">
        <ele>793.0</ele>
        <time>2019-07-31T10:54:09.106Z</time>
      </trkpt>
      <trkpt lat="42.997025" lon="-1.22184">
        <ele>793.0</ele>
        <time>2019-07-31T10:54:10.111Z</time>
      </trkpt>
      <trkpt lat="42.99701333" lon="-1.22186">
        <ele>792.0</ele>
        <time>2019-07-31T10:54:11.115Z</time>
      </trkpt>
      <trkpt lat="42.99700167" lon="-1.221875">
        <ele>792.0</ele>
        <time>2019-07-31T10:54:12.121Z</time>
      </trkpt>
      <trkpt lat="42.99699" lon="-1.22189167">
        <ele>791.0</ele>
        <time>2019-07-31T10:54:13.125Z</time>
      </trkpt>
      <trkpt lat="42.99697667" lon="-1.221905">
        <ele>791.0</ele>
        <time>2019-07-31T10:54:14.131Z</time>
      </trkpt>
      <trkpt lat="42.99696333" lon="-1.22191667">
        <ele>792.0</ele>
        <time>2019-07-31T10:54:15.137Z</time>
      </trkpt>
      <trkpt lat="42.99695167" lon="-1.22192833">
        <ele>792.0</ele>
        <time>2019-07-31T10:54:16.144Z</time>
      </trkpt>
      <trkpt lat="42.99693833" lon="-1.22194333">
        <ele>792.0</ele>
        <time>2019-07-31T10:54:17.149Z</time>
      </trkpt>
      <trkpt lat="42.996925" lon="-1.22196">
        <ele>792.0</ele>
        <time>2019-07-31T10:54:18.154Z</time>
      </trkpt>
      <trkpt lat="42.99691167" lon="-1.221975">
        <ele>792.0</ele>
        <time>2019-07-31T10:54:19.160Z</time>
      </trkpt>
      <trkpt lat="42.99689833" lon="-1.22199">
        <ele>792.0</ele>
        <time>2019-07-31T10:54:20.165Z</time>
      </trkpt>
      <trkpt lat="42.99688667" lon="-1.22200333">
        <ele>792.0</ele>
        <time>2019-07-31T10:54:21.171Z</time>
      </trkpt>
      <trkpt lat="42.99687333" lon="-1.22202">
        <ele>792.0</ele>
        <time>2019-07-31T10:54:22.174Z</time>
      </trkpt>
      <trkpt lat="42.99686" lon="-1.22203667">
        <ele>792.0</ele>
        <time>2019-07-31T10:54:23.181Z</time>
      </trkpt>
      <trkpt lat="42.99684667" lon="-1.22205167">
        <ele>792.0</ele>
        <time>2019-07-31T10:54:24.185Z</time>
      </trkpt>
      <trkpt lat="42.99683333" lon="-1.222065">
        <ele>792.0</ele>
        <time>2019-07-31T10:54:25.065Z</time>
      </trkpt>
      <trkpt lat="42.99682" lon="-1.22207833">
        <ele>792.0</ele>
        <time>2019-07-31T10:54:26.071Z</time>
      </trkpt>
      <trkpt lat="42.99680667" lon="-1.22209667">
        <ele>792.0</ele>
        <time>2019-07-31T10:54:27.077Z</time>
      </trkpt>
      <trkpt lat="42.996795" lon="-1.22211333">
        <ele>792.0</ele>
        <time>2019-07-31T10:54:28.083Z</time>
      </trkpt>
      <trkpt lat="42.99678" lon="-1.22212667">
        <ele>792.0</ele>
        <time>2019-07-31T10:54:29.089Z</time>
      </trkpt>
      <trkpt lat="42.99676167" lon="-1.22214667">
        <ele>792.0</ele>
        <time>2019-07-31T10:54:30.095Z</time>
      </trkpt>
      <trkpt lat="42.99675" lon="-1.22215667">
        <ele>791.0</ele>
        <time>2019-07-31T10:54:31.100Z</time>
      </trkpt>
      <trkpt lat="42.99673667" lon="-1.22217333">
        <ele>791.0</ele>
        <time>2019-07-31T10:54:32.103Z</time>
      </trkpt>
      <trkpt lat="42.99672167" lon="-1.22218833">
        <ele>791.0</ele>
        <time>2019-07-31T10:54:33.106Z</time>
      </trkpt>
      <trkpt lat="42.99670667" lon="-1.22220333">
        <ele>791.0</ele>
        <time>2019-07-31T10:54:34.109Z</time>
      </trkpt>
      <trkpt lat="42.99669" lon="-1.22222333">
        <ele>791.0</ele>
        <time>2019-07-31T10:54:35.113Z</time>
      </trkpt>
      <trkpt lat="42.99667833" lon="-1.222235">
        <ele>791.0</ele>
        <time>2019-07-31T10:54:36.118Z</time>
      </trkpt>
      <trkpt lat="42.99666333" lon="-1.22224833">
        <ele>791.0</ele>
        <time>2019-07-31T10:54:37.124Z</time>
      </trkpt>
      <trkpt lat="42.99664667" lon="-1.22226667">
        <ele>792.0</ele>
        <time>2019-07-31T10:54:38.130Z</time>
      </trkpt>
      <trkpt lat="42.996635" lon="-1.22227833">
        <ele>791.0</ele>
        <time>2019-07-31T10:54:39.137Z</time>
      </trkpt>
      <trkpt lat="42.99662167" lon="-1.22229167">
        <ele>791.0</ele>
        <time>2019-07-31T10:54:40.142Z</time>
      </trkpt>
      <trkpt lat="42.99660833" lon="-1.22230667">
        <ele>791.0</ele>
        <time>2019-07-31T10:54:41.148Z</time>
      </trkpt>
      <trkpt lat="42.996595" lon="-1.22232333">
        <ele>791.0</ele>
        <time>2019-07-31T10:54:42.154Z</time>
      </trkpt>
      <trkpt lat="42.99658167" lon="-1.22234">
        <ele>790.0</ele>
        <time>2019-07-31T10:54:43.159Z</time>
      </trkpt>
      <trkpt lat="42.99657" lon="-1.222355">
        <ele>790.0</ele>
        <time>2019-07-31T10:54:44.164Z</time>
      </trkpt>
      <trkpt lat="42.99655667" lon="-1.22237">
        <ele>791.0</ele>
        <time>2019-07-31T10:54:45.169Z</time>
      </trkpt>
      <trkpt lat="42.996545" lon="-1.22238167">
        <ele>791.0</ele>
        <time>2019-07-31T10:54:46.175Z</time>
      </trkpt>
      <trkpt lat="42.99653" lon="-1.22239833">
        <ele>791.0</ele>
        <time>2019-07-31T10:54:47.182Z</time>
      </trkpt>
      <trkpt lat="42.99651833" lon="-1.222415">
        <ele>791.0</ele>
        <time>2019-07-31T10:54:48.064Z</time>
      </trkpt>
      <trkpt lat="42.996505" lon="-1.22243">
        <ele>791.0</ele>
        <time>2019-07-31T10:54:49.070Z</time>
      </trkpt>
      <trkpt lat="42.99649167" lon="-1.22244667">
        <ele>791.0</ele>
        <time>2019-07-31T10:54:50.076Z</time>
      </trkpt>
      <trkpt lat="42.99648" lon="-1.22246167">
        <ele>790.0</ele>
        <time>2019-07-31T10:54:51.081Z</time>
      </trkpt>
      <trkpt lat="42.99646667" lon="-1.222475">
        <ele>790.0</ele>
        <time>2019-07-31T10:54:52.085Z</time>
      </trkpt>
      <trkpt lat="42.99645333" lon="-1.22248833">
        <ele>791.0</ele>
        <time>2019-07-31T10:54:53.091Z</time>
      </trkpt>
      <trkpt lat="42.99644" lon="-1.22250167">
        <ele>790.0</ele>
        <time>2019-07-31T10:54:54.094Z</time>
      </trkpt>
      <trkpt lat="42.99642667" lon="-1.22251667">
        <ele>790.0</ele>
        <time>2019-07-31T10:54:55.099Z</time>
      </trkpt>
      <trkpt lat="42.99641333" lon="-1.22253167">
        <ele>790.0</ele>
        <time>2019-07-31T10:54:56.105Z</time>
      </trkpt>
      <trkpt lat="42.99640167" lon="-1.22254667">
        <ele>790.0</ele>
        <time>2019-07-31T10:54:57.111Z</time>
      </trkpt>
      <trkpt lat="42.99638833" lon="-1.22256167">
        <ele>790.0</ele>
        <time>2019-07-31T10:54:58.116Z</time>
      </trkpt>
      <trkpt lat="42.99637667" lon="-1.222575">
        <ele>790.0</ele>
        <time>2019-07-31T10:54:59.122Z</time>
      </trkpt>
      <trkpt lat="42.99636333" lon="-1.22259">
        <ele>791.0</ele>
        <time>2019-07-31T10:55:00.125Z</time>
      </trkpt>
      <trkpt lat="42.99635" lon="-1.222605">
        <ele>791.0</ele>
        <time>2019-07-31T10:55:01.131Z</time>
      </trkpt>
      <trkpt lat="42.996335" lon="-1.22261667">
        <ele>791.0</ele>
        <time>2019-07-31T10:55:02.137Z</time>
      </trkpt>
      <trkpt lat="42.99632" lon="-1.22263">
        <ele>791.0</ele>
        <time>2019-07-31T10:55:03.145Z</time>
      </trkpt>
      <trkpt lat="42.99630833" lon="-1.22264167">
        <ele>791.0</ele>
        <time>2019-07-31T10:55:04.149Z</time>
      </trkpt>
      <trkpt lat="42.996295" lon="-1.22265667">
        <ele>791.0</ele>
        <time>2019-07-31T10:55:05.154Z</time>
      </trkpt>
      <trkpt lat="42.99628167" lon="-1.22267167">
        <ele>791.0</ele>
        <time>2019-07-31T10:55:06.159Z</time>
      </trkpt>
      <trkpt lat="42.99626833" lon="-1.222685">
        <ele>791.0</ele>
        <time>2019-07-31T10:55:07.165Z</time>
      </trkpt>
      <trkpt lat="42.99625667" lon="-1.2227">
        <ele>791.0</ele>
        <time>2019-07-31T10:55:08.173Z</time>
      </trkpt>
      <trkpt lat="42.99624167" lon="-1.22271167">
        <ele>791.0</ele>
        <time>2019-07-31T10:55:09.181Z</time>
      </trkpt>
      <trkpt lat="42.99622667" lon="-1.222725">
        <ele>791.0</ele>
        <time>2019-07-31T10:55:10.062Z</time>
      </trkpt>
      <trkpt lat="42.99621333" lon="-1.22273667">
        <ele>792.0</ele>
        <time>2019-07-31T10:55:11.070Z</time>
      </trkpt>
      <trkpt lat="42.9962" lon="-1.22275333">
        <ele>792.0</ele>
        <time>2019-07-31T10:55:12.076Z</time>
      </trkpt>
      <trkpt lat="42.99618667" lon="-1.22276833">
        <ele>792.0</ele>
        <time>2019-07-31T10:55:13.081Z</time>
      </trkpt>
      <trkpt lat="42.99617333" lon="-1.22278333">
        <ele>792.0</ele>
        <time>2019-07-31T10:55:14.087Z</time>
      </trkpt>
      <trkpt lat="42.99615833" lon="-1.22279833">
        <ele>791.0</ele>
        <time>2019-07-31T10:55:15.092Z</time>
      </trkpt>
      <trkpt lat="42.996145" lon="-1.22281167">
        <ele>791.0</ele>
        <time>2019-07-31T10:55:16.097Z</time>
      </trkpt>
      <trkpt lat="42.99613333" lon="-1.22282667">
        <ele>792.0</ele>
        <time>2019-07-31T10:55:17.101Z</time>
      </trkpt>
      <trkpt lat="42.99611833" lon="-1.22284167">
        <ele>792.0</ele>
        <time>2019-07-31T10:55:18.107Z</time>
      </trkpt>
      <trkpt lat="42.996105" lon="-1.22285333">
        <ele>792.0</ele>
        <time>2019-07-31T10:55:19.113Z</time>
      </trkpt>
      <trkpt lat="42.99609167" lon="-1.22287">
        <ele>791.0</ele>
        <time>2019-07-31T10:55:20.120Z</time>
      </trkpt>
      <trkpt lat="42.99607667" lon="-1.22288333">
        <ele>791.0</ele>
        <time>2019-07-31T10:55:21.126Z</time>
      </trkpt>
      <trkpt lat="42.996065" lon="-1.22289833">
        <ele>791.0</ele>
        <time>2019-07-31T10:55:22.131Z</time>
      </trkpt>
      <trkpt lat="42.99605333" lon="-1.22291167">
        <ele>791.0</ele>
        <time>2019-07-31T10:55:23.139Z</time>
      </trkpt>
      <trkpt lat="42.99604167" lon="-1.22293">
        <ele>790.0</ele>
        <time>2019-07-31T10:55:24.144Z</time>
      </trkpt>
      <trkpt lat="42.99602833" lon="-1.222945">
        <ele>790.0</ele>
        <time>2019-07-31T10:55:25.149Z</time>
      </trkpt>
      <trkpt lat="42.996015" lon="-1.22295833">
        <ele>790.0</ele>
        <time>2019-07-31T10:55:26.154Z</time>
      </trkpt>
      <trkpt lat="42.996" lon="-1.22297167">
        <ele>791.0</ele>
        <time>2019-07-31T10:55:27.160Z</time>
      </trkpt>
      <trkpt lat="42.99598167" lon="-1.222985">
        <ele>790.0</ele>
        <time>2019-07-31T10:55:28.164Z</time>
      </trkpt>
      <trkpt lat="42.99596833" lon="-1.223">
        <ele>790.0</ele>
        <time>2019-07-31T10:55:29.170Z</time>
      </trkpt>
      <trkpt lat="42.99595833" lon="-1.22301">
        <ele>790.0</ele>
        <time>2019-07-31T10:55:30.177Z</time>
      </trkpt>
      <trkpt lat="42.995945" lon="-1.22302333">
        <ele>790.0</ele>
        <time>2019-07-31T10:55:31.183Z</time>
      </trkpt>
      <trkpt lat="42.99593" lon="-1.223035">
        <ele>790.0</ele>
        <time>2019-07-31T10:55:32.064Z</time>
      </trkpt>
      <trkpt lat="42.99591667" lon="-1.22305167">
        <ele>790.0</ele>
        <time>2019-07-31T10:55:33.069Z</time>
      </trkpt>
      <trkpt lat="42.99590333" lon="-1.22306667">
        <ele>790.0</ele>
        <time>2019-07-31T10:55:34.074Z</time>
      </trkpt>
      <trkpt lat="42.99589" lon="-1.22308167">
        <ele>790.0</ele>
        <time>2019-07-31T10:55:35.079Z</time>
      </trkpt>
      <trkpt lat="42.99587833" lon="-1.22309667">
        <ele>790.0</ele>
        <time>2019-07-31T10:55:36.082Z</time>
      </trkpt>
      <trkpt lat="42.99586167" lon="-1.22311333">
        <ele>790.0</ele>
        <time>2019-07-31T10:55:37.086Z</time>
      </trkpt>
      <trkpt lat="42.99585" lon="-1.22312333">
        <ele>790.0</ele>
        <time>2019-07-31T10:55:38.093Z</time>
      </trkpt>
      <trkpt lat="42.99583667" lon="-1.22313833">
        <ele>790.0</ele>
        <time>2019-07-31T10:55:39.098Z</time>
      </trkpt>
      <trkpt lat="42.99582167" lon="-1.22315333">
        <ele>789.0</ele>
        <time>2019-07-31T10:55:40.102Z</time>
      </trkpt>
      <trkpt lat="42.99581" lon="-1.22316833">
        <ele>789.0</ele>
        <time>2019-07-31T10:55:41.108Z</time>
      </trkpt>
      <trkpt lat="42.995795" lon="-1.22318333">
        <ele>790.0</ele>
        <time>2019-07-31T10:55:42.115Z</time>
      </trkpt>
      <trkpt lat="42.99578167" lon="-1.22319667">
        <ele>790.0</ele>
        <time>2019-07-31T10:55:43.121Z</time>
      </trkpt>
      <trkpt lat="42.99576833" lon="-1.22321167">
        <ele>790.0</ele>
        <time>2019-07-31T10:55:44.125Z</time>
      </trkpt>
      <trkpt lat="42.995755" lon="-1.22322833">
        <ele>790.0</ele>
        <time>2019-07-31T10:55:45.131Z</time>
      </trkpt>
      <trkpt lat="42.99574333" lon="-1.22324333">
        <ele>790.0</ele>
        <time>2019-07-31T10:55:46.136Z</time>
      </trkpt>
      <trkpt lat="42.99573" lon="-1.22325167">
        <ele>790.0</ele>
        <time>2019-07-31T10:55:47.142Z</time>
      </trkpt>
      <trkpt lat="42.99572167" lon="-1.22325833">
        <ele>789.0</ele>
        <time>2019-07-31T10:55:48.148Z</time>
      </trkpt>
      <trkpt lat="42.995715" lon="-1.22326167">
        <ele>789.0</ele>
        <time>2019-07-31T10:55:49.153Z</time>
      </trkpt>
      <trkpt lat="42.99571167" lon="-1.22325833">
        <ele>788.0</ele>
        <time>2019-07-31T10:55:50.158Z</time>
      </trkpt>
      <trkpt lat="42.99570833" lon="-1.22325">
        <ele>788.0</ele>
        <time>2019-07-31T10:55:51.164Z</time>
      </trkpt>
      <trkpt lat="42.99570667" lon="-1.22324167">
        <ele>788.0</ele>
        <time>2019-07-31T10:55:52.167Z</time>
      </trkpt>
      <trkpt lat="42.99570333" lon="-1.22323833">
        <ele>788.0</ele>
        <time>2019-07-31T10:55:53.171Z</time>
      </trkpt>
      <trkpt lat="42.995705" lon="-1.22323333">
        <ele>788.0</ele>
        <time>2019-07-31T10:55:54.177Z</time>
      </trkpt>
      <trkpt lat="42.995705" lon="-1.22323167">
        <ele>788.0</ele>
        <time>2019-07-31T10:55:55.183Z</time>
      </trkpt>
      <trkpt lat="42.995705" lon="-1.22322833">
        <ele>788.0</ele>
        <time>2019-07-31T10:55:56.062Z</time>
      </trkpt>
      <trkpt lat="42.995705" lon="-1.22322833">
        <ele>789.0</ele>
        <time>2019-07-31T10:55:57.067Z</time>
      </trkpt>
      <trkpt lat="42.99570833" lon="-1.22322833">
        <ele>789.0</ele>
        <time>2019-07-31T10:55:58.070Z</time>
      </trkpt>
      <trkpt lat="42.99570833" lon="-1.22322667">
        <ele>790.0</ele>
        <time>2019-07-31T10:55:59.076Z</time>
      </trkpt>
      <trkpt lat="42.99571167" lon="-1.223225">
        <ele>790.0</ele>
        <time>2019-07-31T10:56:00.081Z</time>
      </trkpt>
      <trkpt lat="42.995715" lon="-1.22322333">
        <ele>790.0</ele>
        <time>2019-07-31T10:56:01.086Z</time>
      </trkpt>
      <trkpt lat="42.995715" lon="-1.22322333">
        <ele>790.0</ele>
        <time>2019-07-31T10:56:02.092Z</time>
      </trkpt>
      <trkpt lat="42.99571667" lon="-1.22322333">
        <ele>790.0</ele>
        <time>2019-07-31T10:56:03.099Z</time>
      </trkpt>
      <trkpt lat="42.995715" lon="-1.22322167">
        <ele>791.0</ele>
        <time>2019-07-31T10:56:04.105Z</time>
      </trkpt>
      <trkpt lat="42.995715" lon="-1.22322">
        <ele>791.0</ele>
        <time>2019-07-31T10:56:05.110Z</time>
      </trkpt>
      <trkpt lat="42.99571667" lon="-1.22322167">
        <ele>792.0</ele>
        <time>2019-07-31T10:56:06.117Z</time>
      </trkpt>
      <trkpt lat="42.99571667" lon="-1.22322">
        <ele>792.0</ele>
        <time>2019-07-31T10:56:07.122Z</time>
      </trkpt>
      <trkpt lat="42.99571667" lon="-1.22322">
        <ele>792.0</ele>
        <time>2019-07-31T10:56:08.128Z</time>
      </trkpt>
      <trkpt lat="42.995715" lon="-1.22322">
        <ele>792.0</ele>
        <time>2019-07-31T10:56:09.135Z</time>
      </trkpt>
      <trkpt lat="42.99571167" lon="-1.22321833">
        <ele>791.0</ele>
        <time>2019-07-31T10:56:10.141Z</time>
      </trkpt>
      <trkpt lat="42.99571333" lon="-1.22321667">
        <ele>791.0</ele>
        <time>2019-07-31T10:56:11.147Z</time>
      </trkpt>
      <trkpt lat="42.99571333" lon="-1.223215">
        <ele>791.0</ele>
        <time>2019-07-31T10:56:12.153Z</time>
      </trkpt>
      <trkpt lat="42.99571333" lon="-1.22321333">
        <ele>791.0</ele>
        <time>2019-07-31T10:56:13.160Z</time>
      </trkpt>
      <trkpt lat="42.99571667" lon="-1.22321167">
        <ele>791.0</ele>
        <time>2019-07-31T10:56:14.165Z</time>
      </trkpt>
      <trkpt lat="42.99571667" lon="-1.22321">
        <ele>791.0</ele>
        <time>2019-07-31T10:56:15.167Z</time>
      </trkpt>
      <trkpt lat="42.99571833" lon="-1.22320833">
        <ele>791.0</ele>
        <time>2019-07-31T10:56:16.172Z</time>
      </trkpt>
      <trkpt lat="42.99571833" lon="-1.22320667">
        <ele>791.0</ele>
        <time>2019-07-31T10:56:17.176Z</time>
      </trkpt>
      <trkpt lat="42.99571667" lon="-1.22320167">
        <ele>792.0</ele>
        <time>2019-07-31T10:56:18.180Z</time>
      </trkpt>
      <trkpt lat="42.99571667" lon="-1.22319833">
        <ele>792.0</ele>
        <time>2019-07-31T10:56:19.185Z</time>
      </trkpt>
      <trkpt lat="42.995715" lon="-1.22319333">
        <ele>792.0</ele>
        <time>2019-07-31T10:56:20.064Z</time>
      </trkpt>
      <trkpt lat="42.99571167" lon="-1.22318833">
        <ele>792.0</ele>
        <time>2019-07-31T10:56:21.069Z</time>
      </trkpt>
      <trkpt lat="42.99571167" lon="-1.223185">
        <ele>792.0</ele>
        <time>2019-07-31T10:56:22.072Z</time>
      </trkpt>
      <trkpt lat="42.995715" lon="-1.223185">
        <ele>791.0</ele>
        <time>2019-07-31T10:56:23.076Z</time>
      </trkpt>
      <trkpt lat="42.99572" lon="-1.22318667">
        <ele>790.0</ele>
        <time>2019-07-31T10:56:24.081Z</time>
      </trkpt>
      <trkpt lat="42.99572333" lon="-1.22319167">
        <ele>790.0</ele>
        <time>2019-07-31T10:56:25.086Z</time>
      </trkpt>
      <trkpt lat="42.99572167" lon="-1.22319167">
        <ele>790.0</ele>
        <time>2019-07-31T10:56:26.092Z</time>
      </trkpt>
      <trkpt lat="42.99572167" lon="-1.22319667">
        <ele>789.0</ele>
        <time>2019-07-31T10:56:27.098Z</time>
      </trkpt>
      <trkpt lat="42.99572333" lon="-1.22319667">
        <ele>788.0</ele>
        <time>2019-07-31T10:56:28.104Z</time>
      </trkpt>
      <trkpt lat="42.99572667" lon="-1.223195">
        <ele>788.0</ele>
        <time>2019-07-31T10:56:29.109Z</time>
      </trkpt>
      <trkpt lat="42.99572833" lon="-1.22319833">
        <ele>788.0</ele>
        <time>2019-07-31T10:56:30.114Z</time>
      </trkpt>
      <trkpt lat="42.99573167" lon="-1.22320333">
        <ele>788.0</ele>
        <time>2019-07-31T10:56:31.120Z</time>
      </trkpt>
      <trkpt lat="42.99573667" lon="-1.223205">
        <ele>788.0</ele>
        <time>2019-07-31T10:56:32.124Z</time>
      </trkpt>
      <trkpt lat="42.99574" lon="-1.22320167">
        <ele>787.0</ele>
        <time>2019-07-31T10:56:33.130Z</time>
      </trkpt>
      <trkpt lat="42.99574333" lon="-1.2232">
        <ele>787.0</ele>
        <time>2019-07-31T10:56:34.134Z</time>
      </trkpt>
      <trkpt lat="42.99574167" lon="-1.22319667">
        <ele>787.0</ele>
        <time>2019-07-31T10:56:35.140Z</time>
      </trkpt>
      <trkpt lat="42.99573833" lon="-1.22319167">
        <ele>786.0</ele>
        <time>2019-07-31T10:56:36.147Z</time>
      </trkpt>
      <trkpt lat="42.995735" lon="-1.22319">
        <ele>787.0</ele>
        <time>2019-07-31T10:56:37.154Z</time>
      </trkpt>
      <trkpt lat="42.99573" lon="-1.22318">
        <ele>787.0</ele>
        <time>2019-07-31T10:56:38.159Z</time>
      </trkpt>
      <trkpt lat="42.99572833" lon="-1.22318">
        <ele>787.0</ele>
        <time>2019-07-31T10:56:39.164Z</time>
      </trkpt>
      <trkpt lat="42.99572833" lon="-1.22318667">
        <ele>788.0</ele>
        <time>2019-07-31T10:56:40.169Z</time>
      </trkpt>
      <trkpt lat="42.99572667" lon="-1.22319167">
        <ele>789.0</ele>
        <time>2019-07-31T10:56:41.176Z</time>
      </trkpt>
      <trkpt lat="42.99572667" lon="-1.223195">
        <ele>789.0</ele>
        <time>2019-07-31T10:56:42.182Z</time>
      </trkpt>
      <trkpt lat="42.99572667" lon="-1.2232">
        <ele>789.0</ele>
        <time>2019-07-31T10:56:43.063Z</time>
      </trkpt>
      <trkpt lat="42.99572667" lon="-1.22320167">
        <ele>789.0</ele>
        <time>2019-07-31T10:56:44.070Z</time>
      </trkpt>
      <trkpt lat="42.99572667" lon="-1.22320333">
        <ele>789.0</ele>
        <time>2019-07-31T10:56:45.076Z</time>
      </trkpt>
      <trkpt lat="42.99572667" lon="-1.22320333">
        <ele>789.0</ele>
        <time>2019-07-31T10:56:46.080Z</time>
      </trkpt>
      <trkpt lat="42.99572667" lon="-1.22320167">
        <ele>788.0</ele>
        <time>2019-07-31T10:56:47.081Z</time>
      </trkpt>
      <trkpt lat="42.99572333" lon="-1.22320667">
        <ele>788.0</ele>
        <time>2019-07-31T10:56:48.086Z</time>
      </trkpt>
      <trkpt lat="42.995725" lon="-1.22321">
        <ele>787.0</ele>
        <time>2019-07-31T10:56:49.091Z</time>
      </trkpt>
      <trkpt lat="42.99572333" lon="-1.22321833">
        <ele>786.0</ele>
        <time>2019-07-31T10:56:50.094Z</time>
      </trkpt>
      <trkpt lat="42.99571833" lon="-1.22322833">
        <ele>786.0</ele>
        <time>2019-07-31T10:56:51.098Z</time>
      </trkpt>
      <trkpt lat="42.99571333" lon="-1.22324167">
        <ele>786.0</ele>
        <time>2019-07-31T10:56:52.103Z</time>
      </trkpt>
      <trkpt lat="42.99570667" lon="-1.22325833">
        <ele>785.0</ele>
        <time>2019-07-31T10:56:53.105Z</time>
      </trkpt>
      <trkpt lat="42.9957" lon="-1.223275">
        <ele>785.0</ele>
        <time>2019-07-31T10:56:54.112Z</time>
      </trkpt>
      <trkpt lat="42.99569" lon="-1.22329167">
        <ele>785.0</ele>
        <time>2019-07-31T10:56:55.117Z</time>
      </trkpt>
      <trkpt lat="42.99567833" lon="-1.22331">
        <ele>784.0</ele>
        <time>2019-07-31T10:56:56.121Z</time>
      </trkpt>
      <trkpt lat="42.99566667" lon="-1.22332667">
        <ele>784.0</ele>
        <time>2019-07-31T10:56:57.125Z</time>
      </trkpt>
      <trkpt lat="42.995655" lon="-1.22334167">
        <ele>784.0</ele>
        <time>2019-07-31T10:56:58.128Z</time>
      </trkpt>
      <trkpt lat="42.995645" lon="-1.22335667">
        <ele>784.0</ele>
        <time>2019-07-31T10:56:59.134Z</time>
      </trkpt>
      <trkpt lat="42.99563333" lon="-1.22337">
        <ele>784.0</ele>
        <time>2019-07-31T10:57:00.138Z</time>
      </trkpt>
      <trkpt lat="42.99562167" lon="-1.22338333">
        <ele>784.0</ele>
        <time>2019-07-31T10:57:01.144Z</time>
      </trkpt>
      <trkpt lat="42.99560833" lon="-1.22339833">
        <ele>784.0</ele>
        <time>2019-07-31T10:57:02.147Z</time>
      </trkpt>
      <trkpt lat="42.99559333" lon="-1.22341333">
        <ele>783.0</ele>
        <time>2019-07-31T10:57:03.151Z</time>
      </trkpt>
      <trkpt lat="42.99558167" lon="-1.22342833">
        <ele>783.0</ele>
        <time>2019-07-31T10:57:04.158Z</time>
      </trkpt>
      <trkpt lat="42.99556833" lon="-1.22344333">
        <ele>783.0</ele>
        <time>2019-07-31T10:57:05.164Z</time>
      </trkpt>
      <trkpt lat="42.995555" lon="-1.22345667">
        <ele>783.0</ele>
        <time>2019-07-31T10:57:06.169Z</time>
      </trkpt>
      <trkpt lat="42.99554333" lon="-1.22347">
        <ele>783.0</ele>
        <time>2019-07-31T10:57:07.175Z</time>
      </trkpt>
      <trkpt lat="42.99553" lon="-1.22348">
        <ele>784.0</ele>
        <time>2019-07-31T10:57:08.179Z</time>
      </trkpt>
      <trkpt lat="42.99552" lon="-1.22349167">
        <ele>784.0</ele>
        <time>2019-07-31T10:57:09.186Z</time>
      </trkpt>
      <trkpt lat="42.99550667" lon="-1.223505">
        <ele>784.0</ele>
        <time>2019-07-31T10:57:10.066Z</time>
      </trkpt>
      <trkpt lat="42.995495" lon="-1.22351833">
        <ele>784.0</ele>
        <time>2019-07-31T10:57:11.073Z</time>
      </trkpt>
      <trkpt lat="42.995485" lon="-1.22353167">
        <ele>784.0</ele>
        <time>2019-07-31T10:57:12.078Z</time>
      </trkpt>
      <trkpt lat="42.99547333" lon="-1.22354">
        <ele>784.0</ele>
        <time>2019-07-31T10:57:13.084Z</time>
      </trkpt>
      <trkpt lat="42.99546167" lon="-1.22355">
        <ele>784.0</ele>
        <time>2019-07-31T10:57:14.090Z</time>
      </trkpt>
      <trkpt lat="42.99545" lon="-1.22355833">
        <ele>784.0</ele>
        <time>2019-07-31T10:57:15.095Z</time>
      </trkpt>
      <trkpt lat="42.99543833" lon="-1.22356833">
        <ele>784.0</ele>
        <time>2019-07-31T10:57:16.102Z</time>
      </trkpt>
      <trkpt lat="42.99542667" lon="-1.22357833">
        <ele>784.0</ele>
        <time>2019-07-31T10:57:17.109Z</time>
      </trkpt>
      <trkpt lat="42.99541667" lon="-1.22358667">
        <ele>783.0</ele>
        <time>2019-07-31T10:57:18.114Z</time>
      </trkpt>
      <trkpt lat="42.99540667" lon="-1.22359667">
        <ele>783.0</ele>
        <time>2019-07-31T10:57:19.117Z</time>
      </trkpt>
      <trkpt lat="42.99539333" lon="-1.22360833">
        <ele>783.0</ele>
        <time>2019-07-31T10:57:20.122Z</time>
      </trkpt>
      <trkpt lat="42.99538167" lon="-1.22362167">
        <ele>783.0</ele>
        <time>2019-07-31T10:57:21.124Z</time>
      </trkpt>
      <trkpt lat="42.99537" lon="-1.22363167">
        <ele>782.0</ele>
        <time>2019-07-31T10:57:22.127Z</time>
      </trkpt>
      <trkpt lat="42.99535667" lon="-1.22364333">
        <ele>781.0</ele>
        <time>2019-07-31T10:57:23.133Z</time>
      </trkpt>
      <trkpt lat="42.99534333" lon="-1.22365833">
        <ele>781.0</ele>
        <time>2019-07-31T10:57:24.139Z</time>
      </trkpt>
      <trkpt lat="42.99533" lon="-1.22367333">
        <ele>781.0</ele>
        <time>2019-07-31T10:57:25.144Z</time>
      </trkpt>
      <trkpt lat="42.99531667" lon="-1.22368667">
        <ele>781.0</ele>
        <time>2019-07-31T10:57:26.150Z</time>
      </trkpt>
      <trkpt lat="42.99530167" lon="-1.2237">
        <ele>781.0</ele>
        <time>2019-07-31T10:57:27.156Z</time>
      </trkpt>
      <trkpt lat="42.99528667" lon="-1.22371333">
        <ele>782.0</ele>
        <time>2019-07-31T10:57:28.164Z</time>
      </trkpt>
      <trkpt lat="42.99527167" lon="-1.22372667">
        <ele>782.0</ele>
        <time>2019-07-31T10:57:29.169Z</time>
      </trkpt>
      <trkpt lat="42.995255" lon="-1.22374">
        <ele>783.0</ele>
        <time>2019-07-31T10:57:30.172Z</time>
      </trkpt>
      <trkpt lat="42.99523667" lon="-1.22375333">
        <ele>783.0</ele>
        <time>2019-07-31T10:57:31.177Z</time>
      </trkpt>
      <trkpt lat="42.99522167" lon="-1.22376333">
        <ele>784.0</ele>
        <time>2019-07-31T10:57:32.182Z</time>
      </trkpt>
      <trkpt lat="42.995205" lon="-1.22377667">
        <ele>784.0</ele>
        <time>2019-07-31T10:57:33.064Z</time>
      </trkpt>
      <trkpt lat="42.99519167" lon="-1.22378667">
        <ele>784.0</ele>
        <time>2019-07-31T10:57:34.071Z</time>
      </trkpt>
      <trkpt lat="42.99517667" lon="-1.22379833">
        <ele>784.0</ele>
        <time>2019-07-31T10:57:35.078Z</time>
      </trkpt>
      <trkpt lat="42.995165" lon="-1.22381167">
        <ele>785.0</ele>
        <time>2019-07-31T10:57:36.082Z</time>
      </trkpt>
      <trkpt lat="42.99514833" lon="-1.22382667">
        <ele>784.0</ele>
        <time>2019-07-31T10:57:37.089Z</time>
      </trkpt>
      <trkpt lat="42.995135" lon="-1.22384">
        <ele>784.0</ele>
        <time>2019-07-31T10:57:38.094Z</time>
      </trkpt>
      <trkpt lat="42.99512" lon="-1.22385167">
        <ele>784.0</ele>
        <time>2019-07-31T10:57:39.101Z</time>
      </trkpt>
      <trkpt lat="42.99510667" lon="-1.223865">
        <ele>784.0</ele>
        <time>2019-07-31T10:57:40.106Z</time>
      </trkpt>
      <trkpt lat="42.99509" lon="-1.22387667">
        <ele>784.0</ele>
        <time>2019-07-31T10:57:41.110Z</time>
      </trkpt>
      <trkpt lat="42.995075" lon="-1.22389167">
        <ele>784.0</ele>
        <time>2019-07-31T10:57:42.117Z</time>
      </trkpt>
      <trkpt lat="42.99506167" lon="-1.22390333">
        <ele>784.0</ele>
        <time>2019-07-31T10:57:43.122Z</time>
      </trkpt>
      <trkpt lat="42.99504667" lon="-1.22391667">
        <ele>784.0</ele>
        <time>2019-07-31T10:57:44.126Z</time>
      </trkpt>
      <trkpt lat="42.99503" lon="-1.22392833">
        <ele>784.0</ele>
        <time>2019-07-31T10:57:45.131Z</time>
      </trkpt>
      <trkpt lat="42.995015" lon="-1.22393667">
        <ele>784.0</ele>
        <time>2019-07-31T10:57:46.136Z</time>
      </trkpt>
      <trkpt lat="42.995" lon="-1.22394667">
        <ele>784.0</ele>
        <time>2019-07-31T10:57:47.142Z</time>
      </trkpt>
      <trkpt lat="42.994985" lon="-1.22395667">
        <ele>784.0</ele>
        <time>2019-07-31T10:57:48.144Z</time>
      </trkpt>
      <trkpt lat="42.99497" lon="-1.22396833">
        <ele>784.0</ele>
        <time>2019-07-31T10:57:49.150Z</time>
      </trkpt>
      <trkpt lat="42.994955" lon="-1.22397833">
        <ele>784.0</ele>
        <time>2019-07-31T10:57:50.156Z</time>
      </trkpt>
      <trkpt lat="42.99493833" lon="-1.22398833">
        <ele>784.0</ele>
        <time>2019-07-31T10:57:51.161Z</time>
      </trkpt>
      <trkpt lat="42.99492167" lon="-1.22399667">
        <ele>784.0</ele>
        <time>2019-07-31T10:57:52.166Z</time>
      </trkpt>
      <trkpt lat="42.99490667" lon="-1.224005">
        <ele>784.0</ele>
        <time>2019-07-31T10:57:53.172Z</time>
      </trkpt>
      <trkpt lat="42.99489167" lon="-1.224015">
        <ele>784.0</ele>
        <time>2019-07-31T10:57:54.179Z</time>
      </trkpt>
      <trkpt lat="42.99487667" lon="-1.224025">
        <ele>785.0</ele>
        <time>2019-07-31T10:57:55.184Z</time>
      </trkpt>
      <trkpt lat="42.99486333" lon="-1.224035">
        <ele>785.0</ele>
        <time>2019-07-31T10:57:56.064Z</time>
      </trkpt>
      <trkpt lat="42.99484833" lon="-1.22404833">
        <ele>785.0</ele>
        <time>2019-07-31T10:57:57.071Z</time>
      </trkpt>
      <trkpt lat="42.994835" lon="-1.224065">
        <ele>785.0</ele>
        <time>2019-07-31T10:57:58.078Z</time>
      </trkpt>
      <trkpt lat="42.99482167" lon="-1.22408">
        <ele>786.0</ele>
        <time>2019-07-31T10:57:59.085Z</time>
      </trkpt>
      <trkpt lat="42.99480833" lon="-1.224095">
        <ele>785.0</ele>
        <time>2019-07-31T10:58:00.090Z</time>
      </trkpt>
      <trkpt lat="42.994795" lon="-1.22411">
        <ele>785.0</ele>
        <time>2019-07-31T10:58:01.094Z</time>
      </trkpt>
      <trkpt lat="42.99478" lon="-1.22412667">
        <ele>786.0</ele>
        <time>2019-07-31T10:58:02.099Z</time>
      </trkpt>
      <trkpt lat="42.994765" lon="-1.22414">
        <ele>786.0</ele>
        <time>2019-07-31T10:58:03.106Z</time>
      </trkpt>
      <trkpt lat="42.99475167" lon="-1.224155">
        <ele>786.0</ele>
        <time>2019-07-31T10:58:04.111Z</time>
      </trkpt>
      <trkpt lat="42.99473833" lon="-1.22416833">
        <ele>786.0</ele>
        <time>2019-07-31T10:58:05.115Z</time>
      </trkpt>
      <trkpt lat="42.994725" lon="-1.22418167">
        <ele>786.0</ele>
        <time>2019-07-31T10:58:06.121Z</time>
      </trkpt>
      <trkpt lat="42.99471167" lon="-1.224195">
        <ele>787.0</ele>
        <time>2019-07-31T10:58:07.125Z</time>
      </trkpt>
      <trkpt lat="42.99469833" lon="-1.22421">
        <ele>787.0</ele>
        <time>2019-07-31T10:58:08.131Z</time>
      </trkpt>
      <trkpt lat="42.994685" lon="-1.22422333">
        <ele>787.0</ele>
        <time>2019-07-31T10:58:09.138Z</time>
      </trkpt>
      <trkpt lat="42.99467167" lon="-1.22423667">
        <ele>787.0</ele>
        <time>2019-07-31T10:58:10.143Z</time>
      </trkpt>
      <trkpt lat="42.99465667" lon="-1.22424667">
        <ele>787.0</ele>
        <time>2019-07-31T10:58:11.148Z</time>
      </trkpt>
      <trkpt lat="42.994645" lon="-1.22425833">
        <ele>787.0</ele>
        <time>2019-07-31T10:58:12.152Z</time>
      </trkpt>
      <trkpt lat="42.99463" lon="-1.22426833">
        <ele>786.0</ele>
        <time>2019-07-31T10:58:13.159Z</time>
      </trkpt>
      <trkpt lat="42.99461667" lon="-1.22428">
        <ele>786.0</ele>
        <time>2019-07-31T10:58:14.165Z</time>
      </trkpt>
      <trkpt lat="42.99460333" lon="-1.22429167">
        <ele>787.0</ele>
        <time>2019-07-31T10:58:15.169Z</time>
      </trkpt>
      <trkpt lat="42.99459" lon="-1.224305">
        <ele>786.0</ele>
        <time>2019-07-31T10:58:16.174Z</time>
      </trkpt>
      <trkpt lat="42.99457667" lon="-1.22431667">
        <ele>786.0</ele>
        <time>2019-07-31T10:58:17.180Z</time>
      </trkpt>
      <trkpt lat="42.994565" lon="-1.22433167">
        <ele>786.0</ele>
        <time>2019-07-31T10:58:18.186Z</time>
      </trkpt>
      <trkpt lat="42.99455" lon="-1.224345">
        <ele>786.0</ele>
        <time>2019-07-31T10:58:19.067Z</time>
      </trkpt>
      <trkpt lat="42.994535" lon="-1.22436">
        <ele>786.0</ele>
        <time>2019-07-31T10:58:20.074Z</time>
      </trkpt>
      <trkpt lat="42.99452333" lon="-1.22437667">
        <ele>786.0</ele>
        <time>2019-07-31T10:58:21.078Z</time>
      </trkpt>
      <trkpt lat="42.99451" lon="-1.22439333">
        <ele>786.0</ele>
        <time>2019-07-31T10:58:22.081Z</time>
      </trkpt>
      <trkpt lat="42.99449333" lon="-1.224405">
        <ele>786.0</ele>
        <time>2019-07-31T10:58:23.087Z</time>
      </trkpt>
      <trkpt lat="42.99447833" lon="-1.22441833">
        <ele>786.0</ele>
        <time>2019-07-31T10:58:24.090Z</time>
      </trkpt>
      <trkpt lat="42.994465" lon="-1.22443333">
        <ele>786.0</ele>
        <time>2019-07-31T10:58:25.095Z</time>
      </trkpt>
      <trkpt lat="42.99445167" lon="-1.22445">
        <ele>786.0</ele>
        <time>2019-07-31T10:58:26.100Z</time>
      </trkpt>
      <trkpt lat="42.99443833" lon="-1.224465">
        <ele>785.0</ele>
        <time>2019-07-31T10:58:27.105Z</time>
      </trkpt>
      <trkpt lat="42.99442333" lon="-1.22448">
        <ele>785.0</ele>
        <time>2019-07-31T10:58:28.110Z</time>
      </trkpt>
      <trkpt lat="42.99441167" lon="-1.22449167">
        <ele>784.0</ele>
        <time>2019-07-31T10:58:29.117Z</time>
      </trkpt>
      <trkpt lat="42.99439667" lon="-1.22450333">
        <ele>784.0</ele>
        <time>2019-07-31T10:58:30.122Z</time>
      </trkpt>
      <trkpt lat="42.99438333" lon="-1.224515">
        <ele>783.0</ele>
        <time>2019-07-31T10:58:31.127Z</time>
      </trkpt>
      <trkpt lat="42.99436833" lon="-1.22453">
        <ele>783.0</ele>
        <time>2019-07-31T10:58:32.135Z</time>
      </trkpt>
      <trkpt lat="42.994355" lon="-1.22454167">
        <ele>782.0</ele>
        <time>2019-07-31T10:58:33.142Z</time>
      </trkpt>
      <trkpt lat="42.99434" lon="-1.224555">
        <ele>782.0</ele>
        <time>2019-07-31T10:58:34.146Z</time>
      </trkpt>
      <trkpt lat="42.99432667" lon="-1.224565">
        <ele>782.0</ele>
        <time>2019-07-31T10:58:35.151Z</time>
      </trkpt>
      <trkpt lat="42.99431333" lon="-1.22458">
        <ele>782.0</ele>
        <time>2019-07-31T10:58:36.157Z</time>
      </trkpt>
      <trkpt lat="42.9943" lon="-1.22459167">
        <ele>782.0</ele>
        <time>2019-07-31T10:58:37.163Z</time>
      </trkpt>
      <trkpt lat="42.99428667" lon="-1.224605">
        <ele>782.0</ele>
        <time>2019-07-31T10:58:38.167Z</time>
      </trkpt>
      <trkpt lat="42.99427333" lon="-1.22462">
        <ele>782.0</ele>
        <time>2019-07-31T10:58:39.172Z</time>
      </trkpt>
      <trkpt lat="42.99425833" lon="-1.224635">
        <ele>783.0</ele>
        <time>2019-07-31T10:58:40.179Z</time>
      </trkpt>
      <trkpt lat="42.99424667" lon="-1.22465">
        <ele>783.0</ele>
        <time>2019-07-31T10:58:41.184Z</time>
      </trkpt>
      <trkpt lat="42.99423167" lon="-1.224665">
        <ele>782.0</ele>
        <time>2019-07-31T10:58:42.064Z</time>
      </trkpt>
      <trkpt lat="42.99422" lon="-1.22468">
        <ele>782.0</ele>
        <time>2019-07-31T10:58:43.070Z</time>
      </trkpt>
      <trkpt lat="42.99420667" lon="-1.22469333">
        <ele>782.0</ele>
        <time>2019-07-31T10:58:44.076Z</time>
      </trkpt>
      <trkpt lat="42.99419167" lon="-1.22470833">
        <ele>782.0</ele>
        <time>2019-07-31T10:58:45.081Z</time>
      </trkpt>
      <trkpt lat="42.99417833" lon="-1.22472167">
        <ele>783.0</ele>
        <time>2019-07-31T10:58:46.086Z</time>
      </trkpt>
      <trkpt lat="42.99416333" lon="-1.22473333">
        <ele>782.0</ele>
        <time>2019-07-31T10:58:47.093Z</time>
      </trkpt>
      <trkpt lat="42.99414833" lon="-1.22474833">
        <ele>782.0</ele>
        <time>2019-07-31T10:58:48.099Z</time>
      </trkpt>
      <trkpt lat="42.99413333" lon="-1.22476167">
        <ele>782.0</ele>
        <time>2019-07-31T10:58:49.104Z</time>
      </trkpt>
      <trkpt lat="42.99412" lon="-1.224775">
        <ele>782.0</ele>
        <time>2019-07-31T10:58:50.109Z</time>
      </trkpt>
      <trkpt lat="42.994105" lon="-1.22479">
        <ele>782.0</ele>
        <time>2019-07-31T10:58:51.115Z</time>
      </trkpt>
      <trkpt lat="42.99409167" lon="-1.22480333">
        <ele>782.0</ele>
        <time>2019-07-31T10:58:52.121Z</time>
      </trkpt>
      <trkpt lat="42.99407833" lon="-1.22481833">
        <ele>782.0</ele>
        <time>2019-07-31T10:58:53.124Z</time>
      </trkpt>
      <trkpt lat="42.99406333" lon="-1.22483333">
        <ele>782.0</ele>
        <time>2019-07-31T10:58:54.130Z</time>
      </trkpt>
      <trkpt lat="42.99405" lon="-1.224845">
        <ele>782.0</ele>
        <time>2019-07-31T10:58:55.135Z</time>
      </trkpt>
      <trkpt lat="42.994035" lon="-1.22485667">
        <ele>782.0</ele>
        <time>2019-07-31T10:58:56.140Z</time>
      </trkpt>
      <trkpt lat="42.99402167" lon="-1.22486833">
        <ele>782.0</ele>
        <time>2019-07-31T10:58:57.146Z</time>
      </trkpt>
      <trkpt lat="42.99400833" lon="-1.22488167">
        <ele>783.0</ele>
        <time>2019-07-31T10:58:58.154Z</time>
      </trkpt>
      <trkpt lat="42.99399333" lon="-1.224895">
        <ele>783.0</ele>
        <time>2019-07-31T10:58:59.159Z</time>
      </trkpt>
      <trkpt lat="42.99397833" lon="-1.22490833">
        <ele>783.0</ele>
        <time>2019-07-31T10:59:00.164Z</time>
      </trkpt>
      <trkpt lat="42.993965" lon="-1.22492167">
        <ele>783.0</ele>
        <time>2019-07-31T10:59:01.172Z</time>
      </trkpt>
      <trkpt lat="42.99394833" lon="-1.22494">
        <ele>783.0</ele>
        <time>2019-07-31T10:59:02.178Z</time>
      </trkpt>
      <trkpt lat="42.99393667" lon="-1.22495167">
        <ele>783.0</ele>
        <time>2019-07-31T10:59:03.182Z</time>
      </trkpt>
      <trkpt lat="42.99392333" lon="-1.224965">
        <ele>783.0</ele>
        <time>2019-07-31T10:59:04.061Z</time>
      </trkpt>
      <trkpt lat="42.99391" lon="-1.22497833">
        <ele>783.0</ele>
        <time>2019-07-31T10:59:05.065Z</time>
      </trkpt>
      <trkpt lat="42.99389667" lon="-1.22499167">
        <ele>783.0</ele>
        <time>2019-07-31T10:59:06.069Z</time>
      </trkpt>
      <trkpt lat="42.99388333" lon="-1.22500833">
        <ele>783.0</ele>
        <time>2019-07-31T10:59:07.074Z</time>
      </trkpt>
      <trkpt lat="42.99386833" lon="-1.22502">
        <ele>783.0</ele>
        <time>2019-07-31T10:59:08.081Z</time>
      </trkpt>
      <trkpt lat="42.99385333" lon="-1.22503">
        <ele>783.0</ele>
        <time>2019-07-31T10:59:09.086Z</time>
      </trkpt>
      <trkpt lat="42.99384" lon="-1.22504">
        <ele>784.0</ele>
        <time>2019-07-31T10:59:10.090Z</time>
      </trkpt>
      <trkpt lat="42.99382667" lon="-1.22505333">
        <ele>784.0</ele>
        <time>2019-07-31T10:59:11.096Z</time>
      </trkpt>
      <trkpt lat="42.99381167" lon="-1.225065">
        <ele>784.0</ele>
        <time>2019-07-31T10:59:12.102Z</time>
      </trkpt>
      <trkpt lat="42.99379667" lon="-1.22507667">
        <ele>784.0</ele>
        <time>2019-07-31T10:59:13.109Z</time>
      </trkpt>
      <trkpt lat="42.99378167" lon="-1.22509">
        <ele>784.0</ele>
        <time>2019-07-31T10:59:14.114Z</time>
      </trkpt>
      <trkpt lat="42.99376667" lon="-1.22510333">
        <ele>784.0</ele>
        <time>2019-07-31T10:59:15.120Z</time>
      </trkpt>
      <trkpt lat="42.99375333" lon="-1.225115">
        <ele>784.0</ele>
        <time>2019-07-31T10:59:16.124Z</time>
      </trkpt>
      <trkpt lat="42.99373833" lon="-1.22512833">
        <ele>784.0</ele>
        <time>2019-07-31T10:59:17.128Z</time>
      </trkpt>
      <trkpt lat="42.99372333" lon="-1.22513833">
        <ele>784.0</ele>
        <time>2019-07-31T10:59:18.134Z</time>
      </trkpt>
      <trkpt lat="42.99371" lon="-1.22514833">
        <ele>784.0</ele>
        <time>2019-07-31T10:59:19.141Z</time>
      </trkpt>
      <trkpt lat="42.99369333" lon="-1.22515667">
        <ele>785.0</ele>
        <time>2019-07-31T10:59:20.146Z</time>
      </trkpt>
      <trkpt lat="42.99368" lon="-1.22516833">
        <ele>785.0</ele>
        <time>2019-07-31T10:59:21.149Z</time>
      </trkpt>
      <trkpt lat="42.993665" lon="-1.22517667">
        <ele>785.0</ele>
        <time>2019-07-31T10:59:22.155Z</time>
      </trkpt>
      <trkpt lat="42.99365" lon="-1.22518833">
        <ele>785.0</ele>
        <time>2019-07-31T10:59:23.158Z</time>
      </trkpt>
      <trkpt lat="42.99363667" lon="-1.22519833">
        <ele>785.0</ele>
        <time>2019-07-31T10:59:24.164Z</time>
      </trkpt>
      <trkpt lat="42.99362" lon="-1.22520667">
        <ele>785.0</ele>
        <time>2019-07-31T10:59:25.167Z</time>
      </trkpt>
      <trkpt lat="42.993605" lon="-1.22521833">
        <ele>785.0</ele>
        <time>2019-07-31T10:59:26.173Z</time>
      </trkpt>
      <trkpt lat="42.99359" lon="-1.22523">
        <ele>784.0</ele>
        <time>2019-07-31T10:59:27.175Z</time>
      </trkpt>
      <trkpt lat="42.993575" lon="-1.22524167">
        <ele>784.0</ele>
        <time>2019-07-31T10:59:28.180Z</time>
      </trkpt>
      <trkpt lat="42.99356" lon="-1.22525333">
        <ele>784.0</ele>
        <time>2019-07-31T10:59:29.186Z</time>
      </trkpt>
      <trkpt lat="42.99354667" lon="-1.22526667">
        <ele>784.0</ele>
        <time>2019-07-31T10:59:30.066Z</time>
      </trkpt>
      <trkpt lat="42.99353333" lon="-1.22527833">
        <ele>784.0</ele>
        <time>2019-07-31T10:59:31.071Z</time>
      </trkpt>
      <trkpt lat="42.99352" lon="-1.22528833">
        <ele>784.0</ele>
        <time>2019-07-31T10:59:32.078Z</time>
      </trkpt>
      <trkpt lat="42.99350667" lon="-1.22529833">
        <ele>783.0</ele>
        <time>2019-07-31T10:59:33.083Z</time>
      </trkpt>
      <trkpt lat="42.993495" lon="-1.22531167">
        <ele>783.0</ele>
        <time>2019-07-31T10:59:34.089Z</time>
      </trkpt>
      <trkpt lat="42.99348333" lon="-1.22532167">
        <ele>783.0</ele>
        <time>2019-07-31T10:59:35.094Z</time>
      </trkpt>
      <trkpt lat="42.99347667" lon="-1.22532833">
        <ele>783.0</ele>
        <time>2019-07-31T10:59:36.099Z</time>
      </trkpt>
      <trkpt lat="42.99347333" lon="-1.22533167">
        <ele>783.0</ele>
        <time>2019-07-31T10:59:37.105Z</time>
      </trkpt>
      <trkpt lat="42.99347" lon="-1.225335">
        <ele>783.0</ele>
        <time>2019-07-31T10:59:38.109Z</time>
      </trkpt>
      <trkpt lat="42.99346667" lon="-1.22533667">
        <ele>783.0</ele>
        <time>2019-07-31T10:59:39.114Z</time>
      </trkpt>
      <trkpt lat="42.99346667" lon="-1.22533667">
        <ele>783.0</ele>
        <time>2019-07-31T10:59:40.120Z</time>
      </trkpt>
      <trkpt lat="42.993465" lon="-1.22533667">
        <ele>783.0</ele>
        <time>2019-07-31T10:59:41.124Z</time>
      </trkpt>
      <trkpt lat="42.99346333" lon="-1.22533333">
        <ele>784.0</ele>
        <time>2019-07-31T10:59:42.131Z</time>
      </trkpt>
      <trkpt lat="42.99346333" lon="-1.22533">
        <ele>784.0</ele>
        <time>2019-07-31T10:59:43.137Z</time>
      </trkpt>
      <trkpt lat="42.99346167" lon="-1.22532667">
        <ele>785.0</ele>
        <time>2019-07-31T10:59:44.142Z</time>
      </trkpt>
      <trkpt lat="42.99346167" lon="-1.22532">
        <ele>785.0</ele>
        <time>2019-07-31T10:59:45.148Z</time>
      </trkpt>
      <trkpt lat="42.99346" lon="-1.225315">
        <ele>784.0</ele>
        <time>2019-07-31T10:59:46.153Z</time>
      </trkpt>
      <trkpt lat="42.99346" lon="-1.22531333">
        <ele>783.0</ele>
        <time>2019-07-31T10:59:47.159Z</time>
      </trkpt>
      <trkpt lat="42.99345833" lon="-1.22530833">
        <ele>782.0</ele>
        <time>2019-07-31T10:59:48.163Z</time>
      </trkpt>
      <trkpt lat="42.99346" lon="-1.22530667">
        <ele>782.0</ele>
        <time>2019-07-31T10:59:49.167Z</time>
      </trkpt>
      <trkpt lat="42.99345833" lon="-1.225305">
        <ele>781.0</ele>
        <time>2019-07-31T10:59:50.174Z</time>
      </trkpt>
      <trkpt lat="42.99346" lon="-1.22530333">
        <ele>781.0</ele>
        <time>2019-07-31T10:59:51.181Z</time>
      </trkpt>
      <trkpt lat="42.99346" lon="-1.2253">
        <ele>781.0</ele>
        <time>2019-07-31T10:59:52.061Z</time>
      </trkpt>
      <trkpt lat="42.99346" lon="-1.22529667">
        <ele>781.0</ele>
        <time>2019-07-31T10:59:53.066Z</time>
      </trkpt>
      <trkpt lat="42.99346167" lon="-1.22529167">
        <ele>781.0</ele>
        <time>2019-07-31T10:59:54.071Z</time>
      </trkpt>
      <trkpt lat="42.99346333" lon="-1.22528667">
        <ele>780.0</ele>
        <time>2019-07-31T10:59:55.077Z</time>
      </trkpt>
      <trkpt lat="42.993465" lon="-1.225285">
        <ele>780.0</ele>
        <time>2019-07-31T10:59:56.081Z</time>
      </trkpt>
      <trkpt lat="42.993465" lon="-1.22528167">
        <ele>781.0</ele>
        <time>2019-07-31T10:59:57.089Z</time>
      </trkpt>
      <trkpt lat="42.993465" lon="-1.22527667">
        <ele>780.0</ele>
        <time>2019-07-31T10:59:58.094Z</time>
      </trkpt>
      <trkpt lat="42.993465" lon="-1.22527">
        <ele>780.0</ele>
        <time>2019-07-31T10:59:59.100Z</time>
      </trkpt>
      <trkpt lat="42.99346833" lon="-1.22527">
        <ele>779.0</ele>
        <time>2019-07-31T11:00:00.105Z</time>
      </trkpt>
      <trkpt lat="42.99346833" lon="-1.22526333">
        <ele>779.0</ele>
        <time>2019-07-31T11:00:01.110Z</time>
      </trkpt>
      <trkpt lat="42.99346667" lon="-1.22526">
        <ele>778.0</ele>
        <time>2019-07-31T11:00:02.113Z</time>
      </trkpt>
      <trkpt lat="42.99346833" lon="-1.22526">
        <ele>777.0</ele>
        <time>2019-07-31T11:00:03.119Z</time>
      </trkpt>
      <trkpt lat="42.99346833" lon="-1.22525167">
        <ele>777.0</ele>
        <time>2019-07-31T11:00:04.124Z</time>
      </trkpt>
      <trkpt lat="42.993465" lon="-1.22524667">
        <ele>778.0</ele>
        <time>2019-07-31T11:00:05.130Z</time>
      </trkpt>
      <trkpt lat="42.99346167" lon="-1.225245">
        <ele>780.0</ele>
        <time>2019-07-31T11:00:06.136Z</time>
      </trkpt>
      <trkpt lat="42.99346333" lon="-1.22525">
        <ele>781.0</ele>
        <time>2019-07-31T11:00:07.142Z</time>
      </trkpt>
      <trkpt lat="42.993465" lon="-1.22525667">
        <ele>783.0</ele>
        <time>2019-07-31T11:00:08.148Z</time>
      </trkpt>
      <trkpt lat="42.993465" lon="-1.22526">
        <ele>784.0</ele>
        <time>2019-07-31T11:00:09.155Z</time>
      </trkpt>
      <trkpt lat="42.99346667" lon="-1.22526167">
        <ele>784.0</ele>
        <time>2019-07-31T11:00:10.161Z</time>
      </trkpt>
      <trkpt lat="42.99346833" lon="-1.225265">
        <ele>784.0</ele>
        <time>2019-07-31T11:00:11.166Z</time>
      </trkpt>
      <trkpt lat="42.99346667" lon="-1.225265">
        <ele>784.0</ele>
        <time>2019-07-31T11:00:12.172Z</time>
      </trkpt>
      <trkpt lat="42.99346833" lon="-1.22526833">
        <ele>784.0</ele>
        <time>2019-07-31T11:00:13.179Z</time>
      </trkpt>
      <trkpt lat="42.99347" lon="-1.22526833">
        <ele>784.0</ele>
        <time>2019-07-31T11:00:14.186Z</time>
      </trkpt>
      <trkpt lat="42.99347" lon="-1.22526667">
        <ele>784.0</ele>
        <time>2019-07-31T11:00:15.066Z</time>
      </trkpt>
      <trkpt lat="42.99347" lon="-1.22526667">
        <ele>784.0</ele>
        <time>2019-07-31T11:00:16.072Z</time>
      </trkpt>
      <trkpt lat="42.99347167" lon="-1.22526667">
        <ele>784.0</ele>
        <time>2019-07-31T11:00:17.076Z</time>
      </trkpt>
      <trkpt lat="42.99347167" lon="-1.22526833">
        <ele>784.0</ele>
        <time>2019-07-31T11:00:18.080Z</time>
      </trkpt>
      <trkpt lat="42.99347167" lon="-1.22526833">
        <ele>784.0</ele>
        <time>2019-07-31T11:00:19.083Z</time>
      </trkpt>
      <trkpt lat="42.99347333" lon="-1.22526833">
        <ele>783.0</ele>
        <time>2019-07-31T11:00:20.089Z</time>
      </trkpt>
      <trkpt lat="42.993475" lon="-1.22527">
        <ele>783.0</ele>
        <time>2019-07-31T11:00:21.095Z</time>
      </trkpt>
      <trkpt lat="42.99347833" lon="-1.22527333">
        <ele>783.0</ele>
        <time>2019-07-31T11:00:22.100Z</time>
      </trkpt>
      <trkpt lat="42.99347833" lon="-1.22527333">
        <ele>782.0</ele>
        <time>2019-07-31T11:00:23.106Z</time>
      </trkpt>
      <trkpt lat="42.993475" lon="-1.22527667">
        <ele>782.0</ele>
        <time>2019-07-31T11:00:24.113Z</time>
      </trkpt>
      <trkpt lat="42.99347167" lon="-1.225285">
        <ele>782.0</ele>
        <time>2019-07-31T11:00:25.116Z</time>
      </trkpt>
      <trkpt lat="42.99346333" lon="-1.225295">
        <ele>781.0</ele>
        <time>2019-07-31T11:00:26.121Z</time>
      </trkpt>
      <trkpt lat="42.99345" lon="-1.22531167">
        <ele>782.0</ele>
        <time>2019-07-31T11:00:27.125Z</time>
      </trkpt>
      <trkpt lat="42.99343833" lon="-1.22531833">
        <ele>781.0</ele>
        <time>2019-07-31T11:00:28.130Z</time>
      </trkpt>
      <trkpt lat="42.99342667" lon="-1.22533167">
        <ele>782.0</ele>
        <time>2019-07-31T11:00:29.133Z</time>
      </trkpt>
      <trkpt lat="42.99341167" lon="-1.22534167">
        <ele>781.0</ele>
        <time>2019-07-31T11:00:30.138Z</time>
      </trkpt>
      <trkpt lat="42.993395" lon="-1.22535333">
        <ele>781.0</ele>
        <time>2019-07-31T11:00:31.144Z</time>
      </trkpt>
      <trkpt lat="42.99338333" lon="-1.22535833">
        <ele>780.0</ele>
        <time>2019-07-31T11:00:32.150Z</time>
      </trkpt>
      <trkpt lat="42.99336833" lon="-1.22536167">
        <ele>781.0</ele>
        <time>2019-07-31T11:00:33.155Z</time>
      </trkpt>
      <trkpt lat="42.99335333" lon="-1.22536833">
        <ele>781.0</ele>
        <time>2019-07-31T11:00:34.161Z</time>
      </trkpt>
      <trkpt lat="42.99333833" lon="-1.225375">
        <ele>781.0</ele>
        <time>2019-07-31T11:00:35.165Z</time>
      </trkpt>
      <trkpt lat="42.99332333" lon="-1.22538">
        <ele>781.0</ele>
        <time>2019-07-31T11:00:36.169Z</time>
      </trkpt>
      <trkpt lat="42.993305" lon="-1.22538667">
        <ele>780.0</ele>
        <time>2019-07-31T11:00:37.175Z</time>
      </trkpt>
      <trkpt lat="42.99328833" lon="-1.22539">
        <ele>780.0</ele>
        <time>2019-07-31T11:00:38.182Z</time>
      </trkpt>
      <trkpt lat="42.99327167" lon="-1.225395">
        <ele>779.0</ele>
        <time>2019-07-31T11:00:39.063Z</time>
      </trkpt>
      <trkpt lat="42.993255" lon="-1.22540167">
        <ele>780.0</ele>
        <time>2019-07-31T11:00:40.067Z</time>
      </trkpt>
      <trkpt lat="42.99323667" lon="-1.22540833">
        <ele>780.0</ele>
        <time>2019-07-31T11:00:41.073Z</time>
      </trkpt>
      <trkpt lat="42.99322167" lon="-1.22541333">
        <ele>780.0</ele>
        <time>2019-07-31T11:00:42.075Z</time>
      </trkpt>
      <trkpt lat="42.993205" lon="-1.22542333">
        <ele>780.0</ele>
        <time>2019-07-31T11:00:43.077Z</time>
      </trkpt>
      <trkpt lat="42.99318667" lon="-1.22543667">
        <ele>780.0</ele>
        <time>2019-07-31T11:00:44.082Z</time>
      </trkpt>
      <trkpt lat="42.99317167" lon="-1.22544667">
        <ele>780.0</ele>
        <time>2019-07-31T11:00:45.088Z</time>
      </trkpt>
      <trkpt lat="42.99316" lon="-1.22545333">
        <ele>780.0</ele>
        <time>2019-07-31T11:00:46.093Z</time>
      </trkpt>
      <trkpt lat="42.993145" lon="-1.22546167">
        <ele>781.0</ele>
        <time>2019-07-31T11:00:47.096Z</time>
      </trkpt>
      <trkpt lat="42.99313167" lon="-1.22547167">
        <ele>781.0</ele>
        <time>2019-07-31T11:00:48.102Z</time>
      </trkpt>
      <trkpt lat="42.99311667" lon="-1.22548333">
        <ele>781.0</ele>
        <time>2019-07-31T11:00:49.106Z</time>
      </trkpt>
      <trkpt lat="42.99310167" lon="-1.225495">
        <ele>781.0</ele>
        <time>2019-07-31T11:00:50.112Z</time>
      </trkpt>
      <trkpt lat="42.99308833" lon="-1.22550833">
        <ele>781.0</ele>
        <time>2019-07-31T11:00:51.117Z</time>
      </trkpt>
      <trkpt lat="42.99307333" lon="-1.22552167">
        <ele>780.0</ele>
        <time>2019-07-31T11:00:52.119Z</time>
      </trkpt>
      <trkpt lat="42.99305833" lon="-1.22553667">
        <ele>781.0</ele>
        <time>2019-07-31T11:00:53.122Z</time>
      </trkpt>
      <trkpt lat="42.993045" lon="-1.22554833">
        <ele>780.0</ele>
        <time>2019-07-31T11:00:54.126Z</time>
      </trkpt>
      <trkpt lat="42.99303" lon="-1.22556">
        <ele>780.0</ele>
        <time>2019-07-31T11:00:55.133Z</time>
      </trkpt>
      <trkpt lat="42.993015" lon="-1.22557167">
        <ele>780.0</ele>
        <time>2019-07-31T11:00:56.138Z</time>
      </trkpt>
      <trkpt lat="42.993" lon="-1.225585">
        <ele>780.0</ele>
        <time>2019-07-31T11:00:57.145Z</time>
      </trkpt>
      <trkpt lat="42.99298667" lon="-1.22560167">
        <ele>780.0</ele>
        <time>2019-07-31T11:00:58.151Z</time>
      </trkpt>
      <trkpt lat="42.99297333" lon="-1.22561833">
        <ele>780.0</ele>
        <time>2019-07-31T11:00:59.157Z</time>
      </trkpt>
      <trkpt lat="42.99296167" lon="-1.22563667">
        <ele>780.0</ele>
        <time>2019-07-31T11:01:00.161Z</time>
      </trkpt>
      <trkpt lat="42.99295" lon="-1.22565167">
        <ele>780.0</ele>
        <time>2019-07-31T11:01:01.164Z</time>
      </trkpt>
      <trkpt lat="42.99293833" lon="-1.22566833">
        <ele>780.0</ele>
        <time>2019-07-31T11:01:02.169Z</time>
      </trkpt>
      <trkpt lat="42.99292667" lon="-1.225685">
        <ele>780.0</ele>
        <time>2019-07-31T11:01:03.176Z</time>
      </trkpt>
      <trkpt lat="42.992915" lon="-1.22570333">
        <ele>780.0</ele>
        <time>2019-07-31T11:01:04.182Z</time>
      </trkpt>
      <trkpt lat="42.99290333" lon="-1.22571833">
        <ele>780.0</ele>
        <time>2019-07-31T11:01:05.063Z</time>
      </trkpt>
      <trkpt lat="42.99289167" lon="-1.225735">
        <ele>780.0</ele>
        <time>2019-07-31T11:01:06.067Z</time>
      </trkpt>
      <trkpt lat="42.99288" lon="-1.22575167">
        <ele>780.0</ele>
        <time>2019-07-31T11:01:07.074Z</time>
      </trkpt>
      <trkpt lat="42.99286833" lon="-1.22576833">
        <ele>780.0</ele>
        <time>2019-07-31T11:01:08.081Z</time>
      </trkpt>
      <trkpt lat="42.99285667" lon="-1.22578667">
        <ele>780.0</ele>
        <time>2019-07-31T11:01:09.086Z</time>
      </trkpt>
      <trkpt lat="42.992845" lon="-1.225805">
        <ele>780.0</ele>
        <time>2019-07-31T11:01:10.092Z</time>
      </trkpt>
      <trkpt lat="42.99283333" lon="-1.22582167">
        <ele>780.0</ele>
        <time>2019-07-31T11:01:11.097Z</time>
      </trkpt>
      <trkpt lat="42.99282333" lon="-1.22584">
        <ele>780.0</ele>
        <time>2019-07-31T11:01:12.101Z</time>
      </trkpt>
      <trkpt lat="42.99281" lon="-1.22585667">
        <ele>780.0</ele>
        <time>2019-07-31T11:01:13.107Z</time>
      </trkpt>
      <trkpt lat="42.99279833" lon="-1.22587167">
        <ele>780.0</ele>
        <time>2019-07-31T11:01:14.113Z</time>
      </trkpt>
      <trkpt lat="42.99278667" lon="-1.22588833">
        <ele>780.0</ele>
        <time>2019-07-31T11:01:15.118Z</time>
      </trkpt>
      <trkpt lat="42.99277167" lon="-1.225905">
        <ele>780.0</ele>
        <time>2019-07-31T11:01:16.122Z</time>
      </trkpt>
      <trkpt lat="42.99276" lon="-1.22592">
        <ele>779.0</ele>
        <time>2019-07-31T11:01:17.127Z</time>
      </trkpt>
      <trkpt lat="42.99275" lon="-1.225935">
        <ele>779.0</ele>
        <time>2019-07-31T11:01:18.135Z</time>
      </trkpt>
      <trkpt lat="42.99273667" lon="-1.22595">
        <ele>779.0</ele>
        <time>2019-07-31T11:01:19.141Z</time>
      </trkpt>
      <trkpt lat="42.99272333" lon="-1.22596667">
        <ele>778.0</ele>
        <time>2019-07-31T11:01:20.145Z</time>
      </trkpt>
      <trkpt lat="42.99271167" lon="-1.22598167">
        <ele>778.0</ele>
        <time>2019-07-31T11:01:21.151Z</time>
      </trkpt>
      <trkpt lat="42.9927" lon="-1.22599833">
        <ele>778.0</ele>
        <time>2019-07-31T11:01:22.157Z</time>
      </trkpt>
      <trkpt lat="42.992685" lon="-1.22601333">
        <ele>778.0</ele>
        <time>2019-07-31T11:01:23.161Z</time>
      </trkpt>
      <trkpt lat="42.99267333" lon="-1.22603">
        <ele>778.0</ele>
        <time>2019-07-31T11:01:24.165Z</time>
      </trkpt>
      <trkpt lat="42.99266" lon="-1.226045">
        <ele>779.0</ele>
        <time>2019-07-31T11:01:25.171Z</time>
      </trkpt>
      <trkpt lat="42.99264667" lon="-1.22606">
        <ele>779.0</ele>
        <time>2019-07-31T11:01:26.177Z</time>
      </trkpt>
      <trkpt lat="42.99263333" lon="-1.22607333">
        <ele>778.0</ele>
        <time>2019-07-31T11:01:27.184Z</time>
      </trkpt>
      <trkpt lat="42.99261833" lon="-1.226085">
        <ele>778.0</ele>
        <time>2019-07-31T11:01:28.065Z</time>
      </trkpt>
      <trkpt lat="42.99260333" lon="-1.22609667">
        <ele>778.0</ele>
        <time>2019-07-31T11:01:29.071Z</time>
      </trkpt>
      <trkpt lat="42.99259" lon="-1.22611">
        <ele>778.0</ele>
        <time>2019-07-31T11:01:30.076Z</time>
      </trkpt>
      <trkpt lat="42.99257333" lon="-1.22612167">
        <ele>778.0</ele>
        <time>2019-07-31T11:01:31.082Z</time>
      </trkpt>
      <trkpt lat="42.99255833" lon="-1.22613333">
        <ele>777.0</ele>
        <time>2019-07-31T11:01:32.089Z</time>
      </trkpt>
      <trkpt lat="42.99254333" lon="-1.22614667">
        <ele>777.0</ele>
        <time>2019-07-31T11:01:33.094Z</time>
      </trkpt>
      <trkpt lat="42.99253" lon="-1.22615833">
        <ele>777.0</ele>
        <time>2019-07-31T11:01:34.099Z</time>
      </trkpt>
      <trkpt lat="42.992515" lon="-1.22617167">
        <ele>777.0</ele>
        <time>2019-07-31T11:01:35.106Z</time>
      </trkpt>
      <trkpt lat="42.9925" lon="-1.22618167">
        <ele>777.0</ele>
        <time>2019-07-31T11:01:36.110Z</time>
      </trkpt>
      <trkpt lat="42.992485" lon="-1.22619333">
        <ele>777.0</ele>
        <time>2019-07-31T11:01:37.114Z</time>
      </trkpt>
      <trkpt lat="42.99247" lon="-1.22620167">
        <ele>777.0</ele>
        <time>2019-07-31T11:01:38.118Z</time>
      </trkpt>
      <trkpt lat="42.992455" lon="-1.22621">
        <ele>777.0</ele>
        <time>2019-07-31T11:01:39.124Z</time>
      </trkpt>
      <trkpt lat="42.99243833" lon="-1.22622">
        <ele>777.0</ele>
        <time>2019-07-31T11:01:40.127Z</time>
      </trkpt>
      <trkpt lat="42.99242333" lon="-1.22622667">
        <ele>776.0</ele>
        <time>2019-07-31T11:01:41.133Z</time>
      </trkpt>
      <trkpt lat="42.99240833" lon="-1.22623667">
        <ele>776.0</ele>
        <time>2019-07-31T11:01:42.139Z</time>
      </trkpt>
      <trkpt lat="42.99239167" lon="-1.226245">
        <ele>776.0</ele>
        <time>2019-07-31T11:01:43.146Z</time>
      </trkpt>
      <trkpt lat="42.99237667" lon="-1.22625">
        <ele>776.0</ele>
        <time>2019-07-31T11:01:44.151Z</time>
      </trkpt>
      <trkpt lat="42.99236" lon="-1.22625667">
        <ele>776.0</ele>
        <time>2019-07-31T11:01:45.157Z</time>
      </trkpt>
      <trkpt lat="42.99234167" lon="-1.22626167">
        <ele>776.0</ele>
        <time>2019-07-31T11:01:46.162Z</time>
      </trkpt>
      <trkpt lat="42.992325" lon="-1.22626833">
        <ele>776.0</ele>
        <time>2019-07-31T11:01:47.168Z</time>
      </trkpt>
      <trkpt lat="42.99230833" lon="-1.22627167">
        <ele>776.0</ele>
        <time>2019-07-31T11:01:48.174Z</time>
      </trkpt>
      <trkpt lat="42.99229333" lon="-1.22627667">
        <ele>776.0</ele>
        <time>2019-07-31T11:01:49.181Z</time>
      </trkpt>
      <trkpt lat="42.992275" lon="-1.22628167">
        <ele>776.0</ele>
        <time>2019-07-31T11:01:50.061Z</time>
      </trkpt>
      <trkpt lat="42.99225833" lon="-1.226285">
        <ele>776.0</ele>
        <time>2019-07-31T11:01:51.066Z</time>
      </trkpt>
      <trkpt lat="42.99224167" lon="-1.22629">
        <ele>776.0</ele>
        <time>2019-07-31T11:01:52.073Z</time>
      </trkpt>
      <trkpt lat="42.99222667" lon="-1.22629667">
        <ele>775.0</ele>
        <time>2019-07-31T11:01:53.080Z</time>
      </trkpt>
      <trkpt lat="42.99221" lon="-1.22630167">
        <ele>775.0</ele>
        <time>2019-07-31T11:01:54.084Z</time>
      </trkpt>
      <trkpt lat="42.99219333" lon="-1.226305">
        <ele>775.0</ele>
        <time>2019-07-31T11:01:55.089Z</time>
      </trkpt>
      <trkpt lat="42.99217667" lon="-1.22630833">
        <ele>775.0</ele>
        <time>2019-07-31T11:01:56.095Z</time>
      </trkpt>
      <trkpt lat="42.99215833" lon="-1.22631167">
        <ele>775.0</ele>
        <time>2019-07-31T11:01:57.097Z</time>
      </trkpt>
      <trkpt lat="42.99214167" lon="-1.22631333">
        <ele>774.0</ele>
        <time>2019-07-31T11:01:58.100Z</time>
      </trkpt>
      <trkpt lat="42.992125" lon="-1.22631167">
        <ele>773.0</ele>
        <time>2019-07-31T11:01:59.106Z</time>
      </trkpt>
      <trkpt lat="42.992105" lon="-1.226315">
        <ele>773.0</ele>
        <time>2019-07-31T11:02:00.111Z</time>
      </trkpt>
      <trkpt lat="42.99209333" lon="-1.226315">
        <ele>773.0</ele>
        <time>2019-07-31T11:02:01.116Z</time>
      </trkpt>
      <trkpt lat="42.99207667" lon="-1.22631333">
        <ele>773.0</ele>
        <time>2019-07-31T11:02:02.122Z</time>
      </trkpt>
      <trkpt lat="42.99205833" lon="-1.22631333">
        <ele>772.0</ele>
        <time>2019-07-31T11:02:03.129Z</time>
      </trkpt>
      <trkpt lat="42.99204333" lon="-1.226315">
        <ele>772.0</ele>
        <time>2019-07-31T11:02:04.134Z</time>
      </trkpt>
      <trkpt lat="42.99203167" lon="-1.226315">
        <ele>772.0</ele>
        <time>2019-07-31T11:02:05.139Z</time>
      </trkpt>
      <trkpt lat="42.992015" lon="-1.226315">
        <ele>772.0</ele>
        <time>2019-07-31T11:02:06.143Z</time>
      </trkpt>
      <trkpt lat="42.99199833" lon="-1.22631333">
        <ele>771.0</ele>
        <time>2019-07-31T11:02:07.147Z</time>
      </trkpt>
      <trkpt lat="42.99197667" lon="-1.22631167">
        <ele>771.0</ele>
        <time>2019-07-31T11:02:08.150Z</time>
      </trkpt>
      <trkpt lat="42.99196167" lon="-1.22631333">
        <ele>771.0</ele>
        <time>2019-07-31T11:02:09.157Z</time>
      </trkpt>
      <trkpt lat="42.991945" lon="-1.22631167">
        <ele>770.0</ele>
        <time>2019-07-31T11:02:10.163Z</time>
      </trkpt>
      <trkpt lat="42.99193" lon="-1.22631">
        <ele>770.0</ele>
        <time>2019-07-31T11:02:11.169Z</time>
      </trkpt>
      <trkpt lat="42.99191333" lon="-1.22630833">
        <ele>770.0</ele>
        <time>2019-07-31T11:02:12.173Z</time>
      </trkpt>
      <trkpt lat="42.99189167" lon="-1.226305">
        <ele>770.0</ele>
        <time>2019-07-31T11:02:13.181Z</time>
      </trkpt>
      <trkpt lat="42.991875" lon="-1.22630333">
        <ele>770.0</ele>
        <time>2019-07-31T11:02:14.185Z</time>
      </trkpt>
      <trkpt lat="42.99185833" lon="-1.2263">
        <ele>769.0</ele>
        <time>2019-07-31T11:02:15.065Z</time>
      </trkpt>
      <trkpt lat="42.99184667" lon="-1.22629833">
        <ele>769.0</ele>
        <time>2019-07-31T11:02:16.070Z</time>
      </trkpt>
      <trkpt lat="42.99183" lon="-1.22629833">
        <ele>769.0</ele>
        <time>2019-07-31T11:02:17.076Z</time>
      </trkpt>
      <trkpt lat="42.99181333" lon="-1.226295">
        <ele>769.0</ele>
        <time>2019-07-31T11:02:18.079Z</time>
      </trkpt>
      <trkpt lat="42.99179667" lon="-1.22629167">
        <ele>769.0</ele>
        <time>2019-07-31T11:02:19.084Z</time>
      </trkpt>
      <trkpt lat="42.99177667" lon="-1.22628667">
        <ele>768.0</ele>
        <time>2019-07-31T11:02:20.090Z</time>
      </trkpt>
      <trkpt lat="42.99176333" lon="-1.226285">
        <ele>768.0</ele>
        <time>2019-07-31T11:02:21.095Z</time>
      </trkpt>
      <trkpt lat="42.99174833" lon="-1.22628167">
        <ele>768.0</ele>
        <time>2019-07-31T11:02:22.099Z</time>
      </trkpt>
      <trkpt lat="42.99173167" lon="-1.22627833">
        <ele>769.0</ele>
        <time>2019-07-31T11:02:23.104Z</time>
      </trkpt>
      <trkpt lat="42.99171667" lon="-1.22627333">
        <ele>769.0</ele>
        <time>2019-07-31T11:02:24.110Z</time>
      </trkpt>
      <trkpt lat="42.991695" lon="-1.22626833">
        <ele>768.0</ele>
        <time>2019-07-31T11:02:25.114Z</time>
      </trkpt>
      <trkpt lat="42.99168" lon="-1.226265">
        <ele>769.0</ele>
        <time>2019-07-31T11:02:26.119Z</time>
      </trkpt>
      <trkpt lat="42.99166333" lon="-1.226255">
        <ele>769.0</ele>
        <time>2019-07-31T11:02:27.125Z</time>
      </trkpt>
      <trkpt lat="42.99164333" lon="-1.22625">
        <ele>768.0</ele>
        <time>2019-07-31T11:02:28.130Z</time>
      </trkpt>
      <trkpt lat="42.99162667" lon="-1.226245">
        <ele>768.0</ele>
        <time>2019-07-31T11:02:29.136Z</time>
      </trkpt>
      <trkpt lat="42.99161167" lon="-1.22624">
        <ele>768.0</ele>
        <time>2019-07-31T11:02:30.142Z</time>
      </trkpt>
      <trkpt lat="42.9916" lon="-1.22623667">
        <ele>768.0</ele>
        <time>2019-07-31T11:02:31.147Z</time>
      </trkpt>
      <trkpt lat="42.991585" lon="-1.22623167">
        <ele>768.0</ele>
        <time>2019-07-31T11:02:32.151Z</time>
      </trkpt>
      <trkpt lat="42.99156833" lon="-1.22622333">
        <ele>767.0</ele>
        <time>2019-07-31T11:02:33.155Z</time>
      </trkpt>
      <trkpt lat="42.99155833" lon="-1.22621833">
        <ele>767.0</ele>
        <time>2019-07-31T11:02:34.160Z</time>
      </trkpt>
      <trkpt lat="42.99154167" lon="-1.22620833">
        <ele>767.0</ele>
        <time>2019-07-31T11:02:35.164Z</time>
      </trkpt>
      <trkpt lat="42.99152667" lon="-1.22619833">
        <ele>768.0</ele>
        <time>2019-07-31T11:02:36.168Z</time>
      </trkpt>
      <trkpt lat="42.99151167" lon="-1.226185">
        <ele>768.0</ele>
        <time>2019-07-31T11:02:37.174Z</time>
      </trkpt>
      <trkpt lat="42.991495" lon="-1.22617167">
        <ele>768.0</ele>
        <time>2019-07-31T11:02:38.179Z</time>
      </trkpt>
      <trkpt lat="42.99148" lon="-1.22615833">
        <ele>768.0</ele>
        <time>2019-07-31T11:02:39.185Z</time>
      </trkpt>
      <trkpt lat="42.99146667" lon="-1.226145">
        <ele>768.0</ele>
        <time>2019-07-31T11:02:40.065Z</time>
      </trkpt>
      <trkpt lat="42.991455" lon="-1.22613333">
        <ele>767.0</ele>
        <time>2019-07-31T11:02:41.071Z</time>
      </trkpt>
      <trkpt lat="42.99144167" lon="-1.22612167">
        <ele>767.0</ele>
        <time>2019-07-31T11:02:42.078Z</time>
      </trkpt>
      <trkpt lat="42.991425" lon="-1.22610667">
        <ele>767.0</ele>
        <time>2019-07-31T11:02:43.083Z</time>
      </trkpt>
      <trkpt lat="42.99141167" lon="-1.22609">
        <ele>767.0</ele>
        <time>2019-07-31T11:02:44.088Z</time>
      </trkpt>
      <trkpt lat="42.9914" lon="-1.226075">
        <ele>767.0</ele>
        <time>2019-07-31T11:02:45.093Z</time>
      </trkpt>
      <trkpt lat="42.99139167" lon="-1.22606">
        <ele>767.0</ele>
        <time>2019-07-31T11:02:46.099Z</time>
      </trkpt>
      <trkpt lat="42.99137667" lon="-1.22604">
        <ele>767.0</ele>
        <time>2019-07-31T11:02:47.104Z</time>
      </trkpt>
      <trkpt lat="42.99136667" lon="-1.22602667">
        <ele>767.0</ele>
        <time>2019-07-31T11:02:48.107Z</time>
      </trkpt>
      <trkpt lat="42.99135667" lon="-1.22601">
        <ele>768.0</ele>
        <time>2019-07-31T11:02:49.112Z</time>
      </trkpt>
      <trkpt lat="42.991345" lon="-1.22599333">
        <ele>768.0</ele>
        <time>2019-07-31T11:02:50.117Z</time>
      </trkpt>
      <trkpt lat="42.99133167" lon="-1.225975">
        <ele>768.0</ele>
        <time>2019-07-31T11:02:51.122Z</time>
      </trkpt>
      <trkpt lat="42.99131833" lon="-1.225955">
        <ele>768.0</ele>
        <time>2019-07-31T11:02:52.128Z</time>
      </trkpt>
      <trkpt lat="42.991305" lon="-1.22593833">
        <ele>768.0</ele>
        <time>2019-07-31T11:02:53.134Z</time>
      </trkpt>
      <trkpt lat="42.99129167" lon="-1.22592">
        <ele>768.0</ele>
        <time>2019-07-31T11:02:54.137Z</time>
      </trkpt>
      <trkpt lat="42.99128167" lon="-1.22590667">
        <ele>768.0</ele>
        <time>2019-07-31T11:02:55.143Z</time>
      </trkpt>
      <trkpt lat="42.99126833" lon="-1.22588833">
        <ele>769.0</ele>
        <time>2019-07-31T11:02:56.148Z</time>
      </trkpt>
      <trkpt lat="42.99125667" lon="-1.22587">
        <ele>769.0</ele>
        <time>2019-07-31T11:02:57.154Z</time>
      </trkpt>
      <trkpt lat="42.991245" lon="-1.22585333">
        <ele>769.0</ele>
        <time>2019-07-31T11:02:58.162Z</time>
      </trkpt>
      <trkpt lat="42.99123167" lon="-1.22583333">
        <ele>769.0</ele>
        <time>2019-07-31T11:02:59.167Z</time>
      </trkpt>
      <trkpt lat="42.99122" lon="-1.22581833">
        <ele>768.0</ele>
        <time>2019-07-31T11:03:00.171Z</time>
      </trkpt>
      <trkpt lat="42.99120833" lon="-1.22580333">
        <ele>768.0</ele>
        <time>2019-07-31T11:03:01.176Z</time>
      </trkpt>
      <trkpt lat="42.99119333" lon="-1.22578333">
        <ele>768.0</ele>
        <time>2019-07-31T11:03:02.182Z</time>
      </trkpt>
      <trkpt lat="42.99118333" lon="-1.22576833">
        <ele>768.0</ele>
        <time>2019-07-31T11:03:03.062Z</time>
      </trkpt>
      <trkpt lat="42.99117" lon="-1.22575">
        <ele>768.0</ele>
        <time>2019-07-31T11:03:04.067Z</time>
      </trkpt>
      <trkpt lat="42.99115833" lon="-1.22573333">
        <ele>768.0</ele>
        <time>2019-07-31T11:03:05.072Z</time>
      </trkpt>
      <trkpt lat="42.991145" lon="-1.225715">
        <ele>768.0</ele>
        <time>2019-07-31T11:03:06.077Z</time>
      </trkpt>
      <trkpt lat="42.99113167" lon="-1.22569333">
        <ele>769.0</ele>
        <time>2019-07-31T11:03:07.083Z</time>
      </trkpt>
      <trkpt lat="42.99112" lon="-1.22567833">
        <ele>769.0</ele>
        <time>2019-07-31T11:03:08.088Z</time>
      </trkpt>
      <trkpt lat="42.99110667" lon="-1.22566333">
        <ele>770.0</ele>
        <time>2019-07-31T11:03:09.094Z</time>
      </trkpt>
      <trkpt lat="42.991095" lon="-1.22564833">
        <ele>770.0</ele>
        <time>2019-07-31T11:03:10.099Z</time>
      </trkpt>
      <trkpt lat="42.99108333" lon="-1.22563333">
        <ele>770.0</ele>
        <time>2019-07-31T11:03:11.102Z</time>
      </trkpt>
      <trkpt lat="42.99107333" lon="-1.22561833">
        <ele>769.0</ele>
        <time>2019-07-31T11:03:12.109Z</time>
      </trkpt>
      <trkpt lat="42.99106" lon="-1.22560167">
        <ele>769.0</ele>
        <time>2019-07-31T11:03:13.115Z</time>
      </trkpt>
      <trkpt lat="42.99104833" lon="-1.22558667">
        <ele>769.0</ele>
        <time>2019-07-31T11:03:14.122Z</time>
      </trkpt>
      <trkpt lat="42.991035" lon="-1.22557">
        <ele>769.0</ele>
        <time>2019-07-31T11:03:15.127Z</time>
      </trkpt>
      <trkpt lat="42.991025" lon="-1.22555167">
        <ele>769.0</ele>
        <time>2019-07-31T11:03:16.132Z</time>
      </trkpt>
      <trkpt lat="42.99101" lon="-1.225535">
        <ele>769.0</ele>
        <time>2019-07-31T11:03:17.135Z</time>
      </trkpt>
      <trkpt lat="42.99099833" lon="-1.22552">
        <ele>769.0</ele>
        <time>2019-07-31T11:03:18.138Z</time>
      </trkpt>
      <trkpt lat="42.99098667" lon="-1.225505">
        <ele>769.0</ele>
        <time>2019-07-31T11:03:19.143Z</time>
      </trkpt>
      <trkpt lat="42.990975" lon="-1.22549167">
        <ele>769.0</ele>
        <time>2019-07-31T11:03:20.151Z</time>
      </trkpt>
      <trkpt lat="42.99096333" lon="-1.22547333">
        <ele>769.0</ele>
        <time>2019-07-31T11:03:21.157Z</time>
      </trkpt>
      <trkpt lat="42.99095333" lon="-1.22545833">
        <ele>769.0</ele>
        <time>2019-07-31T11:03:22.164Z</time>
      </trkpt>
      <trkpt lat="42.99094167" lon="-1.22544167">
        <ele>769.0</ele>
        <time>2019-07-31T11:03:23.167Z</time>
      </trkpt>
      <trkpt lat="42.99093167" lon="-1.22542333">
        <ele>770.0</ele>
        <time>2019-07-31T11:03:24.173Z</time>
      </trkpt>
      <trkpt lat="42.99092" lon="-1.22540667">
        <ele>769.0</ele>
        <time>2019-07-31T11:03:25.179Z</time>
      </trkpt>
      <trkpt lat="42.99090833" lon="-1.22538833">
        <ele>770.0</ele>
        <time>2019-07-31T11:03:26.185Z</time>
      </trkpt>
      <trkpt lat="42.990895" lon="-1.22537167">
        <ele>769.0</ele>
        <time>2019-07-31T11:03:27.065Z</time>
      </trkpt>
      <trkpt lat="42.99088167" lon="-1.22534833">
        <ele>770.0</ele>
        <time>2019-07-31T11:03:28.070Z</time>
      </trkpt>
      <trkpt lat="42.99087" lon="-1.22533">
        <ele>770.0</ele>
        <time>2019-07-31T11:03:29.077Z</time>
      </trkpt>
      <trkpt lat="42.99086167" lon="-1.22531167">
        <ele>770.0</ele>
        <time>2019-07-31T11:03:30.083Z</time>
      </trkpt>
      <trkpt lat="42.99085" lon="-1.225295">
        <ele>770.0</ele>
        <time>2019-07-31T11:03:31.089Z</time>
      </trkpt>
      <trkpt lat="42.99083833" lon="-1.22527667">
        <ele>770.0</ele>
        <time>2019-07-31T11:03:32.094Z</time>
      </trkpt>
      <trkpt lat="42.99082667" lon="-1.22526">
        <ele>770.0</ele>
        <time>2019-07-31T11:03:33.100Z</time>
      </trkpt>
      <trkpt lat="42.99081667" lon="-1.225245">
        <ele>769.0</ele>
        <time>2019-07-31T11:03:34.105Z</time>
      </trkpt>
      <trkpt lat="42.99080667" lon="-1.22522667">
        <ele>769.0</ele>
        <time>2019-07-31T11:03:35.111Z</time>
      </trkpt>
      <trkpt lat="42.99079667" lon="-1.22520333">
        <ele>769.0</ele>
        <time>2019-07-31T11:03:36.117Z</time>
      </trkpt>
      <trkpt lat="42.99079" lon="-1.22518333">
        <ele>769.0</ele>
        <time>2019-07-31T11:03:37.122Z</time>
      </trkpt>
      <trkpt lat="42.99078167" lon="-1.22516667">
        <ele>769.0</ele>
        <time>2019-07-31T11:03:38.127Z</time>
      </trkpt>
      <trkpt lat="42.99076833" lon="-1.225145">
        <ele>769.0</ele>
        <time>2019-07-31T11:03:39.132Z</time>
      </trkpt>
      <trkpt lat="42.99075833" lon="-1.22512667">
        <ele>769.0</ele>
        <time>2019-07-31T11:03:40.137Z</time>
      </trkpt>
      <trkpt lat="42.99075167" lon="-1.22511">
        <ele>770.0</ele>
        <time>2019-07-31T11:03:41.140Z</time>
      </trkpt>
      <trkpt lat="42.99074167" lon="-1.22509">
        <ele>770.0</ele>
        <time>2019-07-31T11:03:42.143Z</time>
      </trkpt>
      <trkpt lat="42.99073" lon="-1.22506667">
        <ele>770.0</ele>
        <time>2019-07-31T11:03:43.149Z</time>
      </trkpt>
      <trkpt lat="42.99071833" lon="-1.22504833">
        <ele>770.0</ele>
        <time>2019-07-31T11:03:44.154Z</time>
      </trkpt>
      <trkpt lat="42.99070833" lon="-1.22503167">
        <ele>770.0</ele>
        <time>2019-07-31T11:03:45.161Z</time>
      </trkpt>
      <trkpt lat="42.99069833" lon="-1.225015">
        <ele>770.0</ele>
        <time>2019-07-31T11:03:46.164Z</time>
      </trkpt>
      <trkpt lat="42.99068833" lon="-1.22499667">
        <ele>770.0</ele>
        <time>2019-07-31T11:03:47.169Z</time>
      </trkpt>
      <trkpt lat="42.99067833" lon="-1.22497833">
        <ele>770.0</ele>
        <time>2019-07-31T11:03:48.176Z</time>
      </trkpt>
      <trkpt lat="42.99066833" lon="-1.22496">
        <ele>771.0</ele>
        <time>2019-07-31T11:03:49.181Z</time>
      </trkpt>
      <trkpt lat="42.99065833" lon="-1.22493833">
        <ele>771.0</ele>
        <time>2019-07-31T11:03:50.185Z</time>
      </trkpt>
      <trkpt lat="42.99065" lon="-1.22492">
        <ele>771.0</ele>
        <time>2019-07-31T11:03:51.064Z</time>
      </trkpt>
      <trkpt lat="42.99064" lon="-1.2249">
        <ele>771.0</ele>
        <time>2019-07-31T11:03:52.073Z</time>
      </trkpt>
      <trkpt lat="42.99063" lon="-1.22488333">
        <ele>771.0</ele>
        <time>2019-07-31T11:03:53.081Z</time>
      </trkpt>
      <trkpt lat="42.99061833" lon="-1.224865">
        <ele>771.0</ele>
        <time>2019-07-31T11:03:54.086Z</time>
      </trkpt>
      <trkpt lat="42.99060667" lon="-1.224845">
        <ele>771.0</ele>
        <time>2019-07-31T11:03:55.092Z</time>
      </trkpt>
      <trkpt lat="42.99059667" lon="-1.22482667">
        <ele>771.0</ele>
        <time>2019-07-31T11:03:56.097Z</time>
      </trkpt>
      <trkpt lat="42.99058667" lon="-1.22480833">
        <ele>771.0</ele>
        <time>2019-07-31T11:03:57.104Z</time>
      </trkpt>
      <trkpt lat="42.99057667" lon="-1.22479167">
        <ele>771.0</ele>
        <time>2019-07-31T11:03:58.107Z</time>
      </trkpt>
      <trkpt lat="42.99056833" lon="-1.224775">
        <ele>771.0</ele>
        <time>2019-07-31T11:03:59.113Z</time>
      </trkpt>
      <trkpt lat="42.99055833" lon="-1.22475833">
        <ele>771.0</ele>
        <time>2019-07-31T11:04:00.117Z</time>
      </trkpt>
      <trkpt lat="42.99054833" lon="-1.22473833">
        <ele>771.0</ele>
        <time>2019-07-31T11:04:01.122Z</time>
      </trkpt>
      <trkpt lat="42.99053833" lon="-1.22472">
        <ele>771.0</ele>
        <time>2019-07-31T11:04:02.126Z</time>
      </trkpt>
      <trkpt lat="42.99052833" lon="-1.22470167">
        <ele>771.0</ele>
        <time>2019-07-31T11:04:03.131Z</time>
      </trkpt>
      <trkpt lat="42.99051667" lon="-1.22468167">
        <ele>771.0</ele>
        <time>2019-07-31T11:04:04.137Z</time>
      </trkpt>
      <trkpt lat="42.99050667" lon="-1.22466333">
        <ele>771.0</ele>
        <time>2019-07-31T11:04:05.143Z</time>
      </trkpt>
      <trkpt lat="42.99049667" lon="-1.224645">
        <ele>771.0</ele>
        <time>2019-07-31T11:04:06.150Z</time>
      </trkpt>
      <trkpt lat="42.99048667" lon="-1.22462833">
        <ele>771.0</ele>
        <time>2019-07-31T11:04:07.156Z</time>
      </trkpt>
      <trkpt lat="42.990475" lon="-1.22461">
        <ele>771.0</ele>
        <time>2019-07-31T11:04:08.161Z</time>
      </trkpt>
      <trkpt lat="42.990465" lon="-1.22459167">
        <ele>771.0</ele>
        <time>2019-07-31T11:04:09.164Z</time>
      </trkpt>
      <trkpt lat="42.99045333" lon="-1.22457333">
        <ele>771.0</ele>
        <time>2019-07-31T11:04:10.169Z</time>
      </trkpt>
      <trkpt lat="42.99044167" lon="-1.22455667">
        <ele>770.0</ele>
        <time>2019-07-31T11:04:11.172Z</time>
      </trkpt>
      <trkpt lat="42.99043167" lon="-1.224535">
        <ele>771.0</ele>
        <time>2019-07-31T11:04:12.175Z</time>
      </trkpt>
      <trkpt lat="42.99042333" lon="-1.22451667">
        <ele>770.0</ele>
        <time>2019-07-31T11:04:13.179Z</time>
      </trkpt>
      <trkpt lat="42.99041" lon="-1.22449833">
        <ele>770.0</ele>
        <time>2019-07-31T11:04:14.185Z</time>
      </trkpt>
      <trkpt lat="42.99039833" lon="-1.22448">
        <ele>770.0</ele>
        <time>2019-07-31T11:04:15.066Z</time>
      </trkpt>
      <trkpt lat="42.99038833" lon="-1.224465">
        <ele>770.0</ele>
        <time>2019-07-31T11:04:16.070Z</time>
      </trkpt>
      <trkpt lat="42.99037667" lon="-1.22444833">
        <ele>770.0</ele>
        <time>2019-07-31T11:04:17.074Z</time>
      </trkpt>
      <trkpt lat="42.99036667" lon="-1.22443167">
        <ele>770.0</ele>
        <time>2019-07-31T11:04:18.080Z</time>
      </trkpt>
      <trkpt lat="42.99035667" lon="-1.22441333">
        <ele>769.0</ele>
        <time>2019-07-31T11:04:19.081Z</time>
      </trkpt>
      <trkpt lat="42.990345" lon="-1.224395">
        <ele>769.0</ele>
        <time>2019-07-31T11:04:20.087Z</time>
      </trkpt>
      <trkpt lat="42.99033333" lon="-1.22437667">
        <ele>769.0</ele>
        <time>2019-07-31T11:04:21.090Z</time>
      </trkpt>
      <trkpt lat="42.99032167" lon="-1.22435833">
        <ele>769.0</ele>
        <time>2019-07-31T11:04:22.096Z</time>
      </trkpt>
      <trkpt lat="42.99031167" lon="-1.22434167">
        <ele>768.0</ele>
        <time>2019-07-31T11:04:23.102Z</time>
      </trkpt>
      <trkpt lat="42.99030167" lon="-1.22432667">
        <ele>768.0</ele>
        <time>2019-07-31T11:04:24.108Z</time>
      </trkpt>
      <trkpt lat="42.99029" lon="-1.22430667">
        <ele>768.0</ele>
        <time>2019-07-31T11:04:25.113Z</time>
      </trkpt>
      <trkpt lat="42.99028" lon="-1.22428667">
        <ele>769.0</ele>
        <time>2019-07-31T11:04:26.117Z</time>
      </trkpt>
      <trkpt lat="42.99026833" lon="-1.22426833">
        <ele>769.0</ele>
        <time>2019-07-31T11:04:27.122Z</time>
      </trkpt>
      <trkpt lat="42.99025833" lon="-1.22425167">
        <ele>769.0</ele>
        <time>2019-07-31T11:04:28.128Z</time>
      </trkpt>
      <trkpt lat="42.99024333" lon="-1.22423167">
        <ele>769.0</ele>
        <time>2019-07-31T11:04:29.134Z</time>
      </trkpt>
      <trkpt lat="42.99023167" lon="-1.224215">
        <ele>768.0</ele>
        <time>2019-07-31T11:04:30.139Z</time>
      </trkpt>
      <trkpt lat="42.99022" lon="-1.2242">
        <ele>768.0</ele>
        <time>2019-07-31T11:04:31.144Z</time>
      </trkpt>
      <trkpt lat="42.99021" lon="-1.22418167">
        <ele>768.0</ele>
        <time>2019-07-31T11:04:32.149Z</time>
      </trkpt>
      <trkpt lat="42.99020167" lon="-1.22416833">
        <ele>768.0</ele>
        <time>2019-07-31T11:04:33.155Z</time>
      </trkpt>
      <trkpt lat="42.99018667" lon="-1.22414667">
        <ele>768.0</ele>
        <time>2019-07-31T11:04:34.161Z</time>
      </trkpt>
      <trkpt lat="42.990175" lon="-1.22413">
        <ele>768.0</ele>
        <time>2019-07-31T11:04:35.165Z</time>
      </trkpt>
      <trkpt lat="42.99016167" lon="-1.22411333">
        <ele>768.0</ele>
        <time>2019-07-31T11:04:36.170Z</time>
      </trkpt>
      <trkpt lat="42.99014833" lon="-1.22409333">
        <ele>768.0</ele>
        <time>2019-07-31T11:04:37.175Z</time>
      </trkpt>
      <trkpt lat="42.99013833" lon="-1.22407833">
        <ele>768.0</ele>
        <time>2019-07-31T11:04:38.181Z</time>
      </trkpt>
      <trkpt lat="42.990125" lon="-1.22406333">
        <ele>768.0</ele>
        <time>2019-07-31T11:04:39.185Z</time>
      </trkpt>
      <trkpt lat="42.99011333" lon="-1.22405">
        <ele>768.0</ele>
        <time>2019-07-31T11:04:40.065Z</time>
      </trkpt>
      <trkpt lat="42.9901" lon="-1.22403667">
        <ele>768.0</ele>
        <time>2019-07-31T11:04:41.069Z</time>
      </trkpt>
      <trkpt lat="42.99009" lon="-1.22402833">
        <ele>768.0</ele>
        <time>2019-07-31T11:04:42.075Z</time>
      </trkpt>
      <trkpt lat="42.99007667" lon="-1.22401833">
        <ele>768.0</ele>
        <time>2019-07-31T11:04:43.081Z</time>
      </trkpt>
      <trkpt lat="42.99005833" lon="-1.224005">
        <ele>768.0</ele>
        <time>2019-07-31T11:04:44.087Z</time>
      </trkpt>
      <trkpt lat="42.99004333" lon="-1.223995">
        <ele>768.0</ele>
        <time>2019-07-31T11:04:45.094Z</time>
      </trkpt>
      <trkpt lat="42.99002833" lon="-1.22398667">
        <ele>768.0</ele>
        <time>2019-07-31T11:04:46.100Z</time>
      </trkpt>
      <trkpt lat="42.99001667" lon="-1.22398">
        <ele>768.0</ele>
        <time>2019-07-31T11:04:47.106Z</time>
      </trkpt>
      <trkpt lat="42.990005" lon="-1.22397167">
        <ele>768.0</ele>
        <time>2019-07-31T11:04:48.113Z</time>
      </trkpt>
      <trkpt lat="42.98999333" lon="-1.223965">
        <ele>768.0</ele>
        <time>2019-07-31T11:04:49.116Z</time>
      </trkpt>
      <trkpt lat="42.98998" lon="-1.22395667">
        <ele>768.0</ele>
        <time>2019-07-31T11:04:50.122Z</time>
      </trkpt>
      <trkpt lat="42.98997" lon="-1.22395">
        <ele>767.0</ele>
        <time>2019-07-31T11:04:51.127Z</time>
      </trkpt>
      <trkpt lat="42.98995833" lon="-1.22394">
        <ele>767.0</ele>
        <time>2019-07-31T11:04:52.131Z</time>
      </trkpt>
      <trkpt lat="42.98994167" lon="-1.22393167">
        <ele>767.0</ele>
        <time>2019-07-31T11:04:53.137Z</time>
      </trkpt>
      <trkpt lat="42.98992167" lon="-1.223925">
        <ele>767.0</ele>
        <time>2019-07-31T11:04:54.143Z</time>
      </trkpt>
      <trkpt lat="42.989905" lon="-1.22391833">
        <ele>767.0</ele>
        <time>2019-07-31T11:04:55.147Z</time>
      </trkpt>
      <trkpt lat="42.98989" lon="-1.22391">
        <ele>767.0</ele>
        <time>2019-07-31T11:04:56.152Z</time>
      </trkpt>
      <trkpt lat="42.98987833" lon="-1.223905">
        <ele>766.0</ele>
        <time>2019-07-31T11:04:57.159Z</time>
      </trkpt>
      <trkpt lat="42.98986" lon="-1.22389833">
        <ele>766.0</ele>
        <time>2019-07-31T11:04:58.164Z</time>
      </trkpt>
      <trkpt lat="42.98984333" lon="-1.22389333">
        <ele>765.0</ele>
        <time>2019-07-31T11:04:59.169Z</time>
      </trkpt>
      <trkpt lat="42.989825" lon="-1.223885">
        <ele>765.0</ele>
        <time>2019-07-31T11:05:00.173Z</time>
      </trkpt>
      <trkpt lat="42.98981333" lon="-1.22388">
        <ele>765.0</ele>
        <time>2019-07-31T11:05:01.179Z</time>
      </trkpt>
      <trkpt lat="42.98979667" lon="-1.22387">
        <ele>765.0</ele>
        <time>2019-07-31T11:05:02.182Z</time>
      </trkpt>
      <trkpt lat="42.989775" lon="-1.22385833">
        <ele>765.0</ele>
        <time>2019-07-31T11:05:03.061Z</time>
      </trkpt>
      <trkpt lat="42.98975833" lon="-1.22385">
        <ele>766.0</ele>
        <time>2019-07-31T11:05:04.068Z</time>
      </trkpt>
      <trkpt lat="42.98974167" lon="-1.22384167">
        <ele>766.0</ele>
        <time>2019-07-31T11:05:05.073Z</time>
      </trkpt>
      <trkpt lat="42.98972833" lon="-1.22383333">
        <ele>766.0</ele>
        <time>2019-07-31T11:05:06.079Z</time>
      </trkpt>
      <trkpt lat="42.98971333" lon="-1.22382333">
        <ele>766.0</ele>
        <time>2019-07-31T11:05:07.083Z</time>
      </trkpt>
      <trkpt lat="42.98969333" lon="-1.22381">
        <ele>767.0</ele>
        <time>2019-07-31T11:05:08.091Z</time>
      </trkpt>
      <trkpt lat="42.98968167" lon="-1.2238">
        <ele>767.0</ele>
        <time>2019-07-31T11:05:09.097Z</time>
      </trkpt>
      <trkpt lat="42.989665" lon="-1.223785">
        <ele>767.0</ele>
        <time>2019-07-31T11:05:10.102Z</time>
      </trkpt>
      <trkpt lat="42.989655" lon="-1.223775">
        <ele>767.0</ele>
        <time>2019-07-31T11:05:11.109Z</time>
      </trkpt>
      <trkpt lat="42.98964333" lon="-1.22376167">
        <ele>768.0</ele>
        <time>2019-07-31T11:05:12.116Z</time>
      </trkpt>
      <trkpt lat="42.98963167" lon="-1.22374833">
        <ele>767.0</ele>
        <time>2019-07-31T11:05:13.121Z</time>
      </trkpt>
      <trkpt lat="42.98962833" lon="-1.22373667">
        <ele>767.0</ele>
        <time>2019-07-31T11:05:14.126Z</time>
      </trkpt>
      <trkpt lat="42.98963" lon="-1.22373">
        <ele>767.0</ele>
        <time>2019-07-31T11:05:15.132Z</time>
      </trkpt>
      <trkpt lat="42.98963333" lon="-1.223725">
        <ele>767.0</ele>
        <time>2019-07-31T11:05:16.138Z</time>
      </trkpt>
      <trkpt lat="42.98963833" lon="-1.22372167">
        <ele>767.0</ele>
        <time>2019-07-31T11:05:17.140Z</time>
      </trkpt>
      <trkpt lat="42.98964" lon="-1.22372">
        <ele>766.0</ele>
        <time>2019-07-31T11:05:18.146Z</time>
      </trkpt>
      <trkpt lat="42.98964167" lon="-1.22372333">
        <ele>765.0</ele>
        <time>2019-07-31T11:05:19.152Z</time>
      </trkpt>
      <trkpt lat="42.98964333" lon="-1.22372333">
        <ele>765.0</ele>
        <time>2019-07-31T11:05:20.157Z</time>
      </trkpt>
      <trkpt lat="42.98964333" lon="-1.22372333">
        <ele>765.0</ele>
        <time>2019-07-31T11:05:21.164Z</time>
      </trkpt>
      <trkpt lat="42.98964333" lon="-1.22373">
        <ele>766.0</ele>
        <time>2019-07-31T11:05:22.171Z</time>
      </trkpt>
      <trkpt lat="42.98963667" lon="-1.22373833">
        <ele>766.0</ele>
        <time>2019-07-31T11:05:23.177Z</time>
      </trkpt>
      <trkpt lat="42.989635" lon="-1.22374333">
        <ele>765.0</ele>
        <time>2019-07-31T11:05:24.181Z</time>
      </trkpt>
      <trkpt lat="42.98964" lon="-1.22374">
        <ele>764.0</ele>
        <time>2019-07-31T11:05:25.186Z</time>
      </trkpt>
      <trkpt lat="42.98964667" lon="-1.223735">
        <ele>762.0</ele>
        <time>2019-07-31T11:05:26.066Z</time>
      </trkpt>
      <trkpt lat="42.98965" lon="-1.22373667">
        <ele>761.0</ele>
        <time>2019-07-31T11:05:27.073Z</time>
      </trkpt>
      <trkpt lat="42.989655" lon="-1.223745">
        <ele>759.0</ele>
        <time>2019-07-31T11:05:28.077Z</time>
      </trkpt>
      <trkpt lat="42.98965667" lon="-1.22374667">
        <ele>758.0</ele>
        <time>2019-07-31T11:05:29.082Z</time>
      </trkpt>
      <trkpt lat="42.98965833" lon="-1.22374833">
        <ele>758.0</ele>
        <time>2019-07-31T11:05:30.087Z</time>
      </trkpt>
      <trkpt lat="42.98966333" lon="-1.22374833">
        <ele>761.0</ele>
        <time>2019-07-31T11:05:31.092Z</time>
      </trkpt>
      <trkpt lat="42.989665" lon="-1.22375167">
        <ele>762.0</ele>
        <time>2019-07-31T11:05:32.098Z</time>
      </trkpt>
      <trkpt lat="42.98966833" lon="-1.22375333">
        <ele>763.0</ele>
        <time>2019-07-31T11:05:33.105Z</time>
      </trkpt>
      <trkpt lat="42.98966833" lon="-1.223755">
        <ele>763.0</ele>
        <time>2019-07-31T11:05:34.110Z</time>
      </trkpt>
      <trkpt lat="42.98965833" lon="-1.22376167">
        <ele>763.0</ele>
        <time>2019-07-31T11:05:35.115Z</time>
      </trkpt>
      <trkpt lat="42.98966" lon="-1.223765">
        <ele>763.0</ele>
        <time>2019-07-31T11:05:36.121Z</time>
      </trkpt>
      <trkpt lat="42.98966667" lon="-1.22375833">
        <ele>763.0</ele>
        <time>2019-07-31T11:05:37.127Z</time>
      </trkpt>
      <trkpt lat="42.98967333" lon="-1.22375667">
        <ele>763.0</ele>
        <time>2019-07-31T11:05:38.131Z</time>
      </trkpt>
      <trkpt lat="42.98967833" lon="-1.22375833">
        <ele>763.0</ele>
        <time>2019-07-31T11:05:39.136Z</time>
      </trkpt>
      <trkpt lat="42.989685" lon="-1.22376167">
        <ele>763.0</ele>
        <time>2019-07-31T11:05:40.142Z</time>
      </trkpt>
      <trkpt lat="42.989685" lon="-1.22376667">
        <ele>763.0</ele>
        <time>2019-07-31T11:05:41.148Z</time>
      </trkpt>
      <trkpt lat="42.98968667" lon="-1.22377333">
        <ele>763.0</ele>
        <time>2019-07-31T11:05:42.153Z</time>
      </trkpt>
      <trkpt lat="42.98969" lon="-1.223775">
        <ele>763.0</ele>
        <time>2019-07-31T11:05:43.157Z</time>
      </trkpt>
      <trkpt lat="42.98969667" lon="-1.22377">
        <ele>763.0</ele>
        <time>2019-07-31T11:05:44.162Z</time>
      </trkpt>
      <trkpt lat="42.989705" lon="-1.22376167">
        <ele>762.0</ele>
        <time>2019-07-31T11:05:45.166Z</time>
      </trkpt>
      <trkpt lat="42.98970667" lon="-1.22376167">
        <ele>761.0</ele>
        <time>2019-07-31T11:05:46.172Z</time>
      </trkpt>
      <trkpt lat="42.98970333" lon="-1.22376833">
        <ele>761.0</ele>
        <time>2019-07-31T11:05:47.177Z</time>
      </trkpt>
      <trkpt lat="42.989705" lon="-1.22377">
        <ele>761.0</ele>
        <time>2019-07-31T11:05:48.184Z</time>
      </trkpt>
      <trkpt lat="42.98970333" lon="-1.22377167">
        <ele>760.0</ele>
        <time>2019-07-31T11:05:49.065Z</time>
      </trkpt>
      <trkpt lat="42.98970667" lon="-1.22378167">
        <ele>760.0</ele>
        <time>2019-07-31T11:05:50.065Z</time>
      </trkpt>
      <trkpt lat="42.98971" lon="-1.22379">
        <ele>761.0</ele>
        <time>2019-07-31T11:05:51.066Z</time>
      </trkpt>
      <trkpt lat="42.98971167" lon="-1.2238">
        <ele>762.0</ele>
        <time>2019-07-31T11:05:52.071Z</time>
      </trkpt>
      <trkpt lat="42.98970833" lon="-1.22380833">
        <ele>762.0</ele>
        <time>2019-07-31T11:05:53.078Z</time>
      </trkpt>
      <trkpt lat="42.9897" lon="-1.22381833">
        <ele>763.0</ele>
        <time>2019-07-31T11:05:54.080Z</time>
      </trkpt>
      <trkpt lat="42.98969667" lon="-1.22381667">
        <ele>763.0</ele>
        <time>2019-07-31T11:05:55.084Z</time>
      </trkpt>
      <trkpt lat="42.98970333" lon="-1.22381167">
        <ele>762.0</ele>
        <time>2019-07-31T11:05:56.090Z</time>
      </trkpt>
      <trkpt lat="42.98969" lon="-1.22381">
        <ele>763.0</ele>
        <time>2019-07-31T11:05:57.095Z</time>
      </trkpt>
      <trkpt lat="42.98967667" lon="-1.22381">
        <ele>764.0</ele>
        <time>2019-07-31T11:05:58.101Z</time>
      </trkpt>
      <trkpt lat="42.989675" lon="-1.22380167">
        <ele>763.0</ele>
        <time>2019-07-31T11:05:59.106Z</time>
      </trkpt>
      <trkpt lat="42.98967667" lon="-1.22379167">
        <ele>762.0</ele>
        <time>2019-07-31T11:06:00.111Z</time>
      </trkpt>
      <trkpt lat="42.98968167" lon="-1.22378">
        <ele>761.0</ele>
        <time>2019-07-31T11:06:01.114Z</time>
      </trkpt>
      <trkpt lat="42.98968167" lon="-1.22377167">
        <ele>760.0</ele>
        <time>2019-07-31T11:06:02.120Z</time>
      </trkpt>
      <trkpt lat="42.98968167" lon="-1.22376333">
        <ele>759.0</ele>
        <time>2019-07-31T11:06:03.121Z</time>
      </trkpt>
      <trkpt lat="42.98968333" lon="-1.223755">
        <ele>758.0</ele>
        <time>2019-07-31T11:06:04.124Z</time>
      </trkpt>
      <trkpt lat="42.989685" lon="-1.223745">
        <ele>757.0</ele>
        <time>2019-07-31T11:06:05.131Z</time>
      </trkpt>
      <trkpt lat="42.989685" lon="-1.22374333">
        <ele>758.0</ele>
        <time>2019-07-31T11:06:06.136Z</time>
      </trkpt>
      <trkpt lat="42.98968167" lon="-1.223735">
        <ele>758.0</ele>
        <time>2019-07-31T11:06:07.140Z</time>
      </trkpt>
      <trkpt lat="42.98968167" lon="-1.22373167">
        <ele>759.0</ele>
        <time>2019-07-31T11:06:08.146Z</time>
      </trkpt>
      <trkpt lat="42.98967167" lon="-1.22373167">
        <ele>760.0</ele>
        <time>2019-07-31T11:06:09.151Z</time>
      </trkpt>
      <trkpt lat="42.98966333" lon="-1.22372833">
        <ele>761.0</ele>
        <time>2019-07-31T11:06:10.156Z</time>
      </trkpt>
      <trkpt lat="42.98966333" lon="-1.22373333">
        <ele>762.0</ele>
        <time>2019-07-31T11:06:11.163Z</time>
      </trkpt>
      <trkpt lat="42.98966" lon="-1.22373167">
        <ele>763.0</ele>
        <time>2019-07-31T11:06:12.168Z</time>
      </trkpt>
      <trkpt lat="42.98965333" lon="-1.22372833">
        <ele>764.0</ele>
        <time>2019-07-31T11:06:13.173Z</time>
      </trkpt>
      <trkpt lat="42.989645" lon="-1.22372667">
        <ele>764.0</ele>
        <time>2019-07-31T11:06:14.178Z</time>
      </trkpt>
      <trkpt lat="42.989635" lon="-1.22372167">
        <ele>764.0</ele>
        <time>2019-07-31T11:06:15.183Z</time>
      </trkpt>
      <trkpt lat="42.98962333" lon="-1.22371333">
        <ele>765.0</ele>
        <time>2019-07-31T11:06:16.064Z</time>
      </trkpt>
      <trkpt lat="42.98961" lon="-1.22370333">
        <ele>765.0</ele>
        <time>2019-07-31T11:06:17.071Z</time>
      </trkpt>
      <trkpt lat="42.98959667" lon="-1.22369167">
        <ele>765.0</ele>
        <time>2019-07-31T11:06:18.078Z</time>
      </trkpt>
      <trkpt lat="42.98958167" lon="-1.22368">
        <ele>765.0</ele>
        <time>2019-07-31T11:06:19.084Z</time>
      </trkpt>
      <trkpt lat="42.98957" lon="-1.22366667">
        <ele>765.0</ele>
        <time>2019-07-31T11:06:20.091Z</time>
      </trkpt>
      <trkpt lat="42.989555" lon="-1.22365167">
        <ele>764.0</ele>
        <time>2019-07-31T11:06:21.096Z</time>
      </trkpt>
      <trkpt lat="42.98954333" lon="-1.22363833">
        <ele>764.0</ele>
        <time>2019-07-31T11:06:22.103Z</time>
      </trkpt>
      <trkpt lat="42.98953" lon="-1.22362333">
        <ele>763.0</ele>
        <time>2019-07-31T11:06:23.109Z</time>
      </trkpt>
      <trkpt lat="42.98951667" lon="-1.22360667">
        <ele>763.0</ele>
        <time>2019-07-31T11:06:24.113Z</time>
      </trkpt>
      <trkpt lat="42.98950333" lon="-1.22359">
        <ele>763.0</ele>
        <time>2019-07-31T11:06:25.116Z</time>
      </trkpt>
      <trkpt lat="42.98948833" lon="-1.22357333">
        <ele>763.0</ele>
        <time>2019-07-31T11:06:26.121Z</time>
      </trkpt>
      <trkpt lat="42.98947833" lon="-1.223555">
        <ele>763.0</ele>
        <time>2019-07-31T11:06:27.127Z</time>
      </trkpt>
      <trkpt lat="42.98946667" lon="-1.22353667">
        <ele>763.0</ele>
        <time>2019-07-31T11:06:28.133Z</time>
      </trkpt>
      <trkpt lat="42.98945667" lon="-1.22351833">
        <ele>762.0</ele>
        <time>2019-07-31T11:06:29.139Z</time>
      </trkpt>
      <trkpt lat="42.989445" lon="-1.22350167">
        <ele>762.0</ele>
        <time>2019-07-31T11:06:30.145Z</time>
      </trkpt>
      <trkpt lat="42.98943667" lon="-1.22348333">
        <ele>761.0</ele>
        <time>2019-07-31T11:06:31.151Z</time>
      </trkpt>
      <trkpt lat="42.98942333" lon="-1.22346667">
        <ele>761.0</ele>
        <time>2019-07-31T11:06:32.158Z</time>
      </trkpt>
      <trkpt lat="42.98941333" lon="-1.22344833">
        <ele>761.0</ele>
        <time>2019-07-31T11:06:33.164Z</time>
      </trkpt>
      <trkpt lat="42.98940167" lon="-1.22343333">
        <ele>761.0</ele>
        <time>2019-07-31T11:06:34.168Z</time>
      </trkpt>
      <trkpt lat="42.98938667" lon="-1.22341667">
        <ele>760.0</ele>
        <time>2019-07-31T11:06:35.174Z</time>
      </trkpt>
      <trkpt lat="42.989375" lon="-1.22339833">
        <ele>761.0</ele>
        <time>2019-07-31T11:06:36.178Z</time>
      </trkpt>
      <trkpt lat="42.989365" lon="-1.22337833">
        <ele>761.0</ele>
        <time>2019-07-31T11:06:37.184Z</time>
      </trkpt>
      <trkpt lat="42.989355" lon="-1.22335833">
        <ele>761.0</ele>
        <time>2019-07-31T11:06:38.066Z</time>
      </trkpt>
      <trkpt lat="42.98934" lon="-1.22333833">
        <ele>761.0</ele>
        <time>2019-07-31T11:06:39.072Z</time>
      </trkpt>
      <trkpt lat="42.98932833" lon="-1.22331833">
        <ele>761.0</ele>
        <time>2019-07-31T11:06:40.077Z</time>
      </trkpt>
      <trkpt lat="42.989315" lon="-1.22329833">
        <ele>762.0</ele>
        <time>2019-07-31T11:06:41.083Z</time>
      </trkpt>
      <trkpt lat="42.98930333" lon="-1.22327667">
        <ele>762.0</ele>
        <time>2019-07-31T11:06:42.088Z</time>
      </trkpt>
      <trkpt lat="42.98929" lon="-1.22325833">
        <ele>762.0</ele>
        <time>2019-07-31T11:06:43.092Z</time>
      </trkpt>
      <trkpt lat="42.98927833" lon="-1.22324167">
        <ele>761.0</ele>
        <time>2019-07-31T11:06:44.098Z</time>
      </trkpt>
      <trkpt lat="42.98926833" lon="-1.223225">
        <ele>761.0</ele>
        <time>2019-07-31T11:06:45.104Z</time>
      </trkpt>
      <trkpt lat="42.98925667" lon="-1.22320833">
        <ele>761.0</ele>
        <time>2019-07-31T11:06:46.110Z</time>
      </trkpt>
      <trkpt lat="42.98924667" lon="-1.22319">
        <ele>761.0</ele>
        <time>2019-07-31T11:06:47.116Z</time>
      </trkpt>
      <trkpt lat="42.98923333" lon="-1.22317167">
        <ele>762.0</ele>
        <time>2019-07-31T11:06:48.122Z</time>
      </trkpt>
      <trkpt lat="42.98922167" lon="-1.22315333">
        <ele>761.0</ele>
        <time>2019-07-31T11:06:49.129Z</time>
      </trkpt>
      <trkpt lat="42.98920833" lon="-1.22313833">
        <ele>761.0</ele>
        <time>2019-07-31T11:06:50.134Z</time>
      </trkpt>
      <trkpt lat="42.98919667" lon="-1.22311833">
        <ele>762.0</ele>
        <time>2019-07-31T11:06:51.139Z</time>
      </trkpt>
      <trkpt lat="42.98918333" lon="-1.22310167">
        <ele>762.0</ele>
        <time>2019-07-31T11:06:52.145Z</time>
      </trkpt>
      <trkpt lat="42.98917167" lon="-1.22308333">
        <ele>762.0</ele>
        <time>2019-07-31T11:06:53.151Z</time>
      </trkpt>
      <trkpt lat="42.98916" lon="-1.223065">
        <ele>762.0</ele>
        <time>2019-07-31T11:06:54.156Z</time>
      </trkpt>
      <trkpt lat="42.98914833" lon="-1.223045">
        <ele>762.0</ele>
        <time>2019-07-31T11:06:55.162Z</time>
      </trkpt>
      <trkpt lat="42.98913667" lon="-1.22302667">
        <ele>763.0</ele>
        <time>2019-07-31T11:06:56.165Z</time>
      </trkpt>
      <trkpt lat="42.98912667" lon="-1.22300833">
        <ele>763.0</ele>
        <time>2019-07-31T11:06:57.172Z</time>
      </trkpt>
      <trkpt lat="42.98911333" lon="-1.22298833">
        <ele>764.0</ele>
        <time>2019-07-31T11:06:58.178Z</time>
      </trkpt>
      <trkpt lat="42.9891" lon="-1.22297167">
        <ele>764.0</ele>
        <time>2019-07-31T11:06:59.184Z</time>
      </trkpt>
      <trkpt lat="42.98908833" lon="-1.22295333">
        <ele>763.0</ele>
        <time>2019-07-31T11:07:00.064Z</time>
      </trkpt>
      <trkpt lat="42.98907667" lon="-1.222935">
        <ele>763.0</ele>
        <time>2019-07-31T11:07:01.072Z</time>
      </trkpt>
      <trkpt lat="42.989065" lon="-1.22291667">
        <ele>762.0</ele>
        <time>2019-07-31T11:07:02.078Z</time>
      </trkpt>
      <trkpt lat="42.989055" lon="-1.22289833">
        <ele>762.0</ele>
        <time>2019-07-31T11:07:03.084Z</time>
      </trkpt>
      <trkpt lat="42.989045" lon="-1.22288167">
        <ele>762.0</ele>
        <time>2019-07-31T11:07:04.090Z</time>
      </trkpt>
      <trkpt lat="42.989035" lon="-1.22286333">
        <ele>762.0</ele>
        <time>2019-07-31T11:07:05.096Z</time>
      </trkpt>
      <trkpt lat="42.98902167" lon="-1.22284667">
        <ele>761.0</ele>
        <time>2019-07-31T11:07:06.102Z</time>
      </trkpt>
      <trkpt lat="42.98901167" lon="-1.222825">
        <ele>761.0</ele>
        <time>2019-07-31T11:07:07.108Z</time>
      </trkpt>
      <trkpt lat="42.98899833" lon="-1.22280833">
        <ele>761.0</ele>
        <time>2019-07-31T11:07:08.114Z</time>
      </trkpt>
      <trkpt lat="42.98899167" lon="-1.22279">
        <ele>761.0</ele>
        <time>2019-07-31T11:07:09.119Z</time>
      </trkpt>
      <trkpt lat="42.98898167" lon="-1.22277">
        <ele>760.0</ele>
        <time>2019-07-31T11:07:10.121Z</time>
      </trkpt>
      <trkpt lat="42.98896833" lon="-1.22275667">
        <ele>760.0</ele>
        <time>2019-07-31T11:07:11.124Z</time>
      </trkpt>
      <trkpt lat="42.988955" lon="-1.22273833">
        <ele>760.0</ele>
        <time>2019-07-31T11:07:12.133Z</time>
      </trkpt>
      <trkpt lat="42.98894333" lon="-1.22272167">
        <ele>760.0</ele>
        <time>2019-07-31T11:07:13.140Z</time>
      </trkpt>
      <trkpt lat="42.988935" lon="-1.22270333">
        <ele>760.0</ele>
        <time>2019-07-31T11:07:14.145Z</time>
      </trkpt>
      <trkpt lat="42.98892167" lon="-1.22268833">
        <ele>760.0</ele>
        <time>2019-07-31T11:07:15.150Z</time>
      </trkpt>
      <trkpt lat="42.98890833" lon="-1.22267333">
        <ele>759.0</ele>
        <time>2019-07-31T11:07:16.155Z</time>
      </trkpt>
      <trkpt lat="42.98889333" lon="-1.22265667">
        <ele>759.0</ele>
        <time>2019-07-31T11:07:17.160Z</time>
      </trkpt>
      <trkpt lat="42.98888167" lon="-1.22264">
        <ele>759.0</ele>
        <time>2019-07-31T11:07:18.167Z</time>
      </trkpt>
      <trkpt lat="42.98886833" lon="-1.22262167">
        <ele>759.0</ele>
        <time>2019-07-31T11:07:19.172Z</time>
      </trkpt>
      <trkpt lat="42.98885833" lon="-1.22260167">
        <ele>759.0</ele>
        <time>2019-07-31T11:07:20.178Z</time>
      </trkpt>
      <trkpt lat="42.98885333" lon="-1.222585">
        <ele>758.0</ele>
        <time>2019-07-31T11:07:21.184Z</time>
      </trkpt>
      <trkpt lat="42.98884667" lon="-1.22257">
        <ele>758.0</ele>
        <time>2019-07-31T11:07:22.062Z</time>
      </trkpt>
      <trkpt lat="42.98883667" lon="-1.222555">
        <ele>757.0</ele>
        <time>2019-07-31T11:07:23.068Z</time>
      </trkpt>
      <trkpt lat="42.98882667" lon="-1.22253833">
        <ele>757.0</ele>
        <time>2019-07-31T11:07:24.073Z</time>
      </trkpt>
      <trkpt lat="42.98881833" lon="-1.22252167">
        <ele>757.0</ele>
        <time>2019-07-31T11:07:25.080Z</time>
      </trkpt>
      <trkpt lat="42.98880833" lon="-1.22250333">
        <ele>757.0</ele>
        <time>2019-07-31T11:07:26.085Z</time>
      </trkpt>
      <trkpt lat="42.98879667" lon="-1.22248833">
        <ele>757.0</ele>
        <time>2019-07-31T11:07:27.087Z</time>
      </trkpt>
      <trkpt lat="42.98878667" lon="-1.22247167">
        <ele>757.0</ele>
        <time>2019-07-31T11:07:28.093Z</time>
      </trkpt>
      <trkpt lat="42.988775" lon="-1.22245167">
        <ele>757.0</ele>
        <time>2019-07-31T11:07:29.099Z</time>
      </trkpt>
      <trkpt lat="42.988765" lon="-1.22243333">
        <ele>758.0</ele>
        <time>2019-07-31T11:07:30.104Z</time>
      </trkpt>
      <trkpt lat="42.988755" lon="-1.22241667">
        <ele>758.0</ele>
        <time>2019-07-31T11:07:31.109Z</time>
      </trkpt>
      <trkpt lat="42.98874667" lon="-1.2224">
        <ele>758.0</ele>
        <time>2019-07-31T11:07:32.113Z</time>
      </trkpt>
      <trkpt lat="42.98873667" lon="-1.22238167">
        <ele>759.0</ele>
        <time>2019-07-31T11:07:33.115Z</time>
      </trkpt>
      <trkpt lat="42.98872833" lon="-1.22236333">
        <ele>759.0</ele>
        <time>2019-07-31T11:07:34.121Z</time>
      </trkpt>
      <trkpt lat="42.98872167" lon="-1.22234167">
        <ele>760.0</ele>
        <time>2019-07-31T11:07:35.126Z</time>
      </trkpt>
      <trkpt lat="42.98871333" lon="-1.22232333">
        <ele>760.0</ele>
        <time>2019-07-31T11:07:36.131Z</time>
      </trkpt>
      <trkpt lat="42.98870167" lon="-1.222305">
        <ele>761.0</ele>
        <time>2019-07-31T11:07:37.140Z</time>
      </trkpt>
      <trkpt lat="42.98868667" lon="-1.22228833">
        <ele>761.0</ele>
        <time>2019-07-31T11:07:38.147Z</time>
      </trkpt>
      <trkpt lat="42.98867333" lon="-1.22227333">
        <ele>761.0</ele>
        <time>2019-07-31T11:07:39.153Z</time>
      </trkpt>
      <trkpt lat="42.98866333" lon="-1.22225333">
        <ele>761.0</ele>
        <time>2019-07-31T11:07:40.157Z</time>
      </trkpt>
      <trkpt lat="42.98865" lon="-1.22223167">
        <ele>761.0</ele>
        <time>2019-07-31T11:07:41.162Z</time>
      </trkpt>
      <trkpt lat="42.98863833" lon="-1.22221333">
        <ele>761.0</ele>
        <time>2019-07-31T11:07:42.166Z</time>
      </trkpt>
      <trkpt lat="42.98862833" lon="-1.22219167">
        <ele>761.0</ele>
        <time>2019-07-31T11:07:43.169Z</time>
      </trkpt>
      <trkpt lat="42.98861833" lon="-1.22217">
        <ele>761.0</ele>
        <time>2019-07-31T11:07:44.174Z</time>
      </trkpt>
      <trkpt lat="42.98861" lon="-1.22215">
        <ele>761.0</ele>
        <time>2019-07-31T11:07:45.179Z</time>
      </trkpt>
      <trkpt lat="42.98859833" lon="-1.222125">
        <ele>761.0</ele>
        <time>2019-07-31T11:07:46.186Z</time>
      </trkpt>
      <trkpt lat="42.98858833" lon="-1.22210333">
        <ele>761.0</ele>
        <time>2019-07-31T11:07:47.066Z</time>
      </trkpt>
      <trkpt lat="42.98857667" lon="-1.222085">
        <ele>761.0</ele>
        <time>2019-07-31T11:07:48.072Z</time>
      </trkpt>
      <trkpt lat="42.988565" lon="-1.222065">
        <ele>761.0</ele>
        <time>2019-07-31T11:07:49.079Z</time>
      </trkpt>
      <trkpt lat="42.98854833" lon="-1.22204333">
        <ele>762.0</ele>
        <time>2019-07-31T11:07:50.082Z</time>
      </trkpt>
      <trkpt lat="42.98853833" lon="-1.22202167">
        <ele>762.0</ele>
        <time>2019-07-31T11:07:51.087Z</time>
      </trkpt>
      <trkpt lat="42.98852833" lon="-1.222">
        <ele>763.0</ele>
        <time>2019-07-31T11:07:52.091Z</time>
      </trkpt>
      <trkpt lat="42.98851333" lon="-1.22198">
        <ele>764.0</ele>
        <time>2019-07-31T11:07:53.098Z</time>
      </trkpt>
      <trkpt lat="42.98849833" lon="-1.22195833">
        <ele>764.0</ele>
        <time>2019-07-31T11:07:54.102Z</time>
      </trkpt>
      <trkpt lat="42.98848667" lon="-1.22193833">
        <ele>765.0</ele>
        <time>2019-07-31T11:07:55.107Z</time>
      </trkpt>
      <trkpt lat="42.98848" lon="-1.22191333">
        <ele>767.0</ele>
        <time>2019-07-31T11:07:56.114Z</time>
      </trkpt>
      <trkpt lat="42.98847" lon="-1.221895">
        <ele>768.0</ele>
        <time>2019-07-31T11:07:57.120Z</time>
      </trkpt>
      <trkpt lat="42.98846333" lon="-1.22187667">
        <ele>768.0</ele>
        <time>2019-07-31T11:07:58.125Z</time>
      </trkpt>
      <trkpt lat="42.98845167" lon="-1.22184833">
        <ele>769.0</ele>
        <time>2019-07-31T11:07:59.131Z</time>
      </trkpt>
      <trkpt lat="42.98844" lon="-1.22183">
        <ele>770.0</ele>
        <time>2019-07-31T11:08:00.136Z</time>
      </trkpt>
      <trkpt lat="42.98843" lon="-1.22181">
        <ele>771.0</ele>
        <time>2019-07-31T11:08:01.140Z</time>
      </trkpt>
      <trkpt lat="42.98841333" lon="-1.221785">
        <ele>772.0</ele>
        <time>2019-07-31T11:08:02.145Z</time>
      </trkpt>
      <trkpt lat="42.98840333" lon="-1.221765">
        <ele>772.0</ele>
        <time>2019-07-31T11:08:03.151Z</time>
      </trkpt>
      <trkpt lat="42.98839" lon="-1.22174833">
        <ele>772.0</ele>
        <time>2019-07-31T11:08:04.156Z</time>
      </trkpt>
      <trkpt lat="42.98837667" lon="-1.22172833">
        <ele>771.0</ele>
        <time>2019-07-31T11:08:05.161Z</time>
      </trkpt>
      <trkpt lat="42.988365" lon="-1.22171167">
        <ele>772.0</ele>
        <time>2019-07-31T11:08:06.164Z</time>
      </trkpt>
      <trkpt lat="42.98835167" lon="-1.22169667">
        <ele>771.0</ele>
        <time>2019-07-31T11:08:07.171Z</time>
      </trkpt>
      <trkpt lat="42.98834333" lon="-1.22167333">
        <ele>771.0</ele>
        <time>2019-07-31T11:08:08.177Z</time>
      </trkpt>
      <trkpt lat="42.988335" lon="-1.221655">
        <ele>771.0</ele>
        <time>2019-07-31T11:08:09.183Z</time>
      </trkpt>
      <trkpt lat="42.988325" lon="-1.22164">
        <ele>770.0</ele>
        <time>2019-07-31T11:08:10.062Z</time>
      </trkpt>
      <trkpt lat="42.98831333" lon="-1.22162333">
        <ele>770.0</ele>
        <time>2019-07-31T11:08:11.068Z</time>
      </trkpt>
      <trkpt lat="42.98830167" lon="-1.221605">
        <ele>769.0</ele>
        <time>2019-07-31T11:08:12.075Z</time>
      </trkpt>
      <trkpt lat="42.98829" lon="-1.22158667">
        <ele>769.0</ele>
        <time>2019-07-31T11:08:13.081Z</time>
      </trkpt>
      <trkpt lat="42.98828" lon="-1.22157">
        <ele>769.0</ele>
        <time>2019-07-31T11:08:14.088Z</time>
      </trkpt>
      <trkpt lat="42.98827" lon="-1.22155167">
        <ele>769.0</ele>
        <time>2019-07-31T11:08:15.093Z</time>
      </trkpt>
      <trkpt lat="42.98826167" lon="-1.22153">
        <ele>769.0</ele>
        <time>2019-07-31T11:08:16.096Z</time>
      </trkpt>
      <trkpt lat="42.98825" lon="-1.22151333">
        <ele>768.0</ele>
        <time>2019-07-31T11:08:17.103Z</time>
      </trkpt>
      <trkpt lat="42.98823833" lon="-1.22149667">
        <ele>768.0</ele>
        <time>2019-07-31T11:08:18.107Z</time>
      </trkpt>
      <trkpt lat="42.98822667" lon="-1.22147833">
        <ele>768.0</ele>
        <time>2019-07-31T11:08:19.113Z</time>
      </trkpt>
      <trkpt lat="42.98821667" lon="-1.22146">
        <ele>767.0</ele>
        <time>2019-07-31T11:08:20.120Z</time>
      </trkpt>
      <trkpt lat="42.98820833" lon="-1.22144333">
        <ele>767.0</ele>
        <time>2019-07-31T11:08:21.123Z</time>
      </trkpt>
      <trkpt lat="42.988195" lon="-1.22143167">
        <ele>766.0</ele>
        <time>2019-07-31T11:08:22.129Z</time>
      </trkpt>
      <trkpt lat="42.988185" lon="-1.22141667">
        <ele>766.0</ele>
        <time>2019-07-31T11:08:23.133Z</time>
      </trkpt>
      <trkpt lat="42.98817667" lon="-1.22139833">
        <ele>765.0</ele>
        <time>2019-07-31T11:08:24.140Z</time>
      </trkpt>
      <trkpt lat="42.98816667" lon="-1.22137833">
        <ele>764.0</ele>
        <time>2019-07-31T11:08:25.147Z</time>
      </trkpt>
      <trkpt lat="42.98815667" lon="-1.22135833">
        <ele>764.0</ele>
        <time>2019-07-31T11:08:26.151Z</time>
      </trkpt>
      <trkpt lat="42.98814833" lon="-1.22134167">
        <ele>764.0</ele>
        <time>2019-07-31T11:08:27.155Z</time>
      </trkpt>
      <trkpt lat="42.98814" lon="-1.22132333">
        <ele>764.0</ele>
        <time>2019-07-31T11:08:28.162Z</time>
      </trkpt>
      <trkpt lat="42.98813" lon="-1.22130333">
        <ele>764.0</ele>
        <time>2019-07-31T11:08:29.166Z</time>
      </trkpt>
      <trkpt lat="42.98811833" lon="-1.22128333">
        <ele>764.0</ele>
        <time>2019-07-31T11:08:30.172Z</time>
      </trkpt>
      <trkpt lat="42.98810667" lon="-1.22126667">
        <ele>765.0</ele>
        <time>2019-07-31T11:08:31.177Z</time>
      </trkpt>
      <trkpt lat="42.988095" lon="-1.22124833">
        <ele>765.0</ele>
        <time>2019-07-31T11:08:32.181Z</time>
      </trkpt>
      <trkpt lat="42.98808333" lon="-1.22123167">
        <ele>765.0</ele>
        <time>2019-07-31T11:08:33.183Z</time>
      </trkpt>
      <trkpt lat="42.98807167" lon="-1.22121333">
        <ele>765.0</ele>
        <time>2019-07-31T11:08:34.063Z</time>
      </trkpt>
      <trkpt lat="42.988055" lon="-1.22119833">
        <ele>765.0</ele>
        <time>2019-07-31T11:08:35.070Z</time>
      </trkpt>
      <trkpt lat="42.98804" lon="-1.22118667">
        <ele>766.0</ele>
        <time>2019-07-31T11:08:36.075Z</time>
      </trkpt>
      <trkpt lat="42.988025" lon="-1.22117333">
        <ele>766.0</ele>
        <time>2019-07-31T11:08:37.081Z</time>
      </trkpt>
      <trkpt lat="42.98801167" lon="-1.22115833">
        <ele>766.0</ele>
        <time>2019-07-31T11:08:38.086Z</time>
      </trkpt>
      <trkpt lat="42.98799833" lon="-1.22113667">
        <ele>766.0</ele>
        <time>2019-07-31T11:08:39.091Z</time>
      </trkpt>
      <trkpt lat="42.98798167" lon="-1.22112167">
        <ele>765.0</ele>
        <time>2019-07-31T11:08:40.098Z</time>
      </trkpt>
      <trkpt lat="42.98796333" lon="-1.221105">
        <ele>766.0</ele>
        <time>2019-07-31T11:08:41.102Z</time>
      </trkpt>
      <trkpt lat="42.98794667" lon="-1.221095">
        <ele>766.0</ele>
        <time>2019-07-31T11:08:42.107Z</time>
      </trkpt>
      <trkpt lat="42.98792667" lon="-1.22108167">
        <ele>767.0</ele>
        <time>2019-07-31T11:08:43.112Z</time>
      </trkpt>
      <trkpt lat="42.98790667" lon="-1.22107167">
        <ele>768.0</ele>
        <time>2019-07-31T11:08:44.118Z</time>
      </trkpt>
      <trkpt lat="42.987885" lon="-1.22105667">
        <ele>769.0</ele>
        <time>2019-07-31T11:08:45.123Z</time>
      </trkpt>
      <trkpt lat="42.98786667" lon="-1.22104667">
        <ele>769.0</ele>
        <time>2019-07-31T11:08:46.129Z</time>
      </trkpt>
      <trkpt lat="42.98784833" lon="-1.22103333">
        <ele>770.0</ele>
        <time>2019-07-31T11:08:47.133Z</time>
      </trkpt>
      <trkpt lat="42.98783167" lon="-1.22102">
        <ele>771.0</ele>
        <time>2019-07-31T11:08:48.137Z</time>
      </trkpt>
      <trkpt lat="42.98781333" lon="-1.22100333">
        <ele>772.0</ele>
        <time>2019-07-31T11:08:49.143Z</time>
      </trkpt>
      <trkpt lat="42.98779333" lon="-1.22099167">
        <ele>773.0</ele>
        <time>2019-07-31T11:08:50.148Z</time>
      </trkpt>
      <trkpt lat="42.987775" lon="-1.22098167">
        <ele>773.0</ele>
        <time>2019-07-31T11:08:51.153Z</time>
      </trkpt>
      <trkpt lat="42.98775667" lon="-1.22097">
        <ele>773.0</ele>
        <time>2019-07-31T11:08:52.160Z</time>
      </trkpt>
      <trkpt lat="42.98774167" lon="-1.22096167">
        <ele>773.0</ele>
        <time>2019-07-31T11:08:53.168Z</time>
      </trkpt>
      <trkpt lat="42.987725" lon="-1.220955">
        <ele>772.0</ele>
        <time>2019-07-31T11:08:54.174Z</time>
      </trkpt>
      <trkpt lat="42.98770833" lon="-1.22094333">
        <ele>773.0</ele>
        <time>2019-07-31T11:08:55.180Z</time>
      </trkpt>
      <trkpt lat="42.98769" lon="-1.22093667">
        <ele>773.0</ele>
        <time>2019-07-31T11:08:56.061Z</time>
      </trkpt>
      <trkpt lat="42.98767" lon="-1.22093167">
        <ele>773.0</ele>
        <time>2019-07-31T11:08:57.069Z</time>
      </trkpt>
      <trkpt lat="42.98765" lon="-1.22092667">
        <ele>773.0</ele>
        <time>2019-07-31T11:08:58.076Z</time>
      </trkpt>
      <trkpt lat="42.98763333" lon="-1.220925">
        <ele>773.0</ele>
        <time>2019-07-31T11:08:59.081Z</time>
      </trkpt>
      <trkpt lat="42.987615" lon="-1.22092333">
        <ele>773.0</ele>
        <time>2019-07-31T11:09:00.085Z</time>
      </trkpt>
      <trkpt lat="42.987595" lon="-1.22091833">
        <ele>774.0</ele>
        <time>2019-07-31T11:09:01.092Z</time>
      </trkpt>
      <trkpt lat="42.98757833" lon="-1.220915">
        <ele>774.0</ele>
        <time>2019-07-31T11:09:02.094Z</time>
      </trkpt>
      <trkpt lat="42.98756" lon="-1.220915">
        <ele>774.0</ele>
        <time>2019-07-31T11:09:03.100Z</time>
      </trkpt>
      <trkpt lat="42.98753833" lon="-1.22091667">
        <ele>774.0</ele>
        <time>2019-07-31T11:09:04.106Z</time>
      </trkpt>
      <trkpt lat="42.98752333" lon="-1.22092">
        <ele>774.0</ele>
        <time>2019-07-31T11:09:05.111Z</time>
      </trkpt>
      <trkpt lat="42.987505" lon="-1.22092333">
        <ele>774.0</ele>
        <time>2019-07-31T11:09:06.116Z</time>
      </trkpt>
      <trkpt lat="42.98748833" lon="-1.22093167">
        <ele>773.0</ele>
        <time>2019-07-31T11:09:07.122Z</time>
      </trkpt>
      <trkpt lat="42.98747167" lon="-1.22093667">
        <ele>773.0</ele>
        <time>2019-07-31T11:09:08.127Z</time>
      </trkpt>
      <trkpt lat="42.987455" lon="-1.220945">
        <ele>773.0</ele>
        <time>2019-07-31T11:09:09.133Z</time>
      </trkpt>
      <trkpt lat="42.98743833" lon="-1.22095167">
        <ele>773.0</ele>
        <time>2019-07-31T11:09:10.139Z</time>
      </trkpt>
      <trkpt lat="42.98742" lon="-1.22095833">
        <ele>773.0</ele>
        <time>2019-07-31T11:09:11.145Z</time>
      </trkpt>
      <trkpt lat="42.98740333" lon="-1.22096167">
        <ele>773.0</ele>
        <time>2019-07-31T11:09:12.152Z</time>
      </trkpt>
      <trkpt lat="42.987385" lon="-1.22096667">
        <ele>773.0</ele>
        <time>2019-07-31T11:09:13.157Z</time>
      </trkpt>
      <trkpt lat="42.98736833" lon="-1.22097">
        <ele>772.0</ele>
        <time>2019-07-31T11:09:14.162Z</time>
      </trkpt>
      <trkpt lat="42.98735" lon="-1.22097667">
        <ele>772.0</ele>
        <time>2019-07-31T11:09:15.168Z</time>
      </trkpt>
      <trkpt lat="42.98733333" lon="-1.22098167">
        <ele>772.0</ele>
        <time>2019-07-31T11:09:16.174Z</time>
      </trkpt>
      <trkpt lat="42.987315" lon="-1.22098833">
        <ele>772.0</ele>
        <time>2019-07-31T11:09:17.178Z</time>
      </trkpt>
      <trkpt lat="42.98729667" lon="-1.22099">
        <ele>772.0</ele>
        <time>2019-07-31T11:09:18.181Z</time>
      </trkpt>
      <trkpt lat="42.98727833" lon="-1.22099667">
        <ele>772.0</ele>
        <time>2019-07-31T11:09:19.062Z</time>
      </trkpt>
      <trkpt lat="42.98726167" lon="-1.22100333">
        <ele>773.0</ele>
        <time>2019-07-31T11:09:20.069Z</time>
      </trkpt>
      <trkpt lat="42.98724833" lon="-1.22101">
        <ele>773.0</ele>
        <time>2019-07-31T11:09:21.074Z</time>
      </trkpt>
      <trkpt lat="42.98723333" lon="-1.221015">
        <ele>773.0</ele>
        <time>2019-07-31T11:09:22.080Z</time>
      </trkpt>
      <trkpt lat="42.98721333" lon="-1.221025">
        <ele>772.0</ele>
        <time>2019-07-31T11:09:23.086Z</time>
      </trkpt>
      <trkpt lat="42.98719833" lon="-1.22103333">
        <ele>772.0</ele>
        <time>2019-07-31T11:09:24.090Z</time>
      </trkpt>
      <trkpt lat="42.98718333" lon="-1.22104167">
        <ele>772.0</ele>
        <time>2019-07-31T11:09:25.095Z</time>
      </trkpt>
      <trkpt lat="42.98716833" lon="-1.22104833">
        <ele>771.0</ele>
        <time>2019-07-31T11:09:26.100Z</time>
      </trkpt>
      <trkpt lat="42.98715333" lon="-1.22106">
        <ele>771.0</ele>
        <time>2019-07-31T11:09:27.103Z</time>
      </trkpt>
      <trkpt lat="42.98714" lon="-1.221075">
        <ele>771.0</ele>
        <time>2019-07-31T11:09:28.106Z</time>
      </trkpt>
      <trkpt lat="42.98712667" lon="-1.22109">
        <ele>770.0</ele>
        <time>2019-07-31T11:09:29.112Z</time>
      </trkpt>
      <trkpt lat="42.98711167" lon="-1.22110333">
        <ele>770.0</ele>
        <time>2019-07-31T11:09:30.117Z</time>
      </trkpt>
      <trkpt lat="42.98709667" lon="-1.22111833">
        <ele>770.0</ele>
        <time>2019-07-31T11:09:31.122Z</time>
      </trkpt>
      <trkpt lat="42.98708167" lon="-1.22113667">
        <ele>770.0</ele>
        <time>2019-07-31T11:09:32.127Z</time>
      </trkpt>
      <trkpt lat="42.98706667" lon="-1.22115167">
        <ele>769.0</ele>
        <time>2019-07-31T11:09:33.133Z</time>
      </trkpt>
      <trkpt lat="42.98705167" lon="-1.22116833">
        <ele>769.0</ele>
        <time>2019-07-31T11:09:34.140Z</time>
      </trkpt>
      <trkpt lat="42.98703833" lon="-1.22118333">
        <ele>768.0</ele>
        <time>2019-07-31T11:09:35.145Z</time>
      </trkpt>
      <trkpt lat="42.987025" lon="-1.22120167">
        <ele>767.0</ele>
        <time>2019-07-31T11:09:36.149Z</time>
      </trkpt>
      <trkpt lat="42.98701" lon="-1.22121667">
        <ele>767.0</ele>
        <time>2019-07-31T11:09:37.153Z</time>
      </trkpt>
      <trkpt lat="42.986995" lon="-1.221235">
        <ele>766.0</ele>
        <time>2019-07-31T11:09:38.157Z</time>
      </trkpt>
      <trkpt lat="42.98698333" lon="-1.22125333">
        <ele>766.0</ele>
        <time>2019-07-31T11:09:39.163Z</time>
      </trkpt>
      <trkpt lat="42.98697" lon="-1.221275">
        <ele>765.0</ele>
        <time>2019-07-31T11:09:40.169Z</time>
      </trkpt>
      <trkpt lat="42.98696167" lon="-1.22129167">
        <ele>765.0</ele>
        <time>2019-07-31T11:09:41.174Z</time>
      </trkpt>
      <trkpt lat="42.98695" lon="-1.22131">
        <ele>765.0</ele>
        <time>2019-07-31T11:09:42.179Z</time>
      </trkpt>
      <trkpt lat="42.98693833" lon="-1.22133">
        <ele>765.0</ele>
        <time>2019-07-31T11:09:43.184Z</time>
      </trkpt>
      <trkpt lat="42.98692667" lon="-1.22134833">
        <ele>764.0</ele>
        <time>2019-07-31T11:09:44.062Z</time>
      </trkpt>
      <trkpt lat="42.98691667" lon="-1.22136667">
        <ele>764.0</ele>
        <time>2019-07-31T11:09:45.068Z</time>
      </trkpt>
      <trkpt lat="42.98690333" lon="-1.22139167">
        <ele>764.0</ele>
        <time>2019-07-31T11:09:46.074Z</time>
      </trkpt>
      <trkpt lat="42.98689333" lon="-1.22140667">
        <ele>764.0</ele>
        <time>2019-07-31T11:09:47.081Z</time>
      </trkpt>
      <trkpt lat="42.98688333" lon="-1.221425">
        <ele>763.0</ele>
        <time>2019-07-31T11:09:48.086Z</time>
      </trkpt>
      <trkpt lat="42.98687333" lon="-1.221445">
        <ele>763.0</ele>
        <time>2019-07-31T11:09:49.093Z</time>
      </trkpt>
      <trkpt lat="42.98686333" lon="-1.22146833">
        <ele>763.0</ele>
        <time>2019-07-31T11:09:50.098Z</time>
      </trkpt>
      <trkpt lat="42.98685333" lon="-1.221485">
        <ele>763.0</ele>
        <time>2019-07-31T11:09:51.103Z</time>
      </trkpt>
      <trkpt lat="42.98684167" lon="-1.221505">
        <ele>762.0</ele>
        <time>2019-07-31T11:09:52.108Z</time>
      </trkpt>
      <trkpt lat="42.98683167" lon="-1.22152667">
        <ele>762.0</ele>
        <time>2019-07-31T11:09:53.112Z</time>
      </trkpt>
      <trkpt lat="42.98682167" lon="-1.221545">
        <ele>762.0</ele>
        <time>2019-07-31T11:09:54.118Z</time>
      </trkpt>
      <trkpt lat="42.98681" lon="-1.22156333">
        <ele>762.0</ele>
        <time>2019-07-31T11:09:55.123Z</time>
      </trkpt>
      <trkpt lat="42.9868" lon="-1.22158333">
        <ele>762.0</ele>
        <time>2019-07-31T11:09:56.128Z</time>
      </trkpt>
      <trkpt lat="42.98679" lon="-1.22160167">
        <ele>761.0</ele>
        <time>2019-07-31T11:09:57.134Z</time>
      </trkpt>
      <trkpt lat="42.98678" lon="-1.22162333">
        <ele>761.0</ele>
        <time>2019-07-31T11:09:58.141Z</time>
      </trkpt>
      <trkpt lat="42.98677" lon="-1.22164167">
        <ele>761.0</ele>
        <time>2019-07-31T11:09:59.146Z</time>
      </trkpt>
      <trkpt lat="42.98675833" lon="-1.22166">
        <ele>761.0</ele>
        <time>2019-07-31T11:10:00.152Z</time>
      </trkpt>
      <trkpt lat="42.98674833" lon="-1.22167833">
        <ele>761.0</ele>
        <time>2019-07-31T11:10:01.158Z</time>
      </trkpt>
      <trkpt lat="42.98673667" lon="-1.22169667">
        <ele>761.0</ele>
        <time>2019-07-31T11:10:02.162Z</time>
      </trkpt>
      <trkpt lat="42.98672667" lon="-1.221715">
        <ele>761.0</ele>
        <time>2019-07-31T11:10:03.167Z</time>
      </trkpt>
      <trkpt lat="42.98671667" lon="-1.221735">
        <ele>761.0</ele>
        <time>2019-07-31T11:10:04.173Z</time>
      </trkpt>
      <trkpt lat="42.986705" lon="-1.22175167">
        <ele>761.0</ele>
        <time>2019-07-31T11:10:05.177Z</time>
      </trkpt>
      <trkpt lat="42.98669333" lon="-1.22177">
        <ele>761.0</ele>
        <time>2019-07-31T11:10:06.183Z</time>
      </trkpt>
      <trkpt lat="42.98668167" lon="-1.22178833">
        <ele>760.0</ele>
        <time>2019-07-31T11:10:07.064Z</time>
      </trkpt>
      <trkpt lat="42.98667" lon="-1.22180667">
        <ele>760.0</ele>
        <time>2019-07-31T11:10:08.069Z</time>
      </trkpt>
      <trkpt lat="42.98665667" lon="-1.22182167">
        <ele>760.0</ele>
        <time>2019-07-31T11:10:09.075Z</time>
      </trkpt>
      <trkpt lat="42.98664333" lon="-1.221835">
        <ele>760.0</ele>
        <time>2019-07-31T11:10:10.081Z</time>
      </trkpt>
      <trkpt lat="42.98663" lon="-1.22184833">
        <ele>760.0</ele>
        <time>2019-07-31T11:10:11.088Z</time>
      </trkpt>
      <trkpt lat="42.98661667" lon="-1.22186167">
        <ele>760.0</ele>
        <time>2019-07-31T11:10:12.094Z</time>
      </trkpt>
      <trkpt lat="42.98660333" lon="-1.221875">
        <ele>760.0</ele>
        <time>2019-07-31T11:10:13.100Z</time>
      </trkpt>
      <trkpt lat="42.98658667" lon="-1.221885">
        <ele>760.0</ele>
        <time>2019-07-31T11:10:14.105Z</time>
      </trkpt>
      <trkpt lat="42.98657167" lon="-1.221895">
        <ele>760.0</ele>
        <time>2019-07-31T11:10:15.110Z</time>
      </trkpt>
      <trkpt lat="42.98655667" lon="-1.22190833">
        <ele>760.0</ele>
        <time>2019-07-31T11:10:16.113Z</time>
      </trkpt>
      <trkpt lat="42.98654167" lon="-1.22192">
        <ele>760.0</ele>
        <time>2019-07-31T11:10:17.120Z</time>
      </trkpt>
      <trkpt lat="42.98652667" lon="-1.22193">
        <ele>760.0</ele>
        <time>2019-07-31T11:10:18.125Z</time>
      </trkpt>
      <trkpt lat="42.98651167" lon="-1.22194">
        <ele>760.0</ele>
        <time>2019-07-31T11:10:19.132Z</time>
      </trkpt>
      <trkpt lat="42.986495" lon="-1.22195167">
        <ele>761.0</ele>
        <time>2019-07-31T11:10:20.137Z</time>
      </trkpt>
      <trkpt lat="42.98647833" lon="-1.22196167">
        <ele>761.0</ele>
        <time>2019-07-31T11:10:21.143Z</time>
      </trkpt>
      <trkpt lat="42.98646333" lon="-1.22196833">
        <ele>762.0</ele>
        <time>2019-07-31T11:10:22.147Z</time>
      </trkpt>
      <trkpt lat="42.98644667" lon="-1.221975">
        <ele>762.0</ele>
        <time>2019-07-31T11:10:23.153Z</time>
      </trkpt>
      <trkpt lat="42.98643" lon="-1.22198">
        <ele>763.0</ele>
        <time>2019-07-31T11:10:24.159Z</time>
      </trkpt>
      <trkpt lat="42.98641333" lon="-1.22198333">
        <ele>763.0</ele>
        <time>2019-07-31T11:10:25.164Z</time>
      </trkpt>
      <trkpt lat="42.98639667" lon="-1.22198667">
        <ele>763.0</ele>
        <time>2019-07-31T11:10:26.167Z</time>
      </trkpt>
      <trkpt lat="42.98638167" lon="-1.22199167">
        <ele>763.0</ele>
        <time>2019-07-31T11:10:27.172Z</time>
      </trkpt>
      <trkpt lat="42.98636333" lon="-1.22199333">
        <ele>763.0</ele>
        <time>2019-07-31T11:10:28.177Z</time>
      </trkpt>
      <trkpt lat="42.98634667" lon="-1.221995">
        <ele>763.0</ele>
        <time>2019-07-31T11:10:29.185Z</time>
      </trkpt>
      <trkpt lat="42.98632833" lon="-1.221995">
        <ele>763.0</ele>
        <time>2019-07-31T11:10:30.063Z</time>
      </trkpt>
      <trkpt lat="42.98631333" lon="-1.221995">
        <ele>763.0</ele>
        <time>2019-07-31T11:10:31.069Z</time>
      </trkpt>
      <trkpt lat="42.98629667" lon="-1.22199667">
        <ele>763.0</ele>
        <time>2019-07-31T11:10:32.073Z</time>
      </trkpt>
      <trkpt lat="42.98628167" lon="-1.221995">
        <ele>763.0</ele>
        <time>2019-07-31T11:10:33.077Z</time>
      </trkpt>
      <trkpt lat="42.98626667" lon="-1.22199167">
        <ele>763.0</ele>
        <time>2019-07-31T11:10:34.083Z</time>
      </trkpt>
      <trkpt lat="42.98625" lon="-1.22198833">
        <ele>762.0</ele>
        <time>2019-07-31T11:10:35.089Z</time>
      </trkpt>
      <trkpt lat="42.986235" lon="-1.22198167">
        <ele>762.0</ele>
        <time>2019-07-31T11:10:36.094Z</time>
      </trkpt>
      <trkpt lat="42.98621833" lon="-1.22197667">
        <ele>762.0</ele>
        <time>2019-07-31T11:10:37.100Z</time>
      </trkpt>
      <trkpt lat="42.98620167" lon="-1.22197333">
        <ele>762.0</ele>
        <time>2019-07-31T11:10:38.107Z</time>
      </trkpt>
      <trkpt lat="42.98618" lon="-1.22197">
        <ele>762.0</ele>
        <time>2019-07-31T11:10:39.111Z</time>
      </trkpt>
      <trkpt lat="42.98616667" lon="-1.221965">
        <ele>762.0</ele>
        <time>2019-07-31T11:10:40.117Z</time>
      </trkpt>
      <trkpt lat="42.98615" lon="-1.22195333">
        <ele>761.0</ele>
        <time>2019-07-31T11:10:41.122Z</time>
      </trkpt>
      <trkpt lat="42.98613333" lon="-1.221945">
        <ele>761.0</ele>
        <time>2019-07-31T11:10:42.130Z</time>
      </trkpt>
      <trkpt lat="42.98611667" lon="-1.22193833">
        <ele>761.0</ele>
        <time>2019-07-31T11:10:43.134Z</time>
      </trkpt>
      <trkpt lat="42.98610167" lon="-1.221935">
        <ele>761.0</ele>
        <time>2019-07-31T11:10:44.139Z</time>
      </trkpt>
      <trkpt lat="42.986085" lon="-1.22193333">
        <ele>762.0</ele>
        <time>2019-07-31T11:10:45.143Z</time>
      </trkpt>
      <trkpt lat="42.98607" lon="-1.22193333">
        <ele>762.0</ele>
        <time>2019-07-31T11:10:46.148Z</time>
      </trkpt>
      <trkpt lat="42.98605333" lon="-1.22193167">
        <ele>762.0</ele>
        <time>2019-07-31T11:10:47.153Z</time>
      </trkpt>
      <trkpt lat="42.98603667" lon="-1.22192833">
        <ele>762.0</ele>
        <time>2019-07-31T11:10:48.158Z</time>
      </trkpt>
      <trkpt lat="42.98602" lon="-1.22193">
        <ele>762.0</ele>
        <time>2019-07-31T11:10:49.163Z</time>
      </trkpt>
      <trkpt lat="42.98600167" lon="-1.221935">
        <ele>762.0</ele>
        <time>2019-07-31T11:10:50.167Z</time>
      </trkpt>
      <trkpt lat="42.985985" lon="-1.22194">
        <ele>763.0</ele>
        <time>2019-07-31T11:10:51.172Z</time>
      </trkpt>
      <trkpt lat="42.98597" lon="-1.22194667">
        <ele>762.0</ele>
        <time>2019-07-31T11:10:52.179Z</time>
      </trkpt>
      <trkpt lat="42.98595333" lon="-1.22195667">
        <ele>762.0</ele>
        <time>2019-07-31T11:10:53.184Z</time>
      </trkpt>
      <trkpt lat="42.98593833" lon="-1.22196833">
        <ele>762.0</ele>
        <time>2019-07-31T11:10:54.065Z</time>
      </trkpt>
      <trkpt lat="42.98592167" lon="-1.22198">
        <ele>762.0</ele>
        <time>2019-07-31T11:10:55.070Z</time>
      </trkpt>
      <trkpt lat="42.985905" lon="-1.22199">
        <ele>763.0</ele>
        <time>2019-07-31T11:10:56.075Z</time>
      </trkpt>
      <trkpt lat="42.98589167" lon="-1.22200333">
        <ele>763.0</ele>
        <time>2019-07-31T11:10:57.081Z</time>
      </trkpt>
      <trkpt lat="42.98587833" lon="-1.22201667">
        <ele>763.0</ele>
        <time>2019-07-31T11:10:58.085Z</time>
      </trkpt>
      <trkpt lat="42.98586333" lon="-1.22203167">
        <ele>762.0</ele>
        <time>2019-07-31T11:10:59.092Z</time>
      </trkpt>
      <trkpt lat="42.98585333" lon="-1.22204833">
        <ele>761.0</ele>
        <time>2019-07-31T11:11:00.097Z</time>
      </trkpt>
      <trkpt lat="42.98584167" lon="-1.22206333">
        <ele>761.0</ele>
        <time>2019-07-31T11:11:01.101Z</time>
      </trkpt>
      <trkpt lat="42.98583" lon="-1.22208167">
        <ele>761.0</ele>
        <time>2019-07-31T11:11:02.106Z</time>
      </trkpt>
      <trkpt lat="42.98582" lon="-1.22209833">
        <ele>760.0</ele>
        <time>2019-07-31T11:11:03.113Z</time>
      </trkpt>
      <trkpt lat="42.98580833" lon="-1.22211833">
        <ele>761.0</ele>
        <time>2019-07-31T11:11:04.118Z</time>
      </trkpt>
      <trkpt lat="42.98579833" lon="-1.22213667">
        <ele>760.0</ele>
        <time>2019-07-31T11:11:05.123Z</time>
      </trkpt>
      <trkpt lat="42.98578833" lon="-1.22215833">
        <ele>760.0</ele>
        <time>2019-07-31T11:11:06.128Z</time>
      </trkpt>
      <trkpt lat="42.98577833" lon="-1.222175">
        <ele>760.0</ele>
        <time>2019-07-31T11:11:07.134Z</time>
      </trkpt>
      <trkpt lat="42.98576667" lon="-1.222195">
        <ele>760.0</ele>
        <time>2019-07-31T11:11:08.140Z</time>
      </trkpt>
      <trkpt lat="42.98575667" lon="-1.222215">
        <ele>760.0</ele>
        <time>2019-07-31T11:11:09.146Z</time>
      </trkpt>
      <trkpt lat="42.98574833" lon="-1.22223333">
        <ele>760.0</ele>
        <time>2019-07-31T11:11:10.150Z</time>
      </trkpt>
      <trkpt lat="42.98573833" lon="-1.222255">
        <ele>760.0</ele>
        <time>2019-07-31T11:11:11.154Z</time>
      </trkpt>
      <trkpt lat="42.98572833" lon="-1.22227667">
        <ele>759.0</ele>
        <time>2019-07-31T11:11:12.157Z</time>
      </trkpt>
      <trkpt lat="42.98572" lon="-1.22229667">
        <ele>759.0</ele>
        <time>2019-07-31T11:11:13.161Z</time>
      </trkpt>
      <trkpt lat="42.98571333" lon="-1.22231667">
        <ele>759.0</ele>
        <time>2019-07-31T11:11:14.165Z</time>
      </trkpt>
      <trkpt lat="42.98570333" lon="-1.22233667">
        <ele>759.0</ele>
        <time>2019-07-31T11:11:15.170Z</time>
      </trkpt>
      <trkpt lat="42.985695" lon="-1.22235667">
        <ele>759.0</ele>
        <time>2019-07-31T11:11:16.175Z</time>
      </trkpt>
      <trkpt lat="42.98568833" lon="-1.22238">
        <ele>758.0</ele>
        <time>2019-07-31T11:11:17.179Z</time>
      </trkpt>
      <trkpt lat="42.98567833" lon="-1.22239667">
        <ele>758.0</ele>
        <time>2019-07-31T11:11:18.183Z</time>
      </trkpt>
      <trkpt lat="42.98566833" lon="-1.222415">
        <ele>758.0</ele>
        <time>2019-07-31T11:11:19.063Z</time>
      </trkpt>
      <trkpt lat="42.98565667" lon="-1.22243167">
        <ele>758.0</ele>
        <time>2019-07-31T11:11:20.068Z</time>
      </trkpt>
      <trkpt lat="42.98564667" lon="-1.22244833">
        <ele>758.0</ele>
        <time>2019-07-31T11:11:21.074Z</time>
      </trkpt>
      <trkpt lat="42.98563667" lon="-1.222465">
        <ele>759.0</ele>
        <time>2019-07-31T11:11:22.080Z</time>
      </trkpt>
      <trkpt lat="42.98562667" lon="-1.22248333">
        <ele>759.0</ele>
        <time>2019-07-31T11:11:23.086Z</time>
      </trkpt>
      <trkpt lat="42.98561667" lon="-1.22250333">
        <ele>759.0</ele>
        <time>2019-07-31T11:11:24.089Z</time>
      </trkpt>
      <trkpt lat="42.985605" lon="-1.22252">
        <ele>759.0</ele>
        <time>2019-07-31T11:11:25.095Z</time>
      </trkpt>
      <trkpt lat="42.98559167" lon="-1.22253667">
        <ele>759.0</ele>
        <time>2019-07-31T11:11:26.101Z</time>
      </trkpt>
      <trkpt lat="42.98558" lon="-1.22255333">
        <ele>759.0</ele>
        <time>2019-07-31T11:11:27.107Z</time>
      </trkpt>
      <trkpt lat="42.98556667" lon="-1.22256833">
        <ele>759.0</ele>
        <time>2019-07-31T11:11:28.113Z</time>
      </trkpt>
      <trkpt lat="42.985555" lon="-1.22258667">
        <ele>759.0</ele>
        <time>2019-07-31T11:11:29.118Z</time>
      </trkpt>
      <trkpt lat="42.98554167" lon="-1.2226">
        <ele>759.0</ele>
        <time>2019-07-31T11:11:30.123Z</time>
      </trkpt>
      <trkpt lat="42.985525" lon="-1.22261833">
        <ele>759.0</ele>
        <time>2019-07-31T11:11:31.129Z</time>
      </trkpt>
      <trkpt lat="42.985515" lon="-1.22263167">
        <ele>759.0</ele>
        <time>2019-07-31T11:11:32.134Z</time>
      </trkpt>
      <trkpt lat="42.98549833" lon="-1.22264667">
        <ele>759.0</ele>
        <time>2019-07-31T11:11:33.141Z</time>
      </trkpt>
      <trkpt lat="42.98548333" lon="-1.22266333">
        <ele>759.0</ele>
        <time>2019-07-31T11:11:34.145Z</time>
      </trkpt>
      <trkpt lat="42.98547167" lon="-1.22268">
        <ele>759.0</ele>
        <time>2019-07-31T11:11:35.151Z</time>
      </trkpt>
      <trkpt lat="42.98545667" lon="-1.22269167">
        <ele>759.0</ele>
        <time>2019-07-31T11:11:36.157Z</time>
      </trkpt>
      <trkpt lat="42.98544333" lon="-1.22270167">
        <ele>759.0</ele>
        <time>2019-07-31T11:11:37.164Z</time>
      </trkpt>
      <trkpt lat="42.98542833" lon="-1.22271167">
        <ele>759.0</ele>
        <time>2019-07-31T11:11:38.168Z</time>
      </trkpt>
      <trkpt lat="42.98541167" lon="-1.22272833">
        <ele>759.0</ele>
        <time>2019-07-31T11:11:39.174Z</time>
      </trkpt>
      <trkpt lat="42.98539833" lon="-1.222745">
        <ele>759.0</ele>
        <time>2019-07-31T11:11:40.179Z</time>
      </trkpt>
      <trkpt lat="42.985385" lon="-1.22275667">
        <ele>759.0</ele>
        <time>2019-07-31T11:11:41.184Z</time>
      </trkpt>
      <trkpt lat="42.985375" lon="-1.22276833">
        <ele>758.0</ele>
        <time>2019-07-31T11:11:42.064Z</time>
      </trkpt>
      <trkpt lat="42.98535833" lon="-1.22278333">
        <ele>758.0</ele>
        <time>2019-07-31T11:11:43.071Z</time>
      </trkpt>
      <trkpt lat="42.98534333" lon="-1.22279667">
        <ele>759.0</ele>
        <time>2019-07-31T11:11:44.078Z</time>
      </trkpt>
      <trkpt lat="42.98533333" lon="-1.22280667">
        <ele>759.0</ele>
        <time>2019-07-31T11:11:45.084Z</time>
      </trkpt>
      <trkpt lat="42.98531833" lon="-1.22282">
        <ele>759.0</ele>
        <time>2019-07-31T11:11:46.089Z</time>
      </trkpt>
      <trkpt lat="42.98530333" lon="-1.22283">
        <ele>758.0</ele>
        <time>2019-07-31T11:11:47.095Z</time>
      </trkpt>
      <trkpt lat="42.98528833" lon="-1.22284333">
        <ele>758.0</ele>
        <time>2019-07-31T11:11:48.101Z</time>
      </trkpt>
      <trkpt lat="42.985275" lon="-1.22285667">
        <ele>758.0</ele>
        <time>2019-07-31T11:11:49.108Z</time>
      </trkpt>
      <trkpt lat="42.98525833" lon="-1.22287167">
        <ele>758.0</ele>
        <time>2019-07-31T11:11:50.114Z</time>
      </trkpt>
      <trkpt lat="42.985245" lon="-1.22288167">
        <ele>757.0</ele>
        <time>2019-07-31T11:11:51.120Z</time>
      </trkpt>
      <trkpt lat="42.98523" lon="-1.22289167">
        <ele>757.0</ele>
        <time>2019-07-31T11:11:52.123Z</time>
      </trkpt>
      <trkpt lat="42.985215" lon="-1.222905">
        <ele>757.0</ele>
        <time>2019-07-31T11:11:53.127Z</time>
      </trkpt>
      <trkpt lat="42.98520167" lon="-1.22291667">
        <ele>757.0</ele>
        <time>2019-07-31T11:11:54.131Z</time>
      </trkpt>
      <trkpt lat="42.98518667" lon="-1.22292833">
        <ele>756.0</ele>
        <time>2019-07-31T11:11:55.138Z</time>
      </trkpt>
      <trkpt lat="42.98517167" lon="-1.22293833">
        <ele>756.0</ele>
        <time>2019-07-31T11:11:56.143Z</time>
      </trkpt>
      <trkpt lat="42.98515667" lon="-1.22294833">
        <ele>756.0</ele>
        <time>2019-07-31T11:11:57.150Z</time>
      </trkpt>
      <trkpt lat="42.98514333" lon="-1.22295667">
        <ele>756.0</ele>
        <time>2019-07-31T11:11:58.153Z</time>
      </trkpt>
      <trkpt lat="42.98513" lon="-1.22296833">
        <ele>756.0</ele>
        <time>2019-07-31T11:11:59.158Z</time>
      </trkpt>
      <trkpt lat="42.98511667" lon="-1.22297667">
        <ele>756.0</ele>
        <time>2019-07-31T11:12:00.163Z</time>
      </trkpt>
      <trkpt lat="42.98510333" lon="-1.222985">
        <ele>755.0</ele>
        <time>2019-07-31T11:12:01.167Z</time>
      </trkpt>
      <trkpt lat="42.98509" lon="-1.22299">
        <ele>756.0</ele>
        <time>2019-07-31T11:12:02.173Z</time>
      </trkpt>
      <trkpt lat="42.98507833" lon="-1.22299">
        <ele>756.0</ele>
        <time>2019-07-31T11:12:03.180Z</time>
      </trkpt>
      <trkpt lat="42.98506833" lon="-1.22299167">
        <ele>755.0</ele>
        <time>2019-07-31T11:12:04.187Z</time>
      </trkpt>
      <trkpt lat="42.985065" lon="-1.22299167">
        <ele>756.0</ele>
        <time>2019-07-31T11:12:05.067Z</time>
      </trkpt>
      <trkpt lat="42.98506667" lon="-1.222995">
        <ele>756.0</ele>
        <time>2019-07-31T11:12:06.073Z</time>
      </trkpt>
      <trkpt lat="42.98507" lon="-1.22299167">
        <ele>757.0</ele>
        <time>2019-07-31T11:12:07.080Z</time>
      </trkpt>
      <trkpt lat="42.985075" lon="-1.22298833">
        <ele>757.0</ele>
        <time>2019-07-31T11:12:08.085Z</time>
      </trkpt>
      <trkpt lat="42.98507667" lon="-1.22298167">
        <ele>758.0</ele>
        <time>2019-07-31T11:12:09.090Z</time>
      </trkpt>
      <trkpt lat="42.98508" lon="-1.22297833">
        <ele>758.0</ele>
        <time>2019-07-31T11:12:10.096Z</time>
      </trkpt>
      <trkpt lat="42.98508167" lon="-1.22297833">
        <ele>758.0</ele>
        <time>2019-07-31T11:12:11.100Z</time>
      </trkpt>
      <trkpt lat="42.98507833" lon="-1.22298">
        <ele>757.0</ele>
        <time>2019-07-31T11:12:12.106Z</time>
      </trkpt>
      <trkpt lat="42.98507667" lon="-1.222975">
        <ele>758.0</ele>
        <time>2019-07-31T11:12:13.111Z</time>
      </trkpt>
      <trkpt lat="42.98507667" lon="-1.22296667">
        <ele>758.0</ele>
        <time>2019-07-31T11:12:14.116Z</time>
      </trkpt>
      <trkpt lat="42.985075" lon="-1.22296333">
        <ele>758.0</ele>
        <time>2019-07-31T11:12:15.121Z</time>
      </trkpt>
      <trkpt lat="42.985075" lon="-1.22296167">
        <ele>758.0</ele>
        <time>2019-07-31T11:12:16.126Z</time>
      </trkpt>
      <trkpt lat="42.985075" lon="-1.22296">
        <ele>758.0</ele>
        <time>2019-07-31T11:12:17.131Z</time>
      </trkpt>
      <trkpt lat="42.985075" lon="-1.22296167">
        <ele>758.0</ele>
        <time>2019-07-31T11:12:18.137Z</time>
      </trkpt>
      <trkpt lat="42.98507667" lon="-1.22296333">
        <ele>758.0</ele>
        <time>2019-07-31T11:12:19.143Z</time>
      </trkpt>
      <trkpt lat="42.98507667" lon="-1.22296333">
        <ele>758.0</ele>
        <time>2019-07-31T11:12:20.148Z</time>
      </trkpt>
      <trkpt lat="42.985075" lon="-1.22296333">
        <ele>758.0</ele>
        <time>2019-07-31T11:12:21.153Z</time>
      </trkpt>
      <trkpt lat="42.985075" lon="-1.222965">
        <ele>758.0</ele>
        <time>2019-07-31T11:12:22.156Z</time>
      </trkpt>
      <trkpt lat="42.985075" lon="-1.22296333">
        <ele>758.0</ele>
        <time>2019-07-31T11:12:23.161Z</time>
      </trkpt>
      <trkpt lat="42.98507833" lon="-1.222965">
        <ele>758.0</ele>
        <time>2019-07-31T11:12:24.164Z</time>
      </trkpt>
      <trkpt lat="42.98508167" lon="-1.22296333">
        <ele>759.0</ele>
        <time>2019-07-31T11:12:25.167Z</time>
      </trkpt>
      <trkpt lat="42.98508167" lon="-1.22295667">
        <ele>759.0</ele>
        <time>2019-07-31T11:12:26.173Z</time>
      </trkpt>
      <trkpt lat="42.98508667" lon="-1.22295">
        <ele>760.0</ele>
        <time>2019-07-31T11:12:27.177Z</time>
      </trkpt>
      <trkpt lat="42.98509" lon="-1.22294667">
        <ele>761.0</ele>
        <time>2019-07-31T11:12:28.184Z</time>
      </trkpt>
      <trkpt lat="42.98509333" lon="-1.22294333">
        <ele>762.0</ele>
        <time>2019-07-31T11:12:29.065Z</time>
      </trkpt>
      <trkpt lat="42.98509833" lon="-1.22293833">
        <ele>763.0</ele>
        <time>2019-07-31T11:12:30.070Z</time>
      </trkpt>
      <trkpt lat="42.98510333" lon="-1.222935">
        <ele>764.0</ele>
        <time>2019-07-31T11:12:31.077Z</time>
      </trkpt>
      <trkpt lat="42.98510667" lon="-1.22293333">
        <ele>764.0</ele>
        <time>2019-07-31T11:12:32.084Z</time>
      </trkpt>
      <trkpt lat="42.98510667" lon="-1.22293">
        <ele>765.0</ele>
        <time>2019-07-31T11:12:33.090Z</time>
      </trkpt>
      <trkpt lat="42.98510333" lon="-1.22293333">
        <ele>764.0</ele>
        <time>2019-07-31T11:12:34.095Z</time>
      </trkpt>
      <trkpt lat="42.9851" lon="-1.22293667">
        <ele>763.0</ele>
        <time>2019-07-31T11:12:35.101Z</time>
      </trkpt>
      <trkpt lat="42.98509833" lon="-1.22294167">
        <ele>763.0</ele>
        <time>2019-07-31T11:12:36.107Z</time>
      </trkpt>
      <trkpt lat="42.98509833" lon="-1.22294333">
        <ele>763.0</ele>
        <time>2019-07-31T11:12:37.112Z</time>
      </trkpt>
      <trkpt lat="42.98509667" lon="-1.22294333">
        <ele>763.0</ele>
        <time>2019-07-31T11:12:38.118Z</time>
      </trkpt>
      <trkpt lat="42.98509667" lon="-1.22294667">
        <ele>763.0</ele>
        <time>2019-07-31T11:12:39.122Z</time>
      </trkpt>
      <trkpt lat="42.985095" lon="-1.22295">
        <ele>763.0</ele>
        <time>2019-07-31T11:12:40.126Z</time>
      </trkpt>
      <trkpt lat="42.98509333" lon="-1.22294833">
        <ele>763.0</ele>
        <time>2019-07-31T11:12:41.133Z</time>
      </trkpt>
      <trkpt lat="42.98509333" lon="-1.22294833">
        <ele>763.0</ele>
        <time>2019-07-31T11:12:42.135Z</time>
      </trkpt>
      <trkpt lat="42.98509333" lon="-1.22294833">
        <ele>763.0</ele>
        <time>2019-07-31T11:12:43.142Z</time>
      </trkpt>
      <trkpt lat="42.985095" lon="-1.22295167">
        <ele>763.0</ele>
        <time>2019-07-31T11:12:44.147Z</time>
      </trkpt>
      <trkpt lat="42.985095" lon="-1.22295333">
        <ele>763.0</ele>
        <time>2019-07-31T11:12:45.152Z</time>
      </trkpt>
      <trkpt lat="42.985095" lon="-1.222955">
        <ele>763.0</ele>
        <time>2019-07-31T11:12:46.158Z</time>
      </trkpt>
      <trkpt lat="42.98509667" lon="-1.22295667">
        <ele>763.0</ele>
        <time>2019-07-31T11:12:47.164Z</time>
      </trkpt>
      <trkpt lat="42.98509667" lon="-1.22295833">
        <ele>763.0</ele>
        <time>2019-07-31T11:12:48.168Z</time>
      </trkpt>
      <trkpt lat="42.98509667" lon="-1.22295833">
        <ele>763.0</ele>
        <time>2019-07-31T11:12:49.174Z</time>
      </trkpt>
      <trkpt lat="42.98509667" lon="-1.22295667">
        <ele>764.0</ele>
        <time>2019-07-31T11:12:50.179Z</time>
      </trkpt>
      <trkpt lat="42.98509667" lon="-1.22295833">
        <ele>764.0</ele>
        <time>2019-07-31T11:12:51.186Z</time>
      </trkpt>
      <trkpt lat="42.98510167" lon="-1.22296333">
        <ele>763.0</ele>
        <time>2019-07-31T11:12:52.064Z</time>
      </trkpt>
      <trkpt lat="42.98510833" lon="-1.22296333">
        <ele>763.0</ele>
        <time>2019-07-31T11:12:53.069Z</time>
      </trkpt>
      <trkpt lat="42.98511167" lon="-1.22296333">
        <ele>763.0</ele>
        <time>2019-07-31T11:12:54.076Z</time>
      </trkpt>
      <trkpt lat="42.98511833" lon="-1.22296333">
        <ele>763.0</ele>
        <time>2019-07-31T11:12:55.081Z</time>
      </trkpt>
      <trkpt lat="42.98512" lon="-1.22296167">
        <ele>762.0</ele>
        <time>2019-07-31T11:12:56.088Z</time>
      </trkpt>
      <trkpt lat="42.98512167" lon="-1.22295667">
        <ele>763.0</ele>
        <time>2019-07-31T11:12:57.095Z</time>
      </trkpt>
      <trkpt lat="42.98512667" lon="-1.22294667">
        <ele>763.0</ele>
        <time>2019-07-31T11:12:58.099Z</time>
      </trkpt>
      <trkpt lat="42.98513333" lon="-1.22294">
        <ele>763.0</ele>
        <time>2019-07-31T11:12:59.106Z</time>
      </trkpt>
      <trkpt lat="42.98513833" lon="-1.22293833">
        <ele>763.0</ele>
        <time>2019-07-31T11:13:00.111Z</time>
      </trkpt>
      <trkpt lat="42.985145" lon="-1.22293667">
        <ele>762.0</ele>
        <time>2019-07-31T11:13:01.117Z</time>
      </trkpt>
      <trkpt lat="42.98514833" lon="-1.22293333">
        <ele>762.0</ele>
        <time>2019-07-31T11:13:02.122Z</time>
      </trkpt>
      <trkpt lat="42.98515333" lon="-1.22293">
        <ele>762.0</ele>
        <time>2019-07-31T11:13:03.129Z</time>
      </trkpt>
      <trkpt lat="42.98515833" lon="-1.222925">
        <ele>762.0</ele>
        <time>2019-07-31T11:13:04.135Z</time>
      </trkpt>
      <trkpt lat="42.98516333" lon="-1.22292167">
        <ele>762.0</ele>
        <time>2019-07-31T11:13:05.142Z</time>
      </trkpt>
      <trkpt lat="42.985165" lon="-1.222915">
        <ele>762.0</ele>
        <time>2019-07-31T11:13:06.147Z</time>
      </trkpt>
      <trkpt lat="42.98516333" lon="-1.22291">
        <ele>763.0</ele>
        <time>2019-07-31T11:13:07.150Z</time>
      </trkpt>
      <trkpt lat="42.98516667" lon="-1.22290667">
        <ele>763.0</ele>
        <time>2019-07-31T11:13:08.157Z</time>
      </trkpt>
      <trkpt lat="42.98516833" lon="-1.22290167">
        <ele>764.0</ele>
        <time>2019-07-31T11:13:09.163Z</time>
      </trkpt>
      <trkpt lat="42.98516667" lon="-1.22290167">
        <ele>763.0</ele>
        <time>2019-07-31T11:13:10.165Z</time>
      </trkpt>
      <trkpt lat="42.985165" lon="-1.22290333">
        <ele>762.0</ele>
        <time>2019-07-31T11:13:11.169Z</time>
      </trkpt>
      <trkpt lat="42.98516" lon="-1.222905">
        <ele>761.0</ele>
        <time>2019-07-31T11:13:12.176Z</time>
      </trkpt>
      <trkpt lat="42.98515833" lon="-1.22290833">
        <ele>760.0</ele>
        <time>2019-07-31T11:13:13.182Z</time>
      </trkpt>
      <trkpt lat="42.985155" lon="-1.22291">
        <ele>760.0</ele>
        <time>2019-07-31T11:13:14.063Z</time>
      </trkpt>
      <trkpt lat="42.98515667" lon="-1.222915">
        <ele>760.0</ele>
        <time>2019-07-31T11:13:15.069Z</time>
      </trkpt>
      <trkpt lat="42.98515667" lon="-1.22291667">
        <ele>759.0</ele>
        <time>2019-07-31T11:13:16.076Z</time>
      </trkpt>
      <trkpt lat="42.985155" lon="-1.22291667">
        <ele>758.0</ele>
        <time>2019-07-31T11:13:17.081Z</time>
      </trkpt>
      <trkpt lat="42.98515333" lon="-1.22292">
        <ele>757.0</ele>
        <time>2019-07-31T11:13:18.086Z</time>
      </trkpt>
      <trkpt lat="42.98515333" lon="-1.22292333">
        <ele>758.0</ele>
        <time>2019-07-31T11:13:19.090Z</time>
      </trkpt>
      <trkpt lat="42.98515667" lon="-1.22292667">
        <ele>758.0</ele>
        <time>2019-07-31T11:13:20.097Z</time>
      </trkpt>
      <trkpt lat="42.985155" lon="-1.22292333">
        <ele>758.0</ele>
        <time>2019-07-31T11:13:21.101Z</time>
      </trkpt>
      <trkpt lat="42.985155" lon="-1.22292167">
        <ele>758.0</ele>
        <time>2019-07-31T11:13:22.107Z</time>
      </trkpt>
      <trkpt lat="42.985155" lon="-1.22292">
        <ele>758.0</ele>
        <time>2019-07-31T11:13:23.114Z</time>
      </trkpt>
      <trkpt lat="42.985155" lon="-1.22291667">
        <ele>758.0</ele>
        <time>2019-07-31T11:13:24.120Z</time>
      </trkpt>
      <trkpt lat="42.98515667" lon="-1.22291167">
        <ele>757.0</ele>
        <time>2019-07-31T11:13:25.124Z</time>
      </trkpt>
      <trkpt lat="42.98515667" lon="-1.22291167">
        <ele>757.0</ele>
        <time>2019-07-31T11:13:26.130Z</time>
      </trkpt>
      <trkpt lat="42.98515667" lon="-1.22290833">
        <ele>757.0</ele>
        <time>2019-07-31T11:13:27.133Z</time>
      </trkpt>
      <trkpt lat="42.98516167" lon="-1.22290333">
        <ele>757.0</ele>
        <time>2019-07-31T11:13:28.138Z</time>
      </trkpt>
      <trkpt lat="42.985165" lon="-1.22289833">
        <ele>757.0</ele>
        <time>2019-07-31T11:13:29.144Z</time>
      </trkpt>
      <trkpt lat="42.98516667" lon="-1.222895">
        <ele>757.0</ele>
        <time>2019-07-31T11:13:30.150Z</time>
      </trkpt>
      <trkpt lat="42.98516833" lon="-1.22289167">
        <ele>757.0</ele>
        <time>2019-07-31T11:13:31.155Z</time>
      </trkpt>
      <trkpt lat="42.98517167" lon="-1.22289167">
        <ele>757.0</ele>
        <time>2019-07-31T11:13:32.159Z</time>
      </trkpt>
      <trkpt lat="42.98517333" lon="-1.22289167">
        <ele>756.0</ele>
        <time>2019-07-31T11:13:33.163Z</time>
      </trkpt>
      <trkpt lat="42.985175" lon="-1.22289167">
        <ele>756.0</ele>
        <time>2019-07-31T11:13:34.167Z</time>
      </trkpt>
      <trkpt lat="42.985175" lon="-1.222895">
        <ele>756.0</ele>
        <time>2019-07-31T11:13:35.171Z</time>
      </trkpt>
      <trkpt lat="42.98517333" lon="-1.22289833">
        <ele>756.0</ele>
        <time>2019-07-31T11:13:36.178Z</time>
      </trkpt>
      <trkpt lat="42.98517" lon="-1.22290167">
        <ele>755.0</ele>
        <time>2019-07-31T11:13:37.182Z</time>
      </trkpt>
      <trkpt lat="42.98517" lon="-1.22290167">
        <ele>755.0</ele>
        <time>2019-07-31T11:13:38.185Z</time>
      </trkpt>
      <trkpt lat="42.98517" lon="-1.222905">
        <ele>755.0</ele>
        <time>2019-07-31T11:13:39.066Z</time>
      </trkpt>
      <trkpt lat="42.98517" lon="-1.222905">
        <ele>754.0</ele>
        <time>2019-07-31T11:13:40.074Z</time>
      </trkpt>
      <trkpt lat="42.98516833" lon="-1.22291">
        <ele>754.0</ele>
        <time>2019-07-31T11:13:41.080Z</time>
      </trkpt>
      <trkpt lat="42.985165" lon="-1.22291333">
        <ele>754.0</ele>
        <time>2019-07-31T11:13:42.085Z</time>
      </trkpt>
      <trkpt lat="42.98516167" lon="-1.222915">
        <ele>753.0</ele>
        <time>2019-07-31T11:13:43.092Z</time>
      </trkpt>
      <trkpt lat="42.98516333" lon="-1.22291667">
        <ele>754.0</ele>
        <time>2019-07-31T11:13:44.097Z</time>
      </trkpt>
      <trkpt lat="42.98516333" lon="-1.22292">
        <ele>754.0</ele>
        <time>2019-07-31T11:13:45.104Z</time>
      </trkpt>
      <trkpt lat="42.98516667" lon="-1.22291833">
        <ele>754.0</ele>
        <time>2019-07-31T11:13:46.110Z</time>
      </trkpt>
      <trkpt lat="42.98516667" lon="-1.222915">
        <ele>755.0</ele>
        <time>2019-07-31T11:13:47.117Z</time>
      </trkpt>
      <trkpt lat="42.98516667" lon="-1.22291333">
        <ele>756.0</ele>
        <time>2019-07-31T11:13:48.123Z</time>
      </trkpt>
      <trkpt lat="42.985165" lon="-1.22290833">
        <ele>757.0</ele>
        <time>2019-07-31T11:13:49.127Z</time>
      </trkpt>
      <trkpt lat="42.98516167" lon="-1.22290667">
        <ele>758.0</ele>
        <time>2019-07-31T11:13:50.132Z</time>
      </trkpt>
      <trkpt lat="42.98516167" lon="-1.22290667">
        <ele>758.0</ele>
        <time>2019-07-31T11:13:51.139Z</time>
      </trkpt>
      <trkpt lat="42.98516" lon="-1.222905">
        <ele>759.0</ele>
        <time>2019-07-31T11:13:52.144Z</time>
      </trkpt>
      <trkpt lat="42.98516" lon="-1.22290333">
        <ele>759.0</ele>
        <time>2019-07-31T11:13:53.150Z</time>
      </trkpt>
      <trkpt lat="42.98516" lon="-1.22290333">
        <ele>760.0</ele>
        <time>2019-07-31T11:13:54.157Z</time>
      </trkpt>
      <trkpt lat="42.98516" lon="-1.2229">
        <ele>760.0</ele>
        <time>2019-07-31T11:13:55.160Z</time>
      </trkpt>
      <trkpt lat="42.98516" lon="-1.2229">
        <ele>761.0</ele>
        <time>2019-07-31T11:13:56.164Z</time>
      </trkpt>
      <trkpt lat="42.98516" lon="-1.2229">
        <ele>761.0</ele>
        <time>2019-07-31T11:13:57.170Z</time>
      </trkpt>
      <trkpt lat="42.98516167" lon="-1.2229">
        <ele>761.0</ele>
        <time>2019-07-31T11:13:58.175Z</time>
      </trkpt>
      <trkpt lat="42.98516167" lon="-1.2229">
        <ele>761.0</ele>
        <time>2019-07-31T11:13:59.181Z</time>
      </trkpt>
      <trkpt lat="42.98516167" lon="-1.22289833">
        <ele>761.0</ele>
        <time>2019-07-31T11:14:00.063Z</time>
      </trkpt>
      <trkpt lat="42.98516167" lon="-1.22289667">
        <ele>762.0</ele>
        <time>2019-07-31T11:14:01.069Z</time>
      </trkpt>
      <trkpt lat="42.98516" lon="-1.22289333">
        <ele>762.0</ele>
        <time>2019-07-31T11:14:02.074Z</time>
      </trkpt>
      <trkpt lat="42.98516" lon="-1.222895">
        <ele>762.0</ele>
        <time>2019-07-31T11:14:03.081Z</time>
      </trkpt>
      <trkpt lat="42.985165" lon="-1.22289833">
        <ele>762.0</ele>
        <time>2019-07-31T11:14:04.084Z</time>
      </trkpt>
      <trkpt lat="42.98517" lon="-1.22290167">
        <ele>762.0</ele>
        <time>2019-07-31T11:14:05.090Z</time>
      </trkpt>
      <trkpt lat="42.98517667" lon="-1.22290333">
        <ele>761.0</ele>
        <time>2019-07-31T11:14:06.095Z</time>
      </trkpt>
      <trkpt lat="42.98517833" lon="-1.222905">
        <ele>761.0</ele>
        <time>2019-07-31T11:14:07.102Z</time>
      </trkpt>
      <trkpt lat="42.985175" lon="-1.22291">
        <ele>760.0</ele>
        <time>2019-07-31T11:14:08.107Z</time>
      </trkpt>
      <trkpt lat="42.98517333" lon="-1.22290833">
        <ele>759.0</ele>
        <time>2019-07-31T11:14:09.111Z</time>
      </trkpt>
      <trkpt lat="42.98517333" lon="-1.22290667">
        <ele>758.0</ele>
        <time>2019-07-31T11:14:10.116Z</time>
      </trkpt>
      <trkpt lat="42.985175" lon="-1.22290167">
        <ele>758.0</ele>
        <time>2019-07-31T11:14:11.121Z</time>
      </trkpt>
      <trkpt lat="42.98517833" lon="-1.2229">
        <ele>757.0</ele>
        <time>2019-07-31T11:14:12.126Z</time>
      </trkpt>
      <trkpt lat="42.98518167" lon="-1.22289667">
        <ele>757.0</ele>
        <time>2019-07-31T11:14:13.132Z</time>
      </trkpt>
      <trkpt lat="42.98518" lon="-1.22289833">
        <ele>756.0</ele>
        <time>2019-07-31T11:14:14.138Z</time>
      </trkpt>
      <trkpt lat="42.98517833" lon="-1.2229">
        <ele>756.0</ele>
        <time>2019-07-31T11:14:15.144Z</time>
      </trkpt>
      <trkpt lat="42.98517333" lon="-1.22289667">
        <ele>755.0</ele>
        <time>2019-07-31T11:14:16.150Z</time>
      </trkpt>
      <trkpt lat="42.98516833" lon="-1.22289167">
        <ele>755.0</ele>
        <time>2019-07-31T11:14:17.154Z</time>
      </trkpt>
      <trkpt lat="42.985165" lon="-1.22288667">
        <ele>755.0</ele>
        <time>2019-07-31T11:14:18.161Z</time>
      </trkpt>
      <trkpt lat="42.98516667" lon="-1.22288333">
        <ele>755.0</ele>
        <time>2019-07-31T11:14:19.166Z</time>
      </trkpt>
      <trkpt lat="42.98516667" lon="-1.22288333">
        <ele>754.0</ele>
        <time>2019-07-31T11:14:20.172Z</time>
      </trkpt>
      <trkpt lat="42.985165" lon="-1.22288167">
        <ele>754.0</ele>
        <time>2019-07-31T11:14:21.179Z</time>
      </trkpt>
      <trkpt lat="42.98516333" lon="-1.22287833">
        <ele>753.0</ele>
        <time>2019-07-31T11:14:22.185Z</time>
      </trkpt>
      <trkpt lat="42.98516667" lon="-1.22287333">
        <ele>753.0</ele>
        <time>2019-07-31T11:14:23.065Z</time>
      </trkpt>
      <trkpt lat="42.98516833" lon="-1.22287">
        <ele>753.0</ele>
        <time>2019-07-31T11:14:24.070Z</time>
      </trkpt>
      <trkpt lat="42.98517" lon="-1.22286833">
        <ele>752.0</ele>
        <time>2019-07-31T11:14:25.076Z</time>
      </trkpt>
      <trkpt lat="42.98517333" lon="-1.22286333">
        <ele>753.0</ele>
        <time>2019-07-31T11:14:26.081Z</time>
      </trkpt>
      <trkpt lat="42.98517167" lon="-1.22285833">
        <ele>753.0</ele>
        <time>2019-07-31T11:14:27.085Z</time>
      </trkpt>
      <trkpt lat="42.98517167" lon="-1.222855">
        <ele>753.0</ele>
        <time>2019-07-31T11:14:28.092Z</time>
      </trkpt>
      <trkpt lat="42.98517" lon="-1.22284833">
        <ele>754.0</ele>
        <time>2019-07-31T11:14:29.100Z</time>
      </trkpt>
      <trkpt lat="42.98517167" lon="-1.22284833">
        <ele>755.0</ele>
        <time>2019-07-31T11:14:30.105Z</time>
      </trkpt>
      <trkpt lat="42.98517" lon="-1.222845">
        <ele>755.0</ele>
        <time>2019-07-31T11:14:31.108Z</time>
      </trkpt>
      <trkpt lat="42.98517" lon="-1.22283833">
        <ele>755.0</ele>
        <time>2019-07-31T11:14:32.114Z</time>
      </trkpt>
      <trkpt lat="42.98517" lon="-1.222835">
        <ele>755.0</ele>
        <time>2019-07-31T11:14:33.119Z</time>
      </trkpt>
      <trkpt lat="42.98517333" lon="-1.22283">
        <ele>755.0</ele>
        <time>2019-07-31T11:14:34.122Z</time>
      </trkpt>
      <trkpt lat="42.985175" lon="-1.22282833">
        <ele>754.0</ele>
        <time>2019-07-31T11:14:35.127Z</time>
      </trkpt>
      <trkpt lat="42.98518167" lon="-1.22282167">
        <ele>754.0</ele>
        <time>2019-07-31T11:14:36.131Z</time>
      </trkpt>
      <trkpt lat="42.98519" lon="-1.22281833">
        <ele>753.0</ele>
        <time>2019-07-31T11:14:37.136Z</time>
      </trkpt>
      <trkpt lat="42.98519833" lon="-1.22281167">
        <ele>753.0</ele>
        <time>2019-07-31T11:14:38.139Z</time>
      </trkpt>
      <trkpt lat="42.98520833" lon="-1.222805">
        <ele>753.0</ele>
        <time>2019-07-31T11:14:39.146Z</time>
      </trkpt>
      <trkpt lat="42.98521833" lon="-1.222795">
        <ele>753.0</ele>
        <time>2019-07-31T11:14:40.152Z</time>
      </trkpt>
      <trkpt lat="42.98522833" lon="-1.222785">
        <ele>753.0</ele>
        <time>2019-07-31T11:14:41.156Z</time>
      </trkpt>
      <trkpt lat="42.98523" lon="-1.22277">
        <ele>753.0</ele>
        <time>2019-07-31T11:14:42.160Z</time>
      </trkpt>
      <trkpt lat="42.98523167" lon="-1.22275667">
        <ele>754.0</ele>
        <time>2019-07-31T11:14:43.166Z</time>
      </trkpt>
      <trkpt lat="42.985235" lon="-1.222745">
        <ele>754.0</ele>
        <time>2019-07-31T11:14:44.171Z</time>
      </trkpt>
      <trkpt lat="42.98523833" lon="-1.22273167">
        <ele>755.0</ele>
        <time>2019-07-31T11:14:45.176Z</time>
      </trkpt>
      <trkpt lat="42.98524167" lon="-1.22271833">
        <ele>755.0</ele>
        <time>2019-07-31T11:14:46.182Z</time>
      </trkpt>
      <trkpt lat="42.98525" lon="-1.222705">
        <ele>755.0</ele>
        <time>2019-07-31T11:14:47.062Z</time>
      </trkpt>
      <trkpt lat="42.98525667" lon="-1.22269333">
        <ele>756.0</ele>
        <time>2019-07-31T11:14:48.067Z</time>
      </trkpt>
      <trkpt lat="42.98526167" lon="-1.22268167">
        <ele>757.0</ele>
        <time>2019-07-31T11:14:49.068Z</time>
      </trkpt>
      <trkpt lat="42.985265" lon="-1.222675">
        <ele>758.0</ele>
        <time>2019-07-31T11:14:50.073Z</time>
      </trkpt>
      <trkpt lat="42.98527" lon="-1.22267167">
        <ele>758.0</ele>
        <time>2019-07-31T11:14:51.079Z</time>
      </trkpt>
      <trkpt lat="42.98527667" lon="-1.22266167">
        <ele>759.0</ele>
        <time>2019-07-31T11:14:52.084Z</time>
      </trkpt>
      <trkpt lat="42.98528167" lon="-1.22264833">
        <ele>759.0</ele>
        <time>2019-07-31T11:14:53.090Z</time>
      </trkpt>
      <trkpt lat="42.98528833" lon="-1.222635">
        <ele>759.0</ele>
        <time>2019-07-31T11:14:54.096Z</time>
      </trkpt>
      <trkpt lat="42.98529333" lon="-1.222625">
        <ele>759.0</ele>
        <time>2019-07-31T11:14:55.101Z</time>
      </trkpt>
      <trkpt lat="42.9853" lon="-1.22261333">
        <ele>759.0</ele>
        <time>2019-07-31T11:14:56.107Z</time>
      </trkpt>
      <trkpt lat="42.985305" lon="-1.22260333">
        <ele>758.0</ele>
        <time>2019-07-31T11:14:57.111Z</time>
      </trkpt>
      <trkpt lat="42.98531" lon="-1.22259333">
        <ele>758.0</ele>
        <time>2019-07-31T11:14:58.116Z</time>
      </trkpt>
      <trkpt lat="42.98531667" lon="-1.222585">
        <ele>757.0</ele>
        <time>2019-07-31T11:14:59.121Z</time>
      </trkpt>
      <trkpt lat="42.98532167" lon="-1.22257833">
        <ele>757.0</ele>
        <time>2019-07-31T11:15:00.127Z</time>
      </trkpt>
      <trkpt lat="42.98532833" lon="-1.22257">
        <ele>758.0</ele>
        <time>2019-07-31T11:15:01.133Z</time>
      </trkpt>
      <trkpt lat="42.985335" lon="-1.22256167">
        <ele>757.0</ele>
        <time>2019-07-31T11:15:02.138Z</time>
      </trkpt>
      <trkpt lat="42.985345" lon="-1.22255333">
        <ele>757.0</ele>
        <time>2019-07-31T11:15:03.145Z</time>
      </trkpt>
      <trkpt lat="42.985355" lon="-1.222545">
        <ele>757.0</ele>
        <time>2019-07-31T11:15:04.152Z</time>
      </trkpt>
      <trkpt lat="42.98536" lon="-1.222535">
        <ele>758.0</ele>
        <time>2019-07-31T11:15:05.156Z</time>
      </trkpt>
      <trkpt lat="42.98536333" lon="-1.222525">
        <ele>759.0</ele>
        <time>2019-07-31T11:15:06.161Z</time>
      </trkpt>
      <trkpt lat="42.98537" lon="-1.22251833">
        <ele>760.0</ele>
        <time>2019-07-31T11:15:07.165Z</time>
      </trkpt>
      <trkpt lat="42.98537667" lon="-1.22251">
        <ele>760.0</ele>
        <time>2019-07-31T11:15:08.170Z</time>
      </trkpt>
      <trkpt lat="42.98538" lon="-1.22249833">
        <ele>760.0</ele>
        <time>2019-07-31T11:15:09.176Z</time>
      </trkpt>
      <trkpt lat="42.985385" lon="-1.22249667">
        <ele>760.0</ele>
        <time>2019-07-31T11:15:10.181Z</time>
      </trkpt>
      <trkpt lat="42.98539" lon="-1.2225">
        <ele>761.0</ele>
        <time>2019-07-31T11:15:11.186Z</time>
      </trkpt>
      <trkpt lat="42.985395" lon="-1.22250667">
        <ele>762.0</ele>
        <time>2019-07-31T11:15:12.066Z</time>
      </trkpt>
      <trkpt lat="42.9854" lon="-1.22250333">
        <ele>762.0</ele>
        <time>2019-07-31T11:15:13.072Z</time>
      </trkpt>
      <trkpt lat="42.98540667" lon="-1.22250167">
        <ele>762.0</ele>
        <time>2019-07-31T11:15:14.077Z</time>
      </trkpt>
      <trkpt lat="42.98540333" lon="-1.22248667">
        <ele>762.0</ele>
        <time>2019-07-31T11:15:15.082Z</time>
      </trkpt>
      <trkpt lat="42.98540833" lon="-1.22247667">
        <ele>762.0</ele>
        <time>2019-07-31T11:15:16.088Z</time>
      </trkpt>
      <trkpt lat="42.985415" lon="-1.22247333">
        <ele>762.0</ele>
        <time>2019-07-31T11:15:17.093Z</time>
      </trkpt>
      <trkpt lat="42.98541833" lon="-1.222475">
        <ele>761.0</ele>
        <time>2019-07-31T11:15:18.097Z</time>
      </trkpt>
      <trkpt lat="42.985415" lon="-1.22248333">
        <ele>760.0</ele>
        <time>2019-07-31T11:15:19.103Z</time>
      </trkpt>
      <trkpt lat="42.985415" lon="-1.22249">
        <ele>759.0</ele>
        <time>2019-07-31T11:15:20.108Z</time>
      </trkpt>
      <trkpt lat="42.98541333" lon="-1.22248833">
        <ele>758.0</ele>
        <time>2019-07-31T11:15:21.113Z</time>
      </trkpt>
      <trkpt lat="42.98542" lon="-1.22247833">
        <ele>757.0</ele>
        <time>2019-07-31T11:15:22.117Z</time>
      </trkpt>
      <trkpt lat="42.98542167" lon="-1.22247667">
        <ele>757.0</ele>
        <time>2019-07-31T11:15:23.122Z</time>
      </trkpt>
      <trkpt lat="42.98542167" lon="-1.22247667">
        <ele>757.0</ele>
        <time>2019-07-31T11:15:24.128Z</time>
      </trkpt>
      <trkpt lat="42.98542333" lon="-1.22247667">
        <ele>756.0</ele>
        <time>2019-07-31T11:15:25.132Z</time>
      </trkpt>
      <trkpt lat="42.98542333" lon="-1.22247667">
        <ele>756.0</ele>
        <time>2019-07-31T11:15:26.136Z</time>
      </trkpt>
      <trkpt lat="42.985425" lon="-1.222475">
        <ele>755.0</ele>
        <time>2019-07-31T11:15:27.140Z</time>
      </trkpt>
      <trkpt lat="42.98542667" lon="-1.22247333">
        <ele>755.0</ele>
        <time>2019-07-31T11:15:28.146Z</time>
      </trkpt>
      <trkpt lat="42.98543" lon="-1.22247167">
        <ele>754.0</ele>
        <time>2019-07-31T11:15:29.152Z</time>
      </trkpt>
      <trkpt lat="42.98543167" lon="-1.22247167">
        <ele>754.0</ele>
        <time>2019-07-31T11:15:30.156Z</time>
      </trkpt>
      <trkpt lat="42.98543167" lon="-1.222475">
        <ele>754.0</ele>
        <time>2019-07-31T11:15:31.161Z</time>
      </trkpt>
      <trkpt lat="42.98543667" lon="-1.22247833">
        <ele>753.0</ele>
        <time>2019-07-31T11:15:32.164Z</time>
      </trkpt>
      <trkpt lat="42.98544167" lon="-1.22247167">
        <ele>753.0</ele>
        <time>2019-07-31T11:15:33.169Z</time>
      </trkpt>
      <trkpt lat="42.98544" lon="-1.22246667">
        <ele>752.0</ele>
        <time>2019-07-31T11:15:34.174Z</time>
      </trkpt>
      <trkpt lat="42.98543833" lon="-1.22246167">
        <ele>753.0</ele>
        <time>2019-07-31T11:15:35.179Z</time>
      </trkpt>
      <trkpt lat="42.98543667" lon="-1.22245333">
        <ele>753.0</ele>
        <time>2019-07-31T11:15:36.185Z</time>
      </trkpt>
      <trkpt lat="42.98543667" lon="-1.22245167">
        <ele>752.0</ele>
        <time>2019-07-31T11:15:37.065Z</time>
      </trkpt>
      <trkpt lat="42.985435" lon="-1.22245">
        <ele>752.0</ele>
        <time>2019-07-31T11:15:38.071Z</time>
      </trkpt>
      <trkpt lat="42.98543333" lon="-1.22244667">
        <ele>752.0</ele>
        <time>2019-07-31T11:15:39.075Z</time>
      </trkpt>
      <trkpt lat="42.98543" lon="-1.22243833">
        <ele>752.0</ele>
        <time>2019-07-31T11:15:40.081Z</time>
      </trkpt>
      <trkpt lat="42.98542333" lon="-1.22243167">
        <ele>752.0</ele>
        <time>2019-07-31T11:15:41.087Z</time>
      </trkpt>
      <trkpt lat="42.98541833" lon="-1.22242167">
        <ele>752.0</ele>
        <time>2019-07-31T11:15:42.093Z</time>
      </trkpt>
      <trkpt lat="42.985415" lon="-1.22241333">
        <ele>752.0</ele>
        <time>2019-07-31T11:15:43.095Z</time>
      </trkpt>
      <trkpt lat="42.98540833" lon="-1.22241167">
        <ele>753.0</ele>
        <time>2019-07-31T11:15:44.100Z</time>
      </trkpt>
      <trkpt lat="42.98540667" lon="-1.222405">
        <ele>754.0</ele>
        <time>2019-07-31T11:15:45.103Z</time>
      </trkpt>
      <trkpt lat="42.98540833" lon="-1.222405">
        <ele>755.0</ele>
        <time>2019-07-31T11:15:46.109Z</time>
      </trkpt>
      <trkpt lat="42.98541" lon="-1.22240667">
        <ele>755.0</ele>
        <time>2019-07-31T11:15:47.112Z</time>
      </trkpt>
      <trkpt lat="42.98541167" lon="-1.22240667">
        <ele>756.0</ele>
        <time>2019-07-31T11:15:48.116Z</time>
      </trkpt>
      <trkpt lat="42.985415" lon="-1.22240667">
        <ele>757.0</ele>
        <time>2019-07-31T11:15:49.118Z</time>
      </trkpt>
      <trkpt lat="42.98541833" lon="-1.22239833">
        <ele>757.0</ele>
        <time>2019-07-31T11:15:50.122Z</time>
      </trkpt>
      <trkpt lat="42.98542167" lon="-1.22239">
        <ele>757.0</ele>
        <time>2019-07-31T11:15:51.124Z</time>
      </trkpt>
      <trkpt lat="42.98542333" lon="-1.22238667">
        <ele>757.0</ele>
        <time>2019-07-31T11:15:52.129Z</time>
      </trkpt>
      <trkpt lat="42.985425" lon="-1.22238167">
        <ele>758.0</ele>
        <time>2019-07-31T11:15:53.134Z</time>
      </trkpt>
      <trkpt lat="42.98542667" lon="-1.22237667">
        <ele>759.0</ele>
        <time>2019-07-31T11:15:54.140Z</time>
      </trkpt>
      <trkpt lat="42.98543" lon="-1.22237667">
        <ele>759.0</ele>
        <time>2019-07-31T11:15:55.145Z</time>
      </trkpt>
      <trkpt lat="42.98543333" lon="-1.22237">
        <ele>760.0</ele>
        <time>2019-07-31T11:15:56.150Z</time>
      </trkpt>
      <trkpt lat="42.98542833" lon="-1.22237">
        <ele>761.0</ele>
        <time>2019-07-31T11:15:57.155Z</time>
      </trkpt>
      <trkpt lat="42.98542833" lon="-1.222365">
        <ele>762.0</ele>
        <time>2019-07-31T11:15:58.160Z</time>
      </trkpt>
      <trkpt lat="42.98543167" lon="-1.22235667">
        <ele>763.0</ele>
        <time>2019-07-31T11:15:59.164Z</time>
      </trkpt>
      <trkpt lat="42.98543333" lon="-1.22234833">
        <ele>765.0</ele>
        <time>2019-07-31T11:16:00.170Z</time>
      </trkpt>
      <trkpt lat="42.98543333" lon="-1.22234167">
        <ele>766.0</ele>
        <time>2019-07-31T11:16:01.174Z</time>
      </trkpt>
      <trkpt lat="42.985435" lon="-1.22233833">
        <ele>767.0</ele>
        <time>2019-07-31T11:16:02.179Z</time>
      </trkpt>
      <trkpt lat="42.985435" lon="-1.222335">
        <ele>769.0</ele>
        <time>2019-07-31T11:16:03.061Z</time>
      </trkpt>
      <trkpt lat="42.985435" lon="-1.22233167">
        <ele>770.0</ele>
        <time>2019-07-31T11:16:04.066Z</time>
      </trkpt>
      <trkpt lat="42.985435" lon="-1.22232">
        <ele>771.0</ele>
        <time>2019-07-31T11:16:05.072Z</time>
      </trkpt>
      <trkpt lat="42.98543667" lon="-1.22231667">
        <ele>772.0</ele>
        <time>2019-07-31T11:16:06.078Z</time>
      </trkpt>
      <trkpt lat="42.98543167" lon="-1.22231667">
        <ele>771.0</ele>
        <time>2019-07-31T11:16:07.082Z</time>
      </trkpt>
      <trkpt lat="42.98543" lon="-1.22231667">
        <ele>771.0</ele>
        <time>2019-07-31T11:16:08.088Z</time>
      </trkpt>
      <trkpt lat="42.98543333" lon="-1.22231667">
        <ele>771.0</ele>
        <time>2019-07-31T11:16:09.094Z</time>
      </trkpt>
      <trkpt lat="42.98544" lon="-1.22232">
        <ele>769.0</ele>
        <time>2019-07-31T11:16:10.100Z</time>
      </trkpt>
      <trkpt lat="42.98544167" lon="-1.22232167">
        <ele>769.0</ele>
        <time>2019-07-31T11:16:11.107Z</time>
      </trkpt>
      <trkpt lat="42.98544167" lon="-1.22232167">
        <ele>769.0</ele>
        <time>2019-07-31T11:16:12.116Z</time>
      </trkpt>
      <trkpt lat="42.98543833" lon="-1.22232333">
        <ele>769.0</ele>
        <time>2019-07-31T11:16:13.122Z</time>
      </trkpt>
      <trkpt lat="42.985435" lon="-1.22232167">
        <ele>768.0</ele>
        <time>2019-07-31T11:16:14.127Z</time>
      </trkpt>
      <trkpt lat="42.98543" lon="-1.222315">
        <ele>769.0</ele>
        <time>2019-07-31T11:16:15.130Z</time>
      </trkpt>
      <trkpt lat="42.98542667" lon="-1.22230667">
        <ele>768.0</ele>
        <time>2019-07-31T11:16:16.135Z</time>
      </trkpt>
      <trkpt lat="42.985425" lon="-1.22229833">
        <ele>768.0</ele>
        <time>2019-07-31T11:16:17.140Z</time>
      </trkpt>
      <trkpt lat="42.98542333" lon="-1.22228833">
        <ele>767.0</ele>
        <time>2019-07-31T11:16:18.145Z</time>
      </trkpt>
      <trkpt lat="42.98542167" lon="-1.22227833">
        <ele>766.0</ele>
        <time>2019-07-31T11:16:19.151Z</time>
      </trkpt>
      <trkpt lat="42.98541833" lon="-1.22227">
        <ele>766.0</ele>
        <time>2019-07-31T11:16:20.158Z</time>
      </trkpt>
      <trkpt lat="42.985415" lon="-1.222265">
        <ele>765.0</ele>
        <time>2019-07-31T11:16:21.162Z</time>
      </trkpt>
      <trkpt lat="42.98541167" lon="-1.22226167">
        <ele>765.0</ele>
        <time>2019-07-31T11:16:22.166Z</time>
      </trkpt>
      <trkpt lat="42.98540667" lon="-1.22226667">
        <ele>765.0</ele>
        <time>2019-07-31T11:16:23.172Z</time>
      </trkpt>
      <trkpt lat="42.98540333" lon="-1.22226833">
        <ele>765.0</ele>
        <time>2019-07-31T11:16:24.179Z</time>
      </trkpt>
      <trkpt lat="42.98540167" lon="-1.22227667">
        <ele>763.0</ele>
        <time>2019-07-31T11:16:25.183Z</time>
      </trkpt>
      <trkpt lat="42.98540167" lon="-1.222285">
        <ele>762.0</ele>
        <time>2019-07-31T11:16:26.064Z</time>
      </trkpt>
      <trkpt lat="42.98540333" lon="-1.22229167">
        <ele>762.0</ele>
        <time>2019-07-31T11:16:27.069Z</time>
      </trkpt>
      <trkpt lat="42.98540333" lon="-1.22229667">
        <ele>761.0</ele>
        <time>2019-07-31T11:16:28.077Z</time>
      </trkpt>
      <trkpt lat="42.985405" lon="-1.22230167">
        <ele>760.0</ele>
        <time>2019-07-31T11:16:29.081Z</time>
      </trkpt>
      <trkpt lat="42.98540833" lon="-1.22231333">
        <ele>759.0</ele>
        <time>2019-07-31T11:16:30.087Z</time>
      </trkpt>
      <trkpt lat="42.98541333" lon="-1.22232">
        <ele>758.0</ele>
        <time>2019-07-31T11:16:31.093Z</time>
      </trkpt>
      <trkpt lat="42.985415" lon="-1.222325">
        <ele>757.0</ele>
        <time>2019-07-31T11:16:32.100Z</time>
      </trkpt>
      <trkpt lat="42.98541167" lon="-1.222325">
        <ele>757.0</ele>
        <time>2019-07-31T11:16:33.106Z</time>
      </trkpt>
      <trkpt lat="42.98540667" lon="-1.22233333">
        <ele>758.0</ele>
        <time>2019-07-31T11:16:34.109Z</time>
      </trkpt>
      <trkpt lat="42.98540167" lon="-1.22234">
        <ele>757.0</ele>
        <time>2019-07-31T11:16:35.115Z</time>
      </trkpt>
      <trkpt lat="42.98540333" lon="-1.22234833">
        <ele>757.0</ele>
        <time>2019-07-31T11:16:36.119Z</time>
      </trkpt>
      <trkpt lat="42.98540333" lon="-1.22236">
        <ele>756.0</ele>
        <time>2019-07-31T11:16:37.120Z</time>
      </trkpt>
      <trkpt lat="42.98540167" lon="-1.22237167">
        <ele>755.0</ele>
        <time>2019-07-31T11:16:38.122Z</time>
      </trkpt>
      <trkpt lat="42.98540167" lon="-1.22238167">
        <ele>755.0</ele>
        <time>2019-07-31T11:16:39.124Z</time>
      </trkpt>
      <trkpt lat="42.98540333" lon="-1.222395">
        <ele>755.0</ele>
        <time>2019-07-31T11:16:40.128Z</time>
      </trkpt>
      <trkpt lat="42.985405" lon="-1.22239833">
        <ele>754.0</ele>
        <time>2019-07-31T11:16:41.133Z</time>
      </trkpt>
      <trkpt lat="42.985405" lon="-1.22239833">
        <ele>753.0</ele>
        <time>2019-07-31T11:16:42.139Z</time>
      </trkpt>
      <trkpt lat="42.985405" lon="-1.22239667">
        <ele>752.0</ele>
        <time>2019-07-31T11:16:43.145Z</time>
      </trkpt>
      <trkpt lat="42.985405" lon="-1.22239667">
        <ele>751.0</ele>
        <time>2019-07-31T11:16:44.150Z</time>
      </trkpt>
      <trkpt lat="42.98540167" lon="-1.2224">
        <ele>751.0</ele>
        <time>2019-07-31T11:16:45.156Z</time>
      </trkpt>
      <trkpt lat="42.98540167" lon="-1.22240333">
        <ele>752.0</ele>
        <time>2019-07-31T11:16:46.160Z</time>
      </trkpt>
      <trkpt lat="42.98539833" lon="-1.22240667">
        <ele>752.0</ele>
        <time>2019-07-31T11:16:47.164Z</time>
      </trkpt>
      <trkpt lat="42.985395" lon="-1.22240833">
        <ele>752.0</ele>
        <time>2019-07-31T11:16:48.170Z</time>
      </trkpt>
      <trkpt lat="42.98539333" lon="-1.22241167">
        <ele>753.0</ele>
        <time>2019-07-31T11:16:49.176Z</time>
      </trkpt>
      <trkpt lat="42.98539333" lon="-1.22241333">
        <ele>754.0</ele>
        <time>2019-07-31T11:16:50.182Z</time>
      </trkpt>
      <trkpt lat="42.98539333" lon="-1.22241667">
        <ele>754.0</ele>
        <time>2019-07-31T11:16:51.062Z</time>
      </trkpt>
      <trkpt lat="42.98539167" lon="-1.22241833">
        <ele>754.0</ele>
        <time>2019-07-31T11:16:52.069Z</time>
      </trkpt>
      <trkpt lat="42.98539" lon="-1.22242167">
        <ele>754.0</ele>
        <time>2019-07-31T11:16:53.075Z</time>
      </trkpt>
      <trkpt lat="42.98538833" lon="-1.22241833">
        <ele>754.0</ele>
        <time>2019-07-31T11:16:54.081Z</time>
      </trkpt>
      <trkpt lat="42.98539" lon="-1.22241833">
        <ele>754.0</ele>
        <time>2019-07-31T11:16:55.086Z</time>
      </trkpt>
      <trkpt lat="42.98538833" lon="-1.22241833">
        <ele>754.0</ele>
        <time>2019-07-31T11:16:56.091Z</time>
      </trkpt>
      <trkpt lat="42.98538667" lon="-1.22241833">
        <ele>754.0</ele>
        <time>2019-07-31T11:16:57.096Z</time>
      </trkpt>
      <trkpt lat="42.98538667" lon="-1.22242167">
        <ele>754.0</ele>
        <time>2019-07-31T11:16:58.102Z</time>
      </trkpt>
      <trkpt lat="42.98538333" lon="-1.22242667">
        <ele>754.0</ele>
        <time>2019-07-31T11:16:59.108Z</time>
      </trkpt>
      <trkpt lat="42.98538" lon="-1.22243333">
        <ele>754.0</ele>
        <time>2019-07-31T11:17:00.111Z</time>
      </trkpt>
      <trkpt lat="42.98537667" lon="-1.222435">
        <ele>754.0</ele>
        <time>2019-07-31T11:17:01.116Z</time>
      </trkpt>
      <trkpt lat="42.98537333" lon="-1.22243833">
        <ele>754.0</ele>
        <time>2019-07-31T11:17:02.122Z</time>
      </trkpt>
      <trkpt lat="42.98537" lon="-1.22243667">
        <ele>754.0</ele>
        <time>2019-07-31T11:17:03.126Z</time>
      </trkpt>
      <trkpt lat="42.98536667" lon="-1.22243667">
        <ele>753.0</ele>
        <time>2019-07-31T11:17:04.132Z</time>
      </trkpt>
      <trkpt lat="42.98536667" lon="-1.222435">
        <ele>753.0</ele>
        <time>2019-07-31T11:17:05.138Z</time>
      </trkpt>
      <trkpt lat="42.98536833" lon="-1.22243167">
        <ele>752.0</ele>
        <time>2019-07-31T11:17:06.145Z</time>
      </trkpt>
      <trkpt lat="42.98536833" lon="-1.22243167">
        <ele>752.0</ele>
        <time>2019-07-31T11:17:07.151Z</time>
      </trkpt>
      <trkpt lat="42.98536833" lon="-1.22242833">
        <ele>751.0</ele>
        <time>2019-07-31T11:17:08.156Z</time>
      </trkpt>
      <trkpt lat="42.98537" lon="-1.22243">
        <ele>751.0</ele>
        <time>2019-07-31T11:17:09.162Z</time>
      </trkpt>
      <trkpt lat="42.98536667" lon="-1.22243333">
        <ele>751.0</ele>
        <time>2019-07-31T11:17:10.168Z</time>
      </trkpt>
      <trkpt lat="42.98536333" lon="-1.22244">
        <ele>751.0</ele>
        <time>2019-07-31T11:17:11.172Z</time>
      </trkpt>
      <trkpt lat="42.98535667" lon="-1.222445">
        <ele>752.0</ele>
        <time>2019-07-31T11:17:12.177Z</time>
      </trkpt>
      <trkpt lat="42.98535167" lon="-1.22245333">
        <ele>753.0</ele>
        <time>2019-07-31T11:17:13.183Z</time>
      </trkpt>
      <trkpt lat="42.98535" lon="-1.22246">
        <ele>754.0</ele>
        <time>2019-07-31T11:17:14.186Z</time>
      </trkpt>
      <trkpt lat="42.98534833" lon="-1.222465">
        <ele>754.0</ele>
        <time>2019-07-31T11:17:15.065Z</time>
      </trkpt>
      <trkpt lat="42.98535" lon="-1.22246833">
        <ele>754.0</ele>
        <time>2019-07-31T11:17:16.071Z</time>
      </trkpt>
      <trkpt lat="42.98535167" lon="-1.22247333">
        <ele>755.0</ele>
        <time>2019-07-31T11:17:17.075Z</time>
      </trkpt>
      <trkpt lat="42.98535333" lon="-1.22247167">
        <ele>754.0</ele>
        <time>2019-07-31T11:17:18.080Z</time>
      </trkpt>
      <trkpt lat="42.98535667" lon="-1.22247167">
        <ele>754.0</ele>
        <time>2019-07-31T11:17:19.085Z</time>
      </trkpt>
      <trkpt lat="42.98535833" lon="-1.22246333">
        <ele>754.0</ele>
        <time>2019-07-31T11:17:20.091Z</time>
      </trkpt>
      <trkpt lat="42.98536167" lon="-1.22246">
        <ele>754.0</ele>
        <time>2019-07-31T11:17:21.094Z</time>
      </trkpt>
      <trkpt lat="42.98536667" lon="-1.22245833">
        <ele>754.0</ele>
        <time>2019-07-31T11:17:22.101Z</time>
      </trkpt>
      <trkpt lat="42.98536833" lon="-1.222455">
        <ele>754.0</ele>
        <time>2019-07-31T11:17:23.108Z</time>
      </trkpt>
      <trkpt lat="42.98536833" lon="-1.22245167">
        <ele>754.0</ele>
        <time>2019-07-31T11:17:24.111Z</time>
      </trkpt>
      <trkpt lat="42.98536667" lon="-1.222445">
        <ele>754.0</ele>
        <time>2019-07-31T11:17:25.118Z</time>
      </trkpt>
      <trkpt lat="42.98536" lon="-1.22243833">
        <ele>754.0</ele>
        <time>2019-07-31T11:17:26.122Z</time>
      </trkpt>
      <trkpt lat="42.98535333" lon="-1.222425">
        <ele>753.0</ele>
        <time>2019-07-31T11:17:27.127Z</time>
      </trkpt>
      <trkpt lat="42.98534833" lon="-1.22241667">
        <ele>752.0</ele>
        <time>2019-07-31T11:17:28.131Z</time>
      </trkpt>
      <trkpt lat="42.98534833" lon="-1.22241833">
        <ele>752.0</ele>
        <time>2019-07-31T11:17:29.136Z</time>
      </trkpt>
      <trkpt lat="42.98534833" lon="-1.22242">
        <ele>752.0</ele>
        <time>2019-07-31T11:17:30.139Z</time>
      </trkpt>
      <trkpt lat="42.98534833" lon="-1.22243167">
        <ele>752.0</ele>
        <time>2019-07-31T11:17:31.145Z</time>
      </trkpt>
      <trkpt lat="42.98534167" lon="-1.22244833">
        <ele>752.0</ele>
        <time>2019-07-31T11:17:32.151Z</time>
      </trkpt>
      <trkpt lat="42.985335" lon="-1.22245833">
        <ele>751.0</ele>
        <time>2019-07-31T11:17:33.155Z</time>
      </trkpt>
      <trkpt lat="42.98532833" lon="-1.22246833">
        <ele>751.0</ele>
        <time>2019-07-31T11:17:34.159Z</time>
      </trkpt>
      <trkpt lat="42.98532333" lon="-1.222475">
        <ele>751.0</ele>
        <time>2019-07-31T11:17:35.165Z</time>
      </trkpt>
      <trkpt lat="42.98532667" lon="-1.22248333">
        <ele>751.0</ele>
        <time>2019-07-31T11:17:36.170Z</time>
      </trkpt>
      <trkpt lat="42.98533333" lon="-1.22249167">
        <ele>751.0</ele>
        <time>2019-07-31T11:17:37.178Z</time>
      </trkpt>
      <trkpt lat="42.98532833" lon="-1.22250167">
        <ele>751.0</ele>
        <time>2019-07-31T11:17:38.184Z</time>
      </trkpt>
      <trkpt lat="42.985325" lon="-1.222505">
        <ele>751.0</ele>
        <time>2019-07-31T11:17:39.063Z</time>
      </trkpt>
      <trkpt lat="42.98532667" lon="-1.222505">
        <ele>751.0</ele>
        <time>2019-07-31T11:17:40.066Z</time>
      </trkpt>
      <trkpt lat="42.98533167" lon="-1.22250333">
        <ele>751.0</ele>
        <time>2019-07-31T11:17:41.071Z</time>
      </trkpt>
      <trkpt lat="42.985335" lon="-1.222495">
        <ele>751.0</ele>
        <time>2019-07-31T11:17:42.073Z</time>
      </trkpt>
      <trkpt lat="42.98533833" lon="-1.22248833">
        <ele>750.0</ele>
        <time>2019-07-31T11:17:43.078Z</time>
      </trkpt>
      <trkpt lat="42.98534" lon="-1.22248667">
        <ele>751.0</ele>
        <time>2019-07-31T11:17:44.082Z</time>
      </trkpt>
      <trkpt lat="42.98538833" lon="-1.22240333">
        <ele>756.0</ele>
        <time>2019-07-31T11:17:47.091Z</time>
      </trkpt>
      <trkpt lat="42.985385" lon="-1.222405">
        <ele>756.0</ele>
        <time>2019-07-31T11:17:48.098Z</time>
      </trkpt>
      <trkpt lat="42.98538167" lon="-1.22240333">
        <ele>756.0</ele>
        <time>2019-07-31T11:17:49.104Z</time>
      </trkpt>
      <trkpt lat="42.98537833" lon="-1.22240333">
        <ele>757.0</ele>
        <time>2019-07-31T11:17:50.109Z</time>
      </trkpt>
      <trkpt lat="42.98537" lon="-1.2224">
        <ele>756.0</ele>
        <time>2019-07-31T11:17:51.114Z</time>
      </trkpt>
      <trkpt lat="42.98535833" lon="-1.2224">
        <ele>756.0</ele>
        <time>2019-07-31T11:17:52.118Z</time>
      </trkpt>
      <trkpt lat="42.98534667" lon="-1.222395">
        <ele>755.0</ele>
        <time>2019-07-31T11:17:53.123Z</time>
      </trkpt>
      <trkpt lat="42.985335" lon="-1.22239">
        <ele>755.0</ele>
        <time>2019-07-31T11:17:54.130Z</time>
      </trkpt>
      <trkpt lat="42.985325" lon="-1.22238667">
        <ele>756.0</ele>
        <time>2019-07-31T11:17:55.136Z</time>
      </trkpt>
      <trkpt lat="42.98531" lon="-1.22239333">
        <ele>757.0</ele>
        <time>2019-07-31T11:17:56.142Z</time>
      </trkpt>
      <trkpt lat="42.98529333" lon="-1.22240333">
        <ele>758.0</ele>
        <time>2019-07-31T11:17:57.148Z</time>
      </trkpt>
      <trkpt lat="42.98527833" lon="-1.22240833">
        <ele>758.0</ele>
        <time>2019-07-31T11:17:58.152Z</time>
      </trkpt>
      <trkpt lat="42.98526333" lon="-1.22240833">
        <ele>758.0</ele>
        <time>2019-07-31T11:17:59.155Z</time>
      </trkpt>
      <trkpt lat="42.98524833" lon="-1.22240667">
        <ele>758.0</ele>
        <time>2019-07-31T11:18:00.159Z</time>
      </trkpt>
      <trkpt lat="42.985235" lon="-1.2224">
        <ele>757.0</ele>
        <time>2019-07-31T11:18:01.163Z</time>
      </trkpt>
      <trkpt lat="42.98522167" lon="-1.22239667">
        <ele>756.0</ele>
        <time>2019-07-31T11:18:02.167Z</time>
      </trkpt>
      <trkpt lat="42.98521" lon="-1.22239167">
        <ele>756.0</ele>
        <time>2019-07-31T11:18:03.172Z</time>
      </trkpt>
      <trkpt lat="42.9852" lon="-1.22238333">
        <ele>755.0</ele>
        <time>2019-07-31T11:18:04.178Z</time>
      </trkpt>
      <trkpt lat="42.98518833" lon="-1.22238">
        <ele>755.0</ele>
        <time>2019-07-31T11:18:05.184Z</time>
      </trkpt>
      <trkpt lat="42.98517667" lon="-1.22237667">
        <ele>754.0</ele>
        <time>2019-07-31T11:18:06.064Z</time>
      </trkpt>
      <trkpt lat="42.98516667" lon="-1.22237667">
        <ele>753.0</ele>
        <time>2019-07-31T11:18:07.069Z</time>
      </trkpt>
      <trkpt lat="42.985155" lon="-1.222375">
        <ele>753.0</ele>
        <time>2019-07-31T11:18:08.075Z</time>
      </trkpt>
      <trkpt lat="42.98514667" lon="-1.22237">
        <ele>752.0</ele>
        <time>2019-07-31T11:18:09.079Z</time>
      </trkpt>
      <trkpt lat="42.98514" lon="-1.22236167">
        <ele>752.0</ele>
        <time>2019-07-31T11:18:10.086Z</time>
      </trkpt>
      <trkpt lat="42.98513" lon="-1.22235833">
        <ele>752.0</ele>
        <time>2019-07-31T11:18:11.091Z</time>
      </trkpt>
      <trkpt lat="42.98512167" lon="-1.22235">
        <ele>752.0</ele>
        <time>2019-07-31T11:18:12.096Z</time>
      </trkpt>
      <trkpt lat="42.98511" lon="-1.22233833">
        <ele>752.0</ele>
        <time>2019-07-31T11:18:13.103Z</time>
      </trkpt>
      <trkpt lat="42.98510167" lon="-1.22232667">
        <ele>751.0</ele>
        <time>2019-07-31T11:18:14.109Z</time>
      </trkpt>
      <trkpt lat="42.98509" lon="-1.22231333">
        <ele>750.0</ele>
        <time>2019-07-31T11:18:15.115Z</time>
      </trkpt>
      <trkpt lat="42.98508" lon="-1.22229833">
        <ele>749.0</ele>
        <time>2019-07-31T11:18:16.120Z</time>
      </trkpt>
      <trkpt lat="42.98507" lon="-1.222285">
        <ele>749.0</ele>
        <time>2019-07-31T11:18:17.127Z</time>
      </trkpt>
      <trkpt lat="42.98505833" lon="-1.22227">
        <ele>748.0</ele>
        <time>2019-07-31T11:18:18.132Z</time>
      </trkpt>
      <trkpt lat="42.98504833" lon="-1.22225833">
        <ele>748.0</ele>
        <time>2019-07-31T11:18:19.134Z</time>
      </trkpt>
      <trkpt lat="42.98503667" lon="-1.22224833">
        <ele>747.0</ele>
        <time>2019-07-31T11:18:20.141Z</time>
      </trkpt>
      <trkpt lat="42.98502833" lon="-1.22223">
        <ele>746.0</ele>
        <time>2019-07-31T11:18:21.147Z</time>
      </trkpt>
      <trkpt lat="42.98501833" lon="-1.22222">
        <ele>746.0</ele>
        <time>2019-07-31T11:18:22.150Z</time>
      </trkpt>
      <trkpt lat="42.98501" lon="-1.22220667">
        <ele>744.0</ele>
        <time>2019-07-31T11:18:23.156Z</time>
      </trkpt>
      <trkpt lat="42.985005" lon="-1.22219833">
        <ele>744.0</ele>
        <time>2019-07-31T11:18:24.162Z</time>
      </trkpt>
      <trkpt lat="42.98500167" lon="-1.22219">
        <ele>744.0</ele>
        <time>2019-07-31T11:18:25.168Z</time>
      </trkpt>
      <trkpt lat="42.98499333" lon="-1.22217833">
        <ele>744.0</ele>
        <time>2019-07-31T11:18:26.173Z</time>
      </trkpt>
      <trkpt lat="42.98498333" lon="-1.22217167">
        <ele>744.0</ele>
        <time>2019-07-31T11:18:27.178Z</time>
      </trkpt>
      <trkpt lat="42.98497333" lon="-1.22216833">
        <ele>744.0</ele>
        <time>2019-07-31T11:18:28.184Z</time>
      </trkpt>
      <trkpt lat="42.984965" lon="-1.222165">
        <ele>743.0</ele>
        <time>2019-07-31T11:18:29.061Z</time>
      </trkpt>
      <trkpt lat="42.98495833" lon="-1.22216">
        <ele>743.0</ele>
        <time>2019-07-31T11:18:30.069Z</time>
      </trkpt>
      <trkpt lat="42.98494833" lon="-1.222155">
        <ele>743.0</ele>
        <time>2019-07-31T11:18:31.075Z</time>
      </trkpt>
      <trkpt lat="42.98493833" lon="-1.22214167">
        <ele>743.0</ele>
        <time>2019-07-31T11:18:32.080Z</time>
      </trkpt>
      <trkpt lat="42.98493333" lon="-1.22212833">
        <ele>741.0</ele>
        <time>2019-07-31T11:18:33.083Z</time>
      </trkpt>
      <trkpt lat="42.98493167" lon="-1.22211667">
        <ele>740.0</ele>
        <time>2019-07-31T11:18:34.089Z</time>
      </trkpt>
      <trkpt lat="42.98492833" lon="-1.22210667">
        <ele>739.0</ele>
        <time>2019-07-31T11:18:35.096Z</time>
      </trkpt>
      <trkpt lat="42.98492167" lon="-1.22209833">
        <ele>739.0</ele>
        <time>2019-07-31T11:18:36.102Z</time>
      </trkpt>
      <trkpt lat="42.98491833" lon="-1.22209333">
        <ele>738.0</ele>
        <time>2019-07-31T11:18:37.108Z</time>
      </trkpt>
      <trkpt lat="42.98491333" lon="-1.22208667">
        <ele>738.0</ele>
        <time>2019-07-31T11:18:38.114Z</time>
      </trkpt>
      <trkpt lat="42.98490167" lon="-1.22208">
        <ele>738.0</ele>
        <time>2019-07-31T11:18:39.117Z</time>
      </trkpt>
      <trkpt lat="42.9849" lon="-1.22207667">
        <ele>739.0</ele>
        <time>2019-07-31T11:18:40.121Z</time>
      </trkpt>
      <trkpt lat="42.984895" lon="-1.22207">
        <ele>739.0</ele>
        <time>2019-07-31T11:18:41.127Z</time>
      </trkpt>
      <trkpt lat="42.984885" lon="-1.222065">
        <ele>740.0</ele>
        <time>2019-07-31T11:18:42.134Z</time>
      </trkpt>
      <trkpt lat="42.98488" lon="-1.22206">
        <ele>741.0</ele>
        <time>2019-07-31T11:18:43.137Z</time>
      </trkpt>
      <trkpt lat="42.98487167" lon="-1.22205833">
        <ele>741.0</ele>
        <time>2019-07-31T11:18:44.143Z</time>
      </trkpt>
      <trkpt lat="42.98486167" lon="-1.22205667">
        <ele>741.0</ele>
        <time>2019-07-31T11:18:45.147Z</time>
      </trkpt>
      <trkpt lat="42.984855" lon="-1.22205667">
        <ele>740.0</ele>
        <time>2019-07-31T11:18:46.154Z</time>
      </trkpt>
      <trkpt lat="42.98485167" lon="-1.22205667">
        <ele>740.0</ele>
        <time>2019-07-31T11:18:47.158Z</time>
      </trkpt>
      <trkpt lat="42.984845" lon="-1.22205833">
        <ele>739.0</ele>
        <time>2019-07-31T11:18:48.164Z</time>
      </trkpt>
      <trkpt lat="42.98483833" lon="-1.22205667">
        <ele>739.0</ele>
        <time>2019-07-31T11:18:49.171Z</time>
      </trkpt>
      <trkpt lat="42.98483167" lon="-1.22205333">
        <ele>739.0</ele>
        <time>2019-07-31T11:18:50.176Z</time>
      </trkpt>
      <trkpt lat="42.98482667" lon="-1.22205167">
        <ele>739.0</ele>
        <time>2019-07-31T11:18:51.181Z</time>
      </trkpt>
      <trkpt lat="42.98482333" lon="-1.22205">
        <ele>739.0</ele>
        <time>2019-07-31T11:18:52.062Z</time>
      </trkpt>
      <trkpt lat="42.98482" lon="-1.22204667">
        <ele>739.0</ele>
        <time>2019-07-31T11:18:53.068Z</time>
      </trkpt>
      <trkpt lat="42.98481667" lon="-1.22204333">
        <ele>739.0</ele>
        <time>2019-07-31T11:18:54.073Z</time>
      </trkpt>
      <trkpt lat="42.98481333" lon="-1.22203667">
        <ele>740.0</ele>
        <time>2019-07-31T11:18:55.077Z</time>
      </trkpt>
      <trkpt lat="42.98481333" lon="-1.222035">
        <ele>740.0</ele>
        <time>2019-07-31T11:18:56.082Z</time>
      </trkpt>
      <trkpt lat="42.98481333" lon="-1.22203">
        <ele>740.0</ele>
        <time>2019-07-31T11:18:57.087Z</time>
      </trkpt>
      <trkpt lat="42.984815" lon="-1.222025">
        <ele>740.0</ele>
        <time>2019-07-31T11:18:58.092Z</time>
      </trkpt>
      <trkpt lat="42.98481833" lon="-1.22201667">
        <ele>740.0</ele>
        <time>2019-07-31T11:18:59.098Z</time>
      </trkpt>
      <trkpt lat="42.98482" lon="-1.22201">
        <ele>740.0</ele>
        <time>2019-07-31T11:19:00.103Z</time>
      </trkpt>
      <trkpt lat="42.984825" lon="-1.22199667">
        <ele>740.0</ele>
        <time>2019-07-31T11:19:01.109Z</time>
      </trkpt>
      <trkpt lat="42.98483" lon="-1.221985">
        <ele>739.0</ele>
        <time>2019-07-31T11:19:02.114Z</time>
      </trkpt>
      <trkpt lat="42.984835" lon="-1.22197">
        <ele>739.0</ele>
        <time>2019-07-31T11:19:03.121Z</time>
      </trkpt>
      <trkpt lat="42.98484" lon="-1.22195333">
        <ele>739.0</ele>
        <time>2019-07-31T11:19:04.127Z</time>
      </trkpt>
      <trkpt lat="42.98484667" lon="-1.22193667">
        <ele>739.0</ele>
        <time>2019-07-31T11:19:05.133Z</time>
      </trkpt>
      <trkpt lat="42.98485" lon="-1.22192">
        <ele>738.0</ele>
        <time>2019-07-31T11:19:06.138Z</time>
      </trkpt>
      <trkpt lat="42.98485167" lon="-1.22189833">
        <ele>738.0</ele>
        <time>2019-07-31T11:19:07.143Z</time>
      </trkpt>
      <trkpt lat="42.98485333" lon="-1.22188">
        <ele>737.0</ele>
        <time>2019-07-31T11:19:08.146Z</time>
      </trkpt>
      <trkpt lat="42.98485833" lon="-1.22186167">
        <ele>737.0</ele>
        <time>2019-07-31T11:19:09.151Z</time>
      </trkpt>
      <trkpt lat="42.98486333" lon="-1.22184333">
        <ele>737.0</ele>
        <time>2019-07-31T11:19:10.154Z</time>
      </trkpt>
      <trkpt lat="42.98487" lon="-1.221825">
        <ele>737.0</ele>
        <time>2019-07-31T11:19:11.159Z</time>
      </trkpt>
      <trkpt lat="42.98487667" lon="-1.22180333">
        <ele>737.0</ele>
        <time>2019-07-31T11:19:12.164Z</time>
      </trkpt>
      <trkpt lat="42.98488" lon="-1.22178333">
        <ele>737.0</ele>
        <time>2019-07-31T11:19:13.168Z</time>
      </trkpt>
      <trkpt lat="42.984885" lon="-1.221765">
        <ele>737.0</ele>
        <time>2019-07-31T11:19:14.174Z</time>
      </trkpt>
      <trkpt lat="42.98489" lon="-1.22174667">
        <ele>737.0</ele>
        <time>2019-07-31T11:19:15.180Z</time>
      </trkpt>
      <trkpt lat="42.984895" lon="-1.22172833">
        <ele>737.0</ele>
        <time>2019-07-31T11:19:16.185Z</time>
      </trkpt>
      <trkpt lat="42.9849" lon="-1.22170667">
        <ele>737.0</ele>
        <time>2019-07-31T11:19:17.064Z</time>
      </trkpt>
      <trkpt lat="42.98490333" lon="-1.22168667">
        <ele>737.0</ele>
        <time>2019-07-31T11:19:18.074Z</time>
      </trkpt>
      <trkpt lat="42.98491" lon="-1.22166667">
        <ele>737.0</ele>
        <time>2019-07-31T11:19:19.080Z</time>
      </trkpt>
      <trkpt lat="42.98491667" lon="-1.22164667">
        <ele>737.0</ele>
        <time>2019-07-31T11:19:20.086Z</time>
      </trkpt>
      <trkpt lat="42.98492167" lon="-1.22162833">
        <ele>737.0</ele>
        <time>2019-07-31T11:19:21.091Z</time>
      </trkpt>
      <trkpt lat="42.98492667" lon="-1.22160833">
        <ele>737.0</ele>
        <time>2019-07-31T11:19:22.095Z</time>
      </trkpt>
      <trkpt lat="42.98493167" lon="-1.22158833">
        <ele>737.0</ele>
        <time>2019-07-31T11:19:23.101Z</time>
      </trkpt>
      <trkpt lat="42.98493833" lon="-1.22156833">
        <ele>737.0</ele>
        <time>2019-07-31T11:19:24.108Z</time>
      </trkpt>
      <trkpt lat="42.98494333" lon="-1.22155">
        <ele>738.0</ele>
        <time>2019-07-31T11:19:25.112Z</time>
      </trkpt>
      <trkpt lat="42.98495" lon="-1.22153167">
        <ele>737.0</ele>
        <time>2019-07-31T11:19:26.115Z</time>
      </trkpt>
      <trkpt lat="42.98495667" lon="-1.22151">
        <ele>737.0</ele>
        <time>2019-07-31T11:19:27.118Z</time>
      </trkpt>
      <trkpt lat="42.98496167" lon="-1.22149">
        <ele>737.0</ele>
        <time>2019-07-31T11:19:28.121Z</time>
      </trkpt>
      <trkpt lat="42.98496667" lon="-1.22147">
        <ele>737.0</ele>
        <time>2019-07-31T11:19:29.128Z</time>
      </trkpt>
      <trkpt lat="42.98497167" lon="-1.22145">
        <ele>737.0</ele>
        <time>2019-07-31T11:19:30.135Z</time>
      </trkpt>
      <trkpt lat="42.98497667" lon="-1.22143167">
        <ele>737.0</ele>
        <time>2019-07-31T11:19:31.141Z</time>
      </trkpt>
      <trkpt lat="42.98498" lon="-1.22141">
        <ele>737.0</ele>
        <time>2019-07-31T11:19:32.142Z</time>
      </trkpt>
      <trkpt lat="42.98498667" lon="-1.22139167">
        <ele>737.0</ele>
        <time>2019-07-31T11:19:33.147Z</time>
      </trkpt>
      <trkpt lat="42.98499333" lon="-1.22137167">
        <ele>737.0</ele>
        <time>2019-07-31T11:19:34.153Z</time>
      </trkpt>
      <trkpt lat="42.98500167" lon="-1.22135167">
        <ele>737.0</ele>
        <time>2019-07-31T11:19:35.158Z</time>
      </trkpt>
      <trkpt lat="42.98500833" lon="-1.22133333">
        <ele>737.0</ele>
        <time>2019-07-31T11:19:36.159Z</time>
      </trkpt>
      <trkpt lat="42.985015" lon="-1.221315">
        <ele>737.0</ele>
        <time>2019-07-31T11:19:37.161Z</time>
      </trkpt>
      <trkpt lat="42.98502333" lon="-1.2213">
        <ele>737.0</ele>
        <time>2019-07-31T11:19:38.167Z</time>
      </trkpt>
      <trkpt lat="42.98503" lon="-1.22128167">
        <ele>737.0</ele>
        <time>2019-07-31T11:19:39.173Z</time>
      </trkpt>
      <trkpt lat="42.98503667" lon="-1.221265">
        <ele>737.0</ele>
        <time>2019-07-31T11:19:40.177Z</time>
      </trkpt>
      <trkpt lat="42.985045" lon="-1.22125">
        <ele>737.0</ele>
        <time>2019-07-31T11:19:41.183Z</time>
      </trkpt>
      <trkpt lat="42.98505333" lon="-1.22123333">
        <ele>736.0</ele>
        <time>2019-07-31T11:19:42.062Z</time>
      </trkpt>
      <trkpt lat="42.98505833" lon="-1.221215">
        <ele>736.0</ele>
        <time>2019-07-31T11:19:43.067Z</time>
      </trkpt>
      <trkpt lat="42.985065" lon="-1.221195">
        <ele>736.0</ele>
        <time>2019-07-31T11:19:44.073Z</time>
      </trkpt>
      <trkpt lat="42.98507167" lon="-1.22117667">
        <ele>736.0</ele>
        <time>2019-07-31T11:19:45.077Z</time>
      </trkpt>
      <trkpt lat="42.98507833" lon="-1.22115667">
        <ele>736.0</ele>
        <time>2019-07-31T11:19:46.081Z</time>
      </trkpt>
      <trkpt lat="42.98508667" lon="-1.22113667">
        <ele>737.0</ele>
        <time>2019-07-31T11:19:47.087Z</time>
      </trkpt>
      <trkpt lat="42.98509167" lon="-1.22112167">
        <ele>738.0</ele>
        <time>2019-07-31T11:19:48.094Z</time>
      </trkpt>
      <trkpt lat="42.98508833" lon="-1.22111167">
        <ele>739.0</ele>
        <time>2019-07-31T11:19:49.099Z</time>
      </trkpt>
      <trkpt lat="42.98509" lon="-1.22111">
        <ele>739.0</ele>
        <time>2019-07-31T11:19:50.105Z</time>
      </trkpt>
      <trkpt lat="42.98509" lon="-1.22111">
        <ele>741.0</ele>
        <time>2019-07-31T11:19:51.111Z</time>
      </trkpt>
      <trkpt lat="42.98508833" lon="-1.221115">
        <ele>742.0</ele>
        <time>2019-07-31T11:19:52.117Z</time>
      </trkpt>
      <trkpt lat="42.98508833" lon="-1.22111667">
        <ele>743.0</ele>
        <time>2019-07-31T11:19:53.120Z</time>
      </trkpt>
      <trkpt lat="42.98508833" lon="-1.22112">
        <ele>744.0</ele>
        <time>2019-07-31T11:19:54.123Z</time>
      </trkpt>
      <trkpt lat="42.985085" lon="-1.22112167">
        <ele>745.0</ele>
        <time>2019-07-31T11:19:55.128Z</time>
      </trkpt>
      <trkpt lat="42.98508333" lon="-1.221125">
        <ele>746.0</ele>
        <time>2019-07-31T11:19:56.132Z</time>
      </trkpt>
      <trkpt lat="42.98507833" lon="-1.22112833">
        <ele>746.0</ele>
        <time>2019-07-31T11:19:57.136Z</time>
      </trkpt>
      <trkpt lat="42.98507833" lon="-1.22113">
        <ele>746.0</ele>
        <time>2019-07-31T11:19:58.140Z</time>
      </trkpt>
      <trkpt lat="42.98507833" lon="-1.221135">
        <ele>747.0</ele>
        <time>2019-07-31T11:19:59.146Z</time>
      </trkpt>
      <trkpt lat="42.98507833" lon="-1.22114">
        <ele>747.0</ele>
        <time>2019-07-31T11:20:00.151Z</time>
      </trkpt>
      <trkpt lat="42.98507833" lon="-1.22114167">
        <ele>748.0</ele>
        <time>2019-07-31T11:20:01.156Z</time>
      </trkpt>
      <trkpt lat="42.98508167" lon="-1.22113833">
        <ele>748.0</ele>
        <time>2019-07-31T11:20:02.162Z</time>
      </trkpt>
      <trkpt lat="42.985085" lon="-1.22112833">
        <ele>748.0</ele>
        <time>2019-07-31T11:20:03.168Z</time>
      </trkpt>
      <trkpt lat="42.98509" lon="-1.221115">
        <ele>746.0</ele>
        <time>2019-07-31T11:20:04.173Z</time>
      </trkpt>
      <trkpt lat="42.98509" lon="-1.22109833">
        <ele>745.0</ele>
        <time>2019-07-31T11:20:05.181Z</time>
      </trkpt>
      <trkpt lat="42.98509" lon="-1.22109">
        <ele>744.0</ele>
        <time>2019-07-31T11:20:06.061Z</time>
      </trkpt>
      <trkpt lat="42.98509167" lon="-1.22108">
        <ele>744.0</ele>
        <time>2019-07-31T11:20:07.067Z</time>
      </trkpt>
      <trkpt lat="42.98509333" lon="-1.22107667">
        <ele>744.0</ele>
        <time>2019-07-31T11:20:08.072Z</time>
      </trkpt>
      <trkpt lat="42.985095" lon="-1.22107167">
        <ele>744.0</ele>
        <time>2019-07-31T11:20:09.076Z</time>
      </trkpt>
      <trkpt lat="42.985095" lon="-1.22107167">
        <ele>743.0</ele>
        <time>2019-07-31T11:20:10.082Z</time>
      </trkpt>
      <trkpt lat="42.985095" lon="-1.22106833">
        <ele>743.0</ele>
        <time>2019-07-31T11:20:11.088Z</time>
      </trkpt>
      <trkpt lat="42.98509333" lon="-1.22106333">
        <ele>743.0</ele>
        <time>2019-07-31T11:20:12.094Z</time>
      </trkpt>
      <trkpt lat="42.98509667" lon="-1.221055">
        <ele>742.0</ele>
        <time>2019-07-31T11:20:13.100Z</time>
      </trkpt>
      <trkpt lat="42.98510333" lon="-1.221045">
        <ele>742.0</ele>
        <time>2019-07-31T11:20:14.106Z</time>
      </trkpt>
      <trkpt lat="42.98511167" lon="-1.22103167">
        <ele>741.0</ele>
        <time>2019-07-31T11:20:15.111Z</time>
      </trkpt>
      <trkpt lat="42.98512" lon="-1.22101833">
        <ele>741.0</ele>
        <time>2019-07-31T11:20:16.117Z</time>
      </trkpt>
      <trkpt lat="42.985125" lon="-1.22100167">
        <ele>741.0</ele>
        <time>2019-07-31T11:20:17.121Z</time>
      </trkpt>
      <trkpt lat="42.98513167" lon="-1.22098333">
        <ele>740.0</ele>
        <time>2019-07-31T11:20:18.125Z</time>
      </trkpt>
      <trkpt lat="42.98514" lon="-1.22096833">
        <ele>740.0</ele>
        <time>2019-07-31T11:20:19.126Z</time>
      </trkpt>
      <trkpt lat="42.98514833" lon="-1.22095167">
        <ele>740.0</ele>
        <time>2019-07-31T11:20:20.133Z</time>
      </trkpt>
      <trkpt lat="42.98515" lon="-1.22093">
        <ele>739.0</ele>
        <time>2019-07-31T11:20:21.139Z</time>
      </trkpt>
      <trkpt lat="42.985155" lon="-1.22091">
        <ele>738.0</ele>
        <time>2019-07-31T11:20:22.145Z</time>
      </trkpt>
      <trkpt lat="42.98516" lon="-1.22089167">
        <ele>738.0</ele>
        <time>2019-07-31T11:20:23.152Z</time>
      </trkpt>
      <trkpt lat="42.985165" lon="-1.220875">
        <ele>737.0</ele>
        <time>2019-07-31T11:20:24.158Z</time>
      </trkpt>
      <trkpt lat="42.98517167" lon="-1.22086">
        <ele>737.0</ele>
        <time>2019-07-31T11:20:25.162Z</time>
      </trkpt>
      <trkpt lat="42.98517667" lon="-1.22084167">
        <ele>737.0</ele>
        <time>2019-07-31T11:20:26.167Z</time>
      </trkpt>
      <trkpt lat="42.985185" lon="-1.22082333">
        <ele>736.0</ele>
        <time>2019-07-31T11:20:27.171Z</time>
      </trkpt>
      <trkpt lat="42.98519333" lon="-1.22080333">
        <ele>736.0</ele>
        <time>2019-07-31T11:20:28.178Z</time>
      </trkpt>
      <trkpt lat="42.9852" lon="-1.22078667">
        <ele>736.0</ele>
        <time>2019-07-31T11:20:29.181Z</time>
      </trkpt>
      <trkpt lat="42.985205" lon="-1.22076667">
        <ele>736.0</ele>
        <time>2019-07-31T11:20:30.186Z</time>
      </trkpt>
      <trkpt lat="42.985215" lon="-1.22075167">
        <ele>736.0</ele>
        <time>2019-07-31T11:20:31.064Z</time>
      </trkpt>
      <trkpt lat="42.98522667" lon="-1.22073333">
        <ele>735.0</ele>
        <time>2019-07-31T11:20:32.070Z</time>
      </trkpt>
      <trkpt lat="42.98523833" lon="-1.22071667">
        <ele>735.0</ele>
        <time>2019-07-31T11:20:33.075Z</time>
      </trkpt>
      <trkpt lat="42.98524833" lon="-1.2207">
        <ele>735.0</ele>
        <time>2019-07-31T11:20:34.080Z</time>
      </trkpt>
      <trkpt lat="42.98525667" lon="-1.22068333">
        <ele>735.0</ele>
        <time>2019-07-31T11:20:35.083Z</time>
      </trkpt>
      <trkpt lat="42.98526167" lon="-1.22066167">
        <ele>735.0</ele>
        <time>2019-07-31T11:20:36.090Z</time>
      </trkpt>
      <trkpt lat="42.98526333" lon="-1.22064167">
        <ele>736.0</ele>
        <time>2019-07-31T11:20:37.096Z</time>
      </trkpt>
      <trkpt lat="42.98526667" lon="-1.22063167">
        <ele>736.0</ele>
        <time>2019-07-31T11:20:38.102Z</time>
      </trkpt>
      <trkpt lat="42.98526833" lon="-1.22062167">
        <ele>736.0</ele>
        <time>2019-07-31T11:20:39.109Z</time>
      </trkpt>
      <trkpt lat="42.98527333" lon="-1.22061">
        <ele>736.0</ele>
        <time>2019-07-31T11:20:40.113Z</time>
      </trkpt>
      <trkpt lat="42.98528333" lon="-1.220595">
        <ele>736.0</ele>
        <time>2019-07-31T11:20:41.118Z</time>
      </trkpt>
      <trkpt lat="42.98528667" lon="-1.22057833">
        <ele>735.0</ele>
        <time>2019-07-31T11:20:42.124Z</time>
      </trkpt>
      <trkpt lat="42.98529667" lon="-1.22056833">
        <ele>735.0</ele>
        <time>2019-07-31T11:20:43.129Z</time>
      </trkpt>
      <trkpt lat="42.98530833" lon="-1.22055167">
        <ele>735.0</ele>
        <time>2019-07-31T11:20:44.137Z</time>
      </trkpt>
      <trkpt lat="42.98531833" lon="-1.22053667">
        <ele>735.0</ele>
        <time>2019-07-31T11:20:45.142Z</time>
      </trkpt>
      <trkpt lat="42.985325" lon="-1.22052167">
        <ele>734.0</ele>
        <time>2019-07-31T11:20:46.146Z</time>
      </trkpt>
      <trkpt lat="42.985335" lon="-1.22050833">
        <ele>735.0</ele>
        <time>2019-07-31T11:20:47.152Z</time>
      </trkpt>
      <trkpt lat="42.98534667" lon="-1.22049">
        <ele>735.0</ele>
        <time>2019-07-31T11:20:48.156Z</time>
      </trkpt>
      <trkpt lat="42.98535333" lon="-1.220475">
        <ele>735.0</ele>
        <time>2019-07-31T11:20:49.159Z</time>
      </trkpt>
      <trkpt lat="42.98535833" lon="-1.22045333">
        <ele>735.0</ele>
        <time>2019-07-31T11:20:50.163Z</time>
      </trkpt>
      <trkpt lat="42.98536" lon="-1.22042667">
        <ele>735.0</ele>
        <time>2019-07-31T11:20:51.169Z</time>
      </trkpt>
      <trkpt lat="42.98536667" lon="-1.2204">
        <ele>734.0</ele>
        <time>2019-07-31T11:20:52.173Z</time>
      </trkpt>
      <trkpt lat="42.98537167" lon="-1.22037833">
        <ele>735.0</ele>
        <time>2019-07-31T11:20:53.176Z</time>
      </trkpt>
      <trkpt lat="42.985375" lon="-1.22036333">
        <ele>735.0</ele>
        <time>2019-07-31T11:20:54.182Z</time>
      </trkpt>
      <trkpt lat="42.98538" lon="-1.220345">
        <ele>735.0</ele>
        <time>2019-07-31T11:20:55.062Z</time>
      </trkpt>
      <trkpt lat="42.985385" lon="-1.22032667">
        <ele>735.0</ele>
        <time>2019-07-31T11:20:56.066Z</time>
      </trkpt>
      <trkpt lat="42.98539167" lon="-1.22030833">
        <ele>735.0</ele>
        <time>2019-07-31T11:20:57.073Z</time>
      </trkpt>
      <trkpt lat="42.98539667" lon="-1.22029167">
        <ele>735.0</ele>
        <time>2019-07-31T11:20:58.077Z</time>
      </trkpt>
      <trkpt lat="42.985405" lon="-1.22027333">
        <ele>735.0</ele>
        <time>2019-07-31T11:20:59.081Z</time>
      </trkpt>
      <trkpt lat="42.98541167" lon="-1.22025333">
        <ele>735.0</ele>
        <time>2019-07-31T11:21:00.085Z</time>
      </trkpt>
      <trkpt lat="42.98541833" lon="-1.22023333">
        <ele>735.0</ele>
        <time>2019-07-31T11:21:01.092Z</time>
      </trkpt>
      <trkpt lat="42.98542167" lon="-1.220215">
        <ele>735.0</ele>
        <time>2019-07-31T11:21:02.098Z</time>
      </trkpt>
      <trkpt lat="42.98542667" lon="-1.220195">
        <ele>735.0</ele>
        <time>2019-07-31T11:21:03.104Z</time>
      </trkpt>
      <trkpt lat="42.98543333" lon="-1.22017667">
        <ele>735.0</ele>
        <time>2019-07-31T11:21:04.111Z</time>
      </trkpt>
      <trkpt lat="42.985435" lon="-1.22015333">
        <ele>735.0</ele>
        <time>2019-07-31T11:21:05.117Z</time>
      </trkpt>
      <trkpt lat="42.98544" lon="-1.22013167">
        <ele>734.0</ele>
        <time>2019-07-31T11:21:06.121Z</time>
      </trkpt>
      <trkpt lat="42.985445" lon="-1.22011167">
        <ele>734.0</ele>
        <time>2019-07-31T11:21:07.126Z</time>
      </trkpt>
      <trkpt lat="42.985455" lon="-1.22008833">
        <ele>734.0</ele>
        <time>2019-07-31T11:21:08.132Z</time>
      </trkpt>
      <trkpt lat="42.98546167" lon="-1.22007333">
        <ele>734.0</ele>
        <time>2019-07-31T11:21:09.139Z</time>
      </trkpt>
      <trkpt lat="42.98546833" lon="-1.22004667">
        <ele>734.0</ele>
        <time>2019-07-31T11:21:10.142Z</time>
      </trkpt>
      <trkpt lat="42.98547333" lon="-1.22002833">
        <ele>735.0</ele>
        <time>2019-07-31T11:21:11.148Z</time>
      </trkpt>
      <trkpt lat="42.98548" lon="-1.220005">
        <ele>735.0</ele>
        <time>2019-07-31T11:21:12.153Z</time>
      </trkpt>
      <trkpt lat="42.98548833" lon="-1.21998167">
        <ele>735.0</ele>
        <time>2019-07-31T11:21:13.156Z</time>
      </trkpt>
      <trkpt lat="42.98549333" lon="-1.219955">
        <ele>735.0</ele>
        <time>2019-07-31T11:21:14.159Z</time>
      </trkpt>
      <trkpt lat="42.98549833" lon="-1.21994167">
        <ele>736.0</ele>
        <time>2019-07-31T11:21:15.164Z</time>
      </trkpt>
      <trkpt lat="42.98550167" lon="-1.219925">
        <ele>735.0</ele>
        <time>2019-07-31T11:21:16.166Z</time>
      </trkpt>
      <trkpt lat="42.98551" lon="-1.21991">
        <ele>735.0</ele>
        <time>2019-07-31T11:21:17.172Z</time>
      </trkpt>
      <trkpt lat="42.98551833" lon="-1.219895">
        <ele>734.0</ele>
        <time>2019-07-31T11:21:18.176Z</time>
      </trkpt>
      <trkpt lat="42.985525" lon="-1.21986833">
        <ele>735.0</ele>
        <time>2019-07-31T11:21:19.183Z</time>
      </trkpt>
      <trkpt lat="42.98552833" lon="-1.21985167">
        <ele>734.0</ele>
        <time>2019-07-31T11:21:20.063Z</time>
      </trkpt>
      <trkpt lat="42.985535" lon="-1.21983167">
        <ele>734.0</ele>
        <time>2019-07-31T11:21:21.068Z</time>
      </trkpt>
      <trkpt lat="42.98554167" lon="-1.21981667">
        <ele>735.0</ele>
        <time>2019-07-31T11:21:22.074Z</time>
      </trkpt>
      <trkpt lat="42.985545" lon="-1.2198">
        <ele>735.0</ele>
        <time>2019-07-31T11:21:23.080Z</time>
      </trkpt>
      <trkpt lat="42.98555" lon="-1.21978167">
        <ele>735.0</ele>
        <time>2019-07-31T11:21:24.085Z</time>
      </trkpt>
      <trkpt lat="42.98556" lon="-1.21976">
        <ele>735.0</ele>
        <time>2019-07-31T11:21:25.092Z</time>
      </trkpt>
      <trkpt lat="42.98556667" lon="-1.219745">
        <ele>735.0</ele>
        <time>2019-07-31T11:21:26.098Z</time>
      </trkpt>
      <trkpt lat="42.98557333" lon="-1.219725">
        <ele>735.0</ele>
        <time>2019-07-31T11:21:27.106Z</time>
      </trkpt>
      <trkpt lat="42.98558167" lon="-1.219705">
        <ele>735.0</ele>
        <time>2019-07-31T11:21:28.112Z</time>
      </trkpt>
      <trkpt lat="42.98559167" lon="-1.21968667">
        <ele>735.0</ele>
        <time>2019-07-31T11:21:29.118Z</time>
      </trkpt>
      <trkpt lat="42.98560167" lon="-1.21966833">
        <ele>735.0</ele>
        <time>2019-07-31T11:21:30.124Z</time>
      </trkpt>
      <trkpt lat="42.98561333" lon="-1.219645">
        <ele>735.0</ele>
        <time>2019-07-31T11:21:31.128Z</time>
      </trkpt>
      <trkpt lat="42.98562167" lon="-1.21962667">
        <ele>735.0</ele>
        <time>2019-07-31T11:21:32.134Z</time>
      </trkpt>
      <trkpt lat="42.98562833" lon="-1.21961167">
        <ele>736.0</ele>
        <time>2019-07-31T11:21:33.140Z</time>
      </trkpt>
      <trkpt lat="42.98563667" lon="-1.21958667">
        <ele>736.0</ele>
        <time>2019-07-31T11:21:34.145Z</time>
      </trkpt>
      <trkpt lat="42.985645" lon="-1.21956833">
        <ele>736.0</ele>
        <time>2019-07-31T11:21:35.150Z</time>
      </trkpt>
      <trkpt lat="42.98565333" lon="-1.21955">
        <ele>736.0</ele>
        <time>2019-07-31T11:21:36.155Z</time>
      </trkpt>
      <trkpt lat="42.98566333" lon="-1.21953167">
        <ele>735.0</ele>
        <time>2019-07-31T11:21:37.160Z</time>
      </trkpt>
      <trkpt lat="42.98567167" lon="-1.21950833">
        <ele>735.0</ele>
        <time>2019-07-31T11:21:38.165Z</time>
      </trkpt>
      <trkpt lat="42.98568167" lon="-1.21948833">
        <ele>735.0</ele>
        <time>2019-07-31T11:21:39.170Z</time>
      </trkpt>
      <trkpt lat="42.98569" lon="-1.21946667">
        <ele>735.0</ele>
        <time>2019-07-31T11:21:40.176Z</time>
      </trkpt>
      <trkpt lat="42.985695" lon="-1.21944667">
        <ele>735.0</ele>
        <time>2019-07-31T11:21:41.179Z</time>
      </trkpt>
      <trkpt lat="42.98570167" lon="-1.21942667">
        <ele>735.0</ele>
        <time>2019-07-31T11:21:42.184Z</time>
      </trkpt>
      <trkpt lat="42.985705" lon="-1.21940667">
        <ele>735.0</ele>
        <time>2019-07-31T11:21:43.062Z</time>
      </trkpt>
      <trkpt lat="42.98571167" lon="-1.21939">
        <ele>736.0</ele>
        <time>2019-07-31T11:21:44.069Z</time>
      </trkpt>
      <trkpt lat="42.98571667" lon="-1.21936333">
        <ele>736.0</ele>
        <time>2019-07-31T11:21:45.076Z</time>
      </trkpt>
      <trkpt lat="42.98572" lon="-1.21934333">
        <ele>736.0</ele>
        <time>2019-07-31T11:21:46.082Z</time>
      </trkpt>
      <trkpt lat="42.98572333" lon="-1.21932">
        <ele>736.0</ele>
        <time>2019-07-31T11:21:47.088Z</time>
      </trkpt>
      <trkpt lat="42.98572667" lon="-1.21930167">
        <ele>736.0</ele>
        <time>2019-07-31T11:21:48.094Z</time>
      </trkpt>
      <trkpt lat="42.98573167" lon="-1.21927667">
        <ele>736.0</ele>
        <time>2019-07-31T11:21:49.098Z</time>
      </trkpt>
      <trkpt lat="42.98573667" lon="-1.21925667">
        <ele>736.0</ele>
        <time>2019-07-31T11:21:50.106Z</time>
      </trkpt>
      <trkpt lat="42.98574" lon="-1.21923667">
        <ele>736.0</ele>
        <time>2019-07-31T11:21:51.112Z</time>
      </trkpt>
      <trkpt lat="42.985745" lon="-1.21921333">
        <ele>736.0</ele>
        <time>2019-07-31T11:21:52.114Z</time>
      </trkpt>
      <trkpt lat="42.98574833" lon="-1.21919333">
        <ele>736.0</ele>
        <time>2019-07-31T11:21:53.119Z</time>
      </trkpt>
      <trkpt lat="42.98575167" lon="-1.219175">
        <ele>736.0</ele>
        <time>2019-07-31T11:21:54.124Z</time>
      </trkpt>
      <trkpt lat="42.98575833" lon="-1.21915">
        <ele>736.0</ele>
        <time>2019-07-31T11:21:55.129Z</time>
      </trkpt>
      <trkpt lat="42.985765" lon="-1.21913167">
        <ele>735.0</ele>
        <time>2019-07-31T11:21:56.135Z</time>
      </trkpt>
      <trkpt lat="42.98577333" lon="-1.21911333">
        <ele>735.0</ele>
        <time>2019-07-31T11:21:57.141Z</time>
      </trkpt>
      <trkpt lat="42.98578167" lon="-1.21909333">
        <ele>735.0</ele>
        <time>2019-07-31T11:21:58.145Z</time>
      </trkpt>
      <trkpt lat="42.98579" lon="-1.219075">
        <ele>735.0</ele>
        <time>2019-07-31T11:21:59.150Z</time>
      </trkpt>
      <trkpt lat="42.98579667" lon="-1.219055">
        <ele>734.0</ele>
        <time>2019-07-31T11:22:00.155Z</time>
      </trkpt>
      <trkpt lat="42.98580333" lon="-1.219035">
        <ele>734.0</ele>
        <time>2019-07-31T11:22:01.160Z</time>
      </trkpt>
      <trkpt lat="42.98580833" lon="-1.219015">
        <ele>734.0</ele>
        <time>2019-07-31T11:22:02.163Z</time>
      </trkpt>
      <trkpt lat="42.98581167" lon="-1.218995">
        <ele>734.0</ele>
        <time>2019-07-31T11:22:03.169Z</time>
      </trkpt>
      <trkpt lat="42.98581667" lon="-1.21897167">
        <ele>734.0</ele>
        <time>2019-07-31T11:22:04.173Z</time>
      </trkpt>
      <trkpt lat="42.98582" lon="-1.21895167">
        <ele>734.0</ele>
        <time>2019-07-31T11:22:05.176Z</time>
      </trkpt>
      <trkpt lat="42.98582167" lon="-1.21892833">
        <ele>735.0</ele>
        <time>2019-07-31T11:22:06.182Z</time>
      </trkpt>
      <trkpt lat="42.985825" lon="-1.21890667">
        <ele>735.0</ele>
        <time>2019-07-31T11:22:07.063Z</time>
      </trkpt>
      <trkpt lat="42.98582833" lon="-1.218885">
        <ele>735.0</ele>
        <time>2019-07-31T11:22:08.069Z</time>
      </trkpt>
      <trkpt lat="42.98583167" lon="-1.218865">
        <ele>735.0</ele>
        <time>2019-07-31T11:22:09.075Z</time>
      </trkpt>
      <trkpt lat="42.98583833" lon="-1.21884333">
        <ele>735.0</ele>
        <time>2019-07-31T11:22:10.081Z</time>
      </trkpt>
      <trkpt lat="42.98584333" lon="-1.21882333">
        <ele>735.0</ele>
        <time>2019-07-31T11:22:11.088Z</time>
      </trkpt>
      <trkpt lat="42.98584667" lon="-1.218805">
        <ele>735.0</ele>
        <time>2019-07-31T11:22:12.094Z</time>
      </trkpt>
      <trkpt lat="42.98585333" lon="-1.21877833">
        <ele>735.0</ele>
        <time>2019-07-31T11:22:13.098Z</time>
      </trkpt>
      <trkpt lat="42.98586167" lon="-1.21875667">
        <ele>734.0</ele>
        <time>2019-07-31T11:22:14.102Z</time>
      </trkpt>
      <trkpt lat="42.98586667" lon="-1.21873667">
        <ele>735.0</ele>
        <time>2019-07-31T11:22:15.106Z</time>
      </trkpt>
      <trkpt lat="42.98587167" lon="-1.218715">
        <ele>735.0</ele>
        <time>2019-07-31T11:22:16.112Z</time>
      </trkpt>
      <trkpt lat="42.98587667" lon="-1.21869167">
        <ele>735.0</ele>
        <time>2019-07-31T11:22:17.117Z</time>
      </trkpt>
      <trkpt lat="42.985885" lon="-1.21867167">
        <ele>735.0</ele>
        <time>2019-07-31T11:22:18.124Z</time>
      </trkpt>
      <trkpt lat="42.98589167" lon="-1.218655">
        <ele>735.0</ele>
        <time>2019-07-31T11:22:19.130Z</time>
      </trkpt>
      <trkpt lat="42.98590167" lon="-1.21863667">
        <ele>735.0</ele>
        <time>2019-07-31T11:22:20.137Z</time>
      </trkpt>
      <trkpt lat="42.98591" lon="-1.21861833">
        <ele>735.0</ele>
        <time>2019-07-31T11:22:21.143Z</time>
      </trkpt>
      <trkpt lat="42.98591667" lon="-1.2186">
        <ele>735.0</ele>
        <time>2019-07-31T11:22:22.148Z</time>
      </trkpt>
      <trkpt lat="42.98592167" lon="-1.21858">
        <ele>735.0</ele>
        <time>2019-07-31T11:22:23.153Z</time>
      </trkpt>
      <trkpt lat="42.98593" lon="-1.21856">
        <ele>735.0</ele>
        <time>2019-07-31T11:22:24.158Z</time>
      </trkpt>
      <trkpt lat="42.98593833" lon="-1.21853667">
        <ele>734.0</ele>
        <time>2019-07-31T11:22:25.161Z</time>
      </trkpt>
      <trkpt lat="42.98594667" lon="-1.218515">
        <ele>734.0</ele>
        <time>2019-07-31T11:22:26.168Z</time>
      </trkpt>
      <trkpt lat="42.985955" lon="-1.21849167">
        <ele>734.0</ele>
        <time>2019-07-31T11:22:27.173Z</time>
      </trkpt>
      <trkpt lat="42.98596" lon="-1.21847">
        <ele>734.0</ele>
        <time>2019-07-31T11:22:28.178Z</time>
      </trkpt>
      <trkpt lat="42.985965" lon="-1.21844667">
        <ele>734.0</ele>
        <time>2019-07-31T11:22:29.182Z</time>
      </trkpt>
      <trkpt lat="42.98596833" lon="-1.21842833">
        <ele>734.0</ele>
        <time>2019-07-31T11:22:30.186Z</time>
      </trkpt>
      <trkpt lat="42.98597167" lon="-1.21840667">
        <ele>733.0</ele>
        <time>2019-07-31T11:22:31.066Z</time>
      </trkpt>
      <trkpt lat="42.98597667" lon="-1.21838667">
        <ele>733.0</ele>
        <time>2019-07-31T11:22:32.072Z</time>
      </trkpt>
      <trkpt lat="42.98598" lon="-1.21836333">
        <ele>733.0</ele>
        <time>2019-07-31T11:22:33.077Z</time>
      </trkpt>
      <trkpt lat="42.98598667" lon="-1.21834333">
        <ele>733.0</ele>
        <time>2019-07-31T11:22:34.083Z</time>
      </trkpt>
      <trkpt lat="42.98599167" lon="-1.21832333">
        <ele>733.0</ele>
        <time>2019-07-31T11:22:35.088Z</time>
      </trkpt>
      <trkpt lat="42.98599167" lon="-1.21830167">
        <ele>733.0</ele>
        <time>2019-07-31T11:22:36.093Z</time>
      </trkpt>
      <trkpt lat="42.98599333" lon="-1.21828">
        <ele>733.0</ele>
        <time>2019-07-31T11:22:37.098Z</time>
      </trkpt>
      <trkpt lat="42.98599667" lon="-1.21825833">
        <ele>733.0</ele>
        <time>2019-07-31T11:22:38.103Z</time>
      </trkpt>
      <trkpt lat="42.986" lon="-1.21823667">
        <ele>733.0</ele>
        <time>2019-07-31T11:22:39.109Z</time>
      </trkpt>
      <trkpt lat="42.986" lon="-1.218215">
        <ele>733.0</ele>
        <time>2019-07-31T11:22:40.116Z</time>
      </trkpt>
      <trkpt lat="42.986005" lon="-1.21819333">
        <ele>733.0</ele>
        <time>2019-07-31T11:22:41.121Z</time>
      </trkpt>
      <trkpt lat="42.98601" lon="-1.21817333">
        <ele>733.0</ele>
        <time>2019-07-31T11:22:42.127Z</time>
      </trkpt>
      <trkpt lat="42.98601333" lon="-1.21815">
        <ele>733.0</ele>
        <time>2019-07-31T11:22:43.132Z</time>
      </trkpt>
      <trkpt lat="42.986015" lon="-1.21812667">
        <ele>733.0</ele>
        <time>2019-07-31T11:22:44.136Z</time>
      </trkpt>
      <trkpt lat="42.98601833" lon="-1.21810333">
        <ele>734.0</ele>
        <time>2019-07-31T11:22:45.141Z</time>
      </trkpt>
      <trkpt lat="42.98602333" lon="-1.21808167">
        <ele>734.0</ele>
        <time>2019-07-31T11:22:46.146Z</time>
      </trkpt>
      <trkpt lat="42.986025" lon="-1.21805833">
        <ele>734.0</ele>
        <time>2019-07-31T11:22:47.151Z</time>
      </trkpt>
      <trkpt lat="42.98602667" lon="-1.21803833">
        <ele>734.0</ele>
        <time>2019-07-31T11:22:48.156Z</time>
      </trkpt>
      <trkpt lat="42.98602833" lon="-1.21801667">
        <ele>735.0</ele>
        <time>2019-07-31T11:22:49.160Z</time>
      </trkpt>
      <trkpt lat="42.98603" lon="-1.21799833">
        <ele>735.0</ele>
        <time>2019-07-31T11:22:50.168Z</time>
      </trkpt>
      <trkpt lat="42.98603167" lon="-1.21797667">
        <ele>735.0</ele>
        <time>2019-07-31T11:22:51.174Z</time>
      </trkpt>
      <trkpt lat="42.98603333" lon="-1.21795667">
        <ele>736.0</ele>
        <time>2019-07-31T11:22:52.178Z</time>
      </trkpt>
      <trkpt lat="42.98603333" lon="-1.217935">
        <ele>737.0</ele>
        <time>2019-07-31T11:22:53.184Z</time>
      </trkpt>
      <trkpt lat="42.986035" lon="-1.217915">
        <ele>737.0</ele>
        <time>2019-07-31T11:22:54.063Z</time>
      </trkpt>
      <trkpt lat="42.98603333" lon="-1.21789667">
        <ele>738.0</ele>
        <time>2019-07-31T11:22:55.068Z</time>
      </trkpt>
      <trkpt lat="42.98603" lon="-1.21787667">
        <ele>738.0</ele>
        <time>2019-07-31T11:22:56.072Z</time>
      </trkpt>
      <trkpt lat="42.986025" lon="-1.21785667">
        <ele>739.0</ele>
        <time>2019-07-31T11:22:57.078Z</time>
      </trkpt>
      <trkpt lat="42.98602" lon="-1.21784333">
        <ele>740.0</ele>
        <time>2019-07-31T11:22:58.085Z</time>
      </trkpt>
      <trkpt lat="42.98601667" lon="-1.217825">
        <ele>740.0</ele>
        <time>2019-07-31T11:22:59.091Z</time>
      </trkpt>
      <trkpt lat="42.98601333" lon="-1.21780833">
        <ele>741.0</ele>
        <time>2019-07-31T11:23:00.096Z</time>
      </trkpt>
      <trkpt lat="42.98601167" lon="-1.21779">
        <ele>741.0</ele>
        <time>2019-07-31T11:23:01.101Z</time>
      </trkpt>
      <trkpt lat="42.98601167" lon="-1.21777167">
        <ele>741.0</ele>
        <time>2019-07-31T11:23:02.106Z</time>
      </trkpt>
      <trkpt lat="42.98601667" lon="-1.21775">
        <ele>741.0</ele>
        <time>2019-07-31T11:23:03.110Z</time>
      </trkpt>
      <trkpt lat="42.98601833" lon="-1.21772833">
        <ele>741.0</ele>
        <time>2019-07-31T11:23:04.113Z</time>
      </trkpt>
      <trkpt lat="42.98601833" lon="-1.21770667">
        <ele>741.0</ele>
        <time>2019-07-31T11:23:05.117Z</time>
      </trkpt>
      <trkpt lat="42.98601833" lon="-1.21768333">
        <ele>741.0</ele>
        <time>2019-07-31T11:23:06.122Z</time>
      </trkpt>
      <trkpt lat="42.98602333" lon="-1.217665">
        <ele>741.0</ele>
        <time>2019-07-31T11:23:07.127Z</time>
      </trkpt>
      <trkpt lat="42.98602667" lon="-1.217645">
        <ele>740.0</ele>
        <time>2019-07-31T11:23:08.131Z</time>
      </trkpt>
      <trkpt lat="42.98603" lon="-1.21762167">
        <ele>740.0</ele>
        <time>2019-07-31T11:23:09.133Z</time>
      </trkpt>
      <trkpt lat="42.98603333" lon="-1.21760167">
        <ele>740.0</ele>
        <time>2019-07-31T11:23:10.140Z</time>
      </trkpt>
      <trkpt lat="42.98604" lon="-1.21758167">
        <ele>739.0</ele>
        <time>2019-07-31T11:23:11.147Z</time>
      </trkpt>
      <trkpt lat="42.986045" lon="-1.21755833">
        <ele>739.0</ele>
        <time>2019-07-31T11:23:12.153Z</time>
      </trkpt>
      <trkpt lat="42.98605167" lon="-1.21753833">
        <ele>739.0</ele>
        <time>2019-07-31T11:23:13.157Z</time>
      </trkpt>
      <trkpt lat="42.98606" lon="-1.21751833">
        <ele>739.0</ele>
        <time>2019-07-31T11:23:14.162Z</time>
      </trkpt>
      <trkpt lat="42.98606833" lon="-1.21749833">
        <ele>739.0</ele>
        <time>2019-07-31T11:23:15.167Z</time>
      </trkpt>
      <trkpt lat="42.986075" lon="-1.21747833">
        <ele>739.0</ele>
        <time>2019-07-31T11:23:16.171Z</time>
      </trkpt>
      <trkpt lat="42.986085" lon="-1.217455">
        <ele>739.0</ele>
        <time>2019-07-31T11:23:17.175Z</time>
      </trkpt>
      <trkpt lat="42.98609333" lon="-1.21743167">
        <ele>739.0</ele>
        <time>2019-07-31T11:23:18.181Z</time>
      </trkpt>
      <trkpt lat="42.98610167" lon="-1.21741">
        <ele>739.0</ele>
        <time>2019-07-31T11:23:19.061Z</time>
      </trkpt>
      <trkpt lat="42.98610667" lon="-1.21739">
        <ele>739.0</ele>
        <time>2019-07-31T11:23:20.067Z</time>
      </trkpt>
      <trkpt lat="42.98610833" lon="-1.217365">
        <ele>740.0</ele>
        <time>2019-07-31T11:23:21.074Z</time>
      </trkpt>
      <trkpt lat="42.98611333" lon="-1.21734">
        <ele>739.0</ele>
        <time>2019-07-31T11:23:22.078Z</time>
      </trkpt>
      <trkpt lat="42.98611667" lon="-1.21731833">
        <ele>740.0</ele>
        <time>2019-07-31T11:23:23.085Z</time>
      </trkpt>
      <trkpt lat="42.98612" lon="-1.21729333">
        <ele>740.0</ele>
        <time>2019-07-31T11:23:24.090Z</time>
      </trkpt>
      <trkpt lat="42.98611833" lon="-1.217275">
        <ele>741.0</ele>
        <time>2019-07-31T11:23:25.096Z</time>
      </trkpt>
      <trkpt lat="42.98612667" lon="-1.21725833">
        <ele>741.0</ele>
        <time>2019-07-31T11:23:26.101Z</time>
      </trkpt>
      <trkpt lat="42.98613167" lon="-1.21723833">
        <ele>742.0</ele>
        <time>2019-07-31T11:23:27.107Z</time>
      </trkpt>
      <trkpt lat="42.98613833" lon="-1.217215">
        <ele>741.0</ele>
        <time>2019-07-31T11:23:28.114Z</time>
      </trkpt>
      <trkpt lat="42.98614333" lon="-1.21719667">
        <ele>741.0</ele>
        <time>2019-07-31T11:23:29.119Z</time>
      </trkpt>
      <trkpt lat="42.986145" lon="-1.21717833">
        <ele>741.0</ele>
        <time>2019-07-31T11:23:30.124Z</time>
      </trkpt>
      <trkpt lat="42.986145" lon="-1.21716">
        <ele>741.0</ele>
        <time>2019-07-31T11:23:31.131Z</time>
      </trkpt>
      <trkpt lat="42.986145" lon="-1.21714167">
        <ele>742.0</ele>
        <time>2019-07-31T11:23:32.138Z</time>
      </trkpt>
      <trkpt lat="42.98614667" lon="-1.21712167">
        <ele>742.0</ele>
        <time>2019-07-31T11:23:33.143Z</time>
      </trkpt>
      <trkpt lat="42.98615" lon="-1.2171">
        <ele>741.0</ele>
        <time>2019-07-31T11:23:34.147Z</time>
      </trkpt>
      <trkpt lat="42.98615167" lon="-1.21708167">
        <ele>741.0</ele>
        <time>2019-07-31T11:23:35.154Z</time>
      </trkpt>
      <trkpt lat="42.98615333" lon="-1.217065">
        <ele>741.0</ele>
        <time>2019-07-31T11:23:36.159Z</time>
      </trkpt>
      <trkpt lat="42.986155" lon="-1.21704833">
        <ele>742.0</ele>
        <time>2019-07-31T11:23:37.163Z</time>
      </trkpt>
      <trkpt lat="42.98615667" lon="-1.217025">
        <ele>742.0</ele>
        <time>2019-07-31T11:23:38.166Z</time>
      </trkpt>
      <trkpt lat="42.98615833" lon="-1.21700333">
        <ele>742.0</ele>
        <time>2019-07-31T11:23:39.172Z</time>
      </trkpt>
      <trkpt lat="42.98616" lon="-1.21698333">
        <ele>742.0</ele>
        <time>2019-07-31T11:23:40.178Z</time>
      </trkpt>
      <trkpt lat="42.98616" lon="-1.21696667">
        <ele>743.0</ele>
        <time>2019-07-31T11:23:41.183Z</time>
      </trkpt>
      <trkpt lat="42.98616167" lon="-1.216945">
        <ele>744.0</ele>
        <time>2019-07-31T11:23:42.062Z</time>
      </trkpt>
      <trkpt lat="42.98616333" lon="-1.21692833">
        <ele>744.0</ele>
        <time>2019-07-31T11:23:43.068Z</time>
      </trkpt>
      <trkpt lat="42.986165" lon="-1.21691">
        <ele>744.0</ele>
        <time>2019-07-31T11:23:44.073Z</time>
      </trkpt>
      <trkpt lat="42.98616667" lon="-1.21689">
        <ele>745.0</ele>
        <time>2019-07-31T11:23:45.077Z</time>
      </trkpt>
      <trkpt lat="42.98617" lon="-1.21687167">
        <ele>746.0</ele>
        <time>2019-07-31T11:23:46.084Z</time>
      </trkpt>
      <trkpt lat="42.986175" lon="-1.21685167">
        <ele>747.0</ele>
        <time>2019-07-31T11:23:47.089Z</time>
      </trkpt>
      <trkpt lat="42.98617667" lon="-1.216835">
        <ele>748.0</ele>
        <time>2019-07-31T11:23:48.093Z</time>
      </trkpt>
      <trkpt lat="42.98617667" lon="-1.216815">
        <ele>749.0</ele>
        <time>2019-07-31T11:23:49.099Z</time>
      </trkpt>
      <trkpt lat="42.98617833" lon="-1.21679667">
        <ele>749.0</ele>
        <time>2019-07-31T11:23:50.106Z</time>
      </trkpt>
      <trkpt lat="42.98618" lon="-1.21677667">
        <ele>749.0</ele>
        <time>2019-07-31T11:23:51.113Z</time>
      </trkpt>
      <trkpt lat="42.98618" lon="-1.216755">
        <ele>750.0</ele>
        <time>2019-07-31T11:23:52.118Z</time>
      </trkpt>
      <trkpt lat="42.98618167" lon="-1.216735">
        <ele>750.0</ele>
        <time>2019-07-31T11:23:53.125Z</time>
      </trkpt>
      <trkpt lat="42.98618167" lon="-1.21671167">
        <ele>751.0</ele>
        <time>2019-07-31T11:23:54.131Z</time>
      </trkpt>
      <trkpt lat="42.98618167" lon="-1.21669333">
        <ele>751.0</ele>
        <time>2019-07-31T11:23:55.137Z</time>
      </trkpt>
      <trkpt lat="42.98617833" lon="-1.21666833">
        <ele>751.0</ele>
        <time>2019-07-31T11:23:56.144Z</time>
      </trkpt>
      <trkpt lat="42.98617167" lon="-1.21664833">
        <ele>752.0</ele>
        <time>2019-07-31T11:23:57.150Z</time>
      </trkpt>
      <trkpt lat="42.98616833" lon="-1.21662833">
        <ele>752.0</ele>
        <time>2019-07-31T11:23:58.152Z</time>
      </trkpt>
      <trkpt lat="42.98616833" lon="-1.216605">
        <ele>752.0</ele>
        <time>2019-07-31T11:23:59.155Z</time>
      </trkpt>
      <trkpt lat="42.98616833" lon="-1.21657833">
        <ele>752.0</ele>
        <time>2019-07-31T11:24:00.160Z</time>
      </trkpt>
      <trkpt lat="42.98617" lon="-1.21655833">
        <ele>753.0</ele>
        <time>2019-07-31T11:24:01.164Z</time>
      </trkpt>
      <trkpt lat="42.98617167" lon="-1.21653833">
        <ele>753.0</ele>
        <time>2019-07-31T11:24:02.170Z</time>
      </trkpt>
      <trkpt lat="42.98617333" lon="-1.21651333">
        <ele>753.0</ele>
        <time>2019-07-31T11:24:03.174Z</time>
      </trkpt>
      <trkpt lat="42.98617667" lon="-1.21649">
        <ele>752.0</ele>
        <time>2019-07-31T11:24:04.178Z</time>
      </trkpt>
      <trkpt lat="42.98617833" lon="-1.216475">
        <ele>751.0</ele>
        <time>2019-07-31T11:24:05.184Z</time>
      </trkpt>
      <trkpt lat="42.98618167" lon="-1.21645333">
        <ele>751.0</ele>
        <time>2019-07-31T11:24:06.062Z</time>
      </trkpt>
      <trkpt lat="42.986185" lon="-1.21642833">
        <ele>751.0</ele>
        <time>2019-07-31T11:24:07.068Z</time>
      </trkpt>
      <trkpt lat="42.986185" lon="-1.21640167">
        <ele>751.0</ele>
        <time>2019-07-31T11:24:08.072Z</time>
      </trkpt>
      <trkpt lat="42.986185" lon="-1.21637833">
        <ele>751.0</ele>
        <time>2019-07-31T11:24:09.075Z</time>
      </trkpt>
      <trkpt lat="42.98618833" lon="-1.216355">
        <ele>751.0</ele>
        <time>2019-07-31T11:24:10.082Z</time>
      </trkpt>
      <trkpt lat="42.98619" lon="-1.21633333">
        <ele>751.0</ele>
        <time>2019-07-31T11:24:11.089Z</time>
      </trkpt>
      <trkpt lat="42.98619333" lon="-1.21631333">
        <ele>751.0</ele>
        <time>2019-07-31T11:24:12.094Z</time>
      </trkpt>
      <trkpt lat="42.9862" lon="-1.216285">
        <ele>750.0</ele>
        <time>2019-07-31T11:24:13.101Z</time>
      </trkpt>
      <trkpt lat="42.98620167" lon="-1.216255">
        <ele>749.0</ele>
        <time>2019-07-31T11:24:14.106Z</time>
      </trkpt>
      <trkpt lat="42.98619833" lon="-1.21622167">
        <ele>749.0</ele>
        <time>2019-07-31T11:24:15.113Z</time>
      </trkpt>
      <trkpt lat="42.9862" lon="-1.21619833">
        <ele>748.0</ele>
        <time>2019-07-31T11:24:16.117Z</time>
      </trkpt>
      <trkpt lat="42.98620333" lon="-1.21617167">
        <ele>749.0</ele>
        <time>2019-07-31T11:24:17.123Z</time>
      </trkpt>
      <trkpt lat="42.986205" lon="-1.21614833">
        <ele>749.0</ele>
        <time>2019-07-31T11:24:18.128Z</time>
      </trkpt>
      <trkpt lat="42.986205" lon="-1.21612667">
        <ele>749.0</ele>
        <time>2019-07-31T11:24:19.133Z</time>
      </trkpt>
      <trkpt lat="42.98620667" lon="-1.21610333">
        <ele>748.0</ele>
        <time>2019-07-31T11:24:20.138Z</time>
      </trkpt>
      <trkpt lat="42.98620667" lon="-1.216085">
        <ele>748.0</ele>
        <time>2019-07-31T11:24:21.143Z</time>
      </trkpt>
      <trkpt lat="42.98621167" lon="-1.216065">
        <ele>748.0</ele>
        <time>2019-07-31T11:24:22.149Z</time>
      </trkpt>
      <trkpt lat="42.98621667" lon="-1.216045">
        <ele>747.0</ele>
        <time>2019-07-31T11:24:23.154Z</time>
      </trkpt>
      <trkpt lat="42.98622" lon="-1.216025">
        <ele>747.0</ele>
        <time>2019-07-31T11:24:24.159Z</time>
      </trkpt>
      <trkpt lat="42.986225" lon="-1.21600333">
        <ele>747.0</ele>
        <time>2019-07-31T11:24:25.163Z</time>
      </trkpt>
      <trkpt lat="42.98622833" lon="-1.21598333">
        <ele>747.0</ele>
        <time>2019-07-31T11:24:26.168Z</time>
      </trkpt>
      <trkpt lat="42.98623167" lon="-1.21596167">
        <ele>747.0</ele>
        <time>2019-07-31T11:24:27.172Z</time>
      </trkpt>
      <trkpt lat="42.98623667" lon="-1.21594">
        <ele>747.0</ele>
        <time>2019-07-31T11:24:28.176Z</time>
      </trkpt>
      <trkpt lat="42.98624167" lon="-1.21591667">
        <ele>747.0</ele>
        <time>2019-07-31T11:24:29.181Z</time>
      </trkpt>
      <trkpt lat="42.986245" lon="-1.21589167">
        <ele>747.0</ele>
        <time>2019-07-31T11:24:30.186Z</time>
      </trkpt>
      <trkpt lat="42.98625" lon="-1.21587">
        <ele>747.0</ele>
        <time>2019-07-31T11:24:31.065Z</time>
      </trkpt>
      <trkpt lat="42.986255" lon="-1.21584833">
        <ele>747.0</ele>
        <time>2019-07-31T11:24:32.070Z</time>
      </trkpt>
      <trkpt lat="42.98626167" lon="-1.21582833">
        <ele>747.0</ele>
        <time>2019-07-31T11:24:33.076Z</time>
      </trkpt>
      <trkpt lat="42.986265" lon="-1.215805">
        <ele>747.0</ele>
        <time>2019-07-31T11:24:34.082Z</time>
      </trkpt>
      <trkpt lat="42.98626833" lon="-1.21578333">
        <ele>748.0</ele>
        <time>2019-07-31T11:24:35.089Z</time>
      </trkpt>
      <trkpt lat="42.98627167" lon="-1.215765">
        <ele>748.0</ele>
        <time>2019-07-31T11:24:36.094Z</time>
      </trkpt>
      <trkpt lat="42.98627333" lon="-1.215745">
        <ele>748.0</ele>
        <time>2019-07-31T11:24:37.099Z</time>
      </trkpt>
      <trkpt lat="42.98627833" lon="-1.21572167">
        <ele>747.0</ele>
        <time>2019-07-31T11:24:38.103Z</time>
      </trkpt>
      <trkpt lat="42.98628333" lon="-1.2157">
        <ele>748.0</ele>
        <time>2019-07-31T11:24:39.107Z</time>
      </trkpt>
      <trkpt lat="42.98628833" lon="-1.21567667">
        <ele>748.0</ele>
        <time>2019-07-31T11:24:40.108Z</time>
      </trkpt>
      <trkpt lat="42.98629333" lon="-1.21565333">
        <ele>747.0</ele>
        <time>2019-07-31T11:24:41.110Z</time>
      </trkpt>
      <trkpt lat="42.986295" lon="-1.21563167">
        <ele>748.0</ele>
        <time>2019-07-31T11:24:42.112Z</time>
      </trkpt>
      <trkpt lat="42.9863" lon="-1.21561167">
        <ele>748.0</ele>
        <time>2019-07-31T11:24:43.117Z</time>
      </trkpt>
      <trkpt lat="42.98630333" lon="-1.21559">
        <ele>748.0</ele>
        <time>2019-07-31T11:24:44.121Z</time>
      </trkpt>
      <trkpt lat="42.98630833" lon="-1.21557167">
        <ele>748.0</ele>
        <time>2019-07-31T11:24:45.127Z</time>
      </trkpt>
      <trkpt lat="42.98631167" lon="-1.21555167">
        <ele>748.0</ele>
        <time>2019-07-31T11:24:46.133Z</time>
      </trkpt>
      <trkpt lat="42.986315" lon="-1.21553">
        <ele>748.0</ele>
        <time>2019-07-31T11:24:47.137Z</time>
      </trkpt>
      <trkpt lat="42.98631833" lon="-1.21551333">
        <ele>749.0</ele>
        <time>2019-07-31T11:24:48.141Z</time>
      </trkpt>
      <trkpt lat="42.98632" lon="-1.21549333">
        <ele>749.0</ele>
        <time>2019-07-31T11:24:49.145Z</time>
      </trkpt>
      <trkpt lat="42.98632333" lon="-1.21547167">
        <ele>749.0</ele>
        <time>2019-07-31T11:24:50.148Z</time>
      </trkpt>
      <trkpt lat="42.986325" lon="-1.21545">
        <ele>749.0</ele>
        <time>2019-07-31T11:24:51.153Z</time>
      </trkpt>
      <trkpt lat="42.98632833" lon="-1.21542833">
        <ele>750.0</ele>
        <time>2019-07-31T11:24:52.157Z</time>
      </trkpt>
      <trkpt lat="42.98633" lon="-1.21540333">
        <ele>750.0</ele>
        <time>2019-07-31T11:24:53.161Z</time>
      </trkpt>
      <trkpt lat="42.98633333" lon="-1.21538667">
        <ele>750.0</ele>
        <time>2019-07-31T11:24:54.166Z</time>
      </trkpt>
      <trkpt lat="42.98633833" lon="-1.21536667">
        <ele>750.0</ele>
        <time>2019-07-31T11:24:55.171Z</time>
      </trkpt>
      <trkpt lat="42.98634667" lon="-1.21534333">
        <ele>750.0</ele>
        <time>2019-07-31T11:24:56.177Z</time>
      </trkpt>
      <trkpt lat="42.98635167" lon="-1.21532333">
        <ele>750.0</ele>
        <time>2019-07-31T11:24:57.184Z</time>
      </trkpt>
      <trkpt lat="42.986355" lon="-1.21529833">
        <ele>750.0</ele>
        <time>2019-07-31T11:24:58.063Z</time>
      </trkpt>
      <trkpt lat="42.986355" lon="-1.21528">
        <ele>751.0</ele>
        <time>2019-07-31T11:24:59.069Z</time>
      </trkpt>
      <trkpt lat="42.98635667" lon="-1.21526167">
        <ele>750.0</ele>
        <time>2019-07-31T11:25:00.076Z</time>
      </trkpt>
      <trkpt lat="42.98635833" lon="-1.21524">
        <ele>750.0</ele>
        <time>2019-07-31T11:25:01.081Z</time>
      </trkpt>
      <trkpt lat="42.98636167" lon="-1.21522333">
        <ele>751.0</ele>
        <time>2019-07-31T11:25:02.085Z</time>
      </trkpt>
      <trkpt lat="42.98636667" lon="-1.21520667">
        <ele>751.0</ele>
        <time>2019-07-31T11:25:03.089Z</time>
      </trkpt>
      <trkpt lat="42.98637" lon="-1.21519">
        <ele>751.0</ele>
        <time>2019-07-31T11:25:04.096Z</time>
      </trkpt>
      <trkpt lat="42.98637167" lon="-1.21517167">
        <ele>751.0</ele>
        <time>2019-07-31T11:25:05.103Z</time>
      </trkpt>
      <trkpt lat="42.98637167" lon="-1.21515">
        <ele>751.0</ele>
        <time>2019-07-31T11:25:06.109Z</time>
      </trkpt>
      <trkpt lat="42.98637333" lon="-1.21512833">
        <ele>751.0</ele>
        <time>2019-07-31T11:25:07.115Z</time>
      </trkpt>
      <trkpt lat="42.98637167" lon="-1.21510833">
        <ele>751.0</ele>
        <time>2019-07-31T11:25:08.119Z</time>
      </trkpt>
      <trkpt lat="42.98637167" lon="-1.215085">
        <ele>751.0</ele>
        <time>2019-07-31T11:25:09.125Z</time>
      </trkpt>
      <trkpt lat="42.986375" lon="-1.21506333">
        <ele>751.0</ele>
        <time>2019-07-31T11:25:10.131Z</time>
      </trkpt>
      <trkpt lat="42.98637667" lon="-1.21504333">
        <ele>751.0</ele>
        <time>2019-07-31T11:25:11.136Z</time>
      </trkpt>
      <trkpt lat="42.98637833" lon="-1.215025">
        <ele>752.0</ele>
        <time>2019-07-31T11:25:12.141Z</time>
      </trkpt>
      <trkpt lat="42.98638" lon="-1.215005">
        <ele>752.0</ele>
        <time>2019-07-31T11:25:13.147Z</time>
      </trkpt>
      <trkpt lat="42.98638167" lon="-1.21498667">
        <ele>753.0</ele>
        <time>2019-07-31T11:25:14.153Z</time>
      </trkpt>
      <trkpt lat="42.986385" lon="-1.214965">
        <ele>753.0</ele>
        <time>2019-07-31T11:25:15.158Z</time>
      </trkpt>
      <trkpt lat="42.98638667" lon="-1.21494333">
        <ele>753.0</ele>
        <time>2019-07-31T11:25:16.163Z</time>
      </trkpt>
      <trkpt lat="42.98639" lon="-1.21491833">
        <ele>752.0</ele>
        <time>2019-07-31T11:25:17.169Z</time>
      </trkpt>
      <trkpt lat="42.98639333" lon="-1.21489333">
        <ele>752.0</ele>
        <time>2019-07-31T11:25:18.173Z</time>
      </trkpt>
      <trkpt lat="42.98639333" lon="-1.21487333">
        <ele>752.0</ele>
        <time>2019-07-31T11:25:19.180Z</time>
      </trkpt>
      <trkpt lat="42.98639667" lon="-1.21485">
        <ele>753.0</ele>
        <time>2019-07-31T11:25:20.185Z</time>
      </trkpt>
      <trkpt lat="42.98639833" lon="-1.21482833">
        <ele>753.0</ele>
        <time>2019-07-31T11:25:21.065Z</time>
      </trkpt>
      <trkpt lat="42.98640167" lon="-1.214805">
        <ele>753.0</ele>
        <time>2019-07-31T11:25:22.070Z</time>
      </trkpt>
      <trkpt lat="42.98640167" lon="-1.21478333">
        <ele>754.0</ele>
        <time>2019-07-31T11:25:23.076Z</time>
      </trkpt>
      <trkpt lat="42.98640333" lon="-1.21476167">
        <ele>754.0</ele>
        <time>2019-07-31T11:25:24.082Z</time>
      </trkpt>
      <trkpt lat="42.98640333" lon="-1.214745">
        <ele>754.0</ele>
        <time>2019-07-31T11:25:25.089Z</time>
      </trkpt>
      <trkpt lat="42.98640667" lon="-1.214725">
        <ele>754.0</ele>
        <time>2019-07-31T11:25:26.094Z</time>
      </trkpt>
      <trkpt lat="42.98641167" lon="-1.21470667">
        <ele>754.0</ele>
        <time>2019-07-31T11:25:27.101Z</time>
      </trkpt>
      <trkpt lat="42.98641333" lon="-1.214685">
        <ele>753.0</ele>
        <time>2019-07-31T11:25:28.105Z</time>
      </trkpt>
      <trkpt lat="42.98641833" lon="-1.21465833">
        <ele>752.0</ele>
        <time>2019-07-31T11:25:29.113Z</time>
      </trkpt>
      <trkpt lat="42.98642" lon="-1.21463333">
        <ele>752.0</ele>
        <time>2019-07-31T11:25:30.118Z</time>
      </trkpt>
      <trkpt lat="42.98642167" lon="-1.214605">
        <ele>752.0</ele>
        <time>2019-07-31T11:25:31.125Z</time>
      </trkpt>
      <trkpt lat="42.98642" lon="-1.21458167">
        <ele>752.0</ele>
        <time>2019-07-31T11:25:32.130Z</time>
      </trkpt>
      <trkpt lat="42.98642167" lon="-1.21455667">
        <ele>752.0</ele>
        <time>2019-07-31T11:25:33.136Z</time>
      </trkpt>
      <trkpt lat="42.98642167" lon="-1.21453333">
        <ele>753.0</ele>
        <time>2019-07-31T11:25:34.143Z</time>
      </trkpt>
      <trkpt lat="42.986425" lon="-1.21451833">
        <ele>752.0</ele>
        <time>2019-07-31T11:25:35.149Z</time>
      </trkpt>
      <trkpt lat="42.98642667" lon="-1.21449667">
        <ele>752.0</ele>
        <time>2019-07-31T11:25:36.154Z</time>
      </trkpt>
      <trkpt lat="42.98643" lon="-1.21447167">
        <ele>752.0</ele>
        <time>2019-07-31T11:25:37.159Z</time>
      </trkpt>
      <trkpt lat="42.986435" lon="-1.21444167">
        <ele>753.0</ele>
        <time>2019-07-31T11:25:38.165Z</time>
      </trkpt>
      <trkpt lat="42.98644" lon="-1.21440833">
        <ele>753.0</ele>
        <time>2019-07-31T11:25:39.171Z</time>
      </trkpt>
      <trkpt lat="42.986445" lon="-1.21437833">
        <ele>752.0</ele>
        <time>2019-07-31T11:25:40.174Z</time>
      </trkpt>
      <trkpt lat="42.98644833" lon="-1.21435167">
        <ele>752.0</ele>
        <time>2019-07-31T11:25:41.178Z</time>
      </trkpt>
      <trkpt lat="42.98645167" lon="-1.214335">
        <ele>752.0</ele>
        <time>2019-07-31T11:25:42.183Z</time>
      </trkpt>
      <trkpt lat="42.98646167" lon="-1.21431">
        <ele>753.0</ele>
        <time>2019-07-31T11:25:43.063Z</time>
      </trkpt>
      <trkpt lat="42.98646333" lon="-1.21428">
        <ele>753.0</ele>
        <time>2019-07-31T11:25:44.068Z</time>
      </trkpt>
      <trkpt lat="42.98646333" lon="-1.214265">
        <ele>753.0</ele>
        <time>2019-07-31T11:25:45.074Z</time>
      </trkpt>
      <trkpt lat="42.98646167" lon="-1.214245">
        <ele>753.0</ele>
        <time>2019-07-31T11:25:46.078Z</time>
      </trkpt>
      <trkpt lat="42.98645833" lon="-1.21423">
        <ele>753.0</ele>
        <time>2019-07-31T11:25:47.084Z</time>
      </trkpt>
      <trkpt lat="42.98646" lon="-1.214215">
        <ele>753.0</ele>
        <time>2019-07-31T11:25:48.088Z</time>
      </trkpt>
      <trkpt lat="42.98646167" lon="-1.21419833">
        <ele>753.0</ele>
        <time>2019-07-31T11:25:49.092Z</time>
      </trkpt>
      <trkpt lat="42.98646333" lon="-1.21418167">
        <ele>753.0</ele>
        <time>2019-07-31T11:25:50.097Z</time>
      </trkpt>
      <trkpt lat="42.98646333" lon="-1.21416167">
        <ele>753.0</ele>
        <time>2019-07-31T11:25:51.103Z</time>
      </trkpt>
      <trkpt lat="42.986465" lon="-1.21414">
        <ele>754.0</ele>
        <time>2019-07-31T11:25:52.109Z</time>
      </trkpt>
      <trkpt lat="42.98646333" lon="-1.21412667">
        <ele>754.0</ele>
        <time>2019-07-31T11:25:53.112Z</time>
      </trkpt>
      <trkpt lat="42.98646333" lon="-1.21411333">
        <ele>755.0</ele>
        <time>2019-07-31T11:25:54.115Z</time>
      </trkpt>
      <trkpt lat="42.98646167" lon="-1.21409667">
        <ele>755.0</ele>
        <time>2019-07-31T11:25:55.118Z</time>
      </trkpt>
      <trkpt lat="42.98645833" lon="-1.21407833">
        <ele>755.0</ele>
        <time>2019-07-31T11:25:56.124Z</time>
      </trkpt>
      <trkpt lat="42.98645833" lon="-1.21406">
        <ele>756.0</ele>
        <time>2019-07-31T11:25:57.130Z</time>
      </trkpt>
      <trkpt lat="42.98645833" lon="-1.21404167">
        <ele>757.0</ele>
        <time>2019-07-31T11:25:58.135Z</time>
      </trkpt>
      <trkpt lat="42.98645833" lon="-1.214025">
        <ele>757.0</ele>
        <time>2019-07-31T11:25:59.143Z</time>
      </trkpt>
      <trkpt lat="42.98645833" lon="-1.21400167">
        <ele>758.0</ele>
        <time>2019-07-31T11:26:00.147Z</time>
      </trkpt>
      <trkpt lat="42.98645833" lon="-1.213985">
        <ele>759.0</ele>
        <time>2019-07-31T11:26:01.151Z</time>
      </trkpt>
      <trkpt lat="42.98646167" lon="-1.213965">
        <ele>759.0</ele>
        <time>2019-07-31T11:26:02.158Z</time>
      </trkpt>
      <trkpt lat="42.986465" lon="-1.21394667">
        <ele>760.0</ele>
        <time>2019-07-31T11:26:03.163Z</time>
      </trkpt>
      <trkpt lat="42.98647" lon="-1.21392667">
        <ele>760.0</ele>
        <time>2019-07-31T11:26:04.168Z</time>
      </trkpt>
      <trkpt lat="42.98646833" lon="-1.21390667">
        <ele>760.0</ele>
        <time>2019-07-31T11:26:05.175Z</time>
      </trkpt>
      <trkpt lat="42.98646667" lon="-1.21389">
        <ele>760.0</ele>
        <time>2019-07-31T11:26:06.179Z</time>
      </trkpt>
      <trkpt lat="42.986465" lon="-1.21386667">
        <ele>761.0</ele>
        <time>2019-07-31T11:26:07.185Z</time>
      </trkpt>
      <trkpt lat="42.98646333" lon="-1.213855">
        <ele>761.0</ele>
        <time>2019-07-31T11:26:08.066Z</time>
      </trkpt>
      <trkpt lat="42.986465" lon="-1.213835">
        <ele>761.0</ele>
        <time>2019-07-31T11:26:09.073Z</time>
      </trkpt>
      <trkpt lat="42.98646667" lon="-1.21381167">
        <ele>761.0</ele>
        <time>2019-07-31T11:26:10.077Z</time>
      </trkpt>
      <trkpt lat="42.98647167" lon="-1.21379333">
        <ele>762.0</ele>
        <time>2019-07-31T11:26:11.081Z</time>
      </trkpt>
      <trkpt lat="42.98647333" lon="-1.21377">
        <ele>763.0</ele>
        <time>2019-07-31T11:26:12.085Z</time>
      </trkpt>
      <trkpt lat="42.98647667" lon="-1.21375">
        <ele>763.0</ele>
        <time>2019-07-31T11:26:13.091Z</time>
      </trkpt>
      <trkpt lat="42.98647667" lon="-1.21373">
        <ele>764.0</ele>
        <time>2019-07-31T11:26:14.097Z</time>
      </trkpt>
      <trkpt lat="42.98648333" lon="-1.21370333">
        <ele>763.0</ele>
        <time>2019-07-31T11:26:15.102Z</time>
      </trkpt>
      <trkpt lat="42.986485" lon="-1.21367667">
        <ele>763.0</ele>
        <time>2019-07-31T11:26:16.109Z</time>
      </trkpt>
      <trkpt lat="42.98649" lon="-1.213655">
        <ele>763.0</ele>
        <time>2019-07-31T11:26:17.115Z</time>
      </trkpt>
      <trkpt lat="42.98649667" lon="-1.213625">
        <ele>762.0</ele>
        <time>2019-07-31T11:26:18.118Z</time>
      </trkpt>
      <trkpt lat="42.986505" lon="-1.21359833">
        <ele>761.0</ele>
        <time>2019-07-31T11:26:19.123Z</time>
      </trkpt>
      <trkpt lat="42.98651333" lon="-1.213575">
        <ele>760.0</ele>
        <time>2019-07-31T11:26:20.128Z</time>
      </trkpt>
      <trkpt lat="42.98652" lon="-1.21355167">
        <ele>759.0</ele>
        <time>2019-07-31T11:26:21.133Z</time>
      </trkpt>
      <trkpt lat="42.98652167" lon="-1.21353167">
        <ele>760.0</ele>
        <time>2019-07-31T11:26:22.136Z</time>
      </trkpt>
      <trkpt lat="42.98652333" lon="-1.21350333">
        <ele>760.0</ele>
        <time>2019-07-31T11:26:23.138Z</time>
      </trkpt>
      <trkpt lat="42.98652833" lon="-1.21348">
        <ele>761.0</ele>
        <time>2019-07-31T11:26:24.143Z</time>
      </trkpt>
      <trkpt lat="42.98653667" lon="-1.21346">
        <ele>762.0</ele>
        <time>2019-07-31T11:26:25.146Z</time>
      </trkpt>
      <trkpt lat="42.98654833" lon="-1.21343667">
        <ele>763.0</ele>
        <time>2019-07-31T11:26:26.151Z</time>
      </trkpt>
      <trkpt lat="42.986555" lon="-1.21341167">
        <ele>763.0</ele>
        <time>2019-07-31T11:26:27.158Z</time>
      </trkpt>
      <trkpt lat="42.986555" lon="-1.21338">
        <ele>763.0</ele>
        <time>2019-07-31T11:26:28.164Z</time>
      </trkpt>
      <trkpt lat="42.98654667" lon="-1.21335167">
        <ele>763.0</ele>
        <time>2019-07-31T11:26:29.169Z</time>
      </trkpt>
      <trkpt lat="42.98655167" lon="-1.21332167">
        <ele>763.0</ele>
        <time>2019-07-31T11:26:30.176Z</time>
      </trkpt>
      <trkpt lat="42.98656" lon="-1.21329833">
        <ele>763.0</ele>
        <time>2019-07-31T11:26:31.182Z</time>
      </trkpt>
      <trkpt lat="42.98656667" lon="-1.21327833">
        <ele>764.0</ele>
        <time>2019-07-31T11:26:32.061Z</time>
      </trkpt>
      <trkpt lat="42.98656833" lon="-1.21325667">
        <ele>764.0</ele>
        <time>2019-07-31T11:26:33.065Z</time>
      </trkpt>
      <trkpt lat="42.98656833" lon="-1.21322667">
        <ele>765.0</ele>
        <time>2019-07-31T11:26:34.072Z</time>
      </trkpt>
      <trkpt lat="42.986575" lon="-1.2132">
        <ele>766.0</ele>
        <time>2019-07-31T11:26:35.076Z</time>
      </trkpt>
      <trkpt lat="42.98658" lon="-1.21317833">
        <ele>767.0</ele>
        <time>2019-07-31T11:26:36.079Z</time>
      </trkpt>
      <trkpt lat="42.98658333" lon="-1.21315667">
        <ele>767.0</ele>
        <time>2019-07-31T11:26:37.085Z</time>
      </trkpt>
      <trkpt lat="42.986585" lon="-1.21313333">
        <ele>767.0</ele>
        <time>2019-07-31T11:26:38.091Z</time>
      </trkpt>
      <trkpt lat="42.98658667" lon="-1.21311">
        <ele>767.0</ele>
        <time>2019-07-31T11:26:39.097Z</time>
      </trkpt>
      <trkpt lat="42.98658667" lon="-1.21308833">
        <ele>766.0</ele>
        <time>2019-07-31T11:26:40.102Z</time>
      </trkpt>
      <trkpt lat="42.98658833" lon="-1.21306667">
        <ele>767.0</ele>
        <time>2019-07-31T11:26:41.108Z</time>
      </trkpt>
      <trkpt lat="42.98658833" lon="-1.213045">
        <ele>767.0</ele>
        <time>2019-07-31T11:26:42.111Z</time>
      </trkpt>
      <trkpt lat="42.98659" lon="-1.21302333">
        <ele>767.0</ele>
        <time>2019-07-31T11:26:43.117Z</time>
      </trkpt>
      <trkpt lat="42.98659" lon="-1.213">
        <ele>767.0</ele>
        <time>2019-07-31T11:26:44.125Z</time>
      </trkpt>
      <trkpt lat="42.98659333" lon="-1.21298">
        <ele>767.0</ele>
        <time>2019-07-31T11:26:45.132Z</time>
      </trkpt>
      <trkpt lat="42.986595" lon="-1.21295833">
        <ele>767.0</ele>
        <time>2019-07-31T11:26:46.136Z</time>
      </trkpt>
      <trkpt lat="42.98659833" lon="-1.21293667">
        <ele>767.0</ele>
        <time>2019-07-31T11:26:47.141Z</time>
      </trkpt>
      <trkpt lat="42.9866" lon="-1.212915">
        <ele>766.0</ele>
        <time>2019-07-31T11:26:48.148Z</time>
      </trkpt>
      <trkpt lat="42.986605" lon="-1.21289333">
        <ele>766.0</ele>
        <time>2019-07-31T11:26:49.154Z</time>
      </trkpt>
      <trkpt lat="42.98660833" lon="-1.21287167">
        <ele>766.0</ele>
        <time>2019-07-31T11:26:50.159Z</time>
      </trkpt>
      <trkpt lat="42.98661" lon="-1.21285167">
        <ele>766.0</ele>
        <time>2019-07-31T11:26:51.164Z</time>
      </trkpt>
      <trkpt lat="42.98661333" lon="-1.21283167">
        <ele>766.0</ele>
        <time>2019-07-31T11:26:52.170Z</time>
      </trkpt>
      <trkpt lat="42.98661667" lon="-1.21281167">
        <ele>765.0</ele>
        <time>2019-07-31T11:26:53.174Z</time>
      </trkpt>
      <trkpt lat="42.98661833" lon="-1.21279167">
        <ele>765.0</ele>
        <time>2019-07-31T11:26:54.178Z</time>
      </trkpt>
      <trkpt lat="42.98662167" lon="-1.21277">
        <ele>766.0</ele>
        <time>2019-07-31T11:26:55.185Z</time>
      </trkpt>
      <trkpt lat="42.98662833" lon="-1.21274667">
        <ele>766.0</ele>
        <time>2019-07-31T11:26:56.063Z</time>
      </trkpt>
      <trkpt lat="42.98663333" lon="-1.21272833">
        <ele>766.0</ele>
        <time>2019-07-31T11:26:57.067Z</time>
      </trkpt>
      <trkpt lat="42.98663667" lon="-1.21270667">
        <ele>766.0</ele>
        <time>2019-07-31T11:26:58.073Z</time>
      </trkpt>
      <trkpt lat="42.98664333" lon="-1.212685">
        <ele>766.0</ele>
        <time>2019-07-31T11:26:59.076Z</time>
      </trkpt>
      <trkpt lat="42.98664667" lon="-1.21266167">
        <ele>765.0</ele>
        <time>2019-07-31T11:27:00.083Z</time>
      </trkpt>
      <trkpt lat="42.98665167" lon="-1.21264333">
        <ele>765.0</ele>
        <time>2019-07-31T11:27:01.090Z</time>
      </trkpt>
      <trkpt lat="42.98665667" lon="-1.21262333">
        <ele>766.0</ele>
        <time>2019-07-31T11:27:02.096Z</time>
      </trkpt>
      <trkpt lat="42.98666167" lon="-1.2126">
        <ele>766.0</ele>
        <time>2019-07-31T11:27:03.100Z</time>
      </trkpt>
      <trkpt lat="42.98666333" lon="-1.21257833">
        <ele>766.0</ele>
        <time>2019-07-31T11:27:04.106Z</time>
      </trkpt>
      <trkpt lat="42.98666167" lon="-1.212555">
        <ele>766.0</ele>
        <time>2019-07-31T11:27:05.109Z</time>
      </trkpt>
      <trkpt lat="42.98665667" lon="-1.21253667">
        <ele>765.0</ele>
        <time>2019-07-31T11:27:06.116Z</time>
      </trkpt>
      <trkpt lat="42.98665333" lon="-1.21251667">
        <ele>766.0</ele>
        <time>2019-07-31T11:27:07.118Z</time>
      </trkpt>
      <trkpt lat="42.98664667" lon="-1.21249333">
        <ele>765.0</ele>
        <time>2019-07-31T11:27:08.123Z</time>
      </trkpt>
      <trkpt lat="42.98664" lon="-1.21247333">
        <ele>765.0</ele>
        <time>2019-07-31T11:27:09.128Z</time>
      </trkpt>
      <trkpt lat="42.98663667" lon="-1.21245">
        <ele>765.0</ele>
        <time>2019-07-31T11:27:10.134Z</time>
      </trkpt>
      <trkpt lat="42.98663333" lon="-1.21242833">
        <ele>764.0</ele>
        <time>2019-07-31T11:27:11.140Z</time>
      </trkpt>
      <trkpt lat="42.98662667" lon="-1.21240667">
        <ele>765.0</ele>
        <time>2019-07-31T11:27:12.147Z</time>
      </trkpt>
      <trkpt lat="42.98662167" lon="-1.212385">
        <ele>765.0</ele>
        <time>2019-07-31T11:27:13.151Z</time>
      </trkpt>
      <trkpt lat="42.98661333" lon="-1.21236333">
        <ele>764.0</ele>
        <time>2019-07-31T11:27:14.152Z</time>
      </trkpt>
      <trkpt lat="42.986605" lon="-1.212345">
        <ele>764.0</ele>
        <time>2019-07-31T11:27:15.155Z</time>
      </trkpt>
      <trkpt lat="42.9866" lon="-1.21232833">
        <ele>763.0</ele>
        <time>2019-07-31T11:27:16.159Z</time>
      </trkpt>
      <trkpt lat="42.98659333" lon="-1.21231167">
        <ele>763.0</ele>
        <time>2019-07-31T11:27:17.163Z</time>
      </trkpt>
      <trkpt lat="42.98658833" lon="-1.21229167">
        <ele>763.0</ele>
        <time>2019-07-31T11:27:18.170Z</time>
      </trkpt>
      <trkpt lat="42.98658333" lon="-1.21226833">
        <ele>763.0</ele>
        <time>2019-07-31T11:27:19.176Z</time>
      </trkpt>
      <trkpt lat="42.98658" lon="-1.21224833">
        <ele>763.0</ele>
        <time>2019-07-31T11:27:20.184Z</time>
      </trkpt>
      <trkpt lat="42.986575" lon="-1.21222833">
        <ele>764.0</ele>
        <time>2019-07-31T11:27:21.064Z</time>
      </trkpt>
      <trkpt lat="42.98657167" lon="-1.21220667">
        <ele>764.0</ele>
        <time>2019-07-31T11:27:22.070Z</time>
      </trkpt>
      <trkpt lat="42.98656833" lon="-1.21218667">
        <ele>764.0</ele>
        <time>2019-07-31T11:27:23.076Z</time>
      </trkpt>
      <trkpt lat="42.98656333" lon="-1.21216667">
        <ele>764.0</ele>
        <time>2019-07-31T11:27:24.081Z</time>
      </trkpt>
      <trkpt lat="42.98655667" lon="-1.21214667">
        <ele>764.0</ele>
        <time>2019-07-31T11:27:25.088Z</time>
      </trkpt>
      <trkpt lat="42.98655167" lon="-1.21212667">
        <ele>765.0</ele>
        <time>2019-07-31T11:27:26.093Z</time>
      </trkpt>
      <trkpt lat="42.986545" lon="-1.21210667">
        <ele>765.0</ele>
        <time>2019-07-31T11:27:27.098Z</time>
      </trkpt>
      <trkpt lat="42.98654" lon="-1.21209">
        <ele>765.0</ele>
        <time>2019-07-31T11:27:28.103Z</time>
      </trkpt>
      <trkpt lat="42.98653667" lon="-1.21207">
        <ele>766.0</ele>
        <time>2019-07-31T11:27:29.109Z</time>
      </trkpt>
      <trkpt lat="42.986535" lon="-1.21204833">
        <ele>766.0</ele>
        <time>2019-07-31T11:27:30.116Z</time>
      </trkpt>
      <trkpt lat="42.98653333" lon="-1.21202833">
        <ele>766.0</ele>
        <time>2019-07-31T11:27:31.121Z</time>
      </trkpt>
      <trkpt lat="42.98652833" lon="-1.21200667">
        <ele>767.0</ele>
        <time>2019-07-31T11:27:32.127Z</time>
      </trkpt>
      <trkpt lat="42.98652167" lon="-1.21198833">
        <ele>767.0</ele>
        <time>2019-07-31T11:27:33.131Z</time>
      </trkpt>
      <trkpt lat="42.98651667" lon="-1.21197">
        <ele>767.0</ele>
        <time>2019-07-31T11:27:34.136Z</time>
      </trkpt>
      <trkpt lat="42.98651167" lon="-1.21195167">
        <ele>767.0</ele>
        <time>2019-07-31T11:27:35.140Z</time>
      </trkpt>
      <trkpt lat="42.98650833" lon="-1.21193">
        <ele>767.0</ele>
        <time>2019-07-31T11:27:36.146Z</time>
      </trkpt>
      <trkpt lat="42.98650333" lon="-1.21191">
        <ele>767.0</ele>
        <time>2019-07-31T11:27:37.152Z</time>
      </trkpt>
      <trkpt lat="42.9865" lon="-1.21189">
        <ele>767.0</ele>
        <time>2019-07-31T11:27:38.157Z</time>
      </trkpt>
      <trkpt lat="42.98649833" lon="-1.21187167">
        <ele>766.0</ele>
        <time>2019-07-31T11:27:39.162Z</time>
      </trkpt>
      <trkpt lat="42.98649" lon="-1.21185333">
        <ele>766.0</ele>
        <time>2019-07-31T11:27:40.168Z</time>
      </trkpt>
      <trkpt lat="42.986485" lon="-1.21182833">
        <ele>766.0</ele>
        <time>2019-07-31T11:27:41.173Z</time>
      </trkpt>
      <trkpt lat="42.98648667" lon="-1.2118">
        <ele>765.0</ele>
        <time>2019-07-31T11:27:42.179Z</time>
      </trkpt>
      <trkpt lat="42.986485" lon="-1.21177167">
        <ele>765.0</ele>
        <time>2019-07-31T11:27:43.186Z</time>
      </trkpt>
      <trkpt lat="42.98648333" lon="-1.211745">
        <ele>765.0</ele>
        <time>2019-07-31T11:27:44.066Z</time>
      </trkpt>
      <trkpt lat="42.98648" lon="-1.21172167">
        <ele>766.0</ele>
        <time>2019-07-31T11:27:45.070Z</time>
      </trkpt>
      <trkpt lat="42.986475" lon="-1.211695">
        <ele>766.0</ele>
        <time>2019-07-31T11:27:46.074Z</time>
      </trkpt>
      <trkpt lat="42.98647333" lon="-1.21167">
        <ele>766.0</ele>
        <time>2019-07-31T11:27:47.079Z</time>
      </trkpt>
      <trkpt lat="42.98647167" lon="-1.21164333">
        <ele>766.0</ele>
        <time>2019-07-31T11:27:48.085Z</time>
      </trkpt>
      <trkpt lat="42.98646667" lon="-1.21161667">
        <ele>766.0</ele>
        <time>2019-07-31T11:27:49.090Z</time>
      </trkpt>
      <trkpt lat="42.98646333" lon="-1.21159333">
        <ele>766.0</ele>
        <time>2019-07-31T11:27:50.096Z</time>
      </trkpt>
      <trkpt lat="42.98645667" lon="-1.21157">
        <ele>766.0</ele>
        <time>2019-07-31T11:27:51.104Z</time>
      </trkpt>
      <trkpt lat="42.98645" lon="-1.21154667">
        <ele>766.0</ele>
        <time>2019-07-31T11:27:52.111Z</time>
      </trkpt>
      <trkpt lat="42.986445" lon="-1.21152167">
        <ele>765.0</ele>
        <time>2019-07-31T11:27:53.117Z</time>
      </trkpt>
      <trkpt lat="42.98644167" lon="-1.21149333">
        <ele>764.0</ele>
        <time>2019-07-31T11:27:54.123Z</time>
      </trkpt>
      <trkpt lat="42.98644" lon="-1.21146833">
        <ele>763.0</ele>
        <time>2019-07-31T11:27:55.128Z</time>
      </trkpt>
      <trkpt lat="42.98644" lon="-1.21144333">
        <ele>762.0</ele>
        <time>2019-07-31T11:27:56.133Z</time>
      </trkpt>
      <trkpt lat="42.98643833" lon="-1.21142167">
        <ele>761.0</ele>
        <time>2019-07-31T11:27:57.139Z</time>
      </trkpt>
      <trkpt lat="42.98643833" lon="-1.21141">
        <ele>762.0</ele>
        <time>2019-07-31T11:27:58.144Z</time>
      </trkpt>
      <trkpt lat="42.98643667" lon="-1.21139333">
        <ele>762.0</ele>
        <time>2019-07-31T11:27:59.150Z</time>
      </trkpt>
      <trkpt lat="42.98643167" lon="-1.21137333">
        <ele>762.0</ele>
        <time>2019-07-31T11:28:00.154Z</time>
      </trkpt>
      <trkpt lat="42.98642167" lon="-1.211345">
        <ele>761.0</ele>
        <time>2019-07-31T11:28:01.157Z</time>
      </trkpt>
      <trkpt lat="42.98642" lon="-1.211325">
        <ele>761.0</ele>
        <time>2019-07-31T11:28:02.162Z</time>
      </trkpt>
      <trkpt lat="42.98641333" lon="-1.21129833">
        <ele>762.0</ele>
        <time>2019-07-31T11:28:03.170Z</time>
      </trkpt>
      <trkpt lat="42.98640833" lon="-1.21127333">
        <ele>762.0</ele>
        <time>2019-07-31T11:28:04.176Z</time>
      </trkpt>
      <trkpt lat="42.98640333" lon="-1.21125">
        <ele>762.0</ele>
        <time>2019-07-31T11:28:05.180Z</time>
      </trkpt>
      <trkpt lat="42.98640167" lon="-1.21122333">
        <ele>761.0</ele>
        <time>2019-07-31T11:28:06.061Z</time>
      </trkpt>
      <trkpt lat="42.9864" lon="-1.21119833">
        <ele>760.0</ele>
        <time>2019-07-31T11:28:07.067Z</time>
      </trkpt>
      <trkpt lat="42.98639833" lon="-1.21117833">
        <ele>761.0</ele>
        <time>2019-07-31T11:28:08.071Z</time>
      </trkpt>
      <trkpt lat="42.98640333" lon="-1.21115667">
        <ele>760.0</ele>
        <time>2019-07-31T11:28:09.074Z</time>
      </trkpt>
      <trkpt lat="42.98640833" lon="-1.21112667">
        <ele>759.0</ele>
        <time>2019-07-31T11:28:10.078Z</time>
      </trkpt>
      <trkpt lat="42.98641167" lon="-1.21110667">
        <ele>757.0</ele>
        <time>2019-07-31T11:28:11.082Z</time>
      </trkpt>
      <trkpt lat="42.98641833" lon="-1.21108333">
        <ele>757.0</ele>
        <time>2019-07-31T11:28:12.088Z</time>
      </trkpt>
      <trkpt lat="42.98641667" lon="-1.21106">
        <ele>756.0</ele>
        <time>2019-07-31T11:28:13.091Z</time>
      </trkpt>
      <trkpt lat="42.98642" lon="-1.21103833">
        <ele>756.0</ele>
        <time>2019-07-31T11:28:14.096Z</time>
      </trkpt>
      <trkpt lat="42.986415" lon="-1.211015">
        <ele>756.0</ele>
        <time>2019-07-31T11:28:15.103Z</time>
      </trkpt>
      <trkpt lat="42.98641" lon="-1.21098833">
        <ele>756.0</ele>
        <time>2019-07-31T11:28:16.108Z</time>
      </trkpt>
      <trkpt lat="42.98640333" lon="-1.21096333">
        <ele>756.0</ele>
        <time>2019-07-31T11:28:17.112Z</time>
      </trkpt>
      <trkpt lat="42.98639833" lon="-1.21094333">
        <ele>756.0</ele>
        <time>2019-07-31T11:28:18.117Z</time>
      </trkpt>
      <trkpt lat="42.98639167" lon="-1.210925">
        <ele>756.0</ele>
        <time>2019-07-31T11:28:19.124Z</time>
      </trkpt>
      <trkpt lat="42.986385" lon="-1.21090833">
        <ele>757.0</ele>
        <time>2019-07-31T11:28:20.128Z</time>
      </trkpt>
      <trkpt lat="42.98638167" lon="-1.21089">
        <ele>757.0</ele>
        <time>2019-07-31T11:28:21.133Z</time>
      </trkpt>
      <trkpt lat="42.98637667" lon="-1.21086833">
        <ele>757.0</ele>
        <time>2019-07-31T11:28:22.138Z</time>
      </trkpt>
      <trkpt lat="42.986375" lon="-1.21085">
        <ele>757.0</ele>
        <time>2019-07-31T11:28:23.143Z</time>
      </trkpt>
      <trkpt lat="42.98637333" lon="-1.21082833">
        <ele>757.0</ele>
        <time>2019-07-31T11:28:24.148Z</time>
      </trkpt>
      <trkpt lat="42.98637333" lon="-1.21080667">
        <ele>757.0</ele>
        <time>2019-07-31T11:28:25.153Z</time>
      </trkpt>
      <trkpt lat="42.986375" lon="-1.210785">
        <ele>756.0</ele>
        <time>2019-07-31T11:28:26.159Z</time>
      </trkpt>
      <trkpt lat="42.98637333" lon="-1.21076333">
        <ele>756.0</ele>
        <time>2019-07-31T11:28:27.165Z</time>
      </trkpt>
      <trkpt lat="42.98637167" lon="-1.21074167">
        <ele>756.0</ele>
        <time>2019-07-31T11:28:28.170Z</time>
      </trkpt>
      <trkpt lat="42.98636833" lon="-1.21072">
        <ele>756.0</ele>
        <time>2019-07-31T11:28:29.176Z</time>
      </trkpt>
      <trkpt lat="42.98636833" lon="-1.2107">
        <ele>755.0</ele>
        <time>2019-07-31T11:28:30.180Z</time>
      </trkpt>
      <trkpt lat="42.98636833" lon="-1.21067833">
        <ele>755.0</ele>
        <time>2019-07-31T11:28:31.185Z</time>
      </trkpt>
      <trkpt lat="42.98636833" lon="-1.210655">
        <ele>755.0</ele>
        <time>2019-07-31T11:28:32.063Z</time>
      </trkpt>
      <trkpt lat="42.98636667" lon="-1.21063">
        <ele>754.0</ele>
        <time>2019-07-31T11:28:33.068Z</time>
      </trkpt>
      <trkpt lat="42.98636667" lon="-1.21060833">
        <ele>754.0</ele>
        <time>2019-07-31T11:28:34.076Z</time>
      </trkpt>
      <trkpt lat="42.98636333" lon="-1.21058333">
        <ele>754.0</ele>
        <time>2019-07-31T11:28:35.081Z</time>
      </trkpt>
      <trkpt lat="42.98636667" lon="-1.21056">
        <ele>754.0</ele>
        <time>2019-07-31T11:28:36.087Z</time>
      </trkpt>
      <trkpt lat="42.98636833" lon="-1.21054167">
        <ele>753.0</ele>
        <time>2019-07-31T11:28:37.092Z</time>
      </trkpt>
      <trkpt lat="42.98637" lon="-1.21051833">
        <ele>753.0</ele>
        <time>2019-07-31T11:28:38.098Z</time>
      </trkpt>
      <trkpt lat="42.98637167" lon="-1.21049667">
        <ele>754.0</ele>
        <time>2019-07-31T11:28:39.102Z</time>
      </trkpt>
      <trkpt lat="42.98637167" lon="-1.210475">
        <ele>754.0</ele>
        <time>2019-07-31T11:28:40.106Z</time>
      </trkpt>
      <trkpt lat="42.98637167" lon="-1.21046333">
        <ele>755.0</ele>
        <time>2019-07-31T11:28:41.112Z</time>
      </trkpt>
      <trkpt lat="42.98637167" lon="-1.210445">
        <ele>755.0</ele>
        <time>2019-07-31T11:28:42.116Z</time>
      </trkpt>
      <trkpt lat="42.98637" lon="-1.21042167">
        <ele>756.0</ele>
        <time>2019-07-31T11:28:43.121Z</time>
      </trkpt>
      <trkpt lat="42.98637167" lon="-1.210395">
        <ele>756.0</ele>
        <time>2019-07-31T11:28:44.127Z</time>
      </trkpt>
      <trkpt lat="42.986375" lon="-1.21036667">
        <ele>756.0</ele>
        <time>2019-07-31T11:28:45.133Z</time>
      </trkpt>
      <trkpt lat="42.98638167" lon="-1.21034667">
        <ele>756.0</ele>
        <time>2019-07-31T11:28:46.139Z</time>
      </trkpt>
      <trkpt lat="42.98638667" lon="-1.210325">
        <ele>756.0</ele>
        <time>2019-07-31T11:28:47.144Z</time>
      </trkpt>
      <trkpt lat="42.98639" lon="-1.210305">
        <ele>756.0</ele>
        <time>2019-07-31T11:28:48.149Z</time>
      </trkpt>
      <trkpt lat="42.98639667" lon="-1.21028667">
        <ele>755.0</ele>
        <time>2019-07-31T11:28:49.151Z</time>
      </trkpt>
      <trkpt lat="42.9864" lon="-1.21026333">
        <ele>755.0</ele>
        <time>2019-07-31T11:28:50.157Z</time>
      </trkpt>
      <trkpt lat="42.9864" lon="-1.21023167">
        <ele>756.0</ele>
        <time>2019-07-31T11:28:51.162Z</time>
      </trkpt>
      <trkpt lat="42.9864" lon="-1.21020333">
        <ele>756.0</ele>
        <time>2019-07-31T11:28:52.165Z</time>
      </trkpt>
      <trkpt lat="42.986405" lon="-1.210185">
        <ele>757.0</ele>
        <time>2019-07-31T11:28:53.170Z</time>
      </trkpt>
      <trkpt lat="42.98641333" lon="-1.21016667">
        <ele>756.0</ele>
        <time>2019-07-31T11:28:54.175Z</time>
      </trkpt>
      <trkpt lat="42.98641833" lon="-1.21014">
        <ele>755.0</ele>
        <time>2019-07-31T11:28:55.182Z</time>
      </trkpt>
      <trkpt lat="42.98642167" lon="-1.21011333">
        <ele>755.0</ele>
        <time>2019-07-31T11:28:56.062Z</time>
      </trkpt>
      <trkpt lat="42.98643167" lon="-1.21009167">
        <ele>755.0</ele>
        <time>2019-07-31T11:28:57.067Z</time>
      </trkpt>
      <trkpt lat="42.986435" lon="-1.21007">
        <ele>755.0</ele>
        <time>2019-07-31T11:28:58.072Z</time>
      </trkpt>
      <trkpt lat="42.98643833" lon="-1.21005667">
        <ele>754.0</ele>
        <time>2019-07-31T11:28:59.076Z</time>
      </trkpt>
      <trkpt lat="42.98644333" lon="-1.210035">
        <ele>753.0</ele>
        <time>2019-07-31T11:29:00.080Z</time>
      </trkpt>
      <trkpt lat="42.98644833" lon="-1.21001">
        <ele>753.0</ele>
        <time>2019-07-31T11:29:01.084Z</time>
      </trkpt>
      <trkpt lat="42.98645333" lon="-1.20998833">
        <ele>753.0</ele>
        <time>2019-07-31T11:29:02.088Z</time>
      </trkpt>
      <trkpt lat="42.98645833" lon="-1.209965">
        <ele>752.0</ele>
        <time>2019-07-31T11:29:03.093Z</time>
      </trkpt>
      <trkpt lat="42.98646167" lon="-1.20994167">
        <ele>752.0</ele>
        <time>2019-07-31T11:29:04.100Z</time>
      </trkpt>
      <trkpt lat="42.986465" lon="-1.20992">
        <ele>751.0</ele>
        <time>2019-07-31T11:29:05.107Z</time>
      </trkpt>
      <trkpt lat="42.98646667" lon="-1.20989833">
        <ele>751.0</ele>
        <time>2019-07-31T11:29:06.112Z</time>
      </trkpt>
      <trkpt lat="42.98647" lon="-1.209875">
        <ele>751.0</ele>
        <time>2019-07-31T11:29:07.117Z</time>
      </trkpt>
      <trkpt lat="42.986475" lon="-1.20985333">
        <ele>750.0</ele>
        <time>2019-07-31T11:29:08.123Z</time>
      </trkpt>
      <trkpt lat="42.98648167" lon="-1.20982667">
        <ele>750.0</ele>
        <time>2019-07-31T11:29:09.129Z</time>
      </trkpt>
      <trkpt lat="42.986485" lon="-1.20980833">
        <ele>749.0</ele>
        <time>2019-07-31T11:29:10.133Z</time>
      </trkpt>
      <trkpt lat="42.98648667" lon="-1.209785">
        <ele>749.0</ele>
        <time>2019-07-31T11:29:11.139Z</time>
      </trkpt>
      <trkpt lat="42.98649" lon="-1.20976167">
        <ele>749.0</ele>
        <time>2019-07-31T11:29:12.143Z</time>
      </trkpt>
      <trkpt lat="42.98649167" lon="-1.20973833">
        <ele>750.0</ele>
        <time>2019-07-31T11:29:13.150Z</time>
      </trkpt>
      <trkpt lat="42.986495" lon="-1.20971167">
        <ele>749.0</ele>
        <time>2019-07-31T11:29:14.156Z</time>
      </trkpt>
      <trkpt lat="42.98649833" lon="-1.209685">
        <ele>749.0</ele>
        <time>2019-07-31T11:29:15.160Z</time>
      </trkpt>
      <trkpt lat="42.98650167" lon="-1.20966167">
        <ele>749.0</ele>
        <time>2019-07-31T11:29:16.162Z</time>
      </trkpt>
      <trkpt lat="42.98650167" lon="-1.20963667">
        <ele>749.0</ele>
        <time>2019-07-31T11:29:17.168Z</time>
      </trkpt>
      <trkpt lat="42.98650333" lon="-1.20961">
        <ele>749.0</ele>
        <time>2019-07-31T11:29:18.175Z</time>
      </trkpt>
      <trkpt lat="42.98650833" lon="-1.20958333">
        <ele>749.0</ele>
        <time>2019-07-31T11:29:19.180Z</time>
      </trkpt>
      <trkpt lat="42.98650833" lon="-1.20956167">
        <ele>750.0</ele>
        <time>2019-07-31T11:29:20.183Z</time>
      </trkpt>
      <trkpt lat="42.98651167" lon="-1.20954167">
        <ele>749.0</ele>
        <time>2019-07-31T11:29:21.186Z</time>
      </trkpt>
      <trkpt lat="42.98651333" lon="-1.20951833">
        <ele>749.0</ele>
        <time>2019-07-31T11:29:22.065Z</time>
      </trkpt>
      <trkpt lat="42.98651667" lon="-1.20949667">
        <ele>749.0</ele>
        <time>2019-07-31T11:29:23.070Z</time>
      </trkpt>
      <trkpt lat="42.98651833" lon="-1.20947167">
        <ele>749.0</ele>
        <time>2019-07-31T11:29:24.074Z</time>
      </trkpt>
      <trkpt lat="42.986525" lon="-1.209445">
        <ele>749.0</ele>
        <time>2019-07-31T11:29:25.079Z</time>
      </trkpt>
      <trkpt lat="42.98653" lon="-1.209425">
        <ele>749.0</ele>
        <time>2019-07-31T11:29:26.086Z</time>
      </trkpt>
      <trkpt lat="42.986535" lon="-1.20940833">
        <ele>749.0</ele>
        <time>2019-07-31T11:29:27.092Z</time>
      </trkpt>
      <trkpt lat="42.98653833" lon="-1.20938667">
        <ele>749.0</ele>
        <time>2019-07-31T11:29:28.099Z</time>
      </trkpt>
      <trkpt lat="42.98654167" lon="-1.209365">
        <ele>749.0</ele>
        <time>2019-07-31T11:29:29.107Z</time>
      </trkpt>
      <trkpt lat="42.98654667" lon="-1.209345">
        <ele>748.0</ele>
        <time>2019-07-31T11:29:30.114Z</time>
      </trkpt>
      <trkpt lat="42.98655167" lon="-1.209325">
        <ele>748.0</ele>
        <time>2019-07-31T11:29:31.119Z</time>
      </trkpt>
      <trkpt lat="42.98655833" lon="-1.20930667">
        <ele>748.0</ele>
        <time>2019-07-31T11:29:32.124Z</time>
      </trkpt>
      <trkpt lat="42.98656167" lon="-1.20928667">
        <ele>749.0</ele>
        <time>2019-07-31T11:29:33.129Z</time>
      </trkpt>
      <trkpt lat="42.986565" lon="-1.209265">
        <ele>749.0</ele>
        <time>2019-07-31T11:29:34.135Z</time>
      </trkpt>
      <trkpt lat="42.98656833" lon="-1.20924333">
        <ele>749.0</ele>
        <time>2019-07-31T11:29:35.139Z</time>
      </trkpt>
      <trkpt lat="42.98657167" lon="-1.20922167">
        <ele>750.0</ele>
        <time>2019-07-31T11:29:36.145Z</time>
      </trkpt>
      <trkpt lat="42.986575" lon="-1.20920167">
        <ele>750.0</ele>
        <time>2019-07-31T11:29:37.153Z</time>
      </trkpt>
      <trkpt lat="42.98657833" lon="-1.20917667">
        <ele>750.0</ele>
        <time>2019-07-31T11:29:38.159Z</time>
      </trkpt>
      <trkpt lat="42.98658167" lon="-1.20915833">
        <ele>750.0</ele>
        <time>2019-07-31T11:29:39.165Z</time>
      </trkpt>
      <trkpt lat="42.98658667" lon="-1.20913833">
        <ele>750.0</ele>
        <time>2019-07-31T11:29:40.171Z</time>
      </trkpt>
      <trkpt lat="42.98658833" lon="-1.20911667">
        <ele>750.0</ele>
        <time>2019-07-31T11:29:41.176Z</time>
      </trkpt>
      <trkpt lat="42.98659" lon="-1.20909667">
        <ele>749.0</ele>
        <time>2019-07-31T11:29:42.180Z</time>
      </trkpt>
      <trkpt lat="42.98659333" lon="-1.20907333">
        <ele>749.0</ele>
        <time>2019-07-31T11:29:43.062Z</time>
      </trkpt>
      <trkpt lat="42.98659833" lon="-1.20904667">
        <ele>748.0</ele>
        <time>2019-07-31T11:29:44.066Z</time>
      </trkpt>
      <trkpt lat="42.98660333" lon="-1.20902667">
        <ele>748.0</ele>
        <time>2019-07-31T11:29:45.070Z</time>
      </trkpt>
      <trkpt lat="42.98660667" lon="-1.20900333">
        <ele>748.0</ele>
        <time>2019-07-31T11:29:46.076Z</time>
      </trkpt>
      <trkpt lat="42.98661167" lon="-1.20898">
        <ele>747.0</ele>
        <time>2019-07-31T11:29:47.081Z</time>
      </trkpt>
      <trkpt lat="42.98661333" lon="-1.20895167">
        <ele>748.0</ele>
        <time>2019-07-31T11:29:48.087Z</time>
      </trkpt>
      <trkpt lat="42.986615" lon="-1.20893333">
        <ele>748.0</ele>
        <time>2019-07-31T11:29:49.095Z</time>
      </trkpt>
      <trkpt lat="42.98661667" lon="-1.20891">
        <ele>748.0</ele>
        <time>2019-07-31T11:29:50.099Z</time>
      </trkpt>
      <trkpt lat="42.98661833" lon="-1.20888667">
        <ele>748.0</ele>
        <time>2019-07-31T11:29:51.105Z</time>
      </trkpt>
      <trkpt lat="42.98662" lon="-1.208865">
        <ele>748.0</ele>
        <time>2019-07-31T11:29:52.110Z</time>
      </trkpt>
      <trkpt lat="42.98662333" lon="-1.20884">
        <ele>748.0</ele>
        <time>2019-07-31T11:29:53.115Z</time>
      </trkpt>
      <trkpt lat="42.986625" lon="-1.20881667">
        <ele>748.0</ele>
        <time>2019-07-31T11:29:54.119Z</time>
      </trkpt>
      <trkpt lat="42.986625" lon="-1.208795">
        <ele>748.0</ele>
        <time>2019-07-31T11:29:55.123Z</time>
      </trkpt>
      <trkpt lat="42.98662333" lon="-1.20877833">
        <ele>749.0</ele>
        <time>2019-07-31T11:29:56.128Z</time>
      </trkpt>
      <trkpt lat="42.98662333" lon="-1.20875833">
        <ele>749.0</ele>
        <time>2019-07-31T11:29:57.134Z</time>
      </trkpt>
      <trkpt lat="42.986625" lon="-1.20873833">
        <ele>749.0</ele>
        <time>2019-07-31T11:29:58.140Z</time>
      </trkpt>
      <trkpt lat="42.98662833" lon="-1.208715">
        <ele>749.0</ele>
        <time>2019-07-31T11:29:59.147Z</time>
      </trkpt>
      <trkpt lat="42.98663333" lon="-1.20869">
        <ele>749.0</ele>
        <time>2019-07-31T11:30:00.151Z</time>
      </trkpt>
      <trkpt lat="42.98663833" lon="-1.20866333">
        <ele>749.0</ele>
        <time>2019-07-31T11:30:01.156Z</time>
      </trkpt>
      <trkpt lat="42.98664333" lon="-1.20864333">
        <ele>749.0</ele>
        <time>2019-07-31T11:30:02.160Z</time>
      </trkpt>
      <trkpt lat="42.98664833" lon="-1.20862">
        <ele>750.0</ele>
        <time>2019-07-31T11:30:03.164Z</time>
      </trkpt>
      <trkpt lat="42.98665333" lon="-1.20859667">
        <ele>750.0</ele>
        <time>2019-07-31T11:30:04.170Z</time>
      </trkpt>
      <trkpt lat="42.98665833" lon="-1.20857167">
        <ele>751.0</ele>
        <time>2019-07-31T11:30:05.173Z</time>
      </trkpt>
      <trkpt lat="42.986665" lon="-1.20855167">
        <ele>751.0</ele>
        <time>2019-07-31T11:30:06.178Z</time>
      </trkpt>
      <trkpt lat="42.98666667" lon="-1.20852833">
        <ele>751.0</ele>
        <time>2019-07-31T11:30:07.182Z</time>
      </trkpt>
      <trkpt lat="42.98667" lon="-1.208505">
        <ele>750.0</ele>
        <time>2019-07-31T11:30:08.064Z</time>
      </trkpt>
      <trkpt lat="42.98667167" lon="-1.20848333">
        <ele>750.0</ele>
        <time>2019-07-31T11:30:09.067Z</time>
      </trkpt>
      <trkpt lat="42.98667333" lon="-1.20846167">
        <ele>751.0</ele>
        <time>2019-07-31T11:30:10.071Z</time>
      </trkpt>
      <trkpt lat="42.98667833" lon="-1.20844">
        <ele>751.0</ele>
        <time>2019-07-31T11:30:11.076Z</time>
      </trkpt>
      <trkpt lat="42.986685" lon="-1.20842333">
        <ele>751.0</ele>
        <time>2019-07-31T11:30:12.082Z</time>
      </trkpt>
      <trkpt lat="42.98669167" lon="-1.20840167">
        <ele>751.0</ele>
        <time>2019-07-31T11:30:13.086Z</time>
      </trkpt>
      <trkpt lat="42.9867" lon="-1.20837667">
        <ele>750.0</ele>
        <time>2019-07-31T11:30:14.090Z</time>
      </trkpt>
      <trkpt lat="42.986705" lon="-1.20835333">
        <ele>750.0</ele>
        <time>2019-07-31T11:30:15.095Z</time>
      </trkpt>
      <trkpt lat="42.98670833" lon="-1.20833">
        <ele>750.0</ele>
        <time>2019-07-31T11:30:16.099Z</time>
      </trkpt>
      <trkpt lat="42.98671333" lon="-1.208305">
        <ele>750.0</ele>
        <time>2019-07-31T11:30:17.104Z</time>
      </trkpt>
      <trkpt lat="42.986715" lon="-1.20828167">
        <ele>749.0</ele>
        <time>2019-07-31T11:30:18.109Z</time>
      </trkpt>
      <trkpt lat="42.98672167" lon="-1.20826">
        <ele>750.0</ele>
        <time>2019-07-31T11:30:19.116Z</time>
      </trkpt>
      <trkpt lat="42.98672667" lon="-1.20823833">
        <ele>750.0</ele>
        <time>2019-07-31T11:30:20.121Z</time>
      </trkpt>
      <trkpt lat="42.98673333" lon="-1.20821167">
        <ele>750.0</ele>
        <time>2019-07-31T11:30:21.126Z</time>
      </trkpt>
      <trkpt lat="42.98674167" lon="-1.20818667">
        <ele>749.0</ele>
        <time>2019-07-31T11:30:22.132Z</time>
      </trkpt>
      <trkpt lat="42.986745" lon="-1.20816667">
        <ele>749.0</ele>
        <time>2019-07-31T11:30:23.138Z</time>
      </trkpt>
      <trkpt lat="42.98675167" lon="-1.20814333">
        <ele>749.0</ele>
        <time>2019-07-31T11:30:24.143Z</time>
      </trkpt>
      <trkpt lat="42.98676" lon="-1.20811833">
        <ele>749.0</ele>
        <time>2019-07-31T11:30:25.149Z</time>
      </trkpt>
      <trkpt lat="42.98676333" lon="-1.20809667">
        <ele>749.0</ele>
        <time>2019-07-31T11:30:26.152Z</time>
      </trkpt>
      <trkpt lat="42.98676667" lon="-1.20807833">
        <ele>749.0</ele>
        <time>2019-07-31T11:30:27.157Z</time>
      </trkpt>
      <trkpt lat="42.98677167" lon="-1.20805333">
        <ele>749.0</ele>
        <time>2019-07-31T11:30:28.162Z</time>
      </trkpt>
      <trkpt lat="42.98677667" lon="-1.20803167">
        <ele>748.0</ele>
        <time>2019-07-31T11:30:29.167Z</time>
      </trkpt>
      <trkpt lat="42.98678333" lon="-1.20800833">
        <ele>748.0</ele>
        <time>2019-07-31T11:30:30.174Z</time>
      </trkpt>
      <trkpt lat="42.98678833" lon="-1.20798333">
        <ele>748.0</ele>
        <time>2019-07-31T11:30:31.180Z</time>
      </trkpt>
      <trkpt lat="42.98679333" lon="-1.20796833">
        <ele>748.0</ele>
        <time>2019-07-31T11:30:32.186Z</time>
      </trkpt>
      <trkpt lat="42.986795" lon="-1.20794833">
        <ele>748.0</ele>
        <time>2019-07-31T11:30:33.069Z</time>
      </trkpt>
      <trkpt lat="42.9868" lon="-1.20792167">
        <ele>747.0</ele>
        <time>2019-07-31T11:30:34.075Z</time>
      </trkpt>
      <trkpt lat="42.9868" lon="-1.20790333">
        <ele>747.0</ele>
        <time>2019-07-31T11:30:35.080Z</time>
      </trkpt>
      <trkpt lat="42.986805" lon="-1.207875">
        <ele>746.0</ele>
        <time>2019-07-31T11:30:36.085Z</time>
      </trkpt>
      <trkpt lat="42.98680833" lon="-1.20785833">
        <ele>745.0</ele>
        <time>2019-07-31T11:30:37.090Z</time>
      </trkpt>
      <trkpt lat="42.98681333" lon="-1.20783833">
        <ele>745.0</ele>
        <time>2019-07-31T11:30:38.096Z</time>
      </trkpt>
      <trkpt lat="42.98681667" lon="-1.20781333">
        <ele>745.0</ele>
        <time>2019-07-31T11:30:39.102Z</time>
      </trkpt>
      <trkpt lat="42.98682" lon="-1.20779333">
        <ele>745.0</ele>
        <time>2019-07-31T11:30:40.108Z</time>
      </trkpt>
      <trkpt lat="42.98682167" lon="-1.20777167">
        <ele>745.0</ele>
        <time>2019-07-31T11:30:41.115Z</time>
      </trkpt>
      <trkpt lat="42.98682167" lon="-1.207755">
        <ele>745.0</ele>
        <time>2019-07-31T11:30:42.121Z</time>
      </trkpt>
      <trkpt lat="42.98682" lon="-1.207735">
        <ele>746.0</ele>
        <time>2019-07-31T11:30:43.126Z</time>
      </trkpt>
      <trkpt lat="42.98682" lon="-1.20771">
        <ele>746.0</ele>
        <time>2019-07-31T11:30:44.132Z</time>
      </trkpt>
      <trkpt lat="42.98682333" lon="-1.20768667">
        <ele>745.0</ele>
        <time>2019-07-31T11:30:45.137Z</time>
      </trkpt>
      <trkpt lat="42.98682167" lon="-1.207665">
        <ele>745.0</ele>
        <time>2019-07-31T11:30:46.144Z</time>
      </trkpt>
      <trkpt lat="42.98682333" lon="-1.20764">
        <ele>745.0</ele>
        <time>2019-07-31T11:30:47.148Z</time>
      </trkpt>
      <trkpt lat="42.986825" lon="-1.20762">
        <ele>745.0</ele>
        <time>2019-07-31T11:30:48.154Z</time>
      </trkpt>
      <trkpt lat="42.98682833" lon="-1.207595">
        <ele>745.0</ele>
        <time>2019-07-31T11:30:49.159Z</time>
      </trkpt>
      <trkpt lat="42.98683" lon="-1.207575">
        <ele>745.0</ele>
        <time>2019-07-31T11:30:50.163Z</time>
      </trkpt>
      <trkpt lat="42.98682833" lon="-1.20755333">
        <ele>745.0</ele>
        <time>2019-07-31T11:30:51.169Z</time>
      </trkpt>
      <trkpt lat="42.98683167" lon="-1.207535">
        <ele>745.0</ele>
        <time>2019-07-31T11:30:52.175Z</time>
      </trkpt>
      <trkpt lat="42.98683333" lon="-1.20751333">
        <ele>745.0</ele>
        <time>2019-07-31T11:30:53.180Z</time>
      </trkpt>
      <trkpt lat="42.98683" lon="-1.20748667">
        <ele>745.0</ele>
        <time>2019-07-31T11:30:54.186Z</time>
      </trkpt>
      <trkpt lat="42.98682833" lon="-1.207465">
        <ele>745.0</ele>
        <time>2019-07-31T11:30:55.066Z</time>
      </trkpt>
      <trkpt lat="42.98682833" lon="-1.20744833">
        <ele>744.0</ele>
        <time>2019-07-31T11:30:56.072Z</time>
      </trkpt>
      <trkpt lat="42.98683" lon="-1.207425">
        <ele>744.0</ele>
        <time>2019-07-31T11:30:57.076Z</time>
      </trkpt>
      <trkpt lat="42.98682833" lon="-1.20740667">
        <ele>744.0</ele>
        <time>2019-07-31T11:30:58.082Z</time>
      </trkpt>
      <trkpt lat="42.986825" lon="-1.20739">
        <ele>745.0</ele>
        <time>2019-07-31T11:30:59.088Z</time>
      </trkpt>
      <trkpt lat="42.986825" lon="-1.207365">
        <ele>746.0</ele>
        <time>2019-07-31T11:31:00.095Z</time>
      </trkpt>
      <trkpt lat="42.986825" lon="-1.20734667">
        <ele>746.0</ele>
        <time>2019-07-31T11:31:01.101Z</time>
      </trkpt>
      <trkpt lat="42.98682667" lon="-1.207325">
        <ele>746.0</ele>
        <time>2019-07-31T11:31:02.107Z</time>
      </trkpt>
      <trkpt lat="42.98683" lon="-1.2073">
        <ele>745.0</ele>
        <time>2019-07-31T11:31:03.110Z</time>
      </trkpt>
      <trkpt lat="42.98683" lon="-1.20728167">
        <ele>745.0</ele>
        <time>2019-07-31T11:31:04.113Z</time>
      </trkpt>
      <trkpt lat="42.98682833" lon="-1.20726">
        <ele>744.0</ele>
        <time>2019-07-31T11:31:05.118Z</time>
      </trkpt>
      <trkpt lat="42.98682667" lon="-1.20723667">
        <ele>744.0</ele>
        <time>2019-07-31T11:31:06.122Z</time>
      </trkpt>
      <trkpt lat="42.986825" lon="-1.20721167">
        <ele>743.0</ele>
        <time>2019-07-31T11:31:07.128Z</time>
      </trkpt>
      <trkpt lat="42.98682333" lon="-1.20718333">
        <ele>743.0</ele>
        <time>2019-07-31T11:31:08.131Z</time>
      </trkpt>
      <trkpt lat="42.986815" lon="-1.207155">
        <ele>743.0</ele>
        <time>2019-07-31T11:31:09.136Z</time>
      </trkpt>
      <trkpt lat="42.986805" lon="-1.207135">
        <ele>743.0</ele>
        <time>2019-07-31T11:31:10.141Z</time>
      </trkpt>
      <trkpt lat="42.98679833" lon="-1.20711667">
        <ele>744.0</ele>
        <time>2019-07-31T11:31:11.146Z</time>
      </trkpt>
      <trkpt lat="42.98679" lon="-1.20708667">
        <ele>743.0</ele>
        <time>2019-07-31T11:31:12.152Z</time>
      </trkpt>
      <trkpt lat="42.98678333" lon="-1.20706833">
        <ele>744.0</ele>
        <time>2019-07-31T11:31:13.157Z</time>
      </trkpt>
      <trkpt lat="42.98677167" lon="-1.20704833">
        <ele>744.0</ele>
        <time>2019-07-31T11:31:14.162Z</time>
      </trkpt>
      <trkpt lat="42.98676167" lon="-1.20702667">
        <ele>744.0</ele>
        <time>2019-07-31T11:31:15.168Z</time>
      </trkpt>
      <trkpt lat="42.98675167" lon="-1.207005">
        <ele>744.0</ele>
        <time>2019-07-31T11:31:16.173Z</time>
      </trkpt>
      <trkpt lat="42.98673833" lon="-1.20698667">
        <ele>744.0</ele>
        <time>2019-07-31T11:31:17.178Z</time>
      </trkpt>
      <trkpt lat="42.98672667" lon="-1.20696667">
        <ele>744.0</ele>
        <time>2019-07-31T11:31:18.185Z</time>
      </trkpt>
      <trkpt lat="42.98671667" lon="-1.20695">
        <ele>744.0</ele>
        <time>2019-07-31T11:31:19.065Z</time>
      </trkpt>
      <trkpt lat="42.98670833" lon="-1.20693167">
        <ele>744.0</ele>
        <time>2019-07-31T11:31:20.068Z</time>
      </trkpt>
      <trkpt lat="42.98669667" lon="-1.20691667">
        <ele>744.0</ele>
        <time>2019-07-31T11:31:21.075Z</time>
      </trkpt>
      <trkpt lat="42.986685" lon="-1.20690167">
        <ele>745.0</ele>
        <time>2019-07-31T11:31:22.081Z</time>
      </trkpt>
      <trkpt lat="42.98667" lon="-1.206885">
        <ele>746.0</ele>
        <time>2019-07-31T11:31:23.086Z</time>
      </trkpt>
      <trkpt lat="42.98666" lon="-1.20686333">
        <ele>745.0</ele>
        <time>2019-07-31T11:31:24.089Z</time>
      </trkpt>
      <trkpt lat="42.98665333" lon="-1.206845">
        <ele>745.0</ele>
        <time>2019-07-31T11:31:25.094Z</time>
      </trkpt>
      <trkpt lat="42.98664667" lon="-1.206825">
        <ele>744.0</ele>
        <time>2019-07-31T11:31:26.100Z</time>
      </trkpt>
      <trkpt lat="42.98663667" lon="-1.20680167">
        <ele>745.0</ele>
        <time>2019-07-31T11:31:27.106Z</time>
      </trkpt>
      <trkpt lat="42.98662833" lon="-1.20678">
        <ele>745.0</ele>
        <time>2019-07-31T11:31:28.112Z</time>
      </trkpt>
      <trkpt lat="42.98662667" lon="-1.20675333">
        <ele>744.0</ele>
        <time>2019-07-31T11:31:29.117Z</time>
      </trkpt>
      <trkpt lat="42.98662333" lon="-1.20673">
        <ele>744.0</ele>
        <time>2019-07-31T11:31:30.122Z</time>
      </trkpt>
      <trkpt lat="42.98661333" lon="-1.20671">
        <ele>744.0</ele>
        <time>2019-07-31T11:31:31.128Z</time>
      </trkpt>
      <trkpt lat="42.98660167" lon="-1.20669333">
        <ele>745.0</ele>
        <time>2019-07-31T11:31:32.133Z</time>
      </trkpt>
      <trkpt lat="42.98659833" lon="-1.206675">
        <ele>746.0</ele>
        <time>2019-07-31T11:31:33.140Z</time>
      </trkpt>
      <trkpt lat="42.98659333" lon="-1.20666333">
        <ele>746.0</ele>
        <time>2019-07-31T11:31:34.146Z</time>
      </trkpt>
      <trkpt lat="42.98658333" lon="-1.20665">
        <ele>746.0</ele>
        <time>2019-07-31T11:31:35.151Z</time>
      </trkpt>
      <trkpt lat="42.98657" lon="-1.20664">
        <ele>747.0</ele>
        <time>2019-07-31T11:31:36.157Z</time>
      </trkpt>
      <trkpt lat="42.98656167" lon="-1.20662667">
        <ele>748.0</ele>
        <time>2019-07-31T11:31:37.162Z</time>
      </trkpt>
      <trkpt lat="42.98655167" lon="-1.206615">
        <ele>749.0</ele>
        <time>2019-07-31T11:31:38.169Z</time>
      </trkpt>
      <trkpt lat="42.98654667" lon="-1.20660667">
        <ele>750.0</ele>
        <time>2019-07-31T11:31:39.175Z</time>
      </trkpt>
      <trkpt lat="42.98653667" lon="-1.20659167">
        <ele>751.0</ele>
        <time>2019-07-31T11:31:40.179Z</time>
      </trkpt>
      <trkpt lat="42.98652167" lon="-1.20657667">
        <ele>752.0</ele>
        <time>2019-07-31T11:31:41.185Z</time>
      </trkpt>
      <trkpt lat="42.98651167" lon="-1.20656">
        <ele>752.0</ele>
        <time>2019-07-31T11:31:42.065Z</time>
      </trkpt>
      <trkpt lat="42.9865" lon="-1.20654667">
        <ele>752.0</ele>
        <time>2019-07-31T11:31:43.073Z</time>
      </trkpt>
      <trkpt lat="42.98649167" lon="-1.20652833">
        <ele>752.0</ele>
        <time>2019-07-31T11:31:44.078Z</time>
      </trkpt>
      <trkpt lat="42.98648667" lon="-1.20651167">
        <ele>752.0</ele>
        <time>2019-07-31T11:31:45.084Z</time>
      </trkpt>
      <trkpt lat="42.986475" lon="-1.20649667">
        <ele>752.0</ele>
        <time>2019-07-31T11:31:46.089Z</time>
      </trkpt>
      <trkpt lat="42.98646667" lon="-1.206485">
        <ele>752.0</ele>
        <time>2019-07-31T11:31:47.094Z</time>
      </trkpt>
      <trkpt lat="42.98645833" lon="-1.20646833">
        <ele>752.0</ele>
        <time>2019-07-31T11:31:48.099Z</time>
      </trkpt>
      <trkpt lat="42.98644833" lon="-1.20645333">
        <ele>751.0</ele>
        <time>2019-07-31T11:31:49.104Z</time>
      </trkpt>
      <trkpt lat="42.98644333" lon="-1.20643833">
        <ele>750.0</ele>
        <time>2019-07-31T11:31:50.110Z</time>
      </trkpt>
      <trkpt lat="42.986435" lon="-1.20642333">
        <ele>750.0</ele>
        <time>2019-07-31T11:31:51.115Z</time>
      </trkpt>
      <trkpt lat="42.986425" lon="-1.206405">
        <ele>750.0</ele>
        <time>2019-07-31T11:31:52.120Z</time>
      </trkpt>
      <trkpt lat="42.98642" lon="-1.20638667">
        <ele>750.0</ele>
        <time>2019-07-31T11:31:53.126Z</time>
      </trkpt>
      <trkpt lat="42.98641333" lon="-1.206375">
        <ele>750.0</ele>
        <time>2019-07-31T11:31:54.131Z</time>
      </trkpt>
      <trkpt lat="42.98640167" lon="-1.20636167">
        <ele>751.0</ele>
        <time>2019-07-31T11:31:55.136Z</time>
      </trkpt>
      <trkpt lat="42.98639333" lon="-1.20635167">
        <ele>752.0</ele>
        <time>2019-07-31T11:31:56.143Z</time>
      </trkpt>
      <trkpt lat="42.986385" lon="-1.20633833">
        <ele>753.0</ele>
        <time>2019-07-31T11:31:57.150Z</time>
      </trkpt>
      <trkpt lat="42.98638167" lon="-1.20632667">
        <ele>753.0</ele>
        <time>2019-07-31T11:31:58.156Z</time>
      </trkpt>
      <trkpt lat="42.986375" lon="-1.206315">
        <ele>753.0</ele>
        <time>2019-07-31T11:31:59.162Z</time>
      </trkpt>
      <trkpt lat="42.98636667" lon="-1.20630667">
        <ele>753.0</ele>
        <time>2019-07-31T11:32:00.167Z</time>
      </trkpt>
      <trkpt lat="42.98636" lon="-1.206295">
        <ele>754.0</ele>
        <time>2019-07-31T11:32:01.170Z</time>
      </trkpt>
      <trkpt lat="42.986355" lon="-1.20628167">
        <ele>754.0</ele>
        <time>2019-07-31T11:32:02.174Z</time>
      </trkpt>
      <trkpt lat="42.98634667" lon="-1.20627167">
        <ele>754.0</ele>
        <time>2019-07-31T11:32:03.180Z</time>
      </trkpt>
      <trkpt lat="42.98634" lon="-1.20625833">
        <ele>754.0</ele>
        <time>2019-07-31T11:32:04.186Z</time>
      </trkpt>
      <trkpt lat="42.98633" lon="-1.20624167">
        <ele>754.0</ele>
        <time>2019-07-31T11:32:05.065Z</time>
      </trkpt>
      <trkpt lat="42.98632333" lon="-1.20623">
        <ele>754.0</ele>
        <time>2019-07-31T11:32:06.071Z</time>
      </trkpt>
      <trkpt lat="42.98631333" lon="-1.20621333">
        <ele>754.0</ele>
        <time>2019-07-31T11:32:07.076Z</time>
      </trkpt>
      <trkpt lat="42.98630167" lon="-1.206195">
        <ele>754.0</ele>
        <time>2019-07-31T11:32:08.080Z</time>
      </trkpt>
      <trkpt lat="42.98629167" lon="-1.20618">
        <ele>754.0</ele>
        <time>2019-07-31T11:32:09.083Z</time>
      </trkpt>
      <trkpt lat="42.98627833" lon="-1.206165">
        <ele>753.0</ele>
        <time>2019-07-31T11:32:10.087Z</time>
      </trkpt>
      <trkpt lat="42.98626667" lon="-1.20615333">
        <ele>752.0</ele>
        <time>2019-07-31T11:32:11.092Z</time>
      </trkpt>
      <trkpt lat="42.98625667" lon="-1.20614333">
        <ele>751.0</ele>
        <time>2019-07-31T11:32:12.098Z</time>
      </trkpt>
      <trkpt lat="42.98624667" lon="-1.20613333">
        <ele>750.0</ele>
        <time>2019-07-31T11:32:13.106Z</time>
      </trkpt>
      <trkpt lat="42.98623667" lon="-1.206115">
        <ele>750.0</ele>
        <time>2019-07-31T11:32:14.113Z</time>
      </trkpt>
      <trkpt lat="42.986225" lon="-1.20610167">
        <ele>750.0</ele>
        <time>2019-07-31T11:32:15.116Z</time>
      </trkpt>
      <trkpt lat="42.986215" lon="-1.20608">
        <ele>750.0</ele>
        <time>2019-07-31T11:32:16.120Z</time>
      </trkpt>
      <trkpt lat="42.98621" lon="-1.20606167">
        <ele>750.0</ele>
        <time>2019-07-31T11:32:17.126Z</time>
      </trkpt>
      <trkpt lat="42.98620167" lon="-1.20603833">
        <ele>749.0</ele>
        <time>2019-07-31T11:32:18.131Z</time>
      </trkpt>
      <trkpt lat="42.98618833" lon="-1.20601667">
        <ele>749.0</ele>
        <time>2019-07-31T11:32:19.134Z</time>
      </trkpt>
      <trkpt lat="42.986175" lon="-1.206005">
        <ele>749.0</ele>
        <time>2019-07-31T11:32:20.142Z</time>
      </trkpt>
      <trkpt lat="42.98616333" lon="-1.20598667">
        <ele>749.0</ele>
        <time>2019-07-31T11:32:21.144Z</time>
      </trkpt>
      <trkpt lat="42.98615167" lon="-1.20596833">
        <ele>749.0</ele>
        <time>2019-07-31T11:32:22.148Z</time>
      </trkpt>
      <trkpt lat="42.98614333" lon="-1.20594667">
        <ele>748.0</ele>
        <time>2019-07-31T11:32:23.154Z</time>
      </trkpt>
      <trkpt lat="42.98613" lon="-1.205935">
        <ele>748.0</ele>
        <time>2019-07-31T11:32:24.159Z</time>
      </trkpt>
      <trkpt lat="42.98612167" lon="-1.20591333">
        <ele>747.0</ele>
        <time>2019-07-31T11:32:25.163Z</time>
      </trkpt>
      <trkpt lat="42.98610833" lon="-1.20589667">
        <ele>748.0</ele>
        <time>2019-07-31T11:32:26.169Z</time>
      </trkpt>
      <trkpt lat="42.98609833" lon="-1.20588167">
        <ele>748.0</ele>
        <time>2019-07-31T11:32:27.175Z</time>
      </trkpt>
      <trkpt lat="42.98608333" lon="-1.205865">
        <ele>747.0</ele>
        <time>2019-07-31T11:32:28.180Z</time>
      </trkpt>
      <trkpt lat="42.98607167" lon="-1.205845">
        <ele>747.0</ele>
        <time>2019-07-31T11:32:29.185Z</time>
      </trkpt>
      <trkpt lat="42.98606167" lon="-1.20582667">
        <ele>747.0</ele>
        <time>2019-07-31T11:32:30.065Z</time>
      </trkpt>
      <trkpt lat="42.98604333" lon="-1.20581167">
        <ele>747.0</ele>
        <time>2019-07-31T11:32:31.067Z</time>
      </trkpt>
      <trkpt lat="42.98603" lon="-1.20579333">
        <ele>746.0</ele>
        <time>2019-07-31T11:32:32.072Z</time>
      </trkpt>
      <trkpt lat="42.98602333" lon="-1.20577167">
        <ele>745.0</ele>
        <time>2019-07-31T11:32:33.077Z</time>
      </trkpt>
      <trkpt lat="42.98602" lon="-1.20574833">
        <ele>744.0</ele>
        <time>2019-07-31T11:32:34.083Z</time>
      </trkpt>
      <trkpt lat="42.986015" lon="-1.20572167">
        <ele>744.0</ele>
        <time>2019-07-31T11:32:35.090Z</time>
      </trkpt>
      <trkpt lat="42.98600667" lon="-1.20570833">
        <ele>743.0</ele>
        <time>2019-07-31T11:32:36.095Z</time>
      </trkpt>
      <trkpt lat="42.98599167" lon="-1.20569667">
        <ele>743.0</ele>
        <time>2019-07-31T11:32:37.103Z</time>
      </trkpt>
      <trkpt lat="42.985975" lon="-1.20568833">
        <ele>743.0</ele>
        <time>2019-07-31T11:32:38.110Z</time>
      </trkpt>
      <trkpt lat="42.98596" lon="-1.20568">
        <ele>742.0</ele>
        <time>2019-07-31T11:32:39.116Z</time>
      </trkpt>
      <trkpt lat="42.98594667" lon="-1.20567">
        <ele>742.0</ele>
        <time>2019-07-31T11:32:40.120Z</time>
      </trkpt>
      <trkpt lat="42.98593167" lon="-1.20566167">
        <ele>742.0</ele>
        <time>2019-07-31T11:32:41.127Z</time>
      </trkpt>
      <trkpt lat="42.98592" lon="-1.205645">
        <ele>742.0</ele>
        <time>2019-07-31T11:32:42.131Z</time>
      </trkpt>
      <trkpt lat="42.98590333" lon="-1.20563333">
        <ele>742.0</ele>
        <time>2019-07-31T11:32:43.137Z</time>
      </trkpt>
      <trkpt lat="42.98589" lon="-1.20562333">
        <ele>742.0</ele>
        <time>2019-07-31T11:32:44.143Z</time>
      </trkpt>
      <trkpt lat="42.98587333" lon="-1.20561333">
        <ele>741.0</ele>
        <time>2019-07-31T11:32:45.149Z</time>
      </trkpt>
      <trkpt lat="42.98586333" lon="-1.20560667">
        <ele>741.0</ele>
        <time>2019-07-31T11:32:46.156Z</time>
      </trkpt>
      <trkpt lat="42.98585" lon="-1.205595">
        <ele>740.0</ele>
        <time>2019-07-31T11:32:47.160Z</time>
      </trkpt>
      <trkpt lat="42.985835" lon="-1.205585">
        <ele>741.0</ele>
        <time>2019-07-31T11:32:48.166Z</time>
      </trkpt>
      <trkpt lat="42.98582333" lon="-1.20558167">
        <ele>742.0</ele>
        <time>2019-07-31T11:32:49.173Z</time>
      </trkpt>
      <trkpt lat="42.98581833" lon="-1.20558667">
        <ele>742.0</ele>
        <time>2019-07-31T11:32:50.179Z</time>
      </trkpt>
      <trkpt lat="42.98581667" lon="-1.20559">
        <ele>742.0</ele>
        <time>2019-07-31T11:32:51.186Z</time>
      </trkpt>
      <trkpt lat="42.98581333" lon="-1.20559167">
        <ele>742.0</ele>
        <time>2019-07-31T11:32:52.065Z</time>
      </trkpt>
      <trkpt lat="42.985805" lon="-1.20558667">
        <ele>743.0</ele>
        <time>2019-07-31T11:32:53.069Z</time>
      </trkpt>
      <trkpt lat="42.98579833" lon="-1.20558167">
        <ele>744.0</ele>
        <time>2019-07-31T11:32:54.074Z</time>
      </trkpt>
      <trkpt lat="42.98579" lon="-1.20558">
        <ele>744.0</ele>
        <time>2019-07-31T11:32:55.081Z</time>
      </trkpt>
      <trkpt lat="42.98578333" lon="-1.20558">
        <ele>744.0</ele>
        <time>2019-07-31T11:32:56.088Z</time>
      </trkpt>
      <trkpt lat="42.98577833" lon="-1.20557333">
        <ele>745.0</ele>
        <time>2019-07-31T11:32:57.095Z</time>
      </trkpt>
      <trkpt lat="42.98577333" lon="-1.205565">
        <ele>745.0</ele>
        <time>2019-07-31T11:32:58.101Z</time>
      </trkpt>
      <trkpt lat="42.985765" lon="-1.20556">
        <ele>745.0</ele>
        <time>2019-07-31T11:32:59.106Z</time>
      </trkpt>
      <trkpt lat="42.985755" lon="-1.20555667">
        <ele>745.0</ele>
        <time>2019-07-31T11:33:00.113Z</time>
      </trkpt>
      <trkpt lat="42.98574833" lon="-1.20555">
        <ele>745.0</ele>
        <time>2019-07-31T11:33:01.118Z</time>
      </trkpt>
      <trkpt lat="42.98573667" lon="-1.205545">
        <ele>745.0</ele>
        <time>2019-07-31T11:33:02.123Z</time>
      </trkpt>
      <trkpt lat="42.98573167" lon="-1.20554333">
        <ele>745.0</ele>
        <time>2019-07-31T11:33:03.129Z</time>
      </trkpt>
      <trkpt lat="42.98572833" lon="-1.20554167">
        <ele>745.0</ele>
        <time>2019-07-31T11:33:04.135Z</time>
      </trkpt>
      <trkpt lat="42.985725" lon="-1.20554">
        <ele>745.0</ele>
        <time>2019-07-31T11:33:05.140Z</time>
      </trkpt>
      <trkpt lat="42.98572333" lon="-1.20554">
        <ele>745.0</ele>
        <time>2019-07-31T11:33:06.145Z</time>
      </trkpt>
      <trkpt lat="42.98572" lon="-1.20554167">
        <ele>745.0</ele>
        <time>2019-07-31T11:33:07.151Z</time>
      </trkpt>
      <trkpt lat="42.98571667" lon="-1.20554333">
        <ele>745.0</ele>
        <time>2019-07-31T11:33:08.156Z</time>
      </trkpt>
      <trkpt lat="42.985715" lon="-1.20554167">
        <ele>746.0</ele>
        <time>2019-07-31T11:33:09.162Z</time>
      </trkpt>
      <trkpt lat="42.98571333" lon="-1.20554167">
        <ele>746.0</ele>
        <time>2019-07-31T11:33:10.169Z</time>
      </trkpt>
      <trkpt lat="42.98571333" lon="-1.20554167">
        <ele>746.0</ele>
        <time>2019-07-31T11:33:11.175Z</time>
      </trkpt>
      <trkpt lat="42.98571167" lon="-1.20554">
        <ele>746.0</ele>
        <time>2019-07-31T11:33:12.179Z</time>
      </trkpt>
      <trkpt lat="42.98571" lon="-1.20554">
        <ele>745.0</ele>
        <time>2019-07-31T11:33:13.183Z</time>
      </trkpt>
      <trkpt lat="42.98571167" lon="-1.20553833">
        <ele>745.0</ele>
        <time>2019-07-31T11:33:14.061Z</time>
      </trkpt>
      <trkpt lat="42.98570833" lon="-1.20553833">
        <ele>746.0</ele>
        <time>2019-07-31T11:33:15.067Z</time>
      </trkpt>
      <trkpt lat="42.98570667" lon="-1.20553667">
        <ele>746.0</ele>
        <time>2019-07-31T11:33:16.073Z</time>
      </trkpt>
      <trkpt lat="42.98570833" lon="-1.20553667">
        <ele>746.0</ele>
        <time>2019-07-31T11:33:17.079Z</time>
      </trkpt>
      <trkpt lat="42.98571" lon="-1.20554167">
        <ele>747.0</ele>
        <time>2019-07-31T11:33:18.083Z</time>
      </trkpt>
      <trkpt lat="42.98570833" lon="-1.20554333">
        <ele>747.0</ele>
        <time>2019-07-31T11:33:19.087Z</time>
      </trkpt>
      <trkpt lat="42.98570833" lon="-1.205545">
        <ele>747.0</ele>
        <time>2019-07-31T11:33:20.091Z</time>
      </trkpt>
      <trkpt lat="42.98570667" lon="-1.20554333">
        <ele>747.0</ele>
        <time>2019-07-31T11:33:21.096Z</time>
      </trkpt>
      <trkpt lat="42.98570667" lon="-1.205545">
        <ele>747.0</ele>
        <time>2019-07-31T11:33:22.101Z</time>
      </trkpt>
      <trkpt lat="42.98570333" lon="-1.20555">
        <ele>749.0</ele>
        <time>2019-07-31T11:33:23.106Z</time>
      </trkpt>
      <trkpt lat="42.9857" lon="-1.20555833">
        <ele>750.0</ele>
        <time>2019-07-31T11:33:24.112Z</time>
      </trkpt>
      <trkpt lat="42.98569833" lon="-1.20555833">
        <ele>750.0</ele>
        <time>2019-07-31T11:33:25.117Z</time>
      </trkpt>
      <trkpt lat="42.985695" lon="-1.20555833">
        <ele>752.0</ele>
        <time>2019-07-31T11:33:26.124Z</time>
      </trkpt>
      <trkpt lat="42.98569" lon="-1.205555">
        <ele>752.0</ele>
        <time>2019-07-31T11:33:27.130Z</time>
      </trkpt>
      <trkpt lat="42.98569" lon="-1.20555">
        <ele>752.0</ele>
        <time>2019-07-31T11:33:28.136Z</time>
      </trkpt>
      <trkpt lat="42.98569" lon="-1.20554833">
        <ele>752.0</ele>
        <time>2019-07-31T11:33:29.142Z</time>
      </trkpt>
      <trkpt lat="42.98568833" lon="-1.20554833">
        <ele>753.0</ele>
        <time>2019-07-31T11:33:30.148Z</time>
      </trkpt>
      <trkpt lat="42.98569" lon="-1.205545">
        <ele>752.0</ele>
        <time>2019-07-31T11:33:31.150Z</time>
      </trkpt>
      <trkpt lat="42.98569" lon="-1.205545">
        <ele>752.0</ele>
        <time>2019-07-31T11:33:32.157Z</time>
      </trkpt>
      <trkpt lat="42.98569" lon="-1.20554833">
        <ele>752.0</ele>
        <time>2019-07-31T11:33:33.161Z</time>
      </trkpt>
      <trkpt lat="42.98568667" lon="-1.20555">
        <ele>752.0</ele>
        <time>2019-07-31T11:33:34.167Z</time>
      </trkpt>
      <trkpt lat="42.98568667" lon="-1.20555167">
        <ele>752.0</ele>
        <time>2019-07-31T11:33:35.170Z</time>
      </trkpt>
      <trkpt lat="42.985685" lon="-1.20554833">
        <ele>752.0</ele>
        <time>2019-07-31T11:33:36.174Z</time>
      </trkpt>
      <trkpt lat="42.985685" lon="-1.205545">
        <ele>751.0</ele>
        <time>2019-07-31T11:33:37.179Z</time>
      </trkpt>
      <trkpt lat="42.98569" lon="-1.20554333">
        <ele>751.0</ele>
        <time>2019-07-31T11:33:38.185Z</time>
      </trkpt>
      <trkpt lat="42.98569" lon="-1.20554667">
        <ele>751.0</ele>
        <time>2019-07-31T11:33:39.065Z</time>
      </trkpt>
      <trkpt lat="42.98569333" lon="-1.205545">
        <ele>750.0</ele>
        <time>2019-07-31T11:33:40.071Z</time>
      </trkpt>
      <trkpt lat="42.98569167" lon="-1.20554667">
        <ele>750.0</ele>
        <time>2019-07-31T11:33:41.076Z</time>
      </trkpt>
      <trkpt lat="42.98569" lon="-1.205545">
        <ele>750.0</ele>
        <time>2019-07-31T11:33:42.079Z</time>
      </trkpt>
      <trkpt lat="42.98569" lon="-1.20554333">
        <ele>750.0</ele>
        <time>2019-07-31T11:33:43.085Z</time>
      </trkpt>
      <trkpt lat="42.98568833" lon="-1.20554167">
        <ele>750.0</ele>
        <time>2019-07-31T11:33:44.091Z</time>
      </trkpt>
      <trkpt lat="42.98568667" lon="-1.20554333">
        <ele>750.0</ele>
        <time>2019-07-31T11:33:45.097Z</time>
      </trkpt>
      <trkpt lat="42.98568833" lon="-1.205545">
        <ele>749.0</ele>
        <time>2019-07-31T11:33:46.101Z</time>
      </trkpt>
      <trkpt lat="42.98569" lon="-1.20554833">
        <ele>749.0</ele>
        <time>2019-07-31T11:33:47.105Z</time>
      </trkpt>
      <trkpt lat="42.98568833" lon="-1.20555333">
        <ele>749.0</ele>
        <time>2019-07-31T11:33:48.112Z</time>
      </trkpt>
      <trkpt lat="42.98569167" lon="-1.205555">
        <ele>748.0</ele>
        <time>2019-07-31T11:33:49.119Z</time>
      </trkpt>
      <trkpt lat="42.98569167" lon="-1.20555333">
        <ele>748.0</ele>
        <time>2019-07-31T11:33:50.125Z</time>
      </trkpt>
      <trkpt lat="42.98569167" lon="-1.20555333">
        <ele>749.0</ele>
        <time>2019-07-31T11:33:51.131Z</time>
      </trkpt>
      <trkpt lat="42.985695" lon="-1.20555333">
        <ele>749.0</ele>
        <time>2019-07-31T11:33:52.136Z</time>
      </trkpt>
      <trkpt lat="42.985695" lon="-1.20555333">
        <ele>749.0</ele>
        <time>2019-07-31T11:33:53.141Z</time>
      </trkpt>
      <trkpt lat="42.98569333" lon="-1.20555333">
        <ele>749.0</ele>
        <time>2019-07-31T11:33:54.144Z</time>
      </trkpt>
      <trkpt lat="42.98569167" lon="-1.20555333">
        <ele>750.0</ele>
        <time>2019-07-31T11:33:55.147Z</time>
      </trkpt>
      <trkpt lat="42.98569167" lon="-1.20555">
        <ele>751.0</ele>
        <time>2019-07-31T11:33:56.152Z</time>
      </trkpt>
      <trkpt lat="42.98569" lon="-1.20555">
        <ele>751.0</ele>
        <time>2019-07-31T11:33:57.157Z</time>
      </trkpt>
      <trkpt lat="42.98568833" lon="-1.20555333">
        <ele>751.0</ele>
        <time>2019-07-31T11:33:58.163Z</time>
      </trkpt>
      <trkpt lat="42.98568" lon="-1.20556167">
        <ele>752.0</ele>
        <time>2019-07-31T11:33:59.169Z</time>
      </trkpt>
      <trkpt lat="42.98567667" lon="-1.20556833">
        <ele>753.0</ele>
        <time>2019-07-31T11:34:00.173Z</time>
      </trkpt>
      <trkpt lat="42.98567" lon="-1.205575">
        <ele>754.0</ele>
        <time>2019-07-31T11:34:01.179Z</time>
      </trkpt>
      <trkpt lat="42.985665" lon="-1.20558167">
        <ele>755.0</ele>
        <time>2019-07-31T11:34:02.185Z</time>
      </trkpt>
      <trkpt lat="42.98566" lon="-1.205585">
        <ele>756.0</ele>
        <time>2019-07-31T11:34:03.065Z</time>
      </trkpt>
      <trkpt lat="42.98565667" lon="-1.205585">
        <ele>756.0</ele>
        <time>2019-07-31T11:34:04.071Z</time>
      </trkpt>
      <trkpt lat="42.98565333" lon="-1.205585">
        <ele>757.0</ele>
        <time>2019-07-31T11:34:05.076Z</time>
      </trkpt>
      <trkpt lat="42.98565" lon="-1.20558333">
        <ele>757.0</ele>
        <time>2019-07-31T11:34:06.082Z</time>
      </trkpt>
      <trkpt lat="42.98565167" lon="-1.20557833">
        <ele>757.0</ele>
        <time>2019-07-31T11:34:07.086Z</time>
      </trkpt>
      <trkpt lat="42.98565333" lon="-1.20557">
        <ele>757.0</ele>
        <time>2019-07-31T11:34:08.092Z</time>
      </trkpt>
      <trkpt lat="42.98565" lon="-1.20556833">
        <ele>756.0</ele>
        <time>2019-07-31T11:34:09.099Z</time>
      </trkpt>
      <trkpt lat="42.98564833" lon="-1.20556333">
        <ele>756.0</ele>
        <time>2019-07-31T11:34:10.106Z</time>
      </trkpt>
      <trkpt lat="42.98565" lon="-1.205565">
        <ele>756.0</ele>
        <time>2019-07-31T11:34:11.112Z</time>
      </trkpt>
      <trkpt lat="42.98565833" lon="-1.20557167">
        <ele>755.0</ele>
        <time>2019-07-31T11:34:12.115Z</time>
      </trkpt>
      <trkpt lat="42.98565833" lon="-1.205575">
        <ele>755.0</ele>
        <time>2019-07-31T11:34:13.122Z</time>
      </trkpt>
      <trkpt lat="42.98566167" lon="-1.205575">
        <ele>755.0</ele>
        <time>2019-07-31T11:34:14.128Z</time>
      </trkpt>
      <trkpt lat="42.98566" lon="-1.20557667">
        <ele>754.0</ele>
        <time>2019-07-31T11:34:15.134Z</time>
      </trkpt>
      <trkpt lat="42.98565833" lon="-1.205575">
        <ele>754.0</ele>
        <time>2019-07-31T11:34:16.141Z</time>
      </trkpt>
      <trkpt lat="42.985655" lon="-1.20557333">
        <ele>754.0</ele>
        <time>2019-07-31T11:34:17.146Z</time>
      </trkpt>
      <trkpt lat="42.98565167" lon="-1.20557333">
        <ele>754.0</ele>
        <time>2019-07-31T11:34:18.152Z</time>
      </trkpt>
      <trkpt lat="42.98565167" lon="-1.20557667">
        <ele>753.0</ele>
        <time>2019-07-31T11:34:19.158Z</time>
      </trkpt>
      <trkpt lat="42.985655" lon="-1.205575">
        <ele>753.0</ele>
        <time>2019-07-31T11:34:20.163Z</time>
      </trkpt>
      <trkpt lat="42.98565333" lon="-1.205575">
        <ele>752.0</ele>
        <time>2019-07-31T11:34:21.170Z</time>
      </trkpt>
      <trkpt lat="42.985655" lon="-1.20557167">
        <ele>752.0</ele>
        <time>2019-07-31T11:34:22.174Z</time>
      </trkpt>
      <trkpt lat="42.98565333" lon="-1.20557333">
        <ele>752.0</ele>
        <time>2019-07-31T11:34:23.177Z</time>
      </trkpt>
      <trkpt lat="42.98565" lon="-1.20557833">
        <ele>752.0</ele>
        <time>2019-07-31T11:34:24.182Z</time>
      </trkpt>
      <trkpt lat="42.985645" lon="-1.20558">
        <ele>753.0</ele>
        <time>2019-07-31T11:34:25.061Z</time>
      </trkpt>
      <trkpt lat="42.98564167" lon="-1.20557833">
        <ele>753.0</ele>
        <time>2019-07-31T11:34:26.067Z</time>
      </trkpt>
      <trkpt lat="42.98564" lon="-1.20557833">
        <ele>754.0</ele>
        <time>2019-07-31T11:34:27.073Z</time>
      </trkpt>
      <trkpt lat="42.98564167" lon="-1.20557667">
        <ele>754.0</ele>
        <time>2019-07-31T11:34:28.076Z</time>
      </trkpt>
      <trkpt lat="42.98564667" lon="-1.20557167">
        <ele>753.0</ele>
        <time>2019-07-31T11:34:29.078Z</time>
      </trkpt>
      <trkpt lat="42.98564833" lon="-1.20557167">
        <ele>753.0</ele>
        <time>2019-07-31T11:34:30.082Z</time>
      </trkpt>
      <trkpt lat="42.98565167" lon="-1.20557333">
        <ele>754.0</ele>
        <time>2019-07-31T11:34:31.088Z</time>
      </trkpt>
      <trkpt lat="42.98565167" lon="-1.20557667">
        <ele>754.0</ele>
        <time>2019-07-31T11:34:32.093Z</time>
      </trkpt>
      <trkpt lat="42.98565333" lon="-1.20558">
        <ele>754.0</ele>
        <time>2019-07-31T11:34:33.098Z</time>
      </trkpt>
      <trkpt lat="42.98565833" lon="-1.205575">
        <ele>755.0</ele>
        <time>2019-07-31T11:34:34.104Z</time>
      </trkpt>
      <trkpt lat="42.98566" lon="-1.20557">
        <ele>755.0</ele>
        <time>2019-07-31T11:34:35.110Z</time>
      </trkpt>
      <trkpt lat="42.98566" lon="-1.20556667">
        <ele>755.0</ele>
        <time>2019-07-31T11:34:36.115Z</time>
      </trkpt>
      <trkpt lat="42.98566167" lon="-1.20556333">
        <ele>755.0</ele>
        <time>2019-07-31T11:34:37.119Z</time>
      </trkpt>
      <trkpt lat="42.98565833" lon="-1.20556333">
        <ele>754.0</ele>
        <time>2019-07-31T11:34:38.123Z</time>
      </trkpt>
      <trkpt lat="42.98565667" lon="-1.20555833">
        <ele>754.0</ele>
        <time>2019-07-31T11:34:39.125Z</time>
      </trkpt>
      <trkpt lat="42.985655" lon="-1.20555167">
        <ele>754.0</ele>
        <time>2019-07-31T11:34:40.130Z</time>
      </trkpt>
      <trkpt lat="42.98565" lon="-1.20554333">
        <ele>753.0</ele>
        <time>2019-07-31T11:34:41.136Z</time>
      </trkpt>
      <trkpt lat="42.98564333" lon="-1.20553333">
        <ele>753.0</ele>
        <time>2019-07-31T11:34:42.143Z</time>
      </trkpt>
      <trkpt lat="42.98563833" lon="-1.20552667">
        <ele>752.0</ele>
        <time>2019-07-31T11:34:43.148Z</time>
      </trkpt>
      <trkpt lat="42.98563167" lon="-1.20551833">
        <ele>751.0</ele>
        <time>2019-07-31T11:34:44.154Z</time>
      </trkpt>
      <trkpt lat="42.985625" lon="-1.20551">
        <ele>751.0</ele>
        <time>2019-07-31T11:34:45.159Z</time>
      </trkpt>
      <trkpt lat="42.98561333" lon="-1.2055">
        <ele>751.0</ele>
        <time>2019-07-31T11:34:46.164Z</time>
      </trkpt>
      <trkpt lat="42.98560167" lon="-1.205485">
        <ele>751.0</ele>
        <time>2019-07-31T11:34:47.170Z</time>
      </trkpt>
      <trkpt lat="42.98559" lon="-1.205475">
        <ele>750.0</ele>
        <time>2019-07-31T11:34:48.174Z</time>
      </trkpt>
      <trkpt lat="42.98557667" lon="-1.20547">
        <ele>749.0</ele>
        <time>2019-07-31T11:34:49.177Z</time>
      </trkpt>
      <trkpt lat="42.98556833" lon="-1.20546167">
        <ele>748.0</ele>
        <time>2019-07-31T11:34:50.181Z</time>
      </trkpt>
      <trkpt lat="42.985555" lon="-1.20545167">
        <ele>747.0</ele>
        <time>2019-07-31T11:34:51.061Z</time>
      </trkpt>
      <trkpt lat="42.98554167" lon="-1.20544333">
        <ele>747.0</ele>
        <time>2019-07-31T11:34:52.069Z</time>
      </trkpt>
      <trkpt lat="42.98553333" lon="-1.20543833">
        <ele>747.0</ele>
        <time>2019-07-31T11:34:53.075Z</time>
      </trkpt>
      <trkpt lat="42.98552333" lon="-1.20543">
        <ele>747.0</ele>
        <time>2019-07-31T11:34:54.081Z</time>
      </trkpt>
      <trkpt lat="42.985515" lon="-1.20542">
        <ele>747.0</ele>
        <time>2019-07-31T11:34:55.088Z</time>
      </trkpt>
      <trkpt lat="42.98551333" lon="-1.20540667">
        <ele>747.0</ele>
        <time>2019-07-31T11:34:56.094Z</time>
      </trkpt>
      <trkpt lat="42.98550833" lon="-1.20539333">
        <ele>746.0</ele>
        <time>2019-07-31T11:34:57.099Z</time>
      </trkpt>
      <trkpt lat="42.98550333" lon="-1.20538667">
        <ele>746.0</ele>
        <time>2019-07-31T11:34:58.103Z</time>
      </trkpt>
      <trkpt lat="42.98549333" lon="-1.20537333">
        <ele>745.0</ele>
        <time>2019-07-31T11:34:59.104Z</time>
      </trkpt>
      <trkpt lat="42.98547833" lon="-1.20535833">
        <ele>744.0</ele>
        <time>2019-07-31T11:35:00.107Z</time>
      </trkpt>
      <trkpt lat="42.98546667" lon="-1.20534833">
        <ele>744.0</ele>
        <time>2019-07-31T11:35:01.112Z</time>
      </trkpt>
      <trkpt lat="42.985455" lon="-1.20533833">
        <ele>743.0</ele>
        <time>2019-07-31T11:35:02.117Z</time>
      </trkpt>
      <trkpt lat="42.98544" lon="-1.205325">
        <ele>743.0</ele>
        <time>2019-07-31T11:35:03.120Z</time>
      </trkpt>
      <trkpt lat="42.98542833" lon="-1.20530667">
        <ele>744.0</ele>
        <time>2019-07-31T11:35:04.123Z</time>
      </trkpt>
      <trkpt lat="42.985415" lon="-1.20529">
        <ele>744.0</ele>
        <time>2019-07-31T11:35:05.127Z</time>
      </trkpt>
      <trkpt lat="42.98539833" lon="-1.20527667">
        <ele>744.0</ele>
        <time>2019-07-31T11:35:06.133Z</time>
      </trkpt>
      <trkpt lat="42.98538333" lon="-1.20526833">
        <ele>745.0</ele>
        <time>2019-07-31T11:35:07.139Z</time>
      </trkpt>
      <trkpt lat="42.98536833" lon="-1.20525667">
        <ele>744.0</ele>
        <time>2019-07-31T11:35:08.144Z</time>
      </trkpt>
      <trkpt lat="42.98535667" lon="-1.20524333">
        <ele>744.0</ele>
        <time>2019-07-31T11:35:09.150Z</time>
      </trkpt>
      <trkpt lat="42.98534333" lon="-1.20522833">
        <ele>744.0</ele>
        <time>2019-07-31T11:35:10.154Z</time>
      </trkpt>
      <trkpt lat="42.98533333" lon="-1.20521">
        <ele>743.0</ele>
        <time>2019-07-31T11:35:11.159Z</time>
      </trkpt>
      <trkpt lat="42.98531833" lon="-1.20519667">
        <ele>743.0</ele>
        <time>2019-07-31T11:35:12.163Z</time>
      </trkpt>
      <trkpt lat="42.98530833" lon="-1.20518833">
        <ele>743.0</ele>
        <time>2019-07-31T11:35:13.169Z</time>
      </trkpt>
      <trkpt lat="42.985295" lon="-1.20517833">
        <ele>743.0</ele>
        <time>2019-07-31T11:35:14.172Z</time>
      </trkpt>
      <trkpt lat="42.98528333" lon="-1.20516667">
        <ele>743.0</ele>
        <time>2019-07-31T11:35:15.179Z</time>
      </trkpt>
      <trkpt lat="42.985275" lon="-1.20515333">
        <ele>743.0</ele>
        <time>2019-07-31T11:35:16.185Z</time>
      </trkpt>
      <trkpt lat="42.98527" lon="-1.20514167">
        <ele>744.0</ele>
        <time>2019-07-31T11:35:17.065Z</time>
      </trkpt>
      <trkpt lat="42.98526667" lon="-1.20513333">
        <ele>744.0</ele>
        <time>2019-07-31T11:35:18.070Z</time>
      </trkpt>
      <trkpt lat="42.98526167" lon="-1.20511833">
        <ele>744.0</ele>
        <time>2019-07-31T11:35:19.075Z</time>
      </trkpt>
      <trkpt lat="42.98525833" lon="-1.20509833">
        <ele>743.0</ele>
        <time>2019-07-31T11:35:20.076Z</time>
      </trkpt>
      <trkpt lat="42.985255" lon="-1.20508167">
        <ele>742.0</ele>
        <time>2019-07-31T11:35:21.081Z</time>
      </trkpt>
      <trkpt lat="42.98524667" lon="-1.205065">
        <ele>741.0</ele>
        <time>2019-07-31T11:35:22.088Z</time>
      </trkpt>
      <trkpt lat="42.98523667" lon="-1.20505167">
        <ele>741.0</ele>
        <time>2019-07-31T11:35:23.095Z</time>
      </trkpt>
      <trkpt lat="42.98523" lon="-1.20503667">
        <ele>740.0</ele>
        <time>2019-07-31T11:35:24.102Z</time>
      </trkpt>
      <trkpt lat="42.98521833" lon="-1.20502167">
        <ele>740.0</ele>
        <time>2019-07-31T11:35:25.107Z</time>
      </trkpt>
      <trkpt lat="42.98520667" lon="-1.20500667">
        <ele>740.0</ele>
        <time>2019-07-31T11:35:26.112Z</time>
      </trkpt>
      <trkpt lat="42.98519333" lon="-1.20499">
        <ele>740.0</ele>
        <time>2019-07-31T11:35:27.117Z</time>
      </trkpt>
      <trkpt lat="42.98517833" lon="-1.20497333">
        <ele>740.0</ele>
        <time>2019-07-31T11:35:28.123Z</time>
      </trkpt>
      <trkpt lat="42.985165" lon="-1.20495667">
        <ele>741.0</ele>
        <time>2019-07-31T11:35:29.129Z</time>
      </trkpt>
      <trkpt lat="42.98515333" lon="-1.20493833">
        <ele>740.0</ele>
        <time>2019-07-31T11:35:30.137Z</time>
      </trkpt>
      <trkpt lat="42.98514333" lon="-1.204915">
        <ele>740.0</ele>
        <time>2019-07-31T11:35:31.141Z</time>
      </trkpt>
      <trkpt lat="42.98513667" lon="-1.204895">
        <ele>740.0</ele>
        <time>2019-07-31T11:35:32.144Z</time>
      </trkpt>
      <trkpt lat="42.98512833" lon="-1.20487667">
        <ele>740.0</ele>
        <time>2019-07-31T11:35:33.148Z</time>
      </trkpt>
      <trkpt lat="42.98511833" lon="-1.20485833">
        <ele>740.0</ele>
        <time>2019-07-31T11:35:34.156Z</time>
      </trkpt>
      <trkpt lat="42.98510667" lon="-1.20484167">
        <ele>740.0</ele>
        <time>2019-07-31T11:35:35.159Z</time>
      </trkpt>
      <trkpt lat="42.98509833" lon="-1.20482">
        <ele>740.0</ele>
        <time>2019-07-31T11:35:36.163Z</time>
      </trkpt>
      <trkpt lat="42.98509" lon="-1.20480333">
        <ele>740.0</ele>
        <time>2019-07-31T11:35:37.169Z</time>
      </trkpt>
      <trkpt lat="42.98508333" lon="-1.204785">
        <ele>740.0</ele>
        <time>2019-07-31T11:35:38.173Z</time>
      </trkpt>
      <trkpt lat="42.985075" lon="-1.20476833">
        <ele>741.0</ele>
        <time>2019-07-31T11:35:39.178Z</time>
      </trkpt>
      <trkpt lat="42.98506667" lon="-1.20475167">
        <ele>741.0</ele>
        <time>2019-07-31T11:35:40.184Z</time>
      </trkpt>
      <trkpt lat="42.985055" lon="-1.20473333">
        <ele>741.0</ele>
        <time>2019-07-31T11:35:41.064Z</time>
      </trkpt>
      <trkpt lat="42.985045" lon="-1.20471667">
        <ele>742.0</ele>
        <time>2019-07-31T11:35:42.069Z</time>
      </trkpt>
      <trkpt lat="42.985035" lon="-1.2047">
        <ele>742.0</ele>
        <time>2019-07-31T11:35:43.074Z</time>
      </trkpt>
      <trkpt lat="42.985025" lon="-1.20468167">
        <ele>742.0</ele>
        <time>2019-07-31T11:35:44.078Z</time>
      </trkpt>
      <trkpt lat="42.98501833" lon="-1.20466333">
        <ele>742.0</ele>
        <time>2019-07-31T11:35:45.083Z</time>
      </trkpt>
      <trkpt lat="42.98501" lon="-1.20464333">
        <ele>743.0</ele>
        <time>2019-07-31T11:35:46.090Z</time>
      </trkpt>
      <trkpt lat="42.98499833" lon="-1.20462167">
        <ele>743.0</ele>
        <time>2019-07-31T11:35:47.096Z</time>
      </trkpt>
      <trkpt lat="42.98498833" lon="-1.20460167">
        <ele>743.0</ele>
        <time>2019-07-31T11:35:48.101Z</time>
      </trkpt>
      <trkpt lat="42.98497833" lon="-1.20458833">
        <ele>743.0</ele>
        <time>2019-07-31T11:35:49.104Z</time>
      </trkpt>
      <trkpt lat="42.98496667" lon="-1.20457333">
        <ele>743.0</ele>
        <time>2019-07-31T11:35:50.107Z</time>
      </trkpt>
      <trkpt lat="42.984955" lon="-1.20455833">
        <ele>743.0</ele>
        <time>2019-07-31T11:35:51.111Z</time>
      </trkpt>
      <trkpt lat="42.98494333" lon="-1.20454667">
        <ele>743.0</ele>
        <time>2019-07-31T11:35:52.117Z</time>
      </trkpt>
      <trkpt lat="42.98493167" lon="-1.20453833">
        <ele>743.0</ele>
        <time>2019-07-31T11:35:53.123Z</time>
      </trkpt>
      <trkpt lat="42.98492167" lon="-1.20453167">
        <ele>743.0</ele>
        <time>2019-07-31T11:35:54.129Z</time>
      </trkpt>
      <trkpt lat="42.98491333" lon="-1.20452333">
        <ele>743.0</ele>
        <time>2019-07-31T11:35:55.136Z</time>
      </trkpt>
      <trkpt lat="42.984905" lon="-1.20451333">
        <ele>743.0</ele>
        <time>2019-07-31T11:35:56.140Z</time>
      </trkpt>
      <trkpt lat="42.98489833" lon="-1.204505">
        <ele>742.0</ele>
        <time>2019-07-31T11:35:57.144Z</time>
      </trkpt>
      <trkpt lat="42.98489" lon="-1.20449667">
        <ele>742.0</ele>
        <time>2019-07-31T11:35:58.149Z</time>
      </trkpt>
      <trkpt lat="42.98488" lon="-1.204485">
        <ele>741.0</ele>
        <time>2019-07-31T11:35:59.157Z</time>
      </trkpt>
      <trkpt lat="42.98487167" lon="-1.20447667">
        <ele>741.0</ele>
        <time>2019-07-31T11:36:00.162Z</time>
      </trkpt>
      <trkpt lat="42.98486333" lon="-1.20447333">
        <ele>741.0</ele>
        <time>2019-07-31T11:36:01.169Z</time>
      </trkpt>
      <trkpt lat="42.98485667" lon="-1.204465">
        <ele>741.0</ele>
        <time>2019-07-31T11:36:02.175Z</time>
      </trkpt>
      <trkpt lat="42.98485" lon="-1.20445333">
        <ele>740.0</ele>
        <time>2019-07-31T11:36:03.177Z</time>
      </trkpt>
      <trkpt lat="42.98483833" lon="-1.20444">
        <ele>739.0</ele>
        <time>2019-07-31T11:36:04.180Z</time>
      </trkpt>
      <trkpt lat="42.98482833" lon="-1.20442833">
        <ele>739.0</ele>
        <time>2019-07-31T11:36:05.184Z</time>
      </trkpt>
      <trkpt lat="42.98482333" lon="-1.204415">
        <ele>738.0</ele>
        <time>2019-07-31T11:36:06.064Z</time>
      </trkpt>
      <trkpt lat="42.98481833" lon="-1.20440333">
        <ele>737.0</ele>
        <time>2019-07-31T11:36:07.070Z</time>
      </trkpt>
      <trkpt lat="42.98481167" lon="-1.20438833">
        <ele>737.0</ele>
        <time>2019-07-31T11:36:08.074Z</time>
      </trkpt>
      <trkpt lat="42.98480333" lon="-1.20437167">
        <ele>737.0</ele>
        <time>2019-07-31T11:36:09.079Z</time>
      </trkpt>
      <trkpt lat="42.9848" lon="-1.20435">
        <ele>736.0</ele>
        <time>2019-07-31T11:36:10.087Z</time>
      </trkpt>
      <trkpt lat="42.9848" lon="-1.204335">
        <ele>736.0</ele>
        <time>2019-07-31T11:36:11.093Z</time>
      </trkpt>
      <trkpt lat="42.98480167" lon="-1.20432667">
        <ele>736.0</ele>
        <time>2019-07-31T11:36:12.100Z</time>
      </trkpt>
      <trkpt lat="42.98480333" lon="-1.20430667">
        <ele>735.0</ele>
        <time>2019-07-31T11:36:13.107Z</time>
      </trkpt>
      <trkpt lat="42.984795" lon="-1.2043">
        <ele>735.0</ele>
        <time>2019-07-31T11:36:14.113Z</time>
      </trkpt>
      <trkpt lat="42.98478833" lon="-1.20429167">
        <ele>735.0</ele>
        <time>2019-07-31T11:36:15.114Z</time>
      </trkpt>
      <trkpt lat="42.98478667" lon="-1.20428167">
        <ele>734.0</ele>
        <time>2019-07-31T11:36:16.121Z</time>
      </trkpt>
      <trkpt lat="42.98478833" lon="-1.20427">
        <ele>733.0</ele>
        <time>2019-07-31T11:36:17.127Z</time>
      </trkpt>
      <trkpt lat="42.98479167" lon="-1.20426167">
        <ele>733.0</ele>
        <time>2019-07-31T11:36:18.133Z</time>
      </trkpt>
      <trkpt lat="42.984795" lon="-1.20425">
        <ele>732.0</ele>
        <time>2019-07-31T11:36:19.136Z</time>
      </trkpt>
      <trkpt lat="42.98480667" lon="-1.20424167">
        <ele>733.0</ele>
        <time>2019-07-31T11:36:20.139Z</time>
      </trkpt>
      <trkpt lat="42.98481667" lon="-1.20423167">
        <ele>734.0</ele>
        <time>2019-07-31T11:36:21.143Z</time>
      </trkpt>
      <trkpt lat="42.984825" lon="-1.20422333">
        <ele>735.0</ele>
        <time>2019-07-31T11:36:22.149Z</time>
      </trkpt>
      <trkpt lat="42.98483167" lon="-1.20422">
        <ele>736.0</ele>
        <time>2019-07-31T11:36:23.156Z</time>
      </trkpt>
      <trkpt lat="42.984835" lon="-1.20422333">
        <ele>737.0</ele>
        <time>2019-07-31T11:36:24.161Z</time>
      </trkpt>
      <trkpt lat="42.98483833" lon="-1.20422333">
        <ele>737.0</ele>
        <time>2019-07-31T11:36:25.166Z</time>
      </trkpt>
      <trkpt lat="42.98484167" lon="-1.20422">
        <ele>738.0</ele>
        <time>2019-07-31T11:36:26.172Z</time>
      </trkpt>
      <trkpt lat="42.984845" lon="-1.20421833">
        <ele>739.0</ele>
        <time>2019-07-31T11:36:27.178Z</time>
      </trkpt>
      <trkpt lat="42.98484833" lon="-1.20421833">
        <ele>739.0</ele>
        <time>2019-07-31T11:36:28.182Z</time>
      </trkpt>
      <trkpt lat="42.98485333" lon="-1.20422">
        <ele>740.0</ele>
        <time>2019-07-31T11:36:29.062Z</time>
      </trkpt>
      <trkpt lat="42.98486167" lon="-1.20422">
        <ele>741.0</ele>
        <time>2019-07-31T11:36:30.069Z</time>
      </trkpt>
      <trkpt lat="42.98486667" lon="-1.20421833">
        <ele>741.0</ele>
        <time>2019-07-31T11:36:31.074Z</time>
      </trkpt>
      <trkpt lat="42.984875" lon="-1.20421833">
        <ele>742.0</ele>
        <time>2019-07-31T11:36:32.078Z</time>
      </trkpt>
      <trkpt lat="42.98488" lon="-1.20421833">
        <ele>742.0</ele>
        <time>2019-07-31T11:36:33.083Z</time>
      </trkpt>
      <trkpt lat="42.98488667" lon="-1.20422167">
        <ele>743.0</ele>
        <time>2019-07-31T11:36:34.084Z</time>
      </trkpt>
      <trkpt lat="42.98489333" lon="-1.204225">
        <ele>743.0</ele>
        <time>2019-07-31T11:36:35.085Z</time>
      </trkpt>
      <trkpt lat="42.98489833" lon="-1.20423">
        <ele>744.0</ele>
        <time>2019-07-31T11:36:36.087Z</time>
      </trkpt>
      <trkpt lat="42.98490333" lon="-1.204235">
        <ele>745.0</ele>
        <time>2019-07-31T11:36:37.088Z</time>
      </trkpt>
      <trkpt lat="42.98490833" lon="-1.20423667">
        <ele>746.0</ele>
        <time>2019-07-31T11:36:38.090Z</time>
      </trkpt>
      <trkpt lat="42.98491667" lon="-1.20424">
        <ele>747.0</ele>
        <time>2019-07-31T11:36:39.093Z</time>
      </trkpt>
      <trkpt lat="42.984925" lon="-1.20424167">
        <ele>747.0</ele>
        <time>2019-07-31T11:36:40.099Z</time>
      </trkpt>
      <trkpt lat="42.98492833" lon="-1.20424167">
        <ele>747.0</ele>
        <time>2019-07-31T11:36:41.105Z</time>
      </trkpt>
      <trkpt lat="42.98493" lon="-1.204245">
        <ele>748.0</ele>
        <time>2019-07-31T11:36:42.110Z</time>
      </trkpt>
      <trkpt lat="42.98493" lon="-1.20424833">
        <ele>749.0</ele>
        <time>2019-07-31T11:36:43.116Z</time>
      </trkpt>
      <trkpt lat="42.98492833" lon="-1.20425333">
        <ele>750.0</ele>
        <time>2019-07-31T11:36:44.121Z</time>
      </trkpt>
      <trkpt lat="42.98492667" lon="-1.20425833">
        <ele>750.0</ele>
        <time>2019-07-31T11:36:45.125Z</time>
      </trkpt>
      <trkpt lat="42.98492667" lon="-1.20426333">
        <ele>751.0</ele>
        <time>2019-07-31T11:36:46.133Z</time>
      </trkpt>
      <trkpt lat="42.984925" lon="-1.20426667">
        <ele>753.0</ele>
        <time>2019-07-31T11:36:47.138Z</time>
      </trkpt>
      <trkpt lat="42.984925" lon="-1.204265">
        <ele>754.0</ele>
        <time>2019-07-31T11:36:48.143Z</time>
      </trkpt>
      <trkpt lat="42.984925" lon="-1.20426667">
        <ele>755.0</ele>
        <time>2019-07-31T11:36:49.146Z</time>
      </trkpt>
      <trkpt lat="42.98492167" lon="-1.20427333">
        <ele>756.0</ele>
        <time>2019-07-31T11:36:50.151Z</time>
      </trkpt>
      <trkpt lat="42.98491667" lon="-1.20427667">
        <ele>756.0</ele>
        <time>2019-07-31T11:36:51.156Z</time>
      </trkpt>
      <trkpt lat="42.98491167" lon="-1.20427667">
        <ele>756.0</ele>
        <time>2019-07-31T11:36:52.159Z</time>
      </trkpt>
      <trkpt lat="42.98491" lon="-1.20428167">
        <ele>757.0</ele>
        <time>2019-07-31T11:36:53.164Z</time>
      </trkpt>
      <trkpt lat="42.98490833" lon="-1.20429">
        <ele>758.0</ele>
        <time>2019-07-31T11:36:54.169Z</time>
      </trkpt>
      <trkpt lat="42.98490667" lon="-1.20429333">
        <ele>759.0</ele>
        <time>2019-07-31T11:36:55.174Z</time>
      </trkpt>
      <trkpt lat="42.984905" lon="-1.2043">
        <ele>760.0</ele>
        <time>2019-07-31T11:36:56.178Z</time>
      </trkpt>
      <trkpt lat="42.98490667" lon="-1.20430333">
        <ele>760.0</ele>
        <time>2019-07-31T11:36:57.183Z</time>
      </trkpt>
      <trkpt lat="42.98490833" lon="-1.20430667">
        <ele>760.0</ele>
        <time>2019-07-31T11:36:58.063Z</time>
      </trkpt>
      <trkpt lat="42.98490667" lon="-1.20431167">
        <ele>761.0</ele>
        <time>2019-07-31T11:36:59.067Z</time>
      </trkpt>
      <trkpt lat="42.984905" lon="-1.204315">
        <ele>761.0</ele>
        <time>2019-07-31T11:37:00.073Z</time>
      </trkpt>
      <trkpt lat="42.984905" lon="-1.20431833">
        <ele>760.0</ele>
        <time>2019-07-31T11:37:01.078Z</time>
      </trkpt>
      <trkpt lat="42.98490333" lon="-1.20432167">
        <ele>760.0</ele>
        <time>2019-07-31T11:37:02.082Z</time>
      </trkpt>
      <trkpt lat="42.98490167" lon="-1.20432667">
        <ele>760.0</ele>
        <time>2019-07-31T11:37:03.087Z</time>
      </trkpt>
      <trkpt lat="42.9849" lon="-1.20433167">
        <ele>760.0</ele>
        <time>2019-07-31T11:37:04.093Z</time>
      </trkpt>
      <trkpt lat="42.98489667" lon="-1.20433667">
        <ele>759.0</ele>
        <time>2019-07-31T11:37:05.099Z</time>
      </trkpt>
      <trkpt lat="42.98489667" lon="-1.20434167">
        <ele>759.0</ele>
        <time>2019-07-31T11:37:06.103Z</time>
      </trkpt>
      <trkpt lat="42.98489667" lon="-1.20434667">
        <ele>759.0</ele>
        <time>2019-07-31T11:37:07.108Z</time>
      </trkpt>
      <trkpt lat="42.984895" lon="-1.20435333">
        <ele>759.0</ele>
        <time>2019-07-31T11:37:08.115Z</time>
      </trkpt>
      <trkpt lat="42.9849" lon="-1.204355">
        <ele>758.0</ele>
        <time>2019-07-31T11:37:09.118Z</time>
      </trkpt>
      <trkpt lat="42.984905" lon="-1.20435667">
        <ele>758.0</ele>
        <time>2019-07-31T11:37:10.125Z</time>
      </trkpt>
      <trkpt lat="42.98490167" lon="-1.20436333">
        <ele>758.0</ele>
        <time>2019-07-31T11:37:11.130Z</time>
      </trkpt>
      <trkpt lat="42.98489833" lon="-1.20437">
        <ele>757.0</ele>
        <time>2019-07-31T11:37:12.136Z</time>
      </trkpt>
      <trkpt lat="42.98489833" lon="-1.20437833">
        <ele>756.0</ele>
        <time>2019-07-31T11:37:13.140Z</time>
      </trkpt>
      <trkpt lat="42.984895" lon="-1.20439167">
        <ele>755.0</ele>
        <time>2019-07-31T11:37:14.147Z</time>
      </trkpt>
      <trkpt lat="42.98489167" lon="-1.20440833">
        <ele>754.0</ele>
        <time>2019-07-31T11:37:15.153Z</time>
      </trkpt>
      <trkpt lat="42.98488833" lon="-1.20442167">
        <ele>754.0</ele>
        <time>2019-07-31T11:37:16.158Z</time>
      </trkpt>
      <trkpt lat="42.98488333" lon="-1.20443167">
        <ele>754.0</ele>
        <time>2019-07-31T11:37:17.164Z</time>
      </trkpt>
      <trkpt lat="42.98488" lon="-1.204445">
        <ele>753.0</ele>
        <time>2019-07-31T11:37:18.168Z</time>
      </trkpt>
      <trkpt lat="42.98487667" lon="-1.20446">
        <ele>753.0</ele>
        <time>2019-07-31T11:37:19.170Z</time>
      </trkpt>
      <trkpt lat="42.984875" lon="-1.20447833">
        <ele>752.0</ele>
        <time>2019-07-31T11:37:20.174Z</time>
      </trkpt>
      <trkpt lat="42.98487333" lon="-1.20449833">
        <ele>752.0</ele>
        <time>2019-07-31T11:37:21.180Z</time>
      </trkpt>
      <trkpt lat="42.98487167" lon="-1.20451667">
        <ele>752.0</ele>
        <time>2019-07-31T11:37:22.185Z</time>
      </trkpt>
      <trkpt lat="42.98487667" lon="-1.204535">
        <ele>751.0</ele>
        <time>2019-07-31T11:37:23.064Z</time>
      </trkpt>
      <trkpt lat="42.98487833" lon="-1.20455333">
        <ele>751.0</ele>
        <time>2019-07-31T11:37:24.069Z</time>
      </trkpt>
      <trkpt lat="42.98487833" lon="-1.20457167">
        <ele>750.0</ele>
        <time>2019-07-31T11:37:25.076Z</time>
      </trkpt>
      <trkpt lat="42.98488" lon="-1.204585">
        <ele>749.0</ele>
        <time>2019-07-31T11:37:26.080Z</time>
      </trkpt>
      <trkpt lat="42.98488167" lon="-1.20460333">
        <ele>749.0</ele>
        <time>2019-07-31T11:37:27.085Z</time>
      </trkpt>
      <trkpt lat="42.98488833" lon="-1.20462333">
        <ele>750.0</ele>
        <time>2019-07-31T11:37:28.090Z</time>
      </trkpt>
      <trkpt lat="42.984895" lon="-1.204635">
        <ele>751.0</ele>
        <time>2019-07-31T11:37:29.097Z</time>
      </trkpt>
      <trkpt lat="42.98490333" lon="-1.204645">
        <ele>751.0</ele>
        <time>2019-07-31T11:37:30.103Z</time>
      </trkpt>
      <trkpt lat="42.98491" lon="-1.20465167">
        <ele>750.0</ele>
        <time>2019-07-31T11:37:31.109Z</time>
      </trkpt>
      <trkpt lat="42.98491833" lon="-1.20465833">
        <ele>750.0</ele>
        <time>2019-07-31T11:37:32.114Z</time>
      </trkpt>
      <trkpt lat="42.98492833" lon="-1.20466333">
        <ele>750.0</ele>
        <time>2019-07-31T11:37:33.118Z</time>
      </trkpt>
      <trkpt lat="42.98493667" lon="-1.20466833">
        <ele>750.0</ele>
        <time>2019-07-31T11:37:34.123Z</time>
      </trkpt>
      <trkpt lat="42.98494333" lon="-1.20468">
        <ele>750.0</ele>
        <time>2019-07-31T11:37:35.130Z</time>
      </trkpt>
      <trkpt lat="42.98494833" lon="-1.20469667">
        <ele>750.0</ele>
        <time>2019-07-31T11:37:36.136Z</time>
      </trkpt>
      <trkpt lat="42.98495" lon="-1.20471">
        <ele>750.0</ele>
        <time>2019-07-31T11:37:37.142Z</time>
      </trkpt>
      <trkpt lat="42.98495667" lon="-1.20472333">
        <ele>750.0</ele>
        <time>2019-07-31T11:37:38.147Z</time>
      </trkpt>
      <trkpt lat="42.98496167" lon="-1.20473333">
        <ele>750.0</ele>
        <time>2019-07-31T11:37:39.152Z</time>
      </trkpt>
      <trkpt lat="42.98496333" lon="-1.20474333">
        <ele>750.0</ele>
        <time>2019-07-31T11:37:40.159Z</time>
      </trkpt>
      <trkpt lat="42.98496667" lon="-1.20475333">
        <ele>750.0</ele>
        <time>2019-07-31T11:37:41.164Z</time>
      </trkpt>
      <trkpt lat="42.98496833" lon="-1.20476167">
        <ele>750.0</ele>
        <time>2019-07-31T11:37:42.170Z</time>
      </trkpt>
      <trkpt lat="42.98496667" lon="-1.20477">
        <ele>750.0</ele>
        <time>2019-07-31T11:37:43.175Z</time>
      </trkpt>
      <trkpt lat="42.98496833" lon="-1.20477167">
        <ele>749.0</ele>
        <time>2019-07-31T11:37:44.180Z</time>
      </trkpt>
      <trkpt lat="42.98496833" lon="-1.20477">
        <ele>749.0</ele>
        <time>2019-07-31T11:37:45.186Z</time>
      </trkpt>
      <trkpt lat="42.98496833" lon="-1.20477333">
        <ele>750.0</ele>
        <time>2019-07-31T11:37:46.066Z</time>
      </trkpt>
      <trkpt lat="42.98496833" lon="-1.204775">
        <ele>750.0</ele>
        <time>2019-07-31T11:37:47.072Z</time>
      </trkpt>
      <trkpt lat="42.984965" lon="-1.20477333">
        <ele>751.0</ele>
        <time>2019-07-31T11:37:48.076Z</time>
      </trkpt>
      <trkpt lat="42.98497" lon="-1.20477">
        <ele>750.0</ele>
        <time>2019-07-31T11:37:49.083Z</time>
      </trkpt>
      <trkpt lat="42.98497" lon="-1.20477167">
        <ele>750.0</ele>
        <time>2019-07-31T11:37:50.089Z</time>
      </trkpt>
      <trkpt lat="42.98497167" lon="-1.20477167">
        <ele>752.0</ele>
        <time>2019-07-31T11:37:51.095Z</time>
      </trkpt>
      <trkpt lat="42.984965" lon="-1.20476667">
        <ele>752.0</ele>
        <time>2019-07-31T11:37:52.101Z</time>
      </trkpt>
      <trkpt lat="42.98496167" lon="-1.20476">
        <ele>752.0</ele>
        <time>2019-07-31T11:37:53.107Z</time>
      </trkpt>
      <trkpt lat="42.98496" lon="-1.20476">
        <ele>752.0</ele>
        <time>2019-07-31T11:37:54.113Z</time>
      </trkpt>
      <trkpt lat="42.98496" lon="-1.204765">
        <ele>753.0</ele>
        <time>2019-07-31T11:37:55.119Z</time>
      </trkpt>
      <trkpt lat="42.98495667" lon="-1.204765">
        <ele>753.0</ele>
        <time>2019-07-31T11:37:56.125Z</time>
      </trkpt>
      <trkpt lat="42.984955" lon="-1.20476833">
        <ele>754.0</ele>
        <time>2019-07-31T11:37:57.131Z</time>
      </trkpt>
      <trkpt lat="42.98495" lon="-1.20476667">
        <ele>755.0</ele>
        <time>2019-07-31T11:37:58.136Z</time>
      </trkpt>
      <trkpt lat="42.98494667" lon="-1.20476667">
        <ele>754.0</ele>
        <time>2019-07-31T11:37:59.141Z</time>
      </trkpt>
      <trkpt lat="42.98494333" lon="-1.204765">
        <ele>754.0</ele>
        <time>2019-07-31T11:38:00.145Z</time>
      </trkpt>
      <trkpt lat="42.98494333" lon="-1.20476">
        <ele>753.0</ele>
        <time>2019-07-31T11:38:01.150Z</time>
      </trkpt>
      <trkpt lat="42.984945" lon="-1.20475833">
        <ele>753.0</ele>
        <time>2019-07-31T11:38:02.154Z</time>
      </trkpt>
      <trkpt lat="42.98494667" lon="-1.20475667">
        <ele>753.0</ele>
        <time>2019-07-31T11:38:03.159Z</time>
      </trkpt>
      <trkpt lat="42.98494833" lon="-1.204755">
        <ele>753.0</ele>
        <time>2019-07-31T11:38:04.166Z</time>
      </trkpt>
      <trkpt lat="42.98494833" lon="-1.204755">
        <ele>752.0</ele>
        <time>2019-07-31T11:38:05.171Z</time>
      </trkpt>
      <trkpt lat="42.98494667" lon="-1.20475333">
        <ele>752.0</ele>
        <time>2019-07-31T11:38:06.177Z</time>
      </trkpt>
      <trkpt lat="42.984945" lon="-1.204755">
        <ele>752.0</ele>
        <time>2019-07-31T11:38:07.182Z</time>
      </trkpt>
      <trkpt lat="42.98494333" lon="-1.20475333">
        <ele>751.0</ele>
        <time>2019-07-31T11:38:08.061Z</time>
      </trkpt>
      <trkpt lat="42.98494333" lon="-1.20475333">
        <ele>752.0</ele>
        <time>2019-07-31T11:38:09.065Z</time>
      </trkpt>
      <trkpt lat="42.98494333" lon="-1.20475167">
        <ele>752.0</ele>
        <time>2019-07-31T11:38:10.069Z</time>
      </trkpt>
      <trkpt lat="42.98494167" lon="-1.20474833">
        <ele>752.0</ele>
        <time>2019-07-31T11:38:11.075Z</time>
      </trkpt>
      <trkpt lat="42.98494167" lon="-1.204745">
        <ele>752.0</ele>
        <time>2019-07-31T11:38:12.080Z</time>
      </trkpt>
      <trkpt lat="42.98494333" lon="-1.20473833">
        <ele>752.0</ele>
        <time>2019-07-31T11:38:13.085Z</time>
      </trkpt>
      <trkpt lat="42.984945" lon="-1.20473167">
        <ele>752.0</ele>
        <time>2019-07-31T11:38:14.089Z</time>
      </trkpt>
      <trkpt lat="42.98494333" lon="-1.20472333">
        <ele>751.0</ele>
        <time>2019-07-31T11:38:15.092Z</time>
      </trkpt>
      <trkpt lat="42.98494167" lon="-1.20471833">
        <ele>751.0</ele>
        <time>2019-07-31T11:38:16.096Z</time>
      </trkpt>
      <trkpt lat="42.98493667" lon="-1.20471667">
        <ele>750.0</ele>
        <time>2019-07-31T11:38:17.101Z</time>
      </trkpt>
      <trkpt lat="42.98493167" lon="-1.20471333">
        <ele>750.0</ele>
        <time>2019-07-31T11:38:18.108Z</time>
      </trkpt>
      <trkpt lat="42.98492667" lon="-1.20471167">
        <ele>750.0</ele>
        <time>2019-07-31T11:38:19.114Z</time>
      </trkpt>
      <trkpt lat="42.984925" lon="-1.20471333">
        <ele>750.0</ele>
        <time>2019-07-31T11:38:20.119Z</time>
      </trkpt>
      <trkpt lat="42.984925" lon="-1.20471833">
        <ele>750.0</ele>
        <time>2019-07-31T11:38:21.124Z</time>
      </trkpt>
      <trkpt lat="42.98492667" lon="-1.20472">
        <ele>750.0</ele>
        <time>2019-07-31T11:38:22.132Z</time>
      </trkpt>
      <trkpt lat="42.98493" lon="-1.20472667">
        <ele>748.0</ele>
        <time>2019-07-31T11:38:23.136Z</time>
      </trkpt>
      <trkpt lat="42.98493167" lon="-1.204725">
        <ele>748.0</ele>
        <time>2019-07-31T11:38:24.142Z</time>
      </trkpt>
      <trkpt lat="42.98493167" lon="-1.20472333">
        <ele>747.0</ele>
        <time>2019-07-31T11:38:25.144Z</time>
      </trkpt>
      <trkpt lat="42.984935" lon="-1.20472">
        <ele>747.0</ele>
        <time>2019-07-31T11:38:26.149Z</time>
      </trkpt>
      <trkpt lat="42.984935" lon="-1.204715">
        <ele>747.0</ele>
        <time>2019-07-31T11:38:27.154Z</time>
      </trkpt>
      <trkpt lat="42.98493833" lon="-1.20471">
        <ele>747.0</ele>
        <time>2019-07-31T11:38:28.158Z</time>
      </trkpt>
      <trkpt lat="42.98494" lon="-1.204705">
        <ele>746.0</ele>
        <time>2019-07-31T11:38:29.164Z</time>
      </trkpt>
      <trkpt lat="42.98494333" lon="-1.20470333">
        <ele>745.0</ele>
        <time>2019-07-31T11:38:30.169Z</time>
      </trkpt>
      <trkpt lat="42.984945" lon="-1.204705">
        <ele>745.0</ele>
        <time>2019-07-31T11:38:31.174Z</time>
      </trkpt>
      <trkpt lat="42.984945" lon="-1.204705">
        <ele>746.0</ele>
        <time>2019-07-31T11:38:32.180Z</time>
      </trkpt>
      <trkpt lat="42.98494333" lon="-1.20470333">
        <ele>746.0</ele>
        <time>2019-07-31T11:38:33.186Z</time>
      </trkpt>
      <trkpt lat="42.98493333" lon="-1.20470167">
        <ele>746.0</ele>
        <time>2019-07-31T11:38:34.067Z</time>
      </trkpt>
      <trkpt lat="42.98493" lon="-1.2047">
        <ele>746.0</ele>
        <time>2019-07-31T11:38:35.072Z</time>
      </trkpt>
      <trkpt lat="42.98493167" lon="-1.20469833">
        <ele>746.0</ele>
        <time>2019-07-31T11:38:36.077Z</time>
      </trkpt>
      <trkpt lat="42.98493167" lon="-1.20469833">
        <ele>746.0</ele>
        <time>2019-07-31T11:38:37.084Z</time>
      </trkpt>
      <trkpt lat="42.984935" lon="-1.2047">
        <ele>746.0</ele>
        <time>2019-07-31T11:38:38.088Z</time>
      </trkpt>
      <trkpt lat="42.98494" lon="-1.20470333">
        <ele>746.0</ele>
        <time>2019-07-31T11:38:39.095Z</time>
      </trkpt>
      <trkpt lat="42.98494167" lon="-1.204705">
        <ele>746.0</ele>
        <time>2019-07-31T11:38:40.101Z</time>
      </trkpt>
      <trkpt lat="42.98494333" lon="-1.20470333">
        <ele>747.0</ele>
        <time>2019-07-31T11:38:41.105Z</time>
      </trkpt>
      <trkpt lat="42.98494333" lon="-1.20470667">
        <ele>747.0</ele>
        <time>2019-07-31T11:38:42.111Z</time>
      </trkpt>
      <trkpt lat="42.984945" lon="-1.20470667">
        <ele>747.0</ele>
        <time>2019-07-31T11:38:43.117Z</time>
      </trkpt>
      <trkpt lat="42.98494667" lon="-1.20470667">
        <ele>747.0</ele>
        <time>2019-07-31T11:38:44.121Z</time>
      </trkpt>
      <trkpt lat="42.98494833" lon="-1.20471">
        <ele>747.0</ele>
        <time>2019-07-31T11:38:45.124Z</time>
      </trkpt>
      <trkpt lat="42.98494667" lon="-1.20471167">
        <ele>748.0</ele>
        <time>2019-07-31T11:38:46.130Z</time>
      </trkpt>
      <trkpt lat="42.98494667" lon="-1.204715">
        <ele>748.0</ele>
        <time>2019-07-31T11:38:47.135Z</time>
      </trkpt>
      <trkpt lat="42.98494833" lon="-1.20471667">
        <ele>748.0</ele>
        <time>2019-07-31T11:38:48.139Z</time>
      </trkpt>
      <trkpt lat="42.98495167" lon="-1.20471667">
        <ele>748.0</ele>
        <time>2019-07-31T11:38:49.144Z</time>
      </trkpt>
      <trkpt lat="42.98495167" lon="-1.20471833">
        <ele>748.0</ele>
        <time>2019-07-31T11:38:50.149Z</time>
      </trkpt>
      <trkpt lat="42.98495167" lon="-1.20472667">
        <ele>748.0</ele>
        <time>2019-07-31T11:38:51.155Z</time>
      </trkpt>
      <trkpt lat="42.98495167" lon="-1.20473333">
        <ele>748.0</ele>
        <time>2019-07-31T11:38:52.160Z</time>
      </trkpt>
      <trkpt lat="42.98495167" lon="-1.20474">
        <ele>749.0</ele>
        <time>2019-07-31T11:38:53.166Z</time>
      </trkpt>
      <trkpt lat="42.98494833" lon="-1.20474833">
        <ele>749.0</ele>
        <time>2019-07-31T11:38:54.168Z</time>
      </trkpt>
      <trkpt lat="42.98494667" lon="-1.20475333">
        <ele>749.0</ele>
        <time>2019-07-31T11:38:55.174Z</time>
      </trkpt>
      <trkpt lat="42.98494667" lon="-1.20475833">
        <ele>749.0</ele>
        <time>2019-07-31T11:38:56.181Z</time>
      </trkpt>
      <trkpt lat="42.98494667" lon="-1.20476167">
        <ele>749.0</ele>
        <time>2019-07-31T11:38:57.186Z</time>
      </trkpt>
      <trkpt lat="42.98494667" lon="-1.20476667">
        <ele>748.0</ele>
        <time>2019-07-31T11:38:58.066Z</time>
      </trkpt>
      <trkpt lat="42.98494167" lon="-1.20477333">
        <ele>748.0</ele>
        <time>2019-07-31T11:38:59.073Z</time>
      </trkpt>
      <trkpt lat="42.98494" lon="-1.20477667">
        <ele>747.0</ele>
        <time>2019-07-31T11:39:00.080Z</time>
      </trkpt>
      <trkpt lat="42.98494" lon="-1.20477833">
        <ele>747.0</ele>
        <time>2019-07-31T11:39:01.086Z</time>
      </trkpt>
      <trkpt lat="42.98494" lon="-1.20478167">
        <ele>746.0</ele>
        <time>2019-07-31T11:39:02.092Z</time>
      </trkpt>
      <trkpt lat="42.98493667" lon="-1.20478333">
        <ele>746.0</ele>
        <time>2019-07-31T11:39:03.099Z</time>
      </trkpt>
      <trkpt lat="42.984935" lon="-1.20478333">
        <ele>745.0</ele>
        <time>2019-07-31T11:39:04.102Z</time>
      </trkpt>
      <trkpt lat="42.98493333" lon="-1.20478333">
        <ele>744.0</ele>
        <time>2019-07-31T11:39:05.105Z</time>
      </trkpt>
      <trkpt lat="42.984935" lon="-1.20478333">
        <ele>743.0</ele>
        <time>2019-07-31T11:39:06.111Z</time>
      </trkpt>
      <trkpt lat="42.98493333" lon="-1.20477833">
        <ele>742.0</ele>
        <time>2019-07-31T11:39:07.117Z</time>
      </trkpt>
      <trkpt lat="42.98493667" lon="-1.20478">
        <ele>741.0</ele>
        <time>2019-07-31T11:39:08.121Z</time>
      </trkpt>
      <trkpt lat="42.98493833" lon="-1.20478">
        <ele>741.0</ele>
        <time>2019-07-31T11:39:09.129Z</time>
      </trkpt>
      <trkpt lat="42.98494167" lon="-1.20477667">
        <ele>740.0</ele>
        <time>2019-07-31T11:39:10.135Z</time>
      </trkpt>
      <trkpt lat="42.98494667" lon="-1.20477">
        <ele>739.0</ele>
        <time>2019-07-31T11:39:11.141Z</time>
      </trkpt>
      <trkpt lat="42.98495" lon="-1.204765">
        <ele>737.0</ele>
        <time>2019-07-31T11:39:12.146Z</time>
      </trkpt>
      <trkpt lat="42.98495167" lon="-1.20476167">
        <ele>737.0</ele>
        <time>2019-07-31T11:39:13.151Z</time>
      </trkpt>
      <trkpt lat="42.984955" lon="-1.20475833">
        <ele>737.0</ele>
        <time>2019-07-31T11:39:14.157Z</time>
      </trkpt>
      <trkpt lat="42.98496" lon="-1.20475833">
        <ele>737.0</ele>
        <time>2019-07-31T11:39:15.163Z</time>
      </trkpt>
      <trkpt lat="42.98496167" lon="-1.20476">
        <ele>737.0</ele>
        <time>2019-07-31T11:39:16.168Z</time>
      </trkpt>
      <trkpt lat="42.984965" lon="-1.20476167">
        <ele>737.0</ele>
        <time>2019-07-31T11:39:17.174Z</time>
      </trkpt>
      <trkpt lat="42.98496667" lon="-1.20476">
        <ele>737.0</ele>
        <time>2019-07-31T11:39:18.178Z</time>
      </trkpt>
      <trkpt lat="42.98496667" lon="-1.204755">
        <ele>737.0</ele>
        <time>2019-07-31T11:39:19.184Z</time>
      </trkpt>
      <trkpt lat="42.98496667" lon="-1.20475">
        <ele>737.0</ele>
        <time>2019-07-31T11:39:20.063Z</time>
      </trkpt>
      <trkpt lat="42.98497" lon="-1.20474167">
        <ele>736.0</ele>
        <time>2019-07-31T11:39:21.066Z</time>
      </trkpt>
      <trkpt lat="42.984975" lon="-1.20473833">
        <ele>736.0</ele>
        <time>2019-07-31T11:39:22.070Z</time>
      </trkpt>
      <trkpt lat="42.98497833" lon="-1.20473833">
        <ele>736.0</ele>
        <time>2019-07-31T11:39:23.075Z</time>
      </trkpt>
      <trkpt lat="42.98498167" lon="-1.20474">
        <ele>735.0</ele>
        <time>2019-07-31T11:39:24.079Z</time>
      </trkpt>
      <trkpt lat="42.984985" lon="-1.20474167">
        <ele>735.0</ele>
        <time>2019-07-31T11:39:25.083Z</time>
      </trkpt>
      <trkpt lat="42.98498833" lon="-1.20474">
        <ele>735.0</ele>
        <time>2019-07-31T11:39:26.087Z</time>
      </trkpt>
      <trkpt lat="42.98498667" lon="-1.20474">
        <ele>735.0</ele>
        <time>2019-07-31T11:39:27.092Z</time>
      </trkpt>
      <trkpt lat="42.984985" lon="-1.20473833">
        <ele>734.0</ele>
        <time>2019-07-31T11:39:28.097Z</time>
      </trkpt>
      <trkpt lat="42.98498333" lon="-1.204735">
        <ele>733.0</ele>
        <time>2019-07-31T11:39:29.103Z</time>
      </trkpt>
      <trkpt lat="42.98498667" lon="-1.20473333">
        <ele>733.0</ele>
        <time>2019-07-31T11:39:30.110Z</time>
      </trkpt>
      <trkpt lat="42.98498833" lon="-1.20473167">
        <ele>733.0</ele>
        <time>2019-07-31T11:39:31.115Z</time>
      </trkpt>
      <trkpt lat="42.98499" lon="-1.20473333">
        <ele>733.0</ele>
        <time>2019-07-31T11:39:32.120Z</time>
      </trkpt>
      <trkpt lat="42.98499333" lon="-1.20473">
        <ele>733.0</ele>
        <time>2019-07-31T11:39:33.124Z</time>
      </trkpt>
      <trkpt lat="42.98499667" lon="-1.20472333">
        <ele>732.0</ele>
        <time>2019-07-31T11:39:34.131Z</time>
      </trkpt>
      <trkpt lat="42.984995" lon="-1.20471833">
        <ele>731.0</ele>
        <time>2019-07-31T11:39:35.136Z</time>
      </trkpt>
      <trkpt lat="42.984995" lon="-1.204715">
        <ele>731.0</ele>
        <time>2019-07-31T11:39:36.142Z</time>
      </trkpt>
      <trkpt lat="42.984995" lon="-1.204715">
        <ele>730.0</ele>
        <time>2019-07-31T11:39:37.148Z</time>
      </trkpt>
      <trkpt lat="42.984995" lon="-1.20471333">
        <ele>730.0</ele>
        <time>2019-07-31T11:39:38.156Z</time>
      </trkpt>
      <trkpt lat="42.984995" lon="-1.204715">
        <ele>730.0</ele>
        <time>2019-07-31T11:39:39.162Z</time>
      </trkpt>
      <trkpt lat="42.98499667" lon="-1.20471833">
        <ele>730.0</ele>
        <time>2019-07-31T11:39:40.168Z</time>
      </trkpt>
      <trkpt lat="42.98499833" lon="-1.20472">
        <ele>730.0</ele>
        <time>2019-07-31T11:39:41.173Z</time>
      </trkpt>
      <trkpt lat="42.98500167" lon="-1.20472">
        <ele>730.0</ele>
        <time>2019-07-31T11:39:42.178Z</time>
      </trkpt>
      <trkpt lat="42.98500167" lon="-1.20472">
        <ele>729.0</ele>
        <time>2019-07-31T11:39:43.182Z</time>
      </trkpt>
      <trkpt lat="42.98500167" lon="-1.20472">
        <ele>730.0</ele>
        <time>2019-07-31T11:39:44.185Z</time>
      </trkpt>
      <trkpt lat="42.98500167" lon="-1.20471667">
        <ele>730.0</ele>
        <time>2019-07-31T11:39:45.064Z</time>
      </trkpt>
      <trkpt lat="42.98500333" lon="-1.204715">
        <ele>729.0</ele>
        <time>2019-07-31T11:39:46.070Z</time>
      </trkpt>
      <trkpt lat="42.98500667" lon="-1.20471667">
        <ele>730.0</ele>
        <time>2019-07-31T11:39:47.076Z</time>
      </trkpt>
      <trkpt lat="42.98501" lon="-1.20472">
        <ele>730.0</ele>
        <time>2019-07-31T11:39:48.080Z</time>
      </trkpt>
      <trkpt lat="42.98501167" lon="-1.20472833">
        <ele>730.0</ele>
        <time>2019-07-31T11:39:49.087Z</time>
      </trkpt>
      <trkpt lat="42.98501667" lon="-1.20473667">
        <ele>731.0</ele>
        <time>2019-07-31T11:39:50.093Z</time>
      </trkpt>
      <trkpt lat="42.98502333" lon="-1.204745">
        <ele>731.0</ele>
        <time>2019-07-31T11:39:51.099Z</time>
      </trkpt>
      <trkpt lat="42.98503333" lon="-1.20475667">
        <ele>732.0</ele>
        <time>2019-07-31T11:39:52.104Z</time>
      </trkpt>
      <trkpt lat="42.98503833" lon="-1.204765">
        <ele>732.0</ele>
        <time>2019-07-31T11:39:53.110Z</time>
      </trkpt>
      <trkpt lat="42.98504667" lon="-1.20477667">
        <ele>733.0</ele>
        <time>2019-07-31T11:39:54.114Z</time>
      </trkpt>
      <trkpt lat="42.98504833" lon="-1.20479">
        <ele>734.0</ele>
        <time>2019-07-31T11:39:55.118Z</time>
      </trkpt>
      <trkpt lat="42.98505167" lon="-1.20480667">
        <ele>735.0</ele>
        <time>2019-07-31T11:39:56.125Z</time>
      </trkpt>
      <trkpt lat="42.98505833" lon="-1.20482">
        <ele>735.0</ele>
        <time>2019-07-31T11:39:57.130Z</time>
      </trkpt>
      <trkpt lat="42.98506167" lon="-1.20483167">
        <ele>735.0</ele>
        <time>2019-07-31T11:39:58.137Z</time>
      </trkpt>
      <trkpt lat="42.98506833" lon="-1.20484167">
        <ele>735.0</ele>
        <time>2019-07-31T11:39:59.143Z</time>
      </trkpt>
      <trkpt lat="42.985075" lon="-1.20484667">
        <ele>735.0</ele>
        <time>2019-07-31T11:40:00.150Z</time>
      </trkpt>
      <trkpt lat="42.98508333" lon="-1.204855">
        <ele>735.0</ele>
        <time>2019-07-31T11:40:01.156Z</time>
      </trkpt>
      <trkpt lat="42.98509" lon="-1.204865">
        <ele>735.0</ele>
        <time>2019-07-31T11:40:02.162Z</time>
      </trkpt>
      <trkpt lat="42.98509667" lon="-1.20488">
        <ele>735.0</ele>
        <time>2019-07-31T11:40:03.168Z</time>
      </trkpt>
      <trkpt lat="42.98510667" lon="-1.204895">
        <ele>736.0</ele>
        <time>2019-07-31T11:40:04.170Z</time>
      </trkpt>
      <trkpt lat="42.985115" lon="-1.20490667">
        <ele>736.0</ele>
        <time>2019-07-31T11:40:05.173Z</time>
      </trkpt>
      <trkpt lat="42.98512" lon="-1.20492167">
        <ele>737.0</ele>
        <time>2019-07-31T11:40:06.178Z</time>
      </trkpt>
      <trkpt lat="42.98512667" lon="-1.20493667">
        <ele>737.0</ele>
        <time>2019-07-31T11:40:07.184Z</time>
      </trkpt>
      <trkpt lat="42.98513667" lon="-1.20494833">
        <ele>738.0</ele>
        <time>2019-07-31T11:40:08.063Z</time>
      </trkpt>
      <trkpt lat="42.98514167" lon="-1.20495833">
        <ele>738.0</ele>
        <time>2019-07-31T11:40:09.070Z</time>
      </trkpt>
      <trkpt lat="42.98515167" lon="-1.20496833">
        <ele>739.0</ele>
        <time>2019-07-31T11:40:10.076Z</time>
      </trkpt>
      <trkpt lat="42.98515833" lon="-1.20498167">
        <ele>739.0</ele>
        <time>2019-07-31T11:40:11.081Z</time>
      </trkpt>
      <trkpt lat="42.98516833" lon="-1.20499333">
        <ele>740.0</ele>
        <time>2019-07-31T11:40:12.086Z</time>
      </trkpt>
      <trkpt lat="42.98517667" lon="-1.20500833">
        <ele>739.0</ele>
        <time>2019-07-31T11:40:13.091Z</time>
      </trkpt>
      <trkpt lat="42.98518333" lon="-1.20502">
        <ele>740.0</ele>
        <time>2019-07-31T11:40:14.097Z</time>
      </trkpt>
      <trkpt lat="42.98518667" lon="-1.20503667">
        <ele>740.0</ele>
        <time>2019-07-31T11:40:15.102Z</time>
      </trkpt>
      <trkpt lat="42.98519167" lon="-1.20505667">
        <ele>740.0</ele>
        <time>2019-07-31T11:40:16.107Z</time>
      </trkpt>
      <trkpt lat="42.98519667" lon="-1.20506667">
        <ele>741.0</ele>
        <time>2019-07-31T11:40:17.111Z</time>
      </trkpt>
      <trkpt lat="42.98520333" lon="-1.20507333">
        <ele>742.0</ele>
        <time>2019-07-31T11:40:18.117Z</time>
      </trkpt>
      <trkpt lat="42.98521167" lon="-1.20508">
        <ele>743.0</ele>
        <time>2019-07-31T11:40:19.123Z</time>
      </trkpt>
      <trkpt lat="42.98522" lon="-1.20509167">
        <ele>743.0</ele>
        <time>2019-07-31T11:40:20.130Z</time>
      </trkpt>
      <trkpt lat="42.985225" lon="-1.20510333">
        <ele>744.0</ele>
        <time>2019-07-31T11:40:21.135Z</time>
      </trkpt>
      <trkpt lat="42.98522833" lon="-1.20511167">
        <ele>745.0</ele>
        <time>2019-07-31T11:40:22.142Z</time>
      </trkpt>
      <trkpt lat="42.98523167" lon="-1.20512">
        <ele>746.0</ele>
        <time>2019-07-31T11:40:23.147Z</time>
      </trkpt>
      <trkpt lat="42.98523333" lon="-1.20513167">
        <ele>747.0</ele>
        <time>2019-07-31T11:40:24.154Z</time>
      </trkpt>
      <trkpt lat="42.98524333" lon="-1.205145">
        <ele>747.0</ele>
        <time>2019-07-31T11:40:25.159Z</time>
      </trkpt>
      <trkpt lat="42.98523667" lon="-1.20515667">
        <ele>748.0</ele>
        <time>2019-07-31T11:40:26.164Z</time>
      </trkpt>
      <trkpt lat="42.98523667" lon="-1.20516667">
        <ele>749.0</ele>
        <time>2019-07-31T11:40:27.170Z</time>
      </trkpt>
      <trkpt lat="42.98523333" lon="-1.20517167">
        <ele>750.0</ele>
        <time>2019-07-31T11:40:28.177Z</time>
      </trkpt>
      <trkpt lat="42.98523167" lon="-1.20517833">
        <ele>751.0</ele>
        <time>2019-07-31T11:40:29.183Z</time>
      </trkpt>
      <trkpt lat="42.98523333" lon="-1.20517833">
        <ele>752.0</ele>
        <time>2019-07-31T11:40:30.062Z</time>
      </trkpt>
      <trkpt lat="42.98523833" lon="-1.20517167">
        <ele>753.0</ele>
        <time>2019-07-31T11:40:31.067Z</time>
      </trkpt>
      <trkpt lat="42.98523833" lon="-1.20516833">
        <ele>754.0</ele>
        <time>2019-07-31T11:40:32.072Z</time>
      </trkpt>
      <trkpt lat="42.98524" lon="-1.20517333">
        <ele>755.0</ele>
        <time>2019-07-31T11:40:33.075Z</time>
      </trkpt>
      <trkpt lat="42.98524333" lon="-1.20518">
        <ele>757.0</ele>
        <time>2019-07-31T11:40:34.080Z</time>
      </trkpt>
      <trkpt lat="42.98524667" lon="-1.20519167">
        <ele>757.0</ele>
        <time>2019-07-31T11:40:35.087Z</time>
      </trkpt>
      <trkpt lat="42.98525333" lon="-1.205195">
        <ele>757.0</ele>
        <time>2019-07-31T11:40:36.091Z</time>
      </trkpt>
      <trkpt lat="42.98526667" lon="-1.20520167">
        <ele>758.0</ele>
        <time>2019-07-31T11:40:37.096Z</time>
      </trkpt>
      <trkpt lat="42.98528" lon="-1.20521">
        <ele>760.0</ele>
        <time>2019-07-31T11:40:38.101Z</time>
      </trkpt>
      <trkpt lat="42.98528833" lon="-1.20521833">
        <ele>760.0</ele>
        <time>2019-07-31T11:40:39.107Z</time>
      </trkpt>
      <trkpt lat="42.985295" lon="-1.205225">
        <ele>761.0</ele>
        <time>2019-07-31T11:40:40.115Z</time>
      </trkpt>
      <trkpt lat="42.98529667" lon="-1.20523167">
        <ele>761.0</ele>
        <time>2019-07-31T11:40:41.120Z</time>
      </trkpt>
      <trkpt lat="42.98529667" lon="-1.20524">
        <ele>762.0</ele>
        <time>2019-07-31T11:40:42.123Z</time>
      </trkpt>
      <trkpt lat="42.98530167" lon="-1.20524833">
        <ele>763.0</ele>
        <time>2019-07-31T11:40:43.130Z</time>
      </trkpt>
      <trkpt lat="42.98530833" lon="-1.20525667">
        <ele>763.0</ele>
        <time>2019-07-31T11:40:44.136Z</time>
      </trkpt>
      <trkpt lat="42.98531333" lon="-1.20527167">
        <ele>764.0</ele>
        <time>2019-07-31T11:40:45.141Z</time>
      </trkpt>
      <trkpt lat="42.98532" lon="-1.20528">
        <ele>764.0</ele>
        <time>2019-07-31T11:40:46.145Z</time>
      </trkpt>
      <trkpt lat="42.98532667" lon="-1.20528667">
        <ele>763.0</ele>
        <time>2019-07-31T11:40:47.150Z</time>
      </trkpt>
      <trkpt lat="42.98534167" lon="-1.20529167">
        <ele>763.0</ele>
        <time>2019-07-31T11:40:48.154Z</time>
      </trkpt>
      <trkpt lat="42.98535333" lon="-1.20529667">
        <ele>763.0</ele>
        <time>2019-07-31T11:40:49.160Z</time>
      </trkpt>
      <trkpt lat="42.98536333" lon="-1.20530333">
        <ele>763.0</ele>
        <time>2019-07-31T11:40:50.167Z</time>
      </trkpt>
      <trkpt lat="42.98537333" lon="-1.20531167">
        <ele>764.0</ele>
        <time>2019-07-31T11:40:51.173Z</time>
      </trkpt>
      <trkpt lat="42.98538" lon="-1.20532167">
        <ele>764.0</ele>
        <time>2019-07-31T11:40:52.176Z</time>
      </trkpt>
      <trkpt lat="42.985395" lon="-1.20533167">
        <ele>764.0</ele>
        <time>2019-07-31T11:40:53.182Z</time>
      </trkpt>
      <trkpt lat="42.985405" lon="-1.20534167">
        <ele>764.0</ele>
        <time>2019-07-31T11:40:54.062Z</time>
      </trkpt>
      <trkpt lat="42.985415" lon="-1.20535">
        <ele>763.0</ele>
        <time>2019-07-31T11:40:55.069Z</time>
      </trkpt>
      <trkpt lat="42.985425" lon="-1.20536">
        <ele>762.0</ele>
        <time>2019-07-31T11:40:56.076Z</time>
      </trkpt>
      <trkpt lat="42.98544" lon="-1.20536333">
        <ele>762.0</ele>
        <time>2019-07-31T11:40:57.079Z</time>
      </trkpt>
      <trkpt lat="42.98545667" lon="-1.20536833">
        <ele>762.0</ele>
        <time>2019-07-31T11:40:58.083Z</time>
      </trkpt>
      <trkpt lat="42.98547" lon="-1.20537333">
        <ele>761.0</ele>
        <time>2019-07-31T11:40:59.089Z</time>
      </trkpt>
      <trkpt lat="42.98548333" lon="-1.20537667">
        <ele>761.0</ele>
        <time>2019-07-31T11:41:00.095Z</time>
      </trkpt>
      <trkpt lat="42.985495" lon="-1.20538333">
        <ele>760.0</ele>
        <time>2019-07-31T11:41:01.101Z</time>
      </trkpt>
      <trkpt lat="42.98551167" lon="-1.20538667">
        <ele>760.0</ele>
        <time>2019-07-31T11:41:02.107Z</time>
      </trkpt>
      <trkpt lat="42.98552833" lon="-1.20539">
        <ele>760.0</ele>
        <time>2019-07-31T11:41:03.112Z</time>
      </trkpt>
      <trkpt lat="42.985545" lon="-1.2054">
        <ele>759.0</ele>
        <time>2019-07-31T11:41:04.114Z</time>
      </trkpt>
      <trkpt lat="42.98555667" lon="-1.20541">
        <ele>759.0</ele>
        <time>2019-07-31T11:41:05.117Z</time>
      </trkpt>
      <trkpt lat="42.985565" lon="-1.205415">
        <ele>759.0</ele>
        <time>2019-07-31T11:41:06.123Z</time>
      </trkpt>
      <trkpt lat="42.98557167" lon="-1.20542167">
        <ele>758.0</ele>
        <time>2019-07-31T11:41:07.128Z</time>
      </trkpt>
      <trkpt lat="42.985585" lon="-1.20542167">
        <ele>758.0</ele>
        <time>2019-07-31T11:41:08.134Z</time>
      </trkpt>
      <trkpt lat="42.98559833" lon="-1.20542">
        <ele>757.0</ele>
        <time>2019-07-31T11:41:09.141Z</time>
      </trkpt>
      <trkpt lat="42.98561333" lon="-1.20542">
        <ele>756.0</ele>
        <time>2019-07-31T11:41:10.148Z</time>
      </trkpt>
      <trkpt lat="42.98563" lon="-1.20542667">
        <ele>758.0</ele>
        <time>2019-07-31T11:41:11.154Z</time>
      </trkpt>
      <trkpt lat="42.98565" lon="-1.205435">
        <ele>758.0</ele>
        <time>2019-07-31T11:41:12.159Z</time>
      </trkpt>
      <trkpt lat="42.98566667" lon="-1.20543667">
        <ele>759.0</ele>
        <time>2019-07-31T11:41:13.165Z</time>
      </trkpt>
      <trkpt lat="42.98567333" lon="-1.20543667">
        <ele>760.0</ele>
        <time>2019-07-31T11:41:14.168Z</time>
      </trkpt>
      <trkpt lat="42.98567333" lon="-1.205435">
        <ele>761.0</ele>
        <time>2019-07-31T11:41:15.173Z</time>
      </trkpt>
      <trkpt lat="42.98567" lon="-1.20543167">
        <ele>762.0</ele>
        <time>2019-07-31T11:41:16.178Z</time>
      </trkpt>
      <trkpt lat="42.98566167" lon="-1.20542">
        <ele>762.0</ele>
        <time>2019-07-31T11:41:17.184Z</time>
      </trkpt>
      <trkpt lat="42.985655" lon="-1.20540333">
        <ele>762.0</ele>
        <time>2019-07-31T11:41:18.064Z</time>
      </trkpt>
      <trkpt lat="42.98565333" lon="-1.20538833">
        <ele>763.0</ele>
        <time>2019-07-31T11:41:19.069Z</time>
      </trkpt>
      <trkpt lat="42.98565167" lon="-1.205375">
        <ele>763.0</ele>
        <time>2019-07-31T11:41:20.073Z</time>
      </trkpt>
      <trkpt lat="42.98564667" lon="-1.20536667">
        <ele>762.0</ele>
        <time>2019-07-31T11:41:21.078Z</time>
      </trkpt>
      <trkpt lat="42.98564333" lon="-1.20535667">
        <ele>762.0</ele>
        <time>2019-07-31T11:41:22.083Z</time>
      </trkpt>
      <trkpt lat="42.98563833" lon="-1.20534667">
        <ele>761.0</ele>
        <time>2019-07-31T11:41:23.088Z</time>
      </trkpt>
      <trkpt lat="42.985635" lon="-1.20533667">
        <ele>761.0</ele>
        <time>2019-07-31T11:41:24.091Z</time>
      </trkpt>
      <trkpt lat="42.98563167" lon="-1.20532667">
        <ele>760.0</ele>
        <time>2019-07-31T11:41:25.094Z</time>
      </trkpt>
      <trkpt lat="42.98562667" lon="-1.20531333">
        <ele>759.0</ele>
        <time>2019-07-31T11:41:26.099Z</time>
      </trkpt>
      <trkpt lat="42.98562167" lon="-1.2053">
        <ele>758.0</ele>
        <time>2019-07-31T11:41:27.104Z</time>
      </trkpt>
      <trkpt lat="42.98561833" lon="-1.20528667">
        <ele>758.0</ele>
        <time>2019-07-31T11:41:28.108Z</time>
      </trkpt>
      <trkpt lat="42.985615" lon="-1.20527333">
        <ele>757.0</ele>
        <time>2019-07-31T11:41:29.112Z</time>
      </trkpt>
      <trkpt lat="42.98561" lon="-1.20526167">
        <ele>756.0</ele>
        <time>2019-07-31T11:41:30.117Z</time>
      </trkpt>
      <trkpt lat="42.9856" lon="-1.20525167">
        <ele>755.0</ele>
        <time>2019-07-31T11:41:31.122Z</time>
      </trkpt>
      <trkpt lat="42.98559" lon="-1.20524167">
        <ele>755.0</ele>
        <time>2019-07-31T11:41:32.128Z</time>
      </trkpt>
      <trkpt lat="42.98558167" lon="-1.20523333">
        <ele>755.0</ele>
        <time>2019-07-31T11:41:33.132Z</time>
      </trkpt>
      <trkpt lat="42.98557667" lon="-1.20522333">
        <ele>755.0</ele>
        <time>2019-07-31T11:41:34.135Z</time>
      </trkpt>
      <trkpt lat="42.98557167" lon="-1.20520833">
        <ele>755.0</ele>
        <time>2019-07-31T11:41:35.139Z</time>
      </trkpt>
      <trkpt lat="42.98557167" lon="-1.205195">
        <ele>755.0</ele>
        <time>2019-07-31T11:41:36.146Z</time>
      </trkpt>
      <trkpt lat="42.98556833" lon="-1.20518">
        <ele>755.0</ele>
        <time>2019-07-31T11:41:37.150Z</time>
      </trkpt>
      <trkpt lat="42.98556" lon="-1.20516333">
        <ele>755.0</ele>
        <time>2019-07-31T11:41:38.155Z</time>
      </trkpt>
      <trkpt lat="42.98555667" lon="-1.20515">
        <ele>755.0</ele>
        <time>2019-07-31T11:41:39.159Z</time>
      </trkpt>
      <trkpt lat="42.98555167" lon="-1.205135">
        <ele>756.0</ele>
        <time>2019-07-31T11:41:40.166Z</time>
      </trkpt>
      <trkpt lat="42.98554667" lon="-1.20512167">
        <ele>756.0</ele>
        <time>2019-07-31T11:41:41.171Z</time>
      </trkpt>
      <trkpt lat="42.98554" lon="-1.20510333">
        <ele>756.0</ele>
        <time>2019-07-31T11:41:42.176Z</time>
      </trkpt>
      <trkpt lat="42.98554" lon="-1.20508333">
        <ele>755.0</ele>
        <time>2019-07-31T11:41:43.181Z</time>
      </trkpt>
      <trkpt lat="42.98553333" lon="-1.20506833">
        <ele>755.0</ele>
        <time>2019-07-31T11:41:44.061Z</time>
      </trkpt>
      <trkpt lat="42.98553" lon="-1.205055">
        <ele>755.0</ele>
        <time>2019-07-31T11:41:45.068Z</time>
      </trkpt>
      <trkpt lat="42.985525" lon="-1.205045">
        <ele>754.0</ele>
        <time>2019-07-31T11:41:46.075Z</time>
      </trkpt>
      <trkpt lat="42.98552167" lon="-1.20503333">
        <ele>754.0</ele>
        <time>2019-07-31T11:41:47.078Z</time>
      </trkpt>
      <trkpt lat="42.98552167" lon="-1.205015">
        <ele>753.0</ele>
        <time>2019-07-31T11:41:48.083Z</time>
      </trkpt>
      <trkpt lat="42.98551833" lon="-1.205">
        <ele>753.0</ele>
        <time>2019-07-31T11:41:49.087Z</time>
      </trkpt>
      <trkpt lat="42.98551333" lon="-1.204985">
        <ele>754.0</ele>
        <time>2019-07-31T11:41:50.092Z</time>
      </trkpt>
      <trkpt lat="42.98550167" lon="-1.20496667">
        <ele>754.0</ele>
        <time>2019-07-31T11:41:51.098Z</time>
      </trkpt>
      <trkpt lat="42.98549833" lon="-1.20494667">
        <ele>754.0</ele>
        <time>2019-07-31T11:41:52.104Z</time>
      </trkpt>
      <trkpt lat="42.98549833" lon="-1.20492">
        <ele>754.0</ele>
        <time>2019-07-31T11:41:53.108Z</time>
      </trkpt>
      <trkpt lat="42.98549833" lon="-1.20489167">
        <ele>754.0</ele>
        <time>2019-07-31T11:41:54.111Z</time>
      </trkpt>
      <trkpt lat="42.98549833" lon="-1.20486167">
        <ele>754.0</ele>
        <time>2019-07-31T11:41:55.115Z</time>
      </trkpt>
      <trkpt lat="42.98549167" lon="-1.20484333">
        <ele>753.0</ele>
        <time>2019-07-31T11:41:56.119Z</time>
      </trkpt>
      <trkpt lat="42.985485" lon="-1.20483167">
        <ele>753.0</ele>
        <time>2019-07-31T11:41:57.125Z</time>
      </trkpt>
      <trkpt lat="42.98548167" lon="-1.20481333">
        <ele>753.0</ele>
        <time>2019-07-31T11:41:58.131Z</time>
      </trkpt>
      <trkpt lat="42.98547" lon="-1.20479833">
        <ele>753.0</ele>
        <time>2019-07-31T11:41:59.139Z</time>
      </trkpt>
      <trkpt lat="42.98545833" lon="-1.20479">
        <ele>752.0</ele>
        <time>2019-07-31T11:42:00.143Z</time>
      </trkpt>
      <trkpt lat="42.98544667" lon="-1.20477833">
        <ele>752.0</ele>
        <time>2019-07-31T11:42:01.147Z</time>
      </trkpt>
      <trkpt lat="42.98543167" lon="-1.204765">
        <ele>752.0</ele>
        <time>2019-07-31T11:42:02.153Z</time>
      </trkpt>
      <trkpt lat="42.98542167" lon="-1.20475167">
        <ele>752.0</ele>
        <time>2019-07-31T11:42:03.158Z</time>
      </trkpt>
      <trkpt lat="42.98541833" lon="-1.20474">
        <ele>752.0</ele>
        <time>2019-07-31T11:42:04.159Z</time>
      </trkpt>
      <trkpt lat="42.98540667" lon="-1.204725">
        <ele>752.0</ele>
        <time>2019-07-31T11:42:05.164Z</time>
      </trkpt>
      <trkpt lat="42.98539833" lon="-1.20471333">
        <ele>752.0</ele>
        <time>2019-07-31T11:42:06.171Z</time>
      </trkpt>
      <trkpt lat="42.98539333" lon="-1.20470667">
        <ele>754.0</ele>
        <time>2019-07-31T11:42:07.177Z</time>
      </trkpt>
      <trkpt lat="42.98538833" lon="-1.20469">
        <ele>755.0</ele>
        <time>2019-07-31T11:42:08.182Z</time>
      </trkpt>
      <trkpt lat="42.98538" lon="-1.20467333">
        <ele>757.0</ele>
        <time>2019-07-31T11:42:09.064Z</time>
      </trkpt>
      <trkpt lat="42.98537" lon="-1.20465667">
        <ele>757.0</ele>
        <time>2019-07-31T11:42:10.069Z</time>
      </trkpt>
      <trkpt lat="42.98536667" lon="-1.20463">
        <ele>757.0</ele>
        <time>2019-07-31T11:42:11.074Z</time>
      </trkpt>
      <trkpt lat="42.98536333" lon="-1.20460833">
        <ele>756.0</ele>
        <time>2019-07-31T11:42:12.077Z</time>
      </trkpt>
      <trkpt lat="42.98536167" lon="-1.204595">
        <ele>756.0</ele>
        <time>2019-07-31T11:42:13.084Z</time>
      </trkpt>
      <trkpt lat="42.985355" lon="-1.20458333">
        <ele>756.0</ele>
        <time>2019-07-31T11:42:14.089Z</time>
      </trkpt>
      <trkpt lat="42.98535167" lon="-1.20456167">
        <ele>756.0</ele>
        <time>2019-07-31T11:42:15.096Z</time>
      </trkpt>
      <trkpt lat="42.98535" lon="-1.20453833">
        <ele>757.0</ele>
        <time>2019-07-31T11:42:16.102Z</time>
      </trkpt>
      <trkpt lat="42.98535" lon="-1.20451833">
        <ele>757.0</ele>
        <time>2019-07-31T11:42:17.107Z</time>
      </trkpt>
      <trkpt lat="42.98535333" lon="-1.2045">
        <ele>757.0</ele>
        <time>2019-07-31T11:42:18.113Z</time>
      </trkpt>
      <trkpt lat="42.98535333" lon="-1.204485">
        <ele>757.0</ele>
        <time>2019-07-31T11:42:19.117Z</time>
      </trkpt>
      <trkpt lat="42.98535" lon="-1.20447">
        <ele>758.0</ele>
        <time>2019-07-31T11:42:20.122Z</time>
      </trkpt>
      <trkpt lat="42.985345" lon="-1.20445333">
        <ele>760.0</ele>
        <time>2019-07-31T11:42:21.127Z</time>
      </trkpt>
      <trkpt lat="42.98533333" lon="-1.20443667">
        <ele>761.0</ele>
        <time>2019-07-31T11:42:22.133Z</time>
      </trkpt>
      <trkpt lat="42.985325" lon="-1.20441833">
        <ele>761.0</ele>
        <time>2019-07-31T11:42:23.139Z</time>
      </trkpt>
      <trkpt lat="42.98531833" lon="-1.2044">
        <ele>761.0</ele>
        <time>2019-07-31T11:42:24.144Z</time>
      </trkpt>
      <trkpt lat="42.985315" lon="-1.20438167">
        <ele>762.0</ele>
        <time>2019-07-31T11:42:25.150Z</time>
      </trkpt>
      <trkpt lat="42.98531" lon="-1.20436333">
        <ele>762.0</ele>
        <time>2019-07-31T11:42:26.157Z</time>
      </trkpt>
      <trkpt lat="42.98530333" lon="-1.20435">
        <ele>762.0</ele>
        <time>2019-07-31T11:42:27.160Z</time>
      </trkpt>
      <trkpt lat="42.985295" lon="-1.20433667">
        <ele>763.0</ele>
        <time>2019-07-31T11:42:28.164Z</time>
      </trkpt>
      <trkpt lat="42.98528667" lon="-1.204325">
        <ele>765.0</ele>
        <time>2019-07-31T11:42:29.169Z</time>
      </trkpt>
      <trkpt lat="42.98528167" lon="-1.2043">
        <ele>765.0</ele>
        <time>2019-07-31T11:42:30.175Z</time>
      </trkpt>
      <trkpt lat="42.98527667" lon="-1.20428833">
        <ele>767.0</ele>
        <time>2019-07-31T11:42:31.180Z</time>
      </trkpt>
      <trkpt lat="42.98527167" lon="-1.20427">
        <ele>767.0</ele>
        <time>2019-07-31T11:42:32.185Z</time>
      </trkpt>
      <trkpt lat="42.98527167" lon="-1.20425167">
        <ele>767.0</ele>
        <time>2019-07-31T11:42:33.064Z</time>
      </trkpt>
      <trkpt lat="42.98527167" lon="-1.20423">
        <ele>767.0</ele>
        <time>2019-07-31T11:42:34.070Z</time>
      </trkpt>
      <trkpt lat="42.98526333" lon="-1.20420833">
        <ele>767.0</ele>
        <time>2019-07-31T11:42:35.076Z</time>
      </trkpt>
      <trkpt lat="42.98525667" lon="-1.20418833">
        <ele>767.0</ele>
        <time>2019-07-31T11:42:36.081Z</time>
      </trkpt>
      <trkpt lat="42.98525167" lon="-1.20416833">
        <ele>767.0</ele>
        <time>2019-07-31T11:42:37.086Z</time>
      </trkpt>
      <trkpt lat="42.98524667" lon="-1.20415">
        <ele>768.0</ele>
        <time>2019-07-31T11:42:38.093Z</time>
      </trkpt>
      <trkpt lat="42.98524" lon="-1.20413167">
        <ele>768.0</ele>
        <time>2019-07-31T11:42:39.099Z</time>
      </trkpt>
      <trkpt lat="42.98523667" lon="-1.204115">
        <ele>769.0</ele>
        <time>2019-07-31T11:42:40.105Z</time>
      </trkpt>
      <trkpt lat="42.98523167" lon="-1.20409833">
        <ele>769.0</ele>
        <time>2019-07-31T11:42:41.110Z</time>
      </trkpt>
      <trkpt lat="42.98522667" lon="-1.20408167">
        <ele>770.0</ele>
        <time>2019-07-31T11:42:42.116Z</time>
      </trkpt>
      <trkpt lat="42.98522333" lon="-1.204065">
        <ele>771.0</ele>
        <time>2019-07-31T11:42:43.121Z</time>
      </trkpt>
      <trkpt lat="42.98522" lon="-1.20404667">
        <ele>772.0</ele>
        <time>2019-07-31T11:42:44.127Z</time>
      </trkpt>
      <trkpt lat="42.98522167" lon="-1.20402667">
        <ele>772.0</ele>
        <time>2019-07-31T11:42:45.132Z</time>
      </trkpt>
      <trkpt lat="42.98522" lon="-1.20400833">
        <ele>771.0</ele>
        <time>2019-07-31T11:42:46.139Z</time>
      </trkpt>
      <trkpt lat="42.98521667" lon="-1.20399167">
        <ele>772.0</ele>
        <time>2019-07-31T11:42:47.145Z</time>
      </trkpt>
      <trkpt lat="42.985215" lon="-1.203975">
        <ele>772.0</ele>
        <time>2019-07-31T11:42:48.150Z</time>
      </trkpt>
      <trkpt lat="42.98521667" lon="-1.20395333">
        <ele>771.0</ele>
        <time>2019-07-31T11:42:49.156Z</time>
      </trkpt>
      <trkpt lat="42.98522" lon="-1.20393">
        <ele>772.0</ele>
        <time>2019-07-31T11:42:50.160Z</time>
      </trkpt>
      <trkpt lat="42.98521667" lon="-1.20390333">
        <ele>772.0</ele>
        <time>2019-07-31T11:42:51.166Z</time>
      </trkpt>
      <trkpt lat="42.985215" lon="-1.20388333">
        <ele>772.0</ele>
        <time>2019-07-31T11:42:52.172Z</time>
      </trkpt>
      <trkpt lat="42.98521167" lon="-1.20386333">
        <ele>773.0</ele>
        <time>2019-07-31T11:42:53.178Z</time>
      </trkpt>
      <trkpt lat="42.98520667" lon="-1.20384167">
        <ele>774.0</ele>
        <time>2019-07-31T11:42:54.185Z</time>
      </trkpt>
      <trkpt lat="42.98520333" lon="-1.20381667">
        <ele>775.0</ele>
        <time>2019-07-31T11:42:55.067Z</time>
      </trkpt>
      <trkpt lat="42.9852" lon="-1.20379667">
        <ele>775.0</ele>
        <time>2019-07-31T11:42:56.071Z</time>
      </trkpt>
      <trkpt lat="42.98520167" lon="-1.20377167">
        <ele>775.0</ele>
        <time>2019-07-31T11:42:57.076Z</time>
      </trkpt>
      <trkpt lat="42.98519833" lon="-1.203745">
        <ele>775.0</ele>
        <time>2019-07-31T11:42:58.079Z</time>
      </trkpt>
      <trkpt lat="42.98518833" lon="-1.20373">
        <ele>774.0</ele>
        <time>2019-07-31T11:42:59.086Z</time>
      </trkpt>
      <trkpt lat="42.98517833" lon="-1.20371">
        <ele>775.0</ele>
        <time>2019-07-31T11:43:00.092Z</time>
      </trkpt>
      <trkpt lat="42.98517333" lon="-1.20368667">
        <ele>775.0</ele>
        <time>2019-07-31T11:43:01.098Z</time>
      </trkpt>
      <trkpt lat="42.98517333" lon="-1.20366">
        <ele>775.0</ele>
        <time>2019-07-31T11:43:02.102Z</time>
      </trkpt>
      <trkpt lat="42.98517667" lon="-1.20363333">
        <ele>775.0</ele>
        <time>2019-07-31T11:43:03.108Z</time>
      </trkpt>
      <trkpt lat="42.98518" lon="-1.20360333">
        <ele>774.0</ele>
        <time>2019-07-31T11:43:04.113Z</time>
      </trkpt>
      <trkpt lat="42.98517833" lon="-1.20357833">
        <ele>774.0</ele>
        <time>2019-07-31T11:43:05.118Z</time>
      </trkpt>
      <trkpt lat="42.98517667" lon="-1.20356">
        <ele>776.0</ele>
        <time>2019-07-31T11:43:06.123Z</time>
      </trkpt>
      <trkpt lat="42.98517333" lon="-1.20353833">
        <ele>777.0</ele>
        <time>2019-07-31T11:43:07.128Z</time>
      </trkpt>
      <trkpt lat="42.98517167" lon="-1.20351333">
        <ele>778.0</ele>
        <time>2019-07-31T11:43:08.135Z</time>
      </trkpt>
      <trkpt lat="42.985175" lon="-1.20348667">
        <ele>777.0</ele>
        <time>2019-07-31T11:43:09.141Z</time>
      </trkpt>
      <trkpt lat="42.98518" lon="-1.20346667">
        <ele>777.0</ele>
        <time>2019-07-31T11:43:10.144Z</time>
      </trkpt>
      <trkpt lat="42.98518" lon="-1.20344667">
        <ele>777.0</ele>
        <time>2019-07-31T11:43:11.150Z</time>
      </trkpt>
      <trkpt lat="42.985185" lon="-1.20342167">
        <ele>778.0</ele>
        <time>2019-07-31T11:43:12.155Z</time>
      </trkpt>
      <trkpt lat="42.98518833" lon="-1.2034">
        <ele>778.0</ele>
        <time>2019-07-31T11:43:13.159Z</time>
      </trkpt>
      <trkpt lat="42.98519" lon="-1.20337833">
        <ele>779.0</ele>
        <time>2019-07-31T11:43:14.164Z</time>
      </trkpt>
      <trkpt lat="42.985195" lon="-1.20336333">
        <ele>779.0</ele>
        <time>2019-07-31T11:43:15.168Z</time>
      </trkpt>
      <trkpt lat="42.985195" lon="-1.20334333">
        <ele>780.0</ele>
        <time>2019-07-31T11:43:16.174Z</time>
      </trkpt>
      <trkpt lat="42.98519333" lon="-1.20332">
        <ele>780.0</ele>
        <time>2019-07-31T11:43:17.178Z</time>
      </trkpt>
      <trkpt lat="42.985195" lon="-1.20330333">
        <ele>780.0</ele>
        <time>2019-07-31T11:43:18.184Z</time>
      </trkpt>
      <trkpt lat="42.9852" lon="-1.20327667">
        <ele>780.0</ele>
        <time>2019-07-31T11:43:19.062Z</time>
      </trkpt>
      <trkpt lat="42.9852" lon="-1.20326">
        <ele>781.0</ele>
        <time>2019-07-31T11:43:20.065Z</time>
      </trkpt>
      <trkpt lat="42.9852" lon="-1.203245">
        <ele>781.0</ele>
        <time>2019-07-31T11:43:21.070Z</time>
      </trkpt>
      <trkpt lat="42.98520167" lon="-1.20322833">
        <ele>781.0</ele>
        <time>2019-07-31T11:43:22.075Z</time>
      </trkpt>
      <trkpt lat="42.98519833" lon="-1.20321">
        <ele>780.0</ele>
        <time>2019-07-31T11:43:23.079Z</time>
      </trkpt>
      <trkpt lat="42.98519667" lon="-1.20319">
        <ele>779.0</ele>
        <time>2019-07-31T11:43:24.083Z</time>
      </trkpt>
      <trkpt lat="42.98519333" lon="-1.20317167">
        <ele>779.0</ele>
        <time>2019-07-31T11:43:25.088Z</time>
      </trkpt>
      <trkpt lat="42.98519167" lon="-1.20315333">
        <ele>779.0</ele>
        <time>2019-07-31T11:43:26.094Z</time>
      </trkpt>
      <trkpt lat="42.98519" lon="-1.20313167">
        <ele>779.0</ele>
        <time>2019-07-31T11:43:27.098Z</time>
      </trkpt>
      <trkpt lat="42.98518833" lon="-1.20311333">
        <ele>778.0</ele>
        <time>2019-07-31T11:43:28.104Z</time>
      </trkpt>
      <trkpt lat="42.98519" lon="-1.20309167">
        <ele>778.0</ele>
        <time>2019-07-31T11:43:29.110Z</time>
      </trkpt>
      <trkpt lat="42.98519333" lon="-1.20306833">
        <ele>778.0</ele>
        <time>2019-07-31T11:43:30.117Z</time>
      </trkpt>
      <trkpt lat="42.985195" lon="-1.20304833">
        <ele>778.0</ele>
        <time>2019-07-31T11:43:31.123Z</time>
      </trkpt>
      <trkpt lat="42.985195" lon="-1.20302667">
        <ele>779.0</ele>
        <time>2019-07-31T11:43:32.130Z</time>
      </trkpt>
      <trkpt lat="42.98519333" lon="-1.20300667">
        <ele>779.0</ele>
        <time>2019-07-31T11:43:33.136Z</time>
      </trkpt>
      <trkpt lat="42.98519167" lon="-1.20298667">
        <ele>779.0</ele>
        <time>2019-07-31T11:43:34.141Z</time>
      </trkpt>
      <trkpt lat="42.98519333" lon="-1.20296667">
        <ele>779.0</ele>
        <time>2019-07-31T11:43:35.147Z</time>
      </trkpt>
      <trkpt lat="42.98519333" lon="-1.20294667">
        <ele>780.0</ele>
        <time>2019-07-31T11:43:36.151Z</time>
      </trkpt>
      <trkpt lat="42.98519333" lon="-1.202925">
        <ele>779.0</ele>
        <time>2019-07-31T11:43:37.156Z</time>
      </trkpt>
      <trkpt lat="42.98519667" lon="-1.20290667">
        <ele>779.0</ele>
        <time>2019-07-31T11:43:38.161Z</time>
      </trkpt>
      <trkpt lat="42.98519833" lon="-1.20288667">
        <ele>780.0</ele>
        <time>2019-07-31T11:43:39.166Z</time>
      </trkpt>
      <trkpt lat="42.98519833" lon="-1.20286667">
        <ele>780.0</ele>
        <time>2019-07-31T11:43:40.172Z</time>
      </trkpt>
      <trkpt lat="42.9852" lon="-1.202845">
        <ele>780.0</ele>
        <time>2019-07-31T11:43:41.178Z</time>
      </trkpt>
      <trkpt lat="42.98520167" lon="-1.202825">
        <ele>780.0</ele>
        <time>2019-07-31T11:43:42.182Z</time>
      </trkpt>
      <trkpt lat="42.985205" lon="-1.20280167">
        <ele>780.0</ele>
        <time>2019-07-31T11:43:43.063Z</time>
      </trkpt>
      <trkpt lat="42.98520833" lon="-1.20277833">
        <ele>780.0</ele>
        <time>2019-07-31T11:43:44.069Z</time>
      </trkpt>
      <trkpt lat="42.98520667" lon="-1.202755">
        <ele>780.0</ele>
        <time>2019-07-31T11:43:45.074Z</time>
      </trkpt>
      <trkpt lat="42.98520833" lon="-1.20273833">
        <ele>781.0</ele>
        <time>2019-07-31T11:43:46.077Z</time>
      </trkpt>
      <trkpt lat="42.98521167" lon="-1.20271667">
        <ele>781.0</ele>
        <time>2019-07-31T11:43:47.081Z</time>
      </trkpt>
      <trkpt lat="42.98521167" lon="-1.20269667">
        <ele>781.0</ele>
        <time>2019-07-31T11:43:48.085Z</time>
      </trkpt>
      <trkpt lat="42.985205" lon="-1.20268">
        <ele>780.0</ele>
        <time>2019-07-31T11:43:49.090Z</time>
      </trkpt>
      <trkpt lat="42.98520167" lon="-1.20266">
        <ele>780.0</ele>
        <time>2019-07-31T11:43:50.095Z</time>
      </trkpt>
      <trkpt lat="42.98519833" lon="-1.20264167">
        <ele>780.0</ele>
        <time>2019-07-31T11:43:51.099Z</time>
      </trkpt>
      <trkpt lat="42.985195" lon="-1.20261833">
        <ele>779.0</ele>
        <time>2019-07-31T11:43:52.104Z</time>
      </trkpt>
      <trkpt lat="42.98519" lon="-1.20259833">
        <ele>779.0</ele>
        <time>2019-07-31T11:43:53.109Z</time>
      </trkpt>
      <trkpt lat="42.98518667" lon="-1.20257833">
        <ele>778.0</ele>
        <time>2019-07-31T11:43:54.115Z</time>
      </trkpt>
      <trkpt lat="42.985185" lon="-1.202555">
        <ele>778.0</ele>
        <time>2019-07-31T11:43:55.118Z</time>
      </trkpt>
      <trkpt lat="42.98518333" lon="-1.202535">
        <ele>778.0</ele>
        <time>2019-07-31T11:43:56.123Z</time>
      </trkpt>
      <trkpt lat="42.98518333" lon="-1.20251167">
        <ele>778.0</ele>
        <time>2019-07-31T11:43:57.129Z</time>
      </trkpt>
      <trkpt lat="42.98518167" lon="-1.20249">
        <ele>778.0</ele>
        <time>2019-07-31T11:43:58.132Z</time>
      </trkpt>
      <trkpt lat="42.98517833" lon="-1.20246833">
        <ele>778.0</ele>
        <time>2019-07-31T11:43:59.135Z</time>
      </trkpt>
      <trkpt lat="42.98517667" lon="-1.20244667">
        <ele>779.0</ele>
        <time>2019-07-31T11:44:00.140Z</time>
      </trkpt>
      <trkpt lat="42.985175" lon="-1.202425">
        <ele>779.0</ele>
        <time>2019-07-31T11:44:01.146Z</time>
      </trkpt>
      <trkpt lat="42.98517167" lon="-1.202405">
        <ele>779.0</ele>
        <time>2019-07-31T11:44:02.152Z</time>
      </trkpt>
      <trkpt lat="42.98516833" lon="-1.202385">
        <ele>780.0</ele>
        <time>2019-07-31T11:44:03.157Z</time>
      </trkpt>
      <trkpt lat="42.985165" lon="-1.202365">
        <ele>781.0</ele>
        <time>2019-07-31T11:44:04.163Z</time>
      </trkpt>
      <trkpt lat="42.98516333" lon="-1.20234333">
        <ele>781.0</ele>
        <time>2019-07-31T11:44:05.168Z</time>
      </trkpt>
      <trkpt lat="42.98516167" lon="-1.20232333">
        <ele>781.0</ele>
        <time>2019-07-31T11:44:06.171Z</time>
      </trkpt>
      <trkpt lat="42.98516333" lon="-1.2023">
        <ele>782.0</ele>
        <time>2019-07-31T11:44:07.176Z</time>
      </trkpt>
      <trkpt lat="42.98516" lon="-1.20227833">
        <ele>782.0</ele>
        <time>2019-07-31T11:44:08.181Z</time>
      </trkpt>
      <trkpt lat="42.98515667" lon="-1.20225333">
        <ele>782.0</ele>
        <time>2019-07-31T11:44:09.062Z</time>
      </trkpt>
      <trkpt lat="42.98515333" lon="-1.20223167">
        <ele>782.0</ele>
        <time>2019-07-31T11:44:10.067Z</time>
      </trkpt>
      <trkpt lat="42.98515" lon="-1.20221">
        <ele>783.0</ele>
        <time>2019-07-31T11:44:11.073Z</time>
      </trkpt>
      <trkpt lat="42.98514333" lon="-1.20219167">
        <ele>783.0</ele>
        <time>2019-07-31T11:44:12.078Z</time>
      </trkpt>
      <trkpt lat="42.98513667" lon="-1.20217167">
        <ele>783.0</ele>
        <time>2019-07-31T11:44:13.083Z</time>
      </trkpt>
      <trkpt lat="42.985125" lon="-1.20215167">
        <ele>783.0</ele>
        <time>2019-07-31T11:44:14.087Z</time>
      </trkpt>
      <trkpt lat="42.98512" lon="-1.20213">
        <ele>783.0</ele>
        <time>2019-07-31T11:44:15.092Z</time>
      </trkpt>
      <trkpt lat="42.985115" lon="-1.202105">
        <ele>784.0</ele>
        <time>2019-07-31T11:44:16.097Z</time>
      </trkpt>
      <trkpt lat="42.98511" lon="-1.20208333">
        <ele>784.0</ele>
        <time>2019-07-31T11:44:17.103Z</time>
      </trkpt>
      <trkpt lat="42.98510833" lon="-1.20206167">
        <ele>784.0</ele>
        <time>2019-07-31T11:44:18.108Z</time>
      </trkpt>
      <trkpt lat="42.98510833" lon="-1.20204">
        <ele>784.0</ele>
        <time>2019-07-31T11:44:19.113Z</time>
      </trkpt>
      <trkpt lat="42.98510667" lon="-1.20201833">
        <ele>783.0</ele>
        <time>2019-07-31T11:44:20.120Z</time>
      </trkpt>
      <trkpt lat="42.98510333" lon="-1.20199833">
        <ele>783.0</ele>
        <time>2019-07-31T11:44:21.126Z</time>
      </trkpt>
      <trkpt lat="42.98510167" lon="-1.201975">
        <ele>783.0</ele>
        <time>2019-07-31T11:44:22.132Z</time>
      </trkpt>
      <trkpt lat="42.98510167" lon="-1.20195333">
        <ele>783.0</ele>
        <time>2019-07-31T11:44:23.137Z</time>
      </trkpt>
      <trkpt lat="42.985105" lon="-1.20192833">
        <ele>782.0</ele>
        <time>2019-07-31T11:44:24.142Z</time>
      </trkpt>
      <trkpt lat="42.98510333" lon="-1.20190333">
        <ele>781.0</ele>
        <time>2019-07-31T11:44:25.146Z</time>
      </trkpt>
      <trkpt lat="42.98510167" lon="-1.20188">
        <ele>781.0</ele>
        <time>2019-07-31T11:44:26.151Z</time>
      </trkpt>
      <trkpt lat="42.98509833" lon="-1.20185667">
        <ele>781.0</ele>
        <time>2019-07-31T11:44:27.156Z</time>
      </trkpt>
      <trkpt lat="42.98509833" lon="-1.20183667">
        <ele>781.0</ele>
        <time>2019-07-31T11:44:28.159Z</time>
      </trkpt>
      <trkpt lat="42.985095" lon="-1.201815">
        <ele>781.0</ele>
        <time>2019-07-31T11:44:29.164Z</time>
      </trkpt>
      <trkpt lat="42.98509167" lon="-1.20179167">
        <ele>781.0</ele>
        <time>2019-07-31T11:44:30.169Z</time>
      </trkpt>
      <trkpt lat="42.98509333" lon="-1.20177">
        <ele>781.0</ele>
        <time>2019-07-31T11:44:31.175Z</time>
      </trkpt>
      <trkpt lat="42.98509333" lon="-1.20174833">
        <ele>782.0</ele>
        <time>2019-07-31T11:44:32.182Z</time>
      </trkpt>
      <trkpt lat="42.98509333" lon="-1.201725">
        <ele>782.0</ele>
        <time>2019-07-31T11:44:33.063Z</time>
      </trkpt>
      <trkpt lat="42.98509167" lon="-1.20170333">
        <ele>782.0</ele>
        <time>2019-07-31T11:44:34.068Z</time>
      </trkpt>
      <trkpt lat="42.98509167" lon="-1.20168">
        <ele>782.0</ele>
        <time>2019-07-31T11:44:35.074Z</time>
      </trkpt>
      <trkpt lat="42.98509167" lon="-1.20165667">
        <ele>782.0</ele>
        <time>2019-07-31T11:44:36.076Z</time>
      </trkpt>
      <trkpt lat="42.98509333" lon="-1.201635">
        <ele>782.0</ele>
        <time>2019-07-31T11:44:37.080Z</time>
      </trkpt>
      <trkpt lat="42.98509333" lon="-1.20161">
        <ele>782.0</ele>
        <time>2019-07-31T11:44:38.085Z</time>
      </trkpt>
      <trkpt lat="42.985095" lon="-1.20158667">
        <ele>782.0</ele>
        <time>2019-07-31T11:44:39.085Z</time>
      </trkpt>
      <trkpt lat="42.98509667" lon="-1.20156333">
        <ele>782.0</ele>
        <time>2019-07-31T11:44:40.088Z</time>
      </trkpt>
      <trkpt lat="42.98509667" lon="-1.20154333">
        <ele>782.0</ele>
        <time>2019-07-31T11:44:41.093Z</time>
      </trkpt>
      <trkpt lat="42.98509833" lon="-1.20152">
        <ele>782.0</ele>
        <time>2019-07-31T11:44:42.096Z</time>
      </trkpt>
      <trkpt lat="42.98510167" lon="-1.20149667">
        <ele>781.0</ele>
        <time>2019-07-31T11:44:43.100Z</time>
      </trkpt>
      <trkpt lat="42.985105" lon="-1.201475">
        <ele>781.0</ele>
        <time>2019-07-31T11:44:44.102Z</time>
      </trkpt>
      <trkpt lat="42.98510667" lon="-1.201455">
        <ele>781.0</ele>
        <time>2019-07-31T11:44:45.107Z</time>
      </trkpt>
      <trkpt lat="42.98510833" lon="-1.201435">
        <ele>781.0</ele>
        <time>2019-07-31T11:44:46.114Z</time>
      </trkpt>
      <trkpt lat="42.98511" lon="-1.20141333">
        <ele>781.0</ele>
        <time>2019-07-31T11:44:47.118Z</time>
      </trkpt>
      <trkpt lat="42.98511167" lon="-1.201395">
        <ele>781.0</ele>
        <time>2019-07-31T11:44:48.124Z</time>
      </trkpt>
      <trkpt lat="42.98511" lon="-1.20137333">
        <ele>781.0</ele>
        <time>2019-07-31T11:44:49.129Z</time>
      </trkpt>
      <trkpt lat="42.98511333" lon="-1.20135167">
        <ele>781.0</ele>
        <time>2019-07-31T11:44:50.135Z</time>
      </trkpt>
      <trkpt lat="42.98511667" lon="-1.20133167">
        <ele>781.0</ele>
        <time>2019-07-31T11:44:51.141Z</time>
      </trkpt>
      <trkpt lat="42.98511833" lon="-1.201315">
        <ele>781.0</ele>
        <time>2019-07-31T11:44:52.147Z</time>
      </trkpt>
      <trkpt lat="42.98512" lon="-1.201295">
        <ele>781.0</ele>
        <time>2019-07-31T11:44:53.153Z</time>
      </trkpt>
      <trkpt lat="42.98512333" lon="-1.20127833">
        <ele>782.0</ele>
        <time>2019-07-31T11:44:54.159Z</time>
      </trkpt>
      <trkpt lat="42.98512667" lon="-1.20126">
        <ele>782.0</ele>
        <time>2019-07-31T11:44:55.163Z</time>
      </trkpt>
      <trkpt lat="42.98513" lon="-1.20124333">
        <ele>783.0</ele>
        <time>2019-07-31T11:44:56.167Z</time>
      </trkpt>
      <trkpt lat="42.985135" lon="-1.20122333">
        <ele>782.0</ele>
        <time>2019-07-31T11:44:57.171Z</time>
      </trkpt>
      <trkpt lat="42.985135" lon="-1.20120667">
        <ele>783.0</ele>
        <time>2019-07-31T11:44:58.178Z</time>
      </trkpt>
      <trkpt lat="42.98513833" lon="-1.20118667">
        <ele>783.0</ele>
        <time>2019-07-31T11:44:59.183Z</time>
      </trkpt>
      <trkpt lat="42.98514" lon="-1.20116167">
        <ele>783.0</ele>
        <time>2019-07-31T11:45:00.062Z</time>
      </trkpt>
      <trkpt lat="42.985145" lon="-1.20113833">
        <ele>783.0</ele>
        <time>2019-07-31T11:45:01.067Z</time>
      </trkpt>
      <trkpt lat="42.98514667" lon="-1.201115">
        <ele>783.0</ele>
        <time>2019-07-31T11:45:02.073Z</time>
      </trkpt>
      <trkpt lat="42.985145" lon="-1.20109333">
        <ele>783.0</ele>
        <time>2019-07-31T11:45:03.078Z</time>
      </trkpt>
      <trkpt lat="42.98514167" lon="-1.20107333">
        <ele>783.0</ele>
        <time>2019-07-31T11:45:04.083Z</time>
      </trkpt>
      <trkpt lat="42.98513667" lon="-1.20105167">
        <ele>784.0</ele>
        <time>2019-07-31T11:45:05.086Z</time>
      </trkpt>
      <trkpt lat="42.985135" lon="-1.20103167">
        <ele>784.0</ele>
        <time>2019-07-31T11:45:06.091Z</time>
      </trkpt>
      <trkpt lat="42.98513" lon="-1.20101167">
        <ele>784.0</ele>
        <time>2019-07-31T11:45:07.095Z</time>
      </trkpt>
      <trkpt lat="42.98512" lon="-1.20099333">
        <ele>784.0</ele>
        <time>2019-07-31T11:45:08.100Z</time>
      </trkpt>
      <trkpt lat="42.98511" lon="-1.20097667">
        <ele>785.0</ele>
        <time>2019-07-31T11:45:09.106Z</time>
      </trkpt>
      <trkpt lat="42.98510333" lon="-1.20095667">
        <ele>785.0</ele>
        <time>2019-07-31T11:45:10.113Z</time>
      </trkpt>
      <trkpt lat="42.985095" lon="-1.20093667">
        <ele>786.0</ele>
        <time>2019-07-31T11:45:11.117Z</time>
      </trkpt>
      <trkpt lat="42.98508833" lon="-1.20092167">
        <ele>785.0</ele>
        <time>2019-07-31T11:45:12.123Z</time>
      </trkpt>
      <trkpt lat="42.98508" lon="-1.2009">
        <ele>785.0</ele>
        <time>2019-07-31T11:45:13.127Z</time>
      </trkpt>
      <trkpt lat="42.985075" lon="-1.20088">
        <ele>785.0</ele>
        <time>2019-07-31T11:45:14.132Z</time>
      </trkpt>
      <trkpt lat="42.98507" lon="-1.20085833">
        <ele>786.0</ele>
        <time>2019-07-31T11:45:15.140Z</time>
      </trkpt>
      <trkpt lat="42.985065" lon="-1.20083833">
        <ele>786.0</ele>
        <time>2019-07-31T11:45:16.147Z</time>
      </trkpt>
      <trkpt lat="42.98506167" lon="-1.20081667">
        <ele>786.0</ele>
        <time>2019-07-31T11:45:17.150Z</time>
      </trkpt>
      <trkpt lat="42.98505667" lon="-1.200795">
        <ele>787.0</ele>
        <time>2019-07-31T11:45:18.156Z</time>
      </trkpt>
      <trkpt lat="42.98505333" lon="-1.20077333">
        <ele>786.0</ele>
        <time>2019-07-31T11:45:19.160Z</time>
      </trkpt>
      <trkpt lat="42.98504833" lon="-1.20074833">
        <ele>786.0</ele>
        <time>2019-07-31T11:45:20.163Z</time>
      </trkpt>
      <trkpt lat="42.98504333" lon="-1.20072833">
        <ele>786.0</ele>
        <time>2019-07-31T11:45:21.167Z</time>
      </trkpt>
      <trkpt lat="42.98503833" lon="-1.20070667">
        <ele>786.0</ele>
        <time>2019-07-31T11:45:22.173Z</time>
      </trkpt>
      <trkpt lat="42.98503" lon="-1.20069">
        <ele>786.0</ele>
        <time>2019-07-31T11:45:23.179Z</time>
      </trkpt>
      <trkpt lat="42.98502833" lon="-1.20066833">
        <ele>784.0</ele>
        <time>2019-07-31T11:45:24.183Z</time>
      </trkpt>
      <trkpt lat="42.98503" lon="-1.20065">
        <ele>784.0</ele>
        <time>2019-07-31T11:45:25.063Z</time>
      </trkpt>
      <trkpt lat="42.98503167" lon="-1.20063">
        <ele>785.0</ele>
        <time>2019-07-31T11:45:26.069Z</time>
      </trkpt>
      <trkpt lat="42.985035" lon="-1.20060667">
        <ele>784.0</ele>
        <time>2019-07-31T11:45:27.074Z</time>
      </trkpt>
      <trkpt lat="42.98503333" lon="-1.20058">
        <ele>784.0</ele>
        <time>2019-07-31T11:45:28.079Z</time>
      </trkpt>
      <trkpt lat="42.98503" lon="-1.20055833">
        <ele>784.0</ele>
        <time>2019-07-31T11:45:29.085Z</time>
      </trkpt>
      <trkpt lat="42.98502167" lon="-1.20053667">
        <ele>785.0</ele>
        <time>2019-07-31T11:45:30.087Z</time>
      </trkpt>
      <trkpt lat="42.98501833" lon="-1.20051667">
        <ele>785.0</ele>
        <time>2019-07-31T11:45:31.090Z</time>
      </trkpt>
      <trkpt lat="42.98501667" lon="-1.20049667">
        <ele>785.0</ele>
        <time>2019-07-31T11:45:32.095Z</time>
      </trkpt>
      <trkpt lat="42.98501333" lon="-1.20047833">
        <ele>785.0</ele>
        <time>2019-07-31T11:45:33.101Z</time>
      </trkpt>
      <trkpt lat="42.98500833" lon="-1.20045833">
        <ele>785.0</ele>
        <time>2019-07-31T11:45:34.108Z</time>
      </trkpt>
      <trkpt lat="42.98500667" lon="-1.20043667">
        <ele>785.0</ele>
        <time>2019-07-31T11:45:35.114Z</time>
      </trkpt>
      <trkpt lat="42.985005" lon="-1.20041667">
        <ele>785.0</ele>
        <time>2019-07-31T11:45:36.119Z</time>
      </trkpt>
      <trkpt lat="42.98500167" lon="-1.20039667">
        <ele>785.0</ele>
        <time>2019-07-31T11:45:37.126Z</time>
      </trkpt>
      <trkpt lat="42.98499833" lon="-1.20037667">
        <ele>785.0</ele>
        <time>2019-07-31T11:45:38.131Z</time>
      </trkpt>
      <trkpt lat="42.984995" lon="-1.20035833">
        <ele>784.0</ele>
        <time>2019-07-31T11:45:39.137Z</time>
      </trkpt>
      <trkpt lat="42.98499167" lon="-1.200335">
        <ele>784.0</ele>
        <time>2019-07-31T11:45:40.144Z</time>
      </trkpt>
      <trkpt lat="42.98498833" lon="-1.200315">
        <ele>784.0</ele>
        <time>2019-07-31T11:45:41.150Z</time>
      </trkpt>
      <trkpt lat="42.984985" lon="-1.20029333">
        <ele>784.0</ele>
        <time>2019-07-31T11:45:42.155Z</time>
      </trkpt>
      <trkpt lat="42.98498167" lon="-1.20027167">
        <ele>784.0</ele>
        <time>2019-07-31T11:45:43.159Z</time>
      </trkpt>
      <trkpt lat="42.98497833" lon="-1.20025">
        <ele>785.0</ele>
        <time>2019-07-31T11:45:44.165Z</time>
      </trkpt>
      <trkpt lat="42.98497667" lon="-1.20022833">
        <ele>785.0</ele>
        <time>2019-07-31T11:45:45.170Z</time>
      </trkpt>
      <trkpt lat="42.984975" lon="-1.20020833">
        <ele>785.0</ele>
        <time>2019-07-31T11:45:46.177Z</time>
      </trkpt>
      <trkpt lat="42.98497" lon="-1.200185">
        <ele>785.0</ele>
        <time>2019-07-31T11:45:47.183Z</time>
      </trkpt>
      <trkpt lat="42.98496667" lon="-1.20016333">
        <ele>785.0</ele>
        <time>2019-07-31T11:45:48.063Z</time>
      </trkpt>
      <trkpt lat="42.98496333" lon="-1.20014167">
        <ele>784.0</ele>
        <time>2019-07-31T11:45:49.067Z</time>
      </trkpt>
      <trkpt lat="42.98496" lon="-1.20011667">
        <ele>784.0</ele>
        <time>2019-07-31T11:45:50.072Z</time>
      </trkpt>
      <trkpt lat="42.98495833" lon="-1.200095">
        <ele>784.0</ele>
        <time>2019-07-31T11:45:51.076Z</time>
      </trkpt>
      <trkpt lat="42.984955" lon="-1.20007333">
        <ele>784.0</ele>
        <time>2019-07-31T11:45:52.079Z</time>
      </trkpt>
      <trkpt lat="42.98495" lon="-1.20005167">
        <ele>783.0</ele>
        <time>2019-07-31T11:45:53.085Z</time>
      </trkpt>
      <trkpt lat="42.984945" lon="-1.20003167">
        <ele>783.0</ele>
        <time>2019-07-31T11:45:54.088Z</time>
      </trkpt>
      <trkpt lat="42.98494" lon="-1.20001">
        <ele>782.0</ele>
        <time>2019-07-31T11:45:55.094Z</time>
      </trkpt>
      <trkpt lat="42.98493833" lon="-1.19998667">
        <ele>783.0</ele>
        <time>2019-07-31T11:45:56.100Z</time>
      </trkpt>
      <trkpt lat="42.98493667" lon="-1.199965">
        <ele>783.0</ele>
        <time>2019-07-31T11:45:57.105Z</time>
      </trkpt>
      <trkpt lat="42.984935" lon="-1.19994333">
        <ele>783.0</ele>
        <time>2019-07-31T11:45:58.111Z</time>
      </trkpt>
      <trkpt lat="42.98493333" lon="-1.19992167">
        <ele>783.0</ele>
        <time>2019-07-31T11:45:59.116Z</time>
      </trkpt>
      <trkpt lat="42.98492833" lon="-1.19990167">
        <ele>783.0</ele>
        <time>2019-07-31T11:46:00.122Z</time>
      </trkpt>
      <trkpt lat="42.984925" lon="-1.19988333">
        <ele>783.0</ele>
        <time>2019-07-31T11:46:01.127Z</time>
      </trkpt>
      <trkpt lat="42.98492167" lon="-1.19986">
        <ele>782.0</ele>
        <time>2019-07-31T11:46:02.131Z</time>
      </trkpt>
      <trkpt lat="42.98492" lon="-1.19983833">
        <ele>782.0</ele>
        <time>2019-07-31T11:46:03.136Z</time>
      </trkpt>
      <trkpt lat="42.98491667" lon="-1.19981667">
        <ele>782.0</ele>
        <time>2019-07-31T11:46:04.144Z</time>
      </trkpt>
      <trkpt lat="42.98491333" lon="-1.199795">
        <ele>782.0</ele>
        <time>2019-07-31T11:46:05.150Z</time>
      </trkpt>
      <trkpt lat="42.98491167" lon="-1.199775">
        <ele>782.0</ele>
        <time>2019-07-31T11:46:06.155Z</time>
      </trkpt>
      <trkpt lat="42.98490667" lon="-1.19975167">
        <ele>782.0</ele>
        <time>2019-07-31T11:46:07.159Z</time>
      </trkpt>
      <trkpt lat="42.98490333" lon="-1.19973">
        <ele>782.0</ele>
        <time>2019-07-31T11:46:08.162Z</time>
      </trkpt>
      <trkpt lat="42.98489667" lon="-1.19970833">
        <ele>782.0</ele>
        <time>2019-07-31T11:46:09.167Z</time>
      </trkpt>
      <trkpt lat="42.98489333" lon="-1.199685">
        <ele>782.0</ele>
        <time>2019-07-31T11:46:10.174Z</time>
      </trkpt>
      <trkpt lat="42.98489" lon="-1.199665">
        <ele>782.0</ele>
        <time>2019-07-31T11:46:11.179Z</time>
      </trkpt>
      <trkpt lat="42.984885" lon="-1.19964167">
        <ele>782.0</ele>
        <time>2019-07-31T11:46:12.184Z</time>
      </trkpt>
      <trkpt lat="42.98488" lon="-1.19962">
        <ele>782.0</ele>
        <time>2019-07-31T11:46:13.062Z</time>
      </trkpt>
      <trkpt lat="42.98487667" lon="-1.1996">
        <ele>782.0</ele>
        <time>2019-07-31T11:46:14.068Z</time>
      </trkpt>
      <trkpt lat="42.98487333" lon="-1.19957833">
        <ele>782.0</ele>
        <time>2019-07-31T11:46:15.075Z</time>
      </trkpt>
      <trkpt lat="42.98487" lon="-1.199555">
        <ele>782.0</ele>
        <time>2019-07-31T11:46:16.080Z</time>
      </trkpt>
      <trkpt lat="42.984865" lon="-1.199535">
        <ele>782.0</ele>
        <time>2019-07-31T11:46:17.085Z</time>
      </trkpt>
      <trkpt lat="42.98486167" lon="-1.19951333">
        <ele>781.0</ele>
        <time>2019-07-31T11:46:18.091Z</time>
      </trkpt>
      <trkpt lat="42.98485833" lon="-1.19949167">
        <ele>781.0</ele>
        <time>2019-07-31T11:46:19.093Z</time>
      </trkpt>
      <trkpt lat="42.98485667" lon="-1.19947">
        <ele>781.0</ele>
        <time>2019-07-31T11:46:20.095Z</time>
      </trkpt>
      <trkpt lat="42.98485333" lon="-1.19945">
        <ele>781.0</ele>
        <time>2019-07-31T11:46:21.099Z</time>
      </trkpt>
      <trkpt lat="42.98485167" lon="-1.19942667">
        <ele>781.0</ele>
        <time>2019-07-31T11:46:22.104Z</time>
      </trkpt>
      <trkpt lat="42.98485" lon="-1.19940333">
        <ele>781.0</ele>
        <time>2019-07-31T11:46:23.108Z</time>
      </trkpt>
      <trkpt lat="42.98484833" lon="-1.19938">
        <ele>782.0</ele>
        <time>2019-07-31T11:46:24.116Z</time>
      </trkpt>
      <trkpt lat="42.98484667" lon="-1.19935833">
        <ele>782.0</ele>
        <time>2019-07-31T11:46:25.121Z</time>
      </trkpt>
      <trkpt lat="42.98484333" lon="-1.199335">
        <ele>782.0</ele>
        <time>2019-07-31T11:46:26.128Z</time>
      </trkpt>
      <trkpt lat="42.98484" lon="-1.19931333">
        <ele>782.0</ele>
        <time>2019-07-31T11:46:27.133Z</time>
      </trkpt>
      <trkpt lat="42.984835" lon="-1.19929167">
        <ele>781.0</ele>
        <time>2019-07-31T11:46:28.139Z</time>
      </trkpt>
      <trkpt lat="42.98483167" lon="-1.19927">
        <ele>781.0</ele>
        <time>2019-07-31T11:46:29.145Z</time>
      </trkpt>
      <trkpt lat="42.984825" lon="-1.19924667">
        <ele>781.0</ele>
        <time>2019-07-31T11:46:30.150Z</time>
      </trkpt>
      <trkpt lat="42.98482167" lon="-1.199225">
        <ele>781.0</ele>
        <time>2019-07-31T11:46:31.156Z</time>
      </trkpt>
      <trkpt lat="42.98481833" lon="-1.19920333">
        <ele>780.0</ele>
        <time>2019-07-31T11:46:32.160Z</time>
      </trkpt>
      <trkpt lat="42.984815" lon="-1.19918">
        <ele>780.0</ele>
        <time>2019-07-31T11:46:33.164Z</time>
      </trkpt>
      <trkpt lat="42.98481167" lon="-1.19916">
        <ele>780.0</ele>
        <time>2019-07-31T11:46:34.170Z</time>
      </trkpt>
      <trkpt lat="42.98480833" lon="-1.19914">
        <ele>780.0</ele>
        <time>2019-07-31T11:46:35.175Z</time>
      </trkpt>
      <trkpt lat="42.98480833" lon="-1.19911667">
        <ele>780.0</ele>
        <time>2019-07-31T11:46:36.181Z</time>
      </trkpt>
      <trkpt lat="42.98480667" lon="-1.19909333">
        <ele>780.0</ele>
        <time>2019-07-31T11:46:37.186Z</time>
      </trkpt>
      <trkpt lat="42.98480667" lon="-1.19907167">
        <ele>780.0</ele>
        <time>2019-07-31T11:46:38.067Z</time>
      </trkpt>
      <trkpt lat="42.98480667" lon="-1.19904833">
        <ele>780.0</ele>
        <time>2019-07-31T11:46:39.070Z</time>
      </trkpt>
      <trkpt lat="42.98480833" lon="-1.19902833">
        <ele>780.0</ele>
        <time>2019-07-31T11:46:40.073Z</time>
      </trkpt>
      <trkpt lat="42.98480667" lon="-1.19900833">
        <ele>780.0</ele>
        <time>2019-07-31T11:46:41.076Z</time>
      </trkpt>
      <trkpt lat="42.98480833" lon="-1.19898833">
        <ele>781.0</ele>
        <time>2019-07-31T11:46:42.082Z</time>
      </trkpt>
      <trkpt lat="42.98480667" lon="-1.19896667">
        <ele>780.0</ele>
        <time>2019-07-31T11:46:43.087Z</time>
      </trkpt>
      <trkpt lat="42.98480667" lon="-1.19894833">
        <ele>780.0</ele>
        <time>2019-07-31T11:46:44.091Z</time>
      </trkpt>
      <trkpt lat="42.98480833" lon="-1.19892833">
        <ele>780.0</ele>
        <time>2019-07-31T11:46:45.098Z</time>
      </trkpt>
      <trkpt lat="42.98481167" lon="-1.19891">
        <ele>780.0</ele>
        <time>2019-07-31T11:46:46.104Z</time>
      </trkpt>
      <trkpt lat="42.98481667" lon="-1.19889167">
        <ele>780.0</ele>
        <time>2019-07-31T11:46:47.111Z</time>
      </trkpt>
      <trkpt lat="42.98481833" lon="-1.19887167">
        <ele>780.0</ele>
        <time>2019-07-31T11:46:48.117Z</time>
      </trkpt>
      <trkpt lat="42.984825" lon="-1.19885167">
        <ele>780.0</ele>
        <time>2019-07-31T11:46:49.122Z</time>
      </trkpt>
      <trkpt lat="42.98482833" lon="-1.19883333">
        <ele>780.0</ele>
        <time>2019-07-31T11:46:50.129Z</time>
      </trkpt>
      <trkpt lat="42.98483167" lon="-1.19881333">
        <ele>780.0</ele>
        <time>2019-07-31T11:46:51.136Z</time>
      </trkpt>
      <trkpt lat="42.98483667" lon="-1.19879333">
        <ele>780.0</ele>
        <time>2019-07-31T11:46:52.142Z</time>
      </trkpt>
      <trkpt lat="42.98484333" lon="-1.19877333">
        <ele>780.0</ele>
        <time>2019-07-31T11:46:53.149Z</time>
      </trkpt>
      <trkpt lat="42.98484833" lon="-1.19875333">
        <ele>780.0</ele>
        <time>2019-07-31T11:46:54.154Z</time>
      </trkpt>
      <trkpt lat="42.98485333" lon="-1.19873333">
        <ele>780.0</ele>
        <time>2019-07-31T11:46:55.159Z</time>
      </trkpt>
      <trkpt lat="42.98485833" lon="-1.19871333">
        <ele>780.0</ele>
        <time>2019-07-31T11:46:56.165Z</time>
      </trkpt>
      <trkpt lat="42.984865" lon="-1.198695">
        <ele>780.0</ele>
        <time>2019-07-31T11:46:57.171Z</time>
      </trkpt>
      <trkpt lat="42.98487333" lon="-1.198675">
        <ele>780.0</ele>
        <time>2019-07-31T11:46:58.176Z</time>
      </trkpt>
      <trkpt lat="42.98488333" lon="-1.19865667">
        <ele>780.0</ele>
        <time>2019-07-31T11:46:59.181Z</time>
      </trkpt>
      <trkpt lat="42.98489167" lon="-1.19864">
        <ele>780.0</ele>
        <time>2019-07-31T11:47:00.061Z</time>
      </trkpt>
      <trkpt lat="42.9849" lon="-1.19862167">
        <ele>780.0</ele>
        <time>2019-07-31T11:47:01.068Z</time>
      </trkpt>
      <trkpt lat="42.98491" lon="-1.19860333">
        <ele>780.0</ele>
        <time>2019-07-31T11:47:02.074Z</time>
      </trkpt>
      <trkpt lat="42.98491667" lon="-1.198585">
        <ele>780.0</ele>
        <time>2019-07-31T11:47:03.079Z</time>
      </trkpt>
      <trkpt lat="42.98492667" lon="-1.19856833">
        <ele>781.0</ele>
        <time>2019-07-31T11:47:04.082Z</time>
      </trkpt>
      <trkpt lat="42.98493333" lon="-1.19855333">
        <ele>781.0</ele>
        <time>2019-07-31T11:47:05.084Z</time>
      </trkpt>
      <trkpt lat="42.98494167" lon="-1.19853667">
        <ele>781.0</ele>
        <time>2019-07-31T11:47:06.089Z</time>
      </trkpt>
      <trkpt lat="42.98495167" lon="-1.19852167">
        <ele>781.0</ele>
        <time>2019-07-31T11:47:07.095Z</time>
      </trkpt>
      <trkpt lat="42.98496333" lon="-1.198505">
        <ele>780.0</ele>
        <time>2019-07-31T11:47:08.099Z</time>
      </trkpt>
      <trkpt lat="42.984975" lon="-1.19849">
        <ele>780.0</ele>
        <time>2019-07-31T11:47:09.103Z</time>
      </trkpt>
      <trkpt lat="42.98498667" lon="-1.198475">
        <ele>780.0</ele>
        <time>2019-07-31T11:47:10.110Z</time>
      </trkpt>
      <trkpt lat="42.98499667" lon="-1.19846">
        <ele>779.0</ele>
        <time>2019-07-31T11:47:11.116Z</time>
      </trkpt>
      <trkpt lat="42.98500833" lon="-1.19844667">
        <ele>779.0</ele>
        <time>2019-07-31T11:47:12.121Z</time>
      </trkpt>
      <trkpt lat="42.98501833" lon="-1.19843167">
        <ele>779.0</ele>
        <time>2019-07-31T11:47:13.128Z</time>
      </trkpt>
      <trkpt lat="42.98503" lon="-1.19841833">
        <ele>779.0</ele>
        <time>2019-07-31T11:47:14.130Z</time>
      </trkpt>
      <trkpt lat="42.98504167" lon="-1.19840333">
        <ele>779.0</ele>
        <time>2019-07-31T11:47:15.136Z</time>
      </trkpt>
      <trkpt lat="42.98505333" lon="-1.19838833">
        <ele>778.0</ele>
        <time>2019-07-31T11:47:16.142Z</time>
      </trkpt>
      <trkpt lat="42.985065" lon="-1.198375">
        <ele>778.0</ele>
        <time>2019-07-31T11:47:17.147Z</time>
      </trkpt>
      <trkpt lat="42.98507667" lon="-1.19836167">
        <ele>777.0</ele>
        <time>2019-07-31T11:47:18.152Z</time>
      </trkpt>
      <trkpt lat="42.985085" lon="-1.19834833">
        <ele>778.0</ele>
        <time>2019-07-31T11:47:19.159Z</time>
      </trkpt>
      <trkpt lat="42.98509667" lon="-1.19833667">
        <ele>778.0</ele>
        <time>2019-07-31T11:47:20.164Z</time>
      </trkpt>
      <trkpt lat="42.985105" lon="-1.198325">
        <ele>779.0</ele>
        <time>2019-07-31T11:47:21.170Z</time>
      </trkpt>
      <trkpt lat="42.985115" lon="-1.19831">
        <ele>779.0</ele>
        <time>2019-07-31T11:47:22.175Z</time>
      </trkpt>
      <trkpt lat="42.985125" lon="-1.19829667">
        <ele>780.0</ele>
        <time>2019-07-31T11:47:23.181Z</time>
      </trkpt>
      <trkpt lat="42.98513667" lon="-1.198285">
        <ele>780.0</ele>
        <time>2019-07-31T11:47:24.061Z</time>
      </trkpt>
      <trkpt lat="42.98514667" lon="-1.19827167">
        <ele>780.0</ele>
        <time>2019-07-31T11:47:25.064Z</time>
      </trkpt>
      <trkpt lat="42.98516" lon="-1.19825667">
        <ele>779.0</ele>
        <time>2019-07-31T11:47:26.069Z</time>
      </trkpt>
      <trkpt lat="42.98517167" lon="-1.19824667">
        <ele>779.0</ele>
        <time>2019-07-31T11:47:27.074Z</time>
      </trkpt>
      <trkpt lat="42.98518333" lon="-1.19823667">
        <ele>778.0</ele>
        <time>2019-07-31T11:47:28.078Z</time>
      </trkpt>
      <trkpt lat="42.98519833" lon="-1.19822333">
        <ele>777.0</ele>
        <time>2019-07-31T11:47:29.083Z</time>
      </trkpt>
      <trkpt lat="42.98521" lon="-1.19821">
        <ele>777.0</ele>
        <time>2019-07-31T11:47:30.090Z</time>
      </trkpt>
      <trkpt lat="42.985225" lon="-1.19819667">
        <ele>777.0</ele>
        <time>2019-07-31T11:47:31.096Z</time>
      </trkpt>
      <trkpt lat="42.985235" lon="-1.19818167">
        <ele>776.0</ele>
        <time>2019-07-31T11:47:32.101Z</time>
      </trkpt>
      <trkpt lat="42.98524833" lon="-1.19817167">
        <ele>776.0</ele>
        <time>2019-07-31T11:47:33.106Z</time>
      </trkpt>
      <trkpt lat="42.98526" lon="-1.19815833">
        <ele>776.0</ele>
        <time>2019-07-31T11:47:34.111Z</time>
      </trkpt>
      <trkpt lat="42.98527333" lon="-1.19814667">
        <ele>776.0</ele>
        <time>2019-07-31T11:47:35.117Z</time>
      </trkpt>
      <trkpt lat="42.98528333" lon="-1.19813667">
        <ele>777.0</ele>
        <time>2019-07-31T11:47:36.122Z</time>
      </trkpt>
      <trkpt lat="42.985295" lon="-1.198125">
        <ele>777.0</ele>
        <time>2019-07-31T11:47:37.127Z</time>
      </trkpt>
      <trkpt lat="42.98530667" lon="-1.19811">
        <ele>778.0</ele>
        <time>2019-07-31T11:47:38.131Z</time>
      </trkpt>
      <trkpt lat="42.98532" lon="-1.19809833">
        <ele>778.0</ele>
        <time>2019-07-31T11:47:39.136Z</time>
      </trkpt>
      <trkpt lat="42.98533167" lon="-1.198085">
        <ele>778.0</ele>
        <time>2019-07-31T11:47:40.141Z</time>
      </trkpt>
      <trkpt lat="42.985345" lon="-1.19807333">
        <ele>778.0</ele>
        <time>2019-07-31T11:47:41.148Z</time>
      </trkpt>
      <trkpt lat="42.985355" lon="-1.19806">
        <ele>778.0</ele>
        <time>2019-07-31T11:47:42.155Z</time>
      </trkpt>
      <trkpt lat="42.98536333" lon="-1.19804667">
        <ele>778.0</ele>
        <time>2019-07-31T11:47:43.159Z</time>
      </trkpt>
      <trkpt lat="42.98537167" lon="-1.19803">
        <ele>778.0</ele>
        <time>2019-07-31T11:47:44.164Z</time>
      </trkpt>
      <trkpt lat="42.98538" lon="-1.19801333">
        <ele>777.0</ele>
        <time>2019-07-31T11:47:45.168Z</time>
      </trkpt>
      <trkpt lat="42.98539" lon="-1.19799667">
        <ele>777.0</ele>
        <time>2019-07-31T11:47:46.171Z</time>
      </trkpt>
      <trkpt lat="42.98539833" lon="-1.19798167">
        <ele>778.0</ele>
        <time>2019-07-31T11:47:47.176Z</time>
      </trkpt>
      <trkpt lat="42.985405" lon="-1.19797167">
        <ele>779.0</ele>
        <time>2019-07-31T11:47:48.181Z</time>
      </trkpt>
      <trkpt lat="42.98541" lon="-1.19796">
        <ele>779.0</ele>
        <time>2019-07-31T11:47:49.062Z</time>
      </trkpt>
      <trkpt lat="42.98541833" lon="-1.197945">
        <ele>779.0</ele>
        <time>2019-07-31T11:47:50.068Z</time>
      </trkpt>
      <trkpt lat="42.98543" lon="-1.19793167">
        <ele>779.0</ele>
        <time>2019-07-31T11:47:51.075Z</time>
      </trkpt>
      <trkpt lat="42.98544" lon="-1.197915">
        <ele>780.0</ele>
        <time>2019-07-31T11:47:52.079Z</time>
      </trkpt>
      <trkpt lat="42.98545" lon="-1.19789667">
        <ele>780.0</ele>
        <time>2019-07-31T11:47:53.085Z</time>
      </trkpt>
      <trkpt lat="42.98546167" lon="-1.19787667">
        <ele>781.0</ele>
        <time>2019-07-31T11:47:54.091Z</time>
      </trkpt>
      <trkpt lat="42.98547333" lon="-1.19785667">
        <ele>780.0</ele>
        <time>2019-07-31T11:47:55.096Z</time>
      </trkpt>
      <trkpt lat="42.985485" lon="-1.19784167">
        <ele>780.0</ele>
        <time>2019-07-31T11:47:56.102Z</time>
      </trkpt>
      <trkpt lat="42.985495" lon="-1.197825">
        <ele>780.0</ele>
        <time>2019-07-31T11:47:57.106Z</time>
      </trkpt>
      <trkpt lat="42.985505" lon="-1.19780667">
        <ele>780.0</ele>
        <time>2019-07-31T11:47:58.110Z</time>
      </trkpt>
      <trkpt lat="42.985515" lon="-1.19778667">
        <ele>780.0</ele>
        <time>2019-07-31T11:47:59.117Z</time>
      </trkpt>
      <trkpt lat="42.985525" lon="-1.19777">
        <ele>781.0</ele>
        <time>2019-07-31T11:48:00.124Z</time>
      </trkpt>
      <trkpt lat="42.985535" lon="-1.19775333">
        <ele>781.0</ele>
        <time>2019-07-31T11:48:01.130Z</time>
      </trkpt>
      <trkpt lat="42.98554667" lon="-1.19773333">
        <ele>780.0</ele>
        <time>2019-07-31T11:48:02.135Z</time>
      </trkpt>
      <trkpt lat="42.98555667" lon="-1.197715">
        <ele>780.0</ele>
        <time>2019-07-31T11:48:03.142Z</time>
      </trkpt>
      <trkpt lat="42.98556667" lon="-1.19769833">
        <ele>780.0</ele>
        <time>2019-07-31T11:48:04.147Z</time>
      </trkpt>
      <trkpt lat="42.98557833" lon="-1.19768333">
        <ele>780.0</ele>
        <time>2019-07-31T11:48:05.153Z</time>
      </trkpt>
      <trkpt lat="42.98558667" lon="-1.19766667">
        <ele>780.0</ele>
        <time>2019-07-31T11:48:06.159Z</time>
      </trkpt>
      <trkpt lat="42.985595" lon="-1.19765">
        <ele>781.0</ele>
        <time>2019-07-31T11:48:07.163Z</time>
      </trkpt>
      <trkpt lat="42.98560167" lon="-1.197635">
        <ele>781.0</ele>
        <time>2019-07-31T11:48:08.168Z</time>
      </trkpt>
      <trkpt lat="42.98560833" lon="-1.19761667">
        <ele>782.0</ele>
        <time>2019-07-31T11:48:09.175Z</time>
      </trkpt>
      <trkpt lat="42.985615" lon="-1.19760167">
        <ele>783.0</ele>
        <time>2019-07-31T11:48:10.181Z</time>
      </trkpt>
      <trkpt lat="42.98562333" lon="-1.19758333">
        <ele>783.0</ele>
        <time>2019-07-31T11:48:11.061Z</time>
      </trkpt>
      <trkpt lat="42.98563167" lon="-1.19756667">
        <ele>783.0</ele>
        <time>2019-07-31T11:48:12.068Z</time>
      </trkpt>
      <trkpt lat="42.98564" lon="-1.19755">
        <ele>784.0</ele>
        <time>2019-07-31T11:48:13.076Z</time>
      </trkpt>
      <trkpt lat="42.98565167" lon="-1.197535">
        <ele>784.0</ele>
        <time>2019-07-31T11:48:14.080Z</time>
      </trkpt>
      <trkpt lat="42.98566" lon="-1.19752">
        <ele>784.0</ele>
        <time>2019-07-31T11:48:15.086Z</time>
      </trkpt>
      <trkpt lat="42.98567" lon="-1.19750333">
        <ele>784.0</ele>
        <time>2019-07-31T11:48:16.091Z</time>
      </trkpt>
      <trkpt lat="42.98567833" lon="-1.19748333">
        <ele>784.0</ele>
        <time>2019-07-31T11:48:17.096Z</time>
      </trkpt>
      <trkpt lat="42.985685" lon="-1.19746667">
        <ele>784.0</ele>
        <time>2019-07-31T11:48:18.101Z</time>
      </trkpt>
      <trkpt lat="42.98569333" lon="-1.19744833">
        <ele>784.0</ele>
        <time>2019-07-31T11:48:19.105Z</time>
      </trkpt>
      <trkpt lat="42.98570167" lon="-1.19742833">
        <ele>783.0</ele>
        <time>2019-07-31T11:48:20.110Z</time>
      </trkpt>
      <trkpt lat="42.98571" lon="-1.19741">
        <ele>783.0</ele>
        <time>2019-07-31T11:48:21.115Z</time>
      </trkpt>
      <trkpt lat="42.98572" lon="-1.19738833">
        <ele>783.0</ele>
        <time>2019-07-31T11:48:22.120Z</time>
      </trkpt>
      <trkpt lat="42.98572833" lon="-1.19737167">
        <ele>782.0</ele>
        <time>2019-07-31T11:48:23.127Z</time>
      </trkpt>
      <trkpt lat="42.985735" lon="-1.19735">
        <ele>782.0</ele>
        <time>2019-07-31T11:48:24.135Z</time>
      </trkpt>
      <trkpt lat="42.98574" lon="-1.19733167">
        <ele>782.0</ele>
        <time>2019-07-31T11:48:25.143Z</time>
      </trkpt>
      <trkpt lat="42.98574667" lon="-1.19730667">
        <ele>781.0</ele>
        <time>2019-07-31T11:48:26.147Z</time>
      </trkpt>
      <trkpt lat="42.98575333" lon="-1.19728333">
        <ele>781.0</ele>
        <time>2019-07-31T11:48:27.154Z</time>
      </trkpt>
      <trkpt lat="42.98576" lon="-1.19726167">
        <ele>781.0</ele>
        <time>2019-07-31T11:48:28.159Z</time>
      </trkpt>
      <trkpt lat="42.98576667" lon="-1.19724">
        <ele>780.0</ele>
        <time>2019-07-31T11:48:29.164Z</time>
      </trkpt>
      <trkpt lat="42.98577167" lon="-1.19721667">
        <ele>780.0</ele>
        <time>2019-07-31T11:48:30.170Z</time>
      </trkpt>
      <trkpt lat="42.98577667" lon="-1.19719667">
        <ele>780.0</ele>
        <time>2019-07-31T11:48:31.175Z</time>
      </trkpt>
      <trkpt lat="42.98577833" lon="-1.197175">
        <ele>779.0</ele>
        <time>2019-07-31T11:48:32.179Z</time>
      </trkpt>
      <trkpt lat="42.98578333" lon="-1.19715333">
        <ele>780.0</ele>
        <time>2019-07-31T11:48:33.184Z</time>
      </trkpt>
      <trkpt lat="42.985785" lon="-1.197135">
        <ele>780.0</ele>
        <time>2019-07-31T11:48:34.064Z</time>
      </trkpt>
      <trkpt lat="42.98579333" lon="-1.19711333">
        <ele>780.0</ele>
        <time>2019-07-31T11:48:35.071Z</time>
      </trkpt>
      <trkpt lat="42.98579667" lon="-1.19709167">
        <ele>780.0</ele>
        <time>2019-07-31T11:48:36.075Z</time>
      </trkpt>
      <trkpt lat="42.9858" lon="-1.19707167">
        <ele>779.0</ele>
        <time>2019-07-31T11:48:37.081Z</time>
      </trkpt>
      <trkpt lat="42.985805" lon="-1.19704833">
        <ele>780.0</ele>
        <time>2019-07-31T11:48:38.087Z</time>
      </trkpt>
      <trkpt lat="42.98580833" lon="-1.19702833">
        <ele>780.0</ele>
        <time>2019-07-31T11:48:39.091Z</time>
      </trkpt>
      <trkpt lat="42.985815" lon="-1.19700833">
        <ele>780.0</ele>
        <time>2019-07-31T11:48:40.096Z</time>
      </trkpt>
      <trkpt lat="42.98581833" lon="-1.19698833">
        <ele>781.0</ele>
        <time>2019-07-31T11:48:41.101Z</time>
      </trkpt>
      <trkpt lat="42.98582167" lon="-1.19696833">
        <ele>780.0</ele>
        <time>2019-07-31T11:48:42.108Z</time>
      </trkpt>
      <trkpt lat="42.98582667" lon="-1.19694667">
        <ele>780.0</ele>
        <time>2019-07-31T11:48:43.115Z</time>
      </trkpt>
      <trkpt lat="42.98583" lon="-1.19692667">
        <ele>781.0</ele>
        <time>2019-07-31T11:48:44.120Z</time>
      </trkpt>
      <trkpt lat="42.98583333" lon="-1.196905">
        <ele>781.0</ele>
        <time>2019-07-31T11:48:45.123Z</time>
      </trkpt>
      <trkpt lat="42.98583833" lon="-1.19688667">
        <ele>781.0</ele>
        <time>2019-07-31T11:48:46.129Z</time>
      </trkpt>
      <trkpt lat="42.98584167" lon="-1.19686667">
        <ele>780.0</ele>
        <time>2019-07-31T11:48:47.136Z</time>
      </trkpt>
      <trkpt lat="42.985845" lon="-1.19684833">
        <ele>781.0</ele>
        <time>2019-07-31T11:48:48.143Z</time>
      </trkpt>
      <trkpt lat="42.98585333" lon="-1.19683167">
        <ele>780.0</ele>
        <time>2019-07-31T11:48:49.150Z</time>
      </trkpt>
      <trkpt lat="42.98586167" lon="-1.19681333">
        <ele>780.0</ele>
        <time>2019-07-31T11:48:50.156Z</time>
      </trkpt>
      <trkpt lat="42.98587167" lon="-1.19679833">
        <ele>779.0</ele>
        <time>2019-07-31T11:48:51.160Z</time>
      </trkpt>
      <trkpt lat="42.98588167" lon="-1.19678667">
        <ele>779.0</ele>
        <time>2019-07-31T11:48:52.165Z</time>
      </trkpt>
      <trkpt lat="42.98589667" lon="-1.19678">
        <ele>779.0</ele>
        <time>2019-07-31T11:48:53.169Z</time>
      </trkpt>
      <trkpt lat="42.98590833" lon="-1.196775">
        <ele>780.0</ele>
        <time>2019-07-31T11:48:54.175Z</time>
      </trkpt>
      <trkpt lat="42.98592" lon="-1.19677167">
        <ele>780.0</ele>
        <time>2019-07-31T11:48:55.181Z</time>
      </trkpt>
      <trkpt lat="42.98593333" lon="-1.19677167">
        <ele>780.0</ele>
        <time>2019-07-31T11:48:56.061Z</time>
      </trkpt>
      <trkpt lat="42.98594833" lon="-1.19677333">
        <ele>780.0</ele>
        <time>2019-07-31T11:48:57.067Z</time>
      </trkpt>
      <trkpt lat="42.98596333" lon="-1.19677333">
        <ele>780.0</ele>
        <time>2019-07-31T11:48:58.074Z</time>
      </trkpt>
      <trkpt lat="42.98598" lon="-1.19677167">
        <ele>780.0</ele>
        <time>2019-07-31T11:48:59.079Z</time>
      </trkpt>
      <trkpt lat="42.98599833" lon="-1.19677">
        <ele>781.0</ele>
        <time>2019-07-31T11:49:00.082Z</time>
      </trkpt>
      <trkpt lat="42.98601333" lon="-1.19676667">
        <ele>781.0</ele>
        <time>2019-07-31T11:49:01.086Z</time>
      </trkpt>
      <trkpt lat="42.98603" lon="-1.19676667">
        <ele>780.0</ele>
        <time>2019-07-31T11:49:02.089Z</time>
      </trkpt>
      <trkpt lat="42.98604167" lon="-1.19677167">
        <ele>781.0</ele>
        <time>2019-07-31T11:49:03.095Z</time>
      </trkpt>
      <trkpt lat="42.98605667" lon="-1.19677333">
        <ele>781.0</ele>
        <time>2019-07-31T11:49:04.100Z</time>
      </trkpt>
      <trkpt lat="42.98606833" lon="-1.19677333">
        <ele>781.0</ele>
        <time>2019-07-31T11:49:05.105Z</time>
      </trkpt>
      <trkpt lat="42.98608667" lon="-1.19678">
        <ele>781.0</ele>
        <time>2019-07-31T11:49:06.112Z</time>
      </trkpt>
      <trkpt lat="42.98610667" lon="-1.19678667">
        <ele>781.0</ele>
        <time>2019-07-31T11:49:07.117Z</time>
      </trkpt>
      <trkpt lat="42.98612333" lon="-1.19679">
        <ele>781.0</ele>
        <time>2019-07-31T11:49:08.125Z</time>
      </trkpt>
      <trkpt lat="42.98613833" lon="-1.19679">
        <ele>781.0</ele>
        <time>2019-07-31T11:49:09.131Z</time>
      </trkpt>
      <trkpt lat="42.98615833" lon="-1.19679">
        <ele>781.0</ele>
        <time>2019-07-31T11:49:10.135Z</time>
      </trkpt>
      <trkpt lat="42.986175" lon="-1.19679">
        <ele>780.0</ele>
        <time>2019-07-31T11:49:11.139Z</time>
      </trkpt>
      <trkpt lat="42.986185" lon="-1.19679167">
        <ele>780.0</ele>
        <time>2019-07-31T11:49:12.145Z</time>
      </trkpt>
      <trkpt lat="42.98620167" lon="-1.19679333">
        <ele>780.0</ele>
        <time>2019-07-31T11:49:13.151Z</time>
      </trkpt>
      <trkpt lat="42.98622" lon="-1.19679333">
        <ele>780.0</ele>
        <time>2019-07-31T11:49:14.155Z</time>
      </trkpt>
      <trkpt lat="42.98623167" lon="-1.19679833">
        <ele>780.0</ele>
        <time>2019-07-31T11:49:15.159Z</time>
      </trkpt>
      <trkpt lat="42.98624833" lon="-1.19679667">
        <ele>780.0</ele>
        <time>2019-07-31T11:49:16.164Z</time>
      </trkpt>
      <trkpt lat="42.98626333" lon="-1.196795">
        <ele>779.0</ele>
        <time>2019-07-31T11:49:17.169Z</time>
      </trkpt>
      <trkpt lat="42.986275" lon="-1.196795">
        <ele>779.0</ele>
        <time>2019-07-31T11:49:18.174Z</time>
      </trkpt>
      <trkpt lat="42.98629" lon="-1.19679167">
        <ele>779.0</ele>
        <time>2019-07-31T11:49:19.180Z</time>
      </trkpt>
      <trkpt lat="42.986305" lon="-1.196785">
        <ele>779.0</ele>
        <time>2019-07-31T11:49:20.185Z</time>
      </trkpt>
      <trkpt lat="42.98631667" lon="-1.19678167">
        <ele>780.0</ele>
        <time>2019-07-31T11:49:21.064Z</time>
      </trkpt>
      <trkpt lat="42.98632833" lon="-1.19678">
        <ele>781.0</ele>
        <time>2019-07-31T11:49:22.069Z</time>
      </trkpt>
      <trkpt lat="42.98633667" lon="-1.19678167">
        <ele>781.0</ele>
        <time>2019-07-31T11:49:23.075Z</time>
      </trkpt>
      <trkpt lat="42.98635" lon="-1.19677833">
        <ele>782.0</ele>
        <time>2019-07-31T11:49:24.079Z</time>
      </trkpt>
      <trkpt lat="42.98636167" lon="-1.19677667">
        <ele>783.0</ele>
        <time>2019-07-31T11:49:25.085Z</time>
      </trkpt>
      <trkpt lat="42.98637167" lon="-1.19678">
        <ele>783.0</ele>
        <time>2019-07-31T11:49:26.091Z</time>
      </trkpt>
      <trkpt lat="42.986385" lon="-1.19678">
        <ele>783.0</ele>
        <time>2019-07-31T11:49:27.098Z</time>
      </trkpt>
      <trkpt lat="42.9864" lon="-1.196775">
        <ele>783.0</ele>
        <time>2019-07-31T11:49:28.103Z</time>
      </trkpt>
      <trkpt lat="42.98641167" lon="-1.19677">
        <ele>783.0</ele>
        <time>2019-07-31T11:49:29.109Z</time>
      </trkpt>
      <trkpt lat="42.98642833" lon="-1.19676833">
        <ele>783.0</ele>
        <time>2019-07-31T11:49:30.115Z</time>
      </trkpt>
      <trkpt lat="42.98644167" lon="-1.19676667">
        <ele>784.0</ele>
        <time>2019-07-31T11:49:31.118Z</time>
      </trkpt>
      <trkpt lat="42.98645667" lon="-1.196765">
        <ele>784.0</ele>
        <time>2019-07-31T11:49:32.121Z</time>
      </trkpt>
      <trkpt lat="42.98646833" lon="-1.196765">
        <ele>785.0</ele>
        <time>2019-07-31T11:49:33.127Z</time>
      </trkpt>
      <trkpt lat="42.98648167" lon="-1.19676333">
        <ele>786.0</ele>
        <time>2019-07-31T11:49:34.132Z</time>
      </trkpt>
      <trkpt lat="42.98649333" lon="-1.19676167">
        <ele>787.0</ele>
        <time>2019-07-31T11:49:35.136Z</time>
      </trkpt>
      <trkpt lat="42.986505" lon="-1.19675667">
        <ele>787.0</ele>
        <time>2019-07-31T11:49:36.142Z</time>
      </trkpt>
      <trkpt lat="42.98651667" lon="-1.19675333">
        <ele>787.0</ele>
        <time>2019-07-31T11:49:37.149Z</time>
      </trkpt>
      <trkpt lat="42.98652667" lon="-1.19674333">
        <ele>787.0</ele>
        <time>2019-07-31T11:49:38.153Z</time>
      </trkpt>
      <trkpt lat="42.98654167" lon="-1.19673333">
        <ele>788.0</ele>
        <time>2019-07-31T11:49:39.157Z</time>
      </trkpt>
      <trkpt lat="42.98655833" lon="-1.19672">
        <ele>788.0</ele>
        <time>2019-07-31T11:49:40.162Z</time>
      </trkpt>
      <trkpt lat="42.98657333" lon="-1.19670667">
        <ele>789.0</ele>
        <time>2019-07-31T11:49:41.169Z</time>
      </trkpt>
      <trkpt lat="42.98658833" lon="-1.19669667">
        <ele>789.0</ele>
        <time>2019-07-31T11:49:42.173Z</time>
      </trkpt>
      <trkpt lat="42.98660333" lon="-1.19668167">
        <ele>789.0</ele>
        <time>2019-07-31T11:49:43.179Z</time>
      </trkpt>
      <trkpt lat="42.986615" lon="-1.19666667">
        <ele>790.0</ele>
        <time>2019-07-31T11:49:44.186Z</time>
      </trkpt>
      <trkpt lat="42.98663" lon="-1.19665">
        <ele>790.0</ele>
        <time>2019-07-31T11:49:45.067Z</time>
      </trkpt>
      <trkpt lat="42.98664833" lon="-1.19663667">
        <ele>790.0</ele>
        <time>2019-07-31T11:49:46.073Z</time>
      </trkpt>
      <trkpt lat="42.98666667" lon="-1.196615">
        <ele>789.0</ele>
        <time>2019-07-31T11:49:47.078Z</time>
      </trkpt>
      <trkpt lat="42.98668167" lon="-1.19658667">
        <ele>789.0</ele>
        <time>2019-07-31T11:49:48.083Z</time>
      </trkpt>
      <trkpt lat="42.98669333" lon="-1.196565">
        <ele>790.0</ele>
        <time>2019-07-31T11:49:49.087Z</time>
      </trkpt>
      <trkpt lat="42.98669833" lon="-1.19653333">
        <ele>790.0</ele>
        <time>2019-07-31T11:49:50.092Z</time>
      </trkpt>
      <trkpt lat="42.98670667" lon="-1.19651167">
        <ele>790.0</ele>
        <time>2019-07-31T11:49:51.098Z</time>
      </trkpt>
      <trkpt lat="42.98672167" lon="-1.19649333">
        <ele>790.0</ele>
        <time>2019-07-31T11:49:52.102Z</time>
      </trkpt>
      <trkpt lat="42.98673333" lon="-1.19647167">
        <ele>790.0</ele>
        <time>2019-07-31T11:49:53.105Z</time>
      </trkpt>
      <trkpt lat="42.986745" lon="-1.19644833">
        <ele>791.0</ele>
        <time>2019-07-31T11:49:54.112Z</time>
      </trkpt>
      <trkpt lat="42.98675833" lon="-1.19642667">
        <ele>792.0</ele>
        <time>2019-07-31T11:49:55.117Z</time>
      </trkpt>
      <trkpt lat="42.98677667" lon="-1.1964">
        <ele>793.0</ele>
        <time>2019-07-31T11:49:56.124Z</time>
      </trkpt>
      <trkpt lat="42.98678667" lon="-1.19637167">
        <ele>793.0</ele>
        <time>2019-07-31T11:49:57.132Z</time>
      </trkpt>
      <trkpt lat="42.98679" lon="-1.19635">
        <ele>792.0</ele>
        <time>2019-07-31T11:49:58.138Z</time>
      </trkpt>
      <trkpt lat="42.98678833" lon="-1.19632833">
        <ele>793.0</ele>
        <time>2019-07-31T11:49:59.144Z</time>
      </trkpt>
      <trkpt lat="42.9868" lon="-1.196315">
        <ele>792.0</ele>
        <time>2019-07-31T11:50:00.150Z</time>
      </trkpt>
      <trkpt lat="42.98680333" lon="-1.196295">
        <ele>791.0</ele>
        <time>2019-07-31T11:50:01.155Z</time>
      </trkpt>
      <trkpt lat="42.98680667" lon="-1.196275">
        <ele>790.0</ele>
        <time>2019-07-31T11:50:02.160Z</time>
      </trkpt>
      <trkpt lat="42.98681167" lon="-1.19625667">
        <ele>789.0</ele>
        <time>2019-07-31T11:50:03.165Z</time>
      </trkpt>
      <trkpt lat="42.98681833" lon="-1.19624">
        <ele>788.0</ele>
        <time>2019-07-31T11:50:04.171Z</time>
      </trkpt>
      <trkpt lat="42.986825" lon="-1.19622333">
        <ele>787.0</ele>
        <time>2019-07-31T11:50:05.177Z</time>
      </trkpt>
      <trkpt lat="42.98683" lon="-1.19620667">
        <ele>788.0</ele>
        <time>2019-07-31T11:50:06.182Z</time>
      </trkpt>
      <trkpt lat="42.98683333" lon="-1.19619167">
        <ele>788.0</ele>
        <time>2019-07-31T11:50:07.186Z</time>
      </trkpt>
      <trkpt lat="42.98683833" lon="-1.19617667">
        <ele>788.0</ele>
        <time>2019-07-31T11:50:08.067Z</time>
      </trkpt>
      <trkpt lat="42.98684167" lon="-1.196165">
        <ele>787.0</ele>
        <time>2019-07-31T11:50:09.075Z</time>
      </trkpt>
      <trkpt lat="42.986845" lon="-1.196155">
        <ele>787.0</ele>
        <time>2019-07-31T11:50:10.081Z</time>
      </trkpt>
      <trkpt lat="42.98684667" lon="-1.19614667">
        <ele>788.0</ele>
        <time>2019-07-31T11:50:11.087Z</time>
      </trkpt>
      <trkpt lat="42.98684667" lon="-1.19614333">
        <ele>788.0</ele>
        <time>2019-07-31T11:50:12.093Z</time>
      </trkpt>
      <trkpt lat="42.986845" lon="-1.19613833">
        <ele>788.0</ele>
        <time>2019-07-31T11:50:13.097Z</time>
      </trkpt>
      <trkpt lat="42.986845" lon="-1.19613667">
        <ele>790.0</ele>
        <time>2019-07-31T11:50:14.101Z</time>
      </trkpt>
      <trkpt lat="42.98684667" lon="-1.19613333">
        <ele>791.0</ele>
        <time>2019-07-31T11:50:15.107Z</time>
      </trkpt>
      <trkpt lat="42.98685" lon="-1.19613167">
        <ele>792.0</ele>
        <time>2019-07-31T11:50:16.112Z</time>
      </trkpt>
      <trkpt lat="42.98685667" lon="-1.19613">
        <ele>793.0</ele>
        <time>2019-07-31T11:50:17.117Z</time>
      </trkpt>
      <trkpt lat="42.98686333" lon="-1.19613167">
        <ele>793.0</ele>
        <time>2019-07-31T11:50:18.123Z</time>
      </trkpt>
      <trkpt lat="42.98687167" lon="-1.19612333">
        <ele>794.0</ele>
        <time>2019-07-31T11:50:19.130Z</time>
      </trkpt>
      <trkpt lat="42.986875" lon="-1.19611833">
        <ele>793.0</ele>
        <time>2019-07-31T11:50:20.134Z</time>
      </trkpt>
      <trkpt lat="42.98688" lon="-1.19611833">
        <ele>793.0</ele>
        <time>2019-07-31T11:50:21.139Z</time>
      </trkpt>
      <trkpt lat="42.98688667" lon="-1.19612">
        <ele>793.0</ele>
        <time>2019-07-31T11:50:22.145Z</time>
      </trkpt>
      <trkpt lat="42.98689333" lon="-1.19612167">
        <ele>793.0</ele>
        <time>2019-07-31T11:50:23.151Z</time>
      </trkpt>
      <trkpt lat="42.986895" lon="-1.19611833">
        <ele>794.0</ele>
        <time>2019-07-31T11:50:24.155Z</time>
      </trkpt>
      <trkpt lat="42.98689667" lon="-1.19612">
        <ele>794.0</ele>
        <time>2019-07-31T11:50:25.159Z</time>
      </trkpt>
      <trkpt lat="42.98690333" lon="-1.196115">
        <ele>794.0</ele>
        <time>2019-07-31T11:50:26.164Z</time>
      </trkpt>
      <trkpt lat="42.986905" lon="-1.19610667">
        <ele>794.0</ele>
        <time>2019-07-31T11:50:27.169Z</time>
      </trkpt>
      <trkpt lat="42.98690333" lon="-1.19610167">
        <ele>794.0</ele>
        <time>2019-07-31T11:50:28.176Z</time>
      </trkpt>
      <trkpt lat="42.98690667" lon="-1.19611333">
        <ele>793.0</ele>
        <time>2019-07-31T11:50:29.181Z</time>
      </trkpt>
      <trkpt lat="42.986905" lon="-1.19610833">
        <ele>793.0</ele>
        <time>2019-07-31T11:50:30.185Z</time>
      </trkpt>
      <trkpt lat="42.986905" lon="-1.19610333">
        <ele>794.0</ele>
        <time>2019-07-31T11:50:31.065Z</time>
      </trkpt>
      <trkpt lat="42.98690167" lon="-1.19610167">
        <ele>794.0</ele>
        <time>2019-07-31T11:50:32.071Z</time>
      </trkpt>
      <trkpt lat="42.98690167" lon="-1.19609833">
        <ele>794.0</ele>
        <time>2019-07-31T11:50:33.076Z</time>
      </trkpt>
      <trkpt lat="42.9869" lon="-1.19608833">
        <ele>794.0</ele>
        <time>2019-07-31T11:50:34.079Z</time>
      </trkpt>
      <trkpt lat="42.98689667" lon="-1.196085">
        <ele>793.0</ele>
        <time>2019-07-31T11:50:35.085Z</time>
      </trkpt>
      <trkpt lat="42.98689333" lon="-1.19608833">
        <ele>793.0</ele>
        <time>2019-07-31T11:50:36.091Z</time>
      </trkpt>
      <trkpt lat="42.98689333" lon="-1.196095">
        <ele>793.0</ele>
        <time>2019-07-31T11:50:37.095Z</time>
      </trkpt>
      <trkpt lat="42.9869" lon="-1.19609667">
        <ele>793.0</ele>
        <time>2019-07-31T11:50:38.101Z</time>
      </trkpt>
      <trkpt lat="42.986905" lon="-1.19609667">
        <ele>794.0</ele>
        <time>2019-07-31T11:50:39.109Z</time>
      </trkpt>
      <trkpt lat="42.98690833" lon="-1.19609167">
        <ele>794.0</ele>
        <time>2019-07-31T11:50:40.116Z</time>
      </trkpt>
      <trkpt lat="42.98691" lon="-1.19608833">
        <ele>795.0</ele>
        <time>2019-07-31T11:50:41.122Z</time>
      </trkpt>
      <trkpt lat="42.98691167" lon="-1.19608">
        <ele>796.0</ele>
        <time>2019-07-31T11:50:42.129Z</time>
      </trkpt>
      <trkpt lat="42.98691" lon="-1.19607167">
        <ele>796.0</ele>
        <time>2019-07-31T11:50:43.134Z</time>
      </trkpt>
      <trkpt lat="42.98691" lon="-1.19605667">
        <ele>796.0</ele>
        <time>2019-07-31T11:50:44.139Z</time>
      </trkpt>
      <trkpt lat="42.98690333" lon="-1.19604333">
        <ele>795.0</ele>
        <time>2019-07-31T11:50:45.142Z</time>
      </trkpt>
      <trkpt lat="42.98689667" lon="-1.19602667">
        <ele>795.0</ele>
        <time>2019-07-31T11:50:46.145Z</time>
      </trkpt>
      <trkpt lat="42.98689" lon="-1.19601167">
        <ele>795.0</ele>
        <time>2019-07-31T11:50:47.150Z</time>
      </trkpt>
      <trkpt lat="42.98688167" lon="-1.196005">
        <ele>795.0</ele>
        <time>2019-07-31T11:50:48.155Z</time>
      </trkpt>
      <trkpt lat="42.98686833" lon="-1.19600333">
        <ele>794.0</ele>
        <time>2019-07-31T11:50:49.159Z</time>
      </trkpt>
      <trkpt lat="42.98685333" lon="-1.196005">
        <ele>794.0</ele>
        <time>2019-07-31T11:50:50.165Z</time>
      </trkpt>
      <trkpt lat="42.98683667" lon="-1.19600333">
        <ele>794.0</ele>
        <time>2019-07-31T11:50:51.172Z</time>
      </trkpt>
      <trkpt lat="42.98682167" lon="-1.19600333">
        <ele>794.0</ele>
        <time>2019-07-31T11:50:52.178Z</time>
      </trkpt>
      <trkpt lat="42.98680667" lon="-1.196005">
        <ele>793.0</ele>
        <time>2019-07-31T11:50:53.183Z</time>
      </trkpt>
      <trkpt lat="42.98679" lon="-1.19601">
        <ele>794.0</ele>
        <time>2019-07-31T11:50:54.062Z</time>
      </trkpt>
      <trkpt lat="42.98677" lon="-1.19601167">
        <ele>794.0</ele>
        <time>2019-07-31T11:50:55.065Z</time>
      </trkpt>
      <trkpt lat="42.986755" lon="-1.19602167">
        <ele>794.0</ele>
        <time>2019-07-31T11:50:56.070Z</time>
      </trkpt>
      <trkpt lat="42.98674167" lon="-1.19603333">
        <ele>793.0</ele>
        <time>2019-07-31T11:50:57.075Z</time>
      </trkpt>
      <trkpt lat="42.98672167" lon="-1.196045">
        <ele>792.0</ele>
        <time>2019-07-31T11:50:58.081Z</time>
      </trkpt>
      <trkpt lat="42.98670667" lon="-1.196055">
        <ele>792.0</ele>
        <time>2019-07-31T11:50:59.087Z</time>
      </trkpt>
      <trkpt lat="42.98669167" lon="-1.19606167">
        <ele>792.0</ele>
        <time>2019-07-31T11:51:00.094Z</time>
      </trkpt>
      <trkpt lat="42.98667833" lon="-1.196065">
        <ele>792.0</ele>
        <time>2019-07-31T11:51:01.098Z</time>
      </trkpt>
      <trkpt lat="42.98666667" lon="-1.19607">
        <ele>792.0</ele>
        <time>2019-07-31T11:51:02.103Z</time>
      </trkpt>
      <trkpt lat="42.986655" lon="-1.196075">
        <ele>791.0</ele>
        <time>2019-07-31T11:51:03.109Z</time>
      </trkpt>
      <trkpt lat="42.98664333" lon="-1.19607833">
        <ele>791.0</ele>
        <time>2019-07-31T11:51:04.114Z</time>
      </trkpt>
      <trkpt lat="42.98663167" lon="-1.19608333">
        <ele>790.0</ele>
        <time>2019-07-31T11:51:05.119Z</time>
      </trkpt>
      <trkpt lat="42.98661667" lon="-1.196085">
        <ele>790.0</ele>
        <time>2019-07-31T11:51:06.124Z</time>
      </trkpt>
      <trkpt lat="42.98660167" lon="-1.19608667">
        <ele>790.0</ele>
        <time>2019-07-31T11:51:07.129Z</time>
      </trkpt>
      <trkpt lat="42.98659" lon="-1.19609333">
        <ele>789.0</ele>
        <time>2019-07-31T11:51:08.133Z</time>
      </trkpt>
      <trkpt lat="42.98657167" lon="-1.19609667">
        <ele>790.0</ele>
        <time>2019-07-31T11:51:09.139Z</time>
      </trkpt>
      <trkpt lat="42.98655333" lon="-1.19610333">
        <ele>791.0</ele>
        <time>2019-07-31T11:51:10.144Z</time>
      </trkpt>
      <trkpt lat="42.98653667" lon="-1.196105">
        <ele>791.0</ele>
        <time>2019-07-31T11:51:11.151Z</time>
      </trkpt>
      <trkpt lat="42.98651833" lon="-1.19610667">
        <ele>790.0</ele>
        <time>2019-07-31T11:51:12.157Z</time>
      </trkpt>
      <trkpt lat="42.98650333" lon="-1.196105">
        <ele>790.0</ele>
        <time>2019-07-31T11:51:13.163Z</time>
      </trkpt>
      <trkpt lat="42.98649167" lon="-1.19610167">
        <ele>790.0</ele>
        <time>2019-07-31T11:51:14.168Z</time>
      </trkpt>
      <trkpt lat="42.98648667" lon="-1.19609833">
        <ele>790.0</ele>
        <time>2019-07-31T11:51:15.174Z</time>
      </trkpt>
      <trkpt lat="42.98647833" lon="-1.196095">
        <ele>789.0</ele>
        <time>2019-07-31T11:51:16.179Z</time>
      </trkpt>
      <trkpt lat="42.98647" lon="-1.19608833">
        <ele>790.0</ele>
        <time>2019-07-31T11:51:17.184Z</time>
      </trkpt>
      <trkpt lat="42.98646" lon="-1.19608">
        <ele>789.0</ele>
        <time>2019-07-31T11:51:18.061Z</time>
      </trkpt>
      <trkpt lat="42.98645167" lon="-1.19607">
        <ele>789.0</ele>
        <time>2019-07-31T11:51:19.066Z</time>
      </trkpt>
      <trkpt lat="42.98644" lon="-1.19605833">
        <ele>789.0</ele>
        <time>2019-07-31T11:51:20.072Z</time>
      </trkpt>
      <trkpt lat="42.98643" lon="-1.19605">
        <ele>788.0</ele>
        <time>2019-07-31T11:51:21.076Z</time>
      </trkpt>
      <trkpt lat="42.98641833" lon="-1.19604333">
        <ele>787.0</ele>
        <time>2019-07-31T11:51:22.083Z</time>
      </trkpt>
      <trkpt lat="42.98640833" lon="-1.19603667">
        <ele>787.0</ele>
        <time>2019-07-31T11:51:23.089Z</time>
      </trkpt>
      <trkpt lat="42.9864" lon="-1.19602833">
        <ele>786.0</ele>
        <time>2019-07-31T11:51:24.095Z</time>
      </trkpt>
      <trkpt lat="42.986385" lon="-1.19602">
        <ele>786.0</ele>
        <time>2019-07-31T11:51:25.101Z</time>
      </trkpt>
      <trkpt lat="42.98636667" lon="-1.19600833">
        <ele>786.0</ele>
        <time>2019-07-31T11:51:26.107Z</time>
      </trkpt>
      <trkpt lat="42.98635167" lon="-1.19600167">
        <ele>785.0</ele>
        <time>2019-07-31T11:51:27.112Z</time>
      </trkpt>
      <trkpt lat="42.98633667" lon="-1.19599167">
        <ele>785.0</ele>
        <time>2019-07-31T11:51:28.117Z</time>
      </trkpt>
      <trkpt lat="42.98632333" lon="-1.19598333">
        <ele>785.0</ele>
        <time>2019-07-31T11:51:29.120Z</time>
      </trkpt>
      <trkpt lat="42.98631167" lon="-1.195975">
        <ele>785.0</ele>
        <time>2019-07-31T11:51:30.126Z</time>
      </trkpt>
      <trkpt lat="42.9863" lon="-1.19596667">
        <ele>784.0</ele>
        <time>2019-07-31T11:51:31.132Z</time>
      </trkpt>
      <trkpt lat="42.98628833" lon="-1.19596">
        <ele>784.0</ele>
        <time>2019-07-31T11:51:32.139Z</time>
      </trkpt>
      <trkpt lat="42.98628" lon="-1.19595667">
        <ele>783.0</ele>
        <time>2019-07-31T11:51:33.144Z</time>
      </trkpt>
      <trkpt lat="42.98627" lon="-1.19595">
        <ele>784.0</ele>
        <time>2019-07-31T11:51:34.151Z</time>
      </trkpt>
      <trkpt lat="42.986255" lon="-1.19594167">
        <ele>784.0</ele>
        <time>2019-07-31T11:51:35.158Z</time>
      </trkpt>
      <trkpt lat="42.98624" lon="-1.19593333">
        <ele>785.0</ele>
        <time>2019-07-31T11:51:36.163Z</time>
      </trkpt>
      <trkpt lat="42.98622833" lon="-1.195925">
        <ele>786.0</ele>
        <time>2019-07-31T11:51:37.168Z</time>
      </trkpt>
      <trkpt lat="42.986215" lon="-1.19591667">
        <ele>787.0</ele>
        <time>2019-07-31T11:51:38.172Z</time>
      </trkpt>
      <trkpt lat="42.98620667" lon="-1.19591667">
        <ele>788.0</ele>
        <time>2019-07-31T11:51:39.177Z</time>
      </trkpt>
      <trkpt lat="42.98620167" lon="-1.19591333">
        <ele>788.0</ele>
        <time>2019-07-31T11:51:40.182Z</time>
      </trkpt>
      <trkpt lat="42.98619833" lon="-1.19591167">
        <ele>788.0</ele>
        <time>2019-07-31T11:51:41.061Z</time>
      </trkpt>
      <trkpt lat="42.986195" lon="-1.19591">
        <ele>788.0</ele>
        <time>2019-07-31T11:51:42.067Z</time>
      </trkpt>
      <trkpt lat="42.98619667" lon="-1.19590667">
        <ele>788.0</ele>
        <time>2019-07-31T11:51:43.072Z</time>
      </trkpt>
      <trkpt lat="42.98619333" lon="-1.19590167">
        <ele>787.0</ele>
        <time>2019-07-31T11:51:44.076Z</time>
      </trkpt>
      <trkpt lat="42.98618833" lon="-1.195895">
        <ele>787.0</ele>
        <time>2019-07-31T11:51:45.081Z</time>
      </trkpt>
      <trkpt lat="42.98617833" lon="-1.19588333">
        <ele>788.0</ele>
        <time>2019-07-31T11:51:46.088Z</time>
      </trkpt>
      <trkpt lat="42.98616333" lon="-1.19587833">
        <ele>788.0</ele>
        <time>2019-07-31T11:51:47.094Z</time>
      </trkpt>
      <trkpt lat="42.98615" lon="-1.19587167">
        <ele>788.0</ele>
        <time>2019-07-31T11:51:48.099Z</time>
      </trkpt>
      <trkpt lat="42.986135" lon="-1.195865">
        <ele>788.0</ele>
        <time>2019-07-31T11:51:49.102Z</time>
      </trkpt>
      <trkpt lat="42.98611833" lon="-1.19585833">
        <ele>788.0</ele>
        <time>2019-07-31T11:51:50.108Z</time>
      </trkpt>
      <trkpt lat="42.986105" lon="-1.19585333">
        <ele>788.0</ele>
        <time>2019-07-31T11:51:51.114Z</time>
      </trkpt>
      <trkpt lat="42.98609" lon="-1.19584667">
        <ele>788.0</ele>
        <time>2019-07-31T11:51:52.120Z</time>
      </trkpt>
      <trkpt lat="42.98607667" lon="-1.19584167">
        <ele>788.0</ele>
        <time>2019-07-31T11:51:53.126Z</time>
      </trkpt>
      <trkpt lat="42.986065" lon="-1.19584">
        <ele>787.0</ele>
        <time>2019-07-31T11:51:54.130Z</time>
      </trkpt>
      <trkpt lat="42.98604833" lon="-1.195835">
        <ele>787.0</ele>
        <time>2019-07-31T11:51:55.135Z</time>
      </trkpt>
      <trkpt lat="42.98603333" lon="-1.19583">
        <ele>787.0</ele>
        <time>2019-07-31T11:51:56.141Z</time>
      </trkpt>
      <trkpt lat="42.98602" lon="-1.195825">
        <ele>787.0</ele>
        <time>2019-07-31T11:51:57.148Z</time>
      </trkpt>
      <trkpt lat="42.98601" lon="-1.19582167">
        <ele>787.0</ele>
        <time>2019-07-31T11:51:58.154Z</time>
      </trkpt>
      <trkpt lat="42.986" lon="-1.19581667">
        <ele>787.0</ele>
        <time>2019-07-31T11:51:59.159Z</time>
      </trkpt>
      <trkpt lat="42.98598833" lon="-1.19581167">
        <ele>788.0</ele>
        <time>2019-07-31T11:52:00.162Z</time>
      </trkpt>
      <trkpt lat="42.985975" lon="-1.19581">
        <ele>789.0</ele>
        <time>2019-07-31T11:52:01.165Z</time>
      </trkpt>
      <trkpt lat="42.985965" lon="-1.19581">
        <ele>789.0</ele>
        <time>2019-07-31T11:52:02.170Z</time>
      </trkpt>
      <trkpt lat="42.985955" lon="-1.19580667">
        <ele>789.0</ele>
        <time>2019-07-31T11:52:03.175Z</time>
      </trkpt>
      <trkpt lat="42.985945" lon="-1.19580333">
        <ele>788.0</ele>
        <time>2019-07-31T11:52:04.179Z</time>
      </trkpt>
      <trkpt lat="42.98593" lon="-1.1958">
        <ele>789.0</ele>
        <time>2019-07-31T11:52:05.184Z</time>
      </trkpt>
      <trkpt lat="42.98591" lon="-1.19579667">
        <ele>789.0</ele>
        <time>2019-07-31T11:52:06.064Z</time>
      </trkpt>
      <trkpt lat="42.98589" lon="-1.19579333">
        <ele>790.0</ele>
        <time>2019-07-31T11:52:07.070Z</time>
      </trkpt>
      <trkpt lat="42.98587" lon="-1.19578833">
        <ele>791.0</ele>
        <time>2019-07-31T11:52:08.075Z</time>
      </trkpt>
      <trkpt lat="42.98585333" lon="-1.19578">
        <ele>791.0</ele>
        <time>2019-07-31T11:52:09.078Z</time>
      </trkpt>
      <trkpt lat="42.98583167" lon="-1.19577">
        <ele>792.0</ele>
        <time>2019-07-31T11:52:10.082Z</time>
      </trkpt>
      <trkpt lat="42.98580833" lon="-1.19576167">
        <ele>792.0</ele>
        <time>2019-07-31T11:52:11.089Z</time>
      </trkpt>
      <trkpt lat="42.98579" lon="-1.19575833">
        <ele>792.0</ele>
        <time>2019-07-31T11:52:12.097Z</time>
      </trkpt>
      <trkpt lat="42.98577833" lon="-1.19575333">
        <ele>791.0</ele>
        <time>2019-07-31T11:52:13.102Z</time>
      </trkpt>
      <trkpt lat="42.985765" lon="-1.19575">
        <ele>790.0</ele>
        <time>2019-07-31T11:52:14.107Z</time>
      </trkpt>
      <trkpt lat="42.98575167" lon="-1.19574333">
        <ele>789.0</ele>
        <time>2019-07-31T11:52:15.113Z</time>
      </trkpt>
      <trkpt lat="42.98573667" lon="-1.19574167">
        <ele>788.0</ele>
        <time>2019-07-31T11:52:16.117Z</time>
      </trkpt>
      <trkpt lat="42.98572333" lon="-1.19573667">
        <ele>786.0</ele>
        <time>2019-07-31T11:52:17.122Z</time>
      </trkpt>
      <trkpt lat="42.98571833" lon="-1.19573167">
        <ele>784.0</ele>
        <time>2019-07-31T11:52:18.129Z</time>
      </trkpt>
      <trkpt lat="42.985705" lon="-1.19572167">
        <ele>783.0</ele>
        <time>2019-07-31T11:52:19.133Z</time>
      </trkpt>
      <trkpt lat="42.98569333" lon="-1.19571333">
        <ele>783.0</ele>
        <time>2019-07-31T11:52:20.138Z</time>
      </trkpt>
      <trkpt lat="42.98567833" lon="-1.19570167">
        <ele>783.0</ele>
        <time>2019-07-31T11:52:21.144Z</time>
      </trkpt>
      <trkpt lat="42.985665" lon="-1.19569167">
        <ele>783.0</ele>
        <time>2019-07-31T11:52:22.151Z</time>
      </trkpt>
      <trkpt lat="42.98565" lon="-1.19567833">
        <ele>783.0</ele>
        <time>2019-07-31T11:52:23.157Z</time>
      </trkpt>
      <trkpt lat="42.98563667" lon="-1.19566833">
        <ele>784.0</ele>
        <time>2019-07-31T11:52:24.160Z</time>
      </trkpt>
      <trkpt lat="42.98562333" lon="-1.19565833">
        <ele>784.0</ele>
        <time>2019-07-31T11:52:25.165Z</time>
      </trkpt>
      <trkpt lat="42.98561333" lon="-1.19564667">
        <ele>784.0</ele>
        <time>2019-07-31T11:52:26.170Z</time>
      </trkpt>
      <trkpt lat="42.98559833" lon="-1.19563667">
        <ele>784.0</ele>
        <time>2019-07-31T11:52:27.175Z</time>
      </trkpt>
      <trkpt lat="42.98558667" lon="-1.19562333">
        <ele>784.0</ele>
        <time>2019-07-31T11:52:28.181Z</time>
      </trkpt>
      <trkpt lat="42.98557667" lon="-1.19561">
        <ele>784.0</ele>
        <time>2019-07-31T11:52:29.184Z</time>
      </trkpt>
      <trkpt lat="42.985565" lon="-1.19559333">
        <ele>784.0</ele>
        <time>2019-07-31T11:52:30.062Z</time>
      </trkpt>
      <trkpt lat="42.98555333" lon="-1.19557833">
        <ele>784.0</ele>
        <time>2019-07-31T11:52:31.065Z</time>
      </trkpt>
      <trkpt lat="42.98554" lon="-1.195565">
        <ele>785.0</ele>
        <time>2019-07-31T11:52:32.070Z</time>
      </trkpt>
      <trkpt lat="42.98552833" lon="-1.19554833">
        <ele>784.0</ele>
        <time>2019-07-31T11:52:33.075Z</time>
      </trkpt>
      <trkpt lat="42.98551833" lon="-1.19553333">
        <ele>784.0</ele>
        <time>2019-07-31T11:52:34.078Z</time>
      </trkpt>
      <trkpt lat="42.985505" lon="-1.195515">
        <ele>784.0</ele>
        <time>2019-07-31T11:52:35.085Z</time>
      </trkpt>
      <trkpt lat="42.98549" lon="-1.19549667">
        <ele>783.0</ele>
        <time>2019-07-31T11:52:36.092Z</time>
      </trkpt>
      <trkpt lat="42.98547833" lon="-1.19548667">
        <ele>783.0</ele>
        <time>2019-07-31T11:52:37.098Z</time>
      </trkpt>
      <trkpt lat="42.98546333" lon="-1.19547167">
        <ele>784.0</ele>
        <time>2019-07-31T11:52:38.103Z</time>
      </trkpt>
      <trkpt lat="42.98544833" lon="-1.19545833">
        <ele>783.0</ele>
        <time>2019-07-31T11:52:39.105Z</time>
      </trkpt>
      <trkpt lat="42.98543333" lon="-1.19544333">
        <ele>782.0</ele>
        <time>2019-07-31T11:52:40.112Z</time>
      </trkpt>
      <trkpt lat="42.98541667" lon="-1.19543167">
        <ele>782.0</ele>
        <time>2019-07-31T11:52:41.116Z</time>
      </trkpt>
      <trkpt lat="42.98540667" lon="-1.19541833">
        <ele>783.0</ele>
        <time>2019-07-31T11:52:42.120Z</time>
      </trkpt>
      <trkpt lat="42.98539667" lon="-1.19540333">
        <ele>783.0</ele>
        <time>2019-07-31T11:52:43.127Z</time>
      </trkpt>
      <trkpt lat="42.98538667" lon="-1.19539">
        <ele>783.0</ele>
        <time>2019-07-31T11:52:44.130Z</time>
      </trkpt>
      <trkpt lat="42.98537667" lon="-1.195375">
        <ele>783.0</ele>
        <time>2019-07-31T11:52:45.138Z</time>
      </trkpt>
      <trkpt lat="42.98536167" lon="-1.19535833">
        <ele>783.0</ele>
        <time>2019-07-31T11:52:46.145Z</time>
      </trkpt>
      <trkpt lat="42.98535" lon="-1.19534167">
        <ele>783.0</ele>
        <time>2019-07-31T11:52:47.152Z</time>
      </trkpt>
      <trkpt lat="42.98533667" lon="-1.19532667">
        <ele>783.0</ele>
        <time>2019-07-31T11:52:48.157Z</time>
      </trkpt>
      <trkpt lat="42.985325" lon="-1.19530833">
        <ele>783.0</ele>
        <time>2019-07-31T11:52:49.163Z</time>
      </trkpt>
      <trkpt lat="42.98531333" lon="-1.195295">
        <ele>783.0</ele>
        <time>2019-07-31T11:52:50.166Z</time>
      </trkpt>
      <trkpt lat="42.98530167" lon="-1.19528167">
        <ele>784.0</ele>
        <time>2019-07-31T11:52:51.169Z</time>
      </trkpt>
      <trkpt lat="42.98529" lon="-1.19526833">
        <ele>784.0</ele>
        <time>2019-07-31T11:52:52.174Z</time>
      </trkpt>
      <trkpt lat="42.98528" lon="-1.19525833">
        <ele>785.0</ele>
        <time>2019-07-31T11:52:53.179Z</time>
      </trkpt>
      <trkpt lat="42.98526667" lon="-1.19524667">
        <ele>785.0</ele>
        <time>2019-07-31T11:52:54.183Z</time>
      </trkpt>
      <trkpt lat="42.985255" lon="-1.195235">
        <ele>786.0</ele>
        <time>2019-07-31T11:52:55.063Z</time>
      </trkpt>
      <trkpt lat="42.98524667" lon="-1.19522">
        <ele>786.0</ele>
        <time>2019-07-31T11:52:56.065Z</time>
      </trkpt>
      <trkpt lat="42.98523667" lon="-1.195205">
        <ele>786.0</ele>
        <time>2019-07-31T11:52:57.068Z</time>
      </trkpt>
      <trkpt lat="42.98522833" lon="-1.19518833">
        <ele>786.0</ele>
        <time>2019-07-31T11:52:58.073Z</time>
      </trkpt>
      <trkpt lat="42.98522167" lon="-1.19517333">
        <ele>786.0</ele>
        <time>2019-07-31T11:52:59.078Z</time>
      </trkpt>
      <trkpt lat="42.98521333" lon="-1.195155">
        <ele>786.0</ele>
        <time>2019-07-31T11:53:00.082Z</time>
      </trkpt>
      <trkpt lat="42.985205" lon="-1.19514333">
        <ele>786.0</ele>
        <time>2019-07-31T11:53:01.085Z</time>
      </trkpt>
      <trkpt lat="42.98519667" lon="-1.19512667">
        <ele>786.0</ele>
        <time>2019-07-31T11:53:02.089Z</time>
      </trkpt>
      <trkpt lat="42.98518667" lon="-1.19511">
        <ele>786.0</ele>
        <time>2019-07-31T11:53:03.094Z</time>
      </trkpt>
      <trkpt lat="42.98518" lon="-1.19509333">
        <ele>785.0</ele>
        <time>2019-07-31T11:53:04.099Z</time>
      </trkpt>
      <trkpt lat="42.98517167" lon="-1.19507667">
        <ele>784.0</ele>
        <time>2019-07-31T11:53:05.105Z</time>
      </trkpt>
      <trkpt lat="42.98516167" lon="-1.19506167">
        <ele>784.0</ele>
        <time>2019-07-31T11:53:06.112Z</time>
      </trkpt>
      <trkpt lat="42.98515333" lon="-1.19504833">
        <ele>783.0</ele>
        <time>2019-07-31T11:53:07.117Z</time>
      </trkpt>
      <trkpt lat="42.985145" lon="-1.195035">
        <ele>783.0</ele>
        <time>2019-07-31T11:53:08.121Z</time>
      </trkpt>
      <trkpt lat="42.985135" lon="-1.19502">
        <ele>783.0</ele>
        <time>2019-07-31T11:53:09.125Z</time>
      </trkpt>
      <trkpt lat="42.985125" lon="-1.195005">
        <ele>784.0</ele>
        <time>2019-07-31T11:53:10.130Z</time>
      </trkpt>
      <trkpt lat="42.98511833" lon="-1.19499333">
        <ele>784.0</ele>
        <time>2019-07-31T11:53:11.135Z</time>
      </trkpt>
      <trkpt lat="42.985115" lon="-1.194985">
        <ele>783.0</ele>
        <time>2019-07-31T11:53:12.140Z</time>
      </trkpt>
      <trkpt lat="42.985105" lon="-1.19498">
        <ele>784.0</ele>
        <time>2019-07-31T11:53:13.145Z</time>
      </trkpt>
      <trkpt lat="42.98509333" lon="-1.19497333">
        <ele>785.0</ele>
        <time>2019-07-31T11:53:14.151Z</time>
      </trkpt>
      <trkpt lat="42.98508167" lon="-1.19496">
        <ele>785.0</ele>
        <time>2019-07-31T11:53:15.158Z</time>
      </trkpt>
      <trkpt lat="42.98507" lon="-1.19494667">
        <ele>785.0</ele>
        <time>2019-07-31T11:53:16.163Z</time>
      </trkpt>
      <trkpt lat="42.98506" lon="-1.19493333">
        <ele>785.0</ele>
        <time>2019-07-31T11:53:17.170Z</time>
      </trkpt>
      <trkpt lat="42.98505" lon="-1.19491833">
        <ele>785.0</ele>
        <time>2019-07-31T11:53:18.176Z</time>
      </trkpt>
      <trkpt lat="42.98504167" lon="-1.194905">
        <ele>786.0</ele>
        <time>2019-07-31T11:53:19.181Z</time>
      </trkpt>
      <trkpt lat="42.98503333" lon="-1.19489333">
        <ele>787.0</ele>
        <time>2019-07-31T11:53:20.186Z</time>
      </trkpt>
      <trkpt lat="42.985025" lon="-1.19488167">
        <ele>786.0</ele>
        <time>2019-07-31T11:53:21.066Z</time>
      </trkpt>
      <trkpt lat="42.98501667" lon="-1.19486333">
        <ele>786.0</ele>
        <time>2019-07-31T11:53:22.073Z</time>
      </trkpt>
      <trkpt lat="42.985005" lon="-1.19484833">
        <ele>786.0</ele>
        <time>2019-07-31T11:53:23.077Z</time>
      </trkpt>
      <trkpt lat="42.98499333" lon="-1.19483167">
        <ele>786.0</ele>
        <time>2019-07-31T11:53:24.082Z</time>
      </trkpt>
      <trkpt lat="42.98498" lon="-1.19481667">
        <ele>786.0</ele>
        <time>2019-07-31T11:53:25.085Z</time>
      </trkpt>
      <trkpt lat="42.98497" lon="-1.19479667">
        <ele>785.0</ele>
        <time>2019-07-31T11:53:26.090Z</time>
      </trkpt>
      <trkpt lat="42.98496" lon="-1.19477667">
        <ele>785.0</ele>
        <time>2019-07-31T11:53:27.096Z</time>
      </trkpt>
      <trkpt lat="42.98495167" lon="-1.19475833">
        <ele>785.0</ele>
        <time>2019-07-31T11:53:28.102Z</time>
      </trkpt>
      <trkpt lat="42.98494333" lon="-1.19473667">
        <ele>785.0</ele>
        <time>2019-07-31T11:53:29.108Z</time>
      </trkpt>
      <trkpt lat="42.98493333" lon="-1.19471833">
        <ele>785.0</ele>
        <time>2019-07-31T11:53:30.114Z</time>
      </trkpt>
      <trkpt lat="42.984925" lon="-1.1947">
        <ele>785.0</ele>
        <time>2019-07-31T11:53:31.117Z</time>
      </trkpt>
      <trkpt lat="42.98491333" lon="-1.194685">
        <ele>786.0</ele>
        <time>2019-07-31T11:53:32.121Z</time>
      </trkpt>
      <trkpt lat="42.98490167" lon="-1.19467167">
        <ele>786.0</ele>
        <time>2019-07-31T11:53:33.124Z</time>
      </trkpt>
      <trkpt lat="42.98489167" lon="-1.194655">
        <ele>786.0</ele>
        <time>2019-07-31T11:53:34.129Z</time>
      </trkpt>
      <trkpt lat="42.98488167" lon="-1.19463333">
        <ele>787.0</ele>
        <time>2019-07-31T11:53:35.135Z</time>
      </trkpt>
      <trkpt lat="42.98487833" lon="-1.19461667">
        <ele>787.0</ele>
        <time>2019-07-31T11:53:36.143Z</time>
      </trkpt>
      <trkpt lat="42.98487167" lon="-1.19459833">
        <ele>788.0</ele>
        <time>2019-07-31T11:53:37.149Z</time>
      </trkpt>
      <trkpt lat="42.98486333" lon="-1.19457833">
        <ele>788.0</ele>
        <time>2019-07-31T11:53:38.156Z</time>
      </trkpt>
      <trkpt lat="42.98485333" lon="-1.19455833">
        <ele>788.0</ele>
        <time>2019-07-31T11:53:39.161Z</time>
      </trkpt>
      <trkpt lat="42.98484333" lon="-1.19454">
        <ele>788.0</ele>
        <time>2019-07-31T11:53:40.168Z</time>
      </trkpt>
      <trkpt lat="42.98483333" lon="-1.19452167">
        <ele>787.0</ele>
        <time>2019-07-31T11:53:41.173Z</time>
      </trkpt>
      <trkpt lat="42.98482333" lon="-1.19450333">
        <ele>787.0</ele>
        <time>2019-07-31T11:53:42.178Z</time>
      </trkpt>
      <trkpt lat="42.984815" lon="-1.194485">
        <ele>786.0</ele>
        <time>2019-07-31T11:53:43.184Z</time>
      </trkpt>
      <trkpt lat="42.98480833" lon="-1.194465">
        <ele>787.0</ele>
        <time>2019-07-31T11:53:44.065Z</time>
      </trkpt>
      <trkpt lat="42.98479833" lon="-1.19444667">
        <ele>787.0</ele>
        <time>2019-07-31T11:53:45.067Z</time>
      </trkpt>
      <trkpt lat="42.98479" lon="-1.19443">
        <ele>787.0</ele>
        <time>2019-07-31T11:53:46.071Z</time>
      </trkpt>
      <trkpt lat="42.98478167" lon="-1.19441167">
        <ele>786.0</ele>
        <time>2019-07-31T11:53:47.076Z</time>
      </trkpt>
      <trkpt lat="42.98477167" lon="-1.19439333">
        <ele>786.0</ele>
        <time>2019-07-31T11:53:48.081Z</time>
      </trkpt>
      <trkpt lat="42.98476333" lon="-1.194375">
        <ele>786.0</ele>
        <time>2019-07-31T11:53:49.086Z</time>
      </trkpt>
      <trkpt lat="42.98475333" lon="-1.194355">
        <ele>785.0</ele>
        <time>2019-07-31T11:53:50.088Z</time>
      </trkpt>
      <trkpt lat="42.98474333" lon="-1.19433667">
        <ele>785.0</ele>
        <time>2019-07-31T11:53:51.093Z</time>
      </trkpt>
      <trkpt lat="42.98473333" lon="-1.19431833">
        <ele>785.0</ele>
        <time>2019-07-31T11:53:52.100Z</time>
      </trkpt>
      <trkpt lat="42.984725" lon="-1.1943">
        <ele>785.0</ele>
        <time>2019-07-31T11:53:53.106Z</time>
      </trkpt>
      <trkpt lat="42.98471667" lon="-1.19428167">
        <ele>785.0</ele>
        <time>2019-07-31T11:53:54.110Z</time>
      </trkpt>
      <trkpt lat="42.98470667" lon="-1.19426167">
        <ele>784.0</ele>
        <time>2019-07-31T11:53:55.113Z</time>
      </trkpt>
      <trkpt lat="42.98469667" lon="-1.19424833">
        <ele>784.0</ele>
        <time>2019-07-31T11:53:56.116Z</time>
      </trkpt>
      <trkpt lat="42.98468833" lon="-1.19423333">
        <ele>784.0</ele>
        <time>2019-07-31T11:53:57.119Z</time>
      </trkpt>
      <trkpt lat="42.98468167" lon="-1.19422">
        <ele>783.0</ele>
        <time>2019-07-31T11:53:58.125Z</time>
      </trkpt>
      <trkpt lat="42.984675" lon="-1.19420833">
        <ele>783.0</ele>
        <time>2019-07-31T11:53:59.131Z</time>
      </trkpt>
      <trkpt lat="42.98466667" lon="-1.19419333">
        <ele>783.0</ele>
        <time>2019-07-31T11:54:00.138Z</time>
      </trkpt>
      <trkpt lat="42.98466" lon="-1.19418">
        <ele>783.0</ele>
        <time>2019-07-31T11:54:01.143Z</time>
      </trkpt>
      <trkpt lat="42.98465" lon="-1.19417">
        <ele>783.0</ele>
        <time>2019-07-31T11:54:02.149Z</time>
      </trkpt>
      <trkpt lat="42.98464333" lon="-1.19415333">
        <ele>782.0</ele>
        <time>2019-07-31T11:54:03.156Z</time>
      </trkpt>
      <trkpt lat="42.98463667" lon="-1.194135">
        <ele>781.0</ele>
        <time>2019-07-31T11:54:04.159Z</time>
      </trkpt>
      <trkpt lat="42.98462833" lon="-1.194115">
        <ele>781.0</ele>
        <time>2019-07-31T11:54:05.166Z</time>
      </trkpt>
      <trkpt lat="42.98462" lon="-1.194095">
        <ele>781.0</ele>
        <time>2019-07-31T11:54:06.171Z</time>
      </trkpt>
      <trkpt lat="42.98461333" lon="-1.194075">
        <ele>781.0</ele>
        <time>2019-07-31T11:54:07.177Z</time>
      </trkpt>
      <trkpt lat="42.98460667" lon="-1.194055">
        <ele>782.0</ele>
        <time>2019-07-31T11:54:08.182Z</time>
      </trkpt>
      <trkpt lat="42.98460167" lon="-1.19403167">
        <ele>782.0</ele>
        <time>2019-07-31T11:54:09.062Z</time>
      </trkpt>
      <trkpt lat="42.98459333" lon="-1.19400833">
        <ele>783.0</ele>
        <time>2019-07-31T11:54:10.067Z</time>
      </trkpt>
      <trkpt lat="42.984585" lon="-1.19398833">
        <ele>783.0</ele>
        <time>2019-07-31T11:54:11.072Z</time>
      </trkpt>
      <trkpt lat="42.98457667" lon="-1.19396833">
        <ele>783.0</ele>
        <time>2019-07-31T11:54:12.077Z</time>
      </trkpt>
      <trkpt lat="42.98457" lon="-1.19394833">
        <ele>783.0</ele>
        <time>2019-07-31T11:54:13.083Z</time>
      </trkpt>
      <trkpt lat="42.98456333" lon="-1.19392833">
        <ele>783.0</ele>
        <time>2019-07-31T11:54:14.089Z</time>
      </trkpt>
      <trkpt lat="42.984555" lon="-1.19390833">
        <ele>783.0</ele>
        <time>2019-07-31T11:54:15.093Z</time>
      </trkpt>
      <trkpt lat="42.984545" lon="-1.19388833">
        <ele>782.0</ele>
        <time>2019-07-31T11:54:16.097Z</time>
      </trkpt>
      <trkpt lat="42.98453833" lon="-1.19386833">
        <ele>782.0</ele>
        <time>2019-07-31T11:54:17.103Z</time>
      </trkpt>
      <trkpt lat="42.98453" lon="-1.19385167">
        <ele>782.0</ele>
        <time>2019-07-31T11:54:18.109Z</time>
      </trkpt>
      <trkpt lat="42.98452" lon="-1.19383333">
        <ele>781.0</ele>
        <time>2019-07-31T11:54:19.112Z</time>
      </trkpt>
      <trkpt lat="42.98451167" lon="-1.193815">
        <ele>781.0</ele>
        <time>2019-07-31T11:54:20.117Z</time>
      </trkpt>
      <trkpt lat="42.98450167" lon="-1.19379833">
        <ele>781.0</ele>
        <time>2019-07-31T11:54:21.123Z</time>
      </trkpt>
      <trkpt lat="42.98449" lon="-1.19378">
        <ele>782.0</ele>
        <time>2019-07-31T11:54:22.128Z</time>
      </trkpt>
      <trkpt lat="42.98448" lon="-1.19376333">
        <ele>782.0</ele>
        <time>2019-07-31T11:54:23.131Z</time>
      </trkpt>
      <trkpt lat="42.984475" lon="-1.19374167">
        <ele>782.0</ele>
        <time>2019-07-31T11:54:24.134Z</time>
      </trkpt>
      <trkpt lat="42.98446833" lon="-1.19372333">
        <ele>782.0</ele>
        <time>2019-07-31T11:54:25.140Z</time>
      </trkpt>
      <trkpt lat="42.984465" lon="-1.19370333">
        <ele>783.0</ele>
        <time>2019-07-31T11:54:26.145Z</time>
      </trkpt>
      <trkpt lat="42.98445667" lon="-1.19368333">
        <ele>783.0</ele>
        <time>2019-07-31T11:54:27.151Z</time>
      </trkpt>
      <trkpt lat="42.98445167" lon="-1.19366667">
        <ele>783.0</ele>
        <time>2019-07-31T11:54:28.154Z</time>
      </trkpt>
      <trkpt lat="42.98444667" lon="-1.19364667">
        <ele>783.0</ele>
        <time>2019-07-31T11:54:29.161Z</time>
      </trkpt>
      <trkpt lat="42.98444" lon="-1.19362333">
        <ele>783.0</ele>
        <time>2019-07-31T11:54:30.167Z</time>
      </trkpt>
      <trkpt lat="42.98443833" lon="-1.19360167">
        <ele>783.0</ele>
        <time>2019-07-31T11:54:31.174Z</time>
      </trkpt>
      <trkpt lat="42.98443667" lon="-1.19358">
        <ele>783.0</ele>
        <time>2019-07-31T11:54:32.180Z</time>
      </trkpt>
      <trkpt lat="42.98443167" lon="-1.19356167">
        <ele>783.0</ele>
        <time>2019-07-31T11:54:33.183Z</time>
      </trkpt>
      <trkpt lat="42.98442667" lon="-1.19354333">
        <ele>783.0</ele>
        <time>2019-07-31T11:54:34.185Z</time>
      </trkpt>
      <trkpt lat="42.98442167" lon="-1.19353">
        <ele>783.0</ele>
        <time>2019-07-31T11:54:35.064Z</time>
      </trkpt>
      <trkpt lat="42.984415" lon="-1.19351667">
        <ele>784.0</ele>
        <time>2019-07-31T11:54:36.068Z</time>
      </trkpt>
      <trkpt lat="42.98440833" lon="-1.19350667">
        <ele>785.0</ele>
        <time>2019-07-31T11:54:37.072Z</time>
      </trkpt>
      <trkpt lat="42.98440667" lon="-1.19349">
        <ele>784.0</ele>
        <time>2019-07-31T11:54:38.077Z</time>
      </trkpt>
      <trkpt lat="42.98440333" lon="-1.19347333">
        <ele>784.0</ele>
        <time>2019-07-31T11:54:39.082Z</time>
      </trkpt>
      <trkpt lat="42.984395" lon="-1.193455">
        <ele>784.0</ele>
        <time>2019-07-31T11:54:40.087Z</time>
      </trkpt>
      <trkpt lat="42.98438667" lon="-1.19344">
        <ele>783.0</ele>
        <time>2019-07-31T11:54:41.093Z</time>
      </trkpt>
      <trkpt lat="42.98438167" lon="-1.19342167">
        <ele>783.0</ele>
        <time>2019-07-31T11:54:42.100Z</time>
      </trkpt>
      <trkpt lat="42.98437667" lon="-1.19340667">
        <ele>783.0</ele>
        <time>2019-07-31T11:54:43.106Z</time>
      </trkpt>
      <trkpt lat="42.98437167" lon="-1.19339167">
        <ele>782.0</ele>
        <time>2019-07-31T11:54:44.110Z</time>
      </trkpt>
      <trkpt lat="42.98437" lon="-1.19337333">
        <ele>782.0</ele>
        <time>2019-07-31T11:54:45.117Z</time>
      </trkpt>
      <trkpt lat="42.98436833" lon="-1.19335333">
        <ele>782.0</ele>
        <time>2019-07-31T11:54:46.119Z</time>
      </trkpt>
      <trkpt lat="42.984365" lon="-1.19333333">
        <ele>782.0</ele>
        <time>2019-07-31T11:54:47.124Z</time>
      </trkpt>
      <trkpt lat="42.98436167" lon="-1.193315">
        <ele>782.0</ele>
        <time>2019-07-31T11:54:48.129Z</time>
      </trkpt>
      <trkpt lat="42.98435833" lon="-1.193295">
        <ele>782.0</ele>
        <time>2019-07-31T11:54:49.135Z</time>
      </trkpt>
      <trkpt lat="42.98435667" lon="-1.193275">
        <ele>782.0</ele>
        <time>2019-07-31T11:54:50.140Z</time>
      </trkpt>
      <trkpt lat="42.98435667" lon="-1.193255">
        <ele>783.0</ele>
        <time>2019-07-31T11:54:51.146Z</time>
      </trkpt>
      <trkpt lat="42.984355" lon="-1.19323667">
        <ele>783.0</ele>
        <time>2019-07-31T11:54:52.154Z</time>
      </trkpt>
      <trkpt lat="42.98435667" lon="-1.193215">
        <ele>784.0</ele>
        <time>2019-07-31T11:54:53.159Z</time>
      </trkpt>
      <trkpt lat="42.98435667" lon="-1.19319167">
        <ele>785.0</ele>
        <time>2019-07-31T11:54:54.164Z</time>
      </trkpt>
      <trkpt lat="42.98435333" lon="-1.19316333">
        <ele>785.0</ele>
        <time>2019-07-31T11:54:55.168Z</time>
      </trkpt>
      <trkpt lat="42.98435167" lon="-1.19313833">
        <ele>785.0</ele>
        <time>2019-07-31T11:54:56.173Z</time>
      </trkpt>
      <trkpt lat="42.98434833" lon="-1.193115">
        <ele>785.0</ele>
        <time>2019-07-31T11:54:57.176Z</time>
      </trkpt>
      <trkpt lat="42.98434833" lon="-1.19309">
        <ele>785.0</ele>
        <time>2019-07-31T11:54:58.180Z</time>
      </trkpt>
      <trkpt lat="42.98434833" lon="-1.19306667">
        <ele>786.0</ele>
        <time>2019-07-31T11:54:59.184Z</time>
      </trkpt>
      <trkpt lat="42.98434667" lon="-1.193045">
        <ele>787.0</ele>
        <time>2019-07-31T11:55:00.064Z</time>
      </trkpt>
      <trkpt lat="42.984345" lon="-1.19302167">
        <ele>787.0</ele>
        <time>2019-07-31T11:55:01.070Z</time>
      </trkpt>
      <trkpt lat="42.98434167" lon="-1.19299833">
        <ele>786.0</ele>
        <time>2019-07-31T11:55:02.074Z</time>
      </trkpt>
      <trkpt lat="42.98433667" lon="-1.19297333">
        <ele>786.0</ele>
        <time>2019-07-31T11:55:03.078Z</time>
      </trkpt>
      <trkpt lat="42.98433167" lon="-1.19295">
        <ele>786.0</ele>
        <time>2019-07-31T11:55:04.081Z</time>
      </trkpt>
      <trkpt lat="42.98433" lon="-1.19292833">
        <ele>786.0</ele>
        <time>2019-07-31T11:55:05.087Z</time>
      </trkpt>
      <trkpt lat="42.98432667" lon="-1.19290333">
        <ele>785.0</ele>
        <time>2019-07-31T11:55:06.095Z</time>
      </trkpt>
      <trkpt lat="42.98432167" lon="-1.19288167">
        <ele>784.0</ele>
        <time>2019-07-31T11:55:07.100Z</time>
      </trkpt>
      <trkpt lat="42.98431667" lon="-1.19286167">
        <ele>783.0</ele>
        <time>2019-07-31T11:55:08.106Z</time>
      </trkpt>
      <trkpt lat="42.98431333" lon="-1.19284">
        <ele>782.0</ele>
        <time>2019-07-31T11:55:09.112Z</time>
      </trkpt>
      <trkpt lat="42.98431" lon="-1.19282">
        <ele>781.0</ele>
        <time>2019-07-31T11:55:10.117Z</time>
      </trkpt>
      <trkpt lat="42.98430667" lon="-1.19279833">
        <ele>780.0</ele>
        <time>2019-07-31T11:55:11.122Z</time>
      </trkpt>
      <trkpt lat="42.98430167" lon="-1.19277833">
        <ele>779.0</ele>
        <time>2019-07-31T11:55:12.129Z</time>
      </trkpt>
      <trkpt lat="42.98429833" lon="-1.19276">
        <ele>779.0</ele>
        <time>2019-07-31T11:55:13.134Z</time>
      </trkpt>
      <trkpt lat="42.9843" lon="-1.19273833">
        <ele>779.0</ele>
        <time>2019-07-31T11:55:14.140Z</time>
      </trkpt>
      <trkpt lat="42.98429833" lon="-1.19271833">
        <ele>779.0</ele>
        <time>2019-07-31T11:55:15.141Z</time>
      </trkpt>
      <trkpt lat="42.9843" lon="-1.19269667">
        <ele>779.0</ele>
        <time>2019-07-31T11:55:16.146Z</time>
      </trkpt>
      <trkpt lat="42.98429667" lon="-1.19267667">
        <ele>778.0</ele>
        <time>2019-07-31T11:55:17.151Z</time>
      </trkpt>
      <trkpt lat="42.98429" lon="-1.19265833">
        <ele>778.0</ele>
        <time>2019-07-31T11:55:18.157Z</time>
      </trkpt>
      <trkpt lat="42.984285" lon="-1.19263833">
        <ele>778.0</ele>
        <time>2019-07-31T11:55:19.162Z</time>
      </trkpt>
      <trkpt lat="42.98428" lon="-1.19261667">
        <ele>779.0</ele>
        <time>2019-07-31T11:55:20.166Z</time>
      </trkpt>
      <trkpt lat="42.984275" lon="-1.19259667">
        <ele>779.0</ele>
        <time>2019-07-31T11:55:21.172Z</time>
      </trkpt>
      <trkpt lat="42.98427" lon="-1.19257833">
        <ele>780.0</ele>
        <time>2019-07-31T11:55:22.178Z</time>
      </trkpt>
      <trkpt lat="42.98426833" lon="-1.19255667">
        <ele>780.0</ele>
        <time>2019-07-31T11:55:23.184Z</time>
      </trkpt>
      <trkpt lat="42.98426667" lon="-1.192535">
        <ele>780.0</ele>
        <time>2019-07-31T11:55:24.061Z</time>
      </trkpt>
      <trkpt lat="42.98426667" lon="-1.19250833">
        <ele>781.0</ele>
        <time>2019-07-31T11:55:25.066Z</time>
      </trkpt>
      <trkpt lat="42.98426667" lon="-1.19248333">
        <ele>781.0</ele>
        <time>2019-07-31T11:55:26.070Z</time>
      </trkpt>
      <trkpt lat="42.98426333" lon="-1.19245833">
        <ele>782.0</ele>
        <time>2019-07-31T11:55:27.075Z</time>
      </trkpt>
      <trkpt lat="42.98426" lon="-1.19243667">
        <ele>782.0</ele>
        <time>2019-07-31T11:55:28.080Z</time>
      </trkpt>
      <trkpt lat="42.98425667" lon="-1.19241">
        <ele>782.0</ele>
        <time>2019-07-31T11:55:29.084Z</time>
      </trkpt>
      <trkpt lat="42.98425167" lon="-1.192385">
        <ele>781.0</ele>
        <time>2019-07-31T11:55:30.090Z</time>
      </trkpt>
      <trkpt lat="42.98425" lon="-1.19236333">
        <ele>781.0</ele>
        <time>2019-07-31T11:55:31.097Z</time>
      </trkpt>
      <trkpt lat="42.98425167" lon="-1.19233833">
        <ele>781.0</ele>
        <time>2019-07-31T11:55:32.103Z</time>
      </trkpt>
      <trkpt lat="42.98425333" lon="-1.19231667">
        <ele>781.0</ele>
        <time>2019-07-31T11:55:33.109Z</time>
      </trkpt>
      <trkpt lat="42.98425667" lon="-1.19229">
        <ele>782.0</ele>
        <time>2019-07-31T11:55:34.115Z</time>
      </trkpt>
      <trkpt lat="42.98425667" lon="-1.19226833">
        <ele>781.0</ele>
        <time>2019-07-31T11:55:35.122Z</time>
      </trkpt>
      <trkpt lat="42.98425167" lon="-1.19224667">
        <ele>781.0</ele>
        <time>2019-07-31T11:55:36.128Z</time>
      </trkpt>
      <trkpt lat="42.98425" lon="-1.19221833">
        <ele>780.0</ele>
        <time>2019-07-31T11:55:37.134Z</time>
      </trkpt>
      <trkpt lat="42.98424833" lon="-1.192195">
        <ele>779.0</ele>
        <time>2019-07-31T11:55:38.138Z</time>
      </trkpt>
      <trkpt lat="42.98424833" lon="-1.19217167">
        <ele>779.0</ele>
        <time>2019-07-31T11:55:39.142Z</time>
      </trkpt>
      <trkpt lat="42.98424667" lon="-1.19215167">
        <ele>780.0</ele>
        <time>2019-07-31T11:55:40.148Z</time>
      </trkpt>
      <trkpt lat="42.98424667" lon="-1.19213">
        <ele>780.0</ele>
        <time>2019-07-31T11:55:41.154Z</time>
      </trkpt>
      <trkpt lat="42.98424667" lon="-1.19210833">
        <ele>779.0</ele>
        <time>2019-07-31T11:55:42.159Z</time>
      </trkpt>
      <trkpt lat="42.98424167" lon="-1.192085">
        <ele>779.0</ele>
        <time>2019-07-31T11:55:43.165Z</time>
      </trkpt>
      <trkpt lat="42.98424" lon="-1.19206333">
        <ele>780.0</ele>
        <time>2019-07-31T11:55:44.171Z</time>
      </trkpt>
      <trkpt lat="42.98424" lon="-1.19204167">
        <ele>780.0</ele>
        <time>2019-07-31T11:55:45.177Z</time>
      </trkpt>
      <trkpt lat="42.98423667" lon="-1.19201833">
        <ele>780.0</ele>
        <time>2019-07-31T11:55:46.184Z</time>
      </trkpt>
      <trkpt lat="42.98423333" lon="-1.191995">
        <ele>780.0</ele>
        <time>2019-07-31T11:55:47.062Z</time>
      </trkpt>
      <trkpt lat="42.98423167" lon="-1.19197333">
        <ele>779.0</ele>
        <time>2019-07-31T11:55:48.067Z</time>
      </trkpt>
      <trkpt lat="42.98422833" lon="-1.19195167">
        <ele>779.0</ele>
        <time>2019-07-31T11:55:49.073Z</time>
      </trkpt>
      <trkpt lat="42.98422667" lon="-1.19193">
        <ele>779.0</ele>
        <time>2019-07-31T11:55:50.078Z</time>
      </trkpt>
      <trkpt lat="42.98422333" lon="-1.19190833">
        <ele>779.0</ele>
        <time>2019-07-31T11:55:51.083Z</time>
      </trkpt>
      <trkpt lat="42.98422" lon="-1.191885">
        <ele>779.0</ele>
        <time>2019-07-31T11:55:52.088Z</time>
      </trkpt>
      <trkpt lat="42.98422" lon="-1.191865">
        <ele>779.0</ele>
        <time>2019-07-31T11:55:53.092Z</time>
      </trkpt>
      <trkpt lat="42.984215" lon="-1.19184167">
        <ele>779.0</ele>
        <time>2019-07-31T11:55:54.097Z</time>
      </trkpt>
      <trkpt lat="42.98421167" lon="-1.19182167">
        <ele>779.0</ele>
        <time>2019-07-31T11:55:55.101Z</time>
      </trkpt>
      <trkpt lat="42.98420833" lon="-1.1918">
        <ele>779.0</ele>
        <time>2019-07-31T11:55:56.104Z</time>
      </trkpt>
      <trkpt lat="42.984205" lon="-1.19178">
        <ele>780.0</ele>
        <time>2019-07-31T11:55:57.108Z</time>
      </trkpt>
      <trkpt lat="42.98420167" lon="-1.19176">
        <ele>780.0</ele>
        <time>2019-07-31T11:55:58.113Z</time>
      </trkpt>
      <trkpt lat="42.98419833" lon="-1.19174">
        <ele>780.0</ele>
        <time>2019-07-31T11:55:59.117Z</time>
      </trkpt>
      <trkpt lat="42.984195" lon="-1.19171667">
        <ele>780.0</ele>
        <time>2019-07-31T11:56:00.123Z</time>
      </trkpt>
      <trkpt lat="42.98419333" lon="-1.191695">
        <ele>780.0</ele>
        <time>2019-07-31T11:56:01.128Z</time>
      </trkpt>
      <trkpt lat="42.98418833" lon="-1.19167333">
        <ele>780.0</ele>
        <time>2019-07-31T11:56:02.133Z</time>
      </trkpt>
      <trkpt lat="42.98418333" lon="-1.19165333">
        <ele>780.0</ele>
        <time>2019-07-31T11:56:03.140Z</time>
      </trkpt>
      <trkpt lat="42.98418" lon="-1.19163167">
        <ele>780.0</ele>
        <time>2019-07-31T11:56:04.144Z</time>
      </trkpt>
      <trkpt lat="42.98417667" lon="-1.19160833">
        <ele>780.0</ele>
        <time>2019-07-31T11:56:05.146Z</time>
      </trkpt>
      <trkpt lat="42.984175" lon="-1.19158667">
        <ele>780.0</ele>
        <time>2019-07-31T11:56:06.151Z</time>
      </trkpt>
      <trkpt lat="42.98417333" lon="-1.19156333">
        <ele>780.0</ele>
        <time>2019-07-31T11:56:07.155Z</time>
      </trkpt>
      <trkpt lat="42.98416833" lon="-1.19154">
        <ele>780.0</ele>
        <time>2019-07-31T11:56:08.157Z</time>
      </trkpt>
      <trkpt lat="42.98416667" lon="-1.19151833">
        <ele>781.0</ele>
        <time>2019-07-31T11:56:09.162Z</time>
      </trkpt>
      <trkpt lat="42.984165" lon="-1.19149667">
        <ele>780.0</ele>
        <time>2019-07-31T11:56:10.168Z</time>
      </trkpt>
      <trkpt lat="42.98416333" lon="-1.191475">
        <ele>780.0</ele>
        <time>2019-07-31T11:56:11.172Z</time>
      </trkpt>
      <trkpt lat="42.98416167" lon="-1.191455">
        <ele>780.0</ele>
        <time>2019-07-31T11:56:12.177Z</time>
      </trkpt>
      <trkpt lat="42.98415667" lon="-1.191435">
        <ele>780.0</ele>
        <time>2019-07-31T11:56:13.182Z</time>
      </trkpt>
      <trkpt lat="42.98415333" lon="-1.19141333">
        <ele>780.0</ele>
        <time>2019-07-31T11:56:14.063Z</time>
      </trkpt>
      <trkpt lat="42.98414833" lon="-1.19139167">
        <ele>780.0</ele>
        <time>2019-07-31T11:56:15.070Z</time>
      </trkpt>
      <trkpt lat="42.98414667" lon="-1.19137">
        <ele>779.0</ele>
        <time>2019-07-31T11:56:16.076Z</time>
      </trkpt>
      <trkpt lat="42.984145" lon="-1.19134833">
        <ele>779.0</ele>
        <time>2019-07-31T11:56:17.081Z</time>
      </trkpt>
      <trkpt lat="42.98414" lon="-1.19132667">
        <ele>779.0</ele>
        <time>2019-07-31T11:56:18.086Z</time>
      </trkpt>
      <trkpt lat="42.98413667" lon="-1.191305">
        <ele>779.0</ele>
        <time>2019-07-31T11:56:19.091Z</time>
      </trkpt>
      <trkpt lat="42.98412833" lon="-1.19128">
        <ele>779.0</ele>
        <time>2019-07-31T11:56:20.097Z</time>
      </trkpt>
      <trkpt lat="42.98412333" lon="-1.19126333">
        <ele>779.0</ele>
        <time>2019-07-31T11:56:21.102Z</time>
      </trkpt>
      <trkpt lat="42.98412" lon="-1.19124167">
        <ele>779.0</ele>
        <time>2019-07-31T11:56:22.107Z</time>
      </trkpt>
      <trkpt lat="42.984115" lon="-1.19122">
        <ele>779.0</ele>
        <time>2019-07-31T11:56:23.113Z</time>
      </trkpt>
      <trkpt lat="42.98411" lon="-1.19119833">
        <ele>779.0</ele>
        <time>2019-07-31T11:56:24.119Z</time>
      </trkpt>
      <trkpt lat="42.98410667" lon="-1.19117667">
        <ele>779.0</ele>
        <time>2019-07-31T11:56:25.126Z</time>
      </trkpt>
      <trkpt lat="42.98410333" lon="-1.191155">
        <ele>779.0</ele>
        <time>2019-07-31T11:56:26.133Z</time>
      </trkpt>
      <trkpt lat="42.98409833" lon="-1.191135">
        <ele>779.0</ele>
        <time>2019-07-31T11:56:27.140Z</time>
      </trkpt>
      <trkpt lat="42.98409667" lon="-1.191115">
        <ele>779.0</ele>
        <time>2019-07-31T11:56:28.145Z</time>
      </trkpt>
      <trkpt lat="42.98409333" lon="-1.191095">
        <ele>779.0</ele>
        <time>2019-07-31T11:56:29.149Z</time>
      </trkpt>
      <trkpt lat="42.98409167" lon="-1.19107333">
        <ele>779.0</ele>
        <time>2019-07-31T11:56:30.155Z</time>
      </trkpt>
      <trkpt lat="42.98408667" lon="-1.19105">
        <ele>779.0</ele>
        <time>2019-07-31T11:56:31.158Z</time>
      </trkpt>
      <trkpt lat="42.98408167" lon="-1.19102833">
        <ele>779.0</ele>
        <time>2019-07-31T11:56:32.160Z</time>
      </trkpt>
      <trkpt lat="42.98407833" lon="-1.191005">
        <ele>779.0</ele>
        <time>2019-07-31T11:56:33.165Z</time>
      </trkpt>
      <trkpt lat="42.98407667" lon="-1.19098333">
        <ele>779.0</ele>
        <time>2019-07-31T11:56:34.171Z</time>
      </trkpt>
      <trkpt lat="42.98407" lon="-1.19096167">
        <ele>779.0</ele>
        <time>2019-07-31T11:56:35.178Z</time>
      </trkpt>
      <trkpt lat="42.984065" lon="-1.19094167">
        <ele>779.0</ele>
        <time>2019-07-31T11:56:36.183Z</time>
      </trkpt>
      <trkpt lat="42.98405667" lon="-1.19092167">
        <ele>780.0</ele>
        <time>2019-07-31T11:56:37.064Z</time>
      </trkpt>
      <trkpt lat="42.98405" lon="-1.19090167">
        <ele>781.0</ele>
        <time>2019-07-31T11:56:38.069Z</time>
      </trkpt>
      <trkpt lat="42.98404333" lon="-1.19088">
        <ele>781.0</ele>
        <time>2019-07-31T11:56:39.074Z</time>
      </trkpt>
      <trkpt lat="42.98403667" lon="-1.19085667">
        <ele>780.0</ele>
        <time>2019-07-31T11:56:40.079Z</time>
      </trkpt>
      <trkpt lat="42.984035" lon="-1.19083667">
        <ele>780.0</ele>
        <time>2019-07-31T11:56:41.085Z</time>
      </trkpt>
      <trkpt lat="42.98403" lon="-1.19081667">
        <ele>780.0</ele>
        <time>2019-07-31T11:56:42.089Z</time>
      </trkpt>
      <trkpt lat="42.98402667" lon="-1.19079333">
        <ele>780.0</ele>
        <time>2019-07-31T11:56:43.093Z</time>
      </trkpt>
      <trkpt lat="42.98402167" lon="-1.19077167">
        <ele>780.0</ele>
        <time>2019-07-31T11:56:44.098Z</time>
      </trkpt>
      <trkpt lat="42.98401833" lon="-1.19075167">
        <ele>780.0</ele>
        <time>2019-07-31T11:56:45.105Z</time>
      </trkpt>
      <trkpt lat="42.98401333" lon="-1.19073167">
        <ele>779.0</ele>
        <time>2019-07-31T11:56:46.111Z</time>
      </trkpt>
      <trkpt lat="42.98401" lon="-1.19071">
        <ele>779.0</ele>
        <time>2019-07-31T11:56:47.116Z</time>
      </trkpt>
      <trkpt lat="42.98400667" lon="-1.19069">
        <ele>778.0</ele>
        <time>2019-07-31T11:56:48.119Z</time>
      </trkpt>
      <trkpt lat="42.98400333" lon="-1.19067">
        <ele>778.0</ele>
        <time>2019-07-31T11:56:49.123Z</time>
      </trkpt>
      <trkpt lat="42.984" lon="-1.19064833">
        <ele>778.0</ele>
        <time>2019-07-31T11:56:50.128Z</time>
      </trkpt>
      <trkpt lat="42.98399667" lon="-1.19062667">
        <ele>778.0</ele>
        <time>2019-07-31T11:56:51.136Z</time>
      </trkpt>
      <trkpt lat="42.98399333" lon="-1.19060667">
        <ele>779.0</ele>
        <time>2019-07-31T11:56:52.141Z</time>
      </trkpt>
      <trkpt lat="42.98399" lon="-1.190585">
        <ele>779.0</ele>
        <time>2019-07-31T11:56:53.146Z</time>
      </trkpt>
      <trkpt lat="42.983985" lon="-1.19056333">
        <ele>779.0</ele>
        <time>2019-07-31T11:56:54.152Z</time>
      </trkpt>
      <trkpt lat="42.98398" lon="-1.19054">
        <ele>780.0</ele>
        <time>2019-07-31T11:56:55.158Z</time>
      </trkpt>
      <trkpt lat="42.98397333" lon="-1.19051833">
        <ele>780.0</ele>
        <time>2019-07-31T11:56:56.161Z</time>
      </trkpt>
      <trkpt lat="42.98396833" lon="-1.1905">
        <ele>780.0</ele>
        <time>2019-07-31T11:56:57.167Z</time>
      </trkpt>
      <trkpt lat="42.98396333" lon="-1.19047833">
        <ele>780.0</ele>
        <time>2019-07-31T11:56:58.173Z</time>
      </trkpt>
      <trkpt lat="42.98396" lon="-1.19045667">
        <ele>780.0</ele>
        <time>2019-07-31T11:56:59.176Z</time>
      </trkpt>
      <trkpt lat="42.98395667" lon="-1.19043667">
        <ele>780.0</ele>
        <time>2019-07-31T11:57:00.180Z</time>
      </trkpt>
      <trkpt lat="42.983955" lon="-1.190415">
        <ele>780.0</ele>
        <time>2019-07-31T11:57:01.186Z</time>
      </trkpt>
      <trkpt lat="42.98395333" lon="-1.19039333">
        <ele>781.0</ele>
        <time>2019-07-31T11:57:02.067Z</time>
      </trkpt>
      <trkpt lat="42.98395167" lon="-1.19037333">
        <ele>781.0</ele>
        <time>2019-07-31T11:57:03.072Z</time>
      </trkpt>
      <trkpt lat="42.98394833" lon="-1.19035167">
        <ele>781.0</ele>
        <time>2019-07-31T11:57:04.077Z</time>
      </trkpt>
      <trkpt lat="42.98394667" lon="-1.19033167">
        <ele>781.0</ele>
        <time>2019-07-31T11:57:05.083Z</time>
      </trkpt>
      <trkpt lat="42.98394333" lon="-1.19031167">
        <ele>781.0</ele>
        <time>2019-07-31T11:57:06.088Z</time>
      </trkpt>
      <trkpt lat="42.98394" lon="-1.19029">
        <ele>781.0</ele>
        <time>2019-07-31T11:57:07.094Z</time>
      </trkpt>
      <trkpt lat="42.98393667" lon="-1.19027">
        <ele>781.0</ele>
        <time>2019-07-31T11:57:08.100Z</time>
      </trkpt>
      <trkpt lat="42.983935" lon="-1.19024833">
        <ele>782.0</ele>
        <time>2019-07-31T11:57:09.105Z</time>
      </trkpt>
      <trkpt lat="42.98393333" lon="-1.19022333">
        <ele>782.0</ele>
        <time>2019-07-31T11:57:10.107Z</time>
      </trkpt>
      <trkpt lat="42.98393167" lon="-1.19020167">
        <ele>783.0</ele>
        <time>2019-07-31T11:57:11.111Z</time>
      </trkpt>
      <trkpt lat="42.98393" lon="-1.19018">
        <ele>783.0</ele>
        <time>2019-07-31T11:57:12.116Z</time>
      </trkpt>
      <trkpt lat="42.98393" lon="-1.19016">
        <ele>783.0</ele>
        <time>2019-07-31T11:57:13.119Z</time>
      </trkpt>
      <trkpt lat="42.98393" lon="-1.19014167">
        <ele>784.0</ele>
        <time>2019-07-31T11:57:14.124Z</time>
      </trkpt>
      <trkpt lat="42.98392667" lon="-1.19012333">
        <ele>784.0</ele>
        <time>2019-07-31T11:57:15.130Z</time>
      </trkpt>
      <trkpt lat="42.98392333" lon="-1.190105">
        <ele>783.0</ele>
        <time>2019-07-31T11:57:16.137Z</time>
      </trkpt>
      <trkpt lat="42.98392" lon="-1.19008667">
        <ele>783.0</ele>
        <time>2019-07-31T11:57:17.143Z</time>
      </trkpt>
      <trkpt lat="42.98391667" lon="-1.19006667">
        <ele>783.0</ele>
        <time>2019-07-31T11:57:18.149Z</time>
      </trkpt>
      <trkpt lat="42.98391167" lon="-1.19004667">
        <ele>783.0</ele>
        <time>2019-07-31T11:57:19.154Z</time>
      </trkpt>
      <trkpt lat="42.98390833" lon="-1.19002667">
        <ele>783.0</ele>
        <time>2019-07-31T11:57:20.157Z</time>
      </trkpt>
      <trkpt lat="42.98390333" lon="-1.19000833">
        <ele>783.0</ele>
        <time>2019-07-31T11:57:21.162Z</time>
      </trkpt>
      <trkpt lat="42.98389833" lon="-1.18998667">
        <ele>783.0</ele>
        <time>2019-07-31T11:57:22.167Z</time>
      </trkpt>
      <trkpt lat="42.983895" lon="-1.189965">
        <ele>783.0</ele>
        <time>2019-07-31T11:57:23.172Z</time>
      </trkpt>
      <trkpt lat="42.98389" lon="-1.189945">
        <ele>784.0</ele>
        <time>2019-07-31T11:57:24.176Z</time>
      </trkpt>
      <trkpt lat="42.983885" lon="-1.189925">
        <ele>784.0</ele>
        <time>2019-07-31T11:57:25.182Z</time>
      </trkpt>
      <trkpt lat="42.98388" lon="-1.189905">
        <ele>784.0</ele>
        <time>2019-07-31T11:57:26.062Z</time>
      </trkpt>
      <trkpt lat="42.983875" lon="-1.189885">
        <ele>784.0</ele>
        <time>2019-07-31T11:57:27.068Z</time>
      </trkpt>
      <trkpt lat="42.98387" lon="-1.18986333">
        <ele>784.0</ele>
        <time>2019-07-31T11:57:28.074Z</time>
      </trkpt>
      <trkpt lat="42.98386667" lon="-1.18984167">
        <ele>784.0</ele>
        <time>2019-07-31T11:57:29.078Z</time>
      </trkpt>
      <trkpt lat="42.98386" lon="-1.18982">
        <ele>783.0</ele>
        <time>2019-07-31T11:57:30.083Z</time>
      </trkpt>
      <trkpt lat="42.98385667" lon="-1.18980167">
        <ele>782.0</ele>
        <time>2019-07-31T11:57:31.091Z</time>
      </trkpt>
      <trkpt lat="42.98385" lon="-1.18978167">
        <ele>782.0</ele>
        <time>2019-07-31T11:57:32.096Z</time>
      </trkpt>
      <trkpt lat="42.983845" lon="-1.18976167">
        <ele>782.0</ele>
        <time>2019-07-31T11:57:33.101Z</time>
      </trkpt>
      <trkpt lat="42.98384" lon="-1.18974167">
        <ele>781.0</ele>
        <time>2019-07-31T11:57:34.104Z</time>
      </trkpt>
      <trkpt lat="42.983835" lon="-1.18972333">
        <ele>781.0</ele>
        <time>2019-07-31T11:57:35.109Z</time>
      </trkpt>
      <trkpt lat="42.98382833" lon="-1.18970333">
        <ele>781.0</ele>
        <time>2019-07-31T11:57:36.116Z</time>
      </trkpt>
      <trkpt lat="42.98382167" lon="-1.18968333">
        <ele>780.0</ele>
        <time>2019-07-31T11:57:37.120Z</time>
      </trkpt>
      <trkpt lat="42.98381833" lon="-1.189665">
        <ele>780.0</ele>
        <time>2019-07-31T11:57:38.126Z</time>
      </trkpt>
      <trkpt lat="42.983815" lon="-1.18964333">
        <ele>780.0</ele>
        <time>2019-07-31T11:57:39.132Z</time>
      </trkpt>
      <trkpt lat="42.98381167" lon="-1.189625">
        <ele>780.0</ele>
        <time>2019-07-31T11:57:40.139Z</time>
      </trkpt>
      <trkpt lat="42.98380667" lon="-1.18960333">
        <ele>779.0</ele>
        <time>2019-07-31T11:57:41.146Z</time>
      </trkpt>
      <trkpt lat="42.9838" lon="-1.18958167">
        <ele>780.0</ele>
        <time>2019-07-31T11:57:42.152Z</time>
      </trkpt>
      <trkpt lat="42.98379667" lon="-1.18956">
        <ele>779.0</ele>
        <time>2019-07-31T11:57:43.158Z</time>
      </trkpt>
      <trkpt lat="42.98379333" lon="-1.18953833">
        <ele>779.0</ele>
        <time>2019-07-31T11:57:44.161Z</time>
      </trkpt>
      <trkpt lat="42.98379167" lon="-1.189515">
        <ele>780.0</ele>
        <time>2019-07-31T11:57:45.167Z</time>
      </trkpt>
      <trkpt lat="42.98379" lon="-1.18949333">
        <ele>780.0</ele>
        <time>2019-07-31T11:57:46.172Z</time>
      </trkpt>
      <trkpt lat="42.98379" lon="-1.18947167">
        <ele>780.0</ele>
        <time>2019-07-31T11:57:47.177Z</time>
      </trkpt>
      <trkpt lat="42.983785" lon="-1.18944833">
        <ele>780.0</ele>
        <time>2019-07-31T11:57:48.183Z</time>
      </trkpt>
      <trkpt lat="42.98378167" lon="-1.189425">
        <ele>780.0</ele>
        <time>2019-07-31T11:57:49.063Z</time>
      </trkpt>
      <trkpt lat="42.98377667" lon="-1.18940333">
        <ele>780.0</ele>
        <time>2019-07-31T11:57:50.068Z</time>
      </trkpt>
      <trkpt lat="42.98377333" lon="-1.18938167">
        <ele>780.0</ele>
        <time>2019-07-31T11:57:51.074Z</time>
      </trkpt>
      <trkpt lat="42.98376667" lon="-1.18936333">
        <ele>780.0</ele>
        <time>2019-07-31T11:57:52.078Z</time>
      </trkpt>
      <trkpt lat="42.98375833" lon="-1.18934167">
        <ele>780.0</ele>
        <time>2019-07-31T11:57:53.084Z</time>
      </trkpt>
      <trkpt lat="42.98375333" lon="-1.18932">
        <ele>780.0</ele>
        <time>2019-07-31T11:57:54.090Z</time>
      </trkpt>
      <trkpt lat="42.98375167" lon="-1.18930167">
        <ele>780.0</ele>
        <time>2019-07-31T11:57:55.095Z</time>
      </trkpt>
      <trkpt lat="42.98374833" lon="-1.18928">
        <ele>779.0</ele>
        <time>2019-07-31T11:57:56.101Z</time>
      </trkpt>
      <trkpt lat="42.98374667" lon="-1.18925833">
        <ele>779.0</ele>
        <time>2019-07-31T11:57:57.107Z</time>
      </trkpt>
      <trkpt lat="42.983745" lon="-1.18923833">
        <ele>779.0</ele>
        <time>2019-07-31T11:57:58.113Z</time>
      </trkpt>
      <trkpt lat="42.983745" lon="-1.189215">
        <ele>779.0</ele>
        <time>2019-07-31T11:57:59.117Z</time>
      </trkpt>
      <trkpt lat="42.983745" lon="-1.18919167">
        <ele>778.0</ele>
        <time>2019-07-31T11:58:00.123Z</time>
      </trkpt>
      <trkpt lat="42.98374167" lon="-1.18916833">
        <ele>778.0</ele>
        <time>2019-07-31T11:58:01.129Z</time>
      </trkpt>
      <trkpt lat="42.98374" lon="-1.189145">
        <ele>777.0</ele>
        <time>2019-07-31T11:58:02.134Z</time>
      </trkpt>
      <trkpt lat="42.983735" lon="-1.18912333">
        <ele>777.0</ele>
        <time>2019-07-31T11:58:03.139Z</time>
      </trkpt>
      <trkpt lat="42.98372833" lon="-1.18910167">
        <ele>777.0</ele>
        <time>2019-07-31T11:58:04.143Z</time>
      </trkpt>
      <trkpt lat="42.98372333" lon="-1.18908333">
        <ele>777.0</ele>
        <time>2019-07-31T11:58:05.149Z</time>
      </trkpt>
      <trkpt lat="42.98372167" lon="-1.18906333">
        <ele>778.0</ele>
        <time>2019-07-31T11:58:06.154Z</time>
      </trkpt>
      <trkpt lat="42.98372" lon="-1.18904333">
        <ele>777.0</ele>
        <time>2019-07-31T11:58:07.159Z</time>
      </trkpt>
      <trkpt lat="42.98371667" lon="-1.18902333">
        <ele>777.0</ele>
        <time>2019-07-31T11:58:08.164Z</time>
      </trkpt>
      <trkpt lat="42.98371667" lon="-1.18900167">
        <ele>777.0</ele>
        <time>2019-07-31T11:58:09.169Z</time>
      </trkpt>
      <trkpt lat="42.98371" lon="-1.18898333">
        <ele>776.0</ele>
        <time>2019-07-31T11:58:10.174Z</time>
      </trkpt>
      <trkpt lat="42.98371" lon="-1.18896667">
        <ele>776.0</ele>
        <time>2019-07-31T11:58:11.180Z</time>
      </trkpt>
      <trkpt lat="42.98371167" lon="-1.18894833">
        <ele>775.0</ele>
        <time>2019-07-31T11:58:12.184Z</time>
      </trkpt>
      <trkpt lat="42.98371" lon="-1.18892833">
        <ele>775.0</ele>
        <time>2019-07-31T11:58:13.063Z</time>
      </trkpt>
      <trkpt lat="42.98371167" lon="-1.18890833">
        <ele>775.0</ele>
        <time>2019-07-31T11:58:14.068Z</time>
      </trkpt>
      <trkpt lat="42.98371167" lon="-1.18889">
        <ele>775.0</ele>
        <time>2019-07-31T11:58:15.074Z</time>
      </trkpt>
      <trkpt lat="42.98371167" lon="-1.188865">
        <ele>775.0</ele>
        <time>2019-07-31T11:58:16.079Z</time>
      </trkpt>
      <trkpt lat="42.98371167" lon="-1.18884333">
        <ele>774.0</ele>
        <time>2019-07-31T11:58:17.083Z</time>
      </trkpt>
      <trkpt lat="42.98371" lon="-1.18882333">
        <ele>774.0</ele>
        <time>2019-07-31T11:58:18.087Z</time>
      </trkpt>
      <trkpt lat="42.98371" lon="-1.18880167">
        <ele>774.0</ele>
        <time>2019-07-31T11:58:19.094Z</time>
      </trkpt>
      <trkpt lat="42.98371167" lon="-1.18878">
        <ele>775.0</ele>
        <time>2019-07-31T11:58:20.100Z</time>
      </trkpt>
      <trkpt lat="42.98371333" lon="-1.18876">
        <ele>775.0</ele>
        <time>2019-07-31T11:58:21.107Z</time>
      </trkpt>
      <trkpt lat="42.98371333" lon="-1.18874">
        <ele>775.0</ele>
        <time>2019-07-31T11:58:22.112Z</time>
      </trkpt>
      <trkpt lat="42.98371333" lon="-1.18872333">
        <ele>775.0</ele>
        <time>2019-07-31T11:58:23.118Z</time>
      </trkpt>
      <trkpt lat="42.98371333" lon="-1.18871">
        <ele>775.0</ele>
        <time>2019-07-31T11:58:24.123Z</time>
      </trkpt>
      <trkpt lat="42.983715" lon="-1.18869333">
        <ele>774.0</ele>
        <time>2019-07-31T11:58:25.129Z</time>
      </trkpt>
      <trkpt lat="42.98371833" lon="-1.18867667">
        <ele>774.0</ele>
        <time>2019-07-31T11:58:26.136Z</time>
      </trkpt>
      <trkpt lat="42.98372167" lon="-1.18865833">
        <ele>774.0</ele>
        <time>2019-07-31T11:58:27.141Z</time>
      </trkpt>
      <trkpt lat="42.98372167" lon="-1.18864">
        <ele>775.0</ele>
        <time>2019-07-31T11:58:28.146Z</time>
      </trkpt>
      <trkpt lat="42.98372167" lon="-1.18862167">
        <ele>775.0</ele>
        <time>2019-07-31T11:58:29.152Z</time>
      </trkpt>
      <trkpt lat="42.98372" lon="-1.188605">
        <ele>776.0</ele>
        <time>2019-07-31T11:58:30.157Z</time>
      </trkpt>
      <trkpt lat="42.98371667" lon="-1.18858667">
        <ele>777.0</ele>
        <time>2019-07-31T11:58:31.162Z</time>
      </trkpt>
      <trkpt lat="42.98371167" lon="-1.18857">
        <ele>778.0</ele>
        <time>2019-07-31T11:58:32.167Z</time>
      </trkpt>
      <trkpt lat="42.98371" lon="-1.18855333">
        <ele>778.0</ele>
        <time>2019-07-31T11:58:33.172Z</time>
      </trkpt>
      <trkpt lat="42.98370667" lon="-1.18853667">
        <ele>779.0</ele>
        <time>2019-07-31T11:58:34.178Z</time>
      </trkpt>
      <trkpt lat="42.98370167" lon="-1.18851833">
        <ele>779.0</ele>
        <time>2019-07-31T11:58:35.184Z</time>
      </trkpt>
      <trkpt lat="42.98369667" lon="-1.18850167">
        <ele>780.0</ele>
        <time>2019-07-31T11:58:36.064Z</time>
      </trkpt>
      <trkpt lat="42.98369167" lon="-1.18848167">
        <ele>780.0</ele>
        <time>2019-07-31T11:58:37.067Z</time>
      </trkpt>
      <trkpt lat="42.98368667" lon="-1.188465">
        <ele>781.0</ele>
        <time>2019-07-31T11:58:38.071Z</time>
      </trkpt>
      <trkpt lat="42.98367833" lon="-1.18845">
        <ele>781.0</ele>
        <time>2019-07-31T11:58:39.075Z</time>
      </trkpt>
      <trkpt lat="42.98367333" lon="-1.18843333">
        <ele>782.0</ele>
        <time>2019-07-31T11:58:40.079Z</time>
      </trkpt>
      <trkpt lat="42.98366833" lon="-1.18841667">
        <ele>782.0</ele>
        <time>2019-07-31T11:58:41.085Z</time>
      </trkpt>
      <trkpt lat="42.98366667" lon="-1.1884">
        <ele>782.0</ele>
        <time>2019-07-31T11:58:42.091Z</time>
      </trkpt>
      <trkpt lat="42.98366333" lon="-1.18838167">
        <ele>783.0</ele>
        <time>2019-07-31T11:58:43.096Z</time>
      </trkpt>
      <trkpt lat="42.98365833" lon="-1.188365">
        <ele>783.0</ele>
        <time>2019-07-31T11:58:44.104Z</time>
      </trkpt>
      <trkpt lat="42.983655" lon="-1.18835">
        <ele>784.0</ele>
        <time>2019-07-31T11:58:45.110Z</time>
      </trkpt>
      <trkpt lat="42.98365167" lon="-1.18833333">
        <ele>783.0</ele>
        <time>2019-07-31T11:58:46.117Z</time>
      </trkpt>
      <trkpt lat="42.98364167" lon="-1.188315">
        <ele>783.0</ele>
        <time>2019-07-31T11:58:47.121Z</time>
      </trkpt>
      <trkpt lat="42.983635" lon="-1.18829833">
        <ele>783.0</ele>
        <time>2019-07-31T11:58:48.126Z</time>
      </trkpt>
      <trkpt lat="42.98363" lon="-1.188285">
        <ele>783.0</ele>
        <time>2019-07-31T11:58:49.129Z</time>
      </trkpt>
      <trkpt lat="42.98362333" lon="-1.18827167">
        <ele>784.0</ele>
        <time>2019-07-31T11:58:50.133Z</time>
      </trkpt>
      <trkpt lat="42.98362167" lon="-1.18825333">
        <ele>784.0</ele>
        <time>2019-07-31T11:58:51.140Z</time>
      </trkpt>
      <trkpt lat="42.98361833" lon="-1.18823667">
        <ele>783.0</ele>
        <time>2019-07-31T11:58:52.147Z</time>
      </trkpt>
      <trkpt lat="42.98361667" lon="-1.18821667">
        <ele>783.0</ele>
        <time>2019-07-31T11:58:53.152Z</time>
      </trkpt>
      <trkpt lat="42.98361167" lon="-1.18819667">
        <ele>783.0</ele>
        <time>2019-07-31T11:58:54.156Z</time>
      </trkpt>
      <trkpt lat="42.98360833" lon="-1.188175">
        <ele>783.0</ele>
        <time>2019-07-31T11:58:55.160Z</time>
      </trkpt>
      <trkpt lat="42.98360667" lon="-1.18815333">
        <ele>783.0</ele>
        <time>2019-07-31T11:58:56.165Z</time>
      </trkpt>
      <trkpt lat="42.9836" lon="-1.18814">
        <ele>783.0</ele>
        <time>2019-07-31T11:58:57.170Z</time>
      </trkpt>
      <trkpt lat="42.98359667" lon="-1.18812333">
        <ele>783.0</ele>
        <time>2019-07-31T11:58:58.175Z</time>
      </trkpt>
      <trkpt lat="42.98359667" lon="-1.18810667">
        <ele>784.0</ele>
        <time>2019-07-31T11:58:59.180Z</time>
      </trkpt>
      <trkpt lat="42.983595" lon="-1.188085">
        <ele>785.0</ele>
        <time>2019-07-31T11:59:00.185Z</time>
      </trkpt>
      <trkpt lat="42.98359333" lon="-1.18806167">
        <ele>786.0</ele>
        <time>2019-07-31T11:59:01.065Z</time>
      </trkpt>
      <trkpt lat="42.98359167" lon="-1.18804167">
        <ele>786.0</ele>
        <time>2019-07-31T11:59:02.071Z</time>
      </trkpt>
      <trkpt lat="42.98358667" lon="-1.18803">
        <ele>787.0</ele>
        <time>2019-07-31T11:59:03.076Z</time>
      </trkpt>
      <trkpt lat="42.98358333" lon="-1.18800667">
        <ele>788.0</ele>
        <time>2019-07-31T11:59:04.082Z</time>
      </trkpt>
      <trkpt lat="42.98357667" lon="-1.18798667">
        <ele>789.0</ele>
        <time>2019-07-31T11:59:05.087Z</time>
      </trkpt>
      <trkpt lat="42.983575" lon="-1.187965">
        <ele>789.0</ele>
        <time>2019-07-31T11:59:06.093Z</time>
      </trkpt>
      <trkpt lat="42.98357333" lon="-1.18795">
        <ele>789.0</ele>
        <time>2019-07-31T11:59:07.098Z</time>
      </trkpt>
      <trkpt lat="42.98357" lon="-1.18793833">
        <ele>790.0</ele>
        <time>2019-07-31T11:59:08.104Z</time>
      </trkpt>
      <trkpt lat="42.98357333" lon="-1.18793333">
        <ele>790.0</ele>
        <time>2019-07-31T11:59:09.110Z</time>
      </trkpt>
      <trkpt lat="42.98357667" lon="-1.187925">
        <ele>790.0</ele>
        <time>2019-07-31T11:59:10.116Z</time>
      </trkpt>
      <trkpt lat="42.983585" lon="-1.18792833">
        <ele>790.0</ele>
        <time>2019-07-31T11:59:11.122Z</time>
      </trkpt>
      <trkpt lat="42.98358667" lon="-1.187935">
        <ele>790.0</ele>
        <time>2019-07-31T11:59:12.128Z</time>
      </trkpt>
      <trkpt lat="42.98359167" lon="-1.18793167">
        <ele>788.0</ele>
        <time>2019-07-31T11:59:13.133Z</time>
      </trkpt>
      <trkpt lat="42.98359167" lon="-1.18792833">
        <ele>787.0</ele>
        <time>2019-07-31T11:59:14.138Z</time>
      </trkpt>
      <trkpt lat="42.98359167" lon="-1.18792833">
        <ele>787.0</ele>
        <time>2019-07-31T11:59:15.144Z</time>
      </trkpt>
      <trkpt lat="42.98359833" lon="-1.18793667">
        <ele>786.0</ele>
        <time>2019-07-31T11:59:16.151Z</time>
      </trkpt>
      <trkpt lat="42.98360333" lon="-1.18793667">
        <ele>786.0</ele>
        <time>2019-07-31T11:59:17.154Z</time>
      </trkpt>
      <trkpt lat="42.98360833" lon="-1.18793667">
        <ele>786.0</ele>
        <time>2019-07-31T11:59:18.159Z</time>
      </trkpt>
      <trkpt lat="42.98361" lon="-1.18793667">
        <ele>786.0</ele>
        <time>2019-07-31T11:59:19.163Z</time>
      </trkpt>
      <trkpt lat="42.98361167" lon="-1.18793333">
        <ele>785.0</ele>
        <time>2019-07-31T11:59:20.167Z</time>
      </trkpt>
      <trkpt lat="42.98361167" lon="-1.187935">
        <ele>785.0</ele>
        <time>2019-07-31T11:59:21.172Z</time>
      </trkpt>
      <trkpt lat="42.98361167" lon="-1.18793333">
        <ele>785.0</ele>
        <time>2019-07-31T11:59:22.177Z</time>
      </trkpt>
      <trkpt lat="42.98360833" lon="-1.18793">
        <ele>784.0</ele>
        <time>2019-07-31T11:59:23.183Z</time>
      </trkpt>
      <trkpt lat="42.983605" lon="-1.18792333">
        <ele>784.0</ele>
        <time>2019-07-31T11:59:24.062Z</time>
      </trkpt>
      <trkpt lat="42.983605" lon="-1.18791833">
        <ele>783.0</ele>
        <time>2019-07-31T11:59:25.068Z</time>
      </trkpt>
      <trkpt lat="42.98360833" lon="-1.18791333">
        <ele>783.0</ele>
        <time>2019-07-31T11:59:26.074Z</time>
      </trkpt>
      <trkpt lat="42.98361167" lon="-1.18791333">
        <ele>783.0</ele>
        <time>2019-07-31T11:59:27.079Z</time>
      </trkpt>
      <trkpt lat="42.98361167" lon="-1.18791">
        <ele>783.0</ele>
        <time>2019-07-31T11:59:28.085Z</time>
      </trkpt>
      <trkpt lat="42.98361" lon="-1.187905">
        <ele>783.0</ele>
        <time>2019-07-31T11:59:29.089Z</time>
      </trkpt>
      <trkpt lat="42.98360833" lon="-1.1879">
        <ele>782.0</ele>
        <time>2019-07-31T11:59:30.092Z</time>
      </trkpt>
      <trkpt lat="42.98360667" lon="-1.18789833">
        <ele>783.0</ele>
        <time>2019-07-31T11:59:31.098Z</time>
      </trkpt>
      <trkpt lat="42.98361" lon="-1.1879">
        <ele>783.0</ele>
        <time>2019-07-31T11:59:32.106Z</time>
      </trkpt>
      <trkpt lat="42.98360833" lon="-1.187895">
        <ele>783.0</ele>
        <time>2019-07-31T11:59:33.113Z</time>
      </trkpt>
      <trkpt lat="42.98360833" lon="-1.18789333">
        <ele>783.0</ele>
        <time>2019-07-31T11:59:34.118Z</time>
      </trkpt>
      <trkpt lat="42.98360667" lon="-1.18789">
        <ele>782.0</ele>
        <time>2019-07-31T11:59:35.123Z</time>
      </trkpt>
      <trkpt lat="42.983605" lon="-1.18788833">
        <ele>782.0</ele>
        <time>2019-07-31T11:59:36.132Z</time>
      </trkpt>
      <trkpt lat="42.983605" lon="-1.187885">
        <ele>782.0</ele>
        <time>2019-07-31T11:59:37.137Z</time>
      </trkpt>
      <trkpt lat="42.98360333" lon="-1.18788">
        <ele>782.0</ele>
        <time>2019-07-31T11:59:38.141Z</time>
      </trkpt>
      <trkpt lat="42.9836" lon="-1.18787833">
        <ele>782.0</ele>
        <time>2019-07-31T11:59:39.146Z</time>
      </trkpt>
      <trkpt lat="42.9836" lon="-1.18787833">
        <ele>781.0</ele>
        <time>2019-07-31T11:59:40.151Z</time>
      </trkpt>
      <trkpt lat="42.9836" lon="-1.18787167">
        <ele>782.0</ele>
        <time>2019-07-31T11:59:41.154Z</time>
      </trkpt>
      <trkpt lat="42.98360167" lon="-1.18787167">
        <ele>782.0</ele>
        <time>2019-07-31T11:59:42.159Z</time>
      </trkpt>
      <trkpt lat="42.98360167" lon="-1.187865">
        <ele>782.0</ele>
        <time>2019-07-31T11:59:43.165Z</time>
      </trkpt>
      <trkpt lat="42.9836" lon="-1.18786167">
        <ele>782.0</ele>
        <time>2019-07-31T11:59:44.169Z</time>
      </trkpt>
      <trkpt lat="42.98359833" lon="-1.18786667">
        <ele>781.0</ele>
        <time>2019-07-31T11:59:45.175Z</time>
      </trkpt>
      <trkpt lat="42.983595" lon="-1.18786833">
        <ele>781.0</ele>
        <time>2019-07-31T11:59:46.180Z</time>
      </trkpt>
      <trkpt lat="42.98359167" lon="-1.18786833">
        <ele>782.0</ele>
        <time>2019-07-31T11:59:47.186Z</time>
      </trkpt>
      <trkpt lat="42.98358833" lon="-1.18786333">
        <ele>783.0</ele>
        <time>2019-07-31T11:59:48.064Z</time>
      </trkpt>
      <trkpt lat="42.98359" lon="-1.18786167">
        <ele>784.0</ele>
        <time>2019-07-31T11:59:49.070Z</time>
      </trkpt>
      <trkpt lat="42.98359" lon="-1.18786">
        <ele>785.0</ele>
        <time>2019-07-31T11:59:50.075Z</time>
      </trkpt>
      <trkpt lat="42.98359333" lon="-1.18785167">
        <ele>785.0</ele>
        <time>2019-07-31T11:59:51.077Z</time>
      </trkpt>
      <trkpt lat="42.9836" lon="-1.18784">
        <ele>784.0</ele>
        <time>2019-07-31T11:59:52.082Z</time>
      </trkpt>
      <trkpt lat="42.983605" lon="-1.18782667">
        <ele>784.0</ele>
        <time>2019-07-31T11:59:53.086Z</time>
      </trkpt>
      <trkpt lat="42.98361167" lon="-1.18781333">
        <ele>784.0</ele>
        <time>2019-07-31T11:59:54.091Z</time>
      </trkpt>
      <trkpt lat="42.98361333" lon="-1.1878">
        <ele>784.0</ele>
        <time>2019-07-31T11:59:55.098Z</time>
      </trkpt>
      <trkpt lat="42.98361667" lon="-1.187785">
        <ele>784.0</ele>
        <time>2019-07-31T11:59:56.104Z</time>
      </trkpt>
      <trkpt lat="42.98361333" lon="-1.18777167">
        <ele>785.0</ele>
        <time>2019-07-31T11:59:57.109Z</time>
      </trkpt>
      <trkpt lat="42.98360833" lon="-1.18775333">
        <ele>785.0</ele>
        <time>2019-07-31T11:59:58.114Z</time>
      </trkpt>
      <trkpt lat="42.983605" lon="-1.187735">
        <ele>785.0</ele>
        <time>2019-07-31T11:59:59.118Z</time>
      </trkpt>
      <trkpt lat="42.983605" lon="-1.18771833">
        <ele>786.0</ele>
        <time>2019-07-31T12:00:00.122Z</time>
      </trkpt>
      <trkpt lat="42.98360333" lon="-1.1877">
        <ele>786.0</ele>
        <time>2019-07-31T12:00:01.125Z</time>
      </trkpt>
      <trkpt lat="42.983605" lon="-1.187685">
        <ele>787.0</ele>
        <time>2019-07-31T12:00:02.129Z</time>
      </trkpt>
      <trkpt lat="42.98360667" lon="-1.187665">
        <ele>786.0</ele>
        <time>2019-07-31T12:00:03.135Z</time>
      </trkpt>
      <trkpt lat="42.98360833" lon="-1.18764333">
        <ele>786.0</ele>
        <time>2019-07-31T12:00:04.141Z</time>
      </trkpt>
      <trkpt lat="42.98360667" lon="-1.187625">
        <ele>787.0</ele>
        <time>2019-07-31T12:00:05.148Z</time>
      </trkpt>
      <trkpt lat="42.98360333" lon="-1.187605">
        <ele>787.0</ele>
        <time>2019-07-31T12:00:06.153Z</time>
      </trkpt>
      <trkpt lat="42.98360167" lon="-1.187585">
        <ele>787.0</ele>
        <time>2019-07-31T12:00:07.159Z</time>
      </trkpt>
      <trkpt lat="42.98359667" lon="-1.18756">
        <ele>787.0</ele>
        <time>2019-07-31T12:00:08.163Z</time>
      </trkpt>
      <trkpt lat="42.98359" lon="-1.18754167">
        <ele>787.0</ele>
        <time>2019-07-31T12:00:09.168Z</time>
      </trkpt>
      <trkpt lat="42.98358" lon="-1.18752667">
        <ele>787.0</ele>
        <time>2019-07-31T12:00:10.176Z</time>
      </trkpt>
      <trkpt lat="42.98357333" lon="-1.18751167">
        <ele>788.0</ele>
        <time>2019-07-31T12:00:11.181Z</time>
      </trkpt>
      <trkpt lat="42.983565" lon="-1.18749">
        <ele>789.0</ele>
        <time>2019-07-31T12:00:12.062Z</time>
      </trkpt>
      <trkpt lat="42.98355667" lon="-1.18746667">
        <ele>789.0</ele>
        <time>2019-07-31T12:00:13.065Z</time>
      </trkpt>
      <trkpt lat="42.98354667" lon="-1.18744333">
        <ele>789.0</ele>
        <time>2019-07-31T12:00:14.070Z</time>
      </trkpt>
      <trkpt lat="42.98353667" lon="-1.18741833">
        <ele>789.0</ele>
        <time>2019-07-31T12:00:15.075Z</time>
      </trkpt>
      <trkpt lat="42.98353167" lon="-1.187395">
        <ele>788.0</ele>
        <time>2019-07-31T12:00:16.080Z</time>
      </trkpt>
      <trkpt lat="42.98353167" lon="-1.18737">
        <ele>788.0</ele>
        <time>2019-07-31T12:00:17.085Z</time>
      </trkpt>
      <trkpt lat="42.983535" lon="-1.18734167">
        <ele>788.0</ele>
        <time>2019-07-31T12:00:18.092Z</time>
      </trkpt>
      <trkpt lat="42.98353833" lon="-1.18731333">
        <ele>788.0</ele>
        <time>2019-07-31T12:00:19.098Z</time>
      </trkpt>
      <trkpt lat="42.98354167" lon="-1.18728667">
        <ele>787.0</ele>
        <time>2019-07-31T12:00:20.101Z</time>
      </trkpt>
      <trkpt lat="42.98354" lon="-1.187265">
        <ele>787.0</ele>
        <time>2019-07-31T12:00:21.106Z</time>
      </trkpt>
      <trkpt lat="42.98354167" lon="-1.18724333">
        <ele>787.0</ele>
        <time>2019-07-31T12:00:22.110Z</time>
      </trkpt>
      <trkpt lat="42.983545" lon="-1.187225">
        <ele>787.0</ele>
        <time>2019-07-31T12:00:23.116Z</time>
      </trkpt>
      <trkpt lat="42.98354167" lon="-1.1872">
        <ele>787.0</ele>
        <time>2019-07-31T12:00:24.121Z</time>
      </trkpt>
      <trkpt lat="42.98353833" lon="-1.18717167">
        <ele>787.0</ele>
        <time>2019-07-31T12:00:25.125Z</time>
      </trkpt>
      <trkpt lat="42.98354" lon="-1.187145">
        <ele>786.0</ele>
        <time>2019-07-31T12:00:26.129Z</time>
      </trkpt>
      <trkpt lat="42.98353833" lon="-1.18712167">
        <ele>787.0</ele>
        <time>2019-07-31T12:00:27.135Z</time>
      </trkpt>
      <trkpt lat="42.98353333" lon="-1.18709333">
        <ele>787.0</ele>
        <time>2019-07-31T12:00:28.140Z</time>
      </trkpt>
      <trkpt lat="42.98353" lon="-1.18706833">
        <ele>787.0</ele>
        <time>2019-07-31T12:00:29.145Z</time>
      </trkpt>
      <trkpt lat="42.98353" lon="-1.18705">
        <ele>786.0</ele>
        <time>2019-07-31T12:00:30.151Z</time>
      </trkpt>
      <trkpt lat="42.98353" lon="-1.187035">
        <ele>786.0</ele>
        <time>2019-07-31T12:00:31.157Z</time>
      </trkpt>
      <trkpt lat="42.98352833" lon="-1.18700833">
        <ele>786.0</ele>
        <time>2019-07-31T12:00:32.160Z</time>
      </trkpt>
      <trkpt lat="42.98352667" lon="-1.18698833">
        <ele>786.0</ele>
        <time>2019-07-31T12:00:33.165Z</time>
      </trkpt>
      <trkpt lat="42.98352667" lon="-1.18696833">
        <ele>786.0</ele>
        <time>2019-07-31T12:00:34.170Z</time>
      </trkpt>
      <trkpt lat="42.983525" lon="-1.186945">
        <ele>786.0</ele>
        <time>2019-07-31T12:00:35.176Z</time>
      </trkpt>
      <trkpt lat="42.983525" lon="-1.18692333">
        <ele>786.0</ele>
        <time>2019-07-31T12:00:36.183Z</time>
      </trkpt>
      <trkpt lat="42.98352667" lon="-1.18690167">
        <ele>785.0</ele>
        <time>2019-07-31T12:00:37.063Z</time>
      </trkpt>
      <trkpt lat="42.98352" lon="-1.18688333">
        <ele>786.0</ele>
        <time>2019-07-31T12:00:38.069Z</time>
      </trkpt>
      <trkpt lat="42.98351333" lon="-1.18686667">
        <ele>786.0</ele>
        <time>2019-07-31T12:00:39.074Z</time>
      </trkpt>
      <trkpt lat="42.98350667" lon="-1.18684833">
        <ele>786.0</ele>
        <time>2019-07-31T12:00:40.078Z</time>
      </trkpt>
      <trkpt lat="42.98349833" lon="-1.18682833">
        <ele>787.0</ele>
        <time>2019-07-31T12:00:41.082Z</time>
      </trkpt>
      <trkpt lat="42.98349667" lon="-1.18680833">
        <ele>787.0</ele>
        <time>2019-07-31T12:00:42.088Z</time>
      </trkpt>
      <trkpt lat="42.98349667" lon="-1.18678833">
        <ele>787.0</ele>
        <time>2019-07-31T12:00:43.092Z</time>
      </trkpt>
      <trkpt lat="42.9835" lon="-1.18676833">
        <ele>787.0</ele>
        <time>2019-07-31T12:00:44.097Z</time>
      </trkpt>
      <trkpt lat="42.98350167" lon="-1.18674667">
        <ele>786.0</ele>
        <time>2019-07-31T12:00:45.102Z</time>
      </trkpt>
      <trkpt lat="42.98350333" lon="-1.18672667">
        <ele>786.0</ele>
        <time>2019-07-31T12:00:46.108Z</time>
      </trkpt>
      <trkpt lat="42.983505" lon="-1.186705">
        <ele>786.0</ele>
        <time>2019-07-31T12:00:47.114Z</time>
      </trkpt>
      <trkpt lat="42.98350333" lon="-1.18668333">
        <ele>786.0</ele>
        <time>2019-07-31T12:00:48.120Z</time>
      </trkpt>
      <trkpt lat="42.98350333" lon="-1.18666">
        <ele>786.0</ele>
        <time>2019-07-31T12:00:49.124Z</time>
      </trkpt>
      <trkpt lat="42.983505" lon="-1.18663667">
        <ele>786.0</ele>
        <time>2019-07-31T12:00:50.130Z</time>
      </trkpt>
      <trkpt lat="42.98350333" lon="-1.186615">
        <ele>786.0</ele>
        <time>2019-07-31T12:00:51.134Z</time>
      </trkpt>
      <trkpt lat="42.983505" lon="-1.18659167">
        <ele>786.0</ele>
        <time>2019-07-31T12:00:52.141Z</time>
      </trkpt>
      <trkpt lat="42.98350833" lon="-1.18656833">
        <ele>786.0</ele>
        <time>2019-07-31T12:00:53.147Z</time>
      </trkpt>
      <trkpt lat="42.98350833" lon="-1.18654667">
        <ele>786.0</ele>
        <time>2019-07-31T12:00:54.152Z</time>
      </trkpt>
      <trkpt lat="42.98351" lon="-1.18652667">
        <ele>786.0</ele>
        <time>2019-07-31T12:00:55.155Z</time>
      </trkpt>
      <trkpt lat="42.98351" lon="-1.186505">
        <ele>786.0</ele>
        <time>2019-07-31T12:00:56.159Z</time>
      </trkpt>
      <trkpt lat="42.98350833" lon="-1.186485">
        <ele>786.0</ele>
        <time>2019-07-31T12:00:57.165Z</time>
      </trkpt>
      <trkpt lat="42.98350667" lon="-1.18646167">
        <ele>785.0</ele>
        <time>2019-07-31T12:00:58.169Z</time>
      </trkpt>
      <trkpt lat="42.9835" lon="-1.18643667">
        <ele>785.0</ele>
        <time>2019-07-31T12:00:59.173Z</time>
      </trkpt>
      <trkpt lat="42.98348833" lon="-1.18642">
        <ele>786.0</ele>
        <time>2019-07-31T12:01:00.180Z</time>
      </trkpt>
      <trkpt lat="42.98348167" lon="-1.18640333">
        <ele>786.0</ele>
        <time>2019-07-31T12:01:01.186Z</time>
      </trkpt>
      <trkpt lat="42.98347833" lon="-1.18638167">
        <ele>785.0</ele>
        <time>2019-07-31T12:01:02.065Z</time>
      </trkpt>
      <trkpt lat="42.98347833" lon="-1.18636333">
        <ele>785.0</ele>
        <time>2019-07-31T12:01:03.071Z</time>
      </trkpt>
      <trkpt lat="42.98348" lon="-1.18634333">
        <ele>785.0</ele>
        <time>2019-07-31T12:01:04.075Z</time>
      </trkpt>
      <trkpt lat="42.98348" lon="-1.18632167">
        <ele>785.0</ele>
        <time>2019-07-31T12:01:05.077Z</time>
      </trkpt>
      <trkpt lat="42.98347833" lon="-1.1863">
        <ele>785.0</ele>
        <time>2019-07-31T12:01:06.082Z</time>
      </trkpt>
      <trkpt lat="42.983475" lon="-1.18628">
        <ele>785.0</ele>
        <time>2019-07-31T12:01:07.087Z</time>
      </trkpt>
      <trkpt lat="42.98347333" lon="-1.18626">
        <ele>785.0</ele>
        <time>2019-07-31T12:01:08.093Z</time>
      </trkpt>
      <trkpt lat="42.98347167" lon="-1.18624333">
        <ele>786.0</ele>
        <time>2019-07-31T12:01:09.100Z</time>
      </trkpt>
      <trkpt lat="42.98347333" lon="-1.18622333">
        <ele>787.0</ele>
        <time>2019-07-31T12:01:10.106Z</time>
      </trkpt>
      <trkpt lat="42.983475" lon="-1.18620167">
        <ele>787.0</ele>
        <time>2019-07-31T12:01:11.113Z</time>
      </trkpt>
      <trkpt lat="42.983475" lon="-1.18618">
        <ele>788.0</ele>
        <time>2019-07-31T12:01:12.117Z</time>
      </trkpt>
      <trkpt lat="42.98347833" lon="-1.186155">
        <ele>789.0</ele>
        <time>2019-07-31T12:01:13.124Z</time>
      </trkpt>
      <trkpt lat="42.98348" lon="-1.18613167">
        <ele>790.0</ele>
        <time>2019-07-31T12:01:14.130Z</time>
      </trkpt>
      <trkpt lat="42.98347833" lon="-1.18610333">
        <ele>790.0</ele>
        <time>2019-07-31T12:01:15.136Z</time>
      </trkpt>
      <trkpt lat="42.98348" lon="-1.18608">
        <ele>790.0</ele>
        <time>2019-07-31T12:01:16.142Z</time>
      </trkpt>
      <trkpt lat="42.98348333" lon="-1.18605667">
        <ele>790.0</ele>
        <time>2019-07-31T12:01:17.149Z</time>
      </trkpt>
      <trkpt lat="42.98348833" lon="-1.18603333">
        <ele>789.0</ele>
        <time>2019-07-31T12:01:18.156Z</time>
      </trkpt>
      <trkpt lat="42.98349" lon="-1.18601167">
        <ele>790.0</ele>
        <time>2019-07-31T12:01:19.163Z</time>
      </trkpt>
      <trkpt lat="42.98348833" lon="-1.18598833">
        <ele>790.0</ele>
        <time>2019-07-31T12:01:20.170Z</time>
      </trkpt>
      <trkpt lat="42.98348333" lon="-1.185965">
        <ele>790.0</ele>
        <time>2019-07-31T12:01:21.177Z</time>
      </trkpt>
      <trkpt lat="42.98348667" lon="-1.18594333">
        <ele>790.0</ele>
        <time>2019-07-31T12:01:22.184Z</time>
      </trkpt>
      <trkpt lat="42.98348833" lon="-1.18592333">
        <ele>791.0</ele>
        <time>2019-07-31T12:01:23.062Z</time>
      </trkpt>
      <trkpt lat="42.98349" lon="-1.18590833">
        <ele>791.0</ele>
        <time>2019-07-31T12:01:24.066Z</time>
      </trkpt>
      <trkpt lat="42.983495" lon="-1.18588667">
        <ele>790.0</ele>
        <time>2019-07-31T12:01:25.069Z</time>
      </trkpt>
      <trkpt lat="42.9835" lon="-1.18586167">
        <ele>790.0</ele>
        <time>2019-07-31T12:01:26.072Z</time>
      </trkpt>
      <trkpt lat="42.983505" lon="-1.185845">
        <ele>789.0</ele>
        <time>2019-07-31T12:01:27.075Z</time>
      </trkpt>
      <trkpt lat="42.98351" lon="-1.18581833">
        <ele>789.0</ele>
        <time>2019-07-31T12:01:28.080Z</time>
      </trkpt>
      <trkpt lat="42.983515" lon="-1.18579167">
        <ele>788.0</ele>
        <time>2019-07-31T12:01:29.086Z</time>
      </trkpt>
      <trkpt lat="42.98352" lon="-1.18576833">
        <ele>787.0</ele>
        <time>2019-07-31T12:01:30.093Z</time>
      </trkpt>
      <trkpt lat="42.98353167" lon="-1.185745">
        <ele>787.0</ele>
        <time>2019-07-31T12:01:31.100Z</time>
      </trkpt>
      <trkpt lat="42.98354167" lon="-1.18572833">
        <ele>787.0</ele>
        <time>2019-07-31T12:01:32.105Z</time>
      </trkpt>
      <trkpt lat="42.98355167" lon="-1.18571167">
        <ele>787.0</ele>
        <time>2019-07-31T12:01:33.109Z</time>
      </trkpt>
      <trkpt lat="42.983555" lon="-1.18569667">
        <ele>788.0</ele>
        <time>2019-07-31T12:01:34.114Z</time>
      </trkpt>
      <trkpt lat="42.98356" lon="-1.18568333">
        <ele>790.0</ele>
        <time>2019-07-31T12:01:35.117Z</time>
      </trkpt>
      <trkpt lat="42.98356" lon="-1.18567167">
        <ele>791.0</ele>
        <time>2019-07-31T12:01:36.125Z</time>
      </trkpt>
      <trkpt lat="42.983565" lon="-1.18565667">
        <ele>792.0</ele>
        <time>2019-07-31T12:01:37.129Z</time>
      </trkpt>
      <trkpt lat="42.98356833" lon="-1.18564">
        <ele>792.0</ele>
        <time>2019-07-31T12:01:38.133Z</time>
      </trkpt>
      <trkpt lat="42.98357333" lon="-1.18562167">
        <ele>793.0</ele>
        <time>2019-07-31T12:01:39.139Z</time>
      </trkpt>
      <trkpt lat="42.98357667" lon="-1.185605">
        <ele>793.0</ele>
        <time>2019-07-31T12:01:40.145Z</time>
      </trkpt>
      <trkpt lat="42.98358167" lon="-1.18558667">
        <ele>793.0</ele>
        <time>2019-07-31T12:01:41.151Z</time>
      </trkpt>
      <trkpt lat="42.983585" lon="-1.18556833">
        <ele>793.0</ele>
        <time>2019-07-31T12:01:42.157Z</time>
      </trkpt>
      <trkpt lat="42.98358833" lon="-1.18554667">
        <ele>793.0</ele>
        <time>2019-07-31T12:01:43.162Z</time>
      </trkpt>
      <trkpt lat="42.98359167" lon="-1.18552833">
        <ele>792.0</ele>
        <time>2019-07-31T12:01:44.167Z</time>
      </trkpt>
      <trkpt lat="42.98359833" lon="-1.18550833">
        <ele>792.0</ele>
        <time>2019-07-31T12:01:45.172Z</time>
      </trkpt>
      <trkpt lat="42.98360167" lon="-1.18548833">
        <ele>791.0</ele>
        <time>2019-07-31T12:01:46.177Z</time>
      </trkpt>
      <trkpt lat="42.983605" lon="-1.18546833">
        <ele>791.0</ele>
        <time>2019-07-31T12:01:47.183Z</time>
      </trkpt>
      <trkpt lat="42.98360833" lon="-1.18544833">
        <ele>791.0</ele>
        <time>2019-07-31T12:01:48.062Z</time>
      </trkpt>
      <trkpt lat="42.98361333" lon="-1.18543167">
        <ele>792.0</ele>
        <time>2019-07-31T12:01:49.065Z</time>
      </trkpt>
      <trkpt lat="42.98361833" lon="-1.18541333">
        <ele>792.0</ele>
        <time>2019-07-31T12:01:50.072Z</time>
      </trkpt>
      <trkpt lat="42.983625" lon="-1.18539333">
        <ele>792.0</ele>
        <time>2019-07-31T12:01:51.077Z</time>
      </trkpt>
      <trkpt lat="42.98363" lon="-1.18537333">
        <ele>791.0</ele>
        <time>2019-07-31T12:01:52.084Z</time>
      </trkpt>
      <trkpt lat="42.98363333" lon="-1.18535">
        <ele>791.0</ele>
        <time>2019-07-31T12:01:53.089Z</time>
      </trkpt>
      <trkpt lat="42.98363833" lon="-1.18532833">
        <ele>791.0</ele>
        <time>2019-07-31T12:01:54.093Z</time>
      </trkpt>
      <trkpt lat="42.98364667" lon="-1.18530667">
        <ele>791.0</ele>
        <time>2019-07-31T12:01:55.098Z</time>
      </trkpt>
      <trkpt lat="42.98365333" lon="-1.185285">
        <ele>790.0</ele>
        <time>2019-07-31T12:01:56.103Z</time>
      </trkpt>
      <trkpt lat="42.98365833" lon="-1.18526167">
        <ele>790.0</ele>
        <time>2019-07-31T12:01:57.106Z</time>
      </trkpt>
      <trkpt lat="42.98366" lon="-1.18523667">
        <ele>791.0</ele>
        <time>2019-07-31T12:01:58.110Z</time>
      </trkpt>
      <trkpt lat="42.98366167" lon="-1.18521333">
        <ele>792.0</ele>
        <time>2019-07-31T12:01:59.115Z</time>
      </trkpt>
      <trkpt lat="42.983665" lon="-1.18519167">
        <ele>792.0</ele>
        <time>2019-07-31T12:02:00.117Z</time>
      </trkpt>
      <trkpt lat="42.98366833" lon="-1.18516833">
        <ele>791.0</ele>
        <time>2019-07-31T12:02:01.121Z</time>
      </trkpt>
      <trkpt lat="42.98367333" lon="-1.18515">
        <ele>791.0</ele>
        <time>2019-07-31T12:02:02.126Z</time>
      </trkpt>
      <trkpt lat="42.98367667" lon="-1.18513167">
        <ele>791.0</ele>
        <time>2019-07-31T12:02:03.131Z</time>
      </trkpt>
      <trkpt lat="42.98367667" lon="-1.18511333">
        <ele>791.0</ele>
        <time>2019-07-31T12:02:04.134Z</time>
      </trkpt>
      <trkpt lat="42.98368" lon="-1.18509333">
        <ele>791.0</ele>
        <time>2019-07-31T12:02:05.135Z</time>
      </trkpt>
      <trkpt lat="42.98368167" lon="-1.18507167">
        <ele>791.0</ele>
        <time>2019-07-31T12:02:06.138Z</time>
      </trkpt>
      <trkpt lat="42.98368667" lon="-1.18505167">
        <ele>791.0</ele>
        <time>2019-07-31T12:02:07.143Z</time>
      </trkpt>
      <trkpt lat="42.98369333" lon="-1.18503">
        <ele>791.0</ele>
        <time>2019-07-31T12:02:08.148Z</time>
      </trkpt>
      <trkpt lat="42.98369833" lon="-1.18501167">
        <ele>791.0</ele>
        <time>2019-07-31T12:02:09.154Z</time>
      </trkpt>
      <trkpt lat="42.983705" lon="-1.184995">
        <ele>790.0</ele>
        <time>2019-07-31T12:02:10.159Z</time>
      </trkpt>
      <trkpt lat="42.98370667" lon="-1.18497833">
        <ele>791.0</ele>
        <time>2019-07-31T12:02:11.164Z</time>
      </trkpt>
      <trkpt lat="42.98371" lon="-1.18496">
        <ele>791.0</ele>
        <time>2019-07-31T12:02:12.171Z</time>
      </trkpt>
      <trkpt lat="42.983715" lon="-1.18494">
        <ele>791.0</ele>
        <time>2019-07-31T12:02:13.177Z</time>
      </trkpt>
      <trkpt lat="42.98371833" lon="-1.18492167">
        <ele>791.0</ele>
        <time>2019-07-31T12:02:14.182Z</time>
      </trkpt>
      <trkpt lat="42.98371833" lon="-1.18490167">
        <ele>791.0</ele>
        <time>2019-07-31T12:02:15.061Z</time>
      </trkpt>
      <trkpt lat="42.98372167" lon="-1.18488">
        <ele>791.0</ele>
        <time>2019-07-31T12:02:16.067Z</time>
      </trkpt>
      <trkpt lat="42.98372333" lon="-1.18485833">
        <ele>790.0</ele>
        <time>2019-07-31T12:02:17.072Z</time>
      </trkpt>
      <trkpt lat="42.98372167" lon="-1.184835">
        <ele>790.0</ele>
        <time>2019-07-31T12:02:18.076Z</time>
      </trkpt>
      <trkpt lat="42.98372167" lon="-1.18481167">
        <ele>790.0</ele>
        <time>2019-07-31T12:02:19.079Z</time>
      </trkpt>
      <trkpt lat="42.98372167" lon="-1.18479">
        <ele>789.0</ele>
        <time>2019-07-31T12:02:20.084Z</time>
      </trkpt>
      <trkpt lat="42.98372333" lon="-1.18476667">
        <ele>790.0</ele>
        <time>2019-07-31T12:02:21.091Z</time>
      </trkpt>
      <trkpt lat="42.983725" lon="-1.18474333">
        <ele>790.0</ele>
        <time>2019-07-31T12:02:22.098Z</time>
      </trkpt>
      <trkpt lat="42.98372833" lon="-1.184725">
        <ele>790.0</ele>
        <time>2019-07-31T12:02:23.104Z</time>
      </trkpt>
      <trkpt lat="42.983725" lon="-1.18470833">
        <ele>790.0</ele>
        <time>2019-07-31T12:02:24.109Z</time>
      </trkpt>
      <trkpt lat="42.98372333" lon="-1.18468667">
        <ele>791.0</ele>
        <time>2019-07-31T12:02:25.115Z</time>
      </trkpt>
      <trkpt lat="42.98372667" lon="-1.184665">
        <ele>791.0</ele>
        <time>2019-07-31T12:02:26.120Z</time>
      </trkpt>
      <trkpt lat="42.98372667" lon="-1.18464">
        <ele>791.0</ele>
        <time>2019-07-31T12:02:27.126Z</time>
      </trkpt>
      <trkpt lat="42.98372667" lon="-1.18462">
        <ele>791.0</ele>
        <time>2019-07-31T12:02:28.131Z</time>
      </trkpt>
      <trkpt lat="42.983725" lon="-1.18459833">
        <ele>791.0</ele>
        <time>2019-07-31T12:02:29.135Z</time>
      </trkpt>
      <trkpt lat="42.98372167" lon="-1.18458">
        <ele>791.0</ele>
        <time>2019-07-31T12:02:30.142Z</time>
      </trkpt>
      <trkpt lat="42.98372" lon="-1.18455833">
        <ele>791.0</ele>
        <time>2019-07-31T12:02:31.148Z</time>
      </trkpt>
      <trkpt lat="42.98372" lon="-1.184535">
        <ele>791.0</ele>
        <time>2019-07-31T12:02:32.155Z</time>
      </trkpt>
      <trkpt lat="42.98371833" lon="-1.18451667">
        <ele>791.0</ele>
        <time>2019-07-31T12:02:33.161Z</time>
      </trkpt>
      <trkpt lat="42.98371667" lon="-1.1845">
        <ele>791.0</ele>
        <time>2019-07-31T12:02:34.167Z</time>
      </trkpt>
      <trkpt lat="42.983715" lon="-1.18448333">
        <ele>793.0</ele>
        <time>2019-07-31T12:02:35.170Z</time>
      </trkpt>
      <trkpt lat="42.98371333" lon="-1.184465">
        <ele>793.0</ele>
        <time>2019-07-31T12:02:36.174Z</time>
      </trkpt>
      <trkpt lat="42.98371" lon="-1.184445">
        <ele>793.0</ele>
        <time>2019-07-31T12:02:37.178Z</time>
      </trkpt>
      <trkpt lat="42.983705" lon="-1.18442333">
        <ele>793.0</ele>
        <time>2019-07-31T12:02:38.183Z</time>
      </trkpt>
      <trkpt lat="42.98370167" lon="-1.1844">
        <ele>794.0</ele>
        <time>2019-07-31T12:02:39.062Z</time>
      </trkpt>
      <trkpt lat="42.98370333" lon="-1.18437833">
        <ele>794.0</ele>
        <time>2019-07-31T12:02:40.068Z</time>
      </trkpt>
      <trkpt lat="42.98370833" lon="-1.18435667">
        <ele>794.0</ele>
        <time>2019-07-31T12:02:41.073Z</time>
      </trkpt>
      <trkpt lat="42.98371833" lon="-1.184335">
        <ele>794.0</ele>
        <time>2019-07-31T12:02:42.078Z</time>
      </trkpt>
      <trkpt lat="42.98372333" lon="-1.18431667">
        <ele>794.0</ele>
        <time>2019-07-31T12:02:43.084Z</time>
      </trkpt>
      <trkpt lat="42.98371833" lon="-1.18429667">
        <ele>795.0</ele>
        <time>2019-07-31T12:02:44.088Z</time>
      </trkpt>
      <trkpt lat="42.983715" lon="-1.184285">
        <ele>795.0</ele>
        <time>2019-07-31T12:02:45.091Z</time>
      </trkpt>
      <trkpt lat="42.98370667" lon="-1.18426667">
        <ele>794.0</ele>
        <time>2019-07-31T12:02:46.096Z</time>
      </trkpt>
      <trkpt lat="42.98370667" lon="-1.18423167">
        <ele>792.0</ele>
        <time>2019-07-31T12:02:47.099Z</time>
      </trkpt>
      <trkpt lat="42.98369833" lon="-1.1842">
        <ele>792.0</ele>
        <time>2019-07-31T12:02:48.105Z</time>
      </trkpt>
      <trkpt lat="42.98369333" lon="-1.184175">
        <ele>792.0</ele>
        <time>2019-07-31T12:02:49.110Z</time>
      </trkpt>
      <trkpt lat="42.98369" lon="-1.18415167">
        <ele>792.0</ele>
        <time>2019-07-31T12:02:50.115Z</time>
      </trkpt>
      <trkpt lat="42.98369" lon="-1.18413333">
        <ele>792.0</ele>
        <time>2019-07-31T12:02:51.119Z</time>
      </trkpt>
      <trkpt lat="42.983685" lon="-1.18411833">
        <ele>791.0</ele>
        <time>2019-07-31T12:02:52.124Z</time>
      </trkpt>
      <trkpt lat="42.98367833" lon="-1.18410333">
        <ele>791.0</ele>
        <time>2019-07-31T12:02:53.130Z</time>
      </trkpt>
      <trkpt lat="42.98367333" lon="-1.18408333">
        <ele>792.0</ele>
        <time>2019-07-31T12:02:54.137Z</time>
      </trkpt>
      <trkpt lat="42.98367" lon="-1.18406667">
        <ele>792.0</ele>
        <time>2019-07-31T12:02:55.145Z</time>
      </trkpt>
      <trkpt lat="42.98366333" lon="-1.184055">
        <ele>793.0</ele>
        <time>2019-07-31T12:02:56.150Z</time>
      </trkpt>
      <trkpt lat="42.98366" lon="-1.18404">
        <ele>794.0</ele>
        <time>2019-07-31T12:02:57.155Z</time>
      </trkpt>
      <trkpt lat="42.98365667" lon="-1.18402833">
        <ele>794.0</ele>
        <time>2019-07-31T12:02:58.159Z</time>
      </trkpt>
      <trkpt lat="42.983655" lon="-1.184015">
        <ele>794.0</ele>
        <time>2019-07-31T12:02:59.163Z</time>
      </trkpt>
      <trkpt lat="42.98365667" lon="-1.184">
        <ele>794.0</ele>
        <time>2019-07-31T12:03:00.169Z</time>
      </trkpt>
      <trkpt lat="42.98366" lon="-1.18398333">
        <ele>794.0</ele>
        <time>2019-07-31T12:03:01.174Z</time>
      </trkpt>
      <trkpt lat="42.98366333" lon="-1.18397333">
        <ele>795.0</ele>
        <time>2019-07-31T12:03:02.179Z</time>
      </trkpt>
      <trkpt lat="42.983665" lon="-1.18396167">
        <ele>796.0</ele>
        <time>2019-07-31T12:03:03.061Z</time>
      </trkpt>
      <trkpt lat="42.983665" lon="-1.18395167">
        <ele>796.0</ele>
        <time>2019-07-31T12:03:04.066Z</time>
      </trkpt>
      <trkpt lat="42.98366667" lon="-1.18394">
        <ele>796.0</ele>
        <time>2019-07-31T12:03:05.070Z</time>
      </trkpt>
      <trkpt lat="42.98367167" lon="-1.18392667">
        <ele>796.0</ele>
        <time>2019-07-31T12:03:06.075Z</time>
      </trkpt>
      <trkpt lat="42.983675" lon="-1.18391167">
        <ele>797.0</ele>
        <time>2019-07-31T12:03:07.079Z</time>
      </trkpt>
      <trkpt lat="42.98367667" lon="-1.18389333">
        <ele>797.0</ele>
        <time>2019-07-31T12:03:08.084Z</time>
      </trkpt>
      <trkpt lat="42.98367833" lon="-1.18387333">
        <ele>797.0</ele>
        <time>2019-07-31T12:03:09.088Z</time>
      </trkpt>
      <trkpt lat="42.98368" lon="-1.18385667">
        <ele>798.0</ele>
        <time>2019-07-31T12:03:10.094Z</time>
      </trkpt>
      <trkpt lat="42.98368" lon="-1.18383667">
        <ele>797.0</ele>
        <time>2019-07-31T12:03:11.098Z</time>
      </trkpt>
      <trkpt lat="42.98368" lon="-1.18381667">
        <ele>797.0</ele>
        <time>2019-07-31T12:03:12.103Z</time>
      </trkpt>
      <trkpt lat="42.98368" lon="-1.18379833">
        <ele>797.0</ele>
        <time>2019-07-31T12:03:13.110Z</time>
      </trkpt>
      <trkpt lat="42.98368667" lon="-1.18378167">
        <ele>796.0</ele>
        <time>2019-07-31T12:03:14.116Z</time>
      </trkpt>
      <trkpt lat="42.98369333" lon="-1.18376333">
        <ele>795.0</ele>
        <time>2019-07-31T12:03:15.121Z</time>
      </trkpt>
      <trkpt lat="42.983695" lon="-1.18374333">
        <ele>794.0</ele>
        <time>2019-07-31T12:03:16.127Z</time>
      </trkpt>
      <trkpt lat="42.983695" lon="-1.18372333">
        <ele>794.0</ele>
        <time>2019-07-31T12:03:17.133Z</time>
      </trkpt>
      <trkpt lat="42.983695" lon="-1.18370667">
        <ele>793.0</ele>
        <time>2019-07-31T12:03:18.138Z</time>
      </trkpt>
      <trkpt lat="42.98369833" lon="-1.18368667">
        <ele>792.0</ele>
        <time>2019-07-31T12:03:19.143Z</time>
      </trkpt>
      <trkpt lat="42.98369667" lon="-1.18367333">
        <ele>792.0</ele>
        <time>2019-07-31T12:03:20.149Z</time>
      </trkpt>
      <trkpt lat="42.98369833" lon="-1.18366167">
        <ele>792.0</ele>
        <time>2019-07-31T12:03:21.156Z</time>
      </trkpt>
      <trkpt lat="42.98369833" lon="-1.18364833">
        <ele>792.0</ele>
        <time>2019-07-31T12:03:22.159Z</time>
      </trkpt>
      <trkpt lat="42.98369333" lon="-1.18363">
        <ele>793.0</ele>
        <time>2019-07-31T12:03:23.164Z</time>
      </trkpt>
      <trkpt lat="42.98369167" lon="-1.18361167">
        <ele>793.0</ele>
        <time>2019-07-31T12:03:24.170Z</time>
      </trkpt>
      <trkpt lat="42.98369333" lon="-1.18359167">
        <ele>793.0</ele>
        <time>2019-07-31T12:03:25.177Z</time>
      </trkpt>
      <trkpt lat="42.98369167" lon="-1.18357833">
        <ele>793.0</ele>
        <time>2019-07-31T12:03:26.184Z</time>
      </trkpt>
      <trkpt lat="42.98368833" lon="-1.18356667">
        <ele>793.0</ele>
        <time>2019-07-31T12:03:27.063Z</time>
      </trkpt>
      <trkpt lat="42.98368667" lon="-1.183555">
        <ele>794.0</ele>
        <time>2019-07-31T12:03:28.070Z</time>
      </trkpt>
      <trkpt lat="42.98368667" lon="-1.183545">
        <ele>794.0</ele>
        <time>2019-07-31T12:03:29.075Z</time>
      </trkpt>
      <trkpt lat="42.98368667" lon="-1.183535">
        <ele>795.0</ele>
        <time>2019-07-31T12:03:30.080Z</time>
      </trkpt>
      <trkpt lat="42.98369" lon="-1.183525">
        <ele>795.0</ele>
        <time>2019-07-31T12:03:31.086Z</time>
      </trkpt>
      <trkpt lat="42.98369" lon="-1.18351">
        <ele>796.0</ele>
        <time>2019-07-31T12:03:32.093Z</time>
      </trkpt>
      <trkpt lat="42.98369167" lon="-1.18349167">
        <ele>797.0</ele>
        <time>2019-07-31T12:03:33.097Z</time>
      </trkpt>
      <trkpt lat="42.98368833" lon="-1.18347667">
        <ele>798.0</ele>
        <time>2019-07-31T12:03:34.103Z</time>
      </trkpt>
      <trkpt lat="42.98368167" lon="-1.18346333">
        <ele>800.0</ele>
        <time>2019-07-31T12:03:35.109Z</time>
      </trkpt>
      <trkpt lat="42.983675" lon="-1.18344833">
        <ele>801.0</ele>
        <time>2019-07-31T12:03:36.113Z</time>
      </trkpt>
      <trkpt lat="42.98367" lon="-1.18343167">
        <ele>802.0</ele>
        <time>2019-07-31T12:03:37.116Z</time>
      </trkpt>
      <trkpt lat="42.98366667" lon="-1.18341833">
        <ele>802.0</ele>
        <time>2019-07-31T12:03:38.121Z</time>
      </trkpt>
      <trkpt lat="42.98365833" lon="-1.18340667">
        <ele>803.0</ele>
        <time>2019-07-31T12:03:39.124Z</time>
      </trkpt>
      <trkpt lat="42.98365" lon="-1.18339667">
        <ele>803.0</ele>
        <time>2019-07-31T12:03:40.129Z</time>
      </trkpt>
      <trkpt lat="42.98364333" lon="-1.18338667">
        <ele>803.0</ele>
        <time>2019-07-31T12:03:41.133Z</time>
      </trkpt>
      <trkpt lat="42.98364333" lon="-1.18337">
        <ele>802.0</ele>
        <time>2019-07-31T12:03:42.137Z</time>
      </trkpt>
      <trkpt lat="42.98364667" lon="-1.18335333">
        <ele>802.0</ele>
        <time>2019-07-31T12:03:43.142Z</time>
      </trkpt>
      <trkpt lat="42.983645" lon="-1.18333333">
        <ele>802.0</ele>
        <time>2019-07-31T12:03:44.147Z</time>
      </trkpt>
      <trkpt lat="42.98364333" lon="-1.18331167">
        <ele>803.0</ele>
        <time>2019-07-31T12:03:45.154Z</time>
      </trkpt>
      <trkpt lat="42.98363833" lon="-1.18329333">
        <ele>803.0</ele>
        <time>2019-07-31T12:03:46.160Z</time>
      </trkpt>
      <trkpt lat="42.98363167" lon="-1.18327667">
        <ele>804.0</ele>
        <time>2019-07-31T12:03:47.165Z</time>
      </trkpt>
      <trkpt lat="42.98362" lon="-1.18326333">
        <ele>806.0</ele>
        <time>2019-07-31T12:03:48.168Z</time>
      </trkpt>
      <trkpt lat="42.98360667" lon="-1.18325">
        <ele>808.0</ele>
        <time>2019-07-31T12:03:49.173Z</time>
      </trkpt>
      <trkpt lat="42.98359667" lon="-1.183235">
        <ele>810.0</ele>
        <time>2019-07-31T12:03:50.177Z</time>
      </trkpt>
      <trkpt lat="42.98359" lon="-1.18322667">
        <ele>811.0</ele>
        <time>2019-07-31T12:03:51.181Z</time>
      </trkpt>
      <trkpt lat="42.98358333" lon="-1.18321333">
        <ele>812.0</ele>
        <time>2019-07-31T12:03:52.186Z</time>
      </trkpt>
      <trkpt lat="42.98358333" lon="-1.18320333">
        <ele>811.0</ele>
        <time>2019-07-31T12:03:53.065Z</time>
      </trkpt>
      <trkpt lat="42.98358" lon="-1.18318167">
        <ele>810.0</ele>
        <time>2019-07-31T12:03:54.070Z</time>
      </trkpt>
      <trkpt lat="42.98357333" lon="-1.18316833">
        <ele>810.0</ele>
        <time>2019-07-31T12:03:55.076Z</time>
      </trkpt>
      <trkpt lat="42.98356333" lon="-1.18315667">
        <ele>809.0</ele>
        <time>2019-07-31T12:03:56.081Z</time>
      </trkpt>
      <trkpt lat="42.98355833" lon="-1.183145">
        <ele>808.0</ele>
        <time>2019-07-31T12:03:57.087Z</time>
      </trkpt>
      <trkpt lat="42.98355833" lon="-1.18314167">
        <ele>808.0</ele>
        <time>2019-07-31T12:03:58.091Z</time>
      </trkpt>
      <trkpt lat="42.98355" lon="-1.18312667">
        <ele>809.0</ele>
        <time>2019-07-31T12:03:59.098Z</time>
      </trkpt>
      <trkpt lat="42.98354833" lon="-1.18312167">
        <ele>809.0</ele>
        <time>2019-07-31T12:04:00.101Z</time>
      </trkpt>
      <trkpt lat="42.98354667" lon="-1.183115">
        <ele>809.0</ele>
        <time>2019-07-31T12:04:01.106Z</time>
      </trkpt>
      <trkpt lat="42.98354667" lon="-1.18310667">
        <ele>809.0</ele>
        <time>2019-07-31T12:04:02.111Z</time>
      </trkpt>
      <trkpt lat="42.98354833" lon="-1.18309833">
        <ele>809.0</ele>
        <time>2019-07-31T12:04:03.117Z</time>
      </trkpt>
      <trkpt lat="42.98354833" lon="-1.183095">
        <ele>809.0</ele>
        <time>2019-07-31T12:04:04.123Z</time>
      </trkpt>
      <trkpt lat="42.98355167" lon="-1.18308833">
        <ele>809.0</ele>
        <time>2019-07-31T12:04:05.129Z</time>
      </trkpt>
      <trkpt lat="42.98354833" lon="-1.18308167">
        <ele>809.0</ele>
        <time>2019-07-31T12:04:06.137Z</time>
      </trkpt>
      <trkpt lat="42.983545" lon="-1.18307167">
        <ele>809.0</ele>
        <time>2019-07-31T12:04:07.143Z</time>
      </trkpt>
      <trkpt lat="42.98354" lon="-1.18306333">
        <ele>809.0</ele>
        <time>2019-07-31T12:04:08.150Z</time>
      </trkpt>
      <trkpt lat="42.98354" lon="-1.18305833">
        <ele>808.0</ele>
        <time>2019-07-31T12:04:09.155Z</time>
      </trkpt>
      <trkpt lat="42.98354167" lon="-1.18305">
        <ele>808.0</ele>
        <time>2019-07-31T12:04:10.161Z</time>
      </trkpt>
      <trkpt lat="42.983545" lon="-1.18304167">
        <ele>808.0</ele>
        <time>2019-07-31T12:04:11.166Z</time>
      </trkpt>
      <trkpt lat="42.98354833" lon="-1.18303">
        <ele>807.0</ele>
        <time>2019-07-31T12:04:12.171Z</time>
      </trkpt>
      <trkpt lat="42.98354833" lon="-1.18301833">
        <ele>807.0</ele>
        <time>2019-07-31T12:04:13.175Z</time>
      </trkpt>
      <trkpt lat="42.98354833" lon="-1.18300667">
        <ele>807.0</ele>
        <time>2019-07-31T12:04:14.178Z</time>
      </trkpt>
      <trkpt lat="42.983545" lon="-1.18299167">
        <ele>806.0</ele>
        <time>2019-07-31T12:04:15.183Z</time>
      </trkpt>
      <trkpt lat="42.98354333" lon="-1.18297833">
        <ele>806.0</ele>
        <time>2019-07-31T12:04:16.063Z</time>
      </trkpt>
      <trkpt lat="42.98354333" lon="-1.18297">
        <ele>805.0</ele>
        <time>2019-07-31T12:04:17.068Z</time>
      </trkpt>
      <trkpt lat="42.98353667" lon="-1.18295667">
        <ele>803.0</ele>
        <time>2019-07-31T12:04:18.074Z</time>
      </trkpt>
      <trkpt lat="42.983535" lon="-1.18294333">
        <ele>803.0</ele>
        <time>2019-07-31T12:04:19.079Z</time>
      </trkpt>
      <trkpt lat="42.98353" lon="-1.18292667">
        <ele>803.0</ele>
        <time>2019-07-31T12:04:20.083Z</time>
      </trkpt>
      <trkpt lat="42.98352333" lon="-1.182905">
        <ele>803.0</ele>
        <time>2019-07-31T12:04:21.085Z</time>
      </trkpt>
      <trkpt lat="42.98352167" lon="-1.18288667">
        <ele>802.0</ele>
        <time>2019-07-31T12:04:22.091Z</time>
      </trkpt>
      <trkpt lat="42.98352333" lon="-1.18286667">
        <ele>801.0</ele>
        <time>2019-07-31T12:04:23.096Z</time>
      </trkpt>
      <trkpt lat="42.98352667" lon="-1.18285167">
        <ele>800.0</ele>
        <time>2019-07-31T12:04:24.099Z</time>
      </trkpt>
      <trkpt lat="42.98352667" lon="-1.182835">
        <ele>801.0</ele>
        <time>2019-07-31T12:04:25.104Z</time>
      </trkpt>
      <trkpt lat="42.98353" lon="-1.18281667">
        <ele>801.0</ele>
        <time>2019-07-31T12:04:26.109Z</time>
      </trkpt>
      <trkpt lat="42.983535" lon="-1.18279833">
        <ele>801.0</ele>
        <time>2019-07-31T12:04:27.114Z</time>
      </trkpt>
      <trkpt lat="42.98353667" lon="-1.18278">
        <ele>802.0</ele>
        <time>2019-07-31T12:04:28.117Z</time>
      </trkpt>
      <trkpt lat="42.983535" lon="-1.18276333">
        <ele>802.0</ele>
        <time>2019-07-31T12:04:29.123Z</time>
      </trkpt>
      <trkpt lat="42.983535" lon="-1.18275">
        <ele>803.0</ele>
        <time>2019-07-31T12:04:30.130Z</time>
      </trkpt>
      <trkpt lat="42.98354" lon="-1.182735">
        <ele>803.0</ele>
        <time>2019-07-31T12:04:31.136Z</time>
      </trkpt>
      <trkpt lat="42.98354333" lon="-1.18272">
        <ele>803.0</ele>
        <time>2019-07-31T12:04:32.141Z</time>
      </trkpt>
      <trkpt lat="42.98355167" lon="-1.18271167">
        <ele>802.0</ele>
        <time>2019-07-31T12:04:33.148Z</time>
      </trkpt>
      <trkpt lat="42.98355833" lon="-1.18269667">
        <ele>802.0</ele>
        <time>2019-07-31T12:04:34.154Z</time>
      </trkpt>
      <trkpt lat="42.98355833" lon="-1.18268167">
        <ele>803.0</ele>
        <time>2019-07-31T12:04:35.158Z</time>
      </trkpt>
      <trkpt lat="42.98356" lon="-1.18267167">
        <ele>803.0</ele>
        <time>2019-07-31T12:04:36.162Z</time>
      </trkpt>
      <trkpt lat="42.98357" lon="-1.18265833">
        <ele>803.0</ele>
        <time>2019-07-31T12:04:37.169Z</time>
      </trkpt>
      <trkpt lat="42.98358" lon="-1.18264">
        <ele>802.0</ele>
        <time>2019-07-31T12:04:38.174Z</time>
      </trkpt>
      <trkpt lat="42.98359167" lon="-1.182625">
        <ele>801.0</ele>
        <time>2019-07-31T12:04:39.180Z</time>
      </trkpt>
      <trkpt lat="42.98360333" lon="-1.182615">
        <ele>800.0</ele>
        <time>2019-07-31T12:04:40.185Z</time>
      </trkpt>
      <trkpt lat="42.98360833" lon="-1.18261333">
        <ele>801.0</ele>
        <time>2019-07-31T12:04:41.063Z</time>
      </trkpt>
      <trkpt lat="42.983615" lon="-1.18260667">
        <ele>802.0</ele>
        <time>2019-07-31T12:04:42.067Z</time>
      </trkpt>
      <trkpt lat="42.98361833" lon="-1.18259667">
        <ele>804.0</ele>
        <time>2019-07-31T12:04:43.072Z</time>
      </trkpt>
      <trkpt lat="42.98362333" lon="-1.18258833">
        <ele>804.0</ele>
        <time>2019-07-31T12:04:44.076Z</time>
      </trkpt>
      <trkpt lat="42.98363" lon="-1.18258">
        <ele>804.0</ele>
        <time>2019-07-31T12:04:45.079Z</time>
      </trkpt>
      <trkpt lat="42.98363667" lon="-1.18257">
        <ele>804.0</ele>
        <time>2019-07-31T12:04:46.083Z</time>
      </trkpt>
      <trkpt lat="42.98364333" lon="-1.18255833">
        <ele>804.0</ele>
        <time>2019-07-31T12:04:47.088Z</time>
      </trkpt>
      <trkpt lat="42.98365167" lon="-1.18255">
        <ele>805.0</ele>
        <time>2019-07-31T12:04:48.094Z</time>
      </trkpt>
      <trkpt lat="42.98366" lon="-1.18254333">
        <ele>805.0</ele>
        <time>2019-07-31T12:04:49.099Z</time>
      </trkpt>
      <trkpt lat="42.98367" lon="-1.182535">
        <ele>805.0</ele>
        <time>2019-07-31T12:04:50.107Z</time>
      </trkpt>
      <trkpt lat="42.98367833" lon="-1.182525">
        <ele>805.0</ele>
        <time>2019-07-31T12:04:51.112Z</time>
      </trkpt>
      <trkpt lat="42.98368833" lon="-1.182515">
        <ele>804.0</ele>
        <time>2019-07-31T12:04:52.118Z</time>
      </trkpt>
      <trkpt lat="42.98369333" lon="-1.18250667">
        <ele>804.0</ele>
        <time>2019-07-31T12:04:53.122Z</time>
      </trkpt>
      <trkpt lat="42.9837" lon="-1.18249833">
        <ele>804.0</ele>
        <time>2019-07-31T12:04:54.127Z</time>
      </trkpt>
      <trkpt lat="42.98370833" lon="-1.18248667">
        <ele>805.0</ele>
        <time>2019-07-31T12:04:55.132Z</time>
      </trkpt>
      <trkpt lat="42.98371833" lon="-1.18247667">
        <ele>805.0</ele>
        <time>2019-07-31T12:04:56.137Z</time>
      </trkpt>
      <trkpt lat="42.98373" lon="-1.182465">
        <ele>805.0</ele>
        <time>2019-07-31T12:04:57.142Z</time>
      </trkpt>
      <trkpt lat="42.98374333" lon="-1.18245167">
        <ele>805.0</ele>
        <time>2019-07-31T12:04:58.149Z</time>
      </trkpt>
      <trkpt lat="42.98375333" lon="-1.18243833">
        <ele>804.0</ele>
        <time>2019-07-31T12:04:59.155Z</time>
      </trkpt>
      <trkpt lat="42.98376333" lon="-1.18242833">
        <ele>804.0</ele>
        <time>2019-07-31T12:05:00.160Z</time>
      </trkpt>
      <trkpt lat="42.98377333" lon="-1.18242">
        <ele>804.0</ele>
        <time>2019-07-31T12:05:01.167Z</time>
      </trkpt>
      <trkpt lat="42.98378" lon="-1.18241">
        <ele>804.0</ele>
        <time>2019-07-31T12:05:02.174Z</time>
      </trkpt>
      <trkpt lat="42.98378667" lon="-1.1824">
        <ele>805.0</ele>
        <time>2019-07-31T12:05:03.179Z</time>
      </trkpt>
      <trkpt lat="42.983795" lon="-1.18239333">
        <ele>805.0</ele>
        <time>2019-07-31T12:05:04.186Z</time>
      </trkpt>
      <trkpt lat="42.98380333" lon="-1.182385">
        <ele>805.0</ele>
        <time>2019-07-31T12:05:05.066Z</time>
      </trkpt>
      <trkpt lat="42.98381167" lon="-1.182375">
        <ele>805.0</ele>
        <time>2019-07-31T12:05:06.071Z</time>
      </trkpt>
      <trkpt lat="42.98381667" lon="-1.18236167">
        <ele>805.0</ele>
        <time>2019-07-31T12:05:07.076Z</time>
      </trkpt>
      <trkpt lat="42.98382167" lon="-1.18234833">
        <ele>804.0</ele>
        <time>2019-07-31T12:05:08.081Z</time>
      </trkpt>
      <trkpt lat="42.98382667" lon="-1.18233333">
        <ele>804.0</ele>
        <time>2019-07-31T12:05:09.088Z</time>
      </trkpt>
      <trkpt lat="42.98382667" lon="-1.18231833">
        <ele>804.0</ele>
        <time>2019-07-31T12:05:10.094Z</time>
      </trkpt>
      <trkpt lat="42.98382833" lon="-1.182305">
        <ele>804.0</ele>
        <time>2019-07-31T12:05:11.101Z</time>
      </trkpt>
      <trkpt lat="42.983825" lon="-1.18228667">
        <ele>805.0</ele>
        <time>2019-07-31T12:05:12.106Z</time>
      </trkpt>
      <trkpt lat="42.98382" lon="-1.18227333">
        <ele>806.0</ele>
        <time>2019-07-31T12:05:13.110Z</time>
      </trkpt>
      <trkpt lat="42.98380667" lon="-1.18226833">
        <ele>807.0</ele>
        <time>2019-07-31T12:05:14.114Z</time>
      </trkpt>
      <trkpt lat="42.983795" lon="-1.18226167">
        <ele>808.0</ele>
        <time>2019-07-31T12:05:15.119Z</time>
      </trkpt>
      <trkpt lat="42.98378333" lon="-1.18225333">
        <ele>809.0</ele>
        <time>2019-07-31T12:05:16.123Z</time>
      </trkpt>
      <trkpt lat="42.98377667" lon="-1.182245">
        <ele>810.0</ele>
        <time>2019-07-31T12:05:17.127Z</time>
      </trkpt>
      <trkpt lat="42.983765" lon="-1.18223667">
        <ele>810.0</ele>
        <time>2019-07-31T12:05:18.132Z</time>
      </trkpt>
      <trkpt lat="42.983755" lon="-1.182225">
        <ele>810.0</ele>
        <time>2019-07-31T12:05:19.139Z</time>
      </trkpt>
      <trkpt lat="42.98374833" lon="-1.18221333">
        <ele>810.0</ele>
        <time>2019-07-31T12:05:20.145Z</time>
      </trkpt>
      <trkpt lat="42.98374333" lon="-1.18220333">
        <ele>810.0</ele>
        <time>2019-07-31T12:05:21.152Z</time>
      </trkpt>
      <trkpt lat="42.98373667" lon="-1.182195">
        <ele>810.0</ele>
        <time>2019-07-31T12:05:22.158Z</time>
      </trkpt>
      <trkpt lat="42.983735" lon="-1.18218833">
        <ele>811.0</ele>
        <time>2019-07-31T12:05:23.161Z</time>
      </trkpt>
      <trkpt lat="42.98373167" lon="-1.18217667">
        <ele>812.0</ele>
        <time>2019-07-31T12:05:24.166Z</time>
      </trkpt>
      <trkpt lat="42.98372333" lon="-1.182165">
        <ele>812.0</ele>
        <time>2019-07-31T12:05:25.175Z</time>
      </trkpt>
      <trkpt lat="42.983715" lon="-1.18215">
        <ele>812.0</ele>
        <time>2019-07-31T12:05:26.180Z</time>
      </trkpt>
      <trkpt lat="42.98370833" lon="-1.18214167">
        <ele>813.0</ele>
        <time>2019-07-31T12:05:27.185Z</time>
      </trkpt>
      <trkpt lat="42.9837" lon="-1.182125">
        <ele>813.0</ele>
        <time>2019-07-31T12:05:28.064Z</time>
      </trkpt>
      <trkpt lat="42.98369167" lon="-1.18211">
        <ele>814.0</ele>
        <time>2019-07-31T12:05:29.069Z</time>
      </trkpt>
      <trkpt lat="42.98368167" lon="-1.18209833">
        <ele>816.0</ele>
        <time>2019-07-31T12:05:30.074Z</time>
      </trkpt>
      <trkpt lat="42.98367167" lon="-1.18209333">
        <ele>816.0</ele>
        <time>2019-07-31T12:05:31.078Z</time>
      </trkpt>
      <trkpt lat="42.983665" lon="-1.18209">
        <ele>817.0</ele>
        <time>2019-07-31T12:05:32.085Z</time>
      </trkpt>
      <trkpt lat="42.98365833" lon="-1.18207333">
        <ele>816.0</ele>
        <time>2019-07-31T12:05:33.091Z</time>
      </trkpt>
      <trkpt lat="42.98365" lon="-1.18205667">
        <ele>816.0</ele>
        <time>2019-07-31T12:05:34.096Z</time>
      </trkpt>
      <trkpt lat="42.98364167" lon="-1.18204333">
        <ele>815.0</ele>
        <time>2019-07-31T12:05:35.101Z</time>
      </trkpt>
      <trkpt lat="42.98362667" lon="-1.182025">
        <ele>815.0</ele>
        <time>2019-07-31T12:05:36.105Z</time>
      </trkpt>
      <trkpt lat="42.98361833" lon="-1.18201667">
        <ele>814.0</ele>
        <time>2019-07-31T12:05:37.110Z</time>
      </trkpt>
      <trkpt lat="42.98361" lon="-1.18201">
        <ele>815.0</ele>
        <time>2019-07-31T12:05:38.116Z</time>
      </trkpt>
      <trkpt lat="42.9836" lon="-1.18199333">
        <ele>816.0</ele>
        <time>2019-07-31T12:05:39.120Z</time>
      </trkpt>
      <trkpt lat="42.983595" lon="-1.18198">
        <ele>816.0</ele>
        <time>2019-07-31T12:05:40.127Z</time>
      </trkpt>
      <trkpt lat="42.98358833" lon="-1.181965">
        <ele>817.0</ele>
        <time>2019-07-31T12:05:41.134Z</time>
      </trkpt>
      <trkpt lat="42.98358167" lon="-1.18194833">
        <ele>816.0</ele>
        <time>2019-07-31T12:05:42.139Z</time>
      </trkpt>
      <trkpt lat="42.98357833" lon="-1.18193833">
        <ele>814.0</ele>
        <time>2019-07-31T12:05:43.145Z</time>
      </trkpt>
      <trkpt lat="42.98357" lon="-1.181925">
        <ele>814.0</ele>
        <time>2019-07-31T12:05:44.150Z</time>
      </trkpt>
      <trkpt lat="42.98355667" lon="-1.18191333">
        <ele>816.0</ele>
        <time>2019-07-31T12:05:45.157Z</time>
      </trkpt>
      <trkpt lat="42.98355167" lon="-1.18191167">
        <ele>817.0</ele>
        <time>2019-07-31T12:05:46.162Z</time>
      </trkpt>
      <trkpt lat="42.98354333" lon="-1.181905">
        <ele>818.0</ele>
        <time>2019-07-31T12:05:47.167Z</time>
      </trkpt>
      <trkpt lat="42.98353" lon="-1.18189833">
        <ele>818.0</ele>
        <time>2019-07-31T12:05:48.170Z</time>
      </trkpt>
      <trkpt lat="42.98351333" lon="-1.18188833">
        <ele>819.0</ele>
        <time>2019-07-31T12:05:49.175Z</time>
      </trkpt>
      <trkpt lat="42.98349667" lon="-1.18188167">
        <ele>819.0</ele>
        <time>2019-07-31T12:05:50.179Z</time>
      </trkpt>
      <trkpt lat="42.98347833" lon="-1.18187333">
        <ele>820.0</ele>
        <time>2019-07-31T12:05:51.183Z</time>
      </trkpt>
      <trkpt lat="42.98345833" lon="-1.181865">
        <ele>820.0</ele>
        <time>2019-07-31T12:05:52.063Z</time>
      </trkpt>
      <trkpt lat="42.98344167" lon="-1.18185833">
        <ele>820.0</ele>
        <time>2019-07-31T12:05:53.069Z</time>
      </trkpt>
      <trkpt lat="42.983425" lon="-1.181855">
        <ele>820.0</ele>
        <time>2019-07-31T12:05:54.074Z</time>
      </trkpt>
      <trkpt lat="42.98341" lon="-1.18185333">
        <ele>820.0</ele>
        <time>2019-07-31T12:05:55.079Z</time>
      </trkpt>
      <trkpt lat="42.98339667" lon="-1.18184833">
        <ele>819.0</ele>
        <time>2019-07-31T12:05:56.084Z</time>
      </trkpt>
      <trkpt lat="42.98338333" lon="-1.18185">
        <ele>819.0</ele>
        <time>2019-07-31T12:05:57.089Z</time>
      </trkpt>
      <trkpt lat="42.98337167" lon="-1.18184333">
        <ele>818.0</ele>
        <time>2019-07-31T12:05:58.094Z</time>
      </trkpt>
      <trkpt lat="42.983355" lon="-1.181835">
        <ele>818.0</ele>
        <time>2019-07-31T12:05:59.100Z</time>
      </trkpt>
      <trkpt lat="42.98333667" lon="-1.18183">
        <ele>818.0</ele>
        <time>2019-07-31T12:06:00.104Z</time>
      </trkpt>
      <trkpt lat="42.98332333" lon="-1.18182167">
        <ele>818.0</ele>
        <time>2019-07-31T12:06:01.108Z</time>
      </trkpt>
      <trkpt lat="42.98331167" lon="-1.18181167">
        <ele>818.0</ele>
        <time>2019-07-31T12:06:02.114Z</time>
      </trkpt>
      <trkpt lat="42.9833" lon="-1.181805">
        <ele>817.0</ele>
        <time>2019-07-31T12:06:03.119Z</time>
      </trkpt>
      <trkpt lat="42.983285" lon="-1.18180167">
        <ele>817.0</ele>
        <time>2019-07-31T12:06:04.126Z</time>
      </trkpt>
      <trkpt lat="42.983265" lon="-1.181805">
        <ele>818.0</ele>
        <time>2019-07-31T12:06:05.133Z</time>
      </trkpt>
      <trkpt lat="42.983245" lon="-1.18180833">
        <ele>817.0</ele>
        <time>2019-07-31T12:06:06.139Z</time>
      </trkpt>
      <trkpt lat="42.98323167" lon="-1.18180833">
        <ele>817.0</ele>
        <time>2019-07-31T12:06:07.142Z</time>
      </trkpt>
      <trkpt lat="42.98322333" lon="-1.18180167">
        <ele>816.0</ele>
        <time>2019-07-31T12:06:08.148Z</time>
      </trkpt>
      <trkpt lat="42.98321667" lon="-1.181795">
        <ele>816.0</ele>
        <time>2019-07-31T12:06:09.151Z</time>
      </trkpt>
      <trkpt lat="42.98320667" lon="-1.18179833">
        <ele>816.0</ele>
        <time>2019-07-31T12:06:10.158Z</time>
      </trkpt>
      <trkpt lat="42.98319833" lon="-1.18180167">
        <ele>816.0</ele>
        <time>2019-07-31T12:06:11.161Z</time>
      </trkpt>
      <trkpt lat="42.98319167" lon="-1.18180333">
        <ele>816.0</ele>
        <time>2019-07-31T12:06:12.168Z</time>
      </trkpt>
      <trkpt lat="42.983185" lon="-1.18180667">
        <ele>816.0</ele>
        <time>2019-07-31T12:06:13.174Z</time>
      </trkpt>
      <trkpt lat="42.98317667" lon="-1.18180833">
        <ele>816.0</ele>
        <time>2019-07-31T12:06:14.178Z</time>
      </trkpt>
      <trkpt lat="42.98317167" lon="-1.18181167">
        <ele>816.0</ele>
        <time>2019-07-31T12:06:15.180Z</time>
      </trkpt>
      <trkpt lat="42.983165" lon="-1.18181167">
        <ele>816.0</ele>
        <time>2019-07-31T12:06:16.184Z</time>
      </trkpt>
      <trkpt lat="42.98316" lon="-1.18181167">
        <ele>816.0</ele>
        <time>2019-07-31T12:06:17.065Z</time>
      </trkpt>
      <trkpt lat="42.98315167" lon="-1.18180667">
        <ele>816.0</ele>
        <time>2019-07-31T12:06:18.071Z</time>
      </trkpt>
      <trkpt lat="42.98314833" lon="-1.18180167">
        <ele>816.0</ele>
        <time>2019-07-31T12:06:19.076Z</time>
      </trkpt>
      <trkpt lat="42.98314333" lon="-1.181795">
        <ele>816.0</ele>
        <time>2019-07-31T12:06:20.080Z</time>
      </trkpt>
      <trkpt lat="42.98313833" lon="-1.18178833">
        <ele>816.0</ele>
        <time>2019-07-31T12:06:21.084Z</time>
      </trkpt>
      <trkpt lat="42.98313167" lon="-1.18177833">
        <ele>816.0</ele>
        <time>2019-07-31T12:06:22.089Z</time>
      </trkpt>
      <trkpt lat="42.983125" lon="-1.18177">
        <ele>816.0</ele>
        <time>2019-07-31T12:06:23.096Z</time>
      </trkpt>
      <trkpt lat="42.98312" lon="-1.18176167">
        <ele>816.0</ele>
        <time>2019-07-31T12:06:24.102Z</time>
      </trkpt>
      <trkpt lat="42.98311333" lon="-1.18175667">
        <ele>816.0</ele>
        <time>2019-07-31T12:06:25.108Z</time>
      </trkpt>
      <trkpt lat="42.983105" lon="-1.18175">
        <ele>816.0</ele>
        <time>2019-07-31T12:06:26.114Z</time>
      </trkpt>
      <trkpt lat="42.98309667" lon="-1.181745">
        <ele>815.0</ele>
        <time>2019-07-31T12:06:27.117Z</time>
      </trkpt>
      <trkpt lat="42.98309" lon="-1.18174">
        <ele>815.0</ele>
        <time>2019-07-31T12:06:28.122Z</time>
      </trkpt>
      <trkpt lat="42.98308" lon="-1.18173333">
        <ele>816.0</ele>
        <time>2019-07-31T12:06:29.126Z</time>
      </trkpt>
      <trkpt lat="42.98307167" lon="-1.18172667">
        <ele>815.0</ele>
        <time>2019-07-31T12:06:30.131Z</time>
      </trkpt>
      <trkpt lat="42.98306167" lon="-1.18171667">
        <ele>815.0</ele>
        <time>2019-07-31T12:06:31.136Z</time>
      </trkpt>
      <trkpt lat="42.98305167" lon="-1.181705">
        <ele>815.0</ele>
        <time>2019-07-31T12:06:32.142Z</time>
      </trkpt>
      <trkpt lat="42.98304" lon="-1.181695">
        <ele>815.0</ele>
        <time>2019-07-31T12:06:33.148Z</time>
      </trkpt>
      <trkpt lat="42.98303" lon="-1.181685">
        <ele>815.0</ele>
        <time>2019-07-31T12:06:34.154Z</time>
      </trkpt>
      <trkpt lat="42.98301667" lon="-1.18167333">
        <ele>815.0</ele>
        <time>2019-07-31T12:06:35.159Z</time>
      </trkpt>
      <trkpt lat="42.98300667" lon="-1.18166">
        <ele>815.0</ele>
        <time>2019-07-31T12:06:36.163Z</time>
      </trkpt>
      <trkpt lat="42.982995" lon="-1.181645">
        <ele>815.0</ele>
        <time>2019-07-31T12:06:37.169Z</time>
      </trkpt>
      <trkpt lat="42.982985" lon="-1.18163333">
        <ele>815.0</ele>
        <time>2019-07-31T12:06:38.173Z</time>
      </trkpt>
      <trkpt lat="42.98297667" lon="-1.18161833">
        <ele>815.0</ele>
        <time>2019-07-31T12:06:39.178Z</time>
      </trkpt>
      <trkpt lat="42.98296333" lon="-1.18160667">
        <ele>815.0</ele>
        <time>2019-07-31T12:06:40.183Z</time>
      </trkpt>
      <trkpt lat="42.98295667" lon="-1.181595">
        <ele>815.0</ele>
        <time>2019-07-31T12:06:41.061Z</time>
      </trkpt>
      <trkpt lat="42.98295" lon="-1.181585">
        <ele>815.0</ele>
        <time>2019-07-31T12:06:42.066Z</time>
      </trkpt>
      <trkpt lat="42.98293667" lon="-1.181575">
        <ele>815.0</ele>
        <time>2019-07-31T12:06:43.072Z</time>
      </trkpt>
      <trkpt lat="42.98292167" lon="-1.181565">
        <ele>815.0</ele>
        <time>2019-07-31T12:06:44.076Z</time>
      </trkpt>
      <trkpt lat="42.98290667" lon="-1.18155167">
        <ele>816.0</ele>
        <time>2019-07-31T12:06:45.080Z</time>
      </trkpt>
      <trkpt lat="42.98289833" lon="-1.18153333">
        <ele>817.0</ele>
        <time>2019-07-31T12:06:46.085Z</time>
      </trkpt>
      <trkpt lat="42.98289" lon="-1.18151167">
        <ele>818.0</ele>
        <time>2019-07-31T12:06:47.090Z</time>
      </trkpt>
      <trkpt lat="42.98288167" lon="-1.181495">
        <ele>818.0</ele>
        <time>2019-07-31T12:06:48.097Z</time>
      </trkpt>
      <trkpt lat="42.98287167" lon="-1.18147833">
        <ele>818.0</ele>
        <time>2019-07-31T12:06:49.102Z</time>
      </trkpt>
      <trkpt lat="42.98286333" lon="-1.18146">
        <ele>818.0</ele>
        <time>2019-07-31T12:06:50.108Z</time>
      </trkpt>
      <trkpt lat="42.982855" lon="-1.18144333">
        <ele>819.0</ele>
        <time>2019-07-31T12:06:51.113Z</time>
      </trkpt>
      <trkpt lat="42.98284833" lon="-1.18142667">
        <ele>818.0</ele>
        <time>2019-07-31T12:06:52.117Z</time>
      </trkpt>
      <trkpt lat="42.98284333" lon="-1.18141">
        <ele>819.0</ele>
        <time>2019-07-31T12:06:53.124Z</time>
      </trkpt>
      <trkpt lat="42.98283667" lon="-1.18139167">
        <ele>819.0</ele>
        <time>2019-07-31T12:06:54.131Z</time>
      </trkpt>
      <trkpt lat="42.98282667" lon="-1.18137667">
        <ele>819.0</ele>
        <time>2019-07-31T12:06:55.136Z</time>
      </trkpt>
      <trkpt lat="42.98281833" lon="-1.18136333">
        <ele>818.0</ele>
        <time>2019-07-31T12:06:56.142Z</time>
      </trkpt>
      <trkpt lat="42.98280667" lon="-1.18134833">
        <ele>818.0</ele>
        <time>2019-07-31T12:06:57.148Z</time>
      </trkpt>
      <trkpt lat="42.982795" lon="-1.18133333">
        <ele>817.0</ele>
        <time>2019-07-31T12:06:58.152Z</time>
      </trkpt>
      <trkpt lat="42.98278333" lon="-1.18132">
        <ele>817.0</ele>
        <time>2019-07-31T12:06:59.157Z</time>
      </trkpt>
      <trkpt lat="42.982775" lon="-1.181305">
        <ele>817.0</ele>
        <time>2019-07-31T12:07:00.163Z</time>
      </trkpt>
      <trkpt lat="42.98276667" lon="-1.18128667">
        <ele>817.0</ele>
        <time>2019-07-31T12:07:01.169Z</time>
      </trkpt>
      <trkpt lat="42.98276" lon="-1.18127">
        <ele>817.0</ele>
        <time>2019-07-31T12:07:02.173Z</time>
      </trkpt>
      <trkpt lat="42.98275333" lon="-1.18125">
        <ele>817.0</ele>
        <time>2019-07-31T12:07:03.178Z</time>
      </trkpt>
      <trkpt lat="42.98274667" lon="-1.18123333">
        <ele>818.0</ele>
        <time>2019-07-31T12:07:04.185Z</time>
      </trkpt>
      <trkpt lat="42.98274167" lon="-1.18121667">
        <ele>817.0</ele>
        <time>2019-07-31T12:07:05.064Z</time>
      </trkpt>
      <trkpt lat="42.982735" lon="-1.18119833">
        <ele>817.0</ele>
        <time>2019-07-31T12:07:06.068Z</time>
      </trkpt>
      <trkpt lat="42.98272833" lon="-1.18118">
        <ele>817.0</ele>
        <time>2019-07-31T12:07:07.073Z</time>
      </trkpt>
      <trkpt lat="42.98272333" lon="-1.18116167">
        <ele>818.0</ele>
        <time>2019-07-31T12:07:08.077Z</time>
      </trkpt>
      <trkpt lat="42.98271667" lon="-1.181145">
        <ele>817.0</ele>
        <time>2019-07-31T12:07:09.082Z</time>
      </trkpt>
      <trkpt lat="42.98271" lon="-1.18112667">
        <ele>817.0</ele>
        <time>2019-07-31T12:07:10.088Z</time>
      </trkpt>
      <trkpt lat="42.98270333" lon="-1.18111">
        <ele>817.0</ele>
        <time>2019-07-31T12:07:11.096Z</time>
      </trkpt>
      <trkpt lat="42.98269667" lon="-1.18109333">
        <ele>817.0</ele>
        <time>2019-07-31T12:07:12.100Z</time>
      </trkpt>
      <trkpt lat="42.98269" lon="-1.181075">
        <ele>817.0</ele>
        <time>2019-07-31T12:07:13.105Z</time>
      </trkpt>
      <trkpt lat="42.982685" lon="-1.18105833">
        <ele>817.0</ele>
        <time>2019-07-31T12:07:14.110Z</time>
      </trkpt>
      <trkpt lat="42.98268" lon="-1.18104167">
        <ele>817.0</ele>
        <time>2019-07-31T12:07:15.117Z</time>
      </trkpt>
      <trkpt lat="42.982675" lon="-1.181025">
        <ele>817.0</ele>
        <time>2019-07-31T12:07:16.122Z</time>
      </trkpt>
      <trkpt lat="42.98267" lon="-1.18100667">
        <ele>817.0</ele>
        <time>2019-07-31T12:07:17.129Z</time>
      </trkpt>
      <trkpt lat="42.98266667" lon="-1.18098833">
        <ele>818.0</ele>
        <time>2019-07-31T12:07:18.136Z</time>
      </trkpt>
      <trkpt lat="42.98266333" lon="-1.18097">
        <ele>817.0</ele>
        <time>2019-07-31T12:07:19.142Z</time>
      </trkpt>
      <trkpt lat="42.98266167" lon="-1.18095167">
        <ele>818.0</ele>
        <time>2019-07-31T12:07:20.148Z</time>
      </trkpt>
      <trkpt lat="42.98265833" lon="-1.18093">
        <ele>818.0</ele>
        <time>2019-07-31T12:07:21.153Z</time>
      </trkpt>
      <trkpt lat="42.982655" lon="-1.18091">
        <ele>818.0</ele>
        <time>2019-07-31T12:07:22.158Z</time>
      </trkpt>
      <trkpt lat="42.98265333" lon="-1.18089167">
        <ele>818.0</ele>
        <time>2019-07-31T12:07:23.162Z</time>
      </trkpt>
      <trkpt lat="42.98264833" lon="-1.18087333">
        <ele>818.0</ele>
        <time>2019-07-31T12:07:24.168Z</time>
      </trkpt>
      <trkpt lat="42.98264167" lon="-1.180855">
        <ele>818.0</ele>
        <time>2019-07-31T12:07:25.171Z</time>
      </trkpt>
      <trkpt lat="42.982635" lon="-1.180835">
        <ele>817.0</ele>
        <time>2019-07-31T12:07:26.175Z</time>
      </trkpt>
      <trkpt lat="42.98262833" lon="-1.18081667">
        <ele>817.0</ele>
        <time>2019-07-31T12:07:27.181Z</time>
      </trkpt>
      <trkpt lat="42.98262167" lon="-1.18079667">
        <ele>817.0</ele>
        <time>2019-07-31T12:07:28.061Z</time>
      </trkpt>
      <trkpt lat="42.98262" lon="-1.180775">
        <ele>817.0</ele>
        <time>2019-07-31T12:07:29.066Z</time>
      </trkpt>
      <trkpt lat="42.982615" lon="-1.18075667">
        <ele>817.0</ele>
        <time>2019-07-31T12:07:30.073Z</time>
      </trkpt>
      <trkpt lat="42.98260833" lon="-1.18073833">
        <ele>817.0</ele>
        <time>2019-07-31T12:07:31.079Z</time>
      </trkpt>
      <trkpt lat="42.98260333" lon="-1.18071833">
        <ele>817.0</ele>
        <time>2019-07-31T12:07:32.083Z</time>
      </trkpt>
      <trkpt lat="42.98259833" lon="-1.18069833">
        <ele>817.0</ele>
        <time>2019-07-31T12:07:33.089Z</time>
      </trkpt>
      <trkpt lat="42.98259667" lon="-1.18068">
        <ele>817.0</ele>
        <time>2019-07-31T12:07:34.094Z</time>
      </trkpt>
      <trkpt lat="42.982595" lon="-1.18066">
        <ele>817.0</ele>
        <time>2019-07-31T12:07:35.100Z</time>
      </trkpt>
      <trkpt lat="42.98259333" lon="-1.18064">
        <ele>817.0</ele>
        <time>2019-07-31T12:07:36.106Z</time>
      </trkpt>
      <trkpt lat="42.98259167" lon="-1.18062">
        <ele>817.0</ele>
        <time>2019-07-31T12:07:37.112Z</time>
      </trkpt>
      <trkpt lat="42.98259" lon="-1.18059833">
        <ele>816.0</ele>
        <time>2019-07-31T12:07:38.117Z</time>
      </trkpt>
      <trkpt lat="42.98258667" lon="-1.18058">
        <ele>815.0</ele>
        <time>2019-07-31T12:07:39.124Z</time>
      </trkpt>
      <trkpt lat="42.98258333" lon="-1.18055833">
        <ele>815.0</ele>
        <time>2019-07-31T12:07:40.129Z</time>
      </trkpt>
      <trkpt lat="42.98258" lon="-1.18053667">
        <ele>815.0</ele>
        <time>2019-07-31T12:07:41.135Z</time>
      </trkpt>
      <trkpt lat="42.98257667" lon="-1.180515">
        <ele>815.0</ele>
        <time>2019-07-31T12:07:42.142Z</time>
      </trkpt>
      <trkpt lat="42.982575" lon="-1.18049333">
        <ele>814.0</ele>
        <time>2019-07-31T12:07:43.148Z</time>
      </trkpt>
      <trkpt lat="42.982575" lon="-1.18047167">
        <ele>814.0</ele>
        <time>2019-07-31T12:07:44.154Z</time>
      </trkpt>
      <trkpt lat="42.98257667" lon="-1.18045167">
        <ele>814.0</ele>
        <time>2019-07-31T12:07:45.159Z</time>
      </trkpt>
      <trkpt lat="42.98257667" lon="-1.18043">
        <ele>815.0</ele>
        <time>2019-07-31T12:07:46.164Z</time>
      </trkpt>
      <trkpt lat="42.98258" lon="-1.18041167">
        <ele>815.0</ele>
        <time>2019-07-31T12:07:47.169Z</time>
      </trkpt>
      <trkpt lat="42.98257667" lon="-1.18039333">
        <ele>815.0</ele>
        <time>2019-07-31T12:07:48.175Z</time>
      </trkpt>
      <trkpt lat="42.98257333" lon="-1.18037333">
        <ele>815.0</ele>
        <time>2019-07-31T12:07:49.182Z</time>
      </trkpt>
      <trkpt lat="42.98257" lon="-1.18035333">
        <ele>816.0</ele>
        <time>2019-07-31T12:07:50.062Z</time>
      </trkpt>
      <trkpt lat="42.98256833" lon="-1.180335">
        <ele>816.0</ele>
        <time>2019-07-31T12:07:51.067Z</time>
      </trkpt>
      <trkpt lat="42.98257" lon="-1.18031667">
        <ele>816.0</ele>
        <time>2019-07-31T12:07:52.073Z</time>
      </trkpt>
      <trkpt lat="42.98257" lon="-1.18029667">
        <ele>815.0</ele>
        <time>2019-07-31T12:07:53.077Z</time>
      </trkpt>
      <trkpt lat="42.98257167" lon="-1.18027833">
        <ele>815.0</ele>
        <time>2019-07-31T12:07:54.082Z</time>
      </trkpt>
      <trkpt lat="42.98257167" lon="-1.18025833">
        <ele>815.0</ele>
        <time>2019-07-31T12:07:55.084Z</time>
      </trkpt>
      <trkpt lat="42.98257" lon="-1.18023833">
        <ele>815.0</ele>
        <time>2019-07-31T12:07:56.088Z</time>
      </trkpt>
      <trkpt lat="42.98257" lon="-1.18022">
        <ele>814.0</ele>
        <time>2019-07-31T12:07:57.093Z</time>
      </trkpt>
      <trkpt lat="42.98257333" lon="-1.180205">
        <ele>814.0</ele>
        <time>2019-07-31T12:07:58.099Z</time>
      </trkpt>
      <trkpt lat="42.98257667" lon="-1.18019">
        <ele>814.0</ele>
        <time>2019-07-31T12:07:59.105Z</time>
      </trkpt>
      <trkpt lat="42.98258" lon="-1.180175">
        <ele>813.0</ele>
        <time>2019-07-31T12:08:00.109Z</time>
      </trkpt>
      <trkpt lat="42.98259167" lon="-1.18016167">
        <ele>813.0</ele>
        <time>2019-07-31T12:08:01.112Z</time>
      </trkpt>
      <trkpt lat="42.982595" lon="-1.18015167">
        <ele>813.0</ele>
        <time>2019-07-31T12:08:02.117Z</time>
      </trkpt>
      <trkpt lat="42.98259667" lon="-1.180145">
        <ele>813.0</ele>
        <time>2019-07-31T12:08:03.121Z</time>
      </trkpt>
      <trkpt lat="42.98260167" lon="-1.18014167">
        <ele>813.0</ele>
        <time>2019-07-31T12:08:04.127Z</time>
      </trkpt>
      <trkpt lat="42.982605" lon="-1.180135">
        <ele>813.0</ele>
        <time>2019-07-31T12:08:05.132Z</time>
      </trkpt>
      <trkpt lat="42.982605" lon="-1.18012667">
        <ele>813.0</ele>
        <time>2019-07-31T12:08:06.139Z</time>
      </trkpt>
      <trkpt lat="42.98260667" lon="-1.18011333">
        <ele>814.0</ele>
        <time>2019-07-31T12:08:07.146Z</time>
      </trkpt>
      <trkpt lat="42.98261" lon="-1.18009667">
        <ele>814.0</ele>
        <time>2019-07-31T12:08:08.152Z</time>
      </trkpt>
      <trkpt lat="42.98261333" lon="-1.18008">
        <ele>814.0</ele>
        <time>2019-07-31T12:08:09.156Z</time>
      </trkpt>
      <trkpt lat="42.98261833" lon="-1.18006167">
        <ele>814.0</ele>
        <time>2019-07-31T12:08:10.162Z</time>
      </trkpt>
      <trkpt lat="42.982625" lon="-1.18004333">
        <ele>814.0</ele>
        <time>2019-07-31T12:08:11.169Z</time>
      </trkpt>
      <trkpt lat="42.98263167" lon="-1.18002667">
        <ele>813.0</ele>
        <time>2019-07-31T12:08:12.175Z</time>
      </trkpt>
      <trkpt lat="42.982635" lon="-1.18001167">
        <ele>813.0</ele>
        <time>2019-07-31T12:08:13.179Z</time>
      </trkpt>
      <trkpt lat="42.98263833" lon="-1.17999667">
        <ele>813.0</ele>
        <time>2019-07-31T12:08:14.185Z</time>
      </trkpt>
      <trkpt lat="42.98264" lon="-1.17998">
        <ele>813.0</ele>
        <time>2019-07-31T12:08:15.066Z</time>
      </trkpt>
      <trkpt lat="42.982645" lon="-1.17996333">
        <ele>814.0</ele>
        <time>2019-07-31T12:08:16.071Z</time>
      </trkpt>
      <trkpt lat="42.98265333" lon="-1.17994833">
        <ele>813.0</ele>
        <time>2019-07-31T12:08:17.076Z</time>
      </trkpt>
      <trkpt lat="42.98266167" lon="-1.17993167">
        <ele>813.0</ele>
        <time>2019-07-31T12:08:18.081Z</time>
      </trkpt>
      <trkpt lat="42.98267167" lon="-1.17991667">
        <ele>812.0</ele>
        <time>2019-07-31T12:08:19.087Z</time>
      </trkpt>
      <trkpt lat="42.98268167" lon="-1.17990333">
        <ele>812.0</ele>
        <time>2019-07-31T12:08:20.091Z</time>
      </trkpt>
      <trkpt lat="42.98269333" lon="-1.17989">
        <ele>811.0</ele>
        <time>2019-07-31T12:08:21.094Z</time>
      </trkpt>
      <trkpt lat="42.98270167" lon="-1.179875">
        <ele>810.0</ele>
        <time>2019-07-31T12:08:22.099Z</time>
      </trkpt>
      <trkpt lat="42.98271" lon="-1.17985833">
        <ele>810.0</ele>
        <time>2019-07-31T12:08:23.103Z</time>
      </trkpt>
      <trkpt lat="42.982715" lon="-1.17984333">
        <ele>811.0</ele>
        <time>2019-07-31T12:08:24.107Z</time>
      </trkpt>
      <trkpt lat="42.98272333" lon="-1.17982833">
        <ele>811.0</ele>
        <time>2019-07-31T12:08:25.109Z</time>
      </trkpt>
      <trkpt lat="42.98273" lon="-1.179815">
        <ele>810.0</ele>
        <time>2019-07-31T12:08:26.111Z</time>
      </trkpt>
      <trkpt lat="42.98273667" lon="-1.17980167">
        <ele>810.0</ele>
        <time>2019-07-31T12:08:27.116Z</time>
      </trkpt>
      <trkpt lat="42.982745" lon="-1.17978667">
        <ele>810.0</ele>
        <time>2019-07-31T12:08:28.121Z</time>
      </trkpt>
      <trkpt lat="42.98275667" lon="-1.179775">
        <ele>809.0</ele>
        <time>2019-07-31T12:08:29.126Z</time>
      </trkpt>
      <trkpt lat="42.98276833" lon="-1.17975833">
        <ele>809.0</ele>
        <time>2019-07-31T12:08:30.130Z</time>
      </trkpt>
      <trkpt lat="42.982775" lon="-1.17974167">
        <ele>808.0</ele>
        <time>2019-07-31T12:08:31.134Z</time>
      </trkpt>
      <trkpt lat="42.98278333" lon="-1.17972667">
        <ele>808.0</ele>
        <time>2019-07-31T12:08:32.138Z</time>
      </trkpt>
      <trkpt lat="42.98279167" lon="-1.17971167">
        <ele>808.0</ele>
        <time>2019-07-31T12:08:33.143Z</time>
      </trkpt>
      <trkpt lat="42.98279833" lon="-1.17969667">
        <ele>808.0</ele>
        <time>2019-07-31T12:08:34.148Z</time>
      </trkpt>
      <trkpt lat="42.982805" lon="-1.17968">
        <ele>808.0</ele>
        <time>2019-07-31T12:08:35.153Z</time>
      </trkpt>
      <trkpt lat="42.98281" lon="-1.17966333">
        <ele>808.0</ele>
        <time>2019-07-31T12:08:36.159Z</time>
      </trkpt>
      <trkpt lat="42.98281667" lon="-1.17965">
        <ele>808.0</ele>
        <time>2019-07-31T12:08:37.165Z</time>
      </trkpt>
      <trkpt lat="42.98282167" lon="-1.17963667">
        <ele>808.0</ele>
        <time>2019-07-31T12:08:38.171Z</time>
      </trkpt>
      <trkpt lat="42.98283167" lon="-1.17962333">
        <ele>809.0</ele>
        <time>2019-07-31T12:08:39.175Z</time>
      </trkpt>
      <trkpt lat="42.98284" lon="-1.17961">
        <ele>809.0</ele>
        <time>2019-07-31T12:08:40.181Z</time>
      </trkpt>
      <trkpt lat="42.98285333" lon="-1.17959833">
        <ele>809.0</ele>
        <time>2019-07-31T12:08:41.185Z</time>
      </trkpt>
      <trkpt lat="42.98286167" lon="-1.179585">
        <ele>809.0</ele>
        <time>2019-07-31T12:08:42.064Z</time>
      </trkpt>
      <trkpt lat="42.98287167" lon="-1.17957833">
        <ele>809.0</ele>
        <time>2019-07-31T12:08:43.069Z</time>
      </trkpt>
      <trkpt lat="42.98287833" lon="-1.17957">
        <ele>809.0</ele>
        <time>2019-07-31T12:08:44.075Z</time>
      </trkpt>
      <trkpt lat="42.98289" lon="-1.17955833">
        <ele>808.0</ele>
        <time>2019-07-31T12:08:45.079Z</time>
      </trkpt>
      <trkpt lat="42.98289667" lon="-1.179545">
        <ele>808.0</ele>
        <time>2019-07-31T12:08:46.084Z</time>
      </trkpt>
      <trkpt lat="42.982905" lon="-1.17952833">
        <ele>808.0</ele>
        <time>2019-07-31T12:08:47.089Z</time>
      </trkpt>
      <trkpt lat="42.98291333" lon="-1.17951333">
        <ele>809.0</ele>
        <time>2019-07-31T12:08:48.094Z</time>
      </trkpt>
      <trkpt lat="42.98292167" lon="-1.17949667">
        <ele>809.0</ele>
        <time>2019-07-31T12:08:49.100Z</time>
      </trkpt>
      <trkpt lat="42.98293167" lon="-1.17947667">
        <ele>809.0</ele>
        <time>2019-07-31T12:08:50.103Z</time>
      </trkpt>
      <trkpt lat="42.98294" lon="-1.17945333">
        <ele>809.0</ele>
        <time>2019-07-31T12:08:51.107Z</time>
      </trkpt>
      <trkpt lat="42.98294833" lon="-1.179435">
        <ele>808.0</ele>
        <time>2019-07-31T12:08:52.113Z</time>
      </trkpt>
      <trkpt lat="42.98296" lon="-1.17942167">
        <ele>808.0</ele>
        <time>2019-07-31T12:08:53.117Z</time>
      </trkpt>
      <trkpt lat="42.98296833" lon="-1.17941333">
        <ele>807.0</ele>
        <time>2019-07-31T12:08:54.123Z</time>
      </trkpt>
      <trkpt lat="42.98298167" lon="-1.1794">
        <ele>807.0</ele>
        <time>2019-07-31T12:08:55.129Z</time>
      </trkpt>
      <trkpt lat="42.98298833" lon="-1.179385">
        <ele>807.0</ele>
        <time>2019-07-31T12:08:56.135Z</time>
      </trkpt>
      <trkpt lat="42.98299" lon="-1.17936667">
        <ele>807.0</ele>
        <time>2019-07-31T12:08:57.141Z</time>
      </trkpt>
      <trkpt lat="42.98299167" lon="-1.17934833">
        <ele>806.0</ele>
        <time>2019-07-31T12:08:58.147Z</time>
      </trkpt>
      <trkpt lat="42.982995" lon="-1.17932833">
        <ele>806.0</ele>
        <time>2019-07-31T12:08:59.151Z</time>
      </trkpt>
      <trkpt lat="42.983005" lon="-1.17930667">
        <ele>805.0</ele>
        <time>2019-07-31T12:09:00.159Z</time>
      </trkpt>
      <trkpt lat="42.983015" lon="-1.17928833">
        <ele>805.0</ele>
        <time>2019-07-31T12:09:01.164Z</time>
      </trkpt>
      <trkpt lat="42.98302333" lon="-1.17926667">
        <ele>804.0</ele>
        <time>2019-07-31T12:09:02.170Z</time>
      </trkpt>
      <trkpt lat="42.98303167" lon="-1.17925">
        <ele>804.0</ele>
        <time>2019-07-31T12:09:03.175Z</time>
      </trkpt>
      <trkpt lat="42.98304" lon="-1.17923">
        <ele>803.0</ele>
        <time>2019-07-31T12:09:04.182Z</time>
      </trkpt>
      <trkpt lat="42.98305167" lon="-1.17920667">
        <ele>803.0</ele>
        <time>2019-07-31T12:09:05.063Z</time>
      </trkpt>
      <trkpt lat="42.98306333" lon="-1.17918667">
        <ele>802.0</ele>
        <time>2019-07-31T12:09:06.068Z</time>
      </trkpt>
      <trkpt lat="42.98307333" lon="-1.17916833">
        <ele>801.0</ele>
        <time>2019-07-31T12:09:07.075Z</time>
      </trkpt>
      <trkpt lat="42.98307667" lon="-1.17915167">
        <ele>801.0</ele>
        <time>2019-07-31T12:09:08.079Z</time>
      </trkpt>
      <trkpt lat="42.98308667" lon="-1.179135">
        <ele>801.0</ele>
        <time>2019-07-31T12:09:09.083Z</time>
      </trkpt>
      <trkpt lat="42.98309667" lon="-1.17912167">
        <ele>801.0</ele>
        <time>2019-07-31T12:09:10.089Z</time>
      </trkpt>
      <trkpt lat="42.98311167" lon="-1.17911">
        <ele>801.0</ele>
        <time>2019-07-31T12:09:11.095Z</time>
      </trkpt>
      <trkpt lat="42.98312" lon="-1.17909333">
        <ele>800.0</ele>
        <time>2019-07-31T12:09:12.101Z</time>
      </trkpt>
      <trkpt lat="42.98312667" lon="-1.17908">
        <ele>800.0</ele>
        <time>2019-07-31T12:09:13.107Z</time>
      </trkpt>
      <trkpt lat="42.983135" lon="-1.17906667">
        <ele>800.0</ele>
        <time>2019-07-31T12:09:14.112Z</time>
      </trkpt>
      <trkpt lat="42.983145" lon="-1.179055">
        <ele>800.0</ele>
        <time>2019-07-31T12:09:15.117Z</time>
      </trkpt>
      <trkpt lat="42.98315167" lon="-1.17904167">
        <ele>800.0</ele>
        <time>2019-07-31T12:09:16.122Z</time>
      </trkpt>
      <trkpt lat="42.98315833" lon="-1.17902667">
        <ele>800.0</ele>
        <time>2019-07-31T12:09:17.128Z</time>
      </trkpt>
      <trkpt lat="42.98316333" lon="-1.17901">
        <ele>800.0</ele>
        <time>2019-07-31T12:09:18.132Z</time>
      </trkpt>
      <trkpt lat="42.98316833" lon="-1.17899167">
        <ele>800.0</ele>
        <time>2019-07-31T12:09:19.136Z</time>
      </trkpt>
      <trkpt lat="42.98317333" lon="-1.178975">
        <ele>800.0</ele>
        <time>2019-07-31T12:09:20.139Z</time>
      </trkpt>
      <trkpt lat="42.98318" lon="-1.178955">
        <ele>800.0</ele>
        <time>2019-07-31T12:09:21.141Z</time>
      </trkpt>
      <trkpt lat="42.983185" lon="-1.17893667">
        <ele>800.0</ele>
        <time>2019-07-31T12:09:22.147Z</time>
      </trkpt>
      <trkpt lat="42.98319167" lon="-1.17892167">
        <ele>800.0</ele>
        <time>2019-07-31T12:09:23.151Z</time>
      </trkpt>
      <trkpt lat="42.98319833" lon="-1.17890667">
        <ele>799.0</ele>
        <time>2019-07-31T12:09:24.156Z</time>
      </trkpt>
      <trkpt lat="42.98320833" lon="-1.17889167">
        <ele>799.0</ele>
        <time>2019-07-31T12:09:25.163Z</time>
      </trkpt>
      <trkpt lat="42.98321833" lon="-1.17887833">
        <ele>799.0</ele>
        <time>2019-07-31T12:09:26.170Z</time>
      </trkpt>
      <trkpt lat="42.98322667" lon="-1.178865">
        <ele>799.0</ele>
        <time>2019-07-31T12:09:27.176Z</time>
      </trkpt>
      <trkpt lat="42.98323333" lon="-1.17885333">
        <ele>799.0</ele>
        <time>2019-07-31T12:09:28.180Z</time>
      </trkpt>
      <trkpt lat="42.98323667" lon="-1.17884">
        <ele>800.0</ele>
        <time>2019-07-31T12:09:29.183Z</time>
      </trkpt>
      <trkpt lat="42.98323667" lon="-1.17882667">
        <ele>800.0</ele>
        <time>2019-07-31T12:09:30.063Z</time>
      </trkpt>
      <trkpt lat="42.98324" lon="-1.178815">
        <ele>801.0</ele>
        <time>2019-07-31T12:09:31.069Z</time>
      </trkpt>
      <trkpt lat="42.983245" lon="-1.17880333">
        <ele>801.0</ele>
        <time>2019-07-31T12:09:32.075Z</time>
      </trkpt>
      <trkpt lat="42.98325667" lon="-1.17879333">
        <ele>801.0</ele>
        <time>2019-07-31T12:09:33.079Z</time>
      </trkpt>
      <trkpt lat="42.98326167" lon="-1.178785">
        <ele>801.0</ele>
        <time>2019-07-31T12:09:34.084Z</time>
      </trkpt>
      <trkpt lat="42.98326833" lon="-1.17878">
        <ele>802.0</ele>
        <time>2019-07-31T12:09:35.090Z</time>
      </trkpt>
      <trkpt lat="42.983275" lon="-1.178775">
        <ele>802.0</ele>
        <time>2019-07-31T12:09:36.096Z</time>
      </trkpt>
      <trkpt lat="42.98328167" lon="-1.17877167">
        <ele>801.0</ele>
        <time>2019-07-31T12:09:37.100Z</time>
      </trkpt>
      <trkpt lat="42.98329167" lon="-1.17876667">
        <ele>801.0</ele>
        <time>2019-07-31T12:09:38.106Z</time>
      </trkpt>
      <trkpt lat="42.9833" lon="-1.17876667">
        <ele>801.0</ele>
        <time>2019-07-31T12:09:39.110Z</time>
      </trkpt>
      <trkpt lat="42.983305" lon="-1.17877">
        <ele>802.0</ele>
        <time>2019-07-31T12:09:40.118Z</time>
      </trkpt>
      <trkpt lat="42.983315" lon="-1.17877167">
        <ele>802.0</ele>
        <time>2019-07-31T12:09:41.122Z</time>
      </trkpt>
      <trkpt lat="42.98332333" lon="-1.17877167">
        <ele>801.0</ele>
        <time>2019-07-31T12:09:42.128Z</time>
      </trkpt>
      <trkpt lat="42.983335" lon="-1.17877">
        <ele>799.0</ele>
        <time>2019-07-31T12:09:43.135Z</time>
      </trkpt>
      <trkpt lat="42.98334333" lon="-1.17877">
        <ele>799.0</ele>
        <time>2019-07-31T12:09:44.142Z</time>
      </trkpt>
      <trkpt lat="42.98335" lon="-1.17877">
        <ele>798.0</ele>
        <time>2019-07-31T12:09:45.147Z</time>
      </trkpt>
      <trkpt lat="42.98335833" lon="-1.17877">
        <ele>798.0</ele>
        <time>2019-07-31T12:09:46.152Z</time>
      </trkpt>
      <trkpt lat="42.983365" lon="-1.17877">
        <ele>798.0</ele>
        <time>2019-07-31T12:09:47.158Z</time>
      </trkpt>
      <trkpt lat="42.98337333" lon="-1.17877167">
        <ele>797.0</ele>
        <time>2019-07-31T12:09:48.162Z</time>
      </trkpt>
      <trkpt lat="42.98338333" lon="-1.17877667">
        <ele>797.0</ele>
        <time>2019-07-31T12:09:49.168Z</time>
      </trkpt>
      <trkpt lat="42.98339167" lon="-1.17878">
        <ele>797.0</ele>
        <time>2019-07-31T12:09:50.172Z</time>
      </trkpt>
      <trkpt lat="42.9834" lon="-1.17878333">
        <ele>797.0</ele>
        <time>2019-07-31T12:09:51.176Z</time>
      </trkpt>
      <trkpt lat="42.98341333" lon="-1.178785">
        <ele>798.0</ele>
        <time>2019-07-31T12:09:52.181Z</time>
      </trkpt>
      <trkpt lat="42.98342333" lon="-1.17879">
        <ele>798.0</ele>
        <time>2019-07-31T12:09:53.061Z</time>
      </trkpt>
      <trkpt lat="42.983435" lon="-1.178795">
        <ele>798.0</ele>
        <time>2019-07-31T12:09:54.066Z</time>
      </trkpt>
      <trkpt lat="42.98344333" lon="-1.17879833">
        <ele>798.0</ele>
        <time>2019-07-31T12:09:55.072Z</time>
      </trkpt>
      <trkpt lat="42.98345167" lon="-1.17880333">
        <ele>798.0</ele>
        <time>2019-07-31T12:09:56.076Z</time>
      </trkpt>
      <trkpt lat="42.98346167" lon="-1.17880333">
        <ele>798.0</ele>
        <time>2019-07-31T12:09:57.082Z</time>
      </trkpt>
      <trkpt lat="42.98347167" lon="-1.17880333">
        <ele>798.0</ele>
        <time>2019-07-31T12:09:58.087Z</time>
      </trkpt>
      <trkpt lat="42.98347667" lon="-1.17880667">
        <ele>799.0</ele>
        <time>2019-07-31T12:09:59.094Z</time>
      </trkpt>
      <trkpt lat="42.983485" lon="-1.17880667">
        <ele>798.0</ele>
        <time>2019-07-31T12:10:00.099Z</time>
      </trkpt>
      <trkpt lat="42.983495" lon="-1.17881167">
        <ele>799.0</ele>
        <time>2019-07-31T12:10:01.104Z</time>
      </trkpt>
      <trkpt lat="42.98350667" lon="-1.17881833">
        <ele>799.0</ele>
        <time>2019-07-31T12:10:02.108Z</time>
      </trkpt>
      <trkpt lat="42.98351833" lon="-1.17882333">
        <ele>799.0</ele>
        <time>2019-07-31T12:10:03.113Z</time>
      </trkpt>
      <trkpt lat="42.98352667" lon="-1.178825">
        <ele>799.0</ele>
        <time>2019-07-31T12:10:04.117Z</time>
      </trkpt>
      <trkpt lat="42.98353833" lon="-1.17883">
        <ele>799.0</ele>
        <time>2019-07-31T12:10:05.124Z</time>
      </trkpt>
      <trkpt lat="42.98355167" lon="-1.17883667">
        <ele>800.0</ele>
        <time>2019-07-31T12:10:06.131Z</time>
      </trkpt>
      <trkpt lat="42.98356167" lon="-1.17884333">
        <ele>799.0</ele>
        <time>2019-07-31T12:10:07.137Z</time>
      </trkpt>
      <trkpt lat="42.983575" lon="-1.17885167">
        <ele>799.0</ele>
        <time>2019-07-31T12:10:08.144Z</time>
      </trkpt>
      <trkpt lat="42.983585" lon="-1.17885833">
        <ele>799.0</ele>
        <time>2019-07-31T12:10:09.149Z</time>
      </trkpt>
      <trkpt lat="42.98359167" lon="-1.17886333">
        <ele>799.0</ele>
        <time>2019-07-31T12:10:10.154Z</time>
      </trkpt>
      <trkpt lat="42.98359667" lon="-1.17886667">
        <ele>800.0</ele>
        <time>2019-07-31T12:10:11.159Z</time>
      </trkpt>
      <trkpt lat="42.98360167" lon="-1.178875">
        <ele>800.0</ele>
        <time>2019-07-31T12:10:12.164Z</time>
      </trkpt>
      <trkpt lat="42.98360833" lon="-1.17887833">
        <ele>802.0</ele>
        <time>2019-07-31T12:10:13.169Z</time>
      </trkpt>
      <trkpt lat="42.98361667" lon="-1.17887833">
        <ele>802.0</ele>
        <time>2019-07-31T12:10:14.175Z</time>
      </trkpt>
      <trkpt lat="42.98362833" lon="-1.17887833">
        <ele>801.0</ele>
        <time>2019-07-31T12:10:15.179Z</time>
      </trkpt>
      <trkpt lat="42.983635" lon="-1.17887833">
        <ele>801.0</ele>
        <time>2019-07-31T12:10:16.185Z</time>
      </trkpt>
      <trkpt lat="42.98364333" lon="-1.17888167">
        <ele>801.0</ele>
        <time>2019-07-31T12:10:17.066Z</time>
      </trkpt>
      <trkpt lat="42.983655" lon="-1.178885">
        <ele>800.0</ele>
        <time>2019-07-31T12:10:18.072Z</time>
      </trkpt>
      <trkpt lat="42.98367333" lon="-1.17888333">
        <ele>800.0</ele>
        <time>2019-07-31T12:10:19.075Z</time>
      </trkpt>
      <trkpt lat="42.98368667" lon="-1.17887167">
        <ele>799.0</ele>
        <time>2019-07-31T12:10:20.077Z</time>
      </trkpt>
      <trkpt lat="42.9837" lon="-1.17886">
        <ele>798.0</ele>
        <time>2019-07-31T12:10:21.079Z</time>
      </trkpt>
      <trkpt lat="42.983695" lon="-1.17885">
        <ele>797.0</ele>
        <time>2019-07-31T12:10:22.083Z</time>
      </trkpt>
      <trkpt lat="42.983705" lon="-1.17883">
        <ele>797.0</ele>
        <time>2019-07-31T12:10:23.087Z</time>
      </trkpt>
      <trkpt lat="42.983715" lon="-1.17880667">
        <ele>799.0</ele>
        <time>2019-07-31T12:10:24.089Z</time>
      </trkpt>
      <trkpt lat="42.98372833" lon="-1.17878333">
        <ele>799.0</ele>
        <time>2019-07-31T12:10:25.093Z</time>
      </trkpt>
      <trkpt lat="42.98374333" lon="-1.17876667">
        <ele>799.0</ele>
        <time>2019-07-31T12:10:26.100Z</time>
      </trkpt>
      <trkpt lat="42.98375333" lon="-1.17874833">
        <ele>800.0</ele>
        <time>2019-07-31T12:10:27.106Z</time>
      </trkpt>
      <trkpt lat="42.98375833" lon="-1.17872667">
        <ele>801.0</ele>
        <time>2019-07-31T12:10:28.111Z</time>
      </trkpt>
      <trkpt lat="42.98376167" lon="-1.17870333">
        <ele>800.0</ele>
        <time>2019-07-31T12:10:29.117Z</time>
      </trkpt>
      <trkpt lat="42.983765" lon="-1.17868667">
        <ele>798.0</ele>
        <time>2019-07-31T12:10:30.122Z</time>
      </trkpt>
      <trkpt lat="42.98376333" lon="-1.17867167">
        <ele>798.0</ele>
        <time>2019-07-31T12:10:31.127Z</time>
      </trkpt>
      <trkpt lat="42.98376167" lon="-1.178665">
        <ele>799.0</ele>
        <time>2019-07-31T12:10:32.132Z</time>
      </trkpt>
      <trkpt lat="42.98375833" lon="-1.17865">
        <ele>800.0</ele>
        <time>2019-07-31T12:10:33.138Z</time>
      </trkpt>
      <trkpt lat="42.98376667" lon="-1.17863333">
        <ele>800.0</ele>
        <time>2019-07-31T12:10:34.145Z</time>
      </trkpt>
      <trkpt lat="42.98377333" lon="-1.17862167">
        <ele>801.0</ele>
        <time>2019-07-31T12:10:35.152Z</time>
      </trkpt>
      <trkpt lat="42.98377667" lon="-1.17861667">
        <ele>801.0</ele>
        <time>2019-07-31T12:10:36.159Z</time>
      </trkpt>
      <trkpt lat="42.98378167" lon="-1.17860833">
        <ele>800.0</ele>
        <time>2019-07-31T12:10:37.165Z</time>
      </trkpt>
      <trkpt lat="42.983785" lon="-1.17861333">
        <ele>800.0</ele>
        <time>2019-07-31T12:10:38.172Z</time>
      </trkpt>
      <trkpt lat="42.98378333" lon="-1.17861833">
        <ele>801.0</ele>
        <time>2019-07-31T12:10:39.179Z</time>
      </trkpt>
      <trkpt lat="42.98378333" lon="-1.17862333">
        <ele>801.0</ele>
        <time>2019-07-31T12:10:40.186Z</time>
      </trkpt>
      <trkpt lat="42.98379333" lon="-1.178615">
        <ele>800.0</ele>
        <time>2019-07-31T12:10:41.065Z</time>
      </trkpt>
      <trkpt lat="42.9838" lon="-1.17860167">
        <ele>798.0</ele>
        <time>2019-07-31T12:10:42.071Z</time>
      </trkpt>
      <trkpt lat="42.983805" lon="-1.178585">
        <ele>796.0</ele>
        <time>2019-07-31T12:10:43.074Z</time>
      </trkpt>
      <trkpt lat="42.98381167" lon="-1.17856833">
        <ele>794.0</ele>
        <time>2019-07-31T12:10:44.077Z</time>
      </trkpt>
      <trkpt lat="42.98381667" lon="-1.17855667">
        <ele>793.0</ele>
        <time>2019-07-31T12:10:45.083Z</time>
      </trkpt>
      <trkpt lat="42.98382333" lon="-1.17855167">
        <ele>792.0</ele>
        <time>2019-07-31T12:10:46.089Z</time>
      </trkpt>
      <trkpt lat="42.98383" lon="-1.17854667">
        <ele>792.0</ele>
        <time>2019-07-31T12:10:47.094Z</time>
      </trkpt>
      <trkpt lat="42.983835" lon="-1.178535">
        <ele>792.0</ele>
        <time>2019-07-31T12:10:48.097Z</time>
      </trkpt>
      <trkpt lat="42.983835" lon="-1.17853167">
        <ele>792.0</ele>
        <time>2019-07-31T12:10:49.103Z</time>
      </trkpt>
      <trkpt lat="42.98383667" lon="-1.17852833">
        <ele>792.0</ele>
        <time>2019-07-31T12:10:50.108Z</time>
      </trkpt>
      <trkpt lat="42.98384333" lon="-1.17852167">
        <ele>792.0</ele>
        <time>2019-07-31T12:10:51.112Z</time>
      </trkpt>
      <trkpt lat="42.98385" lon="-1.178515">
        <ele>793.0</ele>
        <time>2019-07-31T12:10:52.114Z</time>
      </trkpt>
      <trkpt lat="42.98385667" lon="-1.17850667">
        <ele>793.0</ele>
        <time>2019-07-31T12:10:53.115Z</time>
      </trkpt>
      <trkpt lat="42.98386167" lon="-1.17849833">
        <ele>793.0</ele>
        <time>2019-07-31T12:10:54.120Z</time>
      </trkpt>
      <trkpt lat="42.983865" lon="-1.17848333">
        <ele>794.0</ele>
        <time>2019-07-31T12:10:55.122Z</time>
      </trkpt>
      <trkpt lat="42.983865" lon="-1.17847333">
        <ele>796.0</ele>
        <time>2019-07-31T12:10:56.126Z</time>
      </trkpt>
      <trkpt lat="42.98386333" lon="-1.17846">
        <ele>797.0</ele>
        <time>2019-07-31T12:10:57.132Z</time>
      </trkpt>
      <trkpt lat="42.98385833" lon="-1.17844667">
        <ele>799.0</ele>
        <time>2019-07-31T12:10:58.139Z</time>
      </trkpt>
      <trkpt lat="42.98385167" lon="-1.178435">
        <ele>800.0</ele>
        <time>2019-07-31T12:10:59.146Z</time>
      </trkpt>
      <trkpt lat="42.98384333" lon="-1.17841667">
        <ele>800.0</ele>
        <time>2019-07-31T12:11:00.151Z</time>
      </trkpt>
      <trkpt lat="42.983835" lon="-1.1784">
        <ele>799.0</ele>
        <time>2019-07-31T12:11:01.155Z</time>
      </trkpt>
      <trkpt lat="42.98382833" lon="-1.17838333">
        <ele>798.0</ele>
        <time>2019-07-31T12:11:02.159Z</time>
      </trkpt>
      <trkpt lat="42.98381833" lon="-1.17836833">
        <ele>797.0</ele>
        <time>2019-07-31T12:11:03.163Z</time>
      </trkpt>
      <trkpt lat="42.98380667" lon="-1.17835167">
        <ele>795.0</ele>
        <time>2019-07-31T12:11:04.168Z</time>
      </trkpt>
      <trkpt lat="42.98379667" lon="-1.17834">
        <ele>794.0</ele>
        <time>2019-07-31T12:11:05.171Z</time>
      </trkpt>
      <trkpt lat="42.98379" lon="-1.17832333">
        <ele>794.0</ele>
        <time>2019-07-31T12:11:06.176Z</time>
      </trkpt>
      <trkpt lat="42.98378333" lon="-1.17830667">
        <ele>794.0</ele>
        <time>2019-07-31T12:11:07.182Z</time>
      </trkpt>
      <trkpt lat="42.98377833" lon="-1.17829167">
        <ele>793.0</ele>
        <time>2019-07-31T12:11:08.063Z</time>
      </trkpt>
      <trkpt lat="42.98376833" lon="-1.17827833">
        <ele>792.0</ele>
        <time>2019-07-31T12:11:09.068Z</time>
      </trkpt>
      <trkpt lat="42.98376" lon="-1.17826667">
        <ele>792.0</ele>
        <time>2019-07-31T12:11:10.076Z</time>
      </trkpt>
      <trkpt lat="42.98375167" lon="-1.17825667">
        <ele>791.0</ele>
        <time>2019-07-31T12:11:11.081Z</time>
      </trkpt>
      <trkpt lat="42.983745" lon="-1.17824333">
        <ele>790.0</ele>
        <time>2019-07-31T12:11:12.085Z</time>
      </trkpt>
      <trkpt lat="42.98373667" lon="-1.178235">
        <ele>789.0</ele>
        <time>2019-07-31T12:11:13.091Z</time>
      </trkpt>
      <trkpt lat="42.98372333" lon="-1.17822167">
        <ele>789.0</ele>
        <time>2019-07-31T12:11:14.096Z</time>
      </trkpt>
      <trkpt lat="42.98371333" lon="-1.17820833">
        <ele>790.0</ele>
        <time>2019-07-31T12:11:15.101Z</time>
      </trkpt>
      <trkpt lat="42.98370833" lon="-1.178195">
        <ele>790.0</ele>
        <time>2019-07-31T12:11:16.107Z</time>
      </trkpt>
      <trkpt lat="42.983705" lon="-1.17818167">
        <ele>790.0</ele>
        <time>2019-07-31T12:11:17.113Z</time>
      </trkpt>
      <trkpt lat="42.983705" lon="-1.17816333">
        <ele>789.0</ele>
        <time>2019-07-31T12:11:18.117Z</time>
      </trkpt>
      <trkpt lat="42.98370333" lon="-1.17814">
        <ele>789.0</ele>
        <time>2019-07-31T12:11:19.122Z</time>
      </trkpt>
      <trkpt lat="42.98369667" lon="-1.17811833">
        <ele>789.0</ele>
        <time>2019-07-31T12:11:20.129Z</time>
      </trkpt>
      <trkpt lat="42.98368667" lon="-1.178095">
        <ele>789.0</ele>
        <time>2019-07-31T12:11:21.135Z</time>
      </trkpt>
      <trkpt lat="42.98367667" lon="-1.178075">
        <ele>790.0</ele>
        <time>2019-07-31T12:11:22.141Z</time>
      </trkpt>
      <trkpt lat="42.98367" lon="-1.17805167">
        <ele>791.0</ele>
        <time>2019-07-31T12:11:23.148Z</time>
      </trkpt>
      <trkpt lat="42.98366167" lon="-1.17803167">
        <ele>791.0</ele>
        <time>2019-07-31T12:11:24.154Z</time>
      </trkpt>
      <trkpt lat="42.98365333" lon="-1.17801">
        <ele>791.0</ele>
        <time>2019-07-31T12:11:25.157Z</time>
      </trkpt>
      <trkpt lat="42.98364833" lon="-1.17798167">
        <ele>791.0</ele>
        <time>2019-07-31T12:11:26.162Z</time>
      </trkpt>
      <trkpt lat="42.98364333" lon="-1.17796">
        <ele>791.0</ele>
        <time>2019-07-31T12:11:27.168Z</time>
      </trkpt>
      <trkpt lat="42.98364" lon="-1.17793167">
        <ele>791.0</ele>
        <time>2019-07-31T12:11:28.174Z</time>
      </trkpt>
      <trkpt lat="42.98364" lon="-1.17791">
        <ele>791.0</ele>
        <time>2019-07-31T12:11:29.179Z</time>
      </trkpt>
      <trkpt lat="42.98363833" lon="-1.17789333">
        <ele>790.0</ele>
        <time>2019-07-31T12:11:30.186Z</time>
      </trkpt>
      <trkpt lat="42.983635" lon="-1.17787833">
        <ele>789.0</ele>
        <time>2019-07-31T12:11:31.066Z</time>
      </trkpt>
      <trkpt lat="42.98363333" lon="-1.17786167">
        <ele>789.0</ele>
        <time>2019-07-31T12:11:32.072Z</time>
      </trkpt>
      <trkpt lat="42.98363667" lon="-1.17784">
        <ele>789.0</ele>
        <time>2019-07-31T12:11:33.078Z</time>
      </trkpt>
      <trkpt lat="42.98364167" lon="-1.17782">
        <ele>788.0</ele>
        <time>2019-07-31T12:11:34.083Z</time>
      </trkpt>
      <trkpt lat="42.98365" lon="-1.17780333">
        <ele>787.0</ele>
        <time>2019-07-31T12:11:35.088Z</time>
      </trkpt>
      <trkpt lat="42.98365667" lon="-1.17779">
        <ele>787.0</ele>
        <time>2019-07-31T12:11:36.092Z</time>
      </trkpt>
      <trkpt lat="42.98366667" lon="-1.17777167">
        <ele>786.0</ele>
        <time>2019-07-31T12:11:37.096Z</time>
      </trkpt>
      <trkpt lat="42.98367333" lon="-1.177755">
        <ele>786.0</ele>
        <time>2019-07-31T12:11:38.100Z</time>
      </trkpt>
      <trkpt lat="42.98367833" lon="-1.17773667">
        <ele>786.0</ele>
        <time>2019-07-31T12:11:39.105Z</time>
      </trkpt>
      <trkpt lat="42.98368333" lon="-1.17772167">
        <ele>785.0</ele>
        <time>2019-07-31T12:11:40.109Z</time>
      </trkpt>
      <trkpt lat="42.98368833" lon="-1.1777">
        <ele>785.0</ele>
        <time>2019-07-31T12:11:41.115Z</time>
      </trkpt>
      <trkpt lat="42.98369667" lon="-1.177685">
        <ele>785.0</ele>
        <time>2019-07-31T12:11:42.120Z</time>
      </trkpt>
      <trkpt lat="42.98370167" lon="-1.17767">
        <ele>785.0</ele>
        <time>2019-07-31T12:11:43.125Z</time>
      </trkpt>
      <trkpt lat="42.98370833" lon="-1.17766">
        <ele>785.0</ele>
        <time>2019-07-31T12:11:44.130Z</time>
      </trkpt>
      <trkpt lat="42.98371667" lon="-1.17765">
        <ele>786.0</ele>
        <time>2019-07-31T12:11:45.132Z</time>
      </trkpt>
      <trkpt lat="42.98372" lon="-1.177635">
        <ele>787.0</ele>
        <time>2019-07-31T12:11:46.135Z</time>
      </trkpt>
      <trkpt lat="42.98372667" lon="-1.17762333">
        <ele>788.0</ele>
        <time>2019-07-31T12:11:47.141Z</time>
      </trkpt>
      <trkpt lat="42.98373167" lon="-1.17761167">
        <ele>789.0</ele>
        <time>2019-07-31T12:11:48.146Z</time>
      </trkpt>
      <trkpt lat="42.98373333" lon="-1.17759833">
        <ele>791.0</ele>
        <time>2019-07-31T12:11:49.150Z</time>
      </trkpt>
      <trkpt lat="42.98374" lon="-1.17758333">
        <ele>791.0</ele>
        <time>2019-07-31T12:11:50.155Z</time>
      </trkpt>
      <trkpt lat="42.98374333" lon="-1.17756833">
        <ele>792.0</ele>
        <time>2019-07-31T12:11:51.159Z</time>
      </trkpt>
      <trkpt lat="42.98374833" lon="-1.17755333">
        <ele>793.0</ele>
        <time>2019-07-31T12:11:52.165Z</time>
      </trkpt>
      <trkpt lat="42.98375667" lon="-1.17754">
        <ele>793.0</ele>
        <time>2019-07-31T12:11:53.171Z</time>
      </trkpt>
      <trkpt lat="42.98376167" lon="-1.177525">
        <ele>793.0</ele>
        <time>2019-07-31T12:11:54.178Z</time>
      </trkpt>
      <trkpt lat="42.98376667" lon="-1.17751167">
        <ele>793.0</ele>
        <time>2019-07-31T12:11:55.182Z</time>
      </trkpt>
      <trkpt lat="42.98376833" lon="-1.17749167">
        <ele>795.0</ele>
        <time>2019-07-31T12:11:56.063Z</time>
      </trkpt>
      <trkpt lat="42.98377167" lon="-1.17747333">
        <ele>795.0</ele>
        <time>2019-07-31T12:11:57.068Z</time>
      </trkpt>
      <trkpt lat="42.98377833" lon="-1.17746">
        <ele>796.0</ele>
        <time>2019-07-31T12:11:58.074Z</time>
      </trkpt>
      <trkpt lat="42.98378333" lon="-1.17744667">
        <ele>797.0</ele>
        <time>2019-07-31T12:11:59.080Z</time>
      </trkpt>
      <trkpt lat="42.98379167" lon="-1.17743333">
        <ele>798.0</ele>
        <time>2019-07-31T12:12:00.086Z</time>
      </trkpt>
      <trkpt lat="42.98379833" lon="-1.17741833">
        <ele>798.0</ele>
        <time>2019-07-31T12:12:01.091Z</time>
      </trkpt>
      <trkpt lat="42.98380833" lon="-1.17740167">
        <ele>798.0</ele>
        <time>2019-07-31T12:12:02.096Z</time>
      </trkpt>
      <trkpt lat="42.98381667" lon="-1.17738167">
        <ele>799.0</ele>
        <time>2019-07-31T12:12:03.102Z</time>
      </trkpt>
      <trkpt lat="42.98382167" lon="-1.177365">
        <ele>798.0</ele>
        <time>2019-07-31T12:12:04.108Z</time>
      </trkpt>
      <trkpt lat="42.98382333" lon="-1.17734667">
        <ele>798.0</ele>
        <time>2019-07-31T12:12:05.111Z</time>
      </trkpt>
      <trkpt lat="42.98382833" lon="-1.17732667">
        <ele>797.0</ele>
        <time>2019-07-31T12:12:06.115Z</time>
      </trkpt>
      <trkpt lat="42.98383333" lon="-1.17730667">
        <ele>797.0</ele>
        <time>2019-07-31T12:12:07.117Z</time>
      </trkpt>
      <trkpt lat="42.98383833" lon="-1.17729">
        <ele>798.0</ele>
        <time>2019-07-31T12:12:08.120Z</time>
      </trkpt>
      <trkpt lat="42.98384167" lon="-1.17727667">
        <ele>798.0</ele>
        <time>2019-07-31T12:12:09.125Z</time>
      </trkpt>
      <trkpt lat="42.98384667" lon="-1.17725333">
        <ele>799.0</ele>
        <time>2019-07-31T12:12:10.128Z</time>
      </trkpt>
      <trkpt lat="42.98385333" lon="-1.17723167">
        <ele>798.0</ele>
        <time>2019-07-31T12:12:11.133Z</time>
      </trkpt>
      <trkpt lat="42.98386333" lon="-1.17721333">
        <ele>797.0</ele>
        <time>2019-07-31T12:12:12.140Z</time>
      </trkpt>
      <trkpt lat="42.98387167" lon="-1.177195">
        <ele>796.0</ele>
        <time>2019-07-31T12:12:13.145Z</time>
      </trkpt>
      <trkpt lat="42.98388167" lon="-1.17718333">
        <ele>796.0</ele>
        <time>2019-07-31T12:12:14.150Z</time>
      </trkpt>
      <trkpt lat="42.98389333" lon="-1.177165">
        <ele>795.0</ele>
        <time>2019-07-31T12:12:15.154Z</time>
      </trkpt>
      <trkpt lat="42.98390333" lon="-1.17714667">
        <ele>796.0</ele>
        <time>2019-07-31T12:12:16.159Z</time>
      </trkpt>
      <trkpt lat="42.98391333" lon="-1.17712833">
        <ele>796.0</ele>
        <time>2019-07-31T12:12:17.162Z</time>
      </trkpt>
      <trkpt lat="42.98392333" lon="-1.17710833">
        <ele>796.0</ele>
        <time>2019-07-31T12:12:18.167Z</time>
      </trkpt>
      <trkpt lat="42.98393167" lon="-1.17708167">
        <ele>797.0</ele>
        <time>2019-07-31T12:12:19.173Z</time>
      </trkpt>
      <trkpt lat="42.98393667" lon="-1.17705333">
        <ele>797.0</ele>
        <time>2019-07-31T12:12:20.179Z</time>
      </trkpt>
      <trkpt lat="42.983935" lon="-1.17702833">
        <ele>797.0</ele>
        <time>2019-07-31T12:12:21.184Z</time>
      </trkpt>
      <trkpt lat="42.98393333" lon="-1.177">
        <ele>797.0</ele>
        <time>2019-07-31T12:12:22.065Z</time>
      </trkpt>
      <trkpt lat="42.98394" lon="-1.17697167">
        <ele>796.0</ele>
        <time>2019-07-31T12:12:23.070Z</time>
      </trkpt>
      <trkpt lat="42.98394833" lon="-1.17695">
        <ele>796.0</ele>
        <time>2019-07-31T12:12:24.076Z</time>
      </trkpt>
      <trkpt lat="42.98395833" lon="-1.17693">
        <ele>795.0</ele>
        <time>2019-07-31T12:12:25.080Z</time>
      </trkpt>
      <trkpt lat="42.98397333" lon="-1.17691833">
        <ele>795.0</ele>
        <time>2019-07-31T12:12:26.086Z</time>
      </trkpt>
      <trkpt lat="42.98398333" lon="-1.1769">
        <ele>794.0</ele>
        <time>2019-07-31T12:12:27.091Z</time>
      </trkpt>
      <trkpt lat="42.98399833" lon="-1.17688167">
        <ele>792.0</ele>
        <time>2019-07-31T12:12:28.095Z</time>
      </trkpt>
      <trkpt lat="42.984005" lon="-1.17686167">
        <ele>791.0</ele>
        <time>2019-07-31T12:12:29.100Z</time>
      </trkpt>
      <trkpt lat="42.98401" lon="-1.17683833">
        <ele>792.0</ele>
        <time>2019-07-31T12:12:30.106Z</time>
      </trkpt>
      <trkpt lat="42.984015" lon="-1.17682167">
        <ele>793.0</ele>
        <time>2019-07-31T12:12:31.112Z</time>
      </trkpt>
      <trkpt lat="42.98403" lon="-1.176805">
        <ele>793.0</ele>
        <time>2019-07-31T12:12:32.118Z</time>
      </trkpt>
      <trkpt lat="42.98404167" lon="-1.17679167">
        <ele>793.0</ele>
        <time>2019-07-31T12:12:33.124Z</time>
      </trkpt>
      <trkpt lat="42.98405167" lon="-1.176775">
        <ele>793.0</ele>
        <time>2019-07-31T12:12:34.129Z</time>
      </trkpt>
      <trkpt lat="42.98406667" lon="-1.17676167">
        <ele>792.0</ele>
        <time>2019-07-31T12:12:35.135Z</time>
      </trkpt>
      <trkpt lat="42.98407667" lon="-1.17674667">
        <ele>792.0</ele>
        <time>2019-07-31T12:12:36.141Z</time>
      </trkpt>
      <trkpt lat="42.98408667" lon="-1.17672333">
        <ele>791.0</ele>
        <time>2019-07-31T12:12:37.146Z</time>
      </trkpt>
      <trkpt lat="42.984095" lon="-1.17670167">
        <ele>791.0</ele>
        <time>2019-07-31T12:12:38.150Z</time>
      </trkpt>
      <trkpt lat="42.98410167" lon="-1.17668667">
        <ele>792.0</ele>
        <time>2019-07-31T12:12:39.156Z</time>
      </trkpt>
      <trkpt lat="42.98410667" lon="-1.17667">
        <ele>792.0</ele>
        <time>2019-07-31T12:12:40.163Z</time>
      </trkpt>
      <trkpt lat="42.98410833" lon="-1.17665167">
        <ele>792.0</ele>
        <time>2019-07-31T12:12:41.168Z</time>
      </trkpt>
      <trkpt lat="42.98411333" lon="-1.17663">
        <ele>792.0</ele>
        <time>2019-07-31T12:12:42.172Z</time>
      </trkpt>
      <trkpt lat="42.984115" lon="-1.17661">
        <ele>792.0</ele>
        <time>2019-07-31T12:12:43.177Z</time>
      </trkpt>
      <trkpt lat="42.98412167" lon="-1.17658667">
        <ele>793.0</ele>
        <time>2019-07-31T12:12:44.183Z</time>
      </trkpt>
      <trkpt lat="42.98413167" lon="-1.17656333">
        <ele>793.0</ele>
        <time>2019-07-31T12:12:45.062Z</time>
      </trkpt>
      <trkpt lat="42.98414167" lon="-1.17655167">
        <ele>792.0</ele>
        <time>2019-07-31T12:12:46.066Z</time>
      </trkpt>
      <trkpt lat="42.98415" lon="-1.17653167">
        <ele>792.0</ele>
        <time>2019-07-31T12:12:47.072Z</time>
      </trkpt>
      <trkpt lat="42.98415667" lon="-1.17651333">
        <ele>792.0</ele>
        <time>2019-07-31T12:12:48.077Z</time>
      </trkpt>
      <trkpt lat="42.98416167" lon="-1.17649167">
        <ele>792.0</ele>
        <time>2019-07-31T12:12:49.080Z</time>
      </trkpt>
      <trkpt lat="42.984175" lon="-1.17647">
        <ele>792.0</ele>
        <time>2019-07-31T12:12:50.085Z</time>
      </trkpt>
      <trkpt lat="42.98418667" lon="-1.17644833">
        <ele>791.0</ele>
        <time>2019-07-31T12:12:51.090Z</time>
      </trkpt>
      <trkpt lat="42.98419667" lon="-1.176425">
        <ele>789.0</ele>
        <time>2019-07-31T12:12:52.096Z</time>
      </trkpt>
      <trkpt lat="42.9842" lon="-1.17640667">
        <ele>788.0</ele>
        <time>2019-07-31T12:12:53.102Z</time>
      </trkpt>
      <trkpt lat="42.98420833" lon="-1.17639333">
        <ele>787.0</ele>
        <time>2019-07-31T12:12:54.108Z</time>
      </trkpt>
      <trkpt lat="42.98421667" lon="-1.17638333">
        <ele>787.0</ele>
        <time>2019-07-31T12:12:55.114Z</time>
      </trkpt>
      <trkpt lat="42.98422833" lon="-1.17637">
        <ele>787.0</ele>
        <time>2019-07-31T12:12:56.119Z</time>
      </trkpt>
      <trkpt lat="42.98423333" lon="-1.17635667">
        <ele>787.0</ele>
        <time>2019-07-31T12:12:57.125Z</time>
      </trkpt>
      <trkpt lat="42.98423667" lon="-1.17634667">
        <ele>787.0</ele>
        <time>2019-07-31T12:12:58.130Z</time>
      </trkpt>
      <trkpt lat="42.98424333" lon="-1.17633833">
        <ele>787.0</ele>
        <time>2019-07-31T12:12:59.135Z</time>
      </trkpt>
      <trkpt lat="42.98425" lon="-1.17633333">
        <ele>787.0</ele>
        <time>2019-07-31T12:13:00.138Z</time>
      </trkpt>
      <trkpt lat="42.98425833" lon="-1.17632667">
        <ele>787.0</ele>
        <time>2019-07-31T12:13:01.142Z</time>
      </trkpt>
      <trkpt lat="42.984265" lon="-1.17632167">
        <ele>787.0</ele>
        <time>2019-07-31T12:13:02.147Z</time>
      </trkpt>
      <trkpt lat="42.984275" lon="-1.17631333">
        <ele>787.0</ele>
        <time>2019-07-31T12:13:03.154Z</time>
      </trkpt>
      <trkpt lat="42.98428333" lon="-1.1763">
        <ele>786.0</ele>
        <time>2019-07-31T12:13:04.159Z</time>
      </trkpt>
      <trkpt lat="42.98429333" lon="-1.17628833">
        <ele>786.0</ele>
        <time>2019-07-31T12:13:05.164Z</time>
      </trkpt>
      <trkpt lat="42.98430167" lon="-1.17627167">
        <ele>787.0</ele>
        <time>2019-07-31T12:13:06.171Z</time>
      </trkpt>
      <trkpt lat="42.98430833" lon="-1.17625667">
        <ele>788.0</ele>
        <time>2019-07-31T12:13:07.177Z</time>
      </trkpt>
      <trkpt lat="42.98431833" lon="-1.17623833">
        <ele>788.0</ele>
        <time>2019-07-31T12:13:08.183Z</time>
      </trkpt>
      <trkpt lat="42.98433167" lon="-1.17621667">
        <ele>789.0</ele>
        <time>2019-07-31T12:13:09.062Z</time>
      </trkpt>
      <trkpt lat="42.98433667" lon="-1.17619833">
        <ele>790.0</ele>
        <time>2019-07-31T12:13:10.067Z</time>
      </trkpt>
      <trkpt lat="42.98434667" lon="-1.17617167">
        <ele>790.0</ele>
        <time>2019-07-31T12:13:11.072Z</time>
      </trkpt>
      <trkpt lat="42.98435" lon="-1.17615">
        <ele>791.0</ele>
        <time>2019-07-31T12:13:12.077Z</time>
      </trkpt>
      <trkpt lat="42.98435667" lon="-1.17612667">
        <ele>791.0</ele>
        <time>2019-07-31T12:13:13.083Z</time>
      </trkpt>
      <trkpt lat="42.98436167" lon="-1.17610167">
        <ele>791.0</ele>
        <time>2019-07-31T12:13:14.089Z</time>
      </trkpt>
      <trkpt lat="42.98437" lon="-1.176075">
        <ele>791.0</ele>
        <time>2019-07-31T12:13:15.095Z</time>
      </trkpt>
      <trkpt lat="42.98437333" lon="-1.17605667">
        <ele>790.0</ele>
        <time>2019-07-31T12:13:16.101Z</time>
      </trkpt>
      <trkpt lat="42.984375" lon="-1.17603667">
        <ele>790.0</ele>
        <time>2019-07-31T12:13:17.107Z</time>
      </trkpt>
      <trkpt lat="42.98437833" lon="-1.176025">
        <ele>790.0</ele>
        <time>2019-07-31T12:13:18.113Z</time>
      </trkpt>
      <trkpt lat="42.98438167" lon="-1.17600333">
        <ele>790.0</ele>
        <time>2019-07-31T12:13:19.119Z</time>
      </trkpt>
      <trkpt lat="42.98438833" lon="-1.17598333">
        <ele>789.0</ele>
        <time>2019-07-31T12:13:20.123Z</time>
      </trkpt>
      <trkpt lat="42.98439667" lon="-1.17595667">
        <ele>789.0</ele>
        <time>2019-07-31T12:13:21.128Z</time>
      </trkpt>
      <trkpt lat="42.98440667" lon="-1.175935">
        <ele>788.0</ele>
        <time>2019-07-31T12:13:22.134Z</time>
      </trkpt>
      <trkpt lat="42.98442" lon="-1.17591333">
        <ele>786.0</ele>
        <time>2019-07-31T12:13:23.138Z</time>
      </trkpt>
      <trkpt lat="42.984425" lon="-1.175895">
        <ele>786.0</ele>
        <time>2019-07-31T12:13:24.141Z</time>
      </trkpt>
      <trkpt lat="42.98443" lon="-1.17587333">
        <ele>786.0</ele>
        <time>2019-07-31T12:13:25.146Z</time>
      </trkpt>
      <trkpt lat="42.98443667" lon="-1.17585167">
        <ele>786.0</ele>
        <time>2019-07-31T12:13:26.151Z</time>
      </trkpt>
      <trkpt lat="42.984435" lon="-1.17583167">
        <ele>787.0</ele>
        <time>2019-07-31T12:13:27.158Z</time>
      </trkpt>
      <trkpt lat="42.98443333" lon="-1.17581333">
        <ele>788.0</ele>
        <time>2019-07-31T12:13:28.164Z</time>
      </trkpt>
      <trkpt lat="42.98444167" lon="-1.175785">
        <ele>788.0</ele>
        <time>2019-07-31T12:13:29.171Z</time>
      </trkpt>
      <trkpt lat="42.98444667" lon="-1.17575833">
        <ele>788.0</ele>
        <time>2019-07-31T12:13:30.176Z</time>
      </trkpt>
      <trkpt lat="42.984455" lon="-1.17573667">
        <ele>788.0</ele>
        <time>2019-07-31T12:13:31.182Z</time>
      </trkpt>
      <trkpt lat="42.984465" lon="-1.17571667">
        <ele>788.0</ele>
        <time>2019-07-31T12:13:32.186Z</time>
      </trkpt>
      <trkpt lat="42.984465" lon="-1.175705">
        <ele>789.0</ele>
        <time>2019-07-31T12:13:33.066Z</time>
      </trkpt>
      <trkpt lat="42.98446833" lon="-1.17569167">
        <ele>789.0</ele>
        <time>2019-07-31T12:13:34.071Z</time>
      </trkpt>
      <trkpt lat="42.98447167" lon="-1.17568167">
        <ele>789.0</ele>
        <time>2019-07-31T12:13:35.076Z</time>
      </trkpt>
      <trkpt lat="42.984475" lon="-1.17566">
        <ele>789.0</ele>
        <time>2019-07-31T12:13:36.083Z</time>
      </trkpt>
      <trkpt lat="42.98448" lon="-1.17564167">
        <ele>790.0</ele>
        <time>2019-07-31T12:13:37.087Z</time>
      </trkpt>
      <trkpt lat="42.984485" lon="-1.17563">
        <ele>790.0</ele>
        <time>2019-07-31T12:13:38.091Z</time>
      </trkpt>
      <trkpt lat="42.98449333" lon="-1.17561167">
        <ele>791.0</ele>
        <time>2019-07-31T12:13:39.096Z</time>
      </trkpt>
      <trkpt lat="42.9845" lon="-1.17559333">
        <ele>792.0</ele>
        <time>2019-07-31T12:13:40.102Z</time>
      </trkpt>
      <trkpt lat="42.98450167" lon="-1.17557833">
        <ele>792.0</ele>
        <time>2019-07-31T12:13:41.107Z</time>
      </trkpt>
      <trkpt lat="42.98450333" lon="-1.17555667">
        <ele>793.0</ele>
        <time>2019-07-31T12:13:42.113Z</time>
      </trkpt>
      <trkpt lat="42.98450833" lon="-1.17554">
        <ele>793.0</ele>
        <time>2019-07-31T12:13:43.117Z</time>
      </trkpt>
      <trkpt lat="42.98451167" lon="-1.17552333">
        <ele>793.0</ele>
        <time>2019-07-31T12:13:44.122Z</time>
      </trkpt>
      <trkpt lat="42.984515" lon="-1.17550333">
        <ele>794.0</ele>
        <time>2019-07-31T12:13:45.127Z</time>
      </trkpt>
      <trkpt lat="42.98451667" lon="-1.17548167">
        <ele>795.0</ele>
        <time>2019-07-31T12:13:46.135Z</time>
      </trkpt>
      <trkpt lat="42.98451833" lon="-1.17546333">
        <ele>796.0</ele>
        <time>2019-07-31T12:13:47.141Z</time>
      </trkpt>
      <trkpt lat="42.98452" lon="-1.175445">
        <ele>797.0</ele>
        <time>2019-07-31T12:13:48.148Z</time>
      </trkpt>
      <trkpt lat="42.98452167" lon="-1.17542833">
        <ele>797.0</ele>
        <time>2019-07-31T12:13:49.155Z</time>
      </trkpt>
      <trkpt lat="42.984525" lon="-1.17541167">
        <ele>798.0</ele>
        <time>2019-07-31T12:13:50.156Z</time>
      </trkpt>
      <trkpt lat="42.98452667" lon="-1.175395">
        <ele>799.0</ele>
        <time>2019-07-31T12:13:51.161Z</time>
      </trkpt>
      <trkpt lat="42.98452833" lon="-1.17538167">
        <ele>801.0</ele>
        <time>2019-07-31T12:13:52.166Z</time>
      </trkpt>
      <trkpt lat="42.98452667" lon="-1.17536667">
        <ele>802.0</ele>
        <time>2019-07-31T12:13:53.171Z</time>
      </trkpt>
      <trkpt lat="42.984525" lon="-1.175345">
        <ele>801.0</ele>
        <time>2019-07-31T12:13:54.176Z</time>
      </trkpt>
      <trkpt lat="42.98452833" lon="-1.17532667">
        <ele>801.0</ele>
        <time>2019-07-31T12:13:55.182Z</time>
      </trkpt>
      <trkpt lat="42.98453333" lon="-1.17531">
        <ele>801.0</ele>
        <time>2019-07-31T12:13:56.186Z</time>
      </trkpt>
      <trkpt lat="42.98454" lon="-1.17529">
        <ele>801.0</ele>
        <time>2019-07-31T12:13:57.066Z</time>
      </trkpt>
      <trkpt lat="42.984545" lon="-1.17527">
        <ele>802.0</ele>
        <time>2019-07-31T12:13:58.071Z</time>
      </trkpt>
      <trkpt lat="42.98454833" lon="-1.17525167">
        <ele>802.0</ele>
        <time>2019-07-31T12:13:59.075Z</time>
      </trkpt>
      <trkpt lat="42.98455" lon="-1.17523167">
        <ele>802.0</ele>
        <time>2019-07-31T12:14:00.078Z</time>
      </trkpt>
      <trkpt lat="42.98455667" lon="-1.175215">
        <ele>801.0</ele>
        <time>2019-07-31T12:14:01.082Z</time>
      </trkpt>
      <trkpt lat="42.98456333" lon="-1.1752">
        <ele>800.0</ele>
        <time>2019-07-31T12:14:02.087Z</time>
      </trkpt>
      <trkpt lat="42.98456833" lon="-1.17518333">
        <ele>800.0</ele>
        <time>2019-07-31T12:14:03.090Z</time>
      </trkpt>
      <trkpt lat="42.98457167" lon="-1.17516">
        <ele>800.0</ele>
        <time>2019-07-31T12:14:04.096Z</time>
      </trkpt>
      <trkpt lat="42.98457333" lon="-1.175135">
        <ele>800.0</ele>
        <time>2019-07-31T12:14:05.101Z</time>
      </trkpt>
      <trkpt lat="42.98457667" lon="-1.175115">
        <ele>800.0</ele>
        <time>2019-07-31T12:14:06.106Z</time>
      </trkpt>
      <trkpt lat="42.98457667" lon="-1.175095">
        <ele>801.0</ele>
        <time>2019-07-31T12:14:07.112Z</time>
      </trkpt>
      <trkpt lat="42.98458667" lon="-1.17508167">
        <ele>801.0</ele>
        <time>2019-07-31T12:14:08.118Z</time>
      </trkpt>
      <trkpt lat="42.98459333" lon="-1.175055">
        <ele>800.0</ele>
        <time>2019-07-31T12:14:09.124Z</time>
      </trkpt>
      <trkpt lat="42.98459833" lon="-1.17503167">
        <ele>801.0</ele>
        <time>2019-07-31T12:14:10.129Z</time>
      </trkpt>
      <trkpt lat="42.98461" lon="-1.17500833">
        <ele>801.0</ele>
        <time>2019-07-31T12:14:11.134Z</time>
      </trkpt>
      <trkpt lat="42.98461833" lon="-1.17497333">
        <ele>801.0</ele>
        <time>2019-07-31T12:14:12.140Z</time>
      </trkpt>
      <trkpt lat="42.98462333" lon="-1.17494333">
        <ele>800.0</ele>
        <time>2019-07-31T12:14:13.145Z</time>
      </trkpt>
      <trkpt lat="42.98463" lon="-1.17491833">
        <ele>800.0</ele>
        <time>2019-07-31T12:14:14.151Z</time>
      </trkpt>
      <trkpt lat="42.98463667" lon="-1.1749">
        <ele>799.0</ele>
        <time>2019-07-31T12:14:15.157Z</time>
      </trkpt>
      <trkpt lat="42.98464167" lon="-1.17487667">
        <ele>798.0</ele>
        <time>2019-07-31T12:14:16.161Z</time>
      </trkpt>
      <trkpt lat="42.98464833" lon="-1.17485167">
        <ele>796.0</ele>
        <time>2019-07-31T12:14:17.168Z</time>
      </trkpt>
      <trkpt lat="42.98465333" lon="-1.17482667">
        <ele>796.0</ele>
        <time>2019-07-31T12:14:18.174Z</time>
      </trkpt>
      <trkpt lat="42.98466" lon="-1.17480667">
        <ele>794.0</ele>
        <time>2019-07-31T12:14:19.180Z</time>
      </trkpt>
      <trkpt lat="42.98466167" lon="-1.17478833">
        <ele>793.0</ele>
        <time>2019-07-31T12:14:20.185Z</time>
      </trkpt>
      <trkpt lat="42.98466833" lon="-1.17476333">
        <ele>792.0</ele>
        <time>2019-07-31T12:14:21.064Z</time>
      </trkpt>
      <trkpt lat="42.98467833" lon="-1.17474">
        <ele>792.0</ele>
        <time>2019-07-31T12:14:22.069Z</time>
      </trkpt>
      <trkpt lat="42.984685" lon="-1.17471833">
        <ele>792.0</ele>
        <time>2019-07-31T12:14:23.074Z</time>
      </trkpt>
      <trkpt lat="42.98469667" lon="-1.17469667">
        <ele>793.0</ele>
        <time>2019-07-31T12:14:24.077Z</time>
      </trkpt>
      <trkpt lat="42.98471" lon="-1.17468">
        <ele>792.0</ele>
        <time>2019-07-31T12:14:25.084Z</time>
      </trkpt>
      <trkpt lat="42.98471667" lon="-1.17466333">
        <ele>792.0</ele>
        <time>2019-07-31T12:14:26.090Z</time>
      </trkpt>
      <trkpt lat="42.98472833" lon="-1.17464333">
        <ele>791.0</ele>
        <time>2019-07-31T12:14:27.097Z</time>
      </trkpt>
      <trkpt lat="42.98473667" lon="-1.17462333">
        <ele>791.0</ele>
        <time>2019-07-31T12:14:28.102Z</time>
      </trkpt>
      <trkpt lat="42.98474667" lon="-1.17461">
        <ele>790.0</ele>
        <time>2019-07-31T12:14:29.107Z</time>
      </trkpt>
      <trkpt lat="42.984755" lon="-1.17459833">
        <ele>790.0</ele>
        <time>2019-07-31T12:14:30.113Z</time>
      </trkpt>
      <trkpt lat="42.98476667" lon="-1.17457667">
        <ele>788.0</ele>
        <time>2019-07-31T12:14:31.118Z</time>
      </trkpt>
      <trkpt lat="42.98477333" lon="-1.17455833">
        <ele>787.0</ele>
        <time>2019-07-31T12:14:32.124Z</time>
      </trkpt>
      <trkpt lat="42.98478333" lon="-1.17453833">
        <ele>786.0</ele>
        <time>2019-07-31T12:14:33.129Z</time>
      </trkpt>
      <trkpt lat="42.98479667" lon="-1.17451333">
        <ele>784.0</ele>
        <time>2019-07-31T12:14:34.135Z</time>
      </trkpt>
      <trkpt lat="42.98480333" lon="-1.174485">
        <ele>783.0</ele>
        <time>2019-07-31T12:14:35.139Z</time>
      </trkpt>
      <trkpt lat="42.984805" lon="-1.174465">
        <ele>783.0</ele>
        <time>2019-07-31T12:14:36.142Z</time>
      </trkpt>
      <trkpt lat="42.9848" lon="-1.17444833">
        <ele>783.0</ele>
        <time>2019-07-31T12:14:37.149Z</time>
      </trkpt>
      <trkpt lat="42.984795" lon="-1.17442667">
        <ele>783.0</ele>
        <time>2019-07-31T12:14:38.156Z</time>
      </trkpt>
      <trkpt lat="42.98479667" lon="-1.17440333">
        <ele>783.0</ele>
        <time>2019-07-31T12:14:39.163Z</time>
      </trkpt>
      <trkpt lat="42.98480333" lon="-1.17438667">
        <ele>782.0</ele>
        <time>2019-07-31T12:14:40.169Z</time>
      </trkpt>
      <trkpt lat="42.98481" lon="-1.17436667">
        <ele>782.0</ele>
        <time>2019-07-31T12:14:41.176Z</time>
      </trkpt>
      <trkpt lat="42.98481333" lon="-1.17434667">
        <ele>783.0</ele>
        <time>2019-07-31T12:14:42.183Z</time>
      </trkpt>
      <trkpt lat="42.98482167" lon="-1.17433167">
        <ele>785.0</ele>
        <time>2019-07-31T12:14:43.062Z</time>
      </trkpt>
      <trkpt lat="42.984825" lon="-1.17431667">
        <ele>786.0</ele>
        <time>2019-07-31T12:14:44.067Z</time>
      </trkpt>
      <trkpt lat="42.98483333" lon="-1.17429667">
        <ele>787.0</ele>
        <time>2019-07-31T12:14:45.071Z</time>
      </trkpt>
      <trkpt lat="42.98483833" lon="-1.17428167">
        <ele>788.0</ele>
        <time>2019-07-31T12:14:46.076Z</time>
      </trkpt>
      <trkpt lat="42.98484667" lon="-1.17426333">
        <ele>787.0</ele>
        <time>2019-07-31T12:14:47.082Z</time>
      </trkpt>
      <trkpt lat="42.98485333" lon="-1.17425167">
        <ele>787.0</ele>
        <time>2019-07-31T12:14:48.088Z</time>
      </trkpt>
      <trkpt lat="42.98485833" lon="-1.17423167">
        <ele>787.0</ele>
        <time>2019-07-31T12:14:49.094Z</time>
      </trkpt>
      <trkpt lat="42.98486333" lon="-1.17420833">
        <ele>787.0</ele>
        <time>2019-07-31T12:14:50.101Z</time>
      </trkpt>
      <trkpt lat="42.98486833" lon="-1.174195">
        <ele>787.0</ele>
        <time>2019-07-31T12:14:51.105Z</time>
      </trkpt>
      <trkpt lat="42.984875" lon="-1.174175">
        <ele>786.0</ele>
        <time>2019-07-31T12:14:52.109Z</time>
      </trkpt>
      <trkpt lat="42.98488167" lon="-1.17415333">
        <ele>786.0</ele>
        <time>2019-07-31T12:14:53.115Z</time>
      </trkpt>
      <trkpt lat="42.98488833" lon="-1.17414167">
        <ele>786.0</ele>
        <time>2019-07-31T12:14:54.119Z</time>
      </trkpt>
      <trkpt lat="42.98489333" lon="-1.17413167">
        <ele>786.0</ele>
        <time>2019-07-31T12:14:55.124Z</time>
      </trkpt>
      <trkpt lat="42.98489833" lon="-1.17411833">
        <ele>786.0</ele>
        <time>2019-07-31T12:14:56.131Z</time>
      </trkpt>
      <trkpt lat="42.98490333" lon="-1.174105">
        <ele>786.0</ele>
        <time>2019-07-31T12:14:57.136Z</time>
      </trkpt>
      <trkpt lat="42.98490333" lon="-1.17409167">
        <ele>786.0</ele>
        <time>2019-07-31T12:14:58.141Z</time>
      </trkpt>
      <trkpt lat="42.98490667" lon="-1.17407833">
        <ele>786.0</ele>
        <time>2019-07-31T12:14:59.147Z</time>
      </trkpt>
      <trkpt lat="42.98491" lon="-1.17405833">
        <ele>786.0</ele>
        <time>2019-07-31T12:15:00.153Z</time>
      </trkpt>
      <trkpt lat="42.984915" lon="-1.17403667">
        <ele>786.0</ele>
        <time>2019-07-31T12:15:01.157Z</time>
      </trkpt>
      <trkpt lat="42.98492" lon="-1.17401833">
        <ele>786.0</ele>
        <time>2019-07-31T12:15:02.162Z</time>
      </trkpt>
      <trkpt lat="42.98492333" lon="-1.17399667">
        <ele>786.0</ele>
        <time>2019-07-31T12:15:03.169Z</time>
      </trkpt>
      <trkpt lat="42.98493" lon="-1.17398">
        <ele>786.0</ele>
        <time>2019-07-31T12:15:04.172Z</time>
      </trkpt>
      <trkpt lat="42.98494" lon="-1.17396167">
        <ele>785.0</ele>
        <time>2019-07-31T12:15:05.178Z</time>
      </trkpt>
      <trkpt lat="42.98494667" lon="-1.173945">
        <ele>785.0</ele>
        <time>2019-07-31T12:15:06.183Z</time>
      </trkpt>
      <trkpt lat="42.98495333" lon="-1.17392667">
        <ele>784.0</ele>
        <time>2019-07-31T12:15:07.062Z</time>
      </trkpt>
      <trkpt lat="42.98496167" lon="-1.17390333">
        <ele>784.0</ele>
        <time>2019-07-31T12:15:08.068Z</time>
      </trkpt>
      <trkpt lat="42.98496833" lon="-1.17387833">
        <ele>784.0</ele>
        <time>2019-07-31T12:15:09.073Z</time>
      </trkpt>
      <trkpt lat="42.984975" lon="-1.17386333">
        <ele>784.0</ele>
        <time>2019-07-31T12:15:10.079Z</time>
      </trkpt>
      <trkpt lat="42.984985" lon="-1.17384667">
        <ele>784.0</ele>
        <time>2019-07-31T12:15:11.083Z</time>
      </trkpt>
      <trkpt lat="42.98499333" lon="-1.17383167">
        <ele>784.0</ele>
        <time>2019-07-31T12:15:12.089Z</time>
      </trkpt>
      <trkpt lat="42.98500167" lon="-1.17381333">
        <ele>783.0</ele>
        <time>2019-07-31T12:15:13.095Z</time>
      </trkpt>
      <trkpt lat="42.98500667" lon="-1.173795">
        <ele>783.0</ele>
        <time>2019-07-31T12:15:14.102Z</time>
      </trkpt>
      <trkpt lat="42.98501167" lon="-1.17377667">
        <ele>783.0</ele>
        <time>2019-07-31T12:15:15.107Z</time>
      </trkpt>
      <trkpt lat="42.98501667" lon="-1.17375667">
        <ele>783.0</ele>
        <time>2019-07-31T12:15:16.112Z</time>
      </trkpt>
      <trkpt lat="42.98502667" lon="-1.17373833">
        <ele>784.0</ele>
        <time>2019-07-31T12:15:17.117Z</time>
      </trkpt>
      <trkpt lat="42.98503667" lon="-1.17371833">
        <ele>782.0</ele>
        <time>2019-07-31T12:15:18.124Z</time>
      </trkpt>
      <trkpt lat="42.985045" lon="-1.17369667">
        <ele>782.0</ele>
        <time>2019-07-31T12:15:19.126Z</time>
      </trkpt>
      <trkpt lat="42.98505" lon="-1.17366833">
        <ele>782.0</ele>
        <time>2019-07-31T12:15:20.133Z</time>
      </trkpt>
      <trkpt lat="42.985045" lon="-1.17365">
        <ele>783.0</ele>
        <time>2019-07-31T12:15:21.137Z</time>
      </trkpt>
      <trkpt lat="42.98504667" lon="-1.17363167">
        <ele>783.0</ele>
        <time>2019-07-31T12:15:22.142Z</time>
      </trkpt>
      <trkpt lat="42.98505167" lon="-1.17361333">
        <ele>783.0</ele>
        <time>2019-07-31T12:15:23.146Z</time>
      </trkpt>
      <trkpt lat="42.98505333" lon="-1.17359167">
        <ele>782.0</ele>
        <time>2019-07-31T12:15:24.152Z</time>
      </trkpt>
      <trkpt lat="42.98505667" lon="-1.17357">
        <ele>782.0</ele>
        <time>2019-07-31T12:15:25.158Z</time>
      </trkpt>
      <trkpt lat="42.98506167" lon="-1.17354833">
        <ele>780.0</ele>
        <time>2019-07-31T12:15:26.162Z</time>
      </trkpt>
      <trkpt lat="42.98506333" lon="-1.17353333">
        <ele>780.0</ele>
        <time>2019-07-31T12:15:27.166Z</time>
      </trkpt>
      <trkpt lat="42.985065" lon="-1.173515">
        <ele>779.0</ele>
        <time>2019-07-31T12:15:28.172Z</time>
      </trkpt>
      <trkpt lat="42.98506667" lon="-1.17349333">
        <ele>780.0</ele>
        <time>2019-07-31T12:15:29.177Z</time>
      </trkpt>
      <trkpt lat="42.985075" lon="-1.17348">
        <ele>780.0</ele>
        <time>2019-07-31T12:15:30.183Z</time>
      </trkpt>
      <trkpt lat="42.98507667" lon="-1.17346167">
        <ele>780.0</ele>
        <time>2019-07-31T12:15:31.063Z</time>
      </trkpt>
      <trkpt lat="42.98508" lon="-1.17344">
        <ele>780.0</ele>
        <time>2019-07-31T12:15:32.069Z</time>
      </trkpt>
      <trkpt lat="42.985085" lon="-1.17342">
        <ele>780.0</ele>
        <time>2019-07-31T12:15:33.074Z</time>
      </trkpt>
      <trkpt lat="42.98509" lon="-1.17339833">
        <ele>781.0</ele>
        <time>2019-07-31T12:15:34.079Z</time>
      </trkpt>
      <trkpt lat="42.98509333" lon="-1.17337667">
        <ele>781.0</ele>
        <time>2019-07-31T12:15:35.083Z</time>
      </trkpt>
      <trkpt lat="42.98509833" lon="-1.173355">
        <ele>780.0</ele>
        <time>2019-07-31T12:15:36.088Z</time>
      </trkpt>
      <trkpt lat="42.9851" lon="-1.17333833">
        <ele>780.0</ele>
        <time>2019-07-31T12:15:37.094Z</time>
      </trkpt>
      <trkpt lat="42.98510667" lon="-1.17331667">
        <ele>780.0</ele>
        <time>2019-07-31T12:15:38.099Z</time>
      </trkpt>
      <trkpt lat="42.98511333" lon="-1.17329833">
        <ele>781.0</ele>
        <time>2019-07-31T12:15:39.106Z</time>
      </trkpt>
      <trkpt lat="42.98512" lon="-1.17327833">
        <ele>781.0</ele>
        <time>2019-07-31T12:15:40.112Z</time>
      </trkpt>
      <trkpt lat="42.985125" lon="-1.17326">
        <ele>781.0</ele>
        <time>2019-07-31T12:15:41.117Z</time>
      </trkpt>
      <trkpt lat="42.98513167" lon="-1.17324167">
        <ele>781.0</ele>
        <time>2019-07-31T12:15:42.123Z</time>
      </trkpt>
      <trkpt lat="42.98513833" lon="-1.173225">
        <ele>781.0</ele>
        <time>2019-07-31T12:15:43.128Z</time>
      </trkpt>
      <trkpt lat="42.98514333" lon="-1.173205">
        <ele>781.0</ele>
        <time>2019-07-31T12:15:44.133Z</time>
      </trkpt>
      <trkpt lat="42.98514333" lon="-1.17318167">
        <ele>780.0</ele>
        <time>2019-07-31T12:15:45.138Z</time>
      </trkpt>
      <trkpt lat="42.98514167" lon="-1.17315833">
        <ele>779.0</ele>
        <time>2019-07-31T12:15:46.142Z</time>
      </trkpt>
      <trkpt lat="42.98514333" lon="-1.173145">
        <ele>778.0</ele>
        <time>2019-07-31T12:15:47.145Z</time>
      </trkpt>
      <trkpt lat="42.98515167" lon="-1.17312833">
        <ele>778.0</ele>
        <time>2019-07-31T12:15:48.150Z</time>
      </trkpt>
      <trkpt lat="42.985165" lon="-1.17310833">
        <ele>779.0</ele>
        <time>2019-07-31T12:15:49.155Z</time>
      </trkpt>
      <trkpt lat="42.98517167" lon="-1.17309667">
        <ele>779.0</ele>
        <time>2019-07-31T12:15:50.159Z</time>
      </trkpt>
      <trkpt lat="42.98518" lon="-1.17308167">
        <ele>779.0</ele>
        <time>2019-07-31T12:15:51.166Z</time>
      </trkpt>
      <trkpt lat="42.98519" lon="-1.17306667">
        <ele>780.0</ele>
        <time>2019-07-31T12:15:52.173Z</time>
      </trkpt>
      <trkpt lat="42.985205" lon="-1.17304833">
        <ele>780.0</ele>
        <time>2019-07-31T12:15:53.179Z</time>
      </trkpt>
      <trkpt lat="42.98521" lon="-1.173035">
        <ele>781.0</ele>
        <time>2019-07-31T12:15:54.184Z</time>
      </trkpt>
      <trkpt lat="42.98521833" lon="-1.17302167">
        <ele>780.0</ele>
        <time>2019-07-31T12:15:55.063Z</time>
      </trkpt>
      <trkpt lat="42.985225" lon="-1.17301167">
        <ele>780.0</ele>
        <time>2019-07-31T12:15:56.068Z</time>
      </trkpt>
      <trkpt lat="42.98523" lon="-1.17299833">
        <ele>781.0</ele>
        <time>2019-07-31T12:15:57.073Z</time>
      </trkpt>
      <trkpt lat="42.98523667" lon="-1.172985">
        <ele>781.0</ele>
        <time>2019-07-31T12:15:58.076Z</time>
      </trkpt>
      <trkpt lat="42.98524667" lon="-1.17297667">
        <ele>780.0</ele>
        <time>2019-07-31T12:15:59.079Z</time>
      </trkpt>
      <trkpt lat="42.98525667" lon="-1.17296667">
        <ele>781.0</ele>
        <time>2019-07-31T12:16:00.084Z</time>
      </trkpt>
      <trkpt lat="42.98526833" lon="-1.172955">
        <ele>781.0</ele>
        <time>2019-07-31T12:16:01.091Z</time>
      </trkpt>
      <trkpt lat="42.98527833" lon="-1.17294667">
        <ele>781.0</ele>
        <time>2019-07-31T12:16:02.096Z</time>
      </trkpt>
      <trkpt lat="42.985285" lon="-1.17294">
        <ele>782.0</ele>
        <time>2019-07-31T12:16:03.100Z</time>
      </trkpt>
      <trkpt lat="42.985295" lon="-1.172935">
        <ele>782.0</ele>
        <time>2019-07-31T12:16:04.104Z</time>
      </trkpt>
      <trkpt lat="42.985305" lon="-1.17293167">
        <ele>782.0</ele>
        <time>2019-07-31T12:16:05.110Z</time>
      </trkpt>
      <trkpt lat="42.98531667" lon="-1.17293167">
        <ele>782.0</ele>
        <time>2019-07-31T12:16:06.116Z</time>
      </trkpt>
      <trkpt lat="42.98532667" lon="-1.17292667">
        <ele>782.0</ele>
        <time>2019-07-31T12:16:07.122Z</time>
      </trkpt>
      <trkpt lat="42.98533333" lon="-1.17292167">
        <ele>783.0</ele>
        <time>2019-07-31T12:16:08.127Z</time>
      </trkpt>
      <trkpt lat="42.98534667" lon="-1.172915">
        <ele>784.0</ele>
        <time>2019-07-31T12:16:09.133Z</time>
      </trkpt>
      <trkpt lat="42.98535333" lon="-1.17291333">
        <ele>785.0</ele>
        <time>2019-07-31T12:16:10.138Z</time>
      </trkpt>
      <trkpt lat="42.98536167" lon="-1.172915">
        <ele>786.0</ele>
        <time>2019-07-31T12:16:11.144Z</time>
      </trkpt>
      <trkpt lat="42.98536833" lon="-1.172915">
        <ele>786.0</ele>
        <time>2019-07-31T12:16:12.150Z</time>
      </trkpt>
      <trkpt lat="42.98537833" lon="-1.17291333">
        <ele>787.0</ele>
        <time>2019-07-31T12:16:13.156Z</time>
      </trkpt>
      <trkpt lat="42.98539" lon="-1.17291">
        <ele>788.0</ele>
        <time>2019-07-31T12:16:14.161Z</time>
      </trkpt>
      <trkpt lat="42.98540333" lon="-1.172905">
        <ele>788.0</ele>
        <time>2019-07-31T12:16:15.166Z</time>
      </trkpt>
      <trkpt lat="42.98541" lon="-1.17289833">
        <ele>789.0</ele>
        <time>2019-07-31T12:16:16.169Z</time>
      </trkpt>
      <trkpt lat="42.98542667" lon="-1.17289333">
        <ele>790.0</ele>
        <time>2019-07-31T12:16:17.174Z</time>
      </trkpt>
      <trkpt lat="42.98543833" lon="-1.17289">
        <ele>791.0</ele>
        <time>2019-07-31T12:16:18.179Z</time>
      </trkpt>
      <trkpt lat="42.98545333" lon="-1.17288333">
        <ele>791.0</ele>
        <time>2019-07-31T12:16:19.184Z</time>
      </trkpt>
      <trkpt lat="42.98547167" lon="-1.17287667">
        <ele>791.0</ele>
        <time>2019-07-31T12:16:20.063Z</time>
      </trkpt>
      <trkpt lat="42.98548667" lon="-1.17287167">
        <ele>791.0</ele>
        <time>2019-07-31T12:16:21.070Z</time>
      </trkpt>
      <trkpt lat="42.98550333" lon="-1.17286333">
        <ele>792.0</ele>
        <time>2019-07-31T12:16:22.076Z</time>
      </trkpt>
      <trkpt lat="42.98551833" lon="-1.17286167">
        <ele>791.0</ele>
        <time>2019-07-31T12:16:23.080Z</time>
      </trkpt>
      <trkpt lat="42.98553" lon="-1.17285667">
        <ele>791.0</ele>
        <time>2019-07-31T12:16:24.087Z</time>
      </trkpt>
      <trkpt lat="42.98554" lon="-1.172845">
        <ele>791.0</ele>
        <time>2019-07-31T12:16:25.091Z</time>
      </trkpt>
      <trkpt lat="42.98555167" lon="-1.17282833">
        <ele>792.0</ele>
        <time>2019-07-31T12:16:26.097Z</time>
      </trkpt>
      <trkpt lat="42.98556333" lon="-1.17280833">
        <ele>793.0</ele>
        <time>2019-07-31T12:16:27.102Z</time>
      </trkpt>
      <trkpt lat="42.98557333" lon="-1.17278333">
        <ele>794.0</ele>
        <time>2019-07-31T12:16:28.109Z</time>
      </trkpt>
      <trkpt lat="42.98557833" lon="-1.17276">
        <ele>794.0</ele>
        <time>2019-07-31T12:16:29.113Z</time>
      </trkpt>
      <trkpt lat="42.98558333" lon="-1.17273333">
        <ele>795.0</ele>
        <time>2019-07-31T12:16:30.117Z</time>
      </trkpt>
      <trkpt lat="42.98558333" lon="-1.1727">
        <ele>796.0</ele>
        <time>2019-07-31T12:16:31.120Z</time>
      </trkpt>
      <trkpt lat="42.98558333" lon="-1.17267667">
        <ele>796.0</ele>
        <time>2019-07-31T12:16:32.126Z</time>
      </trkpt>
      <trkpt lat="42.98557833" lon="-1.17265167">
        <ele>796.0</ele>
        <time>2019-07-31T12:16:33.132Z</time>
      </trkpt>
      <trkpt lat="42.985565" lon="-1.17262667">
        <ele>796.0</ele>
        <time>2019-07-31T12:16:34.139Z</time>
      </trkpt>
      <trkpt lat="42.985555" lon="-1.17260667">
        <ele>796.0</ele>
        <time>2019-07-31T12:16:35.144Z</time>
      </trkpt>
      <trkpt lat="42.98554167" lon="-1.17258667">
        <ele>796.0</ele>
        <time>2019-07-31T12:16:36.149Z</time>
      </trkpt>
      <trkpt lat="42.98552667" lon="-1.17257167">
        <ele>797.0</ele>
        <time>2019-07-31T12:16:37.154Z</time>
      </trkpt>
      <trkpt lat="42.98552167" lon="-1.17255833">
        <ele>797.0</ele>
        <time>2019-07-31T12:16:38.159Z</time>
      </trkpt>
      <trkpt lat="42.985515" lon="-1.17254833">
        <ele>797.0</ele>
        <time>2019-07-31T12:16:39.165Z</time>
      </trkpt>
      <trkpt lat="42.98550333" lon="-1.172535">
        <ele>796.0</ele>
        <time>2019-07-31T12:16:40.169Z</time>
      </trkpt>
      <trkpt lat="42.98549167" lon="-1.17251333">
        <ele>796.0</ele>
        <time>2019-07-31T12:16:41.175Z</time>
      </trkpt>
      <trkpt lat="42.98548667" lon="-1.17248833">
        <ele>795.0</ele>
        <time>2019-07-31T12:16:42.181Z</time>
      </trkpt>
      <trkpt lat="42.98548167" lon="-1.17246333">
        <ele>795.0</ele>
        <time>2019-07-31T12:16:43.061Z</time>
      </trkpt>
      <trkpt lat="42.98548167" lon="-1.17244333">
        <ele>795.0</ele>
        <time>2019-07-31T12:16:44.069Z</time>
      </trkpt>
      <trkpt lat="42.98548167" lon="-1.17241333">
        <ele>794.0</ele>
        <time>2019-07-31T12:16:45.074Z</time>
      </trkpt>
      <trkpt lat="42.98547667" lon="-1.17238667">
        <ele>794.0</ele>
        <time>2019-07-31T12:16:46.079Z</time>
      </trkpt>
      <trkpt lat="42.98547667" lon="-1.17236333">
        <ele>793.0</ele>
        <time>2019-07-31T12:16:47.084Z</time>
      </trkpt>
      <trkpt lat="42.98548167" lon="-1.172345">
        <ele>793.0</ele>
        <time>2019-07-31T12:16:48.090Z</time>
      </trkpt>
      <trkpt lat="42.98549" lon="-1.17232833">
        <ele>792.0</ele>
        <time>2019-07-31T12:16:49.094Z</time>
      </trkpt>
      <trkpt lat="42.98549333" lon="-1.17231833">
        <ele>792.0</ele>
        <time>2019-07-31T12:16:50.098Z</time>
      </trkpt>
      <trkpt lat="42.985495" lon="-1.17229667">
        <ele>792.0</ele>
        <time>2019-07-31T12:16:51.102Z</time>
      </trkpt>
      <trkpt lat="42.9855" lon="-1.17227333">
        <ele>794.0</ele>
        <time>2019-07-31T12:16:52.107Z</time>
      </trkpt>
      <trkpt lat="42.98550667" lon="-1.17225833">
        <ele>794.0</ele>
        <time>2019-07-31T12:16:53.113Z</time>
      </trkpt>
      <trkpt lat="42.98551833" lon="-1.17224333">
        <ele>794.0</ele>
        <time>2019-07-31T12:16:54.117Z</time>
      </trkpt>
      <trkpt lat="42.98552667" lon="-1.17222833">
        <ele>794.0</ele>
        <time>2019-07-31T12:16:55.122Z</time>
      </trkpt>
      <trkpt lat="42.98553667" lon="-1.17221">
        <ele>793.0</ele>
        <time>2019-07-31T12:16:56.129Z</time>
      </trkpt>
      <trkpt lat="42.98554333" lon="-1.17219">
        <ele>792.0</ele>
        <time>2019-07-31T12:16:57.135Z</time>
      </trkpt>
      <trkpt lat="42.98555167" lon="-1.17217167">
        <ele>791.0</ele>
        <time>2019-07-31T12:16:58.140Z</time>
      </trkpt>
      <trkpt lat="42.98556167" lon="-1.172155">
        <ele>790.0</ele>
        <time>2019-07-31T12:16:59.146Z</time>
      </trkpt>
      <trkpt lat="42.98556667" lon="-1.17214333">
        <ele>790.0</ele>
        <time>2019-07-31T12:17:00.150Z</time>
      </trkpt>
      <trkpt lat="42.98557667" lon="-1.172125">
        <ele>789.0</ele>
        <time>2019-07-31T12:17:01.155Z</time>
      </trkpt>
      <trkpt lat="42.98558333" lon="-1.17211167">
        <ele>788.0</ele>
        <time>2019-07-31T12:17:02.159Z</time>
      </trkpt>
      <trkpt lat="42.98558833" lon="-1.172095">
        <ele>788.0</ele>
        <time>2019-07-31T12:17:03.166Z</time>
      </trkpt>
      <trkpt lat="42.98559333" lon="-1.17208167">
        <ele>788.0</ele>
        <time>2019-07-31T12:17:04.172Z</time>
      </trkpt>
      <trkpt lat="42.98559833" lon="-1.17206833">
        <ele>788.0</ele>
        <time>2019-07-31T12:17:05.178Z</time>
      </trkpt>
      <trkpt lat="42.98560167" lon="-1.172055">
        <ele>789.0</ele>
        <time>2019-07-31T12:17:06.182Z</time>
      </trkpt>
      <trkpt lat="42.985605" lon="-1.17204333">
        <ele>789.0</ele>
        <time>2019-07-31T12:17:07.061Z</time>
      </trkpt>
      <trkpt lat="42.98561167" lon="-1.17203167">
        <ele>789.0</ele>
        <time>2019-07-31T12:17:08.067Z</time>
      </trkpt>
      <trkpt lat="42.98561667" lon="-1.17202333">
        <ele>789.0</ele>
        <time>2019-07-31T12:17:09.074Z</time>
      </trkpt>
      <trkpt lat="42.98562333" lon="-1.172015">
        <ele>790.0</ele>
        <time>2019-07-31T12:17:10.079Z</time>
      </trkpt>
      <trkpt lat="42.98563" lon="-1.17201">
        <ele>790.0</ele>
        <time>2019-07-31T12:17:11.084Z</time>
      </trkpt>
      <trkpt lat="42.98563667" lon="-1.17199833">
        <ele>791.0</ele>
        <time>2019-07-31T12:17:12.085Z</time>
      </trkpt>
      <trkpt lat="42.985645" lon="-1.171985">
        <ele>791.0</ele>
        <time>2019-07-31T12:17:13.089Z</time>
      </trkpt>
      <trkpt lat="42.98565667" lon="-1.17197333">
        <ele>791.0</ele>
        <time>2019-07-31T12:17:14.093Z</time>
      </trkpt>
      <trkpt lat="42.98566667" lon="-1.17195333">
        <ele>791.0</ele>
        <time>2019-07-31T12:17:15.099Z</time>
      </trkpt>
      <trkpt lat="42.98567333" lon="-1.17193667">
        <ele>791.0</ele>
        <time>2019-07-31T12:17:16.102Z</time>
      </trkpt>
      <trkpt lat="42.98568167" lon="-1.17191667">
        <ele>791.0</ele>
        <time>2019-07-31T12:17:17.104Z</time>
      </trkpt>
      <trkpt lat="42.98569" lon="-1.17189833">
        <ele>791.0</ele>
        <time>2019-07-31T12:17:18.106Z</time>
      </trkpt>
      <trkpt lat="42.98569833" lon="-1.17188">
        <ele>791.0</ele>
        <time>2019-07-31T12:17:19.110Z</time>
      </trkpt>
      <trkpt lat="42.985705" lon="-1.171865">
        <ele>791.0</ele>
        <time>2019-07-31T12:17:20.113Z</time>
      </trkpt>
      <trkpt lat="42.985715" lon="-1.171855">
        <ele>791.0</ele>
        <time>2019-07-31T12:17:21.115Z</time>
      </trkpt>
      <trkpt lat="42.98572333" lon="-1.17183833">
        <ele>791.0</ele>
        <time>2019-07-31T12:17:22.117Z</time>
      </trkpt>
      <trkpt lat="42.98573167" lon="-1.17182333">
        <ele>790.0</ele>
        <time>2019-07-31T12:17:23.119Z</time>
      </trkpt>
      <trkpt lat="42.98574167" lon="-1.17181">
        <ele>789.0</ele>
        <time>2019-07-31T12:17:24.122Z</time>
      </trkpt>
      <trkpt lat="42.98575167" lon="-1.171795">
        <ele>788.0</ele>
        <time>2019-07-31T12:17:25.125Z</time>
      </trkpt>
      <trkpt lat="42.98575833" lon="-1.17178">
        <ele>787.0</ele>
        <time>2019-07-31T12:17:26.130Z</time>
      </trkpt>
      <trkpt lat="42.98576667" lon="-1.171765">
        <ele>787.0</ele>
        <time>2019-07-31T12:17:27.136Z</time>
      </trkpt>
      <trkpt lat="42.98577833" lon="-1.17175167">
        <ele>787.0</ele>
        <time>2019-07-31T12:17:28.141Z</time>
      </trkpt>
      <trkpt lat="42.985785" lon="-1.17173833">
        <ele>787.0</ele>
        <time>2019-07-31T12:17:29.147Z</time>
      </trkpt>
      <trkpt lat="42.985795" lon="-1.17171833">
        <ele>787.0</ele>
        <time>2019-07-31T12:17:30.153Z</time>
      </trkpt>
      <trkpt lat="42.98580333" lon="-1.1717">
        <ele>787.0</ele>
        <time>2019-07-31T12:17:31.158Z</time>
      </trkpt>
      <trkpt lat="42.98581167" lon="-1.17167667">
        <ele>787.0</ele>
        <time>2019-07-31T12:17:32.162Z</time>
      </trkpt>
      <trkpt lat="42.985825" lon="-1.17166">
        <ele>787.0</ele>
        <time>2019-07-31T12:17:33.167Z</time>
      </trkpt>
      <trkpt lat="42.98583333" lon="-1.17164667">
        <ele>786.0</ele>
        <time>2019-07-31T12:17:34.172Z</time>
      </trkpt>
      <trkpt lat="42.98584" lon="-1.17163167">
        <ele>786.0</ele>
        <time>2019-07-31T12:17:35.177Z</time>
      </trkpt>
      <trkpt lat="42.98585167" lon="-1.171615">
        <ele>787.0</ele>
        <time>2019-07-31T12:17:36.183Z</time>
      </trkpt>
      <trkpt lat="42.98586167" lon="-1.17159833">
        <ele>787.0</ele>
        <time>2019-07-31T12:17:37.063Z</time>
      </trkpt>
      <trkpt lat="42.98587333" lon="-1.17158167">
        <ele>788.0</ele>
        <time>2019-07-31T12:17:38.069Z</time>
      </trkpt>
      <trkpt lat="42.985885" lon="-1.17156333">
        <ele>788.0</ele>
        <time>2019-07-31T12:17:39.074Z</time>
      </trkpt>
      <trkpt lat="42.985895" lon="-1.17154667">
        <ele>788.0</ele>
        <time>2019-07-31T12:17:40.078Z</time>
      </trkpt>
      <trkpt lat="42.98590667" lon="-1.17152333">
        <ele>788.0</ele>
        <time>2019-07-31T12:17:41.084Z</time>
      </trkpt>
      <trkpt lat="42.98591667" lon="-1.17151167">
        <ele>786.0</ele>
        <time>2019-07-31T12:17:42.088Z</time>
      </trkpt>
      <trkpt lat="42.98592667" lon="-1.17149167">
        <ele>786.0</ele>
        <time>2019-07-31T12:17:43.093Z</time>
      </trkpt>
      <trkpt lat="42.98593333" lon="-1.17147167">
        <ele>786.0</ele>
        <time>2019-07-31T12:17:44.098Z</time>
      </trkpt>
      <trkpt lat="42.98594" lon="-1.17145167">
        <ele>786.0</ele>
        <time>2019-07-31T12:17:45.105Z</time>
      </trkpt>
      <trkpt lat="42.98594667" lon="-1.17144">
        <ele>786.0</ele>
        <time>2019-07-31T12:17:46.111Z</time>
      </trkpt>
      <trkpt lat="42.985955" lon="-1.17142167">
        <ele>784.0</ele>
        <time>2019-07-31T12:17:47.117Z</time>
      </trkpt>
      <trkpt lat="42.98596833" lon="-1.17140833">
        <ele>784.0</ele>
        <time>2019-07-31T12:17:48.122Z</time>
      </trkpt>
      <trkpt lat="42.98597667" lon="-1.17139667">
        <ele>785.0</ele>
        <time>2019-07-31T12:17:49.127Z</time>
      </trkpt>
      <trkpt lat="42.98599" lon="-1.17138167">
        <ele>785.0</ele>
        <time>2019-07-31T12:17:50.133Z</time>
      </trkpt>
      <trkpt lat="42.98600333" lon="-1.17137167">
        <ele>785.0</ele>
        <time>2019-07-31T12:17:51.140Z</time>
      </trkpt>
      <trkpt lat="42.98601333" lon="-1.17136">
        <ele>785.0</ele>
        <time>2019-07-31T12:17:52.145Z</time>
      </trkpt>
      <trkpt lat="42.98602333" lon="-1.171345">
        <ele>785.0</ele>
        <time>2019-07-31T12:17:53.151Z</time>
      </trkpt>
      <trkpt lat="42.986035" lon="-1.17132833">
        <ele>785.0</ele>
        <time>2019-07-31T12:17:54.154Z</time>
      </trkpt>
      <trkpt lat="42.98604833" lon="-1.17131">
        <ele>785.0</ele>
        <time>2019-07-31T12:17:55.160Z</time>
      </trkpt>
      <trkpt lat="42.986055" lon="-1.171295">
        <ele>785.0</ele>
        <time>2019-07-31T12:17:56.166Z</time>
      </trkpt>
      <trkpt lat="42.98606667" lon="-1.17127667">
        <ele>785.0</ele>
        <time>2019-07-31T12:17:57.173Z</time>
      </trkpt>
      <trkpt lat="42.98607833" lon="-1.17126167">
        <ele>785.0</ele>
        <time>2019-07-31T12:17:58.178Z</time>
      </trkpt>
      <trkpt lat="42.98608833" lon="-1.17124333">
        <ele>786.0</ele>
        <time>2019-07-31T12:17:59.183Z</time>
      </trkpt>
      <trkpt lat="42.986095" lon="-1.171225">
        <ele>786.0</ele>
        <time>2019-07-31T12:18:00.062Z</time>
      </trkpt>
      <trkpt lat="42.9861" lon="-1.17121333">
        <ele>787.0</ele>
        <time>2019-07-31T12:18:01.067Z</time>
      </trkpt>
      <trkpt lat="42.98611167" lon="-1.171195">
        <ele>787.0</ele>
        <time>2019-07-31T12:18:02.073Z</time>
      </trkpt>
      <trkpt lat="42.98612167" lon="-1.171185">
        <ele>787.0</ele>
        <time>2019-07-31T12:18:03.076Z</time>
      </trkpt>
      <trkpt lat="42.98613333" lon="-1.17116833">
        <ele>788.0</ele>
        <time>2019-07-31T12:18:04.081Z</time>
      </trkpt>
      <trkpt lat="42.98614333" lon="-1.17115167">
        <ele>788.0</ele>
        <time>2019-07-31T12:18:05.085Z</time>
      </trkpt>
      <trkpt lat="42.98615333" lon="-1.171135">
        <ele>788.0</ele>
        <time>2019-07-31T12:18:06.088Z</time>
      </trkpt>
      <trkpt lat="42.98616333" lon="-1.17112">
        <ele>788.0</ele>
        <time>2019-07-31T12:18:07.093Z</time>
      </trkpt>
      <trkpt lat="42.98617167" lon="-1.17109833">
        <ele>789.0</ele>
        <time>2019-07-31T12:18:08.101Z</time>
      </trkpt>
      <trkpt lat="42.98617833" lon="-1.171085">
        <ele>789.0</ele>
        <time>2019-07-31T12:18:09.107Z</time>
      </trkpt>
      <trkpt lat="42.986185" lon="-1.171065">
        <ele>789.0</ele>
        <time>2019-07-31T12:18:10.112Z</time>
      </trkpt>
      <trkpt lat="42.98619333" lon="-1.17104833">
        <ele>790.0</ele>
        <time>2019-07-31T12:18:11.117Z</time>
      </trkpt>
      <trkpt lat="42.98620333" lon="-1.17103167">
        <ele>790.0</ele>
        <time>2019-07-31T12:18:12.121Z</time>
      </trkpt>
      <trkpt lat="42.98621167" lon="-1.171015">
        <ele>790.0</ele>
        <time>2019-07-31T12:18:13.127Z</time>
      </trkpt>
      <trkpt lat="42.98622167" lon="-1.17099333">
        <ele>790.0</ele>
        <time>2019-07-31T12:18:14.131Z</time>
      </trkpt>
      <trkpt lat="42.98622833" lon="-1.17097833">
        <ele>790.0</ele>
        <time>2019-07-31T12:18:15.134Z</time>
      </trkpt>
      <trkpt lat="42.98623167" lon="-1.17096167">
        <ele>791.0</ele>
        <time>2019-07-31T12:18:16.140Z</time>
      </trkpt>
      <trkpt lat="42.98623667" lon="-1.170945">
        <ele>792.0</ele>
        <time>2019-07-31T12:18:17.146Z</time>
      </trkpt>
      <trkpt lat="42.98624333" lon="-1.17093">
        <ele>792.0</ele>
        <time>2019-07-31T12:18:18.149Z</time>
      </trkpt>
      <trkpt lat="42.98624833" lon="-1.17091333">
        <ele>792.0</ele>
        <time>2019-07-31T12:18:19.155Z</time>
      </trkpt>
      <trkpt lat="42.98625167" lon="-1.170895">
        <ele>792.0</ele>
        <time>2019-07-31T12:18:20.160Z</time>
      </trkpt>
      <trkpt lat="42.98625667" lon="-1.17088167">
        <ele>792.0</ele>
        <time>2019-07-31T12:18:21.165Z</time>
      </trkpt>
      <trkpt lat="42.98626333" lon="-1.170865">
        <ele>792.0</ele>
        <time>2019-07-31T12:18:22.173Z</time>
      </trkpt>
      <trkpt lat="42.986265" lon="-1.170855">
        <ele>793.0</ele>
        <time>2019-07-31T12:18:23.180Z</time>
      </trkpt>
      <trkpt lat="42.98627167" lon="-1.17084167">
        <ele>793.0</ele>
        <time>2019-07-31T12:18:24.184Z</time>
      </trkpt>
      <trkpt lat="42.986275" lon="-1.170825">
        <ele>793.0</ele>
        <time>2019-07-31T12:18:25.064Z</time>
      </trkpt>
      <trkpt lat="42.98628" lon="-1.17081167">
        <ele>793.0</ele>
        <time>2019-07-31T12:18:26.068Z</time>
      </trkpt>
      <trkpt lat="42.98628167" lon="-1.170795">
        <ele>793.0</ele>
        <time>2019-07-31T12:18:27.073Z</time>
      </trkpt>
      <trkpt lat="42.98628167" lon="-1.17077333">
        <ele>792.0</ele>
        <time>2019-07-31T12:18:28.078Z</time>
      </trkpt>
      <trkpt lat="42.98628333" lon="-1.170755">
        <ele>792.0</ele>
        <time>2019-07-31T12:18:29.084Z</time>
      </trkpt>
      <trkpt lat="42.98628667" lon="-1.170735">
        <ele>792.0</ele>
        <time>2019-07-31T12:18:30.091Z</time>
      </trkpt>
      <trkpt lat="42.98629" lon="-1.17071667">
        <ele>792.0</ele>
        <time>2019-07-31T12:18:31.097Z</time>
      </trkpt>
      <trkpt lat="42.98629333" lon="-1.17069833">
        <ele>792.0</ele>
        <time>2019-07-31T12:18:32.103Z</time>
      </trkpt>
      <trkpt lat="42.98629667" lon="-1.17068333">
        <ele>792.0</ele>
        <time>2019-07-31T12:18:33.109Z</time>
      </trkpt>
      <trkpt lat="42.98630167" lon="-1.170665">
        <ele>792.0</ele>
        <time>2019-07-31T12:18:34.115Z</time>
      </trkpt>
      <trkpt lat="42.98630333" lon="-1.17064667">
        <ele>792.0</ele>
        <time>2019-07-31T12:18:35.119Z</time>
      </trkpt>
      <trkpt lat="42.98630167" lon="-1.17063">
        <ele>792.0</ele>
        <time>2019-07-31T12:18:36.124Z</time>
      </trkpt>
      <trkpt lat="42.9863" lon="-1.17061167">
        <ele>793.0</ele>
        <time>2019-07-31T12:18:37.130Z</time>
      </trkpt>
      <trkpt lat="42.9863" lon="-1.17059333">
        <ele>793.0</ele>
        <time>2019-07-31T12:18:38.137Z</time>
      </trkpt>
      <trkpt lat="42.9863" lon="-1.17058">
        <ele>794.0</ele>
        <time>2019-07-31T12:18:39.143Z</time>
      </trkpt>
      <trkpt lat="42.986305" lon="-1.17055667">
        <ele>793.0</ele>
        <time>2019-07-31T12:18:40.149Z</time>
      </trkpt>
      <trkpt lat="42.98630833" lon="-1.17053">
        <ele>793.0</ele>
        <time>2019-07-31T12:18:41.154Z</time>
      </trkpt>
      <trkpt lat="42.98631" lon="-1.17051">
        <ele>793.0</ele>
        <time>2019-07-31T12:18:42.160Z</time>
      </trkpt>
      <trkpt lat="42.98631833" lon="-1.17048833">
        <ele>792.0</ele>
        <time>2019-07-31T12:18:43.166Z</time>
      </trkpt>
      <trkpt lat="42.98632333" lon="-1.17046667">
        <ele>791.0</ele>
        <time>2019-07-31T12:18:44.171Z</time>
      </trkpt>
      <trkpt lat="42.986325" lon="-1.17044833">
        <ele>790.0</ele>
        <time>2019-07-31T12:18:45.176Z</time>
      </trkpt>
      <trkpt lat="42.986325" lon="-1.17042667">
        <ele>790.0</ele>
        <time>2019-07-31T12:18:46.181Z</time>
      </trkpt>
      <trkpt lat="42.98632667" lon="-1.170405">
        <ele>790.0</ele>
        <time>2019-07-31T12:18:47.061Z</time>
      </trkpt>
      <trkpt lat="42.98632667" lon="-1.170385">
        <ele>790.0</ele>
        <time>2019-07-31T12:18:48.068Z</time>
      </trkpt>
      <trkpt lat="42.986325" lon="-1.17036667">
        <ele>790.0</ele>
        <time>2019-07-31T12:18:49.074Z</time>
      </trkpt>
      <trkpt lat="42.98632667" lon="-1.170345">
        <ele>790.0</ele>
        <time>2019-07-31T12:18:50.077Z</time>
      </trkpt>
      <trkpt lat="42.98633" lon="-1.17032333">
        <ele>789.0</ele>
        <time>2019-07-31T12:18:51.082Z</time>
      </trkpt>
      <trkpt lat="42.98633667" lon="-1.17030333">
        <ele>788.0</ele>
        <time>2019-07-31T12:18:52.086Z</time>
      </trkpt>
      <trkpt lat="42.98634167" lon="-1.17028167">
        <ele>787.0</ele>
        <time>2019-07-31T12:18:53.090Z</time>
      </trkpt>
      <trkpt lat="42.986345" lon="-1.17025667">
        <ele>786.0</ele>
        <time>2019-07-31T12:18:54.095Z</time>
      </trkpt>
      <trkpt lat="42.98634833" lon="-1.17023333">
        <ele>786.0</ele>
        <time>2019-07-31T12:18:55.099Z</time>
      </trkpt>
      <trkpt lat="42.98634833" lon="-1.17021833">
        <ele>785.0</ele>
        <time>2019-07-31T12:18:56.104Z</time>
      </trkpt>
      <trkpt lat="42.98634833" lon="-1.1702">
        <ele>785.0</ele>
        <time>2019-07-31T12:18:57.107Z</time>
      </trkpt>
      <trkpt lat="42.98634833" lon="-1.17018167">
        <ele>784.0</ele>
        <time>2019-07-31T12:18:58.112Z</time>
      </trkpt>
      <trkpt lat="42.98635" lon="-1.17016167">
        <ele>783.0</ele>
        <time>2019-07-31T12:18:59.117Z</time>
      </trkpt>
      <trkpt lat="42.986345" lon="-1.170135">
        <ele>783.0</ele>
        <time>2019-07-31T12:19:00.122Z</time>
      </trkpt>
      <trkpt lat="42.98634" lon="-1.17012">
        <ele>783.0</ele>
        <time>2019-07-31T12:19:01.128Z</time>
      </trkpt>
      <trkpt lat="42.98633167" lon="-1.1701">
        <ele>783.0</ele>
        <time>2019-07-31T12:19:02.135Z</time>
      </trkpt>
      <trkpt lat="42.986325" lon="-1.17008333">
        <ele>783.0</ele>
        <time>2019-07-31T12:19:03.139Z</time>
      </trkpt>
      <trkpt lat="42.98632333" lon="-1.170065">
        <ele>782.0</ele>
        <time>2019-07-31T12:19:04.144Z</time>
      </trkpt>
      <trkpt lat="42.98632" lon="-1.170045">
        <ele>782.0</ele>
        <time>2019-07-31T12:19:05.148Z</time>
      </trkpt>
      <trkpt lat="42.986315" lon="-1.17002667">
        <ele>782.0</ele>
        <time>2019-07-31T12:19:06.154Z</time>
      </trkpt>
      <trkpt lat="42.98631333" lon="-1.17000833">
        <ele>782.0</ele>
        <time>2019-07-31T12:19:07.159Z</time>
      </trkpt>
      <trkpt lat="42.98631" lon="-1.16998333">
        <ele>782.0</ele>
        <time>2019-07-31T12:19:08.166Z</time>
      </trkpt>
      <trkpt lat="42.98631" lon="-1.16996667">
        <ele>781.0</ele>
        <time>2019-07-31T12:19:09.172Z</time>
      </trkpt>
      <trkpt lat="42.98631" lon="-1.16995167">
        <ele>781.0</ele>
        <time>2019-07-31T12:19:10.176Z</time>
      </trkpt>
      <trkpt lat="42.98631" lon="-1.169935">
        <ele>781.0</ele>
        <time>2019-07-31T12:19:11.182Z</time>
      </trkpt>
      <trkpt lat="42.98631167" lon="-1.16991833">
        <ele>781.0</ele>
        <time>2019-07-31T12:19:12.063Z</time>
      </trkpt>
      <trkpt lat="42.98630833" lon="-1.16989667">
        <ele>781.0</ele>
        <time>2019-07-31T12:19:13.069Z</time>
      </trkpt>
      <trkpt lat="42.986305" lon="-1.16987833">
        <ele>781.0</ele>
        <time>2019-07-31T12:19:14.074Z</time>
      </trkpt>
      <trkpt lat="42.98629833" lon="-1.16986">
        <ele>782.0</ele>
        <time>2019-07-31T12:19:15.079Z</time>
      </trkpt>
      <trkpt lat="42.98629" lon="-1.16984833">
        <ele>783.0</ele>
        <time>2019-07-31T12:19:16.085Z</time>
      </trkpt>
      <trkpt lat="42.986285" lon="-1.16983">
        <ele>783.0</ele>
        <time>2019-07-31T12:19:17.091Z</time>
      </trkpt>
      <trkpt lat="42.98627833" lon="-1.169815">
        <ele>784.0</ele>
        <time>2019-07-31T12:19:18.096Z</time>
      </trkpt>
      <trkpt lat="42.98627" lon="-1.1698">
        <ele>786.0</ele>
        <time>2019-07-31T12:19:19.100Z</time>
      </trkpt>
      <trkpt lat="42.98625833" lon="-1.169785">
        <ele>787.0</ele>
        <time>2019-07-31T12:19:20.107Z</time>
      </trkpt>
      <trkpt lat="42.98625167" lon="-1.16976833">
        <ele>788.0</ele>
        <time>2019-07-31T12:19:21.113Z</time>
      </trkpt>
      <trkpt lat="42.98624" lon="-1.16974667">
        <ele>789.0</ele>
        <time>2019-07-31T12:19:22.118Z</time>
      </trkpt>
      <trkpt lat="42.98623667" lon="-1.16972833">
        <ele>789.0</ele>
        <time>2019-07-31T12:19:23.123Z</time>
      </trkpt>
      <trkpt lat="42.98622833" lon="-1.1697">
        <ele>788.0</ele>
        <time>2019-07-31T12:19:24.129Z</time>
      </trkpt>
      <trkpt lat="42.98622833" lon="-1.16968167">
        <ele>788.0</ele>
        <time>2019-07-31T12:19:25.134Z</time>
      </trkpt>
      <trkpt lat="42.98622667" lon="-1.16966167">
        <ele>788.0</ele>
        <time>2019-07-31T12:19:26.140Z</time>
      </trkpt>
      <trkpt lat="42.986225" lon="-1.169635">
        <ele>787.0</ele>
        <time>2019-07-31T12:19:27.145Z</time>
      </trkpt>
      <trkpt lat="42.98622333" lon="-1.16961333">
        <ele>787.0</ele>
        <time>2019-07-31T12:19:28.149Z</time>
      </trkpt>
      <trkpt lat="42.98622" lon="-1.16959333">
        <ele>786.0</ele>
        <time>2019-07-31T12:19:29.153Z</time>
      </trkpt>
      <trkpt lat="42.98621333" lon="-1.16957833">
        <ele>787.0</ele>
        <time>2019-07-31T12:19:30.159Z</time>
      </trkpt>
      <trkpt lat="42.98621" lon="-1.16956167">
        <ele>787.0</ele>
        <time>2019-07-31T12:19:31.162Z</time>
      </trkpt>
      <trkpt lat="42.986205" lon="-1.169545">
        <ele>787.0</ele>
        <time>2019-07-31T12:19:32.168Z</time>
      </trkpt>
      <trkpt lat="42.9862" lon="-1.169525">
        <ele>787.0</ele>
        <time>2019-07-31T12:19:33.175Z</time>
      </trkpt>
      <trkpt lat="42.98619667" lon="-1.16951">
        <ele>787.0</ele>
        <time>2019-07-31T12:19:34.180Z</time>
      </trkpt>
      <trkpt lat="42.98618833" lon="-1.16949">
        <ele>787.0</ele>
        <time>2019-07-31T12:19:35.185Z</time>
      </trkpt>
      <trkpt lat="42.98618" lon="-1.16946833">
        <ele>788.0</ele>
        <time>2019-07-31T12:19:36.065Z</time>
      </trkpt>
      <trkpt lat="42.98617167" lon="-1.16944667">
        <ele>788.0</ele>
        <time>2019-07-31T12:19:37.067Z</time>
      </trkpt>
      <trkpt lat="42.98616167" lon="-1.16942833">
        <ele>789.0</ele>
        <time>2019-07-31T12:19:38.071Z</time>
      </trkpt>
      <trkpt lat="42.986155" lon="-1.16940833">
        <ele>789.0</ele>
        <time>2019-07-31T12:19:39.075Z</time>
      </trkpt>
      <trkpt lat="42.98615" lon="-1.16939333">
        <ele>790.0</ele>
        <time>2019-07-31T12:19:40.079Z</time>
      </trkpt>
      <trkpt lat="42.98614167" lon="-1.16937333">
        <ele>790.0</ele>
        <time>2019-07-31T12:19:41.083Z</time>
      </trkpt>
      <trkpt lat="42.98613667" lon="-1.169355">
        <ele>790.0</ele>
        <time>2019-07-31T12:19:42.088Z</time>
      </trkpt>
      <trkpt lat="42.98613" lon="-1.16933667">
        <ele>791.0</ele>
        <time>2019-07-31T12:19:43.093Z</time>
      </trkpt>
      <trkpt lat="42.98612667" lon="-1.16932333">
        <ele>791.0</ele>
        <time>2019-07-31T12:19:44.099Z</time>
      </trkpt>
      <trkpt lat="42.98612167" lon="-1.16931">
        <ele>791.0</ele>
        <time>2019-07-31T12:19:45.102Z</time>
      </trkpt>
      <trkpt lat="42.98611833" lon="-1.16928833">
        <ele>791.0</ele>
        <time>2019-07-31T12:19:46.105Z</time>
      </trkpt>
      <trkpt lat="42.98611667" lon="-1.16926833">
        <ele>790.0</ele>
        <time>2019-07-31T12:19:47.110Z</time>
      </trkpt>
      <trkpt lat="42.98611" lon="-1.16924833">
        <ele>790.0</ele>
        <time>2019-07-31T12:19:48.114Z</time>
      </trkpt>
      <trkpt lat="42.98610667" lon="-1.16923333">
        <ele>789.0</ele>
        <time>2019-07-31T12:19:49.117Z</time>
      </trkpt>
      <trkpt lat="42.98609833" lon="-1.16921833">
        <ele>789.0</ele>
        <time>2019-07-31T12:19:50.121Z</time>
      </trkpt>
      <trkpt lat="42.98609167" lon="-1.16920333">
        <ele>789.0</ele>
        <time>2019-07-31T12:19:51.123Z</time>
      </trkpt>
      <trkpt lat="42.98608333" lon="-1.16918833">
        <ele>789.0</ele>
        <time>2019-07-31T12:19:52.128Z</time>
      </trkpt>
      <trkpt lat="42.98607333" lon="-1.16917667">
        <ele>789.0</ele>
        <time>2019-07-31T12:19:53.135Z</time>
      </trkpt>
      <trkpt lat="42.98606667" lon="-1.16916833">
        <ele>789.0</ele>
        <time>2019-07-31T12:19:54.141Z</time>
      </trkpt>
      <trkpt lat="42.98605833" lon="-1.16915333">
        <ele>788.0</ele>
        <time>2019-07-31T12:19:55.145Z</time>
      </trkpt>
      <trkpt lat="42.98605667" lon="-1.169145">
        <ele>788.0</ele>
        <time>2019-07-31T12:19:56.148Z</time>
      </trkpt>
      <trkpt lat="42.98604667" lon="-1.169135">
        <ele>788.0</ele>
        <time>2019-07-31T12:19:57.151Z</time>
      </trkpt>
      <trkpt lat="42.98603667" lon="-1.169125">
        <ele>787.0</ele>
        <time>2019-07-31T12:19:58.157Z</time>
      </trkpt>
      <trkpt lat="42.98602833" lon="-1.16911667">
        <ele>788.0</ele>
        <time>2019-07-31T12:19:59.160Z</time>
      </trkpt>
      <trkpt lat="42.98601833" lon="-1.16911">
        <ele>788.0</ele>
        <time>2019-07-31T12:20:00.166Z</time>
      </trkpt>
      <trkpt lat="42.98601167" lon="-1.16910333">
        <ele>788.0</ele>
        <time>2019-07-31T12:20:01.169Z</time>
      </trkpt>
      <trkpt lat="42.98600833" lon="-1.1691">
        <ele>789.0</ele>
        <time>2019-07-31T12:20:02.174Z</time>
      </trkpt>
      <trkpt lat="42.98600333" lon="-1.16909667">
        <ele>789.0</ele>
        <time>2019-07-31T12:20:03.179Z</time>
      </trkpt>
      <trkpt lat="42.98599667" lon="-1.16909333">
        <ele>789.0</ele>
        <time>2019-07-31T12:20:04.183Z</time>
      </trkpt>
      <trkpt lat="42.98598" lon="-1.169085">
        <ele>790.0</ele>
        <time>2019-07-31T12:20:05.063Z</time>
      </trkpt>
      <trkpt lat="42.98596833" lon="-1.16908">
        <ele>790.0</ele>
        <time>2019-07-31T12:20:06.068Z</time>
      </trkpt>
      <trkpt lat="42.98595667" lon="-1.169075">
        <ele>790.0</ele>
        <time>2019-07-31T12:20:07.074Z</time>
      </trkpt>
      <trkpt lat="42.98594833" lon="-1.16906667">
        <ele>790.0</ele>
        <time>2019-07-31T12:20:08.079Z</time>
      </trkpt>
      <trkpt lat="42.98594167" lon="-1.16905833">
        <ele>790.0</ele>
        <time>2019-07-31T12:20:09.084Z</time>
      </trkpt>
      <trkpt lat="42.98593833" lon="-1.16905">
        <ele>790.0</ele>
        <time>2019-07-31T12:20:10.089Z</time>
      </trkpt>
      <trkpt lat="42.98593167" lon="-1.16903833">
        <ele>791.0</ele>
        <time>2019-07-31T12:20:11.094Z</time>
      </trkpt>
      <trkpt lat="42.98592667" lon="-1.16902667">
        <ele>791.0</ele>
        <time>2019-07-31T12:20:12.099Z</time>
      </trkpt>
      <trkpt lat="42.98591833" lon="-1.16901667">
        <ele>792.0</ele>
        <time>2019-07-31T12:20:13.104Z</time>
      </trkpt>
      <trkpt lat="42.98591167" lon="-1.169">
        <ele>792.0</ele>
        <time>2019-07-31T12:20:14.110Z</time>
      </trkpt>
      <trkpt lat="42.985905" lon="-1.16898333">
        <ele>792.0</ele>
        <time>2019-07-31T12:20:15.116Z</time>
      </trkpt>
      <trkpt lat="42.9859" lon="-1.16897">
        <ele>792.0</ele>
        <time>2019-07-31T12:20:16.122Z</time>
      </trkpt>
      <trkpt lat="42.985895" lon="-1.16896">
        <ele>791.0</ele>
        <time>2019-07-31T12:20:17.129Z</time>
      </trkpt>
      <trkpt lat="42.98589" lon="-1.16895">
        <ele>791.0</ele>
        <time>2019-07-31T12:20:18.135Z</time>
      </trkpt>
      <trkpt lat="42.98588167" lon="-1.16893833">
        <ele>791.0</ele>
        <time>2019-07-31T12:20:19.139Z</time>
      </trkpt>
      <trkpt lat="42.98587" lon="-1.16892167">
        <ele>791.0</ele>
        <time>2019-07-31T12:20:20.142Z</time>
      </trkpt>
      <trkpt lat="42.98586167" lon="-1.16890833">
        <ele>791.0</ele>
        <time>2019-07-31T12:20:21.144Z</time>
      </trkpt>
      <trkpt lat="42.98584667" lon="-1.16889167">
        <ele>791.0</ele>
        <time>2019-07-31T12:20:22.148Z</time>
      </trkpt>
      <trkpt lat="42.98583333" lon="-1.16887833">
        <ele>791.0</ele>
        <time>2019-07-31T12:20:23.155Z</time>
      </trkpt>
      <trkpt lat="42.98582333" lon="-1.16886333">
        <ele>791.0</ele>
        <time>2019-07-31T12:20:24.160Z</time>
      </trkpt>
      <trkpt lat="42.98581667" lon="-1.16885167">
        <ele>791.0</ele>
        <time>2019-07-31T12:20:25.167Z</time>
      </trkpt>
      <trkpt lat="42.98580833" lon="-1.16884">
        <ele>790.0</ele>
        <time>2019-07-31T12:20:26.173Z</time>
      </trkpt>
      <trkpt lat="42.98580167" lon="-1.16883333">
        <ele>790.0</ele>
        <time>2019-07-31T12:20:27.181Z</time>
      </trkpt>
      <trkpt lat="42.98579333" lon="-1.16881833">
        <ele>789.0</ele>
        <time>2019-07-31T12:20:28.185Z</time>
      </trkpt>
      <trkpt lat="42.985785" lon="-1.16880667">
        <ele>788.0</ele>
        <time>2019-07-31T12:20:29.064Z</time>
      </trkpt>
      <trkpt lat="42.98577333" lon="-1.16879333">
        <ele>788.0</ele>
        <time>2019-07-31T12:20:30.065Z</time>
      </trkpt>
      <trkpt lat="42.98576333" lon="-1.16878">
        <ele>789.0</ele>
        <time>2019-07-31T12:20:31.066Z</time>
      </trkpt>
      <trkpt lat="42.98575" lon="-1.16876333">
        <ele>790.0</ele>
        <time>2019-07-31T12:20:32.068Z</time>
      </trkpt>
      <trkpt lat="42.98573333" lon="-1.16874833">
        <ele>791.0</ele>
        <time>2019-07-31T12:20:33.070Z</time>
      </trkpt>
      <trkpt lat="42.98572333" lon="-1.16872667">
        <ele>791.0</ele>
        <time>2019-07-31T12:20:34.071Z</time>
      </trkpt>
      <trkpt lat="42.98571333" lon="-1.16871">
        <ele>791.0</ele>
        <time>2019-07-31T12:20:35.076Z</time>
      </trkpt>
      <trkpt lat="42.9857" lon="-1.16869833">
        <ele>791.0</ele>
        <time>2019-07-31T12:20:36.082Z</time>
      </trkpt>
      <trkpt lat="42.985685" lon="-1.16868667">
        <ele>791.0</ele>
        <time>2019-07-31T12:20:37.089Z</time>
      </trkpt>
      <trkpt lat="42.98567167" lon="-1.16867167">
        <ele>791.0</ele>
        <time>2019-07-31T12:20:38.089Z</time>
      </trkpt>
      <trkpt lat="42.98566167" lon="-1.16866">
        <ele>792.0</ele>
        <time>2019-07-31T12:20:39.091Z</time>
      </trkpt>
      <trkpt lat="42.98565" lon="-1.168645">
        <ele>791.0</ele>
        <time>2019-07-31T12:20:40.094Z</time>
      </trkpt>
      <trkpt lat="42.98563833" lon="-1.16863333">
        <ele>790.0</ele>
        <time>2019-07-31T12:20:41.101Z</time>
      </trkpt>
      <trkpt lat="42.98563167" lon="-1.16861333">
        <ele>790.0</ele>
        <time>2019-07-31T12:20:42.105Z</time>
      </trkpt>
      <trkpt lat="42.98562167" lon="-1.16859833">
        <ele>789.0</ele>
        <time>2019-07-31T12:20:43.105Z</time>
      </trkpt>
      <trkpt lat="42.985615" lon="-1.16859">
        <ele>789.0</ele>
        <time>2019-07-31T12:20:44.109Z</time>
      </trkpt>
      <trkpt lat="42.98560333" lon="-1.16857333">
        <ele>789.0</ele>
        <time>2019-07-31T12:20:45.117Z</time>
      </trkpt>
      <trkpt lat="42.98559667" lon="-1.16856333">
        <ele>789.0</ele>
        <time>2019-07-31T12:20:46.121Z</time>
      </trkpt>
      <trkpt lat="42.985585" lon="-1.16854833">
        <ele>790.0</ele>
        <time>2019-07-31T12:20:47.128Z</time>
      </trkpt>
      <trkpt lat="42.98557833" lon="-1.16853">
        <ele>791.0</ele>
        <time>2019-07-31T12:20:48.134Z</time>
      </trkpt>
      <trkpt lat="42.98556667" lon="-1.16851333">
        <ele>792.0</ele>
        <time>2019-07-31T12:20:49.139Z</time>
      </trkpt>
      <trkpt lat="42.98555667" lon="-1.16849833">
        <ele>793.0</ele>
        <time>2019-07-31T12:20:50.140Z</time>
      </trkpt>
      <trkpt lat="42.985545" lon="-1.168485">
        <ele>793.0</ele>
        <time>2019-07-31T12:20:51.143Z</time>
      </trkpt>
      <trkpt lat="42.98553333" lon="-1.16846667">
        <ele>793.0</ele>
        <time>2019-07-31T12:20:52.146Z</time>
      </trkpt>
      <trkpt lat="42.98552167" lon="-1.16844667">
        <ele>793.0</ele>
        <time>2019-07-31T12:20:53.150Z</time>
      </trkpt>
      <trkpt lat="42.98551333" lon="-1.16843167">
        <ele>793.0</ele>
        <time>2019-07-31T12:20:54.154Z</time>
      </trkpt>
      <trkpt lat="42.98550667" lon="-1.168415">
        <ele>793.0</ele>
        <time>2019-07-31T12:20:55.159Z</time>
      </trkpt>
      <trkpt lat="42.98549667" lon="-1.16839833">
        <ele>793.0</ele>
        <time>2019-07-31T12:20:56.166Z</time>
      </trkpt>
      <trkpt lat="42.98549167" lon="-1.16838333">
        <ele>793.0</ele>
        <time>2019-07-31T12:20:57.174Z</time>
      </trkpt>
      <trkpt lat="42.98549333" lon="-1.16837">
        <ele>793.0</ele>
        <time>2019-07-31T12:20:58.180Z</time>
      </trkpt>
      <trkpt lat="42.98549167" lon="-1.16835">
        <ele>793.0</ele>
        <time>2019-07-31T12:20:59.185Z</time>
      </trkpt>
      <trkpt lat="42.98549" lon="-1.16833333">
        <ele>793.0</ele>
        <time>2019-07-31T12:21:00.065Z</time>
      </trkpt>
      <trkpt lat="42.98548333" lon="-1.16832">
        <ele>794.0</ele>
        <time>2019-07-31T12:21:01.071Z</time>
      </trkpt>
      <trkpt lat="42.985475" lon="-1.16829833">
        <ele>794.0</ele>
        <time>2019-07-31T12:21:02.076Z</time>
      </trkpt>
      <trkpt lat="42.98545667" lon="-1.16827667">
        <ele>795.0</ele>
        <time>2019-07-31T12:21:03.080Z</time>
      </trkpt>
      <trkpt lat="42.98544333" lon="-1.16826333">
        <ele>795.0</ele>
        <time>2019-07-31T12:21:04.085Z</time>
      </trkpt>
      <trkpt lat="42.98543167" lon="-1.16825167">
        <ele>795.0</ele>
        <time>2019-07-31T12:21:05.091Z</time>
      </trkpt>
      <trkpt lat="42.98541" lon="-1.16823">
        <ele>796.0</ele>
        <time>2019-07-31T12:21:06.097Z</time>
      </trkpt>
      <trkpt lat="42.98539167" lon="-1.16821833">
        <ele>795.0</ele>
        <time>2019-07-31T12:21:07.104Z</time>
      </trkpt>
      <trkpt lat="42.98537" lon="-1.168205">
        <ele>795.0</ele>
        <time>2019-07-31T12:21:08.109Z</time>
      </trkpt>
      <trkpt lat="42.98535833" lon="-1.16818833">
        <ele>795.0</ele>
        <time>2019-07-31T12:21:09.113Z</time>
      </trkpt>
      <trkpt lat="42.98534833" lon="-1.16817333">
        <ele>795.0</ele>
        <time>2019-07-31T12:21:10.118Z</time>
      </trkpt>
      <trkpt lat="42.98533167" lon="-1.16815833">
        <ele>795.0</ele>
        <time>2019-07-31T12:21:11.125Z</time>
      </trkpt>
      <trkpt lat="42.98531833" lon="-1.16815">
        <ele>795.0</ele>
        <time>2019-07-31T12:21:12.131Z</time>
      </trkpt>
      <trkpt lat="42.985305" lon="-1.16813833">
        <ele>794.0</ele>
        <time>2019-07-31T12:21:13.135Z</time>
      </trkpt>
      <trkpt lat="42.98529333" lon="-1.16812333">
        <ele>794.0</ele>
        <time>2019-07-31T12:21:14.139Z</time>
      </trkpt>
      <trkpt lat="42.98528667" lon="-1.16811167">
        <ele>793.0</ele>
        <time>2019-07-31T12:21:15.144Z</time>
      </trkpt>
      <trkpt lat="42.98527667" lon="-1.168095">
        <ele>792.0</ele>
        <time>2019-07-31T12:21:16.150Z</time>
      </trkpt>
      <trkpt lat="42.98527" lon="-1.16808">
        <ele>791.0</ele>
        <time>2019-07-31T12:21:17.156Z</time>
      </trkpt>
      <trkpt lat="42.98526" lon="-1.16807167">
        <ele>791.0</ele>
        <time>2019-07-31T12:21:18.160Z</time>
      </trkpt>
      <trkpt lat="42.98524667" lon="-1.168055">
        <ele>790.0</ele>
        <time>2019-07-31T12:21:19.165Z</time>
      </trkpt>
      <trkpt lat="42.98524" lon="-1.16804">
        <ele>790.0</ele>
        <time>2019-07-31T12:21:20.170Z</time>
      </trkpt>
      <trkpt lat="42.98523833" lon="-1.16803333">
        <ele>789.0</ele>
        <time>2019-07-31T12:21:21.177Z</time>
      </trkpt>
      <trkpt lat="42.98523167" lon="-1.16801667">
        <ele>790.0</ele>
        <time>2019-07-31T12:21:22.183Z</time>
      </trkpt>
      <trkpt lat="42.98522333" lon="-1.16800333">
        <ele>791.0</ele>
        <time>2019-07-31T12:21:23.064Z</time>
      </trkpt>
      <trkpt lat="42.98522" lon="-1.16799">
        <ele>791.0</ele>
        <time>2019-07-31T12:21:24.069Z</time>
      </trkpt>
      <trkpt lat="42.98521" lon="-1.16797333">
        <ele>792.0</ele>
        <time>2019-07-31T12:21:25.075Z</time>
      </trkpt>
      <trkpt lat="42.9852" lon="-1.16795833">
        <ele>792.0</ele>
        <time>2019-07-31T12:21:26.080Z</time>
      </trkpt>
      <trkpt lat="42.985195" lon="-1.16794">
        <ele>792.0</ele>
        <time>2019-07-31T12:21:27.085Z</time>
      </trkpt>
      <trkpt lat="42.98519333" lon="-1.16792833">
        <ele>792.0</ele>
        <time>2019-07-31T12:21:28.092Z</time>
      </trkpt>
      <trkpt lat="42.98519333" lon="-1.167915">
        <ele>791.0</ele>
        <time>2019-07-31T12:21:29.097Z</time>
      </trkpt>
      <trkpt lat="42.98519333" lon="-1.1679">
        <ele>791.0</ele>
        <time>2019-07-31T12:21:30.102Z</time>
      </trkpt>
      <trkpt lat="42.98519333" lon="-1.16788667">
        <ele>790.0</ele>
        <time>2019-07-31T12:21:31.107Z</time>
      </trkpt>
      <trkpt lat="42.985195" lon="-1.16787667">
        <ele>789.0</ele>
        <time>2019-07-31T12:21:32.113Z</time>
      </trkpt>
      <trkpt lat="42.985195" lon="-1.16787">
        <ele>789.0</ele>
        <time>2019-07-31T12:21:33.117Z</time>
      </trkpt>
      <trkpt lat="42.9852" lon="-1.16785833">
        <ele>788.0</ele>
        <time>2019-07-31T12:21:34.123Z</time>
      </trkpt>
      <trkpt lat="42.98519333" lon="-1.167845">
        <ele>787.0</ele>
        <time>2019-07-31T12:21:35.127Z</time>
      </trkpt>
      <trkpt lat="42.985185" lon="-1.16783167">
        <ele>788.0</ele>
        <time>2019-07-31T12:21:36.132Z</time>
      </trkpt>
      <trkpt lat="42.98518" lon="-1.16782333">
        <ele>788.0</ele>
        <time>2019-07-31T12:21:37.139Z</time>
      </trkpt>
      <trkpt lat="42.98517667" lon="-1.16781333">
        <ele>787.0</ele>
        <time>2019-07-31T12:21:38.146Z</time>
      </trkpt>
      <trkpt lat="42.985175" lon="-1.167805">
        <ele>787.0</ele>
        <time>2019-07-31T12:21:39.152Z</time>
      </trkpt>
      <trkpt lat="42.98517167" lon="-1.16779167">
        <ele>787.0</ele>
        <time>2019-07-31T12:21:40.158Z</time>
      </trkpt>
      <trkpt lat="42.98517" lon="-1.16777333">
        <ele>787.0</ele>
        <time>2019-07-31T12:21:41.162Z</time>
      </trkpt>
      <trkpt lat="42.98516667" lon="-1.16775667">
        <ele>788.0</ele>
        <time>2019-07-31T12:21:42.168Z</time>
      </trkpt>
      <trkpt lat="42.98516" lon="-1.16774167">
        <ele>787.0</ele>
        <time>2019-07-31T12:21:43.174Z</time>
      </trkpt>
      <trkpt lat="42.98515" lon="-1.167725">
        <ele>788.0</ele>
        <time>2019-07-31T12:21:44.178Z</time>
      </trkpt>
      <trkpt lat="42.98515" lon="-1.16770833">
        <ele>788.0</ele>
        <time>2019-07-31T12:21:45.184Z</time>
      </trkpt>
      <trkpt lat="42.98514833" lon="-1.16769833">
        <ele>789.0</ele>
        <time>2019-07-31T12:21:46.063Z</time>
      </trkpt>
      <trkpt lat="42.98514333" lon="-1.16768667">
        <ele>789.0</ele>
        <time>2019-07-31T12:21:47.070Z</time>
      </trkpt>
      <trkpt lat="42.98514" lon="-1.16767167">
        <ele>789.0</ele>
        <time>2019-07-31T12:21:48.076Z</time>
      </trkpt>
      <trkpt lat="42.98513" lon="-1.167655">
        <ele>789.0</ele>
        <time>2019-07-31T12:21:49.083Z</time>
      </trkpt>
      <trkpt lat="42.98512167" lon="-1.16764333">
        <ele>790.0</ele>
        <time>2019-07-31T12:21:50.088Z</time>
      </trkpt>
      <trkpt lat="42.985115" lon="-1.16763">
        <ele>791.0</ele>
        <time>2019-07-31T12:21:51.093Z</time>
      </trkpt>
      <trkpt lat="42.98510667" lon="-1.167615">
        <ele>791.0</ele>
        <time>2019-07-31T12:21:52.099Z</time>
      </trkpt>
      <trkpt lat="42.9851" lon="-1.16759667">
        <ele>792.0</ele>
        <time>2019-07-31T12:21:53.104Z</time>
      </trkpt>
      <trkpt lat="42.98509167" lon="-1.16758167">
        <ele>792.0</ele>
        <time>2019-07-31T12:21:54.108Z</time>
      </trkpt>
      <trkpt lat="42.985085" lon="-1.16756333">
        <ele>792.0</ele>
        <time>2019-07-31T12:21:55.114Z</time>
      </trkpt>
      <trkpt lat="42.98507833" lon="-1.16754167">
        <ele>793.0</ele>
        <time>2019-07-31T12:21:56.120Z</time>
      </trkpt>
      <trkpt lat="42.98507333" lon="-1.16752667">
        <ele>793.0</ele>
        <time>2019-07-31T12:21:57.126Z</time>
      </trkpt>
      <trkpt lat="42.98506667" lon="-1.16751">
        <ele>793.0</ele>
        <time>2019-07-31T12:21:58.132Z</time>
      </trkpt>
      <trkpt lat="42.985055" lon="-1.16749167">
        <ele>795.0</ele>
        <time>2019-07-31T12:21:59.139Z</time>
      </trkpt>
      <trkpt lat="42.98503833" lon="-1.16747833">
        <ele>796.0</ele>
        <time>2019-07-31T12:22:00.144Z</time>
      </trkpt>
      <trkpt lat="42.98503" lon="-1.16746333">
        <ele>797.0</ele>
        <time>2019-07-31T12:22:01.148Z</time>
      </trkpt>
      <trkpt lat="42.98502667" lon="-1.167455">
        <ele>798.0</ele>
        <time>2019-07-31T12:22:02.153Z</time>
      </trkpt>
      <trkpt lat="42.98502167" lon="-1.16744">
        <ele>798.0</ele>
        <time>2019-07-31T12:22:03.159Z</time>
      </trkpt>
      <trkpt lat="42.98501833" lon="-1.16742667">
        <ele>798.0</ele>
        <time>2019-07-31T12:22:04.163Z</time>
      </trkpt>
      <trkpt lat="42.985025" lon="-1.16741">
        <ele>798.0</ele>
        <time>2019-07-31T12:22:05.169Z</time>
      </trkpt>
      <trkpt lat="42.98503167" lon="-1.167395">
        <ele>799.0</ele>
        <time>2019-07-31T12:22:06.175Z</time>
      </trkpt>
      <trkpt lat="42.98503167" lon="-1.167385">
        <ele>799.0</ele>
        <time>2019-07-31T12:22:07.180Z</time>
      </trkpt>
      <trkpt lat="42.98502667" lon="-1.16737167">
        <ele>799.0</ele>
        <time>2019-07-31T12:22:08.185Z</time>
      </trkpt>
      <trkpt lat="42.985025" lon="-1.16736333">
        <ele>799.0</ele>
        <time>2019-07-31T12:22:09.064Z</time>
      </trkpt>
      <trkpt lat="42.985025" lon="-1.16735167">
        <ele>800.0</ele>
        <time>2019-07-31T12:22:10.069Z</time>
      </trkpt>
      <trkpt lat="42.98502667" lon="-1.16734">
        <ele>800.0</ele>
        <time>2019-07-31T12:22:11.075Z</time>
      </trkpt>
      <trkpt lat="42.98502833" lon="-1.16733167">
        <ele>799.0</ele>
        <time>2019-07-31T12:22:12.080Z</time>
      </trkpt>
      <trkpt lat="42.985035" lon="-1.16731833">
        <ele>799.0</ele>
        <time>2019-07-31T12:22:13.084Z</time>
      </trkpt>
      <trkpt lat="42.98503333" lon="-1.16730667">
        <ele>798.0</ele>
        <time>2019-07-31T12:22:14.090Z</time>
      </trkpt>
      <trkpt lat="42.98503667" lon="-1.16729833">
        <ele>798.0</ele>
        <time>2019-07-31T12:22:15.093Z</time>
      </trkpt>
      <trkpt lat="42.98504167" lon="-1.16728667">
        <ele>797.0</ele>
        <time>2019-07-31T12:22:16.098Z</time>
      </trkpt>
      <trkpt lat="42.985045" lon="-1.16727667">
        <ele>796.0</ele>
        <time>2019-07-31T12:22:17.102Z</time>
      </trkpt>
      <trkpt lat="42.98504333" lon="-1.16726667">
        <ele>795.0</ele>
        <time>2019-07-31T12:22:18.109Z</time>
      </trkpt>
      <trkpt lat="42.98503667" lon="-1.16725333">
        <ele>795.0</ele>
        <time>2019-07-31T12:22:19.115Z</time>
      </trkpt>
      <trkpt lat="42.98503333" lon="-1.16724">
        <ele>795.0</ele>
        <time>2019-07-31T12:22:20.119Z</time>
      </trkpt>
      <trkpt lat="42.98502833" lon="-1.167225">
        <ele>794.0</ele>
        <time>2019-07-31T12:22:21.124Z</time>
      </trkpt>
      <trkpt lat="42.98503" lon="-1.16720333">
        <ele>794.0</ele>
        <time>2019-07-31T12:22:22.129Z</time>
      </trkpt>
      <trkpt lat="42.98502833" lon="-1.167185">
        <ele>794.0</ele>
        <time>2019-07-31T12:22:23.132Z</time>
      </trkpt>
      <trkpt lat="42.98503" lon="-1.16716333">
        <ele>794.0</ele>
        <time>2019-07-31T12:22:24.137Z</time>
      </trkpt>
      <trkpt lat="42.98503333" lon="-1.16714167">
        <ele>794.0</ele>
        <time>2019-07-31T12:22:25.145Z</time>
      </trkpt>
      <trkpt lat="42.98503333" lon="-1.16712333">
        <ele>794.0</ele>
        <time>2019-07-31T12:22:26.150Z</time>
      </trkpt>
      <trkpt lat="42.98503667" lon="-1.16710167">
        <ele>793.0</ele>
        <time>2019-07-31T12:22:27.155Z</time>
      </trkpt>
      <trkpt lat="42.98504" lon="-1.16708167">
        <ele>792.0</ele>
        <time>2019-07-31T12:22:28.160Z</time>
      </trkpt>
      <trkpt lat="42.98504667" lon="-1.167065">
        <ele>792.0</ele>
        <time>2019-07-31T12:22:29.166Z</time>
      </trkpt>
      <trkpt lat="42.98504833" lon="-1.16705333">
        <ele>792.0</ele>
        <time>2019-07-31T12:22:30.172Z</time>
      </trkpt>
      <trkpt lat="42.98505167" lon="-1.167045">
        <ele>793.0</ele>
        <time>2019-07-31T12:22:31.177Z</time>
      </trkpt>
      <trkpt lat="42.98505333" lon="-1.16703667">
        <ele>794.0</ele>
        <time>2019-07-31T12:22:32.183Z</time>
      </trkpt>
      <trkpt lat="42.98505333" lon="-1.16702333">
        <ele>795.0</ele>
        <time>2019-07-31T12:22:33.061Z</time>
      </trkpt>
      <trkpt lat="42.98505" lon="-1.16701167">
        <ele>796.0</ele>
        <time>2019-07-31T12:22:34.066Z</time>
      </trkpt>
      <trkpt lat="42.98505167" lon="-1.16699667">
        <ele>796.0</ele>
        <time>2019-07-31T12:22:35.071Z</time>
      </trkpt>
      <trkpt lat="42.98504833" lon="-1.16697667">
        <ele>797.0</ele>
        <time>2019-07-31T12:22:36.077Z</time>
      </trkpt>
      <trkpt lat="42.98504667" lon="-1.16696167">
        <ele>798.0</ele>
        <time>2019-07-31T12:22:37.081Z</time>
      </trkpt>
      <trkpt lat="42.98505167" lon="-1.16694667">
        <ele>798.0</ele>
        <time>2019-07-31T12:22:38.086Z</time>
      </trkpt>
      <trkpt lat="42.98505167" lon="-1.16693333">
        <ele>797.0</ele>
        <time>2019-07-31T12:22:39.091Z</time>
      </trkpt>
      <trkpt lat="42.98505167" lon="-1.16691333">
        <ele>798.0</ele>
        <time>2019-07-31T12:22:40.097Z</time>
      </trkpt>
      <trkpt lat="42.98505833" lon="-1.166895">
        <ele>798.0</ele>
        <time>2019-07-31T12:22:41.102Z</time>
      </trkpt>
      <trkpt lat="42.98506" lon="-1.166875">
        <ele>797.0</ele>
        <time>2019-07-31T12:22:42.107Z</time>
      </trkpt>
      <trkpt lat="42.98505833" lon="-1.16685167">
        <ele>797.0</ele>
        <time>2019-07-31T12:22:43.111Z</time>
      </trkpt>
      <trkpt lat="42.98505667" lon="-1.16683667">
        <ele>797.0</ele>
        <time>2019-07-31T12:22:44.117Z</time>
      </trkpt>
      <trkpt lat="42.98505167" lon="-1.166815">
        <ele>798.0</ele>
        <time>2019-07-31T12:22:45.120Z</time>
      </trkpt>
      <trkpt lat="42.98505333" lon="-1.16680167">
        <ele>796.0</ele>
        <time>2019-07-31T12:22:46.123Z</time>
      </trkpt>
      <trkpt lat="42.98506" lon="-1.16678833">
        <ele>796.0</ele>
        <time>2019-07-31T12:22:47.127Z</time>
      </trkpt>
      <trkpt lat="42.985065" lon="-1.16676667">
        <ele>795.0</ele>
        <time>2019-07-31T12:22:48.131Z</time>
      </trkpt>
      <trkpt lat="42.98506833" lon="-1.16674667">
        <ele>795.0</ele>
        <time>2019-07-31T12:22:49.137Z</time>
      </trkpt>
      <trkpt lat="42.985075" lon="-1.16672167">
        <ele>795.0</ele>
        <time>2019-07-31T12:22:50.143Z</time>
      </trkpt>
      <trkpt lat="42.98508167" lon="-1.16670667">
        <ele>794.0</ele>
        <time>2019-07-31T12:22:51.148Z</time>
      </trkpt>
      <trkpt lat="42.98508667" lon="-1.16669333">
        <ele>792.0</ele>
        <time>2019-07-31T12:22:52.153Z</time>
      </trkpt>
      <trkpt lat="42.985095" lon="-1.16668333">
        <ele>791.0</ele>
        <time>2019-07-31T12:22:53.159Z</time>
      </trkpt>
      <trkpt lat="42.985095" lon="-1.16667167">
        <ele>791.0</ele>
        <time>2019-07-31T12:22:54.161Z</time>
      </trkpt>
      <trkpt lat="42.98509167" lon="-1.16665667">
        <ele>790.0</ele>
        <time>2019-07-31T12:22:55.166Z</time>
      </trkpt>
      <trkpt lat="42.98508667" lon="-1.16664333">
        <ele>791.0</ele>
        <time>2019-07-31T12:22:56.169Z</time>
      </trkpt>
      <trkpt lat="42.98508" lon="-1.16662">
        <ele>792.0</ele>
        <time>2019-07-31T12:22:57.173Z</time>
      </trkpt>
      <trkpt lat="42.98507" lon="-1.16659833">
        <ele>791.0</ele>
        <time>2019-07-31T12:22:58.177Z</time>
      </trkpt>
      <trkpt lat="42.98506" lon="-1.16658167">
        <ele>791.0</ele>
        <time>2019-07-31T12:22:59.184Z</time>
      </trkpt>
      <trkpt lat="42.98504667" lon="-1.16656833">
        <ele>792.0</ele>
        <time>2019-07-31T12:23:00.065Z</time>
      </trkpt>
      <trkpt lat="42.98504667" lon="-1.16655">
        <ele>793.0</ele>
        <time>2019-07-31T12:23:01.072Z</time>
      </trkpt>
      <trkpt lat="42.98504667" lon="-1.16653833">
        <ele>793.0</ele>
        <time>2019-07-31T12:23:02.078Z</time>
      </trkpt>
      <trkpt lat="42.98504167" lon="-1.16652">
        <ele>793.0</ele>
        <time>2019-07-31T12:23:03.084Z</time>
      </trkpt>
      <trkpt lat="42.98503333" lon="-1.166505">
        <ele>794.0</ele>
        <time>2019-07-31T12:23:04.090Z</time>
      </trkpt>
      <trkpt lat="42.985035" lon="-1.16648">
        <ele>794.0</ele>
        <time>2019-07-31T12:23:05.094Z</time>
      </trkpt>
      <trkpt lat="42.98503333" lon="-1.16645333">
        <ele>794.0</ele>
        <time>2019-07-31T12:23:06.098Z</time>
      </trkpt>
      <trkpt lat="42.985035" lon="-1.16643">
        <ele>794.0</ele>
        <time>2019-07-31T12:23:07.102Z</time>
      </trkpt>
      <trkpt lat="42.985035" lon="-1.16640833">
        <ele>793.0</ele>
        <time>2019-07-31T12:23:08.107Z</time>
      </trkpt>
      <trkpt lat="42.98503667" lon="-1.16639167">
        <ele>792.0</ele>
        <time>2019-07-31T12:23:09.114Z</time>
      </trkpt>
      <trkpt lat="42.98503667" lon="-1.16637167">
        <ele>791.0</ele>
        <time>2019-07-31T12:23:10.119Z</time>
      </trkpt>
      <trkpt lat="42.98503833" lon="-1.16635167">
        <ele>791.0</ele>
        <time>2019-07-31T12:23:11.125Z</time>
      </trkpt>
      <trkpt lat="42.98504167" lon="-1.16632833">
        <ele>790.0</ele>
        <time>2019-07-31T12:23:12.130Z</time>
      </trkpt>
      <trkpt lat="42.98504333" lon="-1.16631333">
        <ele>789.0</ele>
        <time>2019-07-31T12:23:13.137Z</time>
      </trkpt>
      <trkpt lat="42.98505" lon="-1.166295">
        <ele>789.0</ele>
        <time>2019-07-31T12:23:14.143Z</time>
      </trkpt>
      <trkpt lat="42.985055" lon="-1.166275">
        <ele>788.0</ele>
        <time>2019-07-31T12:23:15.147Z</time>
      </trkpt>
      <trkpt lat="42.98506" lon="-1.16625833">
        <ele>787.0</ele>
        <time>2019-07-31T12:23:16.152Z</time>
      </trkpt>
      <trkpt lat="42.98506833" lon="-1.16623833">
        <ele>786.0</ele>
        <time>2019-07-31T12:23:17.158Z</time>
      </trkpt>
      <trkpt lat="42.98507667" lon="-1.166225">
        <ele>785.0</ele>
        <time>2019-07-31T12:23:18.161Z</time>
      </trkpt>
      <trkpt lat="42.98508167" lon="-1.166205">
        <ele>785.0</ele>
        <time>2019-07-31T12:23:19.166Z</time>
      </trkpt>
      <trkpt lat="42.98508167" lon="-1.16618833">
        <ele>785.0</ele>
        <time>2019-07-31T12:23:20.173Z</time>
      </trkpt>
      <trkpt lat="42.98508167" lon="-1.16616833">
        <ele>784.0</ele>
        <time>2019-07-31T12:23:21.179Z</time>
      </trkpt>
      <trkpt lat="42.98508" lon="-1.16615667">
        <ele>783.0</ele>
        <time>2019-07-31T12:23:22.183Z</time>
      </trkpt>
      <trkpt lat="42.98508167" lon="-1.16614167">
        <ele>782.0</ele>
        <time>2019-07-31T12:23:23.063Z</time>
      </trkpt>
      <trkpt lat="42.98508" lon="-1.16613">
        <ele>781.0</ele>
        <time>2019-07-31T12:23:24.069Z</time>
      </trkpt>
      <trkpt lat="42.98507833" lon="-1.16611667">
        <ele>780.0</ele>
        <time>2019-07-31T12:23:25.074Z</time>
      </trkpt>
      <trkpt lat="42.98507667" lon="-1.16610333">
        <ele>780.0</ele>
        <time>2019-07-31T12:23:26.079Z</time>
      </trkpt>
      <trkpt lat="42.98507333" lon="-1.16609167">
        <ele>780.0</ele>
        <time>2019-07-31T12:23:27.085Z</time>
      </trkpt>
      <trkpt lat="42.98507167" lon="-1.16607833">
        <ele>780.0</ele>
        <time>2019-07-31T12:23:28.089Z</time>
      </trkpt>
      <trkpt lat="42.98506833" lon="-1.16606333">
        <ele>780.0</ele>
        <time>2019-07-31T12:23:29.094Z</time>
      </trkpt>
      <trkpt lat="42.98506667" lon="-1.16604833">
        <ele>779.0</ele>
        <time>2019-07-31T12:23:30.098Z</time>
      </trkpt>
      <trkpt lat="42.98506" lon="-1.16603833">
        <ele>780.0</ele>
        <time>2019-07-31T12:23:31.105Z</time>
      </trkpt>
      <trkpt lat="42.985055" lon="-1.16602667">
        <ele>780.0</ele>
        <time>2019-07-31T12:23:32.111Z</time>
      </trkpt>
      <trkpt lat="42.98505167" lon="-1.16601333">
        <ele>780.0</ele>
        <time>2019-07-31T12:23:33.117Z</time>
      </trkpt>
      <trkpt lat="42.98505167" lon="-1.16600333">
        <ele>780.0</ele>
        <time>2019-07-31T12:23:34.123Z</time>
      </trkpt>
      <trkpt lat="42.98505" lon="-1.16599167">
        <ele>779.0</ele>
        <time>2019-07-31T12:23:35.129Z</time>
      </trkpt>
      <trkpt lat="42.98504833" lon="-1.16598">
        <ele>778.0</ele>
        <time>2019-07-31T12:23:36.134Z</time>
      </trkpt>
      <trkpt lat="42.98505" lon="-1.16596667">
        <ele>778.0</ele>
        <time>2019-07-31T12:23:37.139Z</time>
      </trkpt>
      <trkpt lat="42.98505333" lon="-1.16595667">
        <ele>777.0</ele>
        <time>2019-07-31T12:23:38.144Z</time>
      </trkpt>
      <trkpt lat="42.985055" lon="-1.16594">
        <ele>778.0</ele>
        <time>2019-07-31T12:23:39.149Z</time>
      </trkpt>
      <trkpt lat="42.98505833" lon="-1.16592833">
        <ele>778.0</ele>
        <time>2019-07-31T12:23:40.154Z</time>
      </trkpt>
      <trkpt lat="42.98505833" lon="-1.165915">
        <ele>779.0</ele>
        <time>2019-07-31T12:23:41.159Z</time>
      </trkpt>
      <trkpt lat="42.98506167" lon="-1.1659">
        <ele>779.0</ele>
        <time>2019-07-31T12:23:42.164Z</time>
      </trkpt>
      <trkpt lat="42.98506167" lon="-1.16588667">
        <ele>779.0</ele>
        <time>2019-07-31T12:23:43.168Z</time>
      </trkpt>
      <trkpt lat="42.98506" lon="-1.165875">
        <ele>779.0</ele>
        <time>2019-07-31T12:23:44.175Z</time>
      </trkpt>
      <trkpt lat="42.985065" lon="-1.16586">
        <ele>777.0</ele>
        <time>2019-07-31T12:23:45.181Z</time>
      </trkpt>
      <trkpt lat="42.98507" lon="-1.16584833">
        <ele>777.0</ele>
        <time>2019-07-31T12:23:46.184Z</time>
      </trkpt>
      <trkpt lat="42.98507333" lon="-1.165835">
        <ele>778.0</ele>
        <time>2019-07-31T12:23:47.064Z</time>
      </trkpt>
      <trkpt lat="42.98507" lon="-1.16583167">
        <ele>779.0</ele>
        <time>2019-07-31T12:23:48.071Z</time>
      </trkpt>
      <trkpt lat="42.98507333" lon="-1.16581833">
        <ele>779.0</ele>
        <time>2019-07-31T12:23:49.076Z</time>
      </trkpt>
      <trkpt lat="42.98507667" lon="-1.16580667">
        <ele>778.0</ele>
        <time>2019-07-31T12:23:50.081Z</time>
      </trkpt>
      <trkpt lat="42.98508" lon="-1.165795">
        <ele>778.0</ele>
        <time>2019-07-31T12:23:51.085Z</time>
      </trkpt>
      <trkpt lat="42.98508167" lon="-1.16578">
        <ele>778.0</ele>
        <time>2019-07-31T12:23:52.089Z</time>
      </trkpt>
      <trkpt lat="42.985075" lon="-1.16576333">
        <ele>777.0</ele>
        <time>2019-07-31T12:23:53.094Z</time>
      </trkpt>
      <trkpt lat="42.98506667" lon="-1.16574667">
        <ele>777.0</ele>
        <time>2019-07-31T12:23:54.100Z</time>
      </trkpt>
      <trkpt lat="42.98506667" lon="-1.16572667">
        <ele>778.0</ele>
        <time>2019-07-31T12:23:55.106Z</time>
      </trkpt>
      <trkpt lat="42.98506333" lon="-1.16571">
        <ele>778.0</ele>
        <time>2019-07-31T12:23:56.112Z</time>
      </trkpt>
      <trkpt lat="42.98506333" lon="-1.16568833">
        <ele>778.0</ele>
        <time>2019-07-31T12:23:57.117Z</time>
      </trkpt>
      <trkpt lat="42.98506167" lon="-1.16567">
        <ele>779.0</ele>
        <time>2019-07-31T12:23:58.122Z</time>
      </trkpt>
      <trkpt lat="42.98506" lon="-1.16565667">
        <ele>779.0</ele>
        <time>2019-07-31T12:23:59.128Z</time>
      </trkpt>
      <trkpt lat="42.98505667" lon="-1.165645">
        <ele>777.0</ele>
        <time>2019-07-31T12:24:00.133Z</time>
      </trkpt>
      <trkpt lat="42.98505" lon="-1.16562833">
        <ele>777.0</ele>
        <time>2019-07-31T12:24:01.139Z</time>
      </trkpt>
      <trkpt lat="42.98504833" lon="-1.16561167">
        <ele>776.0</ele>
        <time>2019-07-31T12:24:02.146Z</time>
      </trkpt>
      <trkpt lat="42.98504667" lon="-1.165595">
        <ele>775.0</ele>
        <time>2019-07-31T12:24:03.150Z</time>
      </trkpt>
      <trkpt lat="42.985045" lon="-1.16557667">
        <ele>773.0</ele>
        <time>2019-07-31T12:24:04.156Z</time>
      </trkpt>
      <trkpt lat="42.98504667" lon="-1.16555833">
        <ele>772.0</ele>
        <time>2019-07-31T12:24:05.162Z</time>
      </trkpt>
      <trkpt lat="42.98504667" lon="-1.16553833">
        <ele>772.0</ele>
        <time>2019-07-31T12:24:06.167Z</time>
      </trkpt>
      <trkpt lat="42.98504333" lon="-1.165515">
        <ele>772.0</ele>
        <time>2019-07-31T12:24:07.173Z</time>
      </trkpt>
      <trkpt lat="42.98503667" lon="-1.16549833">
        <ele>771.0</ele>
        <time>2019-07-31T12:24:08.177Z</time>
      </trkpt>
      <trkpt lat="42.98503333" lon="-1.16548">
        <ele>772.0</ele>
        <time>2019-07-31T12:24:09.182Z</time>
      </trkpt>
      <trkpt lat="42.98503167" lon="-1.16546167">
        <ele>771.0</ele>
        <time>2019-07-31T12:24:10.062Z</time>
      </trkpt>
      <trkpt lat="42.98503" lon="-1.165445">
        <ele>772.0</ele>
        <time>2019-07-31T12:24:11.069Z</time>
      </trkpt>
      <trkpt lat="42.98502833" lon="-1.16543">
        <ele>773.0</ele>
        <time>2019-07-31T12:24:12.075Z</time>
      </trkpt>
      <trkpt lat="42.98502833" lon="-1.16541">
        <ele>772.0</ele>
        <time>2019-07-31T12:24:13.079Z</time>
      </trkpt>
      <trkpt lat="42.98502833" lon="-1.16539833">
        <ele>772.0</ele>
        <time>2019-07-31T12:24:14.085Z</time>
      </trkpt>
      <trkpt lat="42.98503333" lon="-1.16538333">
        <ele>772.0</ele>
        <time>2019-07-31T12:24:15.091Z</time>
      </trkpt>
      <trkpt lat="42.98504" lon="-1.16537">
        <ele>771.0</ele>
        <time>2019-07-31T12:24:16.098Z</time>
      </trkpt>
      <trkpt lat="42.985045" lon="-1.165355">
        <ele>771.0</ele>
        <time>2019-07-31T12:24:17.105Z</time>
      </trkpt>
      <trkpt lat="42.98505167" lon="-1.16533667">
        <ele>770.0</ele>
        <time>2019-07-31T12:24:18.111Z</time>
      </trkpt>
      <trkpt lat="42.98504833" lon="-1.16532167">
        <ele>770.0</ele>
        <time>2019-07-31T12:24:19.117Z</time>
      </trkpt>
      <trkpt lat="42.98504667" lon="-1.16531">
        <ele>770.0</ele>
        <time>2019-07-31T12:24:20.121Z</time>
      </trkpt>
      <trkpt lat="42.98504333" lon="-1.1653">
        <ele>771.0</ele>
        <time>2019-07-31T12:24:21.126Z</time>
      </trkpt>
      <trkpt lat="42.98503667" lon="-1.165285">
        <ele>770.0</ele>
        <time>2019-07-31T12:24:22.131Z</time>
      </trkpt>
      <trkpt lat="42.985035" lon="-1.16526833">
        <ele>770.0</ele>
        <time>2019-07-31T12:24:23.136Z</time>
      </trkpt>
      <trkpt lat="42.98503333" lon="-1.16525">
        <ele>770.0</ele>
        <time>2019-07-31T12:24:24.143Z</time>
      </trkpt>
      <trkpt lat="42.98503" lon="-1.16522833">
        <ele>771.0</ele>
        <time>2019-07-31T12:24:25.149Z</time>
      </trkpt>
      <trkpt lat="42.98503" lon="-1.16521167">
        <ele>771.0</ele>
        <time>2019-07-31T12:24:26.156Z</time>
      </trkpt>
      <trkpt lat="42.98503" lon="-1.165195">
        <ele>771.0</ele>
        <time>2019-07-31T12:24:27.161Z</time>
      </trkpt>
      <trkpt lat="42.98503333" lon="-1.16517667">
        <ele>770.0</ele>
        <time>2019-07-31T12:24:28.166Z</time>
      </trkpt>
      <trkpt lat="42.98503667" lon="-1.16515667">
        <ele>770.0</ele>
        <time>2019-07-31T12:24:29.172Z</time>
      </trkpt>
      <trkpt lat="42.98503667" lon="-1.16513333">
        <ele>769.0</ele>
        <time>2019-07-31T12:24:30.177Z</time>
      </trkpt>
      <trkpt lat="42.98503667" lon="-1.16511833">
        <ele>769.0</ele>
        <time>2019-07-31T12:24:31.183Z</time>
      </trkpt>
      <trkpt lat="42.98503333" lon="-1.16509833">
        <ele>769.0</ele>
        <time>2019-07-31T12:24:32.065Z</time>
      </trkpt>
      <trkpt lat="42.98503333" lon="-1.16508333">
        <ele>769.0</ele>
        <time>2019-07-31T12:24:33.070Z</time>
      </trkpt>
      <trkpt lat="42.98503" lon="-1.165065">
        <ele>769.0</ele>
        <time>2019-07-31T12:24:34.075Z</time>
      </trkpt>
      <trkpt lat="42.98502167" lon="-1.16504667">
        <ele>769.0</ele>
        <time>2019-07-31T12:24:35.081Z</time>
      </trkpt>
      <trkpt lat="42.98501833" lon="-1.16502833">
        <ele>770.0</ele>
        <time>2019-07-31T12:24:36.086Z</time>
      </trkpt>
      <trkpt lat="42.98500667" lon="-1.16500667">
        <ele>770.0</ele>
        <time>2019-07-31T12:24:37.094Z</time>
      </trkpt>
      <trkpt lat="42.984995" lon="-1.16499167">
        <ele>770.0</ele>
        <time>2019-07-31T12:24:38.100Z</time>
      </trkpt>
      <trkpt lat="42.98499167" lon="-1.16497333">
        <ele>770.0</ele>
        <time>2019-07-31T12:24:39.105Z</time>
      </trkpt>
      <trkpt lat="42.98499333" lon="-1.16495833">
        <ele>770.0</ele>
        <time>2019-07-31T12:24:40.110Z</time>
      </trkpt>
      <trkpt lat="42.98499833" lon="-1.164945">
        <ele>769.0</ele>
        <time>2019-07-31T12:24:41.116Z</time>
      </trkpt>
      <trkpt lat="42.985005" lon="-1.16493167">
        <ele>768.0</ele>
        <time>2019-07-31T12:24:42.119Z</time>
      </trkpt>
      <trkpt lat="42.98501167" lon="-1.16492333">
        <ele>767.0</ele>
        <time>2019-07-31T12:24:43.124Z</time>
      </trkpt>
      <trkpt lat="42.98501833" lon="-1.16491667">
        <ele>768.0</ele>
        <time>2019-07-31T12:24:44.129Z</time>
      </trkpt>
      <trkpt lat="42.98502333" lon="-1.16491333">
        <ele>769.0</ele>
        <time>2019-07-31T12:24:45.135Z</time>
      </trkpt>
      <trkpt lat="42.98502833" lon="-1.16491">
        <ele>770.0</ele>
        <time>2019-07-31T12:24:46.138Z</time>
      </trkpt>
      <trkpt lat="42.98503833" lon="-1.16490833">
        <ele>771.0</ele>
        <time>2019-07-31T12:24:47.142Z</time>
      </trkpt>
      <trkpt lat="42.98504333" lon="-1.16490667">
        <ele>773.0</ele>
        <time>2019-07-31T12:24:48.149Z</time>
      </trkpt>
      <trkpt lat="42.98505167" lon="-1.16490167">
        <ele>773.0</ele>
        <time>2019-07-31T12:24:49.153Z</time>
      </trkpt>
      <trkpt lat="42.98505833" lon="-1.164895">
        <ele>775.0</ele>
        <time>2019-07-31T12:24:50.155Z</time>
      </trkpt>
      <trkpt lat="42.98506333" lon="-1.16488833">
        <ele>776.0</ele>
        <time>2019-07-31T12:24:51.161Z</time>
      </trkpt>
      <trkpt lat="42.98507" lon="-1.16488167">
        <ele>777.0</ele>
        <time>2019-07-31T12:24:52.167Z</time>
      </trkpt>
      <trkpt lat="42.98507167" lon="-1.16487667">
        <ele>778.0</ele>
        <time>2019-07-31T12:24:53.172Z</time>
      </trkpt>
      <trkpt lat="42.98507167" lon="-1.16487">
        <ele>779.0</ele>
        <time>2019-07-31T12:24:54.177Z</time>
      </trkpt>
      <trkpt lat="42.98507333" lon="-1.164865">
        <ele>780.0</ele>
        <time>2019-07-31T12:24:55.183Z</time>
      </trkpt>
      <trkpt lat="42.98507333" lon="-1.16485333">
        <ele>780.0</ele>
        <time>2019-07-31T12:24:56.062Z</time>
      </trkpt>
      <trkpt lat="42.98507167" lon="-1.16483833">
        <ele>781.0</ele>
        <time>2019-07-31T12:24:57.069Z</time>
      </trkpt>
      <trkpt lat="42.98507" lon="-1.16482167">
        <ele>782.0</ele>
        <time>2019-07-31T12:24:58.075Z</time>
      </trkpt>
      <trkpt lat="42.98506667" lon="-1.16481">
        <ele>783.0</ele>
        <time>2019-07-31T12:24:59.080Z</time>
      </trkpt>
      <trkpt lat="42.98506" lon="-1.16479667">
        <ele>784.0</ele>
        <time>2019-07-31T12:25:00.086Z</time>
      </trkpt>
      <trkpt lat="42.985055" lon="-1.164785">
        <ele>785.0</ele>
        <time>2019-07-31T12:25:01.091Z</time>
      </trkpt>
      <trkpt lat="42.98505" lon="-1.16477833">
        <ele>786.0</ele>
        <time>2019-07-31T12:25:02.098Z</time>
      </trkpt>
      <trkpt lat="42.98504167" lon="-1.16477">
        <ele>787.0</ele>
        <time>2019-07-31T12:25:03.105Z</time>
      </trkpt>
      <trkpt lat="42.98503667" lon="-1.16476167">
        <ele>788.0</ele>
        <time>2019-07-31T12:25:04.110Z</time>
      </trkpt>
      <trkpt lat="42.985035" lon="-1.164755">
        <ele>789.0</ele>
        <time>2019-07-31T12:25:05.117Z</time>
      </trkpt>
      <trkpt lat="42.98503" lon="-1.16474667">
        <ele>790.0</ele>
        <time>2019-07-31T12:25:06.122Z</time>
      </trkpt>
      <trkpt lat="42.98502167" lon="-1.16474167">
        <ele>790.0</ele>
        <time>2019-07-31T12:25:07.128Z</time>
      </trkpt>
      <trkpt lat="42.98501833" lon="-1.164735">
        <ele>791.0</ele>
        <time>2019-07-31T12:25:08.135Z</time>
      </trkpt>
      <trkpt lat="42.98501167" lon="-1.16472333">
        <ele>792.0</ele>
        <time>2019-07-31T12:25:09.141Z</time>
      </trkpt>
      <trkpt lat="42.98501" lon="-1.16471667">
        <ele>791.0</ele>
        <time>2019-07-31T12:25:10.145Z</time>
      </trkpt>
      <trkpt lat="42.98500333" lon="-1.16471333">
        <ele>791.0</ele>
        <time>2019-07-31T12:25:11.151Z</time>
      </trkpt>
      <trkpt lat="42.98500167" lon="-1.16470333">
        <ele>790.0</ele>
        <time>2019-07-31T12:25:12.156Z</time>
      </trkpt>
      <trkpt lat="42.98499833" lon="-1.16469667">
        <ele>790.0</ele>
        <time>2019-07-31T12:25:13.162Z</time>
      </trkpt>
      <trkpt lat="42.985" lon="-1.16468833">
        <ele>789.0</ele>
        <time>2019-07-31T12:25:14.167Z</time>
      </trkpt>
      <trkpt lat="42.985005" lon="-1.16468">
        <ele>789.0</ele>
        <time>2019-07-31T12:25:15.174Z</time>
      </trkpt>
      <trkpt lat="42.98501" lon="-1.164675">
        <ele>789.0</ele>
        <time>2019-07-31T12:25:16.178Z</time>
      </trkpt>
      <trkpt lat="42.98501333" lon="-1.16467167">
        <ele>790.0</ele>
        <time>2019-07-31T12:25:17.184Z</time>
      </trkpt>
      <trkpt lat="42.98501833" lon="-1.16466833">
        <ele>790.0</ele>
        <time>2019-07-31T12:25:18.064Z</time>
      </trkpt>
      <trkpt lat="42.98501833" lon="-1.16466167">
        <ele>790.0</ele>
        <time>2019-07-31T12:25:19.070Z</time>
      </trkpt>
      <trkpt lat="42.985025" lon="-1.16465333">
        <ele>790.0</ele>
        <time>2019-07-31T12:25:20.075Z</time>
      </trkpt>
      <trkpt lat="42.98503" lon="-1.164645">
        <ele>790.0</ele>
        <time>2019-07-31T12:25:21.080Z</time>
      </trkpt>
      <trkpt lat="42.98503333" lon="-1.16463833">
        <ele>790.0</ele>
        <time>2019-07-31T12:25:22.084Z</time>
      </trkpt>
      <trkpt lat="42.98504167" lon="-1.16463167">
        <ele>791.0</ele>
        <time>2019-07-31T12:25:23.090Z</time>
      </trkpt>
      <trkpt lat="42.98504833" lon="-1.16462667">
        <ele>791.0</ele>
        <time>2019-07-31T12:25:24.095Z</time>
      </trkpt>
      <trkpt lat="42.98505667" lon="-1.16462">
        <ele>792.0</ele>
        <time>2019-07-31T12:25:25.100Z</time>
      </trkpt>
      <trkpt lat="42.98506333" lon="-1.16461333">
        <ele>792.0</ele>
        <time>2019-07-31T12:25:26.102Z</time>
      </trkpt>
      <trkpt lat="42.98507" lon="-1.164605">
        <ele>792.0</ele>
        <time>2019-07-31T12:25:27.107Z</time>
      </trkpt>
      <trkpt lat="42.98507333" lon="-1.164595">
        <ele>792.0</ele>
        <time>2019-07-31T12:25:28.113Z</time>
      </trkpt>
      <trkpt lat="42.985075" lon="-1.16458667">
        <ele>792.0</ele>
        <time>2019-07-31T12:25:29.119Z</time>
      </trkpt>
      <trkpt lat="42.98508" lon="-1.16458333">
        <ele>792.0</ele>
        <time>2019-07-31T12:25:30.124Z</time>
      </trkpt>
      <trkpt lat="42.985085" lon="-1.16458">
        <ele>793.0</ele>
        <time>2019-07-31T12:25:31.130Z</time>
      </trkpt>
      <trkpt lat="42.98509333" lon="-1.16458">
        <ele>794.0</ele>
        <time>2019-07-31T12:25:32.135Z</time>
      </trkpt>
      <trkpt lat="42.98510167" lon="-1.16458167">
        <ele>794.0</ele>
        <time>2019-07-31T12:25:33.140Z</time>
      </trkpt>
      <trkpt lat="42.98510833" lon="-1.16458333">
        <ele>795.0</ele>
        <time>2019-07-31T12:25:34.146Z</time>
      </trkpt>
      <trkpt lat="42.985115" lon="-1.164585">
        <ele>796.0</ele>
        <time>2019-07-31T12:25:35.150Z</time>
      </trkpt>
      <trkpt lat="42.98512167" lon="-1.16458333">
        <ele>796.0</ele>
        <time>2019-07-31T12:25:36.156Z</time>
      </trkpt>
      <trkpt lat="42.98513" lon="-1.16458167">
        <ele>797.0</ele>
        <time>2019-07-31T12:25:37.160Z</time>
      </trkpt>
      <trkpt lat="42.98513833" lon="-1.16458167">
        <ele>797.0</ele>
        <time>2019-07-31T12:25:38.166Z</time>
      </trkpt>
      <trkpt lat="42.98514667" lon="-1.16457667">
        <ele>799.0</ele>
        <time>2019-07-31T12:25:39.171Z</time>
      </trkpt>
      <trkpt lat="42.98515667" lon="-1.16457667">
        <ele>799.0</ele>
        <time>2019-07-31T12:25:40.177Z</time>
      </trkpt>
      <trkpt lat="42.98516333" lon="-1.16457167">
        <ele>800.0</ele>
        <time>2019-07-31T12:25:41.183Z</time>
      </trkpt>
      <trkpt lat="42.98517333" lon="-1.16456333">
        <ele>800.0</ele>
        <time>2019-07-31T12:25:42.062Z</time>
      </trkpt>
      <trkpt lat="42.98517833" lon="-1.16455667">
        <ele>800.0</ele>
        <time>2019-07-31T12:25:43.067Z</time>
      </trkpt>
      <trkpt lat="42.985185" lon="-1.16455167">
        <ele>800.0</ele>
        <time>2019-07-31T12:25:44.073Z</time>
      </trkpt>
      <trkpt lat="42.98519333" lon="-1.16454833">
        <ele>800.0</ele>
        <time>2019-07-31T12:25:45.079Z</time>
      </trkpt>
      <trkpt lat="42.98520333" lon="-1.164545">
        <ele>801.0</ele>
        <time>2019-07-31T12:25:46.084Z</time>
      </trkpt>
      <trkpt lat="42.985215" lon="-1.16452833">
        <ele>801.0</ele>
        <time>2019-07-31T12:25:47.088Z</time>
      </trkpt>
      <trkpt lat="42.98522333" lon="-1.16451333">
        <ele>800.0</ele>
        <time>2019-07-31T12:25:48.094Z</time>
      </trkpt>
      <trkpt lat="42.98523" lon="-1.16449667">
        <ele>799.0</ele>
        <time>2019-07-31T12:25:49.100Z</time>
      </trkpt>
      <trkpt lat="42.98523833" lon="-1.16448833">
        <ele>799.0</ele>
        <time>2019-07-31T12:25:50.106Z</time>
      </trkpt>
      <trkpt lat="42.98524" lon="-1.16447667">
        <ele>800.0</ele>
        <time>2019-07-31T12:25:51.111Z</time>
      </trkpt>
      <trkpt lat="42.985245" lon="-1.16446167">
        <ele>799.0</ele>
        <time>2019-07-31T12:25:52.116Z</time>
      </trkpt>
      <trkpt lat="42.98524833" lon="-1.164445">
        <ele>798.0</ele>
        <time>2019-07-31T12:25:53.120Z</time>
      </trkpt>
      <trkpt lat="42.98525167" lon="-1.16442833">
        <ele>799.0</ele>
        <time>2019-07-31T12:25:54.126Z</time>
      </trkpt>
      <trkpt lat="42.985255" lon="-1.164415">
        <ele>799.0</ele>
        <time>2019-07-31T12:25:55.130Z</time>
      </trkpt>
      <trkpt lat="42.98525833" lon="-1.16439167">
        <ele>799.0</ele>
        <time>2019-07-31T12:25:56.132Z</time>
      </trkpt>
      <trkpt lat="42.985265" lon="-1.16437333">
        <ele>798.0</ele>
        <time>2019-07-31T12:25:57.136Z</time>
      </trkpt>
      <trkpt lat="42.98526" lon="-1.164355">
        <ele>798.0</ele>
        <time>2019-07-31T12:25:58.141Z</time>
      </trkpt>
      <trkpt lat="42.985245" lon="-1.16434">
        <ele>798.0</ele>
        <time>2019-07-31T12:25:59.146Z</time>
      </trkpt>
      <trkpt lat="42.985235" lon="-1.16433333">
        <ele>798.0</ele>
        <time>2019-07-31T12:26:00.151Z</time>
      </trkpt>
      <trkpt lat="42.98523" lon="-1.16433">
        <ele>799.0</ele>
        <time>2019-07-31T12:26:01.156Z</time>
      </trkpt>
      <trkpt lat="42.98522167" lon="-1.16432667">
        <ele>799.0</ele>
        <time>2019-07-31T12:26:02.160Z</time>
      </trkpt>
      <trkpt lat="42.98521167" lon="-1.16432167">
        <ele>799.0</ele>
        <time>2019-07-31T12:26:03.166Z</time>
      </trkpt>
      <trkpt lat="42.98520167" lon="-1.16432">
        <ele>800.0</ele>
        <time>2019-07-31T12:26:04.171Z</time>
      </trkpt>
      <trkpt lat="42.98520667" lon="-1.16431667">
        <ele>799.0</ele>
        <time>2019-07-31T12:26:05.178Z</time>
      </trkpt>
      <trkpt lat="42.98521167" lon="-1.16431333">
        <ele>799.0</ele>
        <time>2019-07-31T12:26:06.183Z</time>
      </trkpt>
      <trkpt lat="42.985215" lon="-1.16431167">
        <ele>798.0</ele>
        <time>2019-07-31T12:26:07.063Z</time>
      </trkpt>
      <trkpt lat="42.98521167" lon="-1.16430667">
        <ele>798.0</ele>
        <time>2019-07-31T12:26:08.069Z</time>
      </trkpt>
      <trkpt lat="42.985215" lon="-1.16430667">
        <ele>797.0</ele>
        <time>2019-07-31T12:26:09.074Z</time>
      </trkpt>
      <trkpt lat="42.98522333" lon="-1.16430833">
        <ele>797.0</ele>
        <time>2019-07-31T12:26:10.078Z</time>
      </trkpt>
      <trkpt lat="42.98523167" lon="-1.16430833">
        <ele>796.0</ele>
        <time>2019-07-31T12:26:11.083Z</time>
      </trkpt>
      <trkpt lat="42.98523833" lon="-1.16430333">
        <ele>797.0</ele>
        <time>2019-07-31T12:26:12.090Z</time>
      </trkpt>
      <trkpt lat="42.98525" lon="-1.164295">
        <ele>796.0</ele>
        <time>2019-07-31T12:26:13.096Z</time>
      </trkpt>
      <trkpt lat="42.98526" lon="-1.16428833">
        <ele>796.0</ele>
        <time>2019-07-31T12:26:14.101Z</time>
      </trkpt>
      <trkpt lat="42.985255" lon="-1.164285">
        <ele>795.0</ele>
        <time>2019-07-31T12:26:15.107Z</time>
      </trkpt>
      <trkpt lat="42.98524333" lon="-1.16428333">
        <ele>795.0</ele>
        <time>2019-07-31T12:26:16.113Z</time>
      </trkpt>
      <trkpt lat="42.985235" lon="-1.16427167">
        <ele>795.0</ele>
        <time>2019-07-31T12:26:17.117Z</time>
      </trkpt>
      <trkpt lat="42.98523167" lon="-1.16425667">
        <ele>795.0</ele>
        <time>2019-07-31T12:26:18.121Z</time>
      </trkpt>
      <trkpt lat="42.98522833" lon="-1.16425167">
        <ele>795.0</ele>
        <time>2019-07-31T12:26:19.129Z</time>
      </trkpt>
      <trkpt lat="42.98522" lon="-1.16425167">
        <ele>795.0</ele>
        <time>2019-07-31T12:26:20.138Z</time>
      </trkpt>
      <trkpt lat="42.98521167" lon="-1.16424833">
        <ele>796.0</ele>
        <time>2019-07-31T12:26:21.146Z</time>
      </trkpt>
      <trkpt lat="42.985205" lon="-1.16423833">
        <ele>796.0</ele>
        <time>2019-07-31T12:26:22.152Z</time>
      </trkpt>
      <trkpt lat="42.98519667" lon="-1.16423667">
        <ele>796.0</ele>
        <time>2019-07-31T12:26:23.157Z</time>
      </trkpt>
      <trkpt lat="42.98518667" lon="-1.164235">
        <ele>796.0</ele>
        <time>2019-07-31T12:26:24.159Z</time>
      </trkpt>
      <trkpt lat="42.98517167" lon="-1.164235">
        <ele>796.0</ele>
        <time>2019-07-31T12:26:25.164Z</time>
      </trkpt>
      <trkpt lat="42.98515833" lon="-1.164235">
        <ele>795.0</ele>
        <time>2019-07-31T12:26:26.171Z</time>
      </trkpt>
      <trkpt lat="42.98513833" lon="-1.16424">
        <ele>796.0</ele>
        <time>2019-07-31T12:26:27.175Z</time>
      </trkpt>
      <trkpt lat="42.98513667" lon="-1.16424">
        <ele>796.0</ele>
        <time>2019-07-31T12:26:28.180Z</time>
      </trkpt>
      <trkpt lat="42.98514833" lon="-1.16424333">
        <ele>795.0</ele>
        <time>2019-07-31T12:26:29.186Z</time>
      </trkpt>
      <trkpt lat="42.98515833" lon="-1.16423833">
        <ele>795.0</ele>
        <time>2019-07-31T12:26:30.068Z</time>
      </trkpt>
      <trkpt lat="42.985165" lon="-1.16423333">
        <ele>795.0</ele>
        <time>2019-07-31T12:26:31.073Z</time>
      </trkpt>
      <trkpt lat="42.98516333" lon="-1.16423333">
        <ele>795.0</ele>
        <time>2019-07-31T12:26:32.076Z</time>
      </trkpt>
      <trkpt lat="42.98516167" lon="-1.164225">
        <ele>796.0</ele>
        <time>2019-07-31T12:26:33.080Z</time>
      </trkpt>
      <trkpt lat="42.98515833" lon="-1.16422333">
        <ele>798.0</ele>
        <time>2019-07-31T12:26:34.087Z</time>
      </trkpt>
      <trkpt lat="42.98515667" lon="-1.164225">
        <ele>799.0</ele>
        <time>2019-07-31T12:26:35.091Z</time>
      </trkpt>
      <trkpt lat="42.98515833" lon="-1.16422833">
        <ele>799.0</ele>
        <time>2019-07-31T12:26:36.094Z</time>
      </trkpt>
      <trkpt lat="42.98516167" lon="-1.16423">
        <ele>799.0</ele>
        <time>2019-07-31T12:26:37.096Z</time>
      </trkpt>
      <trkpt lat="42.985155" lon="-1.16422667">
        <ele>798.0</ele>
        <time>2019-07-31T12:26:38.101Z</time>
      </trkpt>
      <trkpt lat="42.98515333" lon="-1.16422667">
        <ele>799.0</ele>
        <time>2019-07-31T12:26:39.106Z</time>
      </trkpt>
      <trkpt lat="42.985155" lon="-1.16422833">
        <ele>799.0</ele>
        <time>2019-07-31T12:26:40.110Z</time>
      </trkpt>
      <trkpt lat="42.98515333" lon="-1.16423">
        <ele>800.0</ele>
        <time>2019-07-31T12:26:41.115Z</time>
      </trkpt>
      <trkpt lat="42.98515167" lon="-1.16423333">
        <ele>800.0</ele>
        <time>2019-07-31T12:26:42.118Z</time>
      </trkpt>
      <trkpt lat="42.98514833" lon="-1.16423333">
        <ele>800.0</ele>
        <time>2019-07-31T12:26:43.125Z</time>
      </trkpt>
      <trkpt lat="42.98514333" lon="-1.16423167">
        <ele>799.0</ele>
        <time>2019-07-31T12:26:44.132Z</time>
      </trkpt>
      <trkpt lat="42.98514" lon="-1.16423333">
        <ele>799.0</ele>
        <time>2019-07-31T12:26:45.136Z</time>
      </trkpt>
      <trkpt lat="42.98513833" lon="-1.16423333">
        <ele>799.0</ele>
        <time>2019-07-31T12:26:46.141Z</time>
      </trkpt>
      <trkpt lat="42.98513667" lon="-1.16423333">
        <ele>798.0</ele>
        <time>2019-07-31T12:26:47.146Z</time>
      </trkpt>
      <trkpt lat="42.98513667" lon="-1.16423333">
        <ele>797.0</ele>
        <time>2019-07-31T12:26:48.151Z</time>
      </trkpt>
      <trkpt lat="42.985135" lon="-1.164235">
        <ele>796.0</ele>
        <time>2019-07-31T12:26:49.157Z</time>
      </trkpt>
      <trkpt lat="42.985135" lon="-1.16423667">
        <ele>795.0</ele>
        <time>2019-07-31T12:26:50.161Z</time>
      </trkpt>
      <trkpt lat="42.985135" lon="-1.16424">
        <ele>794.0</ele>
        <time>2019-07-31T12:26:51.166Z</time>
      </trkpt>
      <trkpt lat="42.98513333" lon="-1.16423667">
        <ele>793.0</ele>
        <time>2019-07-31T12:26:52.173Z</time>
      </trkpt>
      <trkpt lat="42.98513167" lon="-1.16423833">
        <ele>792.0</ele>
        <time>2019-07-31T12:26:53.180Z</time>
      </trkpt>
      <trkpt lat="42.98513667" lon="-1.16424667">
        <ele>792.0</ele>
        <time>2019-07-31T12:26:54.186Z</time>
      </trkpt>
      <trkpt lat="42.98513833" lon="-1.16425667">
        <ele>793.0</ele>
        <time>2019-07-31T12:26:55.063Z</time>
      </trkpt>
      <trkpt lat="42.98514333" lon="-1.16426">
        <ele>794.0</ele>
        <time>2019-07-31T12:26:56.068Z</time>
      </trkpt>
      <trkpt lat="42.98514167" lon="-1.16426">
        <ele>793.0</ele>
        <time>2019-07-31T12:26:57.072Z</time>
      </trkpt>
      <trkpt lat="42.98514" lon="-1.16425667">
        <ele>793.0</ele>
        <time>2019-07-31T12:26:58.076Z</time>
      </trkpt>
      <trkpt lat="42.98514167" lon="-1.16425667">
        <ele>792.0</ele>
        <time>2019-07-31T12:26:59.081Z</time>
      </trkpt>
      <trkpt lat="42.98514667" lon="-1.16425833">
        <ele>791.0</ele>
        <time>2019-07-31T12:27:00.087Z</time>
      </trkpt>
      <trkpt lat="42.98515" lon="-1.16426167">
        <ele>790.0</ele>
        <time>2019-07-31T12:27:01.092Z</time>
      </trkpt>
      <trkpt lat="42.98515333" lon="-1.16425833">
        <ele>789.0</ele>
        <time>2019-07-31T12:27:02.099Z</time>
      </trkpt>
      <trkpt lat="42.98516" lon="-1.16425333">
        <ele>788.0</ele>
        <time>2019-07-31T12:27:03.105Z</time>
      </trkpt>
      <trkpt lat="42.985165" lon="-1.16424333">
        <ele>788.0</ele>
        <time>2019-07-31T12:27:04.110Z</time>
      </trkpt>
      <trkpt lat="42.98516667" lon="-1.16423667">
        <ele>788.0</ele>
        <time>2019-07-31T12:27:05.113Z</time>
      </trkpt>
      <trkpt lat="42.98516167" lon="-1.16423">
        <ele>787.0</ele>
        <time>2019-07-31T12:27:06.118Z</time>
      </trkpt>
      <trkpt lat="42.98515167" lon="-1.16422333">
        <ele>787.0</ele>
        <time>2019-07-31T12:27:07.123Z</time>
      </trkpt>
      <trkpt lat="42.98515167" lon="-1.16421667">
        <ele>787.0</ele>
        <time>2019-07-31T12:27:08.127Z</time>
      </trkpt>
      <trkpt lat="42.98514833" lon="-1.16421">
        <ele>786.0</ele>
        <time>2019-07-31T12:27:09.132Z</time>
      </trkpt>
      <trkpt lat="42.98514167" lon="-1.1642">
        <ele>784.0</ele>
        <time>2019-07-31T12:27:10.137Z</time>
      </trkpt>
      <trkpt lat="42.98513833" lon="-1.16419">
        <ele>784.0</ele>
        <time>2019-07-31T12:27:11.143Z</time>
      </trkpt>
      <trkpt lat="42.98513667" lon="-1.16418167">
        <ele>783.0</ele>
        <time>2019-07-31T12:27:12.149Z</time>
      </trkpt>
      <trkpt lat="42.985135" lon="-1.16417333">
        <ele>783.0</ele>
        <time>2019-07-31T12:27:13.156Z</time>
      </trkpt>
      <trkpt lat="42.98513833" lon="-1.16416333">
        <ele>783.0</ele>
        <time>2019-07-31T12:27:14.161Z</time>
      </trkpt>
      <trkpt lat="42.98513833" lon="-1.16415167">
        <ele>782.0</ele>
        <time>2019-07-31T12:27:15.168Z</time>
      </trkpt>
      <trkpt lat="42.98513333" lon="-1.16414333">
        <ele>782.0</ele>
        <time>2019-07-31T12:27:16.175Z</time>
      </trkpt>
      <trkpt lat="42.985125" lon="-1.16413">
        <ele>782.0</ele>
        <time>2019-07-31T12:27:17.181Z</time>
      </trkpt>
      <trkpt lat="42.98511667" lon="-1.16411667">
        <ele>781.0</ele>
        <time>2019-07-31T12:27:18.186Z</time>
      </trkpt>
      <trkpt lat="42.98510833" lon="-1.16410333">
        <ele>780.0</ele>
        <time>2019-07-31T12:27:19.067Z</time>
      </trkpt>
      <trkpt lat="42.98510333" lon="-1.164085">
        <ele>780.0</ele>
        <time>2019-07-31T12:27:20.072Z</time>
      </trkpt>
      <trkpt lat="42.98510333" lon="-1.16407167">
        <ele>779.0</ele>
        <time>2019-07-31T12:27:21.076Z</time>
      </trkpt>
      <trkpt lat="42.985095" lon="-1.16406167">
        <ele>779.0</ele>
        <time>2019-07-31T12:27:22.080Z</time>
      </trkpt>
      <trkpt lat="42.98509" lon="-1.16405167">
        <ele>779.0</ele>
        <time>2019-07-31T12:27:23.087Z</time>
      </trkpt>
      <trkpt lat="42.985085" lon="-1.16403833">
        <ele>778.0</ele>
        <time>2019-07-31T12:27:24.092Z</time>
      </trkpt>
      <trkpt lat="42.98508167" lon="-1.164035">
        <ele>778.0</ele>
        <time>2019-07-31T12:27:25.100Z</time>
      </trkpt>
      <trkpt lat="42.985085" lon="-1.16403167">
        <ele>778.0</ele>
        <time>2019-07-31T12:27:26.107Z</time>
      </trkpt>
      <trkpt lat="42.98508333" lon="-1.16402667">
        <ele>777.0</ele>
        <time>2019-07-31T12:27:27.112Z</time>
      </trkpt>
      <trkpt lat="42.98507833" lon="-1.16401833">
        <ele>776.0</ele>
        <time>2019-07-31T12:27:28.116Z</time>
      </trkpt>
      <trkpt lat="42.98507" lon="-1.164005">
        <ele>775.0</ele>
        <time>2019-07-31T12:27:29.120Z</time>
      </trkpt>
      <trkpt lat="42.98506333" lon="-1.16399">
        <ele>774.0</ele>
        <time>2019-07-31T12:27:30.125Z</time>
      </trkpt>
      <trkpt lat="42.985055" lon="-1.16397167">
        <ele>774.0</ele>
        <time>2019-07-31T12:27:31.130Z</time>
      </trkpt>
      <trkpt lat="42.985055" lon="-1.163955">
        <ele>774.0</ele>
        <time>2019-07-31T12:27:32.134Z</time>
      </trkpt>
      <trkpt lat="42.98505667" lon="-1.16394167">
        <ele>774.0</ele>
        <time>2019-07-31T12:27:33.139Z</time>
      </trkpt>
      <trkpt lat="42.985055" lon="-1.16393667">
        <ele>774.0</ele>
        <time>2019-07-31T12:27:34.145Z</time>
      </trkpt>
      <trkpt lat="42.98504667" lon="-1.16393">
        <ele>774.0</ele>
        <time>2019-07-31T12:27:35.152Z</time>
      </trkpt>
      <trkpt lat="42.98504" lon="-1.16391833">
        <ele>774.0</ele>
        <time>2019-07-31T12:27:36.157Z</time>
      </trkpt>
      <trkpt lat="42.98503" lon="-1.1639">
        <ele>774.0</ele>
        <time>2019-07-31T12:27:37.163Z</time>
      </trkpt>
      <trkpt lat="42.98502333" lon="-1.163885">
        <ele>774.0</ele>
        <time>2019-07-31T12:27:38.169Z</time>
      </trkpt>
      <trkpt lat="42.98501667" lon="-1.16387">
        <ele>774.0</ele>
        <time>2019-07-31T12:27:39.174Z</time>
      </trkpt>
      <trkpt lat="42.98501" lon="-1.163855">
        <ele>774.0</ele>
        <time>2019-07-31T12:27:40.179Z</time>
      </trkpt>
      <trkpt lat="42.985005" lon="-1.16383667">
        <ele>773.0</ele>
        <time>2019-07-31T12:27:41.184Z</time>
      </trkpt>
      <trkpt lat="42.98499333" lon="-1.16382167">
        <ele>772.0</ele>
        <time>2019-07-31T12:27:42.066Z</time>
      </trkpt>
      <trkpt lat="42.98499" lon="-1.16381">
        <ele>772.0</ele>
        <time>2019-07-31T12:27:43.072Z</time>
      </trkpt>
      <trkpt lat="42.98498667" lon="-1.16379833">
        <ele>771.0</ele>
        <time>2019-07-31T12:27:44.076Z</time>
      </trkpt>
      <trkpt lat="42.98498833" lon="-1.163785">
        <ele>771.0</ele>
        <time>2019-07-31T12:27:45.080Z</time>
      </trkpt>
      <trkpt lat="42.98499" lon="-1.16377333">
        <ele>770.0</ele>
        <time>2019-07-31T12:27:46.086Z</time>
      </trkpt>
      <trkpt lat="42.98498667" lon="-1.16376">
        <ele>771.0</ele>
        <time>2019-07-31T12:27:47.091Z</time>
      </trkpt>
      <trkpt lat="42.98498333" lon="-1.163745">
        <ele>771.0</ele>
        <time>2019-07-31T12:27:48.098Z</time>
      </trkpt>
      <trkpt lat="42.98497667" lon="-1.16373167">
        <ele>771.0</ele>
        <time>2019-07-31T12:27:49.102Z</time>
      </trkpt>
      <trkpt lat="42.98496833" lon="-1.163715">
        <ele>772.0</ele>
        <time>2019-07-31T12:27:50.108Z</time>
      </trkpt>
      <trkpt lat="42.98496333" lon="-1.16369667">
        <ele>772.0</ele>
        <time>2019-07-31T12:27:51.112Z</time>
      </trkpt>
      <trkpt lat="42.98496" lon="-1.16368">
        <ele>772.0</ele>
        <time>2019-07-31T12:27:52.118Z</time>
      </trkpt>
      <trkpt lat="42.98495833" lon="-1.16366833">
        <ele>772.0</ele>
        <time>2019-07-31T12:27:53.122Z</time>
      </trkpt>
      <trkpt lat="42.98495167" lon="-1.16365667">
        <ele>772.0</ele>
        <time>2019-07-31T12:27:54.129Z</time>
      </trkpt>
      <trkpt lat="42.98494333" lon="-1.163645">
        <ele>773.0</ele>
        <time>2019-07-31T12:27:55.135Z</time>
      </trkpt>
      <trkpt lat="42.984935" lon="-1.16363667">
        <ele>773.0</ele>
        <time>2019-07-31T12:27:56.141Z</time>
      </trkpt>
      <trkpt lat="42.98492833" lon="-1.16362333">
        <ele>773.0</ele>
        <time>2019-07-31T12:27:57.146Z</time>
      </trkpt>
      <trkpt lat="42.98492333" lon="-1.16361">
        <ele>773.0</ele>
        <time>2019-07-31T12:27:58.152Z</time>
      </trkpt>
      <trkpt lat="42.98492333" lon="-1.16359667">
        <ele>773.0</ele>
        <time>2019-07-31T12:27:59.157Z</time>
      </trkpt>
      <trkpt lat="42.984925" lon="-1.16358667">
        <ele>773.0</ele>
        <time>2019-07-31T12:28:00.161Z</time>
      </trkpt>
      <trkpt lat="42.98492833" lon="-1.16357667">
        <ele>773.0</ele>
        <time>2019-07-31T12:28:01.164Z</time>
      </trkpt>
      <trkpt lat="42.98492833" lon="-1.163565">
        <ele>773.0</ele>
        <time>2019-07-31T12:28:02.169Z</time>
      </trkpt>
      <trkpt lat="42.984925" lon="-1.16356">
        <ele>774.0</ele>
        <time>2019-07-31T12:28:03.175Z</time>
      </trkpt>
      <trkpt lat="42.98491333" lon="-1.16355167">
        <ele>775.0</ele>
        <time>2019-07-31T12:28:04.181Z</time>
      </trkpt>
      <trkpt lat="42.98491" lon="-1.16354">
        <ele>775.0</ele>
        <time>2019-07-31T12:28:05.186Z</time>
      </trkpt>
      <trkpt lat="42.984905" lon="-1.16352333">
        <ele>775.0</ele>
        <time>2019-07-31T12:28:06.064Z</time>
      </trkpt>
      <trkpt lat="42.9849" lon="-1.16351">
        <ele>776.0</ele>
        <time>2019-07-31T12:28:07.069Z</time>
      </trkpt>
      <trkpt lat="42.98489167" lon="-1.16349667">
        <ele>777.0</ele>
        <time>2019-07-31T12:28:08.073Z</time>
      </trkpt>
      <trkpt lat="42.98488167" lon="-1.163485">
        <ele>778.0</ele>
        <time>2019-07-31T12:28:09.077Z</time>
      </trkpt>
      <trkpt lat="42.98488" lon="-1.163475">
        <ele>779.0</ele>
        <time>2019-07-31T12:28:10.081Z</time>
      </trkpt>
      <trkpt lat="42.98488333" lon="-1.16347">
        <ele>780.0</ele>
        <time>2019-07-31T12:28:11.088Z</time>
      </trkpt>
      <trkpt lat="42.98488667" lon="-1.16346">
        <ele>781.0</ele>
        <time>2019-07-31T12:28:12.093Z</time>
      </trkpt>
      <trkpt lat="42.984885" lon="-1.16345167">
        <ele>781.0</ele>
        <time>2019-07-31T12:28:13.097Z</time>
      </trkpt>
      <trkpt lat="42.98488167" lon="-1.16344">
        <ele>781.0</ele>
        <time>2019-07-31T12:28:14.102Z</time>
      </trkpt>
      <trkpt lat="42.98488167" lon="-1.16342833">
        <ele>783.0</ele>
        <time>2019-07-31T12:28:15.105Z</time>
      </trkpt>
      <trkpt lat="42.98487667" lon="-1.16341667">
        <ele>784.0</ele>
        <time>2019-07-31T12:28:16.108Z</time>
      </trkpt>
      <trkpt lat="42.98487667" lon="-1.163405">
        <ele>786.0</ele>
        <time>2019-07-31T12:28:17.114Z</time>
      </trkpt>
      <trkpt lat="42.984875" lon="-1.163395">
        <ele>787.0</ele>
        <time>2019-07-31T12:28:18.119Z</time>
      </trkpt>
      <trkpt lat="42.98487833" lon="-1.16338333">
        <ele>788.0</ele>
        <time>2019-07-31T12:28:19.124Z</time>
      </trkpt>
      <trkpt lat="42.98488167" lon="-1.16337">
        <ele>789.0</ele>
        <time>2019-07-31T12:28:20.130Z</time>
      </trkpt>
      <trkpt lat="42.984885" lon="-1.16336333">
        <ele>791.0</ele>
        <time>2019-07-31T12:28:21.138Z</time>
      </trkpt>
      <trkpt lat="42.98488667" lon="-1.163355">
        <ele>792.0</ele>
        <time>2019-07-31T12:28:22.144Z</time>
      </trkpt>
      <trkpt lat="42.98488667" lon="-1.16334167">
        <ele>794.0</ele>
        <time>2019-07-31T12:28:23.149Z</time>
      </trkpt>
      <trkpt lat="42.984885" lon="-1.16332833">
        <ele>795.0</ele>
        <time>2019-07-31T12:28:24.153Z</time>
      </trkpt>
      <trkpt lat="42.98488167" lon="-1.16331333">
        <ele>796.0</ele>
        <time>2019-07-31T12:28:25.159Z</time>
      </trkpt>
      <trkpt lat="42.98488" lon="-1.16330167">
        <ele>797.0</ele>
        <time>2019-07-31T12:28:26.166Z</time>
      </trkpt>
      <trkpt lat="42.98488167" lon="-1.16329">
        <ele>798.0</ele>
        <time>2019-07-31T12:28:27.172Z</time>
      </trkpt>
      <trkpt lat="42.98488333" lon="-1.16327833">
        <ele>798.0</ele>
        <time>2019-07-31T12:28:28.178Z</time>
      </trkpt>
      <trkpt lat="42.98489" lon="-1.16326333">
        <ele>798.0</ele>
        <time>2019-07-31T12:28:29.184Z</time>
      </trkpt>
      <trkpt lat="42.98489167" lon="-1.16324667">
        <ele>799.0</ele>
        <time>2019-07-31T12:28:30.063Z</time>
      </trkpt>
      <trkpt lat="42.98489167" lon="-1.16323333">
        <ele>800.0</ele>
        <time>2019-07-31T12:28:31.068Z</time>
      </trkpt>
      <trkpt lat="42.98489667" lon="-1.163225">
        <ele>801.0</ele>
        <time>2019-07-31T12:28:32.073Z</time>
      </trkpt>
      <trkpt lat="42.9849" lon="-1.163215">
        <ele>801.0</ele>
        <time>2019-07-31T12:28:33.077Z</time>
      </trkpt>
      <trkpt lat="42.98490167" lon="-1.16320333">
        <ele>801.0</ele>
        <time>2019-07-31T12:28:34.082Z</time>
      </trkpt>
      <trkpt lat="42.98490333" lon="-1.16319">
        <ele>802.0</ele>
        <time>2019-07-31T12:28:35.086Z</time>
      </trkpt>
      <trkpt lat="42.98490667" lon="-1.16318">
        <ele>801.0</ele>
        <time>2019-07-31T12:28:36.092Z</time>
      </trkpt>
      <trkpt lat="42.98490833" lon="-1.16316">
        <ele>801.0</ele>
        <time>2019-07-31T12:28:37.097Z</time>
      </trkpt>
      <trkpt lat="42.98490667" lon="-1.16314333">
        <ele>801.0</ele>
        <time>2019-07-31T12:28:38.103Z</time>
      </trkpt>
      <trkpt lat="42.98490333" lon="-1.16313">
        <ele>801.0</ele>
        <time>2019-07-31T12:28:39.108Z</time>
      </trkpt>
      <trkpt lat="42.9849" lon="-1.16311833">
        <ele>801.0</ele>
        <time>2019-07-31T12:28:40.114Z</time>
      </trkpt>
      <trkpt lat="42.98489833" lon="-1.16310167">
        <ele>802.0</ele>
        <time>2019-07-31T12:28:41.118Z</time>
      </trkpt>
      <trkpt lat="42.98489833" lon="-1.16308833">
        <ele>802.0</ele>
        <time>2019-07-31T12:28:42.124Z</time>
      </trkpt>
      <trkpt lat="42.9849" lon="-1.16308">
        <ele>803.0</ele>
        <time>2019-07-31T12:28:43.131Z</time>
      </trkpt>
      <trkpt lat="42.98489667" lon="-1.16306667">
        <ele>803.0</ele>
        <time>2019-07-31T12:28:44.136Z</time>
      </trkpt>
      <trkpt lat="42.984895" lon="-1.16306">
        <ele>804.0</ele>
        <time>2019-07-31T12:28:45.141Z</time>
      </trkpt>
      <trkpt lat="42.98489" lon="-1.16304667">
        <ele>805.0</ele>
        <time>2019-07-31T12:28:46.148Z</time>
      </trkpt>
      <trkpt lat="42.984885" lon="-1.16303667">
        <ele>806.0</ele>
        <time>2019-07-31T12:28:47.154Z</time>
      </trkpt>
      <trkpt lat="42.98487833" lon="-1.16302833">
        <ele>807.0</ele>
        <time>2019-07-31T12:28:48.159Z</time>
      </trkpt>
      <trkpt lat="42.984875" lon="-1.163015">
        <ele>806.0</ele>
        <time>2019-07-31T12:28:49.163Z</time>
      </trkpt>
      <trkpt lat="42.98487167" lon="-1.16300333">
        <ele>807.0</ele>
        <time>2019-07-31T12:28:50.168Z</time>
      </trkpt>
      <trkpt lat="42.98486833" lon="-1.162995">
        <ele>806.0</ele>
        <time>2019-07-31T12:28:51.172Z</time>
      </trkpt>
      <trkpt lat="42.98486333" lon="-1.162985">
        <ele>807.0</ele>
        <time>2019-07-31T12:28:52.177Z</time>
      </trkpt>
      <trkpt lat="42.98486" lon="-1.16297333">
        <ele>807.0</ele>
        <time>2019-07-31T12:28:53.184Z</time>
      </trkpt>
      <trkpt lat="42.98485667" lon="-1.16296333">
        <ele>808.0</ele>
        <time>2019-07-31T12:28:54.065Z</time>
      </trkpt>
      <trkpt lat="42.98485167" lon="-1.16295167">
        <ele>808.0</ele>
        <time>2019-07-31T12:28:55.070Z</time>
      </trkpt>
      <trkpt lat="42.98484167" lon="-1.16293833">
        <ele>809.0</ele>
        <time>2019-07-31T12:28:56.073Z</time>
      </trkpt>
      <trkpt lat="42.98484167" lon="-1.16293">
        <ele>810.0</ele>
        <time>2019-07-31T12:28:57.076Z</time>
      </trkpt>
      <trkpt lat="42.98483333" lon="-1.16292">
        <ele>810.0</ele>
        <time>2019-07-31T12:28:58.083Z</time>
      </trkpt>
      <trkpt lat="42.984825" lon="-1.16290333">
        <ele>811.0</ele>
        <time>2019-07-31T12:28:59.089Z</time>
      </trkpt>
      <trkpt lat="42.98481667" lon="-1.16289">
        <ele>811.0</ele>
        <time>2019-07-31T12:29:00.093Z</time>
      </trkpt>
      <trkpt lat="42.98481" lon="-1.16288">
        <ele>811.0</ele>
        <time>2019-07-31T12:29:01.097Z</time>
      </trkpt>
      <trkpt lat="42.98481" lon="-1.16286667">
        <ele>812.0</ele>
        <time>2019-07-31T12:29:02.101Z</time>
      </trkpt>
      <trkpt lat="42.98481167" lon="-1.162855">
        <ele>812.0</ele>
        <time>2019-07-31T12:29:03.105Z</time>
      </trkpt>
      <trkpt lat="42.98481167" lon="-1.16284333">
        <ele>812.0</ele>
        <time>2019-07-31T12:29:04.109Z</time>
      </trkpt>
      <trkpt lat="42.98481" lon="-1.16283167">
        <ele>812.0</ele>
        <time>2019-07-31T12:29:05.114Z</time>
      </trkpt>
      <trkpt lat="42.98480833" lon="-1.16281833">
        <ele>813.0</ele>
        <time>2019-07-31T12:29:06.118Z</time>
      </trkpt>
      <trkpt lat="42.98480667" lon="-1.16280833">
        <ele>814.0</ele>
        <time>2019-07-31T12:29:07.124Z</time>
      </trkpt>
      <trkpt lat="42.98480667" lon="-1.16279667">
        <ele>814.0</ele>
        <time>2019-07-31T12:29:08.130Z</time>
      </trkpt>
      <trkpt lat="42.98481" lon="-1.162785">
        <ele>815.0</ele>
        <time>2019-07-31T12:29:09.135Z</time>
      </trkpt>
      <trkpt lat="42.984815" lon="-1.16277">
        <ele>815.0</ele>
        <time>2019-07-31T12:29:10.140Z</time>
      </trkpt>
      <trkpt lat="42.98481833" lon="-1.16276167">
        <ele>816.0</ele>
        <time>2019-07-31T12:29:11.144Z</time>
      </trkpt>
      <trkpt lat="42.98482167" lon="-1.16275333">
        <ele>816.0</ele>
        <time>2019-07-31T12:29:12.149Z</time>
      </trkpt>
      <trkpt lat="42.98482667" lon="-1.16274833">
        <ele>817.0</ele>
        <time>2019-07-31T12:29:13.154Z</time>
      </trkpt>
      <trkpt lat="42.98483333" lon="-1.16274333">
        <ele>817.0</ele>
        <time>2019-07-31T12:29:14.159Z</time>
      </trkpt>
      <trkpt lat="42.98483833" lon="-1.16273667">
        <ele>818.0</ele>
        <time>2019-07-31T12:29:15.163Z</time>
      </trkpt>
      <trkpt lat="42.98484667" lon="-1.16273333">
        <ele>818.0</ele>
        <time>2019-07-31T12:29:16.169Z</time>
      </trkpt>
      <trkpt lat="42.98486167" lon="-1.16272833">
        <ele>819.0</ele>
        <time>2019-07-31T12:29:17.177Z</time>
      </trkpt>
      <trkpt lat="42.98487167" lon="-1.16272167">
        <ele>819.0</ele>
        <time>2019-07-31T12:29:18.183Z</time>
      </trkpt>
      <trkpt lat="42.98488333" lon="-1.16271833">
        <ele>820.0</ele>
        <time>2019-07-31T12:29:19.063Z</time>
      </trkpt>
      <trkpt lat="42.9849" lon="-1.16271667">
        <ele>821.0</ele>
        <time>2019-07-31T12:29:20.071Z</time>
      </trkpt>
      <trkpt lat="42.98490833" lon="-1.16271">
        <ele>822.0</ele>
        <time>2019-07-31T12:29:21.076Z</time>
      </trkpt>
      <trkpt lat="42.98492167" lon="-1.16270167">
        <ele>822.0</ele>
        <time>2019-07-31T12:29:22.080Z</time>
      </trkpt>
      <trkpt lat="42.984935" lon="-1.162695">
        <ele>821.0</ele>
        <time>2019-07-31T12:29:23.086Z</time>
      </trkpt>
      <trkpt lat="42.98495" lon="-1.162685">
        <ele>821.0</ele>
        <time>2019-07-31T12:29:24.089Z</time>
      </trkpt>
      <trkpt lat="42.98496167" lon="-1.16267833">
        <ele>821.0</ele>
        <time>2019-07-31T12:29:25.094Z</time>
      </trkpt>
      <trkpt lat="42.984975" lon="-1.16267">
        <ele>822.0</ele>
        <time>2019-07-31T12:29:26.099Z</time>
      </trkpt>
      <trkpt lat="42.98498833" lon="-1.162665">
        <ele>822.0</ele>
        <time>2019-07-31T12:29:27.106Z</time>
      </trkpt>
      <trkpt lat="42.985005" lon="-1.16265833">
        <ele>822.0</ele>
        <time>2019-07-31T12:29:28.111Z</time>
      </trkpt>
      <trkpt lat="42.985015" lon="-1.16265">
        <ele>823.0</ele>
        <time>2019-07-31T12:29:29.117Z</time>
      </trkpt>
      <trkpt lat="42.98502833" lon="-1.162645">
        <ele>822.0</ele>
        <time>2019-07-31T12:29:30.123Z</time>
      </trkpt>
      <trkpt lat="42.98504333" lon="-1.16263667">
        <ele>822.0</ele>
        <time>2019-07-31T12:29:31.129Z</time>
      </trkpt>
      <trkpt lat="42.985055" lon="-1.16263333">
        <ele>823.0</ele>
        <time>2019-07-31T12:29:32.135Z</time>
      </trkpt>
      <trkpt lat="42.98507167" lon="-1.16263">
        <ele>823.0</ele>
        <time>2019-07-31T12:29:33.138Z</time>
      </trkpt>
      <trkpt lat="42.98508667" lon="-1.16262667">
        <ele>825.0</ele>
        <time>2019-07-31T12:29:34.143Z</time>
      </trkpt>
      <trkpt lat="42.98510167" lon="-1.16260833">
        <ele>825.0</ele>
        <time>2019-07-31T12:29:35.147Z</time>
      </trkpt>
      <trkpt lat="42.985105" lon="-1.162585">
        <ele>825.0</ele>
        <time>2019-07-31T12:29:36.150Z</time>
      </trkpt>
      <trkpt lat="42.98510167" lon="-1.16256">
        <ele>825.0</ele>
        <time>2019-07-31T12:29:37.153Z</time>
      </trkpt>
      <trkpt lat="42.98509167" lon="-1.16253333">
        <ele>826.0</ele>
        <time>2019-07-31T12:29:38.159Z</time>
      </trkpt>
      <trkpt lat="42.98508333" lon="-1.16250833">
        <ele>827.0</ele>
        <time>2019-07-31T12:29:39.164Z</time>
      </trkpt>
      <trkpt lat="42.98506333" lon="-1.16249167">
        <ele>827.0</ele>
        <time>2019-07-31T12:29:40.171Z</time>
      </trkpt>
      <trkpt lat="42.98504333" lon="-1.16247667">
        <ele>826.0</ele>
        <time>2019-07-31T12:29:41.178Z</time>
      </trkpt>
      <trkpt lat="42.98502333" lon="-1.162475">
        <ele>825.0</ele>
        <time>2019-07-31T12:29:42.185Z</time>
      </trkpt>
      <trkpt lat="42.98500667" lon="-1.16247">
        <ele>825.0</ele>
        <time>2019-07-31T12:29:43.064Z</time>
      </trkpt>
      <trkpt lat="42.98499167" lon="-1.16246667">
        <ele>826.0</ele>
        <time>2019-07-31T12:29:44.070Z</time>
      </trkpt>
      <trkpt lat="42.98497667" lon="-1.16246333">
        <ele>826.0</ele>
        <time>2019-07-31T12:29:45.075Z</time>
      </trkpt>
      <trkpt lat="42.98495667" lon="-1.162455">
        <ele>827.0</ele>
        <time>2019-07-31T12:29:46.079Z</time>
      </trkpt>
      <trkpt lat="42.98493833" lon="-1.16244833">
        <ele>827.0</ele>
        <time>2019-07-31T12:29:47.083Z</time>
      </trkpt>
      <trkpt lat="42.98492167" lon="-1.16244333">
        <ele>827.0</ele>
        <time>2019-07-31T12:29:48.088Z</time>
      </trkpt>
      <trkpt lat="42.98490333" lon="-1.16243833">
        <ele>827.0</ele>
        <time>2019-07-31T12:29:49.093Z</time>
      </trkpt>
      <trkpt lat="42.98488833" lon="-1.16243333">
        <ele>827.0</ele>
        <time>2019-07-31T12:29:50.099Z</time>
      </trkpt>
      <trkpt lat="42.984875" lon="-1.16242333">
        <ele>825.0</ele>
        <time>2019-07-31T12:29:51.104Z</time>
      </trkpt>
      <trkpt lat="42.98486167" lon="-1.16241167">
        <ele>824.0</ele>
        <time>2019-07-31T12:29:52.111Z</time>
      </trkpt>
      <trkpt lat="42.98485" lon="-1.162405">
        <ele>824.0</ele>
        <time>2019-07-31T12:29:53.117Z</time>
      </trkpt>
      <trkpt lat="42.98483833" lon="-1.1624">
        <ele>823.0</ele>
        <time>2019-07-31T12:29:54.121Z</time>
      </trkpt>
      <trkpt lat="42.984815" lon="-1.162395">
        <ele>822.0</ele>
        <time>2019-07-31T12:29:55.125Z</time>
      </trkpt>
      <trkpt lat="42.984795" lon="-1.16239">
        <ele>823.0</ele>
        <time>2019-07-31T12:29:56.132Z</time>
      </trkpt>
      <trkpt lat="42.98478333" lon="-1.16238167">
        <ele>822.0</ele>
        <time>2019-07-31T12:29:57.137Z</time>
      </trkpt>
      <trkpt lat="42.98477167" lon="-1.16237">
        <ele>822.0</ele>
        <time>2019-07-31T12:29:58.141Z</time>
      </trkpt>
      <trkpt lat="42.98476333" lon="-1.16236">
        <ele>822.0</ele>
        <time>2019-07-31T12:29:59.146Z</time>
      </trkpt>
      <trkpt lat="42.98475333" lon="-1.16234667">
        <ele>822.0</ele>
        <time>2019-07-31T12:30:00.150Z</time>
      </trkpt>
      <trkpt lat="42.98474333" lon="-1.16233333">
        <ele>823.0</ele>
        <time>2019-07-31T12:30:01.154Z</time>
      </trkpt>
      <trkpt lat="42.984735" lon="-1.16231833">
        <ele>823.0</ele>
        <time>2019-07-31T12:30:02.159Z</time>
      </trkpt>
      <trkpt lat="42.98472667" lon="-1.16230333">
        <ele>823.0</ele>
        <time>2019-07-31T12:30:03.165Z</time>
      </trkpt>
      <trkpt lat="42.98471833" lon="-1.16228667">
        <ele>823.0</ele>
        <time>2019-07-31T12:30:04.170Z</time>
      </trkpt>
      <trkpt lat="42.98471167" lon="-1.16227">
        <ele>822.0</ele>
        <time>2019-07-31T12:30:05.175Z</time>
      </trkpt>
      <trkpt lat="42.98470667" lon="-1.16225167">
        <ele>821.0</ele>
        <time>2019-07-31T12:30:06.184Z</time>
      </trkpt>
      <trkpt lat="42.98470167" lon="-1.162235">
        <ele>821.0</ele>
        <time>2019-07-31T12:30:07.061Z</time>
      </trkpt>
      <trkpt lat="42.98469667" lon="-1.16221833">
        <ele>820.0</ele>
        <time>2019-07-31T12:30:08.067Z</time>
      </trkpt>
      <trkpt lat="42.98469333" lon="-1.16219833">
        <ele>820.0</ele>
        <time>2019-07-31T12:30:09.072Z</time>
      </trkpt>
      <trkpt lat="42.98468833" lon="-1.16217833">
        <ele>820.0</ele>
        <time>2019-07-31T12:30:10.076Z</time>
      </trkpt>
      <trkpt lat="42.98468167" lon="-1.16216167">
        <ele>820.0</ele>
        <time>2019-07-31T12:30:11.083Z</time>
      </trkpt>
      <trkpt lat="42.98467167" lon="-1.16214333">
        <ele>820.0</ele>
        <time>2019-07-31T12:30:12.090Z</time>
      </trkpt>
      <trkpt lat="42.984665" lon="-1.16212667">
        <ele>819.0</ele>
        <time>2019-07-31T12:30:13.096Z</time>
      </trkpt>
      <trkpt lat="42.98465833" lon="-1.16210667">
        <ele>820.0</ele>
        <time>2019-07-31T12:30:14.101Z</time>
      </trkpt>
      <trkpt lat="42.98465167" lon="-1.16209">
        <ele>819.0</ele>
        <time>2019-07-31T12:30:15.108Z</time>
      </trkpt>
      <trkpt lat="42.98465" lon="-1.16207167">
        <ele>819.0</ele>
        <time>2019-07-31T12:30:16.115Z</time>
      </trkpt>
      <trkpt lat="42.984645" lon="-1.16205">
        <ele>819.0</ele>
        <time>2019-07-31T12:30:17.119Z</time>
      </trkpt>
      <trkpt lat="42.984645" lon="-1.16203167">
        <ele>818.0</ele>
        <time>2019-07-31T12:30:18.124Z</time>
      </trkpt>
      <trkpt lat="42.984645" lon="-1.16201333">
        <ele>818.0</ele>
        <time>2019-07-31T12:30:19.130Z</time>
      </trkpt>
      <trkpt lat="42.98464667" lon="-1.161995">
        <ele>818.0</ele>
        <time>2019-07-31T12:30:20.136Z</time>
      </trkpt>
      <trkpt lat="42.984645" lon="-1.161975">
        <ele>817.0</ele>
        <time>2019-07-31T12:30:21.143Z</time>
      </trkpt>
      <trkpt lat="42.984645" lon="-1.16195833">
        <ele>817.0</ele>
        <time>2019-07-31T12:30:22.148Z</time>
      </trkpt>
      <trkpt lat="42.98464667" lon="-1.16194">
        <ele>818.0</ele>
        <time>2019-07-31T12:30:23.154Z</time>
      </trkpt>
      <trkpt lat="42.98464333" lon="-1.16192167">
        <ele>818.0</ele>
        <time>2019-07-31T12:30:24.159Z</time>
      </trkpt>
      <trkpt lat="42.98463667" lon="-1.16190333">
        <ele>818.0</ele>
        <time>2019-07-31T12:30:25.161Z</time>
      </trkpt>
      <trkpt lat="42.984635" lon="-1.16188833">
        <ele>819.0</ele>
        <time>2019-07-31T12:30:26.164Z</time>
      </trkpt>
      <trkpt lat="42.98463667" lon="-1.16187">
        <ele>819.0</ele>
        <time>2019-07-31T12:30:27.167Z</time>
      </trkpt>
      <trkpt lat="42.98463833" lon="-1.16185">
        <ele>819.0</ele>
        <time>2019-07-31T12:30:28.172Z</time>
      </trkpt>
      <trkpt lat="42.98464" lon="-1.16183">
        <ele>818.0</ele>
        <time>2019-07-31T12:30:29.176Z</time>
      </trkpt>
      <trkpt lat="42.98464167" lon="-1.16181">
        <ele>818.0</ele>
        <time>2019-07-31T12:30:30.183Z</time>
      </trkpt>
      <trkpt lat="42.98464" lon="-1.16179167">
        <ele>817.0</ele>
        <time>2019-07-31T12:30:31.064Z</time>
      </trkpt>
      <trkpt lat="42.98464167" lon="-1.161775">
        <ele>817.0</ele>
        <time>2019-07-31T12:30:32.071Z</time>
      </trkpt>
      <trkpt lat="42.98463667" lon="-1.16175667">
        <ele>817.0</ele>
        <time>2019-07-31T12:30:33.073Z</time>
      </trkpt>
      <trkpt lat="42.98463333" lon="-1.16174">
        <ele>818.0</ele>
        <time>2019-07-31T12:30:34.078Z</time>
      </trkpt>
      <trkpt lat="42.98463167" lon="-1.16172">
        <ele>817.0</ele>
        <time>2019-07-31T12:30:35.084Z</time>
      </trkpt>
      <trkpt lat="42.98462333" lon="-1.16170167">
        <ele>817.0</ele>
        <time>2019-07-31T12:30:36.090Z</time>
      </trkpt>
      <trkpt lat="42.98461833" lon="-1.161685">
        <ele>816.0</ele>
        <time>2019-07-31T12:30:37.093Z</time>
      </trkpt>
      <trkpt lat="42.98461833" lon="-1.16166833">
        <ele>816.0</ele>
        <time>2019-07-31T12:30:38.098Z</time>
      </trkpt>
      <trkpt lat="42.98462333" lon="-1.16165167">
        <ele>816.0</ele>
        <time>2019-07-31T12:30:39.100Z</time>
      </trkpt>
      <trkpt lat="42.98462833" lon="-1.161635">
        <ele>817.0</ele>
        <time>2019-07-31T12:30:40.105Z</time>
      </trkpt>
      <trkpt lat="42.98463167" lon="-1.161615">
        <ele>816.0</ele>
        <time>2019-07-31T12:30:41.106Z</time>
      </trkpt>
      <trkpt lat="42.98463333" lon="-1.16159667">
        <ele>816.0</ele>
        <time>2019-07-31T12:30:42.109Z</time>
      </trkpt>
      <trkpt lat="42.98463167" lon="-1.16157833">
        <ele>815.0</ele>
        <time>2019-07-31T12:30:43.111Z</time>
      </trkpt>
      <trkpt lat="42.98463167" lon="-1.16155833">
        <ele>815.0</ele>
        <time>2019-07-31T12:30:44.114Z</time>
      </trkpt>
      <trkpt lat="42.98463167" lon="-1.16153667">
        <ele>814.0</ele>
        <time>2019-07-31T12:30:45.117Z</time>
      </trkpt>
      <trkpt lat="42.98463" lon="-1.161515">
        <ele>813.0</ele>
        <time>2019-07-31T12:30:46.119Z</time>
      </trkpt>
      <trkpt lat="42.98463333" lon="-1.161495">
        <ele>813.0</ele>
        <time>2019-07-31T12:30:47.124Z</time>
      </trkpt>
      <trkpt lat="42.984635" lon="-1.16147833">
        <ele>813.0</ele>
        <time>2019-07-31T12:30:48.128Z</time>
      </trkpt>
      <trkpt lat="42.98464333" lon="-1.16146167">
        <ele>813.0</ele>
        <time>2019-07-31T12:30:49.134Z</time>
      </trkpt>
      <trkpt lat="42.98465167" lon="-1.16144667">
        <ele>813.0</ele>
        <time>2019-07-31T12:30:50.139Z</time>
      </trkpt>
      <trkpt lat="42.98465667" lon="-1.16143">
        <ele>814.0</ele>
        <time>2019-07-31T12:30:51.141Z</time>
      </trkpt>
      <trkpt lat="42.98466333" lon="-1.16141">
        <ele>814.0</ele>
        <time>2019-07-31T12:30:52.145Z</time>
      </trkpt>
      <trkpt lat="42.98466167" lon="-1.16138833">
        <ele>814.0</ele>
        <time>2019-07-31T12:30:53.152Z</time>
      </trkpt>
      <trkpt lat="42.98466667" lon="-1.16136833">
        <ele>814.0</ele>
        <time>2019-07-31T12:30:54.158Z</time>
      </trkpt>
      <trkpt lat="42.98467167" lon="-1.161345">
        <ele>813.0</ele>
        <time>2019-07-31T12:30:55.166Z</time>
      </trkpt>
      <trkpt lat="42.98466667" lon="-1.16132167">
        <ele>813.0</ele>
        <time>2019-07-31T12:30:56.173Z</time>
      </trkpt>
      <trkpt lat="42.984665" lon="-1.1613">
        <ele>813.0</ele>
        <time>2019-07-31T12:30:57.176Z</time>
      </trkpt>
      <trkpt lat="42.984665" lon="-1.16127333">
        <ele>813.0</ele>
        <time>2019-07-31T12:30:58.181Z</time>
      </trkpt>
      <trkpt lat="42.984665" lon="-1.16125">
        <ele>814.0</ele>
        <time>2019-07-31T12:30:59.061Z</time>
      </trkpt>
      <trkpt lat="42.98466167" lon="-1.16122833">
        <ele>814.0</ele>
        <time>2019-07-31T12:31:00.066Z</time>
      </trkpt>
      <trkpt lat="42.984655" lon="-1.16120667">
        <ele>815.0</ele>
        <time>2019-07-31T12:31:01.071Z</time>
      </trkpt>
      <trkpt lat="42.98464833" lon="-1.16119">
        <ele>814.0</ele>
        <time>2019-07-31T12:31:02.073Z</time>
      </trkpt>
      <trkpt lat="42.98464333" lon="-1.16116667">
        <ele>814.0</ele>
        <time>2019-07-31T12:31:03.077Z</time>
      </trkpt>
      <trkpt lat="42.98464833" lon="-1.16114167">
        <ele>815.0</ele>
        <time>2019-07-31T12:31:04.084Z</time>
      </trkpt>
      <trkpt lat="42.98465" lon="-1.16112">
        <ele>815.0</ele>
        <time>2019-07-31T12:31:05.090Z</time>
      </trkpt>
      <trkpt lat="42.98465167" lon="-1.16109667">
        <ele>815.0</ele>
        <time>2019-07-31T12:31:06.096Z</time>
      </trkpt>
      <trkpt lat="42.98465333" lon="-1.16107333">
        <ele>816.0</ele>
        <time>2019-07-31T12:31:07.103Z</time>
      </trkpt>
      <trkpt lat="42.98465833" lon="-1.16104833">
        <ele>816.0</ele>
        <time>2019-07-31T12:31:08.109Z</time>
      </trkpt>
      <trkpt lat="42.98466" lon="-1.16102833">
        <ele>816.0</ele>
        <time>2019-07-31T12:31:09.116Z</time>
      </trkpt>
      <trkpt lat="42.984665" lon="-1.16101">
        <ele>816.0</ele>
        <time>2019-07-31T12:31:10.120Z</time>
      </trkpt>
      <trkpt lat="42.98467" lon="-1.16099">
        <ele>816.0</ele>
        <time>2019-07-31T12:31:11.124Z</time>
      </trkpt>
      <trkpt lat="42.984665" lon="-1.16096667">
        <ele>816.0</ele>
        <time>2019-07-31T12:31:12.128Z</time>
      </trkpt>
      <trkpt lat="42.98466833" lon="-1.160945">
        <ele>816.0</ele>
        <time>2019-07-31T12:31:13.134Z</time>
      </trkpt>
      <trkpt lat="42.98467167" lon="-1.16092167">
        <ele>816.0</ele>
        <time>2019-07-31T12:31:14.142Z</time>
      </trkpt>
      <trkpt lat="42.98467333" lon="-1.16090167">
        <ele>817.0</ele>
        <time>2019-07-31T12:31:15.149Z</time>
      </trkpt>
      <trkpt lat="42.98467167" lon="-1.16088167">
        <ele>817.0</ele>
        <time>2019-07-31T12:31:16.153Z</time>
      </trkpt>
      <trkpt lat="42.98466333" lon="-1.16086167">
        <ele>818.0</ele>
        <time>2019-07-31T12:31:17.159Z</time>
      </trkpt>
      <trkpt lat="42.984665" lon="-1.16083833">
        <ele>817.0</ele>
        <time>2019-07-31T12:31:18.165Z</time>
      </trkpt>
      <trkpt lat="42.98466667" lon="-1.16081833">
        <ele>818.0</ele>
        <time>2019-07-31T12:31:19.169Z</time>
      </trkpt>
      <trkpt lat="42.984665" lon="-1.16079667">
        <ele>818.0</ele>
        <time>2019-07-31T12:31:20.174Z</time>
      </trkpt>
      <trkpt lat="42.98466333" lon="-1.160775">
        <ele>818.0</ele>
        <time>2019-07-31T12:31:21.178Z</time>
      </trkpt>
      <trkpt lat="42.98466333" lon="-1.16075667">
        <ele>818.0</ele>
        <time>2019-07-31T12:31:22.182Z</time>
      </trkpt>
      <trkpt lat="42.98466167" lon="-1.16073833">
        <ele>819.0</ele>
        <time>2019-07-31T12:31:23.061Z</time>
      </trkpt>
      <trkpt lat="42.98466333" lon="-1.16071667">
        <ele>818.0</ele>
        <time>2019-07-31T12:31:24.067Z</time>
      </trkpt>
      <trkpt lat="42.98466833" lon="-1.16069333">
        <ele>818.0</ele>
        <time>2019-07-31T12:31:25.075Z</time>
      </trkpt>
      <trkpt lat="42.98467333" lon="-1.16067333">
        <ele>818.0</ele>
        <time>2019-07-31T12:31:26.081Z</time>
      </trkpt>
      <trkpt lat="42.98467833" lon="-1.16065167">
        <ele>818.0</ele>
        <time>2019-07-31T12:31:27.088Z</time>
      </trkpt>
      <trkpt lat="42.98468167" lon="-1.16063">
        <ele>818.0</ele>
        <time>2019-07-31T12:31:28.092Z</time>
      </trkpt>
      <trkpt lat="42.984685" lon="-1.16061167">
        <ele>819.0</ele>
        <time>2019-07-31T12:31:29.097Z</time>
      </trkpt>
      <trkpt lat="42.98468667" lon="-1.16059167">
        <ele>819.0</ele>
        <time>2019-07-31T12:31:30.103Z</time>
      </trkpt>
      <trkpt lat="42.98468833" lon="-1.16057333">
        <ele>819.0</ele>
        <time>2019-07-31T12:31:31.109Z</time>
      </trkpt>
      <trkpt lat="42.98468667" lon="-1.16055333">
        <ele>820.0</ele>
        <time>2019-07-31T12:31:32.112Z</time>
      </trkpt>
      <trkpt lat="42.984685" lon="-1.16053667">
        <ele>820.0</ele>
        <time>2019-07-31T12:31:33.115Z</time>
      </trkpt>
      <trkpt lat="42.98468667" lon="-1.16052">
        <ele>820.0</ele>
        <time>2019-07-31T12:31:34.119Z</time>
      </trkpt>
      <trkpt lat="42.98468833" lon="-1.16049833">
        <ele>820.0</ele>
        <time>2019-07-31T12:31:35.125Z</time>
      </trkpt>
      <trkpt lat="42.98469333" lon="-1.16048">
        <ele>820.0</ele>
        <time>2019-07-31T12:31:36.131Z</time>
      </trkpt>
      <trkpt lat="42.98469833" lon="-1.16046">
        <ele>820.0</ele>
        <time>2019-07-31T12:31:37.138Z</time>
      </trkpt>
      <trkpt lat="42.98470333" lon="-1.16044167">
        <ele>820.0</ele>
        <time>2019-07-31T12:31:38.144Z</time>
      </trkpt>
      <trkpt lat="42.98470667" lon="-1.16042333">
        <ele>820.0</ele>
        <time>2019-07-31T12:31:39.150Z</time>
      </trkpt>
      <trkpt lat="42.98471" lon="-1.160405">
        <ele>820.0</ele>
        <time>2019-07-31T12:31:40.155Z</time>
      </trkpt>
      <trkpt lat="42.98471667" lon="-1.160385">
        <ele>819.0</ele>
        <time>2019-07-31T12:31:41.159Z</time>
      </trkpt>
      <trkpt lat="42.98472167" lon="-1.160365">
        <ele>819.0</ele>
        <time>2019-07-31T12:31:42.162Z</time>
      </trkpt>
      <trkpt lat="42.984725" lon="-1.16034333">
        <ele>819.0</ele>
        <time>2019-07-31T12:31:43.165Z</time>
      </trkpt>
      <trkpt lat="42.98473" lon="-1.160325">
        <ele>819.0</ele>
        <time>2019-07-31T12:31:44.172Z</time>
      </trkpt>
      <trkpt lat="42.98474" lon="-1.16030667">
        <ele>819.0</ele>
        <time>2019-07-31T12:31:45.178Z</time>
      </trkpt>
      <trkpt lat="42.98475167" lon="-1.16028833">
        <ele>818.0</ele>
        <time>2019-07-31T12:31:46.185Z</time>
      </trkpt>
      <trkpt lat="42.984765" lon="-1.16027167">
        <ele>818.0</ele>
        <time>2019-07-31T12:31:47.064Z</time>
      </trkpt>
      <trkpt lat="42.98477667" lon="-1.16025833">
        <ele>819.0</ele>
        <time>2019-07-31T12:31:48.070Z</time>
      </trkpt>
      <trkpt lat="42.984785" lon="-1.16024">
        <ele>818.0</ele>
        <time>2019-07-31T12:31:49.075Z</time>
      </trkpt>
      <trkpt lat="42.984795" lon="-1.16022167">
        <ele>818.0</ele>
        <time>2019-07-31T12:31:50.080Z</time>
      </trkpt>
      <trkpt lat="42.98480333" lon="-1.16020333">
        <ele>818.0</ele>
        <time>2019-07-31T12:31:51.086Z</time>
      </trkpt>
      <trkpt lat="42.98480667" lon="-1.16018667">
        <ele>818.0</ele>
        <time>2019-07-31T12:31:52.091Z</time>
      </trkpt>
      <trkpt lat="42.98481" lon="-1.16016833">
        <ele>818.0</ele>
        <time>2019-07-31T12:31:53.096Z</time>
      </trkpt>
      <trkpt lat="42.98481333" lon="-1.16015">
        <ele>818.0</ele>
        <time>2019-07-31T12:31:54.099Z</time>
      </trkpt>
      <trkpt lat="42.98481833" lon="-1.16013">
        <ele>819.0</ele>
        <time>2019-07-31T12:31:55.105Z</time>
      </trkpt>
      <trkpt lat="42.98482667" lon="-1.16011">
        <ele>819.0</ele>
        <time>2019-07-31T12:31:56.111Z</time>
      </trkpt>
      <trkpt lat="42.98483833" lon="-1.16009167">
        <ele>818.0</ele>
        <time>2019-07-31T12:31:57.117Z</time>
      </trkpt>
      <trkpt lat="42.98484667" lon="-1.16007333">
        <ele>818.0</ele>
        <time>2019-07-31T12:31:58.121Z</time>
      </trkpt>
      <trkpt lat="42.98485" lon="-1.16005833">
        <ele>818.0</ele>
        <time>2019-07-31T12:31:59.127Z</time>
      </trkpt>
      <trkpt lat="42.98485" lon="-1.16004167">
        <ele>818.0</ele>
        <time>2019-07-31T12:32:00.132Z</time>
      </trkpt>
      <trkpt lat="42.98484667" lon="-1.160025">
        <ele>817.0</ele>
        <time>2019-07-31T12:32:01.137Z</time>
      </trkpt>
      <trkpt lat="42.98484833" lon="-1.160015">
        <ele>817.0</ele>
        <time>2019-07-31T12:32:02.144Z</time>
      </trkpt>
      <trkpt lat="42.98484833" lon="-1.16">
        <ele>818.0</ele>
        <time>2019-07-31T12:32:03.149Z</time>
      </trkpt>
      <trkpt lat="42.984845" lon="-1.159985">
        <ele>817.0</ele>
        <time>2019-07-31T12:32:04.154Z</time>
      </trkpt>
      <trkpt lat="42.98484333" lon="-1.159965">
        <ele>817.0</ele>
        <time>2019-07-31T12:32:05.158Z</time>
      </trkpt>
      <trkpt lat="42.984845" lon="-1.159945">
        <ele>817.0</ele>
        <time>2019-07-31T12:32:06.163Z</time>
      </trkpt>
      <trkpt lat="42.984845" lon="-1.15992667">
        <ele>817.0</ele>
        <time>2019-07-31T12:32:07.168Z</time>
      </trkpt>
      <trkpt lat="42.98485" lon="-1.159915">
        <ele>817.0</ele>
        <time>2019-07-31T12:32:08.175Z</time>
      </trkpt>
      <trkpt lat="42.98485167" lon="-1.15990167">
        <ele>817.0</ele>
        <time>2019-07-31T12:32:09.182Z</time>
      </trkpt>
      <trkpt lat="42.98485833" lon="-1.15988833">
        <ele>817.0</ele>
        <time>2019-07-31T12:32:10.186Z</time>
      </trkpt>
      <trkpt lat="42.984865" lon="-1.15987333">
        <ele>818.0</ele>
        <time>2019-07-31T12:32:11.065Z</time>
      </trkpt>
      <trkpt lat="42.984875" lon="-1.159855">
        <ele>818.0</ele>
        <time>2019-07-31T12:32:12.071Z</time>
      </trkpt>
      <trkpt lat="42.98488833" lon="-1.15983833">
        <ele>818.0</ele>
        <time>2019-07-31T12:32:13.077Z</time>
      </trkpt>
      <trkpt lat="42.9849" lon="-1.159825">
        <ele>817.0</ele>
        <time>2019-07-31T12:32:14.083Z</time>
      </trkpt>
      <trkpt lat="42.984915" lon="-1.15981167">
        <ele>817.0</ele>
        <time>2019-07-31T12:32:15.088Z</time>
      </trkpt>
      <trkpt lat="42.984925" lon="-1.15979333">
        <ele>817.0</ele>
        <time>2019-07-31T12:32:16.094Z</time>
      </trkpt>
      <trkpt lat="42.98493" lon="-1.15977">
        <ele>817.0</ele>
        <time>2019-07-31T12:32:17.101Z</time>
      </trkpt>
      <trkpt lat="42.98494" lon="-1.15974833">
        <ele>818.0</ele>
        <time>2019-07-31T12:32:18.107Z</time>
      </trkpt>
      <trkpt lat="42.98494833" lon="-1.15973">
        <ele>818.0</ele>
        <time>2019-07-31T12:32:19.112Z</time>
      </trkpt>
      <trkpt lat="42.98495833" lon="-1.15970833">
        <ele>818.0</ele>
        <time>2019-07-31T12:32:20.117Z</time>
      </trkpt>
      <trkpt lat="42.98496167" lon="-1.15969167">
        <ele>819.0</ele>
        <time>2019-07-31T12:32:21.123Z</time>
      </trkpt>
      <trkpt lat="42.98496" lon="-1.15967167">
        <ele>820.0</ele>
        <time>2019-07-31T12:32:22.128Z</time>
      </trkpt>
      <trkpt lat="42.98495333" lon="-1.15965">
        <ele>821.0</ele>
        <time>2019-07-31T12:32:23.134Z</time>
      </trkpt>
      <trkpt lat="42.98495167" lon="-1.15962833">
        <ele>822.0</ele>
        <time>2019-07-31T12:32:24.139Z</time>
      </trkpt>
      <trkpt lat="42.98495667" lon="-1.15961">
        <ele>822.0</ele>
        <time>2019-07-31T12:32:25.144Z</time>
      </trkpt>
      <trkpt lat="42.98495167" lon="-1.159585">
        <ele>822.0</ele>
        <time>2019-07-31T12:32:26.151Z</time>
      </trkpt>
      <trkpt lat="42.98495" lon="-1.15956833">
        <ele>823.0</ele>
        <time>2019-07-31T12:32:27.157Z</time>
      </trkpt>
      <trkpt lat="42.98495167" lon="-1.15955667">
        <ele>824.0</ele>
        <time>2019-07-31T12:32:28.161Z</time>
      </trkpt>
      <trkpt lat="42.98495167" lon="-1.15953833">
        <ele>825.0</ele>
        <time>2019-07-31T12:32:29.167Z</time>
      </trkpt>
      <trkpt lat="42.98495333" lon="-1.159515">
        <ele>825.0</ele>
        <time>2019-07-31T12:32:30.172Z</time>
      </trkpt>
      <trkpt lat="42.98496" lon="-1.15949">
        <ele>825.0</ele>
        <time>2019-07-31T12:32:31.179Z</time>
      </trkpt>
      <trkpt lat="42.98497833" lon="-1.15946667">
        <ele>825.0</ele>
        <time>2019-07-31T12:32:32.184Z</time>
      </trkpt>
      <trkpt lat="42.98499167" lon="-1.15944">
        <ele>825.0</ele>
        <time>2019-07-31T12:32:33.064Z</time>
      </trkpt>
      <trkpt lat="42.984995" lon="-1.15941">
        <ele>825.0</ele>
        <time>2019-07-31T12:32:34.070Z</time>
      </trkpt>
      <trkpt lat="42.98500833" lon="-1.15938833">
        <ele>824.0</ele>
        <time>2019-07-31T12:32:35.076Z</time>
      </trkpt>
      <trkpt lat="42.98501833" lon="-1.159365">
        <ele>824.0</ele>
        <time>2019-07-31T12:32:36.081Z</time>
      </trkpt>
      <trkpt lat="42.98502667" lon="-1.159345">
        <ele>823.0</ele>
        <time>2019-07-31T12:32:37.086Z</time>
      </trkpt>
      <trkpt lat="42.98503333" lon="-1.15932167">
        <ele>821.0</ele>
        <time>2019-07-31T12:32:38.091Z</time>
      </trkpt>
      <trkpt lat="42.98505" lon="-1.15929667">
        <ele>821.0</ele>
        <time>2019-07-31T12:32:39.096Z</time>
      </trkpt>
      <trkpt lat="42.98505833" lon="-1.15927667">
        <ele>821.0</ele>
        <time>2019-07-31T12:32:40.101Z</time>
      </trkpt>
      <trkpt lat="42.98506667" lon="-1.15925667">
        <ele>820.0</ele>
        <time>2019-07-31T12:32:41.108Z</time>
      </trkpt>
      <trkpt lat="42.98507167" lon="-1.15924167">
        <ele>820.0</ele>
        <time>2019-07-31T12:32:42.113Z</time>
      </trkpt>
      <trkpt lat="42.98507833" lon="-1.15921833">
        <ele>820.0</ele>
        <time>2019-07-31T12:32:43.117Z</time>
      </trkpt>
      <trkpt lat="42.98507667" lon="-1.159185">
        <ele>820.0</ele>
        <time>2019-07-31T12:32:44.121Z</time>
      </trkpt>
      <trkpt lat="42.98507833" lon="-1.159155">
        <ele>819.0</ele>
        <time>2019-07-31T12:32:45.127Z</time>
      </trkpt>
      <trkpt lat="42.98507667" lon="-1.15912833">
        <ele>819.0</ele>
        <time>2019-07-31T12:32:46.132Z</time>
      </trkpt>
      <trkpt lat="42.985075" lon="-1.15911167">
        <ele>819.0</ele>
        <time>2019-07-31T12:32:47.138Z</time>
      </trkpt>
      <trkpt lat="42.98507667" lon="-1.15909">
        <ele>818.0</ele>
        <time>2019-07-31T12:32:48.145Z</time>
      </trkpt>
      <trkpt lat="42.985075" lon="-1.15907167">
        <ele>817.0</ele>
        <time>2019-07-31T12:32:49.151Z</time>
      </trkpt>
      <trkpt lat="42.985085" lon="-1.15905167">
        <ele>817.0</ele>
        <time>2019-07-31T12:32:50.155Z</time>
      </trkpt>
      <trkpt lat="42.985095" lon="-1.15903167">
        <ele>818.0</ele>
        <time>2019-07-31T12:32:51.160Z</time>
      </trkpt>
      <trkpt lat="42.98510333" lon="-1.15900667">
        <ele>818.0</ele>
        <time>2019-07-31T12:32:52.167Z</time>
      </trkpt>
      <trkpt lat="42.98511333" lon="-1.15898167">
        <ele>819.0</ele>
        <time>2019-07-31T12:32:53.171Z</time>
      </trkpt>
      <trkpt lat="42.985115" lon="-1.15895">
        <ele>818.0</ele>
        <time>2019-07-31T12:32:54.176Z</time>
      </trkpt>
      <trkpt lat="42.98512167" lon="-1.15892833">
        <ele>818.0</ele>
        <time>2019-07-31T12:32:55.182Z</time>
      </trkpt>
      <trkpt lat="42.98511833" lon="-1.15890667">
        <ele>818.0</ele>
        <time>2019-07-31T12:32:56.061Z</time>
      </trkpt>
      <trkpt lat="42.98511667" lon="-1.15888333">
        <ele>818.0</ele>
        <time>2019-07-31T12:32:57.067Z</time>
      </trkpt>
      <trkpt lat="42.98512" lon="-1.15886">
        <ele>818.0</ele>
        <time>2019-07-31T12:32:58.073Z</time>
      </trkpt>
      <trkpt lat="42.98512333" lon="-1.15884333">
        <ele>818.0</ele>
        <time>2019-07-31T12:32:59.079Z</time>
      </trkpt>
      <trkpt lat="42.98513333" lon="-1.158825">
        <ele>817.0</ele>
        <time>2019-07-31T12:33:00.085Z</time>
      </trkpt>
      <trkpt lat="42.98514333" lon="-1.15881">
        <ele>817.0</ele>
        <time>2019-07-31T12:33:01.091Z</time>
      </trkpt>
      <trkpt lat="42.98515333" lon="-1.15879">
        <ele>817.0</ele>
        <time>2019-07-31T12:33:02.097Z</time>
      </trkpt>
      <trkpt lat="42.98515" lon="-1.158765">
        <ele>817.0</ele>
        <time>2019-07-31T12:33:03.102Z</time>
      </trkpt>
      <trkpt lat="42.98515833" lon="-1.15874667">
        <ele>817.0</ele>
        <time>2019-07-31T12:33:04.109Z</time>
      </trkpt>
      <trkpt lat="42.98516333" lon="-1.15872833">
        <ele>817.0</ele>
        <time>2019-07-31T12:33:05.116Z</time>
      </trkpt>
      <trkpt lat="42.98516833" lon="-1.158715">
        <ele>817.0</ele>
        <time>2019-07-31T12:33:06.121Z</time>
      </trkpt>
      <trkpt lat="42.985175" lon="-1.15869">
        <ele>816.0</ele>
        <time>2019-07-31T12:33:07.126Z</time>
      </trkpt>
      <trkpt lat="42.98517833" lon="-1.158675">
        <ele>816.0</ele>
        <time>2019-07-31T12:33:08.130Z</time>
      </trkpt>
      <trkpt lat="42.98518833" lon="-1.158655">
        <ele>816.0</ele>
        <time>2019-07-31T12:33:09.135Z</time>
      </trkpt>
      <trkpt lat="42.98519667" lon="-1.15863833">
        <ele>816.0</ele>
        <time>2019-07-31T12:33:10.141Z</time>
      </trkpt>
      <trkpt lat="42.985205" lon="-1.15862333">
        <ele>816.0</ele>
        <time>2019-07-31T12:33:11.148Z</time>
      </trkpt>
      <trkpt lat="42.985215" lon="-1.15860667">
        <ele>816.0</ele>
        <time>2019-07-31T12:33:12.153Z</time>
      </trkpt>
      <trkpt lat="42.98522333" lon="-1.15859">
        <ele>816.0</ele>
        <time>2019-07-31T12:33:13.157Z</time>
      </trkpt>
      <trkpt lat="42.98523333" lon="-1.15857167">
        <ele>816.0</ele>
        <time>2019-07-31T12:33:14.162Z</time>
      </trkpt>
      <trkpt lat="42.985245" lon="-1.15855667">
        <ele>815.0</ele>
        <time>2019-07-31T12:33:15.167Z</time>
      </trkpt>
      <trkpt lat="42.985255" lon="-1.158545">
        <ele>815.0</ele>
        <time>2019-07-31T12:33:16.174Z</time>
      </trkpt>
      <trkpt lat="42.98527" lon="-1.15852833">
        <ele>815.0</ele>
        <time>2019-07-31T12:33:17.179Z</time>
      </trkpt>
      <trkpt lat="42.98528" lon="-1.15851333">
        <ele>815.0</ele>
        <time>2019-07-31T12:33:18.186Z</time>
      </trkpt>
      <trkpt lat="42.98528833" lon="-1.1585">
        <ele>815.0</ele>
        <time>2019-07-31T12:33:19.067Z</time>
      </trkpt>
      <trkpt lat="42.98529667" lon="-1.15848833">
        <ele>815.0</ele>
        <time>2019-07-31T12:33:20.074Z</time>
      </trkpt>
      <trkpt lat="42.98530833" lon="-1.15847167">
        <ele>814.0</ele>
        <time>2019-07-31T12:33:21.079Z</time>
      </trkpt>
      <trkpt lat="42.98531667" lon="-1.15845833">
        <ele>814.0</ele>
        <time>2019-07-31T12:33:22.087Z</time>
      </trkpt>
      <trkpt lat="42.98532667" lon="-1.15844333">
        <ele>814.0</ele>
        <time>2019-07-31T12:33:23.092Z</time>
      </trkpt>
      <trkpt lat="42.985335" lon="-1.15843167">
        <ele>813.0</ele>
        <time>2019-07-31T12:33:24.097Z</time>
      </trkpt>
      <trkpt lat="42.98534667" lon="-1.15842">
        <ele>813.0</ele>
        <time>2019-07-31T12:33:25.102Z</time>
      </trkpt>
      <trkpt lat="42.98535833" lon="-1.15840333">
        <ele>812.0</ele>
        <time>2019-07-31T12:33:26.108Z</time>
      </trkpt>
      <trkpt lat="42.98537167" lon="-1.15839167">
        <ele>812.0</ele>
        <time>2019-07-31T12:33:27.114Z</time>
      </trkpt>
      <trkpt lat="42.98538333" lon="-1.15837667">
        <ele>813.0</ele>
        <time>2019-07-31T12:33:28.119Z</time>
      </trkpt>
      <trkpt lat="42.98539333" lon="-1.15836">
        <ele>813.0</ele>
        <time>2019-07-31T12:33:29.124Z</time>
      </trkpt>
      <trkpt lat="42.985405" lon="-1.158345">
        <ele>813.0</ele>
        <time>2019-07-31T12:33:30.129Z</time>
      </trkpt>
      <trkpt lat="42.985415" lon="-1.15833167">
        <ele>812.0</ele>
        <time>2019-07-31T12:33:31.132Z</time>
      </trkpt>
      <trkpt lat="42.98542167" lon="-1.15831667">
        <ele>812.0</ele>
        <time>2019-07-31T12:33:32.135Z</time>
      </trkpt>
      <trkpt lat="42.985425" lon="-1.15830333">
        <ele>812.0</ele>
        <time>2019-07-31T12:33:33.140Z</time>
      </trkpt>
      <trkpt lat="42.98542833" lon="-1.15829167">
        <ele>813.0</ele>
        <time>2019-07-31T12:33:34.147Z</time>
      </trkpt>
      <trkpt lat="42.98543333" lon="-1.15827167">
        <ele>813.0</ele>
        <time>2019-07-31T12:33:35.156Z</time>
      </trkpt>
      <trkpt lat="42.98543333" lon="-1.15825333">
        <ele>813.0</ele>
        <time>2019-07-31T12:33:36.161Z</time>
      </trkpt>
      <trkpt lat="42.98543167" lon="-1.15823333">
        <ele>814.0</ele>
        <time>2019-07-31T12:33:37.166Z</time>
      </trkpt>
      <trkpt lat="42.98543" lon="-1.15821833">
        <ele>814.0</ele>
        <time>2019-07-31T12:33:38.170Z</time>
      </trkpt>
      <trkpt lat="42.98542833" lon="-1.15819667">
        <ele>814.0</ele>
        <time>2019-07-31T12:33:39.175Z</time>
      </trkpt>
      <trkpt lat="42.98542667" lon="-1.15817167">
        <ele>815.0</ele>
        <time>2019-07-31T12:33:40.182Z</time>
      </trkpt>
      <trkpt lat="42.98542" lon="-1.15815">
        <ele>815.0</ele>
        <time>2019-07-31T12:33:41.061Z</time>
      </trkpt>
      <trkpt lat="42.985415" lon="-1.15813">
        <ele>816.0</ele>
        <time>2019-07-31T12:33:42.067Z</time>
      </trkpt>
      <trkpt lat="42.98540833" lon="-1.15811333">
        <ele>816.0</ele>
        <time>2019-07-31T12:33:43.071Z</time>
      </trkpt>
      <trkpt lat="42.9854" lon="-1.15809167">
        <ele>816.0</ele>
        <time>2019-07-31T12:33:44.076Z</time>
      </trkpt>
      <trkpt lat="42.98539" lon="-1.15807">
        <ele>816.0</ele>
        <time>2019-07-31T12:33:45.081Z</time>
      </trkpt>
      <trkpt lat="42.985385" lon="-1.15805667">
        <ele>816.0</ele>
        <time>2019-07-31T12:33:46.085Z</time>
      </trkpt>
      <trkpt lat="42.985375" lon="-1.158035">
        <ele>816.0</ele>
        <time>2019-07-31T12:33:47.088Z</time>
      </trkpt>
      <trkpt lat="42.98536833" lon="-1.15802167">
        <ele>816.0</ele>
        <time>2019-07-31T12:33:48.092Z</time>
      </trkpt>
      <trkpt lat="42.98535833" lon="-1.158">
        <ele>816.0</ele>
        <time>2019-07-31T12:33:49.097Z</time>
      </trkpt>
      <trkpt lat="42.98534833" lon="-1.15798167">
        <ele>816.0</ele>
        <time>2019-07-31T12:33:50.102Z</time>
      </trkpt>
      <trkpt lat="42.98533833" lon="-1.157965">
        <ele>816.0</ele>
        <time>2019-07-31T12:33:51.108Z</time>
      </trkpt>
      <trkpt lat="42.98533" lon="-1.15794833">
        <ele>815.0</ele>
        <time>2019-07-31T12:33:52.114Z</time>
      </trkpt>
      <trkpt lat="42.98532333" lon="-1.15793">
        <ele>816.0</ele>
        <time>2019-07-31T12:33:53.118Z</time>
      </trkpt>
      <trkpt lat="42.985315" lon="-1.157915">
        <ele>816.0</ele>
        <time>2019-07-31T12:33:54.124Z</time>
      </trkpt>
      <trkpt lat="42.985305" lon="-1.15789667">
        <ele>815.0</ele>
        <time>2019-07-31T12:33:55.132Z</time>
      </trkpt>
      <trkpt lat="42.985295" lon="-1.15787833">
        <ele>816.0</ele>
        <time>2019-07-31T12:33:56.135Z</time>
      </trkpt>
      <trkpt lat="42.98528667" lon="-1.15786333">
        <ele>816.0</ele>
        <time>2019-07-31T12:33:57.142Z</time>
      </trkpt>
      <trkpt lat="42.98527833" lon="-1.15784833">
        <ele>816.0</ele>
        <time>2019-07-31T12:33:58.149Z</time>
      </trkpt>
      <trkpt lat="42.98527" lon="-1.15782833">
        <ele>816.0</ele>
        <time>2019-07-31T12:33:59.153Z</time>
      </trkpt>
      <trkpt lat="42.98526167" lon="-1.15781167">
        <ele>816.0</ele>
        <time>2019-07-31T12:34:00.158Z</time>
      </trkpt>
      <trkpt lat="42.98525333" lon="-1.157795">
        <ele>816.0</ele>
        <time>2019-07-31T12:34:01.163Z</time>
      </trkpt>
      <trkpt lat="42.985245" lon="-1.15777833">
        <ele>817.0</ele>
        <time>2019-07-31T12:34:02.168Z</time>
      </trkpt>
      <trkpt lat="42.98524" lon="-1.157765">
        <ele>817.0</ele>
        <time>2019-07-31T12:34:03.173Z</time>
      </trkpt>
      <trkpt lat="42.98523" lon="-1.15774667">
        <ele>817.0</ele>
        <time>2019-07-31T12:34:04.177Z</time>
      </trkpt>
      <trkpt lat="42.98522" lon="-1.15773333">
        <ele>817.0</ele>
        <time>2019-07-31T12:34:05.184Z</time>
      </trkpt>
      <trkpt lat="42.98521167" lon="-1.15771833">
        <ele>817.0</ele>
        <time>2019-07-31T12:34:06.064Z</time>
      </trkpt>
      <trkpt lat="42.9852" lon="-1.157705">
        <ele>817.0</ele>
        <time>2019-07-31T12:34:07.069Z</time>
      </trkpt>
      <trkpt lat="42.98519167" lon="-1.15769">
        <ele>817.0</ele>
        <time>2019-07-31T12:34:08.073Z</time>
      </trkpt>
      <trkpt lat="42.98518" lon="-1.157675">
        <ele>818.0</ele>
        <time>2019-07-31T12:34:09.077Z</time>
      </trkpt>
      <trkpt lat="42.98517167" lon="-1.15766167">
        <ele>818.0</ele>
        <time>2019-07-31T12:34:10.083Z</time>
      </trkpt>
      <trkpt lat="42.98516" lon="-1.15764833">
        <ele>818.0</ele>
        <time>2019-07-31T12:34:11.088Z</time>
      </trkpt>
      <trkpt lat="42.98515" lon="-1.15763333">
        <ele>818.0</ele>
        <time>2019-07-31T12:34:12.093Z</time>
      </trkpt>
      <trkpt lat="42.98514" lon="-1.15762">
        <ele>819.0</ele>
        <time>2019-07-31T12:34:13.100Z</time>
      </trkpt>
      <trkpt lat="42.98512833" lon="-1.15760667">
        <ele>819.0</ele>
        <time>2019-07-31T12:34:14.105Z</time>
      </trkpt>
      <trkpt lat="42.98511667" lon="-1.15759333">
        <ele>819.0</ele>
        <time>2019-07-31T12:34:15.113Z</time>
      </trkpt>
      <trkpt lat="42.985105" lon="-1.15758">
        <ele>819.0</ele>
        <time>2019-07-31T12:34:16.119Z</time>
      </trkpt>
      <trkpt lat="42.98509167" lon="-1.157565">
        <ele>820.0</ele>
        <time>2019-07-31T12:34:17.125Z</time>
      </trkpt>
      <trkpt lat="42.98508" lon="-1.15755333">
        <ele>819.0</ele>
        <time>2019-07-31T12:34:18.132Z</time>
      </trkpt>
      <trkpt lat="42.98507" lon="-1.15754167">
        <ele>820.0</ele>
        <time>2019-07-31T12:34:19.137Z</time>
      </trkpt>
      <trkpt lat="42.98506" lon="-1.15752667">
        <ele>820.0</ele>
        <time>2019-07-31T12:34:20.143Z</time>
      </trkpt>
      <trkpt lat="42.98504833" lon="-1.15751167">
        <ele>820.0</ele>
        <time>2019-07-31T12:34:21.147Z</time>
      </trkpt>
      <trkpt lat="42.98503667" lon="-1.1575">
        <ele>821.0</ele>
        <time>2019-07-31T12:34:22.152Z</time>
      </trkpt>
      <trkpt lat="42.985025" lon="-1.15748833">
        <ele>821.0</ele>
        <time>2019-07-31T12:34:23.157Z</time>
      </trkpt>
      <trkpt lat="42.985015" lon="-1.15747667">
        <ele>821.0</ele>
        <time>2019-07-31T12:34:24.160Z</time>
      </trkpt>
      <trkpt lat="42.98500167" lon="-1.15746667">
        <ele>821.0</ele>
        <time>2019-07-31T12:34:25.167Z</time>
      </trkpt>
      <trkpt lat="42.98498833" lon="-1.15745667">
        <ele>821.0</ele>
        <time>2019-07-31T12:34:26.174Z</time>
      </trkpt>
      <trkpt lat="42.98497667" lon="-1.15745">
        <ele>821.0</ele>
        <time>2019-07-31T12:34:27.180Z</time>
      </trkpt>
      <trkpt lat="42.98496167" lon="-1.15744">
        <ele>821.0</ele>
        <time>2019-07-31T12:34:28.184Z</time>
      </trkpt>
      <trkpt lat="42.98494833" lon="-1.15743">
        <ele>821.0</ele>
        <time>2019-07-31T12:34:29.065Z</time>
      </trkpt>
      <trkpt lat="42.984935" lon="-1.15742167">
        <ele>822.0</ele>
        <time>2019-07-31T12:34:30.072Z</time>
      </trkpt>
      <trkpt lat="42.984925" lon="-1.15741667">
        <ele>824.0</ele>
        <time>2019-07-31T12:34:31.078Z</time>
      </trkpt>
      <trkpt lat="42.984915" lon="-1.15740667">
        <ele>824.0</ele>
        <time>2019-07-31T12:34:32.083Z</time>
      </trkpt>
      <trkpt lat="42.9849" lon="-1.15739667">
        <ele>825.0</ele>
        <time>2019-07-31T12:34:33.088Z</time>
      </trkpt>
      <trkpt lat="42.98488667" lon="-1.15738833">
        <ele>825.0</ele>
        <time>2019-07-31T12:34:34.094Z</time>
      </trkpt>
      <trkpt lat="42.98487167" lon="-1.15738">
        <ele>825.0</ele>
        <time>2019-07-31T12:34:35.099Z</time>
      </trkpt>
      <trkpt lat="42.984855" lon="-1.15737">
        <ele>826.0</ele>
        <time>2019-07-31T12:34:36.103Z</time>
      </trkpt>
      <trkpt lat="42.98483833" lon="-1.15736333">
        <ele>825.0</ele>
        <time>2019-07-31T12:34:37.110Z</time>
      </trkpt>
      <trkpt lat="42.98482167" lon="-1.15735333">
        <ele>825.0</ele>
        <time>2019-07-31T12:34:38.115Z</time>
      </trkpt>
      <trkpt lat="42.984805" lon="-1.15734833">
        <ele>824.0</ele>
        <time>2019-07-31T12:34:39.120Z</time>
      </trkpt>
      <trkpt lat="42.98478667" lon="-1.15734333">
        <ele>824.0</ele>
        <time>2019-07-31T12:34:40.127Z</time>
      </trkpt>
      <trkpt lat="42.98477333" lon="-1.15733833">
        <ele>824.0</ele>
        <time>2019-07-31T12:34:41.133Z</time>
      </trkpt>
      <trkpt lat="42.98476" lon="-1.15733667">
        <ele>824.0</ele>
        <time>2019-07-31T12:34:42.137Z</time>
      </trkpt>
      <trkpt lat="42.98474" lon="-1.15733">
        <ele>824.0</ele>
        <time>2019-07-31T12:34:43.142Z</time>
      </trkpt>
      <trkpt lat="42.984725" lon="-1.15732667">
        <ele>824.0</ele>
        <time>2019-07-31T12:34:44.149Z</time>
      </trkpt>
      <trkpt lat="42.984705" lon="-1.15732167">
        <ele>823.0</ele>
        <time>2019-07-31T12:34:45.155Z</time>
      </trkpt>
      <trkpt lat="42.98469333" lon="-1.15732">
        <ele>823.0</ele>
        <time>2019-07-31T12:34:46.161Z</time>
      </trkpt>
      <trkpt lat="42.98467167" lon="-1.15731667">
        <ele>822.0</ele>
        <time>2019-07-31T12:34:47.168Z</time>
      </trkpt>
      <trkpt lat="42.98466" lon="-1.15731333">
        <ele>822.0</ele>
        <time>2019-07-31T12:34:48.174Z</time>
      </trkpt>
      <trkpt lat="42.98464333" lon="-1.15731167">
        <ele>822.0</ele>
        <time>2019-07-31T12:34:49.180Z</time>
      </trkpt>
      <trkpt lat="42.98462667" lon="-1.157315">
        <ele>821.0</ele>
        <time>2019-07-31T12:34:50.186Z</time>
      </trkpt>
      <trkpt lat="42.984615" lon="-1.157315">
        <ele>820.0</ele>
        <time>2019-07-31T12:34:51.063Z</time>
      </trkpt>
      <trkpt lat="42.98459667" lon="-1.157315">
        <ele>820.0</ele>
        <time>2019-07-31T12:34:52.066Z</time>
      </trkpt>
      <trkpt lat="42.98457667" lon="-1.15731333">
        <ele>820.0</ele>
        <time>2019-07-31T12:34:53.071Z</time>
      </trkpt>
      <trkpt lat="42.98456333" lon="-1.15731667">
        <ele>820.0</ele>
        <time>2019-07-31T12:34:54.076Z</time>
      </trkpt>
      <trkpt lat="42.98454667" lon="-1.15731667">
        <ele>820.0</ele>
        <time>2019-07-31T12:34:55.081Z</time>
      </trkpt>
      <trkpt lat="42.98453333" lon="-1.15731667">
        <ele>819.0</ele>
        <time>2019-07-31T12:34:56.085Z</time>
      </trkpt>
      <trkpt lat="42.98451667" lon="-1.15731667">
        <ele>819.0</ele>
        <time>2019-07-31T12:34:57.092Z</time>
      </trkpt>
      <trkpt lat="42.98450167" lon="-1.15732">
        <ele>819.0</ele>
        <time>2019-07-31T12:34:58.096Z</time>
      </trkpt>
      <trkpt lat="42.98449" lon="-1.15732167">
        <ele>819.0</ele>
        <time>2019-07-31T12:34:59.102Z</time>
      </trkpt>
      <trkpt lat="42.984475" lon="-1.157325">
        <ele>819.0</ele>
        <time>2019-07-31T12:35:00.106Z</time>
      </trkpt>
      <trkpt lat="42.98445833" lon="-1.15732667">
        <ele>819.0</ele>
        <time>2019-07-31T12:35:01.110Z</time>
      </trkpt>
      <trkpt lat="42.98444167" lon="-1.15732833">
        <ele>819.0</ele>
        <time>2019-07-31T12:35:02.115Z</time>
      </trkpt>
      <trkpt lat="42.984425" lon="-1.15733167">
        <ele>819.0</ele>
        <time>2019-07-31T12:35:03.119Z</time>
      </trkpt>
      <trkpt lat="42.98441" lon="-1.15734">
        <ele>820.0</ele>
        <time>2019-07-31T12:35:04.125Z</time>
      </trkpt>
      <trkpt lat="42.984395" lon="-1.157345">
        <ele>820.0</ele>
        <time>2019-07-31T12:35:05.131Z</time>
      </trkpt>
      <trkpt lat="42.98438167" lon="-1.15734833">
        <ele>821.0</ele>
        <time>2019-07-31T12:35:06.135Z</time>
      </trkpt>
      <trkpt lat="42.98436667" lon="-1.15734833">
        <ele>821.0</ele>
        <time>2019-07-31T12:35:07.141Z</time>
      </trkpt>
      <trkpt lat="42.984355" lon="-1.15735">
        <ele>822.0</ele>
        <time>2019-07-31T12:35:08.146Z</time>
      </trkpt>
      <trkpt lat="42.98434833" lon="-1.15735167">
        <ele>823.0</ele>
        <time>2019-07-31T12:35:09.152Z</time>
      </trkpt>
      <trkpt lat="42.98433833" lon="-1.15735167">
        <ele>824.0</ele>
        <time>2019-07-31T12:35:10.158Z</time>
      </trkpt>
      <trkpt lat="42.98433333" lon="-1.157355">
        <ele>825.0</ele>
        <time>2019-07-31T12:35:11.163Z</time>
      </trkpt>
      <trkpt lat="42.98432833" lon="-1.15735333">
        <ele>826.0</ele>
        <time>2019-07-31T12:35:12.168Z</time>
      </trkpt>
      <trkpt lat="42.984325" lon="-1.15735333">
        <ele>827.0</ele>
        <time>2019-07-31T12:35:13.174Z</time>
      </trkpt>
      <trkpt lat="42.98432333" lon="-1.15735167">
        <ele>828.0</ele>
        <time>2019-07-31T12:35:14.180Z</time>
      </trkpt>
      <trkpt lat="42.98432333" lon="-1.15735833">
        <ele>828.0</ele>
        <time>2019-07-31T12:35:15.186Z</time>
      </trkpt>
      <trkpt lat="42.984325" lon="-1.15736833">
        <ele>827.0</ele>
        <time>2019-07-31T12:35:16.066Z</time>
      </trkpt>
      <trkpt lat="42.984325" lon="-1.15738167">
        <ele>827.0</ele>
        <time>2019-07-31T12:35:17.072Z</time>
      </trkpt>
      <trkpt lat="42.98431833" lon="-1.15739167">
        <ele>827.0</ele>
        <time>2019-07-31T12:35:18.076Z</time>
      </trkpt>
      <trkpt lat="42.98431167" lon="-1.157405">
        <ele>827.0</ele>
        <time>2019-07-31T12:35:19.080Z</time>
      </trkpt>
      <trkpt lat="42.98430333" lon="-1.15741667">
        <ele>827.0</ele>
        <time>2019-07-31T12:35:20.084Z</time>
      </trkpt>
      <trkpt lat="42.98429167" lon="-1.15742833">
        <ele>826.0</ele>
        <time>2019-07-31T12:35:21.090Z</time>
      </trkpt>
      <trkpt lat="42.984285" lon="-1.157435">
        <ele>826.0</ele>
        <time>2019-07-31T12:35:22.096Z</time>
      </trkpt>
      <trkpt lat="42.98427833" lon="-1.15743667">
        <ele>827.0</ele>
        <time>2019-07-31T12:35:23.101Z</time>
      </trkpt>
      <trkpt lat="42.984275" lon="-1.15743833">
        <ele>828.0</ele>
        <time>2019-07-31T12:35:24.106Z</time>
      </trkpt>
      <trkpt lat="42.98426667" lon="-1.157435">
        <ele>829.0</ele>
        <time>2019-07-31T12:35:25.109Z</time>
      </trkpt>
      <trkpt lat="42.98426667" lon="-1.15743333">
        <ele>829.0</ele>
        <time>2019-07-31T12:35:26.116Z</time>
      </trkpt>
      <trkpt lat="42.98426667" lon="-1.15743">
        <ele>829.0</ele>
        <time>2019-07-31T12:35:27.121Z</time>
      </trkpt>
      <trkpt lat="42.98427" lon="-1.157425">
        <ele>829.0</ele>
        <time>2019-07-31T12:35:28.128Z</time>
      </trkpt>
      <trkpt lat="42.98427667" lon="-1.15742">
        <ele>829.0</ele>
        <time>2019-07-31T12:35:29.133Z</time>
      </trkpt>
      <trkpt lat="42.984285" lon="-1.15741667">
        <ele>829.0</ele>
        <time>2019-07-31T12:35:30.138Z</time>
      </trkpt>
      <trkpt lat="42.98429333" lon="-1.15741667">
        <ele>830.0</ele>
        <time>2019-07-31T12:35:31.141Z</time>
      </trkpt>
      <trkpt lat="42.98430167" lon="-1.157415">
        <ele>831.0</ele>
        <time>2019-07-31T12:35:32.149Z</time>
      </trkpt>
      <trkpt lat="42.98430667" lon="-1.15741167">
        <ele>832.0</ele>
        <time>2019-07-31T12:35:33.156Z</time>
      </trkpt>
      <trkpt lat="42.98432167" lon="-1.15741">
        <ele>833.0</ele>
        <time>2019-07-31T12:35:34.159Z</time>
      </trkpt>
      <trkpt lat="42.98434" lon="-1.15740833">
        <ele>834.0</ele>
        <time>2019-07-31T12:35:35.166Z</time>
      </trkpt>
      <trkpt lat="42.98435167" lon="-1.15740333">
        <ele>835.0</ele>
        <time>2019-07-31T12:35:36.168Z</time>
      </trkpt>
      <trkpt lat="42.98435833" lon="-1.157395">
        <ele>835.0</ele>
        <time>2019-07-31T12:35:37.173Z</time>
      </trkpt>
      <trkpt lat="42.984365" lon="-1.15738">
        <ele>835.0</ele>
        <time>2019-07-31T12:35:38.180Z</time>
      </trkpt>
      <trkpt lat="42.98437" lon="-1.157365">
        <ele>835.0</ele>
        <time>2019-07-31T12:35:39.061Z</time>
      </trkpt>
      <trkpt lat="42.98438" lon="-1.15735">
        <ele>835.0</ele>
        <time>2019-07-31T12:35:40.066Z</time>
      </trkpt>
      <trkpt lat="42.98438333" lon="-1.15733833">
        <ele>835.0</ele>
        <time>2019-07-31T12:35:41.069Z</time>
      </trkpt>
      <trkpt lat="42.98439" lon="-1.15732667">
        <ele>835.0</ele>
        <time>2019-07-31T12:35:42.073Z</time>
      </trkpt>
      <trkpt lat="42.98439833" lon="-1.15731333">
        <ele>835.0</ele>
        <time>2019-07-31T12:35:43.079Z</time>
      </trkpt>
      <trkpt lat="42.98440667" lon="-1.157305">
        <ele>835.0</ele>
        <time>2019-07-31T12:35:44.085Z</time>
      </trkpt>
      <trkpt lat="42.984415" lon="-1.15728667">
        <ele>834.0</ele>
        <time>2019-07-31T12:35:45.089Z</time>
      </trkpt>
      <trkpt lat="42.98441833" lon="-1.15727167">
        <ele>834.0</ele>
        <time>2019-07-31T12:35:46.094Z</time>
      </trkpt>
      <trkpt lat="42.98441667" lon="-1.15725">
        <ele>832.0</ele>
        <time>2019-07-31T12:35:47.096Z</time>
      </trkpt>
      <trkpt lat="42.98441667" lon="-1.15723167">
        <ele>831.0</ele>
        <time>2019-07-31T12:35:48.101Z</time>
      </trkpt>
      <trkpt lat="42.98442" lon="-1.15721667">
        <ele>831.0</ele>
        <time>2019-07-31T12:35:49.106Z</time>
      </trkpt>
      <trkpt lat="42.98442833" lon="-1.15720333">
        <ele>830.0</ele>
        <time>2019-07-31T12:35:50.112Z</time>
      </trkpt>
      <trkpt lat="42.984435" lon="-1.15718833">
        <ele>830.0</ele>
        <time>2019-07-31T12:35:51.118Z</time>
      </trkpt>
      <trkpt lat="42.98444833" lon="-1.157175">
        <ele>831.0</ele>
        <time>2019-07-31T12:35:52.125Z</time>
      </trkpt>
      <trkpt lat="42.98445667" lon="-1.15716">
        <ele>831.0</ele>
        <time>2019-07-31T12:35:53.130Z</time>
      </trkpt>
      <trkpt lat="42.98446667" lon="-1.15714833">
        <ele>831.0</ele>
        <time>2019-07-31T12:35:54.133Z</time>
      </trkpt>
      <trkpt lat="42.98447833" lon="-1.15714333">
        <ele>832.0</ele>
        <time>2019-07-31T12:35:55.139Z</time>
      </trkpt>
      <trkpt lat="42.98448667" lon="-1.15713667">
        <ele>833.0</ele>
        <time>2019-07-31T12:35:56.144Z</time>
      </trkpt>
      <trkpt lat="42.98448833" lon="-1.15713">
        <ele>835.0</ele>
        <time>2019-07-31T12:35:57.147Z</time>
      </trkpt>
      <trkpt lat="42.98449167" lon="-1.157125">
        <ele>836.0</ele>
        <time>2019-07-31T12:35:58.152Z</time>
      </trkpt>
      <trkpt lat="42.984495" lon="-1.15711833">
        <ele>837.0</ele>
        <time>2019-07-31T12:35:59.157Z</time>
      </trkpt>
      <trkpt lat="42.984505" lon="-1.157105">
        <ele>837.0</ele>
        <time>2019-07-31T12:36:00.159Z</time>
      </trkpt>
      <trkpt lat="42.98451833" lon="-1.15709333">
        <ele>837.0</ele>
        <time>2019-07-31T12:36:01.165Z</time>
      </trkpt>
      <trkpt lat="42.98453" lon="-1.15707833">
        <ele>837.0</ele>
        <time>2019-07-31T12:36:02.168Z</time>
      </trkpt>
      <trkpt lat="42.98453833" lon="-1.15706167">
        <ele>836.0</ele>
        <time>2019-07-31T12:36:03.175Z</time>
      </trkpt>
      <trkpt lat="42.98454667" lon="-1.157045">
        <ele>836.0</ele>
        <time>2019-07-31T12:36:04.180Z</time>
      </trkpt>
      <trkpt lat="42.984555" lon="-1.15703">
        <ele>835.0</ele>
        <time>2019-07-31T12:36:05.061Z</time>
      </trkpt>
      <trkpt lat="42.98456167" lon="-1.15702">
        <ele>836.0</ele>
        <time>2019-07-31T12:36:06.066Z</time>
      </trkpt>
      <trkpt lat="42.98457167" lon="-1.15701167">
        <ele>836.0</ele>
        <time>2019-07-31T12:36:07.069Z</time>
      </trkpt>
      <trkpt lat="42.98458833" lon="-1.15699833">
        <ele>837.0</ele>
        <time>2019-07-31T12:36:08.075Z</time>
      </trkpt>
      <trkpt lat="42.98459833" lon="-1.156985">
        <ele>837.0</ele>
        <time>2019-07-31T12:36:09.081Z</time>
      </trkpt>
      <trkpt lat="42.98460667" lon="-1.15696833">
        <ele>837.0</ele>
        <time>2019-07-31T12:36:10.086Z</time>
      </trkpt>
      <trkpt lat="42.98461" lon="-1.15695333">
        <ele>837.0</ele>
        <time>2019-07-31T12:36:11.087Z</time>
      </trkpt>
      <trkpt lat="42.98461833" lon="-1.15694">
        <ele>838.0</ele>
        <time>2019-07-31T12:36:12.094Z</time>
      </trkpt>
      <trkpt lat="42.98462667" lon="-1.15692833">
        <ele>838.0</ele>
        <time>2019-07-31T12:36:13.101Z</time>
      </trkpt>
      <trkpt lat="42.98463667" lon="-1.15692">
        <ele>838.0</ele>
        <time>2019-07-31T12:36:14.106Z</time>
      </trkpt>
      <trkpt lat="42.98465" lon="-1.15690667">
        <ele>839.0</ele>
        <time>2019-07-31T12:36:15.112Z</time>
      </trkpt>
      <trkpt lat="42.98466" lon="-1.15689667">
        <ele>839.0</ele>
        <time>2019-07-31T12:36:16.118Z</time>
      </trkpt>
      <trkpt lat="42.98467" lon="-1.15688167">
        <ele>839.0</ele>
        <time>2019-07-31T12:36:17.122Z</time>
      </trkpt>
      <trkpt lat="42.984685" lon="-1.15686833">
        <ele>841.0</ele>
        <time>2019-07-31T12:36:18.126Z</time>
      </trkpt>
      <trkpt lat="42.98469333" lon="-1.156855">
        <ele>841.0</ele>
        <time>2019-07-31T12:36:19.131Z</time>
      </trkpt>
      <trkpt lat="42.98469667" lon="-1.15683333">
        <ele>840.0</ele>
        <time>2019-07-31T12:36:20.137Z</time>
      </trkpt>
      <trkpt lat="42.98470333" lon="-1.156815">
        <ele>840.0</ele>
        <time>2019-07-31T12:36:21.143Z</time>
      </trkpt>
      <trkpt lat="42.98471167" lon="-1.15680167">
        <ele>840.0</ele>
        <time>2019-07-31T12:36:22.149Z</time>
      </trkpt>
      <trkpt lat="42.98472333" lon="-1.156785">
        <ele>840.0</ele>
        <time>2019-07-31T12:36:23.153Z</time>
      </trkpt>
      <trkpt lat="42.984735" lon="-1.15676833">
        <ele>840.0</ele>
        <time>2019-07-31T12:36:24.158Z</time>
      </trkpt>
      <trkpt lat="42.98475167" lon="-1.15675667">
        <ele>840.0</ele>
        <time>2019-07-31T12:36:25.162Z</time>
      </trkpt>
      <trkpt lat="42.98476667" lon="-1.156745">
        <ele>840.0</ele>
        <time>2019-07-31T12:36:26.170Z</time>
      </trkpt>
      <trkpt lat="42.98477833" lon="-1.15672667">
        <ele>840.0</ele>
        <time>2019-07-31T12:36:27.174Z</time>
      </trkpt>
      <trkpt lat="42.98479" lon="-1.15671167">
        <ele>840.0</ele>
        <time>2019-07-31T12:36:28.179Z</time>
      </trkpt>
      <trkpt lat="42.98479667" lon="-1.15669333">
        <ele>840.0</ele>
        <time>2019-07-31T12:36:29.184Z</time>
      </trkpt>
      <trkpt lat="42.98481" lon="-1.15667667">
        <ele>841.0</ele>
        <time>2019-07-31T12:36:30.064Z</time>
      </trkpt>
      <trkpt lat="42.98482" lon="-1.15666">
        <ele>841.0</ele>
        <time>2019-07-31T12:36:31.067Z</time>
      </trkpt>
      <trkpt lat="42.98483" lon="-1.15664167">
        <ele>840.0</ele>
        <time>2019-07-31T12:36:32.074Z</time>
      </trkpt>
      <trkpt lat="42.98483667" lon="-1.15662333">
        <ele>840.0</ele>
        <time>2019-07-31T12:36:33.080Z</time>
      </trkpt>
      <trkpt lat="42.98484333" lon="-1.15660333">
        <ele>839.0</ele>
        <time>2019-07-31T12:36:34.085Z</time>
      </trkpt>
      <trkpt lat="42.98484833" lon="-1.15658833">
        <ele>839.0</ele>
        <time>2019-07-31T12:36:35.089Z</time>
      </trkpt>
      <trkpt lat="42.98485333" lon="-1.156575">
        <ele>839.0</ele>
        <time>2019-07-31T12:36:36.096Z</time>
      </trkpt>
      <trkpt lat="42.98485833" lon="-1.15656">
        <ele>839.0</ele>
        <time>2019-07-31T12:36:37.101Z</time>
      </trkpt>
      <trkpt lat="42.98485833" lon="-1.156545">
        <ele>838.0</ele>
        <time>2019-07-31T12:36:38.106Z</time>
      </trkpt>
      <trkpt lat="42.98486833" lon="-1.15653">
        <ele>839.0</ele>
        <time>2019-07-31T12:36:39.110Z</time>
      </trkpt>
      <trkpt lat="42.98488167" lon="-1.15651333">
        <ele>839.0</ele>
        <time>2019-07-31T12:36:40.116Z</time>
      </trkpt>
      <trkpt lat="42.98488667" lon="-1.15649333">
        <ele>839.0</ele>
        <time>2019-07-31T12:36:41.120Z</time>
      </trkpt>
      <trkpt lat="42.98489333" lon="-1.15647333">
        <ele>839.0</ele>
        <time>2019-07-31T12:36:42.126Z</time>
      </trkpt>
      <trkpt lat="42.9849" lon="-1.15645167">
        <ele>839.0</ele>
        <time>2019-07-31T12:36:43.133Z</time>
      </trkpt>
      <trkpt lat="42.984905" lon="-1.15643333">
        <ele>839.0</ele>
        <time>2019-07-31T12:36:44.139Z</time>
      </trkpt>
      <trkpt lat="42.98491167" lon="-1.15641667">
        <ele>839.0</ele>
        <time>2019-07-31T12:36:45.144Z</time>
      </trkpt>
      <trkpt lat="42.98492167" lon="-1.156405">
        <ele>840.0</ele>
        <time>2019-07-31T12:36:46.150Z</time>
      </trkpt>
      <trkpt lat="42.98493" lon="-1.15638833">
        <ele>840.0</ele>
        <time>2019-07-31T12:36:47.156Z</time>
      </trkpt>
      <trkpt lat="42.98494" lon="-1.15636667">
        <ele>841.0</ele>
        <time>2019-07-31T12:36:48.160Z</time>
      </trkpt>
      <trkpt lat="42.98494333" lon="-1.156345">
        <ele>841.0</ele>
        <time>2019-07-31T12:36:49.165Z</time>
      </trkpt>
      <trkpt lat="42.98494833" lon="-1.15633">
        <ele>841.0</ele>
        <time>2019-07-31T12:36:50.169Z</time>
      </trkpt>
      <trkpt lat="42.98495833" lon="-1.15631833">
        <ele>841.0</ele>
        <time>2019-07-31T12:36:51.174Z</time>
      </trkpt>
      <trkpt lat="42.984965" lon="-1.156315">
        <ele>842.0</ele>
        <time>2019-07-31T12:36:52.180Z</time>
      </trkpt>
      <trkpt lat="42.98497" lon="-1.15631333">
        <ele>843.0</ele>
        <time>2019-07-31T12:36:53.185Z</time>
      </trkpt>
      <trkpt lat="42.98498167" lon="-1.15631333">
        <ele>843.0</ele>
        <time>2019-07-31T12:36:54.065Z</time>
      </trkpt>
      <trkpt lat="42.985" lon="-1.15631667">
        <ele>843.0</ele>
        <time>2019-07-31T12:36:55.070Z</time>
      </trkpt>
      <trkpt lat="42.98501167" lon="-1.15632">
        <ele>844.0</ele>
        <time>2019-07-31T12:36:56.075Z</time>
      </trkpt>
      <trkpt lat="42.98502" lon="-1.15632667">
        <ele>845.0</ele>
        <time>2019-07-31T12:36:57.080Z</time>
      </trkpt>
      <trkpt lat="42.98502833" lon="-1.15633167">
        <ele>845.0</ele>
        <time>2019-07-31T12:36:58.086Z</time>
      </trkpt>
      <trkpt lat="42.98504" lon="-1.15633833">
        <ele>845.0</ele>
        <time>2019-07-31T12:36:59.092Z</time>
      </trkpt>
      <trkpt lat="42.98504833" lon="-1.156345">
        <ele>845.0</ele>
        <time>2019-07-31T12:37:00.098Z</time>
      </trkpt>
      <trkpt lat="42.98505833" lon="-1.15635333">
        <ele>846.0</ele>
        <time>2019-07-31T12:37:01.104Z</time>
      </trkpt>
      <trkpt lat="42.98507167" lon="-1.15635833">
        <ele>846.0</ele>
        <time>2019-07-31T12:37:02.109Z</time>
      </trkpt>
      <trkpt lat="42.98508" lon="-1.15636">
        <ele>846.0</ele>
        <time>2019-07-31T12:37:03.115Z</time>
      </trkpt>
      <trkpt lat="42.98509" lon="-1.15635667">
        <ele>846.0</ele>
        <time>2019-07-31T12:37:04.119Z</time>
      </trkpt>
      <trkpt lat="42.98510167" lon="-1.15634667">
        <ele>846.0</ele>
        <time>2019-07-31T12:37:05.126Z</time>
      </trkpt>
      <trkpt lat="42.98511333" lon="-1.15633333">
        <ele>845.0</ele>
        <time>2019-07-31T12:37:06.132Z</time>
      </trkpt>
      <trkpt lat="42.98512667" lon="-1.15632333">
        <ele>844.0</ele>
        <time>2019-07-31T12:37:07.135Z</time>
      </trkpt>
      <trkpt lat="42.98514167" lon="-1.15630667">
        <ele>843.0</ele>
        <time>2019-07-31T12:37:08.139Z</time>
      </trkpt>
      <trkpt lat="42.98516" lon="-1.15629">
        <ele>842.0</ele>
        <time>2019-07-31T12:37:09.144Z</time>
      </trkpt>
      <trkpt lat="42.98518" lon="-1.15627833">
        <ele>842.0</ele>
        <time>2019-07-31T12:37:10.149Z</time>
      </trkpt>
      <trkpt lat="42.985195" lon="-1.156265">
        <ele>841.0</ele>
        <time>2019-07-31T12:37:11.155Z</time>
      </trkpt>
      <trkpt lat="42.98520333" lon="-1.15625167">
        <ele>840.0</ele>
        <time>2019-07-31T12:37:12.160Z</time>
      </trkpt>
      <trkpt lat="42.98522" lon="-1.15623833">
        <ele>840.0</ele>
        <time>2019-07-31T12:37:13.168Z</time>
      </trkpt>
      <trkpt lat="42.98523667" lon="-1.15622667">
        <ele>840.0</ele>
        <time>2019-07-31T12:37:14.173Z</time>
      </trkpt>
      <trkpt lat="42.98525" lon="-1.15621333">
        <ele>840.0</ele>
        <time>2019-07-31T12:37:15.179Z</time>
      </trkpt>
      <trkpt lat="42.98526333" lon="-1.15619667">
        <ele>839.0</ele>
        <time>2019-07-31T12:37:16.184Z</time>
      </trkpt>
      <trkpt lat="42.98527667" lon="-1.15618333">
        <ele>839.0</ele>
        <time>2019-07-31T12:37:17.065Z</time>
      </trkpt>
      <trkpt lat="42.98528667" lon="-1.156165">
        <ele>838.0</ele>
        <time>2019-07-31T12:37:18.069Z</time>
      </trkpt>
      <trkpt lat="42.98529667" lon="-1.15615">
        <ele>838.0</ele>
        <time>2019-07-31T12:37:19.075Z</time>
      </trkpt>
      <trkpt lat="42.98530667" lon="-1.15613667">
        <ele>838.0</ele>
        <time>2019-07-31T12:37:20.080Z</time>
      </trkpt>
      <trkpt lat="42.98531833" lon="-1.15612333">
        <ele>838.0</ele>
        <time>2019-07-31T12:37:21.085Z</time>
      </trkpt>
      <trkpt lat="42.98532833" lon="-1.156105">
        <ele>838.0</ele>
        <time>2019-07-31T12:37:22.090Z</time>
      </trkpt>
      <trkpt lat="42.985335" lon="-1.156085">
        <ele>838.0</ele>
        <time>2019-07-31T12:37:23.096Z</time>
      </trkpt>
      <trkpt lat="42.98534" lon="-1.156065">
        <ele>837.0</ele>
        <time>2019-07-31T12:37:24.102Z</time>
      </trkpt>
      <trkpt lat="42.98534833" lon="-1.156045">
        <ele>836.0</ele>
        <time>2019-07-31T12:37:25.106Z</time>
      </trkpt>
      <trkpt lat="42.98535333" lon="-1.15602333">
        <ele>834.0</ele>
        <time>2019-07-31T12:37:26.111Z</time>
      </trkpt>
      <trkpt lat="42.985365" lon="-1.15600333">
        <ele>834.0</ele>
        <time>2019-07-31T12:37:27.117Z</time>
      </trkpt>
      <trkpt lat="42.98537667" lon="-1.15598667">
        <ele>833.0</ele>
        <time>2019-07-31T12:37:28.124Z</time>
      </trkpt>
      <trkpt lat="42.98538667" lon="-1.15597333">
        <ele>833.0</ele>
        <time>2019-07-31T12:37:29.129Z</time>
      </trkpt>
      <trkpt lat="42.98539167" lon="-1.15595833">
        <ele>834.0</ele>
        <time>2019-07-31T12:37:30.134Z</time>
      </trkpt>
      <trkpt lat="42.98539833" lon="-1.15594833">
        <ele>834.0</ele>
        <time>2019-07-31T12:37:31.137Z</time>
      </trkpt>
      <trkpt lat="42.98540333" lon="-1.15593667">
        <ele>834.0</ele>
        <time>2019-07-31T12:37:32.144Z</time>
      </trkpt>
      <trkpt lat="42.98541" lon="-1.15593">
        <ele>834.0</ele>
        <time>2019-07-31T12:37:33.148Z</time>
      </trkpt>
      <trkpt lat="42.985415" lon="-1.15592167">
        <ele>834.0</ele>
        <time>2019-07-31T12:37:34.153Z</time>
      </trkpt>
      <trkpt lat="42.98542167" lon="-1.15591667">
        <ele>835.0</ele>
        <time>2019-07-31T12:37:35.158Z</time>
      </trkpt>
      <trkpt lat="42.98542667" lon="-1.155915">
        <ele>835.0</ele>
        <time>2019-07-31T12:37:36.161Z</time>
      </trkpt>
      <trkpt lat="42.98543667" lon="-1.15591167">
        <ele>835.0</ele>
        <time>2019-07-31T12:37:37.163Z</time>
      </trkpt>
      <trkpt lat="42.98545167" lon="-1.155905">
        <ele>835.0</ele>
        <time>2019-07-31T12:37:38.168Z</time>
      </trkpt>
      <trkpt lat="42.98546667" lon="-1.155895">
        <ele>836.0</ele>
        <time>2019-07-31T12:37:39.173Z</time>
      </trkpt>
      <trkpt lat="42.98548" lon="-1.15588667">
        <ele>836.0</ele>
        <time>2019-07-31T12:37:40.179Z</time>
      </trkpt>
      <trkpt lat="42.98548833" lon="-1.15588167">
        <ele>836.0</ele>
        <time>2019-07-31T12:37:41.182Z</time>
      </trkpt>
      <trkpt lat="42.98550167" lon="-1.15587333">
        <ele>836.0</ele>
        <time>2019-07-31T12:37:42.062Z</time>
      </trkpt>
      <trkpt lat="42.98551167" lon="-1.155865">
        <ele>835.0</ele>
        <time>2019-07-31T12:37:43.067Z</time>
      </trkpt>
      <trkpt lat="42.98552167" lon="-1.155855">
        <ele>834.0</ele>
        <time>2019-07-31T12:37:44.074Z</time>
      </trkpt>
      <trkpt lat="42.98552833" lon="-1.15584">
        <ele>834.0</ele>
        <time>2019-07-31T12:37:45.077Z</time>
      </trkpt>
      <trkpt lat="42.98553833" lon="-1.15583167">
        <ele>835.0</ele>
        <time>2019-07-31T12:37:46.084Z</time>
      </trkpt>
      <trkpt lat="42.985555" lon="-1.15582167">
        <ele>836.0</ele>
        <time>2019-07-31T12:37:47.090Z</time>
      </trkpt>
      <trkpt lat="42.98556667" lon="-1.15580667">
        <ele>835.0</ele>
        <time>2019-07-31T12:37:48.096Z</time>
      </trkpt>
      <trkpt lat="42.98558" lon="-1.15579167">
        <ele>835.0</ele>
        <time>2019-07-31T12:37:49.103Z</time>
      </trkpt>
      <trkpt lat="42.985595" lon="-1.15578">
        <ele>835.0</ele>
        <time>2019-07-31T12:37:50.107Z</time>
      </trkpt>
      <trkpt lat="42.98561167" lon="-1.15577167">
        <ele>836.0</ele>
        <time>2019-07-31T12:37:51.112Z</time>
      </trkpt>
      <trkpt lat="42.98562667" lon="-1.15576167">
        <ele>836.0</ele>
        <time>2019-07-31T12:37:52.115Z</time>
      </trkpt>
      <trkpt lat="42.98564167" lon="-1.15574667">
        <ele>836.0</ele>
        <time>2019-07-31T12:37:53.120Z</time>
      </trkpt>
      <trkpt lat="42.98565333" lon="-1.15572833">
        <ele>835.0</ele>
        <time>2019-07-31T12:37:54.126Z</time>
      </trkpt>
      <trkpt lat="42.98566167" lon="-1.15571167">
        <ele>835.0</ele>
        <time>2019-07-31T12:37:55.132Z</time>
      </trkpt>
      <trkpt lat="42.98567" lon="-1.15569">
        <ele>834.0</ele>
        <time>2019-07-31T12:37:56.137Z</time>
      </trkpt>
      <trkpt lat="42.98567833" lon="-1.15567">
        <ele>833.0</ele>
        <time>2019-07-31T12:37:57.143Z</time>
      </trkpt>
      <trkpt lat="42.98568667" lon="-1.15565333">
        <ele>833.0</ele>
        <time>2019-07-31T12:37:58.149Z</time>
      </trkpt>
      <trkpt lat="42.98569167" lon="-1.15563167">
        <ele>832.0</ele>
        <time>2019-07-31T12:37:59.155Z</time>
      </trkpt>
      <trkpt lat="42.9857" lon="-1.155615">
        <ele>832.0</ele>
        <time>2019-07-31T12:38:00.159Z</time>
      </trkpt>
      <trkpt lat="42.98571" lon="-1.15560167">
        <ele>832.0</ele>
        <time>2019-07-31T12:38:01.163Z</time>
      </trkpt>
      <trkpt lat="42.98572667" lon="-1.15558333">
        <ele>832.0</ele>
        <time>2019-07-31T12:38:02.168Z</time>
      </trkpt>
      <trkpt lat="42.98574" lon="-1.15557">
        <ele>832.0</ele>
        <time>2019-07-31T12:38:03.171Z</time>
      </trkpt>
      <trkpt lat="42.985755" lon="-1.155555">
        <ele>831.0</ele>
        <time>2019-07-31T12:38:04.176Z</time>
      </trkpt>
      <trkpt lat="42.98576833" lon="-1.15554">
        <ele>831.0</ele>
        <time>2019-07-31T12:38:05.183Z</time>
      </trkpt>
      <trkpt lat="42.98578167" lon="-1.15552667">
        <ele>831.0</ele>
        <time>2019-07-31T12:38:06.063Z</time>
      </trkpt>
      <trkpt lat="42.98579167" lon="-1.15551667">
        <ele>830.0</ele>
        <time>2019-07-31T12:38:07.070Z</time>
      </trkpt>
      <trkpt lat="42.985795" lon="-1.15550833">
        <ele>830.0</ele>
        <time>2019-07-31T12:38:08.076Z</time>
      </trkpt>
      <trkpt lat="42.98580333" lon="-1.1555">
        <ele>830.0</ele>
        <time>2019-07-31T12:38:09.082Z</time>
      </trkpt>
      <trkpt lat="42.98581667" lon="-1.15548833">
        <ele>831.0</ele>
        <time>2019-07-31T12:38:10.088Z</time>
      </trkpt>
      <trkpt lat="42.985825" lon="-1.15548">
        <ele>832.0</ele>
        <time>2019-07-31T12:38:11.094Z</time>
      </trkpt>
      <trkpt lat="42.98583833" lon="-1.15547167">
        <ele>833.0</ele>
        <time>2019-07-31T12:38:12.101Z</time>
      </trkpt>
      <trkpt lat="42.98584" lon="-1.15546333">
        <ele>833.0</ele>
        <time>2019-07-31T12:38:13.106Z</time>
      </trkpt>
      <trkpt lat="42.98585167" lon="-1.15545667">
        <ele>833.0</ele>
        <time>2019-07-31T12:38:14.113Z</time>
      </trkpt>
      <trkpt lat="42.98586333" lon="-1.15545167">
        <ele>834.0</ele>
        <time>2019-07-31T12:38:15.117Z</time>
      </trkpt>
      <trkpt lat="42.98587833" lon="-1.15544">
        <ele>835.0</ele>
        <time>2019-07-31T12:38:16.123Z</time>
      </trkpt>
      <trkpt lat="42.98589" lon="-1.15542833">
        <ele>835.0</ele>
        <time>2019-07-31T12:38:17.127Z</time>
      </trkpt>
      <trkpt lat="42.98590333" lon="-1.15542">
        <ele>835.0</ele>
        <time>2019-07-31T12:38:18.134Z</time>
      </trkpt>
      <trkpt lat="42.985915" lon="-1.15541167">
        <ele>835.0</ele>
        <time>2019-07-31T12:38:19.139Z</time>
      </trkpt>
      <trkpt lat="42.98592333" lon="-1.155405">
        <ele>835.0</ele>
        <time>2019-07-31T12:38:20.140Z</time>
      </trkpt>
      <trkpt lat="42.98593833" lon="-1.15539667">
        <ele>836.0</ele>
        <time>2019-07-31T12:38:21.146Z</time>
      </trkpt>
      <trkpt lat="42.985955" lon="-1.155395">
        <ele>837.0</ele>
        <time>2019-07-31T12:38:22.151Z</time>
      </trkpt>
      <trkpt lat="42.98596833" lon="-1.15539">
        <ele>837.0</ele>
        <time>2019-07-31T12:38:23.156Z</time>
      </trkpt>
      <trkpt lat="42.985985" lon="-1.155385">
        <ele>837.0</ele>
        <time>2019-07-31T12:38:24.161Z</time>
      </trkpt>
      <trkpt lat="42.986" lon="-1.15537833">
        <ele>838.0</ele>
        <time>2019-07-31T12:38:25.167Z</time>
      </trkpt>
      <trkpt lat="42.98601667" lon="-1.15537167">
        <ele>838.0</ele>
        <time>2019-07-31T12:38:26.173Z</time>
      </trkpt>
      <trkpt lat="42.98603167" lon="-1.15536167">
        <ele>837.0</ele>
        <time>2019-07-31T12:38:27.178Z</time>
      </trkpt>
      <trkpt lat="42.98605167" lon="-1.15535667">
        <ele>837.0</ele>
        <time>2019-07-31T12:38:28.183Z</time>
      </trkpt>
      <trkpt lat="42.98606667" lon="-1.15535">
        <ele>838.0</ele>
        <time>2019-07-31T12:38:29.063Z</time>
      </trkpt>
      <trkpt lat="42.98608167" lon="-1.15534167">
        <ele>838.0</ele>
        <time>2019-07-31T12:38:30.069Z</time>
      </trkpt>
      <trkpt lat="42.98609167" lon="-1.15532833">
        <ele>837.0</ele>
        <time>2019-07-31T12:38:31.076Z</time>
      </trkpt>
      <trkpt lat="42.986105" lon="-1.15531667">
        <ele>837.0</ele>
        <time>2019-07-31T12:38:32.078Z</time>
      </trkpt>
      <trkpt lat="42.986125" lon="-1.155305">
        <ele>837.0</ele>
        <time>2019-07-31T12:38:33.084Z</time>
      </trkpt>
      <trkpt lat="42.98614167" lon="-1.155295">
        <ele>837.0</ele>
        <time>2019-07-31T12:38:34.091Z</time>
      </trkpt>
      <trkpt lat="42.98616167" lon="-1.15529167">
        <ele>837.0</ele>
        <time>2019-07-31T12:38:35.096Z</time>
      </trkpt>
      <trkpt lat="42.986175" lon="-1.15528833">
        <ele>837.0</ele>
        <time>2019-07-31T12:38:36.105Z</time>
      </trkpt>
      <trkpt lat="42.98618833" lon="-1.155285">
        <ele>838.0</ele>
        <time>2019-07-31T12:38:37.111Z</time>
      </trkpt>
      <trkpt lat="42.98620667" lon="-1.15528">
        <ele>837.0</ele>
        <time>2019-07-31T12:38:38.117Z</time>
      </trkpt>
      <trkpt lat="42.98622333" lon="-1.155275">
        <ele>837.0</ele>
        <time>2019-07-31T12:38:39.122Z</time>
      </trkpt>
      <trkpt lat="42.98623833" lon="-1.15527">
        <ele>837.0</ele>
        <time>2019-07-31T12:38:40.127Z</time>
      </trkpt>
      <trkpt lat="42.98625167" lon="-1.155265">
        <ele>836.0</ele>
        <time>2019-07-31T12:38:41.132Z</time>
      </trkpt>
      <trkpt lat="42.986265" lon="-1.15525833">
        <ele>836.0</ele>
        <time>2019-07-31T12:38:42.137Z</time>
      </trkpt>
      <trkpt lat="42.98627667" lon="-1.15524833">
        <ele>835.0</ele>
        <time>2019-07-31T12:38:43.142Z</time>
      </trkpt>
      <trkpt lat="42.98629" lon="-1.15523833">
        <ele>835.0</ele>
        <time>2019-07-31T12:38:44.146Z</time>
      </trkpt>
      <trkpt lat="42.986305" lon="-1.15523167">
        <ele>834.0</ele>
        <time>2019-07-31T12:38:45.151Z</time>
      </trkpt>
      <trkpt lat="42.98632" lon="-1.15522167">
        <ele>835.0</ele>
        <time>2019-07-31T12:38:46.155Z</time>
      </trkpt>
      <trkpt lat="42.98633167" lon="-1.15521333">
        <ele>835.0</ele>
        <time>2019-07-31T12:38:47.160Z</time>
      </trkpt>
      <trkpt lat="42.98634167" lon="-1.15521">
        <ele>835.0</ele>
        <time>2019-07-31T12:38:48.166Z</time>
      </trkpt>
      <trkpt lat="42.98635833" lon="-1.155205">
        <ele>835.0</ele>
        <time>2019-07-31T12:38:49.172Z</time>
      </trkpt>
      <trkpt lat="42.98637" lon="-1.15519833">
        <ele>835.0</ele>
        <time>2019-07-31T12:38:50.178Z</time>
      </trkpt>
      <trkpt lat="42.98638167" lon="-1.15519167">
        <ele>834.0</ele>
        <time>2019-07-31T12:38:51.184Z</time>
      </trkpt>
      <trkpt lat="42.98639333" lon="-1.155185">
        <ele>834.0</ele>
        <time>2019-07-31T12:38:52.063Z</time>
      </trkpt>
      <trkpt lat="42.98640333" lon="-1.15517833">
        <ele>834.0</ele>
        <time>2019-07-31T12:38:53.068Z</time>
      </trkpt>
      <trkpt lat="42.98641" lon="-1.15517">
        <ele>834.0</ele>
        <time>2019-07-31T12:38:54.073Z</time>
      </trkpt>
      <trkpt lat="42.98641833" lon="-1.15516167">
        <ele>834.0</ele>
        <time>2019-07-31T12:38:55.080Z</time>
      </trkpt>
      <trkpt lat="42.98642833" lon="-1.15514833">
        <ele>833.0</ele>
        <time>2019-07-31T12:38:56.086Z</time>
      </trkpt>
      <trkpt lat="42.98643667" lon="-1.15514">
        <ele>834.0</ele>
        <time>2019-07-31T12:38:57.091Z</time>
      </trkpt>
      <trkpt lat="42.98644667" lon="-1.15512833">
        <ele>834.0</ele>
        <time>2019-07-31T12:38:58.098Z</time>
      </trkpt>
      <trkpt lat="42.98645667" lon="-1.155115">
        <ele>834.0</ele>
        <time>2019-07-31T12:38:59.104Z</time>
      </trkpt>
      <trkpt lat="42.98646833" lon="-1.15510667">
        <ele>835.0</ele>
        <time>2019-07-31T12:39:00.111Z</time>
      </trkpt>
      <trkpt lat="42.98646833" lon="-1.15509167">
        <ele>835.0</ele>
        <time>2019-07-31T12:39:01.116Z</time>
      </trkpt>
      <trkpt lat="42.98646833" lon="-1.15508167">
        <ele>835.0</ele>
        <time>2019-07-31T12:39:02.121Z</time>
      </trkpt>
      <trkpt lat="42.98647" lon="-1.15506667">
        <ele>835.0</ele>
        <time>2019-07-31T12:39:03.127Z</time>
      </trkpt>
      <trkpt lat="42.986475" lon="-1.15505167">
        <ele>834.0</ele>
        <time>2019-07-31T12:39:04.131Z</time>
      </trkpt>
      <trkpt lat="42.98647833" lon="-1.15504">
        <ele>834.0</ele>
        <time>2019-07-31T12:39:05.135Z</time>
      </trkpt>
      <trkpt lat="42.98648" lon="-1.155035">
        <ele>834.0</ele>
        <time>2019-07-31T12:39:06.141Z</time>
      </trkpt>
      <trkpt lat="42.986475" lon="-1.155035">
        <ele>834.0</ele>
        <time>2019-07-31T12:39:07.148Z</time>
      </trkpt>
      <trkpt lat="42.98646667" lon="-1.155035">
        <ele>834.0</ele>
        <time>2019-07-31T12:39:08.154Z</time>
      </trkpt>
      <trkpt lat="42.98646167" lon="-1.15504">
        <ele>834.0</ele>
        <time>2019-07-31T12:39:09.159Z</time>
      </trkpt>
      <trkpt lat="42.98645333" lon="-1.15504833">
        <ele>834.0</ele>
        <time>2019-07-31T12:39:10.164Z</time>
      </trkpt>
      <trkpt lat="42.98644667" lon="-1.15505667">
        <ele>834.0</ele>
        <time>2019-07-31T12:39:11.170Z</time>
      </trkpt>
      <trkpt lat="42.98643833" lon="-1.15506167">
        <ele>833.0</ele>
        <time>2019-07-31T12:39:12.175Z</time>
      </trkpt>
      <trkpt lat="42.98643167" lon="-1.155065">
        <ele>834.0</ele>
        <time>2019-07-31T12:39:13.182Z</time>
      </trkpt>
      <trkpt lat="42.98642833" lon="-1.15506833">
        <ele>834.0</ele>
        <time>2019-07-31T12:39:14.062Z</time>
      </trkpt>
      <trkpt lat="42.986425" lon="-1.15507">
        <ele>834.0</ele>
        <time>2019-07-31T12:39:15.068Z</time>
      </trkpt>
      <trkpt lat="42.98642" lon="-1.15507">
        <ele>834.0</ele>
        <time>2019-07-31T12:39:16.074Z</time>
      </trkpt>
      <trkpt lat="42.98641667" lon="-1.15507333">
        <ele>834.0</ele>
        <time>2019-07-31T12:39:17.081Z</time>
      </trkpt>
      <trkpt lat="42.9864" lon="-1.15508333">
        <ele>834.0</ele>
        <time>2019-07-31T12:39:18.086Z</time>
      </trkpt>
      <trkpt lat="42.98639167" lon="-1.1551">
        <ele>834.0</ele>
        <time>2019-07-31T12:39:19.092Z</time>
      </trkpt>
      <trkpt lat="42.98639167" lon="-1.15511167">
        <ele>834.0</ele>
        <time>2019-07-31T12:39:20.097Z</time>
      </trkpt>
      <trkpt lat="42.98639833" lon="-1.15512">
        <ele>833.0</ele>
        <time>2019-07-31T12:39:21.103Z</time>
      </trkpt>
      <trkpt lat="42.98640833" lon="-1.15512167">
        <ele>832.0</ele>
        <time>2019-07-31T12:39:22.109Z</time>
      </trkpt>
      <trkpt lat="42.98642" lon="-1.155125">
        <ele>832.0</ele>
        <time>2019-07-31T12:39:23.116Z</time>
      </trkpt>
      <trkpt lat="42.98642667" lon="-1.15512833">
        <ele>832.0</ele>
        <time>2019-07-31T12:39:24.120Z</time>
      </trkpt>
      <trkpt lat="42.98643167" lon="-1.15512667">
        <ele>831.0</ele>
        <time>2019-07-31T12:39:25.126Z</time>
      </trkpt>
      <trkpt lat="42.98644" lon="-1.15512833">
        <ele>831.0</ele>
        <time>2019-07-31T12:39:26.131Z</time>
      </trkpt>
      <trkpt lat="42.98644667" lon="-1.15513167">
        <ele>831.0</ele>
        <time>2019-07-31T12:39:27.137Z</time>
      </trkpt>
      <trkpt lat="42.98645333" lon="-1.155135">
        <ele>830.0</ele>
        <time>2019-07-31T12:39:28.142Z</time>
      </trkpt>
      <trkpt lat="42.98645833" lon="-1.15513667">
        <ele>830.0</ele>
        <time>2019-07-31T12:39:29.147Z</time>
      </trkpt>
      <trkpt lat="42.98646333" lon="-1.15514">
        <ele>830.0</ele>
        <time>2019-07-31T12:39:30.152Z</time>
      </trkpt>
      <trkpt lat="42.986475" lon="-1.15514">
        <ele>829.0</ele>
        <time>2019-07-31T12:39:31.158Z</time>
      </trkpt>
      <trkpt lat="42.986485" lon="-1.15513667">
        <ele>829.0</ele>
        <time>2019-07-31T12:39:32.164Z</time>
      </trkpt>
      <trkpt lat="42.98649333" lon="-1.155135">
        <ele>828.0</ele>
        <time>2019-07-31T12:39:33.168Z</time>
      </trkpt>
      <trkpt lat="42.98650333" lon="-1.155135">
        <ele>828.0</ele>
        <time>2019-07-31T12:39:34.173Z</time>
      </trkpt>
      <trkpt lat="42.98651333" lon="-1.15513667">
        <ele>828.0</ele>
        <time>2019-07-31T12:39:35.177Z</time>
      </trkpt>
      <trkpt lat="42.98652333" lon="-1.155135">
        <ele>828.0</ele>
        <time>2019-07-31T12:39:36.182Z</time>
      </trkpt>
      <trkpt lat="42.98653333" lon="-1.15513">
        <ele>828.0</ele>
        <time>2019-07-31T12:39:37.063Z</time>
      </trkpt>
      <trkpt lat="42.986545" lon="-1.155125">
        <ele>827.0</ele>
        <time>2019-07-31T12:39:38.068Z</time>
      </trkpt>
      <trkpt lat="42.98655667" lon="-1.15512">
        <ele>827.0</ele>
        <time>2019-07-31T12:39:39.076Z</time>
      </trkpt>
      <trkpt lat="42.98657" lon="-1.15511333">
        <ele>827.0</ele>
        <time>2019-07-31T12:39:40.082Z</time>
      </trkpt>
      <trkpt lat="42.986575" lon="-1.15510833">
        <ele>827.0</ele>
        <time>2019-07-31T12:39:41.088Z</time>
      </trkpt>
      <trkpt lat="42.98657667" lon="-1.15510667">
        <ele>826.0</ele>
        <time>2019-07-31T12:39:42.095Z</time>
      </trkpt>
      <trkpt lat="42.98657667" lon="-1.15510833">
        <ele>826.0</ele>
        <time>2019-07-31T12:39:43.100Z</time>
      </trkpt>
      <trkpt lat="42.98658167" lon="-1.15511">
        <ele>826.0</ele>
        <time>2019-07-31T12:39:44.106Z</time>
      </trkpt>
      <trkpt lat="42.98658167" lon="-1.15511167">
        <ele>827.0</ele>
        <time>2019-07-31T12:39:45.113Z</time>
      </trkpt>
      <trkpt lat="42.986585" lon="-1.15511333">
        <ele>826.0</ele>
        <time>2019-07-31T12:39:46.118Z</time>
      </trkpt>
      <trkpt lat="42.98658167" lon="-1.15511667">
        <ele>826.0</ele>
        <time>2019-07-31T12:39:47.123Z</time>
      </trkpt>
      <trkpt lat="42.98657833" lon="-1.15512333">
        <ele>826.0</ele>
        <time>2019-07-31T12:39:48.128Z</time>
      </trkpt>
      <trkpt lat="42.98657667" lon="-1.15512167">
        <ele>826.0</ele>
        <time>2019-07-31T12:39:49.134Z</time>
      </trkpt>
      <trkpt lat="42.98657833" lon="-1.15512833">
        <ele>824.0</ele>
        <time>2019-07-31T12:39:50.140Z</time>
      </trkpt>
      <trkpt lat="42.986575" lon="-1.15512667">
        <ele>824.0</ele>
        <time>2019-07-31T12:39:51.147Z</time>
      </trkpt>
      <trkpt lat="42.98657167" lon="-1.15511833">
        <ele>823.0</ele>
        <time>2019-07-31T12:39:52.154Z</time>
      </trkpt>
      <trkpt lat="42.98657" lon="-1.15511">
        <ele>822.0</ele>
        <time>2019-07-31T12:39:53.159Z</time>
      </trkpt>
      <trkpt lat="42.98656833" lon="-1.15510167">
        <ele>821.0</ele>
        <time>2019-07-31T12:39:54.163Z</time>
      </trkpt>
      <trkpt lat="42.98657167" lon="-1.15509667">
        <ele>821.0</ele>
        <time>2019-07-31T12:39:55.169Z</time>
      </trkpt>
      <trkpt lat="42.98657167" lon="-1.15509667">
        <ele>821.0</ele>
        <time>2019-07-31T12:39:56.174Z</time>
      </trkpt>
      <trkpt lat="42.98657333" lon="-1.155095">
        <ele>821.0</ele>
        <time>2019-07-31T12:39:57.181Z</time>
      </trkpt>
      <trkpt lat="42.98657167" lon="-1.15509167">
        <ele>821.0</ele>
        <time>2019-07-31T12:39:58.062Z</time>
      </trkpt>
      <trkpt lat="42.98657" lon="-1.15509333">
        <ele>821.0</ele>
        <time>2019-07-31T12:39:59.068Z</time>
      </trkpt>
      <trkpt lat="42.98656667" lon="-1.155095">
        <ele>821.0</ele>
        <time>2019-07-31T12:40:00.073Z</time>
      </trkpt>
      <trkpt lat="42.98656" lon="-1.155095">
        <ele>820.0</ele>
        <time>2019-07-31T12:40:01.077Z</time>
      </trkpt>
      <trkpt lat="42.98656" lon="-1.155095">
        <ele>820.0</ele>
        <time>2019-07-31T12:40:02.083Z</time>
      </trkpt>
      <trkpt lat="42.98656167" lon="-1.1551">
        <ele>820.0</ele>
        <time>2019-07-31T12:40:03.089Z</time>
      </trkpt>
      <trkpt lat="42.98656833" lon="-1.15510167">
        <ele>820.0</ele>
        <time>2019-07-31T12:40:04.096Z</time>
      </trkpt>
      <trkpt lat="42.98657167" lon="-1.1551">
        <ele>819.0</ele>
        <time>2019-07-31T12:40:05.102Z</time>
      </trkpt>
      <trkpt lat="42.98656333" lon="-1.1551">
        <ele>818.0</ele>
        <time>2019-07-31T12:40:06.107Z</time>
      </trkpt>
      <trkpt lat="42.98655833" lon="-1.15509833">
        <ele>818.0</ele>
        <time>2019-07-31T12:40:07.112Z</time>
      </trkpt>
      <trkpt lat="42.98655833" lon="-1.155095">
        <ele>818.0</ele>
        <time>2019-07-31T12:40:08.116Z</time>
      </trkpt>
      <trkpt lat="42.986565" lon="-1.15509333">
        <ele>818.0</ele>
        <time>2019-07-31T12:40:09.121Z</time>
      </trkpt>
      <trkpt lat="42.98657" lon="-1.15509333">
        <ele>818.0</ele>
        <time>2019-07-31T12:40:10.127Z</time>
      </trkpt>
      <trkpt lat="42.98656833" lon="-1.155095">
        <ele>818.0</ele>
        <time>2019-07-31T12:40:11.133Z</time>
      </trkpt>
      <trkpt lat="42.98656833" lon="-1.155095">
        <ele>818.0</ele>
        <time>2019-07-31T12:40:12.138Z</time>
      </trkpt>
      <trkpt lat="42.986565" lon="-1.155095">
        <ele>818.0</ele>
        <time>2019-07-31T12:40:13.145Z</time>
      </trkpt>
      <trkpt lat="42.986565" lon="-1.15509167">
        <ele>818.0</ele>
        <time>2019-07-31T12:40:14.151Z</time>
      </trkpt>
      <trkpt lat="42.986565" lon="-1.15509">
        <ele>817.0</ele>
        <time>2019-07-31T12:40:15.155Z</time>
      </trkpt>
      <trkpt lat="42.98656" lon="-1.15508667">
        <ele>817.0</ele>
        <time>2019-07-31T12:40:16.158Z</time>
      </trkpt>
      <trkpt lat="42.98656167" lon="-1.155085">
        <ele>817.0</ele>
        <time>2019-07-31T12:40:17.162Z</time>
      </trkpt>
      <trkpt lat="42.98656333" lon="-1.15508333">
        <ele>817.0</ele>
        <time>2019-07-31T12:40:18.168Z</time>
      </trkpt>
      <trkpt lat="42.986565" lon="-1.15508333">
        <ele>818.0</ele>
        <time>2019-07-31T12:40:19.173Z</time>
      </trkpt>
      <trkpt lat="42.98656333" lon="-1.155085">
        <ele>818.0</ele>
        <time>2019-07-31T12:40:20.180Z</time>
      </trkpt>
      <trkpt lat="42.98656167" lon="-1.15508">
        <ele>818.0</ele>
        <time>2019-07-31T12:40:21.182Z</time>
      </trkpt>
      <trkpt lat="42.98655833" lon="-1.155075">
        <ele>817.0</ele>
        <time>2019-07-31T12:40:22.061Z</time>
      </trkpt>
      <trkpt lat="42.98655833" lon="-1.15507167">
        <ele>817.0</ele>
        <time>2019-07-31T12:40:23.066Z</time>
      </trkpt>
      <trkpt lat="42.98655833" lon="-1.15506833">
        <ele>818.0</ele>
        <time>2019-07-31T12:40:24.073Z</time>
      </trkpt>
      <trkpt lat="42.98655667" lon="-1.15507167">
        <ele>818.0</ele>
        <time>2019-07-31T12:40:25.079Z</time>
      </trkpt>
      <trkpt lat="42.98655333" lon="-1.155075">
        <ele>818.0</ele>
        <time>2019-07-31T12:40:26.084Z</time>
      </trkpt>
      <trkpt lat="42.98655833" lon="-1.15507333">
        <ele>817.0</ele>
        <time>2019-07-31T12:40:27.088Z</time>
      </trkpt>
      <trkpt lat="42.98656" lon="-1.15507">
        <ele>817.0</ele>
        <time>2019-07-31T12:40:28.091Z</time>
      </trkpt>
      <trkpt lat="42.98656" lon="-1.15506667">
        <ele>818.0</ele>
        <time>2019-07-31T12:40:29.095Z</time>
      </trkpt>
      <trkpt lat="42.98655833" lon="-1.15506333">
        <ele>817.0</ele>
        <time>2019-07-31T12:40:30.099Z</time>
      </trkpt>
      <trkpt lat="42.986555" lon="-1.15506">
        <ele>818.0</ele>
        <time>2019-07-31T12:40:31.104Z</time>
      </trkpt>
      <trkpt lat="42.986555" lon="-1.15505833">
        <ele>818.0</ele>
        <time>2019-07-31T12:40:32.108Z</time>
      </trkpt>
      <trkpt lat="42.98655333" lon="-1.155055">
        <ele>818.0</ele>
        <time>2019-07-31T12:40:33.114Z</time>
      </trkpt>
      <trkpt lat="42.98655167" lon="-1.15505333">
        <ele>818.0</ele>
        <time>2019-07-31T12:40:34.119Z</time>
      </trkpt>
      <trkpt lat="42.98655167" lon="-1.15505">
        <ele>817.0</ele>
        <time>2019-07-31T12:40:35.125Z</time>
      </trkpt>
      <trkpt lat="42.986545" lon="-1.15504667">
        <ele>817.0</ele>
        <time>2019-07-31T12:40:36.131Z</time>
      </trkpt>
      <trkpt lat="42.98654333" lon="-1.15504167">
        <ele>817.0</ele>
        <time>2019-07-31T12:40:37.136Z</time>
      </trkpt>
      <trkpt lat="42.986545" lon="-1.15504167">
        <ele>817.0</ele>
        <time>2019-07-31T12:40:38.141Z</time>
      </trkpt>
      <trkpt lat="42.98654833" lon="-1.15504333">
        <ele>818.0</ele>
        <time>2019-07-31T12:40:39.145Z</time>
      </trkpt>
      <trkpt lat="42.98655" lon="-1.155045">
        <ele>818.0</ele>
        <time>2019-07-31T12:40:40.151Z</time>
      </trkpt>
      <trkpt lat="42.98655" lon="-1.15504667">
        <ele>819.0</ele>
        <time>2019-07-31T12:40:41.155Z</time>
      </trkpt>
      <trkpt lat="42.98654667" lon="-1.15504833">
        <ele>819.0</ele>
        <time>2019-07-31T12:40:42.160Z</time>
      </trkpt>
      <trkpt lat="42.986545" lon="-1.15505333">
        <ele>819.0</ele>
        <time>2019-07-31T12:40:43.166Z</time>
      </trkpt>
      <trkpt lat="42.986545" lon="-1.15505833">
        <ele>820.0</ele>
        <time>2019-07-31T12:40:44.171Z</time>
      </trkpt>
      <trkpt lat="42.98654667" lon="-1.15506167">
        <ele>820.0</ele>
        <time>2019-07-31T12:40:45.176Z</time>
      </trkpt>
      <trkpt lat="42.98655" lon="-1.15506167">
        <ele>820.0</ele>
        <time>2019-07-31T12:40:46.182Z</time>
      </trkpt>
      <trkpt lat="42.98655333" lon="-1.15506667">
        <ele>821.0</ele>
        <time>2019-07-31T12:40:47.063Z</time>
      </trkpt>
      <trkpt lat="42.98655667" lon="-1.15506833">
        <ele>821.0</ele>
        <time>2019-07-31T12:40:48.068Z</time>
      </trkpt>
      <trkpt lat="42.98655333" lon="-1.15506833">
        <ele>821.0</ele>
        <time>2019-07-31T12:40:49.072Z</time>
      </trkpt>
      <trkpt lat="42.98655167" lon="-1.15506667">
        <ele>821.0</ele>
        <time>2019-07-31T12:40:50.077Z</time>
      </trkpt>
      <trkpt lat="42.98655167" lon="-1.155065">
        <ele>821.0</ele>
        <time>2019-07-31T12:40:51.080Z</time>
      </trkpt>
      <trkpt lat="42.98655333" lon="-1.15506">
        <ele>822.0</ele>
        <time>2019-07-31T12:40:52.087Z</time>
      </trkpt>
      <trkpt lat="42.98655833" lon="-1.15506333">
        <ele>822.0</ele>
        <time>2019-07-31T12:40:53.092Z</time>
      </trkpt>
      <trkpt lat="42.98656333" lon="-1.15506667">
        <ele>822.0</ele>
        <time>2019-07-31T12:40:54.097Z</time>
      </trkpt>
      <trkpt lat="42.98657" lon="-1.15507167">
        <ele>823.0</ele>
        <time>2019-07-31T12:40:55.102Z</time>
      </trkpt>
      <trkpt lat="42.986575" lon="-1.155075">
        <ele>823.0</ele>
        <time>2019-07-31T12:40:56.107Z</time>
      </trkpt>
      <trkpt lat="42.98657667" lon="-1.15508">
        <ele>823.0</ele>
        <time>2019-07-31T12:40:57.112Z</time>
      </trkpt>
      <trkpt lat="42.98658" lon="-1.15508333">
        <ele>823.0</ele>
        <time>2019-07-31T12:40:58.118Z</time>
      </trkpt>
      <trkpt lat="42.98658167" lon="-1.15508833">
        <ele>823.0</ele>
        <time>2019-07-31T12:40:59.124Z</time>
      </trkpt>
      <trkpt lat="42.98657833" lon="-1.15508833">
        <ele>822.0</ele>
        <time>2019-07-31T12:41:00.128Z</time>
      </trkpt>
      <trkpt lat="42.98657833" lon="-1.15508667">
        <ele>822.0</ele>
        <time>2019-07-31T12:41:01.134Z</time>
      </trkpt>
      <trkpt lat="42.986575" lon="-1.155085">
        <ele>823.0</ele>
        <time>2019-07-31T12:41:02.137Z</time>
      </trkpt>
      <trkpt lat="42.98656833" lon="-1.15508333">
        <ele>824.0</ele>
        <time>2019-07-31T12:41:03.142Z</time>
      </trkpt>
      <trkpt lat="42.98657167" lon="-1.15508333">
        <ele>824.0</ele>
        <time>2019-07-31T12:41:04.147Z</time>
      </trkpt>
      <trkpt lat="42.98657667" lon="-1.155085">
        <ele>825.0</ele>
        <time>2019-07-31T12:41:05.153Z</time>
      </trkpt>
      <trkpt lat="42.98658333" lon="-1.155085">
        <ele>824.0</ele>
        <time>2019-07-31T12:41:06.159Z</time>
      </trkpt>
      <trkpt lat="42.98658167" lon="-1.155085">
        <ele>824.0</ele>
        <time>2019-07-31T12:41:07.165Z</time>
      </trkpt>
      <trkpt lat="42.98658167" lon="-1.155085">
        <ele>824.0</ele>
        <time>2019-07-31T12:41:08.172Z</time>
      </trkpt>
      <trkpt lat="42.98658" lon="-1.15509167">
        <ele>825.0</ele>
        <time>2019-07-31T12:41:09.179Z</time>
      </trkpt>
      <trkpt lat="42.986535" lon="-1.15505833">
        <ele>823.0</ele>
        <time>2019-07-31T12:41:11.184Z</time>
      </trkpt>
      <trkpt lat="42.98652667" lon="-1.15506">
        <ele>823.0</ele>
        <time>2019-07-31T12:41:12.063Z</time>
      </trkpt>
      <trkpt lat="42.98652" lon="-1.15506">
        <ele>822.0</ele>
        <time>2019-07-31T12:41:13.067Z</time>
      </trkpt>
      <trkpt lat="42.98651167" lon="-1.15505667">
        <ele>822.0</ele>
        <time>2019-07-31T12:41:14.073Z</time>
      </trkpt>
      <trkpt lat="42.98650833" lon="-1.155055">
        <ele>822.0</ele>
        <time>2019-07-31T12:41:15.080Z</time>
      </trkpt>
      <trkpt lat="42.9865" lon="-1.155055">
        <ele>822.0</ele>
        <time>2019-07-31T12:41:16.087Z</time>
      </trkpt>
      <trkpt lat="42.98649167" lon="-1.15505833">
        <ele>822.0</ele>
        <time>2019-07-31T12:41:17.093Z</time>
      </trkpt>
      <trkpt lat="42.986485" lon="-1.15505667">
        <ele>822.0</ele>
        <time>2019-07-31T12:41:18.099Z</time>
      </trkpt>
      <trkpt lat="42.986475" lon="-1.15505833">
        <ele>822.0</ele>
        <time>2019-07-31T12:41:19.103Z</time>
      </trkpt>
      <trkpt lat="42.98646667" lon="-1.15505667">
        <ele>822.0</ele>
        <time>2019-07-31T12:41:20.109Z</time>
      </trkpt>
      <trkpt lat="42.98646333" lon="-1.15505167">
        <ele>824.0</ele>
        <time>2019-07-31T12:41:21.115Z</time>
      </trkpt>
      <trkpt lat="42.98646" lon="-1.15505">
        <ele>824.0</ele>
        <time>2019-07-31T12:41:22.121Z</time>
      </trkpt>
      <trkpt lat="42.98645167" lon="-1.15504167">
        <ele>824.0</ele>
        <time>2019-07-31T12:41:23.126Z</time>
      </trkpt>
      <trkpt lat="42.98644667" lon="-1.15503667">
        <ele>825.0</ele>
        <time>2019-07-31T12:41:24.132Z</time>
      </trkpt>
      <trkpt lat="42.98643833" lon="-1.15503333">
        <ele>825.0</ele>
        <time>2019-07-31T12:41:25.138Z</time>
      </trkpt>
      <trkpt lat="42.98643333" lon="-1.15503333">
        <ele>825.0</ele>
        <time>2019-07-31T12:41:26.145Z</time>
      </trkpt>
      <trkpt lat="42.98643167" lon="-1.15503167">
        <ele>825.0</ele>
        <time>2019-07-31T12:41:27.151Z</time>
      </trkpt>
      <trkpt lat="42.98643" lon="-1.15503">
        <ele>825.0</ele>
        <time>2019-07-31T12:41:28.156Z</time>
      </trkpt>
      <trkpt lat="42.98642667" lon="-1.15502833">
        <ele>825.0</ele>
        <time>2019-07-31T12:41:29.160Z</time>
      </trkpt>
      <trkpt lat="42.986425" lon="-1.15502333">
        <ele>825.0</ele>
        <time>2019-07-31T12:41:30.164Z</time>
      </trkpt>
      <trkpt lat="42.98642333" lon="-1.15501833">
        <ele>825.0</ele>
        <time>2019-07-31T12:41:31.169Z</time>
      </trkpt>
      <trkpt lat="42.986425" lon="-1.15501167">
        <ele>825.0</ele>
        <time>2019-07-31T12:41:32.174Z</time>
      </trkpt>
      <trkpt lat="42.98642667" lon="-1.155005">
        <ele>826.0</ele>
        <time>2019-07-31T12:41:33.179Z</time>
      </trkpt>
      <trkpt lat="42.98643" lon="-1.15499833">
        <ele>826.0</ele>
        <time>2019-07-31T12:41:34.184Z</time>
      </trkpt>
      <trkpt lat="42.986435" lon="-1.15499">
        <ele>826.0</ele>
        <time>2019-07-31T12:41:35.064Z</time>
      </trkpt>
      <trkpt lat="42.98644" lon="-1.15498167">
        <ele>826.0</ele>
        <time>2019-07-31T12:41:36.070Z</time>
      </trkpt>
      <trkpt lat="42.98644333" lon="-1.15497167">
        <ele>826.0</ele>
        <time>2019-07-31T12:41:37.073Z</time>
      </trkpt>
      <trkpt lat="42.98644667" lon="-1.15496167">
        <ele>827.0</ele>
        <time>2019-07-31T12:41:38.080Z</time>
      </trkpt>
      <trkpt lat="42.98644667" lon="-1.15495">
        <ele>827.0</ele>
        <time>2019-07-31T12:41:39.086Z</time>
      </trkpt>
      <trkpt lat="42.98645" lon="-1.15493333">
        <ele>827.0</ele>
        <time>2019-07-31T12:41:40.091Z</time>
      </trkpt>
      <trkpt lat="42.98645167" lon="-1.15492">
        <ele>827.0</ele>
        <time>2019-07-31T12:41:41.096Z</time>
      </trkpt>
      <trkpt lat="42.98645167" lon="-1.15490333">
        <ele>827.0</ele>
        <time>2019-07-31T12:41:42.099Z</time>
      </trkpt>
      <trkpt lat="42.98645" lon="-1.15488667">
        <ele>827.0</ele>
        <time>2019-07-31T12:41:43.103Z</time>
      </trkpt>
      <trkpt lat="42.986445" lon="-1.15487">
        <ele>827.0</ele>
        <time>2019-07-31T12:41:44.107Z</time>
      </trkpt>
      <trkpt lat="42.986435" lon="-1.154855">
        <ele>827.0</ele>
        <time>2019-07-31T12:41:45.112Z</time>
      </trkpt>
      <trkpt lat="42.98643" lon="-1.15484167">
        <ele>826.0</ele>
        <time>2019-07-31T12:41:46.117Z</time>
      </trkpt>
      <trkpt lat="42.98642667" lon="-1.15482833">
        <ele>826.0</ele>
        <time>2019-07-31T12:41:47.122Z</time>
      </trkpt>
      <trkpt lat="42.986425" lon="-1.154815">
        <ele>825.0</ele>
        <time>2019-07-31T12:41:48.129Z</time>
      </trkpt>
      <trkpt lat="42.98641833" lon="-1.1548">
        <ele>825.0</ele>
        <time>2019-07-31T12:41:49.135Z</time>
      </trkpt>
      <trkpt lat="42.98641" lon="-1.154785">
        <ele>824.0</ele>
        <time>2019-07-31T12:41:50.140Z</time>
      </trkpt>
      <trkpt lat="42.9864" lon="-1.15476833">
        <ele>824.0</ele>
        <time>2019-07-31T12:41:51.146Z</time>
      </trkpt>
      <trkpt lat="42.98638833" lon="-1.15475333">
        <ele>823.0</ele>
        <time>2019-07-31T12:41:52.152Z</time>
      </trkpt>
      <trkpt lat="42.98638" lon="-1.15473667">
        <ele>823.0</ele>
        <time>2019-07-31T12:41:53.159Z</time>
      </trkpt>
      <trkpt lat="42.986375" lon="-1.15472333">
        <ele>822.0</ele>
        <time>2019-07-31T12:41:54.164Z</time>
      </trkpt>
      <trkpt lat="42.98636833" lon="-1.15470333">
        <ele>823.0</ele>
        <time>2019-07-31T12:41:55.168Z</time>
      </trkpt>
      <trkpt lat="42.986365" lon="-1.15468667">
        <ele>824.0</ele>
        <time>2019-07-31T12:41:56.172Z</time>
      </trkpt>
      <trkpt lat="42.98636167" lon="-1.15467167">
        <ele>824.0</ele>
        <time>2019-07-31T12:41:57.177Z</time>
      </trkpt>
      <trkpt lat="42.98635333" lon="-1.15465333">
        <ele>823.0</ele>
        <time>2019-07-31T12:41:58.183Z</time>
      </trkpt>
      <trkpt lat="42.98634333" lon="-1.15463833">
        <ele>823.0</ele>
        <time>2019-07-31T12:41:59.063Z</time>
      </trkpt>
      <trkpt lat="42.98633333" lon="-1.15462333">
        <ele>823.0</ele>
        <time>2019-07-31T12:42:00.069Z</time>
      </trkpt>
      <trkpt lat="42.98632667" lon="-1.15461167">
        <ele>823.0</ele>
        <time>2019-07-31T12:42:01.074Z</time>
      </trkpt>
      <trkpt lat="42.98631833" lon="-1.15459833">
        <ele>823.0</ele>
        <time>2019-07-31T12:42:02.079Z</time>
      </trkpt>
      <trkpt lat="42.98630333" lon="-1.15458333">
        <ele>823.0</ele>
        <time>2019-07-31T12:42:03.084Z</time>
      </trkpt>
      <trkpt lat="42.98628667" lon="-1.15457333">
        <ele>822.0</ele>
        <time>2019-07-31T12:42:04.090Z</time>
      </trkpt>
      <trkpt lat="42.986275" lon="-1.154565">
        <ele>823.0</ele>
        <time>2019-07-31T12:42:05.094Z</time>
      </trkpt>
      <trkpt lat="42.98626833" lon="-1.15455167">
        <ele>824.0</ele>
        <time>2019-07-31T12:42:06.101Z</time>
      </trkpt>
      <trkpt lat="42.98626" lon="-1.15453333">
        <ele>825.0</ele>
        <time>2019-07-31T12:42:07.107Z</time>
      </trkpt>
      <trkpt lat="42.986255" lon="-1.154515">
        <ele>826.0</ele>
        <time>2019-07-31T12:42:08.113Z</time>
      </trkpt>
      <trkpt lat="42.98625333" lon="-1.15449667">
        <ele>827.0</ele>
        <time>2019-07-31T12:42:09.119Z</time>
      </trkpt>
      <trkpt lat="42.98625333" lon="-1.154475">
        <ele>828.0</ele>
        <time>2019-07-31T12:42:10.123Z</time>
      </trkpt>
      <trkpt lat="42.98624667" lon="-1.15444833">
        <ele>829.0</ele>
        <time>2019-07-31T12:42:11.130Z</time>
      </trkpt>
      <trkpt lat="42.98623167" lon="-1.15441">
        <ele>830.0</ele>
        <time>2019-07-31T12:42:12.132Z</time>
      </trkpt>
      <trkpt lat="42.98622167" lon="-1.154385">
        <ele>829.0</ele>
        <time>2019-07-31T12:42:13.136Z</time>
      </trkpt>
      <trkpt lat="42.98621833" lon="-1.15437333">
        <ele>829.0</ele>
        <time>2019-07-31T12:42:14.141Z</time>
      </trkpt>
      <trkpt lat="42.98621667" lon="-1.154355">
        <ele>829.0</ele>
        <time>2019-07-31T12:42:15.146Z</time>
      </trkpt>
      <trkpt lat="42.98620833" lon="-1.15433667">
        <ele>828.0</ele>
        <time>2019-07-31T12:42:16.149Z</time>
      </trkpt>
      <trkpt lat="42.986205" lon="-1.15432333">
        <ele>828.0</ele>
        <time>2019-07-31T12:42:17.152Z</time>
      </trkpt>
      <trkpt lat="42.986205" lon="-1.154305">
        <ele>829.0</ele>
        <time>2019-07-31T12:42:18.159Z</time>
      </trkpt>
      <trkpt lat="42.98621167" lon="-1.15429">
        <ele>830.0</ele>
        <time>2019-07-31T12:42:19.164Z</time>
      </trkpt>
      <trkpt lat="42.98620833" lon="-1.154275">
        <ele>830.0</ele>
        <time>2019-07-31T12:42:20.170Z</time>
      </trkpt>
      <trkpt lat="42.98620333" lon="-1.15426">
        <ele>829.0</ele>
        <time>2019-07-31T12:42:21.170Z</time>
      </trkpt>
      <trkpt lat="42.98620167" lon="-1.154245">
        <ele>829.0</ele>
        <time>2019-07-31T12:42:22.172Z</time>
      </trkpt>
      <trkpt lat="42.9862" lon="-1.15422833">
        <ele>830.0</ele>
        <time>2019-07-31T12:42:23.175Z</time>
      </trkpt>
      <trkpt lat="42.98619833" lon="-1.15421167">
        <ele>830.0</ele>
        <time>2019-07-31T12:42:24.180Z</time>
      </trkpt>
      <trkpt lat="42.98619833" lon="-1.154195">
        <ele>830.0</ele>
        <time>2019-07-31T12:42:25.186Z</time>
      </trkpt>
      <trkpt lat="42.98619833" lon="-1.15417833">
        <ele>831.0</ele>
        <time>2019-07-31T12:42:26.064Z</time>
      </trkpt>
      <trkpt lat="42.98619333" lon="-1.15416333">
        <ele>831.0</ele>
        <time>2019-07-31T12:42:27.069Z</time>
      </trkpt>
      <trkpt lat="42.98619167" lon="-1.15414667">
        <ele>831.0</ele>
        <time>2019-07-31T12:42:28.076Z</time>
      </trkpt>
      <trkpt lat="42.98619" lon="-1.15413">
        <ele>832.0</ele>
        <time>2019-07-31T12:42:29.082Z</time>
      </trkpt>
      <trkpt lat="42.98618333" lon="-1.15411333">
        <ele>832.0</ele>
        <time>2019-07-31T12:42:30.089Z</time>
      </trkpt>
      <trkpt lat="42.98618" lon="-1.154095">
        <ele>832.0</ele>
        <time>2019-07-31T12:42:31.095Z</time>
      </trkpt>
      <trkpt lat="42.98617667" lon="-1.154075">
        <ele>832.0</ele>
        <time>2019-07-31T12:42:32.101Z</time>
      </trkpt>
      <trkpt lat="42.98617333" lon="-1.154055">
        <ele>832.0</ele>
        <time>2019-07-31T12:42:33.106Z</time>
      </trkpt>
      <trkpt lat="42.98616833" lon="-1.15404">
        <ele>831.0</ele>
        <time>2019-07-31T12:42:34.112Z</time>
      </trkpt>
      <trkpt lat="42.986165" lon="-1.15402333">
        <ele>831.0</ele>
        <time>2019-07-31T12:42:35.117Z</time>
      </trkpt>
      <trkpt lat="42.98616333" lon="-1.15400833">
        <ele>830.0</ele>
        <time>2019-07-31T12:42:36.123Z</time>
      </trkpt>
      <trkpt lat="42.986165" lon="-1.15398833">
        <ele>831.0</ele>
        <time>2019-07-31T12:42:37.130Z</time>
      </trkpt>
      <trkpt lat="42.986165" lon="-1.15397">
        <ele>831.0</ele>
        <time>2019-07-31T12:42:38.135Z</time>
      </trkpt>
      <trkpt lat="42.98616" lon="-1.15394833">
        <ele>831.0</ele>
        <time>2019-07-31T12:42:39.141Z</time>
      </trkpt>
      <trkpt lat="42.98616" lon="-1.15392667">
        <ele>830.0</ele>
        <time>2019-07-31T12:42:40.147Z</time>
      </trkpt>
      <trkpt lat="42.98616167" lon="-1.15390667">
        <ele>831.0</ele>
        <time>2019-07-31T12:42:41.152Z</time>
      </trkpt>
      <trkpt lat="42.98616" lon="-1.15388667">
        <ele>831.0</ele>
        <time>2019-07-31T12:42:42.159Z</time>
      </trkpt>
      <trkpt lat="42.98616" lon="-1.15386167">
        <ele>831.0</ele>
        <time>2019-07-31T12:42:43.165Z</time>
      </trkpt>
      <trkpt lat="42.98615667" lon="-1.15384667">
        <ele>831.0</ele>
        <time>2019-07-31T12:42:44.169Z</time>
      </trkpt>
      <trkpt lat="42.98615333" lon="-1.15383">
        <ele>831.0</ele>
        <time>2019-07-31T12:42:45.174Z</time>
      </trkpt>
      <trkpt lat="42.98614833" lon="-1.15381333">
        <ele>832.0</ele>
        <time>2019-07-31T12:42:46.177Z</time>
      </trkpt>
      <trkpt lat="42.986145" lon="-1.1538">
        <ele>832.0</ele>
        <time>2019-07-31T12:42:47.180Z</time>
      </trkpt>
      <trkpt lat="42.98614" lon="-1.15378333">
        <ele>833.0</ele>
        <time>2019-07-31T12:42:48.186Z</time>
      </trkpt>
      <trkpt lat="42.98613167" lon="-1.153765">
        <ele>832.0</ele>
        <time>2019-07-31T12:42:49.067Z</time>
      </trkpt>
      <trkpt lat="42.98612167" lon="-1.15374">
        <ele>832.0</ele>
        <time>2019-07-31T12:42:50.074Z</time>
      </trkpt>
      <trkpt lat="42.98611667" lon="-1.153725">
        <ele>832.0</ele>
        <time>2019-07-31T12:42:51.082Z</time>
      </trkpt>
      <trkpt lat="42.986115" lon="-1.15371167">
        <ele>833.0</ele>
        <time>2019-07-31T12:42:52.087Z</time>
      </trkpt>
      <trkpt lat="42.98611667" lon="-1.1537">
        <ele>834.0</ele>
        <time>2019-07-31T12:42:53.091Z</time>
      </trkpt>
      <trkpt lat="42.98612167" lon="-1.15368">
        <ele>834.0</ele>
        <time>2019-07-31T12:42:54.095Z</time>
      </trkpt>
      <trkpt lat="42.98613" lon="-1.15366667">
        <ele>835.0</ele>
        <time>2019-07-31T12:42:55.099Z</time>
      </trkpt>
      <trkpt lat="42.98614667" lon="-1.15364667">
        <ele>837.0</ele>
        <time>2019-07-31T12:42:56.103Z</time>
      </trkpt>
      <trkpt lat="42.98615167" lon="-1.153635">
        <ele>838.0</ele>
        <time>2019-07-31T12:42:57.109Z</time>
      </trkpt>
      <trkpt lat="42.986155" lon="-1.15362333">
        <ele>838.0</ele>
        <time>2019-07-31T12:42:58.117Z</time>
      </trkpt>
      <trkpt lat="42.986155" lon="-1.15361">
        <ele>838.0</ele>
        <time>2019-07-31T12:42:59.124Z</time>
      </trkpt>
      <trkpt lat="42.986155" lon="-1.153595">
        <ele>838.0</ele>
        <time>2019-07-31T12:43:00.129Z</time>
      </trkpt>
      <trkpt lat="42.98615167" lon="-1.15357667">
        <ele>838.0</ele>
        <time>2019-07-31T12:43:01.135Z</time>
      </trkpt>
      <trkpt lat="42.98614667" lon="-1.15356">
        <ele>837.0</ele>
        <time>2019-07-31T12:43:02.141Z</time>
      </trkpt>
      <trkpt lat="42.98614" lon="-1.15354167">
        <ele>838.0</ele>
        <time>2019-07-31T12:43:03.146Z</time>
      </trkpt>
      <trkpt lat="42.98613333" lon="-1.15352333">
        <ele>838.0</ele>
        <time>2019-07-31T12:43:04.152Z</time>
      </trkpt>
      <trkpt lat="42.98612667" lon="-1.15350667">
        <ele>838.0</ele>
        <time>2019-07-31T12:43:05.157Z</time>
      </trkpt>
      <trkpt lat="42.986115" lon="-1.15349167">
        <ele>837.0</ele>
        <time>2019-07-31T12:43:06.163Z</time>
      </trkpt>
      <trkpt lat="42.98610167" lon="-1.15347833">
        <ele>837.0</ele>
        <time>2019-07-31T12:43:07.169Z</time>
      </trkpt>
      <trkpt lat="42.98608833" lon="-1.15346167">
        <ele>837.0</ele>
        <time>2019-07-31T12:43:08.175Z</time>
      </trkpt>
      <trkpt lat="42.98608333" lon="-1.15345">
        <ele>837.0</ele>
        <time>2019-07-31T12:43:09.180Z</time>
      </trkpt>
      <trkpt lat="42.98607833" lon="-1.15343333">
        <ele>838.0</ele>
        <time>2019-07-31T12:43:10.061Z</time>
      </trkpt>
      <trkpt lat="42.98606833" lon="-1.153415">
        <ele>839.0</ele>
        <time>2019-07-31T12:43:11.066Z</time>
      </trkpt>
      <trkpt lat="42.98605833" lon="-1.1534">
        <ele>839.0</ele>
        <time>2019-07-31T12:43:12.071Z</time>
      </trkpt>
      <trkpt lat="42.986045" lon="-1.15338667">
        <ele>839.0</ele>
        <time>2019-07-31T12:43:13.078Z</time>
      </trkpt>
      <trkpt lat="42.986035" lon="-1.15337333">
        <ele>838.0</ele>
        <time>2019-07-31T12:43:14.081Z</time>
      </trkpt>
      <trkpt lat="42.986025" lon="-1.153365">
        <ele>839.0</ele>
        <time>2019-07-31T12:43:15.086Z</time>
      </trkpt>
      <trkpt lat="42.98601833" lon="-1.15335667">
        <ele>839.0</ele>
        <time>2019-07-31T12:43:16.091Z</time>
      </trkpt>
      <trkpt lat="42.98601333" lon="-1.153345">
        <ele>839.0</ele>
        <time>2019-07-31T12:43:17.096Z</time>
      </trkpt>
      <trkpt lat="42.986" lon="-1.15332833">
        <ele>839.0</ele>
        <time>2019-07-31T12:43:18.099Z</time>
      </trkpt>
      <trkpt lat="42.98598833" lon="-1.15331333">
        <ele>839.0</ele>
        <time>2019-07-31T12:43:19.103Z</time>
      </trkpt>
      <trkpt lat="42.98597833" lon="-1.153295">
        <ele>838.0</ele>
        <time>2019-07-31T12:43:20.110Z</time>
      </trkpt>
      <trkpt lat="42.98597333" lon="-1.153285">
        <ele>838.0</ele>
        <time>2019-07-31T12:43:21.116Z</time>
      </trkpt>
      <trkpt lat="42.985965" lon="-1.15327833">
        <ele>838.0</ele>
        <time>2019-07-31T12:43:22.122Z</time>
      </trkpt>
      <trkpt lat="42.98596333" lon="-1.15326833">
        <ele>839.0</ele>
        <time>2019-07-31T12:43:23.129Z</time>
      </trkpt>
      <trkpt lat="42.98597167" lon="-1.15325167">
        <ele>840.0</ele>
        <time>2019-07-31T12:43:24.133Z</time>
      </trkpt>
      <trkpt lat="42.98597667" lon="-1.15322667">
        <ele>842.0</ele>
        <time>2019-07-31T12:43:25.136Z</time>
      </trkpt>
      <trkpt lat="42.985975" lon="-1.15320167">
        <ele>844.0</ele>
        <time>2019-07-31T12:43:26.141Z</time>
      </trkpt>
      <trkpt lat="42.98597167" lon="-1.15317833">
        <ele>844.0</ele>
        <time>2019-07-31T12:43:27.145Z</time>
      </trkpt>
      <trkpt lat="42.98595" lon="-1.15315667">
        <ele>844.0</ele>
        <time>2019-07-31T12:43:28.151Z</time>
      </trkpt>
      <trkpt lat="42.98593167" lon="-1.153135">
        <ele>844.0</ele>
        <time>2019-07-31T12:43:29.156Z</time>
      </trkpt>
      <trkpt lat="42.985915" lon="-1.153105">
        <ele>843.0</ele>
        <time>2019-07-31T12:43:30.162Z</time>
      </trkpt>
      <trkpt lat="42.98591167" lon="-1.153075">
        <ele>842.0</ele>
        <time>2019-07-31T12:43:31.166Z</time>
      </trkpt>
      <trkpt lat="42.98591" lon="-1.15305">
        <ele>844.0</ele>
        <time>2019-07-31T12:43:32.173Z</time>
      </trkpt>
      <trkpt lat="42.98590167" lon="-1.15302833">
        <ele>847.0</ele>
        <time>2019-07-31T12:43:33.178Z</time>
      </trkpt>
      <trkpt lat="42.98589333" lon="-1.15302">
        <ele>848.0</ele>
        <time>2019-07-31T12:43:34.183Z</time>
      </trkpt>
      <trkpt lat="42.98589" lon="-1.15300333">
        <ele>848.0</ele>
        <time>2019-07-31T12:43:35.063Z</time>
      </trkpt>
      <trkpt lat="42.98589167" lon="-1.15299333">
        <ele>850.0</ele>
        <time>2019-07-31T12:43:36.066Z</time>
      </trkpt>
      <trkpt lat="42.9859" lon="-1.15298833">
        <ele>849.0</ele>
        <time>2019-07-31T12:43:37.069Z</time>
      </trkpt>
      <trkpt lat="42.98590667" lon="-1.15298333">
        <ele>850.0</ele>
        <time>2019-07-31T12:43:38.074Z</time>
      </trkpt>
      <trkpt lat="42.98591833" lon="-1.15298167">
        <ele>850.0</ele>
        <time>2019-07-31T12:43:39.079Z</time>
      </trkpt>
      <trkpt lat="42.98592667" lon="-1.15298667">
        <ele>851.0</ele>
        <time>2019-07-31T12:43:40.082Z</time>
      </trkpt>
      <trkpt lat="42.98593" lon="-1.15299">
        <ele>851.0</ele>
        <time>2019-07-31T12:43:41.088Z</time>
      </trkpt>
      <trkpt lat="42.98593" lon="-1.15299167">
        <ele>851.0</ele>
        <time>2019-07-31T12:43:42.092Z</time>
      </trkpt>
      <trkpt lat="42.98593" lon="-1.152995">
        <ele>850.0</ele>
        <time>2019-07-31T12:43:43.095Z</time>
      </trkpt>
      <trkpt lat="42.985935" lon="-1.15299333">
        <ele>850.0</ele>
        <time>2019-07-31T12:43:44.096Z</time>
      </trkpt>
      <trkpt lat="42.98593833" lon="-1.152995">
        <ele>850.0</ele>
        <time>2019-07-31T12:43:45.100Z</time>
      </trkpt>
      <trkpt lat="42.98594167" lon="-1.15299">
        <ele>849.0</ele>
        <time>2019-07-31T12:43:46.102Z</time>
      </trkpt>
      <trkpt lat="42.985945" lon="-1.15297667">
        <ele>849.0</ele>
        <time>2019-07-31T12:43:47.104Z</time>
      </trkpt>
      <trkpt lat="42.98595167" lon="-1.15296167">
        <ele>849.0</ele>
        <time>2019-07-31T12:43:48.107Z</time>
      </trkpt>
      <trkpt lat="42.98595667" lon="-1.15295333">
        <ele>850.0</ele>
        <time>2019-07-31T12:43:49.112Z</time>
      </trkpt>
      <trkpt lat="42.98596333" lon="-1.15293667">
        <ele>851.0</ele>
        <time>2019-07-31T12:43:50.116Z</time>
      </trkpt>
      <trkpt lat="42.98597167" lon="-1.15291833">
        <ele>851.0</ele>
        <time>2019-07-31T12:43:51.122Z</time>
      </trkpt>
      <trkpt lat="42.98597167" lon="-1.15290333">
        <ele>850.0</ele>
        <time>2019-07-31T12:43:52.125Z</time>
      </trkpt>
      <trkpt lat="42.98597167" lon="-1.15289">
        <ele>850.0</ele>
        <time>2019-07-31T12:43:53.130Z</time>
      </trkpt>
      <trkpt lat="42.98596667" lon="-1.15288">
        <ele>849.0</ele>
        <time>2019-07-31T12:43:54.136Z</time>
      </trkpt>
      <trkpt lat="42.98597" lon="-1.15287">
        <ele>849.0</ele>
        <time>2019-07-31T12:43:55.141Z</time>
      </trkpt>
      <trkpt lat="42.985975" lon="-1.15285833">
        <ele>849.0</ele>
        <time>2019-07-31T12:43:56.147Z</time>
      </trkpt>
      <trkpt lat="42.98598167" lon="-1.15284">
        <ele>849.0</ele>
        <time>2019-07-31T12:43:57.151Z</time>
      </trkpt>
      <trkpt lat="42.98599" lon="-1.152825">
        <ele>849.0</ele>
        <time>2019-07-31T12:43:58.156Z</time>
      </trkpt>
      <trkpt lat="42.98599833" lon="-1.15280833">
        <ele>849.0</ele>
        <time>2019-07-31T12:43:59.161Z</time>
      </trkpt>
      <trkpt lat="42.98600833" lon="-1.15279167">
        <ele>850.0</ele>
        <time>2019-07-31T12:44:00.166Z</time>
      </trkpt>
      <trkpt lat="42.986015" lon="-1.152775">
        <ele>849.0</ele>
        <time>2019-07-31T12:44:01.170Z</time>
      </trkpt>
      <trkpt lat="42.98601833" lon="-1.152755">
        <ele>849.0</ele>
        <time>2019-07-31T12:44:02.174Z</time>
      </trkpt>
      <trkpt lat="42.98601833" lon="-1.15274">
        <ele>849.0</ele>
        <time>2019-07-31T12:44:03.179Z</time>
      </trkpt>
      <trkpt lat="42.986025" lon="-1.15272167">
        <ele>849.0</ele>
        <time>2019-07-31T12:44:04.185Z</time>
      </trkpt>
      <trkpt lat="42.98603" lon="-1.15269667">
        <ele>850.0</ele>
        <time>2019-07-31T12:44:05.065Z</time>
      </trkpt>
      <trkpt lat="42.98603333" lon="-1.15267167">
        <ele>850.0</ele>
        <time>2019-07-31T12:44:06.072Z</time>
      </trkpt>
      <trkpt lat="42.98603167" lon="-1.15265167">
        <ele>849.0</ele>
        <time>2019-07-31T12:44:07.076Z</time>
      </trkpt>
      <trkpt lat="42.98602833" lon="-1.15263333">
        <ele>848.0</ele>
        <time>2019-07-31T12:44:08.081Z</time>
      </trkpt>
      <trkpt lat="42.98603" lon="-1.152615">
        <ele>849.0</ele>
        <time>2019-07-31T12:44:09.084Z</time>
      </trkpt>
      <trkpt lat="42.986035" lon="-1.15259667">
        <ele>849.0</ele>
        <time>2019-07-31T12:44:10.089Z</time>
      </trkpt>
      <trkpt lat="42.98604167" lon="-1.15258167">
        <ele>848.0</ele>
        <time>2019-07-31T12:44:11.093Z</time>
      </trkpt>
      <trkpt lat="42.98604167" lon="-1.15257">
        <ele>848.0</ele>
        <time>2019-07-31T12:44:12.099Z</time>
      </trkpt>
      <trkpt lat="42.986045" lon="-1.152565">
        <ele>846.0</ele>
        <time>2019-07-31T12:44:13.105Z</time>
      </trkpt>
      <trkpt lat="42.986045" lon="-1.15255167">
        <ele>844.0</ele>
        <time>2019-07-31T12:44:14.111Z</time>
      </trkpt>
      <trkpt lat="42.98605" lon="-1.15254">
        <ele>843.0</ele>
        <time>2019-07-31T12:44:15.116Z</time>
      </trkpt>
      <trkpt lat="42.98605333" lon="-1.15253167">
        <ele>844.0</ele>
        <time>2019-07-31T12:44:16.118Z</time>
      </trkpt>
      <trkpt lat="42.98606167" lon="-1.15253333">
        <ele>844.0</ele>
        <time>2019-07-31T12:44:17.122Z</time>
      </trkpt>
      <trkpt lat="42.98607333" lon="-1.15253333">
        <ele>844.0</ele>
        <time>2019-07-31T12:44:18.127Z</time>
      </trkpt>
      <trkpt lat="42.98608833" lon="-1.15253">
        <ele>844.0</ele>
        <time>2019-07-31T12:44:19.132Z</time>
      </trkpt>
      <trkpt lat="42.98610667" lon="-1.152525">
        <ele>844.0</ele>
        <time>2019-07-31T12:44:20.136Z</time>
      </trkpt>
      <trkpt lat="42.98612" lon="-1.15251833">
        <ele>844.0</ele>
        <time>2019-07-31T12:44:21.141Z</time>
      </trkpt>
      <trkpt lat="42.98613" lon="-1.15251167">
        <ele>844.0</ele>
        <time>2019-07-31T12:44:22.148Z</time>
      </trkpt>
      <trkpt lat="42.98614" lon="-1.15250333">
        <ele>844.0</ele>
        <time>2019-07-31T12:44:23.154Z</time>
      </trkpt>
      <trkpt lat="42.98615167" lon="-1.15249333">
        <ele>844.0</ele>
        <time>2019-07-31T12:44:24.160Z</time>
      </trkpt>
      <trkpt lat="42.98616167" lon="-1.15248333">
        <ele>844.0</ele>
        <time>2019-07-31T12:44:25.166Z</time>
      </trkpt>
      <trkpt lat="42.986175" lon="-1.15247333">
        <ele>844.0</ele>
        <time>2019-07-31T12:44:26.170Z</time>
      </trkpt>
      <trkpt lat="42.98618667" lon="-1.152465">
        <ele>844.0</ele>
        <time>2019-07-31T12:44:27.175Z</time>
      </trkpt>
      <trkpt lat="42.986195" lon="-1.15246">
        <ele>844.0</ele>
        <time>2019-07-31T12:44:28.180Z</time>
      </trkpt>
      <trkpt lat="42.98621" lon="-1.15244667">
        <ele>844.0</ele>
        <time>2019-07-31T12:44:29.184Z</time>
      </trkpt>
      <trkpt lat="42.986225" lon="-1.15243667">
        <ele>844.0</ele>
        <time>2019-07-31T12:44:30.062Z</time>
      </trkpt>
      <trkpt lat="42.986235" lon="-1.15242667">
        <ele>844.0</ele>
        <time>2019-07-31T12:44:31.068Z</time>
      </trkpt>
      <trkpt lat="42.986245" lon="-1.152415">
        <ele>843.0</ele>
        <time>2019-07-31T12:44:32.075Z</time>
      </trkpt>
      <trkpt lat="42.98625167" lon="-1.15239667">
        <ele>844.0</ele>
        <time>2019-07-31T12:44:33.082Z</time>
      </trkpt>
      <trkpt lat="42.98626" lon="-1.152375">
        <ele>843.0</ele>
        <time>2019-07-31T12:44:34.086Z</time>
      </trkpt>
      <trkpt lat="42.98626667" lon="-1.15235333">
        <ele>843.0</ele>
        <time>2019-07-31T12:44:35.092Z</time>
      </trkpt>
      <trkpt lat="42.98627167" lon="-1.15232833">
        <ele>842.0</ele>
        <time>2019-07-31T12:44:36.098Z</time>
      </trkpt>
      <trkpt lat="42.98627833" lon="-1.152305">
        <ele>842.0</ele>
        <time>2019-07-31T12:44:37.105Z</time>
      </trkpt>
      <trkpt lat="42.986285" lon="-1.152285">
        <ele>842.0</ele>
        <time>2019-07-31T12:44:38.110Z</time>
      </trkpt>
      <trkpt lat="42.98629" lon="-1.15226167">
        <ele>842.0</ele>
        <time>2019-07-31T12:44:39.115Z</time>
      </trkpt>
      <trkpt lat="42.98629667" lon="-1.152235">
        <ele>843.0</ele>
        <time>2019-07-31T12:44:40.120Z</time>
      </trkpt>
      <trkpt lat="42.98630333" lon="-1.15221167">
        <ele>842.0</ele>
        <time>2019-07-31T12:44:41.125Z</time>
      </trkpt>
      <trkpt lat="42.98630667" lon="-1.15218667">
        <ele>842.0</ele>
        <time>2019-07-31T12:44:42.128Z</time>
      </trkpt>
      <trkpt lat="42.986315" lon="-1.152165">
        <ele>840.0</ele>
        <time>2019-07-31T12:44:43.134Z</time>
      </trkpt>
      <trkpt lat="42.98632167" lon="-1.15214667">
        <ele>839.0</ele>
        <time>2019-07-31T12:44:44.140Z</time>
      </trkpt>
      <trkpt lat="42.98632833" lon="-1.15212833">
        <ele>839.0</ele>
        <time>2019-07-31T12:44:45.145Z</time>
      </trkpt>
      <trkpt lat="42.98633" lon="-1.15211167">
        <ele>839.0</ele>
        <time>2019-07-31T12:44:46.151Z</time>
      </trkpt>
      <trkpt lat="42.986325" lon="-1.15209">
        <ele>838.0</ele>
        <time>2019-07-31T12:44:47.156Z</time>
      </trkpt>
      <trkpt lat="42.986325" lon="-1.15207333">
        <ele>836.0</ele>
        <time>2019-07-31T12:44:48.162Z</time>
      </trkpt>
      <trkpt lat="42.98633" lon="-1.15205167">
        <ele>837.0</ele>
        <time>2019-07-31T12:44:49.168Z</time>
      </trkpt>
      <trkpt lat="42.986335" lon="-1.15203667">
        <ele>837.0</ele>
        <time>2019-07-31T12:44:50.172Z</time>
      </trkpt>
      <trkpt lat="42.98633667" lon="-1.15201833">
        <ele>837.0</ele>
        <time>2019-07-31T12:44:51.178Z</time>
      </trkpt>
      <trkpt lat="42.98634833" lon="-1.151985">
        <ele>837.0</ele>
        <time>2019-07-31T12:44:52.184Z</time>
      </trkpt>
      <trkpt lat="42.98635167" lon="-1.15195">
        <ele>837.0</ele>
        <time>2019-07-31T12:44:53.063Z</time>
      </trkpt>
      <trkpt lat="42.98635167" lon="-1.15192167">
        <ele>837.0</ele>
        <time>2019-07-31T12:44:54.068Z</time>
      </trkpt>
      <trkpt lat="42.98634167" lon="-1.15189833">
        <ele>837.0</ele>
        <time>2019-07-31T12:44:55.075Z</time>
      </trkpt>
      <trkpt lat="42.98633333" lon="-1.151875">
        <ele>837.0</ele>
        <time>2019-07-31T12:44:56.081Z</time>
      </trkpt>
      <trkpt lat="42.98632333" lon="-1.15185667">
        <ele>835.0</ele>
        <time>2019-07-31T12:44:57.087Z</time>
      </trkpt>
      <trkpt lat="42.98631167" lon="-1.151845">
        <ele>833.0</ele>
        <time>2019-07-31T12:44:58.092Z</time>
      </trkpt>
      <trkpt lat="42.98629833" lon="-1.15183667">
        <ele>831.0</ele>
        <time>2019-07-31T12:44:59.098Z</time>
      </trkpt>
      <trkpt lat="42.986285" lon="-1.15183">
        <ele>828.0</ele>
        <time>2019-07-31T12:45:00.102Z</time>
      </trkpt>
      <trkpt lat="42.98627333" lon="-1.15181833">
        <ele>826.0</ele>
        <time>2019-07-31T12:45:01.107Z</time>
      </trkpt>
      <trkpt lat="42.98627167" lon="-1.15181333">
        <ele>826.0</ele>
        <time>2019-07-31T12:45:02.114Z</time>
      </trkpt>
      <trkpt lat="42.98627333" lon="-1.15180667">
        <ele>825.0</ele>
        <time>2019-07-31T12:45:03.119Z</time>
      </trkpt>
      <trkpt lat="42.98627333" lon="-1.15179667">
        <ele>825.0</ele>
        <time>2019-07-31T12:45:04.124Z</time>
      </trkpt>
      <trkpt lat="42.98627833" lon="-1.151785">
        <ele>825.0</ele>
        <time>2019-07-31T12:45:05.131Z</time>
      </trkpt>
      <trkpt lat="42.98628" lon="-1.15177167">
        <ele>826.0</ele>
        <time>2019-07-31T12:45:06.134Z</time>
      </trkpt>
      <trkpt lat="42.98628167" lon="-1.15176167">
        <ele>826.0</ele>
        <time>2019-07-31T12:45:07.140Z</time>
      </trkpt>
      <trkpt lat="42.98628" lon="-1.151745">
        <ele>826.0</ele>
        <time>2019-07-31T12:45:08.146Z</time>
      </trkpt>
      <trkpt lat="42.98628167" lon="-1.15173167">
        <ele>826.0</ele>
        <time>2019-07-31T12:45:09.153Z</time>
      </trkpt>
      <trkpt lat="42.986285" lon="-1.15171333">
        <ele>826.0</ele>
        <time>2019-07-31T12:45:10.158Z</time>
      </trkpt>
      <trkpt lat="42.98628833" lon="-1.15169667">
        <ele>826.0</ele>
        <time>2019-07-31T12:45:11.165Z</time>
      </trkpt>
      <trkpt lat="42.98628833" lon="-1.15168">
        <ele>826.0</ele>
        <time>2019-07-31T12:45:12.170Z</time>
      </trkpt>
      <trkpt lat="42.98628833" lon="-1.15165833">
        <ele>826.0</ele>
        <time>2019-07-31T12:45:13.174Z</time>
      </trkpt>
      <trkpt lat="42.98628833" lon="-1.151645">
        <ele>826.0</ele>
        <time>2019-07-31T12:45:14.178Z</time>
      </trkpt>
      <trkpt lat="42.98628833" lon="-1.15162667">
        <ele>826.0</ele>
        <time>2019-07-31T12:45:15.182Z</time>
      </trkpt>
      <trkpt lat="42.98628833" lon="-1.15160667">
        <ele>826.0</ele>
        <time>2019-07-31T12:45:16.063Z</time>
      </trkpt>
      <trkpt lat="42.98629" lon="-1.15158833">
        <ele>826.0</ele>
        <time>2019-07-31T12:45:17.068Z</time>
      </trkpt>
      <trkpt lat="42.98629167" lon="-1.151565">
        <ele>826.0</ele>
        <time>2019-07-31T12:45:18.072Z</time>
      </trkpt>
      <trkpt lat="42.98629" lon="-1.15155">
        <ele>826.0</ele>
        <time>2019-07-31T12:45:19.079Z</time>
      </trkpt>
      <trkpt lat="42.986295" lon="-1.15153333">
        <ele>827.0</ele>
        <time>2019-07-31T12:45:20.083Z</time>
      </trkpt>
      <trkpt lat="42.98629833" lon="-1.15152333">
        <ele>827.0</ele>
        <time>2019-07-31T12:45:21.089Z</time>
      </trkpt>
      <trkpt lat="42.98630333" lon="-1.151515">
        <ele>827.0</ele>
        <time>2019-07-31T12:45:22.094Z</time>
      </trkpt>
      <trkpt lat="42.98630833" lon="-1.15150333">
        <ele>827.0</ele>
        <time>2019-07-31T12:45:23.100Z</time>
      </trkpt>
      <trkpt lat="42.986305" lon="-1.15148667">
        <ele>827.0</ele>
        <time>2019-07-31T12:45:24.105Z</time>
      </trkpt>
      <trkpt lat="42.986305" lon="-1.15146833">
        <ele>828.0</ele>
        <time>2019-07-31T12:45:25.110Z</time>
      </trkpt>
      <trkpt lat="42.9863" lon="-1.15145333">
        <ele>828.0</ele>
        <time>2019-07-31T12:45:26.117Z</time>
      </trkpt>
      <trkpt lat="42.98629333" lon="-1.15144">
        <ele>828.0</ele>
        <time>2019-07-31T12:45:27.124Z</time>
      </trkpt>
      <trkpt lat="42.98629" lon="-1.15143">
        <ele>828.0</ele>
        <time>2019-07-31T12:45:28.130Z</time>
      </trkpt>
      <trkpt lat="42.98628333" lon="-1.15142">
        <ele>828.0</ele>
        <time>2019-07-31T12:45:29.134Z</time>
      </trkpt>
      <trkpt lat="42.98628333" lon="-1.15141333">
        <ele>828.0</ele>
        <time>2019-07-31T12:45:30.140Z</time>
      </trkpt>
      <trkpt lat="42.98628833" lon="-1.15140333">
        <ele>828.0</ele>
        <time>2019-07-31T12:45:31.144Z</time>
      </trkpt>
      <trkpt lat="42.98630167" lon="-1.15139167">
        <ele>829.0</ele>
        <time>2019-07-31T12:45:32.150Z</time>
      </trkpt>
      <trkpt lat="42.9863" lon="-1.15137667">
        <ele>829.0</ele>
        <time>2019-07-31T12:45:33.156Z</time>
      </trkpt>
      <trkpt lat="42.98629833" lon="-1.15137167">
        <ele>831.0</ele>
        <time>2019-07-31T12:45:34.160Z</time>
      </trkpt>
      <trkpt lat="42.98629333" lon="-1.15136667">
        <ele>829.0</ele>
        <time>2019-07-31T12:45:35.165Z</time>
      </trkpt>
      <trkpt lat="42.98628833" lon="-1.15136833">
        <ele>827.0</ele>
        <time>2019-07-31T12:45:36.169Z</time>
      </trkpt>
      <trkpt lat="42.98628833" lon="-1.151375">
        <ele>825.0</ele>
        <time>2019-07-31T12:45:37.174Z</time>
      </trkpt>
      <trkpt lat="42.98629" lon="-1.15136833">
        <ele>826.0</ele>
        <time>2019-07-31T12:45:38.179Z</time>
      </trkpt>
      <trkpt lat="42.98627833" lon="-1.15136833">
        <ele>827.0</ele>
        <time>2019-07-31T12:45:39.185Z</time>
      </trkpt>
      <trkpt lat="42.98626833" lon="-1.151365">
        <ele>826.0</ele>
        <time>2019-07-31T12:45:40.066Z</time>
      </trkpt>
      <trkpt lat="42.98626833" lon="-1.15136333">
        <ele>826.0</ele>
        <time>2019-07-31T12:45:41.073Z</time>
      </trkpt>
      <trkpt lat="42.986275" lon="-1.151365">
        <ele>825.0</ele>
        <time>2019-07-31T12:45:42.079Z</time>
      </trkpt>
      <trkpt lat="42.98627167" lon="-1.15136667">
        <ele>825.0</ele>
        <time>2019-07-31T12:45:43.084Z</time>
      </trkpt>
      <trkpt lat="42.986265" lon="-1.15136833">
        <ele>825.0</ele>
        <time>2019-07-31T12:45:44.089Z</time>
      </trkpt>
      <trkpt lat="42.986265" lon="-1.15137">
        <ele>825.0</ele>
        <time>2019-07-31T12:45:45.093Z</time>
      </trkpt>
      <trkpt lat="42.98626167" lon="-1.15137167">
        <ele>825.0</ele>
        <time>2019-07-31T12:45:46.098Z</time>
      </trkpt>
      <trkpt lat="42.98626167" lon="-1.15137333">
        <ele>825.0</ele>
        <time>2019-07-31T12:45:47.104Z</time>
      </trkpt>
      <trkpt lat="42.98626167" lon="-1.151375">
        <ele>825.0</ele>
        <time>2019-07-31T12:45:48.111Z</time>
      </trkpt>
      <trkpt lat="42.98625833" lon="-1.15137667">
        <ele>826.0</ele>
        <time>2019-07-31T12:45:49.117Z</time>
      </trkpt>
      <trkpt lat="42.98625333" lon="-1.15137667">
        <ele>826.0</ele>
        <time>2019-07-31T12:45:50.123Z</time>
      </trkpt>
      <trkpt lat="42.98625" lon="-1.15137833">
        <ele>826.0</ele>
        <time>2019-07-31T12:45:51.129Z</time>
      </trkpt>
      <trkpt lat="42.986245" lon="-1.15138167">
        <ele>827.0</ele>
        <time>2019-07-31T12:45:52.133Z</time>
      </trkpt>
      <trkpt lat="42.986245" lon="-1.15138833">
        <ele>828.0</ele>
        <time>2019-07-31T12:45:53.137Z</time>
      </trkpt>
      <trkpt lat="42.98624833" lon="-1.15139333">
        <ele>829.0</ele>
        <time>2019-07-31T12:45:54.143Z</time>
      </trkpt>
      <trkpt lat="42.98625" lon="-1.15139333">
        <ele>830.0</ele>
        <time>2019-07-31T12:45:55.148Z</time>
      </trkpt>
      <trkpt lat="42.98625667" lon="-1.151395">
        <ele>831.0</ele>
        <time>2019-07-31T12:45:56.155Z</time>
      </trkpt>
      <trkpt lat="42.98626167" lon="-1.15139667">
        <ele>832.0</ele>
        <time>2019-07-31T12:45:57.161Z</time>
      </trkpt>
      <trkpt lat="42.98626333" lon="-1.15139667">
        <ele>833.0</ele>
        <time>2019-07-31T12:45:58.168Z</time>
      </trkpt>
      <trkpt lat="42.98626167" lon="-1.15140167">
        <ele>833.0</ele>
        <time>2019-07-31T12:45:59.174Z</time>
      </trkpt>
      <trkpt lat="42.98626167" lon="-1.15140667">
        <ele>833.0</ele>
        <time>2019-07-31T12:46:00.177Z</time>
      </trkpt>
      <trkpt lat="42.98626167" lon="-1.15140667">
        <ele>833.0</ele>
        <time>2019-07-31T12:46:01.183Z</time>
      </trkpt>
      <trkpt lat="42.98626" lon="-1.151405">
        <ele>832.0</ele>
        <time>2019-07-31T12:46:02.063Z</time>
      </trkpt>
      <trkpt lat="42.98626167" lon="-1.151405">
        <ele>831.0</ele>
        <time>2019-07-31T12:46:03.068Z</time>
      </trkpt>
      <trkpt lat="42.98625667" lon="-1.15140667">
        <ele>831.0</ele>
        <time>2019-07-31T12:46:04.075Z</time>
      </trkpt>
      <trkpt lat="42.98625167" lon="-1.15141">
        <ele>832.0</ele>
        <time>2019-07-31T12:46:05.080Z</time>
      </trkpt>
      <trkpt lat="42.98624833" lon="-1.15141">
        <ele>832.0</ele>
        <time>2019-07-31T12:46:06.084Z</time>
      </trkpt>
      <trkpt lat="42.98624667" lon="-1.151405">
        <ele>832.0</ele>
        <time>2019-07-31T12:46:07.087Z</time>
      </trkpt>
      <trkpt lat="42.98624833" lon="-1.15139833">
        <ele>832.0</ele>
        <time>2019-07-31T12:46:08.092Z</time>
      </trkpt>
      <trkpt lat="42.98625" lon="-1.15139333">
        <ele>832.0</ele>
        <time>2019-07-31T12:46:09.096Z</time>
      </trkpt>
      <trkpt lat="42.98625333" lon="-1.15138833">
        <ele>832.0</ele>
        <time>2019-07-31T12:46:10.102Z</time>
      </trkpt>
      <trkpt lat="42.98625333" lon="-1.15138667">
        <ele>832.0</ele>
        <time>2019-07-31T12:46:11.108Z</time>
      </trkpt>
      <trkpt lat="42.98625" lon="-1.15138667">
        <ele>833.0</ele>
        <time>2019-07-31T12:46:12.114Z</time>
      </trkpt>
      <trkpt lat="42.98625" lon="-1.15138833">
        <ele>833.0</ele>
        <time>2019-07-31T12:46:13.117Z</time>
      </trkpt>
      <trkpt lat="42.98625" lon="-1.15138833">
        <ele>833.0</ele>
        <time>2019-07-31T12:46:14.122Z</time>
      </trkpt>
      <trkpt lat="42.98625333" lon="-1.15139">
        <ele>833.0</ele>
        <time>2019-07-31T12:46:15.127Z</time>
      </trkpt>
      <trkpt lat="42.986255" lon="-1.15139667">
        <ele>834.0</ele>
        <time>2019-07-31T12:46:16.130Z</time>
      </trkpt>
      <trkpt lat="42.98625667" lon="-1.15139833">
        <ele>834.0</ele>
        <time>2019-07-31T12:46:17.133Z</time>
      </trkpt>
      <trkpt lat="42.98625667" lon="-1.15140167">
        <ele>834.0</ele>
        <time>2019-07-31T12:46:18.138Z</time>
      </trkpt>
      <trkpt lat="42.98625833" lon="-1.15140333">
        <ele>834.0</ele>
        <time>2019-07-31T12:46:19.145Z</time>
      </trkpt>
      <trkpt lat="42.98626" lon="-1.151405">
        <ele>834.0</ele>
        <time>2019-07-31T12:46:20.152Z</time>
      </trkpt>
      <trkpt lat="42.98626167" lon="-1.15140667">
        <ele>834.0</ele>
        <time>2019-07-31T12:46:21.158Z</time>
      </trkpt>
      <trkpt lat="42.98626667" lon="-1.15141">
        <ele>835.0</ele>
        <time>2019-07-31T12:46:22.164Z</time>
      </trkpt>
      <trkpt lat="42.98626833" lon="-1.15141167">
        <ele>836.0</ele>
        <time>2019-07-31T12:46:23.169Z</time>
      </trkpt>
      <trkpt lat="42.98627167" lon="-1.151415">
        <ele>836.0</ele>
        <time>2019-07-31T12:46:24.174Z</time>
      </trkpt>
      <trkpt lat="42.98627167" lon="-1.15141833">
        <ele>837.0</ele>
        <time>2019-07-31T12:46:25.179Z</time>
      </trkpt>
      <trkpt lat="42.98627167" lon="-1.15141833">
        <ele>836.0</ele>
        <time>2019-07-31T12:46:26.183Z</time>
      </trkpt>
      <trkpt lat="42.98626833" lon="-1.15141833">
        <ele>835.0</ele>
        <time>2019-07-31T12:46:27.061Z</time>
      </trkpt>
      <trkpt lat="42.986265" lon="-1.15141833">
        <ele>834.0</ele>
        <time>2019-07-31T12:46:28.067Z</time>
      </trkpt>
      <trkpt lat="42.986265" lon="-1.15141833">
        <ele>834.0</ele>
        <time>2019-07-31T12:46:29.072Z</time>
      </trkpt>
      <trkpt lat="42.98626333" lon="-1.15142">
        <ele>834.0</ele>
        <time>2019-07-31T12:46:30.077Z</time>
      </trkpt>
      <trkpt lat="42.986265" lon="-1.151425">
        <ele>835.0</ele>
        <time>2019-07-31T12:46:31.084Z</time>
      </trkpt>
      <trkpt lat="42.98626667" lon="-1.15142333">
        <ele>835.0</ele>
        <time>2019-07-31T12:46:32.091Z</time>
      </trkpt>
      <trkpt lat="42.98627" lon="-1.151425">
        <ele>835.0</ele>
        <time>2019-07-31T12:46:33.095Z</time>
      </trkpt>
      <trkpt lat="42.98627" lon="-1.151425">
        <ele>835.0</ele>
        <time>2019-07-31T12:46:34.100Z</time>
      </trkpt>
      <trkpt lat="42.98626833" lon="-1.151425">
        <ele>835.0</ele>
        <time>2019-07-31T12:46:35.104Z</time>
      </trkpt>
      <trkpt lat="42.98627167" lon="-1.15142833">
        <ele>835.0</ele>
        <time>2019-07-31T12:46:36.110Z</time>
      </trkpt>
      <trkpt lat="42.98627333" lon="-1.15143167">
        <ele>835.0</ele>
        <time>2019-07-31T12:46:37.116Z</time>
      </trkpt>
      <trkpt lat="42.98627167" lon="-1.151435">
        <ele>836.0</ele>
        <time>2019-07-31T12:46:38.121Z</time>
      </trkpt>
      <trkpt lat="42.98626833" lon="-1.15143833">
        <ele>835.0</ele>
        <time>2019-07-31T12:46:39.127Z</time>
      </trkpt>
      <trkpt lat="42.98627333" lon="-1.15144">
        <ele>836.0</ele>
        <time>2019-07-31T12:46:40.133Z</time>
      </trkpt>
      <trkpt lat="42.986275" lon="-1.15144167">
        <ele>835.0</ele>
        <time>2019-07-31T12:46:41.140Z</time>
      </trkpt>
      <trkpt lat="42.98627" lon="-1.15143667">
        <ele>836.0</ele>
        <time>2019-07-31T12:46:42.147Z</time>
      </trkpt>
      <trkpt lat="42.98626167" lon="-1.151435">
        <ele>837.0</ele>
        <time>2019-07-31T12:46:43.153Z</time>
      </trkpt>
      <trkpt lat="42.98626" lon="-1.151435">
        <ele>836.0</ele>
        <time>2019-07-31T12:46:44.157Z</time>
      </trkpt>
      <trkpt lat="42.98626" lon="-1.151435">
        <ele>835.0</ele>
        <time>2019-07-31T12:46:45.163Z</time>
      </trkpt>
      <trkpt lat="42.98625833" lon="-1.15143667">
        <ele>834.0</ele>
        <time>2019-07-31T12:46:46.166Z</time>
      </trkpt>
      <trkpt lat="42.98625333" lon="-1.15143333">
        <ele>834.0</ele>
        <time>2019-07-31T12:46:47.173Z</time>
      </trkpt>
      <trkpt lat="42.98624833" lon="-1.15143">
        <ele>833.0</ele>
        <time>2019-07-31T12:46:48.178Z</time>
      </trkpt>
      <trkpt lat="42.986245" lon="-1.15142833">
        <ele>833.0</ele>
        <time>2019-07-31T12:46:49.184Z</time>
      </trkpt>
      <trkpt lat="42.98624333" lon="-1.15143333">
        <ele>833.0</ele>
        <time>2019-07-31T12:46:50.062Z</time>
      </trkpt>
      <trkpt lat="42.986245" lon="-1.15143333">
        <ele>834.0</ele>
        <time>2019-07-31T12:46:51.067Z</time>
      </trkpt>
      <trkpt lat="42.98624667" lon="-1.15142833">
        <ele>834.0</ele>
        <time>2019-07-31T12:46:52.072Z</time>
      </trkpt>
      <trkpt lat="42.98624833" lon="-1.15142167">
        <ele>834.0</ele>
        <time>2019-07-31T12:46:53.078Z</time>
      </trkpt>
      <trkpt lat="42.986255" lon="-1.15141167">
        <ele>833.0</ele>
        <time>2019-07-31T12:46:54.085Z</time>
      </trkpt>
      <trkpt lat="42.98625833" lon="-1.15140333">
        <ele>834.0</ele>
        <time>2019-07-31T12:46:55.088Z</time>
      </trkpt>
      <trkpt lat="42.98625833" lon="-1.1514">
        <ele>833.0</ele>
        <time>2019-07-31T12:46:56.088Z</time>
      </trkpt>
      <trkpt lat="42.98626" lon="-1.151395">
        <ele>833.0</ele>
        <time>2019-07-31T12:46:57.093Z</time>
      </trkpt>
      <trkpt lat="42.98625833" lon="-1.15139167">
        <ele>832.0</ele>
        <time>2019-07-31T12:46:58.098Z</time>
      </trkpt>
      <trkpt lat="42.98626" lon="-1.15138833">
        <ele>830.0</ele>
        <time>2019-07-31T12:46:59.106Z</time>
      </trkpt>
      <trkpt lat="42.98626333" lon="-1.15138333">
        <ele>829.0</ele>
        <time>2019-07-31T12:47:00.111Z</time>
      </trkpt>
      <trkpt lat="42.98626667" lon="-1.15137833">
        <ele>828.0</ele>
        <time>2019-07-31T12:47:01.118Z</time>
      </trkpt>
      <trkpt lat="42.98626667" lon="-1.15137667">
        <ele>828.0</ele>
        <time>2019-07-31T12:47:02.122Z</time>
      </trkpt>
      <trkpt lat="42.98626333" lon="-1.15138333">
        <ele>829.0</ele>
        <time>2019-07-31T12:47:03.126Z</time>
      </trkpt>
      <trkpt lat="42.98625" lon="-1.15138">
        <ele>832.0</ele>
        <time>2019-07-31T12:47:04.132Z</time>
      </trkpt>
      <trkpt lat="42.986245" lon="-1.15138167">
        <ele>834.0</ele>
        <time>2019-07-31T12:47:05.136Z</time>
      </trkpt>
      <trkpt lat="42.98624667" lon="-1.15138">
        <ele>833.0</ele>
        <time>2019-07-31T12:47:06.140Z</time>
      </trkpt>
      <trkpt lat="42.98625" lon="-1.15138">
        <ele>832.0</ele>
        <time>2019-07-31T12:47:07.144Z</time>
      </trkpt>
      <trkpt lat="42.98625167" lon="-1.15138">
        <ele>832.0</ele>
        <time>2019-07-31T12:47:08.149Z</time>
      </trkpt>
      <trkpt lat="42.98625" lon="-1.15138167">
        <ele>831.0</ele>
        <time>2019-07-31T12:47:09.153Z</time>
      </trkpt>
      <trkpt lat="42.98624833" lon="-1.15138333">
        <ele>831.0</ele>
        <time>2019-07-31T12:47:10.158Z</time>
      </trkpt>
      <trkpt lat="42.98624667" lon="-1.151385">
        <ele>830.0</ele>
        <time>2019-07-31T12:47:11.164Z</time>
      </trkpt>
      <trkpt lat="42.98624667" lon="-1.15138667">
        <ele>830.0</ele>
        <time>2019-07-31T12:47:12.170Z</time>
      </trkpt>
      <trkpt lat="42.98624833" lon="-1.151385">
        <ele>829.0</ele>
        <time>2019-07-31T12:47:13.175Z</time>
      </trkpt>
      <trkpt lat="42.98625167" lon="-1.15138167">
        <ele>828.0</ele>
        <time>2019-07-31T12:47:14.180Z</time>
      </trkpt>
      <trkpt lat="42.98625667" lon="-1.15137833">
        <ele>828.0</ele>
        <time>2019-07-31T12:47:15.185Z</time>
      </trkpt>
      <trkpt lat="42.98626" lon="-1.15137167">
        <ele>827.0</ele>
        <time>2019-07-31T12:47:16.065Z</time>
      </trkpt>
      <trkpt lat="42.986265" lon="-1.15136167">
        <ele>827.0</ele>
        <time>2019-07-31T12:47:17.070Z</time>
      </trkpt>
      <trkpt lat="42.98626833" lon="-1.15134833">
        <ele>827.0</ele>
        <time>2019-07-31T12:47:18.075Z</time>
      </trkpt>
      <trkpt lat="42.98627833" lon="-1.15133">
        <ele>828.0</ele>
        <time>2019-07-31T12:47:19.080Z</time>
      </trkpt>
      <trkpt lat="42.986285" lon="-1.15131">
        <ele>828.0</ele>
        <time>2019-07-31T12:47:20.083Z</time>
      </trkpt>
      <trkpt lat="42.98628833" lon="-1.151295">
        <ele>829.0</ele>
        <time>2019-07-31T12:47:21.088Z</time>
      </trkpt>
      <trkpt lat="42.98629167" lon="-1.15127667">
        <ele>829.0</ele>
        <time>2019-07-31T12:47:22.092Z</time>
      </trkpt>
      <trkpt lat="42.98629833" lon="-1.15126167">
        <ele>829.0</ele>
        <time>2019-07-31T12:47:23.099Z</time>
      </trkpt>
      <trkpt lat="42.98630167" lon="-1.151245">
        <ele>829.0</ele>
        <time>2019-07-31T12:47:24.105Z</time>
      </trkpt>
      <trkpt lat="42.98630667" lon="-1.15122833">
        <ele>830.0</ele>
        <time>2019-07-31T12:47:25.110Z</time>
      </trkpt>
      <trkpt lat="42.986315" lon="-1.15121167">
        <ele>830.0</ele>
        <time>2019-07-31T12:47:26.115Z</time>
      </trkpt>
      <trkpt lat="42.98632667" lon="-1.151195">
        <ele>831.0</ele>
        <time>2019-07-31T12:47:27.119Z</time>
      </trkpt>
      <trkpt lat="42.98633167" lon="-1.15118333">
        <ele>831.0</ele>
        <time>2019-07-31T12:47:28.126Z</time>
      </trkpt>
      <trkpt lat="42.986335" lon="-1.15117167">
        <ele>831.0</ele>
        <time>2019-07-31T12:47:29.132Z</time>
      </trkpt>
      <trkpt lat="42.98634333" lon="-1.15116">
        <ele>832.0</ele>
        <time>2019-07-31T12:47:30.137Z</time>
      </trkpt>
      <trkpt lat="42.98635333" lon="-1.15115">
        <ele>833.0</ele>
        <time>2019-07-31T12:47:31.143Z</time>
      </trkpt>
      <trkpt lat="42.98636333" lon="-1.15114">
        <ele>833.0</ele>
        <time>2019-07-31T12:47:32.149Z</time>
      </trkpt>
      <trkpt lat="42.986365" lon="-1.151125">
        <ele>833.0</ele>
        <time>2019-07-31T12:47:33.154Z</time>
      </trkpt>
      <trkpt lat="42.98637333" lon="-1.15111167">
        <ele>834.0</ele>
        <time>2019-07-31T12:47:34.160Z</time>
      </trkpt>
      <trkpt lat="42.98638333" lon="-1.1511">
        <ele>834.0</ele>
        <time>2019-07-31T12:47:35.165Z</time>
      </trkpt>
      <trkpt lat="42.98639333" lon="-1.15109">
        <ele>835.0</ele>
        <time>2019-07-31T12:47:36.170Z</time>
      </trkpt>
      <trkpt lat="42.9864" lon="-1.15108">
        <ele>836.0</ele>
        <time>2019-07-31T12:47:37.176Z</time>
      </trkpt>
      <trkpt lat="42.98641333" lon="-1.15106833">
        <ele>836.0</ele>
        <time>2019-07-31T12:47:38.181Z</time>
      </trkpt>
      <trkpt lat="42.98642833" lon="-1.15104833">
        <ele>836.0</ele>
        <time>2019-07-31T12:47:39.184Z</time>
      </trkpt>
      <trkpt lat="42.98644" lon="-1.151025">
        <ele>835.0</ele>
        <time>2019-07-31T12:47:40.064Z</time>
      </trkpt>
      <trkpt lat="42.98644333" lon="-1.15099833">
        <ele>834.0</ele>
        <time>2019-07-31T12:47:41.068Z</time>
      </trkpt>
      <trkpt lat="42.98644667" lon="-1.15097667">
        <ele>832.0</ele>
        <time>2019-07-31T12:47:42.071Z</time>
      </trkpt>
      <trkpt lat="42.98645" lon="-1.150955">
        <ele>831.0</ele>
        <time>2019-07-31T12:47:43.077Z</time>
      </trkpt>
      <trkpt lat="42.98645" lon="-1.15093333">
        <ele>831.0</ele>
        <time>2019-07-31T12:47:44.083Z</time>
      </trkpt>
      <trkpt lat="42.98645333" lon="-1.15091333">
        <ele>831.0</ele>
        <time>2019-07-31T12:47:45.089Z</time>
      </trkpt>
      <trkpt lat="42.98646333" lon="-1.15089167">
        <ele>832.0</ele>
        <time>2019-07-31T12:47:46.095Z</time>
      </trkpt>
      <trkpt lat="42.98647667" lon="-1.15087667">
        <ele>833.0</ele>
        <time>2019-07-31T12:47:47.101Z</time>
      </trkpt>
      <trkpt lat="42.98648167" lon="-1.15085333">
        <ele>834.0</ele>
        <time>2019-07-31T12:47:48.105Z</time>
      </trkpt>
      <trkpt lat="42.98649167" lon="-1.150835">
        <ele>835.0</ele>
        <time>2019-07-31T12:47:49.110Z</time>
      </trkpt>
      <trkpt lat="42.98649333" lon="-1.15081167">
        <ele>834.0</ele>
        <time>2019-07-31T12:47:50.116Z</time>
      </trkpt>
      <trkpt lat="42.98650167" lon="-1.15079333">
        <ele>834.0</ele>
        <time>2019-07-31T12:47:51.119Z</time>
      </trkpt>
      <trkpt lat="42.98650167" lon="-1.15077667">
        <ele>833.0</ele>
        <time>2019-07-31T12:47:52.123Z</time>
      </trkpt>
      <trkpt lat="42.98651" lon="-1.15075667">
        <ele>832.0</ele>
        <time>2019-07-31T12:47:53.130Z</time>
      </trkpt>
      <trkpt lat="42.98652" lon="-1.15073333">
        <ele>831.0</ele>
        <time>2019-07-31T12:47:54.135Z</time>
      </trkpt>
      <trkpt lat="42.98653" lon="-1.15071">
        <ele>831.0</ele>
        <time>2019-07-31T12:47:55.141Z</time>
      </trkpt>
      <trkpt lat="42.98653333" lon="-1.15068667">
        <ele>830.0</ele>
        <time>2019-07-31T12:47:56.144Z</time>
      </trkpt>
      <trkpt lat="42.98653" lon="-1.15067333">
        <ele>829.0</ele>
        <time>2019-07-31T12:47:57.147Z</time>
      </trkpt>
      <trkpt lat="42.986525" lon="-1.15065833">
        <ele>829.0</ele>
        <time>2019-07-31T12:47:58.151Z</time>
      </trkpt>
      <trkpt lat="42.98652" lon="-1.150645">
        <ele>828.0</ele>
        <time>2019-07-31T12:47:59.155Z</time>
      </trkpt>
      <trkpt lat="42.98651333" lon="-1.15063167">
        <ele>828.0</ele>
        <time>2019-07-31T12:48:00.161Z</time>
      </trkpt>
      <trkpt lat="42.98651667" lon="-1.15062">
        <ele>829.0</ele>
        <time>2019-07-31T12:48:01.166Z</time>
      </trkpt>
      <trkpt lat="42.98652" lon="-1.15060833">
        <ele>829.0</ele>
        <time>2019-07-31T12:48:02.171Z</time>
      </trkpt>
      <trkpt lat="42.98652333" lon="-1.150595">
        <ele>829.0</ele>
        <time>2019-07-31T12:48:03.177Z</time>
      </trkpt>
      <trkpt lat="42.98652667" lon="-1.15058">
        <ele>829.0</ele>
        <time>2019-07-31T12:48:04.180Z</time>
      </trkpt>
      <trkpt lat="42.98652833" lon="-1.150565">
        <ele>830.0</ele>
        <time>2019-07-31T12:48:05.186Z</time>
      </trkpt>
      <trkpt lat="42.98653" lon="-1.15054833">
        <ele>830.0</ele>
        <time>2019-07-31T12:48:06.066Z</time>
      </trkpt>
      <trkpt lat="42.98653167" lon="-1.15053333">
        <ele>830.0</ele>
        <time>2019-07-31T12:48:07.071Z</time>
      </trkpt>
      <trkpt lat="42.98653333" lon="-1.15051333">
        <ele>830.0</ele>
        <time>2019-07-31T12:48:08.076Z</time>
      </trkpt>
      <trkpt lat="42.986535" lon="-1.15049167">
        <ele>830.0</ele>
        <time>2019-07-31T12:48:09.081Z</time>
      </trkpt>
      <trkpt lat="42.98653167" lon="-1.15047333">
        <ele>829.0</ele>
        <time>2019-07-31T12:48:10.087Z</time>
      </trkpt>
      <trkpt lat="42.98653333" lon="-1.150455">
        <ele>829.0</ele>
        <time>2019-07-31T12:48:11.092Z</time>
      </trkpt>
      <trkpt lat="42.98653667" lon="-1.15043333">
        <ele>829.0</ele>
        <time>2019-07-31T12:48:12.098Z</time>
      </trkpt>
      <trkpt lat="42.98653833" lon="-1.15041333">
        <ele>829.0</ele>
        <time>2019-07-31T12:48:13.104Z</time>
      </trkpt>
      <trkpt lat="42.98654" lon="-1.15039167">
        <ele>829.0</ele>
        <time>2019-07-31T12:48:14.108Z</time>
      </trkpt>
      <trkpt lat="42.98654333" lon="-1.15036833">
        <ele>829.0</ele>
        <time>2019-07-31T12:48:15.112Z</time>
      </trkpt>
      <trkpt lat="42.98654667" lon="-1.15035167">
        <ele>830.0</ele>
        <time>2019-07-31T12:48:16.119Z</time>
      </trkpt>
      <trkpt lat="42.98655" lon="-1.15033833">
        <ele>830.0</ele>
        <time>2019-07-31T12:48:17.123Z</time>
      </trkpt>
      <trkpt lat="42.986555" lon="-1.15032833">
        <ele>831.0</ele>
        <time>2019-07-31T12:48:18.127Z</time>
      </trkpt>
      <trkpt lat="42.986565" lon="-1.15031333">
        <ele>832.0</ele>
        <time>2019-07-31T12:48:19.132Z</time>
      </trkpt>
      <trkpt lat="42.98657167" lon="-1.150295">
        <ele>832.0</ele>
        <time>2019-07-31T12:48:20.137Z</time>
      </trkpt>
      <trkpt lat="42.986585" lon="-1.15027167">
        <ele>834.0</ele>
        <time>2019-07-31T12:48:21.141Z</time>
      </trkpt>
      <trkpt lat="42.98659333" lon="-1.15025167">
        <ele>834.0</ele>
        <time>2019-07-31T12:48:22.145Z</time>
      </trkpt>
      <trkpt lat="42.98661167" lon="-1.15023">
        <ele>835.0</ele>
        <time>2019-07-31T12:48:23.150Z</time>
      </trkpt>
      <trkpt lat="42.986625" lon="-1.15021333">
        <ele>836.0</ele>
        <time>2019-07-31T12:48:24.154Z</time>
      </trkpt>
      <trkpt lat="42.98662833" lon="-1.15019667">
        <ele>836.0</ele>
        <time>2019-07-31T12:48:25.157Z</time>
      </trkpt>
      <trkpt lat="42.98663167" lon="-1.15017667">
        <ele>835.0</ele>
        <time>2019-07-31T12:48:26.162Z</time>
      </trkpt>
      <trkpt lat="42.98663833" lon="-1.15015167">
        <ele>835.0</ele>
        <time>2019-07-31T12:48:27.170Z</time>
      </trkpt>
      <trkpt lat="42.98664167" lon="-1.15013167">
        <ele>834.0</ele>
        <time>2019-07-31T12:48:28.175Z</time>
      </trkpt>
      <trkpt lat="42.986645" lon="-1.15011">
        <ele>834.0</ele>
        <time>2019-07-31T12:48:29.181Z</time>
      </trkpt>
      <trkpt lat="42.98665167" lon="-1.15009667">
        <ele>834.0</ele>
        <time>2019-07-31T12:48:30.185Z</time>
      </trkpt>
      <trkpt lat="42.98666333" lon="-1.150085">
        <ele>834.0</ele>
        <time>2019-07-31T12:48:31.063Z</time>
      </trkpt>
      <trkpt lat="42.98666667" lon="-1.15007333">
        <ele>834.0</ele>
        <time>2019-07-31T12:48:32.069Z</time>
      </trkpt>
      <trkpt lat="42.98667333" lon="-1.150055">
        <ele>834.0</ele>
        <time>2019-07-31T12:48:33.073Z</time>
      </trkpt>
      <trkpt lat="42.98668167" lon="-1.15004167">
        <ele>833.0</ele>
        <time>2019-07-31T12:48:34.078Z</time>
      </trkpt>
      <trkpt lat="42.98669" lon="-1.15002833">
        <ele>833.0</ele>
        <time>2019-07-31T12:48:35.083Z</time>
      </trkpt>
      <trkpt lat="42.98669833" lon="-1.15001667">
        <ele>833.0</ele>
        <time>2019-07-31T12:48:36.087Z</time>
      </trkpt>
      <trkpt lat="42.98670833" lon="-1.15000167">
        <ele>833.0</ele>
        <time>2019-07-31T12:48:37.093Z</time>
      </trkpt>
      <trkpt lat="42.98671667" lon="-1.14998833">
        <ele>832.0</ele>
        <time>2019-07-31T12:48:38.101Z</time>
      </trkpt>
      <trkpt lat="42.98672" lon="-1.14997667">
        <ele>831.0</ele>
        <time>2019-07-31T12:48:39.105Z</time>
      </trkpt>
      <trkpt lat="42.986725" lon="-1.149965">
        <ele>831.0</ele>
        <time>2019-07-31T12:48:40.109Z</time>
      </trkpt>
      <trkpt lat="42.98673667" lon="-1.14995">
        <ele>831.0</ele>
        <time>2019-07-31T12:48:41.115Z</time>
      </trkpt>
      <trkpt lat="42.98674833" lon="-1.14993667">
        <ele>830.0</ele>
        <time>2019-07-31T12:48:42.121Z</time>
      </trkpt>
      <trkpt lat="42.98675667" lon="-1.14992">
        <ele>831.0</ele>
        <time>2019-07-31T12:48:43.123Z</time>
      </trkpt>
      <trkpt lat="42.98676667" lon="-1.14990667">
        <ele>830.0</ele>
        <time>2019-07-31T12:48:44.129Z</time>
      </trkpt>
      <trkpt lat="42.98677333" lon="-1.14988833">
        <ele>830.0</ele>
        <time>2019-07-31T12:48:45.135Z</time>
      </trkpt>
      <trkpt lat="42.98678167" lon="-1.14986833">
        <ele>831.0</ele>
        <time>2019-07-31T12:48:46.139Z</time>
      </trkpt>
      <trkpt lat="42.98679" lon="-1.14984833">
        <ele>831.0</ele>
        <time>2019-07-31T12:48:47.142Z</time>
      </trkpt>
      <trkpt lat="42.98679667" lon="-1.14984667">
        <ele>831.0</ele>
        <time>2019-07-31T12:48:48.149Z</time>
      </trkpt>
      <trkpt lat="42.98680333" lon="-1.14985167">
        <ele>831.0</ele>
        <time>2019-07-31T12:48:49.155Z</time>
      </trkpt>
      <trkpt lat="42.98680667" lon="-1.14984667">
        <ele>831.0</ele>
        <time>2019-07-31T12:48:50.159Z</time>
      </trkpt>
      <trkpt lat="42.98681167" lon="-1.149835">
        <ele>831.0</ele>
        <time>2019-07-31T12:48:51.165Z</time>
      </trkpt>
      <trkpt lat="42.986825" lon="-1.14982167">
        <ele>831.0</ele>
        <time>2019-07-31T12:48:52.172Z</time>
      </trkpt>
      <trkpt lat="42.98683667" lon="-1.14980833">
        <ele>831.0</ele>
        <time>2019-07-31T12:48:53.176Z</time>
      </trkpt>
      <trkpt lat="42.98685167" lon="-1.14978833">
        <ele>831.0</ele>
        <time>2019-07-31T12:48:54.181Z</time>
      </trkpt>
      <trkpt lat="42.98686667" lon="-1.149765">
        <ele>832.0</ele>
        <time>2019-07-31T12:48:55.061Z</time>
      </trkpt>
      <trkpt lat="42.98688333" lon="-1.14973833">
        <ele>832.0</ele>
        <time>2019-07-31T12:48:56.065Z</time>
      </trkpt>
      <trkpt lat="42.98689333" lon="-1.14972167">
        <ele>833.0</ele>
        <time>2019-07-31T12:48:57.070Z</time>
      </trkpt>
      <trkpt lat="42.98690167" lon="-1.14970833">
        <ele>834.0</ele>
        <time>2019-07-31T12:48:58.074Z</time>
      </trkpt>
      <trkpt lat="42.98691" lon="-1.14969667">
        <ele>834.0</ele>
        <time>2019-07-31T12:48:59.081Z</time>
      </trkpt>
      <trkpt lat="42.98692167" lon="-1.14967833">
        <ele>835.0</ele>
        <time>2019-07-31T12:49:00.088Z</time>
      </trkpt>
      <trkpt lat="42.98692833" lon="-1.14966333">
        <ele>836.0</ele>
        <time>2019-07-31T12:49:01.091Z</time>
      </trkpt>
      <trkpt lat="42.98693833" lon="-1.14964">
        <ele>837.0</ele>
        <time>2019-07-31T12:49:02.095Z</time>
      </trkpt>
      <trkpt lat="42.98695167" lon="-1.14961333">
        <ele>837.0</ele>
        <time>2019-07-31T12:49:03.100Z</time>
      </trkpt>
      <trkpt lat="42.98696333" lon="-1.149595">
        <ele>836.0</ele>
        <time>2019-07-31T12:49:04.105Z</time>
      </trkpt>
      <trkpt lat="42.986975" lon="-1.14958">
        <ele>837.0</ele>
        <time>2019-07-31T12:49:05.111Z</time>
      </trkpt>
      <trkpt lat="42.98698833" lon="-1.14956">
        <ele>837.0</ele>
        <time>2019-07-31T12:49:06.116Z</time>
      </trkpt>
      <trkpt lat="42.98699333" lon="-1.14954">
        <ele>837.0</ele>
        <time>2019-07-31T12:49:07.122Z</time>
      </trkpt>
      <trkpt lat="42.987" lon="-1.14952167">
        <ele>837.0</ele>
        <time>2019-07-31T12:49:08.128Z</time>
      </trkpt>
      <trkpt lat="42.98700667" lon="-1.14950333">
        <ele>837.0</ele>
        <time>2019-07-31T12:49:09.134Z</time>
      </trkpt>
      <trkpt lat="42.987015" lon="-1.14948667">
        <ele>837.0</ele>
        <time>2019-07-31T12:49:10.141Z</time>
      </trkpt>
      <trkpt lat="42.987025" lon="-1.14946833">
        <ele>837.0</ele>
        <time>2019-07-31T12:49:11.148Z</time>
      </trkpt>
      <trkpt lat="42.98703333" lon="-1.14944833">
        <ele>837.0</ele>
        <time>2019-07-31T12:49:12.154Z</time>
      </trkpt>
      <trkpt lat="42.98704333" lon="-1.149425">
        <ele>838.0</ele>
        <time>2019-07-31T12:49:13.160Z</time>
      </trkpt>
      <trkpt lat="42.98705" lon="-1.14940333">
        <ele>837.0</ele>
        <time>2019-07-31T12:49:14.165Z</time>
      </trkpt>
      <trkpt lat="42.98705333" lon="-1.14938333">
        <ele>837.0</ele>
        <time>2019-07-31T12:49:15.168Z</time>
      </trkpt>
      <trkpt lat="42.98705833" lon="-1.14936167">
        <ele>837.0</ele>
        <time>2019-07-31T12:49:16.172Z</time>
      </trkpt>
      <trkpt lat="42.98706333" lon="-1.14934167">
        <ele>837.0</ele>
        <time>2019-07-31T12:49:17.177Z</time>
      </trkpt>
      <trkpt lat="42.98706833" lon="-1.14932">
        <ele>836.0</ele>
        <time>2019-07-31T12:49:18.182Z</time>
      </trkpt>
      <trkpt lat="42.98707667" lon="-1.14929833">
        <ele>836.0</ele>
        <time>2019-07-31T12:49:19.062Z</time>
      </trkpt>
      <trkpt lat="42.98708833" lon="-1.14928">
        <ele>835.0</ele>
        <time>2019-07-31T12:49:20.068Z</time>
      </trkpt>
      <trkpt lat="42.987095" lon="-1.14925667">
        <ele>835.0</ele>
        <time>2019-07-31T12:49:21.073Z</time>
      </trkpt>
      <trkpt lat="42.9871" lon="-1.149235">
        <ele>835.0</ele>
        <time>2019-07-31T12:49:22.078Z</time>
      </trkpt>
      <trkpt lat="42.987105" lon="-1.14920833">
        <ele>835.0</ele>
        <time>2019-07-31T12:49:23.083Z</time>
      </trkpt>
      <trkpt lat="42.987115" lon="-1.14919333">
        <ele>835.0</ele>
        <time>2019-07-31T12:49:24.088Z</time>
      </trkpt>
      <trkpt lat="42.987125" lon="-1.14916833">
        <ele>834.0</ele>
        <time>2019-07-31T12:49:25.092Z</time>
      </trkpt>
      <trkpt lat="42.98713167" lon="-1.14914667">
        <ele>834.0</ele>
        <time>2019-07-31T12:49:26.097Z</time>
      </trkpt>
      <trkpt lat="42.98713833" lon="-1.14912833">
        <ele>834.0</ele>
        <time>2019-07-31T12:49:27.102Z</time>
      </trkpt>
      <trkpt lat="42.987135" lon="-1.14910667">
        <ele>832.0</ele>
        <time>2019-07-31T12:49:28.108Z</time>
      </trkpt>
      <trkpt lat="42.98713167" lon="-1.14908833">
        <ele>832.0</ele>
        <time>2019-07-31T12:49:29.113Z</time>
      </trkpt>
      <trkpt lat="42.98713333" lon="-1.14907333">
        <ele>831.0</ele>
        <time>2019-07-31T12:49:30.121Z</time>
      </trkpt>
      <trkpt lat="42.98713" lon="-1.14904833">
        <ele>830.0</ele>
        <time>2019-07-31T12:49:31.127Z</time>
      </trkpt>
      <trkpt lat="42.98711833" lon="-1.14903333">
        <ele>830.0</ele>
        <time>2019-07-31T12:49:32.132Z</time>
      </trkpt>
      <trkpt lat="42.9871" lon="-1.14902333">
        <ele>830.0</ele>
        <time>2019-07-31T12:49:33.137Z</time>
      </trkpt>
      <trkpt lat="42.98708667" lon="-1.14901333">
        <ele>832.0</ele>
        <time>2019-07-31T12:49:34.143Z</time>
      </trkpt>
      <trkpt lat="42.98708833" lon="-1.14900833">
        <ele>831.0</ele>
        <time>2019-07-31T12:49:35.149Z</time>
      </trkpt>
      <trkpt lat="42.987095" lon="-1.148995">
        <ele>830.0</ele>
        <time>2019-07-31T12:49:36.155Z</time>
      </trkpt>
      <trkpt lat="42.987095" lon="-1.14899333">
        <ele>827.0</ele>
        <time>2019-07-31T12:49:37.162Z</time>
      </trkpt>
      <trkpt lat="42.98708833" lon="-1.14898833">
        <ele>826.0</ele>
        <time>2019-07-31T12:49:38.168Z</time>
      </trkpt>
      <trkpt lat="42.98708167" lon="-1.14897333">
        <ele>826.0</ele>
        <time>2019-07-31T12:49:39.174Z</time>
      </trkpt>
      <trkpt lat="42.98708833" lon="-1.14895667">
        <ele>828.0</ele>
        <time>2019-07-31T12:49:40.179Z</time>
      </trkpt>
      <trkpt lat="42.987085" lon="-1.14895667">
        <ele>828.0</ele>
        <time>2019-07-31T12:49:41.184Z</time>
      </trkpt>
      <trkpt lat="42.98709" lon="-1.148955">
        <ele>827.0</ele>
        <time>2019-07-31T12:49:42.064Z</time>
      </trkpt>
      <trkpt lat="42.9871" lon="-1.14894333">
        <ele>827.0</ele>
        <time>2019-07-31T12:49:43.067Z</time>
      </trkpt>
      <trkpt lat="42.987105" lon="-1.14892833">
        <ele>828.0</ele>
        <time>2019-07-31T12:49:44.071Z</time>
      </trkpt>
      <trkpt lat="42.98710667" lon="-1.148905">
        <ele>828.0</ele>
        <time>2019-07-31T12:49:45.075Z</time>
      </trkpt>
      <trkpt lat="42.98710667" lon="-1.14889">
        <ele>829.0</ele>
        <time>2019-07-31T12:49:46.078Z</time>
      </trkpt>
      <trkpt lat="42.98710667" lon="-1.14887167">
        <ele>829.0</ele>
        <time>2019-07-31T12:49:47.081Z</time>
      </trkpt>
      <trkpt lat="42.98711333" lon="-1.14885167">
        <ele>829.0</ele>
        <time>2019-07-31T12:49:48.086Z</time>
      </trkpt>
      <trkpt lat="42.98711333" lon="-1.14883333">
        <ele>829.0</ele>
        <time>2019-07-31T12:49:49.092Z</time>
      </trkpt>
      <trkpt lat="42.98711333" lon="-1.148815">
        <ele>829.0</ele>
        <time>2019-07-31T12:49:50.098Z</time>
      </trkpt>
      <trkpt lat="42.98711167" lon="-1.14879667">
        <ele>828.0</ele>
        <time>2019-07-31T12:49:51.102Z</time>
      </trkpt>
      <trkpt lat="42.98711" lon="-1.14877833">
        <ele>828.0</ele>
        <time>2019-07-31T12:49:52.107Z</time>
      </trkpt>
      <trkpt lat="42.98711" lon="-1.14876">
        <ele>828.0</ele>
        <time>2019-07-31T12:49:53.112Z</time>
      </trkpt>
      <trkpt lat="42.98711167" lon="-1.14874167">
        <ele>828.0</ele>
        <time>2019-07-31T12:49:54.116Z</time>
      </trkpt>
      <trkpt lat="42.98711167" lon="-1.14872333">
        <ele>828.0</ele>
        <time>2019-07-31T12:49:55.120Z</time>
      </trkpt>
      <trkpt lat="42.98710833" lon="-1.148705">
        <ele>828.0</ele>
        <time>2019-07-31T12:49:56.126Z</time>
      </trkpt>
      <trkpt lat="42.98710667" lon="-1.148685">
        <ele>828.0</ele>
        <time>2019-07-31T12:49:57.130Z</time>
      </trkpt>
      <trkpt lat="42.98710667" lon="-1.148665">
        <ele>828.0</ele>
        <time>2019-07-31T12:49:58.134Z</time>
      </trkpt>
      <trkpt lat="42.987105" lon="-1.14864833">
        <ele>828.0</ele>
        <time>2019-07-31T12:49:59.140Z</time>
      </trkpt>
      <trkpt lat="42.987105" lon="-1.14863333">
        <ele>828.0</ele>
        <time>2019-07-31T12:50:00.145Z</time>
      </trkpt>
      <trkpt lat="42.98710667" lon="-1.14861667">
        <ele>828.0</ele>
        <time>2019-07-31T12:50:01.150Z</time>
      </trkpt>
      <trkpt lat="42.987105" lon="-1.14859833">
        <ele>827.0</ele>
        <time>2019-07-31T12:50:02.153Z</time>
      </trkpt>
      <trkpt lat="42.98710167" lon="-1.14858">
        <ele>827.0</ele>
        <time>2019-07-31T12:50:03.157Z</time>
      </trkpt>
      <trkpt lat="42.9871" lon="-1.14856">
        <ele>827.0</ele>
        <time>2019-07-31T12:50:04.162Z</time>
      </trkpt>
      <trkpt lat="42.987095" lon="-1.14854">
        <ele>827.0</ele>
        <time>2019-07-31T12:50:05.168Z</time>
      </trkpt>
      <trkpt lat="42.98709167" lon="-1.14851833">
        <ele>827.0</ele>
        <time>2019-07-31T12:50:06.175Z</time>
      </trkpt>
      <trkpt lat="42.98709167" lon="-1.14849833">
        <ele>827.0</ele>
        <time>2019-07-31T12:50:07.182Z</time>
      </trkpt>
      <trkpt lat="42.98709" lon="-1.14847667">
        <ele>827.0</ele>
        <time>2019-07-31T12:50:08.062Z</time>
      </trkpt>
      <trkpt lat="42.98709" lon="-1.14845833">
        <ele>827.0</ele>
        <time>2019-07-31T12:50:09.067Z</time>
      </trkpt>
      <trkpt lat="42.987085" lon="-1.148435">
        <ele>827.0</ele>
        <time>2019-07-31T12:50:10.073Z</time>
      </trkpt>
      <trkpt lat="42.98708333" lon="-1.14841333">
        <ele>827.0</ele>
        <time>2019-07-31T12:50:11.077Z</time>
      </trkpt>
      <trkpt lat="42.98708167" lon="-1.14839833">
        <ele>827.0</ele>
        <time>2019-07-31T12:50:12.083Z</time>
      </trkpt>
      <trkpt lat="42.98708167" lon="-1.14837833">
        <ele>828.0</ele>
        <time>2019-07-31T12:50:13.089Z</time>
      </trkpt>
      <trkpt lat="42.98708333" lon="-1.14836">
        <ele>828.0</ele>
        <time>2019-07-31T12:50:14.093Z</time>
      </trkpt>
      <trkpt lat="42.98707833" lon="-1.14833833">
        <ele>828.0</ele>
        <time>2019-07-31T12:50:15.097Z</time>
      </trkpt>
      <trkpt lat="42.987075" lon="-1.14831667">
        <ele>828.0</ele>
        <time>2019-07-31T12:50:16.103Z</time>
      </trkpt>
      <trkpt lat="42.98707" lon="-1.14829333">
        <ele>828.0</ele>
        <time>2019-07-31T12:50:17.110Z</time>
      </trkpt>
      <trkpt lat="42.98706833" lon="-1.148275">
        <ele>828.0</ele>
        <time>2019-07-31T12:50:18.114Z</time>
      </trkpt>
      <trkpt lat="42.98706333" lon="-1.148255">
        <ele>828.0</ele>
        <time>2019-07-31T12:50:19.119Z</time>
      </trkpt>
      <trkpt lat="42.98706167" lon="-1.148235">
        <ele>829.0</ele>
        <time>2019-07-31T12:50:20.124Z</time>
      </trkpt>
      <trkpt lat="42.98705667" lon="-1.148215">
        <ele>828.0</ele>
        <time>2019-07-31T12:50:21.130Z</time>
      </trkpt>
      <trkpt lat="42.98705333" lon="-1.148195">
        <ele>828.0</ele>
        <time>2019-07-31T12:50:22.136Z</time>
      </trkpt>
      <trkpt lat="42.987055" lon="-1.14817333">
        <ele>829.0</ele>
        <time>2019-07-31T12:50:23.144Z</time>
      </trkpt>
      <trkpt lat="42.987055" lon="-1.14815">
        <ele>829.0</ele>
        <time>2019-07-31T12:50:24.148Z</time>
      </trkpt>
      <trkpt lat="42.98705667" lon="-1.14812333">
        <ele>830.0</ele>
        <time>2019-07-31T12:50:25.154Z</time>
      </trkpt>
      <trkpt lat="42.98704667" lon="-1.14810167">
        <ele>831.0</ele>
        <time>2019-07-31T12:50:26.161Z</time>
      </trkpt>
      <trkpt lat="42.98704" lon="-1.14808">
        <ele>831.0</ele>
        <time>2019-07-31T12:50:27.166Z</time>
      </trkpt>
      <trkpt lat="42.98703667" lon="-1.14805833">
        <ele>831.0</ele>
        <time>2019-07-31T12:50:28.172Z</time>
      </trkpt>
      <trkpt lat="42.98703333" lon="-1.14803833">
        <ele>831.0</ele>
        <time>2019-07-31T12:50:29.177Z</time>
      </trkpt>
      <trkpt lat="42.987025" lon="-1.14801667">
        <ele>832.0</ele>
        <time>2019-07-31T12:50:30.183Z</time>
      </trkpt>
      <trkpt lat="42.98702" lon="-1.14799167">
        <ele>832.0</ele>
        <time>2019-07-31T12:50:31.063Z</time>
      </trkpt>
      <trkpt lat="42.987015" lon="-1.14795833">
        <ele>833.0</ele>
        <time>2019-07-31T12:50:32.069Z</time>
      </trkpt>
      <trkpt lat="42.98701" lon="-1.14793667">
        <ele>834.0</ele>
        <time>2019-07-31T12:50:33.073Z</time>
      </trkpt>
      <trkpt lat="42.98700333" lon="-1.14791667">
        <ele>833.0</ele>
        <time>2019-07-31T12:50:34.080Z</time>
      </trkpt>
      <trkpt lat="42.986995" lon="-1.1479">
        <ele>833.0</ele>
        <time>2019-07-31T12:50:35.086Z</time>
      </trkpt>
      <trkpt lat="42.98698" lon="-1.147885">
        <ele>834.0</ele>
        <time>2019-07-31T12:50:36.091Z</time>
      </trkpt>
      <trkpt lat="42.98697167" lon="-1.147875">
        <ele>833.0</ele>
        <time>2019-07-31T12:50:37.094Z</time>
      </trkpt>
      <trkpt lat="42.98697" lon="-1.14786333">
        <ele>833.0</ele>
        <time>2019-07-31T12:50:38.100Z</time>
      </trkpt>
      <trkpt lat="42.98697" lon="-1.14784833">
        <ele>832.0</ele>
        <time>2019-07-31T12:50:39.104Z</time>
      </trkpt>
      <trkpt lat="42.98697167" lon="-1.14783">
        <ele>832.0</ele>
        <time>2019-07-31T12:50:40.109Z</time>
      </trkpt>
      <trkpt lat="42.98697167" lon="-1.14781">
        <ele>832.0</ele>
        <time>2019-07-31T12:50:41.113Z</time>
      </trkpt>
      <trkpt lat="42.98697167" lon="-1.14779167">
        <ele>832.0</ele>
        <time>2019-07-31T12:50:42.119Z</time>
      </trkpt>
      <trkpt lat="42.98697167" lon="-1.14777333">
        <ele>832.0</ele>
        <time>2019-07-31T12:50:43.126Z</time>
      </trkpt>
      <trkpt lat="42.98697167" lon="-1.14775833">
        <ele>832.0</ele>
        <time>2019-07-31T12:50:44.132Z</time>
      </trkpt>
      <trkpt lat="42.98697" lon="-1.14774167">
        <ele>831.0</ele>
        <time>2019-07-31T12:50:45.136Z</time>
      </trkpt>
      <trkpt lat="42.98697333" lon="-1.14772167">
        <ele>831.0</ele>
        <time>2019-07-31T12:50:46.141Z</time>
      </trkpt>
      <trkpt lat="42.98697667" lon="-1.14770167">
        <ele>831.0</ele>
        <time>2019-07-31T12:50:47.146Z</time>
      </trkpt>
      <trkpt lat="42.98697667" lon="-1.14768833">
        <ele>831.0</ele>
        <time>2019-07-31T12:50:48.153Z</time>
      </trkpt>
      <trkpt lat="42.98697833" lon="-1.14767167">
        <ele>830.0</ele>
        <time>2019-07-31T12:50:49.159Z</time>
      </trkpt>
      <trkpt lat="42.986975" lon="-1.14765667">
        <ele>830.0</ele>
        <time>2019-07-31T12:50:50.165Z</time>
      </trkpt>
      <trkpt lat="42.98697333" lon="-1.14764333">
        <ele>830.0</ele>
        <time>2019-07-31T12:50:51.171Z</time>
      </trkpt>
      <trkpt lat="42.986975" lon="-1.14762667">
        <ele>830.0</ele>
        <time>2019-07-31T12:50:52.178Z</time>
      </trkpt>
      <trkpt lat="42.98697667" lon="-1.147605">
        <ele>831.0</ele>
        <time>2019-07-31T12:50:53.185Z</time>
      </trkpt>
      <trkpt lat="42.986975" lon="-1.14758333">
        <ele>831.0</ele>
        <time>2019-07-31T12:50:54.064Z</time>
      </trkpt>
      <trkpt lat="42.98697167" lon="-1.14757167">
        <ele>831.0</ele>
        <time>2019-07-31T12:50:55.070Z</time>
      </trkpt>
      <trkpt lat="42.98696333" lon="-1.147555">
        <ele>830.0</ele>
        <time>2019-07-31T12:50:56.074Z</time>
      </trkpt>
      <trkpt lat="42.98696" lon="-1.14753167">
        <ele>830.0</ele>
        <time>2019-07-31T12:50:57.077Z</time>
      </trkpt>
      <trkpt lat="42.98696167" lon="-1.147515">
        <ele>831.0</ele>
        <time>2019-07-31T12:50:58.083Z</time>
      </trkpt>
      <trkpt lat="42.98696333" lon="-1.14749667">
        <ele>831.0</ele>
        <time>2019-07-31T12:50:59.088Z</time>
      </trkpt>
      <trkpt lat="42.98696333" lon="-1.147475">
        <ele>832.0</ele>
        <time>2019-07-31T12:51:00.092Z</time>
      </trkpt>
      <trkpt lat="42.98696" lon="-1.14745333">
        <ele>832.0</ele>
        <time>2019-07-31T12:51:01.099Z</time>
      </trkpt>
      <trkpt lat="42.98696167" lon="-1.14743167">
        <ele>831.0</ele>
        <time>2019-07-31T12:51:02.106Z</time>
      </trkpt>
      <trkpt lat="42.98695667" lon="-1.14740833">
        <ele>831.0</ele>
        <time>2019-07-31T12:51:03.112Z</time>
      </trkpt>
      <trkpt lat="42.98695167" lon="-1.14738333">
        <ele>830.0</ele>
        <time>2019-07-31T12:51:04.117Z</time>
      </trkpt>
      <trkpt lat="42.98695167" lon="-1.14736833">
        <ele>831.0</ele>
        <time>2019-07-31T12:51:05.123Z</time>
      </trkpt>
      <trkpt lat="42.98695333" lon="-1.14734833">
        <ele>831.0</ele>
        <time>2019-07-31T12:51:06.128Z</time>
      </trkpt>
      <trkpt lat="42.986955" lon="-1.14732833">
        <ele>832.0</ele>
        <time>2019-07-31T12:51:07.134Z</time>
      </trkpt>
      <trkpt lat="42.98695333" lon="-1.14730333">
        <ele>832.0</ele>
        <time>2019-07-31T12:51:08.139Z</time>
      </trkpt>
      <trkpt lat="42.98695833" lon="-1.14728667">
        <ele>832.0</ele>
        <time>2019-07-31T12:51:09.144Z</time>
      </trkpt>
      <trkpt lat="42.98695667" lon="-1.14726833">
        <ele>832.0</ele>
        <time>2019-07-31T12:51:10.148Z</time>
      </trkpt>
      <trkpt lat="42.98695" lon="-1.14724167">
        <ele>831.0</ele>
        <time>2019-07-31T12:51:11.154Z</time>
      </trkpt>
      <trkpt lat="42.98695167" lon="-1.14722333">
        <ele>831.0</ele>
        <time>2019-07-31T12:51:12.158Z</time>
      </trkpt>
      <trkpt lat="42.98694667" lon="-1.14719333">
        <ele>830.0</ele>
        <time>2019-07-31T12:51:13.164Z</time>
      </trkpt>
      <trkpt lat="42.98694333" lon="-1.14716833">
        <ele>829.0</ele>
        <time>2019-07-31T12:51:14.170Z</time>
      </trkpt>
      <trkpt lat="42.98694167" lon="-1.14714833">
        <ele>828.0</ele>
        <time>2019-07-31T12:51:15.175Z</time>
      </trkpt>
      <trkpt lat="42.98694333" lon="-1.14712667">
        <ele>829.0</ele>
        <time>2019-07-31T12:51:16.181Z</time>
      </trkpt>
      <trkpt lat="42.98694833" lon="-1.14710667">
        <ele>830.0</ele>
        <time>2019-07-31T12:51:17.183Z</time>
      </trkpt>
      <trkpt lat="42.98695167" lon="-1.14708667">
        <ele>832.0</ele>
        <time>2019-07-31T12:51:18.186Z</time>
      </trkpt>
      <trkpt lat="42.98695" lon="-1.147065">
        <ele>832.0</ele>
        <time>2019-07-31T12:51:19.065Z</time>
      </trkpt>
      <trkpt lat="42.98695167" lon="-1.14703667">
        <ele>833.0</ele>
        <time>2019-07-31T12:51:20.070Z</time>
      </trkpt>
      <trkpt lat="42.986945" lon="-1.14701">
        <ele>834.0</ele>
        <time>2019-07-31T12:51:21.075Z</time>
      </trkpt>
      <trkpt lat="42.98694833" lon="-1.14699333">
        <ele>835.0</ele>
        <time>2019-07-31T12:51:22.079Z</time>
      </trkpt>
      <trkpt lat="42.98694833" lon="-1.14697833">
        <ele>835.0</ele>
        <time>2019-07-31T12:51:23.084Z</time>
      </trkpt>
      <trkpt lat="42.98695" lon="-1.14696667">
        <ele>835.0</ele>
        <time>2019-07-31T12:51:24.091Z</time>
      </trkpt>
      <trkpt lat="42.98695" lon="-1.14695167">
        <ele>836.0</ele>
        <time>2019-07-31T12:51:25.096Z</time>
      </trkpt>
      <trkpt lat="42.986955" lon="-1.14694333">
        <ele>834.0</ele>
        <time>2019-07-31T12:51:26.104Z</time>
      </trkpt>
      <trkpt lat="42.98696167" lon="-1.146925">
        <ele>834.0</ele>
        <time>2019-07-31T12:51:27.109Z</time>
      </trkpt>
      <trkpt lat="42.986965" lon="-1.146905">
        <ele>834.0</ele>
        <time>2019-07-31T12:51:28.113Z</time>
      </trkpt>
      <trkpt lat="42.98697333" lon="-1.14688833">
        <ele>834.0</ele>
        <time>2019-07-31T12:51:29.116Z</time>
      </trkpt>
      <trkpt lat="42.98698167" lon="-1.146875">
        <ele>834.0</ele>
        <time>2019-07-31T12:51:30.120Z</time>
      </trkpt>
      <trkpt lat="42.98698667" lon="-1.14685833">
        <ele>834.0</ele>
        <time>2019-07-31T12:51:31.124Z</time>
      </trkpt>
      <trkpt lat="42.98698667" lon="-1.14684333">
        <ele>834.0</ele>
        <time>2019-07-31T12:51:32.129Z</time>
      </trkpt>
      <trkpt lat="42.98699" lon="-1.14682667">
        <ele>834.0</ele>
        <time>2019-07-31T12:51:33.134Z</time>
      </trkpt>
      <trkpt lat="42.98699" lon="-1.14680833">
        <ele>833.0</ele>
        <time>2019-07-31T12:51:34.140Z</time>
      </trkpt>
      <trkpt lat="42.98699167" lon="-1.14678833">
        <ele>833.0</ele>
        <time>2019-07-31T12:51:35.146Z</time>
      </trkpt>
      <trkpt lat="42.98699" lon="-1.14676333">
        <ele>833.0</ele>
        <time>2019-07-31T12:51:36.151Z</time>
      </trkpt>
      <trkpt lat="42.98699333" lon="-1.146745">
        <ele>832.0</ele>
        <time>2019-07-31T12:51:37.156Z</time>
      </trkpt>
      <trkpt lat="42.98699333" lon="-1.146725">
        <ele>832.0</ele>
        <time>2019-07-31T12:51:38.161Z</time>
      </trkpt>
      <trkpt lat="42.98699333" lon="-1.146705">
        <ele>832.0</ele>
        <time>2019-07-31T12:51:39.168Z</time>
      </trkpt>
      <trkpt lat="42.98699333" lon="-1.14668">
        <ele>832.0</ele>
        <time>2019-07-31T12:51:40.173Z</time>
      </trkpt>
      <trkpt lat="42.98699333" lon="-1.146655">
        <ele>832.0</ele>
        <time>2019-07-31T12:51:41.178Z</time>
      </trkpt>
      <trkpt lat="42.98699333" lon="-1.14663167">
        <ele>832.0</ele>
        <time>2019-07-31T12:51:42.184Z</time>
      </trkpt>
      <trkpt lat="42.98699333" lon="-1.14660833">
        <ele>831.0</ele>
        <time>2019-07-31T12:51:43.065Z</time>
      </trkpt>
      <trkpt lat="42.98699333" lon="-1.146585">
        <ele>831.0</ele>
        <time>2019-07-31T12:51:44.070Z</time>
      </trkpt>
      <trkpt lat="42.98699333" lon="-1.14656167">
        <ele>830.0</ele>
        <time>2019-07-31T12:51:45.075Z</time>
      </trkpt>
      <trkpt lat="42.986995" lon="-1.14654167">
        <ele>831.0</ele>
        <time>2019-07-31T12:51:46.081Z</time>
      </trkpt>
      <trkpt lat="42.98699667" lon="-1.14652167">
        <ele>830.0</ele>
        <time>2019-07-31T12:51:47.088Z</time>
      </trkpt>
      <trkpt lat="42.98699667" lon="-1.14649667">
        <ele>829.0</ele>
        <time>2019-07-31T12:51:48.094Z</time>
      </trkpt>
      <trkpt lat="42.98699333" lon="-1.14646833">
        <ele>829.0</ele>
        <time>2019-07-31T12:51:49.101Z</time>
      </trkpt>
      <trkpt lat="42.98699333" lon="-1.14644167">
        <ele>829.0</ele>
        <time>2019-07-31T12:51:50.105Z</time>
      </trkpt>
      <trkpt lat="42.98699333" lon="-1.146415">
        <ele>828.0</ele>
        <time>2019-07-31T12:51:51.111Z</time>
      </trkpt>
      <trkpt lat="42.98699167" lon="-1.146385">
        <ele>828.0</ele>
        <time>2019-07-31T12:51:52.114Z</time>
      </trkpt>
      <trkpt lat="42.98699167" lon="-1.14636">
        <ele>827.0</ele>
        <time>2019-07-31T12:51:53.118Z</time>
      </trkpt>
      <trkpt lat="42.986995" lon="-1.14633667">
        <ele>827.0</ele>
        <time>2019-07-31T12:51:54.122Z</time>
      </trkpt>
      <trkpt lat="42.986995" lon="-1.14631">
        <ele>827.0</ele>
        <time>2019-07-31T12:51:55.129Z</time>
      </trkpt>
      <trkpt lat="42.98699333" lon="-1.146285">
        <ele>826.0</ele>
        <time>2019-07-31T12:51:56.132Z</time>
      </trkpt>
      <trkpt lat="42.98699333" lon="-1.14626667">
        <ele>825.0</ele>
        <time>2019-07-31T12:51:57.138Z</time>
      </trkpt>
      <trkpt lat="42.98699333" lon="-1.14624167">
        <ele>824.0</ele>
        <time>2019-07-31T12:51:58.144Z</time>
      </trkpt>
      <trkpt lat="42.98699" lon="-1.14621833">
        <ele>824.0</ele>
        <time>2019-07-31T12:51:59.149Z</time>
      </trkpt>
      <trkpt lat="42.986985" lon="-1.146195">
        <ele>823.0</ele>
        <time>2019-07-31T12:52:00.152Z</time>
      </trkpt>
      <trkpt lat="42.986985" lon="-1.14617333">
        <ele>823.0</ele>
        <time>2019-07-31T12:52:01.156Z</time>
      </trkpt>
      <trkpt lat="42.986985" lon="-1.14614833">
        <ele>822.0</ele>
        <time>2019-07-31T12:52:02.158Z</time>
      </trkpt>
      <trkpt lat="42.98699" lon="-1.14612833">
        <ele>822.0</ele>
        <time>2019-07-31T12:52:03.163Z</time>
      </trkpt>
      <trkpt lat="42.98699167" lon="-1.14611">
        <ele>822.0</ele>
        <time>2019-07-31T12:52:04.168Z</time>
      </trkpt>
      <trkpt lat="42.98699833" lon="-1.14608667">
        <ele>822.0</ele>
        <time>2019-07-31T12:52:05.172Z</time>
      </trkpt>
      <trkpt lat="42.98701167" lon="-1.146065">
        <ele>824.0</ele>
        <time>2019-07-31T12:52:06.177Z</time>
      </trkpt>
      <trkpt lat="42.98702" lon="-1.146035">
        <ele>826.0</ele>
        <time>2019-07-31T12:52:07.185Z</time>
      </trkpt>
      <trkpt lat="42.98702667" lon="-1.14601333">
        <ele>826.0</ele>
        <time>2019-07-31T12:52:08.065Z</time>
      </trkpt>
      <trkpt lat="42.98701833" lon="-1.14599833">
        <ele>827.0</ele>
        <time>2019-07-31T12:52:09.067Z</time>
      </trkpt>
      <trkpt lat="42.98701167" lon="-1.14598">
        <ele>826.0</ele>
        <time>2019-07-31T12:52:10.074Z</time>
      </trkpt>
      <trkpt lat="42.98701667" lon="-1.14595667">
        <ele>826.0</ele>
        <time>2019-07-31T12:52:11.078Z</time>
      </trkpt>
      <trkpt lat="42.98702667" lon="-1.14594">
        <ele>827.0</ele>
        <time>2019-07-31T12:52:12.082Z</time>
      </trkpt>
      <trkpt lat="42.98703167" lon="-1.14592333">
        <ele>827.0</ele>
        <time>2019-07-31T12:52:13.089Z</time>
      </trkpt>
      <trkpt lat="42.987035" lon="-1.14590333">
        <ele>828.0</ele>
        <time>2019-07-31T12:52:14.093Z</time>
      </trkpt>
      <trkpt lat="42.98704" lon="-1.145885">
        <ele>828.0</ele>
        <time>2019-07-31T12:52:15.098Z</time>
      </trkpt>
      <trkpt lat="42.98704167" lon="-1.145865">
        <ele>828.0</ele>
        <time>2019-07-31T12:52:16.105Z</time>
      </trkpt>
      <trkpt lat="42.987045" lon="-1.14584333">
        <ele>828.0</ele>
        <time>2019-07-31T12:52:17.111Z</time>
      </trkpt>
      <trkpt lat="42.98704833" lon="-1.14582333">
        <ele>829.0</ele>
        <time>2019-07-31T12:52:18.119Z</time>
      </trkpt>
      <trkpt lat="42.987045" lon="-1.14580333">
        <ele>828.0</ele>
        <time>2019-07-31T12:52:19.123Z</time>
      </trkpt>
      <trkpt lat="42.987045" lon="-1.14578333">
        <ele>828.0</ele>
        <time>2019-07-31T12:52:20.128Z</time>
      </trkpt>
      <trkpt lat="42.987045" lon="-1.145765">
        <ele>828.0</ele>
        <time>2019-07-31T12:52:21.133Z</time>
      </trkpt>
      <trkpt lat="42.98704167" lon="-1.14574667">
        <ele>828.0</ele>
        <time>2019-07-31T12:52:22.138Z</time>
      </trkpt>
      <trkpt lat="42.98704167" lon="-1.14572667">
        <ele>828.0</ele>
        <time>2019-07-31T12:52:23.141Z</time>
      </trkpt>
      <trkpt lat="42.98704" lon="-1.145705">
        <ele>828.0</ele>
        <time>2019-07-31T12:52:24.148Z</time>
      </trkpt>
      <trkpt lat="42.987035" lon="-1.14568333">
        <ele>828.0</ele>
        <time>2019-07-31T12:52:25.154Z</time>
      </trkpt>
      <trkpt lat="42.987025" lon="-1.14566333">
        <ele>829.0</ele>
        <time>2019-07-31T12:52:26.159Z</time>
      </trkpt>
      <trkpt lat="42.98700833" lon="-1.14564667">
        <ele>829.0</ele>
        <time>2019-07-31T12:52:27.165Z</time>
      </trkpt>
      <trkpt lat="42.98699167" lon="-1.14563333">
        <ele>829.0</ele>
        <time>2019-07-31T12:52:28.171Z</time>
      </trkpt>
      <trkpt lat="42.98697333" lon="-1.14562167">
        <ele>830.0</ele>
        <time>2019-07-31T12:52:29.175Z</time>
      </trkpt>
      <trkpt lat="42.98696" lon="-1.14561333">
        <ele>830.0</ele>
        <time>2019-07-31T12:52:30.180Z</time>
      </trkpt>
      <trkpt lat="42.98694333" lon="-1.14559833">
        <ele>832.0</ele>
        <time>2019-07-31T12:52:31.185Z</time>
      </trkpt>
      <trkpt lat="42.98692833" lon="-1.14558333">
        <ele>833.0</ele>
        <time>2019-07-31T12:52:32.063Z</time>
      </trkpt>
      <trkpt lat="42.98691" lon="-1.14557167">
        <ele>833.0</ele>
        <time>2019-07-31T12:52:33.069Z</time>
      </trkpt>
      <trkpt lat="42.98689167" lon="-1.145565">
        <ele>834.0</ele>
        <time>2019-07-31T12:52:34.076Z</time>
      </trkpt>
      <trkpt lat="42.986875" lon="-1.14555">
        <ele>834.0</ele>
        <time>2019-07-31T12:52:35.080Z</time>
      </trkpt>
      <trkpt lat="42.986865" lon="-1.145535">
        <ele>835.0</ele>
        <time>2019-07-31T12:52:36.087Z</time>
      </trkpt>
      <trkpt lat="42.98685333" lon="-1.14552">
        <ele>836.0</ele>
        <time>2019-07-31T12:52:37.091Z</time>
      </trkpt>
      <trkpt lat="42.98684167" lon="-1.14550333">
        <ele>837.0</ele>
        <time>2019-07-31T12:52:38.096Z</time>
      </trkpt>
      <trkpt lat="42.986825" lon="-1.14548833">
        <ele>838.0</ele>
        <time>2019-07-31T12:52:39.102Z</time>
      </trkpt>
      <trkpt lat="42.98681167" lon="-1.145475">
        <ele>839.0</ele>
        <time>2019-07-31T12:52:40.107Z</time>
      </trkpt>
      <trkpt lat="42.98679333" lon="-1.14545667">
        <ele>838.0</ele>
        <time>2019-07-31T12:52:41.114Z</time>
      </trkpt>
      <trkpt lat="42.98677833" lon="-1.145435">
        <ele>839.0</ele>
        <time>2019-07-31T12:52:42.118Z</time>
      </trkpt>
      <trkpt lat="42.98676" lon="-1.14542">
        <ele>840.0</ele>
        <time>2019-07-31T12:52:43.123Z</time>
      </trkpt>
      <trkpt lat="42.98674167" lon="-1.1454">
        <ele>840.0</ele>
        <time>2019-07-31T12:52:44.129Z</time>
      </trkpt>
      <trkpt lat="42.986735" lon="-1.14538667">
        <ele>841.0</ele>
        <time>2019-07-31T12:52:45.133Z</time>
      </trkpt>
      <trkpt lat="42.98672833" lon="-1.14537667">
        <ele>843.0</ele>
        <time>2019-07-31T12:52:46.140Z</time>
      </trkpt>
      <trkpt lat="42.98672" lon="-1.14536333">
        <ele>845.0</ele>
        <time>2019-07-31T12:52:47.146Z</time>
      </trkpt>
      <trkpt lat="42.98670667" lon="-1.14535">
        <ele>847.0</ele>
        <time>2019-07-31T12:52:48.151Z</time>
      </trkpt>
      <trkpt lat="42.986695" lon="-1.14533667">
        <ele>847.0</ele>
        <time>2019-07-31T12:52:49.157Z</time>
      </trkpt>
      <trkpt lat="42.98668167" lon="-1.145335">
        <ele>847.0</ele>
        <time>2019-07-31T12:52:50.163Z</time>
      </trkpt>
      <trkpt lat="42.98666833" lon="-1.14532667">
        <ele>847.0</ele>
        <time>2019-07-31T12:52:51.168Z</time>
      </trkpt>
      <trkpt lat="42.98665167" lon="-1.145315">
        <ele>846.0</ele>
        <time>2019-07-31T12:52:52.175Z</time>
      </trkpt>
      <trkpt lat="42.98664" lon="-1.145305">
        <ele>847.0</ele>
        <time>2019-07-31T12:52:53.179Z</time>
      </trkpt>
      <trkpt lat="42.98662833" lon="-1.145295">
        <ele>848.0</ele>
        <time>2019-07-31T12:52:54.183Z</time>
      </trkpt>
      <trkpt lat="42.986615" lon="-1.14528667">
        <ele>848.0</ele>
        <time>2019-07-31T12:52:55.061Z</time>
      </trkpt>
      <trkpt lat="42.98660333" lon="-1.14528">
        <ele>848.0</ele>
        <time>2019-07-31T12:52:56.067Z</time>
      </trkpt>
      <trkpt lat="42.98658667" lon="-1.14526833">
        <ele>849.0</ele>
        <time>2019-07-31T12:52:57.072Z</time>
      </trkpt>
      <trkpt lat="42.98656833" lon="-1.14526333">
        <ele>850.0</ele>
        <time>2019-07-31T12:52:58.077Z</time>
      </trkpt>
      <trkpt lat="42.98655167" lon="-1.14526167">
        <ele>851.0</ele>
        <time>2019-07-31T12:52:59.082Z</time>
      </trkpt>
      <trkpt lat="42.98653" lon="-1.14525167">
        <ele>852.0</ele>
        <time>2019-07-31T12:53:00.087Z</time>
      </trkpt>
      <trkpt lat="42.98650833" lon="-1.14524333">
        <ele>853.0</ele>
        <time>2019-07-31T12:53:01.093Z</time>
      </trkpt>
      <trkpt lat="42.98648833" lon="-1.14524167">
        <ele>852.0</ele>
        <time>2019-07-31T12:53:02.099Z</time>
      </trkpt>
      <trkpt lat="42.98646667" lon="-1.14523333">
        <ele>852.0</ele>
        <time>2019-07-31T12:53:03.100Z</time>
      </trkpt>
      <trkpt lat="42.98644833" lon="-1.14521833">
        <ele>852.0</ele>
        <time>2019-07-31T12:53:04.105Z</time>
      </trkpt>
      <trkpt lat="42.986425" lon="-1.14521">
        <ele>852.0</ele>
        <time>2019-07-31T12:53:05.111Z</time>
      </trkpt>
      <trkpt lat="42.98640167" lon="-1.14520167">
        <ele>852.0</ele>
        <time>2019-07-31T12:53:06.115Z</time>
      </trkpt>
      <trkpt lat="42.98637833" lon="-1.14519667">
        <ele>852.0</ele>
        <time>2019-07-31T12:53:07.121Z</time>
      </trkpt>
      <trkpt lat="42.98635833" lon="-1.14518167">
        <ele>852.0</ele>
        <time>2019-07-31T12:53:08.125Z</time>
      </trkpt>
      <trkpt lat="42.98634167" lon="-1.14516667">
        <ele>852.0</ele>
        <time>2019-07-31T12:53:09.132Z</time>
      </trkpt>
      <trkpt lat="42.98632167" lon="-1.14515667">
        <ele>853.0</ele>
        <time>2019-07-31T12:53:10.137Z</time>
      </trkpt>
      <trkpt lat="42.986305" lon="-1.14515667">
        <ele>855.0</ele>
        <time>2019-07-31T12:53:11.143Z</time>
      </trkpt>
      <trkpt lat="42.98628667" lon="-1.14515167">
        <ele>856.0</ele>
        <time>2019-07-31T12:53:12.149Z</time>
      </trkpt>
      <trkpt lat="42.98627167" lon="-1.14515667">
        <ele>855.0</ele>
        <time>2019-07-31T12:53:13.155Z</time>
      </trkpt>
      <trkpt lat="42.98625667" lon="-1.145155">
        <ele>856.0</ele>
        <time>2019-07-31T12:53:14.161Z</time>
      </trkpt>
      <trkpt lat="42.986235" lon="-1.145155">
        <ele>855.0</ele>
        <time>2019-07-31T12:53:15.169Z</time>
      </trkpt>
      <trkpt lat="42.98621333" lon="-1.14515333">
        <ele>855.0</ele>
        <time>2019-07-31T12:53:16.173Z</time>
      </trkpt>
      <trkpt lat="42.98619333" lon="-1.14515167">
        <ele>854.0</ele>
        <time>2019-07-31T12:53:17.176Z</time>
      </trkpt>
      <trkpt lat="42.986175" lon="-1.14514667">
        <ele>855.0</ele>
        <time>2019-07-31T12:53:18.180Z</time>
      </trkpt>
      <trkpt lat="42.98616667" lon="-1.145135">
        <ele>856.0</ele>
        <time>2019-07-31T12:53:19.185Z</time>
      </trkpt>
      <trkpt lat="42.98614833" lon="-1.14512167">
        <ele>857.0</ele>
        <time>2019-07-31T12:53:20.065Z</time>
      </trkpt>
      <trkpt lat="42.98613167" lon="-1.145105">
        <ele>859.0</ele>
        <time>2019-07-31T12:53:21.070Z</time>
      </trkpt>
      <trkpt lat="42.98612167" lon="-1.14509667">
        <ele>860.0</ele>
        <time>2019-07-31T12:53:22.074Z</time>
      </trkpt>
      <trkpt lat="42.98611167" lon="-1.14509333">
        <ele>861.0</ele>
        <time>2019-07-31T12:53:23.079Z</time>
      </trkpt>
      <trkpt lat="42.98610667" lon="-1.14508833">
        <ele>862.0</ele>
        <time>2019-07-31T12:53:24.083Z</time>
      </trkpt>
      <trkpt lat="42.9861" lon="-1.14508333">
        <ele>862.0</ele>
        <time>2019-07-31T12:53:25.088Z</time>
      </trkpt>
      <trkpt lat="42.98609667" lon="-1.14507833">
        <ele>862.0</ele>
        <time>2019-07-31T12:53:26.091Z</time>
      </trkpt>
      <trkpt lat="42.98610167" lon="-1.14507667">
        <ele>863.0</ele>
        <time>2019-07-31T12:53:27.094Z</time>
      </trkpt>
      <trkpt lat="42.9861" lon="-1.14506833">
        <ele>863.0</ele>
        <time>2019-07-31T12:53:28.099Z</time>
      </trkpt>
      <trkpt lat="42.98608833" lon="-1.14505167">
        <ele>863.0</ele>
        <time>2019-07-31T12:53:29.102Z</time>
      </trkpt>
      <trkpt lat="42.986075" lon="-1.14503833">
        <ele>864.0</ele>
        <time>2019-07-31T12:53:30.108Z</time>
      </trkpt>
      <trkpt lat="42.98607" lon="-1.14502833">
        <ele>864.0</ele>
        <time>2019-07-31T12:53:31.111Z</time>
      </trkpt>
      <trkpt lat="42.98606333" lon="-1.14502333">
        <ele>864.0</ele>
        <time>2019-07-31T12:53:32.116Z</time>
      </trkpt>
      <trkpt lat="42.986055" lon="-1.14501">
        <ele>864.0</ele>
        <time>2019-07-31T12:53:33.122Z</time>
      </trkpt>
      <trkpt lat="42.98604833" lon="-1.14499833">
        <ele>863.0</ele>
        <time>2019-07-31T12:53:34.126Z</time>
      </trkpt>
      <trkpt lat="42.98604333" lon="-1.14498833">
        <ele>862.0</ele>
        <time>2019-07-31T12:53:35.129Z</time>
      </trkpt>
      <trkpt lat="42.986045" lon="-1.14498333">
        <ele>862.0</ele>
        <time>2019-07-31T12:53:36.135Z</time>
      </trkpt>
      <trkpt lat="42.98605667" lon="-1.14497833">
        <ele>861.0</ele>
        <time>2019-07-31T12:53:37.139Z</time>
      </trkpt>
      <trkpt lat="42.98606" lon="-1.14497167">
        <ele>860.0</ele>
        <time>2019-07-31T12:53:38.145Z</time>
      </trkpt>
      <trkpt lat="42.98605167" lon="-1.144965">
        <ele>859.0</ele>
        <time>2019-07-31T12:53:39.150Z</time>
      </trkpt>
      <trkpt lat="42.98604333" lon="-1.14496167">
        <ele>859.0</ele>
        <time>2019-07-31T12:53:40.156Z</time>
      </trkpt>
      <trkpt lat="42.98603667" lon="-1.144955">
        <ele>858.0</ele>
        <time>2019-07-31T12:53:41.162Z</time>
      </trkpt>
      <trkpt lat="42.98602667" lon="-1.14495">
        <ele>858.0</ele>
        <time>2019-07-31T12:53:42.168Z</time>
      </trkpt>
      <trkpt lat="42.98602" lon="-1.14495">
        <ele>859.0</ele>
        <time>2019-07-31T12:53:43.174Z</time>
      </trkpt>
      <trkpt lat="42.98601167" lon="-1.14495">
        <ele>859.0</ele>
        <time>2019-07-31T12:53:44.177Z</time>
      </trkpt>
      <trkpt lat="42.986" lon="-1.144945">
        <ele>859.0</ele>
        <time>2019-07-31T12:53:45.179Z</time>
      </trkpt>
      <trkpt lat="42.98599333" lon="-1.14494333">
        <ele>860.0</ele>
        <time>2019-07-31T12:53:46.184Z</time>
      </trkpt>
      <trkpt lat="42.985985" lon="-1.14493667">
        <ele>860.0</ele>
        <time>2019-07-31T12:53:47.064Z</time>
      </trkpt>
      <trkpt lat="42.98597833" lon="-1.14493">
        <ele>860.0</ele>
        <time>2019-07-31T12:53:48.068Z</time>
      </trkpt>
      <trkpt lat="42.985975" lon="-1.14492667">
        <ele>860.0</ele>
        <time>2019-07-31T12:53:49.072Z</time>
      </trkpt>
      <trkpt lat="42.98597333" lon="-1.14492167">
        <ele>860.0</ele>
        <time>2019-07-31T12:53:50.078Z</time>
      </trkpt>
      <trkpt lat="42.98597167" lon="-1.14492167">
        <ele>861.0</ele>
        <time>2019-07-31T12:53:51.083Z</time>
      </trkpt>
      <trkpt lat="42.985975" lon="-1.144925">
        <ele>861.0</ele>
        <time>2019-07-31T12:53:52.088Z</time>
      </trkpt>
      <trkpt lat="42.98598" lon="-1.144925">
        <ele>861.0</ele>
        <time>2019-07-31T12:53:53.092Z</time>
      </trkpt>
      <trkpt lat="42.98598833" lon="-1.14493">
        <ele>862.0</ele>
        <time>2019-07-31T12:53:54.097Z</time>
      </trkpt>
      <trkpt lat="42.98599833" lon="-1.14493">
        <ele>863.0</ele>
        <time>2019-07-31T12:53:55.100Z</time>
      </trkpt>
      <trkpt lat="42.986005" lon="-1.14493667">
        <ele>864.0</ele>
        <time>2019-07-31T12:53:56.106Z</time>
      </trkpt>
      <trkpt lat="42.98600833" lon="-1.144945">
        <ele>864.0</ele>
        <time>2019-07-31T12:53:57.113Z</time>
      </trkpt>
      <trkpt lat="42.98601333" lon="-1.14495167">
        <ele>865.0</ele>
        <time>2019-07-31T12:53:58.121Z</time>
      </trkpt>
      <trkpt lat="42.986015" lon="-1.14496167">
        <ele>865.0</ele>
        <time>2019-07-31T12:53:59.126Z</time>
      </trkpt>
      <trkpt lat="42.98601833" lon="-1.14497333">
        <ele>865.0</ele>
        <time>2019-07-31T12:54:00.131Z</time>
      </trkpt>
      <trkpt lat="42.98602167" lon="-1.14498667">
        <ele>866.0</ele>
        <time>2019-07-31T12:54:01.134Z</time>
      </trkpt>
      <trkpt lat="42.98602333" lon="-1.145">
        <ele>866.0</ele>
        <time>2019-07-31T12:54:02.140Z</time>
      </trkpt>
      <trkpt lat="42.98603" lon="-1.14501167">
        <ele>864.0</ele>
        <time>2019-07-31T12:54:03.146Z</time>
      </trkpt>
      <trkpt lat="42.98603" lon="-1.14502167">
        <ele>865.0</ele>
        <time>2019-07-31T12:54:04.152Z</time>
      </trkpt>
      <trkpt lat="42.98603167" lon="-1.145035">
        <ele>865.0</ele>
        <time>2019-07-31T12:54:05.158Z</time>
      </trkpt>
      <trkpt lat="42.98603333" lon="-1.14505">
        <ele>864.0</ele>
        <time>2019-07-31T12:54:06.163Z</time>
      </trkpt>
      <trkpt lat="42.986035" lon="-1.14506833">
        <ele>863.0</ele>
        <time>2019-07-31T12:54:07.169Z</time>
      </trkpt>
      <trkpt lat="42.98603167" lon="-1.14508667">
        <ele>862.0</ele>
        <time>2019-07-31T12:54:08.173Z</time>
      </trkpt>
      <trkpt lat="42.986035" lon="-1.14510833">
        <ele>861.0</ele>
        <time>2019-07-31T12:54:09.178Z</time>
      </trkpt>
      <trkpt lat="42.98603667" lon="-1.14513">
        <ele>862.0</ele>
        <time>2019-07-31T12:54:10.182Z</time>
      </trkpt>
      <trkpt lat="42.98604167" lon="-1.14514667">
        <ele>863.0</ele>
        <time>2019-07-31T12:54:11.061Z</time>
      </trkpt>
      <trkpt lat="42.98605" lon="-1.14516333">
        <ele>863.0</ele>
        <time>2019-07-31T12:54:12.065Z</time>
      </trkpt>
      <trkpt lat="42.98606833" lon="-1.145175">
        <ele>864.0</ele>
        <time>2019-07-31T12:54:13.069Z</time>
      </trkpt>
      <trkpt lat="42.98608167" lon="-1.14519167">
        <ele>865.0</ele>
        <time>2019-07-31T12:54:14.076Z</time>
      </trkpt>
      <trkpt lat="42.986095" lon="-1.14520333">
        <ele>866.0</ele>
        <time>2019-07-31T12:54:15.080Z</time>
      </trkpt>
      <trkpt lat="42.98611" lon="-1.14521167">
        <ele>867.0</ele>
        <time>2019-07-31T12:54:16.085Z</time>
      </trkpt>
      <trkpt lat="42.98612333" lon="-1.14522167">
        <ele>868.0</ele>
        <time>2019-07-31T12:54:17.088Z</time>
      </trkpt>
      <trkpt lat="42.98613833" lon="-1.14522667">
        <ele>869.0</ele>
        <time>2019-07-31T12:54:18.092Z</time>
      </trkpt>
      <trkpt lat="42.98615" lon="-1.145235">
        <ele>870.0</ele>
        <time>2019-07-31T12:54:19.098Z</time>
      </trkpt>
      <trkpt lat="42.98615667" lon="-1.14524667">
        <ele>871.0</ele>
        <time>2019-07-31T12:54:20.102Z</time>
      </trkpt>
      <trkpt lat="42.98616167" lon="-1.145255">
        <ele>872.0</ele>
        <time>2019-07-31T12:54:21.108Z</time>
      </trkpt>
      <trkpt lat="42.98616167" lon="-1.14525833">
        <ele>872.0</ele>
        <time>2019-07-31T12:54:22.116Z</time>
      </trkpt>
      <trkpt lat="42.98616" lon="-1.145265">
        <ele>872.0</ele>
        <time>2019-07-31T12:54:23.122Z</time>
      </trkpt>
      <trkpt lat="42.98616" lon="-1.14527333">
        <ele>871.0</ele>
        <time>2019-07-31T12:54:24.128Z</time>
      </trkpt>
      <trkpt lat="42.98617167" lon="-1.14528">
        <ele>872.0</ele>
        <time>2019-07-31T12:54:25.132Z</time>
      </trkpt>
      <trkpt lat="42.98618167" lon="-1.14529">
        <ele>873.0</ele>
        <time>2019-07-31T12:54:26.137Z</time>
      </trkpt>
      <trkpt lat="42.98619" lon="-1.14530167">
        <ele>873.0</ele>
        <time>2019-07-31T12:54:27.144Z</time>
      </trkpt>
      <trkpt lat="42.9862" lon="-1.14531">
        <ele>874.0</ele>
        <time>2019-07-31T12:54:28.151Z</time>
      </trkpt>
      <trkpt lat="42.98621" lon="-1.14532">
        <ele>875.0</ele>
        <time>2019-07-31T12:54:29.156Z</time>
      </trkpt>
      <trkpt lat="42.986225" lon="-1.14533167">
        <ele>876.0</ele>
        <time>2019-07-31T12:54:30.162Z</time>
      </trkpt>
      <trkpt lat="42.98623833" lon="-1.14533833">
        <ele>876.0</ele>
        <time>2019-07-31T12:54:31.170Z</time>
      </trkpt>
      <trkpt lat="42.98625" lon="-1.14533833">
        <ele>878.0</ele>
        <time>2019-07-31T12:54:32.175Z</time>
      </trkpt>
      <trkpt lat="42.98626167" lon="-1.14534167">
        <ele>879.0</ele>
        <time>2019-07-31T12:54:33.181Z</time>
      </trkpt>
      <trkpt lat="42.986275" lon="-1.14534667">
        <ele>879.0</ele>
        <time>2019-07-31T12:54:34.061Z</time>
      </trkpt>
      <trkpt lat="42.98628667" lon="-1.14534167">
        <ele>879.0</ele>
        <time>2019-07-31T12:54:35.068Z</time>
      </trkpt>
      <trkpt lat="42.98630333" lon="-1.14534">
        <ele>880.0</ele>
        <time>2019-07-31T12:54:36.073Z</time>
      </trkpt>
      <trkpt lat="42.98632167" lon="-1.14533667">
        <ele>880.0</ele>
        <time>2019-07-31T12:54:37.078Z</time>
      </trkpt>
      <trkpt lat="42.986335" lon="-1.14533167">
        <ele>881.0</ele>
        <time>2019-07-31T12:54:38.082Z</time>
      </trkpt>
      <trkpt lat="42.98634833" lon="-1.14533167">
        <ele>881.0</ele>
        <time>2019-07-31T12:54:39.087Z</time>
      </trkpt>
      <trkpt lat="42.98636667" lon="-1.145325">
        <ele>881.0</ele>
        <time>2019-07-31T12:54:40.092Z</time>
      </trkpt>
      <trkpt lat="42.98638" lon="-1.14532167">
        <ele>882.0</ele>
        <time>2019-07-31T12:54:41.097Z</time>
      </trkpt>
      <trkpt lat="42.98639333" lon="-1.14532333">
        <ele>882.0</ele>
        <time>2019-07-31T12:54:42.102Z</time>
      </trkpt>
      <trkpt lat="42.98640667" lon="-1.14532833">
        <ele>882.0</ele>
        <time>2019-07-31T12:54:43.108Z</time>
      </trkpt>
      <trkpt lat="42.98642167" lon="-1.14532667">
        <ele>881.0</ele>
        <time>2019-07-31T12:54:44.114Z</time>
      </trkpt>
      <trkpt lat="42.986435" lon="-1.14532667">
        <ele>882.0</ele>
        <time>2019-07-31T12:54:45.120Z</time>
      </trkpt>
      <trkpt lat="42.98644833" lon="-1.14533">
        <ele>881.0</ele>
        <time>2019-07-31T12:54:46.127Z</time>
      </trkpt>
      <trkpt lat="42.98645833" lon="-1.14532667">
        <ele>881.0</ele>
        <time>2019-07-31T12:54:47.132Z</time>
      </trkpt>
      <trkpt lat="42.98647167" lon="-1.145325">
        <ele>881.0</ele>
        <time>2019-07-31T12:54:48.137Z</time>
      </trkpt>
      <trkpt lat="42.98648833" lon="-1.145325">
        <ele>882.0</ele>
        <time>2019-07-31T12:54:49.143Z</time>
      </trkpt>
      <trkpt lat="42.98650333" lon="-1.14532667">
        <ele>882.0</ele>
        <time>2019-07-31T12:54:50.149Z</time>
      </trkpt>
      <trkpt lat="42.986515" lon="-1.145325">
        <ele>882.0</ele>
        <time>2019-07-31T12:54:51.155Z</time>
      </trkpt>
      <trkpt lat="42.98652833" lon="-1.14532833">
        <ele>882.0</ele>
        <time>2019-07-31T12:54:52.161Z</time>
      </trkpt>
      <trkpt lat="42.98654333" lon="-1.14532667">
        <ele>882.0</ele>
        <time>2019-07-31T12:54:53.168Z</time>
      </trkpt>
      <trkpt lat="42.98655833" lon="-1.14532333">
        <ele>882.0</ele>
        <time>2019-07-31T12:54:54.174Z</time>
      </trkpt>
      <trkpt lat="42.98657167" lon="-1.14532167">
        <ele>882.0</ele>
        <time>2019-07-31T12:54:55.178Z</time>
      </trkpt>
      <trkpt lat="42.98658667" lon="-1.14532333">
        <ele>882.0</ele>
        <time>2019-07-31T12:54:56.184Z</time>
      </trkpt>
      <trkpt lat="42.98660333" lon="-1.145325">
        <ele>882.0</ele>
        <time>2019-07-31T12:54:57.064Z</time>
      </trkpt>
      <trkpt lat="42.98662167" lon="-1.145325">
        <ele>881.0</ele>
        <time>2019-07-31T12:54:58.069Z</time>
      </trkpt>
      <trkpt lat="42.98663833" lon="-1.14532333">
        <ele>880.0</ele>
        <time>2019-07-31T12:54:59.074Z</time>
      </trkpt>
      <trkpt lat="42.986655" lon="-1.14531667">
        <ele>879.0</ele>
        <time>2019-07-31T12:55:00.080Z</time>
      </trkpt>
      <trkpt lat="42.98667333" lon="-1.14530833">
        <ele>878.0</ele>
        <time>2019-07-31T12:55:01.084Z</time>
      </trkpt>
      <trkpt lat="42.98668833" lon="-1.14530333">
        <ele>878.0</ele>
        <time>2019-07-31T12:55:02.089Z</time>
      </trkpt>
      <trkpt lat="42.986705" lon="-1.14529">
        <ele>877.0</ele>
        <time>2019-07-31T12:55:03.092Z</time>
      </trkpt>
      <trkpt lat="42.98672333" lon="-1.145275">
        <ele>876.0</ele>
        <time>2019-07-31T12:55:04.099Z</time>
      </trkpt>
      <trkpt lat="42.98674" lon="-1.14526667">
        <ele>874.0</ele>
        <time>2019-07-31T12:55:05.104Z</time>
      </trkpt>
      <trkpt lat="42.98675333" lon="-1.14525833">
        <ele>873.0</ele>
        <time>2019-07-31T12:55:06.109Z</time>
      </trkpt>
      <trkpt lat="42.98677" lon="-1.14525">
        <ele>871.0</ele>
        <time>2019-07-31T12:55:07.114Z</time>
      </trkpt>
      <trkpt lat="42.98678833" lon="-1.145235">
        <ele>869.0</ele>
        <time>2019-07-31T12:55:08.119Z</time>
      </trkpt>
      <trkpt lat="42.98680667" lon="-1.14521833">
        <ele>868.0</ele>
        <time>2019-07-31T12:55:09.123Z</time>
      </trkpt>
      <trkpt lat="42.98682167" lon="-1.14520333">
        <ele>867.0</ele>
        <time>2019-07-31T12:55:10.129Z</time>
      </trkpt>
      <trkpt lat="42.98683667" lon="-1.145195">
        <ele>866.0</ele>
        <time>2019-07-31T12:55:11.133Z</time>
      </trkpt>
      <trkpt lat="42.98685833" lon="-1.14519167">
        <ele>866.0</ele>
        <time>2019-07-31T12:55:12.138Z</time>
      </trkpt>
      <trkpt lat="42.986875" lon="-1.145185">
        <ele>865.0</ele>
        <time>2019-07-31T12:55:13.143Z</time>
      </trkpt>
      <trkpt lat="42.98689333" lon="-1.14517333">
        <ele>863.0</ele>
        <time>2019-07-31T12:55:14.149Z</time>
      </trkpt>
      <trkpt lat="42.98691167" lon="-1.14516">
        <ele>862.0</ele>
        <time>2019-07-31T12:55:15.156Z</time>
      </trkpt>
      <trkpt lat="42.98693167" lon="-1.145145">
        <ele>860.0</ele>
        <time>2019-07-31T12:55:16.163Z</time>
      </trkpt>
      <trkpt lat="42.98694833" lon="-1.14513667">
        <ele>858.0</ele>
        <time>2019-07-31T12:55:17.168Z</time>
      </trkpt>
      <trkpt lat="42.98696167" lon="-1.14513">
        <ele>856.0</ele>
        <time>2019-07-31T12:55:18.174Z</time>
      </trkpt>
      <trkpt lat="42.98697833" lon="-1.14511667">
        <ele>855.0</ele>
        <time>2019-07-31T12:55:19.178Z</time>
      </trkpt>
      <trkpt lat="42.986995" lon="-1.14510333">
        <ele>852.0</ele>
        <time>2019-07-31T12:55:20.182Z</time>
      </trkpt>
      <trkpt lat="42.98701333" lon="-1.14509333">
        <ele>850.0</ele>
        <time>2019-07-31T12:55:21.061Z</time>
      </trkpt>
      <trkpt lat="42.98702833" lon="-1.14508333">
        <ele>848.0</ele>
        <time>2019-07-31T12:55:22.067Z</time>
      </trkpt>
      <trkpt lat="42.98704333" lon="-1.14507167">
        <ele>848.0</ele>
        <time>2019-07-31T12:55:23.069Z</time>
      </trkpt>
      <trkpt lat="42.98705167" lon="-1.14506667">
        <ele>847.0</ele>
        <time>2019-07-31T12:55:24.074Z</time>
      </trkpt>
      <trkpt lat="42.98706" lon="-1.14505833">
        <ele>847.0</ele>
        <time>2019-07-31T12:55:25.080Z</time>
      </trkpt>
      <trkpt lat="42.98707167" lon="-1.14505">
        <ele>846.0</ele>
        <time>2019-07-31T12:55:26.083Z</time>
      </trkpt>
      <trkpt lat="42.98708833" lon="-1.14503833">
        <ele>845.0</ele>
        <time>2019-07-31T12:55:27.088Z</time>
      </trkpt>
      <trkpt lat="42.98710667" lon="-1.14502833">
        <ele>843.0</ele>
        <time>2019-07-31T12:55:28.094Z</time>
      </trkpt>
      <trkpt lat="42.987125" lon="-1.14501833">
        <ele>842.0</ele>
        <time>2019-07-31T12:55:29.099Z</time>
      </trkpt>
      <trkpt lat="42.987145" lon="-1.14501">
        <ele>841.0</ele>
        <time>2019-07-31T12:55:30.102Z</time>
      </trkpt>
      <trkpt lat="42.98716333" lon="-1.14500833">
        <ele>840.0</ele>
        <time>2019-07-31T12:55:31.107Z</time>
      </trkpt>
      <trkpt lat="42.98718167" lon="-1.14500333">
        <ele>839.0</ele>
        <time>2019-07-31T12:55:32.112Z</time>
      </trkpt>
      <trkpt lat="42.98720333" lon="-1.145">
        <ele>839.0</ele>
        <time>2019-07-31T12:55:33.117Z</time>
      </trkpt>
      <trkpt lat="42.98722333" lon="-1.14499667">
        <ele>838.0</ele>
        <time>2019-07-31T12:55:34.122Z</time>
      </trkpt>
      <trkpt lat="42.98724833" lon="-1.14498833">
        <ele>837.0</ele>
        <time>2019-07-31T12:55:35.128Z</time>
      </trkpt>
      <trkpt lat="42.98727" lon="-1.144985">
        <ele>836.0</ele>
        <time>2019-07-31T12:55:36.132Z</time>
      </trkpt>
      <trkpt lat="42.98728833" lon="-1.144975">
        <ele>834.0</ele>
        <time>2019-07-31T12:55:37.138Z</time>
      </trkpt>
      <trkpt lat="42.98730667" lon="-1.14496833">
        <ele>833.0</ele>
        <time>2019-07-31T12:55:38.144Z</time>
      </trkpt>
      <trkpt lat="42.98732667" lon="-1.14495833">
        <ele>832.0</ele>
        <time>2019-07-31T12:55:39.149Z</time>
      </trkpt>
      <trkpt lat="42.98734833" lon="-1.14494667">
        <ele>832.0</ele>
        <time>2019-07-31T12:55:40.154Z</time>
      </trkpt>
      <trkpt lat="42.98736667" lon="-1.14493333">
        <ele>832.0</ele>
        <time>2019-07-31T12:55:41.160Z</time>
      </trkpt>
      <trkpt lat="42.98738667" lon="-1.14492333">
        <ele>831.0</ele>
        <time>2019-07-31T12:55:42.165Z</time>
      </trkpt>
      <trkpt lat="42.98740333" lon="-1.14491333">
        <ele>831.0</ele>
        <time>2019-07-31T12:55:43.171Z</time>
      </trkpt>
      <trkpt lat="42.98742" lon="-1.14490333">
        <ele>831.0</ele>
        <time>2019-07-31T12:55:44.174Z</time>
      </trkpt>
      <trkpt lat="42.98744" lon="-1.14488667">
        <ele>831.0</ele>
        <time>2019-07-31T12:55:45.179Z</time>
      </trkpt>
      <trkpt lat="42.98746" lon="-1.14486833">
        <ele>831.0</ele>
        <time>2019-07-31T12:55:46.185Z</time>
      </trkpt>
      <trkpt lat="42.98747333" lon="-1.14485">
        <ele>830.0</ele>
        <time>2019-07-31T12:55:47.065Z</time>
      </trkpt>
      <trkpt lat="42.98749" lon="-1.14482667">
        <ele>829.0</ele>
        <time>2019-07-31T12:55:48.068Z</time>
      </trkpt>
      <trkpt lat="42.98750667" lon="-1.14480833">
        <ele>828.0</ele>
        <time>2019-07-31T12:55:49.072Z</time>
      </trkpt>
      <trkpt lat="42.98752333" lon="-1.14478667">
        <ele>828.0</ele>
        <time>2019-07-31T12:55:50.075Z</time>
      </trkpt>
      <trkpt lat="42.98753667" lon="-1.14477">
        <ele>828.0</ele>
        <time>2019-07-31T12:55:51.076Z</time>
      </trkpt>
      <trkpt lat="42.98754667" lon="-1.144755">
        <ele>827.0</ele>
        <time>2019-07-31T12:55:52.079Z</time>
      </trkpt>
      <trkpt lat="42.987555" lon="-1.144735">
        <ele>827.0</ele>
        <time>2019-07-31T12:55:53.085Z</time>
      </trkpt>
      <trkpt lat="42.987565" lon="-1.14472">
        <ele>827.0</ele>
        <time>2019-07-31T12:55:54.090Z</time>
      </trkpt>
      <trkpt lat="42.98757833" lon="-1.1447">
        <ele>827.0</ele>
        <time>2019-07-31T12:55:55.093Z</time>
      </trkpt>
      <trkpt lat="42.987585" lon="-1.14467833">
        <ele>827.0</ele>
        <time>2019-07-31T12:55:56.099Z</time>
      </trkpt>
      <trkpt lat="42.98759833" lon="-1.14465667">
        <ele>827.0</ele>
        <time>2019-07-31T12:55:57.105Z</time>
      </trkpt>
      <trkpt lat="42.98760667" lon="-1.144635">
        <ele>827.0</ele>
        <time>2019-07-31T12:55:58.110Z</time>
      </trkpt>
      <trkpt lat="42.987615" lon="-1.14461167">
        <ele>826.0</ele>
        <time>2019-07-31T12:55:59.117Z</time>
      </trkpt>
      <trkpt lat="42.98762333" lon="-1.14458667">
        <ele>826.0</ele>
        <time>2019-07-31T12:56:00.122Z</time>
      </trkpt>
      <trkpt lat="42.98763667" lon="-1.14456833">
        <ele>826.0</ele>
        <time>2019-07-31T12:56:01.127Z</time>
      </trkpt>
      <trkpt lat="42.98764667" lon="-1.144545">
        <ele>825.0</ele>
        <time>2019-07-31T12:56:02.133Z</time>
      </trkpt>
      <trkpt lat="42.98765167" lon="-1.14452333">
        <ele>825.0</ele>
        <time>2019-07-31T12:56:03.140Z</time>
      </trkpt>
      <trkpt lat="42.98766" lon="-1.14450833">
        <ele>825.0</ele>
        <time>2019-07-31T12:56:04.146Z</time>
      </trkpt>
      <trkpt lat="42.98767167" lon="-1.144495">
        <ele>825.0</ele>
        <time>2019-07-31T12:56:05.152Z</time>
      </trkpt>
      <trkpt lat="42.98768167" lon="-1.144485">
        <ele>824.0</ele>
        <time>2019-07-31T12:56:06.159Z</time>
      </trkpt>
      <trkpt lat="42.987695" lon="-1.14447167">
        <ele>824.0</ele>
        <time>2019-07-31T12:56:07.165Z</time>
      </trkpt>
      <trkpt lat="42.98770833" lon="-1.14446">
        <ele>824.0</ele>
        <time>2019-07-31T12:56:08.170Z</time>
      </trkpt>
      <trkpt lat="42.98771833" lon="-1.14444667">
        <ele>823.0</ele>
        <time>2019-07-31T12:56:09.176Z</time>
      </trkpt>
      <trkpt lat="42.98772833" lon="-1.14443333">
        <ele>823.0</ele>
        <time>2019-07-31T12:56:10.181Z</time>
      </trkpt>
      <trkpt lat="42.98773667" lon="-1.144415">
        <ele>823.0</ele>
        <time>2019-07-31T12:56:11.061Z</time>
      </trkpt>
      <trkpt lat="42.987745" lon="-1.14440333">
        <ele>823.0</ele>
        <time>2019-07-31T12:56:12.065Z</time>
      </trkpt>
      <trkpt lat="42.98775" lon="-1.144395">
        <ele>822.0</ele>
        <time>2019-07-31T12:56:13.072Z</time>
      </trkpt>
      <trkpt lat="42.98775833" lon="-1.14438667">
        <ele>822.0</ele>
        <time>2019-07-31T12:56:14.077Z</time>
      </trkpt>
      <trkpt lat="42.98776667" lon="-1.14438">
        <ele>822.0</ele>
        <time>2019-07-31T12:56:15.082Z</time>
      </trkpt>
      <trkpt lat="42.98777667" lon="-1.14437167">
        <ele>822.0</ele>
        <time>2019-07-31T12:56:16.088Z</time>
      </trkpt>
      <trkpt lat="42.987785" lon="-1.14436333">
        <ele>822.0</ele>
        <time>2019-07-31T12:56:17.090Z</time>
      </trkpt>
      <trkpt lat="42.987795" lon="-1.14435333">
        <ele>822.0</ele>
        <time>2019-07-31T12:56:18.093Z</time>
      </trkpt>
      <trkpt lat="42.98780167" lon="-1.14434167">
        <ele>821.0</ele>
        <time>2019-07-31T12:56:19.097Z</time>
      </trkpt>
      <trkpt lat="42.98781167" lon="-1.14433167">
        <ele>821.0</ele>
        <time>2019-07-31T12:56:20.104Z</time>
      </trkpt>
      <trkpt lat="42.98782167" lon="-1.14431667">
        <ele>821.0</ele>
        <time>2019-07-31T12:56:21.108Z</time>
      </trkpt>
      <trkpt lat="42.98783" lon="-1.14430167">
        <ele>822.0</ele>
        <time>2019-07-31T12:56:22.111Z</time>
      </trkpt>
      <trkpt lat="42.98783833" lon="-1.14428333">
        <ele>822.0</ele>
        <time>2019-07-31T12:56:23.114Z</time>
      </trkpt>
      <trkpt lat="42.98784833" lon="-1.14426833">
        <ele>822.0</ele>
        <time>2019-07-31T12:56:24.119Z</time>
      </trkpt>
      <trkpt lat="42.987855" lon="-1.144255">
        <ele>822.0</ele>
        <time>2019-07-31T12:56:25.125Z</time>
      </trkpt>
      <trkpt lat="42.98786333" lon="-1.14424">
        <ele>822.0</ele>
        <time>2019-07-31T12:56:26.131Z</time>
      </trkpt>
      <trkpt lat="42.98786833" lon="-1.14422333">
        <ele>823.0</ele>
        <time>2019-07-31T12:56:27.135Z</time>
      </trkpt>
      <trkpt lat="42.98787167" lon="-1.14420833">
        <ele>823.0</ele>
        <time>2019-07-31T12:56:28.138Z</time>
      </trkpt>
      <trkpt lat="42.98787833" lon="-1.14419167">
        <ele>823.0</ele>
        <time>2019-07-31T12:56:29.144Z</time>
      </trkpt>
      <trkpt lat="42.98788833" lon="-1.144175">
        <ele>824.0</ele>
        <time>2019-07-31T12:56:30.148Z</time>
      </trkpt>
      <trkpt lat="42.98789667" lon="-1.144155">
        <ele>824.0</ele>
        <time>2019-07-31T12:56:31.154Z</time>
      </trkpt>
      <trkpt lat="42.98790333" lon="-1.144135">
        <ele>825.0</ele>
        <time>2019-07-31T12:56:32.160Z</time>
      </trkpt>
      <trkpt lat="42.98791" lon="-1.14411167">
        <ele>826.0</ele>
        <time>2019-07-31T12:56:33.166Z</time>
      </trkpt>
      <trkpt lat="42.98791833" lon="-1.14409">
        <ele>826.0</ele>
        <time>2019-07-31T12:56:34.173Z</time>
      </trkpt>
      <trkpt lat="42.987925" lon="-1.14406833">
        <ele>826.0</ele>
        <time>2019-07-31T12:56:35.178Z</time>
      </trkpt>
      <trkpt lat="42.98793" lon="-1.14404667">
        <ele>826.0</ele>
        <time>2019-07-31T12:56:36.183Z</time>
      </trkpt>
      <trkpt lat="42.98793667" lon="-1.14402333">
        <ele>827.0</ele>
        <time>2019-07-31T12:56:37.063Z</time>
      </trkpt>
      <trkpt lat="42.98794167" lon="-1.14400167">
        <ele>827.0</ele>
        <time>2019-07-31T12:56:38.069Z</time>
      </trkpt>
      <trkpt lat="42.98794667" lon="-1.14398167">
        <ele>827.0</ele>
        <time>2019-07-31T12:56:39.075Z</time>
      </trkpt>
      <trkpt lat="42.98795333" lon="-1.14396">
        <ele>827.0</ele>
        <time>2019-07-31T12:56:40.080Z</time>
      </trkpt>
      <trkpt lat="42.98795833" lon="-1.14394">
        <ele>826.0</ele>
        <time>2019-07-31T12:56:41.085Z</time>
      </trkpt>
      <trkpt lat="42.98795833" lon="-1.14391833">
        <ele>825.0</ele>
        <time>2019-07-31T12:56:42.088Z</time>
      </trkpt>
      <trkpt lat="42.98795833" lon="-1.14389167">
        <ele>824.0</ele>
        <time>2019-07-31T12:56:43.090Z</time>
      </trkpt>
      <trkpt lat="42.98796167" lon="-1.14387">
        <ele>824.0</ele>
        <time>2019-07-31T12:56:44.093Z</time>
      </trkpt>
      <trkpt lat="42.98796833" lon="-1.14385">
        <ele>823.0</ele>
        <time>2019-07-31T12:56:45.099Z</time>
      </trkpt>
      <trkpt lat="42.98797833" lon="-1.14384">
        <ele>824.0</ele>
        <time>2019-07-31T12:56:46.102Z</time>
      </trkpt>
      <trkpt lat="42.98798833" lon="-1.143835">
        <ele>825.0</ele>
        <time>2019-07-31T12:56:47.105Z</time>
      </trkpt>
      <trkpt lat="42.98799833" lon="-1.14383667">
        <ele>825.0</ele>
        <time>2019-07-31T12:56:48.110Z</time>
      </trkpt>
      <trkpt lat="42.98801167" lon="-1.143835">
        <ele>824.0</ele>
        <time>2019-07-31T12:56:49.115Z</time>
      </trkpt>
      <trkpt lat="42.988025" lon="-1.14383833">
        <ele>824.0</ele>
        <time>2019-07-31T12:56:50.120Z</time>
      </trkpt>
      <trkpt lat="42.98804" lon="-1.14383833">
        <ele>824.0</ele>
        <time>2019-07-31T12:56:51.125Z</time>
      </trkpt>
      <trkpt lat="42.98805167" lon="-1.14383833">
        <ele>824.0</ele>
        <time>2019-07-31T12:56:52.128Z</time>
      </trkpt>
      <trkpt lat="42.98806333" lon="-1.143835">
        <ele>825.0</ele>
        <time>2019-07-31T12:56:53.132Z</time>
      </trkpt>
      <trkpt lat="42.98807333" lon="-1.14382833">
        <ele>825.0</ele>
        <time>2019-07-31T12:56:54.138Z</time>
      </trkpt>
      <trkpt lat="42.98808167" lon="-1.14382">
        <ele>826.0</ele>
        <time>2019-07-31T12:56:55.144Z</time>
      </trkpt>
      <trkpt lat="42.988085" lon="-1.14381">
        <ele>826.0</ele>
        <time>2019-07-31T12:56:56.148Z</time>
      </trkpt>
      <trkpt lat="42.98808833" lon="-1.14379833">
        <ele>826.0</ele>
        <time>2019-07-31T12:56:57.151Z</time>
      </trkpt>
      <trkpt lat="42.98809333" lon="-1.143785">
        <ele>826.0</ele>
        <time>2019-07-31T12:56:58.155Z</time>
      </trkpt>
      <trkpt lat="42.9881" lon="-1.14377">
        <ele>826.0</ele>
        <time>2019-07-31T12:56:59.161Z</time>
      </trkpt>
      <trkpt lat="42.98810333" lon="-1.14375833">
        <ele>826.0</ele>
        <time>2019-07-31T12:57:00.165Z</time>
      </trkpt>
      <trkpt lat="42.98811333" lon="-1.14374167">
        <ele>826.0</ele>
        <time>2019-07-31T12:57:01.171Z</time>
      </trkpt>
      <trkpt lat="42.98812167" lon="-1.14372667">
        <ele>827.0</ele>
        <time>2019-07-31T12:57:02.176Z</time>
      </trkpt>
      <trkpt lat="42.98812667" lon="-1.14371167">
        <ele>827.0</ele>
        <time>2019-07-31T12:57:03.183Z</time>
      </trkpt>
      <trkpt lat="42.98813333" lon="-1.14370167">
        <ele>827.0</ele>
        <time>2019-07-31T12:57:04.064Z</time>
      </trkpt>
      <trkpt lat="42.98814333" lon="-1.14368667">
        <ele>827.0</ele>
        <time>2019-07-31T12:57:05.070Z</time>
      </trkpt>
      <trkpt lat="42.98814833" lon="-1.143675">
        <ele>827.0</ele>
        <time>2019-07-31T12:57:06.076Z</time>
      </trkpt>
      <trkpt lat="42.98815167" lon="-1.14366">
        <ele>827.0</ele>
        <time>2019-07-31T12:57:07.083Z</time>
      </trkpt>
      <trkpt lat="42.98815667" lon="-1.14364">
        <ele>827.0</ele>
        <time>2019-07-31T12:57:08.088Z</time>
      </trkpt>
      <trkpt lat="42.98815667" lon="-1.14362167">
        <ele>827.0</ele>
        <time>2019-07-31T12:57:09.092Z</time>
      </trkpt>
      <trkpt lat="42.98816" lon="-1.14360833">
        <ele>827.0</ele>
        <time>2019-07-31T12:57:10.097Z</time>
      </trkpt>
      <trkpt lat="42.988165" lon="-1.14359167">
        <ele>827.0</ele>
        <time>2019-07-31T12:57:11.103Z</time>
      </trkpt>
      <trkpt lat="42.98817167" lon="-1.14357667">
        <ele>828.0</ele>
        <time>2019-07-31T12:57:12.110Z</time>
      </trkpt>
      <trkpt lat="42.98817833" lon="-1.14355833">
        <ele>828.0</ele>
        <time>2019-07-31T12:57:13.116Z</time>
      </trkpt>
      <trkpt lat="42.98818333" lon="-1.143545">
        <ele>829.0</ele>
        <time>2019-07-31T12:57:14.120Z</time>
      </trkpt>
      <trkpt lat="42.988185" lon="-1.14352833">
        <ele>829.0</ele>
        <time>2019-07-31T12:57:15.125Z</time>
      </trkpt>
      <trkpt lat="42.988185" lon="-1.14351333">
        <ele>829.0</ele>
        <time>2019-07-31T12:57:16.132Z</time>
      </trkpt>
      <trkpt lat="42.98818333" lon="-1.14349833">
        <ele>829.0</ele>
        <time>2019-07-31T12:57:17.134Z</time>
      </trkpt>
      <trkpt lat="42.98819" lon="-1.14348667">
        <ele>829.0</ele>
        <time>2019-07-31T12:57:18.139Z</time>
      </trkpt>
      <trkpt lat="42.98819667" lon="-1.14347">
        <ele>830.0</ele>
        <time>2019-07-31T12:57:19.144Z</time>
      </trkpt>
      <trkpt lat="42.98820333" lon="-1.14345167">
        <ele>830.0</ele>
        <time>2019-07-31T12:57:20.150Z</time>
      </trkpt>
      <trkpt lat="42.98820333" lon="-1.14343333">
        <ele>830.0</ele>
        <time>2019-07-31T12:57:21.152Z</time>
      </trkpt>
      <trkpt lat="42.98819667" lon="-1.14341667">
        <ele>831.0</ele>
        <time>2019-07-31T12:57:22.155Z</time>
      </trkpt>
      <trkpt lat="42.98819" lon="-1.14340167">
        <ele>831.0</ele>
        <time>2019-07-31T12:57:23.160Z</time>
      </trkpt>
      <trkpt lat="42.98818167" lon="-1.143385">
        <ele>832.0</ele>
        <time>2019-07-31T12:57:24.164Z</time>
      </trkpt>
      <trkpt lat="42.98817667" lon="-1.14336833">
        <ele>832.0</ele>
        <time>2019-07-31T12:57:25.170Z</time>
      </trkpt>
      <trkpt lat="42.98817333" lon="-1.14335">
        <ele>832.0</ele>
        <time>2019-07-31T12:57:26.174Z</time>
      </trkpt>
      <trkpt lat="42.98816667" lon="-1.14333667">
        <ele>832.0</ele>
        <time>2019-07-31T12:57:27.181Z</time>
      </trkpt>
      <trkpt lat="42.988165" lon="-1.14332167">
        <ele>832.0</ele>
        <time>2019-07-31T12:57:28.186Z</time>
      </trkpt>
      <trkpt lat="42.988165" lon="-1.14330167">
        <ele>833.0</ele>
        <time>2019-07-31T12:57:29.064Z</time>
      </trkpt>
      <trkpt lat="42.98816333" lon="-1.14328333">
        <ele>833.0</ele>
        <time>2019-07-31T12:57:30.067Z</time>
      </trkpt>
      <trkpt lat="42.98816" lon="-1.143265">
        <ele>833.0</ele>
        <time>2019-07-31T12:57:31.072Z</time>
      </trkpt>
      <trkpt lat="42.98815833" lon="-1.14324667">
        <ele>833.0</ele>
        <time>2019-07-31T12:57:32.078Z</time>
      </trkpt>
      <trkpt lat="42.988155" lon="-1.14322667">
        <ele>833.0</ele>
        <time>2019-07-31T12:57:33.084Z</time>
      </trkpt>
      <trkpt lat="42.98815" lon="-1.14320833">
        <ele>833.0</ele>
        <time>2019-07-31T12:57:34.091Z</time>
      </trkpt>
      <trkpt lat="42.98814333" lon="-1.143195">
        <ele>832.0</ele>
        <time>2019-07-31T12:57:35.096Z</time>
      </trkpt>
      <trkpt lat="42.98814167" lon="-1.14318167">
        <ele>832.0</ele>
        <time>2019-07-31T12:57:36.101Z</time>
      </trkpt>
      <trkpt lat="42.98814" lon="-1.14317">
        <ele>832.0</ele>
        <time>2019-07-31T12:57:37.108Z</time>
      </trkpt>
      <trkpt lat="42.98814167" lon="-1.14314667">
        <ele>832.0</ele>
        <time>2019-07-31T12:57:38.115Z</time>
      </trkpt>
      <trkpt lat="42.98814" lon="-1.14313">
        <ele>831.0</ele>
        <time>2019-07-31T12:57:39.120Z</time>
      </trkpt>
      <trkpt lat="42.988135" lon="-1.14311">
        <ele>832.0</ele>
        <time>2019-07-31T12:57:40.125Z</time>
      </trkpt>
      <trkpt lat="42.98813333" lon="-1.14308833">
        <ele>832.0</ele>
        <time>2019-07-31T12:57:41.131Z</time>
      </trkpt>
      <trkpt lat="42.98812667" lon="-1.14306333">
        <ele>833.0</ele>
        <time>2019-07-31T12:57:42.136Z</time>
      </trkpt>
      <trkpt lat="42.98811167" lon="-1.14304833">
        <ele>832.0</ele>
        <time>2019-07-31T12:57:43.144Z</time>
      </trkpt>
      <trkpt lat="42.988105" lon="-1.143025">
        <ele>834.0</ele>
        <time>2019-07-31T12:57:44.150Z</time>
      </trkpt>
      <trkpt lat="42.98810833" lon="-1.14300667">
        <ele>834.0</ele>
        <time>2019-07-31T12:57:45.155Z</time>
      </trkpt>
      <trkpt lat="42.98811" lon="-1.142985">
        <ele>834.0</ele>
        <time>2019-07-31T12:57:46.159Z</time>
      </trkpt>
      <trkpt lat="42.98811167" lon="-1.14295833">
        <ele>834.0</ele>
        <time>2019-07-31T12:57:47.164Z</time>
      </trkpt>
      <trkpt lat="42.98810333" lon="-1.14294">
        <ele>833.0</ele>
        <time>2019-07-31T12:57:48.169Z</time>
      </trkpt>
      <trkpt lat="42.98808833" lon="-1.14291833">
        <ele>833.0</ele>
        <time>2019-07-31T12:57:49.174Z</time>
      </trkpt>
      <trkpt lat="42.98806667" lon="-1.14289667">
        <ele>833.0</ele>
        <time>2019-07-31T12:57:50.179Z</time>
      </trkpt>
      <trkpt lat="42.98806" lon="-1.14287667">
        <ele>833.0</ele>
        <time>2019-07-31T12:57:51.183Z</time>
      </trkpt>
      <trkpt lat="42.98806667" lon="-1.14285833">
        <ele>836.0</ele>
        <time>2019-07-31T12:57:52.062Z</time>
      </trkpt>
      <trkpt lat="42.98807833" lon="-1.14283833">
        <ele>838.0</ele>
        <time>2019-07-31T12:57:53.065Z</time>
      </trkpt>
      <trkpt lat="42.98808667" lon="-1.142825">
        <ele>837.0</ele>
        <time>2019-07-31T12:57:54.070Z</time>
      </trkpt>
      <trkpt lat="42.98808333" lon="-1.14281">
        <ele>836.0</ele>
        <time>2019-07-31T12:57:55.074Z</time>
      </trkpt>
      <trkpt lat="42.98809167" lon="-1.14279">
        <ele>837.0</ele>
        <time>2019-07-31T12:57:56.077Z</time>
      </trkpt>
      <trkpt lat="42.98809667" lon="-1.14277333">
        <ele>836.0</ele>
        <time>2019-07-31T12:57:57.079Z</time>
      </trkpt>
      <trkpt lat="42.98811333" lon="-1.14275167">
        <ele>838.0</ele>
        <time>2019-07-31T12:57:58.085Z</time>
      </trkpt>
      <trkpt lat="42.98812833" lon="-1.14273">
        <ele>839.0</ele>
        <time>2019-07-31T12:57:59.090Z</time>
      </trkpt>
      <trkpt lat="42.98813333" lon="-1.14271333">
        <ele>839.0</ele>
        <time>2019-07-31T12:58:00.094Z</time>
      </trkpt>
      <trkpt lat="42.98812333" lon="-1.1427">
        <ele>837.0</ele>
        <time>2019-07-31T12:58:01.098Z</time>
      </trkpt>
      <trkpt lat="42.988125" lon="-1.14268167">
        <ele>836.0</ele>
        <time>2019-07-31T12:58:02.102Z</time>
      </trkpt>
      <trkpt lat="42.98811833" lon="-1.142665">
        <ele>836.0</ele>
        <time>2019-07-31T12:58:03.109Z</time>
      </trkpt>
      <trkpt lat="42.98810333" lon="-1.14264167">
        <ele>836.0</ele>
        <time>2019-07-31T12:58:04.115Z</time>
      </trkpt>
      <trkpt lat="42.98809" lon="-1.14262">
        <ele>836.0</ele>
        <time>2019-07-31T12:58:05.121Z</time>
      </trkpt>
      <trkpt lat="42.98808833" lon="-1.14260333">
        <ele>836.0</ele>
        <time>2019-07-31T12:58:06.128Z</time>
      </trkpt>
      <trkpt lat="42.98808833" lon="-1.14258667">
        <ele>836.0</ele>
        <time>2019-07-31T12:58:07.132Z</time>
      </trkpt>
      <trkpt lat="42.98809" lon="-1.14256833">
        <ele>836.0</ele>
        <time>2019-07-31T12:58:08.137Z</time>
      </trkpt>
      <trkpt lat="42.98809167" lon="-1.14255333">
        <ele>837.0</ele>
        <time>2019-07-31T12:58:09.141Z</time>
      </trkpt>
      <trkpt lat="42.98809667" lon="-1.14254333">
        <ele>836.0</ele>
        <time>2019-07-31T12:58:10.146Z</time>
      </trkpt>
      <trkpt lat="42.988105" lon="-1.14253333">
        <ele>837.0</ele>
        <time>2019-07-31T12:58:11.153Z</time>
      </trkpt>
      <trkpt lat="42.98810833" lon="-1.14252167">
        <ele>837.0</ele>
        <time>2019-07-31T12:58:12.161Z</time>
      </trkpt>
      <trkpt lat="42.98811667" lon="-1.14251">
        <ele>838.0</ele>
        <time>2019-07-31T12:58:13.166Z</time>
      </trkpt>
      <trkpt lat="42.98812333" lon="-1.1425">
        <ele>838.0</ele>
        <time>2019-07-31T12:58:14.171Z</time>
      </trkpt>
      <trkpt lat="42.98813" lon="-1.14248333">
        <ele>838.0</ele>
        <time>2019-07-31T12:58:15.176Z</time>
      </trkpt>
      <trkpt lat="42.98813667" lon="-1.14246667">
        <ele>839.0</ele>
        <time>2019-07-31T12:58:16.182Z</time>
      </trkpt>
      <trkpt lat="42.98814" lon="-1.14245">
        <ele>839.0</ele>
        <time>2019-07-31T12:58:17.063Z</time>
      </trkpt>
      <trkpt lat="42.98814333" lon="-1.142435">
        <ele>839.0</ele>
        <time>2019-07-31T12:58:18.068Z</time>
      </trkpt>
      <trkpt lat="42.98814667" lon="-1.14241833">
        <ele>839.0</ele>
        <time>2019-07-31T12:58:19.074Z</time>
      </trkpt>
      <trkpt lat="42.98814833" lon="-1.14240333">
        <ele>839.0</ele>
        <time>2019-07-31T12:58:20.080Z</time>
      </trkpt>
      <trkpt lat="42.98814833" lon="-1.14239">
        <ele>838.0</ele>
        <time>2019-07-31T12:58:21.087Z</time>
      </trkpt>
      <trkpt lat="42.98814667" lon="-1.14237333">
        <ele>838.0</ele>
        <time>2019-07-31T12:58:22.089Z</time>
      </trkpt>
      <trkpt lat="42.98814667" lon="-1.14235833">
        <ele>838.0</ele>
        <time>2019-07-31T12:58:23.094Z</time>
      </trkpt>
      <trkpt lat="42.98814667" lon="-1.14234">
        <ele>839.0</ele>
        <time>2019-07-31T12:58:24.100Z</time>
      </trkpt>
      <trkpt lat="42.988145" lon="-1.14232333">
        <ele>839.0</ele>
        <time>2019-07-31T12:58:25.106Z</time>
      </trkpt>
      <trkpt lat="42.98814667" lon="-1.14230167">
        <ele>840.0</ele>
        <time>2019-07-31T12:58:26.112Z</time>
      </trkpt>
      <trkpt lat="42.98815" lon="-1.14227667">
        <ele>842.0</ele>
        <time>2019-07-31T12:58:27.118Z</time>
      </trkpt>
      <trkpt lat="42.98815667" lon="-1.14225667">
        <ele>842.0</ele>
        <time>2019-07-31T12:58:28.123Z</time>
      </trkpt>
      <trkpt lat="42.98816333" lon="-1.14223833">
        <ele>843.0</ele>
        <time>2019-07-31T12:58:29.128Z</time>
      </trkpt>
      <trkpt lat="42.988165" lon="-1.14222">
        <ele>842.0</ele>
        <time>2019-07-31T12:58:30.132Z</time>
      </trkpt>
      <trkpt lat="42.98816" lon="-1.1422">
        <ele>841.0</ele>
        <time>2019-07-31T12:58:31.137Z</time>
      </trkpt>
      <trkpt lat="42.98815667" lon="-1.14218167">
        <ele>840.0</ele>
        <time>2019-07-31T12:58:32.143Z</time>
      </trkpt>
      <trkpt lat="42.988155" lon="-1.14216">
        <ele>840.0</ele>
        <time>2019-07-31T12:58:33.150Z</time>
      </trkpt>
      <trkpt lat="42.98815167" lon="-1.14213333">
        <ele>841.0</ele>
        <time>2019-07-31T12:58:34.154Z</time>
      </trkpt>
      <trkpt lat="42.98815" lon="-1.14212">
        <ele>841.0</ele>
        <time>2019-07-31T12:58:35.160Z</time>
      </trkpt>
      <trkpt lat="42.988145" lon="-1.14210167">
        <ele>841.0</ele>
        <time>2019-07-31T12:58:36.165Z</time>
      </trkpt>
      <trkpt lat="42.98814333" lon="-1.14207833">
        <ele>842.0</ele>
        <time>2019-07-31T12:58:37.171Z</time>
      </trkpt>
      <trkpt lat="42.988145" lon="-1.14205167">
        <ele>843.0</ele>
        <time>2019-07-31T12:58:38.176Z</time>
      </trkpt>
      <trkpt lat="42.988145" lon="-1.14202833">
        <ele>844.0</ele>
        <time>2019-07-31T12:58:39.180Z</time>
      </trkpt>
      <trkpt lat="42.988145" lon="-1.14200667">
        <ele>844.0</ele>
        <time>2019-07-31T12:58:40.186Z</time>
      </trkpt>
      <trkpt lat="42.98814833" lon="-1.14198833">
        <ele>844.0</ele>
        <time>2019-07-31T12:58:41.065Z</time>
      </trkpt>
      <trkpt lat="42.98815" lon="-1.14196667">
        <ele>844.0</ele>
        <time>2019-07-31T12:58:42.070Z</time>
      </trkpt>
      <trkpt lat="42.988145" lon="-1.14194667">
        <ele>844.0</ele>
        <time>2019-07-31T12:58:43.077Z</time>
      </trkpt>
      <trkpt lat="42.988135" lon="-1.14192667">
        <ele>844.0</ele>
        <time>2019-07-31T12:58:44.084Z</time>
      </trkpt>
      <trkpt lat="42.98812333" lon="-1.141915">
        <ele>843.0</ele>
        <time>2019-07-31T12:58:45.089Z</time>
      </trkpt>
      <trkpt lat="42.988115" lon="-1.1419">
        <ele>842.0</ele>
        <time>2019-07-31T12:58:46.093Z</time>
      </trkpt>
      <trkpt lat="42.98811" lon="-1.141885">
        <ele>840.0</ele>
        <time>2019-07-31T12:58:47.101Z</time>
      </trkpt>
      <trkpt lat="42.988105" lon="-1.14186833">
        <ele>839.0</ele>
        <time>2019-07-31T12:58:48.106Z</time>
      </trkpt>
      <trkpt lat="42.98810833" lon="-1.14185167">
        <ele>838.0</ele>
        <time>2019-07-31T12:58:49.111Z</time>
      </trkpt>
      <trkpt lat="42.98811333" lon="-1.141835">
        <ele>838.0</ele>
        <time>2019-07-31T12:58:50.116Z</time>
      </trkpt>
      <trkpt lat="42.98811833" lon="-1.14182">
        <ele>838.0</ele>
        <time>2019-07-31T12:58:51.123Z</time>
      </trkpt>
      <trkpt lat="42.98812167" lon="-1.141815">
        <ele>836.0</ele>
        <time>2019-07-31T12:58:52.129Z</time>
      </trkpt>
      <trkpt lat="42.988135" lon="-1.14180333">
        <ele>836.0</ele>
        <time>2019-07-31T12:58:53.131Z</time>
      </trkpt>
      <trkpt lat="42.98814333" lon="-1.14178667">
        <ele>837.0</ele>
        <time>2019-07-31T12:58:54.136Z</time>
      </trkpt>
      <trkpt lat="42.98815833" lon="-1.141765">
        <ele>837.0</ele>
        <time>2019-07-31T12:58:55.142Z</time>
      </trkpt>
      <trkpt lat="42.988165" lon="-1.14175">
        <ele>837.0</ele>
        <time>2019-07-31T12:58:56.149Z</time>
      </trkpt>
      <trkpt lat="42.98817167" lon="-1.14173167">
        <ele>836.0</ele>
        <time>2019-07-31T12:58:57.155Z</time>
      </trkpt>
      <trkpt lat="42.98816833" lon="-1.14171333">
        <ele>836.0</ele>
        <time>2019-07-31T12:58:58.161Z</time>
      </trkpt>
      <trkpt lat="42.98816333" lon="-1.14169667">
        <ele>836.0</ele>
        <time>2019-07-31T12:58:59.166Z</time>
      </trkpt>
      <trkpt lat="42.98816" lon="-1.14167667">
        <ele>836.0</ele>
        <time>2019-07-31T12:59:00.171Z</time>
      </trkpt>
      <trkpt lat="42.98815333" lon="-1.14166">
        <ele>836.0</ele>
        <time>2019-07-31T12:59:01.177Z</time>
      </trkpt>
      <trkpt lat="42.98814333" lon="-1.14164167">
        <ele>837.0</ele>
        <time>2019-07-31T12:59:02.181Z</time>
      </trkpt>
      <trkpt lat="42.98813667" lon="-1.14162167">
        <ele>837.0</ele>
        <time>2019-07-31T12:59:03.061Z</time>
      </trkpt>
      <trkpt lat="42.98813" lon="-1.14160667">
        <ele>837.0</ele>
        <time>2019-07-31T12:59:04.064Z</time>
      </trkpt>
      <trkpt lat="42.98811833" lon="-1.14158833">
        <ele>836.0</ele>
        <time>2019-07-31T12:59:05.068Z</time>
      </trkpt>
      <trkpt lat="42.98811333" lon="-1.14157167">
        <ele>836.0</ele>
        <time>2019-07-31T12:59:06.078Z</time>
      </trkpt>
      <trkpt lat="42.988105" lon="-1.141555">
        <ele>836.0</ele>
        <time>2019-07-31T12:59:07.085Z</time>
      </trkpt>
      <trkpt lat="42.98809333" lon="-1.14154167">
        <ele>836.0</ele>
        <time>2019-07-31T12:59:08.091Z</time>
      </trkpt>
      <trkpt lat="42.98808167" lon="-1.141525">
        <ele>836.0</ele>
        <time>2019-07-31T12:59:09.095Z</time>
      </trkpt>
      <trkpt lat="42.98806833" lon="-1.14150667">
        <ele>837.0</ele>
        <time>2019-07-31T12:59:10.100Z</time>
      </trkpt>
      <trkpt lat="42.98805333" lon="-1.14148833">
        <ele>837.0</ele>
        <time>2019-07-31T12:59:11.106Z</time>
      </trkpt>
      <trkpt lat="42.988035" lon="-1.14146667">
        <ele>838.0</ele>
        <time>2019-07-31T12:59:12.111Z</time>
      </trkpt>
      <trkpt lat="42.98802667" lon="-1.14144833">
        <ele>838.0</ele>
        <time>2019-07-31T12:59:13.117Z</time>
      </trkpt>
      <trkpt lat="42.98802" lon="-1.14143167">
        <ele>839.0</ele>
        <time>2019-07-31T12:59:14.121Z</time>
      </trkpt>
      <trkpt lat="42.98801" lon="-1.14141">
        <ele>840.0</ele>
        <time>2019-07-31T12:59:15.127Z</time>
      </trkpt>
      <trkpt lat="42.98800167" lon="-1.14138333">
        <ele>840.0</ele>
        <time>2019-07-31T12:59:16.132Z</time>
      </trkpt>
      <trkpt lat="42.98798667" lon="-1.14136333">
        <ele>840.0</ele>
        <time>2019-07-31T12:59:17.137Z</time>
      </trkpt>
      <trkpt lat="42.98797333" lon="-1.141335">
        <ele>841.0</ele>
        <time>2019-07-31T12:59:18.142Z</time>
      </trkpt>
      <trkpt lat="42.98796" lon="-1.14131333">
        <ele>841.0</ele>
        <time>2019-07-31T12:59:19.147Z</time>
      </trkpt>
      <trkpt lat="42.98794333" lon="-1.141295">
        <ele>842.0</ele>
        <time>2019-07-31T12:59:20.153Z</time>
      </trkpt>
      <trkpt lat="42.98793333" lon="-1.14127667">
        <ele>842.0</ele>
        <time>2019-07-31T12:59:21.161Z</time>
      </trkpt>
      <trkpt lat="42.987925" lon="-1.14126333">
        <ele>843.0</ele>
        <time>2019-07-31T12:59:22.167Z</time>
      </trkpt>
      <trkpt lat="42.987915" lon="-1.14125">
        <ele>844.0</ele>
        <time>2019-07-31T12:59:23.173Z</time>
      </trkpt>
      <trkpt lat="42.987905" lon="-1.14123333">
        <ele>844.0</ele>
        <time>2019-07-31T12:59:24.179Z</time>
      </trkpt>
      <trkpt lat="42.98789667" lon="-1.14121333">
        <ele>844.0</ele>
        <time>2019-07-31T12:59:25.185Z</time>
      </trkpt>
      <trkpt lat="42.98788167" lon="-1.1412">
        <ele>843.0</ele>
        <time>2019-07-31T12:59:26.065Z</time>
      </trkpt>
      <trkpt lat="42.98786833" lon="-1.14118833">
        <ele>842.0</ele>
        <time>2019-07-31T12:59:27.070Z</time>
      </trkpt>
      <trkpt lat="42.98785" lon="-1.14117333">
        <ele>842.0</ele>
        <time>2019-07-31T12:59:28.076Z</time>
      </trkpt>
      <trkpt lat="42.987835" lon="-1.141155">
        <ele>842.0</ele>
        <time>2019-07-31T12:59:29.082Z</time>
      </trkpt>
      <trkpt lat="42.98781833" lon="-1.14114">
        <ele>841.0</ele>
        <time>2019-07-31T12:59:30.089Z</time>
      </trkpt>
      <trkpt lat="42.987805" lon="-1.14112333">
        <ele>840.0</ele>
        <time>2019-07-31T12:59:31.096Z</time>
      </trkpt>
      <trkpt lat="42.98779167" lon="-1.14110667">
        <ele>840.0</ele>
        <time>2019-07-31T12:59:32.103Z</time>
      </trkpt>
      <trkpt lat="42.98777833" lon="-1.14108">
        <ele>840.0</ele>
        <time>2019-07-31T12:59:33.106Z</time>
      </trkpt>
      <trkpt lat="42.98776" lon="-1.14106333">
        <ele>839.0</ele>
        <time>2019-07-31T12:59:34.110Z</time>
      </trkpt>
      <trkpt lat="42.987745" lon="-1.14104667">
        <ele>838.0</ele>
        <time>2019-07-31T12:59:35.113Z</time>
      </trkpt>
      <trkpt lat="42.987735" lon="-1.14102833">
        <ele>839.0</ele>
        <time>2019-07-31T12:59:36.117Z</time>
      </trkpt>
      <trkpt lat="42.987725" lon="-1.14101167">
        <ele>840.0</ele>
        <time>2019-07-31T12:59:37.122Z</time>
      </trkpt>
      <trkpt lat="42.98771667" lon="-1.14099667">
        <ele>839.0</ele>
        <time>2019-07-31T12:59:38.127Z</time>
      </trkpt>
      <trkpt lat="42.98770667" lon="-1.14098167">
        <ele>839.0</ele>
        <time>2019-07-31T12:59:39.130Z</time>
      </trkpt>
      <trkpt lat="42.9877" lon="-1.14096833">
        <ele>841.0</ele>
        <time>2019-07-31T12:59:40.132Z</time>
      </trkpt>
      <trkpt lat="42.98769167" lon="-1.14095667">
        <ele>841.0</ele>
        <time>2019-07-31T12:59:41.137Z</time>
      </trkpt>
      <trkpt lat="42.98767833" lon="-1.14094333">
        <ele>841.0</ele>
        <time>2019-07-31T12:59:42.143Z</time>
      </trkpt>
      <trkpt lat="42.98766667" lon="-1.14092667">
        <ele>841.0</ele>
        <time>2019-07-31T12:59:43.148Z</time>
      </trkpt>
      <trkpt lat="42.987655" lon="-1.14091">
        <ele>841.0</ele>
        <time>2019-07-31T12:59:44.154Z</time>
      </trkpt>
      <trkpt lat="42.98764333" lon="-1.14089167">
        <ele>842.0</ele>
        <time>2019-07-31T12:59:45.157Z</time>
      </trkpt>
      <trkpt lat="42.98763333" lon="-1.14087333">
        <ele>842.0</ele>
        <time>2019-07-31T12:59:46.163Z</time>
      </trkpt>
      <trkpt lat="42.98762167" lon="-1.14086167">
        <ele>843.0</ele>
        <time>2019-07-31T12:59:47.167Z</time>
      </trkpt>
      <trkpt lat="42.98760833" lon="-1.14085">
        <ele>843.0</ele>
        <time>2019-07-31T12:59:48.172Z</time>
      </trkpt>
      <trkpt lat="42.98759667" lon="-1.14084">
        <ele>843.0</ele>
        <time>2019-07-31T12:59:49.178Z</time>
      </trkpt>
      <trkpt lat="42.987585" lon="-1.14082833">
        <ele>843.0</ele>
        <time>2019-07-31T12:59:50.184Z</time>
      </trkpt>
      <trkpt lat="42.98757333" lon="-1.14081833">
        <ele>843.0</ele>
        <time>2019-07-31T12:59:51.065Z</time>
      </trkpt>
      <trkpt lat="42.987565" lon="-1.14080667">
        <ele>843.0</ele>
        <time>2019-07-31T12:59:52.070Z</time>
      </trkpt>
      <trkpt lat="42.98755667" lon="-1.14079">
        <ele>843.0</ele>
        <time>2019-07-31T12:59:53.076Z</time>
      </trkpt>
      <trkpt lat="42.98755" lon="-1.14077">
        <ele>844.0</ele>
        <time>2019-07-31T12:59:54.081Z</time>
      </trkpt>
      <trkpt lat="42.98754" lon="-1.14075">
        <ele>845.0</ele>
        <time>2019-07-31T12:59:55.086Z</time>
      </trkpt>
      <trkpt lat="42.98753" lon="-1.14073333">
        <ele>845.0</ele>
        <time>2019-07-31T12:59:56.089Z</time>
      </trkpt>
      <trkpt lat="42.98752167" lon="-1.14072167">
        <ele>845.0</ele>
        <time>2019-07-31T12:59:57.094Z</time>
      </trkpt>
      <trkpt lat="42.98751333" lon="-1.14071">
        <ele>845.0</ele>
        <time>2019-07-31T12:59:58.099Z</time>
      </trkpt>
      <trkpt lat="42.987505" lon="-1.140705">
        <ele>845.0</ele>
        <time>2019-07-31T12:59:59.105Z</time>
      </trkpt>
      <trkpt lat="42.98749333" lon="-1.14070333">
        <ele>844.0</ele>
        <time>2019-07-31T13:00:00.110Z</time>
      </trkpt>
      <trkpt lat="42.98748" lon="-1.14070167">
        <ele>843.0</ele>
        <time>2019-07-31T13:00:01.119Z</time>
      </trkpt>
      <trkpt lat="42.98746667" lon="-1.14069833">
        <ele>842.0</ele>
        <time>2019-07-31T13:00:02.126Z</time>
      </trkpt>
      <trkpt lat="42.98745167" lon="-1.14069">
        <ele>841.0</ele>
        <time>2019-07-31T13:00:03.132Z</time>
      </trkpt>
      <trkpt lat="42.98743833" lon="-1.14068">
        <ele>841.0</ele>
        <time>2019-07-31T13:00:04.136Z</time>
      </trkpt>
      <trkpt lat="42.987425" lon="-1.14067">
        <ele>841.0</ele>
        <time>2019-07-31T13:00:05.143Z</time>
      </trkpt>
      <trkpt lat="42.98741" lon="-1.14065833">
        <ele>841.0</ele>
        <time>2019-07-31T13:00:06.147Z</time>
      </trkpt>
      <trkpt lat="42.9874" lon="-1.14065">
        <ele>840.0</ele>
        <time>2019-07-31T13:00:07.153Z</time>
      </trkpt>
      <trkpt lat="42.98739" lon="-1.140645">
        <ele>839.0</ele>
        <time>2019-07-31T13:00:08.160Z</time>
      </trkpt>
      <trkpt lat="42.987375" lon="-1.14063333">
        <ele>840.0</ele>
        <time>2019-07-31T13:00:09.163Z</time>
      </trkpt>
      <trkpt lat="42.987365" lon="-1.14062">
        <ele>840.0</ele>
        <time>2019-07-31T13:00:10.168Z</time>
      </trkpt>
      <trkpt lat="42.98735333" lon="-1.14060833">
        <ele>841.0</ele>
        <time>2019-07-31T13:00:11.174Z</time>
      </trkpt>
      <trkpt lat="42.98734167" lon="-1.14059667">
        <ele>842.0</ele>
        <time>2019-07-31T13:00:12.182Z</time>
      </trkpt>
      <trkpt lat="42.98733167" lon="-1.14058">
        <ele>843.0</ele>
        <time>2019-07-31T13:00:13.064Z</time>
      </trkpt>
      <trkpt lat="42.98732167" lon="-1.14056167">
        <ele>844.0</ele>
        <time>2019-07-31T13:00:14.068Z</time>
      </trkpt>
      <trkpt lat="42.98732" lon="-1.140545">
        <ele>844.0</ele>
        <time>2019-07-31T13:00:15.074Z</time>
      </trkpt>
      <trkpt lat="42.98731167" lon="-1.14053">
        <ele>845.0</ele>
        <time>2019-07-31T13:00:16.079Z</time>
      </trkpt>
      <trkpt lat="42.98729833" lon="-1.14051833">
        <ele>844.0</ele>
        <time>2019-07-31T13:00:17.084Z</time>
      </trkpt>
      <trkpt lat="42.987295" lon="-1.140505">
        <ele>844.0</ele>
        <time>2019-07-31T13:00:18.088Z</time>
      </trkpt>
      <trkpt lat="42.98729167" lon="-1.14049833">
        <ele>845.0</ele>
        <time>2019-07-31T13:00:19.092Z</time>
      </trkpt>
      <trkpt lat="42.98728667" lon="-1.14048833">
        <ele>845.0</ele>
        <time>2019-07-31T13:00:20.097Z</time>
      </trkpt>
      <trkpt lat="42.98728167" lon="-1.14047333">
        <ele>844.0</ele>
        <time>2019-07-31T13:00:21.104Z</time>
      </trkpt>
      <trkpt lat="42.98726667" lon="-1.140465">
        <ele>844.0</ele>
        <time>2019-07-31T13:00:22.110Z</time>
      </trkpt>
      <trkpt lat="42.98726" lon="-1.140455">
        <ele>844.0</ele>
        <time>2019-07-31T13:00:23.116Z</time>
      </trkpt>
      <trkpt lat="42.987255" lon="-1.140445">
        <ele>845.0</ele>
        <time>2019-07-31T13:00:24.121Z</time>
      </trkpt>
      <trkpt lat="42.98724833" lon="-1.140435">
        <ele>845.0</ele>
        <time>2019-07-31T13:00:25.127Z</time>
      </trkpt>
      <trkpt lat="42.98723833" lon="-1.14042">
        <ele>845.0</ele>
        <time>2019-07-31T13:00:26.132Z</time>
      </trkpt>
      <trkpt lat="42.98722833" lon="-1.14041">
        <ele>845.0</ele>
        <time>2019-07-31T13:00:27.139Z</time>
      </trkpt>
      <trkpt lat="42.98721333" lon="-1.14040333">
        <ele>844.0</ele>
        <time>2019-07-31T13:00:28.145Z</time>
      </trkpt>
      <trkpt lat="42.98719667" lon="-1.14039667">
        <ele>845.0</ele>
        <time>2019-07-31T13:00:29.151Z</time>
      </trkpt>
      <trkpt lat="42.98718167" lon="-1.14038833">
        <ele>845.0</ele>
        <time>2019-07-31T13:00:30.156Z</time>
      </trkpt>
      <trkpt lat="42.98717" lon="-1.14038167">
        <ele>845.0</ele>
        <time>2019-07-31T13:00:31.162Z</time>
      </trkpt>
      <trkpt lat="42.98716" lon="-1.140375">
        <ele>844.0</ele>
        <time>2019-07-31T13:00:32.167Z</time>
      </trkpt>
      <trkpt lat="42.98715" lon="-1.14036667">
        <ele>844.0</ele>
        <time>2019-07-31T13:00:33.174Z</time>
      </trkpt>
      <trkpt lat="42.98714" lon="-1.14035833">
        <ele>844.0</ele>
        <time>2019-07-31T13:00:34.179Z</time>
      </trkpt>
      <trkpt lat="42.98712667" lon="-1.14035167">
        <ele>843.0</ele>
        <time>2019-07-31T13:00:35.183Z</time>
      </trkpt>
      <trkpt lat="42.987115" lon="-1.14034667">
        <ele>843.0</ele>
        <time>2019-07-31T13:00:36.064Z</time>
      </trkpt>
      <trkpt lat="42.98710667" lon="-1.140345">
        <ele>842.0</ele>
        <time>2019-07-31T13:00:37.068Z</time>
      </trkpt>
      <trkpt lat="42.98709833" lon="-1.14033833">
        <ele>843.0</ele>
        <time>2019-07-31T13:00:38.070Z</time>
      </trkpt>
      <trkpt lat="42.98709167" lon="-1.14033">
        <ele>843.0</ele>
        <time>2019-07-31T13:00:39.075Z</time>
      </trkpt>
      <trkpt lat="42.98708333" lon="-1.14032167">
        <ele>843.0</ele>
        <time>2019-07-31T13:00:40.080Z</time>
      </trkpt>
      <trkpt lat="42.987075" lon="-1.140315">
        <ele>843.0</ele>
        <time>2019-07-31T13:00:41.083Z</time>
      </trkpt>
      <trkpt lat="42.98706667" lon="-1.14030833">
        <ele>843.0</ele>
        <time>2019-07-31T13:00:42.089Z</time>
      </trkpt>
      <trkpt lat="42.98706" lon="-1.14030667">
        <ele>844.0</ele>
        <time>2019-07-31T13:00:43.095Z</time>
      </trkpt>
      <trkpt lat="42.98705167" lon="-1.14030333">
        <ele>844.0</ele>
        <time>2019-07-31T13:00:44.100Z</time>
      </trkpt>
      <trkpt lat="42.98704167" lon="-1.14029833">
        <ele>844.0</ele>
        <time>2019-07-31T13:00:45.105Z</time>
      </trkpt>
      <trkpt lat="42.98703167" lon="-1.14029">
        <ele>844.0</ele>
        <time>2019-07-31T13:00:46.112Z</time>
      </trkpt>
      <trkpt lat="42.98701667" lon="-1.14028833">
        <ele>844.0</ele>
        <time>2019-07-31T13:00:47.118Z</time>
      </trkpt>
      <trkpt lat="42.987005" lon="-1.14028833">
        <ele>844.0</ele>
        <time>2019-07-31T13:00:48.123Z</time>
      </trkpt>
      <trkpt lat="42.98699833" lon="-1.14028833">
        <ele>844.0</ele>
        <time>2019-07-31T13:00:49.127Z</time>
      </trkpt>
      <trkpt lat="42.98699" lon="-1.140285">
        <ele>844.0</ele>
        <time>2019-07-31T13:00:50.133Z</time>
      </trkpt>
      <trkpt lat="42.98698167" lon="-1.14027833">
        <ele>844.0</ele>
        <time>2019-07-31T13:00:51.139Z</time>
      </trkpt>
      <trkpt lat="42.98697333" lon="-1.14027167">
        <ele>843.0</ele>
        <time>2019-07-31T13:00:52.143Z</time>
      </trkpt>
      <trkpt lat="42.98696667" lon="-1.14026333">
        <ele>843.0</ele>
        <time>2019-07-31T13:00:53.148Z</time>
      </trkpt>
      <trkpt lat="42.98696" lon="-1.14025333">
        <ele>843.0</ele>
        <time>2019-07-31T13:00:54.154Z</time>
      </trkpt>
      <trkpt lat="42.98695167" lon="-1.140245">
        <ele>843.0</ele>
        <time>2019-07-31T13:00:55.159Z</time>
      </trkpt>
      <trkpt lat="42.98694333" lon="-1.140235">
        <ele>843.0</ele>
        <time>2019-07-31T13:00:56.163Z</time>
      </trkpt>
      <trkpt lat="42.986935" lon="-1.14022333">
        <ele>843.0</ele>
        <time>2019-07-31T13:00:57.170Z</time>
      </trkpt>
      <trkpt lat="42.98693" lon="-1.14021667">
        <ele>844.0</ele>
        <time>2019-07-31T13:00:58.174Z</time>
      </trkpt>
      <trkpt lat="42.98692167" lon="-1.14021">
        <ele>844.0</ele>
        <time>2019-07-31T13:00:59.176Z</time>
      </trkpt>
      <trkpt lat="42.98691333" lon="-1.140205">
        <ele>844.0</ele>
        <time>2019-07-31T13:01:00.177Z</time>
      </trkpt>
      <trkpt lat="42.986905" lon="-1.14019833">
        <ele>844.0</ele>
        <time>2019-07-31T13:01:01.179Z</time>
      </trkpt>
      <trkpt lat="42.98689333" lon="-1.14019667">
        <ele>845.0</ele>
        <time>2019-07-31T13:01:02.184Z</time>
      </trkpt>
      <trkpt lat="42.98688333" lon="-1.140195">
        <ele>845.0</ele>
        <time>2019-07-31T13:01:03.062Z</time>
      </trkpt>
      <trkpt lat="42.98687167" lon="-1.14019167">
        <ele>846.0</ele>
        <time>2019-07-31T13:01:04.067Z</time>
      </trkpt>
      <trkpt lat="42.98686833" lon="-1.14018833">
        <ele>847.0</ele>
        <time>2019-07-31T13:01:05.072Z</time>
      </trkpt>
      <trkpt lat="42.98686" lon="-1.14017833">
        <ele>847.0</ele>
        <time>2019-07-31T13:01:06.077Z</time>
      </trkpt>
      <trkpt lat="42.98685" lon="-1.14017167">
        <ele>847.0</ele>
        <time>2019-07-31T13:01:07.084Z</time>
      </trkpt>
      <trkpt lat="42.98684" lon="-1.140165">
        <ele>847.0</ele>
        <time>2019-07-31T13:01:08.089Z</time>
      </trkpt>
      <trkpt lat="42.98683167" lon="-1.14016">
        <ele>847.0</ele>
        <time>2019-07-31T13:01:09.092Z</time>
      </trkpt>
      <trkpt lat="42.98682333" lon="-1.140155">
        <ele>846.0</ele>
        <time>2019-07-31T13:01:10.097Z</time>
      </trkpt>
      <trkpt lat="42.98681167" lon="-1.14014333">
        <ele>846.0</ele>
        <time>2019-07-31T13:01:11.103Z</time>
      </trkpt>
      <trkpt lat="42.98680333" lon="-1.14013167">
        <ele>845.0</ele>
        <time>2019-07-31T13:01:12.110Z</time>
      </trkpt>
      <trkpt lat="42.98679167" lon="-1.14012167">
        <ele>845.0</ele>
        <time>2019-07-31T13:01:13.116Z</time>
      </trkpt>
      <trkpt lat="42.98678" lon="-1.14011167">
        <ele>845.0</ele>
        <time>2019-07-31T13:01:14.121Z</time>
      </trkpt>
      <trkpt lat="42.98677167" lon="-1.14009667">
        <ele>846.0</ele>
        <time>2019-07-31T13:01:15.127Z</time>
      </trkpt>
      <trkpt lat="42.98676167" lon="-1.14008333">
        <ele>846.0</ele>
        <time>2019-07-31T13:01:16.133Z</time>
      </trkpt>
      <trkpt lat="42.98675333" lon="-1.14007">
        <ele>847.0</ele>
        <time>2019-07-31T13:01:17.137Z</time>
      </trkpt>
      <trkpt lat="42.98674667" lon="-1.140055">
        <ele>847.0</ele>
        <time>2019-07-31T13:01:18.141Z</time>
      </trkpt>
      <trkpt lat="42.986735" lon="-1.14004167">
        <ele>846.0</ele>
        <time>2019-07-31T13:01:19.146Z</time>
      </trkpt>
      <trkpt lat="42.98672833" lon="-1.14001833">
        <ele>846.0</ele>
        <time>2019-07-31T13:01:20.153Z</time>
      </trkpt>
      <trkpt lat="42.98671333" lon="-1.14000167">
        <ele>845.0</ele>
        <time>2019-07-31T13:01:21.156Z</time>
      </trkpt>
      <trkpt lat="42.98670167" lon="-1.13999333">
        <ele>844.0</ele>
        <time>2019-07-31T13:01:22.160Z</time>
      </trkpt>
      <trkpt lat="42.98669" lon="-1.13998167">
        <ele>843.0</ele>
        <time>2019-07-31T13:01:23.164Z</time>
      </trkpt>
      <trkpt lat="42.986675" lon="-1.13997167">
        <ele>842.0</ele>
        <time>2019-07-31T13:01:24.171Z</time>
      </trkpt>
      <trkpt lat="42.98665667" lon="-1.13996667">
        <ele>840.0</ele>
        <time>2019-07-31T13:01:25.174Z</time>
      </trkpt>
      <trkpt lat="42.986645" lon="-1.139955">
        <ele>840.0</ele>
        <time>2019-07-31T13:01:26.177Z</time>
      </trkpt>
      <trkpt lat="42.98663667" lon="-1.13994333">
        <ele>840.0</ele>
        <time>2019-07-31T13:01:27.180Z</time>
      </trkpt>
      <trkpt lat="42.986625" lon="-1.139925">
        <ele>840.0</ele>
        <time>2019-07-31T13:01:28.061Z</time>
      </trkpt>
      <trkpt lat="42.98661667" lon="-1.13990833">
        <ele>840.0</ele>
        <time>2019-07-31T13:01:29.066Z</time>
      </trkpt>
      <trkpt lat="42.98660667" lon="-1.139895">
        <ele>839.0</ele>
        <time>2019-07-31T13:01:30.071Z</time>
      </trkpt>
      <trkpt lat="42.98659" lon="-1.13988333">
        <ele>838.0</ele>
        <time>2019-07-31T13:01:31.072Z</time>
      </trkpt>
      <trkpt lat="42.98658167" lon="-1.13987333">
        <ele>837.0</ele>
        <time>2019-07-31T13:01:32.078Z</time>
      </trkpt>
      <trkpt lat="42.98657333" lon="-1.13986667">
        <ele>836.0</ele>
        <time>2019-07-31T13:01:33.086Z</time>
      </trkpt>
      <trkpt lat="42.98656333" lon="-1.13986">
        <ele>836.0</ele>
        <time>2019-07-31T13:01:34.091Z</time>
      </trkpt>
      <trkpt lat="42.986555" lon="-1.139845">
        <ele>836.0</ele>
        <time>2019-07-31T13:01:35.097Z</time>
      </trkpt>
      <trkpt lat="42.98654667" lon="-1.13983333">
        <ele>837.0</ele>
        <time>2019-07-31T13:01:36.103Z</time>
      </trkpt>
      <trkpt lat="42.98654" lon="-1.139825">
        <ele>837.0</ele>
        <time>2019-07-31T13:01:37.110Z</time>
      </trkpt>
      <trkpt lat="42.98653333" lon="-1.13981667">
        <ele>837.0</ele>
        <time>2019-07-31T13:01:38.116Z</time>
      </trkpt>
      <trkpt lat="42.98652333" lon="-1.13981">
        <ele>836.0</ele>
        <time>2019-07-31T13:01:39.122Z</time>
      </trkpt>
      <trkpt lat="42.98651167" lon="-1.13980167">
        <ele>835.0</ele>
        <time>2019-07-31T13:01:40.127Z</time>
      </trkpt>
      <trkpt lat="42.98650167" lon="-1.13979333">
        <ele>835.0</ele>
        <time>2019-07-31T13:01:41.132Z</time>
      </trkpt>
      <trkpt lat="42.98649" lon="-1.139785">
        <ele>835.0</ele>
        <time>2019-07-31T13:01:42.137Z</time>
      </trkpt>
      <trkpt lat="42.98648" lon="-1.13977667">
        <ele>835.0</ele>
        <time>2019-07-31T13:01:43.142Z</time>
      </trkpt>
      <trkpt lat="42.98647" lon="-1.13977">
        <ele>834.0</ele>
        <time>2019-07-31T13:01:44.146Z</time>
      </trkpt>
      <trkpt lat="42.98646" lon="-1.13976">
        <ele>834.0</ele>
        <time>2019-07-31T13:01:45.153Z</time>
      </trkpt>
      <trkpt lat="42.98645" lon="-1.13975167">
        <ele>834.0</ele>
        <time>2019-07-31T13:01:46.158Z</time>
      </trkpt>
      <trkpt lat="42.98644" lon="-1.13974333">
        <ele>833.0</ele>
        <time>2019-07-31T13:01:47.163Z</time>
      </trkpt>
      <trkpt lat="42.98643167" lon="-1.13973">
        <ele>834.0</ele>
        <time>2019-07-31T13:01:48.171Z</time>
      </trkpt>
      <trkpt lat="42.98642167" lon="-1.13971667">
        <ele>834.0</ele>
        <time>2019-07-31T13:01:49.177Z</time>
      </trkpt>
      <trkpt lat="42.98641167" lon="-1.13970667">
        <ele>835.0</ele>
        <time>2019-07-31T13:01:50.183Z</time>
      </trkpt>
      <trkpt lat="42.986405" lon="-1.13969667">
        <ele>835.0</ele>
        <time>2019-07-31T13:01:51.063Z</time>
      </trkpt>
      <trkpt lat="42.9864" lon="-1.13967833">
        <ele>837.0</ele>
        <time>2019-07-31T13:01:52.068Z</time>
      </trkpt>
      <trkpt lat="42.98639333" lon="-1.13965333">
        <ele>838.0</ele>
        <time>2019-07-31T13:01:53.073Z</time>
      </trkpt>
      <trkpt lat="42.98638333" lon="-1.13963167">
        <ele>839.0</ele>
        <time>2019-07-31T13:01:54.078Z</time>
      </trkpt>
      <trkpt lat="42.98637167" lon="-1.13961333">
        <ele>839.0</ele>
        <time>2019-07-31T13:01:55.082Z</time>
      </trkpt>
      <trkpt lat="42.98635833" lon="-1.13959333">
        <ele>840.0</ele>
        <time>2019-07-31T13:01:56.087Z</time>
      </trkpt>
      <trkpt lat="42.986345" lon="-1.13957833">
        <ele>841.0</ele>
        <time>2019-07-31T13:01:57.093Z</time>
      </trkpt>
      <trkpt lat="42.98633333" lon="-1.13956167">
        <ele>841.0</ele>
        <time>2019-07-31T13:01:58.097Z</time>
      </trkpt>
      <trkpt lat="42.98632667" lon="-1.139545">
        <ele>842.0</ele>
        <time>2019-07-31T13:01:59.103Z</time>
      </trkpt>
      <trkpt lat="42.98632167" lon="-1.13952667">
        <ele>844.0</ele>
        <time>2019-07-31T13:02:00.108Z</time>
      </trkpt>
      <trkpt lat="42.986315" lon="-1.13950833">
        <ele>845.0</ele>
        <time>2019-07-31T13:02:01.111Z</time>
      </trkpt>
      <trkpt lat="42.986305" lon="-1.13949">
        <ele>845.0</ele>
        <time>2019-07-31T13:02:02.117Z</time>
      </trkpt>
      <trkpt lat="42.98629667" lon="-1.13948">
        <ele>845.0</ele>
        <time>2019-07-31T13:02:03.122Z</time>
      </trkpt>
      <trkpt lat="42.98628667" lon="-1.13947">
        <ele>845.0</ele>
        <time>2019-07-31T13:02:04.129Z</time>
      </trkpt>
      <trkpt lat="42.98627833" lon="-1.13946333">
        <ele>845.0</ele>
        <time>2019-07-31T13:02:05.133Z</time>
      </trkpt>
      <trkpt lat="42.98627333" lon="-1.13945667">
        <ele>844.0</ele>
        <time>2019-07-31T13:02:06.139Z</time>
      </trkpt>
      <trkpt lat="42.98626833" lon="-1.13944833">
        <ele>844.0</ele>
        <time>2019-07-31T13:02:07.142Z</time>
      </trkpt>
      <trkpt lat="42.98626333" lon="-1.13943833">
        <ele>843.0</ele>
        <time>2019-07-31T13:02:08.148Z</time>
      </trkpt>
      <trkpt lat="42.98625167" lon="-1.13942333">
        <ele>844.0</ele>
        <time>2019-07-31T13:02:09.153Z</time>
      </trkpt>
      <trkpt lat="42.98624" lon="-1.139405">
        <ele>844.0</ele>
        <time>2019-07-31T13:02:10.160Z</time>
      </trkpt>
      <trkpt lat="42.98622667" lon="-1.13939">
        <ele>844.0</ele>
        <time>2019-07-31T13:02:11.167Z</time>
      </trkpt>
      <trkpt lat="42.98621333" lon="-1.139375">
        <ele>844.0</ele>
        <time>2019-07-31T13:02:12.174Z</time>
      </trkpt>
      <trkpt lat="42.98620167" lon="-1.13935667">
        <ele>845.0</ele>
        <time>2019-07-31T13:02:13.178Z</time>
      </trkpt>
      <trkpt lat="42.986195" lon="-1.13933167">
        <ele>846.0</ele>
        <time>2019-07-31T13:02:14.184Z</time>
      </trkpt>
      <trkpt lat="42.98618833" lon="-1.13931333">
        <ele>847.0</ele>
        <time>2019-07-31T13:02:15.064Z</time>
      </trkpt>
      <trkpt lat="42.986185" lon="-1.13929333">
        <ele>849.0</ele>
        <time>2019-07-31T13:02:16.070Z</time>
      </trkpt>
      <trkpt lat="42.986185" lon="-1.13928167">
        <ele>850.0</ele>
        <time>2019-07-31T13:02:17.074Z</time>
      </trkpt>
      <trkpt lat="42.98618667" lon="-1.13926167">
        <ele>851.0</ele>
        <time>2019-07-31T13:02:18.077Z</time>
      </trkpt>
      <trkpt lat="42.98618167" lon="-1.13923667">
        <ele>853.0</ele>
        <time>2019-07-31T13:02:19.082Z</time>
      </trkpt>
      <trkpt lat="42.98617667" lon="-1.13921333">
        <ele>854.0</ele>
        <time>2019-07-31T13:02:20.087Z</time>
      </trkpt>
      <trkpt lat="42.98617" lon="-1.13918667">
        <ele>855.0</ele>
        <time>2019-07-31T13:02:21.093Z</time>
      </trkpt>
      <trkpt lat="42.98616333" lon="-1.13917">
        <ele>856.0</ele>
        <time>2019-07-31T13:02:22.100Z</time>
      </trkpt>
      <trkpt lat="42.98615667" lon="-1.139155">
        <ele>856.0</ele>
        <time>2019-07-31T13:02:23.106Z</time>
      </trkpt>
      <trkpt lat="42.98614333" lon="-1.13913667">
        <ele>856.0</ele>
        <time>2019-07-31T13:02:24.109Z</time>
      </trkpt>
      <trkpt lat="42.98613" lon="-1.13912">
        <ele>855.0</ele>
        <time>2019-07-31T13:02:25.115Z</time>
      </trkpt>
      <trkpt lat="42.98611833" lon="-1.13910333">
        <ele>855.0</ele>
        <time>2019-07-31T13:02:26.121Z</time>
      </trkpt>
      <trkpt lat="42.98610833" lon="-1.13908333">
        <ele>855.0</ele>
        <time>2019-07-31T13:02:27.126Z</time>
      </trkpt>
      <trkpt lat="42.98609833" lon="-1.13906833">
        <ele>856.0</ele>
        <time>2019-07-31T13:02:28.133Z</time>
      </trkpt>
      <trkpt lat="42.98609" lon="-1.13905167">
        <ele>856.0</ele>
        <time>2019-07-31T13:02:29.138Z</time>
      </trkpt>
      <trkpt lat="42.98607667" lon="-1.13903333">
        <ele>856.0</ele>
        <time>2019-07-31T13:02:30.142Z</time>
      </trkpt>
      <trkpt lat="42.98607" lon="-1.13901667">
        <ele>856.0</ele>
        <time>2019-07-31T13:02:31.147Z</time>
      </trkpt>
      <trkpt lat="42.98606667" lon="-1.139">
        <ele>856.0</ele>
        <time>2019-07-31T13:02:32.153Z</time>
      </trkpt>
      <trkpt lat="42.986065" lon="-1.13899167">
        <ele>857.0</ele>
        <time>2019-07-31T13:02:33.159Z</time>
      </trkpt>
      <trkpt lat="42.98606833" lon="-1.13898833">
        <ele>857.0</ele>
        <time>2019-07-31T13:02:34.164Z</time>
      </trkpt>
      <trkpt lat="42.98606667" lon="-1.13897833">
        <ele>857.0</ele>
        <time>2019-07-31T13:02:35.169Z</time>
      </trkpt>
      <trkpt lat="42.98605833" lon="-1.13896833">
        <ele>856.0</ele>
        <time>2019-07-31T13:02:36.174Z</time>
      </trkpt>
      <trkpt lat="42.98604667" lon="-1.13896167">
        <ele>855.0</ele>
        <time>2019-07-31T13:02:37.179Z</time>
      </trkpt>
      <trkpt lat="42.98603667" lon="-1.13895167">
        <ele>854.0</ele>
        <time>2019-07-31T13:02:38.184Z</time>
      </trkpt>
      <trkpt lat="42.986025" lon="-1.13894">
        <ele>854.0</ele>
        <time>2019-07-31T13:02:39.065Z</time>
      </trkpt>
      <trkpt lat="42.986015" lon="-1.13892667">
        <ele>854.0</ele>
        <time>2019-07-31T13:02:40.071Z</time>
      </trkpt>
      <trkpt lat="42.98600833" lon="-1.138915">
        <ele>853.0</ele>
        <time>2019-07-31T13:02:41.077Z</time>
      </trkpt>
      <trkpt lat="42.98600333" lon="-1.13890667">
        <ele>853.0</ele>
        <time>2019-07-31T13:02:42.082Z</time>
      </trkpt>
      <trkpt lat="42.98600333" lon="-1.138895">
        <ele>852.0</ele>
        <time>2019-07-31T13:02:43.088Z</time>
      </trkpt>
      <trkpt lat="42.986" lon="-1.13889167">
        <ele>851.0</ele>
        <time>2019-07-31T13:02:44.091Z</time>
      </trkpt>
      <trkpt lat="42.985995" lon="-1.13888">
        <ele>851.0</ele>
        <time>2019-07-31T13:02:45.096Z</time>
      </trkpt>
      <trkpt lat="42.98598667" lon="-1.13886667">
        <ele>851.0</ele>
        <time>2019-07-31T13:02:46.102Z</time>
      </trkpt>
      <trkpt lat="42.98598333" lon="-1.13885">
        <ele>850.0</ele>
        <time>2019-07-31T13:02:47.108Z</time>
      </trkpt>
      <trkpt lat="42.985985" lon="-1.13883833">
        <ele>850.0</ele>
        <time>2019-07-31T13:02:48.114Z</time>
      </trkpt>
      <trkpt lat="42.985985" lon="-1.13883167">
        <ele>849.0</ele>
        <time>2019-07-31T13:02:49.121Z</time>
      </trkpt>
      <trkpt lat="42.98597833" lon="-1.13882">
        <ele>848.0</ele>
        <time>2019-07-31T13:02:50.126Z</time>
      </trkpt>
      <trkpt lat="42.98596333" lon="-1.13880333">
        <ele>848.0</ele>
        <time>2019-07-31T13:02:51.131Z</time>
      </trkpt>
      <trkpt lat="42.98595" lon="-1.13878333">
        <ele>848.0</ele>
        <time>2019-07-31T13:02:52.135Z</time>
      </trkpt>
      <trkpt lat="42.98594167" lon="-1.138765">
        <ele>848.0</ele>
        <time>2019-07-31T13:02:53.142Z</time>
      </trkpt>
      <trkpt lat="42.98593667" lon="-1.13874833">
        <ele>849.0</ele>
        <time>2019-07-31T13:02:54.146Z</time>
      </trkpt>
      <trkpt lat="42.98592833" lon="-1.13873">
        <ele>850.0</ele>
        <time>2019-07-31T13:02:55.150Z</time>
      </trkpt>
      <trkpt lat="42.98591833" lon="-1.13871167">
        <ele>851.0</ele>
        <time>2019-07-31T13:02:56.154Z</time>
      </trkpt>
      <trkpt lat="42.98590833" lon="-1.138695">
        <ele>851.0</ele>
        <time>2019-07-31T13:02:57.158Z</time>
      </trkpt>
      <trkpt lat="42.98589833" lon="-1.13867833">
        <ele>850.0</ele>
        <time>2019-07-31T13:02:58.164Z</time>
      </trkpt>
      <trkpt lat="42.98589" lon="-1.13866333">
        <ele>850.0</ele>
        <time>2019-07-31T13:02:59.172Z</time>
      </trkpt>
      <trkpt lat="42.98587667" lon="-1.13865">
        <ele>849.0</ele>
        <time>2019-07-31T13:03:00.176Z</time>
      </trkpt>
      <trkpt lat="42.98586" lon="-1.138635">
        <ele>848.0</ele>
        <time>2019-07-31T13:03:01.182Z</time>
      </trkpt>
      <trkpt lat="42.98584667" lon="-1.13862">
        <ele>848.0</ele>
        <time>2019-07-31T13:03:02.061Z</time>
      </trkpt>
      <trkpt lat="42.98583333" lon="-1.138605">
        <ele>847.0</ele>
        <time>2019-07-31T13:03:03.068Z</time>
      </trkpt>
      <trkpt lat="42.98581833" lon="-1.13858833">
        <ele>846.0</ele>
        <time>2019-07-31T13:03:04.071Z</time>
      </trkpt>
      <trkpt lat="42.985805" lon="-1.13857167">
        <ele>846.0</ele>
        <time>2019-07-31T13:03:05.076Z</time>
      </trkpt>
      <trkpt lat="42.98579167" lon="-1.13855167">
        <ele>846.0</ele>
        <time>2019-07-31T13:03:06.080Z</time>
      </trkpt>
      <trkpt lat="42.98578" lon="-1.13853167">
        <ele>846.0</ele>
        <time>2019-07-31T13:03:07.085Z</time>
      </trkpt>
      <trkpt lat="42.98576833" lon="-1.13851">
        <ele>847.0</ele>
        <time>2019-07-31T13:03:08.089Z</time>
      </trkpt>
      <trkpt lat="42.98576" lon="-1.13848833">
        <ele>847.0</ele>
        <time>2019-07-31T13:03:09.094Z</time>
      </trkpt>
      <trkpt lat="42.98575" lon="-1.13847">
        <ele>847.0</ele>
        <time>2019-07-31T13:03:10.101Z</time>
      </trkpt>
      <trkpt lat="42.985745" lon="-1.138455">
        <ele>846.0</ele>
        <time>2019-07-31T13:03:11.107Z</time>
      </trkpt>
      <trkpt lat="42.98574" lon="-1.13844333">
        <ele>846.0</ele>
        <time>2019-07-31T13:03:12.113Z</time>
      </trkpt>
      <trkpt lat="42.98573667" lon="-1.13842833">
        <ele>846.0</ele>
        <time>2019-07-31T13:03:13.119Z</time>
      </trkpt>
      <trkpt lat="42.98573167" lon="-1.13840833">
        <ele>846.0</ele>
        <time>2019-07-31T13:03:14.125Z</time>
      </trkpt>
      <trkpt lat="42.98572333" lon="-1.13838833">
        <ele>846.0</ele>
        <time>2019-07-31T13:03:15.129Z</time>
      </trkpt>
      <trkpt lat="42.98571167" lon="-1.13837333">
        <ele>846.0</ele>
        <time>2019-07-31T13:03:16.133Z</time>
      </trkpt>
      <trkpt lat="42.98570167" lon="-1.13835833">
        <ele>847.0</ele>
        <time>2019-07-31T13:03:17.140Z</time>
      </trkpt>
      <trkpt lat="42.98569167" lon="-1.13834167">
        <ele>847.0</ele>
        <time>2019-07-31T13:03:18.146Z</time>
      </trkpt>
      <trkpt lat="42.98568333" lon="-1.13832667">
        <ele>847.0</ele>
        <time>2019-07-31T13:03:19.150Z</time>
      </trkpt>
      <trkpt lat="42.98567333" lon="-1.13831167">
        <ele>848.0</ele>
        <time>2019-07-31T13:03:20.157Z</time>
      </trkpt>
      <trkpt lat="42.98566667" lon="-1.13829833">
        <ele>848.0</ele>
        <time>2019-07-31T13:03:21.162Z</time>
      </trkpt>
      <trkpt lat="42.98565833" lon="-1.13828667">
        <ele>848.0</ele>
        <time>2019-07-31T13:03:22.170Z</time>
      </trkpt>
      <trkpt lat="42.98565" lon="-1.13827333">
        <ele>848.0</ele>
        <time>2019-07-31T13:03:23.176Z</time>
      </trkpt>
      <trkpt lat="42.985645" lon="-1.13825833">
        <ele>848.0</ele>
        <time>2019-07-31T13:03:24.181Z</time>
      </trkpt>
      <trkpt lat="42.98563833" lon="-1.13824833">
        <ele>848.0</ele>
        <time>2019-07-31T13:03:25.186Z</time>
      </trkpt>
      <trkpt lat="42.985635" lon="-1.13823333">
        <ele>848.0</ele>
        <time>2019-07-31T13:03:26.065Z</time>
      </trkpt>
      <trkpt lat="42.985635" lon="-1.13821167">
        <ele>849.0</ele>
        <time>2019-07-31T13:03:27.068Z</time>
      </trkpt>
      <trkpt lat="42.98563667" lon="-1.138195">
        <ele>850.0</ele>
        <time>2019-07-31T13:03:28.071Z</time>
      </trkpt>
      <trkpt lat="42.985635" lon="-1.13817833">
        <ele>851.0</ele>
        <time>2019-07-31T13:03:29.075Z</time>
      </trkpt>
      <trkpt lat="42.98563333" lon="-1.13816333">
        <ele>851.0</ele>
        <time>2019-07-31T13:03:30.081Z</time>
      </trkpt>
      <trkpt lat="42.985625" lon="-1.13814">
        <ele>852.0</ele>
        <time>2019-07-31T13:03:31.088Z</time>
      </trkpt>
      <trkpt lat="42.985615" lon="-1.13811833">
        <ele>853.0</ele>
        <time>2019-07-31T13:03:32.093Z</time>
      </trkpt>
      <trkpt lat="42.98560833" lon="-1.13809667">
        <ele>853.0</ele>
        <time>2019-07-31T13:03:33.097Z</time>
      </trkpt>
      <trkpt lat="42.9856" lon="-1.138075">
        <ele>853.0</ele>
        <time>2019-07-31T13:03:34.102Z</time>
      </trkpt>
      <trkpt lat="42.98559167" lon="-1.13806">
        <ele>852.0</ele>
        <time>2019-07-31T13:03:35.107Z</time>
      </trkpt>
      <trkpt lat="42.98558167" lon="-1.138045">
        <ele>852.0</ele>
        <time>2019-07-31T13:03:36.113Z</time>
      </trkpt>
      <trkpt lat="42.98557167" lon="-1.13802833">
        <ele>851.0</ele>
        <time>2019-07-31T13:03:37.118Z</time>
      </trkpt>
      <trkpt lat="42.98557" lon="-1.13801">
        <ele>851.0</ele>
        <time>2019-07-31T13:03:38.123Z</time>
      </trkpt>
      <trkpt lat="42.98557" lon="-1.13799167">
        <ele>852.0</ele>
        <time>2019-07-31T13:03:39.129Z</time>
      </trkpt>
      <trkpt lat="42.98557" lon="-1.137975">
        <ele>852.0</ele>
        <time>2019-07-31T13:03:40.135Z</time>
      </trkpt>
      <trkpt lat="42.98557333" lon="-1.13796">
        <ele>852.0</ele>
        <time>2019-07-31T13:03:41.143Z</time>
      </trkpt>
      <trkpt lat="42.985575" lon="-1.13794667">
        <ele>851.0</ele>
        <time>2019-07-31T13:03:42.147Z</time>
      </trkpt>
      <trkpt lat="42.98557667" lon="-1.13792833">
        <ele>851.0</ele>
        <time>2019-07-31T13:03:43.150Z</time>
      </trkpt>
      <trkpt lat="42.98557667" lon="-1.13791167">
        <ele>851.0</ele>
        <time>2019-07-31T13:03:44.155Z</time>
      </trkpt>
      <trkpt lat="42.98558167" lon="-1.13788833">
        <ele>852.0</ele>
        <time>2019-07-31T13:03:45.161Z</time>
      </trkpt>
      <trkpt lat="42.98558" lon="-1.13786833">
        <ele>852.0</ele>
        <time>2019-07-31T13:03:46.165Z</time>
      </trkpt>
      <trkpt lat="42.985575" lon="-1.13785333">
        <ele>851.0</ele>
        <time>2019-07-31T13:03:47.171Z</time>
      </trkpt>
      <trkpt lat="42.98556667" lon="-1.13783667">
        <ele>851.0</ele>
        <time>2019-07-31T13:03:48.176Z</time>
      </trkpt>
      <trkpt lat="42.985555" lon="-1.13782333">
        <ele>850.0</ele>
        <time>2019-07-31T13:03:49.181Z</time>
      </trkpt>
      <trkpt lat="42.985545" lon="-1.137805">
        <ele>850.0</ele>
        <time>2019-07-31T13:03:50.186Z</time>
      </trkpt>
      <trkpt lat="42.985535" lon="-1.13779333">
        <ele>848.0</ele>
        <time>2019-07-31T13:03:51.066Z</time>
      </trkpt>
      <trkpt lat="42.98552667" lon="-1.13778167">
        <ele>848.0</ele>
        <time>2019-07-31T13:03:52.072Z</time>
      </trkpt>
      <trkpt lat="42.98552167" lon="-1.13777167">
        <ele>847.0</ele>
        <time>2019-07-31T13:03:53.075Z</time>
      </trkpt>
      <trkpt lat="42.98552333" lon="-1.13775667">
        <ele>848.0</ele>
        <time>2019-07-31T13:03:54.080Z</time>
      </trkpt>
      <trkpt lat="42.98553" lon="-1.13774333">
        <ele>848.0</ele>
        <time>2019-07-31T13:03:55.085Z</time>
      </trkpt>
      <trkpt lat="42.98553667" lon="-1.13773167">
        <ele>848.0</ele>
        <time>2019-07-31T13:03:56.091Z</time>
      </trkpt>
      <trkpt lat="42.98554167" lon="-1.137715">
        <ele>848.0</ele>
        <time>2019-07-31T13:03:57.096Z</time>
      </trkpt>
      <trkpt lat="42.98554167" lon="-1.13769667">
        <ele>848.0</ele>
        <time>2019-07-31T13:03:58.103Z</time>
      </trkpt>
      <trkpt lat="42.98553667" lon="-1.13767667">
        <ele>848.0</ele>
        <time>2019-07-31T13:03:59.108Z</time>
      </trkpt>
      <trkpt lat="42.985535" lon="-1.13765833">
        <ele>848.0</ele>
        <time>2019-07-31T13:04:00.115Z</time>
      </trkpt>
      <trkpt lat="42.98553333" lon="-1.13764333">
        <ele>848.0</ele>
        <time>2019-07-31T13:04:01.121Z</time>
      </trkpt>
      <trkpt lat="42.98553167" lon="-1.13762333">
        <ele>849.0</ele>
        <time>2019-07-31T13:04:02.128Z</time>
      </trkpt>
      <trkpt lat="42.98553333" lon="-1.137605">
        <ele>850.0</ele>
        <time>2019-07-31T13:04:03.134Z</time>
      </trkpt>
      <trkpt lat="42.98554" lon="-1.13758667">
        <ele>850.0</ele>
        <time>2019-07-31T13:04:04.139Z</time>
      </trkpt>
      <trkpt lat="42.98554667" lon="-1.13756833">
        <ele>851.0</ele>
        <time>2019-07-31T13:04:05.143Z</time>
      </trkpt>
      <trkpt lat="42.98555167" lon="-1.13755167">
        <ele>852.0</ele>
        <time>2019-07-31T13:04:06.150Z</time>
      </trkpt>
      <trkpt lat="42.98554667" lon="-1.13753333">
        <ele>852.0</ele>
        <time>2019-07-31T13:04:07.155Z</time>
      </trkpt>
      <trkpt lat="42.98554333" lon="-1.13751333">
        <ele>852.0</ele>
        <time>2019-07-31T13:04:08.161Z</time>
      </trkpt>
      <trkpt lat="42.98553333" lon="-1.1375">
        <ele>851.0</ele>
        <time>2019-07-31T13:04:09.166Z</time>
      </trkpt>
      <trkpt lat="42.98552667" lon="-1.13748167">
        <ele>850.0</ele>
        <time>2019-07-31T13:04:10.170Z</time>
      </trkpt>
      <trkpt lat="42.98551833" lon="-1.13746333">
        <ele>850.0</ele>
        <time>2019-07-31T13:04:11.174Z</time>
      </trkpt>
      <trkpt lat="42.985515" lon="-1.137445">
        <ele>850.0</ele>
        <time>2019-07-31T13:04:12.182Z</time>
      </trkpt>
      <trkpt lat="42.98551" lon="-1.13743167">
        <ele>850.0</ele>
        <time>2019-07-31T13:04:13.063Z</time>
      </trkpt>
      <trkpt lat="42.985505" lon="-1.13742333">
        <ele>849.0</ele>
        <time>2019-07-31T13:04:14.068Z</time>
      </trkpt>
      <trkpt lat="42.985505" lon="-1.13741">
        <ele>848.0</ele>
        <time>2019-07-31T13:04:15.074Z</time>
      </trkpt>
      <trkpt lat="42.98550833" lon="-1.13739833">
        <ele>848.0</ele>
        <time>2019-07-31T13:04:16.079Z</time>
      </trkpt>
      <trkpt lat="42.98551" lon="-1.137385">
        <ele>848.0</ele>
        <time>2019-07-31T13:04:17.081Z</time>
      </trkpt>
      <trkpt lat="42.98551167" lon="-1.13737333">
        <ele>848.0</ele>
        <time>2019-07-31T13:04:18.087Z</time>
      </trkpt>
      <trkpt lat="42.985515" lon="-1.13735667">
        <ele>849.0</ele>
        <time>2019-07-31T13:04:19.091Z</time>
      </trkpt>
      <trkpt lat="42.98551667" lon="-1.13734">
        <ele>849.0</ele>
        <time>2019-07-31T13:04:20.094Z</time>
      </trkpt>
      <trkpt lat="42.98552" lon="-1.13732333">
        <ele>849.0</ele>
        <time>2019-07-31T13:04:21.101Z</time>
      </trkpt>
      <trkpt lat="42.985525" lon="-1.137305">
        <ele>849.0</ele>
        <time>2019-07-31T13:04:22.104Z</time>
      </trkpt>
      <trkpt lat="42.98553333" lon="-1.13729">
        <ele>849.0</ele>
        <time>2019-07-31T13:04:23.109Z</time>
      </trkpt>
      <trkpt lat="42.985535" lon="-1.13727667">
        <ele>848.0</ele>
        <time>2019-07-31T13:04:24.115Z</time>
      </trkpt>
      <trkpt lat="42.98554167" lon="-1.13726167">
        <ele>848.0</ele>
        <time>2019-07-31T13:04:25.121Z</time>
      </trkpt>
      <trkpt lat="42.98554333" lon="-1.13724">
        <ele>848.0</ele>
        <time>2019-07-31T13:04:26.126Z</time>
      </trkpt>
      <trkpt lat="42.98554" lon="-1.13721667">
        <ele>849.0</ele>
        <time>2019-07-31T13:04:27.129Z</time>
      </trkpt>
      <trkpt lat="42.98553" lon="-1.13719667">
        <ele>849.0</ele>
        <time>2019-07-31T13:04:28.133Z</time>
      </trkpt>
      <trkpt lat="42.98553" lon="-1.13717667">
        <ele>849.0</ele>
        <time>2019-07-31T13:04:29.138Z</time>
      </trkpt>
      <trkpt lat="42.985525" lon="-1.13715333">
        <ele>850.0</ele>
        <time>2019-07-31T13:04:30.142Z</time>
      </trkpt>
      <trkpt lat="42.985525" lon="-1.13713167">
        <ele>851.0</ele>
        <time>2019-07-31T13:04:31.148Z</time>
      </trkpt>
      <trkpt lat="42.98552333" lon="-1.13711667">
        <ele>851.0</ele>
        <time>2019-07-31T13:04:32.151Z</time>
      </trkpt>
      <trkpt lat="42.98552167" lon="-1.13710333">
        <ele>852.0</ele>
        <time>2019-07-31T13:04:33.157Z</time>
      </trkpt>
      <trkpt lat="42.98551833" lon="-1.13708833">
        <ele>853.0</ele>
        <time>2019-07-31T13:04:34.161Z</time>
      </trkpt>
      <trkpt lat="42.98551333" lon="-1.13707333">
        <ele>853.0</ele>
        <time>2019-07-31T13:04:35.168Z</time>
      </trkpt>
      <trkpt lat="42.98551833" lon="-1.13706167">
        <ele>853.0</ele>
        <time>2019-07-31T13:04:36.174Z</time>
      </trkpt>
      <trkpt lat="42.98552333" lon="-1.13704333">
        <ele>853.0</ele>
        <time>2019-07-31T13:04:37.181Z</time>
      </trkpt>
      <trkpt lat="42.98553" lon="-1.13702667">
        <ele>854.0</ele>
        <time>2019-07-31T13:04:38.063Z</time>
      </trkpt>
      <trkpt lat="42.98554167" lon="-1.13701">
        <ele>855.0</ele>
        <time>2019-07-31T13:04:39.069Z</time>
      </trkpt>
      <trkpt lat="42.985555" lon="-1.13699833">
        <ele>855.0</ele>
        <time>2019-07-31T13:04:40.074Z</time>
      </trkpt>
      <trkpt lat="42.98556667" lon="-1.136985">
        <ele>856.0</ele>
        <time>2019-07-31T13:04:41.078Z</time>
      </trkpt>
      <trkpt lat="42.98557833" lon="-1.13697333">
        <ele>855.0</ele>
        <time>2019-07-31T13:04:42.084Z</time>
      </trkpt>
      <trkpt lat="42.98558833" lon="-1.13696">
        <ele>855.0</ele>
        <time>2019-07-31T13:04:43.090Z</time>
      </trkpt>
      <trkpt lat="42.98559667" lon="-1.13694667">
        <ele>856.0</ele>
        <time>2019-07-31T13:04:44.096Z</time>
      </trkpt>
      <trkpt lat="42.98560333" lon="-1.13693">
        <ele>856.0</ele>
        <time>2019-07-31T13:04:45.100Z</time>
      </trkpt>
      <trkpt lat="42.98561167" lon="-1.136915">
        <ele>856.0</ele>
        <time>2019-07-31T13:04:46.106Z</time>
      </trkpt>
      <trkpt lat="42.98561333" lon="-1.13690333">
        <ele>855.0</ele>
        <time>2019-07-31T13:04:47.110Z</time>
      </trkpt>
      <trkpt lat="42.98561333" lon="-1.13689333">
        <ele>856.0</ele>
        <time>2019-07-31T13:04:48.113Z</time>
      </trkpt>
      <trkpt lat="42.98561333" lon="-1.13688">
        <ele>856.0</ele>
        <time>2019-07-31T13:04:49.118Z</time>
      </trkpt>
      <trkpt lat="42.98562167" lon="-1.13686667">
        <ele>856.0</ele>
        <time>2019-07-31T13:04:50.123Z</time>
      </trkpt>
      <trkpt lat="42.98563833" lon="-1.13685833">
        <ele>856.0</ele>
        <time>2019-07-31T13:04:51.129Z</time>
      </trkpt>
      <trkpt lat="42.98564833" lon="-1.13684833">
        <ele>856.0</ele>
        <time>2019-07-31T13:04:52.136Z</time>
      </trkpt>
      <trkpt lat="42.98565833" lon="-1.13684">
        <ele>856.0</ele>
        <time>2019-07-31T13:04:53.139Z</time>
      </trkpt>
      <trkpt lat="42.98566333" lon="-1.13683167">
        <ele>856.0</ele>
        <time>2019-07-31T13:04:54.145Z</time>
      </trkpt>
      <trkpt lat="42.98566667" lon="-1.13682">
        <ele>855.0</ele>
        <time>2019-07-31T13:04:55.152Z</time>
      </trkpt>
      <trkpt lat="42.98567167" lon="-1.13681">
        <ele>855.0</ele>
        <time>2019-07-31T13:04:56.157Z</time>
      </trkpt>
      <trkpt lat="42.98567667" lon="-1.13679667">
        <ele>854.0</ele>
        <time>2019-07-31T13:04:57.163Z</time>
      </trkpt>
      <trkpt lat="42.985685" lon="-1.13678">
        <ele>853.0</ele>
        <time>2019-07-31T13:04:58.168Z</time>
      </trkpt>
      <trkpt lat="42.98568833" lon="-1.13676">
        <ele>852.0</ele>
        <time>2019-07-31T13:04:59.174Z</time>
      </trkpt>
      <trkpt lat="42.98569167" lon="-1.136745">
        <ele>851.0</ele>
        <time>2019-07-31T13:05:00.178Z</time>
      </trkpt>
      <trkpt lat="42.985695" lon="-1.13673333">
        <ele>850.0</ele>
        <time>2019-07-31T13:05:01.184Z</time>
      </trkpt>
      <trkpt lat="42.98569667" lon="-1.136725">
        <ele>850.0</ele>
        <time>2019-07-31T13:05:02.064Z</time>
      </trkpt>
      <trkpt lat="42.98570167" lon="-1.13671667">
        <ele>850.0</ele>
        <time>2019-07-31T13:05:03.069Z</time>
      </trkpt>
      <trkpt lat="42.98570667" lon="-1.13670833">
        <ele>849.0</ele>
        <time>2019-07-31T13:05:04.073Z</time>
      </trkpt>
      <trkpt lat="42.985715" lon="-1.13670167">
        <ele>848.0</ele>
        <time>2019-07-31T13:05:05.080Z</time>
      </trkpt>
      <trkpt lat="42.985725" lon="-1.13669167">
        <ele>847.0</ele>
        <time>2019-07-31T13:05:06.086Z</time>
      </trkpt>
      <trkpt lat="42.98572833" lon="-1.13668333">
        <ele>845.0</ele>
        <time>2019-07-31T13:05:07.091Z</time>
      </trkpt>
      <trkpt lat="42.98573333" lon="-1.136675">
        <ele>844.0</ele>
        <time>2019-07-31T13:05:08.097Z</time>
      </trkpt>
      <trkpt lat="42.985745" lon="-1.13666667">
        <ele>842.0</ele>
        <time>2019-07-31T13:05:09.102Z</time>
      </trkpt>
      <trkpt lat="42.98575333" lon="-1.13665667">
        <ele>841.0</ele>
        <time>2019-07-31T13:05:10.106Z</time>
      </trkpt>
      <trkpt lat="42.98575833" lon="-1.13665167">
        <ele>841.0</ele>
        <time>2019-07-31T13:05:11.110Z</time>
      </trkpt>
      <trkpt lat="42.98576667" lon="-1.13664167">
        <ele>839.0</ele>
        <time>2019-07-31T13:05:12.116Z</time>
      </trkpt>
      <trkpt lat="42.98577333" lon="-1.13663167">
        <ele>838.0</ele>
        <time>2019-07-31T13:05:13.123Z</time>
      </trkpt>
      <trkpt lat="42.98578" lon="-1.13662333">
        <ele>838.0</ele>
        <time>2019-07-31T13:05:14.128Z</time>
      </trkpt>
      <trkpt lat="42.98578833" lon="-1.136615">
        <ele>838.0</ele>
        <time>2019-07-31T13:05:15.132Z</time>
      </trkpt>
      <trkpt lat="42.98579667" lon="-1.13661">
        <ele>838.0</ele>
        <time>2019-07-31T13:05:16.139Z</time>
      </trkpt>
      <trkpt lat="42.98580833" lon="-1.136605">
        <ele>838.0</ele>
        <time>2019-07-31T13:05:17.146Z</time>
      </trkpt>
      <trkpt lat="42.985815" lon="-1.13659833">
        <ele>838.0</ele>
        <time>2019-07-31T13:05:18.151Z</time>
      </trkpt>
      <trkpt lat="42.985825" lon="-1.13659">
        <ele>838.0</ele>
        <time>2019-07-31T13:05:19.156Z</time>
      </trkpt>
      <trkpt lat="42.98583667" lon="-1.13658833">
        <ele>837.0</ele>
        <time>2019-07-31T13:05:20.163Z</time>
      </trkpt>
      <trkpt lat="42.98585" lon="-1.136585">
        <ele>837.0</ele>
        <time>2019-07-31T13:05:21.168Z</time>
      </trkpt>
      <trkpt lat="42.98585833" lon="-1.13658667">
        <ele>837.0</ele>
        <time>2019-07-31T13:05:22.174Z</time>
      </trkpt>
      <trkpt lat="42.98586833" lon="-1.13658667">
        <ele>837.0</ele>
        <time>2019-07-31T13:05:23.179Z</time>
      </trkpt>
      <trkpt lat="42.985875" lon="-1.13659167">
        <ele>837.0</ele>
        <time>2019-07-31T13:05:24.186Z</time>
      </trkpt>
      <trkpt lat="42.98588333" lon="-1.13658833">
        <ele>836.0</ele>
        <time>2019-07-31T13:05:25.066Z</time>
      </trkpt>
      <trkpt lat="42.98589" lon="-1.13658333">
        <ele>836.0</ele>
        <time>2019-07-31T13:05:26.073Z</time>
      </trkpt>
      <trkpt lat="42.98589667" lon="-1.13658333">
        <ele>837.0</ele>
        <time>2019-07-31T13:05:27.076Z</time>
      </trkpt>
      <trkpt lat="42.98590167" lon="-1.13658333">
        <ele>838.0</ele>
        <time>2019-07-31T13:05:28.079Z</time>
      </trkpt>
      <trkpt lat="42.98590667" lon="-1.136585">
        <ele>838.0</ele>
        <time>2019-07-31T13:05:29.085Z</time>
      </trkpt>
      <trkpt lat="42.98591667" lon="-1.13658833">
        <ele>839.0</ele>
        <time>2019-07-31T13:05:30.091Z</time>
      </trkpt>
      <trkpt lat="42.985925" lon="-1.13659333">
        <ele>839.0</ele>
        <time>2019-07-31T13:05:31.096Z</time>
      </trkpt>
      <trkpt lat="42.985935" lon="-1.13659833">
        <ele>838.0</ele>
        <time>2019-07-31T13:05:32.100Z</time>
      </trkpt>
      <trkpt lat="42.98594333" lon="-1.13659667">
        <ele>837.0</ele>
        <time>2019-07-31T13:05:33.107Z</time>
      </trkpt>
      <trkpt lat="42.98595167" lon="-1.13659333">
        <ele>836.0</ele>
        <time>2019-07-31T13:05:34.112Z</time>
      </trkpt>
      <trkpt lat="42.98595833" lon="-1.136595">
        <ele>836.0</ele>
        <time>2019-07-31T13:05:35.116Z</time>
      </trkpt>
      <trkpt lat="42.985965" lon="-1.13659833">
        <ele>836.0</ele>
        <time>2019-07-31T13:05:36.122Z</time>
      </trkpt>
      <trkpt lat="42.98597667" lon="-1.1366">
        <ele>836.0</ele>
        <time>2019-07-31T13:05:37.128Z</time>
      </trkpt>
      <trkpt lat="42.98598833" lon="-1.13660167">
        <ele>837.0</ele>
        <time>2019-07-31T13:05:38.134Z</time>
      </trkpt>
      <trkpt lat="42.985995" lon="-1.13660667">
        <ele>837.0</ele>
        <time>2019-07-31T13:05:39.140Z</time>
      </trkpt>
      <trkpt lat="42.986005" lon="-1.13661167">
        <ele>837.0</ele>
        <time>2019-07-31T13:05:40.145Z</time>
      </trkpt>
      <trkpt lat="42.986015" lon="-1.13661667">
        <ele>837.0</ele>
        <time>2019-07-31T13:05:41.150Z</time>
      </trkpt>
      <trkpt lat="42.98602333" lon="-1.13662">
        <ele>836.0</ele>
        <time>2019-07-31T13:05:42.154Z</time>
      </trkpt>
      <trkpt lat="42.98603333" lon="-1.13662167">
        <ele>835.0</ele>
        <time>2019-07-31T13:05:43.159Z</time>
      </trkpt>
      <trkpt lat="42.986045" lon="-1.13662167">
        <ele>835.0</ele>
        <time>2019-07-31T13:05:44.166Z</time>
      </trkpt>
      <trkpt lat="42.986055" lon="-1.13662333">
        <ele>834.0</ele>
        <time>2019-07-31T13:05:45.171Z</time>
      </trkpt>
      <trkpt lat="42.986065" lon="-1.13662667">
        <ele>833.0</ele>
        <time>2019-07-31T13:05:46.176Z</time>
      </trkpt>
      <trkpt lat="42.986075" lon="-1.13662833">
        <ele>832.0</ele>
        <time>2019-07-31T13:05:47.181Z</time>
      </trkpt>
      <trkpt lat="42.98608667" lon="-1.13663333">
        <ele>832.0</ele>
        <time>2019-07-31T13:05:48.185Z</time>
      </trkpt>
      <trkpt lat="42.986095" lon="-1.136645">
        <ele>832.0</ele>
        <time>2019-07-31T13:05:49.066Z</time>
      </trkpt>
      <trkpt lat="42.9861" lon="-1.13665667">
        <ele>832.0</ele>
        <time>2019-07-31T13:05:50.071Z</time>
      </trkpt>
      <trkpt lat="42.9861" lon="-1.13667">
        <ele>833.0</ele>
        <time>2019-07-31T13:05:51.077Z</time>
      </trkpt>
      <trkpt lat="42.98610167" lon="-1.13667833">
        <ele>832.0</ele>
        <time>2019-07-31T13:05:52.083Z</time>
      </trkpt>
      <trkpt lat="42.9861" lon="-1.13669167">
        <ele>832.0</ele>
        <time>2019-07-31T13:05:53.087Z</time>
      </trkpt>
      <trkpt lat="42.98609667" lon="-1.13670167">
        <ele>832.0</ele>
        <time>2019-07-31T13:05:54.091Z</time>
      </trkpt>
      <trkpt lat="42.98608833" lon="-1.13671167">
        <ele>831.0</ele>
        <time>2019-07-31T13:05:55.097Z</time>
      </trkpt>
      <trkpt lat="42.98608167" lon="-1.13672167">
        <ele>830.0</ele>
        <time>2019-07-31T13:05:56.103Z</time>
      </trkpt>
      <trkpt lat="42.98607333" lon="-1.13673">
        <ele>829.0</ele>
        <time>2019-07-31T13:05:57.107Z</time>
      </trkpt>
      <trkpt lat="42.98606667" lon="-1.13674">
        <ele>828.0</ele>
        <time>2019-07-31T13:05:58.111Z</time>
      </trkpt>
      <trkpt lat="42.98606" lon="-1.136755">
        <ele>828.0</ele>
        <time>2019-07-31T13:05:59.118Z</time>
      </trkpt>
      <trkpt lat="42.98605" lon="-1.13677167">
        <ele>828.0</ele>
        <time>2019-07-31T13:06:00.123Z</time>
      </trkpt>
      <trkpt lat="42.98604333" lon="-1.13678833">
        <ele>828.0</ele>
        <time>2019-07-31T13:06:01.129Z</time>
      </trkpt>
      <trkpt lat="42.98603833" lon="-1.13680833">
        <ele>827.0</ele>
        <time>2019-07-31T13:06:02.133Z</time>
      </trkpt>
      <trkpt lat="42.98603167" lon="-1.13682667">
        <ele>826.0</ele>
        <time>2019-07-31T13:06:03.140Z</time>
      </trkpt>
      <trkpt lat="42.98602833" lon="-1.13684667">
        <ele>826.0</ele>
        <time>2019-07-31T13:06:04.144Z</time>
      </trkpt>
      <trkpt lat="42.98602333" lon="-1.136865">
        <ele>826.0</ele>
        <time>2019-07-31T13:06:05.148Z</time>
      </trkpt>
      <trkpt lat="42.98602" lon="-1.13688333">
        <ele>825.0</ele>
        <time>2019-07-31T13:06:06.153Z</time>
      </trkpt>
      <trkpt lat="42.98601333" lon="-1.1369">
        <ele>825.0</ele>
        <time>2019-07-31T13:06:07.156Z</time>
      </trkpt>
      <trkpt lat="42.98600667" lon="-1.13691667">
        <ele>825.0</ele>
        <time>2019-07-31T13:06:08.162Z</time>
      </trkpt>
      <trkpt lat="42.98600333" lon="-1.136935">
        <ele>825.0</ele>
        <time>2019-07-31T13:06:09.168Z</time>
      </trkpt>
      <trkpt lat="42.98599833" lon="-1.13695333">
        <ele>824.0</ele>
        <time>2019-07-31T13:06:10.172Z</time>
      </trkpt>
      <trkpt lat="42.98599333" lon="-1.13696667">
        <ele>824.0</ele>
        <time>2019-07-31T13:06:11.177Z</time>
      </trkpt>
      <trkpt lat="42.98599" lon="-1.13698167">
        <ele>824.0</ele>
        <time>2019-07-31T13:06:12.184Z</time>
      </trkpt>
      <trkpt lat="42.98598667" lon="-1.13699667">
        <ele>823.0</ele>
        <time>2019-07-31T13:06:13.064Z</time>
      </trkpt>
      <trkpt lat="42.98598167" lon="-1.13700167">
        <ele>824.0</ele>
        <time>2019-07-31T13:06:14.071Z</time>
      </trkpt>
      <trkpt lat="42.98597667" lon="-1.13702">
        <ele>825.0</ele>
        <time>2019-07-31T13:06:15.077Z</time>
      </trkpt>
      <trkpt lat="42.98597167" lon="-1.13704">
        <ele>825.0</ele>
        <time>2019-07-31T13:06:16.083Z</time>
      </trkpt>
      <trkpt lat="42.98597167" lon="-1.13706">
        <ele>825.0</ele>
        <time>2019-07-31T13:06:17.087Z</time>
      </trkpt>
      <trkpt lat="42.98597167" lon="-1.13707833">
        <ele>824.0</ele>
        <time>2019-07-31T13:06:18.091Z</time>
      </trkpt>
      <trkpt lat="42.98597333" lon="-1.13709667">
        <ele>824.0</ele>
        <time>2019-07-31T13:06:19.097Z</time>
      </trkpt>
      <trkpt lat="42.98597833" lon="-1.13711333">
        <ele>824.0</ele>
        <time>2019-07-31T13:06:20.101Z</time>
      </trkpt>
      <trkpt lat="42.985985" lon="-1.13713">
        <ele>824.0</ele>
        <time>2019-07-31T13:06:21.106Z</time>
      </trkpt>
      <trkpt lat="42.98599167" lon="-1.137145">
        <ele>823.0</ele>
        <time>2019-07-31T13:06:22.112Z</time>
      </trkpt>
      <trkpt lat="42.986" lon="-1.137155">
        <ele>823.0</ele>
        <time>2019-07-31T13:06:23.118Z</time>
      </trkpt>
      <trkpt lat="42.986005" lon="-1.137165">
        <ele>823.0</ele>
        <time>2019-07-31T13:06:24.123Z</time>
      </trkpt>
      <trkpt lat="42.98601167" lon="-1.13717667">
        <ele>823.0</ele>
        <time>2019-07-31T13:06:25.129Z</time>
      </trkpt>
      <trkpt lat="42.98601667" lon="-1.13719333">
        <ele>822.0</ele>
        <time>2019-07-31T13:06:26.132Z</time>
      </trkpt>
      <trkpt lat="42.98602333" lon="-1.13720833">
        <ele>822.0</ele>
        <time>2019-07-31T13:06:27.140Z</time>
      </trkpt>
      <trkpt lat="42.98603333" lon="-1.13721667">
        <ele>821.0</ele>
        <time>2019-07-31T13:06:28.146Z</time>
      </trkpt>
      <trkpt lat="42.98604167" lon="-1.137225">
        <ele>820.0</ele>
        <time>2019-07-31T13:06:29.152Z</time>
      </trkpt>
      <trkpt lat="42.98605167" lon="-1.13724167">
        <ele>820.0</ele>
        <time>2019-07-31T13:06:30.158Z</time>
      </trkpt>
      <trkpt lat="42.98605833" lon="-1.13726">
        <ele>819.0</ele>
        <time>2019-07-31T13:06:31.163Z</time>
      </trkpt>
      <trkpt lat="42.986065" lon="-1.137275">
        <ele>820.0</ele>
        <time>2019-07-31T13:06:32.168Z</time>
      </trkpt>
      <trkpt lat="42.98607" lon="-1.13728833">
        <ele>820.0</ele>
        <time>2019-07-31T13:06:33.174Z</time>
      </trkpt>
      <trkpt lat="42.98607833" lon="-1.13729833">
        <ele>820.0</ele>
        <time>2019-07-31T13:06:34.180Z</time>
      </trkpt>
      <trkpt lat="42.98608833" lon="-1.13731">
        <ele>820.0</ele>
        <time>2019-07-31T13:06:35.185Z</time>
      </trkpt>
      <trkpt lat="42.98609667" lon="-1.13732333">
        <ele>820.0</ele>
        <time>2019-07-31T13:06:36.066Z</time>
      </trkpt>
      <trkpt lat="42.986105" lon="-1.137335">
        <ele>820.0</ele>
        <time>2019-07-31T13:06:37.071Z</time>
      </trkpt>
      <trkpt lat="42.98611167" lon="-1.13734833">
        <ele>819.0</ele>
        <time>2019-07-31T13:06:38.077Z</time>
      </trkpt>
      <trkpt lat="42.98611667" lon="-1.137365">
        <ele>819.0</ele>
        <time>2019-07-31T13:06:39.082Z</time>
      </trkpt>
      <trkpt lat="42.98612167" lon="-1.13738167">
        <ele>819.0</ele>
        <time>2019-07-31T13:06:40.089Z</time>
      </trkpt>
      <trkpt lat="42.98612167" lon="-1.13739167">
        <ele>819.0</ele>
        <time>2019-07-31T13:06:41.094Z</time>
      </trkpt>
      <trkpt lat="42.98612" lon="-1.1374">
        <ele>819.0</ele>
        <time>2019-07-31T13:06:42.100Z</time>
      </trkpt>
      <trkpt lat="42.98612167" lon="-1.13741">
        <ele>819.0</ele>
        <time>2019-07-31T13:06:43.105Z</time>
      </trkpt>
      <trkpt lat="42.98612167" lon="-1.13741833">
        <ele>818.0</ele>
        <time>2019-07-31T13:06:44.110Z</time>
      </trkpt>
      <trkpt lat="42.98612167" lon="-1.13742167">
        <ele>818.0</ele>
        <time>2019-07-31T13:06:45.114Z</time>
      </trkpt>
      <trkpt lat="42.98611833" lon="-1.13742667">
        <ele>818.0</ele>
        <time>2019-07-31T13:06:46.120Z</time>
      </trkpt>
      <trkpt lat="42.98611667" lon="-1.13743167">
        <ele>818.0</ele>
        <time>2019-07-31T13:06:47.126Z</time>
      </trkpt>
      <trkpt lat="42.98611667" lon="-1.13743">
        <ele>819.0</ele>
        <time>2019-07-31T13:06:48.130Z</time>
      </trkpt>
      <trkpt lat="42.986115" lon="-1.13743">
        <ele>819.0</ele>
        <time>2019-07-31T13:06:49.134Z</time>
      </trkpt>
      <trkpt lat="42.986115" lon="-1.13743167">
        <ele>820.0</ele>
        <time>2019-07-31T13:06:50.141Z</time>
      </trkpt>
      <trkpt lat="42.98611167" lon="-1.13743333">
        <ele>821.0</ele>
        <time>2019-07-31T13:06:51.147Z</time>
      </trkpt>
      <trkpt lat="42.98611333" lon="-1.13743333">
        <ele>822.0</ele>
        <time>2019-07-31T13:06:52.155Z</time>
      </trkpt>
      <trkpt lat="42.98611333" lon="-1.13744">
        <ele>822.0</ele>
        <time>2019-07-31T13:06:53.161Z</time>
      </trkpt>
      <trkpt lat="42.98611333" lon="-1.13745333">
        <ele>822.0</ele>
        <time>2019-07-31T13:06:54.166Z</time>
      </trkpt>
      <trkpt lat="42.98611667" lon="-1.13746667">
        <ele>822.0</ele>
        <time>2019-07-31T13:06:55.171Z</time>
      </trkpt>
      <trkpt lat="42.98612" lon="-1.13747667">
        <ele>823.0</ele>
        <time>2019-07-31T13:06:56.176Z</time>
      </trkpt>
      <trkpt lat="42.986125" lon="-1.13748667">
        <ele>824.0</ele>
        <time>2019-07-31T13:06:57.183Z</time>
      </trkpt>
      <trkpt lat="42.986125" lon="-1.13749667">
        <ele>824.0</ele>
        <time>2019-07-31T13:06:58.061Z</time>
      </trkpt>
      <trkpt lat="42.98612333" lon="-1.13751333">
        <ele>825.0</ele>
        <time>2019-07-31T13:06:59.068Z</time>
      </trkpt>
      <trkpt lat="42.98612333" lon="-1.137525">
        <ele>825.0</ele>
        <time>2019-07-31T13:07:00.074Z</time>
      </trkpt>
      <trkpt lat="42.986125" lon="-1.13753333">
        <ele>826.0</ele>
        <time>2019-07-31T13:07:01.081Z</time>
      </trkpt>
      <trkpt lat="42.98612333" lon="-1.13754167">
        <ele>826.0</ele>
        <time>2019-07-31T13:07:02.087Z</time>
      </trkpt>
      <trkpt lat="42.98612333" lon="-1.13755">
        <ele>826.0</ele>
        <time>2019-07-31T13:07:03.091Z</time>
      </trkpt>
      <trkpt lat="42.98612167" lon="-1.137555">
        <ele>827.0</ele>
        <time>2019-07-31T13:07:04.096Z</time>
      </trkpt>
      <trkpt lat="42.98612" lon="-1.13756">
        <ele>827.0</ele>
        <time>2019-07-31T13:07:05.101Z</time>
      </trkpt>
      <trkpt lat="42.98612" lon="-1.13756">
        <ele>828.0</ele>
        <time>2019-07-31T13:07:06.105Z</time>
      </trkpt>
      <trkpt lat="42.98612" lon="-1.137565">
        <ele>829.0</ele>
        <time>2019-07-31T13:07:07.108Z</time>
      </trkpt>
      <trkpt lat="42.98612167" lon="-1.13757333">
        <ele>830.0</ele>
        <time>2019-07-31T13:07:08.112Z</time>
      </trkpt>
      <trkpt lat="42.98612167" lon="-1.13757667">
        <ele>830.0</ele>
        <time>2019-07-31T13:07:09.118Z</time>
      </trkpt>
      <trkpt lat="42.98612667" lon="-1.13757833">
        <ele>829.0</ele>
        <time>2019-07-31T13:07:10.125Z</time>
      </trkpt>
      <trkpt lat="42.98612667" lon="-1.137585">
        <ele>830.0</ele>
        <time>2019-07-31T13:07:11.131Z</time>
      </trkpt>
      <trkpt lat="42.98612667" lon="-1.13759333">
        <ele>830.0</ele>
        <time>2019-07-31T13:07:12.135Z</time>
      </trkpt>
      <trkpt lat="42.98612833" lon="-1.13760667">
        <ele>830.0</ele>
        <time>2019-07-31T13:07:13.138Z</time>
      </trkpt>
      <trkpt lat="42.98612833" lon="-1.13761833">
        <ele>830.0</ele>
        <time>2019-07-31T13:07:14.144Z</time>
      </trkpt>
      <trkpt lat="42.98612833" lon="-1.13763167">
        <ele>830.0</ele>
        <time>2019-07-31T13:07:15.149Z</time>
      </trkpt>
      <trkpt lat="42.98613167" lon="-1.13764833">
        <ele>830.0</ele>
        <time>2019-07-31T13:07:16.155Z</time>
      </trkpt>
      <trkpt lat="42.98613167" lon="-1.13766667">
        <ele>831.0</ele>
        <time>2019-07-31T13:07:17.160Z</time>
      </trkpt>
      <trkpt lat="42.98613333" lon="-1.13768833">
        <ele>830.0</ele>
        <time>2019-07-31T13:07:18.165Z</time>
      </trkpt>
      <trkpt lat="42.98613833" lon="-1.137705">
        <ele>829.0</ele>
        <time>2019-07-31T13:07:19.170Z</time>
      </trkpt>
      <trkpt lat="42.98614333" lon="-1.13772">
        <ele>828.0</ele>
        <time>2019-07-31T13:07:20.174Z</time>
      </trkpt>
      <trkpt lat="42.98615" lon="-1.13773667">
        <ele>828.0</ele>
        <time>2019-07-31T13:07:21.179Z</time>
      </trkpt>
      <trkpt lat="42.98615667" lon="-1.13775667">
        <ele>827.0</ele>
        <time>2019-07-31T13:07:22.184Z</time>
      </trkpt>
      <trkpt lat="42.986165" lon="-1.13777333">
        <ele>827.0</ele>
        <time>2019-07-31T13:07:23.064Z</time>
      </trkpt>
      <trkpt lat="42.986175" lon="-1.13779167">
        <ele>826.0</ele>
        <time>2019-07-31T13:07:24.071Z</time>
      </trkpt>
      <trkpt lat="42.98618667" lon="-1.13781167">
        <ele>826.0</ele>
        <time>2019-07-31T13:07:25.077Z</time>
      </trkpt>
      <trkpt lat="42.98619333" lon="-1.13782333">
        <ele>827.0</ele>
        <time>2019-07-31T13:07:26.082Z</time>
      </trkpt>
      <trkpt lat="42.98620167" lon="-1.13784">
        <ele>827.0</ele>
        <time>2019-07-31T13:07:27.086Z</time>
      </trkpt>
      <trkpt lat="42.98620833" lon="-1.137855">
        <ele>828.0</ele>
        <time>2019-07-31T13:07:28.091Z</time>
      </trkpt>
      <trkpt lat="42.986215" lon="-1.13787">
        <ele>828.0</ele>
        <time>2019-07-31T13:07:29.096Z</time>
      </trkpt>
      <trkpt lat="42.986225" lon="-1.13788667">
        <ele>828.0</ele>
        <time>2019-07-31T13:07:30.103Z</time>
      </trkpt>
      <trkpt lat="42.986235" lon="-1.137905">
        <ele>829.0</ele>
        <time>2019-07-31T13:07:31.108Z</time>
      </trkpt>
      <trkpt lat="42.986245" lon="-1.13792167">
        <ele>829.0</ele>
        <time>2019-07-31T13:07:32.112Z</time>
      </trkpt>
      <trkpt lat="42.98625167" lon="-1.13793667">
        <ele>829.0</ele>
        <time>2019-07-31T13:07:33.114Z</time>
      </trkpt>
      <trkpt lat="42.98626" lon="-1.13795167">
        <ele>829.0</ele>
        <time>2019-07-31T13:07:34.120Z</time>
      </trkpt>
      <trkpt lat="42.98627167" lon="-1.13796167">
        <ele>829.0</ele>
        <time>2019-07-31T13:07:35.127Z</time>
      </trkpt>
      <trkpt lat="42.98628333" lon="-1.13797333">
        <ele>829.0</ele>
        <time>2019-07-31T13:07:36.132Z</time>
      </trkpt>
      <trkpt lat="42.9863" lon="-1.13799">
        <ele>829.0</ele>
        <time>2019-07-31T13:07:37.133Z</time>
      </trkpt>
      <trkpt lat="42.986315" lon="-1.13800667">
        <ele>829.0</ele>
        <time>2019-07-31T13:07:38.136Z</time>
      </trkpt>
      <trkpt lat="42.98632667" lon="-1.13803333">
        <ele>829.0</ele>
        <time>2019-07-31T13:07:39.141Z</time>
      </trkpt>
      <trkpt lat="42.98634" lon="-1.13805167">
        <ele>829.0</ele>
        <time>2019-07-31T13:07:40.148Z</time>
      </trkpt>
      <trkpt lat="42.98634833" lon="-1.138065">
        <ele>830.0</ele>
        <time>2019-07-31T13:07:41.153Z</time>
      </trkpt>
      <trkpt lat="42.98635833" lon="-1.13807667">
        <ele>831.0</ele>
        <time>2019-07-31T13:07:42.158Z</time>
      </trkpt>
      <trkpt lat="42.98636667" lon="-1.13809167">
        <ele>832.0</ele>
        <time>2019-07-31T13:07:43.166Z</time>
      </trkpt>
      <trkpt lat="42.98637333" lon="-1.13810667">
        <ele>832.0</ele>
        <time>2019-07-31T13:07:44.171Z</time>
      </trkpt>
      <trkpt lat="42.98637667" lon="-1.13812167">
        <ele>832.0</ele>
        <time>2019-07-31T13:07:45.175Z</time>
      </trkpt>
      <trkpt lat="42.98639167" lon="-1.13813667">
        <ele>831.0</ele>
        <time>2019-07-31T13:07:46.179Z</time>
      </trkpt>
      <trkpt lat="42.98640667" lon="-1.13815167">
        <ele>831.0</ele>
        <time>2019-07-31T13:07:47.062Z</time>
      </trkpt>
      <trkpt lat="42.98642" lon="-1.13817">
        <ele>831.0</ele>
        <time>2019-07-31T13:07:48.069Z</time>
      </trkpt>
      <trkpt lat="42.98643167" lon="-1.13818667">
        <ele>830.0</ele>
        <time>2019-07-31T13:07:49.074Z</time>
      </trkpt>
      <trkpt lat="42.986445" lon="-1.138205">
        <ele>829.0</ele>
        <time>2019-07-31T13:07:50.078Z</time>
      </trkpt>
      <trkpt lat="42.98646" lon="-1.13822">
        <ele>828.0</ele>
        <time>2019-07-31T13:07:51.083Z</time>
      </trkpt>
      <trkpt lat="42.986475" lon="-1.138235">
        <ele>827.0</ele>
        <time>2019-07-31T13:07:52.088Z</time>
      </trkpt>
      <trkpt lat="42.98649" lon="-1.138255">
        <ele>826.0</ele>
        <time>2019-07-31T13:07:53.094Z</time>
      </trkpt>
      <trkpt lat="42.98651167" lon="-1.13827333">
        <ele>826.0</ele>
        <time>2019-07-31T13:07:54.101Z</time>
      </trkpt>
      <trkpt lat="42.98652667" lon="-1.13828333">
        <ele>825.0</ele>
        <time>2019-07-31T13:07:55.107Z</time>
      </trkpt>
      <trkpt lat="42.98654833" lon="-1.13829667">
        <ele>824.0</ele>
        <time>2019-07-31T13:07:56.113Z</time>
      </trkpt>
      <trkpt lat="42.986565" lon="-1.138315">
        <ele>824.0</ele>
        <time>2019-07-31T13:07:57.118Z</time>
      </trkpt>
      <trkpt lat="42.98658" lon="-1.13833333">
        <ele>823.0</ele>
        <time>2019-07-31T13:07:58.124Z</time>
      </trkpt>
      <trkpt lat="42.98659667" lon="-1.13833833">
        <ele>825.0</ele>
        <time>2019-07-31T13:07:59.128Z</time>
      </trkpt>
      <trkpt lat="42.98661" lon="-1.13834667">
        <ele>825.0</ele>
        <time>2019-07-31T13:08:00.132Z</time>
      </trkpt>
      <trkpt lat="42.98663" lon="-1.13835333">
        <ele>825.0</ele>
        <time>2019-07-31T13:08:01.138Z</time>
      </trkpt>
      <trkpt lat="42.98665" lon="-1.13836">
        <ele>824.0</ele>
        <time>2019-07-31T13:08:02.144Z</time>
      </trkpt>
      <trkpt lat="42.98666667" lon="-1.13837">
        <ele>825.0</ele>
        <time>2019-07-31T13:08:03.151Z</time>
      </trkpt>
      <trkpt lat="42.98667833" lon="-1.13838333">
        <ele>825.0</ele>
        <time>2019-07-31T13:08:04.156Z</time>
      </trkpt>
      <trkpt lat="42.98669833" lon="-1.13838667">
        <ele>825.0</ele>
        <time>2019-07-31T13:08:05.162Z</time>
      </trkpt>
      <trkpt lat="42.98671333" lon="-1.13839333">
        <ele>825.0</ele>
        <time>2019-07-31T13:08:06.167Z</time>
      </trkpt>
      <trkpt lat="42.98672667" lon="-1.1384">
        <ele>826.0</ele>
        <time>2019-07-31T13:08:07.170Z</time>
      </trkpt>
      <trkpt lat="42.98674333" lon="-1.13840833">
        <ele>826.0</ele>
        <time>2019-07-31T13:08:08.175Z</time>
      </trkpt>
      <trkpt lat="42.986755" lon="-1.13841833">
        <ele>827.0</ele>
        <time>2019-07-31T13:08:09.180Z</time>
      </trkpt>
      <trkpt lat="42.98676833" lon="-1.13842833">
        <ele>827.0</ele>
        <time>2019-07-31T13:08:10.186Z</time>
      </trkpt>
      <trkpt lat="42.98678167" lon="-1.13843333">
        <ele>828.0</ele>
        <time>2019-07-31T13:08:11.066Z</time>
      </trkpt>
      <trkpt lat="42.98679833" lon="-1.13842833">
        <ele>828.0</ele>
        <time>2019-07-31T13:08:12.073Z</time>
      </trkpt>
      <trkpt lat="42.98681167" lon="-1.13843333">
        <ele>829.0</ele>
        <time>2019-07-31T13:08:13.077Z</time>
      </trkpt>
      <trkpt lat="42.98683" lon="-1.13843667">
        <ele>829.0</ele>
        <time>2019-07-31T13:08:14.083Z</time>
      </trkpt>
      <trkpt lat="42.98685" lon="-1.13844333">
        <ele>828.0</ele>
        <time>2019-07-31T13:08:15.088Z</time>
      </trkpt>
      <trkpt lat="42.98687167" lon="-1.138445">
        <ele>828.0</ele>
        <time>2019-07-31T13:08:16.092Z</time>
      </trkpt>
      <trkpt lat="42.98688833" lon="-1.13844667">
        <ele>828.0</ele>
        <time>2019-07-31T13:08:17.099Z</time>
      </trkpt>
      <trkpt lat="42.98689833" lon="-1.13845">
        <ele>828.0</ele>
        <time>2019-07-31T13:08:18.105Z</time>
      </trkpt>
      <trkpt lat="42.98691167" lon="-1.13845833">
        <ele>829.0</ele>
        <time>2019-07-31T13:08:19.109Z</time>
      </trkpt>
      <trkpt lat="42.986925" lon="-1.13847">
        <ele>829.0</ele>
        <time>2019-07-31T13:08:20.113Z</time>
      </trkpt>
      <trkpt lat="42.98694333" lon="-1.13847667">
        <ele>829.0</ele>
        <time>2019-07-31T13:08:21.117Z</time>
      </trkpt>
      <trkpt lat="42.986955" lon="-1.13848333">
        <ele>830.0</ele>
        <time>2019-07-31T13:08:22.122Z</time>
      </trkpt>
      <trkpt lat="42.98696667" lon="-1.13848667">
        <ele>831.0</ele>
        <time>2019-07-31T13:08:23.127Z</time>
      </trkpt>
      <trkpt lat="42.98698" lon="-1.13849667">
        <ele>831.0</ele>
        <time>2019-07-31T13:08:24.133Z</time>
      </trkpt>
      <trkpt lat="42.98699" lon="-1.13850833">
        <ele>832.0</ele>
        <time>2019-07-31T13:08:25.140Z</time>
      </trkpt>
      <trkpt lat="42.98701167" lon="-1.138515">
        <ele>832.0</ele>
        <time>2019-07-31T13:08:26.145Z</time>
      </trkpt>
      <trkpt lat="42.98702" lon="-1.13852">
        <ele>832.0</ele>
        <time>2019-07-31T13:08:27.151Z</time>
      </trkpt>
      <trkpt lat="42.98703333" lon="-1.13852333">
        <ele>832.0</ele>
        <time>2019-07-31T13:08:28.156Z</time>
      </trkpt>
      <trkpt lat="42.98705" lon="-1.13852167">
        <ele>833.0</ele>
        <time>2019-07-31T13:08:29.164Z</time>
      </trkpt>
      <trkpt lat="42.98706" lon="-1.13852">
        <ele>834.0</ele>
        <time>2019-07-31T13:08:30.170Z</time>
      </trkpt>
      <trkpt lat="42.98707667" lon="-1.13852167">
        <ele>834.0</ele>
        <time>2019-07-31T13:08:31.174Z</time>
      </trkpt>
      <trkpt lat="42.987085" lon="-1.13852333">
        <ele>834.0</ele>
        <time>2019-07-31T13:08:32.178Z</time>
      </trkpt>
      <trkpt lat="42.9871" lon="-1.13853333">
        <ele>833.0</ele>
        <time>2019-07-31T13:08:33.184Z</time>
      </trkpt>
      <trkpt lat="42.98711333" lon="-1.13854167">
        <ele>832.0</ele>
        <time>2019-07-31T13:08:34.064Z</time>
      </trkpt>
      <trkpt lat="42.98712667" lon="-1.13854833">
        <ele>831.0</ele>
        <time>2019-07-31T13:08:35.070Z</time>
      </trkpt>
      <trkpt lat="42.98714333" lon="-1.13855333">
        <ele>830.0</ele>
        <time>2019-07-31T13:08:36.077Z</time>
      </trkpt>
      <trkpt lat="42.98715667" lon="-1.13855333">
        <ele>829.0</ele>
        <time>2019-07-31T13:08:37.082Z</time>
      </trkpt>
      <trkpt lat="42.98717333" lon="-1.13855167">
        <ele>830.0</ele>
        <time>2019-07-31T13:08:38.088Z</time>
      </trkpt>
      <trkpt lat="42.98719" lon="-1.13854667">
        <ele>830.0</ele>
        <time>2019-07-31T13:08:39.093Z</time>
      </trkpt>
      <trkpt lat="42.98720667" lon="-1.13855167">
        <ele>830.0</ele>
        <time>2019-07-31T13:08:40.096Z</time>
      </trkpt>
      <trkpt lat="42.98722" lon="-1.13855333">
        <ele>830.0</ele>
        <time>2019-07-31T13:08:41.101Z</time>
      </trkpt>
      <trkpt lat="42.98723333" lon="-1.13855833">
        <ele>830.0</ele>
        <time>2019-07-31T13:08:42.104Z</time>
      </trkpt>
      <trkpt lat="42.98725" lon="-1.13856167">
        <ele>831.0</ele>
        <time>2019-07-31T13:08:43.107Z</time>
      </trkpt>
      <trkpt lat="42.98726333" lon="-1.138565">
        <ele>831.0</ele>
        <time>2019-07-31T13:08:44.112Z</time>
      </trkpt>
      <trkpt lat="42.98727667" lon="-1.138575">
        <ele>832.0</ele>
        <time>2019-07-31T13:08:45.116Z</time>
      </trkpt>
      <trkpt lat="42.98729" lon="-1.138585">
        <ele>831.0</ele>
        <time>2019-07-31T13:08:46.122Z</time>
      </trkpt>
      <trkpt lat="42.98731167" lon="-1.138595">
        <ele>831.0</ele>
        <time>2019-07-31T13:08:47.127Z</time>
      </trkpt>
      <trkpt lat="42.98732833" lon="-1.138605">
        <ele>832.0</ele>
        <time>2019-07-31T13:08:48.128Z</time>
      </trkpt>
      <trkpt lat="42.98733833" lon="-1.13861">
        <ele>833.0</ele>
        <time>2019-07-31T13:08:49.134Z</time>
      </trkpt>
      <trkpt lat="42.98734667" lon="-1.13861167">
        <ele>833.0</ele>
        <time>2019-07-31T13:08:50.139Z</time>
      </trkpt>
      <trkpt lat="42.987355" lon="-1.13861167">
        <ele>834.0</ele>
        <time>2019-07-31T13:08:51.144Z</time>
      </trkpt>
      <trkpt lat="42.98737667" lon="-1.13862">
        <ele>834.0</ele>
        <time>2019-07-31T13:08:52.150Z</time>
      </trkpt>
      <trkpt lat="42.98739833" lon="-1.13862667">
        <ele>834.0</ele>
        <time>2019-07-31T13:08:53.156Z</time>
      </trkpt>
      <trkpt lat="42.98741333" lon="-1.13863167">
        <ele>834.0</ele>
        <time>2019-07-31T13:08:54.163Z</time>
      </trkpt>
      <trkpt lat="42.987425" lon="-1.13864833">
        <ele>834.0</ele>
        <time>2019-07-31T13:08:55.169Z</time>
      </trkpt>
      <trkpt lat="42.98743667" lon="-1.13865833">
        <ele>833.0</ele>
        <time>2019-07-31T13:08:56.175Z</time>
      </trkpt>
      <trkpt lat="42.98744667" lon="-1.138675">
        <ele>833.0</ele>
        <time>2019-07-31T13:08:57.182Z</time>
      </trkpt>
      <trkpt lat="42.98746333" lon="-1.13868333">
        <ele>832.0</ele>
        <time>2019-07-31T13:08:58.064Z</time>
      </trkpt>
      <trkpt lat="42.98747833" lon="-1.13869333">
        <ele>833.0</ele>
        <time>2019-07-31T13:08:59.067Z</time>
      </trkpt>
      <trkpt lat="42.98749667" lon="-1.13869833">
        <ele>834.0</ele>
        <time>2019-07-31T13:09:00.072Z</time>
      </trkpt>
      <trkpt lat="42.98750833" lon="-1.13871">
        <ele>834.0</ele>
        <time>2019-07-31T13:09:01.077Z</time>
      </trkpt>
      <trkpt lat="42.987525" lon="-1.138715">
        <ele>834.0</ele>
        <time>2019-07-31T13:09:02.082Z</time>
      </trkpt>
      <trkpt lat="42.987545" lon="-1.13871667">
        <ele>834.0</ele>
        <time>2019-07-31T13:09:03.084Z</time>
      </trkpt>
      <trkpt lat="42.98756167" lon="-1.13872667">
        <ele>834.0</ele>
        <time>2019-07-31T13:09:04.091Z</time>
      </trkpt>
      <trkpt lat="42.98757667" lon="-1.13873333">
        <ele>834.0</ele>
        <time>2019-07-31T13:09:05.096Z</time>
      </trkpt>
      <trkpt lat="42.987585" lon="-1.13873333">
        <ele>835.0</ele>
        <time>2019-07-31T13:09:06.102Z</time>
      </trkpt>
      <trkpt lat="42.9876" lon="-1.13873333">
        <ele>836.0</ele>
        <time>2019-07-31T13:09:07.108Z</time>
      </trkpt>
      <trkpt lat="42.98761667" lon="-1.13874167">
        <ele>835.0</ele>
        <time>2019-07-31T13:09:08.114Z</time>
      </trkpt>
      <trkpt lat="42.98763167" lon="-1.13875">
        <ele>835.0</ele>
        <time>2019-07-31T13:09:09.120Z</time>
      </trkpt>
      <trkpt lat="42.987645" lon="-1.13875333">
        <ele>834.0</ele>
        <time>2019-07-31T13:09:10.127Z</time>
      </trkpt>
      <trkpt lat="42.987655" lon="-1.13875833">
        <ele>834.0</ele>
        <time>2019-07-31T13:09:11.132Z</time>
      </trkpt>
      <trkpt lat="42.98767333" lon="-1.13876667">
        <ele>833.0</ele>
        <time>2019-07-31T13:09:12.135Z</time>
      </trkpt>
      <trkpt lat="42.987685" lon="-1.138765">
        <ele>834.0</ele>
        <time>2019-07-31T13:09:13.140Z</time>
      </trkpt>
      <trkpt lat="42.98769" lon="-1.13877">
        <ele>834.0</ele>
        <time>2019-07-31T13:09:14.146Z</time>
      </trkpt>
      <trkpt lat="42.98770167" lon="-1.13877667">
        <ele>835.0</ele>
        <time>2019-07-31T13:09:15.153Z</time>
      </trkpt>
      <trkpt lat="42.98771333" lon="-1.13878">
        <ele>834.0</ele>
        <time>2019-07-31T13:09:16.159Z</time>
      </trkpt>
      <trkpt lat="42.98772333" lon="-1.13878167">
        <ele>834.0</ele>
        <time>2019-07-31T13:09:17.163Z</time>
      </trkpt>
      <trkpt lat="42.987735" lon="-1.13878333">
        <ele>834.0</ele>
        <time>2019-07-31T13:09:18.170Z</time>
      </trkpt>
      <trkpt lat="42.987745" lon="-1.138785">
        <ele>833.0</ele>
        <time>2019-07-31T13:09:19.174Z</time>
      </trkpt>
      <trkpt lat="42.98775333" lon="-1.13878667">
        <ele>833.0</ele>
        <time>2019-07-31T13:09:20.178Z</time>
      </trkpt>
      <trkpt lat="42.98777" lon="-1.13879">
        <ele>833.0</ele>
        <time>2019-07-31T13:09:21.184Z</time>
      </trkpt>
      <trkpt lat="42.98778333" lon="-1.13879167">
        <ele>833.0</ele>
        <time>2019-07-31T13:09:22.061Z</time>
      </trkpt>
      <trkpt lat="42.98779833" lon="-1.13878833">
        <ele>833.0</ele>
        <time>2019-07-31T13:09:23.066Z</time>
      </trkpt>
      <trkpt lat="42.98780833" lon="-1.13879167">
        <ele>832.0</ele>
        <time>2019-07-31T13:09:24.074Z</time>
      </trkpt>
      <trkpt lat="42.98782833" lon="-1.13879">
        <ele>832.0</ele>
        <time>2019-07-31T13:09:25.079Z</time>
      </trkpt>
      <trkpt lat="42.98784167" lon="-1.13878833">
        <ele>831.0</ele>
        <time>2019-07-31T13:09:26.085Z</time>
      </trkpt>
      <trkpt lat="42.987855" lon="-1.13878833">
        <ele>831.0</ele>
        <time>2019-07-31T13:09:27.091Z</time>
      </trkpt>
      <trkpt lat="42.98786833" lon="-1.13878833">
        <ele>830.0</ele>
        <time>2019-07-31T13:09:28.098Z</time>
      </trkpt>
      <trkpt lat="42.98787833" lon="-1.13878667">
        <ele>830.0</ele>
        <time>2019-07-31T13:09:29.101Z</time>
      </trkpt>
      <trkpt lat="42.98789167" lon="-1.13878">
        <ele>829.0</ele>
        <time>2019-07-31T13:09:30.107Z</time>
      </trkpt>
      <trkpt lat="42.98791167" lon="-1.13876833">
        <ele>828.0</ele>
        <time>2019-07-31T13:09:31.113Z</time>
      </trkpt>
      <trkpt lat="42.98793333" lon="-1.13875833">
        <ele>827.0</ele>
        <time>2019-07-31T13:09:32.120Z</time>
      </trkpt>
      <trkpt lat="42.987955" lon="-1.13874833">
        <ele>826.0</ele>
        <time>2019-07-31T13:09:33.126Z</time>
      </trkpt>
      <trkpt lat="42.98797" lon="-1.13873667">
        <ele>825.0</ele>
        <time>2019-07-31T13:09:34.132Z</time>
      </trkpt>
      <trkpt lat="42.98799167" lon="-1.13872167">
        <ele>824.0</ele>
        <time>2019-07-31T13:09:35.136Z</time>
      </trkpt>
      <trkpt lat="42.98801667" lon="-1.13870667">
        <ele>824.0</ele>
        <time>2019-07-31T13:09:36.141Z</time>
      </trkpt>
      <trkpt lat="42.98804" lon="-1.13869">
        <ele>824.0</ele>
        <time>2019-07-31T13:09:37.147Z</time>
      </trkpt>
      <trkpt lat="42.98806167" lon="-1.138675">
        <ele>824.0</ele>
        <time>2019-07-31T13:09:38.154Z</time>
      </trkpt>
      <trkpt lat="42.98808167" lon="-1.13866">
        <ele>823.0</ele>
        <time>2019-07-31T13:09:39.160Z</time>
      </trkpt>
      <trkpt lat="42.98810333" lon="-1.13865167">
        <ele>823.0</ele>
        <time>2019-07-31T13:09:40.164Z</time>
      </trkpt>
      <trkpt lat="42.98812333" lon="-1.13864333">
        <ele>823.0</ele>
        <time>2019-07-31T13:09:41.170Z</time>
      </trkpt>
      <trkpt lat="42.98813833" lon="-1.13864">
        <ele>822.0</ele>
        <time>2019-07-31T13:09:42.176Z</time>
      </trkpt>
      <trkpt lat="42.98815167" lon="-1.13863333">
        <ele>822.0</ele>
        <time>2019-07-31T13:09:43.182Z</time>
      </trkpt>
      <trkpt lat="42.98816333" lon="-1.13863167">
        <ele>822.0</ele>
        <time>2019-07-31T13:09:44.062Z</time>
      </trkpt>
      <trkpt lat="42.98817167" lon="-1.138625">
        <ele>820.0</ele>
        <time>2019-07-31T13:09:45.067Z</time>
      </trkpt>
      <trkpt lat="42.98818167" lon="-1.13864">
        <ele>820.0</ele>
        <time>2019-07-31T13:09:46.073Z</time>
      </trkpt>
      <trkpt lat="42.98818833" lon="-1.138645">
        <ele>819.0</ele>
        <time>2019-07-31T13:09:47.078Z</time>
      </trkpt>
      <trkpt lat="42.9882" lon="-1.13864333">
        <ele>819.0</ele>
        <time>2019-07-31T13:09:48.081Z</time>
      </trkpt>
      <trkpt lat="42.988215" lon="-1.13863">
        <ele>819.0</ele>
        <time>2019-07-31T13:09:49.087Z</time>
      </trkpt>
      <trkpt lat="42.98822667" lon="-1.13862">
        <ele>818.0</ele>
        <time>2019-07-31T13:09:50.093Z</time>
      </trkpt>
      <trkpt lat="42.98824" lon="-1.13861">
        <ele>817.0</ele>
        <time>2019-07-31T13:09:51.097Z</time>
      </trkpt>
      <trkpt lat="42.98824833" lon="-1.138615">
        <ele>818.0</ele>
        <time>2019-07-31T13:09:52.104Z</time>
      </trkpt>
      <trkpt lat="42.98825833" lon="-1.13861333">
        <ele>819.0</ele>
        <time>2019-07-31T13:09:53.110Z</time>
      </trkpt>
      <trkpt lat="42.98827" lon="-1.138615">
        <ele>820.0</ele>
        <time>2019-07-31T13:09:54.115Z</time>
      </trkpt>
      <trkpt lat="42.98827667" lon="-1.13861667">
        <ele>820.0</ele>
        <time>2019-07-31T13:09:55.120Z</time>
      </trkpt>
      <trkpt lat="42.98828667" lon="-1.13861667">
        <ele>820.0</ele>
        <time>2019-07-31T13:09:56.125Z</time>
      </trkpt>
      <trkpt lat="42.988295" lon="-1.13861167">
        <ele>820.0</ele>
        <time>2019-07-31T13:09:57.132Z</time>
      </trkpt>
      <trkpt lat="42.98830833" lon="-1.13860167">
        <ele>820.0</ele>
        <time>2019-07-31T13:09:58.134Z</time>
      </trkpt>
      <trkpt lat="42.98832167" lon="-1.13859167">
        <ele>820.0</ele>
        <time>2019-07-31T13:09:59.139Z</time>
      </trkpt>
      <trkpt lat="42.98833333" lon="-1.138585">
        <ele>820.0</ele>
        <time>2019-07-31T13:10:00.145Z</time>
      </trkpt>
      <trkpt lat="42.98834667" lon="-1.138575">
        <ele>820.0</ele>
        <time>2019-07-31T13:10:01.151Z</time>
      </trkpt>
      <trkpt lat="42.98835833" lon="-1.13856667">
        <ele>820.0</ele>
        <time>2019-07-31T13:10:02.153Z</time>
      </trkpt>
      <trkpt lat="42.988365" lon="-1.13856333">
        <ele>819.0</ele>
        <time>2019-07-31T13:10:03.157Z</time>
      </trkpt>
      <trkpt lat="42.98837167" lon="-1.13856">
        <ele>820.0</ele>
        <time>2019-07-31T13:10:04.161Z</time>
      </trkpt>
      <trkpt lat="42.98837833" lon="-1.13855333">
        <ele>820.0</ele>
        <time>2019-07-31T13:10:05.167Z</time>
      </trkpt>
      <trkpt lat="42.98838833" lon="-1.13855">
        <ele>820.0</ele>
        <time>2019-07-31T13:10:06.172Z</time>
      </trkpt>
      <trkpt lat="42.9884" lon="-1.13854833">
        <ele>820.0</ele>
        <time>2019-07-31T13:10:07.176Z</time>
      </trkpt>
      <trkpt lat="42.98841167" lon="-1.13854667">
        <ele>820.0</ele>
        <time>2019-07-31T13:10:08.181Z</time>
      </trkpt>
      <trkpt lat="42.98841833" lon="-1.138545">
        <ele>820.0</ele>
        <time>2019-07-31T13:10:09.063Z</time>
      </trkpt>
      <trkpt lat="42.98842833" lon="-1.138545">
        <ele>820.0</ele>
        <time>2019-07-31T13:10:10.069Z</time>
      </trkpt>
      <trkpt lat="42.98843667" lon="-1.13854333">
        <ele>821.0</ele>
        <time>2019-07-31T13:10:11.075Z</time>
      </trkpt>
      <trkpt lat="42.98844667" lon="-1.13854667">
        <ele>820.0</ele>
        <time>2019-07-31T13:10:12.082Z</time>
      </trkpt>
      <trkpt lat="42.98846167" lon="-1.13854667">
        <ele>820.0</ele>
        <time>2019-07-31T13:10:13.087Z</time>
      </trkpt>
      <trkpt lat="42.98847833" lon="-1.138545">
        <ele>820.0</ele>
        <time>2019-07-31T13:10:14.091Z</time>
      </trkpt>
      <trkpt lat="42.98849" lon="-1.13854333">
        <ele>819.0</ele>
        <time>2019-07-31T13:10:15.097Z</time>
      </trkpt>
      <trkpt lat="42.988505" lon="-1.13853333">
        <ele>819.0</ele>
        <time>2019-07-31T13:10:16.100Z</time>
      </trkpt>
      <trkpt lat="42.98852167" lon="-1.138525">
        <ele>819.0</ele>
        <time>2019-07-31T13:10:17.106Z</time>
      </trkpt>
      <trkpt lat="42.988535" lon="-1.13851667">
        <ele>819.0</ele>
        <time>2019-07-31T13:10:18.111Z</time>
      </trkpt>
      <trkpt lat="42.98854833" lon="-1.13851333">
        <ele>818.0</ele>
        <time>2019-07-31T13:10:19.116Z</time>
      </trkpt>
      <trkpt lat="42.98857" lon="-1.138505">
        <ele>819.0</ele>
        <time>2019-07-31T13:10:20.122Z</time>
      </trkpt>
      <trkpt lat="42.98858167" lon="-1.13849833">
        <ele>820.0</ele>
        <time>2019-07-31T13:10:21.127Z</time>
      </trkpt>
      <trkpt lat="42.98859333" lon="-1.13849667">
        <ele>820.0</ele>
        <time>2019-07-31T13:10:22.133Z</time>
      </trkpt>
      <trkpt lat="42.98860333" lon="-1.13849667">
        <ele>820.0</ele>
        <time>2019-07-31T13:10:23.138Z</time>
      </trkpt>
      <trkpt lat="42.98862" lon="-1.13848667">
        <ele>820.0</ele>
        <time>2019-07-31T13:10:24.144Z</time>
      </trkpt>
      <trkpt lat="42.988635" lon="-1.13848167">
        <ele>821.0</ele>
        <time>2019-07-31T13:10:25.149Z</time>
      </trkpt>
      <trkpt lat="42.98864833" lon="-1.13847833">
        <ele>821.0</ele>
        <time>2019-07-31T13:10:26.154Z</time>
      </trkpt>
      <trkpt lat="42.988665" lon="-1.13846667">
        <ele>821.0</ele>
        <time>2019-07-31T13:10:27.159Z</time>
      </trkpt>
      <trkpt lat="42.988675" lon="-1.13846833">
        <ele>822.0</ele>
        <time>2019-07-31T13:10:28.165Z</time>
      </trkpt>
      <trkpt lat="42.98868833" lon="-1.13847667">
        <ele>821.0</ele>
        <time>2019-07-31T13:10:29.172Z</time>
      </trkpt>
      <trkpt lat="42.98870333" lon="-1.13846667">
        <ele>821.0</ele>
        <time>2019-07-31T13:10:30.177Z</time>
      </trkpt>
      <trkpt lat="42.98871667" lon="-1.13846667">
        <ele>821.0</ele>
        <time>2019-07-31T13:10:31.184Z</time>
      </trkpt>
      <trkpt lat="42.98872833" lon="-1.13847">
        <ele>819.0</ele>
        <time>2019-07-31T13:10:32.061Z</time>
      </trkpt>
      <trkpt lat="42.98873333" lon="-1.13847667">
        <ele>819.0</ele>
        <time>2019-07-31T13:10:33.068Z</time>
      </trkpt>
      <trkpt lat="42.988745" lon="-1.13847667">
        <ele>820.0</ele>
        <time>2019-07-31T13:10:34.074Z</time>
      </trkpt>
      <trkpt lat="42.98875667" lon="-1.13848">
        <ele>820.0</ele>
        <time>2019-07-31T13:10:35.080Z</time>
      </trkpt>
      <trkpt lat="42.98876833" lon="-1.13847333">
        <ele>819.0</ele>
        <time>2019-07-31T13:10:36.086Z</time>
      </trkpt>
      <trkpt lat="42.98878333" lon="-1.13847667">
        <ele>820.0</ele>
        <time>2019-07-31T13:10:37.091Z</time>
      </trkpt>
      <trkpt lat="42.98880167" lon="-1.13847333">
        <ele>820.0</ele>
        <time>2019-07-31T13:10:38.096Z</time>
      </trkpt>
      <trkpt lat="42.98881667" lon="-1.13847333">
        <ele>820.0</ele>
        <time>2019-07-31T13:10:39.103Z</time>
      </trkpt>
      <trkpt lat="42.98883" lon="-1.13847">
        <ele>820.0</ele>
        <time>2019-07-31T13:10:40.109Z</time>
      </trkpt>
      <trkpt lat="42.98884" lon="-1.13846667">
        <ele>820.0</ele>
        <time>2019-07-31T13:10:41.116Z</time>
      </trkpt>
      <trkpt lat="42.98885167" lon="-1.13846">
        <ele>819.0</ele>
        <time>2019-07-31T13:10:42.121Z</time>
      </trkpt>
      <trkpt lat="42.98886167" lon="-1.13845">
        <ele>819.0</ele>
        <time>2019-07-31T13:10:43.127Z</time>
      </trkpt>
      <trkpt lat="42.98887167" lon="-1.13844167">
        <ele>819.0</ele>
        <time>2019-07-31T13:10:44.132Z</time>
      </trkpt>
      <trkpt lat="42.98888333" lon="-1.13843333">
        <ele>819.0</ele>
        <time>2019-07-31T13:10:45.137Z</time>
      </trkpt>
      <trkpt lat="42.98889667" lon="-1.13842167">
        <ele>819.0</ele>
        <time>2019-07-31T13:10:46.143Z</time>
      </trkpt>
      <trkpt lat="42.988905" lon="-1.13841667">
        <ele>819.0</ele>
        <time>2019-07-31T13:10:47.147Z</time>
      </trkpt>
      <trkpt lat="42.98891333" lon="-1.138415">
        <ele>819.0</ele>
        <time>2019-07-31T13:10:48.153Z</time>
      </trkpt>
      <trkpt lat="42.98892" lon="-1.13841333">
        <ele>819.0</ele>
        <time>2019-07-31T13:10:49.159Z</time>
      </trkpt>
      <trkpt lat="42.988925" lon="-1.13841167">
        <ele>819.0</ele>
        <time>2019-07-31T13:10:50.165Z</time>
      </trkpt>
      <trkpt lat="42.98893" lon="-1.13841">
        <ele>819.0</ele>
        <time>2019-07-31T13:10:51.172Z</time>
      </trkpt>
      <trkpt lat="42.98893667" lon="-1.13840333">
        <ele>818.0</ele>
        <time>2019-07-31T13:10:52.176Z</time>
      </trkpt>
      <trkpt lat="42.988945" lon="-1.13840333">
        <ele>817.0</ele>
        <time>2019-07-31T13:10:53.182Z</time>
      </trkpt>
      <trkpt lat="42.988955" lon="-1.13840167">
        <ele>817.0</ele>
        <time>2019-07-31T13:10:54.062Z</time>
      </trkpt>
      <trkpt lat="42.98896667" lon="-1.1384">
        <ele>818.0</ele>
        <time>2019-07-31T13:10:55.069Z</time>
      </trkpt>
      <trkpt lat="42.98897667" lon="-1.138395">
        <ele>819.0</ele>
        <time>2019-07-31T13:10:56.074Z</time>
      </trkpt>
      <trkpt lat="42.98898333" lon="-1.13839333">
        <ele>818.0</ele>
        <time>2019-07-31T13:10:57.078Z</time>
      </trkpt>
      <trkpt lat="42.98899167" lon="-1.13839167">
        <ele>817.0</ele>
        <time>2019-07-31T13:10:58.081Z</time>
      </trkpt>
      <trkpt lat="42.989" lon="-1.13838333">
        <ele>816.0</ele>
        <time>2019-07-31T13:10:59.087Z</time>
      </trkpt>
      <trkpt lat="42.98901333" lon="-1.13837">
        <ele>817.0</ele>
        <time>2019-07-31T13:11:00.092Z</time>
      </trkpt>
      <trkpt lat="42.989025" lon="-1.13836333">
        <ele>817.0</ele>
        <time>2019-07-31T13:11:01.097Z</time>
      </trkpt>
      <trkpt lat="42.98903667" lon="-1.13835833">
        <ele>817.0</ele>
        <time>2019-07-31T13:11:02.103Z</time>
      </trkpt>
      <trkpt lat="42.98904333" lon="-1.13835833">
        <ele>818.0</ele>
        <time>2019-07-31T13:11:03.109Z</time>
      </trkpt>
      <trkpt lat="42.98904167" lon="-1.13835833">
        <ele>818.0</ele>
        <time>2019-07-31T13:11:04.115Z</time>
      </trkpt>
      <trkpt lat="42.98903833" lon="-1.13836333">
        <ele>818.0</ele>
        <time>2019-07-31T13:11:05.120Z</time>
      </trkpt>
      <trkpt lat="42.98904" lon="-1.13836333">
        <ele>818.0</ele>
        <time>2019-07-31T13:11:06.126Z</time>
      </trkpt>
      <trkpt lat="42.989045" lon="-1.13836333">
        <ele>818.0</ele>
        <time>2019-07-31T13:11:07.132Z</time>
      </trkpt>
      <trkpt lat="42.98905167" lon="-1.13836833">
        <ele>819.0</ele>
        <time>2019-07-31T13:11:08.136Z</time>
      </trkpt>
      <trkpt lat="42.98906167" lon="-1.138365">
        <ele>820.0</ele>
        <time>2019-07-31T13:11:09.142Z</time>
      </trkpt>
      <trkpt lat="42.98906833" lon="-1.13836667">
        <ele>821.0</ele>
        <time>2019-07-31T13:11:10.148Z</time>
      </trkpt>
      <trkpt lat="42.98907333" lon="-1.13836833">
        <ele>822.0</ele>
        <time>2019-07-31T13:11:11.152Z</time>
      </trkpt>
      <trkpt lat="42.98907833" lon="-1.13836167">
        <ele>822.0</ele>
        <time>2019-07-31T13:11:12.157Z</time>
      </trkpt>
      <trkpt lat="42.98908667" lon="-1.13835333">
        <ele>820.0</ele>
        <time>2019-07-31T13:11:13.164Z</time>
      </trkpt>
      <trkpt lat="42.989095" lon="-1.13835">
        <ele>819.0</ele>
        <time>2019-07-31T13:11:14.167Z</time>
      </trkpt>
      <trkpt lat="42.9891" lon="-1.13835167">
        <ele>818.0</ele>
        <time>2019-07-31T13:11:15.173Z</time>
      </trkpt>
      <trkpt lat="42.9891" lon="-1.13836">
        <ele>818.0</ele>
        <time>2019-07-31T13:11:16.177Z</time>
      </trkpt>
      <trkpt lat="42.98909167" lon="-1.13836833">
        <ele>819.0</ele>
        <time>2019-07-31T13:11:17.181Z</time>
      </trkpt>
      <trkpt lat="42.98909167" lon="-1.13837833">
        <ele>819.0</ele>
        <time>2019-07-31T13:11:18.183Z</time>
      </trkpt>
      <trkpt lat="42.989085" lon="-1.13838167">
        <ele>820.0</ele>
        <time>2019-07-31T13:11:19.063Z</time>
      </trkpt>
      <trkpt lat="42.98908" lon="-1.13838833">
        <ele>819.0</ele>
        <time>2019-07-31T13:11:20.070Z</time>
      </trkpt>
      <trkpt lat="42.989075" lon="-1.13839">
        <ele>817.0</ele>
        <time>2019-07-31T13:11:21.077Z</time>
      </trkpt>
      <trkpt lat="42.98907" lon="-1.13838833">
        <ele>815.0</ele>
        <time>2019-07-31T13:11:22.083Z</time>
      </trkpt>
      <trkpt lat="42.989075" lon="-1.138385">
        <ele>815.0</ele>
        <time>2019-07-31T13:11:23.089Z</time>
      </trkpt>
      <trkpt lat="42.98908" lon="-1.138385">
        <ele>816.0</ele>
        <time>2019-07-31T13:11:24.094Z</time>
      </trkpt>
      <trkpt lat="42.989085" lon="-1.13838">
        <ele>816.0</ele>
        <time>2019-07-31T13:11:25.099Z</time>
      </trkpt>
      <trkpt lat="42.98909333" lon="-1.13837333">
        <ele>815.0</ele>
        <time>2019-07-31T13:11:26.103Z</time>
      </trkpt>
      <trkpt lat="42.989105" lon="-1.138365">
        <ele>816.0</ele>
        <time>2019-07-31T13:11:27.105Z</time>
      </trkpt>
      <trkpt lat="42.98911667" lon="-1.13836167">
        <ele>816.0</ele>
        <time>2019-07-31T13:11:28.109Z</time>
      </trkpt>
      <trkpt lat="42.989125" lon="-1.13835833">
        <ele>816.0</ele>
        <time>2019-07-31T13:11:29.114Z</time>
      </trkpt>
      <trkpt lat="42.98913333" lon="-1.13835667">
        <ele>817.0</ele>
        <time>2019-07-31T13:11:30.119Z</time>
      </trkpt>
      <trkpt lat="42.98914167" lon="-1.13835667">
        <ele>817.0</ele>
        <time>2019-07-31T13:11:31.125Z</time>
      </trkpt>
      <trkpt lat="42.98915167" lon="-1.138355">
        <ele>817.0</ele>
        <time>2019-07-31T13:11:32.130Z</time>
      </trkpt>
      <trkpt lat="42.98916333" lon="-1.13835333">
        <ele>817.0</ele>
        <time>2019-07-31T13:11:33.135Z</time>
      </trkpt>
      <trkpt lat="42.989175" lon="-1.13835667">
        <ele>817.0</ele>
        <time>2019-07-31T13:11:34.141Z</time>
      </trkpt>
      <trkpt lat="42.989185" lon="-1.13835667">
        <ele>817.0</ele>
        <time>2019-07-31T13:11:35.147Z</time>
      </trkpt>
      <trkpt lat="42.98919667" lon="-1.13835667">
        <ele>817.0</ele>
        <time>2019-07-31T13:11:36.154Z</time>
      </trkpt>
      <trkpt lat="42.98921167" lon="-1.13835">
        <ele>816.0</ele>
        <time>2019-07-31T13:11:37.160Z</time>
      </trkpt>
      <trkpt lat="42.98922667" lon="-1.13834333">
        <ele>815.0</ele>
        <time>2019-07-31T13:11:38.167Z</time>
      </trkpt>
      <trkpt lat="42.98924" lon="-1.13834167">
        <ele>815.0</ele>
        <time>2019-07-31T13:11:39.169Z</time>
      </trkpt>
      <trkpt lat="42.98925167" lon="-1.13833833">
        <ele>815.0</ele>
        <time>2019-07-31T13:11:40.173Z</time>
      </trkpt>
      <trkpt lat="42.989265" lon="-1.13833667">
        <ele>815.0</ele>
        <time>2019-07-31T13:11:41.177Z</time>
      </trkpt>
      <trkpt lat="42.98927833" lon="-1.138335">
        <ele>815.0</ele>
        <time>2019-07-31T13:11:42.181Z</time>
      </trkpt>
      <trkpt lat="42.98929333" lon="-1.13833667">
        <ele>815.0</ele>
        <time>2019-07-31T13:11:43.184Z</time>
      </trkpt>
      <trkpt lat="42.98930667" lon="-1.13833333">
        <ele>815.0</ele>
        <time>2019-07-31T13:11:44.064Z</time>
      </trkpt>
      <trkpt lat="42.98932167" lon="-1.13832833">
        <ele>815.0</ele>
        <time>2019-07-31T13:11:45.070Z</time>
      </trkpt>
      <trkpt lat="42.98933333" lon="-1.13832833">
        <ele>815.0</ele>
        <time>2019-07-31T13:11:46.075Z</time>
      </trkpt>
      <trkpt lat="42.989345" lon="-1.13833167">
        <ele>815.0</ele>
        <time>2019-07-31T13:11:47.081Z</time>
      </trkpt>
      <trkpt lat="42.98935833" lon="-1.13833333">
        <ele>815.0</ele>
        <time>2019-07-31T13:11:48.088Z</time>
      </trkpt>
      <trkpt lat="42.98937333" lon="-1.13833667">
        <ele>815.0</ele>
        <time>2019-07-31T13:11:49.093Z</time>
      </trkpt>
      <trkpt lat="42.98938833" lon="-1.13834167">
        <ele>816.0</ele>
        <time>2019-07-31T13:11:50.098Z</time>
      </trkpt>
      <trkpt lat="42.98940167" lon="-1.13835">
        <ele>817.0</ele>
        <time>2019-07-31T13:11:51.103Z</time>
      </trkpt>
      <trkpt lat="42.989415" lon="-1.138355">
        <ele>817.0</ele>
        <time>2019-07-31T13:11:52.110Z</time>
      </trkpt>
      <trkpt lat="42.98942833" lon="-1.13835833">
        <ele>817.0</ele>
        <time>2019-07-31T13:11:53.115Z</time>
      </trkpt>
      <trkpt lat="42.98944167" lon="-1.13836167">
        <ele>818.0</ele>
        <time>2019-07-31T13:11:54.121Z</time>
      </trkpt>
      <trkpt lat="42.98945833" lon="-1.13836167">
        <ele>818.0</ele>
        <time>2019-07-31T13:11:55.127Z</time>
      </trkpt>
      <trkpt lat="42.98947333" lon="-1.13836167">
        <ele>819.0</ele>
        <time>2019-07-31T13:11:56.132Z</time>
      </trkpt>
      <trkpt lat="42.98948667" lon="-1.13836">
        <ele>819.0</ele>
        <time>2019-07-31T13:11:57.135Z</time>
      </trkpt>
      <trkpt lat="42.9895" lon="-1.13835333">
        <ele>818.0</ele>
        <time>2019-07-31T13:11:58.142Z</time>
      </trkpt>
      <trkpt lat="42.98951833" lon="-1.13834333">
        <ele>818.0</ele>
        <time>2019-07-31T13:11:59.147Z</time>
      </trkpt>
      <trkpt lat="42.98953167" lon="-1.13833667">
        <ele>818.0</ele>
        <time>2019-07-31T13:12:00.151Z</time>
      </trkpt>
      <trkpt lat="42.98954833" lon="-1.138325">
        <ele>818.0</ele>
        <time>2019-07-31T13:12:01.156Z</time>
      </trkpt>
      <trkpt lat="42.98956" lon="-1.13832333">
        <ele>818.0</ele>
        <time>2019-07-31T13:12:02.162Z</time>
      </trkpt>
      <trkpt lat="42.98957333" lon="-1.138315">
        <ele>818.0</ele>
        <time>2019-07-31T13:12:03.167Z</time>
      </trkpt>
      <trkpt lat="42.98958833" lon="-1.13830667">
        <ele>818.0</ele>
        <time>2019-07-31T13:12:04.174Z</time>
      </trkpt>
      <trkpt lat="42.98960167" lon="-1.13828667">
        <ele>816.0</ele>
        <time>2019-07-31T13:12:05.181Z</time>
      </trkpt>
      <trkpt lat="42.98961667" lon="-1.13828167">
        <ele>816.0</ele>
        <time>2019-07-31T13:12:06.061Z</time>
      </trkpt>
      <trkpt lat="42.98963167" lon="-1.13827833">
        <ele>815.0</ele>
        <time>2019-07-31T13:12:07.066Z</time>
      </trkpt>
      <trkpt lat="42.989645" lon="-1.13827167">
        <ele>815.0</ele>
        <time>2019-07-31T13:12:08.073Z</time>
      </trkpt>
      <trkpt lat="42.98966167" lon="-1.13826667">
        <ele>814.0</ele>
        <time>2019-07-31T13:12:09.078Z</time>
      </trkpt>
      <trkpt lat="42.98967833" lon="-1.138265">
        <ele>813.0</ele>
        <time>2019-07-31T13:12:10.084Z</time>
      </trkpt>
      <trkpt lat="42.98969667" lon="-1.13826">
        <ele>813.0</ele>
        <time>2019-07-31T13:12:11.089Z</time>
      </trkpt>
      <trkpt lat="42.98971667" lon="-1.13826333">
        <ele>813.0</ele>
        <time>2019-07-31T13:12:12.091Z</time>
      </trkpt>
      <trkpt lat="42.98973333" lon="-1.13825833">
        <ele>813.0</ele>
        <time>2019-07-31T13:12:13.094Z</time>
      </trkpt>
      <trkpt lat="42.98974833" lon="-1.13826">
        <ele>813.0</ele>
        <time>2019-07-31T13:12:14.101Z</time>
      </trkpt>
      <trkpt lat="42.98976167" lon="-1.13825833">
        <ele>812.0</ele>
        <time>2019-07-31T13:12:15.107Z</time>
      </trkpt>
      <trkpt lat="42.98977667" lon="-1.13825667">
        <ele>811.0</ele>
        <time>2019-07-31T13:12:16.114Z</time>
      </trkpt>
      <trkpt lat="42.98979" lon="-1.138255">
        <ele>811.0</ele>
        <time>2019-07-31T13:12:17.120Z</time>
      </trkpt>
      <trkpt lat="42.98980333" lon="-1.13825167">
        <ele>811.0</ele>
        <time>2019-07-31T13:12:18.123Z</time>
      </trkpt>
      <trkpt lat="42.98981833" lon="-1.13825">
        <ele>811.0</ele>
        <time>2019-07-31T13:12:19.127Z</time>
      </trkpt>
      <trkpt lat="42.989835" lon="-1.13825">
        <ele>811.0</ele>
        <time>2019-07-31T13:12:20.132Z</time>
      </trkpt>
      <trkpt lat="42.98985" lon="-1.13824833">
        <ele>811.0</ele>
        <time>2019-07-31T13:12:21.136Z</time>
      </trkpt>
      <trkpt lat="42.98986333" lon="-1.13824833">
        <ele>811.0</ele>
        <time>2019-07-31T13:12:22.142Z</time>
      </trkpt>
      <trkpt lat="42.98987667" lon="-1.13825167">
        <ele>811.0</ele>
        <time>2019-07-31T13:12:23.150Z</time>
      </trkpt>
      <trkpt lat="42.98989333" lon="-1.13826">
        <ele>811.0</ele>
        <time>2019-07-31T13:12:24.156Z</time>
      </trkpt>
      <trkpt lat="42.98990833" lon="-1.13826167">
        <ele>811.0</ele>
        <time>2019-07-31T13:12:25.162Z</time>
      </trkpt>
      <trkpt lat="42.989925" lon="-1.13825667">
        <ele>810.0</ele>
        <time>2019-07-31T13:12:26.169Z</time>
      </trkpt>
      <trkpt lat="42.98994167" lon="-1.13825333">
        <ele>810.0</ele>
        <time>2019-07-31T13:12:27.174Z</time>
      </trkpt>
      <trkpt lat="42.98995833" lon="-1.13825333">
        <ele>810.0</ele>
        <time>2019-07-31T13:12:28.179Z</time>
      </trkpt>
      <trkpt lat="42.98997667" lon="-1.138255">
        <ele>810.0</ele>
        <time>2019-07-31T13:12:29.186Z</time>
      </trkpt>
      <trkpt lat="42.98999667" lon="-1.138255">
        <ele>810.0</ele>
        <time>2019-07-31T13:12:30.067Z</time>
      </trkpt>
      <trkpt lat="42.99001667" lon="-1.13825833">
        <ele>810.0</ele>
        <time>2019-07-31T13:12:31.072Z</time>
      </trkpt>
      <trkpt lat="42.990035" lon="-1.13826333">
        <ele>810.0</ele>
        <time>2019-07-31T13:12:32.076Z</time>
      </trkpt>
      <trkpt lat="42.99005167" lon="-1.138265">
        <ele>811.0</ele>
        <time>2019-07-31T13:12:33.082Z</time>
      </trkpt>
      <trkpt lat="42.99007" lon="-1.13827">
        <ele>811.0</ele>
        <time>2019-07-31T13:12:34.088Z</time>
      </trkpt>
      <trkpt lat="42.99008167" lon="-1.138275">
        <ele>812.0</ele>
        <time>2019-07-31T13:12:35.093Z</time>
      </trkpt>
      <trkpt lat="42.990095" lon="-1.13828">
        <ele>812.0</ele>
        <time>2019-07-31T13:12:36.098Z</time>
      </trkpt>
      <trkpt lat="42.99010667" lon="-1.13829">
        <ele>813.0</ele>
        <time>2019-07-31T13:12:37.106Z</time>
      </trkpt>
      <trkpt lat="42.99012667" lon="-1.1383">
        <ele>813.0</ele>
        <time>2019-07-31T13:12:38.114Z</time>
      </trkpt>
      <trkpt lat="42.99014333" lon="-1.13830167">
        <ele>812.0</ele>
        <time>2019-07-31T13:12:39.120Z</time>
      </trkpt>
      <trkpt lat="42.99015667" lon="-1.13830667">
        <ele>812.0</ele>
        <time>2019-07-31T13:12:40.126Z</time>
      </trkpt>
      <trkpt lat="42.99017167" lon="-1.13831">
        <ele>812.0</ele>
        <time>2019-07-31T13:12:41.131Z</time>
      </trkpt>
      <trkpt lat="42.99018833" lon="-1.13831667">
        <ele>812.0</ele>
        <time>2019-07-31T13:12:42.132Z</time>
      </trkpt>
      <trkpt lat="42.99020333" lon="-1.138325">
        <ele>812.0</ele>
        <time>2019-07-31T13:12:43.138Z</time>
      </trkpt>
      <trkpt lat="42.99022" lon="-1.138325">
        <ele>812.0</ele>
        <time>2019-07-31T13:12:44.144Z</time>
      </trkpt>
      <trkpt lat="42.99023167" lon="-1.13833833">
        <ele>813.0</ele>
        <time>2019-07-31T13:12:45.151Z</time>
      </trkpt>
      <trkpt lat="42.990245" lon="-1.13835167">
        <ele>814.0</ele>
        <time>2019-07-31T13:12:46.155Z</time>
      </trkpt>
      <trkpt lat="42.99025667" lon="-1.13836167">
        <ele>814.0</ele>
        <time>2019-07-31T13:12:47.161Z</time>
      </trkpt>
      <trkpt lat="42.990265" lon="-1.13837">
        <ele>814.0</ele>
        <time>2019-07-31T13:12:48.168Z</time>
      </trkpt>
      <trkpt lat="42.99027667" lon="-1.13837">
        <ele>815.0</ele>
        <time>2019-07-31T13:12:49.173Z</time>
      </trkpt>
      <trkpt lat="42.99028333" lon="-1.13838667">
        <ele>816.0</ele>
        <time>2019-07-31T13:12:50.178Z</time>
      </trkpt>
      <trkpt lat="42.99028667" lon="-1.13839167">
        <ele>817.0</ele>
        <time>2019-07-31T13:12:51.183Z</time>
      </trkpt>
      <trkpt lat="42.99028667" lon="-1.13840167">
        <ele>817.0</ele>
        <time>2019-07-31T13:12:52.062Z</time>
      </trkpt>
      <trkpt lat="42.99028" lon="-1.13840833">
        <ele>817.0</ele>
        <time>2019-07-31T13:12:53.068Z</time>
      </trkpt>
      <trkpt lat="42.990285" lon="-1.13840333">
        <ele>817.0</ele>
        <time>2019-07-31T13:12:54.073Z</time>
      </trkpt>
      <trkpt lat="42.99028667" lon="-1.138395">
        <ele>817.0</ele>
        <time>2019-07-31T13:12:55.081Z</time>
      </trkpt>
      <trkpt lat="42.99028833" lon="-1.13839">
        <ele>818.0</ele>
        <time>2019-07-31T13:12:56.086Z</time>
      </trkpt>
      <trkpt lat="42.99028667" lon="-1.13838">
        <ele>818.0</ele>
        <time>2019-07-31T13:12:57.092Z</time>
      </trkpt>
      <trkpt lat="42.99028167" lon="-1.13836167">
        <ele>820.0</ele>
        <time>2019-07-31T13:12:58.098Z</time>
      </trkpt>
      <trkpt lat="42.990275" lon="-1.13834833">
        <ele>821.0</ele>
        <time>2019-07-31T13:12:59.103Z</time>
      </trkpt>
      <trkpt lat="42.990265" lon="-1.13834333">
        <ele>821.0</ele>
        <time>2019-07-31T13:13:00.109Z</time>
      </trkpt>
      <trkpt lat="42.99025" lon="-1.13834667">
        <ele>822.0</ele>
        <time>2019-07-31T13:13:01.113Z</time>
      </trkpt>
      <trkpt lat="42.99023833" lon="-1.138335">
        <ele>823.0</ele>
        <time>2019-07-31T13:13:02.119Z</time>
      </trkpt>
      <trkpt lat="42.99022667" lon="-1.13833">
        <ele>823.0</ele>
        <time>2019-07-31T13:13:03.122Z</time>
      </trkpt>
      <trkpt lat="42.99022" lon="-1.13832333">
        <ele>824.0</ele>
        <time>2019-07-31T13:13:04.128Z</time>
      </trkpt>
      <trkpt lat="42.99020833" lon="-1.13832167">
        <ele>823.0</ele>
        <time>2019-07-31T13:13:05.132Z</time>
      </trkpt>
      <trkpt lat="42.9902" lon="-1.138315">
        <ele>823.0</ele>
        <time>2019-07-31T13:13:06.137Z</time>
      </trkpt>
      <trkpt lat="42.99019167" lon="-1.13830167">
        <ele>822.0</ele>
        <time>2019-07-31T13:13:07.144Z</time>
      </trkpt>
      <trkpt lat="42.99018167" lon="-1.13828833">
        <ele>822.0</ele>
        <time>2019-07-31T13:13:08.150Z</time>
      </trkpt>
      <trkpt lat="42.99016833" lon="-1.13828">
        <ele>821.0</ele>
        <time>2019-07-31T13:13:09.155Z</time>
      </trkpt>
      <trkpt lat="42.99014833" lon="-1.13828167">
        <ele>821.0</ele>
        <time>2019-07-31T13:13:10.160Z</time>
      </trkpt>
      <trkpt lat="42.990135" lon="-1.13827667">
        <ele>821.0</ele>
        <time>2019-07-31T13:13:11.164Z</time>
      </trkpt>
      <trkpt lat="42.99012167" lon="-1.13827333">
        <ele>822.0</ele>
        <time>2019-07-31T13:13:12.170Z</time>
      </trkpt>
      <trkpt lat="42.99010833" lon="-1.138265">
        <ele>821.0</ele>
        <time>2019-07-31T13:13:13.174Z</time>
      </trkpt>
      <trkpt lat="42.99009333" lon="-1.13825833">
        <ele>821.0</ele>
        <time>2019-07-31T13:13:14.179Z</time>
      </trkpt>
      <trkpt lat="42.99008333" lon="-1.13825667">
        <ele>821.0</ele>
        <time>2019-07-31T13:13:15.183Z</time>
      </trkpt>
      <trkpt lat="42.99007167" lon="-1.13825167">
        <ele>822.0</ele>
        <time>2019-07-31T13:13:16.062Z</time>
      </trkpt>
      <trkpt lat="42.99005833" lon="-1.13824667">
        <ele>823.0</ele>
        <time>2019-07-31T13:13:17.070Z</time>
      </trkpt>
      <trkpt lat="42.99004167" lon="-1.13824167">
        <ele>824.0</ele>
        <time>2019-07-31T13:13:18.077Z</time>
      </trkpt>
      <trkpt lat="42.990025" lon="-1.13823167">
        <ele>826.0</ele>
        <time>2019-07-31T13:13:19.079Z</time>
      </trkpt>
      <trkpt lat="42.99001167" lon="-1.13822667">
        <ele>826.0</ele>
        <time>2019-07-31T13:13:20.084Z</time>
      </trkpt>
      <trkpt lat="42.98999667" lon="-1.13822167">
        <ele>825.0</ele>
        <time>2019-07-31T13:13:21.090Z</time>
      </trkpt>
      <trkpt lat="42.989985" lon="-1.13822167">
        <ele>825.0</ele>
        <time>2019-07-31T13:13:22.094Z</time>
      </trkpt>
      <trkpt lat="42.98997333" lon="-1.13822333">
        <ele>824.0</ele>
        <time>2019-07-31T13:13:23.098Z</time>
      </trkpt>
      <trkpt lat="42.989965" lon="-1.13822333">
        <ele>824.0</ele>
        <time>2019-07-31T13:13:24.105Z</time>
      </trkpt>
      <trkpt lat="42.98995333" lon="-1.13821833">
        <ele>824.0</ele>
        <time>2019-07-31T13:13:25.109Z</time>
      </trkpt>
      <trkpt lat="42.98994" lon="-1.13821333">
        <ele>824.0</ele>
        <time>2019-07-31T13:13:26.115Z</time>
      </trkpt>
      <trkpt lat="42.98993167" lon="-1.138215">
        <ele>824.0</ele>
        <time>2019-07-31T13:13:27.119Z</time>
      </trkpt>
      <trkpt lat="42.989925" lon="-1.13822167">
        <ele>824.0</ele>
        <time>2019-07-31T13:13:28.121Z</time>
      </trkpt>
      <trkpt lat="42.98991167" lon="-1.13822333">
        <ele>825.0</ele>
        <time>2019-07-31T13:13:29.127Z</time>
      </trkpt>
      <trkpt lat="42.989895" lon="-1.13822">
        <ele>826.0</ele>
        <time>2019-07-31T13:13:30.132Z</time>
      </trkpt>
      <trkpt lat="42.98988" lon="-1.13820833">
        <ele>827.0</ele>
        <time>2019-07-31T13:13:31.138Z</time>
      </trkpt>
      <trkpt lat="42.98986167" lon="-1.13819833">
        <ele>827.0</ele>
        <time>2019-07-31T13:13:32.142Z</time>
      </trkpt>
      <trkpt lat="42.98984333" lon="-1.13819667">
        <ele>828.0</ele>
        <time>2019-07-31T13:13:33.145Z</time>
      </trkpt>
      <trkpt lat="42.98982667" lon="-1.13819667">
        <ele>829.0</ele>
        <time>2019-07-31T13:13:34.152Z</time>
      </trkpt>
      <trkpt lat="42.98980833" lon="-1.13820167">
        <ele>829.0</ele>
        <time>2019-07-31T13:13:35.158Z</time>
      </trkpt>
      <trkpt lat="42.98979" lon="-1.13820667">
        <ele>829.0</ele>
        <time>2019-07-31T13:13:36.163Z</time>
      </trkpt>
      <trkpt lat="42.989775" lon="-1.13820833">
        <ele>830.0</ele>
        <time>2019-07-31T13:13:37.168Z</time>
      </trkpt>
      <trkpt lat="42.98976" lon="-1.13820833">
        <ele>829.0</ele>
        <time>2019-07-31T13:13:38.174Z</time>
      </trkpt>
      <trkpt lat="42.98974" lon="-1.13821333">
        <ele>829.0</ele>
        <time>2019-07-31T13:13:39.178Z</time>
      </trkpt>
      <trkpt lat="42.98972" lon="-1.13820833">
        <ele>829.0</ele>
        <time>2019-07-31T13:13:40.183Z</time>
      </trkpt>
      <trkpt lat="42.989705" lon="-1.13820167">
        <ele>830.0</ele>
        <time>2019-07-31T13:13:41.063Z</time>
      </trkpt>
      <trkpt lat="42.989695" lon="-1.13819667">
        <ele>829.0</ele>
        <time>2019-07-31T13:13:42.068Z</time>
      </trkpt>
      <trkpt lat="42.98968333" lon="-1.13819333">
        <ele>829.0</ele>
        <time>2019-07-31T13:13:43.072Z</time>
      </trkpt>
      <trkpt lat="42.98967333" lon="-1.13818667">
        <ele>830.0</ele>
        <time>2019-07-31T13:13:44.076Z</time>
      </trkpt>
      <trkpt lat="42.98966" lon="-1.138185">
        <ele>831.0</ele>
        <time>2019-07-31T13:13:45.081Z</time>
      </trkpt>
      <trkpt lat="42.98964333" lon="-1.13818">
        <ele>832.0</ele>
        <time>2019-07-31T13:13:46.087Z</time>
      </trkpt>
      <trkpt lat="42.989625" lon="-1.13817167">
        <ele>832.0</ele>
        <time>2019-07-31T13:13:47.091Z</time>
      </trkpt>
      <trkpt lat="42.989605" lon="-1.13816667">
        <ele>833.0</ele>
        <time>2019-07-31T13:13:48.094Z</time>
      </trkpt>
      <trkpt lat="42.98958833" lon="-1.138155">
        <ele>834.0</ele>
        <time>2019-07-31T13:13:49.100Z</time>
      </trkpt>
      <trkpt lat="42.98957167" lon="-1.13815">
        <ele>834.0</ele>
        <time>2019-07-31T13:13:50.106Z</time>
      </trkpt>
      <trkpt lat="42.989555" lon="-1.13815">
        <ele>835.0</ele>
        <time>2019-07-31T13:13:51.112Z</time>
      </trkpt>
      <trkpt lat="42.989545" lon="-1.138155">
        <ele>834.0</ele>
        <time>2019-07-31T13:13:52.119Z</time>
      </trkpt>
      <trkpt lat="42.98953" lon="-1.138155">
        <ele>835.0</ele>
        <time>2019-07-31T13:13:53.124Z</time>
      </trkpt>
      <trkpt lat="42.98951333" lon="-1.13816333">
        <ele>835.0</ele>
        <time>2019-07-31T13:13:54.129Z</time>
      </trkpt>
      <trkpt lat="42.989495" lon="-1.13816333">
        <ele>835.0</ele>
        <time>2019-07-31T13:13:55.135Z</time>
      </trkpt>
      <trkpt lat="42.98948" lon="-1.13816167">
        <ele>835.0</ele>
        <time>2019-07-31T13:13:56.139Z</time>
      </trkpt>
      <trkpt lat="42.98947" lon="-1.13816333">
        <ele>834.0</ele>
        <time>2019-07-31T13:13:57.146Z</time>
      </trkpt>
      <trkpt lat="42.989455" lon="-1.13816167">
        <ele>834.0</ele>
        <time>2019-07-31T13:13:58.151Z</time>
      </trkpt>
      <trkpt lat="42.98944167" lon="-1.13816">
        <ele>834.0</ele>
        <time>2019-07-31T13:13:59.157Z</time>
      </trkpt>
      <trkpt lat="42.989425" lon="-1.13815833">
        <ele>834.0</ele>
        <time>2019-07-31T13:14:00.163Z</time>
      </trkpt>
      <trkpt lat="42.98941" lon="-1.138155">
        <ele>834.0</ele>
        <time>2019-07-31T13:14:01.169Z</time>
      </trkpt>
      <trkpt lat="42.98939167" lon="-1.138155">
        <ele>835.0</ele>
        <time>2019-07-31T13:14:02.173Z</time>
      </trkpt>
      <trkpt lat="42.989375" lon="-1.13815667">
        <ele>836.0</ele>
        <time>2019-07-31T13:14:03.180Z</time>
      </trkpt>
      <trkpt lat="42.98935667" lon="-1.13816167">
        <ele>836.0</ele>
        <time>2019-07-31T13:14:04.185Z</time>
      </trkpt>
      <trkpt lat="42.98933833" lon="-1.13816333">
        <ele>836.0</ele>
        <time>2019-07-31T13:14:05.065Z</time>
      </trkpt>
      <trkpt lat="42.989325" lon="-1.13817167">
        <ele>836.0</ele>
        <time>2019-07-31T13:14:06.070Z</time>
      </trkpt>
      <trkpt lat="42.98931167" lon="-1.13817333">
        <ele>836.0</ele>
        <time>2019-07-31T13:14:07.077Z</time>
      </trkpt>
      <trkpt lat="42.98930333" lon="-1.138165">
        <ele>835.0</ele>
        <time>2019-07-31T13:14:08.082Z</time>
      </trkpt>
      <trkpt lat="42.98928833" lon="-1.13816">
        <ele>834.0</ele>
        <time>2019-07-31T13:14:09.088Z</time>
      </trkpt>
      <trkpt lat="42.98927833" lon="-1.13814667">
        <ele>834.0</ele>
        <time>2019-07-31T13:14:10.093Z</time>
      </trkpt>
      <trkpt lat="42.98926833" lon="-1.138145">
        <ele>832.0</ele>
        <time>2019-07-31T13:14:11.099Z</time>
      </trkpt>
      <trkpt lat="42.98925333" lon="-1.13815333">
        <ele>830.0</ele>
        <time>2019-07-31T13:14:12.104Z</time>
      </trkpt>
      <trkpt lat="42.98923833" lon="-1.13815333">
        <ele>830.0</ele>
        <time>2019-07-31T13:14:13.111Z</time>
      </trkpt>
      <trkpt lat="42.98923333" lon="-1.13814333">
        <ele>829.0</ele>
        <time>2019-07-31T13:14:14.116Z</time>
      </trkpt>
      <trkpt lat="42.98922333" lon="-1.138135">
        <ele>829.0</ele>
        <time>2019-07-31T13:14:15.122Z</time>
      </trkpt>
      <trkpt lat="42.98922333" lon="-1.13812333">
        <ele>827.0</ele>
        <time>2019-07-31T13:14:16.126Z</time>
      </trkpt>
      <trkpt lat="42.98921667" lon="-1.13812">
        <ele>826.0</ele>
        <time>2019-07-31T13:14:17.134Z</time>
      </trkpt>
      <trkpt lat="42.9892" lon="-1.13811667">
        <ele>827.0</ele>
        <time>2019-07-31T13:14:18.139Z</time>
      </trkpt>
      <trkpt lat="42.98918333" lon="-1.13811667">
        <ele>828.0</ele>
        <time>2019-07-31T13:14:19.143Z</time>
      </trkpt>
      <trkpt lat="42.98917833" lon="-1.13810833">
        <ele>827.0</ele>
        <time>2019-07-31T13:14:20.149Z</time>
      </trkpt>
      <trkpt lat="42.98916333" lon="-1.138105">
        <ele>827.0</ele>
        <time>2019-07-31T13:14:21.155Z</time>
      </trkpt>
      <trkpt lat="42.98915333" lon="-1.1381">
        <ele>826.0</ele>
        <time>2019-07-31T13:14:22.161Z</time>
      </trkpt>
      <trkpt lat="42.98914167" lon="-1.13810167">
        <ele>825.0</ele>
        <time>2019-07-31T13:14:23.168Z</time>
      </trkpt>
      <trkpt lat="42.98913833" lon="-1.13810333">
        <ele>825.0</ele>
        <time>2019-07-31T13:14:24.173Z</time>
      </trkpt>
      <trkpt lat="42.98912333" lon="-1.13810167">
        <ele>825.0</ele>
        <time>2019-07-31T13:14:25.176Z</time>
      </trkpt>
      <trkpt lat="42.98910167" lon="-1.13810333">
        <ele>825.0</ele>
        <time>2019-07-31T13:14:26.183Z</time>
      </trkpt>
      <trkpt lat="42.98909" lon="-1.1381">
        <ele>825.0</ele>
        <time>2019-07-31T13:14:27.063Z</time>
      </trkpt>
      <trkpt lat="42.98907667" lon="-1.13809833">
        <ele>824.0</ele>
        <time>2019-07-31T13:14:28.068Z</time>
      </trkpt>
      <trkpt lat="42.989065" lon="-1.13809333">
        <ele>823.0</ele>
        <time>2019-07-31T13:14:29.073Z</time>
      </trkpt>
      <trkpt lat="42.98905167" lon="-1.13808667">
        <ele>825.0</ele>
        <time>2019-07-31T13:14:30.079Z</time>
      </trkpt>
      <trkpt lat="42.98904333" lon="-1.13808833">
        <ele>826.0</ele>
        <time>2019-07-31T13:14:31.084Z</time>
      </trkpt>
      <trkpt lat="42.989035" lon="-1.13808167">
        <ele>827.0</ele>
        <time>2019-07-31T13:14:32.088Z</time>
      </trkpt>
      <trkpt lat="42.989025" lon="-1.13807167">
        <ele>828.0</ele>
        <time>2019-07-31T13:14:33.094Z</time>
      </trkpt>
      <trkpt lat="42.98902" lon="-1.13807167">
        <ele>829.0</ele>
        <time>2019-07-31T13:14:34.101Z</time>
      </trkpt>
      <trkpt lat="42.98901" lon="-1.138065">
        <ele>830.0</ele>
        <time>2019-07-31T13:14:35.105Z</time>
      </trkpt>
      <trkpt lat="42.98900167" lon="-1.138055">
        <ele>831.0</ele>
        <time>2019-07-31T13:14:36.112Z</time>
      </trkpt>
      <trkpt lat="42.988985" lon="-1.13805167">
        <ele>831.0</ele>
        <time>2019-07-31T13:14:37.118Z</time>
      </trkpt>
      <trkpt lat="42.98897167" lon="-1.13804667">
        <ele>832.0</ele>
        <time>2019-07-31T13:14:38.124Z</time>
      </trkpt>
      <trkpt lat="42.98895833" lon="-1.13804667">
        <ele>832.0</ele>
        <time>2019-07-31T13:14:39.130Z</time>
      </trkpt>
      <trkpt lat="42.988945" lon="-1.13804">
        <ele>832.0</ele>
        <time>2019-07-31T13:14:40.135Z</time>
      </trkpt>
      <trkpt lat="42.988945" lon="-1.13803167">
        <ele>832.0</ele>
        <time>2019-07-31T13:14:41.141Z</time>
      </trkpt>
      <trkpt lat="42.988945" lon="-1.13802667">
        <ele>832.0</ele>
        <time>2019-07-31T13:14:42.149Z</time>
      </trkpt>
      <trkpt lat="42.98895167" lon="-1.13801167">
        <ele>831.0</ele>
        <time>2019-07-31T13:14:43.156Z</time>
      </trkpt>
      <trkpt lat="42.988955" lon="-1.138005">
        <ele>830.0</ele>
        <time>2019-07-31T13:14:44.161Z</time>
      </trkpt>
      <trkpt lat="42.98896333" lon="-1.13799833">
        <ele>830.0</ele>
        <time>2019-07-31T13:14:45.167Z</time>
      </trkpt>
      <trkpt lat="42.98896333" lon="-1.13798833">
        <ele>830.0</ele>
        <time>2019-07-31T13:14:46.171Z</time>
      </trkpt>
      <trkpt lat="42.988965" lon="-1.137975">
        <ele>829.0</ele>
        <time>2019-07-31T13:14:47.176Z</time>
      </trkpt>
      <trkpt lat="42.98896" lon="-1.13796667">
        <ele>829.0</ele>
        <time>2019-07-31T13:14:48.181Z</time>
      </trkpt>
      <trkpt lat="42.98895333" lon="-1.13795833">
        <ele>829.0</ele>
        <time>2019-07-31T13:14:49.061Z</time>
      </trkpt>
      <trkpt lat="42.98895" lon="-1.13795">
        <ele>829.0</ele>
        <time>2019-07-31T13:14:50.067Z</time>
      </trkpt>
      <trkpt lat="42.98894833" lon="-1.137945">
        <ele>828.0</ele>
        <time>2019-07-31T13:14:51.074Z</time>
      </trkpt>
      <trkpt lat="42.988945" lon="-1.13794167">
        <ele>828.0</ele>
        <time>2019-07-31T13:14:52.080Z</time>
      </trkpt>
      <trkpt lat="42.988935" lon="-1.13794">
        <ele>828.0</ele>
        <time>2019-07-31T13:14:53.087Z</time>
      </trkpt>
      <trkpt lat="42.988925" lon="-1.13794">
        <ele>828.0</ele>
        <time>2019-07-31T13:14:54.093Z</time>
      </trkpt>
      <trkpt lat="42.98891667" lon="-1.13794167">
        <ele>828.0</ele>
        <time>2019-07-31T13:14:55.098Z</time>
      </trkpt>
      <trkpt lat="42.98890667" lon="-1.13794333">
        <ele>829.0</ele>
        <time>2019-07-31T13:14:56.102Z</time>
      </trkpt>
      <trkpt lat="42.9889" lon="-1.13794167">
        <ele>829.0</ele>
        <time>2019-07-31T13:14:57.106Z</time>
      </trkpt>
      <trkpt lat="42.98889333" lon="-1.137945">
        <ele>828.0</ele>
        <time>2019-07-31T13:14:58.111Z</time>
      </trkpt>
      <trkpt lat="42.98889167" lon="-1.13794667">
        <ele>829.0</ele>
        <time>2019-07-31T13:14:59.115Z</time>
      </trkpt>
      <trkpt lat="42.98888667" lon="-1.13794667">
        <ele>829.0</ele>
        <time>2019-07-31T13:15:00.121Z</time>
      </trkpt>
      <trkpt lat="42.98888" lon="-1.137945">
        <ele>829.0</ele>
        <time>2019-07-31T13:15:01.125Z</time>
      </trkpt>
      <trkpt lat="42.98887333" lon="-1.13793667">
        <ele>829.0</ele>
        <time>2019-07-31T13:15:02.129Z</time>
      </trkpt>
      <trkpt lat="42.98886167" lon="-1.13793667">
        <ele>828.0</ele>
        <time>2019-07-31T13:15:03.134Z</time>
      </trkpt>
      <trkpt lat="42.98884833" lon="-1.137935">
        <ele>829.0</ele>
        <time>2019-07-31T13:15:04.142Z</time>
      </trkpt>
      <trkpt lat="42.98883333" lon="-1.13794167">
        <ele>830.0</ele>
        <time>2019-07-31T13:15:05.148Z</time>
      </trkpt>
      <trkpt lat="42.98881667" lon="-1.13795333">
        <ele>830.0</ele>
        <time>2019-07-31T13:15:06.150Z</time>
      </trkpt>
      <trkpt lat="42.9888" lon="-1.13796333">
        <ele>830.0</ele>
        <time>2019-07-31T13:15:07.154Z</time>
      </trkpt>
      <trkpt lat="42.988785" lon="-1.13797667">
        <ele>831.0</ele>
        <time>2019-07-31T13:15:08.158Z</time>
      </trkpt>
      <trkpt lat="42.98876667" lon="-1.13798667">
        <ele>832.0</ele>
        <time>2019-07-31T13:15:09.164Z</time>
      </trkpt>
      <trkpt lat="42.98875167" lon="-1.137995">
        <ele>832.0</ele>
        <time>2019-07-31T13:15:10.168Z</time>
      </trkpt>
      <trkpt lat="42.98873667" lon="-1.13801">
        <ele>832.0</ele>
        <time>2019-07-31T13:15:11.173Z</time>
      </trkpt>
      <trkpt lat="42.98872333" lon="-1.13802167">
        <ele>833.0</ele>
        <time>2019-07-31T13:15:12.179Z</time>
      </trkpt>
      <trkpt lat="42.98870833" lon="-1.13803333">
        <ele>833.0</ele>
        <time>2019-07-31T13:15:13.184Z</time>
      </trkpt>
      <trkpt lat="42.98869167" lon="-1.13803167">
        <ele>833.0</ele>
        <time>2019-07-31T13:15:14.066Z</time>
      </trkpt>
      <trkpt lat="42.98866833" lon="-1.138035">
        <ele>834.0</ele>
        <time>2019-07-31T13:15:15.073Z</time>
      </trkpt>
      <trkpt lat="42.98865167" lon="-1.13803333">
        <ele>835.0</ele>
        <time>2019-07-31T13:15:16.078Z</time>
      </trkpt>
      <trkpt lat="42.98863667" lon="-1.13802833">
        <ele>834.0</ele>
        <time>2019-07-31T13:15:17.084Z</time>
      </trkpt>
      <trkpt lat="42.98862" lon="-1.13802333">
        <ele>834.0</ele>
        <time>2019-07-31T13:15:18.091Z</time>
      </trkpt>
      <trkpt lat="42.98860833" lon="-1.13802333">
        <ele>834.0</ele>
        <time>2019-07-31T13:15:19.096Z</time>
      </trkpt>
      <trkpt lat="42.98859167" lon="-1.13803167">
        <ele>833.0</ele>
        <time>2019-07-31T13:15:20.101Z</time>
      </trkpt>
      <trkpt lat="42.988575" lon="-1.13803833">
        <ele>833.0</ele>
        <time>2019-07-31T13:15:21.108Z</time>
      </trkpt>
      <trkpt lat="42.98856333" lon="-1.138045">
        <ele>833.0</ele>
        <time>2019-07-31T13:15:22.114Z</time>
      </trkpt>
      <trkpt lat="42.98855" lon="-1.13805333">
        <ele>834.0</ele>
        <time>2019-07-31T13:15:23.117Z</time>
      </trkpt>
      <trkpt lat="42.988535" lon="-1.13806167">
        <ele>834.0</ele>
        <time>2019-07-31T13:15:24.121Z</time>
      </trkpt>
      <trkpt lat="42.988525" lon="-1.13807">
        <ele>834.0</ele>
        <time>2019-07-31T13:15:25.127Z</time>
      </trkpt>
      <trkpt lat="42.98851833" lon="-1.13807833">
        <ele>834.0</ele>
        <time>2019-07-31T13:15:26.132Z</time>
      </trkpt>
      <trkpt lat="42.98850167" lon="-1.13809333">
        <ele>833.0</ele>
        <time>2019-07-31T13:15:27.135Z</time>
      </trkpt>
      <trkpt lat="42.98849333" lon="-1.13810167">
        <ele>832.0</ele>
        <time>2019-07-31T13:15:28.139Z</time>
      </trkpt>
      <trkpt lat="42.98849667" lon="-1.13810833">
        <ele>831.0</ele>
        <time>2019-07-31T13:15:29.144Z</time>
      </trkpt>
      <trkpt lat="42.988505" lon="-1.13810833">
        <ele>831.0</ele>
        <time>2019-07-31T13:15:30.149Z</time>
      </trkpt>
      <trkpt lat="42.988505" lon="-1.13811167">
        <ele>831.0</ele>
        <time>2019-07-31T13:15:31.155Z</time>
      </trkpt>
      <trkpt lat="42.98851333" lon="-1.13810667">
        <ele>831.0</ele>
        <time>2019-07-31T13:15:32.161Z</time>
      </trkpt>
      <trkpt lat="42.98852" lon="-1.138115">
        <ele>830.0</ele>
        <time>2019-07-31T13:15:33.167Z</time>
      </trkpt>
      <trkpt lat="42.98852833" lon="-1.13812333">
        <ele>831.0</ele>
        <time>2019-07-31T13:15:34.174Z</time>
      </trkpt>
      <trkpt lat="42.98853833" lon="-1.13812">
        <ele>830.0</ele>
        <time>2019-07-31T13:15:35.179Z</time>
      </trkpt>
      <trkpt lat="42.98855333" lon="-1.138115">
        <ele>829.0</ele>
        <time>2019-07-31T13:15:36.185Z</time>
      </trkpt>
      <trkpt lat="42.98856833" lon="-1.13811">
        <ele>829.0</ele>
        <time>2019-07-31T13:15:37.062Z</time>
      </trkpt>
      <trkpt lat="42.98858" lon="-1.1381">
        <ele>829.0</ele>
        <time>2019-07-31T13:15:38.065Z</time>
      </trkpt>
      <trkpt lat="42.98859333" lon="-1.138095">
        <ele>830.0</ele>
        <time>2019-07-31T13:15:39.069Z</time>
      </trkpt>
      <trkpt lat="42.98860833" lon="-1.13808833">
        <ele>830.0</ele>
        <time>2019-07-31T13:15:40.072Z</time>
      </trkpt>
      <trkpt lat="42.98862167" lon="-1.138085">
        <ele>830.0</ele>
        <time>2019-07-31T13:15:41.078Z</time>
      </trkpt>
      <trkpt lat="42.988635" lon="-1.13807833">
        <ele>830.0</ele>
        <time>2019-07-31T13:15:42.085Z</time>
      </trkpt>
      <trkpt lat="42.98864833" lon="-1.13806833">
        <ele>831.0</ele>
        <time>2019-07-31T13:15:43.090Z</time>
      </trkpt>
      <trkpt lat="42.98866" lon="-1.13806">
        <ele>831.0</ele>
        <time>2019-07-31T13:15:44.093Z</time>
      </trkpt>
      <trkpt lat="42.98866833" lon="-1.13805">
        <ele>831.0</ele>
        <time>2019-07-31T13:15:45.098Z</time>
      </trkpt>
      <trkpt lat="42.98868" lon="-1.13804">
        <ele>832.0</ele>
        <time>2019-07-31T13:15:46.105Z</time>
      </trkpt>
      <trkpt lat="42.98869" lon="-1.13803">
        <ele>832.0</ele>
        <time>2019-07-31T13:15:47.110Z</time>
      </trkpt>
      <trkpt lat="42.98869833" lon="-1.13802">
        <ele>833.0</ele>
        <time>2019-07-31T13:15:48.114Z</time>
      </trkpt>
      <trkpt lat="42.98870667" lon="-1.13801">
        <ele>833.0</ele>
        <time>2019-07-31T13:15:49.119Z</time>
      </trkpt>
      <trkpt lat="42.98871333" lon="-1.13799833">
        <ele>834.0</ele>
        <time>2019-07-31T13:15:50.124Z</time>
      </trkpt>
      <trkpt lat="42.98872" lon="-1.13799">
        <ele>834.0</ele>
        <time>2019-07-31T13:15:51.130Z</time>
      </trkpt>
      <trkpt lat="42.98873" lon="-1.137985">
        <ele>835.0</ele>
        <time>2019-07-31T13:15:52.136Z</time>
      </trkpt>
      <trkpt lat="42.98873667" lon="-1.13797833">
        <ele>835.0</ele>
        <time>2019-07-31T13:15:53.141Z</time>
      </trkpt>
      <trkpt lat="42.98874667" lon="-1.13796833">
        <ele>836.0</ele>
        <time>2019-07-31T13:15:54.147Z</time>
      </trkpt>
      <trkpt lat="42.988755" lon="-1.13796333">
        <ele>836.0</ele>
        <time>2019-07-31T13:15:55.152Z</time>
      </trkpt>
      <trkpt lat="42.988765" lon="-1.13796">
        <ele>837.0</ele>
        <time>2019-07-31T13:15:56.159Z</time>
      </trkpt>
      <trkpt lat="42.98877167" lon="-1.137955">
        <ele>837.0</ele>
        <time>2019-07-31T13:15:57.164Z</time>
      </trkpt>
      <trkpt lat="42.98877833" lon="-1.137955">
        <ele>838.0</ele>
        <time>2019-07-31T13:15:58.170Z</time>
      </trkpt>
      <trkpt lat="42.98878667" lon="-1.137955">
        <ele>838.0</ele>
        <time>2019-07-31T13:15:59.176Z</time>
      </trkpt>
      <trkpt lat="42.988795" lon="-1.13795333">
        <ele>838.0</ele>
        <time>2019-07-31T13:16:00.181Z</time>
      </trkpt>
      <trkpt lat="42.98880333" lon="-1.13795167">
        <ele>839.0</ele>
        <time>2019-07-31T13:16:01.186Z</time>
      </trkpt>
      <trkpt lat="42.98881333" lon="-1.13794833">
        <ele>839.0</ele>
        <time>2019-07-31T13:16:02.066Z</time>
      </trkpt>
      <trkpt lat="42.988825" lon="-1.13795">
        <ele>839.0</ele>
        <time>2019-07-31T13:16:03.072Z</time>
      </trkpt>
      <trkpt lat="42.98883667" lon="-1.13794833">
        <ele>840.0</ele>
        <time>2019-07-31T13:16:04.077Z</time>
      </trkpt>
      <trkpt lat="42.98885" lon="-1.13794833">
        <ele>840.0</ele>
        <time>2019-07-31T13:16:05.083Z</time>
      </trkpt>
      <trkpt lat="42.98886167" lon="-1.13794833">
        <ele>840.0</ele>
        <time>2019-07-31T13:16:06.088Z</time>
      </trkpt>
      <trkpt lat="42.98887667" lon="-1.137945">
        <ele>841.0</ele>
        <time>2019-07-31T13:16:07.093Z</time>
      </trkpt>
      <trkpt lat="42.98888833" lon="-1.13794667">
        <ele>841.0</ele>
        <time>2019-07-31T13:16:08.099Z</time>
      </trkpt>
      <trkpt lat="42.9889" lon="-1.13794833">
        <ele>842.0</ele>
        <time>2019-07-31T13:16:09.105Z</time>
      </trkpt>
      <trkpt lat="42.98891333" lon="-1.13794833">
        <ele>842.0</ele>
        <time>2019-07-31T13:16:10.110Z</time>
      </trkpt>
      <trkpt lat="42.98892667" lon="-1.13795">
        <ele>842.0</ele>
        <time>2019-07-31T13:16:11.115Z</time>
      </trkpt>
      <trkpt lat="42.98894167" lon="-1.13795333">
        <ele>843.0</ele>
        <time>2019-07-31T13:16:12.121Z</time>
      </trkpt>
      <trkpt lat="42.98895333" lon="-1.13795333">
        <ele>843.0</ele>
        <time>2019-07-31T13:16:13.125Z</time>
      </trkpt>
      <trkpt lat="42.988965" lon="-1.13795333">
        <ele>843.0</ele>
        <time>2019-07-31T13:16:14.129Z</time>
      </trkpt>
      <trkpt lat="42.98897833" lon="-1.13796">
        <ele>844.0</ele>
        <time>2019-07-31T13:16:15.134Z</time>
      </trkpt>
      <trkpt lat="42.98899167" lon="-1.13796333">
        <ele>844.0</ele>
        <time>2019-07-31T13:16:16.139Z</time>
      </trkpt>
      <trkpt lat="42.989005" lon="-1.13796167">
        <ele>844.0</ele>
        <time>2019-07-31T13:16:17.145Z</time>
      </trkpt>
      <trkpt lat="42.98901667" lon="-1.13796167">
        <ele>844.0</ele>
        <time>2019-07-31T13:16:18.151Z</time>
      </trkpt>
      <trkpt lat="42.98903167" lon="-1.13796167">
        <ele>844.0</ele>
        <time>2019-07-31T13:16:19.156Z</time>
      </trkpt>
      <trkpt lat="42.989045" lon="-1.13796">
        <ele>843.0</ele>
        <time>2019-07-31T13:16:20.162Z</time>
      </trkpt>
      <trkpt lat="42.98905833" lon="-1.13795833">
        <ele>843.0</ele>
        <time>2019-07-31T13:16:21.168Z</time>
      </trkpt>
      <trkpt lat="42.98907167" lon="-1.137955">
        <ele>843.0</ele>
        <time>2019-07-31T13:16:22.172Z</time>
      </trkpt>
      <trkpt lat="42.98908167" lon="-1.13796167">
        <ele>843.0</ele>
        <time>2019-07-31T13:16:23.177Z</time>
      </trkpt>
      <trkpt lat="42.989095" lon="-1.13796333">
        <ele>844.0</ele>
        <time>2019-07-31T13:16:24.182Z</time>
      </trkpt>
      <trkpt lat="42.98911" lon="-1.13796833">
        <ele>845.0</ele>
        <time>2019-07-31T13:16:25.061Z</time>
      </trkpt>
      <trkpt lat="42.98912333" lon="-1.13796833">
        <ele>846.0</ele>
        <time>2019-07-31T13:16:26.066Z</time>
      </trkpt>
      <trkpt lat="42.98913667" lon="-1.13796833">
        <ele>846.0</ele>
        <time>2019-07-31T13:16:27.073Z</time>
      </trkpt>
      <trkpt lat="42.98915" lon="-1.13797">
        <ele>847.0</ele>
        <time>2019-07-31T13:16:28.079Z</time>
      </trkpt>
      <trkpt lat="42.98916333" lon="-1.13796667">
        <ele>848.0</ele>
        <time>2019-07-31T13:16:29.084Z</time>
      </trkpt>
      <trkpt lat="42.98917667" lon="-1.13796333">
        <ele>848.0</ele>
        <time>2019-07-31T13:16:30.090Z</time>
      </trkpt>
      <trkpt lat="42.98919" lon="-1.13796167">
        <ele>849.0</ele>
        <time>2019-07-31T13:16:31.094Z</time>
      </trkpt>
      <trkpt lat="42.989205" lon="-1.13795667">
        <ele>849.0</ele>
        <time>2019-07-31T13:16:32.100Z</time>
      </trkpt>
      <trkpt lat="42.98921833" lon="-1.13794667">
        <ele>848.0</ele>
        <time>2019-07-31T13:16:33.105Z</time>
      </trkpt>
      <trkpt lat="42.98923167" lon="-1.13794">
        <ele>848.0</ele>
        <time>2019-07-31T13:16:34.108Z</time>
      </trkpt>
      <trkpt lat="42.989245" lon="-1.13793833">
        <ele>848.0</ele>
        <time>2019-07-31T13:16:35.114Z</time>
      </trkpt>
      <trkpt lat="42.98925667" lon="-1.13793667">
        <ele>848.0</ele>
        <time>2019-07-31T13:16:36.121Z</time>
      </trkpt>
      <trkpt lat="42.98927" lon="-1.13793667">
        <ele>848.0</ele>
        <time>2019-07-31T13:16:37.125Z</time>
      </trkpt>
      <trkpt lat="42.98928333" lon="-1.137935">
        <ele>848.0</ele>
        <time>2019-07-31T13:16:38.131Z</time>
      </trkpt>
      <trkpt lat="42.98929667" lon="-1.13793167">
        <ele>847.0</ele>
        <time>2019-07-31T13:16:39.136Z</time>
      </trkpt>
      <trkpt lat="42.98931167" lon="-1.13793167">
        <ele>847.0</ele>
        <time>2019-07-31T13:16:40.142Z</time>
      </trkpt>
      <trkpt lat="42.98932333" lon="-1.13793167">
        <ele>847.0</ele>
        <time>2019-07-31T13:16:41.148Z</time>
      </trkpt>
      <trkpt lat="42.98933833" lon="-1.13792833">
        <ele>846.0</ele>
        <time>2019-07-31T13:16:42.153Z</time>
      </trkpt>
      <trkpt lat="42.98935" lon="-1.13793">
        <ele>846.0</ele>
        <time>2019-07-31T13:16:43.160Z</time>
      </trkpt>
      <trkpt lat="42.98936" lon="-1.13793333">
        <ele>846.0</ele>
        <time>2019-07-31T13:16:44.164Z</time>
      </trkpt>
      <trkpt lat="42.98936833" lon="-1.13794167">
        <ele>846.0</ele>
        <time>2019-07-31T13:16:45.170Z</time>
      </trkpt>
      <trkpt lat="42.98937667" lon="-1.137945">
        <ele>846.0</ele>
        <time>2019-07-31T13:16:46.175Z</time>
      </trkpt>
      <trkpt lat="42.98938833" lon="-1.13794667">
        <ele>846.0</ele>
        <time>2019-07-31T13:16:47.181Z</time>
      </trkpt>
      <trkpt lat="42.98939667" lon="-1.13795">
        <ele>846.0</ele>
        <time>2019-07-31T13:16:48.061Z</time>
      </trkpt>
      <trkpt lat="42.98940667" lon="-1.13795167">
        <ele>845.0</ele>
        <time>2019-07-31T13:16:49.068Z</time>
      </trkpt>
      <trkpt lat="42.989425" lon="-1.13795167">
        <ele>845.0</ele>
        <time>2019-07-31T13:16:50.073Z</time>
      </trkpt>
      <trkpt lat="42.98943833" lon="-1.13794833">
        <ele>844.0</ele>
        <time>2019-07-31T13:16:51.079Z</time>
      </trkpt>
      <trkpt lat="42.98945" lon="-1.13794833">
        <ele>844.0</ele>
        <time>2019-07-31T13:16:52.084Z</time>
      </trkpt>
      <trkpt lat="42.989465" lon="-1.13794167">
        <ele>844.0</ele>
        <time>2019-07-31T13:16:53.090Z</time>
      </trkpt>
      <trkpt lat="42.98948" lon="-1.13794">
        <ele>843.0</ele>
        <time>2019-07-31T13:16:54.094Z</time>
      </trkpt>
      <trkpt lat="42.98949667" lon="-1.13793667">
        <ele>843.0</ele>
        <time>2019-07-31T13:16:55.099Z</time>
      </trkpt>
      <trkpt lat="42.98951167" lon="-1.137935">
        <ele>843.0</ele>
        <time>2019-07-31T13:16:56.105Z</time>
      </trkpt>
      <trkpt lat="42.989525" lon="-1.13793333">
        <ele>843.0</ele>
        <time>2019-07-31T13:16:57.110Z</time>
      </trkpt>
      <trkpt lat="42.98953833" lon="-1.13793333">
        <ele>843.0</ele>
        <time>2019-07-31T13:16:58.116Z</time>
      </trkpt>
      <trkpt lat="42.98955333" lon="-1.13793333">
        <ele>843.0</ele>
        <time>2019-07-31T13:16:59.120Z</time>
      </trkpt>
      <trkpt lat="42.98956667" lon="-1.13793333">
        <ele>844.0</ele>
        <time>2019-07-31T13:17:00.127Z</time>
      </trkpt>
      <trkpt lat="42.98957833" lon="-1.13792667">
        <ele>843.0</ele>
        <time>2019-07-31T13:17:01.132Z</time>
      </trkpt>
      <trkpt lat="42.98959667" lon="-1.13791833">
        <ele>843.0</ele>
        <time>2019-07-31T13:17:02.136Z</time>
      </trkpt>
      <trkpt lat="42.98961167" lon="-1.13792">
        <ele>844.0</ele>
        <time>2019-07-31T13:17:03.142Z</time>
      </trkpt>
      <trkpt lat="42.98962833" lon="-1.137925">
        <ele>845.0</ele>
        <time>2019-07-31T13:17:04.147Z</time>
      </trkpt>
      <trkpt lat="42.98964833" lon="-1.13791667">
        <ele>845.0</ele>
        <time>2019-07-31T13:17:05.152Z</time>
      </trkpt>
      <trkpt lat="42.98966833" lon="-1.13790667">
        <ele>846.0</ele>
        <time>2019-07-31T13:17:06.157Z</time>
      </trkpt>
      <trkpt lat="42.989675" lon="-1.13788333">
        <ele>846.0</ele>
        <time>2019-07-31T13:17:07.164Z</time>
      </trkpt>
      <trkpt lat="42.98966833" lon="-1.137865">
        <ele>847.0</ele>
        <time>2019-07-31T13:17:08.171Z</time>
      </trkpt>
      <trkpt lat="42.98966167" lon="-1.13784167">
        <ele>848.0</ele>
        <time>2019-07-31T13:17:09.177Z</time>
      </trkpt>
      <trkpt lat="42.98966167" lon="-1.13781">
        <ele>848.0</ele>
        <time>2019-07-31T13:17:10.182Z</time>
      </trkpt>
      <trkpt lat="42.98966" lon="-1.13778167">
        <ele>849.0</ele>
        <time>2019-07-31T13:17:11.063Z</time>
      </trkpt>
      <trkpt lat="42.989655" lon="-1.13776167">
        <ele>849.0</ele>
        <time>2019-07-31T13:17:12.067Z</time>
      </trkpt>
      <trkpt lat="42.98964833" lon="-1.13774667">
        <ele>848.0</ele>
        <time>2019-07-31T13:17:13.068Z</time>
      </trkpt>
      <trkpt lat="42.98963833" lon="-1.13773833">
        <ele>848.0</ele>
        <time>2019-07-31T13:17:14.073Z</time>
      </trkpt>
      <trkpt lat="42.98962667" lon="-1.13772833">
        <ele>848.0</ele>
        <time>2019-07-31T13:17:15.077Z</time>
      </trkpt>
      <trkpt lat="42.98961333" lon="-1.13772">
        <ele>847.0</ele>
        <time>2019-07-31T13:17:16.083Z</time>
      </trkpt>
      <trkpt lat="42.98960333" lon="-1.13771">
        <ele>847.0</ele>
        <time>2019-07-31T13:17:17.088Z</time>
      </trkpt>
      <trkpt lat="42.98958833" lon="-1.13770167">
        <ele>848.0</ele>
        <time>2019-07-31T13:17:18.090Z</time>
      </trkpt>
      <trkpt lat="42.98957667" lon="-1.13769833">
        <ele>848.0</ele>
        <time>2019-07-31T13:17:19.094Z</time>
      </trkpt>
      <trkpt lat="42.989565" lon="-1.13768833">
        <ele>848.0</ele>
        <time>2019-07-31T13:17:20.099Z</time>
      </trkpt>
      <trkpt lat="42.98956" lon="-1.13766667">
        <ele>848.0</ele>
        <time>2019-07-31T13:17:21.104Z</time>
      </trkpt>
      <trkpt lat="42.98954833" lon="-1.13764833">
        <ele>848.0</ele>
        <time>2019-07-31T13:17:22.109Z</time>
      </trkpt>
      <trkpt lat="42.98953333" lon="-1.13763833">
        <ele>848.0</ele>
        <time>2019-07-31T13:17:23.114Z</time>
      </trkpt>
      <trkpt lat="42.98951667" lon="-1.13763">
        <ele>848.0</ele>
        <time>2019-07-31T13:17:24.121Z</time>
      </trkpt>
      <trkpt lat="42.98949667" lon="-1.13762667">
        <ele>849.0</ele>
        <time>2019-07-31T13:17:25.127Z</time>
      </trkpt>
      <trkpt lat="42.98947167" lon="-1.13762167">
        <ele>850.0</ele>
        <time>2019-07-31T13:17:26.132Z</time>
      </trkpt>
      <trkpt lat="42.98945833" lon="-1.13761333">
        <ele>849.0</ele>
        <time>2019-07-31T13:17:27.137Z</time>
      </trkpt>
      <trkpt lat="42.98943833" lon="-1.13760833">
        <ele>850.0</ele>
        <time>2019-07-31T13:17:28.142Z</time>
      </trkpt>
      <trkpt lat="42.989415" lon="-1.13760667">
        <ele>850.0</ele>
        <time>2019-07-31T13:17:29.149Z</time>
      </trkpt>
      <trkpt lat="42.98939833" lon="-1.13760667">
        <ele>851.0</ele>
        <time>2019-07-31T13:17:30.157Z</time>
      </trkpt>
      <trkpt lat="42.989385" lon="-1.13760833">
        <ele>851.0</ele>
        <time>2019-07-31T13:17:31.164Z</time>
      </trkpt>
      <trkpt lat="42.98937" lon="-1.13760833">
        <ele>851.0</ele>
        <time>2019-07-31T13:17:32.170Z</time>
      </trkpt>
      <trkpt lat="42.989355" lon="-1.13761">
        <ele>852.0</ele>
        <time>2019-07-31T13:17:33.174Z</time>
      </trkpt>
      <trkpt lat="42.989335" lon="-1.13760667">
        <ele>852.0</ele>
        <time>2019-07-31T13:17:34.179Z</time>
      </trkpt>
      <trkpt lat="42.98931667" lon="-1.13760167">
        <ele>853.0</ele>
        <time>2019-07-31T13:17:35.184Z</time>
      </trkpt>
      <trkpt lat="42.9893" lon="-1.13759667">
        <ele>854.0</ele>
        <time>2019-07-31T13:17:36.063Z</time>
      </trkpt>
      <trkpt lat="42.98928667" lon="-1.13759167">
        <ele>856.0</ele>
        <time>2019-07-31T13:17:37.070Z</time>
      </trkpt>
      <trkpt lat="42.98927" lon="-1.13759">
        <ele>857.0</ele>
        <time>2019-07-31T13:17:38.078Z</time>
      </trkpt>
      <trkpt lat="42.98926" lon="-1.13758667">
        <ele>857.0</ele>
        <time>2019-07-31T13:17:39.086Z</time>
      </trkpt>
      <trkpt lat="42.98924333" lon="-1.13758333">
        <ele>859.0</ele>
        <time>2019-07-31T13:17:40.090Z</time>
      </trkpt>
      <trkpt lat="42.98922333" lon="-1.137575">
        <ele>860.0</ele>
        <time>2019-07-31T13:17:41.095Z</time>
      </trkpt>
      <trkpt lat="42.98920167" lon="-1.13755833">
        <ele>861.0</ele>
        <time>2019-07-31T13:17:42.102Z</time>
      </trkpt>
      <trkpt lat="42.98919" lon="-1.137545">
        <ele>861.0</ele>
        <time>2019-07-31T13:17:43.107Z</time>
      </trkpt>
      <trkpt lat="42.98917167" lon="-1.13753">
        <ele>862.0</ele>
        <time>2019-07-31T13:17:44.113Z</time>
      </trkpt>
      <trkpt lat="42.98915333" lon="-1.13751833">
        <ele>863.0</ele>
        <time>2019-07-31T13:17:45.116Z</time>
      </trkpt>
      <trkpt lat="42.98913833" lon="-1.137505">
        <ele>863.0</ele>
        <time>2019-07-31T13:17:46.122Z</time>
      </trkpt>
      <trkpt lat="42.98912333" lon="-1.13749833">
        <ele>864.0</ele>
        <time>2019-07-31T13:17:47.127Z</time>
      </trkpt>
      <trkpt lat="42.98910833" lon="-1.13749167">
        <ele>865.0</ele>
        <time>2019-07-31T13:17:48.132Z</time>
      </trkpt>
      <trkpt lat="42.98909333" lon="-1.13748667">
        <ele>865.0</ele>
        <time>2019-07-31T13:17:49.137Z</time>
      </trkpt>
      <trkpt lat="42.98907667" lon="-1.13748333">
        <ele>865.0</ele>
        <time>2019-07-31T13:17:50.142Z</time>
      </trkpt>
      <trkpt lat="42.989065" lon="-1.137475">
        <ele>865.0</ele>
        <time>2019-07-31T13:17:51.148Z</time>
      </trkpt>
      <trkpt lat="42.98905" lon="-1.13746667">
        <ele>865.0</ele>
        <time>2019-07-31T13:17:52.155Z</time>
      </trkpt>
      <trkpt lat="42.98903833" lon="-1.13745667">
        <ele>866.0</ele>
        <time>2019-07-31T13:17:53.162Z</time>
      </trkpt>
      <trkpt lat="42.98903" lon="-1.13745333">
        <ele>865.0</ele>
        <time>2019-07-31T13:17:54.167Z</time>
      </trkpt>
      <trkpt lat="42.98902" lon="-1.13744">
        <ele>866.0</ele>
        <time>2019-07-31T13:17:55.174Z</time>
      </trkpt>
      <trkpt lat="42.98901" lon="-1.13742833">
        <ele>866.0</ele>
        <time>2019-07-31T13:17:56.178Z</time>
      </trkpt>
      <trkpt lat="42.989" lon="-1.137415">
        <ele>866.0</ele>
        <time>2019-07-31T13:17:57.184Z</time>
      </trkpt>
      <trkpt lat="42.98899167" lon="-1.137405">
        <ele>866.0</ele>
        <time>2019-07-31T13:17:58.062Z</time>
      </trkpt>
      <trkpt lat="42.988985" lon="-1.13739667">
        <ele>866.0</ele>
        <time>2019-07-31T13:17:59.068Z</time>
      </trkpt>
      <trkpt lat="42.98897667" lon="-1.13738833">
        <ele>866.0</ele>
        <time>2019-07-31T13:18:00.073Z</time>
      </trkpt>
      <trkpt lat="42.98897" lon="-1.13738167">
        <ele>866.0</ele>
        <time>2019-07-31T13:18:01.081Z</time>
      </trkpt>
      <trkpt lat="42.988965" lon="-1.13737333">
        <ele>865.0</ele>
        <time>2019-07-31T13:18:02.087Z</time>
      </trkpt>
      <trkpt lat="42.98896167" lon="-1.13735833">
        <ele>864.0</ele>
        <time>2019-07-31T13:18:03.093Z</time>
      </trkpt>
      <trkpt lat="42.988955" lon="-1.137345">
        <ele>864.0</ele>
        <time>2019-07-31T13:18:04.097Z</time>
      </trkpt>
      <trkpt lat="42.98895167" lon="-1.13733167">
        <ele>863.0</ele>
        <time>2019-07-31T13:18:05.102Z</time>
      </trkpt>
      <trkpt lat="42.98895" lon="-1.13731833">
        <ele>862.0</ele>
        <time>2019-07-31T13:18:06.105Z</time>
      </trkpt>
      <trkpt lat="42.98895" lon="-1.137305">
        <ele>861.0</ele>
        <time>2019-07-31T13:18:07.112Z</time>
      </trkpt>
      <trkpt lat="42.98895167" lon="-1.13729333">
        <ele>861.0</ele>
        <time>2019-07-31T13:18:08.118Z</time>
      </trkpt>
      <trkpt lat="42.98895333" lon="-1.13728">
        <ele>860.0</ele>
        <time>2019-07-31T13:18:09.123Z</time>
      </trkpt>
      <trkpt lat="42.98895667" lon="-1.13726667">
        <ele>859.0</ele>
        <time>2019-07-31T13:18:10.130Z</time>
      </trkpt>
      <trkpt lat="42.98895667" lon="-1.13725667">
        <ele>859.0</ele>
        <time>2019-07-31T13:18:11.135Z</time>
      </trkpt>
      <trkpt lat="42.98895333" lon="-1.13724">
        <ele>858.0</ele>
        <time>2019-07-31T13:18:12.141Z</time>
      </trkpt>
      <trkpt lat="42.98894833" lon="-1.13722333">
        <ele>858.0</ele>
        <time>2019-07-31T13:18:13.148Z</time>
      </trkpt>
      <trkpt lat="42.98894667" lon="-1.13720667">
        <ele>858.0</ele>
        <time>2019-07-31T13:18:14.154Z</time>
      </trkpt>
      <trkpt lat="42.98894667" lon="-1.13719">
        <ele>857.0</ele>
        <time>2019-07-31T13:18:15.158Z</time>
      </trkpt>
      <trkpt lat="42.98894833" lon="-1.13717333">
        <ele>856.0</ele>
        <time>2019-07-31T13:18:16.165Z</time>
      </trkpt>
      <trkpt lat="42.98894833" lon="-1.137155">
        <ele>855.0</ele>
        <time>2019-07-31T13:18:17.172Z</time>
      </trkpt>
      <trkpt lat="42.98894667" lon="-1.13714333">
        <ele>854.0</ele>
        <time>2019-07-31T13:18:18.177Z</time>
      </trkpt>
      <trkpt lat="42.98894667" lon="-1.13713333">
        <ele>853.0</ele>
        <time>2019-07-31T13:18:19.183Z</time>
      </trkpt>
      <trkpt lat="42.98893833" lon="-1.13711667">
        <ele>853.0</ele>
        <time>2019-07-31T13:18:20.065Z</time>
      </trkpt>
      <trkpt lat="42.98893333" lon="-1.13710333">
        <ele>853.0</ele>
        <time>2019-07-31T13:18:21.073Z</time>
      </trkpt>
      <trkpt lat="42.98892833" lon="-1.13709167">
        <ele>853.0</ele>
        <time>2019-07-31T13:18:22.079Z</time>
      </trkpt>
      <trkpt lat="42.98892833" lon="-1.13708167">
        <ele>853.0</ele>
        <time>2019-07-31T13:18:23.087Z</time>
      </trkpt>
      <trkpt lat="42.98892667" lon="-1.13707167">
        <ele>854.0</ele>
        <time>2019-07-31T13:18:24.092Z</time>
      </trkpt>
      <trkpt lat="42.98893" lon="-1.13706">
        <ele>855.0</ele>
        <time>2019-07-31T13:18:25.098Z</time>
      </trkpt>
      <trkpt lat="42.98893833" lon="-1.13704667">
        <ele>855.0</ele>
        <time>2019-07-31T13:18:26.103Z</time>
      </trkpt>
      <trkpt lat="42.98894" lon="-1.13703333">
        <ele>855.0</ele>
        <time>2019-07-31T13:18:27.109Z</time>
      </trkpt>
      <trkpt lat="42.98894167" lon="-1.13701833">
        <ele>856.0</ele>
        <time>2019-07-31T13:18:28.116Z</time>
      </trkpt>
      <trkpt lat="42.98893833" lon="-1.13700667">
        <ele>857.0</ele>
        <time>2019-07-31T13:18:29.122Z</time>
      </trkpt>
      <trkpt lat="42.98894167" lon="-1.13700333">
        <ele>857.0</ele>
        <time>2019-07-31T13:18:30.126Z</time>
      </trkpt>
      <trkpt lat="42.98894333" lon="-1.13699667">
        <ele>857.0</ele>
        <time>2019-07-31T13:18:31.132Z</time>
      </trkpt>
      <trkpt lat="42.98894667" lon="-1.136975">
        <ele>858.0</ele>
        <time>2019-07-31T13:18:32.135Z</time>
      </trkpt>
      <trkpt lat="42.98894667" lon="-1.13696167">
        <ele>856.0</ele>
        <time>2019-07-31T13:18:33.138Z</time>
      </trkpt>
      <trkpt lat="42.98894833" lon="-1.136955">
        <ele>854.0</ele>
        <time>2019-07-31T13:18:34.145Z</time>
      </trkpt>
      <trkpt lat="42.98895167" lon="-1.136945">
        <ele>854.0</ele>
        <time>2019-07-31T13:18:35.149Z</time>
      </trkpt>
      <trkpt lat="42.98896333" lon="-1.13693333">
        <ele>854.0</ele>
        <time>2019-07-31T13:18:36.151Z</time>
      </trkpt>
      <trkpt lat="42.988975" lon="-1.13692167">
        <ele>853.0</ele>
        <time>2019-07-31T13:18:37.155Z</time>
      </trkpt>
      <trkpt lat="42.98899" lon="-1.13690833">
        <ele>852.0</ele>
        <time>2019-07-31T13:18:38.160Z</time>
      </trkpt>
      <trkpt lat="42.98900333" lon="-1.13689667">
        <ele>852.0</ele>
        <time>2019-07-31T13:18:39.164Z</time>
      </trkpt>
      <trkpt lat="42.98900667" lon="-1.13689167">
        <ele>853.0</ele>
        <time>2019-07-31T13:18:40.168Z</time>
      </trkpt>
      <trkpt lat="42.98901333" lon="-1.13687833">
        <ele>853.0</ele>
        <time>2019-07-31T13:18:41.174Z</time>
      </trkpt>
      <trkpt lat="42.98902167" lon="-1.13686333">
        <ele>853.0</ele>
        <time>2019-07-31T13:18:42.179Z</time>
      </trkpt>
      <trkpt lat="42.98903" lon="-1.13684833">
        <ele>854.0</ele>
        <time>2019-07-31T13:18:43.186Z</time>
      </trkpt>
      <trkpt lat="42.98903667" lon="-1.136835">
        <ele>854.0</ele>
        <time>2019-07-31T13:18:44.068Z</time>
      </trkpt>
      <trkpt lat="42.989045" lon="-1.13681833">
        <ele>854.0</ele>
        <time>2019-07-31T13:18:45.075Z</time>
      </trkpt>
      <trkpt lat="42.98905167" lon="-1.13680667">
        <ele>854.0</ele>
        <time>2019-07-31T13:18:46.079Z</time>
      </trkpt>
      <trkpt lat="42.989055" lon="-1.13679833">
        <ele>854.0</ele>
        <time>2019-07-31T13:18:47.085Z</time>
      </trkpt>
      <trkpt lat="42.98905667" lon="-1.136795">
        <ele>854.0</ele>
        <time>2019-07-31T13:18:48.091Z</time>
      </trkpt>
      <trkpt lat="42.98905833" lon="-1.13679167">
        <ele>854.0</ele>
        <time>2019-07-31T13:18:49.096Z</time>
      </trkpt>
      <trkpt lat="42.98906" lon="-1.13678833">
        <ele>854.0</ele>
        <time>2019-07-31T13:18:50.101Z</time>
      </trkpt>
      <trkpt lat="42.989065" lon="-1.136785">
        <ele>854.0</ele>
        <time>2019-07-31T13:18:51.106Z</time>
      </trkpt>
      <trkpt lat="42.98907" lon="-1.13678333">
        <ele>854.0</ele>
        <time>2019-07-31T13:18:52.112Z</time>
      </trkpt>
      <trkpt lat="42.98907167" lon="-1.13678167">
        <ele>854.0</ele>
        <time>2019-07-31T13:18:53.116Z</time>
      </trkpt>
      <trkpt lat="42.989075" lon="-1.13678">
        <ele>854.0</ele>
        <time>2019-07-31T13:18:54.122Z</time>
      </trkpt>
      <trkpt lat="42.989075" lon="-1.13678">
        <ele>854.0</ele>
        <time>2019-07-31T13:18:55.129Z</time>
      </trkpt>
      <trkpt lat="42.98907667" lon="-1.13678">
        <ele>853.0</ele>
        <time>2019-07-31T13:18:56.134Z</time>
      </trkpt>
      <trkpt lat="42.98908" lon="-1.13678333">
        <ele>853.0</ele>
        <time>2019-07-31T13:18:57.137Z</time>
      </trkpt>
      <trkpt lat="42.98908333" lon="-1.13678833">
        <ele>854.0</ele>
        <time>2019-07-31T13:18:58.139Z</time>
      </trkpt>
      <trkpt lat="42.98908833" lon="-1.136795">
        <ele>854.0</ele>
        <time>2019-07-31T13:18:59.143Z</time>
      </trkpt>
      <trkpt lat="42.989095" lon="-1.13680167">
        <ele>855.0</ele>
        <time>2019-07-31T13:19:00.147Z</time>
      </trkpt>
      <trkpt lat="42.98910167" lon="-1.13680667">
        <ele>856.0</ele>
        <time>2019-07-31T13:19:01.152Z</time>
      </trkpt>
      <trkpt lat="42.989105" lon="-1.136805">
        <ele>857.0</ele>
        <time>2019-07-31T13:19:02.157Z</time>
      </trkpt>
      <trkpt lat="42.989105" lon="-1.1368">
        <ele>858.0</ele>
        <time>2019-07-31T13:19:03.160Z</time>
      </trkpt>
      <trkpt lat="42.989105" lon="-1.13679167">
        <ele>859.0</ele>
        <time>2019-07-31T13:19:04.165Z</time>
      </trkpt>
      <trkpt lat="42.989105" lon="-1.13678833">
        <ele>860.0</ele>
        <time>2019-07-31T13:19:05.168Z</time>
      </trkpt>
      <trkpt lat="42.98910167" lon="-1.13679167">
        <ele>860.0</ele>
        <time>2019-07-31T13:19:06.173Z</time>
      </trkpt>
      <trkpt lat="42.98910167" lon="-1.13679167">
        <ele>858.0</ele>
        <time>2019-07-31T13:19:07.175Z</time>
      </trkpt>
      <trkpt lat="42.989105" lon="-1.136795">
        <ele>856.0</ele>
        <time>2019-07-31T13:19:08.179Z</time>
      </trkpt>
      <trkpt lat="42.9891" lon="-1.13679">
        <ele>856.0</ele>
        <time>2019-07-31T13:19:09.184Z</time>
      </trkpt>
      <trkpt lat="42.98909833" lon="-1.13678167">
        <ele>855.0</ele>
        <time>2019-07-31T13:19:10.062Z</time>
      </trkpt>
      <trkpt lat="42.98909667" lon="-1.13678">
        <ele>855.0</ele>
        <time>2019-07-31T13:19:11.067Z</time>
      </trkpt>
      <trkpt lat="42.98909667" lon="-1.13677667">
        <ele>855.0</ele>
        <time>2019-07-31T13:19:12.074Z</time>
      </trkpt>
      <trkpt lat="42.989095" lon="-1.13677333">
        <ele>855.0</ele>
        <time>2019-07-31T13:19:13.081Z</time>
      </trkpt>
      <trkpt lat="42.98909167" lon="-1.13676667">
        <ele>856.0</ele>
        <time>2019-07-31T13:19:14.087Z</time>
      </trkpt>
      <trkpt lat="42.98908833" lon="-1.13676">
        <ele>856.0</ele>
        <time>2019-07-31T13:19:15.092Z</time>
      </trkpt>
      <trkpt lat="42.989085" lon="-1.13675333">
        <ele>855.0</ele>
        <time>2019-07-31T13:19:16.097Z</time>
      </trkpt>
      <trkpt lat="42.98908167" lon="-1.136745">
        <ele>855.0</ele>
        <time>2019-07-31T13:19:17.103Z</time>
      </trkpt>
      <trkpt lat="42.98908167" lon="-1.136735">
        <ele>854.0</ele>
        <time>2019-07-31T13:19:18.109Z</time>
      </trkpt>
      <trkpt lat="42.98908333" lon="-1.13673">
        <ele>853.0</ele>
        <time>2019-07-31T13:19:19.114Z</time>
      </trkpt>
      <trkpt lat="42.98908667" lon="-1.136725">
        <ele>853.0</ele>
        <time>2019-07-31T13:19:20.121Z</time>
      </trkpt>
      <trkpt lat="42.98909" lon="-1.13672">
        <ele>852.0</ele>
        <time>2019-07-31T13:19:21.127Z</time>
      </trkpt>
      <trkpt lat="42.98909333" lon="-1.13671333">
        <ele>852.0</ele>
        <time>2019-07-31T13:19:22.130Z</time>
      </trkpt>
      <trkpt lat="42.98909667" lon="-1.13671667">
        <ele>852.0</ele>
        <time>2019-07-31T13:19:23.135Z</time>
      </trkpt>
      <trkpt lat="42.9891" lon="-1.136715">
        <ele>852.0</ele>
        <time>2019-07-31T13:19:24.139Z</time>
      </trkpt>
      <trkpt lat="42.98910333" lon="-1.13671667">
        <ele>852.0</ele>
        <time>2019-07-31T13:19:25.147Z</time>
      </trkpt>
      <trkpt lat="42.98910833" lon="-1.13672167">
        <ele>852.0</ele>
        <time>2019-07-31T13:19:26.153Z</time>
      </trkpt>
      <trkpt lat="42.98911333" lon="-1.13672">
        <ele>852.0</ele>
        <time>2019-07-31T13:19:27.159Z</time>
      </trkpt>
      <trkpt lat="42.98911" lon="-1.13671">
        <ele>853.0</ele>
        <time>2019-07-31T13:19:28.166Z</time>
      </trkpt>
      <trkpt lat="42.9891" lon="-1.13670167">
        <ele>853.0</ele>
        <time>2019-07-31T13:19:29.172Z</time>
      </trkpt>
      <trkpt lat="42.98909167" lon="-1.13668833">
        <ele>855.0</ele>
        <time>2019-07-31T13:19:30.176Z</time>
      </trkpt>
      <trkpt lat="42.98908167" lon="-1.136685">
        <ele>855.0</ele>
        <time>2019-07-31T13:19:31.180Z</time>
      </trkpt>
      <trkpt lat="42.98908167" lon="-1.13667667">
        <ele>856.0</ele>
        <time>2019-07-31T13:19:32.185Z</time>
      </trkpt>
      <trkpt lat="42.98908667" lon="-1.13667167">
        <ele>856.0</ele>
        <time>2019-07-31T13:19:33.066Z</time>
      </trkpt>
      <trkpt lat="42.989085" lon="-1.13667">
        <ele>856.0</ele>
        <time>2019-07-31T13:19:34.068Z</time>
      </trkpt>
      <trkpt lat="42.989075" lon="-1.13666667">
        <ele>854.0</ele>
        <time>2019-07-31T13:19:35.073Z</time>
      </trkpt>
      <trkpt lat="42.989065" lon="-1.13667333">
        <ele>854.0</ele>
        <time>2019-07-31T13:19:36.079Z</time>
      </trkpt>
      <trkpt lat="42.98906167" lon="-1.13667167">
        <ele>854.0</ele>
        <time>2019-07-31T13:19:37.085Z</time>
      </trkpt>
      <trkpt lat="42.98906333" lon="-1.13666833">
        <ele>855.0</ele>
        <time>2019-07-31T13:19:38.091Z</time>
      </trkpt>
      <trkpt lat="42.98906333" lon="-1.13667">
        <ele>855.0</ele>
        <time>2019-07-31T13:19:39.096Z</time>
      </trkpt>
      <trkpt lat="42.98906667" lon="-1.136665">
        <ele>855.0</ele>
        <time>2019-07-31T13:19:40.100Z</time>
      </trkpt>
      <trkpt lat="42.98906667" lon="-1.13666333">
        <ele>854.0</ele>
        <time>2019-07-31T13:19:41.105Z</time>
      </trkpt>
      <trkpt lat="42.98906667" lon="-1.13666667">
        <ele>854.0</ele>
        <time>2019-07-31T13:19:42.111Z</time>
      </trkpt>
      <trkpt lat="42.98905833" lon="-1.13667">
        <ele>854.0</ele>
        <time>2019-07-31T13:19:43.115Z</time>
      </trkpt>
      <trkpt lat="42.98905333" lon="-1.13667333">
        <ele>854.0</ele>
        <time>2019-07-31T13:19:44.119Z</time>
      </trkpt>
      <trkpt lat="42.989045" lon="-1.136675">
        <ele>854.0</ele>
        <time>2019-07-31T13:19:45.126Z</time>
      </trkpt>
      <trkpt lat="42.98904333" lon="-1.13667667">
        <ele>853.0</ele>
        <time>2019-07-31T13:19:46.132Z</time>
      </trkpt>
      <trkpt lat="42.98904" lon="-1.13667667">
        <ele>853.0</ele>
        <time>2019-07-31T13:19:47.137Z</time>
      </trkpt>
      <trkpt lat="42.989035" lon="-1.13668">
        <ele>854.0</ele>
        <time>2019-07-31T13:19:48.144Z</time>
      </trkpt>
      <trkpt lat="42.98903" lon="-1.13668833">
        <ele>854.0</ele>
        <time>2019-07-31T13:19:49.149Z</time>
      </trkpt>
      <trkpt lat="42.989025" lon="-1.13669167">
        <ele>854.0</ele>
        <time>2019-07-31T13:19:50.154Z</time>
      </trkpt>
      <trkpt lat="42.989025" lon="-1.13669333">
        <ele>854.0</ele>
        <time>2019-07-31T13:19:51.158Z</time>
      </trkpt>
      <trkpt lat="42.98902167" lon="-1.13669667">
        <ele>855.0</ele>
        <time>2019-07-31T13:19:52.163Z</time>
      </trkpt>
      <trkpt lat="42.98901667" lon="-1.13669833">
        <ele>855.0</ele>
        <time>2019-07-31T13:19:53.169Z</time>
      </trkpt>
      <trkpt lat="42.98901667" lon="-1.13670167">
        <ele>855.0</ele>
        <time>2019-07-31T13:19:54.174Z</time>
      </trkpt>
      <trkpt lat="42.98901833" lon="-1.13670167">
        <ele>855.0</ele>
        <time>2019-07-31T13:19:55.180Z</time>
      </trkpt>
      <trkpt lat="42.98902" lon="-1.13670833">
        <ele>854.0</ele>
        <time>2019-07-31T13:19:56.061Z</time>
      </trkpt>
      <trkpt lat="42.98902167" lon="-1.13671333">
        <ele>853.0</ele>
        <time>2019-07-31T13:19:57.068Z</time>
      </trkpt>
      <trkpt lat="42.98902167" lon="-1.136715">
        <ele>852.0</ele>
        <time>2019-07-31T13:19:58.073Z</time>
      </trkpt>
      <trkpt lat="42.98901833" lon="-1.13671167">
        <ele>852.0</ele>
        <time>2019-07-31T13:19:59.079Z</time>
      </trkpt>
      <trkpt lat="42.989015" lon="-1.13671167">
        <ele>852.0</ele>
        <time>2019-07-31T13:20:00.085Z</time>
      </trkpt>
      <trkpt lat="42.98901667" lon="-1.13671167">
        <ele>852.0</ele>
        <time>2019-07-31T13:20:01.089Z</time>
      </trkpt>
      <trkpt lat="42.989015" lon="-1.13671167">
        <ele>852.0</ele>
        <time>2019-07-31T13:20:02.089Z</time>
      </trkpt>
      <trkpt lat="42.98901333" lon="-1.13671167">
        <ele>853.0</ele>
        <time>2019-07-31T13:20:03.092Z</time>
      </trkpt>
      <trkpt lat="42.98901167" lon="-1.13671333">
        <ele>853.0</ele>
        <time>2019-07-31T13:20:04.098Z</time>
      </trkpt>
      <trkpt lat="42.98901" lon="-1.13671167">
        <ele>853.0</ele>
        <time>2019-07-31T13:20:05.103Z</time>
      </trkpt>
      <trkpt lat="42.98900833" lon="-1.13670667">
        <ele>853.0</ele>
        <time>2019-07-31T13:20:06.108Z</time>
      </trkpt>
      <trkpt lat="42.98900667" lon="-1.13670833">
        <ele>853.0</ele>
        <time>2019-07-31T13:20:07.112Z</time>
      </trkpt>
      <trkpt lat="42.98900333" lon="-1.13671">
        <ele>853.0</ele>
        <time>2019-07-31T13:20:08.118Z</time>
      </trkpt>
      <trkpt lat="42.989" lon="-1.13670833">
        <ele>853.0</ele>
        <time>2019-07-31T13:20:09.125Z</time>
      </trkpt>
      <trkpt lat="42.989" lon="-1.13671">
        <ele>853.0</ele>
        <time>2019-07-31T13:20:10.130Z</time>
      </trkpt>
      <trkpt lat="42.98899833" lon="-1.13671333">
        <ele>853.0</ele>
        <time>2019-07-31T13:20:11.133Z</time>
      </trkpt>
      <trkpt lat="42.98899667" lon="-1.13671667">
        <ele>853.0</ele>
        <time>2019-07-31T13:20:12.137Z</time>
      </trkpt>
      <trkpt lat="42.98899667" lon="-1.13672167">
        <ele>852.0</ele>
        <time>2019-07-31T13:20:13.143Z</time>
      </trkpt>
      <trkpt lat="42.98899333" lon="-1.13671833">
        <ele>852.0</ele>
        <time>2019-07-31T13:20:14.148Z</time>
      </trkpt>
      <trkpt lat="42.98899333" lon="-1.13671">
        <ele>852.0</ele>
        <time>2019-07-31T13:20:15.154Z</time>
      </trkpt>
      <trkpt lat="42.988995" lon="-1.13671167">
        <ele>852.0</ele>
        <time>2019-07-31T13:20:16.161Z</time>
      </trkpt>
      <trkpt lat="42.98899833" lon="-1.136715">
        <ele>852.0</ele>
        <time>2019-07-31T13:20:17.168Z</time>
      </trkpt>
      <trkpt lat="42.988995" lon="-1.136715">
        <ele>852.0</ele>
        <time>2019-07-31T13:20:18.172Z</time>
      </trkpt>
      <trkpt lat="42.98899333" lon="-1.136715">
        <ele>852.0</ele>
        <time>2019-07-31T13:20:19.179Z</time>
      </trkpt>
      <trkpt lat="42.98899667" lon="-1.13671167">
        <ele>852.0</ele>
        <time>2019-07-31T13:20:20.185Z</time>
      </trkpt>
      <trkpt lat="42.98899833" lon="-1.13671333">
        <ele>852.0</ele>
        <time>2019-07-31T13:20:21.066Z</time>
      </trkpt>
      <trkpt lat="42.989" lon="-1.13671167">
        <ele>851.0</ele>
        <time>2019-07-31T13:20:22.073Z</time>
      </trkpt>
      <trkpt lat="42.98899667" lon="-1.13671333">
        <ele>850.0</ele>
        <time>2019-07-31T13:20:23.078Z</time>
      </trkpt>
      <trkpt lat="42.988995" lon="-1.136715">
        <ele>849.0</ele>
        <time>2019-07-31T13:20:24.083Z</time>
      </trkpt>
      <trkpt lat="42.988995" lon="-1.13671667">
        <ele>849.0</ele>
        <time>2019-07-31T13:20:25.086Z</time>
      </trkpt>
      <trkpt lat="42.98899333" lon="-1.13671667">
        <ele>848.0</ele>
        <time>2019-07-31T13:20:26.091Z</time>
      </trkpt>
      <trkpt lat="42.98899167" lon="-1.136715">
        <ele>849.0</ele>
        <time>2019-07-31T13:20:27.096Z</time>
      </trkpt>
      <trkpt lat="42.98898833" lon="-1.13671167">
        <ele>849.0</ele>
        <time>2019-07-31T13:20:28.104Z</time>
      </trkpt>
      <trkpt lat="42.98898833" lon="-1.13671">
        <ele>848.0</ele>
        <time>2019-07-31T13:20:29.110Z</time>
      </trkpt>
      <trkpt lat="42.98899" lon="-1.13670833">
        <ele>848.0</ele>
        <time>2019-07-31T13:20:30.117Z</time>
      </trkpt>
      <trkpt lat="42.98899" lon="-1.13670833">
        <ele>848.0</ele>
        <time>2019-07-31T13:20:31.121Z</time>
      </trkpt>
      <trkpt lat="42.98898833" lon="-1.13671">
        <ele>848.0</ele>
        <time>2019-07-31T13:20:32.125Z</time>
      </trkpt>
      <trkpt lat="42.98898667" lon="-1.1367">
        <ele>848.0</ele>
        <time>2019-07-31T13:20:33.131Z</time>
      </trkpt>
      <trkpt lat="42.988985" lon="-1.136695">
        <ele>847.0</ele>
        <time>2019-07-31T13:20:34.137Z</time>
      </trkpt>
      <trkpt lat="42.98898333" lon="-1.13669333">
        <ele>847.0</ele>
        <time>2019-07-31T13:20:35.142Z</time>
      </trkpt>
      <trkpt lat="42.98897833" lon="-1.13669167">
        <ele>847.0</ele>
        <time>2019-07-31T13:20:36.146Z</time>
      </trkpt>
      <trkpt lat="42.988975" lon="-1.13669167">
        <ele>847.0</ele>
        <time>2019-07-31T13:20:37.152Z</time>
      </trkpt>
      <trkpt lat="42.98897333" lon="-1.13669">
        <ele>847.0</ele>
        <time>2019-07-31T13:20:38.159Z</time>
      </trkpt>
      <trkpt lat="42.98897333" lon="-1.13669167">
        <ele>848.0</ele>
        <time>2019-07-31T13:20:39.167Z</time>
      </trkpt>
      <trkpt lat="42.988975" lon="-1.13669333">
        <ele>847.0</ele>
        <time>2019-07-31T13:20:40.173Z</time>
      </trkpt>
      <trkpt lat="42.98897667" lon="-1.13669667">
        <ele>847.0</ele>
        <time>2019-07-31T13:20:41.178Z</time>
      </trkpt>
      <trkpt lat="42.98897833" lon="-1.13670167">
        <ele>847.0</ele>
        <time>2019-07-31T13:20:42.183Z</time>
      </trkpt>
      <trkpt lat="42.98897833" lon="-1.13670167">
        <ele>847.0</ele>
        <time>2019-07-31T13:20:43.064Z</time>
      </trkpt>
      <trkpt lat="42.98897833" lon="-1.13670333">
        <ele>846.0</ele>
        <time>2019-07-31T13:20:44.070Z</time>
      </trkpt>
      <trkpt lat="42.98898167" lon="-1.136705">
        <ele>846.0</ele>
        <time>2019-07-31T13:20:45.076Z</time>
      </trkpt>
      <trkpt lat="42.98899" lon="-1.13670167">
        <ele>846.0</ele>
        <time>2019-07-31T13:20:46.082Z</time>
      </trkpt>
      <trkpt lat="42.98899333" lon="-1.1367">
        <ele>847.0</ele>
        <time>2019-07-31T13:20:47.088Z</time>
      </trkpt>
      <trkpt lat="42.98899167" lon="-1.1367">
        <ele>847.0</ele>
        <time>2019-07-31T13:20:48.094Z</time>
      </trkpt>
      <trkpt lat="42.98899" lon="-1.13669833">
        <ele>848.0</ele>
        <time>2019-07-31T13:20:49.101Z</time>
      </trkpt>
      <trkpt lat="42.98898667" lon="-1.136705">
        <ele>847.0</ele>
        <time>2019-07-31T13:20:50.108Z</time>
      </trkpt>
      <trkpt lat="42.98898333" lon="-1.13670667">
        <ele>848.0</ele>
        <time>2019-07-31T13:20:51.115Z</time>
      </trkpt>
      <trkpt lat="42.988985" lon="-1.136705">
        <ele>848.0</ele>
        <time>2019-07-31T13:20:52.121Z</time>
      </trkpt>
      <trkpt lat="42.988985" lon="-1.13670167">
        <ele>848.0</ele>
        <time>2019-07-31T13:20:53.124Z</time>
      </trkpt>
      <trkpt lat="42.988985" lon="-1.1367">
        <ele>847.0</ele>
        <time>2019-07-31T13:20:54.129Z</time>
      </trkpt>
      <trkpt lat="42.98898667" lon="-1.13669833">
        <ele>847.0</ele>
        <time>2019-07-31T13:20:55.133Z</time>
      </trkpt>
      <trkpt lat="42.98898667" lon="-1.136695">
        <ele>847.0</ele>
        <time>2019-07-31T13:20:56.138Z</time>
      </trkpt>
      <trkpt lat="42.98898667" lon="-1.136695">
        <ele>847.0</ele>
        <time>2019-07-31T13:20:57.144Z</time>
      </trkpt>
      <trkpt lat="42.988985" lon="-1.13669667">
        <ele>847.0</ele>
        <time>2019-07-31T13:20:58.150Z</time>
      </trkpt>
      <trkpt lat="42.98898167" lon="-1.13670167">
        <ele>846.0</ele>
        <time>2019-07-31T13:20:59.155Z</time>
      </trkpt>
      <trkpt lat="42.98898167" lon="-1.13670333">
        <ele>845.0</ele>
        <time>2019-07-31T13:21:00.160Z</time>
      </trkpt>
      <trkpt lat="42.988985" lon="-1.13670167">
        <ele>844.0</ele>
        <time>2019-07-31T13:21:01.167Z</time>
      </trkpt>
      <trkpt lat="42.98899" lon="-1.13669667">
        <ele>843.0</ele>
        <time>2019-07-31T13:21:02.170Z</time>
      </trkpt>
      <trkpt lat="42.98899333" lon="-1.136695">
        <ele>842.0</ele>
        <time>2019-07-31T13:21:03.174Z</time>
      </trkpt>
      <trkpt lat="42.989" lon="-1.13669">
        <ele>842.0</ele>
        <time>2019-07-31T13:21:04.178Z</time>
      </trkpt>
      <trkpt lat="42.98900167" lon="-1.13668833">
        <ele>842.0</ele>
        <time>2019-07-31T13:21:05.184Z</time>
      </trkpt>
      <trkpt lat="42.98900333" lon="-1.13669">
        <ele>842.0</ele>
        <time>2019-07-31T13:21:06.065Z</time>
      </trkpt>
      <trkpt lat="42.98900667" lon="-1.13669167">
        <ele>841.0</ele>
        <time>2019-07-31T13:21:07.070Z</time>
      </trkpt>
      <trkpt lat="42.98900833" lon="-1.13669167">
        <ele>841.0</ele>
        <time>2019-07-31T13:21:08.077Z</time>
      </trkpt>
      <trkpt lat="42.98900833" lon="-1.13669167">
        <ele>841.0</ele>
        <time>2019-07-31T13:21:09.084Z</time>
      </trkpt>
      <trkpt lat="42.98900667" lon="-1.13669667">
        <ele>841.0</ele>
        <time>2019-07-31T13:21:10.090Z</time>
      </trkpt>
      <trkpt lat="42.98900667" lon="-1.13669833">
        <ele>840.0</ele>
        <time>2019-07-31T13:21:11.092Z</time>
      </trkpt>
      <trkpt lat="42.989005" lon="-1.13669833">
        <ele>840.0</ele>
        <time>2019-07-31T13:21:12.097Z</time>
      </trkpt>
      <trkpt lat="42.98900667" lon="-1.13669833">
        <ele>841.0</ele>
        <time>2019-07-31T13:21:13.101Z</time>
      </trkpt>
      <trkpt lat="42.98900167" lon="-1.136705">
        <ele>841.0</ele>
        <time>2019-07-31T13:21:14.103Z</time>
      </trkpt>
      <trkpt lat="42.989005" lon="-1.13670333">
        <ele>842.0</ele>
        <time>2019-07-31T13:21:15.109Z</time>
      </trkpt>
      <trkpt lat="42.989005" lon="-1.13670333">
        <ele>842.0</ele>
        <time>2019-07-31T13:21:16.116Z</time>
      </trkpt>
      <trkpt lat="42.98901" lon="-1.13670167">
        <ele>843.0</ele>
        <time>2019-07-31T13:21:17.122Z</time>
      </trkpt>
      <trkpt lat="42.989015" lon="-1.13670333">
        <ele>844.0</ele>
        <time>2019-07-31T13:21:18.127Z</time>
      </trkpt>
      <trkpt lat="42.989015" lon="-1.13670333">
        <ele>844.0</ele>
        <time>2019-07-31T13:21:19.133Z</time>
      </trkpt>
      <trkpt lat="42.98901333" lon="-1.1367">
        <ele>844.0</ele>
        <time>2019-07-31T13:21:20.138Z</time>
      </trkpt>
      <trkpt lat="42.98901" lon="-1.13670167">
        <ele>844.0</ele>
        <time>2019-07-31T13:21:21.144Z</time>
      </trkpt>
      <trkpt lat="42.98900667" lon="-1.13669833">
        <ele>844.0</ele>
        <time>2019-07-31T13:21:22.150Z</time>
      </trkpt>
      <trkpt lat="42.98900333" lon="-1.13669667">
        <ele>844.0</ele>
        <time>2019-07-31T13:21:23.157Z</time>
      </trkpt>
      <trkpt lat="42.989" lon="-1.13670167">
        <ele>844.0</ele>
        <time>2019-07-31T13:21:24.162Z</time>
      </trkpt>
      <trkpt lat="42.98900333" lon="-1.13670167">
        <ele>844.0</ele>
        <time>2019-07-31T13:21:25.170Z</time>
      </trkpt>
      <trkpt lat="42.98900667" lon="-1.1367">
        <ele>843.0</ele>
        <time>2019-07-31T13:21:26.175Z</time>
      </trkpt>
      <trkpt lat="42.98900333" lon="-1.13670167">
        <ele>843.0</ele>
        <time>2019-07-31T13:21:27.181Z</time>
      </trkpt>
      <trkpt lat="42.989" lon="-1.136705">
        <ele>843.0</ele>
        <time>2019-07-31T13:21:28.061Z</time>
      </trkpt>
      <trkpt lat="42.98899667" lon="-1.13670333">
        <ele>844.0</ele>
        <time>2019-07-31T13:21:29.067Z</time>
      </trkpt>
      <trkpt lat="42.98899667" lon="-1.13670167">
        <ele>845.0</ele>
        <time>2019-07-31T13:21:30.073Z</time>
      </trkpt>
      <trkpt lat="42.989" lon="-1.13669667">
        <ele>845.0</ele>
        <time>2019-07-31T13:21:31.080Z</time>
      </trkpt>
      <trkpt lat="42.98900333" lon="-1.136695">
        <ele>846.0</ele>
        <time>2019-07-31T13:21:32.085Z</time>
      </trkpt>
      <trkpt lat="42.98900833" lon="-1.13669">
        <ele>847.0</ele>
        <time>2019-07-31T13:21:33.092Z</time>
      </trkpt>
      <trkpt lat="42.989005" lon="-1.13669167">
        <ele>847.0</ele>
        <time>2019-07-31T13:21:34.098Z</time>
      </trkpt>
      <trkpt lat="42.989" lon="-1.13669167">
        <ele>846.0</ele>
        <time>2019-07-31T13:21:35.103Z</time>
      </trkpt>
      <trkpt lat="42.989" lon="-1.136695">
        <ele>846.0</ele>
        <time>2019-07-31T13:21:36.109Z</time>
      </trkpt>
      <trkpt lat="42.98900167" lon="-1.13670167">
        <ele>845.0</ele>
        <time>2019-07-31T13:21:37.114Z</time>
      </trkpt>
      <trkpt lat="42.98900333" lon="-1.13669833">
        <ele>845.0</ele>
        <time>2019-07-31T13:21:38.121Z</time>
      </trkpt>
      <trkpt lat="42.989005" lon="-1.13669833">
        <ele>845.0</ele>
        <time>2019-07-31T13:21:39.125Z</time>
      </trkpt>
      <trkpt lat="42.98900667" lon="-1.1367">
        <ele>845.0</ele>
        <time>2019-07-31T13:21:40.131Z</time>
      </trkpt>
      <trkpt lat="42.98900667" lon="-1.136705">
        <ele>846.0</ele>
        <time>2019-07-31T13:21:41.135Z</time>
      </trkpt>
      <trkpt lat="42.98900667" lon="-1.13670667">
        <ele>846.0</ele>
        <time>2019-07-31T13:21:42.140Z</time>
      </trkpt>
      <trkpt lat="42.98900667" lon="-1.13670833">
        <ele>846.0</ele>
        <time>2019-07-31T13:21:43.145Z</time>
      </trkpt>
      <trkpt lat="42.98900667" lon="-1.13670667">
        <ele>846.0</ele>
        <time>2019-07-31T13:21:44.150Z</time>
      </trkpt>
      <trkpt lat="42.98901333" lon="-1.136705">
        <ele>847.0</ele>
        <time>2019-07-31T13:21:45.153Z</time>
      </trkpt>
      <trkpt lat="42.98902333" lon="-1.13670167">
        <ele>847.0</ele>
        <time>2019-07-31T13:21:46.157Z</time>
      </trkpt>
      <trkpt lat="42.989035" lon="-1.136695">
        <ele>847.0</ele>
        <time>2019-07-31T13:21:47.161Z</time>
      </trkpt>
      <trkpt lat="42.98905" lon="-1.13668667">
        <ele>846.0</ele>
        <time>2019-07-31T13:21:48.167Z</time>
      </trkpt>
      <trkpt lat="42.989065" lon="-1.136675">
        <ele>846.0</ele>
        <time>2019-07-31T13:21:49.173Z</time>
      </trkpt>
      <trkpt lat="42.98908" lon="-1.136665">
        <ele>846.0</ele>
        <time>2019-07-31T13:21:50.178Z</time>
      </trkpt>
      <trkpt lat="42.989095" lon="-1.13665">
        <ele>846.0</ele>
        <time>2019-07-31T13:21:51.183Z</time>
      </trkpt>
      <trkpt lat="42.989105" lon="-1.13664">
        <ele>846.0</ele>
        <time>2019-07-31T13:21:52.062Z</time>
      </trkpt>
      <trkpt lat="42.98911333" lon="-1.13662667">
        <ele>846.0</ele>
        <time>2019-07-31T13:21:53.069Z</time>
      </trkpt>
      <trkpt lat="42.98912" lon="-1.13661">
        <ele>847.0</ele>
        <time>2019-07-31T13:21:54.077Z</time>
      </trkpt>
      <trkpt lat="42.98913167" lon="-1.13659">
        <ele>847.0</ele>
        <time>2019-07-31T13:21:55.083Z</time>
      </trkpt>
      <trkpt lat="42.98913667" lon="-1.13658333">
        <ele>847.0</ele>
        <time>2019-07-31T13:21:56.088Z</time>
      </trkpt>
      <trkpt lat="42.98914667" lon="-1.13657167">
        <ele>846.0</ele>
        <time>2019-07-31T13:21:57.094Z</time>
      </trkpt>
      <trkpt lat="42.989155" lon="-1.13656">
        <ele>846.0</ele>
        <time>2019-07-31T13:21:58.098Z</time>
      </trkpt>
      <trkpt lat="42.98916833" lon="-1.13654667">
        <ele>847.0</ele>
        <time>2019-07-31T13:21:59.102Z</time>
      </trkpt>
      <trkpt lat="42.98918" lon="-1.13653333">
        <ele>847.0</ele>
        <time>2019-07-31T13:22:00.111Z</time>
      </trkpt>
      <trkpt lat="42.98919167" lon="-1.136515">
        <ele>848.0</ele>
        <time>2019-07-31T13:22:01.117Z</time>
      </trkpt>
      <trkpt lat="42.98919833" lon="-1.13649667">
        <ele>848.0</ele>
        <time>2019-07-31T13:22:02.120Z</time>
      </trkpt>
      <trkpt lat="42.989205" lon="-1.13647667">
        <ele>848.0</ele>
        <time>2019-07-31T13:22:03.124Z</time>
      </trkpt>
      <trkpt lat="42.98921167" lon="-1.13646167">
        <ele>848.0</ele>
        <time>2019-07-31T13:22:04.132Z</time>
      </trkpt>
      <trkpt lat="42.98922167" lon="-1.13644833">
        <ele>848.0</ele>
        <time>2019-07-31T13:22:05.135Z</time>
      </trkpt>
      <trkpt lat="42.98923333" lon="-1.136435">
        <ele>848.0</ele>
        <time>2019-07-31T13:22:06.140Z</time>
      </trkpt>
      <trkpt lat="42.98924333" lon="-1.13642333">
        <ele>847.0</ele>
        <time>2019-07-31T13:22:07.146Z</time>
      </trkpt>
      <trkpt lat="42.989255" lon="-1.13641">
        <ele>847.0</ele>
        <time>2019-07-31T13:22:08.152Z</time>
      </trkpt>
      <trkpt lat="42.98927" lon="-1.13639833">
        <ele>848.0</ele>
        <time>2019-07-31T13:22:09.156Z</time>
      </trkpt>
      <trkpt lat="42.98928167" lon="-1.13638667">
        <ele>847.0</ele>
        <time>2019-07-31T13:22:10.163Z</time>
      </trkpt>
      <trkpt lat="42.98929333" lon="-1.13637">
        <ele>848.0</ele>
        <time>2019-07-31T13:22:11.168Z</time>
      </trkpt>
      <trkpt lat="42.98930333" lon="-1.13635833">
        <ele>848.0</ele>
        <time>2019-07-31T13:22:12.172Z</time>
      </trkpt>
      <trkpt lat="42.989315" lon="-1.13634833">
        <ele>848.0</ele>
        <time>2019-07-31T13:22:13.177Z</time>
      </trkpt>
      <trkpt lat="42.98932667" lon="-1.136335">
        <ele>849.0</ele>
        <time>2019-07-31T13:22:14.182Z</time>
      </trkpt>
      <trkpt lat="42.98933833" lon="-1.13632167">
        <ele>849.0</ele>
        <time>2019-07-31T13:22:15.064Z</time>
      </trkpt>
      <trkpt lat="42.98934667" lon="-1.13631333">
        <ele>850.0</ele>
        <time>2019-07-31T13:22:16.069Z</time>
      </trkpt>
      <trkpt lat="42.98935833" lon="-1.13630167">
        <ele>850.0</ele>
        <time>2019-07-31T13:22:17.075Z</time>
      </trkpt>
      <trkpt lat="42.98936833" lon="-1.13628833">
        <ele>851.0</ele>
        <time>2019-07-31T13:22:18.082Z</time>
      </trkpt>
      <trkpt lat="42.98938167" lon="-1.13627667">
        <ele>851.0</ele>
        <time>2019-07-31T13:22:19.089Z</time>
      </trkpt>
      <trkpt lat="42.98939167" lon="-1.13626333">
        <ele>851.0</ele>
        <time>2019-07-31T13:22:20.093Z</time>
      </trkpt>
      <trkpt lat="42.98940167" lon="-1.13624667">
        <ele>851.0</ele>
        <time>2019-07-31T13:22:21.098Z</time>
      </trkpt>
      <trkpt lat="42.98941" lon="-1.13623">
        <ele>852.0</ele>
        <time>2019-07-31T13:22:22.103Z</time>
      </trkpt>
      <trkpt lat="42.98941833" lon="-1.136215">
        <ele>852.0</ele>
        <time>2019-07-31T13:22:23.107Z</time>
      </trkpt>
      <trkpt lat="42.98943167" lon="-1.13619833">
        <ele>852.0</ele>
        <time>2019-07-31T13:22:24.112Z</time>
      </trkpt>
      <trkpt lat="42.98944167" lon="-1.13618167">
        <ele>852.0</ele>
        <time>2019-07-31T13:22:25.120Z</time>
      </trkpt>
      <trkpt lat="42.989455" lon="-1.13616667">
        <ele>852.0</ele>
        <time>2019-07-31T13:22:26.125Z</time>
      </trkpt>
      <trkpt lat="42.989465" lon="-1.13615333">
        <ele>853.0</ele>
        <time>2019-07-31T13:22:27.130Z</time>
      </trkpt>
      <trkpt lat="42.98947667" lon="-1.13614167">
        <ele>853.0</ele>
        <time>2019-07-31T13:22:28.134Z</time>
      </trkpt>
      <trkpt lat="42.98948833" lon="-1.13612333">
        <ele>853.0</ele>
        <time>2019-07-31T13:22:29.140Z</time>
      </trkpt>
      <trkpt lat="42.9895" lon="-1.13610667">
        <ele>853.0</ele>
        <time>2019-07-31T13:22:30.144Z</time>
      </trkpt>
      <trkpt lat="42.98951" lon="-1.13609333">
        <ele>854.0</ele>
        <time>2019-07-31T13:22:31.148Z</time>
      </trkpt>
      <trkpt lat="42.98951833" lon="-1.13608">
        <ele>855.0</ele>
        <time>2019-07-31T13:22:32.155Z</time>
      </trkpt>
      <trkpt lat="42.98953" lon="-1.13606">
        <ele>855.0</ele>
        <time>2019-07-31T13:22:33.161Z</time>
      </trkpt>
      <trkpt lat="42.98953833" lon="-1.13604167">
        <ele>855.0</ele>
        <time>2019-07-31T13:22:34.167Z</time>
      </trkpt>
      <trkpt lat="42.98955" lon="-1.13602667">
        <ele>856.0</ele>
        <time>2019-07-31T13:22:35.172Z</time>
      </trkpt>
      <trkpt lat="42.98956333" lon="-1.13601167">
        <ele>855.0</ele>
        <time>2019-07-31T13:22:36.176Z</time>
      </trkpt>
      <trkpt lat="42.989575" lon="-1.13599833">
        <ele>855.0</ele>
        <time>2019-07-31T13:22:37.180Z</time>
      </trkpt>
      <trkpt lat="42.989585" lon="-1.135985">
        <ele>855.0</ele>
        <time>2019-07-31T13:22:38.185Z</time>
      </trkpt>
      <trkpt lat="42.98959833" lon="-1.13597167">
        <ele>855.0</ele>
        <time>2019-07-31T13:22:39.064Z</time>
      </trkpt>
      <trkpt lat="42.98961" lon="-1.13596">
        <ele>856.0</ele>
        <time>2019-07-31T13:22:40.070Z</time>
      </trkpt>
      <trkpt lat="42.98961667" lon="-1.13594833">
        <ele>856.0</ele>
        <time>2019-07-31T13:22:41.075Z</time>
      </trkpt>
      <trkpt lat="42.98962833" lon="-1.13593333">
        <ele>857.0</ele>
        <time>2019-07-31T13:22:42.081Z</time>
      </trkpt>
      <trkpt lat="42.98963667" lon="-1.13591833">
        <ele>857.0</ele>
        <time>2019-07-31T13:22:43.087Z</time>
      </trkpt>
      <trkpt lat="42.98964667" lon="-1.13590333">
        <ele>857.0</ele>
        <time>2019-07-31T13:22:44.091Z</time>
      </trkpt>
      <trkpt lat="42.989655" lon="-1.13588667">
        <ele>857.0</ele>
        <time>2019-07-31T13:22:45.097Z</time>
      </trkpt>
      <trkpt lat="42.98966167" lon="-1.13587167">
        <ele>857.0</ele>
        <time>2019-07-31T13:22:46.104Z</time>
      </trkpt>
      <trkpt lat="42.98967167" lon="-1.13585167">
        <ele>858.0</ele>
        <time>2019-07-31T13:22:47.109Z</time>
      </trkpt>
      <trkpt lat="42.98968167" lon="-1.135835">
        <ele>858.0</ele>
        <time>2019-07-31T13:22:48.114Z</time>
      </trkpt>
      <trkpt lat="42.98968833" lon="-1.13581667">
        <ele>858.0</ele>
        <time>2019-07-31T13:22:49.119Z</time>
      </trkpt>
      <trkpt lat="42.98969667" lon="-1.13579667">
        <ele>859.0</ele>
        <time>2019-07-31T13:22:50.125Z</time>
      </trkpt>
      <trkpt lat="42.98970167" lon="-1.13578">
        <ele>858.0</ele>
        <time>2019-07-31T13:22:51.132Z</time>
      </trkpt>
      <trkpt lat="42.98971333" lon="-1.13575667">
        <ele>858.0</ele>
        <time>2019-07-31T13:22:52.136Z</time>
      </trkpt>
      <trkpt lat="42.989725" lon="-1.13573">
        <ele>859.0</ele>
        <time>2019-07-31T13:22:53.141Z</time>
      </trkpt>
      <trkpt lat="42.98973333" lon="-1.13571167">
        <ele>859.0</ele>
        <time>2019-07-31T13:22:54.148Z</time>
      </trkpt>
      <trkpt lat="42.98973833" lon="-1.13569">
        <ele>860.0</ele>
        <time>2019-07-31T13:22:55.154Z</time>
      </trkpt>
      <trkpt lat="42.98974333" lon="-1.13567">
        <ele>862.0</ele>
        <time>2019-07-31T13:22:56.161Z</time>
      </trkpt>
      <trkpt lat="42.98975167" lon="-1.13564833">
        <ele>862.0</ele>
        <time>2019-07-31T13:22:57.168Z</time>
      </trkpt>
      <trkpt lat="42.98976" lon="-1.13563167">
        <ele>862.0</ele>
        <time>2019-07-31T13:22:58.172Z</time>
      </trkpt>
      <trkpt lat="42.98976667" lon="-1.13561667">
        <ele>863.0</ele>
        <time>2019-07-31T13:22:59.176Z</time>
      </trkpt>
      <trkpt lat="42.98977" lon="-1.1356">
        <ele>863.0</ele>
        <time>2019-07-31T13:23:00.182Z</time>
      </trkpt>
      <trkpt lat="42.989775" lon="-1.135585">
        <ele>864.0</ele>
        <time>2019-07-31T13:23:01.062Z</time>
      </trkpt>
      <trkpt lat="42.989785" lon="-1.13556333">
        <ele>863.0</ele>
        <time>2019-07-31T13:23:02.069Z</time>
      </trkpt>
      <trkpt lat="42.98979333" lon="-1.13554167">
        <ele>863.0</ele>
        <time>2019-07-31T13:23:03.076Z</time>
      </trkpt>
      <trkpt lat="42.98980167" lon="-1.13552">
        <ele>862.0</ele>
        <time>2019-07-31T13:23:04.081Z</time>
      </trkpt>
      <trkpt lat="42.98980667" lon="-1.13550167">
        <ele>862.0</ele>
        <time>2019-07-31T13:23:05.088Z</time>
      </trkpt>
      <trkpt lat="42.98981333" lon="-1.135485">
        <ele>862.0</ele>
        <time>2019-07-31T13:23:06.093Z</time>
      </trkpt>
      <trkpt lat="42.98982167" lon="-1.13546333">
        <ele>862.0</ele>
        <time>2019-07-31T13:23:07.098Z</time>
      </trkpt>
      <trkpt lat="42.98983167" lon="-1.13544833">
        <ele>862.0</ele>
        <time>2019-07-31T13:23:08.104Z</time>
      </trkpt>
      <trkpt lat="42.98984167" lon="-1.13543667">
        <ele>861.0</ele>
        <time>2019-07-31T13:23:09.109Z</time>
      </trkpt>
      <trkpt lat="42.98985" lon="-1.135425">
        <ele>860.0</ele>
        <time>2019-07-31T13:23:10.113Z</time>
      </trkpt>
      <trkpt lat="42.98985667" lon="-1.13540667">
        <ele>861.0</ele>
        <time>2019-07-31T13:23:11.119Z</time>
      </trkpt>
      <trkpt lat="42.98986333" lon="-1.13539">
        <ele>861.0</ele>
        <time>2019-07-31T13:23:12.124Z</time>
      </trkpt>
      <trkpt lat="42.98987" lon="-1.13536833">
        <ele>861.0</ele>
        <time>2019-07-31T13:23:13.130Z</time>
      </trkpt>
      <trkpt lat="42.98987667" lon="-1.13535167">
        <ele>861.0</ele>
        <time>2019-07-31T13:23:14.132Z</time>
      </trkpt>
      <trkpt lat="42.98988333" lon="-1.13533167">
        <ele>861.0</ele>
        <time>2019-07-31T13:23:15.138Z</time>
      </trkpt>
      <trkpt lat="42.98989" lon="-1.13531167">
        <ele>861.0</ele>
        <time>2019-07-31T13:23:16.143Z</time>
      </trkpt>
      <trkpt lat="42.98989667" lon="-1.13529167">
        <ele>861.0</ele>
        <time>2019-07-31T13:23:17.150Z</time>
      </trkpt>
      <trkpt lat="42.989905" lon="-1.13527333">
        <ele>861.0</ele>
        <time>2019-07-31T13:23:18.155Z</time>
      </trkpt>
      <trkpt lat="42.98991667" lon="-1.13525667">
        <ele>861.0</ele>
        <time>2019-07-31T13:23:19.161Z</time>
      </trkpt>
      <trkpt lat="42.98993" lon="-1.13523833">
        <ele>861.0</ele>
        <time>2019-07-31T13:23:20.165Z</time>
      </trkpt>
      <trkpt lat="42.98994" lon="-1.13522333">
        <ele>861.0</ele>
        <time>2019-07-31T13:23:21.171Z</time>
      </trkpt>
      <trkpt lat="42.98995" lon="-1.135205">
        <ele>861.0</ele>
        <time>2019-07-31T13:23:22.176Z</time>
      </trkpt>
      <trkpt lat="42.98996" lon="-1.13519167">
        <ele>862.0</ele>
        <time>2019-07-31T13:23:23.181Z</time>
      </trkpt>
      <trkpt lat="42.989975" lon="-1.13517167">
        <ele>862.0</ele>
        <time>2019-07-31T13:23:24.061Z</time>
      </trkpt>
      <trkpt lat="42.98999" lon="-1.13515">
        <ele>864.0</ele>
        <time>2019-07-31T13:23:25.068Z</time>
      </trkpt>
      <trkpt lat="42.98999667" lon="-1.13513167">
        <ele>866.0</ele>
        <time>2019-07-31T13:23:26.073Z</time>
      </trkpt>
      <trkpt lat="42.990005" lon="-1.13511167">
        <ele>866.0</ele>
        <time>2019-07-31T13:23:27.078Z</time>
      </trkpt>
      <trkpt lat="42.99001667" lon="-1.135085">
        <ele>866.0</ele>
        <time>2019-07-31T13:23:28.083Z</time>
      </trkpt>
      <trkpt lat="42.99002167" lon="-1.13506">
        <ele>867.0</ele>
        <time>2019-07-31T13:23:29.090Z</time>
      </trkpt>
      <trkpt lat="42.99002833" lon="-1.13504">
        <ele>867.0</ele>
        <time>2019-07-31T13:23:30.096Z</time>
      </trkpt>
      <trkpt lat="42.99003833" lon="-1.13502">
        <ele>867.0</ele>
        <time>2019-07-31T13:23:31.100Z</time>
      </trkpt>
      <trkpt lat="42.99004" lon="-1.13499833">
        <ele>868.0</ele>
        <time>2019-07-31T13:23:32.106Z</time>
      </trkpt>
      <trkpt lat="42.99004167" lon="-1.13497833">
        <ele>869.0</ele>
        <time>2019-07-31T13:23:33.111Z</time>
      </trkpt>
      <trkpt lat="42.990045" lon="-1.13496333">
        <ele>868.0</ele>
        <time>2019-07-31T13:23:34.115Z</time>
      </trkpt>
      <trkpt lat="42.99005" lon="-1.13494333">
        <ele>868.0</ele>
        <time>2019-07-31T13:23:35.119Z</time>
      </trkpt>
      <trkpt lat="42.99005667" lon="-1.13492167">
        <ele>868.0</ele>
        <time>2019-07-31T13:23:36.125Z</time>
      </trkpt>
      <trkpt lat="42.99006333" lon="-1.13490167">
        <ele>868.0</ele>
        <time>2019-07-31T13:23:37.129Z</time>
      </trkpt>
      <trkpt lat="42.99006667" lon="-1.13489167">
        <ele>869.0</ele>
        <time>2019-07-31T13:23:38.133Z</time>
      </trkpt>
      <trkpt lat="42.99007" lon="-1.13487667">
        <ele>870.0</ele>
        <time>2019-07-31T13:23:39.139Z</time>
      </trkpt>
      <trkpt lat="42.990075" lon="-1.13485667">
        <ele>871.0</ele>
        <time>2019-07-31T13:23:40.145Z</time>
      </trkpt>
      <trkpt lat="42.99007833" lon="-1.13483833">
        <ele>871.0</ele>
        <time>2019-07-31T13:23:41.151Z</time>
      </trkpt>
      <trkpt lat="42.99008333" lon="-1.13481833">
        <ele>872.0</ele>
        <time>2019-07-31T13:23:42.158Z</time>
      </trkpt>
      <trkpt lat="42.99008833" lon="-1.13479667">
        <ele>872.0</ele>
        <time>2019-07-31T13:23:43.163Z</time>
      </trkpt>
      <trkpt lat="42.99009333" lon="-1.13477333">
        <ele>872.0</ele>
        <time>2019-07-31T13:23:44.167Z</time>
      </trkpt>
      <trkpt lat="42.9901" lon="-1.13475167">
        <ele>873.0</ele>
        <time>2019-07-31T13:23:45.174Z</time>
      </trkpt>
      <trkpt lat="42.990105" lon="-1.13473333">
        <ele>873.0</ele>
        <time>2019-07-31T13:23:46.179Z</time>
      </trkpt>
      <trkpt lat="42.99011167" lon="-1.13471667">
        <ele>873.0</ele>
        <time>2019-07-31T13:23:47.184Z</time>
      </trkpt>
      <trkpt lat="42.99012167" lon="-1.13469667">
        <ele>874.0</ele>
        <time>2019-07-31T13:23:48.063Z</time>
      </trkpt>
      <trkpt lat="42.99013167" lon="-1.13467833">
        <ele>874.0</ele>
        <time>2019-07-31T13:23:49.070Z</time>
      </trkpt>
      <trkpt lat="42.99014" lon="-1.13465667">
        <ele>875.0</ele>
        <time>2019-07-31T13:23:50.076Z</time>
      </trkpt>
      <trkpt lat="42.99014833" lon="-1.134635">
        <ele>875.0</ele>
        <time>2019-07-31T13:23:51.082Z</time>
      </trkpt>
      <trkpt lat="42.99015667" lon="-1.13461167">
        <ele>875.0</ele>
        <time>2019-07-31T13:23:52.088Z</time>
      </trkpt>
      <trkpt lat="42.99016333" lon="-1.13458833">
        <ele>876.0</ele>
        <time>2019-07-31T13:23:53.094Z</time>
      </trkpt>
      <trkpt lat="42.99017333" lon="-1.134565">
        <ele>876.0</ele>
        <time>2019-07-31T13:23:54.099Z</time>
      </trkpt>
      <trkpt lat="42.99017667" lon="-1.13454333">
        <ele>875.0</ele>
        <time>2019-07-31T13:23:55.103Z</time>
      </trkpt>
      <trkpt lat="42.99018333" lon="-1.13452167">
        <ele>874.0</ele>
        <time>2019-07-31T13:23:56.108Z</time>
      </trkpt>
      <trkpt lat="42.990195" lon="-1.13450667">
        <ele>872.0</ele>
        <time>2019-07-31T13:23:57.113Z</time>
      </trkpt>
      <trkpt lat="42.99020167" lon="-1.13448167">
        <ele>871.0</ele>
        <time>2019-07-31T13:23:58.118Z</time>
      </trkpt>
      <trkpt lat="42.99021" lon="-1.13445833">
        <ele>870.0</ele>
        <time>2019-07-31T13:23:59.121Z</time>
      </trkpt>
      <trkpt lat="42.99021667" lon="-1.13443">
        <ele>869.0</ele>
        <time>2019-07-31T13:24:00.128Z</time>
      </trkpt>
      <trkpt lat="42.99022333" lon="-1.13440167">
        <ele>869.0</ele>
        <time>2019-07-31T13:24:01.132Z</time>
      </trkpt>
      <trkpt lat="42.99022833" lon="-1.13437333">
        <ele>869.0</ele>
        <time>2019-07-31T13:24:02.137Z</time>
      </trkpt>
      <trkpt lat="42.990235" lon="-1.13434167">
        <ele>868.0</ele>
        <time>2019-07-31T13:24:03.144Z</time>
      </trkpt>
      <trkpt lat="42.99024167" lon="-1.13430833">
        <ele>868.0</ele>
        <time>2019-07-31T13:24:04.148Z</time>
      </trkpt>
      <trkpt lat="42.99024667" lon="-1.13428">
        <ele>868.0</ele>
        <time>2019-07-31T13:24:05.152Z</time>
      </trkpt>
      <trkpt lat="42.99024833" lon="-1.13425333">
        <ele>867.0</ele>
        <time>2019-07-31T13:24:06.157Z</time>
      </trkpt>
      <trkpt lat="42.990255" lon="-1.13422667">
        <ele>867.0</ele>
        <time>2019-07-31T13:24:07.163Z</time>
      </trkpt>
      <trkpt lat="42.99025667" lon="-1.13420833">
        <ele>866.0</ele>
        <time>2019-07-31T13:24:08.169Z</time>
      </trkpt>
      <trkpt lat="42.990265" lon="-1.13418167">
        <ele>866.0</ele>
        <time>2019-07-31T13:24:09.174Z</time>
      </trkpt>
      <trkpt lat="42.99027333" lon="-1.134155">
        <ele>866.0</ele>
        <time>2019-07-31T13:24:10.181Z</time>
      </trkpt>
      <trkpt lat="42.99028833" lon="-1.134125">
        <ele>866.0</ele>
        <time>2019-07-31T13:24:11.061Z</time>
      </trkpt>
      <trkpt lat="42.99029" lon="-1.134105">
        <ele>866.0</ele>
        <time>2019-07-31T13:24:12.064Z</time>
      </trkpt>
      <trkpt lat="42.990295" lon="-1.13408667">
        <ele>864.0</ele>
        <time>2019-07-31T13:24:13.066Z</time>
      </trkpt>
      <trkpt lat="42.99029333" lon="-1.13406333">
        <ele>865.0</ele>
        <time>2019-07-31T13:24:14.072Z</time>
      </trkpt>
      <trkpt lat="42.99029" lon="-1.13403833">
        <ele>865.0</ele>
        <time>2019-07-31T13:24:15.079Z</time>
      </trkpt>
      <trkpt lat="42.99028667" lon="-1.13402167">
        <ele>865.0</ele>
        <time>2019-07-31T13:24:16.084Z</time>
      </trkpt>
      <trkpt lat="42.99028667" lon="-1.13400333">
        <ele>865.0</ele>
        <time>2019-07-31T13:24:17.086Z</time>
      </trkpt>
      <trkpt lat="42.99029167" lon="-1.13398833">
        <ele>865.0</ele>
        <time>2019-07-31T13:24:18.091Z</time>
      </trkpt>
      <trkpt lat="42.99029333" lon="-1.13397167">
        <ele>865.0</ele>
        <time>2019-07-31T13:24:19.095Z</time>
      </trkpt>
      <trkpt lat="42.99029833" lon="-1.13395333">
        <ele>866.0</ele>
        <time>2019-07-31T13:24:20.101Z</time>
      </trkpt>
      <trkpt lat="42.99030167" lon="-1.133935">
        <ele>866.0</ele>
        <time>2019-07-31T13:24:21.106Z</time>
      </trkpt>
      <trkpt lat="42.99030667" lon="-1.13391833">
        <ele>866.0</ele>
        <time>2019-07-31T13:24:22.111Z</time>
      </trkpt>
      <trkpt lat="42.99031" lon="-1.133905">
        <ele>866.0</ele>
        <time>2019-07-31T13:24:23.117Z</time>
      </trkpt>
      <trkpt lat="42.99031333" lon="-1.13389">
        <ele>865.0</ele>
        <time>2019-07-31T13:24:24.124Z</time>
      </trkpt>
      <trkpt lat="42.99032" lon="-1.133875">
        <ele>864.0</ele>
        <time>2019-07-31T13:24:25.131Z</time>
      </trkpt>
      <trkpt lat="42.99032333" lon="-1.13386167">
        <ele>863.0</ele>
        <time>2019-07-31T13:24:26.136Z</time>
      </trkpt>
      <trkpt lat="42.99032667" lon="-1.13384667">
        <ele>863.0</ele>
        <time>2019-07-31T13:24:27.143Z</time>
      </trkpt>
      <trkpt lat="42.99033167" lon="-1.13383">
        <ele>862.0</ele>
        <time>2019-07-31T13:24:28.149Z</time>
      </trkpt>
      <trkpt lat="42.99033833" lon="-1.13381">
        <ele>862.0</ele>
        <time>2019-07-31T13:24:29.155Z</time>
      </trkpt>
      <trkpt lat="42.99034333" lon="-1.13379333">
        <ele>861.0</ele>
        <time>2019-07-31T13:24:30.161Z</time>
      </trkpt>
      <trkpt lat="42.99035" lon="-1.133775">
        <ele>860.0</ele>
        <time>2019-07-31T13:24:31.168Z</time>
      </trkpt>
      <trkpt lat="42.990355" lon="-1.13375667">
        <ele>859.0</ele>
        <time>2019-07-31T13:24:32.172Z</time>
      </trkpt>
      <trkpt lat="42.99035833" lon="-1.13373833">
        <ele>859.0</ele>
        <time>2019-07-31T13:24:33.174Z</time>
      </trkpt>
      <trkpt lat="42.99036167" lon="-1.13371667">
        <ele>859.0</ele>
        <time>2019-07-31T13:24:34.180Z</time>
      </trkpt>
      <trkpt lat="42.99036333" lon="-1.13369667">
        <ele>859.0</ele>
        <time>2019-07-31T13:24:35.186Z</time>
      </trkpt>
      <trkpt lat="42.99036833" lon="-1.13367333">
        <ele>859.0</ele>
        <time>2019-07-31T13:24:36.064Z</time>
      </trkpt>
      <trkpt lat="42.99037" lon="-1.13364833">
        <ele>860.0</ele>
        <time>2019-07-31T13:24:37.070Z</time>
      </trkpt>
      <trkpt lat="42.99037667" lon="-1.13363">
        <ele>860.0</ele>
        <time>2019-07-31T13:24:38.073Z</time>
      </trkpt>
      <trkpt lat="42.99038" lon="-1.13361">
        <ele>860.0</ele>
        <time>2019-07-31T13:24:39.077Z</time>
      </trkpt>
      <trkpt lat="42.99038333" lon="-1.13358667">
        <ele>861.0</ele>
        <time>2019-07-31T13:24:40.082Z</time>
      </trkpt>
      <trkpt lat="42.990385" lon="-1.13356167">
        <ele>862.0</ele>
        <time>2019-07-31T13:24:41.086Z</time>
      </trkpt>
      <trkpt lat="42.99038833" lon="-1.13353667">
        <ele>863.0</ele>
        <time>2019-07-31T13:24:42.091Z</time>
      </trkpt>
      <trkpt lat="42.99039333" lon="-1.13351">
        <ele>864.0</ele>
        <time>2019-07-31T13:24:43.093Z</time>
      </trkpt>
      <trkpt lat="42.99039833" lon="-1.13348333">
        <ele>864.0</ele>
        <time>2019-07-31T13:24:44.096Z</time>
      </trkpt>
      <trkpt lat="42.99040167" lon="-1.133455">
        <ele>865.0</ele>
        <time>2019-07-31T13:24:45.101Z</time>
      </trkpt>
      <trkpt lat="42.99040167" lon="-1.13342833">
        <ele>865.0</ele>
        <time>2019-07-31T13:24:46.105Z</time>
      </trkpt>
      <trkpt lat="42.99040333" lon="-1.13340667">
        <ele>864.0</ele>
        <time>2019-07-31T13:24:47.109Z</time>
      </trkpt>
      <trkpt lat="42.99040667" lon="-1.133385">
        <ele>863.0</ele>
        <time>2019-07-31T13:24:48.112Z</time>
      </trkpt>
      <trkpt lat="42.99041333" lon="-1.13336">
        <ele>863.0</ele>
        <time>2019-07-31T13:24:49.116Z</time>
      </trkpt>
      <trkpt lat="42.99041833" lon="-1.13334">
        <ele>862.0</ele>
        <time>2019-07-31T13:24:50.121Z</time>
      </trkpt>
      <trkpt lat="42.990415" lon="-1.13332667">
        <ele>862.0</ele>
        <time>2019-07-31T13:24:51.127Z</time>
      </trkpt>
      <trkpt lat="42.99042" lon="-1.13330167">
        <ele>862.0</ele>
        <time>2019-07-31T13:24:52.132Z</time>
      </trkpt>
      <trkpt lat="42.990425" lon="-1.13327833">
        <ele>864.0</ele>
        <time>2019-07-31T13:24:53.138Z</time>
      </trkpt>
      <trkpt lat="42.99042333" lon="-1.13326">
        <ele>865.0</ele>
        <time>2019-07-31T13:24:54.142Z</time>
      </trkpt>
      <trkpt lat="42.99042667" lon="-1.13324">
        <ele>867.0</ele>
        <time>2019-07-31T13:24:55.146Z</time>
      </trkpt>
      <trkpt lat="42.99043333" lon="-1.13322167">
        <ele>868.0</ele>
        <time>2019-07-31T13:24:56.153Z</time>
      </trkpt>
      <trkpt lat="42.990435" lon="-1.133205">
        <ele>868.0</ele>
        <time>2019-07-31T13:24:57.158Z</time>
      </trkpt>
      <trkpt lat="42.99043833" lon="-1.13318667">
        <ele>869.0</ele>
        <time>2019-07-31T13:24:58.164Z</time>
      </trkpt>
      <trkpt lat="42.99044" lon="-1.13317">
        <ele>869.0</ele>
        <time>2019-07-31T13:24:59.171Z</time>
      </trkpt>
      <trkpt lat="42.990445" lon="-1.13315167">
        <ele>869.0</ele>
        <time>2019-07-31T13:25:00.174Z</time>
      </trkpt>
      <trkpt lat="42.99045" lon="-1.13313667">
        <ele>869.0</ele>
        <time>2019-07-31T13:25:01.178Z</time>
      </trkpt>
      <trkpt lat="42.99045333" lon="-1.13312">
        <ele>869.0</ele>
        <time>2019-07-31T13:25:02.183Z</time>
      </trkpt>
      <trkpt lat="42.99045833" lon="-1.13310667">
        <ele>869.0</ele>
        <time>2019-07-31T13:25:03.061Z</time>
      </trkpt>
      <trkpt lat="42.99046667" lon="-1.13309333">
        <ele>869.0</ele>
        <time>2019-07-31T13:25:04.066Z</time>
      </trkpt>
      <trkpt lat="42.990475" lon="-1.13308167">
        <ele>870.0</ele>
        <time>2019-07-31T13:25:05.069Z</time>
      </trkpt>
      <trkpt lat="42.99048" lon="-1.13307333">
        <ele>870.0</ele>
        <time>2019-07-31T13:25:06.073Z</time>
      </trkpt>
      <trkpt lat="42.99049167" lon="-1.13306333">
        <ele>870.0</ele>
        <time>2019-07-31T13:25:07.079Z</time>
      </trkpt>
      <trkpt lat="42.9905" lon="-1.13305333">
        <ele>871.0</ele>
        <time>2019-07-31T13:25:08.086Z</time>
      </trkpt>
      <trkpt lat="42.99051" lon="-1.13304333">
        <ele>871.0</ele>
        <time>2019-07-31T13:25:09.093Z</time>
      </trkpt>
      <trkpt lat="42.99051667" lon="-1.133035">
        <ele>871.0</ele>
        <time>2019-07-31T13:25:10.099Z</time>
      </trkpt>
      <trkpt lat="42.990525" lon="-1.13302333">
        <ele>871.0</ele>
        <time>2019-07-31T13:25:11.105Z</time>
      </trkpt>
      <trkpt lat="42.99053333" lon="-1.133015">
        <ele>872.0</ele>
        <time>2019-07-31T13:25:12.111Z</time>
      </trkpt>
      <trkpt lat="42.99054667" lon="-1.13300833">
        <ele>872.0</ele>
        <time>2019-07-31T13:25:13.118Z</time>
      </trkpt>
      <trkpt lat="42.99055833" lon="-1.133">
        <ele>873.0</ele>
        <time>2019-07-31T13:25:14.122Z</time>
      </trkpt>
      <trkpt lat="42.99056833" lon="-1.13299833">
        <ele>872.0</ele>
        <time>2019-07-31T13:25:15.128Z</time>
      </trkpt>
      <trkpt lat="42.99057667" lon="-1.132995">
        <ele>873.0</ele>
        <time>2019-07-31T13:25:16.132Z</time>
      </trkpt>
      <trkpt lat="42.99058667" lon="-1.13299">
        <ele>873.0</ele>
        <time>2019-07-31T13:25:17.138Z</time>
      </trkpt>
      <trkpt lat="42.99059167" lon="-1.13297833">
        <ele>873.0</ele>
        <time>2019-07-31T13:25:18.145Z</time>
      </trkpt>
      <trkpt lat="42.99060167" lon="-1.132975">
        <ele>874.0</ele>
        <time>2019-07-31T13:25:19.150Z</time>
      </trkpt>
      <trkpt lat="42.99061" lon="-1.13297">
        <ele>875.0</ele>
        <time>2019-07-31T13:25:20.154Z</time>
      </trkpt>
      <trkpt lat="42.99061667" lon="-1.13296667">
        <ele>876.0</ele>
        <time>2019-07-31T13:25:21.157Z</time>
      </trkpt>
      <trkpt lat="42.990625" lon="-1.13296333">
        <ele>878.0</ele>
        <time>2019-07-31T13:25:22.162Z</time>
      </trkpt>
      <trkpt lat="42.99063333" lon="-1.13295667">
        <ele>880.0</ele>
        <time>2019-07-31T13:25:23.166Z</time>
      </trkpt>
      <trkpt lat="42.99064167" lon="-1.13295167">
        <ele>882.0</ele>
        <time>2019-07-31T13:25:24.170Z</time>
      </trkpt>
      <trkpt lat="42.99064667" lon="-1.13294333">
        <ele>884.0</ele>
        <time>2019-07-31T13:25:25.174Z</time>
      </trkpt>
      <trkpt lat="42.99065333" lon="-1.13293667">
        <ele>886.0</ele>
        <time>2019-07-31T13:25:26.179Z</time>
      </trkpt>
      <trkpt lat="42.99066667" lon="-1.13293">
        <ele>886.0</ele>
        <time>2019-07-31T13:25:27.184Z</time>
      </trkpt>
      <trkpt lat="42.99067833" lon="-1.13292167">
        <ele>886.0</ele>
        <time>2019-07-31T13:25:28.063Z</time>
      </trkpt>
      <trkpt lat="42.99068833" lon="-1.132905">
        <ele>886.0</ele>
        <time>2019-07-31T13:25:29.070Z</time>
      </trkpt>
      <trkpt lat="42.99069833" lon="-1.13289">
        <ele>886.0</ele>
        <time>2019-07-31T13:25:30.076Z</time>
      </trkpt>
      <trkpt lat="42.99071167" lon="-1.13287833">
        <ele>887.0</ele>
        <time>2019-07-31T13:25:31.080Z</time>
      </trkpt>
      <trkpt lat="42.99072667" lon="-1.13287">
        <ele>887.0</ele>
        <time>2019-07-31T13:25:32.084Z</time>
      </trkpt>
      <trkpt lat="42.99073667" lon="-1.13286667">
        <ele>887.0</ele>
        <time>2019-07-31T13:25:33.091Z</time>
      </trkpt>
      <trkpt lat="42.99074833" lon="-1.13285833">
        <ele>887.0</ele>
        <time>2019-07-31T13:25:34.099Z</time>
      </trkpt>
      <trkpt lat="42.99077" lon="-1.13284167">
        <ele>888.0</ele>
        <time>2019-07-31T13:25:35.106Z</time>
      </trkpt>
      <trkpt lat="42.99078333" lon="-1.13282833">
        <ele>889.0</ele>
        <time>2019-07-31T13:25:36.112Z</time>
      </trkpt>
      <trkpt lat="42.99079833" lon="-1.13281667">
        <ele>889.0</ele>
        <time>2019-07-31T13:25:37.118Z</time>
      </trkpt>
      <trkpt lat="42.99081333" lon="-1.13280167">
        <ele>889.0</ele>
        <time>2019-07-31T13:25:38.123Z</time>
      </trkpt>
      <trkpt lat="42.990825" lon="-1.13279333">
        <ele>889.0</ele>
        <time>2019-07-31T13:25:39.130Z</time>
      </trkpt>
      <trkpt lat="42.99083667" lon="-1.13278">
        <ele>890.0</ele>
        <time>2019-07-31T13:25:40.135Z</time>
      </trkpt>
      <trkpt lat="42.99084667" lon="-1.13277">
        <ele>891.0</ele>
        <time>2019-07-31T13:25:41.141Z</time>
      </trkpt>
      <trkpt lat="42.99085833" lon="-1.13275833">
        <ele>891.0</ele>
        <time>2019-07-31T13:25:42.146Z</time>
      </trkpt>
      <trkpt lat="42.99087" lon="-1.13274667">
        <ele>891.0</ele>
        <time>2019-07-31T13:25:43.153Z</time>
      </trkpt>
      <trkpt lat="42.99088" lon="-1.13273333">
        <ele>891.0</ele>
        <time>2019-07-31T13:25:44.159Z</time>
      </trkpt>
      <trkpt lat="42.99088667" lon="-1.132715">
        <ele>891.0</ele>
        <time>2019-07-31T13:25:45.162Z</time>
      </trkpt>
      <trkpt lat="42.990895" lon="-1.132695">
        <ele>892.0</ele>
        <time>2019-07-31T13:25:46.164Z</time>
      </trkpt>
      <trkpt lat="42.99090333" lon="-1.13267667">
        <ele>893.0</ele>
        <time>2019-07-31T13:25:47.167Z</time>
      </trkpt>
      <trkpt lat="42.99090833" lon="-1.132665">
        <ele>893.0</ele>
        <time>2019-07-31T13:25:48.170Z</time>
      </trkpt>
      <trkpt lat="42.99090833" lon="-1.13264833">
        <ele>894.0</ele>
        <time>2019-07-31T13:25:49.172Z</time>
      </trkpt>
      <trkpt lat="42.99090667" lon="-1.13262667">
        <ele>895.0</ele>
        <time>2019-07-31T13:25:50.177Z</time>
      </trkpt>
      <trkpt lat="42.99089833" lon="-1.13260667">
        <ele>897.0</ele>
        <time>2019-07-31T13:25:51.182Z</time>
      </trkpt>
      <trkpt lat="42.99089333" lon="-1.13258167">
        <ele>897.0</ele>
        <time>2019-07-31T13:25:52.062Z</time>
      </trkpt>
      <trkpt lat="42.99088833" lon="-1.13256">
        <ele>898.0</ele>
        <time>2019-07-31T13:25:53.067Z</time>
      </trkpt>
      <trkpt lat="42.99087833" lon="-1.13252667">
        <ele>897.0</ele>
        <time>2019-07-31T13:25:54.072Z</time>
      </trkpt>
      <trkpt lat="42.990865" lon="-1.132505">
        <ele>897.0</ele>
        <time>2019-07-31T13:25:55.076Z</time>
      </trkpt>
      <trkpt lat="42.99084833" lon="-1.13248833">
        <ele>897.0</ele>
        <time>2019-07-31T13:25:56.080Z</time>
      </trkpt>
      <trkpt lat="42.990835" lon="-1.13246833">
        <ele>896.0</ele>
        <time>2019-07-31T13:25:57.085Z</time>
      </trkpt>
      <trkpt lat="42.99082" lon="-1.132455">
        <ele>895.0</ele>
        <time>2019-07-31T13:25:58.091Z</time>
      </trkpt>
      <trkpt lat="42.99080667" lon="-1.13243833">
        <ele>895.0</ele>
        <time>2019-07-31T13:25:59.096Z</time>
      </trkpt>
      <trkpt lat="42.99079333" lon="-1.13242333">
        <ele>894.0</ele>
        <time>2019-07-31T13:26:00.101Z</time>
      </trkpt>
      <trkpt lat="42.99077667" lon="-1.13241">
        <ele>894.0</ele>
        <time>2019-07-31T13:26:01.106Z</time>
      </trkpt>
      <trkpt lat="42.99076" lon="-1.13240333">
        <ele>895.0</ele>
        <time>2019-07-31T13:26:02.110Z</time>
      </trkpt>
      <trkpt lat="42.99074167" lon="-1.1324">
        <ele>894.0</ele>
        <time>2019-07-31T13:26:03.117Z</time>
      </trkpt>
      <trkpt lat="42.99072667" lon="-1.132395">
        <ele>894.0</ele>
        <time>2019-07-31T13:26:04.122Z</time>
      </trkpt>
      <trkpt lat="42.99071333" lon="-1.132395">
        <ele>892.0</ele>
        <time>2019-07-31T13:26:05.126Z</time>
      </trkpt>
      <trkpt lat="42.99070333" lon="-1.132395">
        <ele>891.0</ele>
        <time>2019-07-31T13:26:06.133Z</time>
      </trkpt>
      <trkpt lat="42.99069" lon="-1.13238667">
        <ele>890.0</ele>
        <time>2019-07-31T13:26:07.139Z</time>
      </trkpt>
      <trkpt lat="42.99067" lon="-1.13238">
        <ele>889.0</ele>
        <time>2019-07-31T13:26:08.144Z</time>
      </trkpt>
      <trkpt lat="42.990655" lon="-1.13238">
        <ele>887.0</ele>
        <time>2019-07-31T13:26:09.150Z</time>
      </trkpt>
      <trkpt lat="42.99064167" lon="-1.13238">
        <ele>887.0</ele>
        <time>2019-07-31T13:26:10.156Z</time>
      </trkpt>
      <trkpt lat="42.99063" lon="-1.13238">
        <ele>887.0</ele>
        <time>2019-07-31T13:26:11.161Z</time>
      </trkpt>
      <trkpt lat="42.99061333" lon="-1.13237667">
        <ele>888.0</ele>
        <time>2019-07-31T13:26:12.164Z</time>
      </trkpt>
      <trkpt lat="42.990595" lon="-1.13236833">
        <ele>889.0</ele>
        <time>2019-07-31T13:26:13.170Z</time>
      </trkpt>
      <trkpt lat="42.99058333" lon="-1.13235833">
        <ele>888.0</ele>
        <time>2019-07-31T13:26:14.174Z</time>
      </trkpt>
      <trkpt lat="42.99057333" lon="-1.13235">
        <ele>888.0</ele>
        <time>2019-07-31T13:26:15.180Z</time>
      </trkpt>
      <trkpt lat="42.99056167" lon="-1.13234833">
        <ele>887.0</ele>
        <time>2019-07-31T13:26:16.061Z</time>
      </trkpt>
      <trkpt lat="42.99055167" lon="-1.13235">
        <ele>886.0</ele>
        <time>2019-07-31T13:26:17.065Z</time>
      </trkpt>
      <trkpt lat="42.99054" lon="-1.13234833">
        <ele>886.0</ele>
        <time>2019-07-31T13:26:18.071Z</time>
      </trkpt>
      <trkpt lat="42.990525" lon="-1.13234667">
        <ele>886.0</ele>
        <time>2019-07-31T13:26:19.077Z</time>
      </trkpt>
      <trkpt lat="42.99050833" lon="-1.132345">
        <ele>886.0</ele>
        <time>2019-07-31T13:26:20.082Z</time>
      </trkpt>
      <trkpt lat="42.99049667" lon="-1.13234333">
        <ele>886.0</ele>
        <time>2019-07-31T13:26:21.088Z</time>
      </trkpt>
      <trkpt lat="42.99048167" lon="-1.13234">
        <ele>886.0</ele>
        <time>2019-07-31T13:26:22.092Z</time>
      </trkpt>
      <trkpt lat="42.99047167" lon="-1.13234">
        <ele>886.0</ele>
        <time>2019-07-31T13:26:23.097Z</time>
      </trkpt>
      <trkpt lat="42.99046" lon="-1.13233833">
        <ele>886.0</ele>
        <time>2019-07-31T13:26:24.103Z</time>
      </trkpt>
      <trkpt lat="42.99044833" lon="-1.13232833">
        <ele>886.0</ele>
        <time>2019-07-31T13:26:25.109Z</time>
      </trkpt>
      <trkpt lat="42.99042833" lon="-1.13232167">
        <ele>886.0</ele>
        <time>2019-07-31T13:26:26.114Z</time>
      </trkpt>
      <trkpt lat="42.99041" lon="-1.13231167">
        <ele>886.0</ele>
        <time>2019-07-31T13:26:27.119Z</time>
      </trkpt>
      <trkpt lat="42.990395" lon="-1.13231">
        <ele>887.0</ele>
        <time>2019-07-31T13:26:28.124Z</time>
      </trkpt>
      <trkpt lat="42.99038" lon="-1.13230333">
        <ele>886.0</ele>
        <time>2019-07-31T13:26:29.128Z</time>
      </trkpt>
      <trkpt lat="42.99036667" lon="-1.13229333">
        <ele>884.0</ele>
        <time>2019-07-31T13:26:30.132Z</time>
      </trkpt>
      <trkpt lat="42.99035333" lon="-1.13228833">
        <ele>884.0</ele>
        <time>2019-07-31T13:26:31.138Z</time>
      </trkpt>
      <trkpt lat="42.99033833" lon="-1.13228">
        <ele>884.0</ele>
        <time>2019-07-31T13:26:32.143Z</time>
      </trkpt>
      <trkpt lat="42.99032167" lon="-1.13226833">
        <ele>886.0</ele>
        <time>2019-07-31T13:26:33.148Z</time>
      </trkpt>
      <trkpt lat="42.99030833" lon="-1.13226">
        <ele>886.0</ele>
        <time>2019-07-31T13:26:34.153Z</time>
      </trkpt>
      <trkpt lat="42.99029167" lon="-1.13225333">
        <ele>886.0</ele>
        <time>2019-07-31T13:26:35.158Z</time>
      </trkpt>
      <trkpt lat="42.99028" lon="-1.13225333">
        <ele>886.0</ele>
        <time>2019-07-31T13:26:36.164Z</time>
      </trkpt>
      <trkpt lat="42.99026333" lon="-1.13225333">
        <ele>885.0</ele>
        <time>2019-07-31T13:26:37.168Z</time>
      </trkpt>
      <trkpt lat="42.990245" lon="-1.13225167">
        <ele>885.0</ele>
        <time>2019-07-31T13:26:38.175Z</time>
      </trkpt>
      <trkpt lat="42.99022667" lon="-1.13224667">
        <ele>885.0</ele>
        <time>2019-07-31T13:26:39.179Z</time>
      </trkpt>
      <trkpt lat="42.990215" lon="-1.13224667">
        <ele>885.0</ele>
        <time>2019-07-31T13:26:40.185Z</time>
      </trkpt>
      <trkpt lat="42.9902" lon="-1.13224167">
        <ele>885.0</ele>
        <time>2019-07-31T13:26:41.065Z</time>
      </trkpt>
      <trkpt lat="42.99018333" lon="-1.13224333">
        <ele>884.0</ele>
        <time>2019-07-31T13:26:42.071Z</time>
      </trkpt>
      <trkpt lat="42.99015667" lon="-1.132245">
        <ele>884.0</ele>
        <time>2019-07-31T13:26:43.075Z</time>
      </trkpt>
      <trkpt lat="42.990145" lon="-1.13224833">
        <ele>884.0</ele>
        <time>2019-07-31T13:26:44.081Z</time>
      </trkpt>
      <trkpt lat="42.99013167" lon="-1.13225">
        <ele>885.0</ele>
        <time>2019-07-31T13:26:45.087Z</time>
      </trkpt>
      <trkpt lat="42.99011167" lon="-1.13224667">
        <ele>885.0</ele>
        <time>2019-07-31T13:26:46.093Z</time>
      </trkpt>
      <trkpt lat="42.99009167" lon="-1.13224167">
        <ele>884.0</ele>
        <time>2019-07-31T13:26:47.098Z</time>
      </trkpt>
      <trkpt lat="42.99007167" lon="-1.132235">
        <ele>885.0</ele>
        <time>2019-07-31T13:26:48.105Z</time>
      </trkpt>
      <trkpt lat="42.99005667" lon="-1.13223333">
        <ele>886.0</ele>
        <time>2019-07-31T13:26:49.113Z</time>
      </trkpt>
      <trkpt lat="42.99005" lon="-1.132235">
        <ele>886.0</ele>
        <time>2019-07-31T13:26:50.117Z</time>
      </trkpt>
      <trkpt lat="42.99003833" lon="-1.13223833">
        <ele>885.0</ele>
        <time>2019-07-31T13:26:51.122Z</time>
      </trkpt>
      <trkpt lat="42.990025" lon="-1.13225">
        <ele>884.0</ele>
        <time>2019-07-31T13:26:52.128Z</time>
      </trkpt>
      <trkpt lat="42.99001" lon="-1.132255">
        <ele>884.0</ele>
        <time>2019-07-31T13:26:53.132Z</time>
      </trkpt>
      <trkpt lat="42.98999333" lon="-1.13225833">
        <ele>884.0</ele>
        <time>2019-07-31T13:26:54.133Z</time>
      </trkpt>
      <trkpt lat="42.98997833" lon="-1.13226167">
        <ele>883.0</ele>
        <time>2019-07-31T13:26:55.138Z</time>
      </trkpt>
      <trkpt lat="42.98996" lon="-1.132265">
        <ele>884.0</ele>
        <time>2019-07-31T13:26:56.144Z</time>
      </trkpt>
      <trkpt lat="42.98994" lon="-1.13227333">
        <ele>883.0</ele>
        <time>2019-07-31T13:26:57.149Z</time>
      </trkpt>
      <trkpt lat="42.989925" lon="-1.13227833">
        <ele>884.0</ele>
        <time>2019-07-31T13:26:58.153Z</time>
      </trkpt>
      <trkpt lat="42.98990667" lon="-1.13228333">
        <ele>884.0</ele>
        <time>2019-07-31T13:26:59.160Z</time>
      </trkpt>
      <trkpt lat="42.98988833" lon="-1.13228667">
        <ele>884.0</ele>
        <time>2019-07-31T13:27:00.164Z</time>
      </trkpt>
      <trkpt lat="42.98986833" lon="-1.13229667">
        <ele>884.0</ele>
        <time>2019-07-31T13:27:01.169Z</time>
      </trkpt>
      <trkpt lat="42.98984833" lon="-1.132305">
        <ele>884.0</ele>
        <time>2019-07-31T13:27:02.174Z</time>
      </trkpt>
      <trkpt lat="42.98983" lon="-1.132305">
        <ele>885.0</ele>
        <time>2019-07-31T13:27:03.178Z</time>
      </trkpt>
      <trkpt lat="42.98980667" lon="-1.132305">
        <ele>886.0</ele>
        <time>2019-07-31T13:27:04.183Z</time>
      </trkpt>
      <trkpt lat="42.98979" lon="-1.13230667">
        <ele>886.0</ele>
        <time>2019-07-31T13:27:05.063Z</time>
      </trkpt>
      <trkpt lat="42.989775" lon="-1.132305">
        <ele>888.0</ele>
        <time>2019-07-31T13:27:06.069Z</time>
      </trkpt>
      <trkpt lat="42.98976" lon="-1.13230833">
        <ele>888.0</ele>
        <time>2019-07-31T13:27:07.076Z</time>
      </trkpt>
      <trkpt lat="42.98974333" lon="-1.13231">
        <ele>889.0</ele>
        <time>2019-07-31T13:27:08.081Z</time>
      </trkpt>
      <trkpt lat="42.989725" lon="-1.13230833">
        <ele>889.0</ele>
        <time>2019-07-31T13:27:09.088Z</time>
      </trkpt>
      <trkpt lat="42.98970333" lon="-1.13230167">
        <ele>890.0</ele>
        <time>2019-07-31T13:27:10.093Z</time>
      </trkpt>
      <trkpt lat="42.98968333" lon="-1.13229333">
        <ele>891.0</ele>
        <time>2019-07-31T13:27:11.099Z</time>
      </trkpt>
      <trkpt lat="42.989665" lon="-1.13228833">
        <ele>892.0</ele>
        <time>2019-07-31T13:27:12.105Z</time>
      </trkpt>
      <trkpt lat="42.98965333" lon="-1.13227833">
        <ele>894.0</ele>
        <time>2019-07-31T13:27:13.111Z</time>
      </trkpt>
      <trkpt lat="42.989645" lon="-1.13227333">
        <ele>896.0</ele>
        <time>2019-07-31T13:27:14.118Z</time>
      </trkpt>
      <trkpt lat="42.989635" lon="-1.13226333">
        <ele>897.0</ele>
        <time>2019-07-31T13:27:15.122Z</time>
      </trkpt>
      <trkpt lat="42.98962667" lon="-1.132255">
        <ele>897.0</ele>
        <time>2019-07-31T13:27:16.127Z</time>
      </trkpt>
      <trkpt lat="42.98962167" lon="-1.13225333">
        <ele>897.0</ele>
        <time>2019-07-31T13:27:17.131Z</time>
      </trkpt>
      <trkpt lat="42.98961167" lon="-1.13224667">
        <ele>896.0</ele>
        <time>2019-07-31T13:27:18.136Z</time>
      </trkpt>
      <trkpt lat="42.98960833" lon="-1.13225">
        <ele>895.0</ele>
        <time>2019-07-31T13:27:19.145Z</time>
      </trkpt>
      <trkpt lat="42.98960167" lon="-1.132245">
        <ele>894.0</ele>
        <time>2019-07-31T13:27:20.150Z</time>
      </trkpt>
      <trkpt lat="42.98958833" lon="-1.13224333">
        <ele>893.0</ele>
        <time>2019-07-31T13:27:21.154Z</time>
      </trkpt>
      <trkpt lat="42.989575" lon="-1.13224833">
        <ele>893.0</ele>
        <time>2019-07-31T13:27:22.160Z</time>
      </trkpt>
      <trkpt lat="42.98957167" lon="-1.13225167">
        <ele>892.0</ele>
        <time>2019-07-31T13:27:23.166Z</time>
      </trkpt>
      <trkpt lat="42.98956833" lon="-1.13225167">
        <ele>893.0</ele>
        <time>2019-07-31T13:27:24.171Z</time>
      </trkpt>
      <trkpt lat="42.98958" lon="-1.13224833">
        <ele>894.0</ele>
        <time>2019-07-31T13:27:25.177Z</time>
      </trkpt>
      <trkpt lat="42.98958667" lon="-1.13224833">
        <ele>894.0</ele>
        <time>2019-07-31T13:27:26.181Z</time>
      </trkpt>
      <trkpt lat="42.98958833" lon="-1.13224667">
        <ele>894.0</ele>
        <time>2019-07-31T13:27:27.061Z</time>
      </trkpt>
      <trkpt lat="42.98959167" lon="-1.13224667">
        <ele>894.0</ele>
        <time>2019-07-31T13:27:28.066Z</time>
      </trkpt>
      <trkpt lat="42.98959167" lon="-1.13225">
        <ele>894.0</ele>
        <time>2019-07-31T13:27:29.072Z</time>
      </trkpt>
      <trkpt lat="42.98959" lon="-1.13225167">
        <ele>893.0</ele>
        <time>2019-07-31T13:27:30.080Z</time>
      </trkpt>
      <trkpt lat="42.98958833" lon="-1.13225333">
        <ele>893.0</ele>
        <time>2019-07-31T13:27:31.085Z</time>
      </trkpt>
      <trkpt lat="42.98958667" lon="-1.13225667">
        <ele>893.0</ele>
        <time>2019-07-31T13:27:32.091Z</time>
      </trkpt>
      <trkpt lat="42.98958667" lon="-1.13226">
        <ele>893.0</ele>
        <time>2019-07-31T13:27:33.096Z</time>
      </trkpt>
      <trkpt lat="42.98959167" lon="-1.13226333">
        <ele>892.0</ele>
        <time>2019-07-31T13:27:34.102Z</time>
      </trkpt>
      <trkpt lat="42.98959833" lon="-1.13226833">
        <ele>891.0</ele>
        <time>2019-07-31T13:27:35.108Z</time>
      </trkpt>
      <trkpt lat="42.98960333" lon="-1.13227167">
        <ele>891.0</ele>
        <time>2019-07-31T13:27:36.114Z</time>
      </trkpt>
      <trkpt lat="42.98960167" lon="-1.13227167">
        <ele>891.0</ele>
        <time>2019-07-31T13:27:37.118Z</time>
      </trkpt>
      <trkpt lat="42.9896" lon="-1.132275">
        <ele>891.0</ele>
        <time>2019-07-31T13:27:38.123Z</time>
      </trkpt>
      <trkpt lat="42.98959667" lon="-1.13227">
        <ele>890.0</ele>
        <time>2019-07-31T13:27:39.127Z</time>
      </trkpt>
      <trkpt lat="42.98959167" lon="-1.13226833">
        <ele>890.0</ele>
        <time>2019-07-31T13:27:40.132Z</time>
      </trkpt>
      <trkpt lat="42.98958833" lon="-1.13227">
        <ele>890.0</ele>
        <time>2019-07-31T13:27:41.136Z</time>
      </trkpt>
      <trkpt lat="42.98958333" lon="-1.132275">
        <ele>889.0</ele>
        <time>2019-07-31T13:27:42.142Z</time>
      </trkpt>
      <trkpt lat="42.98958167" lon="-1.13228333">
        <ele>888.0</ele>
        <time>2019-07-31T13:27:43.148Z</time>
      </trkpt>
      <trkpt lat="42.98958" lon="-1.13228833">
        <ele>888.0</ele>
        <time>2019-07-31T13:27:44.154Z</time>
      </trkpt>
      <trkpt lat="42.98957667" lon="-1.13228833">
        <ele>888.0</ele>
        <time>2019-07-31T13:27:45.157Z</time>
      </trkpt>
      <trkpt lat="42.98957333" lon="-1.13228667">
        <ele>888.0</ele>
        <time>2019-07-31T13:27:46.162Z</time>
      </trkpt>
      <trkpt lat="42.989575" lon="-1.132285">
        <ele>888.0</ele>
        <time>2019-07-31T13:27:47.166Z</time>
      </trkpt>
      <trkpt lat="42.98957333" lon="-1.13228667">
        <ele>886.0</ele>
        <time>2019-07-31T13:27:48.173Z</time>
      </trkpt>
      <trkpt lat="42.98957333" lon="-1.13229167">
        <ele>886.0</ele>
        <time>2019-07-31T13:27:49.177Z</time>
      </trkpt>
      <trkpt lat="42.98957333" lon="-1.13229">
        <ele>886.0</ele>
        <time>2019-07-31T13:27:50.183Z</time>
      </trkpt>
      <trkpt lat="42.98957167" lon="-1.13229">
        <ele>886.0</ele>
        <time>2019-07-31T13:27:51.065Z</time>
      </trkpt>
      <trkpt lat="42.98956833" lon="-1.13229167">
        <ele>886.0</ele>
        <time>2019-07-31T13:27:52.071Z</time>
      </trkpt>
      <trkpt lat="42.98956667" lon="-1.13229">
        <ele>887.0</ele>
        <time>2019-07-31T13:27:53.078Z</time>
      </trkpt>
      <trkpt lat="42.98956167" lon="-1.13229167">
        <ele>887.0</ele>
        <time>2019-07-31T13:27:54.084Z</time>
      </trkpt>
      <trkpt lat="42.98955667" lon="-1.13229333">
        <ele>888.0</ele>
        <time>2019-07-31T13:27:55.091Z</time>
      </trkpt>
      <trkpt lat="42.98955833" lon="-1.132295">
        <ele>888.0</ele>
        <time>2019-07-31T13:27:56.095Z</time>
      </trkpt>
      <trkpt lat="42.98955833" lon="-1.13229833">
        <ele>888.0</ele>
        <time>2019-07-31T13:27:57.098Z</time>
      </trkpt>
      <trkpt lat="42.98955667" lon="-1.132305">
        <ele>888.0</ele>
        <time>2019-07-31T13:27:58.103Z</time>
      </trkpt>
      <trkpt lat="42.98955333" lon="-1.132305">
        <ele>888.0</ele>
        <time>2019-07-31T13:27:59.109Z</time>
      </trkpt>
      <trkpt lat="42.98955667" lon="-1.13230167">
        <ele>888.0</ele>
        <time>2019-07-31T13:28:00.112Z</time>
      </trkpt>
      <trkpt lat="42.98955833" lon="-1.13229833">
        <ele>888.0</ele>
        <time>2019-07-31T13:28:01.118Z</time>
      </trkpt>
      <trkpt lat="42.989565" lon="-1.132295">
        <ele>887.0</ele>
        <time>2019-07-31T13:28:02.122Z</time>
      </trkpt>
      <trkpt lat="42.98957333" lon="-1.13229333">
        <ele>886.0</ele>
        <time>2019-07-31T13:28:03.128Z</time>
      </trkpt>
      <trkpt lat="42.98958333" lon="-1.132295">
        <ele>886.0</ele>
        <time>2019-07-31T13:28:04.132Z</time>
      </trkpt>
      <trkpt lat="42.98958" lon="-1.13230667">
        <ele>886.0</ele>
        <time>2019-07-31T13:28:05.137Z</time>
      </trkpt>
      <trkpt lat="42.98958167" lon="-1.13232">
        <ele>885.0</ele>
        <time>2019-07-31T13:28:06.143Z</time>
      </trkpt>
      <trkpt lat="42.989585" lon="-1.132325">
        <ele>884.0</ele>
        <time>2019-07-31T13:28:07.146Z</time>
      </trkpt>
      <trkpt lat="42.98958333" lon="-1.13233333">
        <ele>884.0</ele>
        <time>2019-07-31T13:28:08.153Z</time>
      </trkpt>
      <trkpt lat="42.98958333" lon="-1.13234167">
        <ele>884.0</ele>
        <time>2019-07-31T13:28:09.160Z</time>
      </trkpt>
      <trkpt lat="42.98958333" lon="-1.13234167">
        <ele>884.0</ele>
        <time>2019-07-31T13:28:10.164Z</time>
      </trkpt>
      <trkpt lat="42.98958667" lon="-1.13233667">
        <ele>884.0</ele>
        <time>2019-07-31T13:28:11.170Z</time>
      </trkpt>
      <trkpt lat="42.98959" lon="-1.132335">
        <ele>883.0</ele>
        <time>2019-07-31T13:28:12.180Z</time>
      </trkpt>
      <trkpt lat="42.98959667" lon="-1.13233333">
        <ele>883.0</ele>
        <time>2019-07-31T13:28:13.061Z</time>
      </trkpt>
      <trkpt lat="42.9896" lon="-1.13233">
        <ele>883.0</ele>
        <time>2019-07-31T13:28:14.067Z</time>
      </trkpt>
      <trkpt lat="42.98960333" lon="-1.13233">
        <ele>883.0</ele>
        <time>2019-07-31T13:28:15.072Z</time>
      </trkpt>
      <trkpt lat="42.98960833" lon="-1.13232333">
        <ele>882.0</ele>
        <time>2019-07-31T13:28:16.078Z</time>
      </trkpt>
      <trkpt lat="42.98961333" lon="-1.13231333">
        <ele>881.0</ele>
        <time>2019-07-31T13:28:17.084Z</time>
      </trkpt>
      <trkpt lat="42.98961833" lon="-1.13230333">
        <ele>879.0</ele>
        <time>2019-07-31T13:28:18.091Z</time>
      </trkpt>
      <trkpt lat="42.98962667" lon="-1.13229333">
        <ele>879.0</ele>
        <time>2019-07-31T13:28:19.098Z</time>
      </trkpt>
      <trkpt lat="42.98963667" lon="-1.13228333">
        <ele>878.0</ele>
        <time>2019-07-31T13:28:20.102Z</time>
      </trkpt>
      <trkpt lat="42.98964333" lon="-1.132275">
        <ele>878.0</ele>
        <time>2019-07-31T13:28:21.107Z</time>
      </trkpt>
      <trkpt lat="42.98964833" lon="-1.13226667">
        <ele>878.0</ele>
        <time>2019-07-31T13:28:22.114Z</time>
      </trkpt>
      <trkpt lat="42.989655" lon="-1.13226">
        <ele>879.0</ele>
        <time>2019-07-31T13:28:23.121Z</time>
      </trkpt>
      <trkpt lat="42.98966667" lon="-1.13224667">
        <ele>879.0</ele>
        <time>2019-07-31T13:28:24.127Z</time>
      </trkpt>
      <trkpt lat="42.98967667" lon="-1.132235">
        <ele>878.0</ele>
        <time>2019-07-31T13:28:25.132Z</time>
      </trkpt>
      <trkpt lat="42.98968167" lon="-1.13222167">
        <ele>878.0</ele>
        <time>2019-07-31T13:28:26.138Z</time>
      </trkpt>
      <trkpt lat="42.98969" lon="-1.13220667">
        <ele>877.0</ele>
        <time>2019-07-31T13:28:27.144Z</time>
      </trkpt>
      <trkpt lat="42.9897" lon="-1.13218833">
        <ele>877.0</ele>
        <time>2019-07-31T13:28:28.151Z</time>
      </trkpt>
      <trkpt lat="42.98971" lon="-1.13217">
        <ele>875.0</ele>
        <time>2019-07-31T13:28:29.156Z</time>
      </trkpt>
      <trkpt lat="42.98971667" lon="-1.13215667">
        <ele>874.0</ele>
        <time>2019-07-31T13:28:30.162Z</time>
      </trkpt>
      <trkpt lat="42.98972833" lon="-1.132135">
        <ele>874.0</ele>
        <time>2019-07-31T13:28:31.167Z</time>
      </trkpt>
      <trkpt lat="42.98974167" lon="-1.13212">
        <ele>873.0</ele>
        <time>2019-07-31T13:28:32.173Z</time>
      </trkpt>
      <trkpt lat="42.98975333" lon="-1.13210667">
        <ele>872.0</ele>
        <time>2019-07-31T13:28:33.179Z</time>
      </trkpt>
      <trkpt lat="42.989765" lon="-1.13208833">
        <ele>871.0</ele>
        <time>2019-07-31T13:28:34.184Z</time>
      </trkpt>
      <trkpt lat="42.98977167" lon="-1.13206833">
        <ele>870.0</ele>
        <time>2019-07-31T13:28:35.065Z</time>
      </trkpt>
      <trkpt lat="42.98977667" lon="-1.13205667">
        <ele>869.0</ele>
        <time>2019-07-31T13:28:36.068Z</time>
      </trkpt>
      <trkpt lat="42.98978167" lon="-1.13203833">
        <ele>869.0</ele>
        <time>2019-07-31T13:28:37.073Z</time>
      </trkpt>
      <trkpt lat="42.98978833" lon="-1.132015">
        <ele>869.0</ele>
        <time>2019-07-31T13:28:38.081Z</time>
      </trkpt>
      <trkpt lat="42.98979833" lon="-1.13199667">
        <ele>868.0</ele>
        <time>2019-07-31T13:28:39.087Z</time>
      </trkpt>
      <trkpt lat="42.98980667" lon="-1.13197667">
        <ele>868.0</ele>
        <time>2019-07-31T13:28:40.091Z</time>
      </trkpt>
      <trkpt lat="42.98980833" lon="-1.13196667">
        <ele>867.0</ele>
        <time>2019-07-31T13:28:41.096Z</time>
      </trkpt>
      <trkpt lat="42.98981333" lon="-1.131955">
        <ele>866.0</ele>
        <time>2019-07-31T13:28:42.101Z</time>
      </trkpt>
      <trkpt lat="42.98982167" lon="-1.13194">
        <ele>864.0</ele>
        <time>2019-07-31T13:28:43.107Z</time>
      </trkpt>
      <trkpt lat="42.98982667" lon="-1.13191833">
        <ele>863.0</ele>
        <time>2019-07-31T13:28:44.113Z</time>
      </trkpt>
      <trkpt lat="42.98983" lon="-1.13190333">
        <ele>862.0</ele>
        <time>2019-07-31T13:28:45.119Z</time>
      </trkpt>
      <trkpt lat="42.98983" lon="-1.13189333">
        <ele>862.0</ele>
        <time>2019-07-31T13:28:46.125Z</time>
      </trkpt>
      <trkpt lat="42.989825" lon="-1.13187667">
        <ele>863.0</ele>
        <time>2019-07-31T13:28:47.130Z</time>
      </trkpt>
      <trkpt lat="42.98982333" lon="-1.13185333">
        <ele>863.0</ele>
        <time>2019-07-31T13:28:48.135Z</time>
      </trkpt>
      <trkpt lat="42.98982333" lon="-1.13182667">
        <ele>863.0</ele>
        <time>2019-07-31T13:28:49.141Z</time>
      </trkpt>
      <trkpt lat="42.98983167" lon="-1.13180833">
        <ele>863.0</ele>
        <time>2019-07-31T13:28:50.143Z</time>
      </trkpt>
      <trkpt lat="42.98983833" lon="-1.131795">
        <ele>864.0</ele>
        <time>2019-07-31T13:28:51.145Z</time>
      </trkpt>
      <trkpt lat="42.98984167" lon="-1.13179">
        <ele>865.0</ele>
        <time>2019-07-31T13:28:52.147Z</time>
      </trkpt>
      <trkpt lat="42.98984333" lon="-1.13178">
        <ele>866.0</ele>
        <time>2019-07-31T13:28:53.150Z</time>
      </trkpt>
      <trkpt lat="42.98984667" lon="-1.13177">
        <ele>867.0</ele>
        <time>2019-07-31T13:28:54.152Z</time>
      </trkpt>
      <trkpt lat="42.98984667" lon="-1.13175833">
        <ele>867.0</ele>
        <time>2019-07-31T13:28:55.155Z</time>
      </trkpt>
      <trkpt lat="42.98984667" lon="-1.13174833">
        <ele>867.0</ele>
        <time>2019-07-31T13:28:56.155Z</time>
      </trkpt>
      <trkpt lat="42.98984833" lon="-1.13173667">
        <ele>866.0</ele>
        <time>2019-07-31T13:28:57.156Z</time>
      </trkpt>
      <trkpt lat="42.98984833" lon="-1.131725">
        <ele>866.0</ele>
        <time>2019-07-31T13:28:58.161Z</time>
      </trkpt>
      <trkpt lat="42.98985" lon="-1.13171333">
        <ele>866.0</ele>
        <time>2019-07-31T13:28:59.163Z</time>
      </trkpt>
      <trkpt lat="42.98985333" lon="-1.131695">
        <ele>865.0</ele>
        <time>2019-07-31T13:29:00.165Z</time>
      </trkpt>
      <trkpt lat="42.98985667" lon="-1.13167333">
        <ele>866.0</ele>
        <time>2019-07-31T13:29:01.172Z</time>
      </trkpt>
      <trkpt lat="42.98985833" lon="-1.13165167">
        <ele>866.0</ele>
        <time>2019-07-31T13:29:02.177Z</time>
      </trkpt>
      <trkpt lat="42.98986167" lon="-1.13163333">
        <ele>865.0</ele>
        <time>2019-07-31T13:29:03.183Z</time>
      </trkpt>
      <trkpt lat="42.989865" lon="-1.13161333">
        <ele>864.0</ele>
        <time>2019-07-31T13:29:04.064Z</time>
      </trkpt>
      <trkpt lat="42.98986667" lon="-1.13159167">
        <ele>864.0</ele>
        <time>2019-07-31T13:29:05.072Z</time>
      </trkpt>
      <trkpt lat="42.98987167" lon="-1.13156833">
        <ele>864.0</ele>
        <time>2019-07-31T13:29:06.078Z</time>
      </trkpt>
      <trkpt lat="42.98987333" lon="-1.13154333">
        <ele>864.0</ele>
        <time>2019-07-31T13:29:07.081Z</time>
      </trkpt>
      <trkpt lat="42.98987333" lon="-1.13151833">
        <ele>863.0</ele>
        <time>2019-07-31T13:29:08.086Z</time>
      </trkpt>
      <trkpt lat="42.989875" lon="-1.13149167">
        <ele>862.0</ele>
        <time>2019-07-31T13:29:09.091Z</time>
      </trkpt>
      <trkpt lat="42.98987833" lon="-1.13147">
        <ele>862.0</ele>
        <time>2019-07-31T13:29:10.097Z</time>
      </trkpt>
      <trkpt lat="42.98988333" lon="-1.13145">
        <ele>862.0</ele>
        <time>2019-07-31T13:29:11.103Z</time>
      </trkpt>
      <trkpt lat="42.98989167" lon="-1.13143">
        <ele>861.0</ele>
        <time>2019-07-31T13:29:12.105Z</time>
      </trkpt>
      <trkpt lat="42.9899" lon="-1.13140833">
        <ele>860.0</ele>
        <time>2019-07-31T13:29:13.106Z</time>
      </trkpt>
      <trkpt lat="42.98990333" lon="-1.131385">
        <ele>858.0</ele>
        <time>2019-07-31T13:29:14.109Z</time>
      </trkpt>
      <trkpt lat="42.989905" lon="-1.131365">
        <ele>858.0</ele>
        <time>2019-07-31T13:29:15.115Z</time>
      </trkpt>
      <trkpt lat="42.98990833" lon="-1.13134667">
        <ele>857.0</ele>
        <time>2019-07-31T13:29:16.120Z</time>
      </trkpt>
      <trkpt lat="42.98991167" lon="-1.131325">
        <ele>857.0</ele>
        <time>2019-07-31T13:29:17.124Z</time>
      </trkpt>
      <trkpt lat="42.98991833" lon="-1.13129833">
        <ele>858.0</ele>
        <time>2019-07-31T13:29:18.128Z</time>
      </trkpt>
      <trkpt lat="42.98992333" lon="-1.13126667">
        <ele>858.0</ele>
        <time>2019-07-31T13:29:19.132Z</time>
      </trkpt>
      <trkpt lat="42.98992667" lon="-1.13124167">
        <ele>858.0</ele>
        <time>2019-07-31T13:29:20.136Z</time>
      </trkpt>
      <trkpt lat="42.98993167" lon="-1.131215">
        <ele>857.0</ele>
        <time>2019-07-31T13:29:21.140Z</time>
      </trkpt>
      <trkpt lat="42.98993" lon="-1.13118667">
        <ele>857.0</ele>
        <time>2019-07-31T13:29:22.145Z</time>
      </trkpt>
      <trkpt lat="42.98992833" lon="-1.13116667">
        <ele>857.0</ele>
        <time>2019-07-31T13:29:23.148Z</time>
      </trkpt>
      <trkpt lat="42.98992167" lon="-1.13115167">
        <ele>858.0</ele>
        <time>2019-07-31T13:29:24.152Z</time>
      </trkpt>
      <trkpt lat="42.989915" lon="-1.13112833">
        <ele>858.0</ele>
        <time>2019-07-31T13:29:25.159Z</time>
      </trkpt>
      <trkpt lat="42.989915" lon="-1.1311">
        <ele>858.0</ele>
        <time>2019-07-31T13:29:26.165Z</time>
      </trkpt>
      <trkpt lat="42.989915" lon="-1.13106833">
        <ele>858.0</ele>
        <time>2019-07-31T13:29:27.171Z</time>
      </trkpt>
      <trkpt lat="42.98991833" lon="-1.13104167">
        <ele>858.0</ele>
        <time>2019-07-31T13:29:28.176Z</time>
      </trkpt>
      <trkpt lat="42.98991833" lon="-1.13101667">
        <ele>859.0</ele>
        <time>2019-07-31T13:29:29.182Z</time>
      </trkpt>
      <trkpt lat="42.98991167" lon="-1.13098333">
        <ele>860.0</ele>
        <time>2019-07-31T13:29:30.061Z</time>
      </trkpt>
      <trkpt lat="42.98990167" lon="-1.13096">
        <ele>861.0</ele>
        <time>2019-07-31T13:29:31.068Z</time>
      </trkpt>
      <trkpt lat="42.98990333" lon="-1.13094333">
        <ele>862.0</ele>
        <time>2019-07-31T13:29:32.074Z</time>
      </trkpt>
      <trkpt lat="42.98989833" lon="-1.13091667">
        <ele>864.0</ele>
        <time>2019-07-31T13:29:33.079Z</time>
      </trkpt>
      <trkpt lat="42.98989833" lon="-1.13088833">
        <ele>866.0</ele>
        <time>2019-07-31T13:29:34.085Z</time>
      </trkpt>
      <trkpt lat="42.98990167" lon="-1.13086333">
        <ele>866.0</ele>
        <time>2019-07-31T13:29:35.090Z</time>
      </trkpt>
      <trkpt lat="42.98990167" lon="-1.13082667">
        <ele>865.0</ele>
        <time>2019-07-31T13:29:36.096Z</time>
      </trkpt>
      <trkpt lat="42.98989833" lon="-1.130795">
        <ele>866.0</ele>
        <time>2019-07-31T13:29:37.103Z</time>
      </trkpt>
      <trkpt lat="42.98989" lon="-1.13076333">
        <ele>867.0</ele>
        <time>2019-07-31T13:29:38.109Z</time>
      </trkpt>
      <trkpt lat="42.98988167" lon="-1.13073667">
        <ele>867.0</ele>
        <time>2019-07-31T13:29:39.116Z</time>
      </trkpt>
      <trkpt lat="42.98987333" lon="-1.13071167">
        <ele>866.0</ele>
        <time>2019-07-31T13:29:40.121Z</time>
      </trkpt>
      <trkpt lat="42.98986667" lon="-1.130685">
        <ele>866.0</ele>
        <time>2019-07-31T13:29:41.126Z</time>
      </trkpt>
      <trkpt lat="42.98986" lon="-1.13065667">
        <ele>866.0</ele>
        <time>2019-07-31T13:29:42.130Z</time>
      </trkpt>
      <trkpt lat="42.98985667" lon="-1.13062167">
        <ele>868.0</ele>
        <time>2019-07-31T13:29:43.134Z</time>
      </trkpt>
      <trkpt lat="42.989855" lon="-1.130595">
        <ele>869.0</ele>
        <time>2019-07-31T13:29:44.138Z</time>
      </trkpt>
      <trkpt lat="42.98984667" lon="-1.13056667">
        <ele>870.0</ele>
        <time>2019-07-31T13:29:45.145Z</time>
      </trkpt>
      <trkpt lat="42.98984833" lon="-1.13053833">
        <ele>870.0</ele>
        <time>2019-07-31T13:29:46.150Z</time>
      </trkpt>
      <trkpt lat="42.98984333" lon="-1.13051833">
        <ele>869.0</ele>
        <time>2019-07-31T13:29:47.155Z</time>
      </trkpt>
      <trkpt lat="42.989835" lon="-1.13050333">
        <ele>869.0</ele>
        <time>2019-07-31T13:29:48.158Z</time>
      </trkpt>
      <trkpt lat="42.98983" lon="-1.13049">
        <ele>868.0</ele>
        <time>2019-07-31T13:29:49.164Z</time>
      </trkpt>
      <trkpt lat="42.98982667" lon="-1.13047333">
        <ele>867.0</ele>
        <time>2019-07-31T13:29:50.168Z</time>
      </trkpt>
      <trkpt lat="42.98982833" lon="-1.13045833">
        <ele>868.0</ele>
        <time>2019-07-31T13:29:51.174Z</time>
      </trkpt>
      <trkpt lat="42.98982667" lon="-1.13044167">
        <ele>868.0</ele>
        <time>2019-07-31T13:29:52.178Z</time>
      </trkpt>
      <trkpt lat="42.98982833" lon="-1.13042">
        <ele>868.0</ele>
        <time>2019-07-31T13:29:53.184Z</time>
      </trkpt>
      <trkpt lat="42.98983" lon="-1.13039833">
        <ele>868.0</ele>
        <time>2019-07-31T13:29:54.064Z</time>
      </trkpt>
      <trkpt lat="42.98982833" lon="-1.13038">
        <ele>868.0</ele>
        <time>2019-07-31T13:29:55.069Z</time>
      </trkpt>
      <trkpt lat="42.98982833" lon="-1.13036">
        <ele>868.0</ele>
        <time>2019-07-31T13:29:56.076Z</time>
      </trkpt>
      <trkpt lat="42.98982833" lon="-1.13034333">
        <ele>868.0</ele>
        <time>2019-07-31T13:29:57.082Z</time>
      </trkpt>
      <trkpt lat="42.98982833" lon="-1.13032833">
        <ele>868.0</ele>
        <time>2019-07-31T13:29:58.089Z</time>
      </trkpt>
      <trkpt lat="42.98983" lon="-1.13031333">
        <ele>868.0</ele>
        <time>2019-07-31T13:29:59.092Z</time>
      </trkpt>
      <trkpt lat="42.98983167" lon="-1.13029667">
        <ele>868.0</ele>
        <time>2019-07-31T13:30:00.094Z</time>
      </trkpt>
      <trkpt lat="42.989835" lon="-1.13028333">
        <ele>867.0</ele>
        <time>2019-07-31T13:30:01.097Z</time>
      </trkpt>
      <trkpt lat="42.98984167" lon="-1.13026833">
        <ele>867.0</ele>
        <time>2019-07-31T13:30:02.104Z</time>
      </trkpt>
      <trkpt lat="42.98984667" lon="-1.130255">
        <ele>866.0</ele>
        <time>2019-07-31T13:30:03.109Z</time>
      </trkpt>
      <trkpt lat="42.98984667" lon="-1.13024167">
        <ele>866.0</ele>
        <time>2019-07-31T13:30:04.115Z</time>
      </trkpt>
      <trkpt lat="42.989845" lon="-1.130225">
        <ele>866.0</ele>
        <time>2019-07-31T13:30:05.122Z</time>
      </trkpt>
      <trkpt lat="42.989845" lon="-1.13020667">
        <ele>866.0</ele>
        <time>2019-07-31T13:30:06.128Z</time>
      </trkpt>
      <trkpt lat="42.98984833" lon="-1.130185">
        <ele>867.0</ele>
        <time>2019-07-31T13:30:07.134Z</time>
      </trkpt>
      <trkpt lat="42.989845" lon="-1.13016167">
        <ele>868.0</ele>
        <time>2019-07-31T13:30:08.137Z</time>
      </trkpt>
      <trkpt lat="42.98984" lon="-1.13013833">
        <ele>868.0</ele>
        <time>2019-07-31T13:30:09.140Z</time>
      </trkpt>
      <trkpt lat="42.98983667" lon="-1.13011833">
        <ele>869.0</ele>
        <time>2019-07-31T13:30:10.145Z</time>
      </trkpt>
      <trkpt lat="42.98983167" lon="-1.130085">
        <ele>871.0</ele>
        <time>2019-07-31T13:30:11.149Z</time>
      </trkpt>
      <trkpt lat="42.989825" lon="-1.130055">
        <ele>872.0</ele>
        <time>2019-07-31T13:30:12.154Z</time>
      </trkpt>
      <trkpt lat="42.98982833" lon="-1.13002167">
        <ele>873.0</ele>
        <time>2019-07-31T13:30:13.156Z</time>
      </trkpt>
      <trkpt lat="42.98983" lon="-1.12999333">
        <ele>873.0</ele>
        <time>2019-07-31T13:30:14.161Z</time>
      </trkpt>
      <trkpt lat="42.98982833" lon="-1.12997667">
        <ele>872.0</ele>
        <time>2019-07-31T13:30:15.167Z</time>
      </trkpt>
      <trkpt lat="42.98982833" lon="-1.12995667">
        <ele>871.0</ele>
        <time>2019-07-31T13:30:16.172Z</time>
      </trkpt>
      <trkpt lat="42.98982667" lon="-1.12993">
        <ele>873.0</ele>
        <time>2019-07-31T13:30:17.179Z</time>
      </trkpt>
      <trkpt lat="42.98983" lon="-1.12989167">
        <ele>872.0</ele>
        <time>2019-07-31T13:30:18.185Z</time>
      </trkpt>
      <trkpt lat="42.98983167" lon="-1.12985333">
        <ele>874.0</ele>
        <time>2019-07-31T13:30:19.065Z</time>
      </trkpt>
      <trkpt lat="42.98982667" lon="-1.12981333">
        <ele>875.0</ele>
        <time>2019-07-31T13:30:20.070Z</time>
      </trkpt>
      <trkpt lat="42.98982667" lon="-1.12978167">
        <ele>876.0</ele>
        <time>2019-07-31T13:30:21.076Z</time>
      </trkpt>
      <trkpt lat="42.98983833" lon="-1.12975667">
        <ele>875.0</ele>
        <time>2019-07-31T13:30:22.080Z</time>
      </trkpt>
      <trkpt lat="42.98984167" lon="-1.12972333">
        <ele>875.0</ele>
        <time>2019-07-31T13:30:23.087Z</time>
      </trkpt>
      <trkpt lat="42.98983667" lon="-1.12969">
        <ele>875.0</ele>
        <time>2019-07-31T13:30:24.092Z</time>
      </trkpt>
      <trkpt lat="42.98983" lon="-1.129655">
        <ele>875.0</ele>
        <time>2019-07-31T13:30:25.099Z</time>
      </trkpt>
      <trkpt lat="42.98982" lon="-1.12962167">
        <ele>874.0</ele>
        <time>2019-07-31T13:30:26.104Z</time>
      </trkpt>
      <trkpt lat="42.98981333" lon="-1.1296">
        <ele>875.0</ele>
        <time>2019-07-31T13:30:27.110Z</time>
      </trkpt>
      <trkpt lat="42.98980833" lon="-1.12958">
        <ele>874.0</ele>
        <time>2019-07-31T13:30:28.117Z</time>
      </trkpt>
      <trkpt lat="42.989805" lon="-1.12955833">
        <ele>873.0</ele>
        <time>2019-07-31T13:30:29.123Z</time>
      </trkpt>
      <trkpt lat="42.98980167" lon="-1.12954167">
        <ele>872.0</ele>
        <time>2019-07-31T13:30:30.129Z</time>
      </trkpt>
      <trkpt lat="42.98979833" lon="-1.12951833">
        <ele>871.0</ele>
        <time>2019-07-31T13:30:31.132Z</time>
      </trkpt>
      <trkpt lat="42.98979667" lon="-1.129495">
        <ele>871.0</ele>
        <time>2019-07-31T13:30:32.138Z</time>
      </trkpt>
      <trkpt lat="42.98979333" lon="-1.12947667">
        <ele>872.0</ele>
        <time>2019-07-31T13:30:33.143Z</time>
      </trkpt>
      <trkpt lat="42.98979833" lon="-1.129455">
        <ele>873.0</ele>
        <time>2019-07-31T13:30:34.149Z</time>
      </trkpt>
      <trkpt lat="42.98979833" lon="-1.12943833">
        <ele>872.0</ele>
        <time>2019-07-31T13:30:35.153Z</time>
      </trkpt>
      <trkpt lat="42.98979667" lon="-1.12942333">
        <ele>872.0</ele>
        <time>2019-07-31T13:30:36.159Z</time>
      </trkpt>
      <trkpt lat="42.989795" lon="-1.12941">
        <ele>870.0</ele>
        <time>2019-07-31T13:30:37.163Z</time>
      </trkpt>
      <trkpt lat="42.98979167" lon="-1.12939667">
        <ele>870.0</ele>
        <time>2019-07-31T13:30:38.170Z</time>
      </trkpt>
      <trkpt lat="42.98978833" lon="-1.12938333">
        <ele>869.0</ele>
        <time>2019-07-31T13:30:39.174Z</time>
      </trkpt>
      <trkpt lat="42.98978667" lon="-1.12937">
        <ele>868.0</ele>
        <time>2019-07-31T13:30:40.179Z</time>
      </trkpt>
      <trkpt lat="42.98978" lon="-1.12935">
        <ele>867.0</ele>
        <time>2019-07-31T13:30:41.184Z</time>
      </trkpt>
      <trkpt lat="42.98977333" lon="-1.12933">
        <ele>866.0</ele>
        <time>2019-07-31T13:30:42.064Z</time>
      </trkpt>
      <trkpt lat="42.98976667" lon="-1.12931333">
        <ele>865.0</ele>
        <time>2019-07-31T13:30:43.069Z</time>
      </trkpt>
      <trkpt lat="42.98975833" lon="-1.129295">
        <ele>865.0</ele>
        <time>2019-07-31T13:30:44.077Z</time>
      </trkpt>
      <trkpt lat="42.98975167" lon="-1.12927667">
        <ele>864.0</ele>
        <time>2019-07-31T13:30:45.082Z</time>
      </trkpt>
      <trkpt lat="42.98974833" lon="-1.12925833">
        <ele>863.0</ele>
        <time>2019-07-31T13:30:46.087Z</time>
      </trkpt>
      <trkpt lat="42.989745" lon="-1.129245">
        <ele>863.0</ele>
        <time>2019-07-31T13:30:47.093Z</time>
      </trkpt>
      <trkpt lat="42.98974" lon="-1.12923333">
        <ele>862.0</ele>
        <time>2019-07-31T13:30:48.099Z</time>
      </trkpt>
      <trkpt lat="42.989735" lon="-1.12921667">
        <ele>862.0</ele>
        <time>2019-07-31T13:30:49.103Z</time>
      </trkpt>
      <trkpt lat="42.98973333" lon="-1.1292">
        <ele>862.0</ele>
        <time>2019-07-31T13:30:50.109Z</time>
      </trkpt>
      <trkpt lat="42.98973333" lon="-1.12918333">
        <ele>861.0</ele>
        <time>2019-07-31T13:30:51.116Z</time>
      </trkpt>
      <trkpt lat="42.98973167" lon="-1.12917">
        <ele>861.0</ele>
        <time>2019-07-31T13:30:52.122Z</time>
      </trkpt>
      <trkpt lat="42.98973167" lon="-1.12915333">
        <ele>862.0</ele>
        <time>2019-07-31T13:30:53.128Z</time>
      </trkpt>
      <trkpt lat="42.98972833" lon="-1.12914">
        <ele>863.0</ele>
        <time>2019-07-31T13:30:54.133Z</time>
      </trkpt>
      <trkpt lat="42.98972833" lon="-1.12912333">
        <ele>864.0</ele>
        <time>2019-07-31T13:30:55.138Z</time>
      </trkpt>
      <trkpt lat="42.98972" lon="-1.129105">
        <ele>866.0</ele>
        <time>2019-07-31T13:30:56.144Z</time>
      </trkpt>
      <trkpt lat="42.98971" lon="-1.12909">
        <ele>866.0</ele>
        <time>2019-07-31T13:30:57.149Z</time>
      </trkpt>
      <trkpt lat="42.98970167" lon="-1.12907333">
        <ele>867.0</ele>
        <time>2019-07-31T13:30:58.154Z</time>
      </trkpt>
      <trkpt lat="42.98969" lon="-1.129055">
        <ele>868.0</ele>
        <time>2019-07-31T13:30:59.158Z</time>
      </trkpt>
      <trkpt lat="42.98968167" lon="-1.12904167">
        <ele>868.0</ele>
        <time>2019-07-31T13:31:00.165Z</time>
      </trkpt>
      <trkpt lat="42.989675" lon="-1.12902667">
        <ele>869.0</ele>
        <time>2019-07-31T13:31:01.171Z</time>
      </trkpt>
      <trkpt lat="42.98966833" lon="-1.12901">
        <ele>869.0</ele>
        <time>2019-07-31T13:31:02.175Z</time>
      </trkpt>
      <trkpt lat="42.98966167" lon="-1.128995">
        <ele>870.0</ele>
        <time>2019-07-31T13:31:03.178Z</time>
      </trkpt>
      <trkpt lat="42.98965333" lon="-1.12898167">
        <ele>870.0</ele>
        <time>2019-07-31T13:31:04.179Z</time>
      </trkpt>
      <trkpt lat="42.989645" lon="-1.128965">
        <ele>871.0</ele>
        <time>2019-07-31T13:31:05.183Z</time>
      </trkpt>
      <trkpt lat="42.989635" lon="-1.12894833">
        <ele>872.0</ele>
        <time>2019-07-31T13:31:06.062Z</time>
      </trkpt>
      <trkpt lat="42.98962833" lon="-1.12893333">
        <ele>873.0</ele>
        <time>2019-07-31T13:31:07.068Z</time>
      </trkpt>
      <trkpt lat="42.98962667" lon="-1.12891167">
        <ele>873.0</ele>
        <time>2019-07-31T13:31:08.074Z</time>
      </trkpt>
      <trkpt lat="42.98962167" lon="-1.12889167">
        <ele>873.0</ele>
        <time>2019-07-31T13:31:09.076Z</time>
      </trkpt>
      <trkpt lat="42.98961667" lon="-1.12887167">
        <ele>873.0</ele>
        <time>2019-07-31T13:31:10.081Z</time>
      </trkpt>
      <trkpt lat="42.989615" lon="-1.12885333">
        <ele>872.0</ele>
        <time>2019-07-31T13:31:11.087Z</time>
      </trkpt>
      <trkpt lat="42.98961167" lon="-1.12883167">
        <ele>872.0</ele>
        <time>2019-07-31T13:31:12.091Z</time>
      </trkpt>
      <trkpt lat="42.989605" lon="-1.12881667">
        <ele>871.0</ele>
        <time>2019-07-31T13:31:13.097Z</time>
      </trkpt>
      <trkpt lat="42.98959833" lon="-1.1288">
        <ele>870.0</ele>
        <time>2019-07-31T13:31:14.104Z</time>
      </trkpt>
      <trkpt lat="42.98959" lon="-1.12878">
        <ele>869.0</ele>
        <time>2019-07-31T13:31:15.110Z</time>
      </trkpt>
      <trkpt lat="42.98957833" lon="-1.12876167">
        <ele>868.0</ele>
        <time>2019-07-31T13:31:16.116Z</time>
      </trkpt>
      <trkpt lat="42.98957" lon="-1.12874667">
        <ele>867.0</ele>
        <time>2019-07-31T13:31:17.120Z</time>
      </trkpt>
      <trkpt lat="42.98955667" lon="-1.12873">
        <ele>866.0</ele>
        <time>2019-07-31T13:31:18.127Z</time>
      </trkpt>
      <trkpt lat="42.98954167" lon="-1.12871333">
        <ele>865.0</ele>
        <time>2019-07-31T13:31:19.132Z</time>
      </trkpt>
      <trkpt lat="42.98952667" lon="-1.12869333">
        <ele>866.0</ele>
        <time>2019-07-31T13:31:20.137Z</time>
      </trkpt>
      <trkpt lat="42.98951333" lon="-1.12867">
        <ele>866.0</ele>
        <time>2019-07-31T13:31:21.144Z</time>
      </trkpt>
      <trkpt lat="42.98950167" lon="-1.12865">
        <ele>866.0</ele>
        <time>2019-07-31T13:31:22.151Z</time>
      </trkpt>
      <trkpt lat="42.98949167" lon="-1.12862833">
        <ele>866.0</ele>
        <time>2019-07-31T13:31:23.154Z</time>
      </trkpt>
      <trkpt lat="42.98948333" lon="-1.12860833">
        <ele>865.0</ele>
        <time>2019-07-31T13:31:24.158Z</time>
      </trkpt>
      <trkpt lat="42.98947333" lon="-1.128585">
        <ele>865.0</ele>
        <time>2019-07-31T13:31:25.163Z</time>
      </trkpt>
      <trkpt lat="42.98946167" lon="-1.128555">
        <ele>865.0</ele>
        <time>2019-07-31T13:31:26.167Z</time>
      </trkpt>
      <trkpt lat="42.98945333" lon="-1.12853">
        <ele>865.0</ele>
        <time>2019-07-31T13:31:27.171Z</time>
      </trkpt>
      <trkpt lat="42.98944667" lon="-1.128505">
        <ele>865.0</ele>
        <time>2019-07-31T13:31:28.176Z</time>
      </trkpt>
      <trkpt lat="42.98944" lon="-1.12848167">
        <ele>864.0</ele>
        <time>2019-07-31T13:31:29.182Z</time>
      </trkpt>
      <trkpt lat="42.98943667" lon="-1.12846333">
        <ele>863.0</ele>
        <time>2019-07-31T13:31:30.061Z</time>
      </trkpt>
      <trkpt lat="42.98942667" lon="-1.12845">
        <ele>862.0</ele>
        <time>2019-07-31T13:31:31.068Z</time>
      </trkpt>
      <trkpt lat="42.98941667" lon="-1.128435">
        <ele>861.0</ele>
        <time>2019-07-31T13:31:32.076Z</time>
      </trkpt>
      <trkpt lat="42.98941" lon="-1.12842333">
        <ele>861.0</ele>
        <time>2019-07-31T13:31:33.083Z</time>
      </trkpt>
      <trkpt lat="42.98940667" lon="-1.12840333">
        <ele>861.0</ele>
        <time>2019-07-31T13:31:34.086Z</time>
      </trkpt>
      <trkpt lat="42.98940333" lon="-1.12837667">
        <ele>862.0</ele>
        <time>2019-07-31T13:31:35.091Z</time>
      </trkpt>
      <trkpt lat="42.9894" lon="-1.12835333">
        <ele>862.0</ele>
        <time>2019-07-31T13:31:36.097Z</time>
      </trkpt>
      <trkpt lat="42.98939167" lon="-1.128335">
        <ele>863.0</ele>
        <time>2019-07-31T13:31:37.101Z</time>
      </trkpt>
      <trkpt lat="42.98938" lon="-1.12831167">
        <ele>864.0</ele>
        <time>2019-07-31T13:31:38.105Z</time>
      </trkpt>
      <trkpt lat="42.98937333" lon="-1.12828667">
        <ele>864.0</ele>
        <time>2019-07-31T13:31:39.111Z</time>
      </trkpt>
      <trkpt lat="42.98936333" lon="-1.12825667">
        <ele>865.0</ele>
        <time>2019-07-31T13:31:40.117Z</time>
      </trkpt>
      <trkpt lat="42.98935833" lon="-1.128235">
        <ele>865.0</ele>
        <time>2019-07-31T13:31:41.123Z</time>
      </trkpt>
      <trkpt lat="42.98935333" lon="-1.12820833">
        <ele>865.0</ele>
        <time>2019-07-31T13:31:42.131Z</time>
      </trkpt>
      <trkpt lat="42.98936" lon="-1.12819">
        <ele>866.0</ele>
        <time>2019-07-31T13:31:43.136Z</time>
      </trkpt>
      <trkpt lat="42.98936" lon="-1.128175">
        <ele>867.0</ele>
        <time>2019-07-31T13:31:44.140Z</time>
      </trkpt>
      <trkpt lat="42.98936" lon="-1.12816167">
        <ele>867.0</ele>
        <time>2019-07-31T13:31:45.146Z</time>
      </trkpt>
      <trkpt lat="42.98935" lon="-1.12814167">
        <ele>868.0</ele>
        <time>2019-07-31T13:31:46.152Z</time>
      </trkpt>
      <trkpt lat="42.98933667" lon="-1.12811667">
        <ele>868.0</ele>
        <time>2019-07-31T13:31:47.156Z</time>
      </trkpt>
      <trkpt lat="42.98933" lon="-1.12809833">
        <ele>867.0</ele>
        <time>2019-07-31T13:31:48.160Z</time>
      </trkpt>
      <trkpt lat="42.98932167" lon="-1.12807667">
        <ele>867.0</ele>
        <time>2019-07-31T13:31:49.165Z</time>
      </trkpt>
      <trkpt lat="42.98930833" lon="-1.12804333">
        <ele>868.0</ele>
        <time>2019-07-31T13:31:50.168Z</time>
      </trkpt>
      <trkpt lat="42.98930333" lon="-1.12802167">
        <ele>868.0</ele>
        <time>2019-07-31T13:31:51.174Z</time>
      </trkpt>
      <trkpt lat="42.989295" lon="-1.12800667">
        <ele>866.0</ele>
        <time>2019-07-31T13:31:52.178Z</time>
      </trkpt>
      <trkpt lat="42.98928833" lon="-1.12799333">
        <ele>865.0</ele>
        <time>2019-07-31T13:31:53.182Z</time>
      </trkpt>
      <trkpt lat="42.98928167" lon="-1.12798167">
        <ele>865.0</ele>
        <time>2019-07-31T13:31:54.185Z</time>
      </trkpt>
      <trkpt lat="42.989275" lon="-1.12796333">
        <ele>864.0</ele>
        <time>2019-07-31T13:31:55.064Z</time>
      </trkpt>
      <trkpt lat="42.989265" lon="-1.12794833">
        <ele>864.0</ele>
        <time>2019-07-31T13:31:56.070Z</time>
      </trkpt>
      <trkpt lat="42.98925833" lon="-1.127935">
        <ele>863.0</ele>
        <time>2019-07-31T13:31:57.075Z</time>
      </trkpt>
      <trkpt lat="42.98925" lon="-1.12791833">
        <ele>863.0</ele>
        <time>2019-07-31T13:31:58.081Z</time>
      </trkpt>
      <trkpt lat="42.98924333" lon="-1.12790333">
        <ele>863.0</ele>
        <time>2019-07-31T13:31:59.088Z</time>
      </trkpt>
      <trkpt lat="42.98923667" lon="-1.12789">
        <ele>863.0</ele>
        <time>2019-07-31T13:32:00.090Z</time>
      </trkpt>
      <trkpt lat="42.98923" lon="-1.127875">
        <ele>863.0</ele>
        <time>2019-07-31T13:32:01.096Z</time>
      </trkpt>
      <trkpt lat="42.98922333" lon="-1.12785667">
        <ele>864.0</ele>
        <time>2019-07-31T13:32:02.101Z</time>
      </trkpt>
      <trkpt lat="42.98922167" lon="-1.12783667">
        <ele>865.0</ele>
        <time>2019-07-31T13:32:03.107Z</time>
      </trkpt>
      <trkpt lat="42.98921833" lon="-1.127815">
        <ele>866.0</ele>
        <time>2019-07-31T13:32:04.113Z</time>
      </trkpt>
      <trkpt lat="42.989215" lon="-1.12779333">
        <ele>867.0</ele>
        <time>2019-07-31T13:32:05.117Z</time>
      </trkpt>
      <trkpt lat="42.98921167" lon="-1.12777333">
        <ele>867.0</ele>
        <time>2019-07-31T13:32:06.124Z</time>
      </trkpt>
      <trkpt lat="42.98920833" lon="-1.12775167">
        <ele>867.0</ele>
        <time>2019-07-31T13:32:07.128Z</time>
      </trkpt>
      <trkpt lat="42.98920667" lon="-1.12773">
        <ele>866.0</ele>
        <time>2019-07-31T13:32:08.132Z</time>
      </trkpt>
      <trkpt lat="42.98920167" lon="-1.12771">
        <ele>866.0</ele>
        <time>2019-07-31T13:32:09.137Z</time>
      </trkpt>
      <trkpt lat="42.98919667" lon="-1.12769333">
        <ele>865.0</ele>
        <time>2019-07-31T13:32:10.142Z</time>
      </trkpt>
      <trkpt lat="42.98919333" lon="-1.12767667">
        <ele>865.0</ele>
        <time>2019-07-31T13:32:11.149Z</time>
      </trkpt>
      <trkpt lat="42.98919" lon="-1.12765833">
        <ele>866.0</ele>
        <time>2019-07-31T13:32:12.154Z</time>
      </trkpt>
      <trkpt lat="42.98919167" lon="-1.12764333">
        <ele>865.0</ele>
        <time>2019-07-31T13:32:13.161Z</time>
      </trkpt>
      <trkpt lat="42.98919667" lon="-1.12762667">
        <ele>864.0</ele>
        <time>2019-07-31T13:32:14.168Z</time>
      </trkpt>
      <trkpt lat="42.98919667" lon="-1.127605">
        <ele>864.0</ele>
        <time>2019-07-31T13:32:15.173Z</time>
      </trkpt>
      <trkpt lat="42.989195" lon="-1.12758">
        <ele>864.0</ele>
        <time>2019-07-31T13:32:16.177Z</time>
      </trkpt>
      <trkpt lat="42.989185" lon="-1.12755333">
        <ele>864.0</ele>
        <time>2019-07-31T13:32:17.182Z</time>
      </trkpt>
      <trkpt lat="42.98917667" lon="-1.12752833">
        <ele>863.0</ele>
        <time>2019-07-31T13:32:18.061Z</time>
      </trkpt>
      <trkpt lat="42.98917" lon="-1.127505">
        <ele>862.0</ele>
        <time>2019-07-31T13:32:19.066Z</time>
      </trkpt>
      <trkpt lat="42.98915833" lon="-1.12747833">
        <ele>862.0</ele>
        <time>2019-07-31T13:32:20.072Z</time>
      </trkpt>
      <trkpt lat="42.98915" lon="-1.127455">
        <ele>861.0</ele>
        <time>2019-07-31T13:32:21.078Z</time>
      </trkpt>
      <trkpt lat="42.98915333" lon="-1.127435">
        <ele>860.0</ele>
        <time>2019-07-31T13:32:22.084Z</time>
      </trkpt>
      <trkpt lat="42.98916333" lon="-1.127415">
        <ele>860.0</ele>
        <time>2019-07-31T13:32:23.091Z</time>
      </trkpt>
      <trkpt lat="42.98916667" lon="-1.12739167">
        <ele>859.0</ele>
        <time>2019-07-31T13:32:24.097Z</time>
      </trkpt>
      <trkpt lat="42.989165" lon="-1.127365">
        <ele>859.0</ele>
        <time>2019-07-31T13:32:25.104Z</time>
      </trkpt>
      <trkpt lat="42.98916" lon="-1.12734">
        <ele>859.0</ele>
        <time>2019-07-31T13:32:26.110Z</time>
      </trkpt>
      <trkpt lat="42.989165" lon="-1.12731833">
        <ele>861.0</ele>
        <time>2019-07-31T13:32:27.116Z</time>
      </trkpt>
      <trkpt lat="42.98917167" lon="-1.12730167">
        <ele>861.0</ele>
        <time>2019-07-31T13:32:28.121Z</time>
      </trkpt>
      <trkpt lat="42.989175" lon="-1.12728167">
        <ele>861.0</ele>
        <time>2019-07-31T13:32:29.125Z</time>
      </trkpt>
      <trkpt lat="42.98917" lon="-1.12726167">
        <ele>860.0</ele>
        <time>2019-07-31T13:32:30.130Z</time>
      </trkpt>
      <trkpt lat="42.98916333" lon="-1.12724">
        <ele>859.0</ele>
        <time>2019-07-31T13:32:31.132Z</time>
      </trkpt>
      <trkpt lat="42.98916667" lon="-1.12721667">
        <ele>858.0</ele>
        <time>2019-07-31T13:32:32.136Z</time>
      </trkpt>
      <trkpt lat="42.98916167" lon="-1.12719667">
        <ele>857.0</ele>
        <time>2019-07-31T13:32:33.143Z</time>
      </trkpt>
      <trkpt lat="42.98915167" lon="-1.12717667">
        <ele>857.0</ele>
        <time>2019-07-31T13:32:34.146Z</time>
      </trkpt>
      <trkpt lat="42.98915167" lon="-1.127155">
        <ele>857.0</ele>
        <time>2019-07-31T13:32:35.148Z</time>
      </trkpt>
      <trkpt lat="42.98915167" lon="-1.12713333">
        <ele>857.0</ele>
        <time>2019-07-31T13:32:36.154Z</time>
      </trkpt>
      <trkpt lat="42.989155" lon="-1.12711167">
        <ele>857.0</ele>
        <time>2019-07-31T13:32:37.158Z</time>
      </trkpt>
      <trkpt lat="42.98915667" lon="-1.127095">
        <ele>857.0</ele>
        <time>2019-07-31T13:32:38.164Z</time>
      </trkpt>
      <trkpt lat="42.98915833" lon="-1.127075">
        <ele>857.0</ele>
        <time>2019-07-31T13:32:39.170Z</time>
      </trkpt>
      <trkpt lat="42.98915833" lon="-1.12705167">
        <ele>857.0</ele>
        <time>2019-07-31T13:32:40.174Z</time>
      </trkpt>
      <trkpt lat="42.98915667" lon="-1.127035">
        <ele>857.0</ele>
        <time>2019-07-31T13:32:41.179Z</time>
      </trkpt>
      <trkpt lat="42.98915667" lon="-1.127015">
        <ele>857.0</ele>
        <time>2019-07-31T13:32:42.186Z</time>
      </trkpt>
      <trkpt lat="42.98915667" lon="-1.12699333">
        <ele>858.0</ele>
        <time>2019-07-31T13:32:43.066Z</time>
      </trkpt>
      <trkpt lat="42.98915" lon="-1.12697333">
        <ele>858.0</ele>
        <time>2019-07-31T13:32:44.072Z</time>
      </trkpt>
      <trkpt lat="42.98914333" lon="-1.12694667">
        <ele>858.0</ele>
        <time>2019-07-31T13:32:45.079Z</time>
      </trkpt>
      <trkpt lat="42.98913833" lon="-1.126925">
        <ele>858.0</ele>
        <time>2019-07-31T13:32:46.086Z</time>
      </trkpt>
      <trkpt lat="42.98912667" lon="-1.126905">
        <ele>858.0</ele>
        <time>2019-07-31T13:32:47.090Z</time>
      </trkpt>
      <trkpt lat="42.98911833" lon="-1.126885">
        <ele>858.0</ele>
        <time>2019-07-31T13:32:48.094Z</time>
      </trkpt>
      <trkpt lat="42.98910333" lon="-1.12685833">
        <ele>858.0</ele>
        <time>2019-07-31T13:32:49.100Z</time>
      </trkpt>
      <trkpt lat="42.98909833" lon="-1.12684">
        <ele>858.0</ele>
        <time>2019-07-31T13:32:50.106Z</time>
      </trkpt>
      <trkpt lat="42.98908833" lon="-1.12682833">
        <ele>858.0</ele>
        <time>2019-07-31T13:32:51.111Z</time>
      </trkpt>
      <trkpt lat="42.989075" lon="-1.12681">
        <ele>858.0</ele>
        <time>2019-07-31T13:32:52.117Z</time>
      </trkpt>
      <trkpt lat="42.98905667" lon="-1.12679667">
        <ele>858.0</ele>
        <time>2019-07-31T13:32:53.123Z</time>
      </trkpt>
      <trkpt lat="42.989035" lon="-1.12678333">
        <ele>858.0</ele>
        <time>2019-07-31T13:32:54.128Z</time>
      </trkpt>
      <trkpt lat="42.98900833" lon="-1.12677">
        <ele>858.0</ele>
        <time>2019-07-31T13:32:55.132Z</time>
      </trkpt>
      <trkpt lat="42.988985" lon="-1.12675667">
        <ele>859.0</ele>
        <time>2019-07-31T13:32:56.137Z</time>
      </trkpt>
      <trkpt lat="42.98896167" lon="-1.12674833">
        <ele>860.0</ele>
        <time>2019-07-31T13:32:57.142Z</time>
      </trkpt>
      <trkpt lat="42.98893667" lon="-1.12674333">
        <ele>860.0</ele>
        <time>2019-07-31T13:32:58.147Z</time>
      </trkpt>
      <trkpt lat="42.988915" lon="-1.126745">
        <ele>860.0</ele>
        <time>2019-07-31T13:32:59.152Z</time>
      </trkpt>
      <trkpt lat="42.988895" lon="-1.12674333">
        <ele>859.0</ele>
        <time>2019-07-31T13:33:00.157Z</time>
      </trkpt>
      <trkpt lat="42.98888" lon="-1.12674167">
        <ele>858.0</ele>
        <time>2019-07-31T13:33:01.162Z</time>
      </trkpt>
      <trkpt lat="42.98886167" lon="-1.12674833">
        <ele>858.0</ele>
        <time>2019-07-31T13:33:02.166Z</time>
      </trkpt>
      <trkpt lat="42.988845" lon="-1.12675667">
        <ele>858.0</ele>
        <time>2019-07-31T13:33:03.173Z</time>
      </trkpt>
      <trkpt lat="42.98882667" lon="-1.126755">
        <ele>859.0</ele>
        <time>2019-07-31T13:33:04.177Z</time>
      </trkpt>
      <trkpt lat="42.98881167" lon="-1.12676">
        <ele>860.0</ele>
        <time>2019-07-31T13:33:05.182Z</time>
      </trkpt>
      <trkpt lat="42.988795" lon="-1.12676">
        <ele>861.0</ele>
        <time>2019-07-31T13:33:06.063Z</time>
      </trkpt>
      <trkpt lat="42.98877667" lon="-1.12676167">
        <ele>863.0</ele>
        <time>2019-07-31T13:33:07.069Z</time>
      </trkpt>
      <trkpt lat="42.98875833" lon="-1.12675667">
        <ele>864.0</ele>
        <time>2019-07-31T13:33:08.073Z</time>
      </trkpt>
      <trkpt lat="42.98874" lon="-1.12675333">
        <ele>864.0</ele>
        <time>2019-07-31T13:33:09.079Z</time>
      </trkpt>
      <trkpt lat="42.98871333" lon="-1.126755">
        <ele>865.0</ele>
        <time>2019-07-31T13:33:10.085Z</time>
      </trkpt>
      <trkpt lat="42.988695" lon="-1.12675">
        <ele>867.0</ele>
        <time>2019-07-31T13:33:11.090Z</time>
      </trkpt>
      <trkpt lat="42.98868" lon="-1.12675667">
        <ele>868.0</ele>
        <time>2019-07-31T13:33:12.095Z</time>
      </trkpt>
      <trkpt lat="42.98865833" lon="-1.12676667">
        <ele>868.0</ele>
        <time>2019-07-31T13:33:13.099Z</time>
      </trkpt>
      <trkpt lat="42.988645" lon="-1.126765">
        <ele>868.0</ele>
        <time>2019-07-31T13:33:14.106Z</time>
      </trkpt>
      <trkpt lat="42.988625" lon="-1.12676167">
        <ele>869.0</ele>
        <time>2019-07-31T13:33:15.112Z</time>
      </trkpt>
      <trkpt lat="42.98860167" lon="-1.12676667">
        <ele>869.0</ele>
        <time>2019-07-31T13:33:16.118Z</time>
      </trkpt>
      <trkpt lat="42.98859" lon="-1.12677167">
        <ele>868.0</ele>
        <time>2019-07-31T13:33:17.123Z</time>
      </trkpt>
      <trkpt lat="42.98857" lon="-1.12678">
        <ele>868.0</ele>
        <time>2019-07-31T13:33:18.129Z</time>
      </trkpt>
      <trkpt lat="42.98854667" lon="-1.12679">
        <ele>868.0</ele>
        <time>2019-07-31T13:33:19.135Z</time>
      </trkpt>
      <trkpt lat="42.988525" lon="-1.12679833">
        <ele>867.0</ele>
        <time>2019-07-31T13:33:20.139Z</time>
      </trkpt>
      <trkpt lat="42.98850833" lon="-1.1268">
        <ele>867.0</ele>
        <time>2019-07-31T13:33:21.146Z</time>
      </trkpt>
      <trkpt lat="42.98848333" lon="-1.12679833">
        <ele>868.0</ele>
        <time>2019-07-31T13:33:22.150Z</time>
      </trkpt>
      <trkpt lat="42.98846667" lon="-1.12679333">
        <ele>869.0</ele>
        <time>2019-07-31T13:33:23.154Z</time>
      </trkpt>
      <trkpt lat="42.98845333" lon="-1.12679167">
        <ele>870.0</ele>
        <time>2019-07-31T13:33:24.160Z</time>
      </trkpt>
      <trkpt lat="42.98844333" lon="-1.12679">
        <ele>870.0</ele>
        <time>2019-07-31T13:33:25.166Z</time>
      </trkpt>
      <trkpt lat="42.988425" lon="-1.126785">
        <ele>871.0</ele>
        <time>2019-07-31T13:33:26.172Z</time>
      </trkpt>
      <trkpt lat="42.988405" lon="-1.12677833">
        <ele>872.0</ele>
        <time>2019-07-31T13:33:27.175Z</time>
      </trkpt>
      <trkpt lat="42.98838667" lon="-1.12677333">
        <ele>873.0</ele>
        <time>2019-07-31T13:33:28.180Z</time>
      </trkpt>
      <trkpt lat="42.98837" lon="-1.12677">
        <ele>873.0</ele>
        <time>2019-07-31T13:33:29.185Z</time>
      </trkpt>
      <trkpt lat="42.98836" lon="-1.12677167">
        <ele>873.0</ele>
        <time>2019-07-31T13:33:30.064Z</time>
      </trkpt>
      <trkpt lat="42.98834833" lon="-1.12676667">
        <ele>875.0</ele>
        <time>2019-07-31T13:33:31.070Z</time>
      </trkpt>
      <trkpt lat="42.98833167" lon="-1.12676333">
        <ele>875.0</ele>
        <time>2019-07-31T13:33:32.076Z</time>
      </trkpt>
      <trkpt lat="42.98831667" lon="-1.12676667">
        <ele>874.0</ele>
        <time>2019-07-31T13:33:33.079Z</time>
      </trkpt>
      <trkpt lat="42.98830333" lon="-1.12676167">
        <ele>874.0</ele>
        <time>2019-07-31T13:33:34.083Z</time>
      </trkpt>
      <trkpt lat="42.98829167" lon="-1.12675833">
        <ele>873.0</ele>
        <time>2019-07-31T13:33:35.088Z</time>
      </trkpt>
      <trkpt lat="42.98827833" lon="-1.12675167">
        <ele>873.0</ele>
        <time>2019-07-31T13:33:36.092Z</time>
      </trkpt>
      <trkpt lat="42.98826667" lon="-1.12674833">
        <ele>873.0</ele>
        <time>2019-07-31T13:33:37.097Z</time>
      </trkpt>
      <trkpt lat="42.988255" lon="-1.12674">
        <ele>872.0</ele>
        <time>2019-07-31T13:33:38.104Z</time>
      </trkpt>
      <trkpt lat="42.98824667" lon="-1.12673167">
        <ele>872.0</ele>
        <time>2019-07-31T13:33:39.110Z</time>
      </trkpt>
      <trkpt lat="42.98824" lon="-1.12672333">
        <ele>872.0</ele>
        <time>2019-07-31T13:33:40.114Z</time>
      </trkpt>
      <trkpt lat="42.98822833" lon="-1.12670667">
        <ele>872.0</ele>
        <time>2019-07-31T13:33:41.121Z</time>
      </trkpt>
      <trkpt lat="42.98822167" lon="-1.12669333">
        <ele>872.0</ele>
        <time>2019-07-31T13:33:42.126Z</time>
      </trkpt>
      <trkpt lat="42.988215" lon="-1.12668167">
        <ele>872.0</ele>
        <time>2019-07-31T13:33:43.129Z</time>
      </trkpt>
      <trkpt lat="42.98820833" lon="-1.12667333">
        <ele>872.0</ele>
        <time>2019-07-31T13:33:44.134Z</time>
      </trkpt>
      <trkpt lat="42.98820333" lon="-1.12666">
        <ele>872.0</ele>
        <time>2019-07-31T13:33:45.139Z</time>
      </trkpt>
      <trkpt lat="42.988195" lon="-1.12664167">
        <ele>871.0</ele>
        <time>2019-07-31T13:33:46.144Z</time>
      </trkpt>
      <trkpt lat="42.98819" lon="-1.12662667">
        <ele>871.0</ele>
        <time>2019-07-31T13:33:47.150Z</time>
      </trkpt>
      <trkpt lat="42.98818833" lon="-1.12661833">
        <ele>871.0</ele>
        <time>2019-07-31T13:33:48.154Z</time>
      </trkpt>
      <trkpt lat="42.98818833" lon="-1.126605">
        <ele>871.0</ele>
        <time>2019-07-31T13:33:49.160Z</time>
      </trkpt>
      <trkpt lat="42.98818667" lon="-1.12658833">
        <ele>870.0</ele>
        <time>2019-07-31T13:33:50.164Z</time>
      </trkpt>
      <trkpt lat="42.98818333" lon="-1.12657167">
        <ele>869.0</ele>
        <time>2019-07-31T13:33:51.171Z</time>
      </trkpt>
      <trkpt lat="42.98818167" lon="-1.12656167">
        <ele>869.0</ele>
        <time>2019-07-31T13:33:52.175Z</time>
      </trkpt>
      <trkpt lat="42.98818167" lon="-1.12654833">
        <ele>868.0</ele>
        <time>2019-07-31T13:33:53.182Z</time>
      </trkpt>
      <trkpt lat="42.98818167" lon="-1.12653167">
        <ele>868.0</ele>
        <time>2019-07-31T13:33:54.063Z</time>
      </trkpt>
      <trkpt lat="42.98817667" lon="-1.12651667">
        <ele>867.0</ele>
        <time>2019-07-31T13:33:55.069Z</time>
      </trkpt>
      <trkpt lat="42.98817167" lon="-1.12650167">
        <ele>866.0</ele>
        <time>2019-07-31T13:33:56.076Z</time>
      </trkpt>
      <trkpt lat="42.98816333" lon="-1.12648167">
        <ele>866.0</ele>
        <time>2019-07-31T13:33:57.084Z</time>
      </trkpt>
      <trkpt lat="42.98815333" lon="-1.12646833">
        <ele>865.0</ele>
        <time>2019-07-31T13:33:58.090Z</time>
      </trkpt>
      <trkpt lat="42.98813833" lon="-1.12645833">
        <ele>864.0</ele>
        <time>2019-07-31T13:33:59.095Z</time>
      </trkpt>
      <trkpt lat="42.98812167" lon="-1.12644833">
        <ele>864.0</ele>
        <time>2019-07-31T13:34:00.101Z</time>
      </trkpt>
      <trkpt lat="42.98811" lon="-1.126435">
        <ele>864.0</ele>
        <time>2019-07-31T13:34:01.107Z</time>
      </trkpt>
      <trkpt lat="42.98809667" lon="-1.12642667">
        <ele>863.0</ele>
        <time>2019-07-31T13:34:02.113Z</time>
      </trkpt>
      <trkpt lat="42.988085" lon="-1.12642">
        <ele>862.0</ele>
        <time>2019-07-31T13:34:03.120Z</time>
      </trkpt>
      <trkpt lat="42.98807167" lon="-1.12641833">
        <ele>862.0</ele>
        <time>2019-07-31T13:34:04.126Z</time>
      </trkpt>
      <trkpt lat="42.98805667" lon="-1.12641833">
        <ele>862.0</ele>
        <time>2019-07-31T13:34:05.131Z</time>
      </trkpt>
      <trkpt lat="42.98804167" lon="-1.12641667">
        <ele>861.0</ele>
        <time>2019-07-31T13:34:06.134Z</time>
      </trkpt>
      <trkpt lat="42.98803" lon="-1.12642333">
        <ele>861.0</ele>
        <time>2019-07-31T13:34:07.139Z</time>
      </trkpt>
      <trkpt lat="42.98801833" lon="-1.12642667">
        <ele>861.0</ele>
        <time>2019-07-31T13:34:08.144Z</time>
      </trkpt>
      <trkpt lat="42.98800333" lon="-1.12643">
        <ele>861.0</ele>
        <time>2019-07-31T13:34:09.150Z</time>
      </trkpt>
      <trkpt lat="42.98798833" lon="-1.12643167">
        <ele>861.0</ele>
        <time>2019-07-31T13:34:10.155Z</time>
      </trkpt>
      <trkpt lat="42.98797333" lon="-1.12643333">
        <ele>862.0</ele>
        <time>2019-07-31T13:34:11.159Z</time>
      </trkpt>
      <trkpt lat="42.98795833" lon="-1.12643333">
        <ele>862.0</ele>
        <time>2019-07-31T13:34:12.165Z</time>
      </trkpt>
      <trkpt lat="42.98794333" lon="-1.12643667">
        <ele>862.0</ele>
        <time>2019-07-31T13:34:13.170Z</time>
      </trkpt>
      <trkpt lat="42.98792833" lon="-1.12644333">
        <ele>862.0</ele>
        <time>2019-07-31T13:34:14.174Z</time>
      </trkpt>
      <trkpt lat="42.987915" lon="-1.12645167">
        <ele>863.0</ele>
        <time>2019-07-31T13:34:15.179Z</time>
      </trkpt>
      <trkpt lat="42.98790167" lon="-1.12646167">
        <ele>863.0</ele>
        <time>2019-07-31T13:34:16.185Z</time>
      </trkpt>
      <trkpt lat="42.98788833" lon="-1.12647333">
        <ele>863.0</ele>
        <time>2019-07-31T13:34:17.064Z</time>
      </trkpt>
      <trkpt lat="42.98787333" lon="-1.12648">
        <ele>863.0</ele>
        <time>2019-07-31T13:34:18.069Z</time>
      </trkpt>
      <trkpt lat="42.98786" lon="-1.12648833">
        <ele>863.0</ele>
        <time>2019-07-31T13:34:19.074Z</time>
      </trkpt>
      <trkpt lat="42.98784667" lon="-1.12649833">
        <ele>862.0</ele>
        <time>2019-07-31T13:34:20.080Z</time>
      </trkpt>
      <trkpt lat="42.98783167" lon="-1.12651333">
        <ele>862.0</ele>
        <time>2019-07-31T13:34:21.085Z</time>
      </trkpt>
      <trkpt lat="42.98781667" lon="-1.12652667">
        <ele>862.0</ele>
        <time>2019-07-31T13:34:22.090Z</time>
      </trkpt>
      <trkpt lat="42.9878" lon="-1.12654167">
        <ele>861.0</ele>
        <time>2019-07-31T13:34:23.095Z</time>
      </trkpt>
      <trkpt lat="42.98778167" lon="-1.12655333">
        <ele>861.0</ele>
        <time>2019-07-31T13:34:24.100Z</time>
      </trkpt>
      <trkpt lat="42.98776333" lon="-1.12656167">
        <ele>861.0</ele>
        <time>2019-07-31T13:34:25.104Z</time>
      </trkpt>
      <trkpt lat="42.98775167" lon="-1.12657167">
        <ele>861.0</ele>
        <time>2019-07-31T13:34:26.111Z</time>
      </trkpt>
      <trkpt lat="42.98774" lon="-1.12658333">
        <ele>861.0</ele>
        <time>2019-07-31T13:34:27.116Z</time>
      </trkpt>
      <trkpt lat="42.98772667" lon="-1.126595">
        <ele>861.0</ele>
        <time>2019-07-31T13:34:28.119Z</time>
      </trkpt>
      <trkpt lat="42.987715" lon="-1.126605">
        <ele>862.0</ele>
        <time>2019-07-31T13:34:29.125Z</time>
      </trkpt>
      <trkpt lat="42.98770167" lon="-1.12661667">
        <ele>862.0</ele>
        <time>2019-07-31T13:34:30.131Z</time>
      </trkpt>
      <trkpt lat="42.98769167" lon="-1.12662833">
        <ele>862.0</ele>
        <time>2019-07-31T13:34:31.136Z</time>
      </trkpt>
      <trkpt lat="42.98768" lon="-1.12664167">
        <ele>863.0</ele>
        <time>2019-07-31T13:34:32.141Z</time>
      </trkpt>
      <trkpt lat="42.98766167" lon="-1.12665667">
        <ele>863.0</ele>
        <time>2019-07-31T13:34:33.147Z</time>
      </trkpt>
      <trkpt lat="42.987645" lon="-1.12667333">
        <ele>863.0</ele>
        <time>2019-07-31T13:34:34.152Z</time>
      </trkpt>
      <trkpt lat="42.98762833" lon="-1.12669">
        <ele>863.0</ele>
        <time>2019-07-31T13:34:35.155Z</time>
      </trkpt>
      <trkpt lat="42.98761667" lon="-1.126705">
        <ele>862.0</ele>
        <time>2019-07-31T13:34:36.161Z</time>
      </trkpt>
      <trkpt lat="42.987605" lon="-1.126715">
        <ele>862.0</ele>
        <time>2019-07-31T13:34:37.166Z</time>
      </trkpt>
      <trkpt lat="42.98759167" lon="-1.12672333">
        <ele>862.0</ele>
        <time>2019-07-31T13:34:38.169Z</time>
      </trkpt>
      <trkpt lat="42.98758167" lon="-1.12673167">
        <ele>862.0</ele>
        <time>2019-07-31T13:34:39.171Z</time>
      </trkpt>
      <trkpt lat="42.98756667" lon="-1.126735">
        <ele>862.0</ele>
        <time>2019-07-31T13:34:40.175Z</time>
      </trkpt>
      <trkpt lat="42.98755" lon="-1.126735">
        <ele>863.0</ele>
        <time>2019-07-31T13:34:41.178Z</time>
      </trkpt>
      <trkpt lat="42.98753667" lon="-1.12673">
        <ele>864.0</ele>
        <time>2019-07-31T13:34:42.184Z</time>
      </trkpt>
      <trkpt lat="42.98752167" lon="-1.12673">
        <ele>864.0</ele>
        <time>2019-07-31T13:34:43.062Z</time>
      </trkpt>
      <trkpt lat="42.98751" lon="-1.12673333">
        <ele>863.0</ele>
        <time>2019-07-31T13:34:44.065Z</time>
      </trkpt>
      <trkpt lat="42.98749667" lon="-1.12673">
        <ele>863.0</ele>
        <time>2019-07-31T13:34:45.070Z</time>
      </trkpt>
      <trkpt lat="42.987485" lon="-1.12672667">
        <ele>864.0</ele>
        <time>2019-07-31T13:34:46.076Z</time>
      </trkpt>
      <trkpt lat="42.98747333" lon="-1.12672">
        <ele>864.0</ele>
        <time>2019-07-31T13:34:47.082Z</time>
      </trkpt>
      <trkpt lat="42.98746333" lon="-1.12671333">
        <ele>864.0</ele>
        <time>2019-07-31T13:34:48.089Z</time>
      </trkpt>
      <trkpt lat="42.98745333" lon="-1.12670333">
        <ele>864.0</ele>
        <time>2019-07-31T13:34:49.094Z</time>
      </trkpt>
      <trkpt lat="42.987445" lon="-1.12669167">
        <ele>864.0</ele>
        <time>2019-07-31T13:34:50.100Z</time>
      </trkpt>
      <trkpt lat="42.98743333" lon="-1.12668">
        <ele>864.0</ele>
        <time>2019-07-31T13:34:51.106Z</time>
      </trkpt>
      <trkpt lat="42.98742333" lon="-1.12667">
        <ele>864.0</ele>
        <time>2019-07-31T13:34:52.113Z</time>
      </trkpt>
      <trkpt lat="42.98741167" lon="-1.12665667">
        <ele>864.0</ele>
        <time>2019-07-31T13:34:53.115Z</time>
      </trkpt>
      <trkpt lat="42.9874" lon="-1.126645">
        <ele>864.0</ele>
        <time>2019-07-31T13:34:54.118Z</time>
      </trkpt>
      <trkpt lat="42.98739" lon="-1.12663333">
        <ele>864.0</ele>
        <time>2019-07-31T13:34:55.123Z</time>
      </trkpt>
      <trkpt lat="42.98737667" lon="-1.12662167">
        <ele>864.0</ele>
        <time>2019-07-31T13:34:56.125Z</time>
      </trkpt>
      <trkpt lat="42.987365" lon="-1.12661">
        <ele>864.0</ele>
        <time>2019-07-31T13:34:57.127Z</time>
      </trkpt>
      <trkpt lat="42.98735667" lon="-1.12659667">
        <ele>864.0</ele>
        <time>2019-07-31T13:34:58.130Z</time>
      </trkpt>
      <trkpt lat="42.98735" lon="-1.12658667">
        <ele>864.0</ele>
        <time>2019-07-31T13:34:59.131Z</time>
      </trkpt>
      <trkpt lat="42.98734" lon="-1.12657667">
        <ele>864.0</ele>
        <time>2019-07-31T13:35:00.133Z</time>
      </trkpt>
      <trkpt lat="42.98732833" lon="-1.12656667">
        <ele>864.0</ele>
        <time>2019-07-31T13:35:01.141Z</time>
      </trkpt>
      <trkpt lat="42.98731833" lon="-1.12655667">
        <ele>863.0</ele>
        <time>2019-07-31T13:35:02.147Z</time>
      </trkpt>
      <trkpt lat="42.987305" lon="-1.126545">
        <ele>863.0</ele>
        <time>2019-07-31T13:35:03.154Z</time>
      </trkpt>
      <trkpt lat="42.98729167" lon="-1.12653333">
        <ele>862.0</ele>
        <time>2019-07-31T13:35:04.161Z</time>
      </trkpt>
      <trkpt lat="42.98727833" lon="-1.12652333">
        <ele>862.0</ele>
        <time>2019-07-31T13:35:05.166Z</time>
      </trkpt>
      <trkpt lat="42.98727" lon="-1.12651333">
        <ele>862.0</ele>
        <time>2019-07-31T13:35:06.171Z</time>
      </trkpt>
      <trkpt lat="42.98725833" lon="-1.12650333">
        <ele>862.0</ele>
        <time>2019-07-31T13:35:07.176Z</time>
      </trkpt>
      <trkpt lat="42.98725" lon="-1.12649167">
        <ele>861.0</ele>
        <time>2019-07-31T13:35:08.180Z</time>
      </trkpt>
      <trkpt lat="42.98724" lon="-1.12648167">
        <ele>860.0</ele>
        <time>2019-07-31T13:35:09.184Z</time>
      </trkpt>
      <trkpt lat="42.98723" lon="-1.12647333">
        <ele>860.0</ele>
        <time>2019-07-31T13:35:10.064Z</time>
      </trkpt>
      <trkpt lat="42.98722167" lon="-1.126465">
        <ele>859.0</ele>
        <time>2019-07-31T13:35:11.071Z</time>
      </trkpt>
      <trkpt lat="42.98720833" lon="-1.126455">
        <ele>859.0</ele>
        <time>2019-07-31T13:35:12.077Z</time>
      </trkpt>
      <trkpt lat="42.98719667" lon="-1.12644667">
        <ele>858.0</ele>
        <time>2019-07-31T13:35:13.086Z</time>
      </trkpt>
      <trkpt lat="42.98718667" lon="-1.12644">
        <ele>858.0</ele>
        <time>2019-07-31T13:35:14.091Z</time>
      </trkpt>
      <trkpt lat="42.98717333" lon="-1.12643333">
        <ele>857.0</ele>
        <time>2019-07-31T13:35:15.094Z</time>
      </trkpt>
      <trkpt lat="42.98716333" lon="-1.12642667">
        <ele>857.0</ele>
        <time>2019-07-31T13:35:16.099Z</time>
      </trkpt>
      <trkpt lat="42.987155" lon="-1.12641833">
        <ele>857.0</ele>
        <time>2019-07-31T13:35:17.105Z</time>
      </trkpt>
      <trkpt lat="42.98714667" lon="-1.12640833">
        <ele>857.0</ele>
        <time>2019-07-31T13:35:18.111Z</time>
      </trkpt>
      <trkpt lat="42.987135" lon="-1.1264">
        <ele>856.0</ele>
        <time>2019-07-31T13:35:19.114Z</time>
      </trkpt>
      <trkpt lat="42.98712167" lon="-1.12639">
        <ele>856.0</ele>
        <time>2019-07-31T13:35:20.120Z</time>
      </trkpt>
      <trkpt lat="42.98711167" lon="-1.12638333">
        <ele>856.0</ele>
        <time>2019-07-31T13:35:21.126Z</time>
      </trkpt>
      <trkpt lat="42.98709833" lon="-1.12637333">
        <ele>855.0</ele>
        <time>2019-07-31T13:35:22.132Z</time>
      </trkpt>
      <trkpt lat="42.987085" lon="-1.12637">
        <ele>855.0</ele>
        <time>2019-07-31T13:35:23.138Z</time>
      </trkpt>
      <trkpt lat="42.98707333" lon="-1.12636333">
        <ele>855.0</ele>
        <time>2019-07-31T13:35:24.143Z</time>
      </trkpt>
      <trkpt lat="42.98706333" lon="-1.12635333">
        <ele>855.0</ele>
        <time>2019-07-31T13:35:25.148Z</time>
      </trkpt>
      <trkpt lat="42.98705333" lon="-1.12634">
        <ele>854.0</ele>
        <time>2019-07-31T13:35:26.153Z</time>
      </trkpt>
      <trkpt lat="42.98704333" lon="-1.12632833">
        <ele>854.0</ele>
        <time>2019-07-31T13:35:27.159Z</time>
      </trkpt>
      <trkpt lat="42.98703167" lon="-1.12632">
        <ele>854.0</ele>
        <time>2019-07-31T13:35:28.165Z</time>
      </trkpt>
      <trkpt lat="42.98702167" lon="-1.12631167">
        <ele>854.0</ele>
        <time>2019-07-31T13:35:29.170Z</time>
      </trkpt>
      <trkpt lat="42.98701167" lon="-1.126305">
        <ele>854.0</ele>
        <time>2019-07-31T13:35:30.174Z</time>
      </trkpt>
      <trkpt lat="42.98700167" lon="-1.12629667">
        <ele>854.0</ele>
        <time>2019-07-31T13:35:31.179Z</time>
      </trkpt>
      <trkpt lat="42.986995" lon="-1.12628667">
        <ele>854.0</ele>
        <time>2019-07-31T13:35:32.185Z</time>
      </trkpt>
      <trkpt lat="42.98698667" lon="-1.12627833">
        <ele>855.0</ele>
        <time>2019-07-31T13:35:33.063Z</time>
      </trkpt>
      <trkpt lat="42.98697333" lon="-1.12627167">
        <ele>855.0</ele>
        <time>2019-07-31T13:35:34.067Z</time>
      </trkpt>
      <trkpt lat="42.98695833" lon="-1.12627">
        <ele>856.0</ele>
        <time>2019-07-31T13:35:35.075Z</time>
      </trkpt>
      <trkpt lat="42.98694333" lon="-1.12626">
        <ele>856.0</ele>
        <time>2019-07-31T13:35:36.081Z</time>
      </trkpt>
      <trkpt lat="42.98693333" lon="-1.12625333">
        <ele>856.0</ele>
        <time>2019-07-31T13:35:37.087Z</time>
      </trkpt>
      <trkpt lat="42.98692167" lon="-1.12624333">
        <ele>857.0</ele>
        <time>2019-07-31T13:35:38.093Z</time>
      </trkpt>
      <trkpt lat="42.98691" lon="-1.126235">
        <ele>858.0</ele>
        <time>2019-07-31T13:35:39.098Z</time>
      </trkpt>
      <trkpt lat="42.986895" lon="-1.12622667">
        <ele>858.0</ele>
        <time>2019-07-31T13:35:40.103Z</time>
      </trkpt>
      <trkpt lat="42.986885" lon="-1.12622333">
        <ele>858.0</ele>
        <time>2019-07-31T13:35:41.109Z</time>
      </trkpt>
      <trkpt lat="42.98687167" lon="-1.12622">
        <ele>858.0</ele>
        <time>2019-07-31T13:35:42.113Z</time>
      </trkpt>
      <trkpt lat="42.986855" lon="-1.12621">
        <ele>858.0</ele>
        <time>2019-07-31T13:35:43.116Z</time>
      </trkpt>
      <trkpt lat="42.98683833" lon="-1.126205">
        <ele>857.0</ele>
        <time>2019-07-31T13:35:44.119Z</time>
      </trkpt>
      <trkpt lat="42.98682167" lon="-1.12620167">
        <ele>857.0</ele>
        <time>2019-07-31T13:35:45.125Z</time>
      </trkpt>
      <trkpt lat="42.98680833" lon="-1.126195">
        <ele>857.0</ele>
        <time>2019-07-31T13:35:46.130Z</time>
      </trkpt>
      <trkpt lat="42.986795" lon="-1.126185">
        <ele>857.0</ele>
        <time>2019-07-31T13:35:47.132Z</time>
      </trkpt>
      <trkpt lat="42.98678167" lon="-1.126175">
        <ele>857.0</ele>
        <time>2019-07-31T13:35:48.135Z</time>
      </trkpt>
      <trkpt lat="42.98676667" lon="-1.12616333">
        <ele>857.0</ele>
        <time>2019-07-31T13:35:49.138Z</time>
      </trkpt>
      <trkpt lat="42.98675" lon="-1.12615167">
        <ele>857.0</ele>
        <time>2019-07-31T13:35:50.141Z</time>
      </trkpt>
      <trkpt lat="42.98673667" lon="-1.126145">
        <ele>858.0</ele>
        <time>2019-07-31T13:35:51.147Z</time>
      </trkpt>
      <trkpt lat="42.98672333" lon="-1.12614833">
        <ele>859.0</ele>
        <time>2019-07-31T13:35:52.152Z</time>
      </trkpt>
      <trkpt lat="42.98671333" lon="-1.12615667">
        <ele>860.0</ele>
        <time>2019-07-31T13:35:53.154Z</time>
      </trkpt>
      <trkpt lat="42.98671" lon="-1.12616167">
        <ele>861.0</ele>
        <time>2019-07-31T13:35:54.161Z</time>
      </trkpt>
      <trkpt lat="42.9867" lon="-1.126165">
        <ele>862.0</ele>
        <time>2019-07-31T13:35:55.166Z</time>
      </trkpt>
      <trkpt lat="42.986685" lon="-1.12616">
        <ele>863.0</ele>
        <time>2019-07-31T13:35:56.170Z</time>
      </trkpt>
      <trkpt lat="42.98667" lon="-1.12614833">
        <ele>863.0</ele>
        <time>2019-07-31T13:35:57.176Z</time>
      </trkpt>
      <trkpt lat="42.98665167" lon="-1.12613667">
        <ele>865.0</ele>
        <time>2019-07-31T13:35:58.182Z</time>
      </trkpt>
      <trkpt lat="42.98663167" lon="-1.12613">
        <ele>866.0</ele>
        <time>2019-07-31T13:35:59.063Z</time>
      </trkpt>
      <trkpt lat="42.986615" lon="-1.12612833">
        <ele>866.0</ele>
        <time>2019-07-31T13:36:00.067Z</time>
      </trkpt>
      <trkpt lat="42.9866" lon="-1.12613167">
        <ele>867.0</ele>
        <time>2019-07-31T13:36:01.074Z</time>
      </trkpt>
      <trkpt lat="42.98657833" lon="-1.12613667">
        <ele>867.0</ele>
        <time>2019-07-31T13:36:02.081Z</time>
      </trkpt>
      <trkpt lat="42.98656" lon="-1.126145">
        <ele>867.0</ele>
        <time>2019-07-31T13:36:03.087Z</time>
      </trkpt>
      <trkpt lat="42.98654833" lon="-1.126145">
        <ele>868.0</ele>
        <time>2019-07-31T13:36:04.091Z</time>
      </trkpt>
      <trkpt lat="42.98653167" lon="-1.12614667">
        <ele>868.0</ele>
        <time>2019-07-31T13:36:05.096Z</time>
      </trkpt>
      <trkpt lat="42.98652" lon="-1.12614167">
        <ele>869.0</ele>
        <time>2019-07-31T13:36:06.103Z</time>
      </trkpt>
      <trkpt lat="42.98651" lon="-1.126135">
        <ele>869.0</ele>
        <time>2019-07-31T13:36:07.107Z</time>
      </trkpt>
      <trkpt lat="42.98649167" lon="-1.12612833">
        <ele>869.0</ele>
        <time>2019-07-31T13:36:08.113Z</time>
      </trkpt>
      <trkpt lat="42.98646667" lon="-1.126115">
        <ele>868.0</ele>
        <time>2019-07-31T13:36:09.116Z</time>
      </trkpt>
      <trkpt lat="42.98645" lon="-1.12611333">
        <ele>867.0</ele>
        <time>2019-07-31T13:36:10.120Z</time>
      </trkpt>
      <trkpt lat="42.98643333" lon="-1.12611333">
        <ele>867.0</ele>
        <time>2019-07-31T13:36:11.125Z</time>
      </trkpt>
      <trkpt lat="42.98641333" lon="-1.12611667">
        <ele>868.0</ele>
        <time>2019-07-31T13:36:12.131Z</time>
      </trkpt>
      <trkpt lat="42.98639" lon="-1.12612">
        <ele>868.0</ele>
        <time>2019-07-31T13:36:13.136Z</time>
      </trkpt>
      <trkpt lat="42.98636667" lon="-1.12612">
        <ele>869.0</ele>
        <time>2019-07-31T13:36:14.141Z</time>
      </trkpt>
      <trkpt lat="42.986345" lon="-1.12611667">
        <ele>868.0</ele>
        <time>2019-07-31T13:36:15.147Z</time>
      </trkpt>
      <trkpt lat="42.986335" lon="-1.12611667">
        <ele>867.0</ele>
        <time>2019-07-31T13:36:16.153Z</time>
      </trkpt>
      <trkpt lat="42.98632167" lon="-1.126125">
        <ele>867.0</ele>
        <time>2019-07-31T13:36:17.157Z</time>
      </trkpt>
      <trkpt lat="42.98630333" lon="-1.12613">
        <ele>866.0</ele>
        <time>2019-07-31T13:36:18.162Z</time>
      </trkpt>
      <trkpt lat="42.98628167" lon="-1.12612667">
        <ele>864.0</ele>
        <time>2019-07-31T13:36:19.167Z</time>
      </trkpt>
      <trkpt lat="42.986265" lon="-1.12611833">
        <ele>864.0</ele>
        <time>2019-07-31T13:36:20.171Z</time>
      </trkpt>
      <trkpt lat="42.986255" lon="-1.12612333">
        <ele>865.0</ele>
        <time>2019-07-31T13:36:21.176Z</time>
      </trkpt>
      <trkpt lat="42.98624167" lon="-1.12612833">
        <ele>867.0</ele>
        <time>2019-07-31T13:36:22.180Z</time>
      </trkpt>
      <trkpt lat="42.98623333" lon="-1.12613833">
        <ele>868.0</ele>
        <time>2019-07-31T13:36:23.186Z</time>
      </trkpt>
      <trkpt lat="42.98622667" lon="-1.12614167">
        <ele>868.0</ele>
        <time>2019-07-31T13:36:24.065Z</time>
      </trkpt>
      <trkpt lat="42.986205" lon="-1.126145">
        <ele>867.0</ele>
        <time>2019-07-31T13:36:25.073Z</time>
      </trkpt>
      <trkpt lat="42.98618833" lon="-1.12614333">
        <ele>868.0</ele>
        <time>2019-07-31T13:36:26.081Z</time>
      </trkpt>
      <trkpt lat="42.98617167" lon="-1.12613833">
        <ele>869.0</ele>
        <time>2019-07-31T13:36:27.086Z</time>
      </trkpt>
      <trkpt lat="42.98615667" lon="-1.12614167">
        <ele>869.0</ele>
        <time>2019-07-31T13:36:28.091Z</time>
      </trkpt>
      <trkpt lat="42.98613333" lon="-1.12614167">
        <ele>870.0</ele>
        <time>2019-07-31T13:36:29.096Z</time>
      </trkpt>
      <trkpt lat="42.98611667" lon="-1.12614">
        <ele>871.0</ele>
        <time>2019-07-31T13:36:30.101Z</time>
      </trkpt>
      <trkpt lat="42.98609667" lon="-1.12613167">
        <ele>871.0</ele>
        <time>2019-07-31T13:36:31.108Z</time>
      </trkpt>
      <trkpt lat="42.98607" lon="-1.12612833">
        <ele>871.0</ele>
        <time>2019-07-31T13:36:32.114Z</time>
      </trkpt>
      <trkpt lat="42.98604667" lon="-1.126125">
        <ele>870.0</ele>
        <time>2019-07-31T13:36:33.121Z</time>
      </trkpt>
      <trkpt lat="42.98602167" lon="-1.12613167">
        <ele>869.0</ele>
        <time>2019-07-31T13:36:34.127Z</time>
      </trkpt>
      <trkpt lat="42.986005" lon="-1.126135">
        <ele>869.0</ele>
        <time>2019-07-31T13:36:35.132Z</time>
      </trkpt>
      <trkpt lat="42.98598833" lon="-1.12613667">
        <ele>869.0</ele>
        <time>2019-07-31T13:36:36.138Z</time>
      </trkpt>
      <trkpt lat="42.985975" lon="-1.126145">
        <ele>870.0</ele>
        <time>2019-07-31T13:36:37.144Z</time>
      </trkpt>
      <trkpt lat="42.98596333" lon="-1.12616167">
        <ele>871.0</ele>
        <time>2019-07-31T13:36:38.148Z</time>
      </trkpt>
      <trkpt lat="42.98595167" lon="-1.12617833">
        <ele>872.0</ele>
        <time>2019-07-31T13:36:39.155Z</time>
      </trkpt>
      <trkpt lat="42.98593167" lon="-1.12618667">
        <ele>874.0</ele>
        <time>2019-07-31T13:36:40.159Z</time>
      </trkpt>
      <trkpt lat="42.98590667" lon="-1.12618667">
        <ele>874.0</ele>
        <time>2019-07-31T13:36:41.163Z</time>
      </trkpt>
      <trkpt lat="42.98588167" lon="-1.12619333">
        <ele>875.0</ele>
        <time>2019-07-31T13:36:42.168Z</time>
      </trkpt>
      <trkpt lat="42.98586167" lon="-1.126195">
        <ele>875.0</ele>
        <time>2019-07-31T13:36:43.174Z</time>
      </trkpt>
      <trkpt lat="42.98584167" lon="-1.126195">
        <ele>875.0</ele>
        <time>2019-07-31T13:36:44.180Z</time>
      </trkpt>
      <trkpt lat="42.98582333" lon="-1.12620167">
        <ele>875.0</ele>
        <time>2019-07-31T13:36:45.186Z</time>
      </trkpt>
      <trkpt lat="42.98580667" lon="-1.126205">
        <ele>874.0</ele>
        <time>2019-07-31T13:36:46.066Z</time>
      </trkpt>
      <trkpt lat="42.98578667" lon="-1.1262">
        <ele>872.0</ele>
        <time>2019-07-31T13:36:47.073Z</time>
      </trkpt>
      <trkpt lat="42.98577167" lon="-1.12619167">
        <ele>871.0</ele>
        <time>2019-07-31T13:36:48.080Z</time>
      </trkpt>
      <trkpt lat="42.985755" lon="-1.12617667">
        <ele>869.0</ele>
        <time>2019-07-31T13:36:49.080Z</time>
      </trkpt>
      <trkpt lat="42.985735" lon="-1.12616833">
        <ele>867.0</ele>
        <time>2019-07-31T13:36:50.084Z</time>
      </trkpt>
      <trkpt lat="42.98572167" lon="-1.12616167">
        <ele>866.0</ele>
        <time>2019-07-31T13:36:51.090Z</time>
      </trkpt>
      <trkpt lat="42.98570667" lon="-1.12615333">
        <ele>865.0</ele>
        <time>2019-07-31T13:36:52.095Z</time>
      </trkpt>
      <trkpt lat="42.98568833" lon="-1.12614833">
        <ele>864.0</ele>
        <time>2019-07-31T13:36:53.102Z</time>
      </trkpt>
      <trkpt lat="42.98567" lon="-1.12614833">
        <ele>863.0</ele>
        <time>2019-07-31T13:36:54.108Z</time>
      </trkpt>
      <trkpt lat="42.985655" lon="-1.126155">
        <ele>863.0</ele>
        <time>2019-07-31T13:36:55.114Z</time>
      </trkpt>
      <trkpt lat="42.985635" lon="-1.12616333">
        <ele>863.0</ele>
        <time>2019-07-31T13:36:56.120Z</time>
      </trkpt>
      <trkpt lat="42.98561667" lon="-1.126175">
        <ele>864.0</ele>
        <time>2019-07-31T13:36:57.128Z</time>
      </trkpt>
      <trkpt lat="42.9856" lon="-1.12618167">
        <ele>864.0</ele>
        <time>2019-07-31T13:36:58.132Z</time>
      </trkpt>
      <trkpt lat="42.98558667" lon="-1.12618167">
        <ele>864.0</ele>
        <time>2019-07-31T13:36:59.134Z</time>
      </trkpt>
      <trkpt lat="42.98558" lon="-1.12618333">
        <ele>864.0</ele>
        <time>2019-07-31T13:37:00.139Z</time>
      </trkpt>
      <trkpt lat="42.985575" lon="-1.12619">
        <ele>865.0</ele>
        <time>2019-07-31T13:37:01.144Z</time>
      </trkpt>
      <trkpt lat="42.985565" lon="-1.12619333">
        <ele>866.0</ele>
        <time>2019-07-31T13:37:02.150Z</time>
      </trkpt>
      <trkpt lat="42.98554833" lon="-1.12619833">
        <ele>865.0</ele>
        <time>2019-07-31T13:37:03.154Z</time>
      </trkpt>
      <trkpt lat="42.98553667" lon="-1.12620167">
        <ele>865.0</ele>
        <time>2019-07-31T13:37:04.158Z</time>
      </trkpt>
      <trkpt lat="42.98552333" lon="-1.12620333">
        <ele>865.0</ele>
        <time>2019-07-31T13:37:05.164Z</time>
      </trkpt>
      <trkpt lat="42.98551333" lon="-1.12620167">
        <ele>864.0</ele>
        <time>2019-07-31T13:37:06.170Z</time>
      </trkpt>
      <trkpt lat="42.98549833" lon="-1.12620333">
        <ele>864.0</ele>
        <time>2019-07-31T13:37:07.175Z</time>
      </trkpt>
      <trkpt lat="42.98548667" lon="-1.126205">
        <ele>864.0</ele>
        <time>2019-07-31T13:37:08.179Z</time>
      </trkpt>
      <trkpt lat="42.98547" lon="-1.12620833">
        <ele>863.0</ele>
        <time>2019-07-31T13:37:09.183Z</time>
      </trkpt>
      <trkpt lat="42.98545333" lon="-1.126215">
        <ele>863.0</ele>
        <time>2019-07-31T13:37:10.062Z</time>
      </trkpt>
      <trkpt lat="42.98543333" lon="-1.12621667">
        <ele>863.0</ele>
        <time>2019-07-31T13:37:11.066Z</time>
      </trkpt>
      <trkpt lat="42.98541667" lon="-1.126215">
        <ele>862.0</ele>
        <time>2019-07-31T13:37:12.073Z</time>
      </trkpt>
      <trkpt lat="42.985395" lon="-1.12621167">
        <ele>861.0</ele>
        <time>2019-07-31T13:37:13.078Z</time>
      </trkpt>
      <trkpt lat="42.98538" lon="-1.12621333">
        <ele>861.0</ele>
        <time>2019-07-31T13:37:14.083Z</time>
      </trkpt>
      <trkpt lat="42.985365" lon="-1.12622167">
        <ele>862.0</ele>
        <time>2019-07-31T13:37:15.088Z</time>
      </trkpt>
      <trkpt lat="42.98535" lon="-1.12622333">
        <ele>862.0</ele>
        <time>2019-07-31T13:37:16.093Z</time>
      </trkpt>
      <trkpt lat="42.98533167" lon="-1.12622833">
        <ele>862.0</ele>
        <time>2019-07-31T13:37:17.100Z</time>
      </trkpt>
      <trkpt lat="42.985315" lon="-1.12623333">
        <ele>862.0</ele>
        <time>2019-07-31T13:37:18.106Z</time>
      </trkpt>
      <trkpt lat="42.985295" lon="-1.12624">
        <ele>862.0</ele>
        <time>2019-07-31T13:37:19.112Z</time>
      </trkpt>
      <trkpt lat="42.985275" lon="-1.12624667">
        <ele>863.0</ele>
        <time>2019-07-31T13:37:20.118Z</time>
      </trkpt>
      <trkpt lat="42.98525833" lon="-1.12624833">
        <ele>862.0</ele>
        <time>2019-07-31T13:37:21.124Z</time>
      </trkpt>
      <trkpt lat="42.98524" lon="-1.12625">
        <ele>862.0</ele>
        <time>2019-07-31T13:37:22.129Z</time>
      </trkpt>
      <trkpt lat="42.98522333" lon="-1.126255">
        <ele>862.0</ele>
        <time>2019-07-31T13:37:23.133Z</time>
      </trkpt>
      <trkpt lat="42.98520833" lon="-1.12625333">
        <ele>862.0</ele>
        <time>2019-07-31T13:37:24.137Z</time>
      </trkpt>
      <trkpt lat="42.98519333" lon="-1.12626333">
        <ele>863.0</ele>
        <time>2019-07-31T13:37:25.143Z</time>
      </trkpt>
      <trkpt lat="42.98517833" lon="-1.12627167">
        <ele>863.0</ele>
        <time>2019-07-31T13:37:26.149Z</time>
      </trkpt>
      <trkpt lat="42.98516167" lon="-1.126275">
        <ele>863.0</ele>
        <time>2019-07-31T13:37:27.154Z</time>
      </trkpt>
      <trkpt lat="42.985145" lon="-1.12628167">
        <ele>862.0</ele>
        <time>2019-07-31T13:37:28.160Z</time>
      </trkpt>
      <trkpt lat="42.98513667" lon="-1.12628833">
        <ele>862.0</ele>
        <time>2019-07-31T13:37:29.166Z</time>
      </trkpt>
      <trkpt lat="42.985125" lon="-1.12630333">
        <ele>863.0</ele>
        <time>2019-07-31T13:37:30.171Z</time>
      </trkpt>
      <trkpt lat="42.98510833" lon="-1.12631167">
        <ele>864.0</ele>
        <time>2019-07-31T13:37:31.174Z</time>
      </trkpt>
      <trkpt lat="42.98509" lon="-1.12631333">
        <ele>864.0</ele>
        <time>2019-07-31T13:37:32.176Z</time>
      </trkpt>
      <trkpt lat="42.98507333" lon="-1.12631">
        <ele>864.0</ele>
        <time>2019-07-31T13:37:33.182Z</time>
      </trkpt>
      <trkpt lat="42.98505" lon="-1.12631167">
        <ele>864.0</ele>
        <time>2019-07-31T13:37:34.062Z</time>
      </trkpt>
      <trkpt lat="42.98503333" lon="-1.12631167">
        <ele>865.0</ele>
        <time>2019-07-31T13:37:35.068Z</time>
      </trkpt>
      <trkpt lat="42.98501667" lon="-1.12631167">
        <ele>865.0</ele>
        <time>2019-07-31T13:37:36.074Z</time>
      </trkpt>
      <trkpt lat="42.98499667" lon="-1.12630667">
        <ele>865.0</ele>
        <time>2019-07-31T13:37:37.078Z</time>
      </trkpt>
      <trkpt lat="42.98497833" lon="-1.126305">
        <ele>865.0</ele>
        <time>2019-07-31T13:37:38.084Z</time>
      </trkpt>
      <trkpt lat="42.98495833" lon="-1.126305">
        <ele>866.0</ele>
        <time>2019-07-31T13:37:39.091Z</time>
      </trkpt>
      <trkpt lat="42.98494333" lon="-1.12630833">
        <ele>866.0</ele>
        <time>2019-07-31T13:37:40.096Z</time>
      </trkpt>
      <trkpt lat="42.984925" lon="-1.12630833">
        <ele>866.0</ele>
        <time>2019-07-31T13:37:41.101Z</time>
      </trkpt>
      <trkpt lat="42.98490667" lon="-1.12630667">
        <ele>866.0</ele>
        <time>2019-07-31T13:37:42.109Z</time>
      </trkpt>
      <trkpt lat="42.98489333" lon="-1.12630167">
        <ele>865.0</ele>
        <time>2019-07-31T13:37:43.115Z</time>
      </trkpt>
      <trkpt lat="42.98487667" lon="-1.1263">
        <ele>865.0</ele>
        <time>2019-07-31T13:37:44.121Z</time>
      </trkpt>
      <trkpt lat="42.98486" lon="-1.12630167">
        <ele>865.0</ele>
        <time>2019-07-31T13:37:45.126Z</time>
      </trkpt>
      <trkpt lat="42.98484167" lon="-1.12629833">
        <ele>866.0</ele>
        <time>2019-07-31T13:37:46.131Z</time>
      </trkpt>
      <trkpt lat="42.98482" lon="-1.12630333">
        <ele>866.0</ele>
        <time>2019-07-31T13:37:47.135Z</time>
      </trkpt>
      <trkpt lat="42.98480167" lon="-1.12630333">
        <ele>866.0</ele>
        <time>2019-07-31T13:37:48.141Z</time>
      </trkpt>
      <trkpt lat="42.984785" lon="-1.12630333">
        <ele>867.0</ele>
        <time>2019-07-31T13:37:49.148Z</time>
      </trkpt>
      <trkpt lat="42.984765" lon="-1.12630167">
        <ele>867.0</ele>
        <time>2019-07-31T13:37:50.153Z</time>
      </trkpt>
      <trkpt lat="42.98475" lon="-1.12629833">
        <ele>866.0</ele>
        <time>2019-07-31T13:37:51.158Z</time>
      </trkpt>
      <trkpt lat="42.984735" lon="-1.12629833">
        <ele>865.0</ele>
        <time>2019-07-31T13:37:52.161Z</time>
      </trkpt>
      <trkpt lat="42.98471833" lon="-1.12629667">
        <ele>865.0</ele>
        <time>2019-07-31T13:37:53.166Z</time>
      </trkpt>
      <trkpt lat="42.98470333" lon="-1.126295">
        <ele>864.0</ele>
        <time>2019-07-31T13:37:54.169Z</time>
      </trkpt>
      <trkpt lat="42.98468833" lon="-1.12629">
        <ele>863.0</ele>
        <time>2019-07-31T13:37:55.172Z</time>
      </trkpt>
      <trkpt lat="42.98466833" lon="-1.12629">
        <ele>863.0</ele>
        <time>2019-07-31T13:37:56.175Z</time>
      </trkpt>
      <trkpt lat="42.98465" lon="-1.12629">
        <ele>862.0</ele>
        <time>2019-07-31T13:37:57.183Z</time>
      </trkpt>
      <trkpt lat="42.98463333" lon="-1.126295">
        <ele>862.0</ele>
        <time>2019-07-31T13:37:58.062Z</time>
      </trkpt>
      <trkpt lat="42.98461833" lon="-1.12629833">
        <ele>863.0</ele>
        <time>2019-07-31T13:37:59.066Z</time>
      </trkpt>
      <trkpt lat="42.98460333" lon="-1.1263">
        <ele>862.0</ele>
        <time>2019-07-31T13:38:00.071Z</time>
      </trkpt>
      <trkpt lat="42.98458833" lon="-1.12630333">
        <ele>862.0</ele>
        <time>2019-07-31T13:38:01.078Z</time>
      </trkpt>
      <trkpt lat="42.98457333" lon="-1.126305">
        <ele>862.0</ele>
        <time>2019-07-31T13:38:02.085Z</time>
      </trkpt>
      <trkpt lat="42.98455833" lon="-1.12631167">
        <ele>861.0</ele>
        <time>2019-07-31T13:38:03.090Z</time>
      </trkpt>
      <trkpt lat="42.98454667" lon="-1.12631833">
        <ele>861.0</ele>
        <time>2019-07-31T13:38:04.095Z</time>
      </trkpt>
      <trkpt lat="42.98452667" lon="-1.12632667">
        <ele>861.0</ele>
        <time>2019-07-31T13:38:05.102Z</time>
      </trkpt>
      <trkpt lat="42.98451" lon="-1.12633333">
        <ele>861.0</ele>
        <time>2019-07-31T13:38:06.108Z</time>
      </trkpt>
      <trkpt lat="42.984495" lon="-1.12634333">
        <ele>861.0</ele>
        <time>2019-07-31T13:38:07.112Z</time>
      </trkpt>
      <trkpt lat="42.98447833" lon="-1.126345">
        <ele>862.0</ele>
        <time>2019-07-31T13:38:08.117Z</time>
      </trkpt>
      <trkpt lat="42.98446167" lon="-1.12635">
        <ele>862.0</ele>
        <time>2019-07-31T13:38:09.126Z</time>
      </trkpt>
      <trkpt lat="42.98445" lon="-1.12636">
        <ele>862.0</ele>
        <time>2019-07-31T13:38:10.131Z</time>
      </trkpt>
      <trkpt lat="42.98443667" lon="-1.12637">
        <ele>862.0</ele>
        <time>2019-07-31T13:38:11.137Z</time>
      </trkpt>
      <trkpt lat="42.98442333" lon="-1.12637833">
        <ele>861.0</ele>
        <time>2019-07-31T13:38:12.143Z</time>
      </trkpt>
      <trkpt lat="42.984405" lon="-1.12638667">
        <ele>862.0</ele>
        <time>2019-07-31T13:38:13.148Z</time>
      </trkpt>
      <trkpt lat="42.98438833" lon="-1.12639667">
        <ele>861.0</ele>
        <time>2019-07-31T13:38:14.152Z</time>
      </trkpt>
      <trkpt lat="42.98437" lon="-1.126405">
        <ele>861.0</ele>
        <time>2019-07-31T13:38:15.159Z</time>
      </trkpt>
      <trkpt lat="42.98435667" lon="-1.12642167">
        <ele>862.0</ele>
        <time>2019-07-31T13:38:16.163Z</time>
      </trkpt>
      <trkpt lat="42.98434333" lon="-1.12643167">
        <ele>862.0</ele>
        <time>2019-07-31T13:38:17.167Z</time>
      </trkpt>
      <trkpt lat="42.984325" lon="-1.12643833">
        <ele>862.0</ele>
        <time>2019-07-31T13:38:18.173Z</time>
      </trkpt>
      <trkpt lat="42.98431333" lon="-1.12644833">
        <ele>863.0</ele>
        <time>2019-07-31T13:38:19.175Z</time>
      </trkpt>
      <trkpt lat="42.9843" lon="-1.12645667">
        <ele>863.0</ele>
        <time>2019-07-31T13:38:20.181Z</time>
      </trkpt>
      <trkpt lat="42.98428667" lon="-1.12646333">
        <ele>863.0</ele>
        <time>2019-07-31T13:38:21.063Z</time>
      </trkpt>
      <trkpt lat="42.98427333" lon="-1.12646833">
        <ele>864.0</ele>
        <time>2019-07-31T13:38:22.070Z</time>
      </trkpt>
      <trkpt lat="42.98425667" lon="-1.12647833">
        <ele>865.0</ele>
        <time>2019-07-31T13:38:23.076Z</time>
      </trkpt>
      <trkpt lat="42.98424" lon="-1.126485">
        <ele>866.0</ele>
        <time>2019-07-31T13:38:24.083Z</time>
      </trkpt>
      <trkpt lat="42.98422333" lon="-1.12648667">
        <ele>867.0</ele>
        <time>2019-07-31T13:38:25.088Z</time>
      </trkpt>
      <trkpt lat="42.98420667" lon="-1.12649167">
        <ele>867.0</ele>
        <time>2019-07-31T13:38:26.091Z</time>
      </trkpt>
      <trkpt lat="42.98419333" lon="-1.12649833">
        <ele>868.0</ele>
        <time>2019-07-31T13:38:27.094Z</time>
      </trkpt>
      <trkpt lat="42.98418" lon="-1.12650833">
        <ele>868.0</ele>
        <time>2019-07-31T13:38:28.097Z</time>
      </trkpt>
      <trkpt lat="42.98416667" lon="-1.12651833">
        <ele>869.0</ele>
        <time>2019-07-31T13:38:29.101Z</time>
      </trkpt>
      <trkpt lat="42.98415333" lon="-1.12652167">
        <ele>869.0</ele>
        <time>2019-07-31T13:38:30.108Z</time>
      </trkpt>
      <trkpt lat="42.98413833" lon="-1.12651833">
        <ele>869.0</ele>
        <time>2019-07-31T13:38:31.115Z</time>
      </trkpt>
      <trkpt lat="42.98412333" lon="-1.12651167">
        <ele>869.0</ele>
        <time>2019-07-31T13:38:32.121Z</time>
      </trkpt>
      <trkpt lat="42.98411333" lon="-1.126505">
        <ele>869.0</ele>
        <time>2019-07-31T13:38:33.125Z</time>
      </trkpt>
      <trkpt lat="42.98409833" lon="-1.1265">
        <ele>869.0</ele>
        <time>2019-07-31T13:38:34.129Z</time>
      </trkpt>
      <trkpt lat="42.984085" lon="-1.12649667">
        <ele>869.0</ele>
        <time>2019-07-31T13:38:35.133Z</time>
      </trkpt>
      <trkpt lat="42.98407333" lon="-1.12649833">
        <ele>870.0</ele>
        <time>2019-07-31T13:38:36.139Z</time>
      </trkpt>
      <trkpt lat="42.984055" lon="-1.12650667">
        <ele>871.0</ele>
        <time>2019-07-31T13:38:37.144Z</time>
      </trkpt>
      <trkpt lat="42.98404333" lon="-1.126515">
        <ele>872.0</ele>
        <time>2019-07-31T13:38:38.150Z</time>
      </trkpt>
      <trkpt lat="42.98402833" lon="-1.12652167">
        <ele>873.0</ele>
        <time>2019-07-31T13:38:39.156Z</time>
      </trkpt>
      <trkpt lat="42.98401667" lon="-1.12651833">
        <ele>873.0</ele>
        <time>2019-07-31T13:38:40.162Z</time>
      </trkpt>
      <trkpt lat="42.98400667" lon="-1.12651667">
        <ele>873.0</ele>
        <time>2019-07-31T13:38:41.168Z</time>
      </trkpt>
      <trkpt lat="42.98399333" lon="-1.12651333">
        <ele>873.0</ele>
        <time>2019-07-31T13:38:42.174Z</time>
      </trkpt>
      <trkpt lat="42.98397833" lon="-1.12651333">
        <ele>874.0</ele>
        <time>2019-07-31T13:38:43.181Z</time>
      </trkpt>
      <trkpt lat="42.98396" lon="-1.12651833">
        <ele>874.0</ele>
        <time>2019-07-31T13:38:44.061Z</time>
      </trkpt>
      <trkpt lat="42.98394333" lon="-1.12652667">
        <ele>875.0</ele>
        <time>2019-07-31T13:38:45.064Z</time>
      </trkpt>
      <trkpt lat="42.98392167" lon="-1.12653333">
        <ele>876.0</ele>
        <time>2019-07-31T13:38:46.069Z</time>
      </trkpt>
      <trkpt lat="42.98390167" lon="-1.12653667">
        <ele>876.0</ele>
        <time>2019-07-31T13:38:47.074Z</time>
      </trkpt>
      <trkpt lat="42.98388333" lon="-1.12653833">
        <ele>877.0</ele>
        <time>2019-07-31T13:38:48.078Z</time>
      </trkpt>
      <trkpt lat="42.98385833" lon="-1.126535">
        <ele>878.0</ele>
        <time>2019-07-31T13:38:49.084Z</time>
      </trkpt>
      <trkpt lat="42.98384" lon="-1.12653833">
        <ele>878.0</ele>
        <time>2019-07-31T13:38:50.090Z</time>
      </trkpt>
      <trkpt lat="42.98382333" lon="-1.12654">
        <ele>878.0</ele>
        <time>2019-07-31T13:38:51.094Z</time>
      </trkpt>
      <trkpt lat="42.98380833" lon="-1.12653667">
        <ele>878.0</ele>
        <time>2019-07-31T13:38:52.100Z</time>
      </trkpt>
      <trkpt lat="42.98379167" lon="-1.126535">
        <ele>877.0</ele>
        <time>2019-07-31T13:38:53.105Z</time>
      </trkpt>
      <trkpt lat="42.98377667" lon="-1.12653833">
        <ele>877.0</ele>
        <time>2019-07-31T13:38:54.110Z</time>
      </trkpt>
      <trkpt lat="42.98376167" lon="-1.126545">
        <ele>878.0</ele>
        <time>2019-07-31T13:38:55.114Z</time>
      </trkpt>
      <trkpt lat="42.98375" lon="-1.12655">
        <ele>878.0</ele>
        <time>2019-07-31T13:38:56.120Z</time>
      </trkpt>
      <trkpt lat="42.98373333" lon="-1.126555">
        <ele>877.0</ele>
        <time>2019-07-31T13:38:57.124Z</time>
      </trkpt>
      <trkpt lat="42.98371667" lon="-1.12656167">
        <ele>877.0</ele>
        <time>2019-07-31T13:38:58.129Z</time>
      </trkpt>
      <trkpt lat="42.983705" lon="-1.126565">
        <ele>876.0</ele>
        <time>2019-07-31T13:38:59.134Z</time>
      </trkpt>
      <trkpt lat="42.98369167" lon="-1.126565">
        <ele>876.0</ele>
        <time>2019-07-31T13:39:00.140Z</time>
      </trkpt>
      <trkpt lat="42.98367833" lon="-1.12656333">
        <ele>875.0</ele>
        <time>2019-07-31T13:39:01.146Z</time>
      </trkpt>
      <trkpt lat="42.983665" lon="-1.12656333">
        <ele>875.0</ele>
        <time>2019-07-31T13:39:02.152Z</time>
      </trkpt>
      <trkpt lat="42.98365333" lon="-1.12656333">
        <ele>874.0</ele>
        <time>2019-07-31T13:39:03.159Z</time>
      </trkpt>
      <trkpt lat="42.98364" lon="-1.12655667">
        <ele>874.0</ele>
        <time>2019-07-31T13:39:04.162Z</time>
      </trkpt>
      <trkpt lat="42.983625" lon="-1.126555">
        <ele>872.0</ele>
        <time>2019-07-31T13:39:05.166Z</time>
      </trkpt>
      <trkpt lat="42.98361" lon="-1.12654167">
        <ele>871.0</ele>
        <time>2019-07-31T13:39:06.172Z</time>
      </trkpt>
      <trkpt lat="42.983595" lon="-1.12653333">
        <ele>870.0</ele>
        <time>2019-07-31T13:39:07.176Z</time>
      </trkpt>
      <trkpt lat="42.98358" lon="-1.12653">
        <ele>869.0</ele>
        <time>2019-07-31T13:39:08.181Z</time>
      </trkpt>
      <trkpt lat="42.98356333" lon="-1.126525">
        <ele>868.0</ele>
        <time>2019-07-31T13:39:09.061Z</time>
      </trkpt>
      <trkpt lat="42.98354833" lon="-1.12651667">
        <ele>868.0</ele>
        <time>2019-07-31T13:39:10.068Z</time>
      </trkpt>
      <trkpt lat="42.98353667" lon="-1.12651">
        <ele>869.0</ele>
        <time>2019-07-31T13:39:11.073Z</time>
      </trkpt>
      <trkpt lat="42.983525" lon="-1.126505">
        <ele>868.0</ele>
        <time>2019-07-31T13:39:12.079Z</time>
      </trkpt>
      <trkpt lat="42.983515" lon="-1.1265">
        <ele>869.0</ele>
        <time>2019-07-31T13:39:13.085Z</time>
      </trkpt>
      <trkpt lat="42.98350167" lon="-1.12649">
        <ele>869.0</ele>
        <time>2019-07-31T13:39:14.091Z</time>
      </trkpt>
      <trkpt lat="42.983485" lon="-1.126485">
        <ele>868.0</ele>
        <time>2019-07-31T13:39:15.093Z</time>
      </trkpt>
      <trkpt lat="42.98346667" lon="-1.12648">
        <ele>868.0</ele>
        <time>2019-07-31T13:39:16.098Z</time>
      </trkpt>
      <trkpt lat="42.98345" lon="-1.12648167">
        <ele>868.0</ele>
        <time>2019-07-31T13:39:17.105Z</time>
      </trkpt>
      <trkpt lat="42.98343167" lon="-1.12647833">
        <ele>867.0</ele>
        <time>2019-07-31T13:39:18.110Z</time>
      </trkpt>
      <trkpt lat="42.98341833" lon="-1.12647833">
        <ele>866.0</ele>
        <time>2019-07-31T13:39:19.117Z</time>
      </trkpt>
      <trkpt lat="42.9834" lon="-1.12647667">
        <ele>865.0</ele>
        <time>2019-07-31T13:39:20.122Z</time>
      </trkpt>
      <trkpt lat="42.98338" lon="-1.12647833">
        <ele>864.0</ele>
        <time>2019-07-31T13:39:21.127Z</time>
      </trkpt>
      <trkpt lat="42.983365" lon="-1.12647">
        <ele>864.0</ele>
        <time>2019-07-31T13:39:22.132Z</time>
      </trkpt>
      <trkpt lat="42.98335" lon="-1.12645833">
        <ele>863.0</ele>
        <time>2019-07-31T13:39:23.140Z</time>
      </trkpt>
      <trkpt lat="42.98333667" lon="-1.12645">
        <ele>863.0</ele>
        <time>2019-07-31T13:39:24.147Z</time>
      </trkpt>
      <trkpt lat="42.98332167" lon="-1.12644">
        <ele>862.0</ele>
        <time>2019-07-31T13:39:25.152Z</time>
      </trkpt>
      <trkpt lat="42.98330833" lon="-1.12643167">
        <ele>861.0</ele>
        <time>2019-07-31T13:39:26.156Z</time>
      </trkpt>
      <trkpt lat="42.98329167" lon="-1.12642667">
        <ele>860.0</ele>
        <time>2019-07-31T13:39:27.161Z</time>
      </trkpt>
      <trkpt lat="42.98327833" lon="-1.126415">
        <ele>860.0</ele>
        <time>2019-07-31T13:39:28.167Z</time>
      </trkpt>
      <trkpt lat="42.98326167" lon="-1.12640833">
        <ele>860.0</ele>
        <time>2019-07-31T13:39:29.172Z</time>
      </trkpt>
      <trkpt lat="42.98324333" lon="-1.12640167">
        <ele>860.0</ele>
        <time>2019-07-31T13:39:30.177Z</time>
      </trkpt>
      <trkpt lat="42.98322833" lon="-1.12639667">
        <ele>860.0</ele>
        <time>2019-07-31T13:39:31.182Z</time>
      </trkpt>
      <trkpt lat="42.983215" lon="-1.12639">
        <ele>860.0</ele>
        <time>2019-07-31T13:39:32.063Z</time>
      </trkpt>
      <trkpt lat="42.98320167" lon="-1.12638167">
        <ele>860.0</ele>
        <time>2019-07-31T13:39:33.067Z</time>
      </trkpt>
      <trkpt lat="42.983185" lon="-1.12637333">
        <ele>861.0</ele>
        <time>2019-07-31T13:39:34.073Z</time>
      </trkpt>
      <trkpt lat="42.98317333" lon="-1.12636667">
        <ele>860.0</ele>
        <time>2019-07-31T13:39:35.080Z</time>
      </trkpt>
      <trkpt lat="42.98316333" lon="-1.126355">
        <ele>860.0</ele>
        <time>2019-07-31T13:39:36.085Z</time>
      </trkpt>
      <trkpt lat="42.98315167" lon="-1.12634167">
        <ele>859.0</ele>
        <time>2019-07-31T13:39:37.090Z</time>
      </trkpt>
      <trkpt lat="42.98314167" lon="-1.12632833">
        <ele>859.0</ele>
        <time>2019-07-31T13:39:38.095Z</time>
      </trkpt>
      <trkpt lat="42.98312667" lon="-1.12631833">
        <ele>860.0</ele>
        <time>2019-07-31T13:39:39.100Z</time>
      </trkpt>
      <trkpt lat="42.98311" lon="-1.126305">
        <ele>860.0</ele>
        <time>2019-07-31T13:39:40.106Z</time>
      </trkpt>
      <trkpt lat="42.9831" lon="-1.1263">
        <ele>861.0</ele>
        <time>2019-07-31T13:39:41.111Z</time>
      </trkpt>
      <trkpt lat="42.98309167" lon="-1.12629333">
        <ele>861.0</ele>
        <time>2019-07-31T13:39:42.117Z</time>
      </trkpt>
      <trkpt lat="42.98308333" lon="-1.12628333">
        <ele>860.0</ele>
        <time>2019-07-31T13:39:43.119Z</time>
      </trkpt>
      <trkpt lat="42.983075" lon="-1.12627">
        <ele>860.0</ele>
        <time>2019-07-31T13:39:44.122Z</time>
      </trkpt>
      <trkpt lat="42.983065" lon="-1.12626">
        <ele>859.0</ele>
        <time>2019-07-31T13:39:45.126Z</time>
      </trkpt>
      <trkpt lat="42.983055" lon="-1.12624833">
        <ele>859.0</ele>
        <time>2019-07-31T13:39:46.131Z</time>
      </trkpt>
      <trkpt lat="42.983045" lon="-1.12623833">
        <ele>860.0</ele>
        <time>2019-07-31T13:39:47.135Z</time>
      </trkpt>
      <trkpt lat="42.98303833" lon="-1.12623167">
        <ele>861.0</ele>
        <time>2019-07-31T13:39:48.143Z</time>
      </trkpt>
      <trkpt lat="42.98303" lon="-1.12622333">
        <ele>861.0</ele>
        <time>2019-07-31T13:39:49.148Z</time>
      </trkpt>
      <trkpt lat="42.98302" lon="-1.126215">
        <ele>862.0</ele>
        <time>2019-07-31T13:39:50.153Z</time>
      </trkpt>
      <trkpt lat="42.98301" lon="-1.126205">
        <ele>862.0</ele>
        <time>2019-07-31T13:39:51.157Z</time>
      </trkpt>
      <trkpt lat="42.983" lon="-1.12619333">
        <ele>863.0</ele>
        <time>2019-07-31T13:39:52.163Z</time>
      </trkpt>
      <trkpt lat="42.98299333" lon="-1.12618">
        <ele>863.0</ele>
        <time>2019-07-31T13:39:53.167Z</time>
      </trkpt>
      <trkpt lat="42.982985" lon="-1.12616667">
        <ele>863.0</ele>
        <time>2019-07-31T13:39:54.170Z</time>
      </trkpt>
      <trkpt lat="42.98297333" lon="-1.12614833">
        <ele>863.0</ele>
        <time>2019-07-31T13:39:55.176Z</time>
      </trkpt>
      <trkpt lat="42.98296667" lon="-1.12613333">
        <ele>862.0</ele>
        <time>2019-07-31T13:39:56.182Z</time>
      </trkpt>
      <trkpt lat="42.982955" lon="-1.12612167">
        <ele>861.0</ele>
        <time>2019-07-31T13:39:57.062Z</time>
      </trkpt>
      <trkpt lat="42.98294667" lon="-1.12611167">
        <ele>861.0</ele>
        <time>2019-07-31T13:39:58.066Z</time>
      </trkpt>
      <trkpt lat="42.98293833" lon="-1.12609667">
        <ele>862.0</ele>
        <time>2019-07-31T13:39:59.072Z</time>
      </trkpt>
      <trkpt lat="42.98292667" lon="-1.12607833">
        <ele>862.0</ele>
        <time>2019-07-31T13:40:00.078Z</time>
      </trkpt>
      <trkpt lat="42.98291667" lon="-1.12606">
        <ele>862.0</ele>
        <time>2019-07-31T13:40:01.083Z</time>
      </trkpt>
      <trkpt lat="42.98291" lon="-1.126045">
        <ele>861.0</ele>
        <time>2019-07-31T13:40:02.088Z</time>
      </trkpt>
      <trkpt lat="42.98291" lon="-1.12602833">
        <ele>861.0</ele>
        <time>2019-07-31T13:40:03.093Z</time>
      </trkpt>
      <trkpt lat="42.982905" lon="-1.12600833">
        <ele>860.0</ele>
        <time>2019-07-31T13:40:04.098Z</time>
      </trkpt>
      <trkpt lat="42.982895" lon="-1.12599">
        <ele>861.0</ele>
        <time>2019-07-31T13:40:05.104Z</time>
      </trkpt>
      <trkpt lat="42.982885" lon="-1.12597167">
        <ele>860.0</ele>
        <time>2019-07-31T13:40:06.109Z</time>
      </trkpt>
      <trkpt lat="42.982875" lon="-1.12595167">
        <ele>860.0</ele>
        <time>2019-07-31T13:40:07.115Z</time>
      </trkpt>
      <trkpt lat="42.98286833" lon="-1.12593333">
        <ele>860.0</ele>
        <time>2019-07-31T13:40:08.122Z</time>
      </trkpt>
      <trkpt lat="42.98286" lon="-1.12591667">
        <ele>861.0</ele>
        <time>2019-07-31T13:40:09.129Z</time>
      </trkpt>
      <trkpt lat="42.98285167" lon="-1.12589667">
        <ele>861.0</ele>
        <time>2019-07-31T13:40:10.134Z</time>
      </trkpt>
      <trkpt lat="42.98284167" lon="-1.12588">
        <ele>861.0</ele>
        <time>2019-07-31T13:40:11.139Z</time>
      </trkpt>
      <trkpt lat="42.98283667" lon="-1.125865">
        <ele>861.0</ele>
        <time>2019-07-31T13:40:12.143Z</time>
      </trkpt>
      <trkpt lat="42.98283333" lon="-1.12585667">
        <ele>861.0</ele>
        <time>2019-07-31T13:40:13.148Z</time>
      </trkpt>
      <trkpt lat="42.98282833" lon="-1.12584833">
        <ele>861.0</ele>
        <time>2019-07-31T13:40:14.153Z</time>
      </trkpt>
      <trkpt lat="42.98281833" lon="-1.12583667">
        <ele>861.0</ele>
        <time>2019-07-31T13:40:15.157Z</time>
      </trkpt>
      <trkpt lat="42.98281167" lon="-1.12582333">
        <ele>860.0</ele>
        <time>2019-07-31T13:40:16.163Z</time>
      </trkpt>
      <trkpt lat="42.98280667" lon="-1.12581">
        <ele>860.0</ele>
        <time>2019-07-31T13:40:17.166Z</time>
      </trkpt>
      <trkpt lat="42.982805" lon="-1.1258">
        <ele>860.0</ele>
        <time>2019-07-31T13:40:18.172Z</time>
      </trkpt>
      <trkpt lat="42.98280333" lon="-1.12578833">
        <ele>858.0</ele>
        <time>2019-07-31T13:40:19.176Z</time>
      </trkpt>
      <trkpt lat="42.9828" lon="-1.12577667">
        <ele>857.0</ele>
        <time>2019-07-31T13:40:20.181Z</time>
      </trkpt>
      <trkpt lat="42.9828" lon="-1.12576333">
        <ele>857.0</ele>
        <time>2019-07-31T13:40:21.186Z</time>
      </trkpt>
      <trkpt lat="42.98279333" lon="-1.12574833">
        <ele>857.0</ele>
        <time>2019-07-31T13:40:22.065Z</time>
      </trkpt>
      <trkpt lat="42.98279" lon="-1.12573">
        <ele>856.0</ele>
        <time>2019-07-31T13:40:23.070Z</time>
      </trkpt>
      <trkpt lat="42.98278833" lon="-1.12571167">
        <ele>856.0</ele>
        <time>2019-07-31T13:40:24.076Z</time>
      </trkpt>
      <trkpt lat="42.98279" lon="-1.125695">
        <ele>855.0</ele>
        <time>2019-07-31T13:40:25.081Z</time>
      </trkpt>
      <trkpt lat="42.98278667" lon="-1.12567667">
        <ele>855.0</ele>
        <time>2019-07-31T13:40:26.088Z</time>
      </trkpt>
      <trkpt lat="42.982785" lon="-1.12566333">
        <ele>854.0</ele>
        <time>2019-07-31T13:40:27.092Z</time>
      </trkpt>
      <trkpt lat="42.98278" lon="-1.125645">
        <ele>854.0</ele>
        <time>2019-07-31T13:40:28.097Z</time>
      </trkpt>
      <trkpt lat="42.98277833" lon="-1.12562333">
        <ele>853.0</ele>
        <time>2019-07-31T13:40:29.101Z</time>
      </trkpt>
      <trkpt lat="42.98277833" lon="-1.12560667">
        <ele>853.0</ele>
        <time>2019-07-31T13:40:30.107Z</time>
      </trkpt>
      <trkpt lat="42.98278" lon="-1.12559">
        <ele>853.0</ele>
        <time>2019-07-31T13:40:31.112Z</time>
      </trkpt>
      <trkpt lat="42.98278333" lon="-1.12557">
        <ele>852.0</ele>
        <time>2019-07-31T13:40:32.118Z</time>
      </trkpt>
      <trkpt lat="42.98278833" lon="-1.12555167">
        <ele>852.0</ele>
        <time>2019-07-31T13:40:33.122Z</time>
      </trkpt>
      <trkpt lat="42.98279667" lon="-1.12553833">
        <ele>852.0</ele>
        <time>2019-07-31T13:40:34.125Z</time>
      </trkpt>
      <trkpt lat="42.98280333" lon="-1.125525">
        <ele>851.0</ele>
        <time>2019-07-31T13:40:35.132Z</time>
      </trkpt>
      <trkpt lat="42.98280667" lon="-1.12551333">
        <ele>850.0</ele>
        <time>2019-07-31T13:40:36.137Z</time>
      </trkpt>
      <trkpt lat="42.98280667" lon="-1.12550167">
        <ele>849.0</ele>
        <time>2019-07-31T13:40:37.144Z</time>
      </trkpt>
      <trkpt lat="42.982805" lon="-1.125485">
        <ele>848.0</ele>
        <time>2019-07-31T13:40:38.149Z</time>
      </trkpt>
      <trkpt lat="42.98281" lon="-1.125465">
        <ele>848.0</ele>
        <time>2019-07-31T13:40:39.154Z</time>
      </trkpt>
      <trkpt lat="42.98281333" lon="-1.12544667">
        <ele>848.0</ele>
        <time>2019-07-31T13:40:40.159Z</time>
      </trkpt>
      <trkpt lat="42.98281833" lon="-1.125435">
        <ele>847.0</ele>
        <time>2019-07-31T13:40:41.166Z</time>
      </trkpt>
      <trkpt lat="42.98282167" lon="-1.12542">
        <ele>846.0</ele>
        <time>2019-07-31T13:40:42.172Z</time>
      </trkpt>
      <trkpt lat="42.98282333" lon="-1.12540167">
        <ele>845.0</ele>
        <time>2019-07-31T13:40:43.178Z</time>
      </trkpt>
      <trkpt lat="42.98282833" lon="-1.12538667">
        <ele>844.0</ele>
        <time>2019-07-31T13:40:44.185Z</time>
      </trkpt>
      <trkpt lat="42.98283167" lon="-1.12536833">
        <ele>844.0</ele>
        <time>2019-07-31T13:40:45.065Z</time>
      </trkpt>
      <trkpt lat="42.982835" lon="-1.12535333">
        <ele>844.0</ele>
        <time>2019-07-31T13:40:46.070Z</time>
      </trkpt>
      <trkpt lat="42.98283667" lon="-1.12534167">
        <ele>844.0</ele>
        <time>2019-07-31T13:40:47.075Z</time>
      </trkpt>
      <trkpt lat="42.98284" lon="-1.12532333">
        <ele>845.0</ele>
        <time>2019-07-31T13:40:48.081Z</time>
      </trkpt>
      <trkpt lat="42.98284167" lon="-1.12531">
        <ele>845.0</ele>
        <time>2019-07-31T13:40:49.086Z</time>
      </trkpt>
      <trkpt lat="42.982845" lon="-1.12529167">
        <ele>845.0</ele>
        <time>2019-07-31T13:40:50.091Z</time>
      </trkpt>
      <trkpt lat="42.98284833" lon="-1.12528333">
        <ele>846.0</ele>
        <time>2019-07-31T13:40:51.094Z</time>
      </trkpt>
      <trkpt lat="42.98284833" lon="-1.12527667">
        <ele>846.0</ele>
        <time>2019-07-31T13:40:52.099Z</time>
      </trkpt>
      <trkpt lat="42.98284833" lon="-1.12527333">
        <ele>846.0</ele>
        <time>2019-07-31T13:40:53.105Z</time>
      </trkpt>
      <trkpt lat="42.98284667" lon="-1.12527">
        <ele>846.0</ele>
        <time>2019-07-31T13:40:54.112Z</time>
      </trkpt>
      <trkpt lat="42.982845" lon="-1.12526833">
        <ele>845.0</ele>
        <time>2019-07-31T13:40:55.119Z</time>
      </trkpt>
      <trkpt lat="42.98284333" lon="-1.12526667">
        <ele>845.0</ele>
        <time>2019-07-31T13:40:56.125Z</time>
      </trkpt>
      <trkpt lat="42.98284" lon="-1.12526667">
        <ele>844.0</ele>
        <time>2019-07-31T13:40:57.131Z</time>
      </trkpt>
      <trkpt lat="42.98284167" lon="-1.12526167">
        <ele>845.0</ele>
        <time>2019-07-31T13:40:58.136Z</time>
      </trkpt>
      <trkpt lat="42.982845" lon="-1.12525167">
        <ele>845.0</ele>
        <time>2019-07-31T13:40:59.143Z</time>
      </trkpt>
      <trkpt lat="42.98284667" lon="-1.12524">
        <ele>845.0</ele>
        <time>2019-07-31T13:41:00.147Z</time>
      </trkpt>
      <trkpt lat="42.98285167" lon="-1.125225">
        <ele>845.0</ele>
        <time>2019-07-31T13:41:01.152Z</time>
      </trkpt>
      <trkpt lat="42.98285667" lon="-1.125205">
        <ele>844.0</ele>
        <time>2019-07-31T13:41:02.157Z</time>
      </trkpt>
      <trkpt lat="42.98286167" lon="-1.12518833">
        <ele>845.0</ele>
        <time>2019-07-31T13:41:03.161Z</time>
      </trkpt>
      <trkpt lat="42.98287167" lon="-1.12517667">
        <ele>844.0</ele>
        <time>2019-07-31T13:41:04.165Z</time>
      </trkpt>
      <trkpt lat="42.982875" lon="-1.12516">
        <ele>845.0</ele>
        <time>2019-07-31T13:41:05.171Z</time>
      </trkpt>
      <trkpt lat="42.98288" lon="-1.12514833">
        <ele>845.0</ele>
        <time>2019-07-31T13:41:06.176Z</time>
      </trkpt>
      <trkpt lat="42.98288667" lon="-1.125135">
        <ele>845.0</ele>
        <time>2019-07-31T13:41:07.180Z</time>
      </trkpt>
      <trkpt lat="42.982895" lon="-1.12512">
        <ele>845.0</ele>
        <time>2019-07-31T13:41:08.184Z</time>
      </trkpt>
      <trkpt lat="42.9829" lon="-1.12510667">
        <ele>845.0</ele>
        <time>2019-07-31T13:41:09.065Z</time>
      </trkpt>
      <trkpt lat="42.98291" lon="-1.12509667">
        <ele>845.0</ele>
        <time>2019-07-31T13:41:10.070Z</time>
      </trkpt>
      <trkpt lat="42.98292333" lon="-1.12508167">
        <ele>844.0</ele>
        <time>2019-07-31T13:41:11.074Z</time>
      </trkpt>
      <trkpt lat="42.98293167" lon="-1.12507167">
        <ele>843.0</ele>
        <time>2019-07-31T13:41:12.078Z</time>
      </trkpt>
      <trkpt lat="42.98294" lon="-1.12505167">
        <ele>842.0</ele>
        <time>2019-07-31T13:41:13.082Z</time>
      </trkpt>
      <trkpt lat="42.98294833" lon="-1.12503833">
        <ele>843.0</ele>
        <time>2019-07-31T13:41:14.089Z</time>
      </trkpt>
      <trkpt lat="42.98295833" lon="-1.125025">
        <ele>842.0</ele>
        <time>2019-07-31T13:41:15.094Z</time>
      </trkpt>
      <trkpt lat="42.98297" lon="-1.12501167">
        <ele>843.0</ele>
        <time>2019-07-31T13:41:16.100Z</time>
      </trkpt>
      <trkpt lat="42.98298167" lon="-1.125">
        <ele>843.0</ele>
        <time>2019-07-31T13:41:17.107Z</time>
      </trkpt>
      <trkpt lat="42.98299" lon="-1.12499">
        <ele>843.0</ele>
        <time>2019-07-31T13:41:18.111Z</time>
      </trkpt>
      <trkpt lat="42.98300333" lon="-1.12498">
        <ele>843.0</ele>
        <time>2019-07-31T13:41:19.118Z</time>
      </trkpt>
      <trkpt lat="42.983015" lon="-1.12496833">
        <ele>843.0</ele>
        <time>2019-07-31T13:41:20.122Z</time>
      </trkpt>
      <trkpt lat="42.98302667" lon="-1.12496">
        <ele>843.0</ele>
        <time>2019-07-31T13:41:21.127Z</time>
      </trkpt>
      <trkpt lat="42.98303833" lon="-1.124955">
        <ele>842.0</ele>
        <time>2019-07-31T13:41:22.130Z</time>
      </trkpt>
      <trkpt lat="42.98304667" lon="-1.124945">
        <ele>843.0</ele>
        <time>2019-07-31T13:41:23.133Z</time>
      </trkpt>
      <trkpt lat="42.98305833" lon="-1.12493667">
        <ele>843.0</ele>
        <time>2019-07-31T13:41:24.136Z</time>
      </trkpt>
      <trkpt lat="42.98306833" lon="-1.12493">
        <ele>843.0</ele>
        <time>2019-07-31T13:41:25.141Z</time>
      </trkpt>
      <trkpt lat="42.98308" lon="-1.12492">
        <ele>843.0</ele>
        <time>2019-07-31T13:41:26.146Z</time>
      </trkpt>
      <trkpt lat="42.983095" lon="-1.12490833">
        <ele>844.0</ele>
        <time>2019-07-31T13:41:27.153Z</time>
      </trkpt>
      <trkpt lat="42.98310833" lon="-1.12489667">
        <ele>845.0</ele>
        <time>2019-07-31T13:41:28.160Z</time>
      </trkpt>
      <trkpt lat="42.98312167" lon="-1.12488167">
        <ele>845.0</ele>
        <time>2019-07-31T13:41:29.166Z</time>
      </trkpt>
      <trkpt lat="42.98313" lon="-1.12487">
        <ele>846.0</ele>
        <time>2019-07-31T13:41:30.172Z</time>
      </trkpt>
      <trkpt lat="42.98314333" lon="-1.12485833">
        <ele>846.0</ele>
        <time>2019-07-31T13:41:31.177Z</time>
      </trkpt>
      <trkpt lat="42.98315833" lon="-1.12484667">
        <ele>847.0</ele>
        <time>2019-07-31T13:41:32.182Z</time>
      </trkpt>
      <trkpt lat="42.983175" lon="-1.12484">
        <ele>847.0</ele>
        <time>2019-07-31T13:41:33.185Z</time>
      </trkpt>
      <trkpt lat="42.98318833" lon="-1.12483167">
        <ele>847.0</ele>
        <time>2019-07-31T13:41:34.063Z</time>
      </trkpt>
      <trkpt lat="42.98320167" lon="-1.12482667">
        <ele>847.0</ele>
        <time>2019-07-31T13:41:35.069Z</time>
      </trkpt>
      <trkpt lat="42.98321167" lon="-1.12481833">
        <ele>847.0</ele>
        <time>2019-07-31T13:41:36.074Z</time>
      </trkpt>
      <trkpt lat="42.983225" lon="-1.12480667">
        <ele>847.0</ele>
        <time>2019-07-31T13:41:37.080Z</time>
      </trkpt>
      <trkpt lat="42.983235" lon="-1.124795">
        <ele>846.0</ele>
        <time>2019-07-31T13:41:38.086Z</time>
      </trkpt>
      <trkpt lat="42.983245" lon="-1.12478667">
        <ele>845.0</ele>
        <time>2019-07-31T13:41:39.091Z</time>
      </trkpt>
      <trkpt lat="42.98325333" lon="-1.12477833">
        <ele>845.0</ele>
        <time>2019-07-31T13:41:40.098Z</time>
      </trkpt>
      <trkpt lat="42.98326833" lon="-1.12476667">
        <ele>845.0</ele>
        <time>2019-07-31T13:41:41.104Z</time>
      </trkpt>
      <trkpt lat="42.98328167" lon="-1.12475333">
        <ele>844.0</ele>
        <time>2019-07-31T13:41:42.109Z</time>
      </trkpt>
      <trkpt lat="42.98329333" lon="-1.12474167">
        <ele>844.0</ele>
        <time>2019-07-31T13:41:43.113Z</time>
      </trkpt>
      <trkpt lat="42.98330333" lon="-1.12473167">
        <ele>844.0</ele>
        <time>2019-07-31T13:41:44.119Z</time>
      </trkpt>
      <trkpt lat="42.98331333" lon="-1.12471833">
        <ele>845.0</ele>
        <time>2019-07-31T13:41:45.124Z</time>
      </trkpt>
      <trkpt lat="42.983325" lon="-1.1247">
        <ele>845.0</ele>
        <time>2019-07-31T13:41:46.129Z</time>
      </trkpt>
      <trkpt lat="42.98333667" lon="-1.12468333">
        <ele>845.0</ele>
        <time>2019-07-31T13:41:47.132Z</time>
      </trkpt>
      <trkpt lat="42.98334833" lon="-1.12466833">
        <ele>844.0</ele>
        <time>2019-07-31T13:41:48.137Z</time>
      </trkpt>
      <trkpt lat="42.98335833" lon="-1.12465333">
        <ele>844.0</ele>
        <time>2019-07-31T13:41:49.143Z</time>
      </trkpt>
      <trkpt lat="42.98336833" lon="-1.12464333">
        <ele>844.0</ele>
        <time>2019-07-31T13:41:50.149Z</time>
      </trkpt>
      <trkpt lat="42.98338167" lon="-1.12462333">
        <ele>844.0</ele>
        <time>2019-07-31T13:41:51.156Z</time>
      </trkpt>
      <trkpt lat="42.98339" lon="-1.12460333">
        <ele>845.0</ele>
        <time>2019-07-31T13:41:52.162Z</time>
      </trkpt>
      <trkpt lat="42.98339833" lon="-1.12459">
        <ele>845.0</ele>
        <time>2019-07-31T13:41:53.171Z</time>
      </trkpt>
      <trkpt lat="42.983405" lon="-1.12457167">
        <ele>845.0</ele>
        <time>2019-07-31T13:41:54.175Z</time>
      </trkpt>
      <trkpt lat="42.98341333" lon="-1.12456167">
        <ele>844.0</ele>
        <time>2019-07-31T13:41:55.180Z</time>
      </trkpt>
      <trkpt lat="42.983425" lon="-1.12454333">
        <ele>844.0</ele>
        <time>2019-07-31T13:41:56.185Z</time>
      </trkpt>
      <trkpt lat="42.98343333" lon="-1.12452667">
        <ele>844.0</ele>
        <time>2019-07-31T13:41:57.064Z</time>
      </trkpt>
      <trkpt lat="42.98344667" lon="-1.12451167">
        <ele>844.0</ele>
        <time>2019-07-31T13:41:58.069Z</time>
      </trkpt>
      <trkpt lat="42.983455" lon="-1.12449167">
        <ele>844.0</ele>
        <time>2019-07-31T13:41:59.073Z</time>
      </trkpt>
      <trkpt lat="42.98346167" lon="-1.12447167">
        <ele>845.0</ele>
        <time>2019-07-31T13:42:00.081Z</time>
      </trkpt>
      <trkpt lat="42.98346667" lon="-1.12445667">
        <ele>845.0</ele>
        <time>2019-07-31T13:42:01.088Z</time>
      </trkpt>
      <trkpt lat="42.98347167" lon="-1.12443333">
        <ele>845.0</ele>
        <time>2019-07-31T13:42:02.094Z</time>
      </trkpt>
      <trkpt lat="42.98347833" lon="-1.12441667">
        <ele>844.0</ele>
        <time>2019-07-31T13:42:03.099Z</time>
      </trkpt>
      <trkpt lat="42.98348667" lon="-1.1244">
        <ele>844.0</ele>
        <time>2019-07-31T13:42:04.105Z</time>
      </trkpt>
      <trkpt lat="42.983495" lon="-1.12439167">
        <ele>844.0</ele>
        <time>2019-07-31T13:42:05.110Z</time>
      </trkpt>
      <trkpt lat="42.983505" lon="-1.12437333">
        <ele>843.0</ele>
        <time>2019-07-31T13:42:06.114Z</time>
      </trkpt>
      <trkpt lat="42.98351167" lon="-1.12436167">
        <ele>843.0</ele>
        <time>2019-07-31T13:42:07.118Z</time>
      </trkpt>
      <trkpt lat="42.98352167" lon="-1.124345">
        <ele>842.0</ele>
        <time>2019-07-31T13:42:08.124Z</time>
      </trkpt>
      <trkpt lat="42.98353" lon="-1.12433167">
        <ele>842.0</ele>
        <time>2019-07-31T13:42:09.130Z</time>
      </trkpt>
      <trkpt lat="42.98353667" lon="-1.12432">
        <ele>842.0</ele>
        <time>2019-07-31T13:42:10.135Z</time>
      </trkpt>
      <trkpt lat="42.98354167" lon="-1.12430333">
        <ele>841.0</ele>
        <time>2019-07-31T13:42:11.142Z</time>
      </trkpt>
      <trkpt lat="42.98355" lon="-1.124285">
        <ele>841.0</ele>
        <time>2019-07-31T13:42:12.149Z</time>
      </trkpt>
      <trkpt lat="42.98355833" lon="-1.12426667">
        <ele>842.0</ele>
        <time>2019-07-31T13:42:13.155Z</time>
      </trkpt>
      <trkpt lat="42.983565" lon="-1.124255">
        <ele>842.0</ele>
        <time>2019-07-31T13:42:14.160Z</time>
      </trkpt>
      <trkpt lat="42.98357167" lon="-1.124245">
        <ele>841.0</ele>
        <time>2019-07-31T13:42:15.164Z</time>
      </trkpt>
      <trkpt lat="42.98358" lon="-1.12423">
        <ele>841.0</ele>
        <time>2019-07-31T13:42:16.169Z</time>
      </trkpt>
      <trkpt lat="42.98358667" lon="-1.12421667">
        <ele>841.0</ele>
        <time>2019-07-31T13:42:17.174Z</time>
      </trkpt>
      <trkpt lat="42.98359" lon="-1.12420167">
        <ele>841.0</ele>
        <time>2019-07-31T13:42:18.174Z</time>
      </trkpt>
      <trkpt lat="42.98359333" lon="-1.12418667">
        <ele>841.0</ele>
        <time>2019-07-31T13:42:19.178Z</time>
      </trkpt>
      <trkpt lat="42.983595" lon="-1.12416833">
        <ele>842.0</ele>
        <time>2019-07-31T13:42:20.185Z</time>
      </trkpt>
      <trkpt lat="42.98360167" lon="-1.12415667">
        <ele>842.0</ele>
        <time>2019-07-31T13:42:21.065Z</time>
      </trkpt>
      <trkpt lat="42.98360667" lon="-1.12414333">
        <ele>843.0</ele>
        <time>2019-07-31T13:42:22.071Z</time>
      </trkpt>
      <trkpt lat="42.983615" lon="-1.12412833">
        <ele>843.0</ele>
        <time>2019-07-31T13:42:23.076Z</time>
      </trkpt>
      <trkpt lat="42.98362167" lon="-1.12411333">
        <ele>843.0</ele>
        <time>2019-07-31T13:42:24.082Z</time>
      </trkpt>
      <trkpt lat="42.98362667" lon="-1.12409667">
        <ele>843.0</ele>
        <time>2019-07-31T13:42:25.086Z</time>
      </trkpt>
      <trkpt lat="42.98363333" lon="-1.12408">
        <ele>843.0</ele>
        <time>2019-07-31T13:42:26.091Z</time>
      </trkpt>
      <trkpt lat="42.98364333" lon="-1.12406333">
        <ele>844.0</ele>
        <time>2019-07-31T13:42:27.094Z</time>
      </trkpt>
      <trkpt lat="42.98365" lon="-1.12404333">
        <ele>843.0</ele>
        <time>2019-07-31T13:42:28.100Z</time>
      </trkpt>
      <trkpt lat="42.98365167" lon="-1.12402167">
        <ele>844.0</ele>
        <time>2019-07-31T13:42:29.107Z</time>
      </trkpt>
      <trkpt lat="42.98365167" lon="-1.12399833">
        <ele>844.0</ele>
        <time>2019-07-31T13:42:30.112Z</time>
      </trkpt>
      <trkpt lat="42.98365333" lon="-1.12397667">
        <ele>844.0</ele>
        <time>2019-07-31T13:42:31.116Z</time>
      </trkpt>
      <trkpt lat="42.98365333" lon="-1.12395667">
        <ele>844.0</ele>
        <time>2019-07-31T13:42:32.123Z</time>
      </trkpt>
      <trkpt lat="42.983655" lon="-1.12393833">
        <ele>845.0</ele>
        <time>2019-07-31T13:42:33.128Z</time>
      </trkpt>
      <trkpt lat="42.983665" lon="-1.12392">
        <ele>845.0</ele>
        <time>2019-07-31T13:42:34.133Z</time>
      </trkpt>
      <trkpt lat="42.98367833" lon="-1.12390667">
        <ele>846.0</ele>
        <time>2019-07-31T13:42:35.139Z</time>
      </trkpt>
      <trkpt lat="42.98369833" lon="-1.1239">
        <ele>845.0</ele>
        <time>2019-07-31T13:42:36.145Z</time>
      </trkpt>
      <trkpt lat="42.98371333" lon="-1.12389">
        <ele>845.0</ele>
        <time>2019-07-31T13:42:37.147Z</time>
      </trkpt>
      <trkpt lat="42.98372667" lon="-1.12387">
        <ele>845.0</ele>
        <time>2019-07-31T13:42:38.154Z</time>
      </trkpt>
      <trkpt lat="42.983735" lon="-1.12385333">
        <ele>845.0</ele>
        <time>2019-07-31T13:42:39.161Z</time>
      </trkpt>
      <trkpt lat="42.98373667" lon="-1.12382333">
        <ele>847.0</ele>
        <time>2019-07-31T13:42:40.166Z</time>
      </trkpt>
      <trkpt lat="42.98374167" lon="-1.123795">
        <ele>849.0</ele>
        <time>2019-07-31T13:42:41.167Z</time>
      </trkpt>
      <trkpt lat="42.98374833" lon="-1.12376667">
        <ele>850.0</ele>
        <time>2019-07-31T13:42:42.173Z</time>
      </trkpt>
      <trkpt lat="42.98375667" lon="-1.123745">
        <ele>852.0</ele>
        <time>2019-07-31T13:42:43.177Z</time>
      </trkpt>
      <trkpt lat="42.98376667" lon="-1.12372">
        <ele>854.0</ele>
        <time>2019-07-31T13:42:44.185Z</time>
      </trkpt>
      <trkpt lat="42.98377167" lon="-1.12369667">
        <ele>856.0</ele>
        <time>2019-07-31T13:42:45.064Z</time>
      </trkpt>
      <trkpt lat="42.98377333" lon="-1.12368">
        <ele>858.0</ele>
        <time>2019-07-31T13:42:46.069Z</time>
      </trkpt>
      <trkpt lat="42.983775" lon="-1.12366667">
        <ele>859.0</ele>
        <time>2019-07-31T13:42:47.074Z</time>
      </trkpt>
      <trkpt lat="42.98378167" lon="-1.12365833">
        <ele>861.0</ele>
        <time>2019-07-31T13:42:48.079Z</time>
      </trkpt>
      <trkpt lat="42.98379" lon="-1.12364333">
        <ele>863.0</ele>
        <time>2019-07-31T13:42:49.086Z</time>
      </trkpt>
      <trkpt lat="42.98379833" lon="-1.12362833">
        <ele>864.0</ele>
        <time>2019-07-31T13:42:50.091Z</time>
      </trkpt>
      <trkpt lat="42.983805" lon="-1.12361333">
        <ele>864.0</ele>
        <time>2019-07-31T13:42:51.093Z</time>
      </trkpt>
      <trkpt lat="42.98381333" lon="-1.1236">
        <ele>864.0</ele>
        <time>2019-07-31T13:42:52.097Z</time>
      </trkpt>
      <trkpt lat="42.983825" lon="-1.12358667">
        <ele>864.0</ele>
        <time>2019-07-31T13:42:53.099Z</time>
      </trkpt>
      <trkpt lat="42.98383333" lon="-1.123575">
        <ele>864.0</ele>
        <time>2019-07-31T13:42:54.102Z</time>
      </trkpt>
      <trkpt lat="42.98384333" lon="-1.12356167">
        <ele>865.0</ele>
        <time>2019-07-31T13:42:55.106Z</time>
      </trkpt>
      <trkpt lat="42.98385" lon="-1.123545">
        <ele>865.0</ele>
        <time>2019-07-31T13:42:56.110Z</time>
      </trkpt>
      <trkpt lat="42.98385333" lon="-1.12353167">
        <ele>865.0</ele>
        <time>2019-07-31T13:42:57.115Z</time>
      </trkpt>
      <trkpt lat="42.98386" lon="-1.12351333">
        <ele>866.0</ele>
        <time>2019-07-31T13:42:58.121Z</time>
      </trkpt>
      <trkpt lat="42.98386667" lon="-1.12349833">
        <ele>866.0</ele>
        <time>2019-07-31T13:42:59.126Z</time>
      </trkpt>
      <trkpt lat="42.98387333" lon="-1.12348167">
        <ele>867.0</ele>
        <time>2019-07-31T13:43:00.132Z</time>
      </trkpt>
      <trkpt lat="42.98388" lon="-1.12346333">
        <ele>868.0</ele>
        <time>2019-07-31T13:43:01.136Z</time>
      </trkpt>
      <trkpt lat="42.98388333" lon="-1.12344833">
        <ele>869.0</ele>
        <time>2019-07-31T13:43:02.142Z</time>
      </trkpt>
      <trkpt lat="42.98388833" lon="-1.12343">
        <ele>869.0</ele>
        <time>2019-07-31T13:43:03.147Z</time>
      </trkpt>
      <trkpt lat="42.98389167" lon="-1.12341167">
        <ele>870.0</ele>
        <time>2019-07-31T13:43:04.153Z</time>
      </trkpt>
      <trkpt lat="42.98389667" lon="-1.123395">
        <ele>870.0</ele>
        <time>2019-07-31T13:43:05.159Z</time>
      </trkpt>
      <trkpt lat="42.9839" lon="-1.12337833">
        <ele>870.0</ele>
        <time>2019-07-31T13:43:06.163Z</time>
      </trkpt>
      <trkpt lat="42.98390333" lon="-1.12336167">
        <ele>871.0</ele>
        <time>2019-07-31T13:43:07.168Z</time>
      </trkpt>
      <trkpt lat="42.98391167" lon="-1.12334167">
        <ele>871.0</ele>
        <time>2019-07-31T13:43:08.175Z</time>
      </trkpt>
      <trkpt lat="42.983915" lon="-1.12332833">
        <ele>871.0</ele>
        <time>2019-07-31T13:43:09.182Z</time>
      </trkpt>
      <trkpt lat="42.98391833" lon="-1.123315">
        <ele>872.0</ele>
        <time>2019-07-31T13:43:10.062Z</time>
      </trkpt>
      <trkpt lat="42.98392" lon="-1.12330167">
        <ele>873.0</ele>
        <time>2019-07-31T13:43:11.067Z</time>
      </trkpt>
      <trkpt lat="42.98392167" lon="-1.12329">
        <ele>874.0</ele>
        <time>2019-07-31T13:43:12.073Z</time>
      </trkpt>
      <trkpt lat="42.98392667" lon="-1.123265">
        <ele>874.0</ele>
        <time>2019-07-31T13:43:13.079Z</time>
      </trkpt>
      <trkpt lat="42.98393167" lon="-1.12324">
        <ele>876.0</ele>
        <time>2019-07-31T13:43:14.086Z</time>
      </trkpt>
      <trkpt lat="42.98393333" lon="-1.12321833">
        <ele>878.0</ele>
        <time>2019-07-31T13:43:15.092Z</time>
      </trkpt>
      <trkpt lat="42.98393667" lon="-1.12319667">
        <ele>879.0</ele>
        <time>2019-07-31T13:43:16.098Z</time>
      </trkpt>
      <trkpt lat="42.98394" lon="-1.12318167">
        <ele>881.0</ele>
        <time>2019-07-31T13:43:17.103Z</time>
      </trkpt>
      <trkpt lat="42.98394167" lon="-1.12316">
        <ele>882.0</ele>
        <time>2019-07-31T13:43:18.108Z</time>
      </trkpt>
      <trkpt lat="42.98394333" lon="-1.12313667">
        <ele>884.0</ele>
        <time>2019-07-31T13:43:19.114Z</time>
      </trkpt>
      <trkpt lat="42.98394333" lon="-1.12311667">
        <ele>886.0</ele>
        <time>2019-07-31T13:43:20.121Z</time>
      </trkpt>
      <trkpt lat="42.98394333" lon="-1.123105">
        <ele>886.0</ele>
        <time>2019-07-31T13:43:21.125Z</time>
      </trkpt>
      <trkpt lat="42.98394333" lon="-1.12309667">
        <ele>888.0</ele>
        <time>2019-07-31T13:43:22.130Z</time>
      </trkpt>
      <trkpt lat="42.98393667" lon="-1.12308667">
        <ele>889.0</ele>
        <time>2019-07-31T13:43:23.133Z</time>
      </trkpt>
      <trkpt lat="42.98393167" lon="-1.12307667">
        <ele>890.0</ele>
        <time>2019-07-31T13:43:24.137Z</time>
      </trkpt>
      <trkpt lat="42.98392167" lon="-1.12306833">
        <ele>892.0</ele>
        <time>2019-07-31T13:43:25.141Z</time>
      </trkpt>
      <trkpt lat="42.98390333" lon="-1.12305667">
        <ele>893.0</ele>
        <time>2019-07-31T13:43:26.147Z</time>
      </trkpt>
      <trkpt lat="42.98389167" lon="-1.123035">
        <ele>894.0</ele>
        <time>2019-07-31T13:43:27.152Z</time>
      </trkpt>
      <trkpt lat="42.98387667" lon="-1.12301167">
        <ele>896.0</ele>
        <time>2019-07-31T13:43:28.158Z</time>
      </trkpt>
      <trkpt lat="42.98386333" lon="-1.12298333">
        <ele>897.0</ele>
        <time>2019-07-31T13:43:29.165Z</time>
      </trkpt>
      <trkpt lat="42.98384333" lon="-1.12296667">
        <ele>899.0</ele>
        <time>2019-07-31T13:43:30.169Z</time>
      </trkpt>
      <trkpt lat="42.98382833" lon="-1.12294333">
        <ele>899.0</ele>
        <time>2019-07-31T13:43:31.173Z</time>
      </trkpt>
      <trkpt lat="42.98381667" lon="-1.12291833">
        <ele>898.0</ele>
        <time>2019-07-31T13:43:32.177Z</time>
      </trkpt>
      <trkpt lat="42.98381667" lon="-1.12288833">
        <ele>899.0</ele>
        <time>2019-07-31T13:43:33.182Z</time>
      </trkpt>
      <trkpt lat="42.98381167" lon="-1.12287167">
        <ele>900.0</ele>
        <time>2019-07-31T13:43:34.063Z</time>
      </trkpt>
      <trkpt lat="42.98380667" lon="-1.12284333">
        <ele>902.0</ele>
        <time>2019-07-31T13:43:35.069Z</time>
      </trkpt>
      <trkpt lat="42.983805" lon="-1.12282167">
        <ele>903.0</ele>
        <time>2019-07-31T13:43:36.075Z</time>
      </trkpt>
      <trkpt lat="42.98379333" lon="-1.1228">
        <ele>903.0</ele>
        <time>2019-07-31T13:43:37.081Z</time>
      </trkpt>
      <trkpt lat="42.98378333" lon="-1.12278167">
        <ele>905.0</ele>
        <time>2019-07-31T13:43:38.087Z</time>
      </trkpt>
      <trkpt lat="42.98376833" lon="-1.12275667">
        <ele>905.0</ele>
        <time>2019-07-31T13:43:39.092Z</time>
      </trkpt>
      <trkpt lat="42.98375" lon="-1.12273667">
        <ele>904.0</ele>
        <time>2019-07-31T13:43:40.098Z</time>
      </trkpt>
      <trkpt lat="42.983735" lon="-1.12271333">
        <ele>902.0</ele>
        <time>2019-07-31T13:43:41.103Z</time>
      </trkpt>
      <trkpt lat="42.98372167" lon="-1.12269">
        <ele>900.0</ele>
        <time>2019-07-31T13:43:42.108Z</time>
      </trkpt>
      <trkpt lat="42.98371333" lon="-1.12266667">
        <ele>899.0</ele>
        <time>2019-07-31T13:43:43.114Z</time>
      </trkpt>
      <trkpt lat="42.98370333" lon="-1.12264167">
        <ele>899.0</ele>
        <time>2019-07-31T13:43:44.120Z</time>
      </trkpt>
      <trkpt lat="42.98369833" lon="-1.122625">
        <ele>899.0</ele>
        <time>2019-07-31T13:43:45.125Z</time>
      </trkpt>
      <trkpt lat="42.98368333" lon="-1.12261833">
        <ele>899.0</ele>
        <time>2019-07-31T13:43:46.130Z</time>
      </trkpt>
      <trkpt lat="42.98367667" lon="-1.12259833">
        <ele>898.0</ele>
        <time>2019-07-31T13:43:47.132Z</time>
      </trkpt>
      <trkpt lat="42.98367833" lon="-1.12258667">
        <ele>897.0</ele>
        <time>2019-07-31T13:43:48.137Z</time>
      </trkpt>
      <trkpt lat="42.98368" lon="-1.12256667">
        <ele>897.0</ele>
        <time>2019-07-31T13:43:49.142Z</time>
      </trkpt>
      <trkpt lat="42.98368167" lon="-1.12255833">
        <ele>896.0</ele>
        <time>2019-07-31T13:43:50.148Z</time>
      </trkpt>
      <trkpt lat="42.98368333" lon="-1.12253833">
        <ele>895.0</ele>
        <time>2019-07-31T13:43:51.153Z</time>
      </trkpt>
      <trkpt lat="42.98368167" lon="-1.12252">
        <ele>893.0</ele>
        <time>2019-07-31T13:43:52.158Z</time>
      </trkpt>
      <trkpt lat="42.98368" lon="-1.12251">
        <ele>892.0</ele>
        <time>2019-07-31T13:43:53.162Z</time>
      </trkpt>
      <trkpt lat="42.98367833" lon="-1.12250167">
        <ele>891.0</ele>
        <time>2019-07-31T13:43:54.167Z</time>
      </trkpt>
      <trkpt lat="42.98367333" lon="-1.12249">
        <ele>890.0</ele>
        <time>2019-07-31T13:43:55.173Z</time>
      </trkpt>
      <trkpt lat="42.98367" lon="-1.12248">
        <ele>890.0</ele>
        <time>2019-07-31T13:43:56.178Z</time>
      </trkpt>
      <trkpt lat="42.98366333" lon="-1.12245833">
        <ele>890.0</ele>
        <time>2019-07-31T13:43:57.185Z</time>
      </trkpt>
      <trkpt lat="42.98365333" lon="-1.12244">
        <ele>890.0</ele>
        <time>2019-07-31T13:43:58.065Z</time>
      </trkpt>
      <trkpt lat="42.983645" lon="-1.12242333">
        <ele>890.0</ele>
        <time>2019-07-31T13:43:59.069Z</time>
      </trkpt>
      <trkpt lat="42.98364" lon="-1.12240167">
        <ele>889.0</ele>
        <time>2019-07-31T13:44:00.074Z</time>
      </trkpt>
      <trkpt lat="42.983635" lon="-1.12238333">
        <ele>889.0</ele>
        <time>2019-07-31T13:44:01.079Z</time>
      </trkpt>
      <trkpt lat="42.98363167" lon="-1.12236333">
        <ele>888.0</ele>
        <time>2019-07-31T13:44:02.085Z</time>
      </trkpt>
      <trkpt lat="42.98362333" lon="-1.12234667">
        <ele>888.0</ele>
        <time>2019-07-31T13:44:03.090Z</time>
      </trkpt>
      <trkpt lat="42.98361333" lon="-1.12232167">
        <ele>888.0</ele>
        <time>2019-07-31T13:44:04.095Z</time>
      </trkpt>
      <trkpt lat="42.98360333" lon="-1.12230333">
        <ele>887.0</ele>
        <time>2019-07-31T13:44:05.100Z</time>
      </trkpt>
      <trkpt lat="42.98359167" lon="-1.12229333">
        <ele>886.0</ele>
        <time>2019-07-31T13:44:06.106Z</time>
      </trkpt>
      <trkpt lat="42.983585" lon="-1.12228167">
        <ele>886.0</ele>
        <time>2019-07-31T13:44:07.109Z</time>
      </trkpt>
      <trkpt lat="42.98357333" lon="-1.12226333">
        <ele>886.0</ele>
        <time>2019-07-31T13:44:08.111Z</time>
      </trkpt>
      <trkpt lat="42.98356833" lon="-1.12224">
        <ele>886.0</ele>
        <time>2019-07-31T13:44:09.117Z</time>
      </trkpt>
      <trkpt lat="42.98356" lon="-1.12222167">
        <ele>886.0</ele>
        <time>2019-07-31T13:44:10.121Z</time>
      </trkpt>
      <trkpt lat="42.98356" lon="-1.12220833">
        <ele>887.0</ele>
        <time>2019-07-31T13:44:11.125Z</time>
      </trkpt>
      <trkpt lat="42.98355333" lon="-1.12219333">
        <ele>887.0</ele>
        <time>2019-07-31T13:44:12.129Z</time>
      </trkpt>
      <trkpt lat="42.983545" lon="-1.12217667">
        <ele>888.0</ele>
        <time>2019-07-31T13:44:13.132Z</time>
      </trkpt>
      <trkpt lat="42.98352667" lon="-1.12215833">
        <ele>888.0</ele>
        <time>2019-07-31T13:44:14.135Z</time>
      </trkpt>
      <trkpt lat="42.98350833" lon="-1.12214">
        <ele>888.0</ele>
        <time>2019-07-31T13:44:15.140Z</time>
      </trkpt>
      <trkpt lat="42.98349667" lon="-1.12212333">
        <ele>888.0</ele>
        <time>2019-07-31T13:44:16.146Z</time>
      </trkpt>
      <trkpt lat="42.98349" lon="-1.122105">
        <ele>888.0</ele>
        <time>2019-07-31T13:44:17.152Z</time>
      </trkpt>
      <trkpt lat="42.98348" lon="-1.12208333">
        <ele>888.0</ele>
        <time>2019-07-31T13:44:18.160Z</time>
      </trkpt>
      <trkpt lat="42.983465" lon="-1.12206333">
        <ele>888.0</ele>
        <time>2019-07-31T13:44:19.165Z</time>
      </trkpt>
      <trkpt lat="42.98344833" lon="-1.122045">
        <ele>889.0</ele>
        <time>2019-07-31T13:44:20.169Z</time>
      </trkpt>
      <trkpt lat="42.98343667" lon="-1.12202667">
        <ele>888.0</ele>
        <time>2019-07-31T13:44:21.174Z</time>
      </trkpt>
      <trkpt lat="42.98341167" lon="-1.12200333">
        <ele>889.0</ele>
        <time>2019-07-31T13:44:22.178Z</time>
      </trkpt>
      <trkpt lat="42.98339167" lon="-1.121975">
        <ele>889.0</ele>
        <time>2019-07-31T13:44:23.183Z</time>
      </trkpt>
      <trkpt lat="42.98337667" lon="-1.121955">
        <ele>889.0</ele>
        <time>2019-07-31T13:44:24.184Z</time>
      </trkpt>
      <trkpt lat="42.98336167" lon="-1.121935">
        <ele>889.0</ele>
        <time>2019-07-31T13:44:25.066Z</time>
      </trkpt>
      <trkpt lat="42.98334333" lon="-1.12191167">
        <ele>890.0</ele>
        <time>2019-07-31T13:44:26.071Z</time>
      </trkpt>
      <trkpt lat="42.98333" lon="-1.12189">
        <ele>890.0</ele>
        <time>2019-07-31T13:44:27.077Z</time>
      </trkpt>
      <trkpt lat="42.983315" lon="-1.12186667">
        <ele>890.0</ele>
        <time>2019-07-31T13:44:28.084Z</time>
      </trkpt>
      <trkpt lat="42.98329833" lon="-1.12185333">
        <ele>890.0</ele>
        <time>2019-07-31T13:44:29.090Z</time>
      </trkpt>
      <trkpt lat="42.98329" lon="-1.121845">
        <ele>889.0</ele>
        <time>2019-07-31T13:44:30.094Z</time>
      </trkpt>
      <trkpt lat="42.98327667" lon="-1.121835">
        <ele>889.0</ele>
        <time>2019-07-31T13:44:31.099Z</time>
      </trkpt>
      <trkpt lat="42.98326833" lon="-1.12181833">
        <ele>890.0</ele>
        <time>2019-07-31T13:44:32.104Z</time>
      </trkpt>
      <trkpt lat="42.98326333" lon="-1.12181">
        <ele>889.0</ele>
        <time>2019-07-31T13:44:33.108Z</time>
      </trkpt>
      <trkpt lat="42.98325667" lon="-1.121805">
        <ele>889.0</ele>
        <time>2019-07-31T13:44:34.111Z</time>
      </trkpt>
      <trkpt lat="42.98324" lon="-1.1218">
        <ele>888.0</ele>
        <time>2019-07-31T13:44:35.117Z</time>
      </trkpt>
      <trkpt lat="42.983225" lon="-1.12179">
        <ele>887.0</ele>
        <time>2019-07-31T13:44:36.123Z</time>
      </trkpt>
      <trkpt lat="42.98321167" lon="-1.12177333">
        <ele>886.0</ele>
        <time>2019-07-31T13:44:37.130Z</time>
      </trkpt>
      <trkpt lat="42.98319833" lon="-1.12175833">
        <ele>885.0</ele>
        <time>2019-07-31T13:44:38.136Z</time>
      </trkpt>
      <trkpt lat="42.98318" lon="-1.12174167">
        <ele>885.0</ele>
        <time>2019-07-31T13:44:39.143Z</time>
      </trkpt>
      <trkpt lat="42.98316833" lon="-1.12173167">
        <ele>885.0</ele>
        <time>2019-07-31T13:44:40.147Z</time>
      </trkpt>
      <trkpt lat="42.98315333" lon="-1.12170833">
        <ele>885.0</ele>
        <time>2019-07-31T13:44:41.151Z</time>
      </trkpt>
      <trkpt lat="42.98313167" lon="-1.12169">
        <ele>885.0</ele>
        <time>2019-07-31T13:44:42.158Z</time>
      </trkpt>
      <trkpt lat="42.98312167" lon="-1.121675">
        <ele>885.0</ele>
        <time>2019-07-31T13:44:43.161Z</time>
      </trkpt>
      <trkpt lat="42.98310833" lon="-1.12165667">
        <ele>885.0</ele>
        <time>2019-07-31T13:44:44.165Z</time>
      </trkpt>
      <trkpt lat="42.98309333" lon="-1.12165167">
        <ele>886.0</ele>
        <time>2019-07-31T13:44:45.172Z</time>
      </trkpt>
      <trkpt lat="42.98307667" lon="-1.12164333">
        <ele>886.0</ele>
        <time>2019-07-31T13:44:46.176Z</time>
      </trkpt>
      <trkpt lat="42.98306833" lon="-1.12163">
        <ele>886.0</ele>
        <time>2019-07-31T13:44:47.183Z</time>
      </trkpt>
      <trkpt lat="42.98306" lon="-1.12161167">
        <ele>885.0</ele>
        <time>2019-07-31T13:44:48.062Z</time>
      </trkpt>
      <trkpt lat="42.98304667" lon="-1.12159667">
        <ele>884.0</ele>
        <time>2019-07-31T13:44:49.066Z</time>
      </trkpt>
      <trkpt lat="42.98303833" lon="-1.12158833">
        <ele>884.0</ele>
        <time>2019-07-31T13:44:50.069Z</time>
      </trkpt>
      <trkpt lat="42.98303167" lon="-1.12157">
        <ele>884.0</ele>
        <time>2019-07-31T13:44:51.075Z</time>
      </trkpt>
      <trkpt lat="42.98302333" lon="-1.12154833">
        <ele>883.0</ele>
        <time>2019-07-31T13:44:52.080Z</time>
      </trkpt>
      <trkpt lat="42.98301667" lon="-1.12153">
        <ele>884.0</ele>
        <time>2019-07-31T13:44:53.085Z</time>
      </trkpt>
      <trkpt lat="42.98300833" lon="-1.12151333">
        <ele>884.0</ele>
        <time>2019-07-31T13:44:54.088Z</time>
      </trkpt>
      <trkpt lat="42.98300333" lon="-1.12150167">
        <ele>884.0</ele>
        <time>2019-07-31T13:44:55.091Z</time>
      </trkpt>
      <trkpt lat="42.982995" lon="-1.121485">
        <ele>883.0</ele>
        <time>2019-07-31T13:44:56.096Z</time>
      </trkpt>
      <trkpt lat="42.98298667" lon="-1.12146667">
        <ele>883.0</ele>
        <time>2019-07-31T13:44:57.101Z</time>
      </trkpt>
      <trkpt lat="42.98297833" lon="-1.12145">
        <ele>883.0</ele>
        <time>2019-07-31T13:44:58.107Z</time>
      </trkpt>
      <trkpt lat="42.98296833" lon="-1.12143333">
        <ele>883.0</ele>
        <time>2019-07-31T13:44:59.114Z</time>
      </trkpt>
      <trkpt lat="42.98296167" lon="-1.12142167">
        <ele>883.0</ele>
        <time>2019-07-31T13:45:00.121Z</time>
      </trkpt>
      <trkpt lat="42.98295667" lon="-1.121405">
        <ele>882.0</ele>
        <time>2019-07-31T13:45:01.126Z</time>
      </trkpt>
      <trkpt lat="42.98295333" lon="-1.12139">
        <ele>881.0</ele>
        <time>2019-07-31T13:45:02.130Z</time>
      </trkpt>
      <trkpt lat="42.98294667" lon="-1.121375">
        <ele>881.0</ele>
        <time>2019-07-31T13:45:03.134Z</time>
      </trkpt>
      <trkpt lat="42.98293667" lon="-1.121365">
        <ele>881.0</ele>
        <time>2019-07-31T13:45:04.139Z</time>
      </trkpt>
      <trkpt lat="42.98293" lon="-1.121355">
        <ele>881.0</ele>
        <time>2019-07-31T13:45:05.146Z</time>
      </trkpt>
      <trkpt lat="42.982925" lon="-1.12134167">
        <ele>881.0</ele>
        <time>2019-07-31T13:45:06.150Z</time>
      </trkpt>
      <trkpt lat="42.98292" lon="-1.121325">
        <ele>881.0</ele>
        <time>2019-07-31T13:45:07.156Z</time>
      </trkpt>
      <trkpt lat="42.982915" lon="-1.121305">
        <ele>881.0</ele>
        <time>2019-07-31T13:45:08.161Z</time>
      </trkpt>
      <trkpt lat="42.98291333" lon="-1.12128833">
        <ele>880.0</ele>
        <time>2019-07-31T13:45:09.167Z</time>
      </trkpt>
      <trkpt lat="42.98291" lon="-1.12127667">
        <ele>881.0</ele>
        <time>2019-07-31T13:45:10.174Z</time>
      </trkpt>
      <trkpt lat="42.98290333" lon="-1.12125833">
        <ele>881.0</ele>
        <time>2019-07-31T13:45:11.179Z</time>
      </trkpt>
      <trkpt lat="42.98289667" lon="-1.121235">
        <ele>880.0</ele>
        <time>2019-07-31T13:45:12.184Z</time>
      </trkpt>
      <trkpt lat="42.98289" lon="-1.12121667">
        <ele>880.0</ele>
        <time>2019-07-31T13:45:13.064Z</time>
      </trkpt>
      <trkpt lat="42.98288" lon="-1.12119667">
        <ele>880.0</ele>
        <time>2019-07-31T13:45:14.070Z</time>
      </trkpt>
      <trkpt lat="42.98286833" lon="-1.12118">
        <ele>880.0</ele>
        <time>2019-07-31T13:45:15.075Z</time>
      </trkpt>
      <trkpt lat="42.982855" lon="-1.121165">
        <ele>880.0</ele>
        <time>2019-07-31T13:45:16.080Z</time>
      </trkpt>
      <trkpt lat="42.98284" lon="-1.12115333">
        <ele>880.0</ele>
        <time>2019-07-31T13:45:17.084Z</time>
      </trkpt>
      <trkpt lat="42.98282667" lon="-1.12114333">
        <ele>879.0</ele>
        <time>2019-07-31T13:45:18.089Z</time>
      </trkpt>
      <trkpt lat="42.98281333" lon="-1.12112833">
        <ele>879.0</ele>
        <time>2019-07-31T13:45:19.095Z</time>
      </trkpt>
      <trkpt lat="42.98280167" lon="-1.12111667">
        <ele>880.0</ele>
        <time>2019-07-31T13:45:20.101Z</time>
      </trkpt>
      <trkpt lat="42.98278167" lon="-1.121105">
        <ele>881.0</ele>
        <time>2019-07-31T13:45:21.107Z</time>
      </trkpt>
      <trkpt lat="42.98276333" lon="-1.1211">
        <ele>882.0</ele>
        <time>2019-07-31T13:45:22.111Z</time>
      </trkpt>
      <trkpt lat="42.98274333" lon="-1.12109833">
        <ele>883.0</ele>
        <time>2019-07-31T13:45:23.117Z</time>
      </trkpt>
      <trkpt lat="42.98272" lon="-1.12109333">
        <ele>884.0</ele>
        <time>2019-07-31T13:45:24.124Z</time>
      </trkpt>
      <trkpt lat="42.98269667" lon="-1.12109">
        <ele>884.0</ele>
        <time>2019-07-31T13:45:25.130Z</time>
      </trkpt>
      <trkpt lat="42.98267833" lon="-1.12109167">
        <ele>884.0</ele>
        <time>2019-07-31T13:45:26.133Z</time>
      </trkpt>
      <trkpt lat="42.98266167" lon="-1.12109167">
        <ele>884.0</ele>
        <time>2019-07-31T13:45:27.137Z</time>
      </trkpt>
      <trkpt lat="42.98264167" lon="-1.12108667">
        <ele>884.0</ele>
        <time>2019-07-31T13:45:28.141Z</time>
      </trkpt>
      <trkpt lat="42.982625" lon="-1.12108833">
        <ele>884.0</ele>
        <time>2019-07-31T13:45:29.146Z</time>
      </trkpt>
      <trkpt lat="42.98260833" lon="-1.12109">
        <ele>884.0</ele>
        <time>2019-07-31T13:45:30.151Z</time>
      </trkpt>
      <trkpt lat="42.98258667" lon="-1.121085">
        <ele>884.0</ele>
        <time>2019-07-31T13:45:31.158Z</time>
      </trkpt>
      <trkpt lat="42.98257" lon="-1.12107833">
        <ele>885.0</ele>
        <time>2019-07-31T13:45:32.163Z</time>
      </trkpt>
      <trkpt lat="42.98254833" lon="-1.12107">
        <ele>885.0</ele>
        <time>2019-07-31T13:45:33.169Z</time>
      </trkpt>
      <trkpt lat="42.98253" lon="-1.12106833">
        <ele>885.0</ele>
        <time>2019-07-31T13:45:34.174Z</time>
      </trkpt>
      <trkpt lat="42.98251333" lon="-1.12106667">
        <ele>884.0</ele>
        <time>2019-07-31T13:45:35.180Z</time>
      </trkpt>
      <trkpt lat="42.98249167" lon="-1.12105833">
        <ele>884.0</ele>
        <time>2019-07-31T13:45:36.184Z</time>
      </trkpt>
      <trkpt lat="42.98247833" lon="-1.12104833">
        <ele>884.0</ele>
        <time>2019-07-31T13:45:37.063Z</time>
      </trkpt>
      <trkpt lat="42.98246333" lon="-1.12103667">
        <ele>884.0</ele>
        <time>2019-07-31T13:45:38.068Z</time>
      </trkpt>
      <trkpt lat="42.98245167" lon="-1.12102333">
        <ele>884.0</ele>
        <time>2019-07-31T13:45:39.071Z</time>
      </trkpt>
      <trkpt lat="42.98243667" lon="-1.12100333">
        <ele>884.0</ele>
        <time>2019-07-31T13:45:40.077Z</time>
      </trkpt>
      <trkpt lat="42.98241333" lon="-1.12099333">
        <ele>884.0</ele>
        <time>2019-07-31T13:45:41.083Z</time>
      </trkpt>
      <trkpt lat="42.98239667" lon="-1.12099">
        <ele>884.0</ele>
        <time>2019-07-31T13:45:42.089Z</time>
      </trkpt>
      <trkpt lat="42.98238333" lon="-1.12097667">
        <ele>885.0</ele>
        <time>2019-07-31T13:45:43.094Z</time>
      </trkpt>
      <trkpt lat="42.982365" lon="-1.12095833">
        <ele>886.0</ele>
        <time>2019-07-31T13:45:44.096Z</time>
      </trkpt>
      <trkpt lat="42.982355" lon="-1.12095167">
        <ele>886.0</ele>
        <time>2019-07-31T13:45:45.099Z</time>
      </trkpt>
      <trkpt lat="42.98233833" lon="-1.120945">
        <ele>886.0</ele>
        <time>2019-07-31T13:45:46.106Z</time>
      </trkpt>
      <trkpt lat="42.98231667" lon="-1.12094167">
        <ele>886.0</ele>
        <time>2019-07-31T13:45:47.111Z</time>
      </trkpt>
      <trkpt lat="42.98230167" lon="-1.12093333">
        <ele>886.0</ele>
        <time>2019-07-31T13:45:48.116Z</time>
      </trkpt>
      <trkpt lat="42.98229167" lon="-1.12092333">
        <ele>886.0</ele>
        <time>2019-07-31T13:45:49.120Z</time>
      </trkpt>
      <trkpt lat="42.98227833" lon="-1.12091333">
        <ele>885.0</ele>
        <time>2019-07-31T13:45:50.126Z</time>
      </trkpt>
      <trkpt lat="42.982265" lon="-1.12090167">
        <ele>885.0</ele>
        <time>2019-07-31T13:45:51.130Z</time>
      </trkpt>
      <trkpt lat="42.98225167" lon="-1.12089">
        <ele>884.0</ele>
        <time>2019-07-31T13:45:52.135Z</time>
      </trkpt>
      <trkpt lat="42.98224" lon="-1.12088">
        <ele>884.0</ele>
        <time>2019-07-31T13:45:53.141Z</time>
      </trkpt>
      <trkpt lat="42.98222667" lon="-1.12086667">
        <ele>884.0</ele>
        <time>2019-07-31T13:45:54.146Z</time>
      </trkpt>
      <trkpt lat="42.982215" lon="-1.12085333">
        <ele>883.0</ele>
        <time>2019-07-31T13:45:55.150Z</time>
      </trkpt>
      <trkpt lat="42.9822" lon="-1.12084">
        <ele>883.0</ele>
        <time>2019-07-31T13:45:56.156Z</time>
      </trkpt>
      <trkpt lat="42.98218833" lon="-1.12082833">
        <ele>883.0</ele>
        <time>2019-07-31T13:45:57.161Z</time>
      </trkpt>
      <trkpt lat="42.98218" lon="-1.12082167">
        <ele>882.0</ele>
        <time>2019-07-31T13:45:58.163Z</time>
      </trkpt>
      <trkpt lat="42.98216333" lon="-1.12081333">
        <ele>882.0</ele>
        <time>2019-07-31T13:45:59.168Z</time>
      </trkpt>
      <trkpt lat="42.98215167" lon="-1.12080333">
        <ele>881.0</ele>
        <time>2019-07-31T13:46:00.174Z</time>
      </trkpt>
      <trkpt lat="42.98213833" lon="-1.120795">
        <ele>881.0</ele>
        <time>2019-07-31T13:46:01.178Z</time>
      </trkpt>
      <trkpt lat="42.982125" lon="-1.12078667">
        <ele>880.0</ele>
        <time>2019-07-31T13:46:02.184Z</time>
      </trkpt>
      <trkpt lat="42.98211333" lon="-1.12077667">
        <ele>880.0</ele>
        <time>2019-07-31T13:46:03.064Z</time>
      </trkpt>
      <trkpt lat="42.98210167" lon="-1.12076">
        <ele>880.0</ele>
        <time>2019-07-31T13:46:04.071Z</time>
      </trkpt>
      <trkpt lat="42.98209" lon="-1.12074833">
        <ele>879.0</ele>
        <time>2019-07-31T13:46:05.077Z</time>
      </trkpt>
      <trkpt lat="42.98207667" lon="-1.12074333">
        <ele>878.0</ele>
        <time>2019-07-31T13:46:06.082Z</time>
      </trkpt>
      <trkpt lat="42.98205833" lon="-1.12073333">
        <ele>878.0</ele>
        <time>2019-07-31T13:46:07.087Z</time>
      </trkpt>
      <trkpt lat="42.982045" lon="-1.12072333">
        <ele>878.0</ele>
        <time>2019-07-31T13:46:08.091Z</time>
      </trkpt>
      <trkpt lat="42.98203333" lon="-1.12071167">
        <ele>877.0</ele>
        <time>2019-07-31T13:46:09.094Z</time>
      </trkpt>
      <trkpt lat="42.98202167" lon="-1.12070167">
        <ele>878.0</ele>
        <time>2019-07-31T13:46:10.100Z</time>
      </trkpt>
      <trkpt lat="42.98201333" lon="-1.12069333">
        <ele>878.0</ele>
        <time>2019-07-31T13:46:11.105Z</time>
      </trkpt>
      <trkpt lat="42.982" lon="-1.120685">
        <ele>878.0</ele>
        <time>2019-07-31T13:46:12.113Z</time>
      </trkpt>
      <trkpt lat="42.98198833" lon="-1.12067667">
        <ele>878.0</ele>
        <time>2019-07-31T13:46:13.118Z</time>
      </trkpt>
      <trkpt lat="42.98197333" lon="-1.12067">
        <ele>877.0</ele>
        <time>2019-07-31T13:46:14.124Z</time>
      </trkpt>
      <trkpt lat="42.98196" lon="-1.12065667">
        <ele>877.0</ele>
        <time>2019-07-31T13:46:15.130Z</time>
      </trkpt>
      <trkpt lat="42.98194667" lon="-1.12064833">
        <ele>878.0</ele>
        <time>2019-07-31T13:46:16.133Z</time>
      </trkpt>
      <trkpt lat="42.98193167" lon="-1.12064">
        <ele>878.0</ele>
        <time>2019-07-31T13:46:17.137Z</time>
      </trkpt>
      <trkpt lat="42.98191833" lon="-1.12063167">
        <ele>877.0</ele>
        <time>2019-07-31T13:46:18.141Z</time>
      </trkpt>
      <trkpt lat="42.98190833" lon="-1.12062">
        <ele>876.0</ele>
        <time>2019-07-31T13:46:19.143Z</time>
      </trkpt>
      <trkpt lat="42.9819" lon="-1.12060833">
        <ele>875.0</ele>
        <time>2019-07-31T13:46:20.148Z</time>
      </trkpt>
      <trkpt lat="42.98188833" lon="-1.12059667">
        <ele>874.0</ele>
        <time>2019-07-31T13:46:21.153Z</time>
      </trkpt>
      <trkpt lat="42.98187667" lon="-1.12058833">
        <ele>873.0</ele>
        <time>2019-07-31T13:46:22.159Z</time>
      </trkpt>
      <trkpt lat="42.98186833" lon="-1.12057667">
        <ele>873.0</ele>
        <time>2019-07-31T13:46:23.165Z</time>
      </trkpt>
      <trkpt lat="42.98185833" lon="-1.12056667">
        <ele>872.0</ele>
        <time>2019-07-31T13:46:24.173Z</time>
      </trkpt>
      <trkpt lat="42.98184667" lon="-1.12055833">
        <ele>872.0</ele>
        <time>2019-07-31T13:46:25.178Z</time>
      </trkpt>
      <trkpt lat="42.98183667" lon="-1.120545">
        <ele>871.0</ele>
        <time>2019-07-31T13:46:26.182Z</time>
      </trkpt>
      <trkpt lat="42.98182667" lon="-1.12053333">
        <ele>871.0</ele>
        <time>2019-07-31T13:46:27.062Z</time>
      </trkpt>
      <trkpt lat="42.98181833" lon="-1.12052">
        <ele>871.0</ele>
        <time>2019-07-31T13:46:28.066Z</time>
      </trkpt>
      <trkpt lat="42.98180667" lon="-1.12051167">
        <ele>872.0</ele>
        <time>2019-07-31T13:46:29.068Z</time>
      </trkpt>
      <trkpt lat="42.9818" lon="-1.1205">
        <ele>872.0</ele>
        <time>2019-07-31T13:46:30.072Z</time>
      </trkpt>
      <trkpt lat="42.98179167" lon="-1.12048833">
        <ele>873.0</ele>
        <time>2019-07-31T13:46:31.077Z</time>
      </trkpt>
      <trkpt lat="42.98178167" lon="-1.12047333">
        <ele>873.0</ele>
        <time>2019-07-31T13:46:32.082Z</time>
      </trkpt>
      <trkpt lat="42.981775" lon="-1.12046">
        <ele>873.0</ele>
        <time>2019-07-31T13:46:33.089Z</time>
      </trkpt>
      <trkpt lat="42.981765" lon="-1.12043833">
        <ele>872.0</ele>
        <time>2019-07-31T13:46:34.094Z</time>
      </trkpt>
      <trkpt lat="42.98175833" lon="-1.120425">
        <ele>871.0</ele>
        <time>2019-07-31T13:46:35.100Z</time>
      </trkpt>
      <trkpt lat="42.98175333" lon="-1.12041333">
        <ele>870.0</ele>
        <time>2019-07-31T13:46:36.105Z</time>
      </trkpt>
      <trkpt lat="42.98174667" lon="-1.120405">
        <ele>870.0</ele>
        <time>2019-07-31T13:46:37.111Z</time>
      </trkpt>
      <trkpt lat="42.98174" lon="-1.12039167">
        <ele>870.0</ele>
        <time>2019-07-31T13:46:38.116Z</time>
      </trkpt>
      <trkpt lat="42.98173333" lon="-1.12037667">
        <ele>870.0</ele>
        <time>2019-07-31T13:46:39.123Z</time>
      </trkpt>
      <trkpt lat="42.98172667" lon="-1.120365">
        <ele>870.0</ele>
        <time>2019-07-31T13:46:40.127Z</time>
      </trkpt>
      <trkpt lat="42.98171833" lon="-1.12035667">
        <ele>870.0</ele>
        <time>2019-07-31T13:46:41.132Z</time>
      </trkpt>
      <trkpt lat="42.98170667" lon="-1.12034">
        <ele>870.0</ele>
        <time>2019-07-31T13:46:42.137Z</time>
      </trkpt>
      <trkpt lat="42.98169833" lon="-1.120325">
        <ele>870.0</ele>
        <time>2019-07-31T13:46:43.142Z</time>
      </trkpt>
      <trkpt lat="42.98169333" lon="-1.12031167">
        <ele>870.0</ele>
        <time>2019-07-31T13:46:44.146Z</time>
      </trkpt>
      <trkpt lat="42.98169" lon="-1.1203">
        <ele>870.0</ele>
        <time>2019-07-31T13:46:45.151Z</time>
      </trkpt>
      <trkpt lat="42.98168333" lon="-1.12028833">
        <ele>870.0</ele>
        <time>2019-07-31T13:46:46.154Z</time>
      </trkpt>
      <trkpt lat="42.98167667" lon="-1.12028333">
        <ele>870.0</ele>
        <time>2019-07-31T13:46:47.160Z</time>
      </trkpt>
      <trkpt lat="42.98166333" lon="-1.12026333">
        <ele>871.0</ele>
        <time>2019-07-31T13:46:48.165Z</time>
      </trkpt>
      <trkpt lat="42.98165167" lon="-1.12025">
        <ele>871.0</ele>
        <time>2019-07-31T13:46:49.169Z</time>
      </trkpt>
      <trkpt lat="42.981645" lon="-1.12024">
        <ele>871.0</ele>
        <time>2019-07-31T13:46:50.174Z</time>
      </trkpt>
      <trkpt lat="42.98164" lon="-1.12023167">
        <ele>870.0</ele>
        <time>2019-07-31T13:46:51.179Z</time>
      </trkpt>
      <trkpt lat="42.98163167" lon="-1.12022">
        <ele>869.0</ele>
        <time>2019-07-31T13:46:52.184Z</time>
      </trkpt>
      <trkpt lat="42.98162167" lon="-1.12020833">
        <ele>869.0</ele>
        <time>2019-07-31T13:46:53.063Z</time>
      </trkpt>
      <trkpt lat="42.981615" lon="-1.1202">
        <ele>868.0</ele>
        <time>2019-07-31T13:46:54.067Z</time>
      </trkpt>
      <trkpt lat="42.98161" lon="-1.12019">
        <ele>867.0</ele>
        <time>2019-07-31T13:46:55.073Z</time>
      </trkpt>
      <trkpt lat="42.981605" lon="-1.12017167">
        <ele>867.0</ele>
        <time>2019-07-31T13:46:56.078Z</time>
      </trkpt>
      <trkpt lat="42.98160167" lon="-1.12015833">
        <ele>866.0</ele>
        <time>2019-07-31T13:46:57.083Z</time>
      </trkpt>
      <trkpt lat="42.981595" lon="-1.120145">
        <ele>865.0</ele>
        <time>2019-07-31T13:46:58.088Z</time>
      </trkpt>
      <trkpt lat="42.98159333" lon="-1.12013167">
        <ele>865.0</ele>
        <time>2019-07-31T13:46:59.094Z</time>
      </trkpt>
      <trkpt lat="42.981585" lon="-1.12011333">
        <ele>864.0</ele>
        <time>2019-07-31T13:47:00.100Z</time>
      </trkpt>
      <trkpt lat="42.98157833" lon="-1.12009833">
        <ele>863.0</ele>
        <time>2019-07-31T13:47:01.106Z</time>
      </trkpt>
      <trkpt lat="42.981575" lon="-1.12007667">
        <ele>863.0</ele>
        <time>2019-07-31T13:47:02.111Z</time>
      </trkpt>
      <trkpt lat="42.98157" lon="-1.12005667">
        <ele>864.0</ele>
        <time>2019-07-31T13:47:03.118Z</time>
      </trkpt>
      <trkpt lat="42.98156667" lon="-1.12004333">
        <ele>864.0</ele>
        <time>2019-07-31T13:47:04.123Z</time>
      </trkpt>
      <trkpt lat="42.98155333" lon="-1.12003333">
        <ele>862.0</ele>
        <time>2019-07-31T13:47:05.129Z</time>
      </trkpt>
      <trkpt lat="42.98154833" lon="-1.120025">
        <ele>859.0</ele>
        <time>2019-07-31T13:47:06.134Z</time>
      </trkpt>
      <trkpt lat="42.98154333" lon="-1.12001">
        <ele>858.0</ele>
        <time>2019-07-31T13:47:07.138Z</time>
      </trkpt>
      <trkpt lat="42.98154667" lon="-1.11999">
        <ele>857.0</ele>
        <time>2019-07-31T13:47:08.144Z</time>
      </trkpt>
      <trkpt lat="42.98154667" lon="-1.11996833">
        <ele>857.0</ele>
        <time>2019-07-31T13:47:09.148Z</time>
      </trkpt>
      <trkpt lat="42.981545" lon="-1.11995167">
        <ele>856.0</ele>
        <time>2019-07-31T13:47:10.153Z</time>
      </trkpt>
      <trkpt lat="42.98154" lon="-1.11993833">
        <ele>855.0</ele>
        <time>2019-07-31T13:47:11.157Z</time>
      </trkpt>
      <trkpt lat="42.98153333" lon="-1.11991333">
        <ele>855.0</ele>
        <time>2019-07-31T13:47:12.162Z</time>
      </trkpt>
      <trkpt lat="42.981525" lon="-1.11989333">
        <ele>855.0</ele>
        <time>2019-07-31T13:47:13.167Z</time>
      </trkpt>
      <trkpt lat="42.98151667" lon="-1.11987333">
        <ele>855.0</ele>
        <time>2019-07-31T13:47:14.173Z</time>
      </trkpt>
      <trkpt lat="42.98151" lon="-1.11985167">
        <ele>854.0</ele>
        <time>2019-07-31T13:47:15.178Z</time>
      </trkpt>
      <trkpt lat="42.98150667" lon="-1.11983667">
        <ele>854.0</ele>
        <time>2019-07-31T13:47:16.185Z</time>
      </trkpt>
      <trkpt lat="42.98150167" lon="-1.11981667">
        <ele>854.0</ele>
        <time>2019-07-31T13:47:17.064Z</time>
      </trkpt>
      <trkpt lat="42.98149833" lon="-1.11979333">
        <ele>854.0</ele>
        <time>2019-07-31T13:47:18.068Z</time>
      </trkpt>
      <trkpt lat="42.98149833" lon="-1.11977833">
        <ele>853.0</ele>
        <time>2019-07-31T13:47:19.074Z</time>
      </trkpt>
      <trkpt lat="42.9815" lon="-1.11976167">
        <ele>853.0</ele>
        <time>2019-07-31T13:47:20.082Z</time>
      </trkpt>
      <trkpt lat="42.9815" lon="-1.11974833">
        <ele>853.0</ele>
        <time>2019-07-31T13:47:21.088Z</time>
      </trkpt>
      <trkpt lat="42.98149833" lon="-1.11972833">
        <ele>852.0</ele>
        <time>2019-07-31T13:47:22.091Z</time>
      </trkpt>
      <trkpt lat="42.98149667" lon="-1.11970667">
        <ele>852.0</ele>
        <time>2019-07-31T13:47:23.097Z</time>
      </trkpt>
      <trkpt lat="42.98149833" lon="-1.11969">
        <ele>852.0</ele>
        <time>2019-07-31T13:47:24.103Z</time>
      </trkpt>
      <trkpt lat="42.98149667" lon="-1.11967333">
        <ele>851.0</ele>
        <time>2019-07-31T13:47:25.110Z</time>
      </trkpt>
      <trkpt lat="42.98149333" lon="-1.11965667">
        <ele>851.0</ele>
        <time>2019-07-31T13:47:26.115Z</time>
      </trkpt>
      <trkpt lat="42.98149333" lon="-1.11964333">
        <ele>850.0</ele>
        <time>2019-07-31T13:47:27.120Z</time>
      </trkpt>
      <trkpt lat="42.98149333" lon="-1.11962833">
        <ele>850.0</ele>
        <time>2019-07-31T13:47:28.125Z</time>
      </trkpt>
      <trkpt lat="42.98149" lon="-1.11961333">
        <ele>850.0</ele>
        <time>2019-07-31T13:47:29.129Z</time>
      </trkpt>
      <trkpt lat="42.98149167" lon="-1.11959667">
        <ele>850.0</ele>
        <time>2019-07-31T13:47:30.133Z</time>
      </trkpt>
      <trkpt lat="42.98149167" lon="-1.11958333">
        <ele>850.0</ele>
        <time>2019-07-31T13:47:31.138Z</time>
      </trkpt>
      <trkpt lat="42.98149333" lon="-1.119565">
        <ele>850.0</ele>
        <time>2019-07-31T13:47:32.143Z</time>
      </trkpt>
      <trkpt lat="42.98149667" lon="-1.11954667">
        <ele>851.0</ele>
        <time>2019-07-31T13:47:33.149Z</time>
      </trkpt>
      <trkpt lat="42.9815" lon="-1.11952833">
        <ele>851.0</ele>
        <time>2019-07-31T13:47:34.155Z</time>
      </trkpt>
      <trkpt lat="42.98150333" lon="-1.11950833">
        <ele>850.0</ele>
        <time>2019-07-31T13:47:35.160Z</time>
      </trkpt>
      <trkpt lat="42.981505" lon="-1.11949167">
        <ele>850.0</ele>
        <time>2019-07-31T13:47:36.166Z</time>
      </trkpt>
      <trkpt lat="42.98150667" lon="-1.11947667">
        <ele>850.0</ele>
        <time>2019-07-31T13:47:37.172Z</time>
      </trkpt>
      <trkpt lat="42.98150833" lon="-1.11946">
        <ele>850.0</ele>
        <time>2019-07-31T13:47:38.176Z</time>
      </trkpt>
      <trkpt lat="42.98151333" lon="-1.11944333">
        <ele>849.0</ele>
        <time>2019-07-31T13:47:39.180Z</time>
      </trkpt>
      <trkpt lat="42.98151667" lon="-1.11942667">
        <ele>849.0</ele>
        <time>2019-07-31T13:47:40.184Z</time>
      </trkpt>
      <trkpt lat="42.98152167" lon="-1.11940833">
        <ele>849.0</ele>
        <time>2019-07-31T13:47:41.064Z</time>
      </trkpt>
      <trkpt lat="42.98152667" lon="-1.11939">
        <ele>849.0</ele>
        <time>2019-07-31T13:47:42.068Z</time>
      </trkpt>
      <trkpt lat="42.98153333" lon="-1.11937">
        <ele>849.0</ele>
        <time>2019-07-31T13:47:43.074Z</time>
      </trkpt>
      <trkpt lat="42.98154333" lon="-1.11935">
        <ele>849.0</ele>
        <time>2019-07-31T13:47:44.079Z</time>
      </trkpt>
      <trkpt lat="42.98155" lon="-1.11933">
        <ele>849.0</ele>
        <time>2019-07-31T13:47:45.084Z</time>
      </trkpt>
      <trkpt lat="42.981555" lon="-1.11931">
        <ele>849.0</ele>
        <time>2019-07-31T13:47:46.089Z</time>
      </trkpt>
      <trkpt lat="42.98156" lon="-1.119295">
        <ele>849.0</ele>
        <time>2019-07-31T13:47:47.093Z</time>
      </trkpt>
      <trkpt lat="42.98156167" lon="-1.119275">
        <ele>849.0</ele>
        <time>2019-07-31T13:47:48.096Z</time>
      </trkpt>
      <trkpt lat="42.98156333" lon="-1.11925333">
        <ele>849.0</ele>
        <time>2019-07-31T13:47:49.100Z</time>
      </trkpt>
      <trkpt lat="42.98156667" lon="-1.11923167">
        <ele>849.0</ele>
        <time>2019-07-31T13:47:50.104Z</time>
      </trkpt>
      <trkpt lat="42.98156833" lon="-1.11920833">
        <ele>850.0</ele>
        <time>2019-07-31T13:47:51.106Z</time>
      </trkpt>
      <trkpt lat="42.98156833" lon="-1.119185">
        <ele>850.0</ele>
        <time>2019-07-31T13:47:52.110Z</time>
      </trkpt>
      <trkpt lat="42.981575" lon="-1.119165">
        <ele>850.0</ele>
        <time>2019-07-31T13:47:53.115Z</time>
      </trkpt>
      <trkpt lat="42.98158167" lon="-1.11914833">
        <ele>849.0</ele>
        <time>2019-07-31T13:47:54.120Z</time>
      </trkpt>
      <trkpt lat="42.98158667" lon="-1.11912667">
        <ele>849.0</ele>
        <time>2019-07-31T13:47:55.127Z</time>
      </trkpt>
      <trkpt lat="42.98159167" lon="-1.11910667">
        <ele>849.0</ele>
        <time>2019-07-31T13:47:56.133Z</time>
      </trkpt>
      <trkpt lat="42.98159333" lon="-1.11908667">
        <ele>847.0</ele>
        <time>2019-07-31T13:47:57.137Z</time>
      </trkpt>
      <trkpt lat="42.98159667" lon="-1.11906333">
        <ele>847.0</ele>
        <time>2019-07-31T13:47:58.143Z</time>
      </trkpt>
      <trkpt lat="42.98159667" lon="-1.11904">
        <ele>847.0</ele>
        <time>2019-07-31T13:47:59.148Z</time>
      </trkpt>
      <trkpt lat="42.9816" lon="-1.11901667">
        <ele>847.0</ele>
        <time>2019-07-31T13:48:00.155Z</time>
      </trkpt>
      <trkpt lat="42.981605" lon="-1.11899333">
        <ele>848.0</ele>
        <time>2019-07-31T13:48:01.159Z</time>
      </trkpt>
      <trkpt lat="42.98161" lon="-1.11897167">
        <ele>848.0</ele>
        <time>2019-07-31T13:48:02.164Z</time>
      </trkpt>
      <trkpt lat="42.981615" lon="-1.11895">
        <ele>847.0</ele>
        <time>2019-07-31T13:48:03.169Z</time>
      </trkpt>
      <trkpt lat="42.98162" lon="-1.11893">
        <ele>847.0</ele>
        <time>2019-07-31T13:48:04.173Z</time>
      </trkpt>
      <trkpt lat="42.981625" lon="-1.11891">
        <ele>847.0</ele>
        <time>2019-07-31T13:48:05.177Z</time>
      </trkpt>
      <trkpt lat="42.98163167" lon="-1.11889167">
        <ele>847.0</ele>
        <time>2019-07-31T13:48:06.184Z</time>
      </trkpt>
      <trkpt lat="42.98163667" lon="-1.11887333">
        <ele>847.0</ele>
        <time>2019-07-31T13:48:07.064Z</time>
      </trkpt>
      <trkpt lat="42.98164" lon="-1.11885333">
        <ele>847.0</ele>
        <time>2019-07-31T13:48:08.068Z</time>
      </trkpt>
      <trkpt lat="42.981645" lon="-1.11883833">
        <ele>846.0</ele>
        <time>2019-07-31T13:48:09.076Z</time>
      </trkpt>
      <trkpt lat="42.98165" lon="-1.11882">
        <ele>846.0</ele>
        <time>2019-07-31T13:48:10.081Z</time>
      </trkpt>
      <trkpt lat="42.98165333" lon="-1.11880833">
        <ele>846.0</ele>
        <time>2019-07-31T13:48:11.086Z</time>
      </trkpt>
      <trkpt lat="42.98165667" lon="-1.11879">
        <ele>845.0</ele>
        <time>2019-07-31T13:48:12.088Z</time>
      </trkpt>
      <trkpt lat="42.98166333" lon="-1.11877333">
        <ele>846.0</ele>
        <time>2019-07-31T13:48:13.094Z</time>
      </trkpt>
      <trkpt lat="42.98166833" lon="-1.11876">
        <ele>846.0</ele>
        <time>2019-07-31T13:48:14.101Z</time>
      </trkpt>
      <trkpt lat="42.98168" lon="-1.11875333">
        <ele>847.0</ele>
        <time>2019-07-31T13:48:15.107Z</time>
      </trkpt>
      <trkpt lat="42.98169" lon="-1.118745">
        <ele>847.0</ele>
        <time>2019-07-31T13:48:16.112Z</time>
      </trkpt>
      <trkpt lat="42.98169833" lon="-1.11873167">
        <ele>848.0</ele>
        <time>2019-07-31T13:48:17.119Z</time>
      </trkpt>
      <trkpt lat="42.98170667" lon="-1.11871667">
        <ele>848.0</ele>
        <time>2019-07-31T13:48:18.126Z</time>
      </trkpt>
      <trkpt lat="42.98171667" lon="-1.11870167">
        <ele>847.0</ele>
        <time>2019-07-31T13:48:19.133Z</time>
      </trkpt>
      <trkpt lat="42.98172333" lon="-1.118685">
        <ele>847.0</ele>
        <time>2019-07-31T13:48:20.139Z</time>
      </trkpt>
      <trkpt lat="42.98173167" lon="-1.11867">
        <ele>847.0</ele>
        <time>2019-07-31T13:48:21.143Z</time>
      </trkpt>
      <trkpt lat="42.98174333" lon="-1.11865667">
        <ele>846.0</ele>
        <time>2019-07-31T13:48:22.148Z</time>
      </trkpt>
      <trkpt lat="42.98175" lon="-1.11864">
        <ele>846.0</ele>
        <time>2019-07-31T13:48:23.153Z</time>
      </trkpt>
      <trkpt lat="42.98176" lon="-1.118625">
        <ele>845.0</ele>
        <time>2019-07-31T13:48:24.160Z</time>
      </trkpt>
      <trkpt lat="42.98176833" lon="-1.11860667">
        <ele>845.0</ele>
        <time>2019-07-31T13:48:25.165Z</time>
      </trkpt>
      <trkpt lat="42.98177333" lon="-1.11858667">
        <ele>845.0</ele>
        <time>2019-07-31T13:48:26.170Z</time>
      </trkpt>
      <trkpt lat="42.98178" lon="-1.11856333">
        <ele>846.0</ele>
        <time>2019-07-31T13:48:27.175Z</time>
      </trkpt>
      <trkpt lat="42.98178667" lon="-1.11854333">
        <ele>846.0</ele>
        <time>2019-07-31T13:48:28.182Z</time>
      </trkpt>
      <trkpt lat="42.981795" lon="-1.11852333">
        <ele>846.0</ele>
        <time>2019-07-31T13:48:29.062Z</time>
      </trkpt>
      <trkpt lat="42.9818" lon="-1.1185">
        <ele>846.0</ele>
        <time>2019-07-31T13:48:30.068Z</time>
      </trkpt>
      <trkpt lat="42.9818" lon="-1.11847667">
        <ele>846.0</ele>
        <time>2019-07-31T13:48:31.074Z</time>
      </trkpt>
      <trkpt lat="42.9818" lon="-1.11845833">
        <ele>847.0</ele>
        <time>2019-07-31T13:48:32.080Z</time>
      </trkpt>
      <trkpt lat="42.9818" lon="-1.11844333">
        <ele>848.0</ele>
        <time>2019-07-31T13:48:33.086Z</time>
      </trkpt>
      <trkpt lat="42.98179833" lon="-1.11842333">
        <ele>848.0</ele>
        <time>2019-07-31T13:48:34.092Z</time>
      </trkpt>
      <trkpt lat="42.98180167" lon="-1.11840833">
        <ele>850.0</ele>
        <time>2019-07-31T13:48:35.098Z</time>
      </trkpt>
      <trkpt lat="42.98180333" lon="-1.11839667">
        <ele>850.0</ele>
        <time>2019-07-31T13:48:36.103Z</time>
      </trkpt>
      <trkpt lat="42.98180667" lon="-1.11839">
        <ele>851.0</ele>
        <time>2019-07-31T13:48:37.110Z</time>
      </trkpt>
      <trkpt lat="42.98181167" lon="-1.11838333">
        <ele>851.0</ele>
        <time>2019-07-31T13:48:38.115Z</time>
      </trkpt>
      <trkpt lat="42.98182" lon="-1.11837333">
        <ele>851.0</ele>
        <time>2019-07-31T13:48:39.121Z</time>
      </trkpt>
      <trkpt lat="42.98182833" lon="-1.11835833">
        <ele>851.0</ele>
        <time>2019-07-31T13:48:40.127Z</time>
      </trkpt>
      <trkpt lat="42.98183667" lon="-1.11834333">
        <ele>850.0</ele>
        <time>2019-07-31T13:48:41.132Z</time>
      </trkpt>
      <trkpt lat="42.98183833" lon="-1.11832333">
        <ele>850.0</ele>
        <time>2019-07-31T13:48:42.137Z</time>
      </trkpt>
      <trkpt lat="42.98184167" lon="-1.11830167">
        <ele>850.0</ele>
        <time>2019-07-31T13:48:43.142Z</time>
      </trkpt>
      <trkpt lat="42.981845" lon="-1.11828833">
        <ele>850.0</ele>
        <time>2019-07-31T13:48:44.149Z</time>
      </trkpt>
      <trkpt lat="42.98185" lon="-1.118275">
        <ele>849.0</ele>
        <time>2019-07-31T13:48:45.155Z</time>
      </trkpt>
      <trkpt lat="42.98185333" lon="-1.11825667">
        <ele>849.0</ele>
        <time>2019-07-31T13:48:46.159Z</time>
      </trkpt>
      <trkpt lat="42.98185667" lon="-1.118245">
        <ele>849.0</ele>
        <time>2019-07-31T13:48:47.163Z</time>
      </trkpt>
      <trkpt lat="42.98186333" lon="-1.11822833">
        <ele>848.0</ele>
        <time>2019-07-31T13:48:48.168Z</time>
      </trkpt>
      <trkpt lat="42.98186833" lon="-1.11821333">
        <ele>848.0</ele>
        <time>2019-07-31T13:48:49.173Z</time>
      </trkpt>
      <trkpt lat="42.98187" lon="-1.11819833">
        <ele>847.0</ele>
        <time>2019-07-31T13:48:50.178Z</time>
      </trkpt>
      <trkpt lat="42.98187" lon="-1.11818167">
        <ele>847.0</ele>
        <time>2019-07-31T13:48:51.183Z</time>
      </trkpt>
      <trkpt lat="42.98186833" lon="-1.11816">
        <ele>847.0</ele>
        <time>2019-07-31T13:48:52.064Z</time>
      </trkpt>
      <trkpt lat="42.98186833" lon="-1.118135">
        <ele>848.0</ele>
        <time>2019-07-31T13:48:53.070Z</time>
      </trkpt>
      <trkpt lat="42.98186833" lon="-1.11812">
        <ele>848.0</ele>
        <time>2019-07-31T13:48:54.074Z</time>
      </trkpt>
      <trkpt lat="42.98186667" lon="-1.11809667">
        <ele>848.0</ele>
        <time>2019-07-31T13:48:55.079Z</time>
      </trkpt>
      <trkpt lat="42.98187667" lon="-1.118075">
        <ele>847.0</ele>
        <time>2019-07-31T13:48:56.085Z</time>
      </trkpt>
      <trkpt lat="42.98188667" lon="-1.11805333">
        <ele>847.0</ele>
        <time>2019-07-31T13:48:57.090Z</time>
      </trkpt>
      <trkpt lat="42.98189333" lon="-1.11803667">
        <ele>846.0</ele>
        <time>2019-07-31T13:48:58.095Z</time>
      </trkpt>
      <trkpt lat="42.98189833" lon="-1.11801333">
        <ele>847.0</ele>
        <time>2019-07-31T13:48:59.100Z</time>
      </trkpt>
      <trkpt lat="42.98190667" lon="-1.11799167">
        <ele>849.0</ele>
        <time>2019-07-31T13:49:00.106Z</time>
      </trkpt>
      <trkpt lat="42.981915" lon="-1.11796333">
        <ele>849.0</ele>
        <time>2019-07-31T13:49:01.113Z</time>
      </trkpt>
      <trkpt lat="42.98191833" lon="-1.117945">
        <ele>850.0</ele>
        <time>2019-07-31T13:49:02.121Z</time>
      </trkpt>
      <trkpt lat="42.981925" lon="-1.11792833">
        <ele>850.0</ele>
        <time>2019-07-31T13:49:03.125Z</time>
      </trkpt>
      <trkpt lat="42.98193833" lon="-1.117905">
        <ele>850.0</ele>
        <time>2019-07-31T13:49:04.130Z</time>
      </trkpt>
      <trkpt lat="42.98194667" lon="-1.11789333">
        <ele>850.0</ele>
        <time>2019-07-31T13:49:05.134Z</time>
      </trkpt>
      <trkpt lat="42.98195" lon="-1.117875">
        <ele>850.0</ele>
        <time>2019-07-31T13:49:06.140Z</time>
      </trkpt>
      <trkpt lat="42.98195167" lon="-1.11785667">
        <ele>850.0</ele>
        <time>2019-07-31T13:49:07.145Z</time>
      </trkpt>
      <trkpt lat="42.981955" lon="-1.11783">
        <ele>851.0</ele>
        <time>2019-07-31T13:49:08.149Z</time>
      </trkpt>
      <trkpt lat="42.981965" lon="-1.117805">
        <ele>849.0</ele>
        <time>2019-07-31T13:49:09.157Z</time>
      </trkpt>
      <trkpt lat="42.98197667" lon="-1.11778167">
        <ele>847.0</ele>
        <time>2019-07-31T13:49:10.162Z</time>
      </trkpt>
      <trkpt lat="42.98199" lon="-1.11776">
        <ele>847.0</ele>
        <time>2019-07-31T13:49:11.167Z</time>
      </trkpt>
      <trkpt lat="42.982" lon="-1.11773833">
        <ele>847.0</ele>
        <time>2019-07-31T13:49:12.174Z</time>
      </trkpt>
      <trkpt lat="42.98200667" lon="-1.117715">
        <ele>846.0</ele>
        <time>2019-07-31T13:49:13.178Z</time>
      </trkpt>
      <trkpt lat="42.98201167" lon="-1.11768667">
        <ele>845.0</ele>
        <time>2019-07-31T13:49:14.182Z</time>
      </trkpt>
      <trkpt lat="42.98201833" lon="-1.117665">
        <ele>844.0</ele>
        <time>2019-07-31T13:49:15.062Z</time>
      </trkpt>
      <trkpt lat="42.98203333" lon="-1.117645">
        <ele>844.0</ele>
        <time>2019-07-31T13:49:16.066Z</time>
      </trkpt>
      <trkpt lat="42.98204833" lon="-1.11762667">
        <ele>845.0</ele>
        <time>2019-07-31T13:49:17.071Z</time>
      </trkpt>
      <trkpt lat="42.98206333" lon="-1.11760167">
        <ele>845.0</ele>
        <time>2019-07-31T13:49:18.075Z</time>
      </trkpt>
      <trkpt lat="42.98207167" lon="-1.11757167">
        <ele>846.0</ele>
        <time>2019-07-31T13:49:19.078Z</time>
      </trkpt>
      <trkpt lat="42.98207833" lon="-1.11756167">
        <ele>845.0</ele>
        <time>2019-07-31T13:49:20.085Z</time>
      </trkpt>
      <trkpt lat="42.982085" lon="-1.117555">
        <ele>846.0</ele>
        <time>2019-07-31T13:49:21.091Z</time>
      </trkpt>
      <trkpt lat="42.98208667" lon="-1.11754667">
        <ele>846.0</ele>
        <time>2019-07-31T13:49:22.094Z</time>
      </trkpt>
      <trkpt lat="42.982095" lon="-1.11753667">
        <ele>847.0</ele>
        <time>2019-07-31T13:49:23.099Z</time>
      </trkpt>
      <trkpt lat="42.982105" lon="-1.11752">
        <ele>848.0</ele>
        <time>2019-07-31T13:49:24.104Z</time>
      </trkpt>
      <trkpt lat="42.98210667" lon="-1.117495">
        <ele>851.0</ele>
        <time>2019-07-31T13:49:25.110Z</time>
      </trkpt>
      <trkpt lat="42.98210667" lon="-1.11747">
        <ele>854.0</ele>
        <time>2019-07-31T13:49:26.116Z</time>
      </trkpt>
      <trkpt lat="42.98211167" lon="-1.11745333">
        <ele>854.0</ele>
        <time>2019-07-31T13:49:27.123Z</time>
      </trkpt>
      <trkpt lat="42.98211667" lon="-1.11743667">
        <ele>853.0</ele>
        <time>2019-07-31T13:49:28.127Z</time>
      </trkpt>
      <trkpt lat="42.98212" lon="-1.11742">
        <ele>853.0</ele>
        <time>2019-07-31T13:49:29.131Z</time>
      </trkpt>
      <trkpt lat="42.98212333" lon="-1.11740167">
        <ele>854.0</ele>
        <time>2019-07-31T13:49:30.134Z</time>
      </trkpt>
      <trkpt lat="42.98212833" lon="-1.117385">
        <ele>855.0</ele>
        <time>2019-07-31T13:49:31.140Z</time>
      </trkpt>
      <trkpt lat="42.98213167" lon="-1.11736833">
        <ele>856.0</ele>
        <time>2019-07-31T13:49:32.146Z</time>
      </trkpt>
      <trkpt lat="42.98213667" lon="-1.11735167">
        <ele>857.0</ele>
        <time>2019-07-31T13:49:33.149Z</time>
      </trkpt>
      <trkpt lat="42.98213833" lon="-1.11733">
        <ele>858.0</ele>
        <time>2019-07-31T13:49:34.152Z</time>
      </trkpt>
      <trkpt lat="42.98214333" lon="-1.11730833">
        <ele>859.0</ele>
        <time>2019-07-31T13:49:35.157Z</time>
      </trkpt>
      <trkpt lat="42.982145" lon="-1.11728667">
        <ele>859.0</ele>
        <time>2019-07-31T13:49:36.162Z</time>
      </trkpt>
      <trkpt lat="42.98214667" lon="-1.11727">
        <ele>859.0</ele>
        <time>2019-07-31T13:49:37.167Z</time>
      </trkpt>
      <trkpt lat="42.98215167" lon="-1.11725667">
        <ele>860.0</ele>
        <time>2019-07-31T13:49:38.170Z</time>
      </trkpt>
      <trkpt lat="42.98215667" lon="-1.11724333">
        <ele>860.0</ele>
        <time>2019-07-31T13:49:39.174Z</time>
      </trkpt>
      <trkpt lat="42.98216333" lon="-1.11723">
        <ele>860.0</ele>
        <time>2019-07-31T13:49:40.178Z</time>
      </trkpt>
      <trkpt lat="42.98216833" lon="-1.11720833">
        <ele>860.0</ele>
        <time>2019-07-31T13:49:41.182Z</time>
      </trkpt>
      <trkpt lat="42.98217" lon="-1.11718333">
        <ele>860.0</ele>
        <time>2019-07-31T13:49:42.062Z</time>
      </trkpt>
      <trkpt lat="42.982175" lon="-1.11717167">
        <ele>859.0</ele>
        <time>2019-07-31T13:49:43.067Z</time>
      </trkpt>
      <trkpt lat="42.98217667" lon="-1.11716167">
        <ele>858.0</ele>
        <time>2019-07-31T13:49:44.074Z</time>
      </trkpt>
      <trkpt lat="42.98217833" lon="-1.11714167">
        <ele>858.0</ele>
        <time>2019-07-31T13:49:45.080Z</time>
      </trkpt>
      <trkpt lat="42.98218167" lon="-1.11712833">
        <ele>857.0</ele>
        <time>2019-07-31T13:49:46.084Z</time>
      </trkpt>
      <trkpt lat="42.98218833" lon="-1.11710667">
        <ele>858.0</ele>
        <time>2019-07-31T13:49:47.088Z</time>
      </trkpt>
      <trkpt lat="42.98219333" lon="-1.117085">
        <ele>859.0</ele>
        <time>2019-07-31T13:49:48.092Z</time>
      </trkpt>
      <trkpt lat="42.98219333" lon="-1.11706167">
        <ele>860.0</ele>
        <time>2019-07-31T13:49:49.100Z</time>
      </trkpt>
      <trkpt lat="42.98219167" lon="-1.117035">
        <ele>861.0</ele>
        <time>2019-07-31T13:49:50.106Z</time>
      </trkpt>
      <trkpt lat="42.98219" lon="-1.11701333">
        <ele>862.0</ele>
        <time>2019-07-31T13:49:51.112Z</time>
      </trkpt>
      <trkpt lat="42.98219167" lon="-1.11698667">
        <ele>863.0</ele>
        <time>2019-07-31T13:49:52.117Z</time>
      </trkpt>
      <trkpt lat="42.98219667" lon="-1.11696167">
        <ele>864.0</ele>
        <time>2019-07-31T13:49:53.122Z</time>
      </trkpt>
      <trkpt lat="42.98219833" lon="-1.11694">
        <ele>864.0</ele>
        <time>2019-07-31T13:49:54.129Z</time>
      </trkpt>
      <trkpt lat="42.9822" lon="-1.11691667">
        <ele>864.0</ele>
        <time>2019-07-31T13:49:55.132Z</time>
      </trkpt>
      <trkpt lat="42.98220333" lon="-1.11689333">
        <ele>864.0</ele>
        <time>2019-07-31T13:49:56.137Z</time>
      </trkpt>
      <trkpt lat="42.98220667" lon="-1.11687">
        <ele>864.0</ele>
        <time>2019-07-31T13:49:57.142Z</time>
      </trkpt>
      <trkpt lat="42.98221" lon="-1.11685167">
        <ele>864.0</ele>
        <time>2019-07-31T13:49:58.148Z</time>
      </trkpt>
      <trkpt lat="42.98221167" lon="-1.11683333">
        <ele>864.0</ele>
        <time>2019-07-31T13:49:59.153Z</time>
      </trkpt>
      <trkpt lat="42.98221333" lon="-1.11681">
        <ele>864.0</ele>
        <time>2019-07-31T13:50:00.159Z</time>
      </trkpt>
      <trkpt lat="42.98221167" lon="-1.11678333">
        <ele>865.0</ele>
        <time>2019-07-31T13:50:01.164Z</time>
      </trkpt>
      <trkpt lat="42.982215" lon="-1.116765">
        <ele>864.0</ele>
        <time>2019-07-31T13:50:02.169Z</time>
      </trkpt>
      <trkpt lat="42.982225" lon="-1.11673333">
        <ele>865.0</ele>
        <time>2019-07-31T13:50:03.174Z</time>
      </trkpt>
      <trkpt lat="42.98223167" lon="-1.11670333">
        <ele>866.0</ele>
        <time>2019-07-31T13:50:04.180Z</time>
      </trkpt>
      <trkpt lat="42.98223833" lon="-1.11668167">
        <ele>866.0</ele>
        <time>2019-07-31T13:50:05.061Z</time>
      </trkpt>
      <trkpt lat="42.98224" lon="-1.11666">
        <ele>866.0</ele>
        <time>2019-07-31T13:50:06.065Z</time>
      </trkpt>
      <trkpt lat="42.98224833" lon="-1.11664">
        <ele>867.0</ele>
        <time>2019-07-31T13:50:07.069Z</time>
      </trkpt>
      <trkpt lat="42.982255" lon="-1.11662333">
        <ele>867.0</ele>
        <time>2019-07-31T13:50:08.072Z</time>
      </trkpt>
      <trkpt lat="42.98225833" lon="-1.11661">
        <ele>867.0</ele>
        <time>2019-07-31T13:50:09.076Z</time>
      </trkpt>
      <trkpt lat="42.98226167" lon="-1.11659167">
        <ele>866.0</ele>
        <time>2019-07-31T13:50:10.082Z</time>
      </trkpt>
      <trkpt lat="42.98227" lon="-1.11657167">
        <ele>866.0</ele>
        <time>2019-07-31T13:50:11.087Z</time>
      </trkpt>
      <trkpt lat="42.98228" lon="-1.11653833">
        <ele>866.0</ele>
        <time>2019-07-31T13:50:12.092Z</time>
      </trkpt>
      <trkpt lat="42.98228833" lon="-1.11650167">
        <ele>866.0</ele>
        <time>2019-07-31T13:50:13.096Z</time>
      </trkpt>
      <trkpt lat="42.98229167" lon="-1.11647167">
        <ele>866.0</ele>
        <time>2019-07-31T13:50:14.101Z</time>
      </trkpt>
      <trkpt lat="42.982295" lon="-1.11643667">
        <ele>866.0</ele>
        <time>2019-07-31T13:50:15.106Z</time>
      </trkpt>
      <trkpt lat="42.98230333" lon="-1.11640167">
        <ele>865.0</ele>
        <time>2019-07-31T13:50:16.113Z</time>
      </trkpt>
      <trkpt lat="42.98231167" lon="-1.11637">
        <ele>866.0</ele>
        <time>2019-07-31T13:50:17.118Z</time>
      </trkpt>
      <trkpt lat="42.98232333" lon="-1.11635167">
        <ele>865.0</ele>
        <time>2019-07-31T13:50:18.123Z</time>
      </trkpt>
      <trkpt lat="42.98232833" lon="-1.11633">
        <ele>864.0</ele>
        <time>2019-07-31T13:50:19.130Z</time>
      </trkpt>
      <trkpt lat="42.98232667" lon="-1.11631167">
        <ele>864.0</ele>
        <time>2019-07-31T13:50:20.135Z</time>
      </trkpt>
      <trkpt lat="42.98234" lon="-1.11629667">
        <ele>863.0</ele>
        <time>2019-07-31T13:50:21.140Z</time>
      </trkpt>
      <trkpt lat="42.98235" lon="-1.11628333">
        <ele>863.0</ele>
        <time>2019-07-31T13:50:22.145Z</time>
      </trkpt>
      <trkpt lat="42.98235833" lon="-1.116265">
        <ele>863.0</ele>
        <time>2019-07-31T13:50:23.151Z</time>
      </trkpt>
      <trkpt lat="42.982365" lon="-1.11624167">
        <ele>864.0</ele>
        <time>2019-07-31T13:50:24.157Z</time>
      </trkpt>
      <trkpt lat="42.98237" lon="-1.11621833">
        <ele>864.0</ele>
        <time>2019-07-31T13:50:25.164Z</time>
      </trkpt>
      <trkpt lat="42.98237333" lon="-1.11619833">
        <ele>864.0</ele>
        <time>2019-07-31T13:50:26.170Z</time>
      </trkpt>
      <trkpt lat="42.98237833" lon="-1.11618">
        <ele>864.0</ele>
        <time>2019-07-31T13:50:27.175Z</time>
      </trkpt>
      <trkpt lat="42.98238333" lon="-1.11615333">
        <ele>865.0</ele>
        <time>2019-07-31T13:50:28.181Z</time>
      </trkpt>
      <trkpt lat="42.98239333" lon="-1.11613333">
        <ele>866.0</ele>
        <time>2019-07-31T13:50:29.061Z</time>
      </trkpt>
      <trkpt lat="42.98239667" lon="-1.11611667">
        <ele>866.0</ele>
        <time>2019-07-31T13:50:30.068Z</time>
      </trkpt>
      <trkpt lat="42.98239" lon="-1.116095">
        <ele>868.0</ele>
        <time>2019-07-31T13:50:31.073Z</time>
      </trkpt>
      <trkpt lat="42.98238167" lon="-1.116085">
        <ele>868.0</ele>
        <time>2019-07-31T13:50:32.079Z</time>
      </trkpt>
      <trkpt lat="42.98237833" lon="-1.11606667">
        <ele>868.0</ele>
        <time>2019-07-31T13:50:33.087Z</time>
      </trkpt>
      <trkpt lat="42.98237333" lon="-1.11604833">
        <ele>867.0</ele>
        <time>2019-07-31T13:50:34.091Z</time>
      </trkpt>
      <trkpt lat="42.98237333" lon="-1.11602">
        <ele>868.0</ele>
        <time>2019-07-31T13:50:35.096Z</time>
      </trkpt>
      <trkpt lat="42.98237833" lon="-1.116">
        <ele>869.0</ele>
        <time>2019-07-31T13:50:36.102Z</time>
      </trkpt>
      <trkpt lat="42.98238167" lon="-1.11598333">
        <ele>868.0</ele>
        <time>2019-07-31T13:50:37.107Z</time>
      </trkpt>
      <trkpt lat="42.98238667" lon="-1.11597">
        <ele>867.0</ele>
        <time>2019-07-31T13:50:38.112Z</time>
      </trkpt>
      <trkpt lat="42.98238833" lon="-1.11595833">
        <ele>866.0</ele>
        <time>2019-07-31T13:50:39.120Z</time>
      </trkpt>
      <trkpt lat="42.98239" lon="-1.11594">
        <ele>868.0</ele>
        <time>2019-07-31T13:50:40.126Z</time>
      </trkpt>
      <trkpt lat="42.98239167" lon="-1.11592833">
        <ele>869.0</ele>
        <time>2019-07-31T13:50:41.131Z</time>
      </trkpt>
      <trkpt lat="42.98239167" lon="-1.11592">
        <ele>870.0</ele>
        <time>2019-07-31T13:50:42.135Z</time>
      </trkpt>
      <trkpt lat="42.98239833" lon="-1.1159">
        <ele>871.0</ele>
        <time>2019-07-31T13:50:43.141Z</time>
      </trkpt>
      <trkpt lat="42.98240833" lon="-1.115875">
        <ele>872.0</ele>
        <time>2019-07-31T13:50:44.144Z</time>
      </trkpt>
      <trkpt lat="42.98241667" lon="-1.11584833">
        <ele>871.0</ele>
        <time>2019-07-31T13:50:45.148Z</time>
      </trkpt>
      <trkpt lat="42.98242167" lon="-1.11582667">
        <ele>870.0</ele>
        <time>2019-07-31T13:50:46.155Z</time>
      </trkpt>
      <trkpt lat="42.98242667" lon="-1.11581">
        <ele>868.0</ele>
        <time>2019-07-31T13:50:47.161Z</time>
      </trkpt>
      <trkpt lat="42.98243333" lon="-1.115795">
        <ele>867.0</ele>
        <time>2019-07-31T13:50:48.166Z</time>
      </trkpt>
      <trkpt lat="42.98244" lon="-1.11577833">
        <ele>866.0</ele>
        <time>2019-07-31T13:50:49.171Z</time>
      </trkpt>
      <trkpt lat="42.982445" lon="-1.11576833">
        <ele>866.0</ele>
        <time>2019-07-31T13:50:50.175Z</time>
      </trkpt>
      <trkpt lat="42.98245167" lon="-1.11574333">
        <ele>867.0</ele>
        <time>2019-07-31T13:50:51.180Z</time>
      </trkpt>
      <trkpt lat="42.98245167" lon="-1.11572167">
        <ele>867.0</ele>
        <time>2019-07-31T13:50:52.185Z</time>
      </trkpt>
      <trkpt lat="42.982455" lon="-1.1157">
        <ele>867.0</ele>
        <time>2019-07-31T13:50:53.063Z</time>
      </trkpt>
      <trkpt lat="42.982455" lon="-1.11566833">
        <ele>866.0</ele>
        <time>2019-07-31T13:50:54.069Z</time>
      </trkpt>
      <trkpt lat="42.98246" lon="-1.115645">
        <ele>865.0</ele>
        <time>2019-07-31T13:50:55.073Z</time>
      </trkpt>
      <trkpt lat="42.98246333" lon="-1.11561833">
        <ele>866.0</ele>
        <time>2019-07-31T13:50:56.078Z</time>
      </trkpt>
      <trkpt lat="42.98245833" lon="-1.1156">
        <ele>866.0</ele>
        <time>2019-07-31T13:50:57.085Z</time>
      </trkpt>
      <trkpt lat="42.98245833" lon="-1.11558833">
        <ele>866.0</ele>
        <time>2019-07-31T13:50:58.089Z</time>
      </trkpt>
      <trkpt lat="42.98246167" lon="-1.11557">
        <ele>866.0</ele>
        <time>2019-07-31T13:50:59.094Z</time>
      </trkpt>
      <trkpt lat="42.98246167" lon="-1.11556">
        <ele>866.0</ele>
        <time>2019-07-31T13:51:00.099Z</time>
      </trkpt>
      <trkpt lat="42.98246333" lon="-1.11554333">
        <ele>865.0</ele>
        <time>2019-07-31T13:51:01.103Z</time>
      </trkpt>
      <trkpt lat="42.98246667" lon="-1.11552333">
        <ele>865.0</ele>
        <time>2019-07-31T13:51:02.109Z</time>
      </trkpt>
      <trkpt lat="42.98246667" lon="-1.11549333">
        <ele>864.0</ele>
        <time>2019-07-31T13:51:03.114Z</time>
      </trkpt>
      <trkpt lat="42.98247333" lon="-1.11546667">
        <ele>862.0</ele>
        <time>2019-07-31T13:51:04.120Z</time>
      </trkpt>
      <trkpt lat="42.98248167" lon="-1.11544167">
        <ele>859.0</ele>
        <time>2019-07-31T13:51:05.127Z</time>
      </trkpt>
      <trkpt lat="42.982485" lon="-1.11541667">
        <ele>858.0</ele>
        <time>2019-07-31T13:51:06.132Z</time>
      </trkpt>
      <trkpt lat="42.98249" lon="-1.11539167">
        <ele>857.0</ele>
        <time>2019-07-31T13:51:07.137Z</time>
      </trkpt>
      <trkpt lat="42.98250167" lon="-1.11536333">
        <ele>857.0</ele>
        <time>2019-07-31T13:51:08.142Z</time>
      </trkpt>
      <trkpt lat="42.98251333" lon="-1.11534">
        <ele>856.0</ele>
        <time>2019-07-31T13:51:09.147Z</time>
      </trkpt>
      <trkpt lat="42.98252167" lon="-1.11531167">
        <ele>856.0</ele>
        <time>2019-07-31T13:51:10.153Z</time>
      </trkpt>
      <trkpt lat="42.98253" lon="-1.11528833">
        <ele>855.0</ele>
        <time>2019-07-31T13:51:11.157Z</time>
      </trkpt>
      <trkpt lat="42.982535" lon="-1.115275">
        <ele>854.0</ele>
        <time>2019-07-31T13:51:12.163Z</time>
      </trkpt>
      <trkpt lat="42.982545" lon="-1.11526">
        <ele>853.0</ele>
        <time>2019-07-31T13:51:13.167Z</time>
      </trkpt>
      <trkpt lat="42.982545" lon="-1.11524167">
        <ele>852.0</ele>
        <time>2019-07-31T13:51:14.172Z</time>
      </trkpt>
      <trkpt lat="42.98255167" lon="-1.11521667">
        <ele>851.0</ele>
        <time>2019-07-31T13:51:15.178Z</time>
      </trkpt>
      <trkpt lat="42.98256" lon="-1.11519333">
        <ele>851.0</ele>
        <time>2019-07-31T13:51:16.183Z</time>
      </trkpt>
      <trkpt lat="42.98257" lon="-1.11517">
        <ele>851.0</ele>
        <time>2019-07-31T13:51:17.062Z</time>
      </trkpt>
      <trkpt lat="42.98258333" lon="-1.115155">
        <ele>850.0</ele>
        <time>2019-07-31T13:51:18.068Z</time>
      </trkpt>
      <trkpt lat="42.98259167" lon="-1.11514333">
        <ele>849.0</ele>
        <time>2019-07-31T13:51:19.075Z</time>
      </trkpt>
      <trkpt lat="42.9826" lon="-1.11513">
        <ele>849.0</ele>
        <time>2019-07-31T13:51:20.081Z</time>
      </trkpt>
      <trkpt lat="42.98260833" lon="-1.11510833">
        <ele>849.0</ele>
        <time>2019-07-31T13:51:21.085Z</time>
      </trkpt>
      <trkpt lat="42.98261833" lon="-1.11508667">
        <ele>849.0</ele>
        <time>2019-07-31T13:51:22.091Z</time>
      </trkpt>
      <trkpt lat="42.98263167" lon="-1.11507333">
        <ele>848.0</ele>
        <time>2019-07-31T13:51:23.094Z</time>
      </trkpt>
      <trkpt lat="42.98263833" lon="-1.11505667">
        <ele>847.0</ele>
        <time>2019-07-31T13:51:24.100Z</time>
      </trkpt>
      <trkpt lat="42.98264167" lon="-1.11503667">
        <ele>846.0</ele>
        <time>2019-07-31T13:51:25.107Z</time>
      </trkpt>
      <trkpt lat="42.98264667" lon="-1.11502333">
        <ele>845.0</ele>
        <time>2019-07-31T13:51:26.112Z</time>
      </trkpt>
      <trkpt lat="42.982655" lon="-1.11500167">
        <ele>844.0</ele>
        <time>2019-07-31T13:51:27.119Z</time>
      </trkpt>
      <trkpt lat="42.982665" lon="-1.11497833">
        <ele>845.0</ele>
        <time>2019-07-31T13:51:28.125Z</time>
      </trkpt>
      <trkpt lat="42.98266833" lon="-1.11496333">
        <ele>844.0</ele>
        <time>2019-07-31T13:51:29.132Z</time>
      </trkpt>
      <trkpt lat="42.982675" lon="-1.11494833">
        <ele>844.0</ele>
        <time>2019-07-31T13:51:30.134Z</time>
      </trkpt>
      <trkpt lat="42.98268667" lon="-1.11493167">
        <ele>843.0</ele>
        <time>2019-07-31T13:51:31.135Z</time>
      </trkpt>
      <trkpt lat="42.98269333" lon="-1.11491167">
        <ele>843.0</ele>
        <time>2019-07-31T13:51:32.137Z</time>
      </trkpt>
      <trkpt lat="42.98269667" lon="-1.11488833">
        <ele>844.0</ele>
        <time>2019-07-31T13:51:33.138Z</time>
      </trkpt>
      <trkpt lat="42.98270333" lon="-1.11487167">
        <ele>844.0</ele>
        <time>2019-07-31T13:51:34.140Z</time>
      </trkpt>
      <trkpt lat="42.98270833" lon="-1.11485">
        <ele>844.0</ele>
        <time>2019-07-31T13:51:35.148Z</time>
      </trkpt>
      <trkpt lat="42.98271333" lon="-1.11482833">
        <ele>845.0</ele>
        <time>2019-07-31T13:51:36.153Z</time>
      </trkpt>
      <trkpt lat="42.98272167" lon="-1.11481">
        <ele>845.0</ele>
        <time>2019-07-31T13:51:37.159Z</time>
      </trkpt>
      <trkpt lat="42.98272833" lon="-1.11479">
        <ele>846.0</ele>
        <time>2019-07-31T13:51:38.164Z</time>
      </trkpt>
      <trkpt lat="42.982735" lon="-1.11477">
        <ele>846.0</ele>
        <time>2019-07-31T13:51:39.171Z</time>
      </trkpt>
      <trkpt lat="42.98274167" lon="-1.11475167">
        <ele>846.0</ele>
        <time>2019-07-31T13:51:40.175Z</time>
      </trkpt>
      <trkpt lat="42.98274833" lon="-1.11473333">
        <ele>846.0</ele>
        <time>2019-07-31T13:51:41.180Z</time>
      </trkpt>
      <trkpt lat="42.98275667" lon="-1.11471667">
        <ele>847.0</ele>
        <time>2019-07-31T13:51:42.185Z</time>
      </trkpt>
      <trkpt lat="42.982765" lon="-1.1147">
        <ele>848.0</ele>
        <time>2019-07-31T13:51:43.065Z</time>
      </trkpt>
      <trkpt lat="42.982775" lon="-1.11468833">
        <ele>848.0</ele>
        <time>2019-07-31T13:51:44.070Z</time>
      </trkpt>
      <trkpt lat="42.982785" lon="-1.11467667">
        <ele>848.0</ele>
        <time>2019-07-31T13:51:45.077Z</time>
      </trkpt>
      <trkpt lat="42.98279667" lon="-1.11466667">
        <ele>849.0</ele>
        <time>2019-07-31T13:51:46.082Z</time>
      </trkpt>
      <trkpt lat="42.98280667" lon="-1.11465333">
        <ele>849.0</ele>
        <time>2019-07-31T13:51:47.087Z</time>
      </trkpt>
      <trkpt lat="42.98281333" lon="-1.11463333">
        <ele>849.0</ele>
        <time>2019-07-31T13:51:48.091Z</time>
      </trkpt>
      <trkpt lat="42.98282" lon="-1.11461667">
        <ele>849.0</ele>
        <time>2019-07-31T13:51:49.097Z</time>
      </trkpt>
      <trkpt lat="42.982825" lon="-1.11459833">
        <ele>849.0</ele>
        <time>2019-07-31T13:51:50.103Z</time>
      </trkpt>
      <trkpt lat="42.98283" lon="-1.11458167">
        <ele>848.0</ele>
        <time>2019-07-31T13:51:51.108Z</time>
      </trkpt>
      <trkpt lat="42.982835" lon="-1.114565">
        <ele>848.0</ele>
        <time>2019-07-31T13:51:52.115Z</time>
      </trkpt>
      <trkpt lat="42.98284" lon="-1.11455">
        <ele>848.0</ele>
        <time>2019-07-31T13:51:53.121Z</time>
      </trkpt>
      <trkpt lat="42.982845" lon="-1.11453333">
        <ele>849.0</ele>
        <time>2019-07-31T13:51:54.128Z</time>
      </trkpt>
      <trkpt lat="42.98285" lon="-1.11451833">
        <ele>849.0</ele>
        <time>2019-07-31T13:51:55.133Z</time>
      </trkpt>
      <trkpt lat="42.982855" lon="-1.11449833">
        <ele>848.0</ele>
        <time>2019-07-31T13:51:56.138Z</time>
      </trkpt>
      <trkpt lat="42.98286167" lon="-1.11448">
        <ele>848.0</ele>
        <time>2019-07-31T13:51:57.143Z</time>
      </trkpt>
      <trkpt lat="42.98286833" lon="-1.11446167">
        <ele>849.0</ele>
        <time>2019-07-31T13:51:58.148Z</time>
      </trkpt>
      <trkpt lat="42.98287167" lon="-1.11444">
        <ele>848.0</ele>
        <time>2019-07-31T13:51:59.152Z</time>
      </trkpt>
      <trkpt lat="42.98287833" lon="-1.11442167">
        <ele>848.0</ele>
        <time>2019-07-31T13:52:00.158Z</time>
      </trkpt>
      <trkpt lat="42.98288333" lon="-1.11440333">
        <ele>847.0</ele>
        <time>2019-07-31T13:52:01.162Z</time>
      </trkpt>
      <trkpt lat="42.98288833" lon="-1.11438667">
        <ele>846.0</ele>
        <time>2019-07-31T13:52:02.167Z</time>
      </trkpt>
      <trkpt lat="42.982895" lon="-1.11437">
        <ele>845.0</ele>
        <time>2019-07-31T13:52:03.170Z</time>
      </trkpt>
      <trkpt lat="42.98290167" lon="-1.11434833">
        <ele>845.0</ele>
        <time>2019-07-31T13:52:04.174Z</time>
      </trkpt>
      <trkpt lat="42.98290667" lon="-1.114325">
        <ele>845.0</ele>
        <time>2019-07-31T13:52:05.175Z</time>
      </trkpt>
      <trkpt lat="42.98291" lon="-1.11430167">
        <ele>845.0</ele>
        <time>2019-07-31T13:52:06.180Z</time>
      </trkpt>
      <trkpt lat="42.982915" lon="-1.11427833">
        <ele>845.0</ele>
        <time>2019-07-31T13:52:07.185Z</time>
      </trkpt>
      <trkpt lat="42.98292167" lon="-1.114265">
        <ele>845.0</ele>
        <time>2019-07-31T13:52:08.063Z</time>
      </trkpt>
      <trkpt lat="42.98292833" lon="-1.11425167">
        <ele>845.0</ele>
        <time>2019-07-31T13:52:09.069Z</time>
      </trkpt>
      <trkpt lat="42.98293333" lon="-1.11423667">
        <ele>845.0</ele>
        <time>2019-07-31T13:52:10.075Z</time>
      </trkpt>
      <trkpt lat="42.98293833" lon="-1.11421667">
        <ele>845.0</ele>
        <time>2019-07-31T13:52:11.081Z</time>
      </trkpt>
      <trkpt lat="42.98294167" lon="-1.11419333">
        <ele>846.0</ele>
        <time>2019-07-31T13:52:12.088Z</time>
      </trkpt>
      <trkpt lat="42.982945" lon="-1.11417">
        <ele>846.0</ele>
        <time>2019-07-31T13:52:13.094Z</time>
      </trkpt>
      <trkpt lat="42.98295" lon="-1.11415167">
        <ele>846.0</ele>
        <time>2019-07-31T13:52:14.100Z</time>
      </trkpt>
      <trkpt lat="42.98295333" lon="-1.11412667">
        <ele>846.0</ele>
        <time>2019-07-31T13:52:15.106Z</time>
      </trkpt>
      <trkpt lat="42.98295833" lon="-1.11410167">
        <ele>847.0</ele>
        <time>2019-07-31T13:52:16.112Z</time>
      </trkpt>
      <trkpt lat="42.98296333" lon="-1.11408333">
        <ele>848.0</ele>
        <time>2019-07-31T13:52:17.118Z</time>
      </trkpt>
      <trkpt lat="42.98297167" lon="-1.11406333">
        <ele>848.0</ele>
        <time>2019-07-31T13:52:18.122Z</time>
      </trkpt>
      <trkpt lat="42.98298167" lon="-1.11404">
        <ele>849.0</ele>
        <time>2019-07-31T13:52:19.128Z</time>
      </trkpt>
      <trkpt lat="42.98299333" lon="-1.114015">
        <ele>849.0</ele>
        <time>2019-07-31T13:52:20.132Z</time>
      </trkpt>
      <trkpt lat="42.983" lon="-1.11398833">
        <ele>850.0</ele>
        <time>2019-07-31T13:52:21.138Z</time>
      </trkpt>
      <trkpt lat="42.98300167" lon="-1.11396833">
        <ele>850.0</ele>
        <time>2019-07-31T13:52:22.143Z</time>
      </trkpt>
      <trkpt lat="42.98300833" lon="-1.113945">
        <ele>851.0</ele>
        <time>2019-07-31T13:52:23.149Z</time>
      </trkpt>
      <trkpt lat="42.98301167" lon="-1.113925">
        <ele>852.0</ele>
        <time>2019-07-31T13:52:24.154Z</time>
      </trkpt>
      <trkpt lat="42.98302" lon="-1.11390167">
        <ele>853.0</ele>
        <time>2019-07-31T13:52:25.160Z</time>
      </trkpt>
      <trkpt lat="42.983025" lon="-1.11387833">
        <ele>854.0</ele>
        <time>2019-07-31T13:52:26.164Z</time>
      </trkpt>
      <trkpt lat="42.98303" lon="-1.11385333">
        <ele>854.0</ele>
        <time>2019-07-31T13:52:27.169Z</time>
      </trkpt>
      <trkpt lat="42.98303333" lon="-1.113835">
        <ele>854.0</ele>
        <time>2019-07-31T13:52:28.172Z</time>
      </trkpt>
      <trkpt lat="42.98303667" lon="-1.11381833">
        <ele>854.0</ele>
        <time>2019-07-31T13:52:29.179Z</time>
      </trkpt>
      <trkpt lat="42.98304167" lon="-1.11379833">
        <ele>854.0</ele>
        <time>2019-07-31T13:52:30.186Z</time>
      </trkpt>
      <trkpt lat="42.98305167" lon="-1.11378333">
        <ele>853.0</ele>
        <time>2019-07-31T13:52:31.067Z</time>
      </trkpt>
      <trkpt lat="42.98306167" lon="-1.11376667">
        <ele>852.0</ele>
        <time>2019-07-31T13:52:32.069Z</time>
      </trkpt>
      <trkpt lat="42.98307" lon="-1.11375833">
        <ele>852.0</ele>
        <time>2019-07-31T13:52:33.073Z</time>
      </trkpt>
      <trkpt lat="42.98307667" lon="-1.11374333">
        <ele>853.0</ele>
        <time>2019-07-31T13:52:34.075Z</time>
      </trkpt>
      <trkpt lat="42.98308333" lon="-1.113725">
        <ele>855.0</ele>
        <time>2019-07-31T13:52:35.077Z</time>
      </trkpt>
      <trkpt lat="42.98308833" lon="-1.11370333">
        <ele>857.0</ele>
        <time>2019-07-31T13:52:36.082Z</time>
      </trkpt>
      <trkpt lat="42.98309333" lon="-1.11367833">
        <ele>858.0</ele>
        <time>2019-07-31T13:52:37.088Z</time>
      </trkpt>
      <trkpt lat="42.98309833" lon="-1.11365">
        <ele>859.0</ele>
        <time>2019-07-31T13:52:38.091Z</time>
      </trkpt>
      <trkpt lat="42.98310333" lon="-1.11362833">
        <ele>860.0</ele>
        <time>2019-07-31T13:52:39.096Z</time>
      </trkpt>
      <trkpt lat="42.98311" lon="-1.11361167">
        <ele>860.0</ele>
        <time>2019-07-31T13:52:40.104Z</time>
      </trkpt>
      <trkpt lat="42.98311333" lon="-1.11359667">
        <ele>860.0</ele>
        <time>2019-07-31T13:52:41.109Z</time>
      </trkpt>
      <trkpt lat="42.98312167" lon="-1.11357833">
        <ele>859.0</ele>
        <time>2019-07-31T13:52:42.115Z</time>
      </trkpt>
      <trkpt lat="42.98313333" lon="-1.11355667">
        <ele>859.0</ele>
        <time>2019-07-31T13:52:43.119Z</time>
      </trkpt>
      <trkpt lat="42.983145" lon="-1.11353833">
        <ele>858.0</ele>
        <time>2019-07-31T13:52:44.128Z</time>
      </trkpt>
      <trkpt lat="42.98315667" lon="-1.11352333">
        <ele>857.0</ele>
        <time>2019-07-31T13:52:45.132Z</time>
      </trkpt>
      <trkpt lat="42.98316833" lon="-1.113505">
        <ele>856.0</ele>
        <time>2019-07-31T13:52:46.137Z</time>
      </trkpt>
      <trkpt lat="42.983175" lon="-1.11348667">
        <ele>855.0</ele>
        <time>2019-07-31T13:52:47.143Z</time>
      </trkpt>
      <trkpt lat="42.98318" lon="-1.11347167">
        <ele>854.0</ele>
        <time>2019-07-31T13:52:48.147Z</time>
      </trkpt>
      <trkpt lat="42.98318833" lon="-1.11345667">
        <ele>854.0</ele>
        <time>2019-07-31T13:52:49.152Z</time>
      </trkpt>
      <trkpt lat="42.983195" lon="-1.113445">
        <ele>852.0</ele>
        <time>2019-07-31T13:52:50.158Z</time>
      </trkpt>
      <trkpt lat="42.9832" lon="-1.113425">
        <ele>850.0</ele>
        <time>2019-07-31T13:52:51.164Z</time>
      </trkpt>
      <trkpt lat="42.98320667" lon="-1.113405">
        <ele>850.0</ele>
        <time>2019-07-31T13:52:52.171Z</time>
      </trkpt>
      <trkpt lat="42.98321167" lon="-1.113385">
        <ele>850.0</ele>
        <time>2019-07-31T13:52:53.176Z</time>
      </trkpt>
      <trkpt lat="42.98321667" lon="-1.11336333">
        <ele>851.0</ele>
        <time>2019-07-31T13:52:54.182Z</time>
      </trkpt>
      <trkpt lat="42.98322167" lon="-1.11334667">
        <ele>852.0</ele>
        <time>2019-07-31T13:52:55.064Z</time>
      </trkpt>
      <trkpt lat="42.98322667" lon="-1.11332833">
        <ele>852.0</ele>
        <time>2019-07-31T13:52:56.069Z</time>
      </trkpt>
      <trkpt lat="42.983235" lon="-1.11331333">
        <ele>852.0</ele>
        <time>2019-07-31T13:52:57.074Z</time>
      </trkpt>
      <trkpt lat="42.983245" lon="-1.1133">
        <ele>852.0</ele>
        <time>2019-07-31T13:52:58.079Z</time>
      </trkpt>
      <trkpt lat="42.98325167" lon="-1.11328167">
        <ele>852.0</ele>
        <time>2019-07-31T13:52:59.085Z</time>
      </trkpt>
      <trkpt lat="42.98325833" lon="-1.11326833">
        <ele>851.0</ele>
        <time>2019-07-31T13:53:00.091Z</time>
      </trkpt>
      <trkpt lat="42.98326333" lon="-1.11325167">
        <ele>852.0</ele>
        <time>2019-07-31T13:53:01.096Z</time>
      </trkpt>
      <trkpt lat="42.98326833" lon="-1.11323167">
        <ele>852.0</ele>
        <time>2019-07-31T13:53:02.101Z</time>
      </trkpt>
      <trkpt lat="42.98327167" lon="-1.11321167">
        <ele>852.0</ele>
        <time>2019-07-31T13:53:03.105Z</time>
      </trkpt>
      <trkpt lat="42.98327833" lon="-1.11319167">
        <ele>852.0</ele>
        <time>2019-07-31T13:53:04.113Z</time>
      </trkpt>
      <trkpt lat="42.98328667" lon="-1.11317333">
        <ele>852.0</ele>
        <time>2019-07-31T13:53:05.121Z</time>
      </trkpt>
      <trkpt lat="42.98329667" lon="-1.11316167">
        <ele>851.0</ele>
        <time>2019-07-31T13:53:06.125Z</time>
      </trkpt>
      <trkpt lat="42.983305" lon="-1.11314667">
        <ele>851.0</ele>
        <time>2019-07-31T13:53:07.130Z</time>
      </trkpt>
      <trkpt lat="42.98331333" lon="-1.11313333">
        <ele>851.0</ele>
        <time>2019-07-31T13:53:08.133Z</time>
      </trkpt>
      <trkpt lat="42.98332333" lon="-1.11311833">
        <ele>850.0</ele>
        <time>2019-07-31T13:53:09.140Z</time>
      </trkpt>
      <trkpt lat="42.98333333" lon="-1.11310167">
        <ele>851.0</ele>
        <time>2019-07-31T13:53:10.147Z</time>
      </trkpt>
      <trkpt lat="42.98334667" lon="-1.113085">
        <ele>851.0</ele>
        <time>2019-07-31T13:53:11.153Z</time>
      </trkpt>
      <trkpt lat="42.98336" lon="-1.11307333">
        <ele>852.0</ele>
        <time>2019-07-31T13:53:12.159Z</time>
      </trkpt>
      <trkpt lat="42.98336833" lon="-1.11305833">
        <ele>852.0</ele>
        <time>2019-07-31T13:53:13.164Z</time>
      </trkpt>
      <trkpt lat="42.98337333" lon="-1.11304167">
        <ele>852.0</ele>
        <time>2019-07-31T13:53:14.171Z</time>
      </trkpt>
      <trkpt lat="42.98338" lon="-1.11302333">
        <ele>852.0</ele>
        <time>2019-07-31T13:53:15.176Z</time>
      </trkpt>
      <trkpt lat="42.983385" lon="-1.11301">
        <ele>852.0</ele>
        <time>2019-07-31T13:53:16.181Z</time>
      </trkpt>
      <trkpt lat="42.98339167" lon="-1.11299667">
        <ele>853.0</ele>
        <time>2019-07-31T13:53:17.061Z</time>
      </trkpt>
      <trkpt lat="42.9834" lon="-1.112985">
        <ele>853.0</ele>
        <time>2019-07-31T13:53:18.068Z</time>
      </trkpt>
      <trkpt lat="42.98340667" lon="-1.11296833">
        <ele>853.0</ele>
        <time>2019-07-31T13:53:19.073Z</time>
      </trkpt>
      <trkpt lat="42.98341833" lon="-1.112955">
        <ele>853.0</ele>
        <time>2019-07-31T13:53:20.077Z</time>
      </trkpt>
      <trkpt lat="42.98342833" lon="-1.11294167">
        <ele>853.0</ele>
        <time>2019-07-31T13:53:21.082Z</time>
      </trkpt>
      <trkpt lat="42.98343667" lon="-1.11292">
        <ele>854.0</ele>
        <time>2019-07-31T13:53:22.088Z</time>
      </trkpt>
      <trkpt lat="42.98344667" lon="-1.11290167">
        <ele>855.0</ele>
        <time>2019-07-31T13:53:23.092Z</time>
      </trkpt>
      <trkpt lat="42.98346167" lon="-1.11289167">
        <ele>855.0</ele>
        <time>2019-07-31T13:53:24.100Z</time>
      </trkpt>
      <trkpt lat="42.983475" lon="-1.11288167">
        <ele>855.0</ele>
        <time>2019-07-31T13:53:25.106Z</time>
      </trkpt>
      <trkpt lat="42.98348667" lon="-1.11286667">
        <ele>856.0</ele>
        <time>2019-07-31T13:53:26.111Z</time>
      </trkpt>
      <trkpt lat="42.983495" lon="-1.11284667">
        <ele>855.0</ele>
        <time>2019-07-31T13:53:27.117Z</time>
      </trkpt>
      <trkpt lat="42.98350833" lon="-1.11283">
        <ele>855.0</ele>
        <time>2019-07-31T13:53:28.123Z</time>
      </trkpt>
      <trkpt lat="42.98352" lon="-1.112815">
        <ele>855.0</ele>
        <time>2019-07-31T13:53:29.129Z</time>
      </trkpt>
      <trkpt lat="42.98352667" lon="-1.11279667">
        <ele>856.0</ele>
        <time>2019-07-31T13:53:30.133Z</time>
      </trkpt>
      <trkpt lat="42.98354167" lon="-1.112785">
        <ele>856.0</ele>
        <time>2019-07-31T13:53:31.137Z</time>
      </trkpt>
      <trkpt lat="42.98355333" lon="-1.11277333">
        <ele>856.0</ele>
        <time>2019-07-31T13:53:32.139Z</time>
      </trkpt>
      <trkpt lat="42.98357" lon="-1.112765">
        <ele>855.0</ele>
        <time>2019-07-31T13:53:33.143Z</time>
      </trkpt>
      <trkpt lat="42.98358833" lon="-1.11275667">
        <ele>855.0</ele>
        <time>2019-07-31T13:53:34.149Z</time>
      </trkpt>
      <trkpt lat="42.9836" lon="-1.112745">
        <ele>855.0</ele>
        <time>2019-07-31T13:53:35.155Z</time>
      </trkpt>
      <trkpt lat="42.98360833" lon="-1.11273167">
        <ele>855.0</ele>
        <time>2019-07-31T13:53:36.160Z</time>
      </trkpt>
      <trkpt lat="42.98362167" lon="-1.11271333">
        <ele>855.0</ele>
        <time>2019-07-31T13:53:37.165Z</time>
      </trkpt>
      <trkpt lat="42.983635" lon="-1.11269667">
        <ele>855.0</ele>
        <time>2019-07-31T13:53:38.169Z</time>
      </trkpt>
      <trkpt lat="42.98364167" lon="-1.11268167">
        <ele>856.0</ele>
        <time>2019-07-31T13:53:39.174Z</time>
      </trkpt>
      <trkpt lat="42.98365" lon="-1.11267333">
        <ele>856.0</ele>
        <time>2019-07-31T13:53:40.178Z</time>
      </trkpt>
      <trkpt lat="42.983665" lon="-1.11266333">
        <ele>857.0</ele>
        <time>2019-07-31T13:53:41.184Z</time>
      </trkpt>
      <trkpt lat="42.98367667" lon="-1.11265">
        <ele>858.0</ele>
        <time>2019-07-31T13:53:42.064Z</time>
      </trkpt>
      <trkpt lat="42.983685" lon="-1.112635">
        <ele>858.0</ele>
        <time>2019-07-31T13:53:43.069Z</time>
      </trkpt>
      <trkpt lat="42.98369667" lon="-1.112625">
        <ele>858.0</ele>
        <time>2019-07-31T13:53:44.072Z</time>
      </trkpt>
      <trkpt lat="42.98370333" lon="-1.11260833">
        <ele>858.0</ele>
        <time>2019-07-31T13:53:45.077Z</time>
      </trkpt>
      <trkpt lat="42.98371167" lon="-1.11259833">
        <ele>859.0</ele>
        <time>2019-07-31T13:53:46.083Z</time>
      </trkpt>
      <trkpt lat="42.983725" lon="-1.11258667">
        <ele>860.0</ele>
        <time>2019-07-31T13:53:47.089Z</time>
      </trkpt>
      <trkpt lat="42.98374" lon="-1.11257833">
        <ele>861.0</ele>
        <time>2019-07-31T13:53:48.094Z</time>
      </trkpt>
      <trkpt lat="42.98375" lon="-1.11256667">
        <ele>862.0</ele>
        <time>2019-07-31T13:53:49.098Z</time>
      </trkpt>
      <trkpt lat="42.98375833" lon="-1.11255">
        <ele>863.0</ele>
        <time>2019-07-31T13:53:50.102Z</time>
      </trkpt>
      <trkpt lat="42.98376" lon="-1.11253">
        <ele>863.0</ele>
        <time>2019-07-31T13:53:51.108Z</time>
      </trkpt>
      <trkpt lat="42.98377333" lon="-1.11251833">
        <ele>865.0</ele>
        <time>2019-07-31T13:53:52.114Z</time>
      </trkpt>
      <trkpt lat="42.98378667" lon="-1.11251167">
        <ele>866.0</ele>
        <time>2019-07-31T13:53:53.120Z</time>
      </trkpt>
      <trkpt lat="42.98379833" lon="-1.11250333">
        <ele>868.0</ele>
        <time>2019-07-31T13:53:54.127Z</time>
      </trkpt>
      <trkpt lat="42.98381333" lon="-1.11249833">
        <ele>870.0</ele>
        <time>2019-07-31T13:53:55.133Z</time>
      </trkpt>
      <trkpt lat="42.98382667" lon="-1.112495">
        <ele>871.0</ele>
        <time>2019-07-31T13:53:56.139Z</time>
      </trkpt>
      <trkpt lat="42.98384" lon="-1.11249333">
        <ele>873.0</ele>
        <time>2019-07-31T13:53:57.144Z</time>
      </trkpt>
      <trkpt lat="42.983855" lon="-1.11249">
        <ele>874.0</ele>
        <time>2019-07-31T13:53:58.149Z</time>
      </trkpt>
      <trkpt lat="42.98386833" lon="-1.11248833">
        <ele>875.0</ele>
        <time>2019-07-31T13:53:59.155Z</time>
      </trkpt>
      <trkpt lat="42.98388333" lon="-1.11248333">
        <ele>875.0</ele>
        <time>2019-07-31T13:54:00.160Z</time>
      </trkpt>
      <trkpt lat="42.98389833" lon="-1.11247667">
        <ele>875.0</ele>
        <time>2019-07-31T13:54:01.166Z</time>
      </trkpt>
      <trkpt lat="42.98391" lon="-1.11246333">
        <ele>876.0</ele>
        <time>2019-07-31T13:54:02.170Z</time>
      </trkpt>
      <trkpt lat="42.98392833" lon="-1.11245333">
        <ele>877.0</ele>
        <time>2019-07-31T13:54:03.174Z</time>
      </trkpt>
      <trkpt lat="42.98394333" lon="-1.11245333">
        <ele>877.0</ele>
        <time>2019-07-31T13:54:04.180Z</time>
      </trkpt>
      <trkpt lat="42.98395333" lon="-1.112455">
        <ele>877.0</ele>
        <time>2019-07-31T13:54:05.061Z</time>
      </trkpt>
      <trkpt lat="42.98396833" lon="-1.11245167">
        <ele>877.0</ele>
        <time>2019-07-31T13:54:06.067Z</time>
      </trkpt>
      <trkpt lat="42.98398333" lon="-1.11244833">
        <ele>877.0</ele>
        <time>2019-07-31T13:54:07.074Z</time>
      </trkpt>
      <trkpt lat="42.98400167" lon="-1.11244333">
        <ele>877.0</ele>
        <time>2019-07-31T13:54:08.080Z</time>
      </trkpt>
      <trkpt lat="42.98401667" lon="-1.11244">
        <ele>877.0</ele>
        <time>2019-07-31T13:54:09.086Z</time>
      </trkpt>
      <trkpt lat="42.98403167" lon="-1.11244167">
        <ele>877.0</ele>
        <time>2019-07-31T13:54:10.091Z</time>
      </trkpt>
      <trkpt lat="42.98403833" lon="-1.11244167">
        <ele>877.0</ele>
        <time>2019-07-31T13:54:11.095Z</time>
      </trkpt>
      <trkpt lat="42.98405333" lon="-1.112455">
        <ele>876.0</ele>
        <time>2019-07-31T13:54:12.101Z</time>
      </trkpt>
      <trkpt lat="42.98407167" lon="-1.11246">
        <ele>876.0</ele>
        <time>2019-07-31T13:54:13.107Z</time>
      </trkpt>
      <trkpt lat="42.98408667" lon="-1.11246167">
        <ele>875.0</ele>
        <time>2019-07-31T13:54:14.113Z</time>
      </trkpt>
      <trkpt lat="42.9841" lon="-1.11245833">
        <ele>876.0</ele>
        <time>2019-07-31T13:54:15.118Z</time>
      </trkpt>
      <trkpt lat="42.98411333" lon="-1.11245333">
        <ele>877.0</ele>
        <time>2019-07-31T13:54:16.122Z</time>
      </trkpt>
      <trkpt lat="42.98413" lon="-1.112445">
        <ele>878.0</ele>
        <time>2019-07-31T13:54:17.128Z</time>
      </trkpt>
      <trkpt lat="42.98414333" lon="-1.112435">
        <ele>878.0</ele>
        <time>2019-07-31T13:54:18.133Z</time>
      </trkpt>
      <trkpt lat="42.98415833" lon="-1.11243333">
        <ele>879.0</ele>
        <time>2019-07-31T13:54:19.139Z</time>
      </trkpt>
      <trkpt lat="42.984175" lon="-1.11243">
        <ele>879.0</ele>
        <time>2019-07-31T13:54:20.145Z</time>
      </trkpt>
      <trkpt lat="42.984185" lon="-1.11243167">
        <ele>879.0</ele>
        <time>2019-07-31T13:54:21.150Z</time>
      </trkpt>
      <trkpt lat="42.98419667" lon="-1.11243333">
        <ele>879.0</ele>
        <time>2019-07-31T13:54:22.154Z</time>
      </trkpt>
      <trkpt lat="42.98420833" lon="-1.11243333">
        <ele>880.0</ele>
        <time>2019-07-31T13:54:23.158Z</time>
      </trkpt>
      <trkpt lat="42.98422" lon="-1.11243167">
        <ele>880.0</ele>
        <time>2019-07-31T13:54:24.164Z</time>
      </trkpt>
      <trkpt lat="42.98423167" lon="-1.11243">
        <ele>880.0</ele>
        <time>2019-07-31T13:54:25.169Z</time>
      </trkpt>
      <trkpt lat="42.98424667" lon="-1.11242833">
        <ele>881.0</ele>
        <time>2019-07-31T13:54:26.174Z</time>
      </trkpt>
      <trkpt lat="42.98426" lon="-1.11242833">
        <ele>882.0</ele>
        <time>2019-07-31T13:54:27.180Z</time>
      </trkpt>
      <trkpt lat="42.984275" lon="-1.11243167">
        <ele>882.0</ele>
        <time>2019-07-31T13:54:28.061Z</time>
      </trkpt>
      <trkpt lat="42.98429" lon="-1.11243833">
        <ele>882.0</ele>
        <time>2019-07-31T13:54:29.066Z</time>
      </trkpt>
      <trkpt lat="42.984305" lon="-1.11244667">
        <ele>881.0</ele>
        <time>2019-07-31T13:54:30.070Z</time>
      </trkpt>
      <trkpt lat="42.98432" lon="-1.112455">
        <ele>881.0</ele>
        <time>2019-07-31T13:54:31.075Z</time>
      </trkpt>
      <trkpt lat="42.984335" lon="-1.11246167">
        <ele>880.0</ele>
        <time>2019-07-31T13:54:32.080Z</time>
      </trkpt>
      <trkpt lat="42.98435" lon="-1.11246667">
        <ele>880.0</ele>
        <time>2019-07-31T13:54:33.086Z</time>
      </trkpt>
      <trkpt lat="42.98436333" lon="-1.11247333">
        <ele>880.0</ele>
        <time>2019-07-31T13:54:34.091Z</time>
      </trkpt>
      <trkpt lat="42.98437833" lon="-1.11248167">
        <ele>880.0</ele>
        <time>2019-07-31T13:54:35.098Z</time>
      </trkpt>
      <trkpt lat="42.98439333" lon="-1.11248667">
        <ele>880.0</ele>
        <time>2019-07-31T13:54:36.105Z</time>
      </trkpt>
      <trkpt lat="42.98440667" lon="-1.11249667">
        <ele>879.0</ele>
        <time>2019-07-31T13:54:37.113Z</time>
      </trkpt>
      <trkpt lat="42.98441667" lon="-1.1125">
        <ele>879.0</ele>
        <time>2019-07-31T13:54:38.119Z</time>
      </trkpt>
      <trkpt lat="42.98443167" lon="-1.11250333">
        <ele>878.0</ele>
        <time>2019-07-31T13:54:39.126Z</time>
      </trkpt>
      <trkpt lat="42.98445" lon="-1.112505">
        <ele>878.0</ele>
        <time>2019-07-31T13:54:40.131Z</time>
      </trkpt>
      <trkpt lat="42.98446333" lon="-1.11250667">
        <ele>877.0</ele>
        <time>2019-07-31T13:54:41.135Z</time>
      </trkpt>
      <trkpt lat="42.98448" lon="-1.11251333">
        <ele>877.0</ele>
        <time>2019-07-31T13:54:42.142Z</time>
      </trkpt>
      <trkpt lat="42.98449167" lon="-1.11252333">
        <ele>877.0</ele>
        <time>2019-07-31T13:54:43.147Z</time>
      </trkpt>
      <trkpt lat="42.98450833" lon="-1.11253">
        <ele>878.0</ele>
        <time>2019-07-31T13:54:44.153Z</time>
      </trkpt>
      <trkpt lat="42.98452833" lon="-1.11253">
        <ele>878.0</ele>
        <time>2019-07-31T13:54:45.158Z</time>
      </trkpt>
      <trkpt lat="42.98454167" lon="-1.11253">
        <ele>878.0</ele>
        <time>2019-07-31T13:54:46.164Z</time>
      </trkpt>
      <trkpt lat="42.98456" lon="-1.11252167">
        <ele>879.0</ele>
        <time>2019-07-31T13:54:47.168Z</time>
      </trkpt>
      <trkpt lat="42.98457167" lon="-1.11251667">
        <ele>880.0</ele>
        <time>2019-07-31T13:54:48.172Z</time>
      </trkpt>
      <trkpt lat="42.984585" lon="-1.11250333">
        <ele>880.0</ele>
        <time>2019-07-31T13:54:49.177Z</time>
      </trkpt>
      <trkpt lat="42.98460167" lon="-1.11250333">
        <ele>880.0</ele>
        <time>2019-07-31T13:54:50.181Z</time>
      </trkpt>
      <trkpt lat="42.984615" lon="-1.1125">
        <ele>880.0</ele>
        <time>2019-07-31T13:54:51.185Z</time>
      </trkpt>
      <trkpt lat="42.98463" lon="-1.11249167">
        <ele>879.0</ele>
        <time>2019-07-31T13:54:52.065Z</time>
      </trkpt>
      <trkpt lat="42.98465" lon="-1.11248667">
        <ele>879.0</ele>
        <time>2019-07-31T13:54:53.069Z</time>
      </trkpt>
      <trkpt lat="42.98467167" lon="-1.11248333">
        <ele>878.0</ele>
        <time>2019-07-31T13:54:54.076Z</time>
      </trkpt>
      <trkpt lat="42.98469667" lon="-1.11248167">
        <ele>877.0</ele>
        <time>2019-07-31T13:54:55.083Z</time>
      </trkpt>
      <trkpt lat="42.984715" lon="-1.11248333">
        <ele>876.0</ele>
        <time>2019-07-31T13:54:56.089Z</time>
      </trkpt>
      <trkpt lat="42.98473167" lon="-1.11248">
        <ele>877.0</ele>
        <time>2019-07-31T13:54:57.095Z</time>
      </trkpt>
      <trkpt lat="42.98474667" lon="-1.112485">
        <ele>877.0</ele>
        <time>2019-07-31T13:54:58.100Z</time>
      </trkpt>
      <trkpt lat="42.98475833" lon="-1.112475">
        <ele>879.0</ele>
        <time>2019-07-31T13:54:59.107Z</time>
      </trkpt>
      <trkpt lat="42.98477667" lon="-1.11247167">
        <ele>880.0</ele>
        <time>2019-07-31T13:55:00.113Z</time>
      </trkpt>
      <trkpt lat="42.98479667" lon="-1.11246667">
        <ele>880.0</ele>
        <time>2019-07-31T13:55:01.120Z</time>
      </trkpt>
      <trkpt lat="42.984815" lon="-1.11246833">
        <ele>879.0</ele>
        <time>2019-07-31T13:55:02.127Z</time>
      </trkpt>
      <trkpt lat="42.98482333" lon="-1.11246167">
        <ele>878.0</ele>
        <time>2019-07-31T13:55:03.132Z</time>
      </trkpt>
      <trkpt lat="42.98483667" lon="-1.11245833">
        <ele>878.0</ele>
        <time>2019-07-31T13:55:04.133Z</time>
      </trkpt>
      <trkpt lat="42.98485" lon="-1.11245">
        <ele>877.0</ele>
        <time>2019-07-31T13:55:05.137Z</time>
      </trkpt>
      <trkpt lat="42.98486" lon="-1.112445">
        <ele>878.0</ele>
        <time>2019-07-31T13:55:06.141Z</time>
      </trkpt>
      <trkpt lat="42.98487333" lon="-1.11244">
        <ele>879.0</ele>
        <time>2019-07-31T13:55:07.146Z</time>
      </trkpt>
      <trkpt lat="42.98488667" lon="-1.11243833">
        <ele>879.0</ele>
        <time>2019-07-31T13:55:08.149Z</time>
      </trkpt>
      <trkpt lat="42.9849" lon="-1.11243667">
        <ele>880.0</ele>
        <time>2019-07-31T13:55:09.153Z</time>
      </trkpt>
      <trkpt lat="42.98491167" lon="-1.11243">
        <ele>881.0</ele>
        <time>2019-07-31T13:55:10.156Z</time>
      </trkpt>
      <trkpt lat="42.98492333" lon="-1.11242167">
        <ele>881.0</ele>
        <time>2019-07-31T13:55:11.162Z</time>
      </trkpt>
      <trkpt lat="42.984935" lon="-1.11241167">
        <ele>881.0</ele>
        <time>2019-07-31T13:55:12.166Z</time>
      </trkpt>
      <trkpt lat="42.98494667" lon="-1.11240167">
        <ele>882.0</ele>
        <time>2019-07-31T13:55:13.173Z</time>
      </trkpt>
      <trkpt lat="42.98495667" lon="-1.11239">
        <ele>882.0</ele>
        <time>2019-07-31T13:55:14.178Z</time>
      </trkpt>
      <trkpt lat="42.984965" lon="-1.11238167">
        <ele>882.0</ele>
        <time>2019-07-31T13:55:15.184Z</time>
      </trkpt>
      <trkpt lat="42.98497333" lon="-1.11237">
        <ele>883.0</ele>
        <time>2019-07-31T13:55:16.062Z</time>
      </trkpt>
      <trkpt lat="42.98498" lon="-1.11236167">
        <ele>883.0</ele>
        <time>2019-07-31T13:55:17.068Z</time>
      </trkpt>
      <trkpt lat="42.98498833" lon="-1.112345">
        <ele>883.0</ele>
        <time>2019-07-31T13:55:18.073Z</time>
      </trkpt>
      <trkpt lat="42.98499667" lon="-1.11232833">
        <ele>883.0</ele>
        <time>2019-07-31T13:55:19.080Z</time>
      </trkpt>
      <trkpt lat="42.985005" lon="-1.11231333">
        <ele>882.0</ele>
        <time>2019-07-31T13:55:20.086Z</time>
      </trkpt>
      <trkpt lat="42.98500833" lon="-1.11230333">
        <ele>882.0</ele>
        <time>2019-07-31T13:55:21.091Z</time>
      </trkpt>
      <trkpt lat="42.985015" lon="-1.11228667">
        <ele>883.0</ele>
        <time>2019-07-31T13:55:22.097Z</time>
      </trkpt>
      <trkpt lat="42.98502" lon="-1.11227167">
        <ele>883.0</ele>
        <time>2019-07-31T13:55:23.103Z</time>
      </trkpt>
      <trkpt lat="42.98502833" lon="-1.11225667">
        <ele>884.0</ele>
        <time>2019-07-31T13:55:24.108Z</time>
      </trkpt>
      <trkpt lat="42.985035" lon="-1.11224">
        <ele>884.0</ele>
        <time>2019-07-31T13:55:25.116Z</time>
      </trkpt>
      <trkpt lat="42.98503667" lon="-1.112225">
        <ele>884.0</ele>
        <time>2019-07-31T13:55:26.122Z</time>
      </trkpt>
      <trkpt lat="42.98504167" lon="-1.11220333">
        <ele>886.0</ele>
        <time>2019-07-31T13:55:27.127Z</time>
      </trkpt>
      <trkpt lat="42.98504667" lon="-1.11218667">
        <ele>886.0</ele>
        <time>2019-07-31T13:55:28.132Z</time>
      </trkpt>
      <trkpt lat="42.98505167" lon="-1.11216667">
        <ele>886.0</ele>
        <time>2019-07-31T13:55:29.137Z</time>
      </trkpt>
      <trkpt lat="42.985055" lon="-1.112155">
        <ele>886.0</ele>
        <time>2019-07-31T13:55:30.144Z</time>
      </trkpt>
      <trkpt lat="42.98506167" lon="-1.11214333">
        <ele>886.0</ele>
        <time>2019-07-31T13:55:31.150Z</time>
      </trkpt>
      <trkpt lat="42.985065" lon="-1.11212833">
        <ele>886.0</ele>
        <time>2019-07-31T13:55:32.156Z</time>
      </trkpt>
      <trkpt lat="42.98507" lon="-1.11211333">
        <ele>886.0</ele>
        <time>2019-07-31T13:55:33.159Z</time>
      </trkpt>
      <trkpt lat="42.98507333" lon="-1.11209667">
        <ele>886.0</ele>
        <time>2019-07-31T13:55:34.161Z</time>
      </trkpt>
      <trkpt lat="42.98507667" lon="-1.11207667">
        <ele>886.0</ele>
        <time>2019-07-31T13:55:35.165Z</time>
      </trkpt>
      <trkpt lat="42.98508333" lon="-1.11205333">
        <ele>886.0</ele>
        <time>2019-07-31T13:55:36.169Z</time>
      </trkpt>
      <trkpt lat="42.98508833" lon="-1.11203167">
        <ele>886.0</ele>
        <time>2019-07-31T13:55:37.174Z</time>
      </trkpt>
      <trkpt lat="42.98509167" lon="-1.11200167">
        <ele>887.0</ele>
        <time>2019-07-31T13:55:38.180Z</time>
      </trkpt>
      <trkpt lat="42.98509167" lon="-1.11197833">
        <ele>888.0</ele>
        <time>2019-07-31T13:55:39.182Z</time>
      </trkpt>
      <trkpt lat="42.985095" lon="-1.11196">
        <ele>889.0</ele>
        <time>2019-07-31T13:55:40.061Z</time>
      </trkpt>
      <trkpt lat="42.98509667" lon="-1.11193667">
        <ele>889.0</ele>
        <time>2019-07-31T13:55:41.066Z</time>
      </trkpt>
      <trkpt lat="42.985095" lon="-1.11191833">
        <ele>890.0</ele>
        <time>2019-07-31T13:55:42.070Z</time>
      </trkpt>
      <trkpt lat="42.9851" lon="-1.11190167">
        <ele>891.0</ele>
        <time>2019-07-31T13:55:43.074Z</time>
      </trkpt>
      <trkpt lat="42.98510167" lon="-1.11188833">
        <ele>892.0</ele>
        <time>2019-07-31T13:55:44.077Z</time>
      </trkpt>
      <trkpt lat="42.98510333" lon="-1.11186833">
        <ele>892.0</ele>
        <time>2019-07-31T13:55:45.080Z</time>
      </trkpt>
      <trkpt lat="42.985105" lon="-1.11185167">
        <ele>892.0</ele>
        <time>2019-07-31T13:55:46.085Z</time>
      </trkpt>
      <trkpt lat="42.98510833" lon="-1.11183167">
        <ele>892.0</ele>
        <time>2019-07-31T13:55:47.089Z</time>
      </trkpt>
      <trkpt lat="42.98511333" lon="-1.11181333">
        <ele>893.0</ele>
        <time>2019-07-31T13:55:48.092Z</time>
      </trkpt>
      <trkpt lat="42.98511667" lon="-1.11178667">
        <ele>893.0</ele>
        <time>2019-07-31T13:55:49.099Z</time>
      </trkpt>
      <trkpt lat="42.98511667" lon="-1.111765">
        <ele>893.0</ele>
        <time>2019-07-31T13:55:50.105Z</time>
      </trkpt>
      <trkpt lat="42.98511667" lon="-1.11174">
        <ele>892.0</ele>
        <time>2019-07-31T13:55:51.109Z</time>
      </trkpt>
      <trkpt lat="42.98512" lon="-1.11171333">
        <ele>892.0</ele>
        <time>2019-07-31T13:55:52.115Z</time>
      </trkpt>
      <trkpt lat="42.98511833" lon="-1.11169667">
        <ele>891.0</ele>
        <time>2019-07-31T13:55:53.122Z</time>
      </trkpt>
      <trkpt lat="42.985115" lon="-1.11168167">
        <ele>890.0</ele>
        <time>2019-07-31T13:55:54.127Z</time>
      </trkpt>
      <trkpt lat="42.98511" lon="-1.11167167">
        <ele>890.0</ele>
        <time>2019-07-31T13:55:55.133Z</time>
      </trkpt>
      <trkpt lat="42.98510333" lon="-1.11166167">
        <ele>889.0</ele>
        <time>2019-07-31T13:55:56.139Z</time>
      </trkpt>
      <trkpt lat="42.985095" lon="-1.11164333">
        <ele>890.0</ele>
        <time>2019-07-31T13:55:57.143Z</time>
      </trkpt>
      <trkpt lat="42.98508833" lon="-1.11162333">
        <ele>889.0</ele>
        <time>2019-07-31T13:55:58.148Z</time>
      </trkpt>
      <trkpt lat="42.985085" lon="-1.11161">
        <ele>889.0</ele>
        <time>2019-07-31T13:55:59.152Z</time>
      </trkpt>
      <trkpt lat="42.98508167" lon="-1.11159">
        <ele>888.0</ele>
        <time>2019-07-31T13:56:00.156Z</time>
      </trkpt>
      <trkpt lat="42.98507667" lon="-1.111565">
        <ele>887.0</ele>
        <time>2019-07-31T13:56:01.162Z</time>
      </trkpt>
      <trkpt lat="42.98507833" lon="-1.11155">
        <ele>886.0</ele>
        <time>2019-07-31T13:56:02.168Z</time>
      </trkpt>
      <trkpt lat="42.98508" lon="-1.11153167">
        <ele>886.0</ele>
        <time>2019-07-31T13:56:03.174Z</time>
      </trkpt>
      <trkpt lat="42.98508167" lon="-1.11151667">
        <ele>886.0</ele>
        <time>2019-07-31T13:56:04.180Z</time>
      </trkpt>
      <trkpt lat="42.98508" lon="-1.11150167">
        <ele>885.0</ele>
        <time>2019-07-31T13:56:05.184Z</time>
      </trkpt>
      <trkpt lat="42.98508" lon="-1.111485">
        <ele>884.0</ele>
        <time>2019-07-31T13:56:06.065Z</time>
      </trkpt>
      <trkpt lat="42.98508333" lon="-1.11147333">
        <ele>883.0</ele>
        <time>2019-07-31T13:56:07.069Z</time>
      </trkpt>
      <trkpt lat="42.98508667" lon="-1.11145667">
        <ele>882.0</ele>
        <time>2019-07-31T13:56:08.078Z</time>
      </trkpt>
      <trkpt lat="42.98508833" lon="-1.11144167">
        <ele>881.0</ele>
        <time>2019-07-31T13:56:09.081Z</time>
      </trkpt>
      <trkpt lat="42.98508333" lon="-1.11142">
        <ele>881.0</ele>
        <time>2019-07-31T13:56:10.084Z</time>
      </trkpt>
      <trkpt lat="42.98508167" lon="-1.11140333">
        <ele>881.0</ele>
        <time>2019-07-31T13:56:11.088Z</time>
      </trkpt>
      <trkpt lat="42.98508" lon="-1.11137833">
        <ele>882.0</ele>
        <time>2019-07-31T13:56:12.092Z</time>
      </trkpt>
      <trkpt lat="42.98507833" lon="-1.11136">
        <ele>882.0</ele>
        <time>2019-07-31T13:56:13.097Z</time>
      </trkpt>
      <trkpt lat="42.98507667" lon="-1.11134333">
        <ele>881.0</ele>
        <time>2019-07-31T13:56:14.103Z</time>
      </trkpt>
      <trkpt lat="42.98507667" lon="-1.111325">
        <ele>880.0</ele>
        <time>2019-07-31T13:56:15.111Z</time>
      </trkpt>
      <trkpt lat="42.98507333" lon="-1.11130167">
        <ele>880.0</ele>
        <time>2019-07-31T13:56:16.117Z</time>
      </trkpt>
      <trkpt lat="42.98507167" lon="-1.11128">
        <ele>881.0</ele>
        <time>2019-07-31T13:56:17.123Z</time>
      </trkpt>
      <trkpt lat="42.98506833" lon="-1.111255">
        <ele>881.0</ele>
        <time>2019-07-31T13:56:18.129Z</time>
      </trkpt>
      <trkpt lat="42.98506167" lon="-1.11123333">
        <ele>880.0</ele>
        <time>2019-07-31T13:56:19.133Z</time>
      </trkpt>
      <trkpt lat="42.98505667" lon="-1.111215">
        <ele>880.0</ele>
        <time>2019-07-31T13:56:20.136Z</time>
      </trkpt>
      <trkpt lat="42.98505167" lon="-1.11119">
        <ele>880.0</ele>
        <time>2019-07-31T13:56:21.143Z</time>
      </trkpt>
      <trkpt lat="42.985045" lon="-1.11116833">
        <ele>879.0</ele>
        <time>2019-07-31T13:56:22.149Z</time>
      </trkpt>
      <trkpt lat="42.98503667" lon="-1.11115167">
        <ele>878.0</ele>
        <time>2019-07-31T13:56:23.156Z</time>
      </trkpt>
      <trkpt lat="42.98503333" lon="-1.11113333">
        <ele>877.0</ele>
        <time>2019-07-31T13:56:24.162Z</time>
      </trkpt>
      <trkpt lat="42.985035" lon="-1.11110833">
        <ele>877.0</ele>
        <time>2019-07-31T13:56:25.167Z</time>
      </trkpt>
      <trkpt lat="42.98503167" lon="-1.11108333">
        <ele>878.0</ele>
        <time>2019-07-31T13:56:26.174Z</time>
      </trkpt>
      <trkpt lat="42.98503" lon="-1.11106">
        <ele>878.0</ele>
        <time>2019-07-31T13:56:27.179Z</time>
      </trkpt>
      <trkpt lat="42.98503" lon="-1.11104167">
        <ele>878.0</ele>
        <time>2019-07-31T13:56:28.182Z</time>
      </trkpt>
      <trkpt lat="42.98502833" lon="-1.11102167">
        <ele>877.0</ele>
        <time>2019-07-31T13:56:29.061Z</time>
      </trkpt>
      <trkpt lat="42.98502833" lon="-1.11099667">
        <ele>877.0</ele>
        <time>2019-07-31T13:56:30.065Z</time>
      </trkpt>
      <trkpt lat="42.98503" lon="-1.11097833">
        <ele>876.0</ele>
        <time>2019-07-31T13:56:31.069Z</time>
      </trkpt>
      <trkpt lat="42.98503167" lon="-1.11095833">
        <ele>875.0</ele>
        <time>2019-07-31T13:56:32.073Z</time>
      </trkpt>
      <trkpt lat="42.98503333" lon="-1.11094">
        <ele>875.0</ele>
        <time>2019-07-31T13:56:33.080Z</time>
      </trkpt>
      <trkpt lat="42.98504" lon="-1.11092167">
        <ele>874.0</ele>
        <time>2019-07-31T13:56:34.087Z</time>
      </trkpt>
      <trkpt lat="42.98504667" lon="-1.11090333">
        <ele>874.0</ele>
        <time>2019-07-31T13:56:35.091Z</time>
      </trkpt>
      <trkpt lat="42.98505167" lon="-1.11087667">
        <ele>875.0</ele>
        <time>2019-07-31T13:56:36.095Z</time>
      </trkpt>
      <trkpt lat="42.985055" lon="-1.11086333">
        <ele>875.0</ele>
        <time>2019-07-31T13:56:37.102Z</time>
      </trkpt>
      <trkpt lat="42.98506" lon="-1.11084667">
        <ele>875.0</ele>
        <time>2019-07-31T13:56:38.107Z</time>
      </trkpt>
      <trkpt lat="42.98506667" lon="-1.11083667">
        <ele>875.0</ele>
        <time>2019-07-31T13:56:39.114Z</time>
      </trkpt>
      <trkpt lat="42.985075" lon="-1.11082167">
        <ele>875.0</ele>
        <time>2019-07-31T13:56:40.119Z</time>
      </trkpt>
      <trkpt lat="42.98508333" lon="-1.11081333">
        <ele>876.0</ele>
        <time>2019-07-31T13:56:41.125Z</time>
      </trkpt>
      <trkpt lat="42.985095" lon="-1.110805">
        <ele>876.0</ele>
        <time>2019-07-31T13:56:42.130Z</time>
      </trkpt>
      <trkpt lat="42.985105" lon="-1.11079833">
        <ele>876.0</ele>
        <time>2019-07-31T13:56:43.134Z</time>
      </trkpt>
      <trkpt lat="42.985115" lon="-1.11079">
        <ele>876.0</ele>
        <time>2019-07-31T13:56:44.141Z</time>
      </trkpt>
      <trkpt lat="42.98513" lon="-1.11077833">
        <ele>876.0</ele>
        <time>2019-07-31T13:56:45.147Z</time>
      </trkpt>
      <trkpt lat="42.98513833" lon="-1.11077333">
        <ele>877.0</ele>
        <time>2019-07-31T13:56:46.153Z</time>
      </trkpt>
      <trkpt lat="42.98515" lon="-1.11076833">
        <ele>877.0</ele>
        <time>2019-07-31T13:56:47.159Z</time>
      </trkpt>
      <trkpt lat="42.98516" lon="-1.11076333">
        <ele>877.0</ele>
        <time>2019-07-31T13:56:48.166Z</time>
      </trkpt>
      <trkpt lat="42.98517" lon="-1.11075833">
        <ele>877.0</ele>
        <time>2019-07-31T13:56:49.172Z</time>
      </trkpt>
      <trkpt lat="42.98517833" lon="-1.110755">
        <ele>877.0</ele>
        <time>2019-07-31T13:56:50.176Z</time>
      </trkpt>
      <trkpt lat="42.98519" lon="-1.110745">
        <ele>877.0</ele>
        <time>2019-07-31T13:56:51.181Z</time>
      </trkpt>
      <trkpt lat="42.98519667" lon="-1.11073667">
        <ele>877.0</ele>
        <time>2019-07-31T13:56:52.062Z</time>
      </trkpt>
      <trkpt lat="42.98520333" lon="-1.11073167">
        <ele>877.0</ele>
        <time>2019-07-31T13:56:53.067Z</time>
      </trkpt>
      <trkpt lat="42.98521167" lon="-1.11072667">
        <ele>876.0</ele>
        <time>2019-07-31T13:56:54.074Z</time>
      </trkpt>
      <trkpt lat="42.98522" lon="-1.11071333">
        <ele>876.0</ele>
        <time>2019-07-31T13:56:55.079Z</time>
      </trkpt>
      <trkpt lat="42.98522667" lon="-1.11070667">
        <ele>877.0</ele>
        <time>2019-07-31T13:56:56.084Z</time>
      </trkpt>
      <trkpt lat="42.985235" lon="-1.1107">
        <ele>877.0</ele>
        <time>2019-07-31T13:56:57.088Z</time>
      </trkpt>
      <trkpt lat="42.98524833" lon="-1.11069167">
        <ele>877.0</ele>
        <time>2019-07-31T13:56:58.091Z</time>
      </trkpt>
      <trkpt lat="42.98525833" lon="-1.110685">
        <ele>878.0</ele>
        <time>2019-07-31T13:56:59.097Z</time>
      </trkpt>
      <trkpt lat="42.98527" lon="-1.11068">
        <ele>878.0</ele>
        <time>2019-07-31T13:57:00.098Z</time>
      </trkpt>
      <trkpt lat="42.98528333" lon="-1.11067">
        <ele>878.0</ele>
        <time>2019-07-31T13:57:01.104Z</time>
      </trkpt>
      <trkpt lat="42.98529333" lon="-1.110665">
        <ele>878.0</ele>
        <time>2019-07-31T13:57:02.111Z</time>
      </trkpt>
      <trkpt lat="42.98530333" lon="-1.11065833">
        <ele>879.0</ele>
        <time>2019-07-31T13:57:03.118Z</time>
      </trkpt>
      <trkpt lat="42.98531333" lon="-1.11065167">
        <ele>880.0</ele>
        <time>2019-07-31T13:57:04.125Z</time>
      </trkpt>
      <trkpt lat="42.98532833" lon="-1.11064333">
        <ele>880.0</ele>
        <time>2019-07-31T13:57:05.132Z</time>
      </trkpt>
      <trkpt lat="42.98533833" lon="-1.11063333">
        <ele>880.0</ele>
        <time>2019-07-31T13:57:06.135Z</time>
      </trkpt>
      <trkpt lat="42.985345" lon="-1.11062333">
        <ele>880.0</ele>
        <time>2019-07-31T13:57:07.139Z</time>
      </trkpt>
      <trkpt lat="42.985355" lon="-1.11061333">
        <ele>880.0</ele>
        <time>2019-07-31T13:57:08.145Z</time>
      </trkpt>
      <trkpt lat="42.98536667" lon="-1.11060833">
        <ele>880.0</ele>
        <time>2019-07-31T13:57:09.152Z</time>
      </trkpt>
      <trkpt lat="42.98537833" lon="-1.11060167">
        <ele>881.0</ele>
        <time>2019-07-31T13:57:10.153Z</time>
      </trkpt>
      <trkpt lat="42.98538667" lon="-1.11059833">
        <ele>881.0</ele>
        <time>2019-07-31T13:57:11.157Z</time>
      </trkpt>
      <trkpt lat="42.98539667" lon="-1.11058833">
        <ele>882.0</ele>
        <time>2019-07-31T13:57:12.163Z</time>
      </trkpt>
      <trkpt lat="42.985405" lon="-1.11058167">
        <ele>884.0</ele>
        <time>2019-07-31T13:57:13.168Z</time>
      </trkpt>
      <trkpt lat="42.985415" lon="-1.11057333">
        <ele>885.0</ele>
        <time>2019-07-31T13:57:14.173Z</time>
      </trkpt>
      <trkpt lat="42.98542667" lon="-1.11056167">
        <ele>885.0</ele>
        <time>2019-07-31T13:57:15.176Z</time>
      </trkpt>
      <trkpt lat="42.98543667" lon="-1.11055167">
        <ele>886.0</ele>
        <time>2019-07-31T13:57:16.182Z</time>
      </trkpt>
      <trkpt lat="42.98544667" lon="-1.11054333">
        <ele>887.0</ele>
        <time>2019-07-31T13:57:17.063Z</time>
      </trkpt>
      <trkpt lat="42.98545667" lon="-1.11053833">
        <ele>888.0</ele>
        <time>2019-07-31T13:57:18.068Z</time>
      </trkpt>
      <trkpt lat="42.98546833" lon="-1.110535">
        <ele>889.0</ele>
        <time>2019-07-31T13:57:19.074Z</time>
      </trkpt>
      <trkpt lat="42.98548167" lon="-1.11052833">
        <ele>890.0</ele>
        <time>2019-07-31T13:57:20.078Z</time>
      </trkpt>
      <trkpt lat="42.98549167" lon="-1.11051667">
        <ele>890.0</ele>
        <time>2019-07-31T13:57:21.084Z</time>
      </trkpt>
      <trkpt lat="42.98550167" lon="-1.11050333">
        <ele>891.0</ele>
        <time>2019-07-31T13:57:22.089Z</time>
      </trkpt>
      <trkpt lat="42.98551" lon="-1.11049333">
        <ele>891.0</ele>
        <time>2019-07-31T13:57:23.095Z</time>
      </trkpt>
      <trkpt lat="42.98552" lon="-1.11047167">
        <ele>891.0</ele>
        <time>2019-07-31T13:57:24.100Z</time>
      </trkpt>
      <trkpt lat="42.98552667" lon="-1.11045333">
        <ele>891.0</ele>
        <time>2019-07-31T13:57:25.106Z</time>
      </trkpt>
      <trkpt lat="42.98553833" lon="-1.11044333">
        <ele>890.0</ele>
        <time>2019-07-31T13:57:26.112Z</time>
      </trkpt>
      <trkpt lat="42.98555" lon="-1.11042667">
        <ele>890.0</ele>
        <time>2019-07-31T13:57:27.118Z</time>
      </trkpt>
      <trkpt lat="42.98556167" lon="-1.11040833">
        <ele>891.0</ele>
        <time>2019-07-31T13:57:28.124Z</time>
      </trkpt>
      <trkpt lat="42.985575" lon="-1.11039333">
        <ele>892.0</ele>
        <time>2019-07-31T13:57:29.131Z</time>
      </trkpt>
      <trkpt lat="42.98558667" lon="-1.11038">
        <ele>892.0</ele>
        <time>2019-07-31T13:57:30.137Z</time>
      </trkpt>
      <trkpt lat="42.98559667" lon="-1.11036333">
        <ele>893.0</ele>
        <time>2019-07-31T13:57:31.142Z</time>
      </trkpt>
      <trkpt lat="42.985605" lon="-1.11035">
        <ele>894.0</ele>
        <time>2019-07-31T13:57:32.147Z</time>
      </trkpt>
      <trkpt lat="42.98561833" lon="-1.110335">
        <ele>894.0</ele>
        <time>2019-07-31T13:57:33.150Z</time>
      </trkpt>
      <trkpt lat="42.985635" lon="-1.11032">
        <ele>895.0</ele>
        <time>2019-07-31T13:57:34.156Z</time>
      </trkpt>
      <trkpt lat="42.98564667" lon="-1.11031">
        <ele>895.0</ele>
        <time>2019-07-31T13:57:35.162Z</time>
      </trkpt>
      <trkpt lat="42.98565833" lon="-1.11029667">
        <ele>895.0</ele>
        <time>2019-07-31T13:57:36.168Z</time>
      </trkpt>
      <trkpt lat="42.98566667" lon="-1.110285">
        <ele>895.0</ele>
        <time>2019-07-31T13:57:37.172Z</time>
      </trkpt>
      <trkpt lat="42.98568" lon="-1.11027167">
        <ele>895.0</ele>
        <time>2019-07-31T13:57:38.177Z</time>
      </trkpt>
      <trkpt lat="42.98569167" lon="-1.11025333">
        <ele>895.0</ele>
        <time>2019-07-31T13:57:39.182Z</time>
      </trkpt>
      <trkpt lat="42.9857" lon="-1.11023167">
        <ele>895.0</ele>
        <time>2019-07-31T13:57:40.061Z</time>
      </trkpt>
      <trkpt lat="42.98569833" lon="-1.11022">
        <ele>893.0</ele>
        <time>2019-07-31T13:57:41.066Z</time>
      </trkpt>
      <trkpt lat="42.98571" lon="-1.110205">
        <ele>893.0</ele>
        <time>2019-07-31T13:57:42.073Z</time>
      </trkpt>
      <trkpt lat="42.98571833" lon="-1.110185">
        <ele>893.0</ele>
        <time>2019-07-31T13:57:43.078Z</time>
      </trkpt>
      <trkpt lat="42.98572833" lon="-1.11016">
        <ele>893.0</ele>
        <time>2019-07-31T13:57:44.084Z</time>
      </trkpt>
      <trkpt lat="42.98574167" lon="-1.11013333">
        <ele>894.0</ele>
        <time>2019-07-31T13:57:45.089Z</time>
      </trkpt>
      <trkpt lat="42.98574833" lon="-1.11011">
        <ele>893.0</ele>
        <time>2019-07-31T13:57:46.094Z</time>
      </trkpt>
      <trkpt lat="42.98575667" lon="-1.11008833">
        <ele>893.0</ele>
        <time>2019-07-31T13:57:47.099Z</time>
      </trkpt>
      <trkpt lat="42.98576333" lon="-1.11005667">
        <ele>895.0</ele>
        <time>2019-07-31T13:57:48.104Z</time>
      </trkpt>
      <trkpt lat="42.98577" lon="-1.11003333">
        <ele>895.0</ele>
        <time>2019-07-31T13:57:49.111Z</time>
      </trkpt>
      <trkpt lat="42.98577167" lon="-1.11001667">
        <ele>895.0</ele>
        <time>2019-07-31T13:57:50.116Z</time>
      </trkpt>
      <trkpt lat="42.98578667" lon="-1.10999333">
        <ele>896.0</ele>
        <time>2019-07-31T13:57:51.122Z</time>
      </trkpt>
      <trkpt lat="42.98579667" lon="-1.109975">
        <ele>895.0</ele>
        <time>2019-07-31T13:57:52.129Z</time>
      </trkpt>
      <trkpt lat="42.98581167" lon="-1.10994333">
        <ele>896.0</ele>
        <time>2019-07-31T13:57:53.133Z</time>
      </trkpt>
      <trkpt lat="42.98582333" lon="-1.109925">
        <ele>896.0</ele>
        <time>2019-07-31T13:57:54.139Z</time>
      </trkpt>
      <trkpt lat="42.98582833" lon="-1.10990833">
        <ele>894.0</ele>
        <time>2019-07-31T13:57:55.141Z</time>
      </trkpt>
      <trkpt lat="42.985835" lon="-1.109885">
        <ele>894.0</ele>
        <time>2019-07-31T13:57:56.147Z</time>
      </trkpt>
      <trkpt lat="42.98584" lon="-1.10986667">
        <ele>893.0</ele>
        <time>2019-07-31T13:57:57.153Z</time>
      </trkpt>
      <trkpt lat="42.98585" lon="-1.10986">
        <ele>891.0</ele>
        <time>2019-07-31T13:57:58.161Z</time>
      </trkpt>
      <trkpt lat="42.98586333" lon="-1.109855">
        <ele>889.0</ele>
        <time>2019-07-31T13:57:59.165Z</time>
      </trkpt>
      <trkpt lat="42.98586" lon="-1.10984">
        <ele>887.0</ele>
        <time>2019-07-31T13:58:00.171Z</time>
      </trkpt>
      <trkpt lat="42.98586333" lon="-1.10982333">
        <ele>886.0</ele>
        <time>2019-07-31T13:58:01.176Z</time>
      </trkpt>
      <trkpt lat="42.985865" lon="-1.10980167">
        <ele>886.0</ele>
        <time>2019-07-31T13:58:02.182Z</time>
      </trkpt>
      <trkpt lat="42.98586833" lon="-1.10978167">
        <ele>886.0</ele>
        <time>2019-07-31T13:58:03.185Z</time>
      </trkpt>
      <trkpt lat="42.985875" lon="-1.10976667">
        <ele>886.0</ele>
        <time>2019-07-31T13:58:04.063Z</time>
      </trkpt>
      <trkpt lat="42.98588167" lon="-1.10975167">
        <ele>885.0</ele>
        <time>2019-07-31T13:58:05.069Z</time>
      </trkpt>
      <trkpt lat="42.985885" lon="-1.10974">
        <ele>885.0</ele>
        <time>2019-07-31T13:58:06.075Z</time>
      </trkpt>
      <trkpt lat="42.98589" lon="-1.10972167">
        <ele>885.0</ele>
        <time>2019-07-31T13:58:07.080Z</time>
      </trkpt>
      <trkpt lat="42.98589333" lon="-1.1097">
        <ele>885.0</ele>
        <time>2019-07-31T13:58:08.086Z</time>
      </trkpt>
      <trkpt lat="42.98589333" lon="-1.10968167">
        <ele>884.0</ele>
        <time>2019-07-31T13:58:09.091Z</time>
      </trkpt>
      <trkpt lat="42.985895" lon="-1.10965">
        <ele>884.0</ele>
        <time>2019-07-31T13:58:10.097Z</time>
      </trkpt>
      <trkpt lat="42.98589667" lon="-1.10963167">
        <ele>884.0</ele>
        <time>2019-07-31T13:58:11.103Z</time>
      </trkpt>
      <trkpt lat="42.98590167" lon="-1.10961167">
        <ele>885.0</ele>
        <time>2019-07-31T13:58:12.111Z</time>
      </trkpt>
      <trkpt lat="42.985905" lon="-1.109595">
        <ele>885.0</ele>
        <time>2019-07-31T13:58:13.116Z</time>
      </trkpt>
      <trkpt lat="42.98591" lon="-1.10957833">
        <ele>884.0</ele>
        <time>2019-07-31T13:58:14.120Z</time>
      </trkpt>
      <trkpt lat="42.98591333" lon="-1.10956167">
        <ele>883.0</ele>
        <time>2019-07-31T13:58:15.124Z</time>
      </trkpt>
      <trkpt lat="42.98591833" lon="-1.10954667">
        <ele>882.0</ele>
        <time>2019-07-31T13:58:16.131Z</time>
      </trkpt>
      <trkpt lat="42.985925" lon="-1.10953167">
        <ele>882.0</ele>
        <time>2019-07-31T13:58:17.136Z</time>
      </trkpt>
      <trkpt lat="42.98593" lon="-1.10950667">
        <ele>881.0</ele>
        <time>2019-07-31T13:58:18.142Z</time>
      </trkpt>
      <trkpt lat="42.98593333" lon="-1.10948167">
        <ele>881.0</ele>
        <time>2019-07-31T13:58:19.147Z</time>
      </trkpt>
      <trkpt lat="42.98594" lon="-1.10946">
        <ele>880.0</ele>
        <time>2019-07-31T13:58:20.150Z</time>
      </trkpt>
      <trkpt lat="42.98594833" lon="-1.10944167">
        <ele>880.0</ele>
        <time>2019-07-31T13:58:21.155Z</time>
      </trkpt>
      <trkpt lat="42.98595333" lon="-1.10942333">
        <ele>879.0</ele>
        <time>2019-07-31T13:58:22.159Z</time>
      </trkpt>
      <trkpt lat="42.98595833" lon="-1.10940833">
        <ele>877.0</ele>
        <time>2019-07-31T13:58:23.164Z</time>
      </trkpt>
      <trkpt lat="42.985965" lon="-1.10938833">
        <ele>877.0</ele>
        <time>2019-07-31T13:58:24.169Z</time>
      </trkpt>
      <trkpt lat="42.98597333" lon="-1.109375">
        <ele>877.0</ele>
        <time>2019-07-31T13:58:25.174Z</time>
      </trkpt>
      <trkpt lat="42.98598" lon="-1.10936">
        <ele>876.0</ele>
        <time>2019-07-31T13:58:26.178Z</time>
      </trkpt>
      <trkpt lat="42.98599167" lon="-1.109345">
        <ele>877.0</ele>
        <time>2019-07-31T13:58:27.183Z</time>
      </trkpt>
      <trkpt lat="42.986" lon="-1.10933">
        <ele>877.0</ele>
        <time>2019-07-31T13:58:28.062Z</time>
      </trkpt>
      <trkpt lat="42.98600667" lon="-1.10931">
        <ele>878.0</ele>
        <time>2019-07-31T13:58:29.066Z</time>
      </trkpt>
      <trkpt lat="42.98600833" lon="-1.10929333">
        <ele>879.0</ele>
        <time>2019-07-31T13:58:30.070Z</time>
      </trkpt>
      <trkpt lat="42.98601667" lon="-1.109285">
        <ele>880.0</ele>
        <time>2019-07-31T13:58:31.076Z</time>
      </trkpt>
      <trkpt lat="42.98602833" lon="-1.10927333">
        <ele>880.0</ele>
        <time>2019-07-31T13:58:32.080Z</time>
      </trkpt>
      <trkpt lat="42.98604333" lon="-1.10927">
        <ele>880.0</ele>
        <time>2019-07-31T13:58:33.085Z</time>
      </trkpt>
      <trkpt lat="42.98605833" lon="-1.10926333">
        <ele>879.0</ele>
        <time>2019-07-31T13:58:34.087Z</time>
      </trkpt>
      <trkpt lat="42.98607" lon="-1.10926">
        <ele>878.0</ele>
        <time>2019-07-31T13:58:35.090Z</time>
      </trkpt>
      <trkpt lat="42.986075" lon="-1.10925667">
        <ele>878.0</ele>
        <time>2019-07-31T13:58:36.096Z</time>
      </trkpt>
      <trkpt lat="42.98608667" lon="-1.10925">
        <ele>878.0</ele>
        <time>2019-07-31T13:58:37.102Z</time>
      </trkpt>
      <trkpt lat="42.98609667" lon="-1.10925">
        <ele>878.0</ele>
        <time>2019-07-31T13:58:38.108Z</time>
      </trkpt>
      <trkpt lat="42.986105" lon="-1.10924833">
        <ele>877.0</ele>
        <time>2019-07-31T13:58:39.112Z</time>
      </trkpt>
      <trkpt lat="42.98611333" lon="-1.10924833">
        <ele>877.0</ele>
        <time>2019-07-31T13:58:40.119Z</time>
      </trkpt>
      <trkpt lat="42.986125" lon="-1.10925167">
        <ele>877.0</ele>
        <time>2019-07-31T13:58:41.125Z</time>
      </trkpt>
      <trkpt lat="42.986135" lon="-1.10925833">
        <ele>876.0</ele>
        <time>2019-07-31T13:58:42.130Z</time>
      </trkpt>
      <trkpt lat="42.98614333" lon="-1.10926333">
        <ele>876.0</ele>
        <time>2019-07-31T13:58:43.136Z</time>
      </trkpt>
      <trkpt lat="42.98615333" lon="-1.10927">
        <ele>875.0</ele>
        <time>2019-07-31T13:58:44.143Z</time>
      </trkpt>
      <trkpt lat="42.98616167" lon="-1.109275">
        <ele>875.0</ele>
        <time>2019-07-31T13:58:45.147Z</time>
      </trkpt>
      <trkpt lat="42.98617167" lon="-1.10928167">
        <ele>875.0</ele>
        <time>2019-07-31T13:58:46.153Z</time>
      </trkpt>
      <trkpt lat="42.98618333" lon="-1.10928667">
        <ele>874.0</ele>
        <time>2019-07-31T13:58:47.159Z</time>
      </trkpt>
      <trkpt lat="42.986195" lon="-1.109295">
        <ele>874.0</ele>
        <time>2019-07-31T13:58:48.164Z</time>
      </trkpt>
      <trkpt lat="42.98620667" lon="-1.10930167">
        <ele>874.0</ele>
        <time>2019-07-31T13:58:49.169Z</time>
      </trkpt>
      <trkpt lat="42.986215" lon="-1.109305">
        <ele>874.0</ele>
        <time>2019-07-31T13:58:50.174Z</time>
      </trkpt>
      <trkpt lat="42.98622667" lon="-1.10931">
        <ele>873.0</ele>
        <time>2019-07-31T13:58:51.180Z</time>
      </trkpt>
      <trkpt lat="42.98623667" lon="-1.10932">
        <ele>874.0</ele>
        <time>2019-07-31T13:58:52.183Z</time>
      </trkpt>
      <trkpt lat="42.986245" lon="-1.10933">
        <ele>873.0</ele>
        <time>2019-07-31T13:58:53.065Z</time>
      </trkpt>
      <trkpt lat="42.98625333" lon="-1.109335">
        <ele>873.0</ele>
        <time>2019-07-31T13:58:54.071Z</time>
      </trkpt>
      <trkpt lat="42.98625833" lon="-1.10934333">
        <ele>873.0</ele>
        <time>2019-07-31T13:58:55.076Z</time>
      </trkpt>
      <trkpt lat="42.98627" lon="-1.10935333">
        <ele>872.0</ele>
        <time>2019-07-31T13:58:56.081Z</time>
      </trkpt>
      <trkpt lat="42.98627667" lon="-1.10936167">
        <ele>872.0</ele>
        <time>2019-07-31T13:58:57.085Z</time>
      </trkpt>
      <trkpt lat="42.986285" lon="-1.10937333">
        <ele>872.0</ele>
        <time>2019-07-31T13:58:58.089Z</time>
      </trkpt>
      <trkpt lat="42.98629167" lon="-1.10938167">
        <ele>871.0</ele>
        <time>2019-07-31T13:58:59.096Z</time>
      </trkpt>
      <trkpt lat="42.98630167" lon="-1.10939667">
        <ele>871.0</ele>
        <time>2019-07-31T13:59:00.102Z</time>
      </trkpt>
      <trkpt lat="42.98631167" lon="-1.10941333">
        <ele>870.0</ele>
        <time>2019-07-31T13:59:01.108Z</time>
      </trkpt>
      <trkpt lat="42.98631333" lon="-1.109425">
        <ele>871.0</ele>
        <time>2019-07-31T13:59:02.112Z</time>
      </trkpt>
      <trkpt lat="42.98631667" lon="-1.109435">
        <ele>871.0</ele>
        <time>2019-07-31T13:59:03.117Z</time>
      </trkpt>
      <trkpt lat="42.98632" lon="-1.10944">
        <ele>871.0</ele>
        <time>2019-07-31T13:59:04.123Z</time>
      </trkpt>
      <trkpt lat="42.98632667" lon="-1.109445">
        <ele>872.0</ele>
        <time>2019-07-31T13:59:05.127Z</time>
      </trkpt>
      <trkpt lat="42.98633" lon="-1.109455">
        <ele>873.0</ele>
        <time>2019-07-31T13:59:06.130Z</time>
      </trkpt>
      <trkpt lat="42.986335" lon="-1.10946333">
        <ele>873.0</ele>
        <time>2019-07-31T13:59:07.136Z</time>
      </trkpt>
      <trkpt lat="42.98634" lon="-1.109475">
        <ele>875.0</ele>
        <time>2019-07-31T13:59:08.142Z</time>
      </trkpt>
      <trkpt lat="42.986345" lon="-1.10948833">
        <ele>876.0</ele>
        <time>2019-07-31T13:59:09.146Z</time>
      </trkpt>
      <trkpt lat="42.98635333" lon="-1.10949833">
        <ele>877.0</ele>
        <time>2019-07-31T13:59:10.152Z</time>
      </trkpt>
      <trkpt lat="42.986365" lon="-1.10951">
        <ele>878.0</ele>
        <time>2019-07-31T13:59:11.159Z</time>
      </trkpt>
      <trkpt lat="42.98637833" lon="-1.10952">
        <ele>878.0</ele>
        <time>2019-07-31T13:59:12.164Z</time>
      </trkpt>
      <trkpt lat="42.98638667" lon="-1.10952833">
        <ele>878.0</ele>
        <time>2019-07-31T13:59:13.169Z</time>
      </trkpt>
      <trkpt lat="42.9864" lon="-1.10954333">
        <ele>878.0</ele>
        <time>2019-07-31T13:59:14.176Z</time>
      </trkpt>
      <trkpt lat="42.98641167" lon="-1.10955">
        <ele>878.0</ele>
        <time>2019-07-31T13:59:15.182Z</time>
      </trkpt>
      <trkpt lat="42.98642667" lon="-1.10956167">
        <ele>878.0</ele>
        <time>2019-07-31T13:59:16.186Z</time>
      </trkpt>
      <trkpt lat="42.986445" lon="-1.10956833">
        <ele>878.0</ele>
        <time>2019-07-31T13:59:17.066Z</time>
      </trkpt>
      <trkpt lat="42.98645833" lon="-1.10957667">
        <ele>877.0</ele>
        <time>2019-07-31T13:59:18.071Z</time>
      </trkpt>
      <trkpt lat="42.98647167" lon="-1.10958667">
        <ele>877.0</ele>
        <time>2019-07-31T13:59:19.075Z</time>
      </trkpt>
      <trkpt lat="42.98648167" lon="-1.10959667">
        <ele>877.0</ele>
        <time>2019-07-31T13:59:20.082Z</time>
      </trkpt>
      <trkpt lat="42.98649333" lon="-1.10960667">
        <ele>877.0</ele>
        <time>2019-07-31T13:59:21.089Z</time>
      </trkpt>
      <trkpt lat="42.98650333" lon="-1.109615">
        <ele>877.0</ele>
        <time>2019-07-31T13:59:22.094Z</time>
      </trkpt>
      <trkpt lat="42.98651" lon="-1.10962167">
        <ele>878.0</ele>
        <time>2019-07-31T13:59:23.099Z</time>
      </trkpt>
      <trkpt lat="42.98652333" lon="-1.109625">
        <ele>878.0</ele>
        <time>2019-07-31T13:59:24.101Z</time>
      </trkpt>
      <trkpt lat="42.98653333" lon="-1.10963167">
        <ele>879.0</ele>
        <time>2019-07-31T13:59:25.105Z</time>
      </trkpt>
      <trkpt lat="42.98654333" lon="-1.10964">
        <ele>880.0</ele>
        <time>2019-07-31T13:59:26.110Z</time>
      </trkpt>
      <trkpt lat="42.986555" lon="-1.109645">
        <ele>881.0</ele>
        <time>2019-07-31T13:59:27.115Z</time>
      </trkpt>
      <trkpt lat="42.98656833" lon="-1.10965">
        <ele>882.0</ele>
        <time>2019-07-31T13:59:28.120Z</time>
      </trkpt>
      <trkpt lat="42.98658167" lon="-1.109655">
        <ele>881.0</ele>
        <time>2019-07-31T13:59:29.123Z</time>
      </trkpt>
      <trkpt lat="42.98659333" lon="-1.10966">
        <ele>881.0</ele>
        <time>2019-07-31T13:59:30.125Z</time>
      </trkpt>
      <trkpt lat="42.98660333" lon="-1.10966167">
        <ele>881.0</ele>
        <time>2019-07-31T13:59:31.128Z</time>
      </trkpt>
      <trkpt lat="42.986615" lon="-1.10966333">
        <ele>880.0</ele>
        <time>2019-07-31T13:59:32.129Z</time>
      </trkpt>
      <trkpt lat="42.98662667" lon="-1.10966833">
        <ele>880.0</ele>
        <time>2019-07-31T13:59:33.132Z</time>
      </trkpt>
      <trkpt lat="42.98664167" lon="-1.10967833">
        <ele>880.0</ele>
        <time>2019-07-31T13:59:34.133Z</time>
      </trkpt>
      <trkpt lat="42.98665667" lon="-1.10968667">
        <ele>879.0</ele>
        <time>2019-07-31T13:59:35.135Z</time>
      </trkpt>
      <trkpt lat="42.98667167" lon="-1.10969333">
        <ele>880.0</ele>
        <time>2019-07-31T13:59:36.140Z</time>
      </trkpt>
      <trkpt lat="42.98668833" lon="-1.10969833">
        <ele>880.0</ele>
        <time>2019-07-31T13:59:37.145Z</time>
      </trkpt>
      <trkpt lat="42.98669833" lon="-1.10970167">
        <ele>880.0</ele>
        <time>2019-07-31T13:59:38.148Z</time>
      </trkpt>
      <trkpt lat="42.98672" lon="-1.109705">
        <ele>881.0</ele>
        <time>2019-07-31T13:59:39.153Z</time>
      </trkpt>
      <trkpt lat="42.98673667" lon="-1.10970833">
        <ele>881.0</ele>
        <time>2019-07-31T13:59:40.161Z</time>
      </trkpt>
      <trkpt lat="42.986755" lon="-1.10971167">
        <ele>880.0</ele>
        <time>2019-07-31T13:59:41.168Z</time>
      </trkpt>
      <trkpt lat="42.98676667" lon="-1.10971333">
        <ele>881.0</ele>
        <time>2019-07-31T13:59:42.174Z</time>
      </trkpt>
      <trkpt lat="42.98678167" lon="-1.109715">
        <ele>881.0</ele>
        <time>2019-07-31T13:59:43.181Z</time>
      </trkpt>
      <trkpt lat="42.98679667" lon="-1.10971667">
        <ele>881.0</ele>
        <time>2019-07-31T13:59:44.185Z</time>
      </trkpt>
      <trkpt lat="42.98681" lon="-1.10971667">
        <ele>882.0</ele>
        <time>2019-07-31T13:59:45.066Z</time>
      </trkpt>
      <trkpt lat="42.98682167" lon="-1.10971167">
        <ele>882.0</ele>
        <time>2019-07-31T13:59:46.070Z</time>
      </trkpt>
      <trkpt lat="42.98683333" lon="-1.10970667">
        <ele>882.0</ele>
        <time>2019-07-31T13:59:47.075Z</time>
      </trkpt>
      <trkpt lat="42.986845" lon="-1.10970333">
        <ele>883.0</ele>
        <time>2019-07-31T13:59:48.080Z</time>
      </trkpt>
      <trkpt lat="42.98686" lon="-1.10970667">
        <ele>883.0</ele>
        <time>2019-07-31T13:59:49.083Z</time>
      </trkpt>
      <trkpt lat="42.98687667" lon="-1.109715">
        <ele>883.0</ele>
        <time>2019-07-31T13:59:50.085Z</time>
      </trkpt>
      <trkpt lat="42.98689" lon="-1.10972">
        <ele>882.0</ele>
        <time>2019-07-31T13:59:51.091Z</time>
      </trkpt>
      <trkpt lat="42.9869" lon="-1.10971833">
        <ele>883.0</ele>
        <time>2019-07-31T13:59:52.099Z</time>
      </trkpt>
      <trkpt lat="42.98691" lon="-1.109715">
        <ele>884.0</ele>
        <time>2019-07-31T13:59:53.106Z</time>
      </trkpt>
      <trkpt lat="42.986925" lon="-1.109715">
        <ele>885.0</ele>
        <time>2019-07-31T13:59:54.115Z</time>
      </trkpt>
      <trkpt lat="42.986935" lon="-1.10971667">
        <ele>885.0</ele>
        <time>2019-07-31T13:59:55.120Z</time>
      </trkpt>
      <trkpt lat="42.98695333" lon="-1.109725">
        <ele>884.0</ele>
        <time>2019-07-31T13:59:56.125Z</time>
      </trkpt>
      <trkpt lat="42.98696833" lon="-1.10972">
        <ele>883.0</ele>
        <time>2019-07-31T13:59:57.130Z</time>
      </trkpt>
      <trkpt lat="42.98698167" lon="-1.10971833">
        <ele>883.0</ele>
        <time>2019-07-31T13:59:58.134Z</time>
      </trkpt>
      <trkpt lat="42.98699833" lon="-1.10972667">
        <ele>882.0</ele>
        <time>2019-07-31T13:59:59.138Z</time>
      </trkpt>
      <trkpt lat="42.98701667" lon="-1.109735">
        <ele>882.0</ele>
        <time>2019-07-31T14:00:00.141Z</time>
      </trkpt>
      <trkpt lat="42.98703167" lon="-1.10973333">
        <ele>881.0</ele>
        <time>2019-07-31T14:00:01.147Z</time>
      </trkpt>
      <trkpt lat="42.98705" lon="-1.10973667">
        <ele>880.0</ele>
        <time>2019-07-31T14:00:02.153Z</time>
      </trkpt>
      <trkpt lat="42.98706667" lon="-1.10974333">
        <ele>880.0</ele>
        <time>2019-07-31T14:00:03.158Z</time>
      </trkpt>
      <trkpt lat="42.98708333" lon="-1.10975">
        <ele>878.0</ele>
        <time>2019-07-31T14:00:04.162Z</time>
      </trkpt>
      <trkpt lat="42.987095" lon="-1.109755">
        <ele>877.0</ele>
        <time>2019-07-31T14:00:05.165Z</time>
      </trkpt>
      <trkpt lat="42.9871" lon="-1.10975333">
        <ele>876.0</ele>
        <time>2019-07-31T14:00:06.170Z</time>
      </trkpt>
      <trkpt lat="42.98710833" lon="-1.109755">
        <ele>876.0</ele>
        <time>2019-07-31T14:00:07.175Z</time>
      </trkpt>
      <trkpt lat="42.987125" lon="-1.10975833">
        <ele>876.0</ele>
        <time>2019-07-31T14:00:08.181Z</time>
      </trkpt>
      <trkpt lat="42.98714" lon="-1.10975833">
        <ele>876.0</ele>
        <time>2019-07-31T14:00:09.186Z</time>
      </trkpt>
      <trkpt lat="42.98715167" lon="-1.10976333">
        <ele>877.0</ele>
        <time>2019-07-31T14:00:10.067Z</time>
      </trkpt>
      <trkpt lat="42.98716333" lon="-1.10976833">
        <ele>877.0</ele>
        <time>2019-07-31T14:00:11.074Z</time>
      </trkpt>
      <trkpt lat="42.98717333" lon="-1.10977333">
        <ele>878.0</ele>
        <time>2019-07-31T14:00:12.079Z</time>
      </trkpt>
      <trkpt lat="42.98718333" lon="-1.10977833">
        <ele>878.0</ele>
        <time>2019-07-31T14:00:13.084Z</time>
      </trkpt>
      <trkpt lat="42.98719667" lon="-1.109785">
        <ele>878.0</ele>
        <time>2019-07-31T14:00:14.088Z</time>
      </trkpt>
      <trkpt lat="42.98720667" lon="-1.10978833">
        <ele>879.0</ele>
        <time>2019-07-31T14:00:15.092Z</time>
      </trkpt>
      <trkpt lat="42.98721667" lon="-1.109795">
        <ele>878.0</ele>
        <time>2019-07-31T14:00:16.097Z</time>
      </trkpt>
      <trkpt lat="42.98722667" lon="-1.10980167">
        <ele>879.0</ele>
        <time>2019-07-31T14:00:17.100Z</time>
      </trkpt>
      <trkpt lat="42.98723667" lon="-1.10980667">
        <ele>879.0</ele>
        <time>2019-07-31T14:00:18.107Z</time>
      </trkpt>
      <trkpt lat="42.98724667" lon="-1.10981167">
        <ele>879.0</ele>
        <time>2019-07-31T14:00:19.107Z</time>
      </trkpt>
      <trkpt lat="42.98726167" lon="-1.10982167">
        <ele>880.0</ele>
        <time>2019-07-31T14:00:20.110Z</time>
      </trkpt>
      <trkpt lat="42.98727333" lon="-1.10983">
        <ele>880.0</ele>
        <time>2019-07-31T14:00:21.115Z</time>
      </trkpt>
      <trkpt lat="42.98728333" lon="-1.109835">
        <ele>880.0</ele>
        <time>2019-07-31T14:00:22.123Z</time>
      </trkpt>
      <trkpt lat="42.98729667" lon="-1.10984">
        <ele>881.0</ele>
        <time>2019-07-31T14:00:23.127Z</time>
      </trkpt>
      <trkpt lat="42.98730833" lon="-1.10984167">
        <ele>880.0</ele>
        <time>2019-07-31T14:00:24.132Z</time>
      </trkpt>
      <trkpt lat="42.98732" lon="-1.10984667">
        <ele>880.0</ele>
        <time>2019-07-31T14:00:25.137Z</time>
      </trkpt>
      <trkpt lat="42.98733167" lon="-1.109855">
        <ele>879.0</ele>
        <time>2019-07-31T14:00:26.145Z</time>
      </trkpt>
      <trkpt lat="42.98734167" lon="-1.10986167">
        <ele>880.0</ele>
        <time>2019-07-31T14:00:27.150Z</time>
      </trkpt>
      <trkpt lat="42.98734833" lon="-1.10986333">
        <ele>880.0</ele>
        <time>2019-07-31T14:00:28.153Z</time>
      </trkpt>
      <trkpt lat="42.98735833" lon="-1.109865">
        <ele>882.0</ele>
        <time>2019-07-31T14:00:29.158Z</time>
      </trkpt>
      <trkpt lat="42.98736833" lon="-1.10986167">
        <ele>882.0</ele>
        <time>2019-07-31T14:00:30.164Z</time>
      </trkpt>
      <trkpt lat="42.98738167" lon="-1.10986">
        <ele>883.0</ele>
        <time>2019-07-31T14:00:31.168Z</time>
      </trkpt>
      <trkpt lat="42.987395" lon="-1.10985333">
        <ele>882.0</ele>
        <time>2019-07-31T14:00:32.172Z</time>
      </trkpt>
      <trkpt lat="42.98740667" lon="-1.10984667">
        <ele>882.0</ele>
        <time>2019-07-31T14:00:33.177Z</time>
      </trkpt>
      <trkpt lat="42.987415" lon="-1.10983833">
        <ele>882.0</ele>
        <time>2019-07-31T14:00:34.184Z</time>
      </trkpt>
      <trkpt lat="42.98742333" lon="-1.10983">
        <ele>882.0</ele>
        <time>2019-07-31T14:00:35.065Z</time>
      </trkpt>
      <trkpt lat="42.98743333" lon="-1.10980833">
        <ele>881.0</ele>
        <time>2019-07-31T14:00:36.071Z</time>
      </trkpt>
      <trkpt lat="42.987445" lon="-1.10979833">
        <ele>879.0</ele>
        <time>2019-07-31T14:00:37.076Z</time>
      </trkpt>
      <trkpt lat="42.98746167" lon="-1.10978333">
        <ele>879.0</ele>
        <time>2019-07-31T14:00:38.082Z</time>
      </trkpt>
      <trkpt lat="42.98747833" lon="-1.10976833">
        <ele>878.0</ele>
        <time>2019-07-31T14:00:39.087Z</time>
      </trkpt>
      <trkpt lat="42.98749" lon="-1.10975833">
        <ele>878.0</ele>
        <time>2019-07-31T14:00:40.091Z</time>
      </trkpt>
      <trkpt lat="42.987505" lon="-1.10974833">
        <ele>877.0</ele>
        <time>2019-07-31T14:00:41.096Z</time>
      </trkpt>
      <trkpt lat="42.98751667" lon="-1.10973">
        <ele>877.0</ele>
        <time>2019-07-31T14:00:42.101Z</time>
      </trkpt>
      <trkpt lat="42.98752833" lon="-1.10970833">
        <ele>877.0</ele>
        <time>2019-07-31T14:00:43.105Z</time>
      </trkpt>
      <trkpt lat="42.98754333" lon="-1.10969">
        <ele>876.0</ele>
        <time>2019-07-31T14:00:44.110Z</time>
      </trkpt>
      <trkpt lat="42.987555" lon="-1.10967">
        <ele>876.0</ele>
        <time>2019-07-31T14:00:45.115Z</time>
      </trkpt>
      <trkpt lat="42.98756667" lon="-1.109655">
        <ele>875.0</ele>
        <time>2019-07-31T14:00:46.120Z</time>
      </trkpt>
      <trkpt lat="42.98758" lon="-1.10964">
        <ele>874.0</ele>
        <time>2019-07-31T14:00:47.126Z</time>
      </trkpt>
      <trkpt lat="42.98759333" lon="-1.10962667">
        <ele>873.0</ele>
        <time>2019-07-31T14:00:48.131Z</time>
      </trkpt>
      <trkpt lat="42.98760667" lon="-1.10961167">
        <ele>871.0</ele>
        <time>2019-07-31T14:00:49.135Z</time>
      </trkpt>
      <trkpt lat="42.98762" lon="-1.10959833">
        <ele>869.0</ele>
        <time>2019-07-31T14:00:50.140Z</time>
      </trkpt>
      <trkpt lat="42.98763333" lon="-1.10958833">
        <ele>867.0</ele>
        <time>2019-07-31T14:00:51.145Z</time>
      </trkpt>
      <trkpt lat="42.98764667" lon="-1.10957667">
        <ele>865.0</ele>
        <time>2019-07-31T14:00:52.150Z</time>
      </trkpt>
      <trkpt lat="42.987655" lon="-1.10955833">
        <ele>865.0</ele>
        <time>2019-07-31T14:00:53.154Z</time>
      </trkpt>
      <trkpt lat="42.98765833" lon="-1.10953667">
        <ele>864.0</ele>
        <time>2019-07-31T14:00:54.159Z</time>
      </trkpt>
      <trkpt lat="42.98767833" lon="-1.10952667">
        <ele>863.0</ele>
        <time>2019-07-31T14:00:55.165Z</time>
      </trkpt>
      <trkpt lat="42.987695" lon="-1.10951">
        <ele>862.0</ele>
        <time>2019-07-31T14:00:56.170Z</time>
      </trkpt>
      <trkpt lat="42.987705" lon="-1.10949833">
        <ele>861.0</ele>
        <time>2019-07-31T14:00:57.175Z</time>
      </trkpt>
      <trkpt lat="42.98771" lon="-1.10948833">
        <ele>861.0</ele>
        <time>2019-07-31T14:00:58.179Z</time>
      </trkpt>
      <trkpt lat="42.98771167" lon="-1.10946833">
        <ele>861.0</ele>
        <time>2019-07-31T14:00:59.185Z</time>
      </trkpt>
      <trkpt lat="42.98772167" lon="-1.10945">
        <ele>860.0</ele>
        <time>2019-07-31T14:01:00.065Z</time>
      </trkpt>
      <trkpt lat="42.987735" lon="-1.109425">
        <ele>860.0</ele>
        <time>2019-07-31T14:01:01.070Z</time>
      </trkpt>
      <trkpt lat="42.98774333" lon="-1.10941">
        <ele>860.0</ele>
        <time>2019-07-31T14:01:02.075Z</time>
      </trkpt>
      <trkpt lat="42.987755" lon="-1.10939333">
        <ele>861.0</ele>
        <time>2019-07-31T14:01:03.080Z</time>
      </trkpt>
      <trkpt lat="42.98776333" lon="-1.109375">
        <ele>861.0</ele>
        <time>2019-07-31T14:01:04.085Z</time>
      </trkpt>
      <trkpt lat="42.987775" lon="-1.10935167">
        <ele>862.0</ele>
        <time>2019-07-31T14:01:05.090Z</time>
      </trkpt>
      <trkpt lat="42.98778333" lon="-1.10934">
        <ele>861.0</ele>
        <time>2019-07-31T14:01:06.096Z</time>
      </trkpt>
      <trkpt lat="42.98779333" lon="-1.10931833">
        <ele>861.0</ele>
        <time>2019-07-31T14:01:07.102Z</time>
      </trkpt>
      <trkpt lat="42.98780167" lon="-1.10929333">
        <ele>862.0</ele>
        <time>2019-07-31T14:01:08.108Z</time>
      </trkpt>
      <trkpt lat="42.98781167" lon="-1.10927667">
        <ele>861.0</ele>
        <time>2019-07-31T14:01:09.115Z</time>
      </trkpt>
      <trkpt lat="42.98782" lon="-1.10926167">
        <ele>861.0</ele>
        <time>2019-07-31T14:01:10.121Z</time>
      </trkpt>
      <trkpt lat="42.98782667" lon="-1.109245">
        <ele>862.0</ele>
        <time>2019-07-31T14:01:11.126Z</time>
      </trkpt>
      <trkpt lat="42.98783333" lon="-1.10922667">
        <ele>862.0</ele>
        <time>2019-07-31T14:01:12.131Z</time>
      </trkpt>
      <trkpt lat="42.98784" lon="-1.10921167">
        <ele>861.0</ele>
        <time>2019-07-31T14:01:13.135Z</time>
      </trkpt>
      <trkpt lat="42.98784833" lon="-1.109195">
        <ele>861.0</ele>
        <time>2019-07-31T14:01:14.141Z</time>
      </trkpt>
      <trkpt lat="42.98785667" lon="-1.10918">
        <ele>861.0</ele>
        <time>2019-07-31T14:01:15.146Z</time>
      </trkpt>
      <trkpt lat="42.98786667" lon="-1.10916667">
        <ele>861.0</ele>
        <time>2019-07-31T14:01:16.152Z</time>
      </trkpt>
      <trkpt lat="42.98787667" lon="-1.10915333">
        <ele>860.0</ele>
        <time>2019-07-31T14:01:17.158Z</time>
      </trkpt>
      <trkpt lat="42.98788667" lon="-1.10914333">
        <ele>860.0</ele>
        <time>2019-07-31T14:01:18.165Z</time>
      </trkpt>
      <trkpt lat="42.98789667" lon="-1.10913">
        <ele>859.0</ele>
        <time>2019-07-31T14:01:19.171Z</time>
      </trkpt>
      <trkpt lat="42.98790167" lon="-1.10912167">
        <ele>859.0</ele>
        <time>2019-07-31T14:01:20.176Z</time>
      </trkpt>
      <trkpt lat="42.98790833" lon="-1.10911333">
        <ele>859.0</ele>
        <time>2019-07-31T14:01:21.182Z</time>
      </trkpt>
      <trkpt lat="42.98791667" lon="-1.10911">
        <ele>859.0</ele>
        <time>2019-07-31T14:01:22.061Z</time>
      </trkpt>
      <trkpt lat="42.98792167" lon="-1.10911167">
        <ele>859.0</ele>
        <time>2019-07-31T14:01:23.066Z</time>
      </trkpt>
      <trkpt lat="42.98792667" lon="-1.109115">
        <ele>859.0</ele>
        <time>2019-07-31T14:01:24.070Z</time>
      </trkpt>
      <trkpt lat="42.98793" lon="-1.109125">
        <ele>858.0</ele>
        <time>2019-07-31T14:01:25.076Z</time>
      </trkpt>
      <trkpt lat="42.98793167" lon="-1.109135">
        <ele>857.0</ele>
        <time>2019-07-31T14:01:26.082Z</time>
      </trkpt>
      <trkpt lat="42.987935" lon="-1.10914833">
        <ele>857.0</ele>
        <time>2019-07-31T14:01:27.089Z</time>
      </trkpt>
      <trkpt lat="42.98793667" lon="-1.10916333">
        <ele>857.0</ele>
        <time>2019-07-31T14:01:28.093Z</time>
      </trkpt>
      <trkpt lat="42.98793667" lon="-1.10918">
        <ele>857.0</ele>
        <time>2019-07-31T14:01:29.100Z</time>
      </trkpt>
      <trkpt lat="42.98794" lon="-1.10919667">
        <ele>857.0</ele>
        <time>2019-07-31T14:01:30.105Z</time>
      </trkpt>
      <trkpt lat="42.98794667" lon="-1.10920833">
        <ele>856.0</ele>
        <time>2019-07-31T14:01:31.111Z</time>
      </trkpt>
      <trkpt lat="42.98795167" lon="-1.10922">
        <ele>856.0</ele>
        <time>2019-07-31T14:01:32.116Z</time>
      </trkpt>
      <trkpt lat="42.98795333" lon="-1.10923">
        <ele>857.0</ele>
        <time>2019-07-31T14:01:33.121Z</time>
      </trkpt>
      <trkpt lat="42.98795167" lon="-1.10923167">
        <ele>857.0</ele>
        <time>2019-07-31T14:01:34.126Z</time>
      </trkpt>
      <trkpt lat="42.98795333" lon="-1.10922833">
        <ele>857.0</ele>
        <time>2019-07-31T14:01:35.130Z</time>
      </trkpt>
      <trkpt lat="42.98795" lon="-1.10921667">
        <ele>858.0</ele>
        <time>2019-07-31T14:01:36.136Z</time>
      </trkpt>
      <trkpt lat="42.98794833" lon="-1.10920667">
        <ele>858.0</ele>
        <time>2019-07-31T14:01:37.143Z</time>
      </trkpt>
      <trkpt lat="42.987945" lon="-1.10918833">
        <ele>859.0</ele>
        <time>2019-07-31T14:01:38.150Z</time>
      </trkpt>
      <trkpt lat="42.98794333" lon="-1.10917667">
        <ele>860.0</ele>
        <time>2019-07-31T14:01:39.156Z</time>
      </trkpt>
      <trkpt lat="42.98794333" lon="-1.10916333">
        <ele>860.0</ele>
        <time>2019-07-31T14:01:40.162Z</time>
      </trkpt>
      <trkpt lat="42.987945" lon="-1.10914333">
        <ele>861.0</ele>
        <time>2019-07-31T14:01:41.166Z</time>
      </trkpt>
      <trkpt lat="42.98794833" lon="-1.10912167">
        <ele>861.0</ele>
        <time>2019-07-31T14:01:42.170Z</time>
      </trkpt>
      <trkpt lat="42.98794833" lon="-1.10909833">
        <ele>862.0</ele>
        <time>2019-07-31T14:01:43.174Z</time>
      </trkpt>
      <trkpt lat="42.98795" lon="-1.10907833">
        <ele>861.0</ele>
        <time>2019-07-31T14:01:44.178Z</time>
      </trkpt>
      <trkpt lat="42.98795" lon="-1.10906333">
        <ele>861.0</ele>
        <time>2019-07-31T14:01:45.184Z</time>
      </trkpt>
      <trkpt lat="42.98795" lon="-1.10905">
        <ele>860.0</ele>
        <time>2019-07-31T14:01:46.063Z</time>
      </trkpt>
      <trkpt lat="42.98795167" lon="-1.10903333">
        <ele>859.0</ele>
        <time>2019-07-31T14:01:47.067Z</time>
      </trkpt>
      <trkpt lat="42.98795667" lon="-1.10901667">
        <ele>858.0</ele>
        <time>2019-07-31T14:01:48.072Z</time>
      </trkpt>
      <trkpt lat="42.98796333" lon="-1.10900833">
        <ele>858.0</ele>
        <time>2019-07-31T14:01:49.079Z</time>
      </trkpt>
      <trkpt lat="42.98797" lon="-1.108995">
        <ele>858.0</ele>
        <time>2019-07-31T14:01:50.085Z</time>
      </trkpt>
      <trkpt lat="42.98797833" lon="-1.10897833">
        <ele>857.0</ele>
        <time>2019-07-31T14:01:51.089Z</time>
      </trkpt>
      <trkpt lat="42.98799167" lon="-1.10896">
        <ele>857.0</ele>
        <time>2019-07-31T14:01:52.093Z</time>
      </trkpt>
      <trkpt lat="42.98800333" lon="-1.10894667">
        <ele>857.0</ele>
        <time>2019-07-31T14:01:53.097Z</time>
      </trkpt>
      <trkpt lat="42.988015" lon="-1.10893333">
        <ele>857.0</ele>
        <time>2019-07-31T14:01:54.103Z</time>
      </trkpt>
      <trkpt lat="42.98802167" lon="-1.10891833">
        <ele>857.0</ele>
        <time>2019-07-31T14:01:55.110Z</time>
      </trkpt>
      <trkpt lat="42.98802833" lon="-1.10891333">
        <ele>855.0</ele>
        <time>2019-07-31T14:01:56.115Z</time>
      </trkpt>
      <trkpt lat="42.98803333" lon="-1.10890333">
        <ele>856.0</ele>
        <time>2019-07-31T14:01:57.121Z</time>
      </trkpt>
      <trkpt lat="42.98804167" lon="-1.10888333">
        <ele>856.0</ele>
        <time>2019-07-31T14:01:58.126Z</time>
      </trkpt>
      <trkpt lat="42.98805" lon="-1.10887">
        <ele>856.0</ele>
        <time>2019-07-31T14:01:59.131Z</time>
      </trkpt>
      <trkpt lat="42.98805833" lon="-1.10885333">
        <ele>855.0</ele>
        <time>2019-07-31T14:02:00.135Z</time>
      </trkpt>
      <trkpt lat="42.98806833" lon="-1.10883667">
        <ele>855.0</ele>
        <time>2019-07-31T14:02:01.140Z</time>
      </trkpt>
      <trkpt lat="42.98807833" lon="-1.10882333">
        <ele>855.0</ele>
        <time>2019-07-31T14:02:02.145Z</time>
      </trkpt>
      <trkpt lat="42.988085" lon="-1.10880667">
        <ele>855.0</ele>
        <time>2019-07-31T14:02:03.149Z</time>
      </trkpt>
      <trkpt lat="42.98809333" lon="-1.10878833">
        <ele>856.0</ele>
        <time>2019-07-31T14:02:04.155Z</time>
      </trkpt>
      <trkpt lat="42.9881" lon="-1.10877">
        <ele>856.0</ele>
        <time>2019-07-31T14:02:05.162Z</time>
      </trkpt>
      <trkpt lat="42.98810833" lon="-1.108755">
        <ele>857.0</ele>
        <time>2019-07-31T14:02:06.168Z</time>
      </trkpt>
      <trkpt lat="42.988115" lon="-1.10874">
        <ele>857.0</ele>
        <time>2019-07-31T14:02:07.175Z</time>
      </trkpt>
      <trkpt lat="42.98812667" lon="-1.108725">
        <ele>857.0</ele>
        <time>2019-07-31T14:02:08.181Z</time>
      </trkpt>
      <trkpt lat="42.98813833" lon="-1.108715">
        <ele>858.0</ele>
        <time>2019-07-31T14:02:09.186Z</time>
      </trkpt>
      <trkpt lat="42.98815" lon="-1.10870167">
        <ele>858.0</ele>
        <time>2019-07-31T14:02:10.067Z</time>
      </trkpt>
      <trkpt lat="42.98815667" lon="-1.10869">
        <ele>858.0</ele>
        <time>2019-07-31T14:02:11.071Z</time>
      </trkpt>
      <trkpt lat="42.98816333" lon="-1.10867167">
        <ele>858.0</ele>
        <time>2019-07-31T14:02:12.076Z</time>
      </trkpt>
      <trkpt lat="42.98817333" lon="-1.10865">
        <ele>858.0</ele>
        <time>2019-07-31T14:02:13.081Z</time>
      </trkpt>
      <trkpt lat="42.98818167" lon="-1.10863667">
        <ele>857.0</ele>
        <time>2019-07-31T14:02:14.086Z</time>
      </trkpt>
      <trkpt lat="42.98819167" lon="-1.10862333">
        <ele>857.0</ele>
        <time>2019-07-31T14:02:15.091Z</time>
      </trkpt>
      <trkpt lat="42.98820167" lon="-1.108615">
        <ele>857.0</ele>
        <time>2019-07-31T14:02:16.096Z</time>
      </trkpt>
      <trkpt lat="42.98820833" lon="-1.10860833">
        <ele>857.0</ele>
        <time>2019-07-31T14:02:17.100Z</time>
      </trkpt>
      <trkpt lat="42.988215" lon="-1.10859667">
        <ele>857.0</ele>
        <time>2019-07-31T14:02:18.104Z</time>
      </trkpt>
      <trkpt lat="42.988225" lon="-1.10858667">
        <ele>857.0</ele>
        <time>2019-07-31T14:02:19.111Z</time>
      </trkpt>
      <trkpt lat="42.98823333" lon="-1.10857667">
        <ele>857.0</ele>
        <time>2019-07-31T14:02:20.117Z</time>
      </trkpt>
      <trkpt lat="42.98824167" lon="-1.108565">
        <ele>857.0</ele>
        <time>2019-07-31T14:02:21.124Z</time>
      </trkpt>
      <trkpt lat="42.98825" lon="-1.10855167">
        <ele>857.0</ele>
        <time>2019-07-31T14:02:22.130Z</time>
      </trkpt>
      <trkpt lat="42.98826" lon="-1.10853">
        <ele>857.0</ele>
        <time>2019-07-31T14:02:23.135Z</time>
      </trkpt>
      <trkpt lat="42.98826833" lon="-1.10851167">
        <ele>858.0</ele>
        <time>2019-07-31T14:02:24.140Z</time>
      </trkpt>
      <trkpt lat="42.98827667" lon="-1.10849333">
        <ele>859.0</ele>
        <time>2019-07-31T14:02:25.145Z</time>
      </trkpt>
      <trkpt lat="42.98828333" lon="-1.108475">
        <ele>859.0</ele>
        <time>2019-07-31T14:02:26.151Z</time>
      </trkpt>
      <trkpt lat="42.98828667" lon="-1.10846333">
        <ele>860.0</ele>
        <time>2019-07-31T14:02:27.155Z</time>
      </trkpt>
      <trkpt lat="42.98829" lon="-1.10845333">
        <ele>861.0</ele>
        <time>2019-07-31T14:02:28.161Z</time>
      </trkpt>
      <trkpt lat="42.98829167" lon="-1.10844167">
        <ele>861.0</ele>
        <time>2019-07-31T14:02:29.167Z</time>
      </trkpt>
      <trkpt lat="42.98829333" lon="-1.108435">
        <ele>862.0</ele>
        <time>2019-07-31T14:02:30.172Z</time>
      </trkpt>
      <trkpt lat="42.98829667" lon="-1.10842833">
        <ele>862.0</ele>
        <time>2019-07-31T14:02:31.177Z</time>
      </trkpt>
      <trkpt lat="42.98829833" lon="-1.10842">
        <ele>863.0</ele>
        <time>2019-07-31T14:02:32.183Z</time>
      </trkpt>
      <trkpt lat="42.988305" lon="-1.10841">
        <ele>864.0</ele>
        <time>2019-07-31T14:02:33.062Z</time>
      </trkpt>
      <trkpt lat="42.98830667" lon="-1.10840333">
        <ele>864.0</ele>
        <time>2019-07-31T14:02:34.067Z</time>
      </trkpt>
      <trkpt lat="42.98831" lon="-1.10839667">
        <ele>865.0</ele>
        <time>2019-07-31T14:02:35.073Z</time>
      </trkpt>
      <trkpt lat="42.988315" lon="-1.10839">
        <ele>865.0</ele>
        <time>2019-07-31T14:02:36.076Z</time>
      </trkpt>
      <trkpt lat="42.98832167" lon="-1.10838167">
        <ele>866.0</ele>
        <time>2019-07-31T14:02:37.081Z</time>
      </trkpt>
      <trkpt lat="42.98832667" lon="-1.10836833">
        <ele>867.0</ele>
        <time>2019-07-31T14:02:38.085Z</time>
      </trkpt>
      <trkpt lat="42.98832833" lon="-1.108355">
        <ele>868.0</ele>
        <time>2019-07-31T14:02:39.090Z</time>
      </trkpt>
      <trkpt lat="42.98833333" lon="-1.10834167">
        <ele>869.0</ele>
        <time>2019-07-31T14:02:40.095Z</time>
      </trkpt>
      <trkpt lat="42.98833667" lon="-1.10832333">
        <ele>869.0</ele>
        <time>2019-07-31T14:02:41.099Z</time>
      </trkpt>
      <trkpt lat="42.98834" lon="-1.10831">
        <ele>869.0</ele>
        <time>2019-07-31T14:02:42.104Z</time>
      </trkpt>
      <trkpt lat="42.98834333" lon="-1.108295">
        <ele>868.0</ele>
        <time>2019-07-31T14:02:43.109Z</time>
      </trkpt>
      <trkpt lat="42.98834833" lon="-1.108275">
        <ele>867.0</ele>
        <time>2019-07-31T14:02:44.115Z</time>
      </trkpt>
      <trkpt lat="42.98835333" lon="-1.10825667">
        <ele>867.0</ele>
        <time>2019-07-31T14:02:45.120Z</time>
      </trkpt>
      <trkpt lat="42.98836" lon="-1.108235">
        <ele>867.0</ele>
        <time>2019-07-31T14:02:46.125Z</time>
      </trkpt>
      <trkpt lat="42.98837" lon="-1.10821667">
        <ele>866.0</ele>
        <time>2019-07-31T14:02:47.129Z</time>
      </trkpt>
      <trkpt lat="42.98837833" lon="-1.10819667">
        <ele>866.0</ele>
        <time>2019-07-31T14:02:48.132Z</time>
      </trkpt>
      <trkpt lat="42.98838333" lon="-1.10817667">
        <ele>866.0</ele>
        <time>2019-07-31T14:02:49.135Z</time>
      </trkpt>
      <trkpt lat="42.98838833" lon="-1.10815833">
        <ele>866.0</ele>
        <time>2019-07-31T14:02:50.140Z</time>
      </trkpt>
      <trkpt lat="42.98839333" lon="-1.10813833">
        <ele>866.0</ele>
        <time>2019-07-31T14:02:51.146Z</time>
      </trkpt>
      <trkpt lat="42.98839833" lon="-1.10811833">
        <ele>867.0</ele>
        <time>2019-07-31T14:02:52.153Z</time>
      </trkpt>
      <trkpt lat="42.98840833" lon="-1.10809667">
        <ele>867.0</ele>
        <time>2019-07-31T14:02:53.160Z</time>
      </trkpt>
      <trkpt lat="42.988415" lon="-1.10807833">
        <ele>867.0</ele>
        <time>2019-07-31T14:02:54.165Z</time>
      </trkpt>
      <trkpt lat="42.98842167" lon="-1.10806167">
        <ele>866.0</ele>
        <time>2019-07-31T14:02:55.170Z</time>
      </trkpt>
      <trkpt lat="42.98842833" lon="-1.10804667">
        <ele>866.0</ele>
        <time>2019-07-31T14:02:56.174Z</time>
      </trkpt>
      <trkpt lat="42.988435" lon="-1.10802833">
        <ele>866.0</ele>
        <time>2019-07-31T14:02:57.178Z</time>
      </trkpt>
      <trkpt lat="42.98844167" lon="-1.10801333">
        <ele>867.0</ele>
        <time>2019-07-31T14:02:58.183Z</time>
      </trkpt>
      <trkpt lat="42.98845167" lon="-1.10799667">
        <ele>867.0</ele>
        <time>2019-07-31T14:02:59.063Z</time>
      </trkpt>
      <trkpt lat="42.98845833" lon="-1.10798">
        <ele>867.0</ele>
        <time>2019-07-31T14:03:00.067Z</time>
      </trkpt>
      <trkpt lat="42.988465" lon="-1.10796333">
        <ele>867.0</ele>
        <time>2019-07-31T14:03:01.072Z</time>
      </trkpt>
      <trkpt lat="42.98846667" lon="-1.10794667">
        <ele>868.0</ele>
        <time>2019-07-31T14:03:02.078Z</time>
      </trkpt>
      <trkpt lat="42.98847167" lon="-1.10792833">
        <ele>868.0</ele>
        <time>2019-07-31T14:03:03.083Z</time>
      </trkpt>
      <trkpt lat="42.98847833" lon="-1.10790833">
        <ele>867.0</ele>
        <time>2019-07-31T14:03:04.088Z</time>
      </trkpt>
      <trkpt lat="42.988485" lon="-1.10789167">
        <ele>867.0</ele>
        <time>2019-07-31T14:03:05.089Z</time>
      </trkpt>
      <trkpt lat="42.98849" lon="-1.10787167">
        <ele>866.0</ele>
        <time>2019-07-31T14:03:06.092Z</time>
      </trkpt>
      <trkpt lat="42.98849833" lon="-1.10784833">
        <ele>865.0</ele>
        <time>2019-07-31T14:03:07.096Z</time>
      </trkpt>
      <trkpt lat="42.98851" lon="-1.10782833">
        <ele>864.0</ele>
        <time>2019-07-31T14:03:08.100Z</time>
      </trkpt>
      <trkpt lat="42.98851667" lon="-1.10781667">
        <ele>864.0</ele>
        <time>2019-07-31T14:03:09.105Z</time>
      </trkpt>
      <trkpt lat="42.988525" lon="-1.107805">
        <ele>863.0</ele>
        <time>2019-07-31T14:03:10.108Z</time>
      </trkpt>
      <trkpt lat="42.98853167" lon="-1.10779167">
        <ele>862.0</ele>
        <time>2019-07-31T14:03:11.112Z</time>
      </trkpt>
      <trkpt lat="42.98853833" lon="-1.10778167">
        <ele>861.0</ele>
        <time>2019-07-31T14:03:12.117Z</time>
      </trkpt>
      <trkpt lat="42.98855" lon="-1.10776833">
        <ele>860.0</ele>
        <time>2019-07-31T14:03:13.122Z</time>
      </trkpt>
      <trkpt lat="42.98856333" lon="-1.10775333">
        <ele>860.0</ele>
        <time>2019-07-31T14:03:14.126Z</time>
      </trkpt>
      <trkpt lat="42.98857167" lon="-1.107735">
        <ele>859.0</ele>
        <time>2019-07-31T14:03:15.130Z</time>
      </trkpt>
      <trkpt lat="42.98858167" lon="-1.10770333">
        <ele>859.0</ele>
        <time>2019-07-31T14:03:16.132Z</time>
      </trkpt>
      <trkpt lat="42.98859167" lon="-1.10767">
        <ele>859.0</ele>
        <time>2019-07-31T14:03:17.137Z</time>
      </trkpt>
      <trkpt lat="42.988595" lon="-1.10764167">
        <ele>859.0</ele>
        <time>2019-07-31T14:03:18.140Z</time>
      </trkpt>
      <trkpt lat="42.9886" lon="-1.10761667">
        <ele>860.0</ele>
        <time>2019-07-31T14:03:19.145Z</time>
      </trkpt>
      <trkpt lat="42.98860667" lon="-1.107595">
        <ele>859.0</ele>
        <time>2019-07-31T14:03:20.153Z</time>
      </trkpt>
      <trkpt lat="42.98861333" lon="-1.107575">
        <ele>859.0</ele>
        <time>2019-07-31T14:03:21.158Z</time>
      </trkpt>
      <trkpt lat="42.98862" lon="-1.10754833">
        <ele>860.0</ele>
        <time>2019-07-31T14:03:22.165Z</time>
      </trkpt>
      <trkpt lat="42.988625" lon="-1.10753333">
        <ele>860.0</ele>
        <time>2019-07-31T14:03:23.170Z</time>
      </trkpt>
      <trkpt lat="42.988625" lon="-1.10751">
        <ele>861.0</ele>
        <time>2019-07-31T14:03:24.173Z</time>
      </trkpt>
      <trkpt lat="42.98863" lon="-1.10748667">
        <ele>862.0</ele>
        <time>2019-07-31T14:03:25.177Z</time>
      </trkpt>
      <trkpt lat="42.988635" lon="-1.10747">
        <ele>862.0</ele>
        <time>2019-07-31T14:03:26.184Z</time>
      </trkpt>
      <trkpt lat="42.98863833" lon="-1.10745333">
        <ele>862.0</ele>
        <time>2019-07-31T14:03:27.063Z</time>
      </trkpt>
      <trkpt lat="42.988645" lon="-1.107435">
        <ele>864.0</ele>
        <time>2019-07-31T14:03:28.066Z</time>
      </trkpt>
      <trkpt lat="42.98865167" lon="-1.10742667">
        <ele>864.0</ele>
        <time>2019-07-31T14:03:29.069Z</time>
      </trkpt>
      <trkpt lat="42.98866333" lon="-1.10741167">
        <ele>864.0</ele>
        <time>2019-07-31T14:03:30.074Z</time>
      </trkpt>
      <trkpt lat="42.98867667" lon="-1.10739167">
        <ele>865.0</ele>
        <time>2019-07-31T14:03:31.081Z</time>
      </trkpt>
      <trkpt lat="42.98868667" lon="-1.10737333">
        <ele>865.0</ele>
        <time>2019-07-31T14:03:32.087Z</time>
      </trkpt>
      <trkpt lat="42.98868833" lon="-1.107355">
        <ele>865.0</ele>
        <time>2019-07-31T14:03:33.091Z</time>
      </trkpt>
      <trkpt lat="42.98869333" lon="-1.10733833">
        <ele>863.0</ele>
        <time>2019-07-31T14:03:34.096Z</time>
      </trkpt>
      <trkpt lat="42.9887" lon="-1.107325">
        <ele>862.0</ele>
        <time>2019-07-31T14:03:35.102Z</time>
      </trkpt>
      <trkpt lat="42.98870667" lon="-1.107305">
        <ele>861.0</ele>
        <time>2019-07-31T14:03:36.107Z</time>
      </trkpt>
      <trkpt lat="42.98870833" lon="-1.10728">
        <ele>862.0</ele>
        <time>2019-07-31T14:03:37.112Z</time>
      </trkpt>
      <trkpt lat="42.98871833" lon="-1.10726333">
        <ele>861.0</ele>
        <time>2019-07-31T14:03:38.116Z</time>
      </trkpt>
      <trkpt lat="42.98872167" lon="-1.10724833">
        <ele>859.0</ele>
        <time>2019-07-31T14:03:39.121Z</time>
      </trkpt>
      <trkpt lat="42.98872667" lon="-1.10725">
        <ele>858.0</ele>
        <time>2019-07-31T14:03:40.128Z</time>
      </trkpt>
      <trkpt lat="42.988735" lon="-1.10726833">
        <ele>857.0</ele>
        <time>2019-07-31T14:03:41.133Z</time>
      </trkpt>
      <trkpt lat="42.98874" lon="-1.10728333">
        <ele>856.0</ele>
        <time>2019-07-31T14:03:42.138Z</time>
      </trkpt>
      <trkpt lat="42.98874" lon="-1.10728333">
        <ele>856.0</ele>
        <time>2019-07-31T14:03:43.144Z</time>
      </trkpt>
      <trkpt lat="42.98874167" lon="-1.10728333">
        <ele>857.0</ele>
        <time>2019-07-31T14:03:44.150Z</time>
      </trkpt>
      <trkpt lat="42.98874167" lon="-1.107285">
        <ele>857.0</ele>
        <time>2019-07-31T14:03:45.155Z</time>
      </trkpt>
      <trkpt lat="42.98874167" lon="-1.107285">
        <ele>857.0</ele>
        <time>2019-07-31T14:03:46.160Z</time>
      </trkpt>
      <trkpt lat="42.98873833" lon="-1.107285">
        <ele>857.0</ele>
        <time>2019-07-31T14:03:47.164Z</time>
      </trkpt>
      <trkpt lat="42.98873333" lon="-1.10728333">
        <ele>857.0</ele>
        <time>2019-07-31T14:03:48.169Z</time>
      </trkpt>
      <trkpt lat="42.98873167" lon="-1.10728333">
        <ele>858.0</ele>
        <time>2019-07-31T14:03:49.174Z</time>
      </trkpt>
      <trkpt lat="42.98873167" lon="-1.10728333">
        <ele>858.0</ele>
        <time>2019-07-31T14:03:50.179Z</time>
      </trkpt>
      <trkpt lat="42.988735" lon="-1.10728333">
        <ele>857.0</ele>
        <time>2019-07-31T14:03:51.185Z</time>
      </trkpt>
      <trkpt lat="42.98873667" lon="-1.107285">
        <ele>856.0</ele>
        <time>2019-07-31T14:03:52.066Z</time>
      </trkpt>
      <trkpt lat="42.98873667" lon="-1.10728833">
        <ele>856.0</ele>
        <time>2019-07-31T14:03:53.071Z</time>
      </trkpt>
      <trkpt lat="42.98873833" lon="-1.10729">
        <ele>856.0</ele>
        <time>2019-07-31T14:03:54.075Z</time>
      </trkpt>
      <trkpt lat="42.98873667" lon="-1.107295">
        <ele>855.0</ele>
        <time>2019-07-31T14:03:55.079Z</time>
      </trkpt>
      <trkpt lat="42.98873667" lon="-1.10729667">
        <ele>854.0</ele>
        <time>2019-07-31T14:03:56.086Z</time>
      </trkpt>
      <trkpt lat="42.98873333" lon="-1.1073">
        <ele>854.0</ele>
        <time>2019-07-31T14:03:57.091Z</time>
      </trkpt>
      <trkpt lat="42.98872833" lon="-1.10729833">
        <ele>854.0</ele>
        <time>2019-07-31T14:03:58.095Z</time>
      </trkpt>
      <trkpt lat="42.98873" lon="-1.10729667">
        <ele>854.0</ele>
        <time>2019-07-31T14:03:59.098Z</time>
      </trkpt>
      <trkpt lat="42.98873" lon="-1.10728833">
        <ele>854.0</ele>
        <time>2019-07-31T14:04:00.103Z</time>
      </trkpt>
      <trkpt lat="42.98872833" lon="-1.10728">
        <ele>854.0</ele>
        <time>2019-07-31T14:04:01.107Z</time>
      </trkpt>
      <trkpt lat="42.98872833" lon="-1.107275">
        <ele>854.0</ele>
        <time>2019-07-31T14:04:02.113Z</time>
      </trkpt>
      <trkpt lat="42.988725" lon="-1.10727333">
        <ele>855.0</ele>
        <time>2019-07-31T14:04:03.118Z</time>
      </trkpt>
      <trkpt lat="42.98872167" lon="-1.10727">
        <ele>855.0</ele>
        <time>2019-07-31T14:04:04.121Z</time>
      </trkpt>
      <trkpt lat="42.98872" lon="-1.10726833">
        <ele>856.0</ele>
        <time>2019-07-31T14:04:05.126Z</time>
      </trkpt>
      <trkpt lat="42.98871667" lon="-1.10726167">
        <ele>856.0</ele>
        <time>2019-07-31T14:04:06.132Z</time>
      </trkpt>
      <trkpt lat="42.98871333" lon="-1.10726333">
        <ele>857.0</ele>
        <time>2019-07-31T14:04:07.138Z</time>
      </trkpt>
      <trkpt lat="42.98871167" lon="-1.107265">
        <ele>857.0</ele>
        <time>2019-07-31T14:04:08.143Z</time>
      </trkpt>
      <trkpt lat="42.98870667" lon="-1.107265">
        <ele>858.0</ele>
        <time>2019-07-31T14:04:09.150Z</time>
      </trkpt>
      <trkpt lat="42.988705" lon="-1.10726667">
        <ele>858.0</ele>
        <time>2019-07-31T14:04:10.156Z</time>
      </trkpt>
      <trkpt lat="42.98870333" lon="-1.10726333">
        <ele>857.0</ele>
        <time>2019-07-31T14:04:11.159Z</time>
      </trkpt>
      <trkpt lat="42.98870333" lon="-1.10725167">
        <ele>855.0</ele>
        <time>2019-07-31T14:04:12.163Z</time>
      </trkpt>
      <trkpt lat="42.98870667" lon="-1.10724">
        <ele>854.0</ele>
        <time>2019-07-31T14:04:13.169Z</time>
      </trkpt>
      <trkpt lat="42.98870833" lon="-1.10722667">
        <ele>853.0</ele>
        <time>2019-07-31T14:04:14.174Z</time>
      </trkpt>
      <trkpt lat="42.98871167" lon="-1.107215">
        <ele>852.0</ele>
        <time>2019-07-31T14:04:15.177Z</time>
      </trkpt>
      <trkpt lat="42.98871" lon="-1.10720667">
        <ele>852.0</ele>
        <time>2019-07-31T14:04:16.182Z</time>
      </trkpt>
      <trkpt lat="42.98871" lon="-1.107205">
        <ele>851.0</ele>
        <time>2019-07-31T14:04:17.063Z</time>
      </trkpt>
      <trkpt lat="42.98870833" lon="-1.107205">
        <ele>851.0</ele>
        <time>2019-07-31T14:04:18.067Z</time>
      </trkpt>
      <trkpt lat="42.98869833" lon="-1.10720167">
        <ele>852.0</ele>
        <time>2019-07-31T14:04:19.074Z</time>
      </trkpt>
      <trkpt lat="42.988695" lon="-1.10719667">
        <ele>852.0</ele>
        <time>2019-07-31T14:04:20.078Z</time>
      </trkpt>
      <trkpt lat="42.98869167" lon="-1.10719667">
        <ele>852.0</ele>
        <time>2019-07-31T14:04:21.083Z</time>
      </trkpt>
      <trkpt lat="42.98868833" lon="-1.107195">
        <ele>853.0</ele>
        <time>2019-07-31T14:04:22.088Z</time>
      </trkpt>
      <trkpt lat="42.98868333" lon="-1.10719333">
        <ele>853.0</ele>
        <time>2019-07-31T14:04:23.094Z</time>
      </trkpt>
      <trkpt lat="42.98868167" lon="-1.10718833">
        <ele>855.0</ele>
        <time>2019-07-31T14:04:24.100Z</time>
      </trkpt>
      <trkpt lat="42.98867667" lon="-1.10718167">
        <ele>856.0</ele>
        <time>2019-07-31T14:04:25.108Z</time>
      </trkpt>
      <trkpt lat="42.98867333" lon="-1.107175">
        <ele>856.0</ele>
        <time>2019-07-31T14:04:26.116Z</time>
      </trkpt>
      <trkpt lat="42.98867167" lon="-1.10717">
        <ele>857.0</ele>
        <time>2019-07-31T14:04:27.123Z</time>
      </trkpt>
      <trkpt lat="42.988665" lon="-1.10716667">
        <ele>857.0</ele>
        <time>2019-07-31T14:04:28.129Z</time>
      </trkpt>
      <trkpt lat="42.98866167" lon="-1.10716">
        <ele>857.0</ele>
        <time>2019-07-31T14:04:29.136Z</time>
      </trkpt>
      <trkpt lat="42.98865833" lon="-1.10715167">
        <ele>857.0</ele>
        <time>2019-07-31T14:04:30.143Z</time>
      </trkpt>
      <trkpt lat="42.98864833" lon="-1.10714333">
        <ele>858.0</ele>
        <time>2019-07-31T14:04:31.148Z</time>
      </trkpt>
      <trkpt lat="42.988655" lon="-1.10714833">
        <ele>857.0</ele>
        <time>2019-07-31T14:04:32.152Z</time>
      </trkpt>
      <trkpt lat="42.98865833" lon="-1.10715">
        <ele>856.0</ele>
        <time>2019-07-31T14:04:33.157Z</time>
      </trkpt>
      <trkpt lat="42.98866" lon="-1.10714333">
        <ele>855.0</ele>
        <time>2019-07-31T14:04:34.164Z</time>
      </trkpt>
      <trkpt lat="42.988665" lon="-1.10714">
        <ele>854.0</ele>
        <time>2019-07-31T14:04:35.169Z</time>
      </trkpt>
      <trkpt lat="42.98867333" lon="-1.10714">
        <ele>854.0</ele>
        <time>2019-07-31T14:04:36.174Z</time>
      </trkpt>
      <trkpt lat="42.988675" lon="-1.107135">
        <ele>854.0</ele>
        <time>2019-07-31T14:04:37.178Z</time>
      </trkpt>
      <trkpt lat="42.98867167" lon="-1.10713333">
        <ele>854.0</ele>
        <time>2019-07-31T14:04:38.184Z</time>
      </trkpt>
      <trkpt lat="42.988665" lon="-1.10712333">
        <ele>854.0</ele>
        <time>2019-07-31T14:04:39.063Z</time>
      </trkpt>
      <trkpt lat="42.98866333" lon="-1.10711167">
        <ele>855.0</ele>
        <time>2019-07-31T14:04:40.068Z</time>
      </trkpt>
      <trkpt lat="42.98866167" lon="-1.10711167">
        <ele>855.0</ele>
        <time>2019-07-31T14:04:41.072Z</time>
      </trkpt>
      <trkpt lat="42.98866" lon="-1.10712">
        <ele>856.0</ele>
        <time>2019-07-31T14:04:42.077Z</time>
      </trkpt>
      <trkpt lat="42.98865167" lon="-1.10712833">
        <ele>857.0</ele>
        <time>2019-07-31T14:04:43.081Z</time>
      </trkpt>
      <trkpt lat="42.98865" lon="-1.107135">
        <ele>857.0</ele>
        <time>2019-07-31T14:04:44.086Z</time>
      </trkpt>
      <trkpt lat="42.98864667" lon="-1.10713833">
        <ele>857.0</ele>
        <time>2019-07-31T14:04:45.091Z</time>
      </trkpt>
      <trkpt lat="42.988645" lon="-1.10714">
        <ele>858.0</ele>
        <time>2019-07-31T14:04:46.095Z</time>
      </trkpt>
      <trkpt lat="42.98864333" lon="-1.10714333">
        <ele>858.0</ele>
        <time>2019-07-31T14:04:47.101Z</time>
      </trkpt>
      <trkpt lat="42.98864667" lon="-1.10714333">
        <ele>859.0</ele>
        <time>2019-07-31T14:04:48.108Z</time>
      </trkpt>
      <trkpt lat="42.98864833" lon="-1.10714167">
        <ele>858.0</ele>
        <time>2019-07-31T14:04:49.114Z</time>
      </trkpt>
      <trkpt lat="42.98865167" lon="-1.10713667">
        <ele>859.0</ele>
        <time>2019-07-31T14:04:50.117Z</time>
      </trkpt>
      <trkpt lat="42.98865667" lon="-1.10713167">
        <ele>857.0</ele>
        <time>2019-07-31T14:04:51.124Z</time>
      </trkpt>
      <trkpt lat="42.98866167" lon="-1.10713">
        <ele>856.0</ele>
        <time>2019-07-31T14:04:52.128Z</time>
      </trkpt>
      <trkpt lat="42.98866167" lon="-1.10712667">
        <ele>856.0</ele>
        <time>2019-07-31T14:04:53.133Z</time>
      </trkpt>
      <trkpt lat="42.98866167" lon="-1.10712333">
        <ele>856.0</ele>
        <time>2019-07-31T14:04:54.139Z</time>
      </trkpt>
      <trkpt lat="42.98866167" lon="-1.10712333">
        <ele>857.0</ele>
        <time>2019-07-31T14:04:55.146Z</time>
      </trkpt>
      <trkpt lat="42.98866167" lon="-1.107125">
        <ele>857.0</ele>
        <time>2019-07-31T14:04:56.153Z</time>
      </trkpt>
      <trkpt lat="42.98866167" lon="-1.10712667">
        <ele>858.0</ele>
        <time>2019-07-31T14:04:57.159Z</time>
      </trkpt>
      <trkpt lat="42.98866" lon="-1.107125">
        <ele>858.0</ele>
        <time>2019-07-31T14:04:58.166Z</time>
      </trkpt>
      <trkpt lat="42.98865833" lon="-1.10712833">
        <ele>859.0</ele>
        <time>2019-07-31T14:04:59.171Z</time>
      </trkpt>
      <trkpt lat="42.98865833" lon="-1.10713167">
        <ele>859.0</ele>
        <time>2019-07-31T14:05:00.176Z</time>
      </trkpt>
      <trkpt lat="42.98865833" lon="-1.10713667">
        <ele>859.0</ele>
        <time>2019-07-31T14:05:01.181Z</time>
      </trkpt>
      <trkpt lat="42.98865833" lon="-1.10714333">
        <ele>859.0</ele>
        <time>2019-07-31T14:05:02.186Z</time>
      </trkpt>
      <trkpt lat="42.98865833" lon="-1.10714333">
        <ele>860.0</ele>
        <time>2019-07-31T14:05:03.063Z</time>
      </trkpt>
      <trkpt lat="42.98865833" lon="-1.10714667">
        <ele>859.0</ele>
        <time>2019-07-31T14:05:04.067Z</time>
      </trkpt>
      <trkpt lat="42.98865667" lon="-1.10714667">
        <ele>858.0</ele>
        <time>2019-07-31T14:05:05.073Z</time>
      </trkpt>
      <trkpt lat="42.98865333" lon="-1.10714667">
        <ele>858.0</ele>
        <time>2019-07-31T14:05:06.079Z</time>
      </trkpt>
      <trkpt lat="42.988655" lon="-1.107145">
        <ele>859.0</ele>
        <time>2019-07-31T14:05:07.085Z</time>
      </trkpt>
      <trkpt lat="42.98865667" lon="-1.10714167">
        <ele>859.0</ele>
        <time>2019-07-31T14:05:08.090Z</time>
      </trkpt>
      <trkpt lat="42.98866" lon="-1.10713667">
        <ele>859.0</ele>
        <time>2019-07-31T14:05:09.094Z</time>
      </trkpt>
      <trkpt lat="42.98866667" lon="-1.10713833">
        <ele>859.0</ele>
        <time>2019-07-31T14:05:10.102Z</time>
      </trkpt>
      <trkpt lat="42.98867167" lon="-1.10713667">
        <ele>859.0</ele>
        <time>2019-07-31T14:05:11.106Z</time>
      </trkpt>
      <trkpt lat="42.98867333" lon="-1.10713167">
        <ele>859.0</ele>
        <time>2019-07-31T14:05:12.112Z</time>
      </trkpt>
      <trkpt lat="42.98867667" lon="-1.10712167">
        <ele>859.0</ele>
        <time>2019-07-31T14:05:13.116Z</time>
      </trkpt>
      <trkpt lat="42.98868" lon="-1.10711167">
        <ele>859.0</ele>
        <time>2019-07-31T14:05:14.121Z</time>
      </trkpt>
      <trkpt lat="42.988685" lon="-1.10710333">
        <ele>858.0</ele>
        <time>2019-07-31T14:05:15.128Z</time>
      </trkpt>
      <trkpt lat="42.98868833" lon="-1.107095">
        <ele>857.0</ele>
        <time>2019-07-31T14:05:16.134Z</time>
      </trkpt>
      <trkpt lat="42.98869333" lon="-1.10708167">
        <ele>856.0</ele>
        <time>2019-07-31T14:05:17.140Z</time>
      </trkpt>
      <trkpt lat="42.9887" lon="-1.10706333">
        <ele>856.0</ele>
        <time>2019-07-31T14:05:18.146Z</time>
      </trkpt>
      <trkpt lat="42.98870333" lon="-1.10704167">
        <ele>857.0</ele>
        <time>2019-07-31T14:05:19.151Z</time>
      </trkpt>
      <trkpt lat="42.98870667" lon="-1.10702333">
        <ele>856.0</ele>
        <time>2019-07-31T14:05:20.155Z</time>
      </trkpt>
      <trkpt lat="42.98871" lon="-1.10701">
        <ele>856.0</ele>
        <time>2019-07-31T14:05:21.159Z</time>
      </trkpt>
      <trkpt lat="42.988715" lon="-1.106995">
        <ele>856.0</ele>
        <time>2019-07-31T14:05:22.166Z</time>
      </trkpt>
      <trkpt lat="42.98872333" lon="-1.10698167">
        <ele>857.0</ele>
        <time>2019-07-31T14:05:23.170Z</time>
      </trkpt>
      <trkpt lat="42.98873333" lon="-1.106965">
        <ele>857.0</ele>
        <time>2019-07-31T14:05:24.174Z</time>
      </trkpt>
      <trkpt lat="42.98874833" lon="-1.106955">
        <ele>858.0</ele>
        <time>2019-07-31T14:05:25.177Z</time>
      </trkpt>
      <trkpt lat="42.98875667" lon="-1.10694167">
        <ele>858.0</ele>
        <time>2019-07-31T14:05:26.184Z</time>
      </trkpt>
      <trkpt lat="42.98875833" lon="-1.10693167">
        <ele>857.0</ele>
        <time>2019-07-31T14:05:27.064Z</time>
      </trkpt>
      <trkpt lat="42.988765" lon="-1.10692833">
        <ele>857.0</ele>
        <time>2019-07-31T14:05:28.070Z</time>
      </trkpt>
      <trkpt lat="42.98876833" lon="-1.10693">
        <ele>857.0</ele>
        <time>2019-07-31T14:05:29.076Z</time>
      </trkpt>
      <trkpt lat="42.98877667" lon="-1.106935">
        <ele>857.0</ele>
        <time>2019-07-31T14:05:30.082Z</time>
      </trkpt>
      <trkpt lat="42.98879" lon="-1.10694167">
        <ele>858.0</ele>
        <time>2019-07-31T14:05:31.087Z</time>
      </trkpt>
      <trkpt lat="42.98880167" lon="-1.10694333">
        <ele>859.0</ele>
        <time>2019-07-31T14:05:32.091Z</time>
      </trkpt>
      <trkpt lat="42.98880333" lon="-1.10693">
        <ele>860.0</ele>
        <time>2019-07-31T14:05:33.095Z</time>
      </trkpt>
      <trkpt lat="42.98880833" lon="-1.10691667">
        <ele>860.0</ele>
        <time>2019-07-31T14:05:34.100Z</time>
      </trkpt>
      <trkpt lat="42.98880833" lon="-1.10690167">
        <ele>860.0</ele>
        <time>2019-07-31T14:05:35.105Z</time>
      </trkpt>
      <trkpt lat="42.98881167" lon="-1.10688333">
        <ele>860.0</ele>
        <time>2019-07-31T14:05:36.112Z</time>
      </trkpt>
      <trkpt lat="42.98881667" lon="-1.10686333">
        <ele>861.0</ele>
        <time>2019-07-31T14:05:37.114Z</time>
      </trkpt>
      <trkpt lat="42.98882333" lon="-1.10685">
        <ele>862.0</ele>
        <time>2019-07-31T14:05:38.121Z</time>
      </trkpt>
      <trkpt lat="42.98882333" lon="-1.10683667">
        <ele>862.0</ele>
        <time>2019-07-31T14:05:39.127Z</time>
      </trkpt>
      <trkpt lat="42.98882" lon="-1.106835">
        <ele>862.0</ele>
        <time>2019-07-31T14:05:40.132Z</time>
      </trkpt>
      <trkpt lat="42.98882833" lon="-1.10683167">
        <ele>862.0</ele>
        <time>2019-07-31T14:05:41.137Z</time>
      </trkpt>
      <trkpt lat="42.98883" lon="-1.10683">
        <ele>863.0</ele>
        <time>2019-07-31T14:05:42.141Z</time>
      </trkpt>
      <trkpt lat="42.98883333" lon="-1.10684667">
        <ele>861.0</ele>
        <time>2019-07-31T14:05:43.145Z</time>
      </trkpt>
      <trkpt lat="42.98883833" lon="-1.106875">
        <ele>859.0</ele>
        <time>2019-07-31T14:05:44.149Z</time>
      </trkpt>
      <trkpt lat="42.98884667" lon="-1.10686333">
        <ele>860.0</ele>
        <time>2019-07-31T14:05:45.154Z</time>
      </trkpt>
      <trkpt lat="42.98884667" lon="-1.10685833">
        <ele>860.0</ele>
        <time>2019-07-31T14:05:46.160Z</time>
      </trkpt>
      <trkpt lat="42.98884" lon="-1.10684333">
        <ele>862.0</ele>
        <time>2019-07-31T14:05:47.166Z</time>
      </trkpt>
      <trkpt lat="42.98882833" lon="-1.10683167">
        <ele>862.0</ele>
        <time>2019-07-31T14:05:48.172Z</time>
      </trkpt>
      <trkpt lat="42.98882167" lon="-1.10682833">
        <ele>862.0</ele>
        <time>2019-07-31T14:05:49.174Z</time>
      </trkpt>
      <trkpt lat="42.98882333" lon="-1.10682">
        <ele>862.0</ele>
        <time>2019-07-31T14:05:50.181Z</time>
      </trkpt>
      <trkpt lat="42.98881833" lon="-1.10681">
        <ele>864.0</ele>
        <time>2019-07-31T14:05:51.061Z</time>
      </trkpt>
      <trkpt lat="42.98882833" lon="-1.10680833">
        <ele>865.0</ele>
        <time>2019-07-31T14:05:52.067Z</time>
      </trkpt>
      <trkpt lat="42.98885333" lon="-1.10680833">
        <ele>866.0</ele>
        <time>2019-07-31T14:05:53.071Z</time>
      </trkpt>
      <trkpt lat="42.98885667" lon="-1.10680333">
        <ele>866.0</ele>
        <time>2019-07-31T14:05:54.078Z</time>
      </trkpt>
      <trkpt lat="42.98885333" lon="-1.10679667">
        <ele>866.0</ele>
        <time>2019-07-31T14:05:55.080Z</time>
      </trkpt>
      <trkpt lat="42.988855" lon="-1.106795">
        <ele>867.0</ele>
        <time>2019-07-31T14:05:56.086Z</time>
      </trkpt>
      <trkpt lat="42.98886" lon="-1.10678833">
        <ele>868.0</ele>
        <time>2019-07-31T14:05:57.091Z</time>
      </trkpt>
      <trkpt lat="42.988855" lon="-1.10678667">
        <ele>867.0</ele>
        <time>2019-07-31T14:05:58.097Z</time>
      </trkpt>
      <trkpt lat="42.98884833" lon="-1.10678167">
        <ele>867.0</ele>
        <time>2019-07-31T14:05:59.106Z</time>
      </trkpt>
      <trkpt lat="42.98885" lon="-1.10678167">
        <ele>868.0</ele>
        <time>2019-07-31T14:06:00.113Z</time>
      </trkpt>
      <trkpt lat="42.988845" lon="-1.10678">
        <ele>868.0</ele>
        <time>2019-07-31T14:06:01.120Z</time>
      </trkpt>
      <trkpt lat="42.98883667" lon="-1.10677167">
        <ele>867.0</ele>
        <time>2019-07-31T14:06:02.126Z</time>
      </trkpt>
      <trkpt lat="42.98883333" lon="-1.10676833">
        <ele>867.0</ele>
        <time>2019-07-31T14:06:03.132Z</time>
      </trkpt>
      <trkpt lat="42.98883333" lon="-1.10676333">
        <ele>867.0</ele>
        <time>2019-07-31T14:06:04.139Z</time>
      </trkpt>
      <trkpt lat="42.988835" lon="-1.10676333">
        <ele>866.0</ele>
        <time>2019-07-31T14:06:05.146Z</time>
      </trkpt>
      <trkpt lat="42.988835" lon="-1.106765">
        <ele>866.0</ele>
        <time>2019-07-31T14:06:06.150Z</time>
      </trkpt>
      <trkpt lat="42.98883833" lon="-1.10676667">
        <ele>866.0</ele>
        <time>2019-07-31T14:06:07.157Z</time>
      </trkpt>
      <trkpt lat="42.98884" lon="-1.10676667">
        <ele>866.0</ele>
        <time>2019-07-31T14:06:08.161Z</time>
      </trkpt>
      <trkpt lat="42.98884" lon="-1.10676833">
        <ele>866.0</ele>
        <time>2019-07-31T14:06:09.167Z</time>
      </trkpt>
      <trkpt lat="42.98883833" lon="-1.10677">
        <ele>865.0</ele>
        <time>2019-07-31T14:06:10.173Z</time>
      </trkpt>
      <trkpt lat="42.98883667" lon="-1.106775">
        <ele>865.0</ele>
        <time>2019-07-31T14:06:11.178Z</time>
      </trkpt>
      <trkpt lat="42.98883333" lon="-1.10677833">
        <ele>865.0</ele>
        <time>2019-07-31T14:06:12.183Z</time>
      </trkpt>
      <trkpt lat="42.98882833" lon="-1.10678333">
        <ele>865.0</ele>
        <time>2019-07-31T14:06:13.063Z</time>
      </trkpt>
      <trkpt lat="42.98882333" lon="-1.10678667">
        <ele>865.0</ele>
        <time>2019-07-31T14:06:14.068Z</time>
      </trkpt>
      <trkpt lat="42.98881667" lon="-1.10679167">
        <ele>865.0</ele>
        <time>2019-07-31T14:06:15.074Z</time>
      </trkpt>
      <trkpt lat="42.98881833" lon="-1.10679333">
        <ele>865.0</ele>
        <time>2019-07-31T14:06:16.077Z</time>
      </trkpt>
      <trkpt lat="42.98882" lon="-1.10679167">
        <ele>866.0</ele>
        <time>2019-07-31T14:06:17.083Z</time>
      </trkpt>
      <trkpt lat="42.98882167" lon="-1.10679167">
        <ele>867.0</ele>
        <time>2019-07-31T14:06:18.088Z</time>
      </trkpt>
      <trkpt lat="42.98882" lon="-1.10679167">
        <ele>868.0</ele>
        <time>2019-07-31T14:06:19.091Z</time>
      </trkpt>
      <trkpt lat="42.98881833" lon="-1.10679167">
        <ele>868.0</ele>
        <time>2019-07-31T14:06:20.092Z</time>
      </trkpt>
      <trkpt lat="42.98881833" lon="-1.10679333">
        <ele>868.0</ele>
        <time>2019-07-31T14:06:21.096Z</time>
      </trkpt>
      <trkpt lat="42.988815" lon="-1.10679">
        <ele>868.0</ele>
        <time>2019-07-31T14:06:22.103Z</time>
      </trkpt>
      <trkpt lat="42.98881667" lon="-1.10679167">
        <ele>868.0</ele>
        <time>2019-07-31T14:06:23.110Z</time>
      </trkpt>
      <trkpt lat="42.98881833" lon="-1.10679">
        <ele>868.0</ele>
        <time>2019-07-31T14:06:24.116Z</time>
      </trkpt>
      <trkpt lat="42.98882" lon="-1.10679167">
        <ele>867.0</ele>
        <time>2019-07-31T14:06:25.123Z</time>
      </trkpt>
      <trkpt lat="42.98882" lon="-1.106795">
        <ele>867.0</ele>
        <time>2019-07-31T14:06:26.127Z</time>
      </trkpt>
      <trkpt lat="42.98882" lon="-1.106795">
        <ele>867.0</ele>
        <time>2019-07-31T14:06:27.132Z</time>
      </trkpt>
      <trkpt lat="42.98882167" lon="-1.10679">
        <ele>868.0</ele>
        <time>2019-07-31T14:06:28.136Z</time>
      </trkpt>
      <trkpt lat="42.98906667" lon="-1.10678">
        <ele>866.0</ele>
        <time>2019-07-31T14:06:30.141Z</time>
      </trkpt>
      <trkpt lat="42.98907" lon="-1.10675333">
        <ele>867.0</ele>
        <time>2019-07-31T14:06:31.147Z</time>
      </trkpt>
      <trkpt lat="42.98908167" lon="-1.10672833">
        <ele>867.0</ele>
        <time>2019-07-31T14:06:32.152Z</time>
      </trkpt>
      <trkpt lat="42.98909833" lon="-1.10671167">
        <ele>867.0</ele>
        <time>2019-07-31T14:06:33.157Z</time>
      </trkpt>
      <trkpt lat="42.98911333" lon="-1.10669667">
        <ele>867.0</ele>
        <time>2019-07-31T14:06:34.162Z</time>
      </trkpt>
      <trkpt lat="42.98912667" lon="-1.10668167">
        <ele>867.0</ele>
        <time>2019-07-31T14:06:35.166Z</time>
      </trkpt>
      <trkpt lat="42.98914" lon="-1.10666833">
        <ele>868.0</ele>
        <time>2019-07-31T14:06:36.168Z</time>
      </trkpt>
      <trkpt lat="42.98915833" lon="-1.10666333">
        <ele>868.0</ele>
        <time>2019-07-31T14:06:37.172Z</time>
      </trkpt>
      <trkpt lat="42.98917667" lon="-1.10665833">
        <ele>868.0</ele>
        <time>2019-07-31T14:06:38.177Z</time>
      </trkpt>
      <trkpt lat="42.98919" lon="-1.10665333">
        <ele>868.0</ele>
        <time>2019-07-31T14:06:39.183Z</time>
      </trkpt>
      <trkpt lat="42.98919667" lon="-1.10664667">
        <ele>868.0</ele>
        <time>2019-07-31T14:06:40.065Z</time>
      </trkpt>
      <trkpt lat="42.98921167" lon="-1.10663167">
        <ele>869.0</ele>
        <time>2019-07-31T14:06:41.066Z</time>
      </trkpt>
      <trkpt lat="42.98922667" lon="-1.10662167">
        <ele>869.0</ele>
        <time>2019-07-31T14:06:42.071Z</time>
      </trkpt>
      <trkpt lat="42.98923833" lon="-1.10660833">
        <ele>869.0</ele>
        <time>2019-07-31T14:06:43.077Z</time>
      </trkpt>
      <trkpt lat="42.98924667" lon="-1.10658833">
        <ele>871.0</ele>
        <time>2019-07-31T14:06:44.080Z</time>
      </trkpt>
      <trkpt lat="42.98925167" lon="-1.10656833">
        <ele>872.0</ele>
        <time>2019-07-31T14:06:45.084Z</time>
      </trkpt>
      <trkpt lat="42.98926167" lon="-1.10655">
        <ele>873.0</ele>
        <time>2019-07-31T14:06:46.089Z</time>
      </trkpt>
      <trkpt lat="42.98927167" lon="-1.10654">
        <ele>873.0</ele>
        <time>2019-07-31T14:06:47.094Z</time>
      </trkpt>
      <trkpt lat="42.98928" lon="-1.10653333">
        <ele>873.0</ele>
        <time>2019-07-31T14:06:48.098Z</time>
      </trkpt>
      <trkpt lat="42.98928833" lon="-1.10652">
        <ele>873.0</ele>
        <time>2019-07-31T14:06:49.105Z</time>
      </trkpt>
      <trkpt lat="42.9893" lon="-1.10651333">
        <ele>873.0</ele>
        <time>2019-07-31T14:06:50.112Z</time>
      </trkpt>
      <trkpt lat="42.98931" lon="-1.10649833">
        <ele>874.0</ele>
        <time>2019-07-31T14:06:51.117Z</time>
      </trkpt>
      <trkpt lat="42.98931833" lon="-1.10648833">
        <ele>873.0</ele>
        <time>2019-07-31T14:06:52.120Z</time>
      </trkpt>
      <trkpt lat="42.98932833" lon="-1.10648">
        <ele>873.0</ele>
        <time>2019-07-31T14:06:53.125Z</time>
      </trkpt>
      <trkpt lat="42.98934" lon="-1.106465">
        <ele>874.0</ele>
        <time>2019-07-31T14:06:54.131Z</time>
      </trkpt>
      <trkpt lat="42.98935" lon="-1.10645">
        <ele>874.0</ele>
        <time>2019-07-31T14:06:55.137Z</time>
      </trkpt>
      <trkpt lat="42.98936167" lon="-1.10644">
        <ele>873.0</ele>
        <time>2019-07-31T14:06:56.142Z</time>
      </trkpt>
      <trkpt lat="42.98937" lon="-1.10642833">
        <ele>874.0</ele>
        <time>2019-07-31T14:06:57.150Z</time>
      </trkpt>
      <trkpt lat="42.98937667" lon="-1.10641167">
        <ele>874.0</ele>
        <time>2019-07-31T14:06:58.157Z</time>
      </trkpt>
      <trkpt lat="42.98938167" lon="-1.10639333">
        <ele>875.0</ele>
        <time>2019-07-31T14:06:59.161Z</time>
      </trkpt>
      <trkpt lat="42.98938833" lon="-1.10637667">
        <ele>876.0</ele>
        <time>2019-07-31T14:07:00.166Z</time>
      </trkpt>
      <trkpt lat="42.98940333" lon="-1.10636667">
        <ele>875.0</ele>
        <time>2019-07-31T14:07:01.171Z</time>
      </trkpt>
      <trkpt lat="42.98941667" lon="-1.106355">
        <ele>875.0</ele>
        <time>2019-07-31T14:07:02.176Z</time>
      </trkpt>
      <trkpt lat="42.98942833" lon="-1.10634167">
        <ele>875.0</ele>
        <time>2019-07-31T14:07:03.180Z</time>
      </trkpt>
      <trkpt lat="42.98944333" lon="-1.10633667">
        <ele>875.0</ele>
        <time>2019-07-31T14:07:04.184Z</time>
      </trkpt>
      <trkpt lat="42.98945667" lon="-1.10632833">
        <ele>875.0</ele>
        <time>2019-07-31T14:07:05.063Z</time>
      </trkpt>
      <trkpt lat="42.98947" lon="-1.10632">
        <ele>875.0</ele>
        <time>2019-07-31T14:07:06.068Z</time>
      </trkpt>
      <trkpt lat="42.98948333" lon="-1.10630833">
        <ele>875.0</ele>
        <time>2019-07-31T14:07:07.074Z</time>
      </trkpt>
      <trkpt lat="42.9895" lon="-1.10629667">
        <ele>874.0</ele>
        <time>2019-07-31T14:07:08.078Z</time>
      </trkpt>
      <trkpt lat="42.98951667" lon="-1.10628167">
        <ele>873.0</ele>
        <time>2019-07-31T14:07:09.084Z</time>
      </trkpt>
      <trkpt lat="42.98953167" lon="-1.10626167">
        <ele>873.0</ele>
        <time>2019-07-31T14:07:10.090Z</time>
      </trkpt>
      <trkpt lat="42.98954667" lon="-1.106255">
        <ele>872.0</ele>
        <time>2019-07-31T14:07:11.096Z</time>
      </trkpt>
      <trkpt lat="42.98956" lon="-1.10624833">
        <ele>871.0</ele>
        <time>2019-07-31T14:07:12.100Z</time>
      </trkpt>
      <trkpt lat="42.98957167" lon="-1.10624">
        <ele>871.0</ele>
        <time>2019-07-31T14:07:13.107Z</time>
      </trkpt>
      <trkpt lat="42.989585" lon="-1.10623">
        <ele>871.0</ele>
        <time>2019-07-31T14:07:14.111Z</time>
      </trkpt>
      <trkpt lat="42.9896" lon="-1.10622">
        <ele>870.0</ele>
        <time>2019-07-31T14:07:15.116Z</time>
      </trkpt>
      <trkpt lat="42.98961667" lon="-1.106215">
        <ele>868.0</ele>
        <time>2019-07-31T14:07:16.119Z</time>
      </trkpt>
      <trkpt lat="42.98963333" lon="-1.10620333">
        <ele>867.0</ele>
        <time>2019-07-31T14:07:17.123Z</time>
      </trkpt>
      <trkpt lat="42.989645" lon="-1.1062">
        <ele>866.0</ele>
        <time>2019-07-31T14:07:18.131Z</time>
      </trkpt>
      <trkpt lat="42.98965667" lon="-1.10618333">
        <ele>867.0</ele>
        <time>2019-07-31T14:07:19.137Z</time>
      </trkpt>
      <trkpt lat="42.98967167" lon="-1.10617167">
        <ele>866.0</ele>
        <time>2019-07-31T14:07:20.143Z</time>
      </trkpt>
      <trkpt lat="42.98968667" lon="-1.10616333">
        <ele>865.0</ele>
        <time>2019-07-31T14:07:21.150Z</time>
      </trkpt>
      <trkpt lat="42.98970167" lon="-1.10615833">
        <ele>865.0</ele>
        <time>2019-07-31T14:07:22.157Z</time>
      </trkpt>
      <trkpt lat="42.98971167" lon="-1.10614833">
        <ele>866.0</ele>
        <time>2019-07-31T14:07:23.160Z</time>
      </trkpt>
      <trkpt lat="42.989725" lon="-1.10614">
        <ele>866.0</ele>
        <time>2019-07-31T14:07:24.163Z</time>
      </trkpt>
      <trkpt lat="42.98974" lon="-1.10613667">
        <ele>867.0</ele>
        <time>2019-07-31T14:07:25.168Z</time>
      </trkpt>
      <trkpt lat="42.98975333" lon="-1.10613">
        <ele>866.0</ele>
        <time>2019-07-31T14:07:26.173Z</time>
      </trkpt>
      <trkpt lat="42.98977" lon="-1.10612167">
        <ele>866.0</ele>
        <time>2019-07-31T14:07:27.178Z</time>
      </trkpt>
      <trkpt lat="42.98978333" lon="-1.10611333">
        <ele>866.0</ele>
        <time>2019-07-31T14:07:28.181Z</time>
      </trkpt>
      <trkpt lat="42.9898" lon="-1.10610167">
        <ele>866.0</ele>
        <time>2019-07-31T14:07:29.185Z</time>
      </trkpt>
      <trkpt lat="42.989815" lon="-1.10609167">
        <ele>867.0</ele>
        <time>2019-07-31T14:07:30.064Z</time>
      </trkpt>
      <trkpt lat="42.98982667" lon="-1.10608333">
        <ele>867.0</ele>
        <time>2019-07-31T14:07:31.069Z</time>
      </trkpt>
      <trkpt lat="42.98983167" lon="-1.106065">
        <ele>867.0</ele>
        <time>2019-07-31T14:07:32.076Z</time>
      </trkpt>
      <trkpt lat="42.98983667" lon="-1.10604667">
        <ele>867.0</ele>
        <time>2019-07-31T14:07:33.081Z</time>
      </trkpt>
      <trkpt lat="42.989845" lon="-1.106035">
        <ele>867.0</ele>
        <time>2019-07-31T14:07:34.088Z</time>
      </trkpt>
      <trkpt lat="42.98985" lon="-1.10602">
        <ele>868.0</ele>
        <time>2019-07-31T14:07:35.094Z</time>
      </trkpt>
      <trkpt lat="42.98985833" lon="-1.10600333">
        <ele>869.0</ele>
        <time>2019-07-31T14:07:36.099Z</time>
      </trkpt>
      <trkpt lat="42.98987167" lon="-1.105985">
        <ele>869.0</ele>
        <time>2019-07-31T14:07:37.104Z</time>
      </trkpt>
      <trkpt lat="42.98988" lon="-1.10596333">
        <ele>870.0</ele>
        <time>2019-07-31T14:07:38.108Z</time>
      </trkpt>
      <trkpt lat="42.989885" lon="-1.10594333">
        <ele>871.0</ele>
        <time>2019-07-31T14:07:39.112Z</time>
      </trkpt>
      <trkpt lat="42.989895" lon="-1.10592333">
        <ele>872.0</ele>
        <time>2019-07-31T14:07:40.118Z</time>
      </trkpt>
      <trkpt lat="42.98991167" lon="-1.10591">
        <ele>873.0</ele>
        <time>2019-07-31T14:07:41.124Z</time>
      </trkpt>
      <trkpt lat="42.98993" lon="-1.10590833">
        <ele>873.0</ele>
        <time>2019-07-31T14:07:42.132Z</time>
      </trkpt>
      <trkpt lat="42.98995" lon="-1.10589833">
        <ele>873.0</ele>
        <time>2019-07-31T14:07:43.140Z</time>
      </trkpt>
      <trkpt lat="42.98996" lon="-1.10587833">
        <ele>872.0</ele>
        <time>2019-07-31T14:07:44.143Z</time>
      </trkpt>
      <trkpt lat="42.98997667" lon="-1.10587">
        <ele>872.0</ele>
        <time>2019-07-31T14:07:45.148Z</time>
      </trkpt>
      <trkpt lat="42.99000333" lon="-1.10586667">
        <ele>870.0</ele>
        <time>2019-07-31T14:07:46.153Z</time>
      </trkpt>
      <trkpt lat="42.99001833" lon="-1.10585667">
        <ele>869.0</ele>
        <time>2019-07-31T14:07:47.157Z</time>
      </trkpt>
      <trkpt lat="42.99003" lon="-1.10584">
        <ele>870.0</ele>
        <time>2019-07-31T14:07:48.162Z</time>
      </trkpt>
      <trkpt lat="42.990045" lon="-1.10582833">
        <ele>870.0</ele>
        <time>2019-07-31T14:07:49.168Z</time>
      </trkpt>
      <trkpt lat="42.99005667" lon="-1.10582667">
        <ele>870.0</ele>
        <time>2019-07-31T14:07:50.173Z</time>
      </trkpt>
      <trkpt lat="42.99007333" lon="-1.10582">
        <ele>871.0</ele>
        <time>2019-07-31T14:07:51.178Z</time>
      </trkpt>
      <trkpt lat="42.99008333" lon="-1.10581667">
        <ele>871.0</ele>
        <time>2019-07-31T14:07:52.182Z</time>
      </trkpt>
      <trkpt lat="42.99009667" lon="-1.105815">
        <ele>870.0</ele>
        <time>2019-07-31T14:07:53.061Z</time>
      </trkpt>
      <trkpt lat="42.99010833" lon="-1.10581">
        <ele>870.0</ele>
        <time>2019-07-31T14:07:54.066Z</time>
      </trkpt>
      <trkpt lat="42.99012" lon="-1.105805">
        <ele>869.0</ele>
        <time>2019-07-31T14:07:55.073Z</time>
      </trkpt>
      <trkpt lat="42.99013667" lon="-1.105795">
        <ele>869.0</ele>
        <time>2019-07-31T14:07:56.077Z</time>
      </trkpt>
      <trkpt lat="42.99015167" lon="-1.10578833">
        <ele>868.0</ele>
        <time>2019-07-31T14:07:57.080Z</time>
      </trkpt>
      <trkpt lat="42.99016333" lon="-1.10577833">
        <ele>868.0</ele>
        <time>2019-07-31T14:07:58.084Z</time>
      </trkpt>
      <trkpt lat="42.990175" lon="-1.10576667">
        <ele>867.0</ele>
        <time>2019-07-31T14:07:59.087Z</time>
      </trkpt>
      <trkpt lat="42.990185" lon="-1.105755">
        <ele>866.0</ele>
        <time>2019-07-31T14:08:00.091Z</time>
      </trkpt>
      <trkpt lat="42.99019667" lon="-1.10574167">
        <ele>866.0</ele>
        <time>2019-07-31T14:08:01.094Z</time>
      </trkpt>
      <trkpt lat="42.99020833" lon="-1.10573333">
        <ele>865.0</ele>
        <time>2019-07-31T14:08:02.098Z</time>
      </trkpt>
      <trkpt lat="42.99022167" lon="-1.105725">
        <ele>864.0</ele>
        <time>2019-07-31T14:08:03.102Z</time>
      </trkpt>
      <trkpt lat="42.99023833" lon="-1.10572">
        <ele>863.0</ele>
        <time>2019-07-31T14:08:04.107Z</time>
      </trkpt>
      <trkpt lat="42.990255" lon="-1.10571167">
        <ele>862.0</ele>
        <time>2019-07-31T14:08:05.113Z</time>
      </trkpt>
      <trkpt lat="42.99026833" lon="-1.10570167">
        <ele>862.0</ele>
        <time>2019-07-31T14:08:06.118Z</time>
      </trkpt>
      <trkpt lat="42.990285" lon="-1.10569833">
        <ele>862.0</ele>
        <time>2019-07-31T14:08:07.123Z</time>
      </trkpt>
      <trkpt lat="42.9903" lon="-1.10568667">
        <ele>862.0</ele>
        <time>2019-07-31T14:08:08.130Z</time>
      </trkpt>
      <trkpt lat="42.99031167" lon="-1.10567167">
        <ele>862.0</ele>
        <time>2019-07-31T14:08:09.136Z</time>
      </trkpt>
      <trkpt lat="42.99032667" lon="-1.10565667">
        <ele>862.0</ele>
        <time>2019-07-31T14:08:10.142Z</time>
      </trkpt>
      <trkpt lat="42.99033833" lon="-1.10564">
        <ele>862.0</ele>
        <time>2019-07-31T14:08:11.148Z</time>
      </trkpt>
      <trkpt lat="42.99034667" lon="-1.10562167">
        <ele>863.0</ele>
        <time>2019-07-31T14:08:12.154Z</time>
      </trkpt>
      <trkpt lat="42.99035833" lon="-1.10560833">
        <ele>863.0</ele>
        <time>2019-07-31T14:08:13.160Z</time>
      </trkpt>
      <trkpt lat="42.99036833" lon="-1.105595">
        <ele>864.0</ele>
        <time>2019-07-31T14:08:14.166Z</time>
      </trkpt>
      <trkpt lat="42.99037833" lon="-1.10558">
        <ele>865.0</ele>
        <time>2019-07-31T14:08:15.172Z</time>
      </trkpt>
      <trkpt lat="42.99038833" lon="-1.10556667">
        <ele>866.0</ele>
        <time>2019-07-31T14:08:16.177Z</time>
      </trkpt>
      <trkpt lat="42.9904" lon="-1.10555667">
        <ele>867.0</ele>
        <time>2019-07-31T14:08:17.180Z</time>
      </trkpt>
      <trkpt lat="42.99041333" lon="-1.10554667">
        <ele>868.0</ele>
        <time>2019-07-31T14:08:18.061Z</time>
      </trkpt>
      <trkpt lat="42.99042667" lon="-1.10554">
        <ele>868.0</ele>
        <time>2019-07-31T14:08:19.068Z</time>
      </trkpt>
      <trkpt lat="42.99044" lon="-1.10553833">
        <ele>869.0</ele>
        <time>2019-07-31T14:08:20.073Z</time>
      </trkpt>
      <trkpt lat="42.99045167" lon="-1.10553">
        <ele>869.0</ele>
        <time>2019-07-31T14:08:21.077Z</time>
      </trkpt>
      <trkpt lat="42.99045833" lon="-1.10551333">
        <ele>869.0</ele>
        <time>2019-07-31T14:08:22.083Z</time>
      </trkpt>
      <trkpt lat="42.99047" lon="-1.10550167">
        <ele>869.0</ele>
        <time>2019-07-31T14:08:23.090Z</time>
      </trkpt>
      <trkpt lat="42.99048" lon="-1.10548667">
        <ele>868.0</ele>
        <time>2019-07-31T14:08:24.097Z</time>
      </trkpt>
      <trkpt lat="42.99049" lon="-1.10547">
        <ele>869.0</ele>
        <time>2019-07-31T14:08:25.103Z</time>
      </trkpt>
      <trkpt lat="42.99050333" lon="-1.10546">
        <ele>868.0</ele>
        <time>2019-07-31T14:08:26.110Z</time>
      </trkpt>
      <trkpt lat="42.99051667" lon="-1.10545333">
        <ele>867.0</ele>
        <time>2019-07-31T14:08:27.116Z</time>
      </trkpt>
      <trkpt lat="42.99053" lon="-1.10544333">
        <ele>866.0</ele>
        <time>2019-07-31T14:08:28.119Z</time>
      </trkpt>
      <trkpt lat="42.99054333" lon="-1.10543333">
        <ele>865.0</ele>
        <time>2019-07-31T14:08:29.124Z</time>
      </trkpt>
      <trkpt lat="42.99056" lon="-1.10542833">
        <ele>865.0</ele>
        <time>2019-07-31T14:08:30.130Z</time>
      </trkpt>
      <trkpt lat="42.99057167" lon="-1.10542">
        <ele>865.0</ele>
        <time>2019-07-31T14:08:31.136Z</time>
      </trkpt>
      <trkpt lat="42.99058667" lon="-1.10541333">
        <ele>864.0</ele>
        <time>2019-07-31T14:08:32.143Z</time>
      </trkpt>
      <trkpt lat="42.99059833" lon="-1.105405">
        <ele>863.0</ele>
        <time>2019-07-31T14:08:33.150Z</time>
      </trkpt>
      <trkpt lat="42.99060667" lon="-1.105395">
        <ele>863.0</ele>
        <time>2019-07-31T14:08:34.158Z</time>
      </trkpt>
      <trkpt lat="42.99062167" lon="-1.105385">
        <ele>863.0</ele>
        <time>2019-07-31T14:08:35.164Z</time>
      </trkpt>
      <trkpt lat="42.99063333" lon="-1.10537333">
        <ele>862.0</ele>
        <time>2019-07-31T14:08:36.170Z</time>
      </trkpt>
      <trkpt lat="42.99064167" lon="-1.10535667">
        <ele>862.0</ele>
        <time>2019-07-31T14:08:37.177Z</time>
      </trkpt>
      <trkpt lat="42.99065333" lon="-1.105345">
        <ele>862.0</ele>
        <time>2019-07-31T14:08:38.181Z</time>
      </trkpt>
      <trkpt lat="42.99066333" lon="-1.10533167">
        <ele>862.0</ele>
        <time>2019-07-31T14:08:39.185Z</time>
      </trkpt>
      <trkpt lat="42.99067833" lon="-1.10531667">
        <ele>862.0</ele>
        <time>2019-07-31T14:08:40.064Z</time>
      </trkpt>
      <trkpt lat="42.99069167" lon="-1.10530667">
        <ele>863.0</ele>
        <time>2019-07-31T14:08:41.069Z</time>
      </trkpt>
      <trkpt lat="42.99070167" lon="-1.10529167">
        <ele>863.0</ele>
        <time>2019-07-31T14:08:42.074Z</time>
      </trkpt>
      <trkpt lat="42.99070833" lon="-1.10526833">
        <ele>864.0</ele>
        <time>2019-07-31T14:08:43.078Z</time>
      </trkpt>
      <trkpt lat="42.99072167" lon="-1.10525">
        <ele>865.0</ele>
        <time>2019-07-31T14:08:44.083Z</time>
      </trkpt>
      <trkpt lat="42.990735" lon="-1.10523667">
        <ele>865.0</ele>
        <time>2019-07-31T14:08:45.089Z</time>
      </trkpt>
      <trkpt lat="42.99074833" lon="-1.10521833">
        <ele>865.0</ele>
        <time>2019-07-31T14:08:46.093Z</time>
      </trkpt>
      <trkpt lat="42.99076167" lon="-1.1052">
        <ele>865.0</ele>
        <time>2019-07-31T14:08:47.098Z</time>
      </trkpt>
      <trkpt lat="42.99077667" lon="-1.10518667">
        <ele>865.0</ele>
        <time>2019-07-31T14:08:48.103Z</time>
      </trkpt>
      <trkpt lat="42.990795" lon="-1.10518333">
        <ele>865.0</ele>
        <time>2019-07-31T14:08:49.107Z</time>
      </trkpt>
      <trkpt lat="42.99081" lon="-1.105175">
        <ele>866.0</ele>
        <time>2019-07-31T14:08:50.112Z</time>
      </trkpt>
      <trkpt lat="42.99082667" lon="-1.10515833">
        <ele>867.0</ele>
        <time>2019-07-31T14:08:51.116Z</time>
      </trkpt>
      <trkpt lat="42.99084167" lon="-1.10514167">
        <ele>867.0</ele>
        <time>2019-07-31T14:08:52.120Z</time>
      </trkpt>
      <trkpt lat="42.990855" lon="-1.10512333">
        <ele>867.0</ele>
        <time>2019-07-31T14:08:53.125Z</time>
      </trkpt>
      <trkpt lat="42.99087333" lon="-1.10510167">
        <ele>866.0</ele>
        <time>2019-07-31T14:08:54.132Z</time>
      </trkpt>
      <trkpt lat="42.99088333" lon="-1.105085">
        <ele>866.0</ele>
        <time>2019-07-31T14:08:55.138Z</time>
      </trkpt>
      <trkpt lat="42.990895" lon="-1.10507">
        <ele>866.0</ele>
        <time>2019-07-31T14:08:56.144Z</time>
      </trkpt>
      <trkpt lat="42.99091167" lon="-1.10506333">
        <ele>865.0</ele>
        <time>2019-07-31T14:08:57.149Z</time>
      </trkpt>
      <trkpt lat="42.99092333" lon="-1.10504667">
        <ele>866.0</ele>
        <time>2019-07-31T14:08:58.153Z</time>
      </trkpt>
      <trkpt lat="42.99093667" lon="-1.10503667">
        <ele>866.0</ele>
        <time>2019-07-31T14:08:59.157Z</time>
      </trkpt>
      <trkpt lat="42.990945" lon="-1.10502167">
        <ele>867.0</ele>
        <time>2019-07-31T14:09:00.162Z</time>
      </trkpt>
      <trkpt lat="42.99094833" lon="-1.10500833">
        <ele>868.0</ele>
        <time>2019-07-31T14:09:01.168Z</time>
      </trkpt>
      <trkpt lat="42.99095167" lon="-1.10499">
        <ele>868.0</ele>
        <time>2019-07-31T14:09:02.170Z</time>
      </trkpt>
      <trkpt lat="42.99096" lon="-1.10497833">
        <ele>868.0</ele>
        <time>2019-07-31T14:09:03.172Z</time>
      </trkpt>
      <trkpt lat="42.99097167" lon="-1.10496333">
        <ele>868.0</ele>
        <time>2019-07-31T14:09:04.177Z</time>
      </trkpt>
      <trkpt lat="42.990985" lon="-1.10495">
        <ele>868.0</ele>
        <time>2019-07-31T14:09:05.182Z</time>
      </trkpt>
      <trkpt lat="42.99099833" lon="-1.10494">
        <ele>867.0</ele>
        <time>2019-07-31T14:09:06.062Z</time>
      </trkpt>
      <trkpt lat="42.99101167" lon="-1.10493333">
        <ele>867.0</ele>
        <time>2019-07-31T14:09:07.067Z</time>
      </trkpt>
      <trkpt lat="42.99102833" lon="-1.10492667">
        <ele>867.0</ele>
        <time>2019-07-31T14:09:08.072Z</time>
      </trkpt>
      <trkpt lat="42.99104167" lon="-1.10491667">
        <ele>867.0</ele>
        <time>2019-07-31T14:09:09.075Z</time>
      </trkpt>
      <trkpt lat="42.991055" lon="-1.104905">
        <ele>867.0</ele>
        <time>2019-07-31T14:09:10.079Z</time>
      </trkpt>
      <trkpt lat="42.991065" lon="-1.10488667">
        <ele>867.0</ele>
        <time>2019-07-31T14:09:11.081Z</time>
      </trkpt>
      <trkpt lat="42.99107833" lon="-1.10487667">
        <ele>867.0</ele>
        <time>2019-07-31T14:09:12.085Z</time>
      </trkpt>
      <trkpt lat="42.99109" lon="-1.10486333">
        <ele>867.0</ele>
        <time>2019-07-31T14:09:13.093Z</time>
      </trkpt>
      <trkpt lat="42.9911" lon="-1.10485333">
        <ele>867.0</ele>
        <time>2019-07-31T14:09:14.098Z</time>
      </trkpt>
      <trkpt lat="42.99110667" lon="-1.10484">
        <ele>868.0</ele>
        <time>2019-07-31T14:09:15.105Z</time>
      </trkpt>
      <trkpt lat="42.991115" lon="-1.10482833">
        <ele>869.0</ele>
        <time>2019-07-31T14:09:16.111Z</time>
      </trkpt>
      <trkpt lat="42.991125" lon="-1.10481667">
        <ele>870.0</ele>
        <time>2019-07-31T14:09:17.116Z</time>
      </trkpt>
      <trkpt lat="42.99113833" lon="-1.10480667">
        <ele>870.0</ele>
        <time>2019-07-31T14:09:18.121Z</time>
      </trkpt>
      <trkpt lat="42.991155" lon="-1.10479667">
        <ele>871.0</ele>
        <time>2019-07-31T14:09:19.126Z</time>
      </trkpt>
      <trkpt lat="42.99116333" lon="-1.10477667">
        <ele>872.0</ele>
        <time>2019-07-31T14:09:20.132Z</time>
      </trkpt>
      <trkpt lat="42.99117333" lon="-1.10476833">
        <ele>872.0</ele>
        <time>2019-07-31T14:09:21.136Z</time>
      </trkpt>
      <trkpt lat="42.99118667" lon="-1.10476">
        <ele>873.0</ele>
        <time>2019-07-31T14:09:22.142Z</time>
      </trkpt>
      <trkpt lat="42.99119833" lon="-1.10474333">
        <ele>874.0</ele>
        <time>2019-07-31T14:09:23.147Z</time>
      </trkpt>
      <trkpt lat="42.99120667" lon="-1.10472667">
        <ele>873.0</ele>
        <time>2019-07-31T14:09:24.154Z</time>
      </trkpt>
      <trkpt lat="42.99121333" lon="-1.10471167">
        <ele>874.0</ele>
        <time>2019-07-31T14:09:25.161Z</time>
      </trkpt>
      <trkpt lat="42.99122833" lon="-1.10470167">
        <ele>875.0</ele>
        <time>2019-07-31T14:09:26.166Z</time>
      </trkpt>
      <trkpt lat="42.99124333" lon="-1.10469167">
        <ele>876.0</ele>
        <time>2019-07-31T14:09:27.171Z</time>
      </trkpt>
      <trkpt lat="42.99126167" lon="-1.10468833">
        <ele>876.0</ele>
        <time>2019-07-31T14:09:28.175Z</time>
      </trkpt>
      <trkpt lat="42.99127333" lon="-1.10467333">
        <ele>877.0</ele>
        <time>2019-07-31T14:09:29.179Z</time>
      </trkpt>
      <trkpt lat="42.99128833" lon="-1.10466">
        <ele>877.0</ele>
        <time>2019-07-31T14:09:30.183Z</time>
      </trkpt>
      <trkpt lat="42.991305" lon="-1.10464667">
        <ele>877.0</ele>
        <time>2019-07-31T14:09:31.061Z</time>
      </trkpt>
      <trkpt lat="42.99132167" lon="-1.104645">
        <ele>877.0</ele>
        <time>2019-07-31T14:09:32.066Z</time>
      </trkpt>
      <trkpt lat="42.99133833" lon="-1.10463833">
        <ele>876.0</ele>
        <time>2019-07-31T14:09:33.070Z</time>
      </trkpt>
      <trkpt lat="42.991355" lon="-1.10463167">
        <ele>877.0</ele>
        <time>2019-07-31T14:09:34.075Z</time>
      </trkpt>
      <trkpt lat="42.99136833" lon="-1.10461333">
        <ele>877.0</ele>
        <time>2019-07-31T14:09:35.080Z</time>
      </trkpt>
      <trkpt lat="42.99138" lon="-1.10460333">
        <ele>878.0</ele>
        <time>2019-07-31T14:09:36.086Z</time>
      </trkpt>
      <trkpt lat="42.99140167" lon="-1.10459667">
        <ele>878.0</ele>
        <time>2019-07-31T14:09:37.090Z</time>
      </trkpt>
      <trkpt lat="42.99141" lon="-1.10458667">
        <ele>878.0</ele>
        <time>2019-07-31T14:09:38.096Z</time>
      </trkpt>
      <trkpt lat="42.99142" lon="-1.104575">
        <ele>879.0</ele>
        <time>2019-07-31T14:09:39.102Z</time>
      </trkpt>
      <trkpt lat="42.991425" lon="-1.10455333">
        <ele>879.0</ele>
        <time>2019-07-31T14:09:40.107Z</time>
      </trkpt>
      <trkpt lat="42.99142833" lon="-1.104535">
        <ele>880.0</ele>
        <time>2019-07-31T14:09:41.111Z</time>
      </trkpt>
      <trkpt lat="42.99143667" lon="-1.10452167">
        <ele>879.0</ele>
        <time>2019-07-31T14:09:42.116Z</time>
      </trkpt>
      <trkpt lat="42.99144667" lon="-1.10450667">
        <ele>878.0</ele>
        <time>2019-07-31T14:09:43.121Z</time>
      </trkpt>
      <trkpt lat="42.99145833" lon="-1.10449333">
        <ele>878.0</ele>
        <time>2019-07-31T14:09:44.128Z</time>
      </trkpt>
      <trkpt lat="42.99147" lon="-1.104485">
        <ele>879.0</ele>
        <time>2019-07-31T14:09:45.134Z</time>
      </trkpt>
      <trkpt lat="42.99148333" lon="-1.10447333">
        <ele>878.0</ele>
        <time>2019-07-31T14:09:46.139Z</time>
      </trkpt>
      <trkpt lat="42.991495" lon="-1.104465">
        <ele>879.0</ele>
        <time>2019-07-31T14:09:47.147Z</time>
      </trkpt>
      <trkpt lat="42.99151167" lon="-1.10445833">
        <ele>880.0</ele>
        <time>2019-07-31T14:09:48.155Z</time>
      </trkpt>
      <trkpt lat="42.991525" lon="-1.10445333">
        <ele>880.0</ele>
        <time>2019-07-31T14:09:49.162Z</time>
      </trkpt>
      <trkpt lat="42.99153667" lon="-1.104445">
        <ele>880.0</ele>
        <time>2019-07-31T14:09:50.166Z</time>
      </trkpt>
      <trkpt lat="42.991545" lon="-1.10443167">
        <ele>881.0</ele>
        <time>2019-07-31T14:09:51.171Z</time>
      </trkpt>
      <trkpt lat="42.99155667" lon="-1.10442167">
        <ele>881.0</ele>
        <time>2019-07-31T14:09:52.174Z</time>
      </trkpt>
      <trkpt lat="42.99156833" lon="-1.10441167">
        <ele>881.0</ele>
        <time>2019-07-31T14:09:53.178Z</time>
      </trkpt>
      <trkpt lat="42.99158" lon="-1.104405">
        <ele>882.0</ele>
        <time>2019-07-31T14:09:54.185Z</time>
      </trkpt>
      <trkpt lat="42.99159667" lon="-1.10440333">
        <ele>882.0</ele>
        <time>2019-07-31T14:09:55.063Z</time>
      </trkpt>
      <trkpt lat="42.99160833" lon="-1.10439833">
        <ele>883.0</ele>
        <time>2019-07-31T14:09:56.069Z</time>
      </trkpt>
      <trkpt lat="42.99162" lon="-1.10439167">
        <ele>883.0</ele>
        <time>2019-07-31T14:09:57.074Z</time>
      </trkpt>
      <trkpt lat="42.99163" lon="-1.10438667">
        <ele>883.0</ele>
        <time>2019-07-31T14:09:58.078Z</time>
      </trkpt>
      <trkpt lat="42.99164167" lon="-1.10438167">
        <ele>883.0</ele>
        <time>2019-07-31T14:09:59.081Z</time>
      </trkpt>
      <trkpt lat="42.99166167" lon="-1.10438">
        <ele>882.0</ele>
        <time>2019-07-31T14:10:00.088Z</time>
      </trkpt>
      <trkpt lat="42.991685" lon="-1.10438333">
        <ele>881.0</ele>
        <time>2019-07-31T14:10:01.095Z</time>
      </trkpt>
      <trkpt lat="42.99170167" lon="-1.10438">
        <ele>881.0</ele>
        <time>2019-07-31T14:10:02.101Z</time>
      </trkpt>
      <trkpt lat="42.991715" lon="-1.10437">
        <ele>881.0</ele>
        <time>2019-07-31T14:10:03.104Z</time>
      </trkpt>
      <trkpt lat="42.99172833" lon="-1.10435833">
        <ele>881.0</ele>
        <time>2019-07-31T14:10:04.109Z</time>
      </trkpt>
      <trkpt lat="42.99173833" lon="-1.104345">
        <ele>881.0</ele>
        <time>2019-07-31T14:10:05.115Z</time>
      </trkpt>
      <trkpt lat="42.99174333" lon="-1.10432667">
        <ele>881.0</ele>
        <time>2019-07-31T14:10:06.120Z</time>
      </trkpt>
      <trkpt lat="42.99174833" lon="-1.10430833">
        <ele>882.0</ele>
        <time>2019-07-31T14:10:07.127Z</time>
      </trkpt>
      <trkpt lat="42.991755" lon="-1.10429">
        <ele>882.0</ele>
        <time>2019-07-31T14:10:08.133Z</time>
      </trkpt>
      <trkpt lat="42.99177" lon="-1.10427167">
        <ele>882.0</ele>
        <time>2019-07-31T14:10:09.140Z</time>
      </trkpt>
      <trkpt lat="42.99178167" lon="-1.10426167">
        <ele>882.0</ele>
        <time>2019-07-31T14:10:10.146Z</time>
      </trkpt>
      <trkpt lat="42.99179333" lon="-1.10425">
        <ele>881.0</ele>
        <time>2019-07-31T14:10:11.153Z</time>
      </trkpt>
      <trkpt lat="42.99180167" lon="-1.10423167">
        <ele>882.0</ele>
        <time>2019-07-31T14:10:12.160Z</time>
      </trkpt>
      <trkpt lat="42.99181667" lon="-1.10421667">
        <ele>883.0</ele>
        <time>2019-07-31T14:10:13.167Z</time>
      </trkpt>
      <trkpt lat="42.99183333" lon="-1.10421">
        <ele>883.0</ele>
        <time>2019-07-31T14:10:14.173Z</time>
      </trkpt>
      <trkpt lat="42.99184333" lon="-1.10420167">
        <ele>883.0</ele>
        <time>2019-07-31T14:10:15.179Z</time>
      </trkpt>
      <trkpt lat="42.99185333" lon="-1.10419">
        <ele>882.0</ele>
        <time>2019-07-31T14:10:16.183Z</time>
      </trkpt>
      <trkpt lat="42.99185667" lon="-1.104175">
        <ele>882.0</ele>
        <time>2019-07-31T14:10:17.062Z</time>
      </trkpt>
      <trkpt lat="42.99187167" lon="-1.10416833">
        <ele>882.0</ele>
        <time>2019-07-31T14:10:18.068Z</time>
      </trkpt>
      <trkpt lat="42.99188833" lon="-1.10416167">
        <ele>881.0</ele>
        <time>2019-07-31T14:10:19.074Z</time>
      </trkpt>
      <trkpt lat="42.9919" lon="-1.10415">
        <ele>880.0</ele>
        <time>2019-07-31T14:10:20.079Z</time>
      </trkpt>
      <trkpt lat="42.991915" lon="-1.10414167">
        <ele>879.0</ele>
        <time>2019-07-31T14:10:21.083Z</time>
      </trkpt>
      <trkpt lat="42.99193" lon="-1.10414333">
        <ele>878.0</ele>
        <time>2019-07-31T14:10:22.089Z</time>
      </trkpt>
      <trkpt lat="42.99194333" lon="-1.10414">
        <ele>879.0</ele>
        <time>2019-07-31T14:10:23.092Z</time>
      </trkpt>
      <trkpt lat="42.99195333" lon="-1.10412833">
        <ele>879.0</ele>
        <time>2019-07-31T14:10:24.093Z</time>
      </trkpt>
      <trkpt lat="42.99196333" lon="-1.10411167">
        <ele>879.0</ele>
        <time>2019-07-31T14:10:25.100Z</time>
      </trkpt>
      <trkpt lat="42.99197667" lon="-1.10409">
        <ele>879.0</ele>
        <time>2019-07-31T14:10:26.105Z</time>
      </trkpt>
      <trkpt lat="42.99198833" lon="-1.10407167">
        <ele>879.0</ele>
        <time>2019-07-31T14:10:27.111Z</time>
      </trkpt>
      <trkpt lat="42.992" lon="-1.10405667">
        <ele>880.0</ele>
        <time>2019-07-31T14:10:28.117Z</time>
      </trkpt>
      <trkpt lat="42.99200667" lon="-1.10404167">
        <ele>880.0</ele>
        <time>2019-07-31T14:10:29.121Z</time>
      </trkpt>
      <trkpt lat="42.99201333" lon="-1.10402667">
        <ele>880.0</ele>
        <time>2019-07-31T14:10:30.125Z</time>
      </trkpt>
      <trkpt lat="42.99202167" lon="-1.10400833">
        <ele>880.0</ele>
        <time>2019-07-31T14:10:31.131Z</time>
      </trkpt>
      <trkpt lat="42.99203" lon="-1.10399167">
        <ele>881.0</ele>
        <time>2019-07-31T14:10:32.137Z</time>
      </trkpt>
      <trkpt lat="42.99204" lon="-1.10397167">
        <ele>880.0</ele>
        <time>2019-07-31T14:10:33.143Z</time>
      </trkpt>
      <trkpt lat="42.992055" lon="-1.10395833">
        <ele>880.0</ele>
        <time>2019-07-31T14:10:34.149Z</time>
      </trkpt>
      <trkpt lat="42.99206667" lon="-1.10394333">
        <ele>881.0</ele>
        <time>2019-07-31T14:10:35.155Z</time>
      </trkpt>
      <trkpt lat="42.992075" lon="-1.10393167">
        <ele>881.0</ele>
        <time>2019-07-31T14:10:36.160Z</time>
      </trkpt>
      <trkpt lat="42.99208333" lon="-1.10391667">
        <ele>882.0</ele>
        <time>2019-07-31T14:10:37.162Z</time>
      </trkpt>
      <trkpt lat="42.9921" lon="-1.103905">
        <ele>882.0</ele>
        <time>2019-07-31T14:10:38.167Z</time>
      </trkpt>
      <trkpt lat="42.99211333" lon="-1.10389667">
        <ele>882.0</ele>
        <time>2019-07-31T14:10:39.173Z</time>
      </trkpt>
      <trkpt lat="42.99212833" lon="-1.10389">
        <ele>882.0</ele>
        <time>2019-07-31T14:10:40.178Z</time>
      </trkpt>
      <trkpt lat="42.99213667" lon="-1.10388167">
        <ele>883.0</ele>
        <time>2019-07-31T14:10:41.184Z</time>
      </trkpt>
      <trkpt lat="42.99214333" lon="-1.10387">
        <ele>883.0</ele>
        <time>2019-07-31T14:10:42.064Z</time>
      </trkpt>
      <trkpt lat="42.99215333" lon="-1.10385833">
        <ele>883.0</ele>
        <time>2019-07-31T14:10:43.068Z</time>
      </trkpt>
      <trkpt lat="42.992165" lon="-1.10385">
        <ele>883.0</ele>
        <time>2019-07-31T14:10:44.073Z</time>
      </trkpt>
      <trkpt lat="42.99217833" lon="-1.10384">
        <ele>882.0</ele>
        <time>2019-07-31T14:10:45.078Z</time>
      </trkpt>
      <trkpt lat="42.99219167" lon="-1.10383167">
        <ele>882.0</ele>
        <time>2019-07-31T14:10:46.083Z</time>
      </trkpt>
      <trkpt lat="42.99220333" lon="-1.10381833">
        <ele>881.0</ele>
        <time>2019-07-31T14:10:47.087Z</time>
      </trkpt>
      <trkpt lat="42.99222167" lon="-1.103815">
        <ele>879.0</ele>
        <time>2019-07-31T14:10:48.091Z</time>
      </trkpt>
      <trkpt lat="42.99223333" lon="-1.103805">
        <ele>878.0</ele>
        <time>2019-07-31T14:10:49.096Z</time>
      </trkpt>
      <trkpt lat="42.992245" lon="-1.10379833">
        <ele>878.0</ele>
        <time>2019-07-31T14:10:50.102Z</time>
      </trkpt>
      <trkpt lat="42.99225667" lon="-1.10379">
        <ele>877.0</ele>
        <time>2019-07-31T14:10:51.107Z</time>
      </trkpt>
      <trkpt lat="42.99227167" lon="-1.10378333">
        <ele>877.0</ele>
        <time>2019-07-31T14:10:52.113Z</time>
      </trkpt>
      <trkpt lat="42.99228667" lon="-1.10377333">
        <ele>876.0</ele>
        <time>2019-07-31T14:10:53.120Z</time>
      </trkpt>
      <trkpt lat="42.99229667" lon="-1.103755">
        <ele>875.0</ele>
        <time>2019-07-31T14:10:54.125Z</time>
      </trkpt>
      <trkpt lat="42.992305" lon="-1.10374167">
        <ele>875.0</ele>
        <time>2019-07-31T14:10:55.130Z</time>
      </trkpt>
      <trkpt lat="42.99231833" lon="-1.10372">
        <ele>876.0</ele>
        <time>2019-07-31T14:10:56.135Z</time>
      </trkpt>
      <trkpt lat="42.99232667" lon="-1.10370167">
        <ele>877.0</ele>
        <time>2019-07-31T14:10:57.143Z</time>
      </trkpt>
      <trkpt lat="42.99233333" lon="-1.10368333">
        <ele>877.0</ele>
        <time>2019-07-31T14:10:58.150Z</time>
      </trkpt>
      <trkpt lat="42.99234167" lon="-1.10367167">
        <ele>878.0</ele>
        <time>2019-07-31T14:10:59.154Z</time>
      </trkpt>
      <trkpt lat="42.99235167" lon="-1.10366">
        <ele>878.0</ele>
        <time>2019-07-31T14:11:00.162Z</time>
      </trkpt>
      <trkpt lat="42.99235667" lon="-1.10364333">
        <ele>879.0</ele>
        <time>2019-07-31T14:11:01.167Z</time>
      </trkpt>
      <trkpt lat="42.99236" lon="-1.10361833">
        <ele>879.0</ele>
        <time>2019-07-31T14:11:02.172Z</time>
      </trkpt>
      <trkpt lat="42.99236833" lon="-1.10359833">
        <ele>880.0</ele>
        <time>2019-07-31T14:11:03.178Z</time>
      </trkpt>
      <trkpt lat="42.992375" lon="-1.10358167">
        <ele>879.0</ele>
        <time>2019-07-31T14:11:04.184Z</time>
      </trkpt>
      <trkpt lat="42.99237833" lon="-1.10355833">
        <ele>880.0</ele>
        <time>2019-07-31T14:11:05.064Z</time>
      </trkpt>
      <trkpt lat="42.992385" lon="-1.10353667">
        <ele>879.0</ele>
        <time>2019-07-31T14:11:06.069Z</time>
      </trkpt>
      <trkpt lat="42.99239167" lon="-1.10351833">
        <ele>880.0</ele>
        <time>2019-07-31T14:11:07.074Z</time>
      </trkpt>
      <trkpt lat="42.99241333" lon="-1.10350667">
        <ele>880.0</ele>
        <time>2019-07-31T14:11:08.076Z</time>
      </trkpt>
      <trkpt lat="42.99242833" lon="-1.10349167">
        <ele>880.0</ele>
        <time>2019-07-31T14:11:09.079Z</time>
      </trkpt>
      <trkpt lat="42.99244167" lon="-1.10347333">
        <ele>880.0</ele>
        <time>2019-07-31T14:11:10.083Z</time>
      </trkpt>
      <trkpt lat="42.99244667" lon="-1.10345167">
        <ele>880.0</ele>
        <time>2019-07-31T14:11:11.088Z</time>
      </trkpt>
      <trkpt lat="42.99245" lon="-1.10343333">
        <ele>881.0</ele>
        <time>2019-07-31T14:11:12.091Z</time>
      </trkpt>
      <trkpt lat="42.992455" lon="-1.10341333">
        <ele>881.0</ele>
        <time>2019-07-31T14:11:13.093Z</time>
      </trkpt>
      <trkpt lat="42.99246" lon="-1.10339">
        <ele>881.0</ele>
        <time>2019-07-31T14:11:14.099Z</time>
      </trkpt>
      <trkpt lat="42.99246167" lon="-1.10336667">
        <ele>881.0</ele>
        <time>2019-07-31T14:11:15.104Z</time>
      </trkpt>
      <trkpt lat="42.99246667" lon="-1.10334833">
        <ele>881.0</ele>
        <time>2019-07-31T14:11:16.108Z</time>
      </trkpt>
      <trkpt lat="42.99247333" lon="-1.10333">
        <ele>880.0</ele>
        <time>2019-07-31T14:11:17.115Z</time>
      </trkpt>
      <trkpt lat="42.99247833" lon="-1.10330667">
        <ele>880.0</ele>
        <time>2019-07-31T14:11:18.120Z</time>
      </trkpt>
      <trkpt lat="42.992485" lon="-1.103285">
        <ele>880.0</ele>
        <time>2019-07-31T14:11:19.125Z</time>
      </trkpt>
      <trkpt lat="42.99249667" lon="-1.10326833">
        <ele>879.0</ele>
        <time>2019-07-31T14:11:20.130Z</time>
      </trkpt>
      <trkpt lat="42.99250667" lon="-1.10325167">
        <ele>879.0</ele>
        <time>2019-07-31T14:11:21.136Z</time>
      </trkpt>
      <trkpt lat="42.992515" lon="-1.10323333">
        <ele>878.0</ele>
        <time>2019-07-31T14:11:22.142Z</time>
      </trkpt>
      <trkpt lat="42.99252833" lon="-1.10321833">
        <ele>877.0</ele>
        <time>2019-07-31T14:11:23.148Z</time>
      </trkpt>
      <trkpt lat="42.99253167" lon="-1.10319833">
        <ele>877.0</ele>
        <time>2019-07-31T14:11:24.155Z</time>
      </trkpt>
      <trkpt lat="42.99253833" lon="-1.103185">
        <ele>877.0</ele>
        <time>2019-07-31T14:11:25.160Z</time>
      </trkpt>
      <trkpt lat="42.992545" lon="-1.10316833">
        <ele>877.0</ele>
        <time>2019-07-31T14:11:26.163Z</time>
      </trkpt>
      <trkpt lat="42.99255167" lon="-1.10315333">
        <ele>877.0</ele>
        <time>2019-07-31T14:11:27.167Z</time>
      </trkpt>
      <trkpt lat="42.99256" lon="-1.10313833">
        <ele>877.0</ele>
        <time>2019-07-31T14:11:28.169Z</time>
      </trkpt>
      <trkpt lat="42.992565" lon="-1.10312">
        <ele>877.0</ele>
        <time>2019-07-31T14:11:29.172Z</time>
      </trkpt>
      <trkpt lat="42.99257" lon="-1.103105">
        <ele>877.0</ele>
        <time>2019-07-31T14:11:30.178Z</time>
      </trkpt>
      <trkpt lat="42.99258" lon="-1.10309">
        <ele>877.0</ele>
        <time>2019-07-31T14:11:31.183Z</time>
      </trkpt>
      <trkpt lat="42.99258833" lon="-1.10307333">
        <ele>876.0</ele>
        <time>2019-07-31T14:11:32.063Z</time>
      </trkpt>
      <trkpt lat="42.99259333" lon="-1.103055">
        <ele>876.0</ele>
        <time>2019-07-31T14:11:33.067Z</time>
      </trkpt>
      <trkpt lat="42.99260167" lon="-1.10303833">
        <ele>877.0</ele>
        <time>2019-07-31T14:11:34.072Z</time>
      </trkpt>
      <trkpt lat="42.99260667" lon="-1.10302">
        <ele>877.0</ele>
        <time>2019-07-31T14:11:35.077Z</time>
      </trkpt>
      <trkpt lat="42.99261167" lon="-1.10300167">
        <ele>878.0</ele>
        <time>2019-07-31T14:11:36.081Z</time>
      </trkpt>
      <trkpt lat="42.99262" lon="-1.102985">
        <ele>878.0</ele>
        <time>2019-07-31T14:11:37.086Z</time>
      </trkpt>
      <trkpt lat="42.99262833" lon="-1.10296833">
        <ele>878.0</ele>
        <time>2019-07-31T14:11:38.091Z</time>
      </trkpt>
      <trkpt lat="42.99264" lon="-1.10295167">
        <ele>878.0</ele>
        <time>2019-07-31T14:11:39.093Z</time>
      </trkpt>
      <trkpt lat="42.99264833" lon="-1.10293833">
        <ele>878.0</ele>
        <time>2019-07-31T14:11:40.098Z</time>
      </trkpt>
      <trkpt lat="42.99265833" lon="-1.10292333">
        <ele>879.0</ele>
        <time>2019-07-31T14:11:41.101Z</time>
      </trkpt>
      <trkpt lat="42.99267" lon="-1.10290833">
        <ele>879.0</ele>
        <time>2019-07-31T14:11:42.108Z</time>
      </trkpt>
      <trkpt lat="42.99267667" lon="-1.10289333">
        <ele>879.0</ele>
        <time>2019-07-31T14:11:43.113Z</time>
      </trkpt>
      <trkpt lat="42.992685" lon="-1.10288">
        <ele>879.0</ele>
        <time>2019-07-31T14:11:44.119Z</time>
      </trkpt>
      <trkpt lat="42.992695" lon="-1.10286833">
        <ele>878.0</ele>
        <time>2019-07-31T14:11:45.124Z</time>
      </trkpt>
      <trkpt lat="42.9927" lon="-1.10285">
        <ele>879.0</ele>
        <time>2019-07-31T14:11:46.128Z</time>
      </trkpt>
      <trkpt lat="42.99270833" lon="-1.10283">
        <ele>879.0</ele>
        <time>2019-07-31T14:11:47.135Z</time>
      </trkpt>
      <trkpt lat="42.99271667" lon="-1.10281667">
        <ele>879.0</ele>
        <time>2019-07-31T14:11:48.141Z</time>
      </trkpt>
      <trkpt lat="42.992725" lon="-1.1028">
        <ele>879.0</ele>
        <time>2019-07-31T14:11:49.148Z</time>
      </trkpt>
      <trkpt lat="42.99273333" lon="-1.10278167">
        <ele>880.0</ele>
        <time>2019-07-31T14:11:50.154Z</time>
      </trkpt>
      <trkpt lat="42.99273833" lon="-1.10276333">
        <ele>880.0</ele>
        <time>2019-07-31T14:11:51.160Z</time>
      </trkpt>
      <trkpt lat="42.99274667" lon="-1.10274667">
        <ele>880.0</ele>
        <time>2019-07-31T14:11:52.164Z</time>
      </trkpt>
      <trkpt lat="42.99275333" lon="-1.102725">
        <ele>880.0</ele>
        <time>2019-07-31T14:11:53.167Z</time>
      </trkpt>
      <trkpt lat="42.992755" lon="-1.102705">
        <ele>881.0</ele>
        <time>2019-07-31T14:11:54.173Z</time>
      </trkpt>
      <trkpt lat="42.99276167" lon="-1.10269">
        <ele>881.0</ele>
        <time>2019-07-31T14:11:55.180Z</time>
      </trkpt>
      <trkpt lat="42.99276833" lon="-1.10267667">
        <ele>881.0</ele>
        <time>2019-07-31T14:11:56.184Z</time>
      </trkpt>
      <trkpt lat="42.99277833" lon="-1.10266167">
        <ele>881.0</ele>
        <time>2019-07-31T14:11:57.064Z</time>
      </trkpt>
      <trkpt lat="42.99278667" lon="-1.10265">
        <ele>882.0</ele>
        <time>2019-07-31T14:11:58.070Z</time>
      </trkpt>
      <trkpt lat="42.99279667" lon="-1.10263833">
        <ele>883.0</ele>
        <time>2019-07-31T14:11:59.076Z</time>
      </trkpt>
      <trkpt lat="42.99280833" lon="-1.10263">
        <ele>883.0</ele>
        <time>2019-07-31T14:12:00.081Z</time>
      </trkpt>
      <trkpt lat="42.99281667" lon="-1.102615">
        <ele>884.0</ele>
        <time>2019-07-31T14:12:01.087Z</time>
      </trkpt>
      <trkpt lat="42.99282333" lon="-1.10259667">
        <ele>884.0</ele>
        <time>2019-07-31T14:12:02.092Z</time>
      </trkpt>
      <trkpt lat="42.99282833" lon="-1.10258">
        <ele>884.0</ele>
        <time>2019-07-31T14:12:03.097Z</time>
      </trkpt>
      <trkpt lat="42.99283167" lon="-1.10256167">
        <ele>883.0</ele>
        <time>2019-07-31T14:12:04.102Z</time>
      </trkpt>
      <trkpt lat="42.99283833" lon="-1.10254833">
        <ele>882.0</ele>
        <time>2019-07-31T14:12:05.109Z</time>
      </trkpt>
      <trkpt lat="42.99285" lon="-1.10253833">
        <ele>881.0</ele>
        <time>2019-07-31T14:12:06.115Z</time>
      </trkpt>
      <trkpt lat="42.99285667" lon="-1.10251833">
        <ele>880.0</ele>
        <time>2019-07-31T14:12:07.120Z</time>
      </trkpt>
      <trkpt lat="42.99287" lon="-1.10250167">
        <ele>881.0</ele>
        <time>2019-07-31T14:12:08.126Z</time>
      </trkpt>
      <trkpt lat="42.99288333" lon="-1.10249">
        <ele>881.0</ele>
        <time>2019-07-31T14:12:09.132Z</time>
      </trkpt>
      <trkpt lat="42.99289833" lon="-1.10247333">
        <ele>881.0</ele>
        <time>2019-07-31T14:12:10.137Z</time>
      </trkpt>
      <trkpt lat="42.99290667" lon="-1.10245833">
        <ele>882.0</ele>
        <time>2019-07-31T14:12:11.145Z</time>
      </trkpt>
      <trkpt lat="42.99291333" lon="-1.102445">
        <ele>882.0</ele>
        <time>2019-07-31T14:12:12.153Z</time>
      </trkpt>
      <trkpt lat="42.99292333" lon="-1.10243833">
        <ele>882.0</ele>
        <time>2019-07-31T14:12:13.158Z</time>
      </trkpt>
      <trkpt lat="42.99293333" lon="-1.10242667">
        <ele>882.0</ele>
        <time>2019-07-31T14:12:14.162Z</time>
      </trkpt>
      <trkpt lat="42.99294167" lon="-1.10241833">
        <ele>883.0</ele>
        <time>2019-07-31T14:12:15.167Z</time>
      </trkpt>
      <trkpt lat="42.99295167" lon="-1.102405">
        <ele>884.0</ele>
        <time>2019-07-31T14:12:16.174Z</time>
      </trkpt>
      <trkpt lat="42.99295833" lon="-1.10239333">
        <ele>885.0</ele>
        <time>2019-07-31T14:12:17.180Z</time>
      </trkpt>
      <trkpt lat="42.99296667" lon="-1.10238333">
        <ele>885.0</ele>
        <time>2019-07-31T14:12:18.183Z</time>
      </trkpt>
      <trkpt lat="42.99297667" lon="-1.10237333">
        <ele>886.0</ele>
        <time>2019-07-31T14:12:19.064Z</time>
      </trkpt>
      <trkpt lat="42.992985" lon="-1.10236333">
        <ele>886.0</ele>
        <time>2019-07-31T14:12:20.068Z</time>
      </trkpt>
      <trkpt lat="42.99299333" lon="-1.10235667">
        <ele>887.0</ele>
        <time>2019-07-31T14:12:21.072Z</time>
      </trkpt>
      <trkpt lat="42.993005" lon="-1.10235">
        <ele>888.0</ele>
        <time>2019-07-31T14:12:22.078Z</time>
      </trkpt>
      <trkpt lat="42.993015" lon="-1.10234833">
        <ele>887.0</ele>
        <time>2019-07-31T14:12:23.079Z</time>
      </trkpt>
      <trkpt lat="42.99302667" lon="-1.102345">
        <ele>888.0</ele>
        <time>2019-07-31T14:12:24.083Z</time>
      </trkpt>
      <trkpt lat="42.99304" lon="-1.102335">
        <ele>888.0</ele>
        <time>2019-07-31T14:12:25.088Z</time>
      </trkpt>
      <trkpt lat="42.99305167" lon="-1.10232833">
        <ele>889.0</ele>
        <time>2019-07-31T14:12:26.093Z</time>
      </trkpt>
      <trkpt lat="42.99306" lon="-1.10231667">
        <ele>889.0</ele>
        <time>2019-07-31T14:12:27.097Z</time>
      </trkpt>
      <trkpt lat="42.99307167" lon="-1.10231333">
        <ele>890.0</ele>
        <time>2019-07-31T14:12:28.104Z</time>
      </trkpt>
      <trkpt lat="42.993085" lon="-1.10231333">
        <ele>889.0</ele>
        <time>2019-07-31T14:12:29.108Z</time>
      </trkpt>
      <trkpt lat="42.993105" lon="-1.10231">
        <ele>889.0</ele>
        <time>2019-07-31T14:12:30.115Z</time>
      </trkpt>
      <trkpt lat="42.99312167" lon="-1.102305">
        <ele>889.0</ele>
        <time>2019-07-31T14:12:31.120Z</time>
      </trkpt>
      <trkpt lat="42.99313833" lon="-1.10230333">
        <ele>889.0</ele>
        <time>2019-07-31T14:12:32.125Z</time>
      </trkpt>
      <trkpt lat="42.99315167" lon="-1.10230167">
        <ele>889.0</ele>
        <time>2019-07-31T14:12:33.131Z</time>
      </trkpt>
      <trkpt lat="42.99316833" lon="-1.102305">
        <ele>889.0</ele>
        <time>2019-07-31T14:12:34.137Z</time>
      </trkpt>
      <trkpt lat="42.99318833" lon="-1.10231">
        <ele>889.0</ele>
        <time>2019-07-31T14:12:35.144Z</time>
      </trkpt>
      <trkpt lat="42.99320333" lon="-1.10231167">
        <ele>889.0</ele>
        <time>2019-07-31T14:12:36.150Z</time>
      </trkpt>
      <trkpt lat="42.99321833" lon="-1.10231">
        <ele>890.0</ele>
        <time>2019-07-31T14:12:37.155Z</time>
      </trkpt>
      <trkpt lat="42.993235" lon="-1.1023">
        <ele>891.0</ele>
        <time>2019-07-31T14:12:38.161Z</time>
      </trkpt>
      <trkpt lat="42.99324333" lon="-1.10229667">
        <ele>891.0</ele>
        <time>2019-07-31T14:12:39.165Z</time>
      </trkpt>
      <trkpt lat="42.993255" lon="-1.10230667">
        <ele>891.0</ele>
        <time>2019-07-31T14:12:40.171Z</time>
      </trkpt>
      <trkpt lat="42.99326167" lon="-1.10231333">
        <ele>891.0</ele>
        <time>2019-07-31T14:12:41.178Z</time>
      </trkpt>
      <trkpt lat="42.99326667" lon="-1.102325">
        <ele>891.0</ele>
        <time>2019-07-31T14:12:42.183Z</time>
      </trkpt>
      <trkpt lat="42.99327167" lon="-1.10233667">
        <ele>890.0</ele>
        <time>2019-07-31T14:12:43.063Z</time>
      </trkpt>
      <trkpt lat="42.99328" lon="-1.10234333">
        <ele>890.0</ele>
        <time>2019-07-31T14:12:44.068Z</time>
      </trkpt>
      <trkpt lat="42.99328833" lon="-1.10235333">
        <ele>890.0</ele>
        <time>2019-07-31T14:12:45.075Z</time>
      </trkpt>
      <trkpt lat="42.99329667" lon="-1.10236667">
        <ele>890.0</ele>
        <time>2019-07-31T14:12:46.080Z</time>
      </trkpt>
      <trkpt lat="42.99330333" lon="-1.10237667">
        <ele>890.0</ele>
        <time>2019-07-31T14:12:47.087Z</time>
      </trkpt>
      <trkpt lat="42.99330833" lon="-1.10238167">
        <ele>890.0</ele>
        <time>2019-07-31T14:12:48.093Z</time>
      </trkpt>
      <trkpt lat="42.993315" lon="-1.10239167">
        <ele>890.0</ele>
        <time>2019-07-31T14:12:49.100Z</time>
      </trkpt>
      <trkpt lat="42.99332167" lon="-1.10240333">
        <ele>890.0</ele>
        <time>2019-07-31T14:12:50.103Z</time>
      </trkpt>
      <trkpt lat="42.99332667" lon="-1.10241333">
        <ele>890.0</ele>
        <time>2019-07-31T14:12:51.109Z</time>
      </trkpt>
      <trkpt lat="42.99333167" lon="-1.10242333">
        <ele>890.0</ele>
        <time>2019-07-31T14:12:52.114Z</time>
      </trkpt>
      <trkpt lat="42.99334" lon="-1.10243667">
        <ele>890.0</ele>
        <time>2019-07-31T14:12:53.120Z</time>
      </trkpt>
      <trkpt lat="42.99334667" lon="-1.10244667">
        <ele>891.0</ele>
        <time>2019-07-31T14:12:54.123Z</time>
      </trkpt>
      <trkpt lat="42.99335167" lon="-1.102455">
        <ele>890.0</ele>
        <time>2019-07-31T14:12:55.129Z</time>
      </trkpt>
      <trkpt lat="42.99335833" lon="-1.102465">
        <ele>889.0</ele>
        <time>2019-07-31T14:12:56.135Z</time>
      </trkpt>
      <trkpt lat="42.99337" lon="-1.10248">
        <ele>888.0</ele>
        <time>2019-07-31T14:12:57.142Z</time>
      </trkpt>
      <trkpt lat="42.99338" lon="-1.102495">
        <ele>888.0</ele>
        <time>2019-07-31T14:12:58.150Z</time>
      </trkpt>
      <trkpt lat="42.99339167" lon="-1.10251333">
        <ele>888.0</ele>
        <time>2019-07-31T14:12:59.156Z</time>
      </trkpt>
      <trkpt lat="42.99340167" lon="-1.10253">
        <ele>888.0</ele>
        <time>2019-07-31T14:13:00.161Z</time>
      </trkpt>
      <trkpt lat="42.99341167" lon="-1.102545">
        <ele>889.0</ele>
        <time>2019-07-31T14:13:01.166Z</time>
      </trkpt>
      <trkpt lat="42.99341833" lon="-1.10256">
        <ele>889.0</ele>
        <time>2019-07-31T14:13:02.170Z</time>
      </trkpt>
      <trkpt lat="42.993425" lon="-1.10257167">
        <ele>890.0</ele>
        <time>2019-07-31T14:13:03.177Z</time>
      </trkpt>
      <trkpt lat="42.99343333" lon="-1.10258667">
        <ele>890.0</ele>
        <time>2019-07-31T14:13:04.183Z</time>
      </trkpt>
      <trkpt lat="42.99344333" lon="-1.10260333">
        <ele>890.0</ele>
        <time>2019-07-31T14:13:05.064Z</time>
      </trkpt>
      <trkpt lat="42.99345667" lon="-1.10262333">
        <ele>890.0</ele>
        <time>2019-07-31T14:13:06.068Z</time>
      </trkpt>
      <trkpt lat="42.993465" lon="-1.10263667">
        <ele>891.0</ele>
        <time>2019-07-31T14:13:07.075Z</time>
      </trkpt>
      <trkpt lat="42.99347667" lon="-1.10265167">
        <ele>891.0</ele>
        <time>2019-07-31T14:13:08.080Z</time>
      </trkpt>
      <trkpt lat="42.993485" lon="-1.10266333">
        <ele>891.0</ele>
        <time>2019-07-31T14:13:09.085Z</time>
      </trkpt>
      <trkpt lat="42.99349333" lon="-1.10267">
        <ele>891.0</ele>
        <time>2019-07-31T14:13:10.091Z</time>
      </trkpt>
      <trkpt lat="42.99350333" lon="-1.10268">
        <ele>891.0</ele>
        <time>2019-07-31T14:13:11.095Z</time>
      </trkpt>
      <trkpt lat="42.99351333" lon="-1.102695">
        <ele>891.0</ele>
        <time>2019-07-31T14:13:12.102Z</time>
      </trkpt>
      <trkpt lat="42.99352167" lon="-1.10271">
        <ele>892.0</ele>
        <time>2019-07-31T14:13:13.107Z</time>
      </trkpt>
      <trkpt lat="42.99352667" lon="-1.10272333">
        <ele>892.0</ele>
        <time>2019-07-31T14:13:14.112Z</time>
      </trkpt>
      <trkpt lat="42.993535" lon="-1.10274167">
        <ele>892.0</ele>
        <time>2019-07-31T14:13:15.118Z</time>
      </trkpt>
      <trkpt lat="42.99354833" lon="-1.10276">
        <ele>892.0</ele>
        <time>2019-07-31T14:13:16.123Z</time>
      </trkpt>
      <trkpt lat="42.99355667" lon="-1.10278">
        <ele>892.0</ele>
        <time>2019-07-31T14:13:17.127Z</time>
      </trkpt>
      <trkpt lat="42.993565" lon="-1.10279667">
        <ele>892.0</ele>
        <time>2019-07-31T14:13:18.131Z</time>
      </trkpt>
      <trkpt lat="42.99357167" lon="-1.10281">
        <ele>894.0</ele>
        <time>2019-07-31T14:13:19.135Z</time>
      </trkpt>
      <trkpt lat="42.99358333" lon="-1.102825">
        <ele>895.0</ele>
        <time>2019-07-31T14:13:20.138Z</time>
      </trkpt>
      <trkpt lat="42.993595" lon="-1.102835">
        <ele>896.0</ele>
        <time>2019-07-31T14:13:21.142Z</time>
      </trkpt>
      <trkpt lat="42.993605" lon="-1.10284333">
        <ele>897.0</ele>
        <time>2019-07-31T14:13:22.146Z</time>
      </trkpt>
      <trkpt lat="42.99362167" lon="-1.10285667">
        <ele>897.0</ele>
        <time>2019-07-31T14:13:23.151Z</time>
      </trkpt>
      <trkpt lat="42.993635" lon="-1.10287167">
        <ele>897.0</ele>
        <time>2019-07-31T14:13:24.157Z</time>
      </trkpt>
      <trkpt lat="42.993645" lon="-1.10288167">
        <ele>899.0</ele>
        <time>2019-07-31T14:13:25.161Z</time>
      </trkpt>
      <trkpt lat="42.99365667" lon="-1.1029">
        <ele>899.0</ele>
        <time>2019-07-31T14:13:26.165Z</time>
      </trkpt>
      <trkpt lat="42.99367" lon="-1.10291667">
        <ele>900.0</ele>
        <time>2019-07-31T14:13:27.170Z</time>
      </trkpt>
      <trkpt lat="42.99368833" lon="-1.10292833">
        <ele>899.0</ele>
        <time>2019-07-31T14:13:28.173Z</time>
      </trkpt>
      <trkpt lat="42.99370667" lon="-1.10293167">
        <ele>901.0</ele>
        <time>2019-07-31T14:13:29.178Z</time>
      </trkpt>
      <trkpt lat="42.993725" lon="-1.10294167">
        <ele>901.0</ele>
        <time>2019-07-31T14:13:30.184Z</time>
      </trkpt>
      <trkpt lat="42.99373667" lon="-1.10294833">
        <ele>901.0</ele>
        <time>2019-07-31T14:13:31.064Z</time>
      </trkpt>
      <trkpt lat="42.99374333" lon="-1.102955">
        <ele>901.0</ele>
        <time>2019-07-31T14:13:32.070Z</time>
      </trkpt>
      <trkpt lat="42.99374833" lon="-1.10296333">
        <ele>902.0</ele>
        <time>2019-07-31T14:13:33.075Z</time>
      </trkpt>
      <trkpt lat="42.993755" lon="-1.102975">
        <ele>902.0</ele>
        <time>2019-07-31T14:13:34.079Z</time>
      </trkpt>
      <trkpt lat="42.99375833" lon="-1.10299">
        <ele>903.0</ele>
        <time>2019-07-31T14:13:35.085Z</time>
      </trkpt>
      <trkpt lat="42.99375667" lon="-1.10301333">
        <ele>902.0</ele>
        <time>2019-07-31T14:13:36.090Z</time>
      </trkpt>
      <trkpt lat="42.99375833" lon="-1.10304167">
        <ele>901.0</ele>
        <time>2019-07-31T14:13:37.093Z</time>
      </trkpt>
      <trkpt lat="42.99376167" lon="-1.10305">
        <ele>901.0</ele>
        <time>2019-07-31T14:13:38.100Z</time>
      </trkpt>
      <trkpt lat="42.99376833" lon="-1.10305833">
        <ele>901.0</ele>
        <time>2019-07-31T14:13:39.106Z</time>
      </trkpt>
      <trkpt lat="42.99377667" lon="-1.10307167">
        <ele>901.0</ele>
        <time>2019-07-31T14:13:40.111Z</time>
      </trkpt>
      <trkpt lat="42.993785" lon="-1.103085">
        <ele>901.0</ele>
        <time>2019-07-31T14:13:41.116Z</time>
      </trkpt>
      <trkpt lat="42.99378833" lon="-1.10309833">
        <ele>902.0</ele>
        <time>2019-07-31T14:13:42.120Z</time>
      </trkpt>
      <trkpt lat="42.99379333" lon="-1.10311333">
        <ele>902.0</ele>
        <time>2019-07-31T14:13:43.124Z</time>
      </trkpt>
      <trkpt lat="42.9938" lon="-1.10312833">
        <ele>902.0</ele>
        <time>2019-07-31T14:13:44.129Z</time>
      </trkpt>
      <trkpt lat="42.99380667" lon="-1.10314333">
        <ele>902.0</ele>
        <time>2019-07-31T14:13:45.136Z</time>
      </trkpt>
      <trkpt lat="42.993815" lon="-1.10316333">
        <ele>901.0</ele>
        <time>2019-07-31T14:13:46.143Z</time>
      </trkpt>
      <trkpt lat="42.993825" lon="-1.10318">
        <ele>901.0</ele>
        <time>2019-07-31T14:13:47.148Z</time>
      </trkpt>
      <trkpt lat="42.99383167" lon="-1.10319167">
        <ele>901.0</ele>
        <time>2019-07-31T14:13:48.154Z</time>
      </trkpt>
      <trkpt lat="42.99384167" lon="-1.10320333">
        <ele>901.0</ele>
        <time>2019-07-31T14:13:49.158Z</time>
      </trkpt>
      <trkpt lat="42.99385833" lon="-1.10321833">
        <ele>902.0</ele>
        <time>2019-07-31T14:13:50.163Z</time>
      </trkpt>
      <trkpt lat="42.99387333" lon="-1.103235">
        <ele>901.0</ele>
        <time>2019-07-31T14:13:51.169Z</time>
      </trkpt>
      <trkpt lat="42.99388833" lon="-1.10325333">
        <ele>901.0</ele>
        <time>2019-07-31T14:13:52.173Z</time>
      </trkpt>
      <trkpt lat="42.993895" lon="-1.10327333">
        <ele>901.0</ele>
        <time>2019-07-31T14:13:53.177Z</time>
      </trkpt>
      <trkpt lat="42.9939" lon="-1.103295">
        <ele>901.0</ele>
        <time>2019-07-31T14:13:54.182Z</time>
      </trkpt>
      <trkpt lat="42.99390167" lon="-1.10331">
        <ele>901.0</ele>
        <time>2019-07-31T14:13:55.061Z</time>
      </trkpt>
      <trkpt lat="42.99390333" lon="-1.103325">
        <ele>901.0</ele>
        <time>2019-07-31T14:13:56.065Z</time>
      </trkpt>
      <trkpt lat="42.99390833" lon="-1.10334667">
        <ele>901.0</ele>
        <time>2019-07-31T14:13:57.069Z</time>
      </trkpt>
      <trkpt lat="42.99391167" lon="-1.10336833">
        <ele>901.0</ele>
        <time>2019-07-31T14:13:58.073Z</time>
      </trkpt>
      <trkpt lat="42.993925" lon="-1.10338667">
        <ele>901.0</ele>
        <time>2019-07-31T14:13:59.079Z</time>
      </trkpt>
      <trkpt lat="42.99394333" lon="-1.10340833">
        <ele>902.0</ele>
        <time>2019-07-31T14:14:00.084Z</time>
      </trkpt>
      <trkpt lat="42.99396" lon="-1.10342333">
        <ele>901.0</ele>
        <time>2019-07-31T14:14:01.090Z</time>
      </trkpt>
      <trkpt lat="42.99397833" lon="-1.10344167">
        <ele>902.0</ele>
        <time>2019-07-31T14:14:02.096Z</time>
      </trkpt>
      <trkpt lat="42.99399" lon="-1.10346667">
        <ele>901.0</ele>
        <time>2019-07-31T14:14:03.102Z</time>
      </trkpt>
      <trkpt lat="42.994" lon="-1.10348667">
        <ele>902.0</ele>
        <time>2019-07-31T14:14:04.107Z</time>
      </trkpt>
      <trkpt lat="42.99401667" lon="-1.10350667">
        <ele>903.0</ele>
        <time>2019-07-31T14:14:05.113Z</time>
      </trkpt>
      <trkpt lat="42.99403" lon="-1.10352167">
        <ele>904.0</ele>
        <time>2019-07-31T14:14:06.117Z</time>
      </trkpt>
      <trkpt lat="42.994035" lon="-1.10353167">
        <ele>906.0</ele>
        <time>2019-07-31T14:14:07.121Z</time>
      </trkpt>
      <trkpt lat="42.994045" lon="-1.10353">
        <ele>907.0</ele>
        <time>2019-07-31T14:14:08.128Z</time>
      </trkpt>
      <trkpt lat="42.99406667" lon="-1.103545">
        <ele>906.0</ele>
        <time>2019-07-31T14:14:09.134Z</time>
      </trkpt>
      <trkpt lat="42.99409" lon="-1.10356667">
        <ele>905.0</ele>
        <time>2019-07-31T14:14:10.139Z</time>
      </trkpt>
      <trkpt lat="42.99411" lon="-1.10358333">
        <ele>904.0</ele>
        <time>2019-07-31T14:14:11.146Z</time>
      </trkpt>
      <trkpt lat="42.99412167" lon="-1.10359167">
        <ele>904.0</ele>
        <time>2019-07-31T14:14:12.154Z</time>
      </trkpt>
      <trkpt lat="42.99414667" lon="-1.10361167">
        <ele>903.0</ele>
        <time>2019-07-31T14:14:13.161Z</time>
      </trkpt>
      <trkpt lat="42.99417833" lon="-1.10362333">
        <ele>902.0</ele>
        <time>2019-07-31T14:14:14.167Z</time>
      </trkpt>
      <trkpt lat="42.99419333" lon="-1.103635">
        <ele>901.0</ele>
        <time>2019-07-31T14:14:15.173Z</time>
      </trkpt>
      <trkpt lat="42.994205" lon="-1.10365">
        <ele>900.0</ele>
        <time>2019-07-31T14:14:16.178Z</time>
      </trkpt>
      <trkpt lat="42.99421333" lon="-1.103665">
        <ele>899.0</ele>
        <time>2019-07-31T14:14:17.183Z</time>
      </trkpt>
      <trkpt lat="42.99422167" lon="-1.10368167">
        <ele>898.0</ele>
        <time>2019-07-31T14:14:18.061Z</time>
      </trkpt>
      <trkpt lat="42.994225" lon="-1.10369667">
        <ele>897.0</ele>
        <time>2019-07-31T14:14:19.066Z</time>
      </trkpt>
      <trkpt lat="42.99423333" lon="-1.10371333">
        <ele>896.0</ele>
        <time>2019-07-31T14:14:20.070Z</time>
      </trkpt>
      <trkpt lat="42.99424667" lon="-1.10373167">
        <ele>894.0</ele>
        <time>2019-07-31T14:14:21.075Z</time>
      </trkpt>
      <trkpt lat="42.99426833" lon="-1.10375">
        <ele>892.0</ele>
        <time>2019-07-31T14:14:22.080Z</time>
      </trkpt>
      <trkpt lat="42.994285" lon="-1.103765">
        <ele>891.0</ele>
        <time>2019-07-31T14:14:23.086Z</time>
      </trkpt>
      <trkpt lat="42.99430167" lon="-1.10377833">
        <ele>891.0</ele>
        <time>2019-07-31T14:14:24.089Z</time>
      </trkpt>
      <trkpt lat="42.99431167" lon="-1.10378">
        <ele>892.0</ele>
        <time>2019-07-31T14:14:25.093Z</time>
      </trkpt>
      <trkpt lat="42.99432333" lon="-1.10378167">
        <ele>892.0</ele>
        <time>2019-07-31T14:14:26.100Z</time>
      </trkpt>
      <trkpt lat="42.99434" lon="-1.10378667">
        <ele>892.0</ele>
        <time>2019-07-31T14:14:27.106Z</time>
      </trkpt>
      <trkpt lat="42.994355" lon="-1.10379667">
        <ele>892.0</ele>
        <time>2019-07-31T14:14:28.113Z</time>
      </trkpt>
      <trkpt lat="42.99437167" lon="-1.10381">
        <ele>891.0</ele>
        <time>2019-07-31T14:14:29.119Z</time>
      </trkpt>
      <trkpt lat="42.99437667" lon="-1.103815">
        <ele>890.0</ele>
        <time>2019-07-31T14:14:30.124Z</time>
      </trkpt>
      <trkpt lat="42.99438167" lon="-1.10382167">
        <ele>890.0</ele>
        <time>2019-07-31T14:14:31.131Z</time>
      </trkpt>
      <trkpt lat="42.99438833" lon="-1.10383333">
        <ele>890.0</ele>
        <time>2019-07-31T14:14:32.138Z</time>
      </trkpt>
      <trkpt lat="42.994395" lon="-1.10383167">
        <ele>890.0</ele>
        <time>2019-07-31T14:14:33.143Z</time>
      </trkpt>
      <trkpt lat="42.99440333" lon="-1.10383">
        <ele>890.0</ele>
        <time>2019-07-31T14:14:34.149Z</time>
      </trkpt>
      <trkpt lat="42.99442" lon="-1.10384">
        <ele>888.0</ele>
        <time>2019-07-31T14:14:35.154Z</time>
      </trkpt>
      <trkpt lat="42.99443167" lon="-1.10384167">
        <ele>887.0</ele>
        <time>2019-07-31T14:14:36.160Z</time>
      </trkpt>
      <trkpt lat="42.994445" lon="-1.103845">
        <ele>887.0</ele>
        <time>2019-07-31T14:14:37.166Z</time>
      </trkpt>
      <trkpt lat="42.99445667" lon="-1.103845">
        <ele>887.0</ele>
        <time>2019-07-31T14:14:38.171Z</time>
      </trkpt>
      <trkpt lat="42.99447" lon="-1.10385">
        <ele>886.0</ele>
        <time>2019-07-31T14:14:39.177Z</time>
      </trkpt>
      <trkpt lat="42.99448" lon="-1.10385167">
        <ele>886.0</ele>
        <time>2019-07-31T14:14:40.181Z</time>
      </trkpt>
      <trkpt lat="42.994495" lon="-1.10385333">
        <ele>885.0</ele>
        <time>2019-07-31T14:14:41.184Z</time>
      </trkpt>
      <trkpt lat="42.99450833" lon="-1.10385333">
        <ele>885.0</ele>
        <time>2019-07-31T14:14:42.063Z</time>
      </trkpt>
      <trkpt lat="42.99452167" lon="-1.10385333">
        <ele>886.0</ele>
        <time>2019-07-31T14:14:43.069Z</time>
      </trkpt>
      <trkpt lat="42.99453667" lon="-1.10386">
        <ele>886.0</ele>
        <time>2019-07-31T14:14:44.073Z</time>
      </trkpt>
      <trkpt lat="42.99455333" lon="-1.103865">
        <ele>886.0</ele>
        <time>2019-07-31T14:14:45.079Z</time>
      </trkpt>
      <trkpt lat="42.99457167" lon="-1.10386833">
        <ele>886.0</ele>
        <time>2019-07-31T14:14:46.082Z</time>
      </trkpt>
      <trkpt lat="42.99459" lon="-1.10387333">
        <ele>886.0</ele>
        <time>2019-07-31T14:14:47.088Z</time>
      </trkpt>
      <trkpt lat="42.99461167" lon="-1.10388667">
        <ele>886.0</ele>
        <time>2019-07-31T14:14:48.094Z</time>
      </trkpt>
      <trkpt lat="42.99462667" lon="-1.10389">
        <ele>886.0</ele>
        <time>2019-07-31T14:14:49.099Z</time>
      </trkpt>
      <trkpt lat="42.99464667" lon="-1.10389667">
        <ele>887.0</ele>
        <time>2019-07-31T14:14:50.104Z</time>
      </trkpt>
      <trkpt lat="42.99466333" lon="-1.10390667">
        <ele>887.0</ele>
        <time>2019-07-31T14:14:51.109Z</time>
      </trkpt>
      <trkpt lat="42.994675" lon="-1.10391">
        <ele>887.0</ele>
        <time>2019-07-31T14:14:52.113Z</time>
      </trkpt>
      <trkpt lat="42.99468833" lon="-1.103915">
        <ele>887.0</ele>
        <time>2019-07-31T14:14:53.120Z</time>
      </trkpt>
      <trkpt lat="42.9947" lon="-1.10392">
        <ele>888.0</ele>
        <time>2019-07-31T14:14:54.123Z</time>
      </trkpt>
      <trkpt lat="42.99471" lon="-1.10392667">
        <ele>888.0</ele>
        <time>2019-07-31T14:14:55.129Z</time>
      </trkpt>
      <trkpt lat="42.99472667" lon="-1.10393167">
        <ele>889.0</ele>
        <time>2019-07-31T14:14:56.134Z</time>
      </trkpt>
      <trkpt lat="42.99474167" lon="-1.10393667">
        <ele>889.0</ele>
        <time>2019-07-31T14:14:57.139Z</time>
      </trkpt>
      <trkpt lat="42.99475833" lon="-1.10393833">
        <ele>888.0</ele>
        <time>2019-07-31T14:14:58.142Z</time>
      </trkpt>
      <trkpt lat="42.994775" lon="-1.103935">
        <ele>887.0</ele>
        <time>2019-07-31T14:14:59.148Z</time>
      </trkpt>
      <trkpt lat="42.99479667" lon="-1.103935">
        <ele>887.0</ele>
        <time>2019-07-31T14:15:00.153Z</time>
      </trkpt>
      <trkpt lat="42.99481333" lon="-1.10393333">
        <ele>886.0</ele>
        <time>2019-07-31T14:15:01.159Z</time>
      </trkpt>
      <trkpt lat="42.994825" lon="-1.10393167">
        <ele>886.0</ele>
        <time>2019-07-31T14:15:02.165Z</time>
      </trkpt>
      <trkpt lat="42.99483167" lon="-1.10394167">
        <ele>886.0</ele>
        <time>2019-07-31T14:15:03.171Z</time>
      </trkpt>
      <trkpt lat="42.99484333" lon="-1.10395667">
        <ele>885.0</ele>
        <time>2019-07-31T14:15:04.176Z</time>
      </trkpt>
      <trkpt lat="42.99486" lon="-1.10396833">
        <ele>885.0</ele>
        <time>2019-07-31T14:15:05.181Z</time>
      </trkpt>
      <trkpt lat="42.994875" lon="-1.10396833">
        <ele>885.0</ele>
        <time>2019-07-31T14:15:06.062Z</time>
      </trkpt>
      <trkpt lat="42.99489" lon="-1.10396333">
        <ele>886.0</ele>
        <time>2019-07-31T14:15:07.069Z</time>
      </trkpt>
      <trkpt lat="42.99490333" lon="-1.10395667">
        <ele>885.0</ele>
        <time>2019-07-31T14:15:08.072Z</time>
      </trkpt>
      <trkpt lat="42.99491" lon="-1.103945">
        <ele>886.0</ele>
        <time>2019-07-31T14:15:09.075Z</time>
      </trkpt>
      <trkpt lat="42.99493" lon="-1.10394">
        <ele>885.0</ele>
        <time>2019-07-31T14:15:10.079Z</time>
      </trkpt>
      <trkpt lat="42.99494833" lon="-1.10394">
        <ele>885.0</ele>
        <time>2019-07-31T14:15:11.083Z</time>
      </trkpt>
      <trkpt lat="42.99497333" lon="-1.10394167">
        <ele>885.0</ele>
        <time>2019-07-31T14:15:12.088Z</time>
      </trkpt>
      <trkpt lat="42.99499833" lon="-1.10393667">
        <ele>884.0</ele>
        <time>2019-07-31T14:15:13.094Z</time>
      </trkpt>
      <trkpt lat="42.99501833" lon="-1.103925">
        <ele>884.0</ele>
        <time>2019-07-31T14:15:14.097Z</time>
      </trkpt>
      <trkpt lat="42.99504" lon="-1.10392167">
        <ele>884.0</ele>
        <time>2019-07-31T14:15:15.103Z</time>
      </trkpt>
      <trkpt lat="42.99506167" lon="-1.10392">
        <ele>883.0</ele>
        <time>2019-07-31T14:15:16.109Z</time>
      </trkpt>
      <trkpt lat="42.99508333" lon="-1.103915">
        <ele>883.0</ele>
        <time>2019-07-31T14:15:17.113Z</time>
      </trkpt>
      <trkpt lat="42.99509667" lon="-1.10390333">
        <ele>883.0</ele>
        <time>2019-07-31T14:15:18.119Z</time>
      </trkpt>
      <trkpt lat="42.99511333" lon="-1.10389167">
        <ele>882.0</ele>
        <time>2019-07-31T14:15:19.123Z</time>
      </trkpt>
      <trkpt lat="42.99513" lon="-1.10387833">
        <ele>882.0</ele>
        <time>2019-07-31T14:15:20.129Z</time>
      </trkpt>
      <trkpt lat="42.995145" lon="-1.10387333">
        <ele>882.0</ele>
        <time>2019-07-31T14:15:21.133Z</time>
      </trkpt>
      <trkpt lat="42.99516333" lon="-1.103865">
        <ele>881.0</ele>
        <time>2019-07-31T14:15:22.140Z</time>
      </trkpt>
      <trkpt lat="42.995175" lon="-1.10386167">
        <ele>880.0</ele>
        <time>2019-07-31T14:15:23.147Z</time>
      </trkpt>
      <trkpt lat="42.99518833" lon="-1.10385333">
        <ele>879.0</ele>
        <time>2019-07-31T14:15:24.152Z</time>
      </trkpt>
      <trkpt lat="42.99520167" lon="-1.10384667">
        <ele>878.0</ele>
        <time>2019-07-31T14:15:25.159Z</time>
      </trkpt>
      <trkpt lat="42.995215" lon="-1.10384">
        <ele>878.0</ele>
        <time>2019-07-31T14:15:26.165Z</time>
      </trkpt>
      <trkpt lat="42.99522333" lon="-1.10382833">
        <ele>878.0</ele>
        <time>2019-07-31T14:15:27.172Z</time>
      </trkpt>
      <trkpt lat="42.99523833" lon="-1.103825">
        <ele>879.0</ele>
        <time>2019-07-31T14:15:28.176Z</time>
      </trkpt>
      <trkpt lat="42.99525167" lon="-1.10381667">
        <ele>880.0</ele>
        <time>2019-07-31T14:15:29.180Z</time>
      </trkpt>
      <trkpt lat="42.99526333" lon="-1.10380167">
        <ele>881.0</ele>
        <time>2019-07-31T14:15:30.186Z</time>
      </trkpt>
      <trkpt lat="42.99527667" lon="-1.10379">
        <ele>881.0</ele>
        <time>2019-07-31T14:15:31.066Z</time>
      </trkpt>
      <trkpt lat="42.99529" lon="-1.10378">
        <ele>881.0</ele>
        <time>2019-07-31T14:15:32.071Z</time>
      </trkpt>
      <trkpt lat="42.99530667" lon="-1.10377833">
        <ele>881.0</ele>
        <time>2019-07-31T14:15:33.078Z</time>
      </trkpt>
      <trkpt lat="42.99532167" lon="-1.10377667">
        <ele>881.0</ele>
        <time>2019-07-31T14:15:34.083Z</time>
      </trkpt>
      <trkpt lat="42.99533667" lon="-1.10377333">
        <ele>880.0</ele>
        <time>2019-07-31T14:15:35.090Z</time>
      </trkpt>
      <trkpt lat="42.99535" lon="-1.10377167">
        <ele>880.0</ele>
        <time>2019-07-31T14:15:36.095Z</time>
      </trkpt>
      <trkpt lat="42.99536333" lon="-1.103765">
        <ele>881.0</ele>
        <time>2019-07-31T14:15:37.101Z</time>
      </trkpt>
      <trkpt lat="42.99537833" lon="-1.10376">
        <ele>881.0</ele>
        <time>2019-07-31T14:15:38.106Z</time>
      </trkpt>
      <trkpt lat="42.99539167" lon="-1.10375333">
        <ele>881.0</ele>
        <time>2019-07-31T14:15:39.114Z</time>
      </trkpt>
      <trkpt lat="42.99540667" lon="-1.10375167">
        <ele>880.0</ele>
        <time>2019-07-31T14:15:40.120Z</time>
      </trkpt>
      <trkpt lat="42.99542167" lon="-1.10375167">
        <ele>880.0</ele>
        <time>2019-07-31T14:15:41.125Z</time>
      </trkpt>
      <trkpt lat="42.99543833" lon="-1.10375">
        <ele>880.0</ele>
        <time>2019-07-31T14:15:42.130Z</time>
      </trkpt>
      <trkpt lat="42.99544833" lon="-1.103755">
        <ele>880.0</ele>
        <time>2019-07-31T14:15:43.137Z</time>
      </trkpt>
      <trkpt lat="42.99546167" lon="-1.10376">
        <ele>879.0</ele>
        <time>2019-07-31T14:15:44.143Z</time>
      </trkpt>
      <trkpt lat="42.99547833" lon="-1.103765">
        <ele>880.0</ele>
        <time>2019-07-31T14:15:45.150Z</time>
      </trkpt>
      <trkpt lat="42.99549167" lon="-1.10376833">
        <ele>880.0</ele>
        <time>2019-07-31T14:15:46.157Z</time>
      </trkpt>
      <trkpt lat="42.99550667" lon="-1.10376667">
        <ele>880.0</ele>
        <time>2019-07-31T14:15:47.162Z</time>
      </trkpt>
      <trkpt lat="42.99552167" lon="-1.10376333">
        <ele>880.0</ele>
        <time>2019-07-31T14:15:48.167Z</time>
      </trkpt>
      <trkpt lat="42.99553333" lon="-1.103765">
        <ele>881.0</ele>
        <time>2019-07-31T14:15:49.173Z</time>
      </trkpt>
      <trkpt lat="42.99554" lon="-1.10375333">
        <ele>882.0</ele>
        <time>2019-07-31T14:15:50.179Z</time>
      </trkpt>
      <trkpt lat="42.995545" lon="-1.10374">
        <ele>883.0</ele>
        <time>2019-07-31T14:15:51.184Z</time>
      </trkpt>
      <trkpt lat="42.99555333" lon="-1.10373667">
        <ele>882.0</ele>
        <time>2019-07-31T14:15:52.061Z</time>
      </trkpt>
      <trkpt lat="42.995565" lon="-1.10373833">
        <ele>881.0</ele>
        <time>2019-07-31T14:15:53.065Z</time>
      </trkpt>
      <trkpt lat="42.99557333" lon="-1.10373333">
        <ele>880.0</ele>
        <time>2019-07-31T14:15:54.070Z</time>
      </trkpt>
      <trkpt lat="42.99558667" lon="-1.10372167">
        <ele>880.0</ele>
        <time>2019-07-31T14:15:55.073Z</time>
      </trkpt>
      <trkpt lat="42.99560333" lon="-1.103715">
        <ele>880.0</ele>
        <time>2019-07-31T14:15:56.076Z</time>
      </trkpt>
      <trkpt lat="42.99561833" lon="-1.103715">
        <ele>879.0</ele>
        <time>2019-07-31T14:15:57.079Z</time>
      </trkpt>
      <trkpt lat="42.99564" lon="-1.10371667">
        <ele>879.0</ele>
        <time>2019-07-31T14:15:58.081Z</time>
      </trkpt>
      <trkpt lat="42.995655" lon="-1.10371833">
        <ele>879.0</ele>
        <time>2019-07-31T14:15:59.085Z</time>
      </trkpt>
      <trkpt lat="42.99567" lon="-1.10372333">
        <ele>880.0</ele>
        <time>2019-07-31T14:16:00.089Z</time>
      </trkpt>
      <trkpt lat="42.99568667" lon="-1.103735">
        <ele>880.0</ele>
        <time>2019-07-31T14:16:01.093Z</time>
      </trkpt>
      <trkpt lat="42.99570667" lon="-1.10373667">
        <ele>879.0</ele>
        <time>2019-07-31T14:16:02.098Z</time>
      </trkpt>
      <trkpt lat="42.99572833" lon="-1.10373667">
        <ele>879.0</ele>
        <time>2019-07-31T14:16:03.104Z</time>
      </trkpt>
      <trkpt lat="42.99573833" lon="-1.10372667">
        <ele>879.0</ele>
        <time>2019-07-31T14:16:04.110Z</time>
      </trkpt>
      <trkpt lat="42.99574833" lon="-1.10371333">
        <ele>879.0</ele>
        <time>2019-07-31T14:16:05.114Z</time>
      </trkpt>
      <trkpt lat="42.99576333" lon="-1.103705">
        <ele>879.0</ele>
        <time>2019-07-31T14:16:06.117Z</time>
      </trkpt>
      <trkpt lat="42.99578167" lon="-1.10369667">
        <ele>878.0</ele>
        <time>2019-07-31T14:16:07.121Z</time>
      </trkpt>
      <trkpt lat="42.995795" lon="-1.103695">
        <ele>877.0</ele>
        <time>2019-07-31T14:16:08.125Z</time>
      </trkpt>
      <trkpt lat="42.99580667" lon="-1.1037">
        <ele>876.0</ele>
        <time>2019-07-31T14:16:09.132Z</time>
      </trkpt>
      <trkpt lat="42.99582" lon="-1.103705">
        <ele>876.0</ele>
        <time>2019-07-31T14:16:10.138Z</time>
      </trkpt>
      <trkpt lat="42.99584" lon="-1.10371">
        <ele>876.0</ele>
        <time>2019-07-31T14:16:11.144Z</time>
      </trkpt>
      <trkpt lat="42.99586167" lon="-1.10371">
        <ele>876.0</ele>
        <time>2019-07-31T14:16:12.150Z</time>
      </trkpt>
      <trkpt lat="42.99587167" lon="-1.10370667">
        <ele>877.0</ele>
        <time>2019-07-31T14:16:13.152Z</time>
      </trkpt>
      <trkpt lat="42.99588833" lon="-1.103705">
        <ele>877.0</ele>
        <time>2019-07-31T14:16:14.158Z</time>
      </trkpt>
      <trkpt lat="42.99590333" lon="-1.10369667">
        <ele>877.0</ele>
        <time>2019-07-31T14:16:15.164Z</time>
      </trkpt>
      <trkpt lat="42.99591333" lon="-1.10368667">
        <ele>878.0</ele>
        <time>2019-07-31T14:16:16.169Z</time>
      </trkpt>
      <trkpt lat="42.99592833" lon="-1.10367">
        <ele>879.0</ele>
        <time>2019-07-31T14:16:17.174Z</time>
      </trkpt>
      <trkpt lat="42.99594833" lon="-1.103665">
        <ele>878.0</ele>
        <time>2019-07-31T14:16:18.182Z</time>
      </trkpt>
      <trkpt lat="42.99596" lon="-1.10365667">
        <ele>877.0</ele>
        <time>2019-07-31T14:16:19.062Z</time>
      </trkpt>
      <trkpt lat="42.99597333" lon="-1.10365667">
        <ele>876.0</ele>
        <time>2019-07-31T14:16:20.068Z</time>
      </trkpt>
      <trkpt lat="42.995985" lon="-1.10365667">
        <ele>876.0</ele>
        <time>2019-07-31T14:16:21.074Z</time>
      </trkpt>
      <trkpt lat="42.99599667" lon="-1.10365167">
        <ele>876.0</ele>
        <time>2019-07-31T14:16:22.079Z</time>
      </trkpt>
      <trkpt lat="42.99600167" lon="-1.103645">
        <ele>877.0</ele>
        <time>2019-07-31T14:16:23.084Z</time>
      </trkpt>
      <trkpt lat="42.99601333" lon="-1.10363833">
        <ele>876.0</ele>
        <time>2019-07-31T14:16:24.089Z</time>
      </trkpt>
      <trkpt lat="42.996025" lon="-1.103635">
        <ele>876.0</ele>
        <time>2019-07-31T14:16:25.093Z</time>
      </trkpt>
      <trkpt lat="42.99603833" lon="-1.10362833">
        <ele>875.0</ele>
        <time>2019-07-31T14:16:26.098Z</time>
      </trkpt>
      <trkpt lat="42.99605" lon="-1.103625">
        <ele>875.0</ele>
        <time>2019-07-31T14:16:27.101Z</time>
      </trkpt>
      <trkpt lat="42.99606333" lon="-1.10362">
        <ele>875.0</ele>
        <time>2019-07-31T14:16:28.107Z</time>
      </trkpt>
      <trkpt lat="42.996075" lon="-1.10361167">
        <ele>875.0</ele>
        <time>2019-07-31T14:16:29.113Z</time>
      </trkpt>
      <trkpt lat="42.99608833" lon="-1.10360667">
        <ele>875.0</ele>
        <time>2019-07-31T14:16:30.118Z</time>
      </trkpt>
      <trkpt lat="42.99610167" lon="-1.10359833">
        <ele>875.0</ele>
        <time>2019-07-31T14:16:31.122Z</time>
      </trkpt>
      <trkpt lat="42.99611333" lon="-1.10359">
        <ele>875.0</ele>
        <time>2019-07-31T14:16:32.128Z</time>
      </trkpt>
      <trkpt lat="42.996125" lon="-1.10357833">
        <ele>875.0</ele>
        <time>2019-07-31T14:16:33.134Z</time>
      </trkpt>
      <trkpt lat="42.99613333" lon="-1.10356667">
        <ele>875.0</ele>
        <time>2019-07-31T14:16:34.136Z</time>
      </trkpt>
      <trkpt lat="42.99614333" lon="-1.10355667">
        <ele>876.0</ele>
        <time>2019-07-31T14:16:35.143Z</time>
      </trkpt>
      <trkpt lat="42.99615167" lon="-1.10354833">
        <ele>876.0</ele>
        <time>2019-07-31T14:16:36.149Z</time>
      </trkpt>
      <trkpt lat="42.99615833" lon="-1.10353667">
        <ele>876.0</ele>
        <time>2019-07-31T14:16:37.156Z</time>
      </trkpt>
      <trkpt lat="42.996165" lon="-1.10352167">
        <ele>876.0</ele>
        <time>2019-07-31T14:16:38.162Z</time>
      </trkpt>
      <trkpt lat="42.99617167" lon="-1.10350333">
        <ele>876.0</ele>
        <time>2019-07-31T14:16:39.169Z</time>
      </trkpt>
      <trkpt lat="42.99618167" lon="-1.103485">
        <ele>876.0</ele>
        <time>2019-07-31T14:16:40.174Z</time>
      </trkpt>
      <trkpt lat="42.99619" lon="-1.10347">
        <ele>875.0</ele>
        <time>2019-07-31T14:16:41.179Z</time>
      </trkpt>
      <trkpt lat="42.99620333" lon="-1.10345333">
        <ele>875.0</ele>
        <time>2019-07-31T14:16:42.061Z</time>
      </trkpt>
      <trkpt lat="42.996215" lon="-1.10344333">
        <ele>874.0</ele>
        <time>2019-07-31T14:16:43.065Z</time>
      </trkpt>
      <trkpt lat="42.99622833" lon="-1.10343167">
        <ele>874.0</ele>
        <time>2019-07-31T14:16:44.068Z</time>
      </trkpt>
      <trkpt lat="42.99624" lon="-1.10342167">
        <ele>874.0</ele>
        <time>2019-07-31T14:16:45.074Z</time>
      </trkpt>
      <trkpt lat="42.996255" lon="-1.103415">
        <ele>873.0</ele>
        <time>2019-07-31T14:16:46.079Z</time>
      </trkpt>
      <trkpt lat="42.99627167" lon="-1.10341333">
        <ele>872.0</ele>
        <time>2019-07-31T14:16:47.083Z</time>
      </trkpt>
      <trkpt lat="42.99628333" lon="-1.10341">
        <ele>872.0</ele>
        <time>2019-07-31T14:16:48.088Z</time>
      </trkpt>
      <trkpt lat="42.99629833" lon="-1.10340333">
        <ele>872.0</ele>
        <time>2019-07-31T14:16:49.095Z</time>
      </trkpt>
      <trkpt lat="42.99631333" lon="-1.10341">
        <ele>871.0</ele>
        <time>2019-07-31T14:16:50.099Z</time>
      </trkpt>
      <trkpt lat="42.99632833" lon="-1.10340833">
        <ele>870.0</ele>
        <time>2019-07-31T14:16:51.106Z</time>
      </trkpt>
      <trkpt lat="42.99634167" lon="-1.10339833">
        <ele>870.0</ele>
        <time>2019-07-31T14:16:52.111Z</time>
      </trkpt>
      <trkpt lat="42.996355" lon="-1.10338833">
        <ele>870.0</ele>
        <time>2019-07-31T14:16:53.116Z</time>
      </trkpt>
      <trkpt lat="42.99636833" lon="-1.10338333">
        <ele>869.0</ele>
        <time>2019-07-31T14:16:54.122Z</time>
      </trkpt>
      <trkpt lat="42.99638" lon="-1.10337167">
        <ele>869.0</ele>
        <time>2019-07-31T14:16:55.126Z</time>
      </trkpt>
      <trkpt lat="42.99639167" lon="-1.103355">
        <ele>868.0</ele>
        <time>2019-07-31T14:16:56.133Z</time>
      </trkpt>
      <trkpt lat="42.996405" lon="-1.10333667">
        <ele>868.0</ele>
        <time>2019-07-31T14:16:57.138Z</time>
      </trkpt>
      <trkpt lat="42.996415" lon="-1.103325">
        <ele>867.0</ele>
        <time>2019-07-31T14:16:58.145Z</time>
      </trkpt>
      <trkpt lat="42.99642833" lon="-1.10330833">
        <ele>867.0</ele>
        <time>2019-07-31T14:16:59.151Z</time>
      </trkpt>
      <trkpt lat="42.99644667" lon="-1.10329833">
        <ele>866.0</ele>
        <time>2019-07-31T14:17:00.157Z</time>
      </trkpt>
      <trkpt lat="42.99646167" lon="-1.10328333">
        <ele>866.0</ele>
        <time>2019-07-31T14:17:01.162Z</time>
      </trkpt>
      <trkpt lat="42.99648" lon="-1.10327333">
        <ele>866.0</ele>
        <time>2019-07-31T14:17:02.166Z</time>
      </trkpt>
      <trkpt lat="42.996495" lon="-1.10325833">
        <ele>866.0</ele>
        <time>2019-07-31T14:17:03.170Z</time>
      </trkpt>
      <trkpt lat="42.99651" lon="-1.10324167">
        <ele>866.0</ele>
        <time>2019-07-31T14:17:04.175Z</time>
      </trkpt>
      <trkpt lat="42.99652167" lon="-1.10322333">
        <ele>865.0</ele>
        <time>2019-07-31T14:17:05.179Z</time>
      </trkpt>
      <trkpt lat="42.996535" lon="-1.10321167">
        <ele>866.0</ele>
        <time>2019-07-31T14:17:06.184Z</time>
      </trkpt>
      <trkpt lat="42.99655167" lon="-1.1032">
        <ele>866.0</ele>
        <time>2019-07-31T14:17:07.062Z</time>
      </trkpt>
      <trkpt lat="42.99656667" lon="-1.10319167">
        <ele>866.0</ele>
        <time>2019-07-31T14:17:08.065Z</time>
      </trkpt>
      <trkpt lat="42.99658" lon="-1.103175">
        <ele>866.0</ele>
        <time>2019-07-31T14:17:09.070Z</time>
      </trkpt>
      <trkpt lat="42.99659" lon="-1.10315167">
        <ele>866.0</ele>
        <time>2019-07-31T14:17:10.076Z</time>
      </trkpt>
      <trkpt lat="42.99659667" lon="-1.103135">
        <ele>867.0</ele>
        <time>2019-07-31T14:17:11.078Z</time>
      </trkpt>
      <trkpt lat="42.99661167" lon="-1.103125">
        <ele>868.0</ele>
        <time>2019-07-31T14:17:12.083Z</time>
      </trkpt>
      <trkpt lat="42.99662333" lon="-1.103115">
        <ele>868.0</ele>
        <time>2019-07-31T14:17:13.089Z</time>
      </trkpt>
      <trkpt lat="42.99664" lon="-1.103105">
        <ele>869.0</ele>
        <time>2019-07-31T14:17:14.095Z</time>
      </trkpt>
      <trkpt lat="42.99665167" lon="-1.10309333">
        <ele>869.0</ele>
        <time>2019-07-31T14:17:15.100Z</time>
      </trkpt>
      <trkpt lat="42.99666333" lon="-1.10308167">
        <ele>869.0</ele>
        <time>2019-07-31T14:17:16.104Z</time>
      </trkpt>
      <trkpt lat="42.99667667" lon="-1.10307333">
        <ele>870.0</ele>
        <time>2019-07-31T14:17:17.107Z</time>
      </trkpt>
      <trkpt lat="42.99668833" lon="-1.10306333">
        <ele>870.0</ele>
        <time>2019-07-31T14:17:18.114Z</time>
      </trkpt>
      <trkpt lat="42.99670167" lon="-1.10305333">
        <ele>870.0</ele>
        <time>2019-07-31T14:17:19.117Z</time>
      </trkpt>
      <trkpt lat="42.996715" lon="-1.103045">
        <ele>869.0</ele>
        <time>2019-07-31T14:17:20.122Z</time>
      </trkpt>
      <trkpt lat="42.99672667" lon="-1.10303333">
        <ele>870.0</ele>
        <time>2019-07-31T14:17:21.127Z</time>
      </trkpt>
      <trkpt lat="42.99673833" lon="-1.10302667">
        <ele>870.0</ele>
        <time>2019-07-31T14:17:22.134Z</time>
      </trkpt>
      <trkpt lat="42.99675" lon="-1.10302">
        <ele>871.0</ele>
        <time>2019-07-31T14:17:23.140Z</time>
      </trkpt>
      <trkpt lat="42.996765" lon="-1.103015">
        <ele>872.0</ele>
        <time>2019-07-31T14:17:24.145Z</time>
      </trkpt>
      <trkpt lat="42.99677833" lon="-1.10301">
        <ele>872.0</ele>
        <time>2019-07-31T14:17:25.149Z</time>
      </trkpt>
      <trkpt lat="42.99679333" lon="-1.103005">
        <ele>872.0</ele>
        <time>2019-07-31T14:17:26.154Z</time>
      </trkpt>
      <trkpt lat="42.99680833" lon="-1.10300167">
        <ele>873.0</ele>
        <time>2019-07-31T14:17:27.160Z</time>
      </trkpt>
      <trkpt lat="42.99682167" lon="-1.10299333">
        <ele>873.0</ele>
        <time>2019-07-31T14:17:28.166Z</time>
      </trkpt>
      <trkpt lat="42.996835" lon="-1.10298833">
        <ele>873.0</ele>
        <time>2019-07-31T14:17:29.172Z</time>
      </trkpt>
      <trkpt lat="42.99684833" lon="-1.10298333">
        <ele>873.0</ele>
        <time>2019-07-31T14:17:30.177Z</time>
      </trkpt>
      <trkpt lat="42.99686333" lon="-1.10297833">
        <ele>872.0</ele>
        <time>2019-07-31T14:17:31.183Z</time>
      </trkpt>
      <trkpt lat="42.99687667" lon="-1.102975">
        <ele>872.0</ele>
        <time>2019-07-31T14:17:32.064Z</time>
      </trkpt>
      <trkpt lat="42.99688833" lon="-1.10296833">
        <ele>872.0</ele>
        <time>2019-07-31T14:17:33.069Z</time>
      </trkpt>
      <trkpt lat="42.99690333" lon="-1.10296167">
        <ele>872.0</ele>
        <time>2019-07-31T14:17:34.072Z</time>
      </trkpt>
      <trkpt lat="42.99691667" lon="-1.10295333">
        <ele>872.0</ele>
        <time>2019-07-31T14:17:35.076Z</time>
      </trkpt>
      <trkpt lat="42.99692667" lon="-1.10294333">
        <ele>873.0</ele>
        <time>2019-07-31T14:17:36.080Z</time>
      </trkpt>
      <trkpt lat="42.99694" lon="-1.10293667">
        <ele>872.0</ele>
        <time>2019-07-31T14:17:37.083Z</time>
      </trkpt>
      <trkpt lat="42.99695333" lon="-1.10293333">
        <ele>872.0</ele>
        <time>2019-07-31T14:17:38.089Z</time>
      </trkpt>
      <trkpt lat="42.99696833" lon="-1.10293">
        <ele>872.0</ele>
        <time>2019-07-31T14:17:39.094Z</time>
      </trkpt>
      <trkpt lat="42.996985" lon="-1.10292667">
        <ele>871.0</ele>
        <time>2019-07-31T14:17:40.099Z</time>
      </trkpt>
      <trkpt lat="42.997" lon="-1.10292333">
        <ele>872.0</ele>
        <time>2019-07-31T14:17:41.103Z</time>
      </trkpt>
      <trkpt lat="42.99701667" lon="-1.10292333">
        <ele>872.0</ele>
        <time>2019-07-31T14:17:42.109Z</time>
      </trkpt>
      <trkpt lat="42.99703" lon="-1.10292">
        <ele>872.0</ele>
        <time>2019-07-31T14:17:43.115Z</time>
      </trkpt>
      <trkpt lat="42.99704333" lon="-1.10291667">
        <ele>872.0</ele>
        <time>2019-07-31T14:17:44.122Z</time>
      </trkpt>
      <trkpt lat="42.99705667" lon="-1.102915">
        <ele>872.0</ele>
        <time>2019-07-31T14:17:45.128Z</time>
      </trkpt>
      <trkpt lat="42.99707167" lon="-1.10291333">
        <ele>872.0</ele>
        <time>2019-07-31T14:17:46.132Z</time>
      </trkpt>
      <trkpt lat="42.99708667" lon="-1.10291167">
        <ele>871.0</ele>
        <time>2019-07-31T14:17:47.137Z</time>
      </trkpt>
      <trkpt lat="42.9971" lon="-1.10290833">
        <ele>871.0</ele>
        <time>2019-07-31T14:17:48.142Z</time>
      </trkpt>
      <trkpt lat="42.997115" lon="-1.10290833">
        <ele>871.0</ele>
        <time>2019-07-31T14:17:49.145Z</time>
      </trkpt>
      <trkpt lat="42.99713167" lon="-1.10290833">
        <ele>870.0</ele>
        <time>2019-07-31T14:17:50.152Z</time>
      </trkpt>
      <trkpt lat="42.99714667" lon="-1.10291167">
        <ele>870.0</ele>
        <time>2019-07-31T14:17:51.157Z</time>
      </trkpt>
      <trkpt lat="42.99716167" lon="-1.10291">
        <ele>870.0</ele>
        <time>2019-07-31T14:17:52.162Z</time>
      </trkpt>
      <trkpt lat="42.99717833" lon="-1.10291167">
        <ele>870.0</ele>
        <time>2019-07-31T14:17:53.167Z</time>
      </trkpt>
      <trkpt lat="42.99719167" lon="-1.10291167">
        <ele>869.0</ele>
        <time>2019-07-31T14:17:54.172Z</time>
      </trkpt>
      <trkpt lat="42.99720333" lon="-1.10291">
        <ele>869.0</ele>
        <time>2019-07-31T14:17:55.177Z</time>
      </trkpt>
      <trkpt lat="42.99722" lon="-1.10290833">
        <ele>869.0</ele>
        <time>2019-07-31T14:17:56.181Z</time>
      </trkpt>
      <trkpt lat="42.997235" lon="-1.10290667">
        <ele>869.0</ele>
        <time>2019-07-31T14:17:57.062Z</time>
      </trkpt>
      <trkpt lat="42.99725167" lon="-1.10290667">
        <ele>869.0</ele>
        <time>2019-07-31T14:17:58.064Z</time>
      </trkpt>
      <trkpt lat="42.99726667" lon="-1.10290667">
        <ele>869.0</ele>
        <time>2019-07-31T14:17:59.068Z</time>
      </trkpt>
      <trkpt lat="42.99728333" lon="-1.10290667">
        <ele>870.0</ele>
        <time>2019-07-31T14:18:00.073Z</time>
      </trkpt>
      <trkpt lat="42.99729667" lon="-1.10290667">
        <ele>870.0</ele>
        <time>2019-07-31T14:18:01.077Z</time>
      </trkpt>
      <trkpt lat="42.99731167" lon="-1.10291">
        <ele>870.0</ele>
        <time>2019-07-31T14:18:02.081Z</time>
      </trkpt>
      <trkpt lat="42.99732833" lon="-1.102905">
        <ele>870.0</ele>
        <time>2019-07-31T14:18:03.088Z</time>
      </trkpt>
      <trkpt lat="42.99734167" lon="-1.102905">
        <ele>871.0</ele>
        <time>2019-07-31T14:18:04.094Z</time>
      </trkpt>
      <trkpt lat="42.99735667" lon="-1.10290833">
        <ele>870.0</ele>
        <time>2019-07-31T14:18:05.099Z</time>
      </trkpt>
      <trkpt lat="42.99736833" lon="-1.10290333">
        <ele>871.0</ele>
        <time>2019-07-31T14:18:06.105Z</time>
      </trkpt>
      <trkpt lat="42.997385" lon="-1.10290333">
        <ele>871.0</ele>
        <time>2019-07-31T14:18:07.110Z</time>
      </trkpt>
      <trkpt lat="42.9974" lon="-1.10290333">
        <ele>871.0</ele>
        <time>2019-07-31T14:18:08.116Z</time>
      </trkpt>
      <trkpt lat="42.997415" lon="-1.102905">
        <ele>871.0</ele>
        <time>2019-07-31T14:18:09.120Z</time>
      </trkpt>
      <trkpt lat="42.99743" lon="-1.10290667">
        <ele>871.0</ele>
        <time>2019-07-31T14:18:10.125Z</time>
      </trkpt>
      <trkpt lat="42.997445" lon="-1.10290667">
        <ele>871.0</ele>
        <time>2019-07-31T14:18:11.129Z</time>
      </trkpt>
      <trkpt lat="42.99746167" lon="-1.10290667">
        <ele>871.0</ele>
        <time>2019-07-31T14:18:12.134Z</time>
      </trkpt>
      <trkpt lat="42.997475" lon="-1.10290833">
        <ele>871.0</ele>
        <time>2019-07-31T14:18:13.139Z</time>
      </trkpt>
      <trkpt lat="42.99749" lon="-1.10291">
        <ele>870.0</ele>
        <time>2019-07-31T14:18:14.144Z</time>
      </trkpt>
      <trkpt lat="42.99750667" lon="-1.10291167">
        <ele>870.0</ele>
        <time>2019-07-31T14:18:15.150Z</time>
      </trkpt>
      <trkpt lat="42.99752167" lon="-1.10291167">
        <ele>870.0</ele>
        <time>2019-07-31T14:18:16.156Z</time>
      </trkpt>
      <trkpt lat="42.99753667" lon="-1.10290833">
        <ele>870.0</ele>
        <time>2019-07-31T14:18:17.162Z</time>
      </trkpt>
      <trkpt lat="42.99755" lon="-1.10291">
        <ele>870.0</ele>
        <time>2019-07-31T14:18:18.169Z</time>
      </trkpt>
      <trkpt lat="42.997565" lon="-1.10290833">
        <ele>870.0</ele>
        <time>2019-07-31T14:18:19.173Z</time>
      </trkpt>
      <trkpt lat="42.99758" lon="-1.10291">
        <ele>871.0</ele>
        <time>2019-07-31T14:18:20.178Z</time>
      </trkpt>
      <trkpt lat="42.997595" lon="-1.10291167">
        <ele>871.0</ele>
        <time>2019-07-31T14:18:21.184Z</time>
      </trkpt>
      <trkpt lat="42.99761" lon="-1.10291167">
        <ele>871.0</ele>
        <time>2019-07-31T14:18:22.062Z</time>
      </trkpt>
      <trkpt lat="42.99762333" lon="-1.10291333">
        <ele>871.0</ele>
        <time>2019-07-31T14:18:23.067Z</time>
      </trkpt>
      <trkpt lat="42.99763667" lon="-1.102915">
        <ele>871.0</ele>
        <time>2019-07-31T14:18:24.073Z</time>
      </trkpt>
      <trkpt lat="42.99765" lon="-1.10291667">
        <ele>872.0</ele>
        <time>2019-07-31T14:18:25.079Z</time>
      </trkpt>
      <trkpt lat="42.99766667" lon="-1.10292167">
        <ele>872.0</ele>
        <time>2019-07-31T14:18:26.085Z</time>
      </trkpt>
      <trkpt lat="42.99768167" lon="-1.102925">
        <ele>873.0</ele>
        <time>2019-07-31T14:18:27.090Z</time>
      </trkpt>
      <trkpt lat="42.997695" lon="-1.10292833">
        <ele>873.0</ele>
        <time>2019-07-31T14:18:28.094Z</time>
      </trkpt>
      <trkpt lat="42.99771167" lon="-1.10293">
        <ele>873.0</ele>
        <time>2019-07-31T14:18:29.097Z</time>
      </trkpt>
      <trkpt lat="42.99772333" lon="-1.10292833">
        <ele>873.0</ele>
        <time>2019-07-31T14:18:30.102Z</time>
      </trkpt>
      <trkpt lat="42.99773833" lon="-1.10293167">
        <ele>873.0</ele>
        <time>2019-07-31T14:18:31.107Z</time>
      </trkpt>
      <trkpt lat="42.997755" lon="-1.10293">
        <ele>873.0</ele>
        <time>2019-07-31T14:18:32.112Z</time>
      </trkpt>
      <trkpt lat="42.99777" lon="-1.10293333">
        <ele>873.0</ele>
        <time>2019-07-31T14:18:33.119Z</time>
      </trkpt>
      <trkpt lat="42.997785" lon="-1.10293667">
        <ele>873.0</ele>
        <time>2019-07-31T14:18:34.124Z</time>
      </trkpt>
      <trkpt lat="42.99779833" lon="-1.10293833">
        <ele>874.0</ele>
        <time>2019-07-31T14:18:35.130Z</time>
      </trkpt>
      <trkpt lat="42.99781333" lon="-1.10294">
        <ele>873.0</ele>
        <time>2019-07-31T14:18:36.135Z</time>
      </trkpt>
      <trkpt lat="42.99783" lon="-1.10294">
        <ele>874.0</ele>
        <time>2019-07-31T14:18:37.140Z</time>
      </trkpt>
      <trkpt lat="42.99784333" lon="-1.10294">
        <ele>874.0</ele>
        <time>2019-07-31T14:18:38.143Z</time>
      </trkpt>
      <trkpt lat="42.99785833" lon="-1.10293833">
        <ele>874.0</ele>
        <time>2019-07-31T14:18:39.147Z</time>
      </trkpt>
      <trkpt lat="42.99787333" lon="-1.10293167">
        <ele>874.0</ele>
        <time>2019-07-31T14:18:40.152Z</time>
      </trkpt>
      <trkpt lat="42.99788833" lon="-1.102925">
        <ele>874.0</ele>
        <time>2019-07-31T14:18:41.158Z</time>
      </trkpt>
      <trkpt lat="42.997905" lon="-1.10292">
        <ele>874.0</ele>
        <time>2019-07-31T14:18:42.163Z</time>
      </trkpt>
      <trkpt lat="42.99791833" lon="-1.10291167">
        <ele>874.0</ele>
        <time>2019-07-31T14:18:43.170Z</time>
      </trkpt>
      <trkpt lat="42.99793" lon="-1.10290167">
        <ele>873.0</ele>
        <time>2019-07-31T14:18:44.178Z</time>
      </trkpt>
      <trkpt lat="42.99794333" lon="-1.10288833">
        <ele>873.0</ele>
        <time>2019-07-31T14:18:45.185Z</time>
      </trkpt>
      <trkpt lat="42.99795667" lon="-1.10287833">
        <ele>872.0</ele>
        <time>2019-07-31T14:18:46.066Z</time>
      </trkpt>
      <trkpt lat="42.99796333" lon="-1.10286333">
        <ele>871.0</ele>
        <time>2019-07-31T14:18:47.071Z</time>
      </trkpt>
      <trkpt lat="42.99797" lon="-1.10284333">
        <ele>870.0</ele>
        <time>2019-07-31T14:18:48.076Z</time>
      </trkpt>
      <trkpt lat="42.99798" lon="-1.10282833">
        <ele>870.0</ele>
        <time>2019-07-31T14:18:49.079Z</time>
      </trkpt>
      <trkpt lat="42.99798833" lon="-1.102815">
        <ele>870.0</ele>
        <time>2019-07-31T14:18:50.083Z</time>
      </trkpt>
      <trkpt lat="42.997995" lon="-1.1028">
        <ele>870.0</ele>
        <time>2019-07-31T14:18:51.088Z</time>
      </trkpt>
      <trkpt lat="42.99800333" lon="-1.10278333">
        <ele>870.0</ele>
        <time>2019-07-31T14:18:52.093Z</time>
      </trkpt>
      <trkpt lat="42.99801" lon="-1.10276667">
        <ele>870.0</ele>
        <time>2019-07-31T14:18:53.095Z</time>
      </trkpt>
      <trkpt lat="42.998015" lon="-1.10275">
        <ele>870.0</ele>
        <time>2019-07-31T14:18:54.098Z</time>
      </trkpt>
      <trkpt lat="42.99802" lon="-1.10273167">
        <ele>870.0</ele>
        <time>2019-07-31T14:18:55.103Z</time>
      </trkpt>
      <trkpt lat="42.99802333" lon="-1.10271667">
        <ele>870.0</ele>
        <time>2019-07-31T14:18:56.108Z</time>
      </trkpt>
      <trkpt lat="42.99803167" lon="-1.10271167">
        <ele>869.0</ele>
        <time>2019-07-31T14:18:57.113Z</time>
      </trkpt>
      <trkpt lat="42.99803833" lon="-1.10270667">
        <ele>869.0</ele>
        <time>2019-07-31T14:18:58.119Z</time>
      </trkpt>
      <trkpt lat="42.99804667" lon="-1.102695">
        <ele>869.0</ele>
        <time>2019-07-31T14:18:59.125Z</time>
      </trkpt>
      <trkpt lat="42.99805167" lon="-1.10268333">
        <ele>869.0</ele>
        <time>2019-07-31T14:19:00.129Z</time>
      </trkpt>
      <trkpt lat="42.99805667" lon="-1.10267333">
        <ele>869.0</ele>
        <time>2019-07-31T14:19:01.133Z</time>
      </trkpt>
      <trkpt lat="42.99806167" lon="-1.10266667">
        <ele>868.0</ele>
        <time>2019-07-31T14:19:02.137Z</time>
      </trkpt>
      <trkpt lat="42.99806667" lon="-1.10266">
        <ele>869.0</ele>
        <time>2019-07-31T14:19:03.140Z</time>
      </trkpt>
      <trkpt lat="42.99806667" lon="-1.102655">
        <ele>870.0</ele>
        <time>2019-07-31T14:19:04.143Z</time>
      </trkpt>
      <trkpt lat="42.99807" lon="-1.10265">
        <ele>872.0</ele>
        <time>2019-07-31T14:19:05.150Z</time>
      </trkpt>
      <trkpt lat="42.99807333" lon="-1.10264333">
        <ele>872.0</ele>
        <time>2019-07-31T14:19:06.158Z</time>
      </trkpt>
      <trkpt lat="42.99807333" lon="-1.10263167">
        <ele>873.0</ele>
        <time>2019-07-31T14:19:07.162Z</time>
      </trkpt>
      <trkpt lat="42.998075" lon="-1.102625">
        <ele>874.0</ele>
        <time>2019-07-31T14:19:08.164Z</time>
      </trkpt>
      <trkpt lat="42.99808" lon="-1.10262167">
        <ele>874.0</ele>
        <time>2019-07-31T14:19:09.170Z</time>
      </trkpt>
      <trkpt lat="42.99808667" lon="-1.10262167">
        <ele>874.0</ele>
        <time>2019-07-31T14:19:10.175Z</time>
      </trkpt>
      <trkpt lat="42.99809333" lon="-1.10262">
        <ele>874.0</ele>
        <time>2019-07-31T14:19:11.180Z</time>
      </trkpt>
      <trkpt lat="42.99809833" lon="-1.10262167">
        <ele>873.0</ele>
        <time>2019-07-31T14:19:12.185Z</time>
      </trkpt>
      <trkpt lat="42.99810667" lon="-1.10262">
        <ele>874.0</ele>
        <time>2019-07-31T14:19:13.065Z</time>
      </trkpt>
      <trkpt lat="42.99811333" lon="-1.10261833">
        <ele>874.0</ele>
        <time>2019-07-31T14:19:14.070Z</time>
      </trkpt>
      <trkpt lat="42.99812" lon="-1.10261833">
        <ele>874.0</ele>
        <time>2019-07-31T14:19:15.075Z</time>
      </trkpt>
      <trkpt lat="42.99813333" lon="-1.10261333">
        <ele>874.0</ele>
        <time>2019-07-31T14:19:16.080Z</time>
      </trkpt>
      <trkpt lat="42.99814833" lon="-1.10260667">
        <ele>874.0</ele>
        <time>2019-07-31T14:19:17.087Z</time>
      </trkpt>
      <trkpt lat="42.99816167" lon="-1.1026">
        <ele>874.0</ele>
        <time>2019-07-31T14:19:18.093Z</time>
      </trkpt>
      <trkpt lat="42.99818" lon="-1.10259667">
        <ele>875.0</ele>
        <time>2019-07-31T14:19:19.099Z</time>
      </trkpt>
      <trkpt lat="42.99819333" lon="-1.102595">
        <ele>875.0</ele>
        <time>2019-07-31T14:19:20.104Z</time>
      </trkpt>
      <trkpt lat="42.9982" lon="-1.102585">
        <ele>876.0</ele>
        <time>2019-07-31T14:19:21.110Z</time>
      </trkpt>
      <trkpt lat="42.99821" lon="-1.10257667">
        <ele>875.0</ele>
        <time>2019-07-31T14:19:22.116Z</time>
      </trkpt>
      <trkpt lat="42.99822167" lon="-1.10256833">
        <ele>874.0</ele>
        <time>2019-07-31T14:19:23.119Z</time>
      </trkpt>
      <trkpt lat="42.99823333" lon="-1.10255833">
        <ele>875.0</ele>
        <time>2019-07-31T14:19:24.123Z</time>
      </trkpt>
      <trkpt lat="42.99824667" lon="-1.10255333">
        <ele>874.0</ele>
        <time>2019-07-31T14:19:25.127Z</time>
      </trkpt>
      <trkpt lat="42.99825833" lon="-1.10254667">
        <ele>875.0</ele>
        <time>2019-07-31T14:19:26.134Z</time>
      </trkpt>
      <trkpt lat="42.99826667" lon="-1.102535">
        <ele>875.0</ele>
        <time>2019-07-31T14:19:27.140Z</time>
      </trkpt>
      <trkpt lat="42.99827667" lon="-1.10252833">
        <ele>876.0</ele>
        <time>2019-07-31T14:19:28.146Z</time>
      </trkpt>
      <trkpt lat="42.99828167" lon="-1.10251833">
        <ele>876.0</ele>
        <time>2019-07-31T14:19:29.153Z</time>
      </trkpt>
      <trkpt lat="42.99828167" lon="-1.102505">
        <ele>877.0</ele>
        <time>2019-07-31T14:19:30.159Z</time>
      </trkpt>
      <trkpt lat="42.99828333" lon="-1.102495">
        <ele>878.0</ele>
        <time>2019-07-31T14:19:31.164Z</time>
      </trkpt>
      <trkpt lat="42.99828667" lon="-1.10248333">
        <ele>879.0</ele>
        <time>2019-07-31T14:19:32.168Z</time>
      </trkpt>
      <trkpt lat="42.99829167" lon="-1.10247333">
        <ele>880.0</ele>
        <time>2019-07-31T14:19:33.176Z</time>
      </trkpt>
      <trkpt lat="42.99829667" lon="-1.10246167">
        <ele>881.0</ele>
        <time>2019-07-31T14:19:34.182Z</time>
      </trkpt>
      <trkpt lat="42.99830167" lon="-1.10245167">
        <ele>882.0</ele>
        <time>2019-07-31T14:19:35.062Z</time>
      </trkpt>
      <trkpt lat="42.99830667" lon="-1.10243833">
        <ele>883.0</ele>
        <time>2019-07-31T14:19:36.067Z</time>
      </trkpt>
      <trkpt lat="42.99831167" lon="-1.10242833">
        <ele>884.0</ele>
        <time>2019-07-31T14:19:37.073Z</time>
      </trkpt>
      <trkpt lat="42.99831667" lon="-1.10242333">
        <ele>884.0</ele>
        <time>2019-07-31T14:19:38.076Z</time>
      </trkpt>
      <trkpt lat="42.99832167" lon="-1.10242333">
        <ele>885.0</ele>
        <time>2019-07-31T14:19:39.079Z</time>
      </trkpt>
      <trkpt lat="42.99832833" lon="-1.10242">
        <ele>885.0</ele>
        <time>2019-07-31T14:19:40.084Z</time>
      </trkpt>
      <trkpt lat="42.99833333" lon="-1.10241333">
        <ele>886.0</ele>
        <time>2019-07-31T14:19:41.089Z</time>
      </trkpt>
      <trkpt lat="42.99834167" lon="-1.10240833">
        <ele>886.0</ele>
        <time>2019-07-31T14:19:42.095Z</time>
      </trkpt>
      <trkpt lat="42.99834833" lon="-1.10240333">
        <ele>886.0</ele>
        <time>2019-07-31T14:19:43.100Z</time>
      </trkpt>
      <trkpt lat="42.998355" lon="-1.10240667">
        <ele>887.0</ele>
        <time>2019-07-31T14:19:44.104Z</time>
      </trkpt>
      <trkpt lat="42.998365" lon="-1.10240833">
        <ele>887.0</ele>
        <time>2019-07-31T14:19:45.109Z</time>
      </trkpt>
      <trkpt lat="42.99837167" lon="-1.102405">
        <ele>888.0</ele>
        <time>2019-07-31T14:19:46.116Z</time>
      </trkpt>
      <trkpt lat="42.99838" lon="-1.10240667">
        <ele>889.0</ele>
        <time>2019-07-31T14:19:47.122Z</time>
      </trkpt>
      <trkpt lat="42.99839" lon="-1.10240333">
        <ele>890.0</ele>
        <time>2019-07-31T14:19:48.129Z</time>
      </trkpt>
      <trkpt lat="42.99839833" lon="-1.10239333">
        <ele>890.0</ele>
        <time>2019-07-31T14:19:49.135Z</time>
      </trkpt>
      <trkpt lat="42.99840833" lon="-1.10238333">
        <ele>891.0</ele>
        <time>2019-07-31T14:19:50.139Z</time>
      </trkpt>
      <trkpt lat="42.99841833" lon="-1.10237667">
        <ele>892.0</ele>
        <time>2019-07-31T14:19:51.145Z</time>
      </trkpt>
      <trkpt lat="42.99842667" lon="-1.10237">
        <ele>892.0</ele>
        <time>2019-07-31T14:19:52.150Z</time>
      </trkpt>
      <trkpt lat="42.99843833" lon="-1.10236333">
        <ele>892.0</ele>
        <time>2019-07-31T14:19:53.154Z</time>
      </trkpt>
      <trkpt lat="42.99844167" lon="-1.10234833">
        <ele>893.0</ele>
        <time>2019-07-31T14:19:54.157Z</time>
      </trkpt>
      <trkpt lat="42.99844333" lon="-1.102335">
        <ele>894.0</ele>
        <time>2019-07-31T14:19:55.161Z</time>
      </trkpt>
      <trkpt lat="42.99844667" lon="-1.102325">
        <ele>895.0</ele>
        <time>2019-07-31T14:19:56.164Z</time>
      </trkpt>
      <trkpt lat="42.99844833" lon="-1.10232">
        <ele>895.0</ele>
        <time>2019-07-31T14:19:57.169Z</time>
      </trkpt>
      <trkpt lat="42.99846167" lon="-1.10232167">
        <ele>895.0</ele>
        <time>2019-07-31T14:19:58.175Z</time>
      </trkpt>
      <trkpt lat="42.99847333" lon="-1.102325">
        <ele>896.0</ele>
        <time>2019-07-31T14:19:59.182Z</time>
      </trkpt>
      <trkpt lat="42.99847667" lon="-1.10231333">
        <ele>896.0</ele>
        <time>2019-07-31T14:20:00.062Z</time>
      </trkpt>
      <trkpt lat="42.99847833" lon="-1.10229333">
        <ele>897.0</ele>
        <time>2019-07-31T14:20:01.065Z</time>
      </trkpt>
      <trkpt lat="42.99849167" lon="-1.10229167">
        <ele>895.0</ele>
        <time>2019-07-31T14:20:02.070Z</time>
      </trkpt>
      <trkpt lat="42.998495" lon="-1.10229333">
        <ele>895.0</ele>
        <time>2019-07-31T14:20:03.075Z</time>
      </trkpt>
      <trkpt lat="42.99849333" lon="-1.10228833">
        <ele>894.0</ele>
        <time>2019-07-31T14:20:04.081Z</time>
      </trkpt>
      <trkpt lat="42.99849667" lon="-1.102285">
        <ele>894.0</ele>
        <time>2019-07-31T14:20:05.087Z</time>
      </trkpt>
      <trkpt lat="42.99850167" lon="-1.10227833">
        <ele>893.0</ele>
        <time>2019-07-31T14:20:06.094Z</time>
      </trkpt>
      <trkpt lat="42.998505" lon="-1.10228">
        <ele>893.0</ele>
        <time>2019-07-31T14:20:07.100Z</time>
      </trkpt>
      <trkpt lat="42.99850833" lon="-1.10228">
        <ele>892.0</ele>
        <time>2019-07-31T14:20:08.105Z</time>
      </trkpt>
      <trkpt lat="42.99851167" lon="-1.10227833">
        <ele>892.0</ele>
        <time>2019-07-31T14:20:09.111Z</time>
      </trkpt>
      <trkpt lat="42.99851667" lon="-1.10228">
        <ele>892.0</ele>
        <time>2019-07-31T14:20:10.118Z</time>
      </trkpt>
      <trkpt lat="42.99852" lon="-1.10227833">
        <ele>892.0</ele>
        <time>2019-07-31T14:20:11.124Z</time>
      </trkpt>
      <trkpt lat="42.99852167" lon="-1.10228">
        <ele>892.0</ele>
        <time>2019-07-31T14:20:12.130Z</time>
      </trkpt>
      <trkpt lat="42.998525" lon="-1.10227833">
        <ele>892.0</ele>
        <time>2019-07-31T14:20:13.132Z</time>
      </trkpt>
      <trkpt lat="42.99853" lon="-1.10227667">
        <ele>892.0</ele>
        <time>2019-07-31T14:20:14.135Z</time>
      </trkpt>
      <trkpt lat="42.998535" lon="-1.10228">
        <ele>892.0</ele>
        <time>2019-07-31T14:20:15.140Z</time>
      </trkpt>
      <trkpt lat="42.99853833" lon="-1.10228167">
        <ele>891.0</ele>
        <time>2019-07-31T14:20:16.146Z</time>
      </trkpt>
      <trkpt lat="42.99854667" lon="-1.10228667">
        <ele>891.0</ele>
        <time>2019-07-31T14:20:17.152Z</time>
      </trkpt>
      <trkpt lat="42.99855333" lon="-1.10229167">
        <ele>891.0</ele>
        <time>2019-07-31T14:20:18.158Z</time>
      </trkpt>
      <trkpt lat="42.99856167" lon="-1.10229333">
        <ele>891.0</ele>
        <time>2019-07-31T14:20:19.165Z</time>
      </trkpt>
      <trkpt lat="42.99857333" lon="-1.10229333">
        <ele>892.0</ele>
        <time>2019-07-31T14:20:20.172Z</time>
      </trkpt>
      <trkpt lat="42.99858667" lon="-1.102295">
        <ele>892.0</ele>
        <time>2019-07-31T14:20:21.178Z</time>
      </trkpt>
      <trkpt lat="42.998595" lon="-1.10229667">
        <ele>892.0</ele>
        <time>2019-07-31T14:20:22.181Z</time>
      </trkpt>
      <trkpt lat="42.99860667" lon="-1.10229667">
        <ele>891.0</ele>
        <time>2019-07-31T14:20:23.061Z</time>
      </trkpt>
      <trkpt lat="42.99861833" lon="-1.10230333">
        <ele>890.0</ele>
        <time>2019-07-31T14:20:24.068Z</time>
      </trkpt>
      <trkpt lat="42.99863" lon="-1.10231">
        <ele>889.0</ele>
        <time>2019-07-31T14:20:25.073Z</time>
      </trkpt>
      <trkpt lat="42.99864" lon="-1.102315">
        <ele>889.0</ele>
        <time>2019-07-31T14:20:26.078Z</time>
      </trkpt>
      <trkpt lat="42.998655" lon="-1.10232">
        <ele>889.0</ele>
        <time>2019-07-31T14:20:27.082Z</time>
      </trkpt>
      <trkpt lat="42.998665" lon="-1.10232333">
        <ele>889.0</ele>
        <time>2019-07-31T14:20:28.089Z</time>
      </trkpt>
      <trkpt lat="42.99868167" lon="-1.10233167">
        <ele>889.0</ele>
        <time>2019-07-31T14:20:29.094Z</time>
      </trkpt>
      <trkpt lat="42.99869" lon="-1.10233833">
        <ele>888.0</ele>
        <time>2019-07-31T14:20:30.100Z</time>
      </trkpt>
      <trkpt lat="42.99869167" lon="-1.10232833">
        <ele>888.0</ele>
        <time>2019-07-31T14:20:31.104Z</time>
      </trkpt>
      <trkpt lat="42.99869167" lon="-1.10232167">
        <ele>887.0</ele>
        <time>2019-07-31T14:20:32.108Z</time>
      </trkpt>
      <trkpt lat="42.998695" lon="-1.10231833">
        <ele>887.0</ele>
        <time>2019-07-31T14:20:33.113Z</time>
      </trkpt>
      <trkpt lat="42.99870333" lon="-1.10233">
        <ele>886.0</ele>
        <time>2019-07-31T14:20:34.120Z</time>
      </trkpt>
      <trkpt lat="42.99871667" lon="-1.10233667">
        <ele>886.0</ele>
        <time>2019-07-31T14:20:35.124Z</time>
      </trkpt>
      <trkpt lat="42.99872333" lon="-1.10233833">
        <ele>885.0</ele>
        <time>2019-07-31T14:20:36.129Z</time>
      </trkpt>
      <trkpt lat="42.99873333" lon="-1.10232667">
        <ele>885.0</ele>
        <time>2019-07-31T14:20:37.135Z</time>
      </trkpt>
      <trkpt lat="42.99873333" lon="-1.10232">
        <ele>886.0</ele>
        <time>2019-07-31T14:20:38.142Z</time>
      </trkpt>
      <trkpt lat="42.99873667" lon="-1.10231333">
        <ele>886.0</ele>
        <time>2019-07-31T14:20:39.147Z</time>
      </trkpt>
      <trkpt lat="42.99873833" lon="-1.10231167">
        <ele>886.0</ele>
        <time>2019-07-31T14:20:40.153Z</time>
      </trkpt>
      <trkpt lat="42.99874333" lon="-1.10231">
        <ele>886.0</ele>
        <time>2019-07-31T14:20:41.159Z</time>
      </trkpt>
      <trkpt lat="42.99875" lon="-1.10231167">
        <ele>886.0</ele>
        <time>2019-07-31T14:20:42.164Z</time>
      </trkpt>
      <trkpt lat="42.998755" lon="-1.10231333">
        <ele>885.0</ele>
        <time>2019-07-31T14:20:43.167Z</time>
      </trkpt>
      <trkpt lat="42.99876" lon="-1.10231667">
        <ele>885.0</ele>
        <time>2019-07-31T14:20:44.171Z</time>
      </trkpt>
      <trkpt lat="42.99876833" lon="-1.10232">
        <ele>885.0</ele>
        <time>2019-07-31T14:20:45.175Z</time>
      </trkpt>
      <trkpt lat="42.998775" lon="-1.10231833">
        <ele>885.0</ele>
        <time>2019-07-31T14:20:46.178Z</time>
      </trkpt>
      <trkpt lat="42.99878333" lon="-1.10231833">
        <ele>885.0</ele>
        <time>2019-07-31T14:20:47.182Z</time>
      </trkpt>
      <trkpt lat="42.99879" lon="-1.10231667">
        <ele>885.0</ele>
        <time>2019-07-31T14:20:48.063Z</time>
      </trkpt>
      <trkpt lat="42.99879833" lon="-1.10231333">
        <ele>885.0</ele>
        <time>2019-07-31T14:20:49.069Z</time>
      </trkpt>
      <trkpt lat="42.998805" lon="-1.10231">
        <ele>884.0</ele>
        <time>2019-07-31T14:20:50.075Z</time>
      </trkpt>
      <trkpt lat="42.99881" lon="-1.10230667">
        <ele>884.0</ele>
        <time>2019-07-31T14:20:51.080Z</time>
      </trkpt>
      <trkpt lat="42.99881667" lon="-1.10229833">
        <ele>884.0</ele>
        <time>2019-07-31T14:20:52.085Z</time>
      </trkpt>
      <trkpt lat="42.99882333" lon="-1.10229667">
        <ele>884.0</ele>
        <time>2019-07-31T14:20:53.089Z</time>
      </trkpt>
      <trkpt lat="42.998825" lon="-1.10229333">
        <ele>884.0</ele>
        <time>2019-07-31T14:20:54.092Z</time>
      </trkpt>
      <trkpt lat="42.99882333" lon="-1.10229333">
        <ele>884.0</ele>
        <time>2019-07-31T14:20:55.098Z</time>
      </trkpt>
      <trkpt lat="42.99882667" lon="-1.10229333">
        <ele>884.0</ele>
        <time>2019-07-31T14:20:56.103Z</time>
      </trkpt>
      <trkpt lat="42.99883333" lon="-1.102295">
        <ele>884.0</ele>
        <time>2019-07-31T14:20:57.107Z</time>
      </trkpt>
      <trkpt lat="42.99883833" lon="-1.10228667">
        <ele>884.0</ele>
        <time>2019-07-31T14:20:58.113Z</time>
      </trkpt>
      <trkpt lat="42.99884667" lon="-1.10228333">
        <ele>883.0</ele>
        <time>2019-07-31T14:20:59.120Z</time>
      </trkpt>
      <trkpt lat="42.99885833" lon="-1.10229">
        <ele>882.0</ele>
        <time>2019-07-31T14:21:00.126Z</time>
      </trkpt>
      <trkpt lat="42.99886667" lon="-1.10229333">
        <ele>882.0</ele>
        <time>2019-07-31T14:21:01.133Z</time>
      </trkpt>
      <trkpt lat="42.99886667" lon="-1.10229">
        <ele>883.0</ele>
        <time>2019-07-31T14:21:02.138Z</time>
      </trkpt>
      <trkpt lat="42.99887333" lon="-1.10228667">
        <ele>883.0</ele>
        <time>2019-07-31T14:21:03.144Z</time>
      </trkpt>
      <trkpt lat="42.99887833" lon="-1.10228333">
        <ele>883.0</ele>
        <time>2019-07-31T14:21:04.151Z</time>
      </trkpt>
      <trkpt lat="42.99888167" lon="-1.10227667">
        <ele>882.0</ele>
        <time>2019-07-31T14:21:05.159Z</time>
      </trkpt>
      <trkpt lat="42.99888833" lon="-1.10227">
        <ele>882.0</ele>
        <time>2019-07-31T14:21:06.162Z</time>
      </trkpt>
      <trkpt lat="42.99889667" lon="-1.10225833">
        <ele>881.0</ele>
        <time>2019-07-31T14:21:07.168Z</time>
      </trkpt>
      <trkpt lat="42.99890167" lon="-1.10225167">
        <ele>881.0</ele>
        <time>2019-07-31T14:21:08.173Z</time>
      </trkpt>
      <trkpt lat="42.998915" lon="-1.102255">
        <ele>881.0</ele>
        <time>2019-07-31T14:21:09.177Z</time>
      </trkpt>
      <trkpt lat="42.99892667" lon="-1.10225167">
        <ele>880.0</ele>
        <time>2019-07-31T14:21:10.182Z</time>
      </trkpt>
      <trkpt lat="42.99893667" lon="-1.10224333">
        <ele>880.0</ele>
        <time>2019-07-31T14:21:11.062Z</time>
      </trkpt>
      <trkpt lat="42.99894333" lon="-1.10224167">
        <ele>880.0</ele>
        <time>2019-07-31T14:21:12.069Z</time>
      </trkpt>
      <trkpt lat="42.998945" lon="-1.10224333">
        <ele>880.0</ele>
        <time>2019-07-31T14:21:13.076Z</time>
      </trkpt>
      <trkpt lat="42.99893833" lon="-1.10224667">
        <ele>879.0</ele>
        <time>2019-07-31T14:21:14.080Z</time>
      </trkpt>
      <trkpt lat="42.998935" lon="-1.10224667">
        <ele>878.0</ele>
        <time>2019-07-31T14:21:15.084Z</time>
      </trkpt>
      <trkpt lat="42.99893667" lon="-1.102255">
        <ele>877.0</ele>
        <time>2019-07-31T14:21:16.087Z</time>
      </trkpt>
      <trkpt lat="42.998945" lon="-1.10224333">
        <ele>877.0</ele>
        <time>2019-07-31T14:21:17.091Z</time>
      </trkpt>
      <trkpt lat="42.99895167" lon="-1.10223167">
        <ele>877.0</ele>
        <time>2019-07-31T14:21:18.097Z</time>
      </trkpt>
      <trkpt lat="42.998955" lon="-1.10222833">
        <ele>877.0</ele>
        <time>2019-07-31T14:21:19.104Z</time>
      </trkpt>
      <trkpt lat="42.99895833" lon="-1.10222833">
        <ele>877.0</ele>
        <time>2019-07-31T14:21:20.110Z</time>
      </trkpt>
      <trkpt lat="42.99896167" lon="-1.10222333">
        <ele>877.0</ele>
        <time>2019-07-31T14:21:21.116Z</time>
      </trkpt>
      <trkpt lat="42.998965" lon="-1.10221833">
        <ele>876.0</ele>
        <time>2019-07-31T14:21:22.123Z</time>
      </trkpt>
      <trkpt lat="42.99896833" lon="-1.10221333">
        <ele>876.0</ele>
        <time>2019-07-31T14:21:23.131Z</time>
      </trkpt>
      <trkpt lat="42.99897167" lon="-1.10221167">
        <ele>875.0</ele>
        <time>2019-07-31T14:21:24.137Z</time>
      </trkpt>
      <trkpt lat="42.99897333" lon="-1.10220667">
        <ele>875.0</ele>
        <time>2019-07-31T14:21:25.143Z</time>
      </trkpt>
      <trkpt lat="42.99897667" lon="-1.10220333">
        <ele>874.0</ele>
        <time>2019-07-31T14:21:26.148Z</time>
      </trkpt>
      <trkpt lat="42.99898167" lon="-1.1022">
        <ele>874.0</ele>
        <time>2019-07-31T14:21:27.154Z</time>
      </trkpt>
      <trkpt lat="42.99898833" lon="-1.1022">
        <ele>874.0</ele>
        <time>2019-07-31T14:21:28.159Z</time>
      </trkpt>
      <trkpt lat="42.99899333" lon="-1.10219667">
        <ele>874.0</ele>
        <time>2019-07-31T14:21:29.164Z</time>
      </trkpt>
      <trkpt lat="42.998995" lon="-1.102195">
        <ele>873.0</ele>
        <time>2019-07-31T14:21:30.171Z</time>
      </trkpt>
      <trkpt lat="42.99899167" lon="-1.102195">
        <ele>872.0</ele>
        <time>2019-07-31T14:21:31.176Z</time>
      </trkpt>
      <trkpt lat="42.998995" lon="-1.10219333">
        <ele>871.0</ele>
        <time>2019-07-31T14:21:32.182Z</time>
      </trkpt>
      <trkpt lat="42.99899667" lon="-1.10218833">
        <ele>871.0</ele>
        <time>2019-07-31T14:21:33.063Z</time>
      </trkpt>
      <trkpt lat="42.99899333" lon="-1.10217667">
        <ele>871.0</ele>
        <time>2019-07-31T14:21:34.070Z</time>
      </trkpt>
      <trkpt lat="42.99899" lon="-1.102165">
        <ele>872.0</ele>
        <time>2019-07-31T14:21:35.074Z</time>
      </trkpt>
      <trkpt lat="42.99898833" lon="-1.10216">
        <ele>872.0</ele>
        <time>2019-07-31T14:21:36.079Z</time>
      </trkpt>
      <trkpt lat="42.99898667" lon="-1.102155">
        <ele>872.0</ele>
        <time>2019-07-31T14:21:37.083Z</time>
      </trkpt>
      <trkpt lat="42.998985" lon="-1.10215167">
        <ele>872.0</ele>
        <time>2019-07-31T14:21:38.089Z</time>
      </trkpt>
      <trkpt lat="42.99898667" lon="-1.10215167">
        <ele>872.0</ele>
        <time>2019-07-31T14:21:39.094Z</time>
      </trkpt>
      <trkpt lat="42.99898667" lon="-1.102135">
        <ele>873.0</ele>
        <time>2019-07-31T14:21:40.099Z</time>
      </trkpt>
      <trkpt lat="42.99898833" lon="-1.10212667">
        <ele>873.0</ele>
        <time>2019-07-31T14:21:41.104Z</time>
      </trkpt>
      <trkpt lat="42.99899333" lon="-1.10212333">
        <ele>873.0</ele>
        <time>2019-07-31T14:21:42.109Z</time>
      </trkpt>
      <trkpt lat="42.99899333" lon="-1.10212167">
        <ele>873.0</ele>
        <time>2019-07-31T14:21:43.114Z</time>
      </trkpt>
      <trkpt lat="42.99898333" lon="-1.10211167">
        <ele>873.0</ele>
        <time>2019-07-31T14:21:44.120Z</time>
      </trkpt>
      <trkpt lat="42.99897833" lon="-1.10210667">
        <ele>873.0</ele>
        <time>2019-07-31T14:21:45.125Z</time>
      </trkpt>
      <trkpt lat="42.998975" lon="-1.102105">
        <ele>873.0</ele>
        <time>2019-07-31T14:21:46.130Z</time>
      </trkpt>
      <trkpt lat="42.99897333" lon="-1.10210167">
        <ele>872.0</ele>
        <time>2019-07-31T14:21:47.136Z</time>
      </trkpt>
      <trkpt lat="42.99897" lon="-1.10208833">
        <ele>872.0</ele>
        <time>2019-07-31T14:21:48.141Z</time>
      </trkpt>
      <trkpt lat="42.99897" lon="-1.10207333">
        <ele>871.0</ele>
        <time>2019-07-31T14:21:49.148Z</time>
      </trkpt>
      <trkpt lat="42.99898" lon="-1.10206667">
        <ele>871.0</ele>
        <time>2019-07-31T14:21:50.155Z</time>
      </trkpt>
      <trkpt lat="42.99898833" lon="-1.10205833">
        <ele>871.0</ele>
        <time>2019-07-31T14:21:51.161Z</time>
      </trkpt>
      <trkpt lat="42.99899167" lon="-1.10205333">
        <ele>870.0</ele>
        <time>2019-07-31T14:21:52.165Z</time>
      </trkpt>
      <trkpt lat="42.99899167" lon="-1.10204667">
        <ele>871.0</ele>
        <time>2019-07-31T14:21:53.171Z</time>
      </trkpt>
      <trkpt lat="42.998985" lon="-1.10202833">
        <ele>871.0</ele>
        <time>2019-07-31T14:21:54.176Z</time>
      </trkpt>
      <trkpt lat="42.99898167" lon="-1.10201667">
        <ele>870.0</ele>
        <time>2019-07-31T14:21:55.182Z</time>
      </trkpt>
      <trkpt lat="42.99898167" lon="-1.102015">
        <ele>869.0</ele>
        <time>2019-07-31T14:21:56.062Z</time>
      </trkpt>
      <trkpt lat="42.99897667" lon="-1.102015">
        <ele>870.0</ele>
        <time>2019-07-31T14:21:57.068Z</time>
      </trkpt>
      <trkpt lat="42.99896833" lon="-1.102035">
        <ele>869.0</ele>
        <time>2019-07-31T14:21:58.074Z</time>
      </trkpt>
      <trkpt lat="42.99896667" lon="-1.10206">
        <ele>869.0</ele>
        <time>2019-07-31T14:21:59.080Z</time>
      </trkpt>
      <trkpt lat="42.99896833" lon="-1.10209">
        <ele>869.0</ele>
        <time>2019-07-31T14:22:00.082Z</time>
      </trkpt>
      <trkpt lat="42.99896833" lon="-1.102095">
        <ele>869.0</ele>
        <time>2019-07-31T14:22:01.088Z</time>
      </trkpt>
      <trkpt lat="42.99896833" lon="-1.10210167">
        <ele>869.0</ele>
        <time>2019-07-31T14:22:02.095Z</time>
      </trkpt>
      <trkpt lat="42.99896667" lon="-1.102105">
        <ele>869.0</ele>
        <time>2019-07-31T14:22:03.099Z</time>
      </trkpt>
      <trkpt lat="42.99896833" lon="-1.10211167">
        <ele>869.0</ele>
        <time>2019-07-31T14:22:04.103Z</time>
      </trkpt>
      <trkpt lat="42.99897" lon="-1.102115">
        <ele>869.0</ele>
        <time>2019-07-31T14:22:05.108Z</time>
      </trkpt>
      <trkpt lat="42.99897" lon="-1.102115">
        <ele>870.0</ele>
        <time>2019-07-31T14:22:06.113Z</time>
      </trkpt>
      <trkpt lat="42.99897167" lon="-1.10211667">
        <ele>869.0</ele>
        <time>2019-07-31T14:22:07.119Z</time>
      </trkpt>
      <trkpt lat="42.99897" lon="-1.10211833">
        <ele>869.0</ele>
        <time>2019-07-31T14:22:08.124Z</time>
      </trkpt>
      <trkpt lat="42.99897" lon="-1.10212167">
        <ele>870.0</ele>
        <time>2019-07-31T14:22:09.130Z</time>
      </trkpt>
      <trkpt lat="42.99897167" lon="-1.102125">
        <ele>871.0</ele>
        <time>2019-07-31T14:22:10.136Z</time>
      </trkpt>
      <trkpt lat="42.99897333" lon="-1.10213167">
        <ele>872.0</ele>
        <time>2019-07-31T14:22:11.142Z</time>
      </trkpt>
      <trkpt lat="42.99897167" lon="-1.10213833">
        <ele>872.0</ele>
        <time>2019-07-31T14:22:12.148Z</time>
      </trkpt>
      <trkpt lat="42.99897" lon="-1.10214667">
        <ele>873.0</ele>
        <time>2019-07-31T14:22:13.153Z</time>
      </trkpt>
      <trkpt lat="42.99897" lon="-1.10215167">
        <ele>874.0</ele>
        <time>2019-07-31T14:22:14.159Z</time>
      </trkpt>
      <trkpt lat="42.99897167" lon="-1.10215833">
        <ele>875.0</ele>
        <time>2019-07-31T14:22:15.162Z</time>
      </trkpt>
      <trkpt lat="42.99897333" lon="-1.10216333">
        <ele>876.0</ele>
        <time>2019-07-31T14:22:16.168Z</time>
      </trkpt>
      <trkpt lat="42.998975" lon="-1.10217">
        <ele>876.0</ele>
        <time>2019-07-31T14:22:17.171Z</time>
      </trkpt>
      <trkpt lat="42.99898" lon="-1.10217">
        <ele>876.0</ele>
        <time>2019-07-31T14:22:18.175Z</time>
      </trkpt>
      <trkpt lat="42.99898167" lon="-1.10216333">
        <ele>877.0</ele>
        <time>2019-07-31T14:22:19.180Z</time>
      </trkpt>
      <trkpt lat="42.99898333" lon="-1.102155">
        <ele>877.0</ele>
        <time>2019-07-31T14:22:20.184Z</time>
      </trkpt>
      <trkpt lat="42.998985" lon="-1.10215">
        <ele>877.0</ele>
        <time>2019-07-31T14:22:21.061Z</time>
      </trkpt>
      <trkpt lat="42.99899333" lon="-1.10214">
        <ele>877.0</ele>
        <time>2019-07-31T14:22:22.067Z</time>
      </trkpt>
      <trkpt lat="42.999" lon="-1.10213">
        <ele>877.0</ele>
        <time>2019-07-31T14:22:23.073Z</time>
      </trkpt>
      <trkpt lat="42.99900167" lon="-1.10212833">
        <ele>877.0</ele>
        <time>2019-07-31T14:22:24.079Z</time>
      </trkpt>
      <trkpt lat="42.99900167" lon="-1.10212333">
        <ele>877.0</ele>
        <time>2019-07-31T14:22:25.085Z</time>
      </trkpt>
      <trkpt lat="42.99900333" lon="-1.10211833">
        <ele>876.0</ele>
        <time>2019-07-31T14:22:26.092Z</time>
      </trkpt>
      <trkpt lat="42.999005" lon="-1.10211667">
        <ele>876.0</ele>
        <time>2019-07-31T14:22:27.098Z</time>
      </trkpt>
      <trkpt lat="42.99900667" lon="-1.10211833">
        <ele>876.0</ele>
        <time>2019-07-31T14:22:28.103Z</time>
      </trkpt>
      <trkpt lat="42.99901" lon="-1.10211833">
        <ele>876.0</ele>
        <time>2019-07-31T14:22:29.109Z</time>
      </trkpt>
      <trkpt lat="42.99901333" lon="-1.10211667">
        <ele>876.0</ele>
        <time>2019-07-31T14:22:30.114Z</time>
      </trkpt>
      <trkpt lat="42.99901833" lon="-1.10211667">
        <ele>876.0</ele>
        <time>2019-07-31T14:22:31.120Z</time>
      </trkpt>
      <trkpt lat="42.99902167" lon="-1.10212">
        <ele>876.0</ele>
        <time>2019-07-31T14:22:32.123Z</time>
      </trkpt>
      <trkpt lat="42.999025" lon="-1.10212667">
        <ele>876.0</ele>
        <time>2019-07-31T14:22:33.130Z</time>
      </trkpt>
      <trkpt lat="42.99903" lon="-1.102135">
        <ele>875.0</ele>
        <time>2019-07-31T14:22:34.133Z</time>
      </trkpt>
      <trkpt lat="42.99903" lon="-1.102135">
        <ele>876.0</ele>
        <time>2019-07-31T14:22:35.141Z</time>
      </trkpt>
      <trkpt lat="42.99903167" lon="-1.10213333">
        <ele>876.0</ele>
        <time>2019-07-31T14:22:36.147Z</time>
      </trkpt>
      <trkpt lat="42.99903333" lon="-1.10212333">
        <ele>876.0</ele>
        <time>2019-07-31T14:22:37.154Z</time>
      </trkpt>
      <trkpt lat="42.99903833" lon="-1.102125">
        <ele>876.0</ele>
        <time>2019-07-31T14:22:38.158Z</time>
      </trkpt>
      <trkpt lat="42.99904667" lon="-1.102125">
        <ele>876.0</ele>
        <time>2019-07-31T14:22:39.163Z</time>
      </trkpt>
      <trkpt lat="42.99905167" lon="-1.10212667">
        <ele>875.0</ele>
        <time>2019-07-31T14:22:40.167Z</time>
      </trkpt>
      <trkpt lat="42.99905667" lon="-1.10213167">
        <ele>875.0</ele>
        <time>2019-07-31T14:22:41.173Z</time>
      </trkpt>
      <trkpt lat="42.99906333" lon="-1.10213667">
        <ele>874.0</ele>
        <time>2019-07-31T14:22:42.177Z</time>
      </trkpt>
      <trkpt lat="42.99906667" lon="-1.10214167">
        <ele>874.0</ele>
        <time>2019-07-31T14:22:43.182Z</time>
      </trkpt>
      <trkpt lat="42.99907167" lon="-1.10214667">
        <ele>874.0</ele>
        <time>2019-07-31T14:22:44.062Z</time>
      </trkpt>
      <trkpt lat="42.99908167" lon="-1.10215">
        <ele>874.0</ele>
        <time>2019-07-31T14:22:45.069Z</time>
      </trkpt>
      <trkpt lat="42.99909333" lon="-1.10215333">
        <ele>873.0</ele>
        <time>2019-07-31T14:22:46.076Z</time>
      </trkpt>
      <trkpt lat="42.9991" lon="-1.102155">
        <ele>874.0</ele>
        <time>2019-07-31T14:22:47.081Z</time>
      </trkpt>
      <trkpt lat="42.99910667" lon="-1.10215667">
        <ele>874.0</ele>
        <time>2019-07-31T14:22:48.086Z</time>
      </trkpt>
      <trkpt lat="42.99911333" lon="-1.10215667">
        <ele>873.0</ele>
        <time>2019-07-31T14:22:49.092Z</time>
      </trkpt>
      <trkpt lat="42.99911667" lon="-1.10214833">
        <ele>874.0</ele>
        <time>2019-07-31T14:22:50.098Z</time>
      </trkpt>
      <trkpt lat="42.99912167" lon="-1.10214333">
        <ele>874.0</ele>
        <time>2019-07-31T14:22:51.101Z</time>
      </trkpt>
      <trkpt lat="42.99912833" lon="-1.10213333">
        <ele>874.0</ele>
        <time>2019-07-31T14:22:52.106Z</time>
      </trkpt>
      <trkpt lat="42.999135" lon="-1.10213167">
        <ele>873.0</ele>
        <time>2019-07-31T14:22:53.110Z</time>
      </trkpt>
      <trkpt lat="42.99914333" lon="-1.102135">
        <ele>872.0</ele>
        <time>2019-07-31T14:22:54.117Z</time>
      </trkpt>
      <trkpt lat="42.99915" lon="-1.10213333">
        <ele>872.0</ele>
        <time>2019-07-31T14:22:55.121Z</time>
      </trkpt>
      <trkpt lat="42.99915833" lon="-1.10213333">
        <ele>872.0</ele>
        <time>2019-07-31T14:22:56.127Z</time>
      </trkpt>
      <trkpt lat="42.99916167" lon="-1.10212833">
        <ele>872.0</ele>
        <time>2019-07-31T14:22:57.134Z</time>
      </trkpt>
      <trkpt lat="42.99916833" lon="-1.10212833">
        <ele>872.0</ele>
        <time>2019-07-31T14:22:58.138Z</time>
      </trkpt>
      <trkpt lat="42.99917833" lon="-1.10213167">
        <ele>872.0</ele>
        <time>2019-07-31T14:22:59.142Z</time>
      </trkpt>
      <trkpt lat="42.99918667" lon="-1.10213667">
        <ele>871.0</ele>
        <time>2019-07-31T14:23:00.146Z</time>
      </trkpt>
      <trkpt lat="42.99919667" lon="-1.10213833">
        <ele>870.0</ele>
        <time>2019-07-31T14:23:01.151Z</time>
      </trkpt>
      <trkpt lat="42.99920333" lon="-1.102135">
        <ele>869.0</ele>
        <time>2019-07-31T14:23:02.157Z</time>
      </trkpt>
      <trkpt lat="42.99920667" lon="-1.10212667">
        <ele>869.0</ele>
        <time>2019-07-31T14:23:03.162Z</time>
      </trkpt>
      <trkpt lat="42.99921167" lon="-1.102115">
        <ele>869.0</ele>
        <time>2019-07-31T14:23:04.168Z</time>
      </trkpt>
      <trkpt lat="42.99921667" lon="-1.10210167">
        <ele>870.0</ele>
        <time>2019-07-31T14:23:05.174Z</time>
      </trkpt>
      <trkpt lat="42.99922167" lon="-1.10208667">
        <ele>870.0</ele>
        <time>2019-07-31T14:23:06.179Z</time>
      </trkpt>
      <trkpt lat="42.99922667" lon="-1.102075">
        <ele>871.0</ele>
        <time>2019-07-31T14:23:07.183Z</time>
      </trkpt>
      <trkpt lat="42.99923333" lon="-1.10207167">
        <ele>871.0</ele>
        <time>2019-07-31T14:23:08.061Z</time>
      </trkpt>
      <trkpt lat="42.999235" lon="-1.10206667">
        <ele>872.0</ele>
        <time>2019-07-31T14:23:09.066Z</time>
      </trkpt>
      <trkpt lat="42.99923167" lon="-1.10205833">
        <ele>872.0</ele>
        <time>2019-07-31T14:23:10.071Z</time>
      </trkpt>
      <trkpt lat="42.999235" lon="-1.10204667">
        <ele>873.0</ele>
        <time>2019-07-31T14:23:11.076Z</time>
      </trkpt>
      <trkpt lat="42.99923667" lon="-1.10203167">
        <ele>874.0</ele>
        <time>2019-07-31T14:23:12.081Z</time>
      </trkpt>
      <trkpt lat="42.99923833" lon="-1.10202">
        <ele>875.0</ele>
        <time>2019-07-31T14:23:13.083Z</time>
      </trkpt>
      <trkpt lat="42.99923667" lon="-1.10201167">
        <ele>876.0</ele>
        <time>2019-07-31T14:23:14.087Z</time>
      </trkpt>
      <trkpt lat="42.99923333" lon="-1.10200333">
        <ele>877.0</ele>
        <time>2019-07-31T14:23:15.093Z</time>
      </trkpt>
      <trkpt lat="42.99923167" lon="-1.10199167">
        <ele>878.0</ele>
        <time>2019-07-31T14:23:16.098Z</time>
      </trkpt>
      <trkpt lat="42.999235" lon="-1.101995">
        <ele>878.0</ele>
        <time>2019-07-31T14:23:17.101Z</time>
      </trkpt>
      <trkpt lat="42.99924333" lon="-1.10200333">
        <ele>878.0</ele>
        <time>2019-07-31T14:23:18.107Z</time>
      </trkpt>
      <trkpt lat="42.99925" lon="-1.10201167">
        <ele>877.0</ele>
        <time>2019-07-31T14:23:19.113Z</time>
      </trkpt>
      <trkpt lat="42.99925" lon="-1.10200833">
        <ele>877.0</ele>
        <time>2019-07-31T14:23:20.118Z</time>
      </trkpt>
      <trkpt lat="42.99925333" lon="-1.10200833">
        <ele>877.0</ele>
        <time>2019-07-31T14:23:21.122Z</time>
      </trkpt>
      <trkpt lat="42.99925667" lon="-1.102">
        <ele>877.0</ele>
        <time>2019-07-31T14:23:22.127Z</time>
      </trkpt>
      <trkpt lat="42.99925333" lon="-1.10198333">
        <ele>878.0</ele>
        <time>2019-07-31T14:23:23.131Z</time>
      </trkpt>
      <trkpt lat="42.99924833" lon="-1.101965">
        <ele>879.0</ele>
        <time>2019-07-31T14:23:24.137Z</time>
      </trkpt>
      <trkpt lat="42.99925167" lon="-1.10195833">
        <ele>880.0</ele>
        <time>2019-07-31T14:23:25.143Z</time>
      </trkpt>
      <trkpt lat="42.99923833" lon="-1.101945">
        <ele>879.0</ele>
        <time>2019-07-31T14:23:26.149Z</time>
      </trkpt>
      <trkpt lat="42.99923667" lon="-1.10194">
        <ele>879.0</ele>
        <time>2019-07-31T14:23:27.155Z</time>
      </trkpt>
      <trkpt lat="42.99923333" lon="-1.10194">
        <ele>879.0</ele>
        <time>2019-07-31T14:23:28.162Z</time>
      </trkpt>
      <trkpt lat="42.99922833" lon="-1.101935">
        <ele>878.0</ele>
        <time>2019-07-31T14:23:29.167Z</time>
      </trkpt>
      <trkpt lat="42.99922667" lon="-1.10193833">
        <ele>876.0</ele>
        <time>2019-07-31T14:23:30.172Z</time>
      </trkpt>
      <trkpt lat="42.99921667" lon="-1.10192333">
        <ele>876.0</ele>
        <time>2019-07-31T14:23:31.177Z</time>
      </trkpt>
      <trkpt lat="42.99921833" lon="-1.10192333">
        <ele>876.0</ele>
        <time>2019-07-31T14:23:32.180Z</time>
      </trkpt>
      <trkpt lat="42.999225" lon="-1.10193167">
        <ele>875.0</ele>
        <time>2019-07-31T14:23:33.061Z</time>
      </trkpt>
      <trkpt lat="42.999225" lon="-1.10194">
        <ele>875.0</ele>
        <time>2019-07-31T14:23:34.066Z</time>
      </trkpt>
      <trkpt lat="42.99922667" lon="-1.10194167">
        <ele>875.0</ele>
        <time>2019-07-31T14:23:35.071Z</time>
      </trkpt>
      <trkpt lat="42.99922667" lon="-1.10194333">
        <ele>875.0</ele>
        <time>2019-07-31T14:23:36.077Z</time>
      </trkpt>
      <trkpt lat="42.99922667" lon="-1.10194333">
        <ele>875.0</ele>
        <time>2019-07-31T14:23:37.081Z</time>
      </trkpt>
      <trkpt lat="42.99922833" lon="-1.10194333">
        <ele>875.0</ele>
        <time>2019-07-31T14:23:38.083Z</time>
      </trkpt>
      <trkpt lat="42.99923" lon="-1.10194167">
        <ele>876.0</ele>
        <time>2019-07-31T14:23:39.087Z</time>
      </trkpt>
      <trkpt lat="42.99923167" lon="-1.10193667">
        <ele>876.0</ele>
        <time>2019-07-31T14:23:40.091Z</time>
      </trkpt>
      <trkpt lat="42.99923333" lon="-1.101935">
        <ele>876.0</ele>
        <time>2019-07-31T14:23:41.097Z</time>
      </trkpt>
      <trkpt lat="42.99923333" lon="-1.10193167">
        <ele>876.0</ele>
        <time>2019-07-31T14:23:42.102Z</time>
      </trkpt>
      <trkpt lat="42.99923333" lon="-1.10193167">
        <ele>876.0</ele>
        <time>2019-07-31T14:23:43.106Z</time>
      </trkpt>
      <trkpt lat="42.99923333" lon="-1.10192833">
        <ele>875.0</ele>
        <time>2019-07-31T14:23:44.112Z</time>
      </trkpt>
      <trkpt lat="42.99923167" lon="-1.10192167">
        <ele>875.0</ele>
        <time>2019-07-31T14:23:45.116Z</time>
      </trkpt>
      <trkpt lat="42.99922833" lon="-1.10191833">
        <ele>875.0</ele>
        <time>2019-07-31T14:23:46.121Z</time>
      </trkpt>
      <trkpt lat="42.99922667" lon="-1.101915">
        <ele>874.0</ele>
        <time>2019-07-31T14:23:47.128Z</time>
      </trkpt>
      <trkpt lat="42.99922333" lon="-1.10190833">
        <ele>875.0</ele>
        <time>2019-07-31T14:23:48.135Z</time>
      </trkpt>
      <trkpt lat="42.99922" lon="-1.1019">
        <ele>875.0</ele>
        <time>2019-07-31T14:23:49.143Z</time>
      </trkpt>
      <trkpt lat="42.99921833" lon="-1.10189167">
        <ele>875.0</ele>
        <time>2019-07-31T14:23:50.149Z</time>
      </trkpt>
      <trkpt lat="42.999215" lon="-1.101885">
        <ele>875.0</ele>
        <time>2019-07-31T14:23:51.155Z</time>
      </trkpt>
      <trkpt lat="42.999215" lon="-1.10189833">
        <ele>874.0</ele>
        <time>2019-07-31T14:23:52.161Z</time>
      </trkpt>
      <trkpt lat="42.999215" lon="-1.10191167">
        <ele>873.0</ele>
        <time>2019-07-31T14:23:53.163Z</time>
      </trkpt>
      <trkpt lat="42.99921333" lon="-1.10192167">
        <ele>872.0</ele>
        <time>2019-07-31T14:23:54.167Z</time>
      </trkpt>
      <trkpt lat="42.99921333" lon="-1.10192833">
        <ele>872.0</ele>
        <time>2019-07-31T14:23:55.172Z</time>
      </trkpt>
      <trkpt lat="42.999215" lon="-1.10193167">
        <ele>872.0</ele>
        <time>2019-07-31T14:23:56.179Z</time>
      </trkpt>
      <trkpt lat="42.99920833" lon="-1.101925">
        <ele>872.0</ele>
        <time>2019-07-31T14:23:57.185Z</time>
      </trkpt>
      <trkpt lat="42.99920333" lon="-1.10191333">
        <ele>873.0</ele>
        <time>2019-07-31T14:23:58.064Z</time>
      </trkpt>
      <trkpt lat="42.9992" lon="-1.10190833">
        <ele>872.0</ele>
        <time>2019-07-31T14:23:59.068Z</time>
      </trkpt>
      <trkpt lat="42.99919833" lon="-1.10190333">
        <ele>873.0</ele>
        <time>2019-07-31T14:24:00.076Z</time>
      </trkpt>
      <trkpt lat="42.99919667" lon="-1.10190167">
        <ele>873.0</ele>
        <time>2019-07-31T14:24:01.081Z</time>
      </trkpt>
      <trkpt lat="42.99919667" lon="-1.10190333">
        <ele>873.0</ele>
        <time>2019-07-31T14:24:02.086Z</time>
      </trkpt>
      <trkpt lat="42.9992" lon="-1.10190667">
        <ele>873.0</ele>
        <time>2019-07-31T14:24:03.089Z</time>
      </trkpt>
      <trkpt lat="42.99920167" lon="-1.10190667">
        <ele>873.0</ele>
        <time>2019-07-31T14:24:04.093Z</time>
      </trkpt>
      <trkpt lat="42.99920167" lon="-1.10190833">
        <ele>873.0</ele>
        <time>2019-07-31T14:24:05.097Z</time>
      </trkpt>
      <trkpt lat="42.99920167" lon="-1.101905">
        <ele>872.0</ele>
        <time>2019-07-31T14:24:06.101Z</time>
      </trkpt>
      <trkpt lat="42.9992" lon="-1.10190333">
        <ele>872.0</ele>
        <time>2019-07-31T14:24:07.107Z</time>
      </trkpt>
      <trkpt lat="42.99919667" lon="-1.10189667">
        <ele>872.0</ele>
        <time>2019-07-31T14:24:08.111Z</time>
      </trkpt>
      <trkpt lat="42.99919667" lon="-1.10189333">
        <ele>873.0</ele>
        <time>2019-07-31T14:24:09.117Z</time>
      </trkpt>
      <trkpt lat="42.99919667" lon="-1.10189333">
        <ele>873.0</ele>
        <time>2019-07-31T14:24:10.124Z</time>
      </trkpt>
      <trkpt lat="42.99919667" lon="-1.10189333">
        <ele>874.0</ele>
        <time>2019-07-31T14:24:11.130Z</time>
      </trkpt>
      <trkpt lat="42.999195" lon="-1.10189333">
        <ele>875.0</ele>
        <time>2019-07-31T14:24:12.135Z</time>
      </trkpt>
      <trkpt lat="42.99919833" lon="-1.10189667">
        <ele>875.0</ele>
        <time>2019-07-31T14:24:13.141Z</time>
      </trkpt>
      <trkpt lat="42.99919833" lon="-1.101895">
        <ele>876.0</ele>
        <time>2019-07-31T14:24:14.146Z</time>
      </trkpt>
      <trkpt lat="42.99919667" lon="-1.10189">
        <ele>876.0</ele>
        <time>2019-07-31T14:24:15.152Z</time>
      </trkpt>
      <trkpt lat="42.999195" lon="-1.10188667">
        <ele>877.0</ele>
        <time>2019-07-31T14:24:16.158Z</time>
      </trkpt>
      <trkpt lat="42.99919667" lon="-1.10189">
        <ele>876.0</ele>
        <time>2019-07-31T14:24:17.164Z</time>
      </trkpt>
      <trkpt lat="42.999195" lon="-1.10189167">
        <ele>877.0</ele>
        <time>2019-07-31T14:24:18.170Z</time>
      </trkpt>
      <trkpt lat="42.99919333" lon="-1.10189167">
        <ele>877.0</ele>
        <time>2019-07-31T14:24:19.176Z</time>
      </trkpt>
      <trkpt lat="42.999195" lon="-1.101895">
        <ele>876.0</ele>
        <time>2019-07-31T14:24:20.181Z</time>
      </trkpt>
      <trkpt lat="42.99919667" lon="-1.101895">
        <ele>876.0</ele>
        <time>2019-07-31T14:24:21.062Z</time>
      </trkpt>
      <trkpt lat="42.99920167" lon="-1.10189333">
        <ele>877.0</ele>
        <time>2019-07-31T14:24:22.068Z</time>
      </trkpt>
      <trkpt lat="42.9992" lon="-1.10189667">
        <ele>877.0</ele>
        <time>2019-07-31T14:24:23.073Z</time>
      </trkpt>
      <trkpt lat="42.999205" lon="-1.10189667">
        <ele>877.0</ele>
        <time>2019-07-31T14:24:24.079Z</time>
      </trkpt>
      <trkpt lat="42.99920333" lon="-1.10188667">
        <ele>877.0</ele>
        <time>2019-07-31T14:24:25.083Z</time>
      </trkpt>
      <trkpt lat="42.99920167" lon="-1.101875">
        <ele>878.0</ele>
        <time>2019-07-31T14:24:26.086Z</time>
      </trkpt>
      <trkpt lat="42.99919833" lon="-1.10186833">
        <ele>878.0</ele>
        <time>2019-07-31T14:24:27.093Z</time>
      </trkpt>
      <trkpt lat="42.99919667" lon="-1.10186167">
        <ele>878.0</ele>
        <time>2019-07-31T14:24:28.098Z</time>
      </trkpt>
      <trkpt lat="42.99919833" lon="-1.10185833">
        <ele>878.0</ele>
        <time>2019-07-31T14:24:29.104Z</time>
      </trkpt>
      <trkpt lat="42.99919667" lon="-1.10186">
        <ele>877.0</ele>
        <time>2019-07-31T14:24:30.109Z</time>
      </trkpt>
      <trkpt lat="42.99919667" lon="-1.10186">
        <ele>878.0</ele>
        <time>2019-07-31T14:24:31.115Z</time>
      </trkpt>
      <trkpt lat="42.99920333" lon="-1.10186667">
        <ele>879.0</ele>
        <time>2019-07-31T14:24:32.120Z</time>
      </trkpt>
      <trkpt lat="42.99921" lon="-1.10188333">
        <ele>879.0</ele>
        <time>2019-07-31T14:24:33.127Z</time>
      </trkpt>
      <trkpt lat="42.999215" lon="-1.101895">
        <ele>878.0</ele>
        <time>2019-07-31T14:24:34.131Z</time>
      </trkpt>
      <trkpt lat="42.99921833" lon="-1.1019">
        <ele>878.0</ele>
        <time>2019-07-31T14:24:35.134Z</time>
      </trkpt>
      <trkpt lat="42.99922" lon="-1.10190167">
        <ele>878.0</ele>
        <time>2019-07-31T14:24:36.138Z</time>
      </trkpt>
      <trkpt lat="42.99922" lon="-1.1019">
        <ele>877.0</ele>
        <time>2019-07-31T14:24:37.144Z</time>
      </trkpt>
      <trkpt lat="42.99922" lon="-1.10189833">
        <ele>877.0</ele>
        <time>2019-07-31T14:24:38.151Z</time>
      </trkpt>
      <trkpt lat="42.99922167" lon="-1.10190333">
        <ele>876.0</ele>
        <time>2019-07-31T14:24:39.157Z</time>
      </trkpt>
      <trkpt lat="42.99922333" lon="-1.10191">
        <ele>876.0</ele>
        <time>2019-07-31T14:24:40.162Z</time>
      </trkpt>
      <trkpt lat="42.99922" lon="-1.10191667">
        <ele>876.0</ele>
        <time>2019-07-31T14:24:41.167Z</time>
      </trkpt>
      <trkpt lat="42.99922167" lon="-1.10191333">
        <ele>878.0</ele>
        <time>2019-07-31T14:24:42.173Z</time>
      </trkpt>
      <trkpt lat="42.99922333" lon="-1.10191333">
        <ele>879.0</ele>
        <time>2019-07-31T14:24:43.181Z</time>
      </trkpt>
      <trkpt lat="42.99872667" lon="-1.10216333">
        <ele>872.0</ele>
        <time>2019-07-31T14:24:45.061Z</time>
      </trkpt>
      <trkpt lat="42.99872333" lon="-1.102165">
        <ele>872.0</ele>
        <time>2019-07-31T14:24:46.065Z</time>
      </trkpt>
      <trkpt lat="42.99871667" lon="-1.10217">
        <ele>872.0</ele>
        <time>2019-07-31T14:24:47.073Z</time>
      </trkpt>
      <trkpt lat="42.99871" lon="-1.10217333">
        <ele>872.0</ele>
        <time>2019-07-31T14:24:48.077Z</time>
      </trkpt>
      <trkpt lat="42.99870167" lon="-1.10217833">
        <ele>872.0</ele>
        <time>2019-07-31T14:24:49.080Z</time>
      </trkpt>
      <trkpt lat="42.998695" lon="-1.10217667">
        <ele>872.0</ele>
        <time>2019-07-31T14:24:50.085Z</time>
      </trkpt>
      <trkpt lat="42.99868667" lon="-1.102175">
        <ele>871.0</ele>
        <time>2019-07-31T14:24:51.091Z</time>
      </trkpt>
      <trkpt lat="42.99867833" lon="-1.10216833">
        <ele>872.0</ele>
        <time>2019-07-31T14:24:52.095Z</time>
      </trkpt>
      <trkpt lat="42.99867" lon="-1.10216333">
        <ele>872.0</ele>
        <time>2019-07-31T14:24:53.097Z</time>
      </trkpt>
      <trkpt lat="42.99866167" lon="-1.10215833">
        <ele>872.0</ele>
        <time>2019-07-31T14:24:54.101Z</time>
      </trkpt>
      <trkpt lat="42.99865333" lon="-1.10215333">
        <ele>872.0</ele>
        <time>2019-07-31T14:24:55.107Z</time>
      </trkpt>
      <trkpt lat="42.998645" lon="-1.10214833">
        <ele>872.0</ele>
        <time>2019-07-31T14:24:56.112Z</time>
      </trkpt>
      <trkpt lat="42.99863833" lon="-1.10215">
        <ele>872.0</ele>
        <time>2019-07-31T14:24:57.115Z</time>
      </trkpt>
      <trkpt lat="42.99863333" lon="-1.10215667">
        <ele>873.0</ele>
        <time>2019-07-31T14:24:58.123Z</time>
      </trkpt>
      <trkpt lat="42.99862833" lon="-1.10215667">
        <ele>873.0</ele>
        <time>2019-07-31T14:24:59.129Z</time>
      </trkpt>
      <trkpt lat="42.99862333" lon="-1.102155">
        <ele>874.0</ele>
        <time>2019-07-31T14:25:00.134Z</time>
      </trkpt>
      <trkpt lat="42.99862167" lon="-1.10215333">
        <ele>874.0</ele>
        <time>2019-07-31T14:25:01.138Z</time>
      </trkpt>
      <trkpt lat="42.99861833" lon="-1.10214833">
        <ele>874.0</ele>
        <time>2019-07-31T14:25:02.142Z</time>
      </trkpt>
      <trkpt lat="42.998615" lon="-1.102145">
        <ele>874.0</ele>
        <time>2019-07-31T14:25:03.149Z</time>
      </trkpt>
      <trkpt lat="42.99861333" lon="-1.10214667">
        <ele>874.0</ele>
        <time>2019-07-31T14:25:04.155Z</time>
      </trkpt>
      <trkpt lat="42.99860833" lon="-1.10214667">
        <ele>873.0</ele>
        <time>2019-07-31T14:25:05.157Z</time>
      </trkpt>
      <trkpt lat="42.99860167" lon="-1.10214833">
        <ele>874.0</ele>
        <time>2019-07-31T14:25:06.159Z</time>
      </trkpt>
      <trkpt lat="42.99859" lon="-1.10215">
        <ele>875.0</ele>
        <time>2019-07-31T14:25:07.163Z</time>
      </trkpt>
      <trkpt lat="42.99858" lon="-1.10214833">
        <ele>875.0</ele>
        <time>2019-07-31T14:25:08.170Z</time>
      </trkpt>
      <trkpt lat="42.99856833" lon="-1.10214333">
        <ele>876.0</ele>
        <time>2019-07-31T14:25:09.176Z</time>
      </trkpt>
      <trkpt lat="42.99855667" lon="-1.10214333">
        <ele>877.0</ele>
        <time>2019-07-31T14:25:10.181Z</time>
      </trkpt>
      <trkpt lat="42.998545" lon="-1.10214667">
        <ele>878.0</ele>
        <time>2019-07-31T14:25:11.062Z</time>
      </trkpt>
      <trkpt lat="42.99853667" lon="-1.10215167">
        <ele>877.0</ele>
        <time>2019-07-31T14:25:12.067Z</time>
      </trkpt>
      <trkpt lat="42.99853" lon="-1.10215667">
        <ele>877.0</ele>
        <time>2019-07-31T14:25:13.072Z</time>
      </trkpt>
      <trkpt lat="42.99852167" lon="-1.10216">
        <ele>877.0</ele>
        <time>2019-07-31T14:25:14.078Z</time>
      </trkpt>
      <trkpt lat="42.99850667" lon="-1.102165">
        <ele>877.0</ele>
        <time>2019-07-31T14:25:15.082Z</time>
      </trkpt>
      <trkpt lat="42.998495" lon="-1.10216833">
        <ele>878.0</ele>
        <time>2019-07-31T14:25:16.089Z</time>
      </trkpt>
      <trkpt lat="42.99848167" lon="-1.102175">
        <ele>878.0</ele>
        <time>2019-07-31T14:25:17.094Z</time>
      </trkpt>
      <trkpt lat="42.99846833" lon="-1.10218">
        <ele>878.0</ele>
        <time>2019-07-31T14:25:18.100Z</time>
      </trkpt>
      <trkpt lat="42.99845667" lon="-1.102185">
        <ele>878.0</ele>
        <time>2019-07-31T14:25:19.107Z</time>
      </trkpt>
      <trkpt lat="42.99844333" lon="-1.10219">
        <ele>879.0</ele>
        <time>2019-07-31T14:25:20.114Z</time>
      </trkpt>
      <trkpt lat="42.99843333" lon="-1.102195">
        <ele>879.0</ele>
        <time>2019-07-31T14:25:21.121Z</time>
      </trkpt>
      <trkpt lat="42.99842167" lon="-1.1022">
        <ele>879.0</ele>
        <time>2019-07-31T14:25:22.128Z</time>
      </trkpt>
      <trkpt lat="42.99840333" lon="-1.10219667">
        <ele>879.0</ele>
        <time>2019-07-31T14:25:23.132Z</time>
      </trkpt>
      <trkpt lat="42.99839" lon="-1.10219333">
        <ele>880.0</ele>
        <time>2019-07-31T14:25:24.137Z</time>
      </trkpt>
      <trkpt lat="42.998375" lon="-1.10218833">
        <ele>880.0</ele>
        <time>2019-07-31T14:25:25.142Z</time>
      </trkpt>
      <trkpt lat="42.99835667" lon="-1.10219167">
        <ele>880.0</ele>
        <time>2019-07-31T14:25:26.148Z</time>
      </trkpt>
      <trkpt lat="42.99834167" lon="-1.10219333">
        <ele>881.0</ele>
        <time>2019-07-31T14:25:27.154Z</time>
      </trkpt>
      <trkpt lat="42.99833" lon="-1.102195">
        <ele>881.0</ele>
        <time>2019-07-31T14:25:28.159Z</time>
      </trkpt>
      <trkpt lat="42.99831667" lon="-1.10219167">
        <ele>881.0</ele>
        <time>2019-07-31T14:25:29.165Z</time>
      </trkpt>
      <trkpt lat="42.99830167" lon="-1.10219333">
        <ele>881.0</ele>
        <time>2019-07-31T14:25:30.170Z</time>
      </trkpt>
      <trkpt lat="42.99828833" lon="-1.102205">
        <ele>881.0</ele>
        <time>2019-07-31T14:25:31.176Z</time>
      </trkpt>
      <trkpt lat="42.998275" lon="-1.10220667">
        <ele>882.0</ele>
        <time>2019-07-31T14:25:32.178Z</time>
      </trkpt>
      <trkpt lat="42.99826333" lon="-1.10220833">
        <ele>882.0</ele>
        <time>2019-07-31T14:25:33.181Z</time>
      </trkpt>
      <trkpt lat="42.99825333" lon="-1.10221167">
        <ele>882.0</ele>
        <time>2019-07-31T14:25:34.185Z</time>
      </trkpt>
      <trkpt lat="42.99824833" lon="-1.10222833">
        <ele>882.0</ele>
        <time>2019-07-31T14:25:35.062Z</time>
      </trkpt>
      <trkpt lat="42.99823667" lon="-1.10224167">
        <ele>882.0</ele>
        <time>2019-07-31T14:25:36.063Z</time>
      </trkpt>
      <trkpt lat="42.99822833" lon="-1.10225167">
        <ele>882.0</ele>
        <time>2019-07-31T14:25:37.066Z</time>
      </trkpt>
      <trkpt lat="42.99822167" lon="-1.10225833">
        <ele>882.0</ele>
        <time>2019-07-31T14:25:38.070Z</time>
      </trkpt>
      <trkpt lat="42.99820833" lon="-1.10227">
        <ele>881.0</ele>
        <time>2019-07-31T14:25:39.071Z</time>
      </trkpt>
      <trkpt lat="42.9982" lon="-1.10227833">
        <ele>882.0</ele>
        <time>2019-07-31T14:25:40.076Z</time>
      </trkpt>
      <trkpt lat="42.99819167" lon="-1.10228667">
        <ele>881.0</ele>
        <time>2019-07-31T14:25:41.081Z</time>
      </trkpt>
      <trkpt lat="42.99818333" lon="-1.10229833">
        <ele>881.0</ele>
        <time>2019-07-31T14:25:42.087Z</time>
      </trkpt>
      <trkpt lat="42.99817667" lon="-1.10231167">
        <ele>880.0</ele>
        <time>2019-07-31T14:25:43.091Z</time>
      </trkpt>
      <trkpt lat="42.99816833" lon="-1.10232167">
        <ele>880.0</ele>
        <time>2019-07-31T14:25:44.094Z</time>
      </trkpt>
      <trkpt lat="42.99815667" lon="-1.10233">
        <ele>880.0</ele>
        <time>2019-07-31T14:25:45.097Z</time>
      </trkpt>
      <trkpt lat="42.99814833" lon="-1.10234667">
        <ele>878.0</ele>
        <time>2019-07-31T14:25:46.104Z</time>
      </trkpt>
      <trkpt lat="42.99814167" lon="-1.10235667">
        <ele>878.0</ele>
        <time>2019-07-31T14:25:47.110Z</time>
      </trkpt>
      <trkpt lat="42.99813667" lon="-1.10236167">
        <ele>877.0</ele>
        <time>2019-07-31T14:25:48.117Z</time>
      </trkpt>
      <trkpt lat="42.99813167" lon="-1.10236833">
        <ele>877.0</ele>
        <time>2019-07-31T14:25:49.121Z</time>
      </trkpt>
      <trkpt lat="42.998125" lon="-1.102375">
        <ele>877.0</ele>
        <time>2019-07-31T14:25:50.129Z</time>
      </trkpt>
      <trkpt lat="42.998115" lon="-1.10238833">
        <ele>876.0</ele>
        <time>2019-07-31T14:25:51.134Z</time>
      </trkpt>
      <trkpt lat="42.99809833" lon="-1.10240333">
        <ele>875.0</ele>
        <time>2019-07-31T14:25:52.139Z</time>
      </trkpt>
      <trkpt lat="42.998085" lon="-1.10241833">
        <ele>875.0</ele>
        <time>2019-07-31T14:25:53.142Z</time>
      </trkpt>
      <trkpt lat="42.99807833" lon="-1.10242667">
        <ele>874.0</ele>
        <time>2019-07-31T14:25:54.147Z</time>
      </trkpt>
      <trkpt lat="42.99807" lon="-1.10244167">
        <ele>874.0</ele>
        <time>2019-07-31T14:25:55.151Z</time>
      </trkpt>
      <trkpt lat="42.998065" lon="-1.10246333">
        <ele>873.0</ele>
        <time>2019-07-31T14:25:56.156Z</time>
      </trkpt>
      <trkpt lat="42.99805667" lon="-1.10247833">
        <ele>874.0</ele>
        <time>2019-07-31T14:25:57.165Z</time>
      </trkpt>
      <trkpt lat="42.99804833" lon="-1.10249">
        <ele>874.0</ele>
        <time>2019-07-31T14:25:58.171Z</time>
      </trkpt>
      <trkpt lat="42.99804" lon="-1.10250833">
        <ele>874.0</ele>
        <time>2019-07-31T14:25:59.176Z</time>
      </trkpt>
      <trkpt lat="42.99802167" lon="-1.10251833">
        <ele>878.0</ele>
        <time>2019-07-31T14:26:00.181Z</time>
      </trkpt>
      <trkpt lat="42.99801167" lon="-1.10254667">
        <ele>879.0</ele>
        <time>2019-07-31T14:26:01.186Z</time>
      </trkpt>
      <trkpt lat="42.99800667" lon="-1.10256667">
        <ele>879.0</ele>
        <time>2019-07-31T14:26:02.064Z</time>
      </trkpt>
      <trkpt lat="42.99800833" lon="-1.10259167">
        <ele>879.0</ele>
        <time>2019-07-31T14:26:03.071Z</time>
      </trkpt>
      <trkpt lat="42.99800333" lon="-1.10261333">
        <ele>880.0</ele>
        <time>2019-07-31T14:26:04.076Z</time>
      </trkpt>
      <trkpt lat="42.99800667" lon="-1.10263">
        <ele>881.0</ele>
        <time>2019-07-31T14:26:05.083Z</time>
      </trkpt>
      <trkpt lat="42.998015" lon="-1.10265">
        <ele>882.0</ele>
        <time>2019-07-31T14:26:06.088Z</time>
      </trkpt>
      <trkpt lat="42.99803167" lon="-1.102655">
        <ele>882.0</ele>
        <time>2019-07-31T14:26:07.093Z</time>
      </trkpt>
      <trkpt lat="42.99805333" lon="-1.102665">
        <ele>882.0</ele>
        <time>2019-07-31T14:26:08.100Z</time>
      </trkpt>
      <trkpt lat="42.99807333" lon="-1.10267">
        <ele>881.0</ele>
        <time>2019-07-31T14:26:09.108Z</time>
      </trkpt>
      <trkpt lat="42.998095" lon="-1.10266167">
        <ele>879.0</ele>
        <time>2019-07-31T14:26:10.114Z</time>
      </trkpt>
      <trkpt lat="42.99811333" lon="-1.10266167">
        <ele>878.0</ele>
        <time>2019-07-31T14:26:11.120Z</time>
      </trkpt>
      <trkpt lat="42.99813167" lon="-1.10265667">
        <ele>878.0</ele>
        <time>2019-07-31T14:26:12.127Z</time>
      </trkpt>
      <trkpt lat="42.99814833" lon="-1.10265">
        <ele>878.0</ele>
        <time>2019-07-31T14:26:13.132Z</time>
      </trkpt>
      <trkpt lat="42.998165" lon="-1.10264">
        <ele>879.0</ele>
        <time>2019-07-31T14:26:14.137Z</time>
      </trkpt>
      <trkpt lat="42.99818" lon="-1.10263333">
        <ele>879.0</ele>
        <time>2019-07-31T14:26:15.143Z</time>
      </trkpt>
      <trkpt lat="42.99819" lon="-1.102635">
        <ele>879.0</ele>
        <time>2019-07-31T14:26:16.150Z</time>
      </trkpt>
      <trkpt lat="42.998205" lon="-1.10263833">
        <ele>879.0</ele>
        <time>2019-07-31T14:26:17.154Z</time>
      </trkpt>
      <trkpt lat="42.99821833" lon="-1.10264167">
        <ele>877.0</ele>
        <time>2019-07-31T14:26:18.158Z</time>
      </trkpt>
      <trkpt lat="42.998235" lon="-1.10263667">
        <ele>876.0</ele>
        <time>2019-07-31T14:26:19.162Z</time>
      </trkpt>
      <trkpt lat="42.99825333" lon="-1.10262833">
        <ele>875.0</ele>
        <time>2019-07-31T14:26:20.168Z</time>
      </trkpt>
      <trkpt lat="42.99826333" lon="-1.10261833">
        <ele>875.0</ele>
        <time>2019-07-31T14:26:21.173Z</time>
      </trkpt>
      <trkpt lat="42.99828" lon="-1.10261167">
        <ele>876.0</ele>
        <time>2019-07-31T14:26:22.179Z</time>
      </trkpt>
      <trkpt lat="42.99828833" lon="-1.102605">
        <ele>875.0</ele>
        <time>2019-07-31T14:26:23.186Z</time>
      </trkpt>
      <trkpt lat="42.99829667" lon="-1.10259167">
        <ele>875.0</ele>
        <time>2019-07-31T14:26:24.066Z</time>
      </trkpt>
      <trkpt lat="42.99830667" lon="-1.10259833">
        <ele>875.0</ele>
        <time>2019-07-31T14:26:25.071Z</time>
      </trkpt>
      <trkpt lat="42.99832" lon="-1.10259833">
        <ele>875.0</ele>
        <time>2019-07-31T14:26:26.074Z</time>
      </trkpt>
      <trkpt lat="42.99833667" lon="-1.10259167">
        <ele>875.0</ele>
        <time>2019-07-31T14:26:27.080Z</time>
      </trkpt>
      <trkpt lat="42.99834667" lon="-1.10259">
        <ele>875.0</ele>
        <time>2019-07-31T14:26:28.084Z</time>
      </trkpt>
      <trkpt lat="42.99835667" lon="-1.10258833">
        <ele>875.0</ele>
        <time>2019-07-31T14:26:29.090Z</time>
      </trkpt>
      <trkpt lat="42.99836833" lon="-1.10258333">
        <ele>875.0</ele>
        <time>2019-07-31T14:26:30.093Z</time>
      </trkpt>
      <trkpt lat="42.99837333" lon="-1.10257667">
        <ele>875.0</ele>
        <time>2019-07-31T14:26:31.098Z</time>
      </trkpt>
      <trkpt lat="42.99838667" lon="-1.10257">
        <ele>875.0</ele>
        <time>2019-07-31T14:26:32.104Z</time>
      </trkpt>
      <trkpt lat="42.99839667" lon="-1.102565">
        <ele>875.0</ele>
        <time>2019-07-31T14:26:33.109Z</time>
      </trkpt>
      <trkpt lat="42.99840333" lon="-1.10256">
        <ele>875.0</ele>
        <time>2019-07-31T14:26:34.113Z</time>
      </trkpt>
      <trkpt lat="42.99841167" lon="-1.102555">
        <ele>876.0</ele>
        <time>2019-07-31T14:26:35.120Z</time>
      </trkpt>
      <trkpt lat="42.99842333" lon="-1.102545">
        <ele>875.0</ele>
        <time>2019-07-31T14:26:36.124Z</time>
      </trkpt>
      <trkpt lat="42.99843333" lon="-1.10253667">
        <ele>876.0</ele>
        <time>2019-07-31T14:26:37.131Z</time>
      </trkpt>
      <trkpt lat="42.998445" lon="-1.10253333">
        <ele>875.0</ele>
        <time>2019-07-31T14:26:38.135Z</time>
      </trkpt>
      <trkpt lat="42.998455" lon="-1.10253333">
        <ele>875.0</ele>
        <time>2019-07-31T14:26:39.143Z</time>
      </trkpt>
      <trkpt lat="42.99846667" lon="-1.10253">
        <ele>876.0</ele>
        <time>2019-07-31T14:26:40.150Z</time>
      </trkpt>
      <trkpt lat="42.99848167" lon="-1.10253">
        <ele>877.0</ele>
        <time>2019-07-31T14:26:41.155Z</time>
      </trkpt>
      <trkpt lat="42.99849167" lon="-1.10253167">
        <ele>877.0</ele>
        <time>2019-07-31T14:26:42.162Z</time>
      </trkpt>
      <trkpt lat="42.99850333" lon="-1.10253667">
        <ele>878.0</ele>
        <time>2019-07-31T14:26:43.167Z</time>
      </trkpt>
      <trkpt lat="42.99851333" lon="-1.10253333">
        <ele>878.0</ele>
        <time>2019-07-31T14:26:44.172Z</time>
      </trkpt>
      <trkpt lat="42.998525" lon="-1.10253333">
        <ele>879.0</ele>
        <time>2019-07-31T14:26:45.177Z</time>
      </trkpt>
      <trkpt lat="42.99854167" lon="-1.10253833">
        <ele>880.0</ele>
        <time>2019-07-31T14:26:46.184Z</time>
      </trkpt>
      <trkpt lat="42.99855667" lon="-1.10254667">
        <ele>880.0</ele>
        <time>2019-07-31T14:26:47.065Z</time>
      </trkpt>
      <trkpt lat="42.99857167" lon="-1.10255">
        <ele>880.0</ele>
        <time>2019-07-31T14:26:48.070Z</time>
      </trkpt>
      <trkpt lat="42.998585" lon="-1.10254667">
        <ele>880.0</ele>
        <time>2019-07-31T14:26:49.074Z</time>
      </trkpt>
      <trkpt lat="42.998595" lon="-1.10254167">
        <ele>879.0</ele>
        <time>2019-07-31T14:26:50.080Z</time>
      </trkpt>
      <trkpt lat="42.99860833" lon="-1.10253667">
        <ele>880.0</ele>
        <time>2019-07-31T14:26:51.087Z</time>
      </trkpt>
      <trkpt lat="42.99861833" lon="-1.10253333">
        <ele>880.0</ele>
        <time>2019-07-31T14:26:52.092Z</time>
      </trkpt>
      <trkpt lat="42.99862833" lon="-1.10252833">
        <ele>880.0</ele>
        <time>2019-07-31T14:26:53.098Z</time>
      </trkpt>
      <trkpt lat="42.99863667" lon="-1.102525">
        <ele>880.0</ele>
        <time>2019-07-31T14:26:54.103Z</time>
      </trkpt>
      <trkpt lat="42.99865" lon="-1.10251833">
        <ele>880.0</ele>
        <time>2019-07-31T14:26:55.108Z</time>
      </trkpt>
      <trkpt lat="42.99866167" lon="-1.10251333">
        <ele>880.0</ele>
        <time>2019-07-31T14:26:56.112Z</time>
      </trkpt>
      <trkpt lat="42.99867667" lon="-1.10251667">
        <ele>880.0</ele>
        <time>2019-07-31T14:26:57.117Z</time>
      </trkpt>
      <trkpt lat="42.99868667" lon="-1.10252">
        <ele>879.0</ele>
        <time>2019-07-31T14:26:58.122Z</time>
      </trkpt>
      <trkpt lat="42.99869833" lon="-1.10251833">
        <ele>879.0</ele>
        <time>2019-07-31T14:26:59.128Z</time>
      </trkpt>
      <trkpt lat="42.99871333" lon="-1.102515">
        <ele>879.0</ele>
        <time>2019-07-31T14:27:00.133Z</time>
      </trkpt>
      <trkpt lat="42.99873" lon="-1.10251167">
        <ele>879.0</ele>
        <time>2019-07-31T14:27:01.138Z</time>
      </trkpt>
      <trkpt lat="42.99874667" lon="-1.10251167">
        <ele>879.0</ele>
        <time>2019-07-31T14:27:02.145Z</time>
      </trkpt>
      <trkpt lat="42.99875833" lon="-1.102515">
        <ele>879.0</ele>
        <time>2019-07-31T14:27:03.152Z</time>
      </trkpt>
      <trkpt lat="42.99876833" lon="-1.10250833">
        <ele>879.0</ele>
        <time>2019-07-31T14:27:04.158Z</time>
      </trkpt>
      <trkpt lat="42.99878667" lon="-1.10251333">
        <ele>878.0</ele>
        <time>2019-07-31T14:27:05.163Z</time>
      </trkpt>
      <trkpt lat="42.99880167" lon="-1.10251333">
        <ele>879.0</ele>
        <time>2019-07-31T14:27:06.169Z</time>
      </trkpt>
      <trkpt lat="42.99881333" lon="-1.10250833">
        <ele>880.0</ele>
        <time>2019-07-31T14:27:07.174Z</time>
      </trkpt>
      <trkpt lat="42.99882333" lon="-1.10250833">
        <ele>879.0</ele>
        <time>2019-07-31T14:27:08.176Z</time>
      </trkpt>
      <trkpt lat="42.99884167" lon="-1.10250833">
        <ele>879.0</ele>
        <time>2019-07-31T14:27:09.182Z</time>
      </trkpt>
      <trkpt lat="42.99886167" lon="-1.102505">
        <ele>878.0</ele>
        <time>2019-07-31T14:27:10.062Z</time>
      </trkpt>
      <trkpt lat="42.99888" lon="-1.10249833">
        <ele>878.0</ele>
        <time>2019-07-31T14:27:11.068Z</time>
      </trkpt>
      <trkpt lat="42.998885" lon="-1.10248667">
        <ele>879.0</ele>
        <time>2019-07-31T14:27:12.071Z</time>
      </trkpt>
      <trkpt lat="42.99889167" lon="-1.102475">
        <ele>880.0</ele>
        <time>2019-07-31T14:27:13.074Z</time>
      </trkpt>
      <trkpt lat="42.99891" lon="-1.10247333">
        <ele>880.0</ele>
        <time>2019-07-31T14:27:14.079Z</time>
      </trkpt>
      <trkpt lat="42.998925" lon="-1.10247833">
        <ele>879.0</ele>
        <time>2019-07-31T14:27:15.085Z</time>
      </trkpt>
      <trkpt lat="42.99894333" lon="-1.10249167">
        <ele>878.0</ele>
        <time>2019-07-31T14:27:16.090Z</time>
      </trkpt>
      <trkpt lat="42.998965" lon="-1.10249333">
        <ele>877.0</ele>
        <time>2019-07-31T14:27:17.093Z</time>
      </trkpt>
      <trkpt lat="42.99898" lon="-1.10249">
        <ele>876.0</ele>
        <time>2019-07-31T14:27:18.094Z</time>
      </trkpt>
      <trkpt lat="42.99899333" lon="-1.10248167">
        <ele>877.0</ele>
        <time>2019-07-31T14:27:19.098Z</time>
      </trkpt>
      <trkpt lat="42.999005" lon="-1.102475">
        <ele>878.0</ele>
        <time>2019-07-31T14:27:20.104Z</time>
      </trkpt>
      <trkpt lat="42.99901667" lon="-1.10247667">
        <ele>878.0</ele>
        <time>2019-07-31T14:27:21.110Z</time>
      </trkpt>
      <trkpt lat="42.99903333" lon="-1.10248167">
        <ele>877.0</ele>
        <time>2019-07-31T14:27:22.116Z</time>
      </trkpt>
      <trkpt lat="42.99904667" lon="-1.10247667">
        <ele>878.0</ele>
        <time>2019-07-31T14:27:23.120Z</time>
      </trkpt>
      <trkpt lat="42.999065" lon="-1.102465">
        <ele>878.0</ele>
        <time>2019-07-31T14:27:24.128Z</time>
      </trkpt>
      <trkpt lat="42.99907667" lon="-1.10246333">
        <ele>878.0</ele>
        <time>2019-07-31T14:27:25.133Z</time>
      </trkpt>
      <trkpt lat="42.99908833" lon="-1.10246">
        <ele>878.0</ele>
        <time>2019-07-31T14:27:26.137Z</time>
      </trkpt>
      <trkpt lat="42.99909833" lon="-1.10245333">
        <ele>878.0</ele>
        <time>2019-07-31T14:27:27.141Z</time>
      </trkpt>
      <trkpt lat="42.99911" lon="-1.10245">
        <ele>877.0</ele>
        <time>2019-07-31T14:27:28.145Z</time>
      </trkpt>
      <trkpt lat="42.99912" lon="-1.10244667">
        <ele>877.0</ele>
        <time>2019-07-31T14:27:29.149Z</time>
      </trkpt>
      <trkpt lat="42.99912667" lon="-1.10244">
        <ele>878.0</ele>
        <time>2019-07-31T14:27:30.154Z</time>
      </trkpt>
      <trkpt lat="42.99913667" lon="-1.10243833">
        <ele>879.0</ele>
        <time>2019-07-31T14:27:31.160Z</time>
      </trkpt>
      <trkpt lat="42.999145" lon="-1.10244">
        <ele>878.0</ele>
        <time>2019-07-31T14:27:32.165Z</time>
      </trkpt>
      <trkpt lat="42.999155" lon="-1.10243833">
        <ele>879.0</ele>
        <time>2019-07-31T14:27:33.169Z</time>
      </trkpt>
      <trkpt lat="42.99916833" lon="-1.10243667">
        <ele>879.0</ele>
        <time>2019-07-31T14:27:34.173Z</time>
      </trkpt>
      <trkpt lat="42.99918" lon="-1.10243167">
        <ele>878.0</ele>
        <time>2019-07-31T14:27:35.178Z</time>
      </trkpt>
      <trkpt lat="42.99919" lon="-1.10242333">
        <ele>878.0</ele>
        <time>2019-07-31T14:27:36.184Z</time>
      </trkpt>
      <trkpt lat="42.9992" lon="-1.10242">
        <ele>878.0</ele>
        <time>2019-07-31T14:27:37.063Z</time>
      </trkpt>
      <trkpt lat="42.99921333" lon="-1.10241833">
        <ele>878.0</ele>
        <time>2019-07-31T14:27:38.068Z</time>
      </trkpt>
      <trkpt lat="42.999225" lon="-1.102415">
        <ele>878.0</ele>
        <time>2019-07-31T14:27:39.074Z</time>
      </trkpt>
      <trkpt lat="42.99923833" lon="-1.10240667">
        <ele>878.0</ele>
        <time>2019-07-31T14:27:40.079Z</time>
      </trkpt>
      <trkpt lat="42.99924833" lon="-1.102405">
        <ele>878.0</ele>
        <time>2019-07-31T14:27:41.084Z</time>
      </trkpt>
      <trkpt lat="42.99926167" lon="-1.10240667">
        <ele>879.0</ele>
        <time>2019-07-31T14:27:42.089Z</time>
      </trkpt>
      <trkpt lat="42.99927333" lon="-1.10240333">
        <ele>879.0</ele>
        <time>2019-07-31T14:27:43.094Z</time>
      </trkpt>
      <trkpt lat="42.99928333" lon="-1.10240333">
        <ele>879.0</ele>
        <time>2019-07-31T14:27:44.102Z</time>
      </trkpt>
      <trkpt lat="42.999295" lon="-1.10239667">
        <ele>880.0</ele>
        <time>2019-07-31T14:27:45.109Z</time>
      </trkpt>
      <trkpt lat="42.999305" lon="-1.10239333">
        <ele>880.0</ele>
        <time>2019-07-31T14:27:46.115Z</time>
      </trkpt>
      <trkpt lat="42.99932" lon="-1.102395">
        <ele>880.0</ele>
        <time>2019-07-31T14:27:47.119Z</time>
      </trkpt>
      <trkpt lat="42.99933333" lon="-1.10239">
        <ele>881.0</ele>
        <time>2019-07-31T14:27:48.124Z</time>
      </trkpt>
      <trkpt lat="42.99934667" lon="-1.10238333">
        <ele>882.0</ele>
        <time>2019-07-31T14:27:49.131Z</time>
      </trkpt>
      <trkpt lat="42.99936167" lon="-1.10237167">
        <ele>883.0</ele>
        <time>2019-07-31T14:27:50.134Z</time>
      </trkpt>
      <trkpt lat="42.99937333" lon="-1.102365">
        <ele>883.0</ele>
        <time>2019-07-31T14:27:51.140Z</time>
      </trkpt>
      <trkpt lat="42.99939333" lon="-1.10236667">
        <ele>882.0</ele>
        <time>2019-07-31T14:27:52.145Z</time>
      </trkpt>
      <trkpt lat="42.99940333" lon="-1.10235667">
        <ele>883.0</ele>
        <time>2019-07-31T14:27:53.151Z</time>
      </trkpt>
      <trkpt lat="42.99940833" lon="-1.10233667">
        <ele>884.0</ele>
        <time>2019-07-31T14:27:54.157Z</time>
      </trkpt>
      <trkpt lat="42.99941833" lon="-1.10232167">
        <ele>886.0</ele>
        <time>2019-07-31T14:27:55.163Z</time>
      </trkpt>
      <trkpt lat="42.99943" lon="-1.10231">
        <ele>887.0</ele>
        <time>2019-07-31T14:27:56.168Z</time>
      </trkpt>
      <trkpt lat="42.99944333" lon="-1.1023">
        <ele>887.0</ele>
        <time>2019-07-31T14:27:57.172Z</time>
      </trkpt>
      <trkpt lat="42.99945333" lon="-1.10228667">
        <ele>888.0</ele>
        <time>2019-07-31T14:27:58.177Z</time>
      </trkpt>
      <trkpt lat="42.99946667" lon="-1.102285">
        <ele>889.0</ele>
        <time>2019-07-31T14:27:59.180Z</time>
      </trkpt>
      <trkpt lat="42.99948" lon="-1.10227167">
        <ele>890.0</ele>
        <time>2019-07-31T14:28:00.184Z</time>
      </trkpt>
      <trkpt lat="42.999495" lon="-1.10225833">
        <ele>891.0</ele>
        <time>2019-07-31T14:28:01.064Z</time>
      </trkpt>
      <trkpt lat="42.99951" lon="-1.102235">
        <ele>891.0</ele>
        <time>2019-07-31T14:28:02.069Z</time>
      </trkpt>
      <trkpt lat="42.99951667" lon="-1.10220833">
        <ele>891.0</ele>
        <time>2019-07-31T14:28:03.074Z</time>
      </trkpt>
      <trkpt lat="42.99952833" lon="-1.10218667">
        <ele>891.0</ele>
        <time>2019-07-31T14:28:04.080Z</time>
      </trkpt>
      <trkpt lat="42.99954167" lon="-1.10216667">
        <ele>892.0</ele>
        <time>2019-07-31T14:28:05.086Z</time>
      </trkpt>
      <trkpt lat="42.999555" lon="-1.10216">
        <ele>893.0</ele>
        <time>2019-07-31T14:28:06.091Z</time>
      </trkpt>
      <trkpt lat="42.99956833" lon="-1.102165">
        <ele>891.0</ele>
        <time>2019-07-31T14:28:07.096Z</time>
      </trkpt>
      <trkpt lat="42.99958333" lon="-1.10215667">
        <ele>890.0</ele>
        <time>2019-07-31T14:28:08.102Z</time>
      </trkpt>
      <trkpt lat="42.99960333" lon="-1.10214167">
        <ele>890.0</ele>
        <time>2019-07-31T14:28:09.107Z</time>
      </trkpt>
      <trkpt lat="42.999615" lon="-1.10213333">
        <ele>889.0</ele>
        <time>2019-07-31T14:28:10.113Z</time>
      </trkpt>
      <trkpt lat="42.99962333" lon="-1.10212333">
        <ele>889.0</ele>
        <time>2019-07-31T14:28:11.118Z</time>
      </trkpt>
      <trkpt lat="42.99963833" lon="-1.10211167">
        <ele>888.0</ele>
        <time>2019-07-31T14:28:12.125Z</time>
      </trkpt>
      <trkpt lat="42.99965667" lon="-1.10210667">
        <ele>888.0</ele>
        <time>2019-07-31T14:28:13.131Z</time>
      </trkpt>
      <trkpt lat="42.99966833" lon="-1.10209667">
        <ele>888.0</ele>
        <time>2019-07-31T14:28:14.136Z</time>
      </trkpt>
      <trkpt lat="42.99968167" lon="-1.10209667">
        <ele>889.0</ele>
        <time>2019-07-31T14:28:15.142Z</time>
      </trkpt>
      <trkpt lat="42.99969833" lon="-1.10208167">
        <ele>890.0</ele>
        <time>2019-07-31T14:28:16.148Z</time>
      </trkpt>
      <trkpt lat="42.99971333" lon="-1.10206">
        <ele>890.0</ele>
        <time>2019-07-31T14:28:17.154Z</time>
      </trkpt>
      <trkpt lat="42.99972167" lon="-1.10205">
        <ele>891.0</ele>
        <time>2019-07-31T14:28:18.161Z</time>
      </trkpt>
      <trkpt lat="42.999725" lon="-1.10202167">
        <ele>890.0</ele>
        <time>2019-07-31T14:28:19.167Z</time>
      </trkpt>
      <trkpt lat="42.99972833" lon="-1.102">
        <ele>889.0</ele>
        <time>2019-07-31T14:28:20.171Z</time>
      </trkpt>
      <trkpt lat="42.99973" lon="-1.10197">
        <ele>889.0</ele>
        <time>2019-07-31T14:28:21.175Z</time>
      </trkpt>
      <trkpt lat="42.99973167" lon="-1.10196333">
        <ele>888.0</ele>
        <time>2019-07-31T14:28:22.179Z</time>
      </trkpt>
      <trkpt lat="42.99972667" lon="-1.10194333">
        <ele>889.0</ele>
        <time>2019-07-31T14:28:23.185Z</time>
      </trkpt>
      <trkpt lat="42.99971833" lon="-1.10191833">
        <ele>889.0</ele>
        <time>2019-07-31T14:28:24.065Z</time>
      </trkpt>
      <trkpt lat="42.99972167" lon="-1.10190833">
        <ele>889.0</ele>
        <time>2019-07-31T14:28:25.070Z</time>
      </trkpt>
      <trkpt lat="42.99972667" lon="-1.101895">
        <ele>889.0</ele>
        <time>2019-07-31T14:28:26.075Z</time>
      </trkpt>
      <trkpt lat="42.99973167" lon="-1.10187667">
        <ele>888.0</ele>
        <time>2019-07-31T14:28:27.081Z</time>
      </trkpt>
      <trkpt lat="42.99973833" lon="-1.10185833">
        <ele>889.0</ele>
        <time>2019-07-31T14:28:28.086Z</time>
      </trkpt>
      <trkpt lat="42.99974167" lon="-1.10183167">
        <ele>890.0</ele>
        <time>2019-07-31T14:28:29.091Z</time>
      </trkpt>
      <trkpt lat="42.999745" lon="-1.10181833">
        <ele>891.0</ele>
        <time>2019-07-31T14:28:30.095Z</time>
      </trkpt>
      <trkpt lat="42.99974833" lon="-1.10179833">
        <ele>891.0</ele>
        <time>2019-07-31T14:28:31.101Z</time>
      </trkpt>
      <trkpt lat="42.99975167" lon="-1.10178167">
        <ele>891.0</ele>
        <time>2019-07-31T14:28:32.107Z</time>
      </trkpt>
      <trkpt lat="42.99975667" lon="-1.10176833">
        <ele>891.0</ele>
        <time>2019-07-31T14:28:33.111Z</time>
      </trkpt>
      <trkpt lat="42.99976333" lon="-1.10176">
        <ele>891.0</ele>
        <time>2019-07-31T14:28:34.116Z</time>
      </trkpt>
      <trkpt lat="42.99977167" lon="-1.10174833">
        <ele>891.0</ele>
        <time>2019-07-31T14:28:35.121Z</time>
      </trkpt>
      <trkpt lat="42.99978333" lon="-1.10173167">
        <ele>892.0</ele>
        <time>2019-07-31T14:28:36.126Z</time>
      </trkpt>
      <trkpt lat="42.99979167" lon="-1.10172167">
        <ele>892.0</ele>
        <time>2019-07-31T14:28:37.132Z</time>
      </trkpt>
      <trkpt lat="42.9998" lon="-1.10171333">
        <ele>892.0</ele>
        <time>2019-07-31T14:28:38.136Z</time>
      </trkpt>
      <trkpt lat="42.999805" lon="-1.10171">
        <ele>892.0</ele>
        <time>2019-07-31T14:28:39.143Z</time>
      </trkpt>
      <trkpt lat="42.999815" lon="-1.10171">
        <ele>892.0</ele>
        <time>2019-07-31T14:28:40.148Z</time>
      </trkpt>
      <trkpt lat="42.999825" lon="-1.101715">
        <ele>892.0</ele>
        <time>2019-07-31T14:28:41.153Z</time>
      </trkpt>
      <trkpt lat="42.99983167" lon="-1.10171833">
        <ele>892.0</ele>
        <time>2019-07-31T14:28:42.161Z</time>
      </trkpt>
      <trkpt lat="42.99983833" lon="-1.10172167">
        <ele>893.0</ele>
        <time>2019-07-31T14:28:43.166Z</time>
      </trkpt>
      <trkpt lat="42.999845" lon="-1.10172667">
        <ele>893.0</ele>
        <time>2019-07-31T14:28:44.170Z</time>
      </trkpt>
      <trkpt lat="42.99985167" lon="-1.10173833">
        <ele>894.0</ele>
        <time>2019-07-31T14:28:45.176Z</time>
      </trkpt>
      <trkpt lat="42.99985667" lon="-1.10175">
        <ele>895.0</ele>
        <time>2019-07-31T14:28:46.181Z</time>
      </trkpt>
      <trkpt lat="42.99986" lon="-1.10176">
        <ele>896.0</ele>
        <time>2019-07-31T14:28:47.186Z</time>
      </trkpt>
      <trkpt lat="42.99986833" lon="-1.10177333">
        <ele>896.0</ele>
        <time>2019-07-31T14:28:48.065Z</time>
      </trkpt>
      <trkpt lat="42.99987667" lon="-1.10178667">
        <ele>897.0</ele>
        <time>2019-07-31T14:28:49.071Z</time>
      </trkpt>
      <trkpt lat="42.99988833" lon="-1.10180333">
        <ele>897.0</ele>
        <time>2019-07-31T14:28:50.076Z</time>
      </trkpt>
      <trkpt lat="42.999895" lon="-1.101815">
        <ele>896.0</ele>
        <time>2019-07-31T14:28:51.081Z</time>
      </trkpt>
      <trkpt lat="42.99989667" lon="-1.10183">
        <ele>896.0</ele>
        <time>2019-07-31T14:28:52.088Z</time>
      </trkpt>
      <trkpt lat="42.9999" lon="-1.10184">
        <ele>895.0</ele>
        <time>2019-07-31T14:28:53.092Z</time>
      </trkpt>
      <trkpt lat="42.99989833" lon="-1.10184833">
        <ele>895.0</ele>
        <time>2019-07-31T14:28:54.097Z</time>
      </trkpt>
      <trkpt lat="42.9999" lon="-1.10185833">
        <ele>894.0</ele>
        <time>2019-07-31T14:28:55.103Z</time>
      </trkpt>
      <trkpt lat="42.99989333" lon="-1.10186333">
        <ele>894.0</ele>
        <time>2019-07-31T14:28:56.108Z</time>
      </trkpt>
      <trkpt lat="42.999885" lon="-1.10186333">
        <ele>894.0</ele>
        <time>2019-07-31T14:28:57.113Z</time>
      </trkpt>
      <trkpt lat="42.99987667" lon="-1.10186333">
        <ele>894.0</ele>
        <time>2019-07-31T14:28:58.120Z</time>
      </trkpt>
      <trkpt lat="42.99987167" lon="-1.101865">
        <ele>894.0</ele>
        <time>2019-07-31T14:28:59.128Z</time>
      </trkpt>
      <trkpt lat="42.999865" lon="-1.10186167">
        <ele>895.0</ele>
        <time>2019-07-31T14:29:00.133Z</time>
      </trkpt>
      <trkpt lat="42.99986" lon="-1.10186">
        <ele>895.0</ele>
        <time>2019-07-31T14:29:01.137Z</time>
      </trkpt>
      <trkpt lat="42.999855" lon="-1.101855">
        <ele>896.0</ele>
        <time>2019-07-31T14:29:02.141Z</time>
      </trkpt>
      <trkpt lat="42.99985333" lon="-1.101855">
        <ele>897.0</ele>
        <time>2019-07-31T14:29:03.146Z</time>
      </trkpt>
      <trkpt lat="42.99984833" lon="-1.10186833">
        <ele>896.0</ele>
        <time>2019-07-31T14:29:04.150Z</time>
      </trkpt>
      <trkpt lat="42.99984" lon="-1.101885">
        <ele>895.0</ele>
        <time>2019-07-31T14:29:05.156Z</time>
      </trkpt>
      <trkpt lat="42.99983167" lon="-1.101895">
        <ele>895.0</ele>
        <time>2019-07-31T14:29:06.162Z</time>
      </trkpt>
      <trkpt lat="42.999825" lon="-1.10190833">
        <ele>895.0</ele>
        <time>2019-07-31T14:29:07.168Z</time>
      </trkpt>
      <trkpt lat="42.99982167" lon="-1.10192">
        <ele>895.0</ele>
        <time>2019-07-31T14:29:08.170Z</time>
      </trkpt>
      <trkpt lat="42.99982" lon="-1.10193">
        <ele>896.0</ele>
        <time>2019-07-31T14:29:09.173Z</time>
      </trkpt>
      <trkpt lat="42.99981833" lon="-1.101945">
        <ele>896.0</ele>
        <time>2019-07-31T14:29:10.179Z</time>
      </trkpt>
      <trkpt lat="42.99981833" lon="-1.10195833">
        <ele>896.0</ele>
        <time>2019-07-31T14:29:11.184Z</time>
      </trkpt>
      <trkpt lat="42.99981667" lon="-1.10197333">
        <ele>895.0</ele>
        <time>2019-07-31T14:29:12.064Z</time>
      </trkpt>
      <trkpt lat="42.99981667" lon="-1.101985">
        <ele>895.0</ele>
        <time>2019-07-31T14:29:13.071Z</time>
      </trkpt>
      <trkpt lat="42.99981833" lon="-1.10199833">
        <ele>895.0</ele>
        <time>2019-07-31T14:29:14.075Z</time>
      </trkpt>
      <trkpt lat="42.99981833" lon="-1.10200833">
        <ele>895.0</ele>
        <time>2019-07-31T14:29:15.081Z</time>
      </trkpt>
      <trkpt lat="42.99982" lon="-1.10201667">
        <ele>895.0</ele>
        <time>2019-07-31T14:29:16.086Z</time>
      </trkpt>
      <trkpt lat="42.99982167" lon="-1.10203167">
        <ele>895.0</ele>
        <time>2019-07-31T14:29:17.092Z</time>
      </trkpt>
      <trkpt lat="42.99982167" lon="-1.10204333">
        <ele>896.0</ele>
        <time>2019-07-31T14:29:18.097Z</time>
      </trkpt>
      <trkpt lat="42.99982333" lon="-1.102055">
        <ele>896.0</ele>
        <time>2019-07-31T14:29:19.102Z</time>
      </trkpt>
      <trkpt lat="42.99982167" lon="-1.102065">
        <ele>897.0</ele>
        <time>2019-07-31T14:29:20.107Z</time>
      </trkpt>
      <trkpt lat="42.99982" lon="-1.10207167">
        <ele>897.0</ele>
        <time>2019-07-31T14:29:21.110Z</time>
      </trkpt>
      <trkpt lat="42.99981667" lon="-1.10207167">
        <ele>897.0</ele>
        <time>2019-07-31T14:29:22.115Z</time>
      </trkpt>
      <trkpt lat="42.99981667" lon="-1.10206667">
        <ele>898.0</ele>
        <time>2019-07-31T14:29:23.122Z</time>
      </trkpt>
      <trkpt lat="42.99981833" lon="-1.10206333">
        <ele>898.0</ele>
        <time>2019-07-31T14:29:24.127Z</time>
      </trkpt>
      <trkpt lat="42.99982" lon="-1.10205667">
        <ele>898.0</ele>
        <time>2019-07-31T14:29:25.132Z</time>
      </trkpt>
      <trkpt lat="42.99982333" lon="-1.10205667">
        <ele>899.0</ele>
        <time>2019-07-31T14:29:26.137Z</time>
      </trkpt>
      <trkpt lat="42.99982167" lon="-1.10206333">
        <ele>899.0</ele>
        <time>2019-07-31T14:29:27.142Z</time>
      </trkpt>
      <trkpt lat="42.99981167" lon="-1.10206667">
        <ele>900.0</ele>
        <time>2019-07-31T14:29:28.145Z</time>
      </trkpt>
      <trkpt lat="42.99981" lon="-1.10207167">
        <ele>901.0</ele>
        <time>2019-07-31T14:29:29.151Z</time>
      </trkpt>
      <trkpt lat="42.99981" lon="-1.10207833">
        <ele>902.0</ele>
        <time>2019-07-31T14:29:30.159Z</time>
      </trkpt>
      <trkpt lat="42.99980833" lon="-1.10207667">
        <ele>903.0</ele>
        <time>2019-07-31T14:29:31.166Z</time>
      </trkpt>
      <trkpt lat="42.99980833" lon="-1.10207833">
        <ele>903.0</ele>
        <time>2019-07-31T14:29:32.171Z</time>
      </trkpt>
      <trkpt lat="42.99980833" lon="-1.10207833">
        <ele>903.0</ele>
        <time>2019-07-31T14:29:33.177Z</time>
      </trkpt>
      <trkpt lat="42.99980667" lon="-1.10207667">
        <ele>903.0</ele>
        <time>2019-07-31T14:29:34.182Z</time>
      </trkpt>
      <trkpt lat="42.999805" lon="-1.10207333">
        <ele>904.0</ele>
        <time>2019-07-31T14:29:35.062Z</time>
      </trkpt>
      <trkpt lat="42.999805" lon="-1.10207167">
        <ele>904.0</ele>
        <time>2019-07-31T14:29:36.065Z</time>
      </trkpt>
      <trkpt lat="42.999805" lon="-1.10207">
        <ele>905.0</ele>
        <time>2019-07-31T14:29:37.072Z</time>
      </trkpt>
      <trkpt lat="42.99980333" lon="-1.10207167">
        <ele>906.0</ele>
        <time>2019-07-31T14:29:38.076Z</time>
      </trkpt>
      <trkpt lat="42.99980167" lon="-1.10207333">
        <ele>906.0</ele>
        <time>2019-07-31T14:29:39.082Z</time>
      </trkpt>
      <trkpt lat="42.9998" lon="-1.10207">
        <ele>907.0</ele>
        <time>2019-07-31T14:29:40.087Z</time>
      </trkpt>
      <trkpt lat="42.99979667" lon="-1.102065">
        <ele>907.0</ele>
        <time>2019-07-31T14:29:41.093Z</time>
      </trkpt>
      <trkpt lat="42.99979667" lon="-1.102065">
        <ele>907.0</ele>
        <time>2019-07-31T14:29:42.097Z</time>
      </trkpt>
      <trkpt lat="42.99980167" lon="-1.10206">
        <ele>906.0</ele>
        <time>2019-07-31T14:29:43.101Z</time>
      </trkpt>
      <trkpt lat="42.99979833" lon="-1.10206">
        <ele>906.0</ele>
        <time>2019-07-31T14:29:44.108Z</time>
      </trkpt>
      <trkpt lat="42.99979667" lon="-1.10206">
        <ele>906.0</ele>
        <time>2019-07-31T14:29:45.114Z</time>
      </trkpt>
      <trkpt lat="42.99979667" lon="-1.10206333">
        <ele>906.0</ele>
        <time>2019-07-31T14:29:46.116Z</time>
      </trkpt>
      <trkpt lat="42.99979833" lon="-1.10206333">
        <ele>905.0</ele>
        <time>2019-07-31T14:29:47.120Z</time>
      </trkpt>
      <trkpt lat="42.99980333" lon="-1.102065">
        <ele>903.0</ele>
        <time>2019-07-31T14:29:48.126Z</time>
      </trkpt>
      <trkpt lat="42.99980667" lon="-1.10206667">
        <ele>901.0</ele>
        <time>2019-07-31T14:29:49.129Z</time>
      </trkpt>
      <trkpt lat="42.99981" lon="-1.10206833">
        <ele>901.0</ele>
        <time>2019-07-31T14:29:50.134Z</time>
      </trkpt>
      <trkpt lat="42.99981167" lon="-1.10206667">
        <ele>901.0</ele>
        <time>2019-07-31T14:29:51.139Z</time>
      </trkpt>
      <trkpt lat="42.99981667" lon="-1.10206833">
        <ele>901.0</ele>
        <time>2019-07-31T14:29:52.145Z</time>
      </trkpt>
      <trkpt lat="42.99982" lon="-1.10206333">
        <ele>901.0</ele>
        <time>2019-07-31T14:29:53.150Z</time>
      </trkpt>
      <trkpt lat="42.999825" lon="-1.10205667">
        <ele>901.0</ele>
        <time>2019-07-31T14:29:54.153Z</time>
      </trkpt>
      <trkpt lat="42.99982667" lon="-1.10204167">
        <ele>900.0</ele>
        <time>2019-07-31T14:29:55.159Z</time>
      </trkpt>
      <trkpt lat="42.99982667" lon="-1.10202667">
        <ele>900.0</ele>
        <time>2019-07-31T14:29:56.164Z</time>
      </trkpt>
      <trkpt lat="42.99982667" lon="-1.10200833">
        <ele>900.0</ele>
        <time>2019-07-31T14:29:57.170Z</time>
      </trkpt>
      <trkpt lat="42.999825" lon="-1.10199">
        <ele>900.0</ele>
        <time>2019-07-31T14:29:58.176Z</time>
      </trkpt>
      <trkpt lat="42.99982333" lon="-1.10197167">
        <ele>900.0</ele>
        <time>2019-07-31T14:29:59.179Z</time>
      </trkpt>
      <trkpt lat="42.99982333" lon="-1.10195333">
        <ele>900.0</ele>
        <time>2019-07-31T14:30:00.184Z</time>
      </trkpt>
      <trkpt lat="42.99982" lon="-1.10193833">
        <ele>900.0</ele>
        <time>2019-07-31T14:30:01.064Z</time>
      </trkpt>
      <trkpt lat="42.99981833" lon="-1.10193">
        <ele>899.0</ele>
        <time>2019-07-31T14:30:02.071Z</time>
      </trkpt>
      <trkpt lat="42.99981667" lon="-1.10193">
        <ele>898.0</ele>
        <time>2019-07-31T14:30:03.078Z</time>
      </trkpt>
      <trkpt lat="42.999815" lon="-1.10193">
        <ele>897.0</ele>
        <time>2019-07-31T14:30:04.084Z</time>
      </trkpt>
      <trkpt lat="42.99981" lon="-1.10193">
        <ele>896.0</ele>
        <time>2019-07-31T14:30:05.088Z</time>
      </trkpt>
      <trkpt lat="42.99980833" lon="-1.10192667">
        <ele>895.0</ele>
        <time>2019-07-31T14:30:06.093Z</time>
      </trkpt>
      <trkpt lat="42.99981" lon="-1.10192667">
        <ele>895.0</ele>
        <time>2019-07-31T14:30:07.097Z</time>
      </trkpt>
      <trkpt lat="42.99981167" lon="-1.10193333">
        <ele>895.0</ele>
        <time>2019-07-31T14:30:08.104Z</time>
      </trkpt>
      <trkpt lat="42.99981167" lon="-1.10193333">
        <ele>895.0</ele>
        <time>2019-07-31T14:30:09.111Z</time>
      </trkpt>
      <trkpt lat="42.99981333" lon="-1.10193">
        <ele>895.0</ele>
        <time>2019-07-31T14:30:10.115Z</time>
      </trkpt>
      <trkpt lat="42.99981" lon="-1.10192667">
        <ele>897.0</ele>
        <time>2019-07-31T14:30:11.120Z</time>
      </trkpt>
      <trkpt lat="42.99980833" lon="-1.101925">
        <ele>897.0</ele>
        <time>2019-07-31T14:30:12.125Z</time>
      </trkpt>
      <trkpt lat="42.99981" lon="-1.10192833">
        <ele>898.0</ele>
        <time>2019-07-31T14:30:13.133Z</time>
      </trkpt>
      <trkpt lat="42.99981" lon="-1.10192667">
        <ele>898.0</ele>
        <time>2019-07-31T14:30:14.139Z</time>
      </trkpt>
      <trkpt lat="42.99981" lon="-1.10192667">
        <ele>899.0</ele>
        <time>2019-07-31T14:30:15.143Z</time>
      </trkpt>
      <trkpt lat="42.99980833" lon="-1.10193167">
        <ele>899.0</ele>
        <time>2019-07-31T14:30:16.150Z</time>
      </trkpt>
      <trkpt lat="42.99981" lon="-1.10194">
        <ele>899.0</ele>
        <time>2019-07-31T14:30:17.156Z</time>
      </trkpt>
      <trkpt lat="42.99981" lon="-1.10194333">
        <ele>899.0</ele>
        <time>2019-07-31T14:30:18.163Z</time>
      </trkpt>
      <trkpt lat="42.99980833" lon="-1.10194333">
        <ele>900.0</ele>
        <time>2019-07-31T14:30:19.167Z</time>
      </trkpt>
      <trkpt lat="42.99980667" lon="-1.101945">
        <ele>900.0</ele>
        <time>2019-07-31T14:30:20.172Z</time>
      </trkpt>
      <trkpt lat="42.99980833" lon="-1.10195">
        <ele>900.0</ele>
        <time>2019-07-31T14:30:21.176Z</time>
      </trkpt>
      <trkpt lat="42.99980833" lon="-1.10195833">
        <ele>900.0</ele>
        <time>2019-07-31T14:30:22.180Z</time>
      </trkpt>
      <trkpt lat="42.99981167" lon="-1.10196833">
        <ele>899.0</ele>
        <time>2019-07-31T14:30:23.185Z</time>
      </trkpt>
      <trkpt lat="42.99981333" lon="-1.10197833">
        <ele>899.0</ele>
        <time>2019-07-31T14:30:24.064Z</time>
      </trkpt>
      <trkpt lat="42.99981333" lon="-1.10198833">
        <ele>899.0</ele>
        <time>2019-07-31T14:30:25.071Z</time>
      </trkpt>
      <trkpt lat="42.99981" lon="-1.10199833">
        <ele>899.0</ele>
        <time>2019-07-31T14:30:26.077Z</time>
      </trkpt>
      <trkpt lat="42.99981" lon="-1.102005">
        <ele>900.0</ele>
        <time>2019-07-31T14:30:27.084Z</time>
      </trkpt>
      <trkpt lat="42.99980667" lon="-1.10200667">
        <ele>901.0</ele>
        <time>2019-07-31T14:30:28.089Z</time>
      </trkpt>
      <trkpt lat="42.99980333" lon="-1.10200833">
        <ele>901.0</ele>
        <time>2019-07-31T14:30:29.094Z</time>
      </trkpt>
      <trkpt lat="42.9998" lon="-1.10201167">
        <ele>902.0</ele>
        <time>2019-07-31T14:30:30.099Z</time>
      </trkpt>
      <trkpt lat="42.99979667" lon="-1.102015">
        <ele>903.0</ele>
        <time>2019-07-31T14:30:31.105Z</time>
      </trkpt>
      <trkpt lat="42.99979167" lon="-1.10200667">
        <ele>903.0</ele>
        <time>2019-07-31T14:30:32.111Z</time>
      </trkpt>
      <trkpt lat="42.99978333" lon="-1.102">
        <ele>904.0</ele>
        <time>2019-07-31T14:30:33.114Z</time>
      </trkpt>
      <trkpt lat="42.99978" lon="-1.102">
        <ele>904.0</ele>
        <time>2019-07-31T14:30:34.117Z</time>
      </trkpt>
      <trkpt lat="42.99977833" lon="-1.10200833">
        <ele>905.0</ele>
        <time>2019-07-31T14:30:35.123Z</time>
      </trkpt>
      <trkpt lat="42.99977667" lon="-1.10202167">
        <ele>905.0</ele>
        <time>2019-07-31T14:30:36.128Z</time>
      </trkpt>
      <trkpt lat="42.99977167" lon="-1.10203333">
        <ele>905.0</ele>
        <time>2019-07-31T14:30:37.133Z</time>
      </trkpt>
      <trkpt lat="42.99976667" lon="-1.10206">
        <ele>905.0</ele>
        <time>2019-07-31T14:30:38.135Z</time>
      </trkpt>
      <trkpt lat="42.99976667" lon="-1.10209">
        <ele>905.0</ele>
        <time>2019-07-31T14:30:39.137Z</time>
      </trkpt>
      <trkpt lat="42.99976333" lon="-1.10211">
        <ele>905.0</ele>
        <time>2019-07-31T14:30:40.143Z</time>
      </trkpt>
      <trkpt lat="42.99976" lon="-1.102125">
        <ele>906.0</ele>
        <time>2019-07-31T14:30:41.149Z</time>
      </trkpt>
      <trkpt lat="42.99975833" lon="-1.10212333">
        <ele>907.0</ele>
        <time>2019-07-31T14:30:42.154Z</time>
      </trkpt>
      <trkpt lat="42.99976667" lon="-1.10212333">
        <ele>909.0</ele>
        <time>2019-07-31T14:30:43.161Z</time>
      </trkpt>
      <trkpt lat="42.99977833" lon="-1.10212">
        <ele>909.0</ele>
        <time>2019-07-31T14:30:44.168Z</time>
      </trkpt>
      <trkpt lat="42.99979" lon="-1.10212333">
        <ele>908.0</ele>
        <time>2019-07-31T14:30:45.175Z</time>
      </trkpt>
      <trkpt lat="42.999805" lon="-1.10212333">
        <ele>908.0</ele>
        <time>2019-07-31T14:30:46.180Z</time>
      </trkpt>
      <trkpt lat="42.99982167" lon="-1.10212167">
        <ele>908.0</ele>
        <time>2019-07-31T14:30:47.185Z</time>
      </trkpt>
      <trkpt lat="42.99983167" lon="-1.10210333">
        <ele>909.0</ele>
        <time>2019-07-31T14:30:48.065Z</time>
      </trkpt>
      <trkpt lat="42.99984" lon="-1.10209667">
        <ele>909.0</ele>
        <time>2019-07-31T14:30:49.071Z</time>
      </trkpt>
      <trkpt lat="42.99985667" lon="-1.102105">
        <ele>909.0</ele>
        <time>2019-07-31T14:30:50.078Z</time>
      </trkpt>
      <trkpt lat="42.99985667" lon="-1.10209333">
        <ele>910.0</ele>
        <time>2019-07-31T14:30:51.083Z</time>
      </trkpt>
      <trkpt lat="42.99985167" lon="-1.10206667">
        <ele>912.0</ele>
        <time>2019-07-31T14:30:52.088Z</time>
      </trkpt>
      <trkpt lat="42.99984667" lon="-1.10203333">
        <ele>912.0</ele>
        <time>2019-07-31T14:30:53.094Z</time>
      </trkpt>
      <trkpt lat="42.99984667" lon="-1.10201">
        <ele>910.0</ele>
        <time>2019-07-31T14:30:54.099Z</time>
      </trkpt>
      <trkpt lat="42.99985167" lon="-1.10199">
        <ele>911.0</ele>
        <time>2019-07-31T14:30:55.103Z</time>
      </trkpt>
      <trkpt lat="42.99985833" lon="-1.10197">
        <ele>911.0</ele>
        <time>2019-07-31T14:30:56.109Z</time>
      </trkpt>
      <trkpt lat="42.99987" lon="-1.10196333">
        <ele>909.0</ele>
        <time>2019-07-31T14:30:57.115Z</time>
      </trkpt>
      <trkpt lat="42.99988" lon="-1.10196333">
        <ele>907.0</ele>
        <time>2019-07-31T14:30:58.117Z</time>
      </trkpt>
      <trkpt lat="42.999895" lon="-1.10196833">
        <ele>907.0</ele>
        <time>2019-07-31T14:30:59.119Z</time>
      </trkpt>
      <trkpt lat="42.99990333" lon="-1.10198833">
        <ele>905.0</ele>
        <time>2019-07-31T14:31:00.123Z</time>
      </trkpt>
      <trkpt lat="42.99989833" lon="-1.10199333">
        <ele>905.0</ele>
        <time>2019-07-31T14:31:01.128Z</time>
      </trkpt>
      <trkpt lat="42.99989833" lon="-1.10201667">
        <ele>904.0</ele>
        <time>2019-07-31T14:31:02.136Z</time>
      </trkpt>
      <trkpt lat="42.9999" lon="-1.10202833">
        <ele>904.0</ele>
        <time>2019-07-31T14:31:03.141Z</time>
      </trkpt>
      <trkpt lat="42.99990833" lon="-1.10203833">
        <ele>904.0</ele>
        <time>2019-07-31T14:31:04.149Z</time>
      </trkpt>
      <trkpt lat="42.99991167" lon="-1.10205">
        <ele>905.0</ele>
        <time>2019-07-31T14:31:05.153Z</time>
      </trkpt>
      <trkpt lat="42.99991833" lon="-1.10206833">
        <ele>905.0</ele>
        <time>2019-07-31T14:31:06.158Z</time>
      </trkpt>
      <trkpt lat="42.99992833" lon="-1.10207833">
        <ele>905.0</ele>
        <time>2019-07-31T14:31:07.163Z</time>
      </trkpt>
      <trkpt lat="42.99993333" lon="-1.10209">
        <ele>905.0</ele>
        <time>2019-07-31T14:31:08.170Z</time>
      </trkpt>
      <trkpt lat="42.99993833" lon="-1.10209167">
        <ele>906.0</ele>
        <time>2019-07-31T14:31:09.176Z</time>
      </trkpt>
      <trkpt lat="42.99993833" lon="-1.10209167">
        <ele>908.0</ele>
        <time>2019-07-31T14:31:10.181Z</time>
      </trkpt>
      <trkpt lat="42.99993667" lon="-1.10209333">
        <ele>910.0</ele>
        <time>2019-07-31T14:31:11.186Z</time>
      </trkpt>
      <trkpt lat="42.99994" lon="-1.102105">
        <ele>910.0</ele>
        <time>2019-07-31T14:31:12.065Z</time>
      </trkpt>
      <trkpt lat="42.99994833" lon="-1.102115">
        <ele>910.0</ele>
        <time>2019-07-31T14:31:13.071Z</time>
      </trkpt>
      <trkpt lat="42.999955" lon="-1.10211667">
        <ele>910.0</ele>
        <time>2019-07-31T14:31:14.077Z</time>
      </trkpt>
      <trkpt lat="42.99996333" lon="-1.10212167">
        <ele>911.0</ele>
        <time>2019-07-31T14:31:15.082Z</time>
      </trkpt>
      <trkpt lat="42.99996667" lon="-1.10212333">
        <ele>911.0</ele>
        <time>2019-07-31T14:31:16.088Z</time>
      </trkpt>
      <trkpt lat="42.99997167" lon="-1.10212833">
        <ele>911.0</ele>
        <time>2019-07-31T14:31:17.092Z</time>
      </trkpt>
      <trkpt lat="42.99997667" lon="-1.102135">
        <ele>911.0</ele>
        <time>2019-07-31T14:31:18.098Z</time>
      </trkpt>
      <trkpt lat="42.99998167" lon="-1.10214333">
        <ele>911.0</ele>
        <time>2019-07-31T14:31:19.105Z</time>
      </trkpt>
      <trkpt lat="42.99998333" lon="-1.10215">
        <ele>911.0</ele>
        <time>2019-07-31T14:31:20.110Z</time>
      </trkpt>
      <trkpt lat="42.99998833" lon="-1.102155">
        <ele>911.0</ele>
        <time>2019-07-31T14:31:21.116Z</time>
      </trkpt>
      <trkpt lat="42.99999333" lon="-1.10215833">
        <ele>911.0</ele>
        <time>2019-07-31T14:31:22.118Z</time>
      </trkpt>
      <trkpt lat="42.99999667" lon="-1.10216">
        <ele>911.0</ele>
        <time>2019-07-31T14:31:23.122Z</time>
      </trkpt>
      <trkpt lat="42.99999667" lon="-1.10215667">
        <ele>911.0</ele>
        <time>2019-07-31T14:31:24.127Z</time>
      </trkpt>
      <trkpt lat="42.99999833" lon="-1.10216">
        <ele>912.0</ele>
        <time>2019-07-31T14:31:25.132Z</time>
      </trkpt>
      <trkpt lat="43.0" lon="-1.10215833">
        <ele>912.0</ele>
        <time>2019-07-31T14:31:26.138Z</time>
      </trkpt>
      <trkpt lat="42.99999833" lon="-1.10215167">
        <ele>912.0</ele>
        <time>2019-07-31T14:31:27.144Z</time>
      </trkpt>
      <trkpt lat="43.0" lon="-1.10214833">
        <ele>912.0</ele>
        <time>2019-07-31T14:31:28.152Z</time>
      </trkpt>
      <trkpt lat="43.00000167" lon="-1.10214833">
        <ele>912.0</ele>
        <time>2019-07-31T14:31:29.154Z</time>
      </trkpt>
      <trkpt lat="43.000005" lon="-1.10214833">
        <ele>912.0</ele>
        <time>2019-07-31T14:31:30.162Z</time>
      </trkpt>
      <trkpt lat="43.00000667" lon="-1.10215">
        <ele>912.0</ele>
        <time>2019-07-31T14:31:31.168Z</time>
      </trkpt>
      <trkpt lat="43.00000667" lon="-1.10214667">
        <ele>912.0</ele>
        <time>2019-07-31T14:31:32.171Z</time>
      </trkpt>
      <trkpt lat="43.00000833" lon="-1.102145">
        <ele>913.0</ele>
        <time>2019-07-31T14:31:33.176Z</time>
      </trkpt>
      <trkpt lat="43.00001167" lon="-1.102145">
        <ele>913.0</ele>
        <time>2019-07-31T14:31:34.182Z</time>
      </trkpt>
      <trkpt lat="43.00001667" lon="-1.10214833">
        <ele>913.0</ele>
        <time>2019-07-31T14:31:35.061Z</time>
      </trkpt>
      <trkpt lat="43.00002167" lon="-1.10215167">
        <ele>914.0</ele>
        <time>2019-07-31T14:31:36.065Z</time>
      </trkpt>
      <trkpt lat="43.00002667" lon="-1.102155">
        <ele>915.0</ele>
        <time>2019-07-31T14:31:37.070Z</time>
      </trkpt>
      <trkpt lat="43.00002833" lon="-1.10215667">
        <ele>915.0</ele>
        <time>2019-07-31T14:31:38.078Z</time>
      </trkpt>
      <trkpt lat="43.00002833" lon="-1.10215667">
        <ele>916.0</ele>
        <time>2019-07-31T14:31:39.084Z</time>
      </trkpt>
      <trkpt lat="43.00002833" lon="-1.10215833">
        <ele>916.0</ele>
        <time>2019-07-31T14:31:40.090Z</time>
      </trkpt>
      <trkpt lat="43.000025" lon="-1.10216167">
        <ele>916.0</ele>
        <time>2019-07-31T14:31:41.095Z</time>
      </trkpt>
      <trkpt lat="43.00002167" lon="-1.102165">
        <ele>917.0</ele>
        <time>2019-07-31T14:31:42.098Z</time>
      </trkpt>
      <trkpt lat="43.00002" lon="-1.10216833">
        <ele>917.0</ele>
        <time>2019-07-31T14:31:43.104Z</time>
      </trkpt>
      <trkpt lat="43.00002" lon="-1.10217">
        <ele>917.0</ele>
        <time>2019-07-31T14:31:44.110Z</time>
      </trkpt>
      <trkpt lat="43.00001833" lon="-1.10216833">
        <ele>918.0</ele>
        <time>2019-07-31T14:31:45.116Z</time>
      </trkpt>
      <trkpt lat="43.00002" lon="-1.10217333">
        <ele>918.0</ele>
        <time>2019-07-31T14:31:46.122Z</time>
      </trkpt>
      <trkpt lat="43.00002" lon="-1.10217667">
        <ele>918.0</ele>
        <time>2019-07-31T14:31:47.128Z</time>
      </trkpt>
      <trkpt lat="43.00002" lon="-1.102175">
        <ele>919.0</ele>
        <time>2019-07-31T14:31:48.134Z</time>
      </trkpt>
      <trkpt lat="43.00002" lon="-1.10217333">
        <ele>919.0</ele>
        <time>2019-07-31T14:31:49.141Z</time>
      </trkpt>
      <trkpt lat="43.00002333" lon="-1.10217333">
        <ele>919.0</ele>
        <time>2019-07-31T14:31:50.146Z</time>
      </trkpt>
      <trkpt lat="43.00002" lon="-1.10217167">
        <ele>919.0</ele>
        <time>2019-07-31T14:31:51.152Z</time>
      </trkpt>
      <trkpt lat="43.000015" lon="-1.10217">
        <ele>918.0</ele>
        <time>2019-07-31T14:31:52.157Z</time>
      </trkpt>
      <trkpt lat="43.000015" lon="-1.10216833">
        <ele>918.0</ele>
        <time>2019-07-31T14:31:53.163Z</time>
      </trkpt>
      <trkpt lat="43.000015" lon="-1.10216667">
        <ele>918.0</ele>
        <time>2019-07-31T14:31:54.170Z</time>
      </trkpt>
      <trkpt lat="43.00001833" lon="-1.102165">
        <ele>918.0</ele>
        <time>2019-07-31T14:31:55.175Z</time>
      </trkpt>
      <trkpt lat="43.00002" lon="-1.10216333">
        <ele>919.0</ele>
        <time>2019-07-31T14:31:56.180Z</time>
      </trkpt>
      <trkpt lat="43.00002" lon="-1.10216333">
        <ele>919.0</ele>
        <time>2019-07-31T14:31:57.185Z</time>
      </trkpt>
      <trkpt lat="43.00002167" lon="-1.10216167">
        <ele>919.0</ele>
        <time>2019-07-31T14:31:58.064Z</time>
      </trkpt>
      <trkpt lat="43.00002333" lon="-1.10216">
        <ele>919.0</ele>
        <time>2019-07-31T14:31:59.071Z</time>
      </trkpt>
      <trkpt lat="43.00002833" lon="-1.10216">
        <ele>919.0</ele>
        <time>2019-07-31T14:32:00.078Z</time>
      </trkpt>
      <trkpt lat="43.00003167" lon="-1.10216333">
        <ele>919.0</ele>
        <time>2019-07-31T14:32:01.083Z</time>
      </trkpt>
      <trkpt lat="43.00003333" lon="-1.10216167">
        <ele>918.0</ele>
        <time>2019-07-31T14:32:02.088Z</time>
      </trkpt>
      <trkpt lat="43.000035" lon="-1.10216167">
        <ele>918.0</ele>
        <time>2019-07-31T14:32:03.092Z</time>
      </trkpt>
      <trkpt lat="43.00003333" lon="-1.102165">
        <ele>917.0</ele>
        <time>2019-07-31T14:32:04.097Z</time>
      </trkpt>
      <trkpt lat="43.00002833" lon="-1.10216833">
        <ele>917.0</ele>
        <time>2019-07-31T14:32:05.101Z</time>
      </trkpt>
      <trkpt lat="43.00002" lon="-1.10216833">
        <ele>916.0</ele>
        <time>2019-07-31T14:32:06.107Z</time>
      </trkpt>
      <trkpt lat="43.00001833" lon="-1.10217">
        <ele>916.0</ele>
        <time>2019-07-31T14:32:07.112Z</time>
      </trkpt>
      <trkpt lat="43.000015" lon="-1.10217167">
        <ele>916.0</ele>
        <time>2019-07-31T14:32:08.119Z</time>
      </trkpt>
      <trkpt lat="43.00001" lon="-1.10217">
        <ele>916.0</ele>
        <time>2019-07-31T14:32:09.124Z</time>
      </trkpt>
      <trkpt lat="43.00000667" lon="-1.10217333">
        <ele>916.0</ele>
        <time>2019-07-31T14:32:10.131Z</time>
      </trkpt>
      <trkpt lat="43.000005" lon="-1.10217833">
        <ele>915.0</ele>
        <time>2019-07-31T14:32:11.136Z</time>
      </trkpt>
      <trkpt lat="43.00000667" lon="-1.102185">
        <ele>914.0</ele>
        <time>2019-07-31T14:32:12.143Z</time>
      </trkpt>
      <trkpt lat="43.00000833" lon="-1.10219333">
        <ele>913.0</ele>
        <time>2019-07-31T14:32:13.147Z</time>
      </trkpt>
      <trkpt lat="43.00000833" lon="-1.1022">
        <ele>913.0</ele>
        <time>2019-07-31T14:32:14.152Z</time>
      </trkpt>
      <trkpt lat="43.00001" lon="-1.10219833">
        <ele>914.0</ele>
        <time>2019-07-31T14:32:15.159Z</time>
      </trkpt>
      <trkpt lat="43.00001167" lon="-1.10219">
        <ele>914.0</ele>
        <time>2019-07-31T14:32:16.166Z</time>
      </trkpt>
      <trkpt lat="43.00001333" lon="-1.10217167">
        <ele>915.0</ele>
        <time>2019-07-31T14:32:17.171Z</time>
      </trkpt>
      <trkpt lat="43.000015" lon="-1.10216833">
        <ele>915.0</ele>
        <time>2019-07-31T14:32:18.174Z</time>
      </trkpt>
      <trkpt lat="43.00001167" lon="-1.10217">
        <ele>915.0</ele>
        <time>2019-07-31T14:32:19.177Z</time>
      </trkpt>
      <trkpt lat="43.000015" lon="-1.102165">
        <ele>915.0</ele>
        <time>2019-07-31T14:32:20.181Z</time>
      </trkpt>
      <trkpt lat="43.00002167" lon="-1.10215667">
        <ele>914.0</ele>
        <time>2019-07-31T14:32:21.062Z</time>
      </trkpt>
      <trkpt lat="43.00003" lon="-1.10216333">
        <ele>913.0</ele>
        <time>2019-07-31T14:32:22.068Z</time>
      </trkpt>
      <trkpt lat="43.000035" lon="-1.10216833">
        <ele>912.0</ele>
        <time>2019-07-31T14:32:23.075Z</time>
      </trkpt>
      <trkpt lat="43.00003333" lon="-1.10216333">
        <ele>912.0</ele>
        <time>2019-07-31T14:32:24.079Z</time>
      </trkpt>
      <trkpt lat="43.00002833" lon="-1.102155">
        <ele>912.0</ele>
        <time>2019-07-31T14:32:25.081Z</time>
      </trkpt>
      <trkpt lat="43.00002667" lon="-1.10214667">
        <ele>911.0</ele>
        <time>2019-07-31T14:32:26.085Z</time>
      </trkpt>
      <trkpt lat="43.00002667" lon="-1.10214">
        <ele>912.0</ele>
        <time>2019-07-31T14:32:27.091Z</time>
      </trkpt>
      <trkpt lat="43.00002333" lon="-1.10213667">
        <ele>912.0</ele>
        <time>2019-07-31T14:32:28.095Z</time>
      </trkpt>
      <trkpt lat="43.00002" lon="-1.10213833">
        <ele>913.0</ele>
        <time>2019-07-31T14:32:29.101Z</time>
      </trkpt>
      <trkpt lat="43.00001833" lon="-1.10214333">
        <ele>913.0</ele>
        <time>2019-07-31T14:32:30.107Z</time>
      </trkpt>
      <trkpt lat="43.00002167" lon="-1.10215333">
        <ele>913.0</ele>
        <time>2019-07-31T14:32:31.111Z</time>
      </trkpt>
      <trkpt lat="43.00001833" lon="-1.10216">
        <ele>912.0</ele>
        <time>2019-07-31T14:32:32.116Z</time>
      </trkpt>
      <trkpt lat="43.00002667" lon="-1.10217">
        <ele>912.0</ele>
        <time>2019-07-31T14:32:33.122Z</time>
      </trkpt>
      <trkpt lat="43.000025" lon="-1.10218167">
        <ele>911.0</ele>
        <time>2019-07-31T14:32:34.127Z</time>
      </trkpt>
      <trkpt lat="43.00002833" lon="-1.10220333">
        <ele>911.0</ele>
        <time>2019-07-31T14:32:35.130Z</time>
      </trkpt>
      <trkpt lat="43.000035" lon="-1.10220833">
        <ele>911.0</ele>
        <time>2019-07-31T14:32:36.135Z</time>
      </trkpt>
      <trkpt lat="43.00004167" lon="-1.10220333">
        <ele>911.0</ele>
        <time>2019-07-31T14:32:37.141Z</time>
      </trkpt>
      <trkpt lat="43.000045" lon="-1.10220667">
        <ele>911.0</ele>
        <time>2019-07-31T14:32:38.146Z</time>
      </trkpt>
      <trkpt lat="43.00004333" lon="-1.10220167">
        <ele>911.0</ele>
        <time>2019-07-31T14:32:39.155Z</time>
      </trkpt>
      <trkpt lat="43.00005167" lon="-1.1022">
        <ele>912.0</ele>
        <time>2019-07-31T14:32:40.162Z</time>
      </trkpt>
      <trkpt lat="43.00005" lon="-1.10219167">
        <ele>911.0</ele>
        <time>2019-07-31T14:32:41.168Z</time>
      </trkpt>
      <trkpt lat="43.000055" lon="-1.10219333">
        <ele>912.0</ele>
        <time>2019-07-31T14:32:42.174Z</time>
      </trkpt>
      <trkpt lat="43.00005833" lon="-1.10219167">
        <ele>912.0</ele>
        <time>2019-07-31T14:32:43.177Z</time>
      </trkpt>
      <trkpt lat="43.000065" lon="-1.10219">
        <ele>913.0</ele>
        <time>2019-07-31T14:32:44.181Z</time>
      </trkpt>
      <trkpt lat="43.000075" lon="-1.10219">
        <ele>913.0</ele>
        <time>2019-07-31T14:32:45.186Z</time>
      </trkpt>
      <trkpt lat="43.00007667" lon="-1.10219">
        <ele>913.0</ele>
        <time>2019-07-31T14:32:46.065Z</time>
      </trkpt>
      <trkpt lat="43.00008" lon="-1.10218833">
        <ele>914.0</ele>
        <time>2019-07-31T14:32:47.070Z</time>
      </trkpt>
      <trkpt lat="43.00008167" lon="-1.102185">
        <ele>915.0</ele>
        <time>2019-07-31T14:32:48.077Z</time>
      </trkpt>
      <trkpt lat="43.000085" lon="-1.10218333">
        <ele>915.0</ele>
        <time>2019-07-31T14:32:49.083Z</time>
      </trkpt>
      <trkpt lat="43.00008833" lon="-1.10218833">
        <ele>915.0</ele>
        <time>2019-07-31T14:32:50.088Z</time>
      </trkpt>
      <trkpt lat="43.00009167" lon="-1.10219">
        <ele>915.0</ele>
        <time>2019-07-31T14:32:51.092Z</time>
      </trkpt>
      <trkpt lat="43.00009667" lon="-1.10219">
        <ele>916.0</ele>
        <time>2019-07-31T14:32:52.097Z</time>
      </trkpt>
      <trkpt lat="43.00010167" lon="-1.10219">
        <ele>916.0</ele>
        <time>2019-07-31T14:32:53.101Z</time>
      </trkpt>
      <trkpt lat="43.00010667" lon="-1.10219167">
        <ele>916.0</ele>
        <time>2019-07-31T14:32:54.104Z</time>
      </trkpt>
      <trkpt lat="43.00011167" lon="-1.10219833">
        <ele>917.0</ele>
        <time>2019-07-31T14:32:55.108Z</time>
      </trkpt>
      <trkpt lat="43.000115" lon="-1.10220667">
        <ele>917.0</ele>
        <time>2019-07-31T14:32:56.113Z</time>
      </trkpt>
      <trkpt lat="43.000125" lon="-1.10221667">
        <ele>917.0</ele>
        <time>2019-07-31T14:32:57.119Z</time>
      </trkpt>
      <trkpt lat="43.00013333" lon="-1.102215">
        <ele>918.0</ele>
        <time>2019-07-31T14:32:58.124Z</time>
      </trkpt>
      <trkpt lat="43.00014167" lon="-1.102215">
        <ele>919.0</ele>
        <time>2019-07-31T14:32:59.132Z</time>
      </trkpt>
      <trkpt lat="43.00014833" lon="-1.10222333">
        <ele>919.0</ele>
        <time>2019-07-31T14:33:00.138Z</time>
      </trkpt>
      <trkpt lat="43.00015167" lon="-1.10223">
        <ele>920.0</ele>
        <time>2019-07-31T14:33:01.144Z</time>
      </trkpt>
      <trkpt lat="43.00015833" lon="-1.10224333">
        <ele>920.0</ele>
        <time>2019-07-31T14:33:02.150Z</time>
      </trkpt>
      <trkpt lat="43.00017167" lon="-1.10225833">
        <ele>919.0</ele>
        <time>2019-07-31T14:33:03.158Z</time>
      </trkpt>
      <trkpt lat="43.00018167" lon="-1.10226667">
        <ele>918.0</ele>
        <time>2019-07-31T14:33:04.161Z</time>
      </trkpt>
      <trkpt lat="43.000195" lon="-1.10227833">
        <ele>917.0</ele>
        <time>2019-07-31T14:33:05.166Z</time>
      </trkpt>
      <trkpt lat="43.00020667" lon="-1.102295">
        <ele>917.0</ele>
        <time>2019-07-31T14:33:06.172Z</time>
      </trkpt>
      <trkpt lat="43.00021333" lon="-1.10231">
        <ele>917.0</ele>
        <time>2019-07-31T14:33:07.176Z</time>
      </trkpt>
      <trkpt lat="43.000215" lon="-1.10231667">
        <ele>918.0</ele>
        <time>2019-07-31T14:33:08.182Z</time>
      </trkpt>
      <trkpt lat="43.00022333" lon="-1.10233">
        <ele>918.0</ele>
        <time>2019-07-31T14:33:09.062Z</time>
      </trkpt>
      <trkpt lat="43.000235" lon="-1.10234">
        <ele>919.0</ele>
        <time>2019-07-31T14:33:10.068Z</time>
      </trkpt>
      <trkpt lat="43.00024167" lon="-1.10235">
        <ele>920.0</ele>
        <time>2019-07-31T14:33:11.074Z</time>
      </trkpt>
      <trkpt lat="43.00024667" lon="-1.102355">
        <ele>920.0</ele>
        <time>2019-07-31T14:33:12.079Z</time>
      </trkpt>
      <trkpt lat="43.00025167" lon="-1.10234833">
        <ele>921.0</ele>
        <time>2019-07-31T14:33:13.083Z</time>
      </trkpt>
      <trkpt lat="43.00026333" lon="-1.10235">
        <ele>922.0</ele>
        <time>2019-07-31T14:33:14.090Z</time>
      </trkpt>
      <trkpt lat="43.00027833" lon="-1.10235667">
        <ele>922.0</ele>
        <time>2019-07-31T14:33:15.093Z</time>
      </trkpt>
      <trkpt lat="43.00029667" lon="-1.102355">
        <ele>924.0</ele>
        <time>2019-07-31T14:33:16.099Z</time>
      </trkpt>
      <trkpt lat="43.00031167" lon="-1.10234667">
        <ele>926.0</ele>
        <time>2019-07-31T14:33:17.103Z</time>
      </trkpt>
      <trkpt lat="43.00032333" lon="-1.10233833">
        <ele>927.0</ele>
        <time>2019-07-31T14:33:18.108Z</time>
      </trkpt>
      <trkpt lat="43.00033333" lon="-1.102335">
        <ele>927.0</ele>
        <time>2019-07-31T14:33:19.115Z</time>
      </trkpt>
      <trkpt lat="43.000345" lon="-1.10234">
        <ele>926.0</ele>
        <time>2019-07-31T14:33:20.118Z</time>
      </trkpt>
      <trkpt lat="43.00035833" lon="-1.10234167">
        <ele>926.0</ele>
        <time>2019-07-31T14:33:21.123Z</time>
      </trkpt>
      <trkpt lat="43.00037167" lon="-1.10234333">
        <ele>927.0</ele>
        <time>2019-07-31T14:33:22.127Z</time>
      </trkpt>
      <trkpt lat="43.00038333" lon="-1.102355">
        <ele>926.0</ele>
        <time>2019-07-31T14:33:23.134Z</time>
      </trkpt>
      <trkpt lat="43.00039833" lon="-1.10237">
        <ele>924.0</ele>
        <time>2019-07-31T14:33:24.138Z</time>
      </trkpt>
      <trkpt lat="43.000415" lon="-1.10238333">
        <ele>924.0</ele>
        <time>2019-07-31T14:33:25.144Z</time>
      </trkpt>
      <trkpt lat="43.00043" lon="-1.102385">
        <ele>923.0</ele>
        <time>2019-07-31T14:33:26.150Z</time>
      </trkpt>
      <trkpt lat="43.000445" lon="-1.10238167">
        <ele>924.0</ele>
        <time>2019-07-31T14:33:27.155Z</time>
      </trkpt>
      <trkpt lat="43.000455" lon="-1.10237667">
        <ele>923.0</ele>
        <time>2019-07-31T14:33:28.162Z</time>
      </trkpt>
      <trkpt lat="43.00045333" lon="-1.102365">
        <ele>924.0</ele>
        <time>2019-07-31T14:33:29.167Z</time>
      </trkpt>
      <trkpt lat="43.000455" lon="-1.10236167">
        <ele>925.0</ele>
        <time>2019-07-31T14:33:30.173Z</time>
      </trkpt>
      <trkpt lat="43.00046167" lon="-1.10236833">
        <ele>926.0</ele>
        <time>2019-07-31T14:33:31.177Z</time>
      </trkpt>
      <trkpt lat="43.00047167" lon="-1.10236667">
        <ele>926.0</ele>
        <time>2019-07-31T14:33:32.181Z</time>
      </trkpt>
      <trkpt lat="43.00046833" lon="-1.10236333">
        <ele>928.0</ele>
        <time>2019-07-31T14:33:33.184Z</time>
      </trkpt>
      <trkpt lat="43.00046333" lon="-1.102365">
        <ele>929.0</ele>
        <time>2019-07-31T14:33:34.064Z</time>
      </trkpt>
      <trkpt lat="43.000465" lon="-1.10236167">
        <ele>928.0</ele>
        <time>2019-07-31T14:33:35.069Z</time>
      </trkpt>
      <trkpt lat="43.00047" lon="-1.10236333">
        <ele>928.0</ele>
        <time>2019-07-31T14:33:36.075Z</time>
      </trkpt>
      <trkpt lat="43.000475" lon="-1.10236667">
        <ele>928.0</ele>
        <time>2019-07-31T14:33:37.081Z</time>
      </trkpt>
      <trkpt lat="43.00047833" lon="-1.102365">
        <ele>929.0</ele>
        <time>2019-07-31T14:33:38.087Z</time>
      </trkpt>
      <trkpt lat="43.00048" lon="-1.10236167">
        <ele>929.0</ele>
        <time>2019-07-31T14:33:39.091Z</time>
      </trkpt>
      <trkpt lat="43.00048167" lon="-1.10235833">
        <ele>930.0</ele>
        <time>2019-07-31T14:33:40.096Z</time>
      </trkpt>
      <trkpt lat="43.000485" lon="-1.10235833">
        <ele>930.0</ele>
        <time>2019-07-31T14:33:41.102Z</time>
      </trkpt>
      <trkpt lat="43.00049" lon="-1.10235833">
        <ele>931.0</ele>
        <time>2019-07-31T14:33:42.107Z</time>
      </trkpt>
      <trkpt lat="43.00049167" lon="-1.102355">
        <ele>931.0</ele>
        <time>2019-07-31T14:33:43.113Z</time>
      </trkpt>
      <trkpt lat="43.00049667" lon="-1.10235167">
        <ele>931.0</ele>
        <time>2019-07-31T14:33:44.120Z</time>
      </trkpt>
      <trkpt lat="43.00050167" lon="-1.10235">
        <ele>931.0</ele>
        <time>2019-07-31T14:33:45.124Z</time>
      </trkpt>
      <trkpt lat="43.00050833" lon="-1.10235">
        <ele>932.0</ele>
        <time>2019-07-31T14:33:46.130Z</time>
      </trkpt>
      <trkpt lat="43.00051167" lon="-1.10235">
        <ele>932.0</ele>
        <time>2019-07-31T14:33:47.136Z</time>
      </trkpt>
      <trkpt lat="43.00052" lon="-1.10235">
        <ele>932.0</ele>
        <time>2019-07-31T14:33:48.142Z</time>
      </trkpt>
      <trkpt lat="43.00053167" lon="-1.10235333">
        <ele>932.0</ele>
        <time>2019-07-31T14:33:49.147Z</time>
      </trkpt>
      <trkpt lat="43.00054" lon="-1.10235">
        <ele>931.0</ele>
        <time>2019-07-31T14:33:50.154Z</time>
      </trkpt>
      <trkpt lat="43.000545" lon="-1.10234167">
        <ele>931.0</ele>
        <time>2019-07-31T14:33:51.160Z</time>
      </trkpt>
      <trkpt lat="43.00055" lon="-1.10233167">
        <ele>931.0</ele>
        <time>2019-07-31T14:33:52.166Z</time>
      </trkpt>
      <trkpt lat="43.00055667" lon="-1.10232167">
        <ele>932.0</ele>
        <time>2019-07-31T14:33:53.172Z</time>
      </trkpt>
      <trkpt lat="43.00056833" lon="-1.10231">
        <ele>932.0</ele>
        <time>2019-07-31T14:33:54.176Z</time>
      </trkpt>
      <trkpt lat="43.00058167" lon="-1.102305">
        <ele>932.0</ele>
        <time>2019-07-31T14:33:55.183Z</time>
      </trkpt>
      <trkpt lat="43.000595" lon="-1.1023">
        <ele>933.0</ele>
        <time>2019-07-31T14:33:56.063Z</time>
      </trkpt>
      <trkpt lat="43.000605" lon="-1.102305">
        <ele>933.0</ele>
        <time>2019-07-31T14:33:57.069Z</time>
      </trkpt>
      <trkpt lat="43.00061167" lon="-1.10231167">
        <ele>932.0</ele>
        <time>2019-07-31T14:33:58.074Z</time>
      </trkpt>
      <trkpt lat="43.00062167" lon="-1.10231333">
        <ele>932.0</ele>
        <time>2019-07-31T14:33:59.079Z</time>
      </trkpt>
      <trkpt lat="43.00062833" lon="-1.10232">
        <ele>932.0</ele>
        <time>2019-07-31T14:34:00.083Z</time>
      </trkpt>
      <trkpt lat="43.00062167" lon="-1.102325">
        <ele>931.0</ele>
        <time>2019-07-31T14:34:01.088Z</time>
      </trkpt>
      <trkpt lat="43.00063167" lon="-1.10232333">
        <ele>932.0</ele>
        <time>2019-07-31T14:34:02.092Z</time>
      </trkpt>
      <trkpt lat="43.000635" lon="-1.10232833">
        <ele>930.0</ele>
        <time>2019-07-31T14:34:03.096Z</time>
      </trkpt>
      <trkpt lat="43.000635" lon="-1.102325">
        <ele>929.0</ele>
        <time>2019-07-31T14:34:04.102Z</time>
      </trkpt>
      <trkpt lat="43.00062833" lon="-1.10232333">
        <ele>930.0</ele>
        <time>2019-07-31T14:34:05.107Z</time>
      </trkpt>
      <trkpt lat="43.000615" lon="-1.10233333">
        <ele>932.0</ele>
        <time>2019-07-31T14:34:06.113Z</time>
      </trkpt>
      <trkpt lat="43.00060667" lon="-1.102335">
        <ele>934.0</ele>
        <time>2019-07-31T14:34:07.120Z</time>
      </trkpt>
      <trkpt lat="43.00061167" lon="-1.10233167">
        <ele>936.0</ele>
        <time>2019-07-31T14:34:08.125Z</time>
      </trkpt>
      <trkpt lat="43.00062" lon="-1.10233">
        <ele>938.0</ele>
        <time>2019-07-31T14:34:09.131Z</time>
      </trkpt>
      <trkpt lat="43.00062833" lon="-1.10232">
        <ele>941.0</ele>
        <time>2019-07-31T14:34:10.136Z</time>
      </trkpt>
      <trkpt lat="43.00063333" lon="-1.10231167">
        <ele>942.0</ele>
        <time>2019-07-31T14:34:11.143Z</time>
      </trkpt>
      <trkpt lat="43.00063833" lon="-1.10231333">
        <ele>942.0</ele>
        <time>2019-07-31T14:34:12.146Z</time>
      </trkpt>
      <trkpt lat="43.00064333" lon="-1.102315">
        <ele>942.0</ele>
        <time>2019-07-31T14:34:13.153Z</time>
      </trkpt>
      <trkpt lat="43.00064833" lon="-1.102315">
        <ele>942.0</ele>
        <time>2019-07-31T14:34:14.159Z</time>
      </trkpt>
      <trkpt lat="43.00065333" lon="-1.10231333">
        <ele>943.0</ele>
        <time>2019-07-31T14:34:15.165Z</time>
      </trkpt>
      <trkpt lat="43.00066" lon="-1.10231833">
        <ele>943.0</ele>
        <time>2019-07-31T14:34:16.170Z</time>
      </trkpt>
      <trkpt lat="43.000665" lon="-1.10231833">
        <ele>943.0</ele>
        <time>2019-07-31T14:34:17.175Z</time>
      </trkpt>
      <trkpt lat="43.00066667" lon="-1.10231833">
        <ele>943.0</ele>
        <time>2019-07-31T14:34:18.180Z</time>
      </trkpt>
      <trkpt lat="43.00067" lon="-1.10232167">
        <ele>943.0</ele>
        <time>2019-07-31T14:34:19.061Z</time>
      </trkpt>
      <trkpt lat="43.00067333" lon="-1.102325">
        <ele>944.0</ele>
        <time>2019-07-31T14:34:20.064Z</time>
      </trkpt>
      <trkpt lat="43.00068" lon="-1.10233">
        <ele>944.0</ele>
        <time>2019-07-31T14:34:21.069Z</time>
      </trkpt>
      <trkpt lat="43.00068667" lon="-1.10232667">
        <ele>944.0</ele>
        <time>2019-07-31T14:34:22.073Z</time>
      </trkpt>
      <trkpt lat="43.00069333" lon="-1.10232667">
        <ele>944.0</ele>
        <time>2019-07-31T14:34:23.076Z</time>
      </trkpt>
      <trkpt lat="43.00070167" lon="-1.10232667">
        <ele>944.0</ele>
        <time>2019-07-31T14:34:24.080Z</time>
      </trkpt>
      <trkpt lat="43.00071167" lon="-1.10232333">
        <ele>943.0</ele>
        <time>2019-07-31T14:34:25.087Z</time>
      </trkpt>
      <trkpt lat="43.00072" lon="-1.10232">
        <ele>943.0</ele>
        <time>2019-07-31T14:34:26.092Z</time>
      </trkpt>
      <trkpt lat="43.000725" lon="-1.10231667">
        <ele>942.0</ele>
        <time>2019-07-31T14:34:27.098Z</time>
      </trkpt>
      <trkpt lat="43.00072833" lon="-1.102315">
        <ele>941.0</ele>
        <time>2019-07-31T14:34:28.101Z</time>
      </trkpt>
      <trkpt lat="43.00073333" lon="-1.10231333">
        <ele>941.0</ele>
        <time>2019-07-31T14:34:29.107Z</time>
      </trkpt>
      <trkpt lat="43.00073833" lon="-1.10230833">
        <ele>941.0</ele>
        <time>2019-07-31T14:34:30.110Z</time>
      </trkpt>
      <trkpt lat="43.000745" lon="-1.102305">
        <ele>941.0</ele>
        <time>2019-07-31T14:34:31.116Z</time>
      </trkpt>
      <trkpt lat="43.00075833" lon="-1.10230167">
        <ele>941.0</ele>
        <time>2019-07-31T14:34:32.118Z</time>
      </trkpt>
      <trkpt lat="43.00076667" lon="-1.10229833">
        <ele>941.0</ele>
        <time>2019-07-31T14:34:33.123Z</time>
      </trkpt>
      <trkpt lat="43.00077667" lon="-1.102295">
        <ele>940.0</ele>
        <time>2019-07-31T14:34:34.129Z</time>
      </trkpt>
      <trkpt lat="43.000785" lon="-1.10229333">
        <ele>941.0</ele>
        <time>2019-07-31T14:34:35.134Z</time>
      </trkpt>
      <trkpt lat="43.00079" lon="-1.10228667">
        <ele>941.0</ele>
        <time>2019-07-31T14:34:36.139Z</time>
      </trkpt>
      <trkpt lat="43.000795" lon="-1.10228167">
        <ele>941.0</ele>
        <time>2019-07-31T14:34:37.145Z</time>
      </trkpt>
      <trkpt lat="43.00080167" lon="-1.10227833">
        <ele>941.0</ele>
        <time>2019-07-31T14:34:38.152Z</time>
      </trkpt>
      <trkpt lat="43.00081" lon="-1.10228">
        <ele>940.0</ele>
        <time>2019-07-31T14:34:39.158Z</time>
      </trkpt>
      <trkpt lat="43.00082" lon="-1.10228">
        <ele>940.0</ele>
        <time>2019-07-31T14:34:40.163Z</time>
      </trkpt>
      <trkpt lat="43.00082667" lon="-1.10227833">
        <ele>940.0</ele>
        <time>2019-07-31T14:34:41.169Z</time>
      </trkpt>
      <trkpt lat="43.00083" lon="-1.10227833">
        <ele>940.0</ele>
        <time>2019-07-31T14:34:42.174Z</time>
      </trkpt>
      <trkpt lat="43.00084167" lon="-1.10228">
        <ele>941.0</ele>
        <time>2019-07-31T14:34:43.178Z</time>
      </trkpt>
      <trkpt lat="43.00084833" lon="-1.10228333">
        <ele>940.0</ele>
        <time>2019-07-31T14:34:44.180Z</time>
      </trkpt>
      <trkpt lat="43.00085167" lon="-1.10228833">
        <ele>939.0</ele>
        <time>2019-07-31T14:34:45.186Z</time>
      </trkpt>
      <trkpt lat="43.00085833" lon="-1.10228833">
        <ele>939.0</ele>
        <time>2019-07-31T14:34:46.065Z</time>
      </trkpt>
      <trkpt lat="43.00086833" lon="-1.10228167">
        <ele>939.0</ele>
        <time>2019-07-31T14:34:47.069Z</time>
      </trkpt>
      <trkpt lat="43.00088167" lon="-1.10227">
        <ele>940.0</ele>
        <time>2019-07-31T14:34:48.075Z</time>
      </trkpt>
      <trkpt lat="43.00089333" lon="-1.10227">
        <ele>940.0</ele>
        <time>2019-07-31T14:34:49.077Z</time>
      </trkpt>
      <trkpt lat="43.00090667" lon="-1.10227333">
        <ele>939.0</ele>
        <time>2019-07-31T14:34:50.083Z</time>
      </trkpt>
      <trkpt lat="43.000925" lon="-1.10228">
        <ele>939.0</ele>
        <time>2019-07-31T14:34:51.091Z</time>
      </trkpt>
      <trkpt lat="43.00093833" lon="-1.10227667">
        <ele>937.0</ele>
        <time>2019-07-31T14:34:52.095Z</time>
      </trkpt>
      <trkpt lat="43.00094667" lon="-1.10227167">
        <ele>935.0</ele>
        <time>2019-07-31T14:34:53.097Z</time>
      </trkpt>
      <trkpt lat="43.00095" lon="-1.102255">
        <ele>933.0</ele>
        <time>2019-07-31T14:34:54.102Z</time>
      </trkpt>
      <trkpt lat="43.00095167" lon="-1.10223667">
        <ele>932.0</ele>
        <time>2019-07-31T14:34:55.107Z</time>
      </trkpt>
      <trkpt lat="43.00095833" lon="-1.10223">
        <ele>932.0</ele>
        <time>2019-07-31T14:34:56.113Z</time>
      </trkpt>
      <trkpt lat="43.00096667" lon="-1.10223167">
        <ele>932.0</ele>
        <time>2019-07-31T14:34:57.119Z</time>
      </trkpt>
      <trkpt lat="43.00096833" lon="-1.102245">
        <ele>932.0</ele>
        <time>2019-07-31T14:34:58.124Z</time>
      </trkpt>
      <trkpt lat="43.00096167" lon="-1.10224333">
        <ele>932.0</ele>
        <time>2019-07-31T14:34:59.130Z</time>
      </trkpt>
      <trkpt lat="43.00095667" lon="-1.10223167">
        <ele>933.0</ele>
        <time>2019-07-31T14:35:00.134Z</time>
      </trkpt>
      <trkpt lat="43.00095" lon="-1.102215">
        <ele>934.0</ele>
        <time>2019-07-31T14:35:01.138Z</time>
      </trkpt>
      <trkpt lat="43.00094833" lon="-1.10220667">
        <ele>934.0</ele>
        <time>2019-07-31T14:35:02.144Z</time>
      </trkpt>
      <trkpt lat="43.00094833" lon="-1.10220333">
        <ele>934.0</ele>
        <time>2019-07-31T14:35:03.150Z</time>
      </trkpt>
      <trkpt lat="43.00094833" lon="-1.1022">
        <ele>934.0</ele>
        <time>2019-07-31T14:35:04.156Z</time>
      </trkpt>
      <trkpt lat="43.00095" lon="-1.10219667">
        <ele>934.0</ele>
        <time>2019-07-31T14:35:05.162Z</time>
      </trkpt>
      <trkpt lat="43.00094833" lon="-1.10219167">
        <ele>934.0</ele>
        <time>2019-07-31T14:35:06.168Z</time>
      </trkpt>
      <trkpt lat="43.00095" lon="-1.10218667">
        <ele>934.0</ele>
        <time>2019-07-31T14:35:07.174Z</time>
      </trkpt>
      <trkpt lat="43.00095167" lon="-1.102185">
        <ele>934.0</ele>
        <time>2019-07-31T14:35:08.178Z</time>
      </trkpt>
      <trkpt lat="43.000955" lon="-1.10218833">
        <ele>934.0</ele>
        <time>2019-07-31T14:35:09.180Z</time>
      </trkpt>
      <trkpt lat="43.00095667" lon="-1.102185">
        <ele>934.0</ele>
        <time>2019-07-31T14:35:10.185Z</time>
      </trkpt>
      <trkpt lat="43.00095667" lon="-1.10218333">
        <ele>934.0</ele>
        <time>2019-07-31T14:35:11.065Z</time>
      </trkpt>
      <trkpt lat="43.00095667" lon="-1.10218">
        <ele>933.0</ele>
        <time>2019-07-31T14:35:12.069Z</time>
      </trkpt>
      <trkpt lat="43.00096" lon="-1.10217833">
        <ele>933.0</ele>
        <time>2019-07-31T14:35:13.071Z</time>
      </trkpt>
      <trkpt lat="43.000965" lon="-1.10217667">
        <ele>933.0</ele>
        <time>2019-07-31T14:35:14.074Z</time>
      </trkpt>
      <trkpt lat="43.00097" lon="-1.102175">
        <ele>933.0</ele>
        <time>2019-07-31T14:35:15.079Z</time>
      </trkpt>
      <trkpt lat="43.00097833" lon="-1.10217667">
        <ele>931.0</ele>
        <time>2019-07-31T14:35:16.085Z</time>
      </trkpt>
      <trkpt lat="43.000985" lon="-1.10218167">
        <ele>930.0</ele>
        <time>2019-07-31T14:35:17.090Z</time>
      </trkpt>
      <trkpt lat="43.00099" lon="-1.10218667">
        <ele>929.0</ele>
        <time>2019-07-31T14:35:18.092Z</time>
      </trkpt>
      <trkpt lat="43.00099833" lon="-1.102195">
        <ele>928.0</ele>
        <time>2019-07-31T14:35:19.097Z</time>
      </trkpt>
      <trkpt lat="43.00100167" lon="-1.1022">
        <ele>927.0</ele>
        <time>2019-07-31T14:35:20.103Z</time>
      </trkpt>
      <trkpt lat="43.00100333" lon="-1.10219833">
        <ele>927.0</ele>
        <time>2019-07-31T14:35:21.108Z</time>
      </trkpt>
      <trkpt lat="43.00100833" lon="-1.10220833">
        <ele>926.0</ele>
        <time>2019-07-31T14:35:22.114Z</time>
      </trkpt>
      <trkpt lat="43.00101167" lon="-1.10221833">
        <ele>925.0</ele>
        <time>2019-07-31T14:35:23.116Z</time>
      </trkpt>
      <trkpt lat="43.00101833" lon="-1.10222667">
        <ele>924.0</ele>
        <time>2019-07-31T14:35:24.121Z</time>
      </trkpt>
      <trkpt lat="43.00102333" lon="-1.10224167">
        <ele>922.0</ele>
        <time>2019-07-31T14:35:25.127Z</time>
      </trkpt>
      <trkpt lat="43.00102667" lon="-1.10225">
        <ele>921.0</ele>
        <time>2019-07-31T14:35:26.133Z</time>
      </trkpt>
      <trkpt lat="43.00102833" lon="-1.10224667">
        <ele>921.0</ele>
        <time>2019-07-31T14:35:27.137Z</time>
      </trkpt>
      <trkpt lat="43.00102833" lon="-1.10224333">
        <ele>921.0</ele>
        <time>2019-07-31T14:35:28.143Z</time>
      </trkpt>
      <trkpt lat="43.00102833" lon="-1.10223833">
        <ele>920.0</ele>
        <time>2019-07-31T14:35:29.149Z</time>
      </trkpt>
      <trkpt lat="43.00103333" lon="-1.10224">
        <ele>919.0</ele>
        <time>2019-07-31T14:35:30.154Z</time>
      </trkpt>
      <trkpt lat="43.00103833" lon="-1.10224833">
        <ele>917.0</ele>
        <time>2019-07-31T14:35:31.158Z</time>
      </trkpt>
      <trkpt lat="43.00104" lon="-1.10225333">
        <ele>916.0</ele>
        <time>2019-07-31T14:35:32.165Z</time>
      </trkpt>
      <trkpt lat="43.00104167" lon="-1.10226">
        <ele>916.0</ele>
        <time>2019-07-31T14:35:33.171Z</time>
      </trkpt>
      <trkpt lat="43.00104333" lon="-1.10227333">
        <ele>916.0</ele>
        <time>2019-07-31T14:35:34.174Z</time>
      </trkpt>
      <trkpt lat="43.00104833" lon="-1.10229333">
        <ele>916.0</ele>
        <time>2019-07-31T14:35:35.177Z</time>
      </trkpt>
      <trkpt lat="43.00105333" lon="-1.10230833">
        <ele>916.0</ele>
        <time>2019-07-31T14:35:36.184Z</time>
      </trkpt>
      <trkpt lat="43.00105833" lon="-1.10231333">
        <ele>916.0</ele>
        <time>2019-07-31T14:35:37.062Z</time>
      </trkpt>
      <trkpt lat="43.00106333" lon="-1.10231167">
        <ele>916.0</ele>
        <time>2019-07-31T14:35:38.066Z</time>
      </trkpt>
      <trkpt lat="43.001065" lon="-1.10230167">
        <ele>917.0</ele>
        <time>2019-07-31T14:35:39.072Z</time>
      </trkpt>
      <trkpt lat="43.001065" lon="-1.102295">
        <ele>917.0</ele>
        <time>2019-07-31T14:35:40.078Z</time>
      </trkpt>
      <trkpt lat="43.00106333" lon="-1.10229167">
        <ele>918.0</ele>
        <time>2019-07-31T14:35:41.083Z</time>
      </trkpt>
      <trkpt lat="43.00106167" lon="-1.10229">
        <ele>918.0</ele>
        <time>2019-07-31T14:35:42.090Z</time>
      </trkpt>
      <trkpt lat="43.00106" lon="-1.10228667">
        <ele>918.0</ele>
        <time>2019-07-31T14:35:43.093Z</time>
      </trkpt>
      <trkpt lat="43.00105667" lon="-1.10228333">
        <ele>918.0</ele>
        <time>2019-07-31T14:35:44.099Z</time>
      </trkpt>
      <trkpt lat="43.001055" lon="-1.10226833">
        <ele>918.0</ele>
        <time>2019-07-31T14:35:45.104Z</time>
      </trkpt>
      <trkpt lat="43.001055" lon="-1.10225333">
        <ele>918.0</ele>
        <time>2019-07-31T14:35:46.110Z</time>
      </trkpt>
      <trkpt lat="43.001055" lon="-1.10223833">
        <ele>918.0</ele>
        <time>2019-07-31T14:35:47.115Z</time>
      </trkpt>
      <trkpt lat="43.00105333" lon="-1.10222167">
        <ele>918.0</ele>
        <time>2019-07-31T14:35:48.118Z</time>
      </trkpt>
      <trkpt lat="43.00105667" lon="-1.10219333">
        <ele>919.0</ele>
        <time>2019-07-31T14:35:49.125Z</time>
      </trkpt>
      <trkpt lat="43.00106" lon="-1.10217167">
        <ele>918.0</ele>
        <time>2019-07-31T14:35:50.133Z</time>
      </trkpt>
      <trkpt lat="43.001065" lon="-1.10215833">
        <ele>917.0</ele>
        <time>2019-07-31T14:35:51.136Z</time>
      </trkpt>
      <trkpt lat="43.00106167" lon="-1.10214833">
        <ele>917.0</ele>
        <time>2019-07-31T14:35:52.141Z</time>
      </trkpt>
      <trkpt lat="43.00106167" lon="-1.10214333">
        <ele>917.0</ele>
        <time>2019-07-31T14:35:53.147Z</time>
      </trkpt>
      <trkpt lat="43.00106" lon="-1.10213833">
        <ele>917.0</ele>
        <time>2019-07-31T14:35:54.153Z</time>
      </trkpt>
      <trkpt lat="43.00106" lon="-1.10213833">
        <ele>917.0</ele>
        <time>2019-07-31T14:35:55.159Z</time>
      </trkpt>
      <trkpt lat="43.00105833" lon="-1.10214">
        <ele>917.0</ele>
        <time>2019-07-31T14:35:56.165Z</time>
      </trkpt>
      <trkpt lat="43.00105167" lon="-1.10214333">
        <ele>917.0</ele>
        <time>2019-07-31T14:35:57.171Z</time>
      </trkpt>
      <trkpt lat="43.001045" lon="-1.10215">
        <ele>917.0</ele>
        <time>2019-07-31T14:35:58.176Z</time>
      </trkpt>
      <trkpt lat="43.00103833" lon="-1.10216167">
        <ele>916.0</ele>
        <time>2019-07-31T14:35:59.180Z</time>
      </trkpt>
      <trkpt lat="43.00103667" lon="-1.10217167">
        <ele>916.0</ele>
        <time>2019-07-31T14:36:00.185Z</time>
      </trkpt>
      <trkpt lat="43.001035" lon="-1.10218167">
        <ele>916.0</ele>
        <time>2019-07-31T14:36:01.066Z</time>
      </trkpt>
      <trkpt lat="43.00103" lon="-1.10218833">
        <ele>916.0</ele>
        <time>2019-07-31T14:36:02.072Z</time>
      </trkpt>
      <trkpt lat="43.001025" lon="-1.10219667">
        <ele>916.0</ele>
        <time>2019-07-31T14:36:03.077Z</time>
      </trkpt>
      <trkpt lat="43.00102333" lon="-1.10219667">
        <ele>917.0</ele>
        <time>2019-07-31T14:36:04.082Z</time>
      </trkpt>
      <trkpt lat="43.00102167" lon="-1.1022">
        <ele>917.0</ele>
        <time>2019-07-31T14:36:05.086Z</time>
      </trkpt>
      <trkpt lat="43.00101667" lon="-1.10220667">
        <ele>917.0</ele>
        <time>2019-07-31T14:36:06.090Z</time>
      </trkpt>
      <trkpt lat="43.00100833" lon="-1.10221">
        <ele>917.0</ele>
        <time>2019-07-31T14:36:07.094Z</time>
      </trkpt>
      <trkpt lat="43.00100333" lon="-1.10222167">
        <ele>917.0</ele>
        <time>2019-07-31T14:36:08.100Z</time>
      </trkpt>
      <trkpt lat="43.001" lon="-1.102225">
        <ele>918.0</ele>
        <time>2019-07-31T14:36:09.104Z</time>
      </trkpt>
      <trkpt lat="43.00099833" lon="-1.10222333">
        <ele>918.0</ele>
        <time>2019-07-31T14:36:10.111Z</time>
      </trkpt>
      <trkpt lat="43.00099833" lon="-1.10221833">
        <ele>918.0</ele>
        <time>2019-07-31T14:36:11.117Z</time>
      </trkpt>
      <trkpt lat="43.001" lon="-1.10221667">
        <ele>918.0</ele>
        <time>2019-07-31T14:36:12.123Z</time>
      </trkpt>
      <trkpt lat="43.001" lon="-1.102215">
        <ele>919.0</ele>
        <time>2019-07-31T14:36:13.128Z</time>
      </trkpt>
      <trkpt lat="43.00099833" lon="-1.102215">
        <ele>919.0</ele>
        <time>2019-07-31T14:36:14.134Z</time>
      </trkpt>
      <trkpt lat="43.00099333" lon="-1.10221833">
        <ele>919.0</ele>
        <time>2019-07-31T14:36:15.138Z</time>
      </trkpt>
      <trkpt lat="43.00099167" lon="-1.10222">
        <ele>918.0</ele>
        <time>2019-07-31T14:36:16.145Z</time>
      </trkpt>
      <trkpt lat="43.00099" lon="-1.10222667">
        <ele>918.0</ele>
        <time>2019-07-31T14:36:17.152Z</time>
      </trkpt>
      <trkpt lat="43.00098667" lon="-1.10223833">
        <ele>918.0</ele>
        <time>2019-07-31T14:36:18.156Z</time>
      </trkpt>
      <trkpt lat="43.000985" lon="-1.10224333">
        <ele>918.0</ele>
        <time>2019-07-31T14:36:19.163Z</time>
      </trkpt>
      <trkpt lat="43.00098167" lon="-1.10225">
        <ele>919.0</ele>
        <time>2019-07-31T14:36:20.169Z</time>
      </trkpt>
      <trkpt lat="43.00097667" lon="-1.10225167">
        <ele>919.0</ele>
        <time>2019-07-31T14:36:21.176Z</time>
      </trkpt>
      <trkpt lat="43.00097333" lon="-1.10225333">
        <ele>919.0</ele>
        <time>2019-07-31T14:36:22.182Z</time>
      </trkpt>
      <trkpt lat="43.000975" lon="-1.10225833">
        <ele>919.0</ele>
        <time>2019-07-31T14:36:23.186Z</time>
      </trkpt>
      <trkpt lat="43.00097667" lon="-1.102265">
        <ele>919.0</ele>
        <time>2019-07-31T14:36:24.067Z</time>
      </trkpt>
      <trkpt lat="43.00098" lon="-1.10227">
        <ele>919.0</ele>
        <time>2019-07-31T14:36:25.071Z</time>
      </trkpt>
      <trkpt lat="43.00098333" lon="-1.102275">
        <ele>919.0</ele>
        <time>2019-07-31T14:36:26.076Z</time>
      </trkpt>
      <trkpt lat="43.00099" lon="-1.10228167">
        <ele>919.0</ele>
        <time>2019-07-31T14:36:27.082Z</time>
      </trkpt>
      <trkpt lat="43.00099333" lon="-1.10227833">
        <ele>919.0</ele>
        <time>2019-07-31T14:36:28.089Z</time>
      </trkpt>
      <trkpt lat="43.000995" lon="-1.10227833">
        <ele>918.0</ele>
        <time>2019-07-31T14:36:29.093Z</time>
      </trkpt>
      <trkpt lat="43.00099333" lon="-1.10228333">
        <ele>917.0</ele>
        <time>2019-07-31T14:36:30.098Z</time>
      </trkpt>
      <trkpt lat="43.00099" lon="-1.10228833">
        <ele>916.0</ele>
        <time>2019-07-31T14:36:31.105Z</time>
      </trkpt>
      <trkpt lat="43.00098667" lon="-1.102295">
        <ele>917.0</ele>
        <time>2019-07-31T14:36:32.112Z</time>
      </trkpt>
      <trkpt lat="43.00098333" lon="-1.10229333">
        <ele>918.0</ele>
        <time>2019-07-31T14:36:33.117Z</time>
      </trkpt>
      <trkpt lat="43.00098167" lon="-1.10229167">
        <ele>919.0</ele>
        <time>2019-07-31T14:36:34.121Z</time>
      </trkpt>
      <trkpt lat="43.00097667" lon="-1.10228167">
        <ele>919.0</ele>
        <time>2019-07-31T14:36:35.125Z</time>
      </trkpt>
      <trkpt lat="43.00097333" lon="-1.10227167">
        <ele>920.0</ele>
        <time>2019-07-31T14:36:36.129Z</time>
      </trkpt>
      <trkpt lat="43.00097167" lon="-1.10226167">
        <ele>921.0</ele>
        <time>2019-07-31T14:36:37.135Z</time>
      </trkpt>
      <trkpt lat="43.00097167" lon="-1.10225">
        <ele>921.0</ele>
        <time>2019-07-31T14:36:38.140Z</time>
      </trkpt>
      <trkpt lat="43.00097333" lon="-1.102245">
        <ele>922.0</ele>
        <time>2019-07-31T14:36:39.147Z</time>
      </trkpt>
      <trkpt lat="43.00097333" lon="-1.10224333">
        <ele>921.0</ele>
        <time>2019-07-31T14:36:40.153Z</time>
      </trkpt>
      <trkpt lat="43.00097333" lon="-1.10224">
        <ele>921.0</ele>
        <time>2019-07-31T14:36:41.159Z</time>
      </trkpt>
      <trkpt lat="43.00096833" lon="-1.10223">
        <ele>921.0</ele>
        <time>2019-07-31T14:36:42.166Z</time>
      </trkpt>
      <trkpt lat="43.00096333" lon="-1.10222">
        <ele>922.0</ele>
        <time>2019-07-31T14:36:43.170Z</time>
      </trkpt>
      <trkpt lat="43.00095333" lon="-1.10221167">
        <ele>923.0</ele>
        <time>2019-07-31T14:36:44.174Z</time>
      </trkpt>
      <trkpt lat="43.00094333" lon="-1.10220333">
        <ele>924.0</ele>
        <time>2019-07-31T14:36:45.177Z</time>
      </trkpt>
      <trkpt lat="43.00093333" lon="-1.10219667">
        <ele>925.0</ele>
        <time>2019-07-31T14:36:46.182Z</time>
      </trkpt>
      <trkpt lat="43.00092833" lon="-1.10219333">
        <ele>926.0</ele>
        <time>2019-07-31T14:36:47.062Z</time>
      </trkpt>
      <trkpt lat="43.00092167" lon="-1.10218333">
        <ele>927.0</ele>
        <time>2019-07-31T14:36:48.064Z</time>
      </trkpt>
      <trkpt lat="43.00091333" lon="-1.10217167">
        <ele>927.0</ele>
        <time>2019-07-31T14:36:49.069Z</time>
      </trkpt>
      <trkpt lat="43.00090833" lon="-1.10217167">
        <ele>928.0</ele>
        <time>2019-07-31T14:36:50.074Z</time>
      </trkpt>
      <trkpt lat="43.0009" lon="-1.10216667">
        <ele>928.0</ele>
        <time>2019-07-31T14:36:51.080Z</time>
      </trkpt>
      <trkpt lat="43.00088667" lon="-1.102155">
        <ele>929.0</ele>
        <time>2019-07-31T14:36:52.086Z</time>
      </trkpt>
      <trkpt lat="43.00087667" lon="-1.10215">
        <ele>929.0</ele>
        <time>2019-07-31T14:36:53.090Z</time>
      </trkpt>
      <trkpt lat="43.00086833" lon="-1.10214667">
        <ele>929.0</ele>
        <time>2019-07-31T14:36:54.094Z</time>
      </trkpt>
      <trkpt lat="43.00086333" lon="-1.10214">
        <ele>929.0</ele>
        <time>2019-07-31T14:36:55.099Z</time>
      </trkpt>
      <trkpt lat="43.00085833" lon="-1.102135">
        <ele>929.0</ele>
        <time>2019-07-31T14:36:56.104Z</time>
      </trkpt>
      <trkpt lat="43.00085333" lon="-1.10212833">
        <ele>930.0</ele>
        <time>2019-07-31T14:36:57.107Z</time>
      </trkpt>
      <trkpt lat="43.00085" lon="-1.10213">
        <ele>929.0</ele>
        <time>2019-07-31T14:36:58.112Z</time>
      </trkpt>
      <trkpt lat="43.00084333" lon="-1.10212833">
        <ele>929.0</ele>
        <time>2019-07-31T14:36:59.120Z</time>
      </trkpt>
      <trkpt lat="43.00083833" lon="-1.102135">
        <ele>929.0</ele>
        <time>2019-07-31T14:37:00.125Z</time>
      </trkpt>
      <trkpt lat="43.00083" lon="-1.10213667">
        <ele>929.0</ele>
        <time>2019-07-31T14:37:01.129Z</time>
      </trkpt>
      <trkpt lat="43.00082" lon="-1.10212667">
        <ele>928.0</ele>
        <time>2019-07-31T14:37:02.134Z</time>
      </trkpt>
      <trkpt lat="43.00081333" lon="-1.10211833">
        <ele>927.0</ele>
        <time>2019-07-31T14:37:03.139Z</time>
      </trkpt>
      <trkpt lat="43.00080833" lon="-1.10211667">
        <ele>928.0</ele>
        <time>2019-07-31T14:37:04.143Z</time>
      </trkpt>
      <trkpt lat="43.000805" lon="-1.10211333">
        <ele>928.0</ele>
        <time>2019-07-31T14:37:05.149Z</time>
      </trkpt>
      <trkpt lat="43.00080333" lon="-1.10211333">
        <ele>928.0</ele>
        <time>2019-07-31T14:37:06.154Z</time>
      </trkpt>
      <trkpt lat="43.000805" lon="-1.10210833">
        <ele>928.0</ele>
        <time>2019-07-31T14:37:07.159Z</time>
      </trkpt>
      <trkpt lat="43.000805" lon="-1.10210167">
        <ele>928.0</ele>
        <time>2019-07-31T14:37:08.164Z</time>
      </trkpt>
      <trkpt lat="43.00080333" lon="-1.10209667">
        <ele>927.0</ele>
        <time>2019-07-31T14:37:09.169Z</time>
      </trkpt>
      <trkpt lat="43.000805" lon="-1.10209">
        <ele>927.0</ele>
        <time>2019-07-31T14:37:10.175Z</time>
      </trkpt>
      <trkpt lat="43.00080833" lon="-1.10208667">
        <ele>927.0</ele>
        <time>2019-07-31T14:37:11.180Z</time>
      </trkpt>
      <trkpt lat="43.00081" lon="-1.10208167">
        <ele>926.0</ele>
        <time>2019-07-31T14:37:12.185Z</time>
      </trkpt>
      <trkpt lat="43.00081" lon="-1.10207833">
        <ele>926.0</ele>
        <time>2019-07-31T14:37:13.066Z</time>
      </trkpt>
      <trkpt lat="43.00081" lon="-1.10207">
        <ele>926.0</ele>
        <time>2019-07-31T14:37:14.071Z</time>
      </trkpt>
      <trkpt lat="43.00081167" lon="-1.102065">
        <ele>927.0</ele>
        <time>2019-07-31T14:37:15.077Z</time>
      </trkpt>
      <trkpt lat="43.00081667" lon="-1.10206833">
        <ele>928.0</ele>
        <time>2019-07-31T14:37:16.082Z</time>
      </trkpt>
      <trkpt lat="43.00081833" lon="-1.10207">
        <ele>929.0</ele>
        <time>2019-07-31T14:37:17.088Z</time>
      </trkpt>
      <trkpt lat="43.00082" lon="-1.10207167">
        <ele>929.0</ele>
        <time>2019-07-31T14:37:18.091Z</time>
      </trkpt>
      <trkpt lat="43.00081833" lon="-1.10206667">
        <ele>929.0</ele>
        <time>2019-07-31T14:37:19.094Z</time>
      </trkpt>
      <trkpt lat="43.00082" lon="-1.10205833">
        <ele>928.0</ele>
        <time>2019-07-31T14:37:20.099Z</time>
      </trkpt>
      <trkpt lat="43.00082167" lon="-1.10205333">
        <ele>927.0</ele>
        <time>2019-07-31T14:37:21.105Z</time>
      </trkpt>
      <trkpt lat="43.00082333" lon="-1.10205">
        <ele>926.0</ele>
        <time>2019-07-31T14:37:22.110Z</time>
      </trkpt>
      <trkpt lat="43.00082833" lon="-1.10205333">
        <ele>927.0</ele>
        <time>2019-07-31T14:37:23.115Z</time>
      </trkpt>
      <trkpt lat="43.00083333" lon="-1.10205833">
        <ele>927.0</ele>
        <time>2019-07-31T14:37:24.119Z</time>
      </trkpt>
      <trkpt lat="43.00083167" lon="-1.102055">
        <ele>927.0</ele>
        <time>2019-07-31T14:37:25.125Z</time>
      </trkpt>
      <trkpt lat="43.00083" lon="-1.10205">
        <ele>927.0</ele>
        <time>2019-07-31T14:37:26.128Z</time>
      </trkpt>
      <trkpt lat="43.00083333" lon="-1.10204333">
        <ele>927.0</ele>
        <time>2019-07-31T14:37:27.132Z</time>
      </trkpt>
      <trkpt lat="43.00082833" lon="-1.102045">
        <ele>927.0</ele>
        <time>2019-07-31T14:37:28.136Z</time>
      </trkpt>
      <trkpt lat="43.00082167" lon="-1.10204833">
        <ele>928.0</ele>
        <time>2019-07-31T14:37:29.142Z</time>
      </trkpt>
      <trkpt lat="43.00081833" lon="-1.10205333">
        <ele>928.0</ele>
        <time>2019-07-31T14:37:30.147Z</time>
      </trkpt>
      <trkpt lat="43.00081667" lon="-1.10205167">
        <ele>927.0</ele>
        <time>2019-07-31T14:37:31.153Z</time>
      </trkpt>
      <trkpt lat="43.00081667" lon="-1.10205667">
        <ele>927.0</ele>
        <time>2019-07-31T14:37:32.156Z</time>
      </trkpt>
      <trkpt lat="43.00081667" lon="-1.10206833">
        <ele>926.0</ele>
        <time>2019-07-31T14:37:33.161Z</time>
      </trkpt>
      <trkpt lat="43.00082167" lon="-1.10208">
        <ele>925.0</ele>
        <time>2019-07-31T14:37:34.164Z</time>
      </trkpt>
      <trkpt lat="43.00081833" lon="-1.10208833">
        <ele>925.0</ele>
        <time>2019-07-31T14:37:35.170Z</time>
      </trkpt>
      <trkpt lat="43.00081667" lon="-1.10209833">
        <ele>925.0</ele>
        <time>2019-07-31T14:37:36.176Z</time>
      </trkpt>
      <trkpt lat="43.00081667" lon="-1.10210667">
        <ele>924.0</ele>
        <time>2019-07-31T14:37:37.181Z</time>
      </trkpt>
      <trkpt lat="43.00081167" lon="-1.102115">
        <ele>922.0</ele>
        <time>2019-07-31T14:37:38.185Z</time>
      </trkpt>
      <trkpt lat="43.00080667" lon="-1.10211167">
        <ele>922.0</ele>
        <time>2019-07-31T14:37:39.066Z</time>
      </trkpt>
      <trkpt lat="43.00079667" lon="-1.10210667">
        <ele>921.0</ele>
        <time>2019-07-31T14:37:40.071Z</time>
      </trkpt>
      <trkpt lat="43.00078833" lon="-1.10210667">
        <ele>922.0</ele>
        <time>2019-07-31T14:37:41.077Z</time>
      </trkpt>
      <trkpt lat="43.000785" lon="-1.10212">
        <ele>921.0</ele>
        <time>2019-07-31T14:37:42.083Z</time>
      </trkpt>
      <trkpt lat="43.00078167" lon="-1.10212667">
        <ele>921.0</ele>
        <time>2019-07-31T14:37:43.091Z</time>
      </trkpt>
      <trkpt lat="43.00077667" lon="-1.10212167">
        <ele>921.0</ele>
        <time>2019-07-31T14:37:44.095Z</time>
      </trkpt>
      <trkpt lat="43.00077167" lon="-1.10211833">
        <ele>921.0</ele>
        <time>2019-07-31T14:37:45.099Z</time>
      </trkpt>
      <trkpt lat="43.00076667" lon="-1.10211333">
        <ele>921.0</ele>
        <time>2019-07-31T14:37:46.105Z</time>
      </trkpt>
      <trkpt lat="43.00076333" lon="-1.10211167">
        <ele>921.0</ele>
        <time>2019-07-31T14:37:47.110Z</time>
      </trkpt>
      <trkpt lat="43.00076167" lon="-1.10211333">
        <ele>920.0</ele>
        <time>2019-07-31T14:37:48.116Z</time>
      </trkpt>
      <trkpt lat="43.00076" lon="-1.10211833">
        <ele>920.0</ele>
        <time>2019-07-31T14:37:49.122Z</time>
      </trkpt>
      <trkpt lat="43.00075833" lon="-1.10212167">
        <ele>920.0</ele>
        <time>2019-07-31T14:37:50.126Z</time>
      </trkpt>
      <trkpt lat="43.00075333" lon="-1.10212167">
        <ele>920.0</ele>
        <time>2019-07-31T14:37:51.132Z</time>
      </trkpt>
      <trkpt lat="43.00074833" lon="-1.10212167">
        <ele>920.0</ele>
        <time>2019-07-31T14:37:52.137Z</time>
      </trkpt>
      <trkpt lat="43.00074333" lon="-1.10211667">
        <ele>921.0</ele>
        <time>2019-07-31T14:37:53.140Z</time>
      </trkpt>
      <trkpt lat="43.00073833" lon="-1.10211833">
        <ele>921.0</ele>
        <time>2019-07-31T14:37:54.146Z</time>
      </trkpt>
      <trkpt lat="43.00073333" lon="-1.10211667">
        <ele>921.0</ele>
        <time>2019-07-31T14:37:55.154Z</time>
      </trkpt>
      <trkpt lat="43.00073" lon="-1.102115">
        <ele>921.0</ele>
        <time>2019-07-31T14:37:56.161Z</time>
      </trkpt>
      <trkpt lat="43.00072333" lon="-1.10211">
        <ele>922.0</ele>
        <time>2019-07-31T14:37:57.169Z</time>
      </trkpt>
      <trkpt lat="43.00071833" lon="-1.10211">
        <ele>922.0</ele>
        <time>2019-07-31T14:37:58.174Z</time>
      </trkpt>
      <trkpt lat="43.00071333" lon="-1.10211167">
        <ele>922.0</ele>
        <time>2019-07-31T14:37:59.179Z</time>
      </trkpt>
      <trkpt lat="43.000705" lon="-1.10211167">
        <ele>921.0</ele>
        <time>2019-07-31T14:38:00.185Z</time>
      </trkpt>
      <trkpt lat="43.0007" lon="-1.10211">
        <ele>921.0</ele>
        <time>2019-07-31T14:38:01.062Z</time>
      </trkpt>
      <trkpt lat="43.00069333" lon="-1.10210667">
        <ele>921.0</ele>
        <time>2019-07-31T14:38:02.067Z</time>
      </trkpt>
      <trkpt lat="43.00068833" lon="-1.102105">
        <ele>920.0</ele>
        <time>2019-07-31T14:38:03.072Z</time>
      </trkpt>
      <trkpt lat="43.00068167" lon="-1.1021">
        <ele>920.0</ele>
        <time>2019-07-31T14:38:04.077Z</time>
      </trkpt>
      <trkpt lat="43.00067667" lon="-1.1021">
        <ele>921.0</ele>
        <time>2019-07-31T14:38:05.084Z</time>
      </trkpt>
      <trkpt lat="43.00066333" lon="-1.10209333">
        <ele>921.0</ele>
        <time>2019-07-31T14:38:06.090Z</time>
      </trkpt>
      <trkpt lat="43.000655" lon="-1.10209333">
        <ele>921.0</ele>
        <time>2019-07-31T14:38:07.095Z</time>
      </trkpt>
      <trkpt lat="43.00064333" lon="-1.10210333">
        <ele>920.0</ele>
        <time>2019-07-31T14:38:08.101Z</time>
      </trkpt>
      <trkpt lat="43.000635" lon="-1.10210667">
        <ele>921.0</ele>
        <time>2019-07-31T14:38:09.104Z</time>
      </trkpt>
      <trkpt lat="43.00062667" lon="-1.10211">
        <ele>921.0</ele>
        <time>2019-07-31T14:38:10.110Z</time>
      </trkpt>
      <trkpt lat="43.000615" lon="-1.102115">
        <ele>920.0</ele>
        <time>2019-07-31T14:38:11.115Z</time>
      </trkpt>
      <trkpt lat="43.000605" lon="-1.10211167">
        <ele>921.0</ele>
        <time>2019-07-31T14:38:12.120Z</time>
      </trkpt>
      <trkpt lat="43.00060167" lon="-1.10210833">
        <ele>921.0</ele>
        <time>2019-07-31T14:38:13.127Z</time>
      </trkpt>
      <trkpt lat="43.00059667" lon="-1.10210333">
        <ele>921.0</ele>
        <time>2019-07-31T14:38:14.134Z</time>
      </trkpt>
      <trkpt lat="43.000595" lon="-1.10210167">
        <ele>922.0</ele>
        <time>2019-07-31T14:38:15.139Z</time>
      </trkpt>
      <trkpt lat="43.00058833" lon="-1.10210167">
        <ele>923.0</ele>
        <time>2019-07-31T14:38:16.146Z</time>
      </trkpt>
      <trkpt lat="43.00058167" lon="-1.10209833">
        <ele>922.0</ele>
        <time>2019-07-31T14:38:17.152Z</time>
      </trkpt>
      <trkpt lat="43.000575" lon="-1.1021">
        <ele>921.0</ele>
        <time>2019-07-31T14:38:18.159Z</time>
      </trkpt>
      <trkpt lat="43.00056667" lon="-1.102105">
        <ele>921.0</ele>
        <time>2019-07-31T14:38:19.166Z</time>
      </trkpt>
      <trkpt lat="43.00056" lon="-1.10210667">
        <ele>922.0</ele>
        <time>2019-07-31T14:38:20.173Z</time>
      </trkpt>
      <trkpt lat="43.000555" lon="-1.10211">
        <ele>922.0</ele>
        <time>2019-07-31T14:38:21.177Z</time>
      </trkpt>
      <trkpt lat="43.00055" lon="-1.10211167">
        <ele>921.0</ele>
        <time>2019-07-31T14:38:22.182Z</time>
      </trkpt>
      <trkpt lat="43.00054333" lon="-1.10211">
        <ele>921.0</ele>
        <time>2019-07-31T14:38:23.186Z</time>
      </trkpt>
      <trkpt lat="43.00054" lon="-1.10211167">
        <ele>921.0</ele>
        <time>2019-07-31T14:38:24.062Z</time>
      </trkpt>
      <trkpt lat="43.00053333" lon="-1.10211">
        <ele>921.0</ele>
        <time>2019-07-31T14:38:25.067Z</time>
      </trkpt>
      <trkpt lat="43.00052833" lon="-1.10211">
        <ele>920.0</ele>
        <time>2019-07-31T14:38:26.071Z</time>
      </trkpt>
      <trkpt lat="43.00052167" lon="-1.10211">
        <ele>921.0</ele>
        <time>2019-07-31T14:38:27.077Z</time>
      </trkpt>
      <trkpt lat="43.000515" lon="-1.10210833">
        <ele>922.0</ele>
        <time>2019-07-31T14:38:28.081Z</time>
      </trkpt>
      <trkpt lat="43.00051" lon="-1.10210333">
        <ele>922.0</ele>
        <time>2019-07-31T14:38:29.087Z</time>
      </trkpt>
      <trkpt lat="43.00049833" lon="-1.1021">
        <ele>923.0</ele>
        <time>2019-07-31T14:38:30.092Z</time>
      </trkpt>
      <trkpt lat="43.00049" lon="-1.10209833">
        <ele>923.0</ele>
        <time>2019-07-31T14:38:31.096Z</time>
      </trkpt>
      <trkpt lat="43.00048167" lon="-1.10209333">
        <ele>923.0</ele>
        <time>2019-07-31T14:38:32.100Z</time>
      </trkpt>
      <trkpt lat="43.00047667" lon="-1.1021">
        <ele>923.0</ele>
        <time>2019-07-31T14:38:33.105Z</time>
      </trkpt>
      <trkpt lat="43.00047" lon="-1.10210167">
        <ele>923.0</ele>
        <time>2019-07-31T14:38:34.111Z</time>
      </trkpt>
      <trkpt lat="43.00046333" lon="-1.1021">
        <ele>923.0</ele>
        <time>2019-07-31T14:38:35.117Z</time>
      </trkpt>
      <trkpt lat="43.000455" lon="-1.10209833">
        <ele>923.0</ele>
        <time>2019-07-31T14:38:36.123Z</time>
      </trkpt>
      <trkpt lat="43.00044833" lon="-1.102095">
        <ele>923.0</ele>
        <time>2019-07-31T14:38:37.129Z</time>
      </trkpt>
      <trkpt lat="43.00044" lon="-1.10209167">
        <ele>923.0</ele>
        <time>2019-07-31T14:38:38.135Z</time>
      </trkpt>
      <trkpt lat="43.00043167" lon="-1.10209167">
        <ele>922.0</ele>
        <time>2019-07-31T14:38:39.142Z</time>
      </trkpt>
      <trkpt lat="43.00042833" lon="-1.10210167">
        <ele>922.0</ele>
        <time>2019-07-31T14:38:40.148Z</time>
      </trkpt>
      <trkpt lat="43.00042667" lon="-1.1021">
        <ele>921.0</ele>
        <time>2019-07-31T14:38:41.153Z</time>
      </trkpt>
      <trkpt lat="43.00042667" lon="-1.10209833">
        <ele>922.0</ele>
        <time>2019-07-31T14:38:42.157Z</time>
      </trkpt>
      <trkpt lat="43.00042333" lon="-1.1021">
        <ele>922.0</ele>
        <time>2019-07-31T14:38:43.163Z</time>
      </trkpt>
      <trkpt lat="43.00042333" lon="-1.10210167">
        <ele>922.0</ele>
        <time>2019-07-31T14:38:44.167Z</time>
      </trkpt>
      <trkpt lat="43.00042333" lon="-1.10210833">
        <ele>921.0</ele>
        <time>2019-07-31T14:38:45.168Z</time>
      </trkpt>
      <trkpt lat="43.00042333" lon="-1.10211667">
        <ele>920.0</ele>
        <time>2019-07-31T14:38:46.171Z</time>
      </trkpt>
      <trkpt lat="43.00042333" lon="-1.10212167">
        <ele>920.0</ele>
        <time>2019-07-31T14:38:47.174Z</time>
      </trkpt>
      <trkpt lat="43.00042167" lon="-1.10213">
        <ele>920.0</ele>
        <time>2019-07-31T14:38:48.178Z</time>
      </trkpt>
      <trkpt lat="43.00042667" lon="-1.10214667">
        <ele>919.0</ele>
        <time>2019-07-31T14:38:49.181Z</time>
      </trkpt>
      <trkpt lat="43.00043167" lon="-1.10215833">
        <ele>919.0</ele>
        <time>2019-07-31T14:38:50.186Z</time>
      </trkpt>
      <trkpt lat="43.000435" lon="-1.10216333">
        <ele>918.0</ele>
        <time>2019-07-31T14:38:51.066Z</time>
      </trkpt>
      <trkpt lat="43.00043833" lon="-1.10216833">
        <ele>918.0</ele>
        <time>2019-07-31T14:38:52.070Z</time>
      </trkpt>
      <trkpt lat="43.00044333" lon="-1.10217167">
        <ele>917.0</ele>
        <time>2019-07-31T14:38:53.076Z</time>
      </trkpt>
      <trkpt lat="43.00044667" lon="-1.10217167">
        <ele>917.0</ele>
        <time>2019-07-31T14:38:54.080Z</time>
      </trkpt>
      <trkpt lat="43.00045167" lon="-1.10217833">
        <ele>916.0</ele>
        <time>2019-07-31T14:38:55.084Z</time>
      </trkpt>
      <trkpt lat="43.00045833" lon="-1.10218833">
        <ele>916.0</ele>
        <time>2019-07-31T14:38:56.089Z</time>
      </trkpt>
      <trkpt lat="43.00046" lon="-1.10219333">
        <ele>915.0</ele>
        <time>2019-07-31T14:38:57.092Z</time>
      </trkpt>
      <trkpt lat="43.00046167" lon="-1.10218833">
        <ele>915.0</ele>
        <time>2019-07-31T14:38:58.098Z</time>
      </trkpt>
      <trkpt lat="43.000465" lon="-1.102185">
        <ele>914.0</ele>
        <time>2019-07-31T14:38:59.104Z</time>
      </trkpt>
      <trkpt lat="43.00046833" lon="-1.10218667">
        <ele>913.0</ele>
        <time>2019-07-31T14:39:00.109Z</time>
      </trkpt>
      <trkpt lat="43.00047167" lon="-1.10219">
        <ele>911.0</ele>
        <time>2019-07-31T14:39:01.114Z</time>
      </trkpt>
      <trkpt lat="43.00047167" lon="-1.10218333">
        <ele>911.0</ele>
        <time>2019-07-31T14:39:02.119Z</time>
      </trkpt>
      <trkpt lat="43.00047667" lon="-1.10218333">
        <ele>909.0</ele>
        <time>2019-07-31T14:39:03.124Z</time>
      </trkpt>
      <trkpt lat="43.00047833" lon="-1.10217833">
        <ele>909.0</ele>
        <time>2019-07-31T14:39:04.129Z</time>
      </trkpt>
      <trkpt lat="43.00047833" lon="-1.10217167">
        <ele>908.0</ele>
        <time>2019-07-31T14:39:05.134Z</time>
      </trkpt>
      <trkpt lat="43.00047667" lon="-1.10216333">
        <ele>907.0</ele>
        <time>2019-07-31T14:39:06.140Z</time>
      </trkpt>
      <trkpt lat="43.00047167" lon="-1.10215">
        <ele>906.0</ele>
        <time>2019-07-31T14:39:07.145Z</time>
      </trkpt>
      <trkpt lat="43.00046667" lon="-1.10213833">
        <ele>907.0</ele>
        <time>2019-07-31T14:39:08.152Z</time>
      </trkpt>
      <trkpt lat="43.00046667" lon="-1.10213333">
        <ele>907.0</ele>
        <time>2019-07-31T14:39:09.155Z</time>
      </trkpt>
      <trkpt lat="43.00046667" lon="-1.102135">
        <ele>909.0</ele>
        <time>2019-07-31T14:39:10.162Z</time>
      </trkpt>
      <trkpt lat="43.00046667" lon="-1.10213167">
        <ele>909.0</ele>
        <time>2019-07-31T14:39:11.167Z</time>
      </trkpt>
      <trkpt lat="43.00046167" lon="-1.10212333">
        <ele>909.0</ele>
        <time>2019-07-31T14:39:12.173Z</time>
      </trkpt>
      <trkpt lat="43.00045333" lon="-1.10210333">
        <ele>910.0</ele>
        <time>2019-07-31T14:39:13.177Z</time>
      </trkpt>
      <trkpt lat="43.00044833" lon="-1.10208667">
        <ele>912.0</ele>
        <time>2019-07-31T14:39:14.182Z</time>
      </trkpt>
      <trkpt lat="43.00044667" lon="-1.10208667">
        <ele>912.0</ele>
        <time>2019-07-31T14:39:15.062Z</time>
      </trkpt>
      <trkpt lat="43.00043833" lon="-1.10208333">
        <ele>913.0</ele>
        <time>2019-07-31T14:39:16.067Z</time>
      </trkpt>
      <trkpt lat="43.00043" lon="-1.10207667">
        <ele>914.0</ele>
        <time>2019-07-31T14:39:17.072Z</time>
      </trkpt>
      <trkpt lat="43.00041833" lon="-1.10206667">
        <ele>914.0</ele>
        <time>2019-07-31T14:39:18.078Z</time>
      </trkpt>
      <trkpt lat="43.00040833" lon="-1.10206833">
        <ele>914.0</ele>
        <time>2019-07-31T14:39:19.083Z</time>
      </trkpt>
      <trkpt lat="43.00039667" lon="-1.10207167">
        <ele>915.0</ele>
        <time>2019-07-31T14:39:20.088Z</time>
      </trkpt>
      <trkpt lat="43.000385" lon="-1.10207">
        <ele>915.0</ele>
        <time>2019-07-31T14:39:21.093Z</time>
      </trkpt>
      <trkpt lat="43.00037167" lon="-1.10206">
        <ele>916.0</ele>
        <time>2019-07-31T14:39:22.097Z</time>
      </trkpt>
      <trkpt lat="43.00036833" lon="-1.10205833">
        <ele>917.0</ele>
        <time>2019-07-31T14:39:23.105Z</time>
      </trkpt>
      <trkpt lat="43.00036833" lon="-1.10206167">
        <ele>918.0</ele>
        <time>2019-07-31T14:39:24.109Z</time>
      </trkpt>
      <trkpt lat="43.00036333" lon="-1.102055">
        <ele>919.0</ele>
        <time>2019-07-31T14:39:25.113Z</time>
      </trkpt>
      <trkpt lat="43.00035333" lon="-1.10204333">
        <ele>919.0</ele>
        <time>2019-07-31T14:39:26.116Z</time>
      </trkpt>
      <trkpt lat="43.000345" lon="-1.10203667">
        <ele>919.0</ele>
        <time>2019-07-31T14:39:27.122Z</time>
      </trkpt>
      <trkpt lat="43.00033667" lon="-1.10203">
        <ele>919.0</ele>
        <time>2019-07-31T14:39:28.127Z</time>
      </trkpt>
      <trkpt lat="43.00033167" lon="-1.10202333">
        <ele>919.0</ele>
        <time>2019-07-31T14:39:29.133Z</time>
      </trkpt>
      <trkpt lat="43.00032667" lon="-1.10201167">
        <ele>919.0</ele>
        <time>2019-07-31T14:39:30.136Z</time>
      </trkpt>
      <trkpt lat="43.00031833" lon="-1.10200333">
        <ele>919.0</ele>
        <time>2019-07-31T14:39:31.141Z</time>
      </trkpt>
      <trkpt lat="43.000315" lon="-1.102">
        <ele>920.0</ele>
        <time>2019-07-31T14:39:32.147Z</time>
      </trkpt>
      <trkpt lat="43.00031" lon="-1.101995">
        <ele>920.0</ele>
        <time>2019-07-31T14:39:33.154Z</time>
      </trkpt>
      <trkpt lat="43.00030333" lon="-1.10198833">
        <ele>920.0</ele>
        <time>2019-07-31T14:39:34.157Z</time>
      </trkpt>
      <trkpt lat="43.00029833" lon="-1.101985">
        <ele>920.0</ele>
        <time>2019-07-31T14:39:35.162Z</time>
      </trkpt>
      <trkpt lat="43.00029167" lon="-1.10198167">
        <ele>921.0</ele>
        <time>2019-07-31T14:39:36.168Z</time>
      </trkpt>
      <trkpt lat="43.00028333" lon="-1.101985">
        <ele>921.0</ele>
        <time>2019-07-31T14:39:37.174Z</time>
      </trkpt>
      <trkpt lat="43.00027833" lon="-1.10199667">
        <ele>921.0</ele>
        <time>2019-07-31T14:39:38.179Z</time>
      </trkpt>
      <trkpt lat="43.00027333" lon="-1.10201333">
        <ele>921.0</ele>
        <time>2019-07-31T14:39:39.186Z</time>
      </trkpt>
      <trkpt lat="43.00027" lon="-1.102025">
        <ele>921.0</ele>
        <time>2019-07-31T14:39:40.064Z</time>
      </trkpt>
      <trkpt lat="43.00026333" lon="-1.10203167">
        <ele>922.0</ele>
        <time>2019-07-31T14:39:41.071Z</time>
      </trkpt>
      <trkpt lat="43.00026167" lon="-1.10204167">
        <ele>922.0</ele>
        <time>2019-07-31T14:39:42.077Z</time>
      </trkpt>
      <trkpt lat="43.00026333" lon="-1.10205">
        <ele>920.0</ele>
        <time>2019-07-31T14:39:43.082Z</time>
      </trkpt>
      <trkpt lat="43.00026167" lon="-1.10205167">
        <ele>919.0</ele>
        <time>2019-07-31T14:39:44.086Z</time>
      </trkpt>
      <trkpt lat="43.00026" lon="-1.10206">
        <ele>919.0</ele>
        <time>2019-07-31T14:39:45.090Z</time>
      </trkpt>
      <trkpt lat="43.00025833" lon="-1.10207">
        <ele>918.0</ele>
        <time>2019-07-31T14:39:46.094Z</time>
      </trkpt>
      <trkpt lat="43.00025667" lon="-1.10207833">
        <ele>918.0</ele>
        <time>2019-07-31T14:39:47.099Z</time>
      </trkpt>
      <trkpt lat="43.00025167" lon="-1.102085">
        <ele>918.0</ele>
        <time>2019-07-31T14:39:48.106Z</time>
      </trkpt>
      <trkpt lat="43.00024667" lon="-1.10209">
        <ele>918.0</ele>
        <time>2019-07-31T14:39:49.111Z</time>
      </trkpt>
      <trkpt lat="43.00024333" lon="-1.10210167">
        <ele>918.0</ele>
        <time>2019-07-31T14:39:50.118Z</time>
      </trkpt>
      <trkpt lat="43.00023833" lon="-1.10210667">
        <ele>918.0</ele>
        <time>2019-07-31T14:39:51.122Z</time>
      </trkpt>
      <trkpt lat="43.00023167" lon="-1.102115">
        <ele>918.0</ele>
        <time>2019-07-31T14:39:52.127Z</time>
      </trkpt>
      <trkpt lat="43.00022667" lon="-1.10212">
        <ele>917.0</ele>
        <time>2019-07-31T14:39:53.134Z</time>
      </trkpt>
      <trkpt lat="43.00022" lon="-1.10212167">
        <ele>917.0</ele>
        <time>2019-07-31T14:39:54.139Z</time>
      </trkpt>
      <trkpt lat="43.00021833" lon="-1.10212">
        <ele>918.0</ele>
        <time>2019-07-31T14:39:55.145Z</time>
      </trkpt>
      <trkpt lat="43.00022" lon="-1.10212">
        <ele>918.0</ele>
        <time>2019-07-31T14:39:56.150Z</time>
      </trkpt>
      <trkpt lat="43.00022" lon="-1.102125">
        <ele>918.0</ele>
        <time>2019-07-31T14:39:57.155Z</time>
      </trkpt>
      <trkpt lat="43.00021667" lon="-1.10213">
        <ele>919.0</ele>
        <time>2019-07-31T14:39:58.159Z</time>
      </trkpt>
      <trkpt lat="43.00021167" lon="-1.10211833">
        <ele>919.0</ele>
        <time>2019-07-31T14:39:59.164Z</time>
      </trkpt>
      <trkpt lat="43.0002" lon="-1.10211667">
        <ele>919.0</ele>
        <time>2019-07-31T14:40:00.170Z</time>
      </trkpt>
      <trkpt lat="43.00019333" lon="-1.10212">
        <ele>919.0</ele>
        <time>2019-07-31T14:40:01.176Z</time>
      </trkpt>
      <trkpt lat="43.00019" lon="-1.10212667">
        <ele>919.0</ele>
        <time>2019-07-31T14:40:02.181Z</time>
      </trkpt>
      <trkpt lat="43.00018833" lon="-1.10214">
        <ele>919.0</ele>
        <time>2019-07-31T14:40:03.184Z</time>
      </trkpt>
      <trkpt lat="43.00018833" lon="-1.10215167">
        <ele>919.0</ele>
        <time>2019-07-31T14:40:04.065Z</time>
      </trkpt>
      <trkpt lat="43.00019" lon="-1.10216333">
        <ele>919.0</ele>
        <time>2019-07-31T14:40:05.071Z</time>
      </trkpt>
      <trkpt lat="43.00019333" lon="-1.10217">
        <ele>919.0</ele>
        <time>2019-07-31T14:40:06.076Z</time>
      </trkpt>
      <trkpt lat="43.000195" lon="-1.102185">
        <ele>919.0</ele>
        <time>2019-07-31T14:40:07.080Z</time>
      </trkpt>
      <trkpt lat="43.00019667" lon="-1.102195">
        <ele>919.0</ele>
        <time>2019-07-31T14:40:08.085Z</time>
      </trkpt>
      <trkpt lat="43.0002" lon="-1.10220333">
        <ele>919.0</ele>
        <time>2019-07-31T14:40:09.090Z</time>
      </trkpt>
      <trkpt lat="43.00020333" lon="-1.102215">
        <ele>919.0</ele>
        <time>2019-07-31T14:40:10.096Z</time>
      </trkpt>
      <trkpt lat="43.000205" lon="-1.10222833">
        <ele>919.0</ele>
        <time>2019-07-31T14:40:11.103Z</time>
      </trkpt>
      <trkpt lat="43.00020333" lon="-1.102235">
        <ele>919.0</ele>
        <time>2019-07-31T14:40:12.109Z</time>
      </trkpt>
      <trkpt lat="43.0002" lon="-1.102235">
        <ele>920.0</ele>
        <time>2019-07-31T14:40:13.115Z</time>
      </trkpt>
      <trkpt lat="43.0002" lon="-1.10225">
        <ele>920.0</ele>
        <time>2019-07-31T14:40:14.120Z</time>
      </trkpt>
      <trkpt lat="43.00020333" lon="-1.10226333">
        <ele>920.0</ele>
        <time>2019-07-31T14:40:15.125Z</time>
      </trkpt>
      <trkpt lat="43.00020833" lon="-1.10228">
        <ele>921.0</ele>
        <time>2019-07-31T14:40:16.129Z</time>
      </trkpt>
      <trkpt lat="43.00021333" lon="-1.10229667">
        <ele>922.0</ele>
        <time>2019-07-31T14:40:17.133Z</time>
      </trkpt>
      <trkpt lat="43.000215" lon="-1.10230667">
        <ele>922.0</ele>
        <time>2019-07-31T14:40:18.138Z</time>
      </trkpt>
      <trkpt lat="43.00021167" lon="-1.102305">
        <ele>923.0</ele>
        <time>2019-07-31T14:40:19.142Z</time>
      </trkpt>
      <trkpt lat="43.00020833" lon="-1.10229667">
        <ele>923.0</ele>
        <time>2019-07-31T14:40:20.147Z</time>
      </trkpt>
      <trkpt lat="43.00021167" lon="-1.10228833">
        <ele>922.0</ele>
        <time>2019-07-31T14:40:21.152Z</time>
      </trkpt>
      <trkpt lat="43.00021833" lon="-1.10228333">
        <ele>923.0</ele>
        <time>2019-07-31T14:40:22.159Z</time>
      </trkpt>
      <trkpt lat="43.00021833" lon="-1.10227667">
        <ele>921.0</ele>
        <time>2019-07-31T14:40:23.164Z</time>
      </trkpt>
      <trkpt lat="43.00021167" lon="-1.10227167">
        <ele>922.0</ele>
        <time>2019-07-31T14:40:24.171Z</time>
      </trkpt>
      <trkpt lat="43.000205" lon="-1.10226833">
        <ele>922.0</ele>
        <time>2019-07-31T14:40:25.176Z</time>
      </trkpt>
      <trkpt lat="43.0002" lon="-1.102265">
        <ele>922.0</ele>
        <time>2019-07-31T14:40:26.182Z</time>
      </trkpt>
      <trkpt lat="43.00019333" lon="-1.10225667">
        <ele>922.0</ele>
        <time>2019-07-31T14:40:27.061Z</time>
      </trkpt>
      <trkpt lat="43.00018667" lon="-1.10224833">
        <ele>923.0</ele>
        <time>2019-07-31T14:40:28.065Z</time>
      </trkpt>
      <trkpt lat="43.00018" lon="-1.102245">
        <ele>923.0</ele>
        <time>2019-07-31T14:40:29.068Z</time>
      </trkpt>
      <trkpt lat="43.000175" lon="-1.10224167">
        <ele>923.0</ele>
        <time>2019-07-31T14:40:30.074Z</time>
      </trkpt>
      <trkpt lat="43.00017" lon="-1.10224">
        <ele>922.0</ele>
        <time>2019-07-31T14:40:31.080Z</time>
      </trkpt>
      <trkpt lat="43.00016" lon="-1.10224">
        <ele>923.0</ele>
        <time>2019-07-31T14:40:32.087Z</time>
      </trkpt>
      <trkpt lat="43.00014833" lon="-1.10224">
        <ele>923.0</ele>
        <time>2019-07-31T14:40:33.091Z</time>
      </trkpt>
      <trkpt lat="43.00014" lon="-1.102245">
        <ele>922.0</ele>
        <time>2019-07-31T14:40:34.097Z</time>
      </trkpt>
      <trkpt lat="43.00013167" lon="-1.10225667">
        <ele>922.0</ele>
        <time>2019-07-31T14:40:35.102Z</time>
      </trkpt>
      <trkpt lat="43.000125" lon="-1.10227167">
        <ele>922.0</ele>
        <time>2019-07-31T14:40:36.109Z</time>
      </trkpt>
      <trkpt lat="43.000115" lon="-1.102285">
        <ele>922.0</ele>
        <time>2019-07-31T14:40:37.113Z</time>
      </trkpt>
      <trkpt lat="43.00010667" lon="-1.10229333">
        <ele>922.0</ele>
        <time>2019-07-31T14:40:38.117Z</time>
      </trkpt>
      <trkpt lat="43.00009667" lon="-1.10230167">
        <ele>922.0</ele>
        <time>2019-07-31T14:40:39.122Z</time>
      </trkpt>
      <trkpt lat="43.00008667" lon="-1.10231333">
        <ele>922.0</ele>
        <time>2019-07-31T14:40:40.128Z</time>
      </trkpt>
      <trkpt lat="43.00007667" lon="-1.102325">
        <ele>922.0</ele>
        <time>2019-07-31T14:40:41.134Z</time>
      </trkpt>
      <trkpt lat="43.000065" lon="-1.10232833">
        <ele>923.0</ele>
        <time>2019-07-31T14:40:42.140Z</time>
      </trkpt>
      <trkpt lat="43.000055" lon="-1.10233167">
        <ele>924.0</ele>
        <time>2019-07-31T14:40:43.145Z</time>
      </trkpt>
      <trkpt lat="43.00004667" lon="-1.10233667">
        <ele>924.0</ele>
        <time>2019-07-31T14:40:44.149Z</time>
      </trkpt>
      <trkpt lat="43.00003667" lon="-1.10233167">
        <ele>924.0</ele>
        <time>2019-07-31T14:40:45.156Z</time>
      </trkpt>
      <trkpt lat="43.000025" lon="-1.10233">
        <ele>925.0</ele>
        <time>2019-07-31T14:40:46.162Z</time>
      </trkpt>
      <trkpt lat="43.000015" lon="-1.102325">
        <ele>926.0</ele>
        <time>2019-07-31T14:40:47.166Z</time>
      </trkpt>
      <trkpt lat="43.0" lon="-1.10232667">
        <ele>928.0</ele>
        <time>2019-07-31T14:40:48.171Z</time>
      </trkpt>
      <trkpt lat="42.99998333" lon="-1.10232333">
        <ele>930.0</ele>
        <time>2019-07-31T14:40:49.177Z</time>
      </trkpt>
      <trkpt lat="42.99997833" lon="-1.10234">
        <ele>931.0</ele>
        <time>2019-07-31T14:40:50.183Z</time>
      </trkpt>
      <trkpt lat="42.99998" lon="-1.10237167">
        <ele>931.0</ele>
        <time>2019-07-31T14:40:51.061Z</time>
      </trkpt>
      <trkpt lat="42.99998" lon="-1.10239167">
        <ele>932.0</ele>
        <time>2019-07-31T14:40:52.066Z</time>
      </trkpt>
      <trkpt lat="42.999975" lon="-1.10239833">
        <ele>932.0</ele>
        <time>2019-07-31T14:40:53.072Z</time>
      </trkpt>
      <trkpt lat="42.99996333" lon="-1.10239333">
        <ele>933.0</ele>
        <time>2019-07-31T14:40:54.080Z</time>
      </trkpt>
      <trkpt lat="42.99995" lon="-1.10237667">
        <ele>934.0</ele>
        <time>2019-07-31T14:40:55.084Z</time>
      </trkpt>
      <trkpt lat="42.99993833" lon="-1.10235833">
        <ele>935.0</ele>
        <time>2019-07-31T14:40:56.088Z</time>
      </trkpt>
      <trkpt lat="42.99992667" lon="-1.10233667">
        <ele>936.0</ele>
        <time>2019-07-31T14:40:57.094Z</time>
      </trkpt>
      <trkpt lat="42.999915" lon="-1.102315">
        <ele>937.0</ele>
        <time>2019-07-31T14:40:58.098Z</time>
      </trkpt>
      <trkpt lat="42.99990167" lon="-1.10228833">
        <ele>939.0</ele>
        <time>2019-07-31T14:40:59.103Z</time>
      </trkpt>
      <trkpt lat="42.99988167" lon="-1.10228333">
        <ele>939.0</ele>
        <time>2019-07-31T14:41:00.108Z</time>
      </trkpt>
      <trkpt lat="42.99987167" lon="-1.10228833">
        <ele>939.0</ele>
        <time>2019-07-31T14:41:01.113Z</time>
      </trkpt>
      <trkpt lat="42.999875" lon="-1.10232667">
        <ele>939.0</ele>
        <time>2019-07-31T14:41:02.119Z</time>
      </trkpt>
      <trkpt lat="42.99987333" lon="-1.102355">
        <ele>940.0</ele>
        <time>2019-07-31T14:41:03.125Z</time>
      </trkpt>
      <trkpt lat="42.99986667" lon="-1.10236">
        <ele>940.0</ele>
        <time>2019-07-31T14:41:04.131Z</time>
      </trkpt>
      <trkpt lat="42.99986167" lon="-1.10239">
        <ele>941.0</ele>
        <time>2019-07-31T14:41:05.138Z</time>
      </trkpt>
      <trkpt lat="42.99985833" lon="-1.10241833">
        <ele>941.0</ele>
        <time>2019-07-31T14:41:06.146Z</time>
      </trkpt>
      <trkpt lat="42.999855" lon="-1.10243">
        <ele>942.0</ele>
        <time>2019-07-31T14:41:07.154Z</time>
      </trkpt>
      <trkpt lat="42.99985667" lon="-1.10245167">
        <ele>941.0</ele>
        <time>2019-07-31T14:41:08.161Z</time>
      </trkpt>
      <trkpt lat="42.99985833" lon="-1.102455">
        <ele>941.0</ele>
        <time>2019-07-31T14:41:09.168Z</time>
      </trkpt>
      <trkpt lat="42.99985667" lon="-1.10245667">
        <ele>942.0</ele>
        <time>2019-07-31T14:41:10.174Z</time>
      </trkpt>
      <trkpt lat="42.99985" lon="-1.10244667">
        <ele>942.0</ele>
        <time>2019-07-31T14:41:11.180Z</time>
      </trkpt>
      <trkpt lat="42.999845" lon="-1.10243667">
        <ele>943.0</ele>
        <time>2019-07-31T14:41:12.185Z</time>
      </trkpt>
      <trkpt lat="42.99983667" lon="-1.102415">
        <ele>944.0</ele>
        <time>2019-07-31T14:41:13.064Z</time>
      </trkpt>
      <trkpt lat="42.99983333" lon="-1.10239167">
        <ele>945.0</ele>
        <time>2019-07-31T14:41:14.070Z</time>
      </trkpt>
      <trkpt lat="42.99983" lon="-1.10237667">
        <ele>945.0</ele>
        <time>2019-07-31T14:41:15.076Z</time>
      </trkpt>
      <trkpt lat="42.99983333" lon="-1.10238">
        <ele>945.0</ele>
        <time>2019-07-31T14:41:16.083Z</time>
      </trkpt>
      <trkpt lat="42.99983833" lon="-1.10238667">
        <ele>945.0</ele>
        <time>2019-07-31T14:41:17.087Z</time>
      </trkpt>
      <trkpt lat="42.99983833" lon="-1.10238833">
        <ele>944.0</ele>
        <time>2019-07-31T14:41:18.092Z</time>
      </trkpt>
      <trkpt lat="42.99983167" lon="-1.10238667">
        <ele>944.0</ele>
        <time>2019-07-31T14:41:19.097Z</time>
      </trkpt>
      <trkpt lat="42.99983333" lon="-1.10239">
        <ele>943.0</ele>
        <time>2019-07-31T14:41:20.103Z</time>
      </trkpt>
      <trkpt lat="42.99983167" lon="-1.10239333">
        <ele>943.0</ele>
        <time>2019-07-31T14:41:21.109Z</time>
      </trkpt>
      <trkpt lat="42.99983167" lon="-1.10239667">
        <ele>942.0</ele>
        <time>2019-07-31T14:41:22.115Z</time>
      </trkpt>
      <trkpt lat="42.99983" lon="-1.1024">
        <ele>942.0</ele>
        <time>2019-07-31T14:41:23.120Z</time>
      </trkpt>
      <trkpt lat="42.99982833" lon="-1.102405">
        <ele>942.0</ele>
        <time>2019-07-31T14:41:24.127Z</time>
      </trkpt>
      <trkpt lat="42.99982667" lon="-1.10241">
        <ele>942.0</ele>
        <time>2019-07-31T14:41:25.130Z</time>
      </trkpt>
      <trkpt lat="42.999825" lon="-1.10241">
        <ele>942.0</ele>
        <time>2019-07-31T14:41:26.135Z</time>
      </trkpt>
      <trkpt lat="42.99982" lon="-1.102405">
        <ele>942.0</ele>
        <time>2019-07-31T14:41:27.140Z</time>
      </trkpt>
      <trkpt lat="42.999815" lon="-1.1024">
        <ele>942.0</ele>
        <time>2019-07-31T14:41:28.146Z</time>
      </trkpt>
      <trkpt lat="42.99981167" lon="-1.1024">
        <ele>942.0</ele>
        <time>2019-07-31T14:41:29.150Z</time>
      </trkpt>
      <trkpt lat="42.99980667" lon="-1.10239667">
        <ele>941.0</ele>
        <time>2019-07-31T14:41:30.155Z</time>
      </trkpt>
      <trkpt lat="42.99980167" lon="-1.102385">
        <ele>941.0</ele>
        <time>2019-07-31T14:41:31.160Z</time>
      </trkpt>
      <trkpt lat="42.99979667" lon="-1.10237667">
        <ele>941.0</ele>
        <time>2019-07-31T14:41:32.165Z</time>
      </trkpt>
      <trkpt lat="42.99979167" lon="-1.10236333">
        <ele>942.0</ele>
        <time>2019-07-31T14:41:33.171Z</time>
      </trkpt>
      <trkpt lat="42.99978833" lon="-1.10236333">
        <ele>942.0</ele>
        <time>2019-07-31T14:41:34.177Z</time>
      </trkpt>
      <trkpt lat="42.99978333" lon="-1.10235333">
        <ele>943.0</ele>
        <time>2019-07-31T14:41:35.183Z</time>
      </trkpt>
      <trkpt lat="42.99979167" lon="-1.10236167">
        <ele>942.0</ele>
        <time>2019-07-31T14:41:36.063Z</time>
      </trkpt>
      <trkpt lat="42.99980167" lon="-1.10237667">
        <ele>942.0</ele>
        <time>2019-07-31T14:41:37.066Z</time>
      </trkpt>
      <trkpt lat="42.99981" lon="-1.10239667">
        <ele>942.0</ele>
        <time>2019-07-31T14:41:38.072Z</time>
      </trkpt>
      <trkpt lat="42.999815" lon="-1.10241">
        <ele>942.0</ele>
        <time>2019-07-31T14:41:39.078Z</time>
      </trkpt>
      <trkpt lat="42.999825" lon="-1.102415">
        <ele>942.0</ele>
        <time>2019-07-31T14:41:40.082Z</time>
      </trkpt>
      <trkpt lat="42.99982833" lon="-1.10241833">
        <ele>943.0</ele>
        <time>2019-07-31T14:41:41.086Z</time>
      </trkpt>
      <trkpt lat="42.99983167" lon="-1.10242833">
        <ele>943.0</ele>
        <time>2019-07-31T14:41:42.090Z</time>
      </trkpt>
      <trkpt lat="42.999835" lon="-1.10242833">
        <ele>943.0</ele>
        <time>2019-07-31T14:41:43.093Z</time>
      </trkpt>
      <trkpt lat="42.99983667" lon="-1.102415">
        <ele>944.0</ele>
        <time>2019-07-31T14:41:44.097Z</time>
      </trkpt>
      <trkpt lat="42.99984167" lon="-1.10241">
        <ele>943.0</ele>
        <time>2019-07-31T14:41:45.103Z</time>
      </trkpt>
      <trkpt lat="42.99984667" lon="-1.10241">
        <ele>941.0</ele>
        <time>2019-07-31T14:41:46.109Z</time>
      </trkpt>
      <trkpt lat="42.99985" lon="-1.10241333">
        <ele>940.0</ele>
        <time>2019-07-31T14:41:47.114Z</time>
      </trkpt>
      <trkpt lat="42.99985" lon="-1.10242333">
        <ele>939.0</ele>
        <time>2019-07-31T14:41:48.118Z</time>
      </trkpt>
      <trkpt lat="42.999855" lon="-1.10243667">
        <ele>938.0</ele>
        <time>2019-07-31T14:41:49.124Z</time>
      </trkpt>
      <trkpt lat="42.99986167" lon="-1.10245667">
        <ele>936.0</ele>
        <time>2019-07-31T14:41:50.129Z</time>
      </trkpt>
      <trkpt lat="42.999865" lon="-1.10247167">
        <ele>934.0</ele>
        <time>2019-07-31T14:41:51.132Z</time>
      </trkpt>
      <trkpt lat="42.99986333" lon="-1.10247833">
        <ele>933.0</ele>
        <time>2019-07-31T14:41:52.136Z</time>
      </trkpt>
      <trkpt lat="42.999865" lon="-1.102475">
        <ele>933.0</ele>
        <time>2019-07-31T14:41:53.141Z</time>
      </trkpt>
      <trkpt lat="42.99987" lon="-1.10248833">
        <ele>932.0</ele>
        <time>2019-07-31T14:41:54.147Z</time>
      </trkpt>
      <trkpt lat="42.999875" lon="-1.10250667">
        <ele>931.0</ele>
        <time>2019-07-31T14:41:55.152Z</time>
      </trkpt>
      <trkpt lat="42.99987667" lon="-1.10251833">
        <ele>930.0</ele>
        <time>2019-07-31T14:41:56.159Z</time>
      </trkpt>
      <trkpt lat="42.99987167" lon="-1.10253">
        <ele>930.0</ele>
        <time>2019-07-31T14:41:57.167Z</time>
      </trkpt>
      <trkpt lat="42.99986667" lon="-1.102535">
        <ele>930.0</ele>
        <time>2019-07-31T14:41:58.174Z</time>
      </trkpt>
      <trkpt lat="42.99986" lon="-1.10254333">
        <ele>930.0</ele>
        <time>2019-07-31T14:41:59.178Z</time>
      </trkpt>
      <trkpt lat="42.99985333" lon="-1.102545">
        <ele>931.0</ele>
        <time>2019-07-31T14:42:00.184Z</time>
      </trkpt>
      <trkpt lat="42.99985" lon="-1.10256">
        <ele>930.0</ele>
        <time>2019-07-31T14:42:01.064Z</time>
      </trkpt>
      <trkpt lat="42.999845" lon="-1.10257167">
        <ele>930.0</ele>
        <time>2019-07-31T14:42:02.068Z</time>
      </trkpt>
      <trkpt lat="42.99983833" lon="-1.10258333">
        <ele>930.0</ele>
        <time>2019-07-31T14:42:03.074Z</time>
      </trkpt>
      <trkpt lat="42.99983167" lon="-1.10259333">
        <ele>930.0</ele>
        <time>2019-07-31T14:42:04.081Z</time>
      </trkpt>
      <trkpt lat="42.99982167" lon="-1.10260167">
        <ele>931.0</ele>
        <time>2019-07-31T14:42:05.085Z</time>
      </trkpt>
      <trkpt lat="42.99981" lon="-1.10261">
        <ele>932.0</ele>
        <time>2019-07-31T14:42:06.090Z</time>
      </trkpt>
      <trkpt lat="42.99980167" lon="-1.102625">
        <ele>932.0</ele>
        <time>2019-07-31T14:42:07.095Z</time>
      </trkpt>
      <trkpt lat="42.999795" lon="-1.10263333">
        <ele>932.0</ele>
        <time>2019-07-31T14:42:08.101Z</time>
      </trkpt>
      <trkpt lat="42.99979333" lon="-1.10264167">
        <ele>932.0</ele>
        <time>2019-07-31T14:42:09.107Z</time>
      </trkpt>
      <trkpt lat="42.99979167" lon="-1.10265333">
        <ele>932.0</ele>
        <time>2019-07-31T14:42:10.112Z</time>
      </trkpt>
      <trkpt lat="42.999785" lon="-1.10267">
        <ele>931.0</ele>
        <time>2019-07-31T14:42:11.116Z</time>
      </trkpt>
      <trkpt lat="42.99977667" lon="-1.10268">
        <ele>932.0</ele>
        <time>2019-07-31T14:42:12.120Z</time>
      </trkpt>
      <trkpt lat="42.99977333" lon="-1.10269167">
        <ele>931.0</ele>
        <time>2019-07-31T14:42:13.125Z</time>
      </trkpt>
      <trkpt lat="42.99977" lon="-1.10270667">
        <ele>931.0</ele>
        <time>2019-07-31T14:42:14.129Z</time>
      </trkpt>
      <trkpt lat="42.99976667" lon="-1.10271667">
        <ele>930.0</ele>
        <time>2019-07-31T14:42:15.134Z</time>
      </trkpt>
      <trkpt lat="42.99975667" lon="-1.10272833">
        <ele>929.0</ele>
        <time>2019-07-31T14:42:16.138Z</time>
      </trkpt>
      <trkpt lat="42.99975" lon="-1.10273667">
        <ele>929.0</ele>
        <time>2019-07-31T14:42:17.145Z</time>
      </trkpt>
      <trkpt lat="42.99974333" lon="-1.10275167">
        <ele>929.0</ele>
        <time>2019-07-31T14:42:18.152Z</time>
      </trkpt>
      <trkpt lat="42.99973833" lon="-1.10275833">
        <ele>929.0</ele>
        <time>2019-07-31T14:42:19.159Z</time>
      </trkpt>
      <trkpt lat="42.99973" lon="-1.10277">
        <ele>928.0</ele>
        <time>2019-07-31T14:42:20.165Z</time>
      </trkpt>
      <trkpt lat="42.99972333" lon="-1.10278">
        <ele>928.0</ele>
        <time>2019-07-31T14:42:21.170Z</time>
      </trkpt>
      <trkpt lat="42.99971667" lon="-1.10279">
        <ele>928.0</ele>
        <time>2019-07-31T14:42:22.174Z</time>
      </trkpt>
      <trkpt lat="42.99971167" lon="-1.10280167">
        <ele>928.0</ele>
        <time>2019-07-31T14:42:23.179Z</time>
      </trkpt>
      <trkpt lat="42.99970833" lon="-1.102815">
        <ele>927.0</ele>
        <time>2019-07-31T14:42:24.185Z</time>
      </trkpt>
      <trkpt lat="42.99970333" lon="-1.10282167">
        <ele>926.0</ele>
        <time>2019-07-31T14:42:25.064Z</time>
      </trkpt>
      <trkpt lat="42.9997" lon="-1.10284">
        <ele>925.0</ele>
        <time>2019-07-31T14:42:26.070Z</time>
      </trkpt>
      <trkpt lat="42.99969333" lon="-1.10285333">
        <ele>925.0</ele>
        <time>2019-07-31T14:42:27.076Z</time>
      </trkpt>
      <trkpt lat="42.999685" lon="-1.10286">
        <ele>925.0</ele>
        <time>2019-07-31T14:42:28.081Z</time>
      </trkpt>
      <trkpt lat="42.99967333" lon="-1.10287167">
        <ele>926.0</ele>
        <time>2019-07-31T14:42:29.085Z</time>
      </trkpt>
      <trkpt lat="42.99966333" lon="-1.10288167">
        <ele>926.0</ele>
        <time>2019-07-31T14:42:30.090Z</time>
      </trkpt>
      <trkpt lat="42.999655" lon="-1.10289">
        <ele>927.0</ele>
        <time>2019-07-31T14:42:31.092Z</time>
      </trkpt>
      <trkpt lat="42.99964167" lon="-1.10290667">
        <ele>927.0</ele>
        <time>2019-07-31T14:42:32.095Z</time>
      </trkpt>
      <trkpt lat="42.99962667" lon="-1.10291833">
        <ele>928.0</ele>
        <time>2019-07-31T14:42:33.100Z</time>
      </trkpt>
      <trkpt lat="42.99961167" lon="-1.10293333">
        <ele>930.0</ele>
        <time>2019-07-31T14:42:34.105Z</time>
      </trkpt>
      <trkpt lat="42.999605" lon="-1.102945">
        <ele>930.0</ele>
        <time>2019-07-31T14:42:35.110Z</time>
      </trkpt>
      <trkpt lat="42.999595" lon="-1.10294667">
        <ele>931.0</ele>
        <time>2019-07-31T14:42:36.117Z</time>
      </trkpt>
      <trkpt lat="42.99958667" lon="-1.10295333">
        <ele>930.0</ele>
        <time>2019-07-31T14:42:37.123Z</time>
      </trkpt>
      <trkpt lat="42.99957333" lon="-1.10296333">
        <ele>930.0</ele>
        <time>2019-07-31T14:42:38.129Z</time>
      </trkpt>
      <trkpt lat="42.99956833" lon="-1.10298333">
        <ele>931.0</ele>
        <time>2019-07-31T14:42:39.135Z</time>
      </trkpt>
      <trkpt lat="42.99956" lon="-1.10300833">
        <ele>931.0</ele>
        <time>2019-07-31T14:42:40.140Z</time>
      </trkpt>
      <trkpt lat="42.99955833" lon="-1.10302667">
        <ele>931.0</ele>
        <time>2019-07-31T14:42:41.146Z</time>
      </trkpt>
      <trkpt lat="42.99955833" lon="-1.10305167">
        <ele>931.0</ele>
        <time>2019-07-31T14:42:42.151Z</time>
      </trkpt>
      <trkpt lat="42.99955833" lon="-1.10307167">
        <ele>932.0</ele>
        <time>2019-07-31T14:42:43.154Z</time>
      </trkpt>
      <trkpt lat="42.99955833" lon="-1.10309833">
        <ele>933.0</ele>
        <time>2019-07-31T14:42:44.161Z</time>
      </trkpt>
      <trkpt lat="42.99955667" lon="-1.1031">
        <ele>932.0</ele>
        <time>2019-07-31T14:42:45.166Z</time>
      </trkpt>
      <trkpt lat="42.99955" lon="-1.10310333">
        <ele>933.0</ele>
        <time>2019-07-31T14:42:46.171Z</time>
      </trkpt>
      <trkpt lat="42.99954" lon="-1.10311">
        <ele>934.0</ele>
        <time>2019-07-31T14:42:47.177Z</time>
      </trkpt>
      <trkpt lat="42.99953" lon="-1.10311833">
        <ele>935.0</ele>
        <time>2019-07-31T14:42:48.184Z</time>
      </trkpt>
      <trkpt lat="42.99952833" lon="-1.10314167">
        <ele>935.0</ele>
        <time>2019-07-31T14:42:49.063Z</time>
      </trkpt>
      <trkpt lat="42.99952333" lon="-1.10315333">
        <ele>936.0</ele>
        <time>2019-07-31T14:42:50.067Z</time>
      </trkpt>
      <trkpt lat="42.99952167" lon="-1.103165">
        <ele>937.0</ele>
        <time>2019-07-31T14:42:51.073Z</time>
      </trkpt>
      <trkpt lat="42.99952167" lon="-1.10317667">
        <ele>937.0</ele>
        <time>2019-07-31T14:42:52.080Z</time>
      </trkpt>
      <trkpt lat="42.99952167" lon="-1.10319167">
        <ele>937.0</ele>
        <time>2019-07-31T14:42:53.086Z</time>
      </trkpt>
      <trkpt lat="42.999525" lon="-1.10320667">
        <ele>937.0</ele>
        <time>2019-07-31T14:42:54.092Z</time>
      </trkpt>
      <trkpt lat="42.999525" lon="-1.10322">
        <ele>937.0</ele>
        <time>2019-07-31T14:42:55.097Z</time>
      </trkpt>
      <trkpt lat="42.99952333" lon="-1.10323">
        <ele>937.0</ele>
        <time>2019-07-31T14:42:56.102Z</time>
      </trkpt>
      <trkpt lat="42.99952167" lon="-1.10323167">
        <ele>937.0</ele>
        <time>2019-07-31T14:42:57.108Z</time>
      </trkpt>
      <trkpt lat="42.99952" lon="-1.103245">
        <ele>937.0</ele>
        <time>2019-07-31T14:42:58.114Z</time>
      </trkpt>
      <trkpt lat="42.99951833" lon="-1.10325">
        <ele>937.0</ele>
        <time>2019-07-31T14:42:59.118Z</time>
      </trkpt>
      <trkpt lat="42.99951833" lon="-1.103255">
        <ele>937.0</ele>
        <time>2019-07-31T14:43:00.124Z</time>
      </trkpt>
      <trkpt lat="42.99952167" lon="-1.10327">
        <ele>936.0</ele>
        <time>2019-07-31T14:43:01.130Z</time>
      </trkpt>
      <trkpt lat="42.99952167" lon="-1.10328667">
        <ele>936.0</ele>
        <time>2019-07-31T14:43:02.134Z</time>
      </trkpt>
      <trkpt lat="42.99952167" lon="-1.103305">
        <ele>936.0</ele>
        <time>2019-07-31T14:43:03.137Z</time>
      </trkpt>
      <trkpt lat="42.99951667" lon="-1.10331167">
        <ele>937.0</ele>
        <time>2019-07-31T14:43:04.143Z</time>
      </trkpt>
      <trkpt lat="42.99951" lon="-1.10332333">
        <ele>938.0</ele>
        <time>2019-07-31T14:43:05.148Z</time>
      </trkpt>
      <trkpt lat="42.99950833" lon="-1.10334167">
        <ele>938.0</ele>
        <time>2019-07-31T14:43:06.152Z</time>
      </trkpt>
      <trkpt lat="42.99951167" lon="-1.10336833">
        <ele>938.0</ele>
        <time>2019-07-31T14:43:07.156Z</time>
      </trkpt>
      <trkpt lat="42.99951167" lon="-1.10339">
        <ele>938.0</ele>
        <time>2019-07-31T14:43:08.162Z</time>
      </trkpt>
      <trkpt lat="42.99951" lon="-1.10341167">
        <ele>939.0</ele>
        <time>2019-07-31T14:43:09.170Z</time>
      </trkpt>
      <trkpt lat="42.99951" lon="-1.103435">
        <ele>939.0</ele>
        <time>2019-07-31T14:43:10.176Z</time>
      </trkpt>
      <trkpt lat="42.99951" lon="-1.10346">
        <ele>939.0</ele>
        <time>2019-07-31T14:43:11.182Z</time>
      </trkpt>
      <trkpt lat="42.99950833" lon="-1.10347667">
        <ele>940.0</ele>
        <time>2019-07-31T14:43:12.061Z</time>
      </trkpt>
      <trkpt lat="42.99951167" lon="-1.10350333">
        <ele>940.0</ele>
        <time>2019-07-31T14:43:13.065Z</time>
      </trkpt>
      <trkpt lat="42.99951167" lon="-1.10352167">
        <ele>940.0</ele>
        <time>2019-07-31T14:43:14.070Z</time>
      </trkpt>
      <trkpt lat="42.99951167" lon="-1.10353833">
        <ele>941.0</ele>
        <time>2019-07-31T14:43:15.074Z</time>
      </trkpt>
      <trkpt lat="42.999515" lon="-1.10356">
        <ele>942.0</ele>
        <time>2019-07-31T14:43:16.079Z</time>
      </trkpt>
      <trkpt lat="42.99951333" lon="-1.10357667">
        <ele>943.0</ele>
        <time>2019-07-31T14:43:17.085Z</time>
      </trkpt>
      <trkpt lat="42.99951667" lon="-1.1036">
        <ele>945.0</ele>
        <time>2019-07-31T14:43:18.090Z</time>
      </trkpt>
      <trkpt lat="42.999515" lon="-1.103625">
        <ele>946.0</ele>
        <time>2019-07-31T14:43:19.095Z</time>
      </trkpt>
      <trkpt lat="42.99951667" lon="-1.10364667">
        <ele>947.0</ele>
        <time>2019-07-31T14:43:20.100Z</time>
      </trkpt>
      <trkpt lat="42.99952" lon="-1.10365833">
        <ele>947.0</ele>
        <time>2019-07-31T14:43:21.106Z</time>
      </trkpt>
      <trkpt lat="42.999525" lon="-1.10367167">
        <ele>946.0</ele>
        <time>2019-07-31T14:43:22.113Z</time>
      </trkpt>
      <trkpt lat="42.99953667" lon="-1.10369667">
        <ele>945.0</ele>
        <time>2019-07-31T14:43:23.118Z</time>
      </trkpt>
      <trkpt lat="42.99954833" lon="-1.10370833">
        <ele>945.0</ele>
        <time>2019-07-31T14:43:24.123Z</time>
      </trkpt>
      <trkpt lat="42.999555" lon="-1.10372167">
        <ele>946.0</ele>
        <time>2019-07-31T14:43:25.128Z</time>
      </trkpt>
      <trkpt lat="42.99956167" lon="-1.10374167">
        <ele>946.0</ele>
        <time>2019-07-31T14:43:26.133Z</time>
      </trkpt>
      <trkpt lat="42.999565" lon="-1.10374833">
        <ele>945.0</ele>
        <time>2019-07-31T14:43:27.138Z</time>
      </trkpt>
      <trkpt lat="42.99957833" lon="-1.10376333">
        <ele>943.0</ele>
        <time>2019-07-31T14:43:28.142Z</time>
      </trkpt>
      <trkpt lat="42.99958833" lon="-1.10379">
        <ele>943.0</ele>
        <time>2019-07-31T14:43:29.149Z</time>
      </trkpt>
      <trkpt lat="42.999595" lon="-1.10379667">
        <ele>942.0</ele>
        <time>2019-07-31T14:43:30.154Z</time>
      </trkpt>
      <trkpt lat="42.99959833" lon="-1.1038">
        <ele>942.0</ele>
        <time>2019-07-31T14:43:31.159Z</time>
      </trkpt>
      <trkpt lat="42.99960833" lon="-1.10380167">
        <ele>942.0</ele>
        <time>2019-07-31T14:43:32.165Z</time>
      </trkpt>
      <trkpt lat="42.99961833" lon="-1.10381167">
        <ele>942.0</ele>
        <time>2019-07-31T14:43:33.170Z</time>
      </trkpt>
      <trkpt lat="42.999625" lon="-1.10383167">
        <ele>942.0</ele>
        <time>2019-07-31T14:43:34.173Z</time>
      </trkpt>
      <trkpt lat="42.99963333" lon="-1.10385167">
        <ele>943.0</ele>
        <time>2019-07-31T14:43:35.178Z</time>
      </trkpt>
      <trkpt lat="42.99964" lon="-1.10388">
        <ele>944.0</ele>
        <time>2019-07-31T14:43:36.186Z</time>
      </trkpt>
      <trkpt lat="42.999645" lon="-1.10390833">
        <ele>945.0</ele>
        <time>2019-07-31T14:43:37.065Z</time>
      </trkpt>
      <trkpt lat="42.99965333" lon="-1.10392333">
        <ele>944.0</ele>
        <time>2019-07-31T14:43:38.068Z</time>
      </trkpt>
      <trkpt lat="42.99965667" lon="-1.10394667">
        <ele>945.0</ele>
        <time>2019-07-31T14:43:39.072Z</time>
      </trkpt>
      <trkpt lat="42.99967" lon="-1.10396">
        <ele>945.0</ele>
        <time>2019-07-31T14:43:40.079Z</time>
      </trkpt>
      <trkpt lat="42.99967833" lon="-1.10397833">
        <ele>944.0</ele>
        <time>2019-07-31T14:43:41.086Z</time>
      </trkpt>
      <trkpt lat="42.99968333" lon="-1.10399833">
        <ele>945.0</ele>
        <time>2019-07-31T14:43:42.092Z</time>
      </trkpt>
      <trkpt lat="42.99968667" lon="-1.10401667">
        <ele>945.0</ele>
        <time>2019-07-31T14:43:43.096Z</time>
      </trkpt>
      <trkpt lat="42.99969167" lon="-1.10403833">
        <ele>945.0</ele>
        <time>2019-07-31T14:43:44.100Z</time>
      </trkpt>
      <trkpt lat="42.999695" lon="-1.104045">
        <ele>945.0</ele>
        <time>2019-07-31T14:43:45.105Z</time>
      </trkpt>
      <trkpt lat="42.99970167" lon="-1.10405333">
        <ele>945.0</ele>
        <time>2019-07-31T14:43:46.109Z</time>
      </trkpt>
      <trkpt lat="42.99971" lon="-1.10405333">
        <ele>946.0</ele>
        <time>2019-07-31T14:43:47.112Z</time>
      </trkpt>
      <trkpt lat="42.99971833" lon="-1.104065">
        <ele>947.0</ele>
        <time>2019-07-31T14:43:48.118Z</time>
      </trkpt>
      <trkpt lat="42.99973167" lon="-1.10405833">
        <ele>948.0</ele>
        <time>2019-07-31T14:43:49.124Z</time>
      </trkpt>
      <trkpt lat="42.99974" lon="-1.10407167">
        <ele>949.0</ele>
        <time>2019-07-31T14:43:50.128Z</time>
      </trkpt>
      <trkpt lat="42.999745" lon="-1.10409167">
        <ele>950.0</ele>
        <time>2019-07-31T14:43:51.134Z</time>
      </trkpt>
      <trkpt lat="42.99974167" lon="-1.10410333">
        <ele>951.0</ele>
        <time>2019-07-31T14:43:52.138Z</time>
      </trkpt>
      <trkpt lat="42.99974333" lon="-1.10412833">
        <ele>952.0</ele>
        <time>2019-07-31T14:43:53.141Z</time>
      </trkpt>
      <trkpt lat="42.99975" lon="-1.104135">
        <ele>953.0</ele>
        <time>2019-07-31T14:43:54.144Z</time>
      </trkpt>
      <trkpt lat="42.99975833" lon="-1.10414667">
        <ele>953.0</ele>
        <time>2019-07-31T14:43:55.149Z</time>
      </trkpt>
      <trkpt lat="42.99976333" lon="-1.10415">
        <ele>954.0</ele>
        <time>2019-07-31T14:43:56.154Z</time>
      </trkpt>
      <trkpt lat="42.99976667" lon="-1.10416667">
        <ele>955.0</ele>
        <time>2019-07-31T14:43:57.159Z</time>
      </trkpt>
      <trkpt lat="42.99976833" lon="-1.10418167">
        <ele>956.0</ele>
        <time>2019-07-31T14:43:58.163Z</time>
      </trkpt>
      <trkpt lat="42.99977333" lon="-1.10419667">
        <ele>956.0</ele>
        <time>2019-07-31T14:43:59.170Z</time>
      </trkpt>
      <trkpt lat="42.99977667" lon="-1.10420667">
        <ele>955.0</ele>
        <time>2019-07-31T14:44:00.176Z</time>
      </trkpt>
      <trkpt lat="42.99978" lon="-1.10422">
        <ele>955.0</ele>
        <time>2019-07-31T14:44:01.181Z</time>
      </trkpt>
      <trkpt lat="42.99978333" lon="-1.10423167">
        <ele>955.0</ele>
        <time>2019-07-31T14:44:02.061Z</time>
      </trkpt>
      <trkpt lat="42.99978667" lon="-1.10424333">
        <ele>955.0</ele>
        <time>2019-07-31T14:44:03.067Z</time>
      </trkpt>
      <trkpt lat="42.99978833" lon="-1.10425833">
        <ele>955.0</ele>
        <time>2019-07-31T14:44:04.072Z</time>
      </trkpt>
      <trkpt lat="42.99979333" lon="-1.104275">
        <ele>956.0</ele>
        <time>2019-07-31T14:44:05.078Z</time>
      </trkpt>
      <trkpt lat="42.999795" lon="-1.10428667">
        <ele>956.0</ele>
        <time>2019-07-31T14:44:06.083Z</time>
      </trkpt>
      <trkpt lat="42.99979667" lon="-1.10429667">
        <ele>956.0</ele>
        <time>2019-07-31T14:44:07.090Z</time>
      </trkpt>
      <trkpt lat="42.99980167" lon="-1.104305">
        <ele>955.0</ele>
        <time>2019-07-31T14:44:08.093Z</time>
      </trkpt>
      <trkpt lat="42.99980667" lon="-1.104315">
        <ele>955.0</ele>
        <time>2019-07-31T14:44:09.096Z</time>
      </trkpt>
      <trkpt lat="42.99981" lon="-1.10432333">
        <ele>955.0</ele>
        <time>2019-07-31T14:44:10.101Z</time>
      </trkpt>
      <trkpt lat="42.99981333" lon="-1.10433">
        <ele>955.0</ele>
        <time>2019-07-31T14:44:11.107Z</time>
      </trkpt>
      <trkpt lat="42.99982" lon="-1.10433667">
        <ele>955.0</ele>
        <time>2019-07-31T14:44:12.112Z</time>
      </trkpt>
      <trkpt lat="42.999825" lon="-1.10434167">
        <ele>954.0</ele>
        <time>2019-07-31T14:44:13.119Z</time>
      </trkpt>
      <trkpt lat="42.99983333" lon="-1.10435">
        <ele>953.0</ele>
        <time>2019-07-31T14:44:14.123Z</time>
      </trkpt>
      <trkpt lat="42.99984167" lon="-1.10435833">
        <ele>952.0</ele>
        <time>2019-07-31T14:44:15.130Z</time>
      </trkpt>
      <trkpt lat="42.99984833" lon="-1.10437">
        <ele>952.0</ele>
        <time>2019-07-31T14:44:16.134Z</time>
      </trkpt>
      <trkpt lat="42.99985667" lon="-1.10438">
        <ele>952.0</ele>
        <time>2019-07-31T14:44:17.139Z</time>
      </trkpt>
      <trkpt lat="42.99986333" lon="-1.10439333">
        <ele>952.0</ele>
        <time>2019-07-31T14:44:18.142Z</time>
      </trkpt>
      <trkpt lat="42.99987167" lon="-1.10440167">
        <ele>951.0</ele>
        <time>2019-07-31T14:44:19.147Z</time>
      </trkpt>
      <trkpt lat="42.999885" lon="-1.10441">
        <ele>950.0</ele>
        <time>2019-07-31T14:44:20.150Z</time>
      </trkpt>
      <trkpt lat="42.999895" lon="-1.104425">
        <ele>950.0</ele>
        <time>2019-07-31T14:44:21.157Z</time>
      </trkpt>
      <trkpt lat="42.99991" lon="-1.10443833">
        <ele>950.0</ele>
        <time>2019-07-31T14:44:22.161Z</time>
      </trkpt>
      <trkpt lat="42.99992167" lon="-1.10445667">
        <ele>950.0</ele>
        <time>2019-07-31T14:44:23.166Z</time>
      </trkpt>
      <trkpt lat="42.999925" lon="-1.10447">
        <ele>951.0</ele>
        <time>2019-07-31T14:44:24.171Z</time>
      </trkpt>
      <trkpt lat="42.99993333" lon="-1.104485">
        <ele>951.0</ele>
        <time>2019-07-31T14:44:25.176Z</time>
      </trkpt>
      <trkpt lat="42.99994667" lon="-1.10448667">
        <ele>951.0</ele>
        <time>2019-07-31T14:44:26.182Z</time>
      </trkpt>
      <trkpt lat="42.99995333" lon="-1.10449333">
        <ele>952.0</ele>
        <time>2019-07-31T14:44:27.064Z</time>
      </trkpt>
      <trkpt lat="42.999955" lon="-1.10450667">
        <ele>953.0</ele>
        <time>2019-07-31T14:44:28.070Z</time>
      </trkpt>
      <trkpt lat="42.99995833" lon="-1.10452667">
        <ele>954.0</ele>
        <time>2019-07-31T14:44:29.075Z</time>
      </trkpt>
      <trkpt lat="42.999965" lon="-1.10453667">
        <ele>953.0</ele>
        <time>2019-07-31T14:44:30.081Z</time>
      </trkpt>
      <trkpt lat="42.99997333" lon="-1.104545">
        <ele>953.0</ele>
        <time>2019-07-31T14:44:31.086Z</time>
      </trkpt>
      <trkpt lat="42.99998167" lon="-1.10455833">
        <ele>953.0</ele>
        <time>2019-07-31T14:44:32.091Z</time>
      </trkpt>
      <trkpt lat="42.999985" lon="-1.10456">
        <ele>954.0</ele>
        <time>2019-07-31T14:44:33.096Z</time>
      </trkpt>
      <trkpt lat="42.99999333" lon="-1.10456167">
        <ele>954.0</ele>
        <time>2019-07-31T14:44:34.103Z</time>
      </trkpt>
      <trkpt lat="42.99999667" lon="-1.10456">
        <ele>954.0</ele>
        <time>2019-07-31T14:44:35.109Z</time>
      </trkpt>
      <trkpt lat="43.00000333" lon="-1.10456167">
        <ele>954.0</ele>
        <time>2019-07-31T14:44:36.114Z</time>
      </trkpt>
      <trkpt lat="43.00000833" lon="-1.10456833">
        <ele>954.0</ele>
        <time>2019-07-31T14:44:37.118Z</time>
      </trkpt>
      <trkpt lat="43.000015" lon="-1.10457833">
        <ele>955.0</ele>
        <time>2019-07-31T14:44:38.123Z</time>
      </trkpt>
      <trkpt lat="43.00001833" lon="-1.10458833">
        <ele>955.0</ele>
        <time>2019-07-31T14:44:39.126Z</time>
      </trkpt>
      <trkpt lat="43.00002833" lon="-1.10459833">
        <ele>955.0</ele>
        <time>2019-07-31T14:44:40.132Z</time>
      </trkpt>
      <trkpt lat="43.000035" lon="-1.104605">
        <ele>956.0</ele>
        <time>2019-07-31T14:44:41.136Z</time>
      </trkpt>
      <trkpt lat="43.00004167" lon="-1.10461667">
        <ele>956.0</ele>
        <time>2019-07-31T14:44:42.143Z</time>
      </trkpt>
      <trkpt lat="43.00004667" lon="-1.104625">
        <ele>957.0</ele>
        <time>2019-07-31T14:44:43.149Z</time>
      </trkpt>
      <trkpt lat="43.00005" lon="-1.10463833">
        <ele>958.0</ele>
        <time>2019-07-31T14:44:44.155Z</time>
      </trkpt>
      <trkpt lat="43.000055" lon="-1.10465">
        <ele>958.0</ele>
        <time>2019-07-31T14:44:45.160Z</time>
      </trkpt>
      <trkpt lat="43.00006333" lon="-1.10465333">
        <ele>959.0</ele>
        <time>2019-07-31T14:44:46.165Z</time>
      </trkpt>
      <trkpt lat="43.00007" lon="-1.104665">
        <ele>959.0</ele>
        <time>2019-07-31T14:44:47.171Z</time>
      </trkpt>
      <trkpt lat="43.000075" lon="-1.10467167">
        <ele>960.0</ele>
        <time>2019-07-31T14:44:48.175Z</time>
      </trkpt>
      <trkpt lat="43.00008667" lon="-1.104685">
        <ele>960.0</ele>
        <time>2019-07-31T14:44:49.180Z</time>
      </trkpt>
      <trkpt lat="43.000095" lon="-1.10469833">
        <ele>960.0</ele>
        <time>2019-07-31T14:44:50.186Z</time>
      </trkpt>
      <trkpt lat="43.000105" lon="-1.10470667">
        <ele>960.0</ele>
        <time>2019-07-31T14:44:51.066Z</time>
      </trkpt>
      <trkpt lat="43.000115" lon="-1.10471667">
        <ele>960.0</ele>
        <time>2019-07-31T14:44:52.071Z</time>
      </trkpt>
      <trkpt lat="43.000125" lon="-1.10471667">
        <ele>959.0</ele>
        <time>2019-07-31T14:44:53.077Z</time>
      </trkpt>
      <trkpt lat="43.000135" lon="-1.10472833">
        <ele>960.0</ele>
        <time>2019-07-31T14:44:54.079Z</time>
      </trkpt>
      <trkpt lat="43.00014" lon="-1.104745">
        <ele>961.0</ele>
        <time>2019-07-31T14:44:55.085Z</time>
      </trkpt>
      <trkpt lat="43.00014" lon="-1.104755">
        <ele>962.0</ele>
        <time>2019-07-31T14:44:56.091Z</time>
      </trkpt>
      <trkpt lat="43.00014" lon="-1.104775">
        <ele>964.0</ele>
        <time>2019-07-31T14:44:57.096Z</time>
      </trkpt>
      <trkpt lat="43.00014333" lon="-1.1048">
        <ele>965.0</ele>
        <time>2019-07-31T14:44:58.102Z</time>
      </trkpt>
      <trkpt lat="43.00015" lon="-1.104815">
        <ele>965.0</ele>
        <time>2019-07-31T14:44:59.110Z</time>
      </trkpt>
      <trkpt lat="43.00015667" lon="-1.10483333">
        <ele>965.0</ele>
        <time>2019-07-31T14:45:00.116Z</time>
      </trkpt>
      <trkpt lat="43.00016667" lon="-1.10484333">
        <ele>964.0</ele>
        <time>2019-07-31T14:45:01.121Z</time>
      </trkpt>
      <trkpt lat="43.000175" lon="-1.104855">
        <ele>964.0</ele>
        <time>2019-07-31T14:45:02.126Z</time>
      </trkpt>
      <trkpt lat="43.00018667" lon="-1.104865">
        <ele>964.0</ele>
        <time>2019-07-31T14:45:03.132Z</time>
      </trkpt>
      <trkpt lat="43.00020833" lon="-1.10486167">
        <ele>964.0</ele>
        <time>2019-07-31T14:45:04.136Z</time>
      </trkpt>
      <trkpt lat="43.00022" lon="-1.10487333">
        <ele>964.0</ele>
        <time>2019-07-31T14:45:05.142Z</time>
      </trkpt>
      <trkpt lat="43.00023833" lon="-1.10487833">
        <ele>964.0</ele>
        <time>2019-07-31T14:45:06.147Z</time>
      </trkpt>
      <trkpt lat="43.00025667" lon="-1.10487">
        <ele>964.0</ele>
        <time>2019-07-31T14:45:07.153Z</time>
      </trkpt>
      <trkpt lat="43.00026333" lon="-1.104855">
        <ele>963.0</ele>
        <time>2019-07-31T14:45:08.158Z</time>
      </trkpt>
      <trkpt lat="43.00027167" lon="-1.10484333">
        <ele>963.0</ele>
        <time>2019-07-31T14:45:09.165Z</time>
      </trkpt>
      <trkpt lat="43.00028167" lon="-1.10485333">
        <ele>964.0</ele>
        <time>2019-07-31T14:45:10.168Z</time>
      </trkpt>
      <trkpt lat="43.00029" lon="-1.10486167">
        <ele>965.0</ele>
        <time>2019-07-31T14:45:11.173Z</time>
      </trkpt>
      <trkpt lat="43.00029833" lon="-1.104865">
        <ele>966.0</ele>
        <time>2019-07-31T14:45:12.177Z</time>
      </trkpt>
      <trkpt lat="43.00030833" lon="-1.10485667">
        <ele>966.0</ele>
        <time>2019-07-31T14:45:13.183Z</time>
      </trkpt>
      <trkpt lat="43.000315" lon="-1.104865">
        <ele>967.0</ele>
        <time>2019-07-31T14:45:14.183Z</time>
      </trkpt>
      <trkpt lat="43.00032167" lon="-1.10488">
        <ele>968.0</ele>
        <time>2019-07-31T14:45:15.061Z</time>
      </trkpt>
      <trkpt lat="43.00032667" lon="-1.10488833">
        <ele>968.0</ele>
        <time>2019-07-31T14:45:16.068Z</time>
      </trkpt>
      <trkpt lat="43.00033333" lon="-1.10489167">
        <ele>968.0</ele>
        <time>2019-07-31T14:45:17.073Z</time>
      </trkpt>
      <trkpt lat="43.00034167" lon="-1.10488667">
        <ele>966.0</ele>
        <time>2019-07-31T14:45:18.080Z</time>
      </trkpt>
      <trkpt lat="43.00035333" lon="-1.10488833">
        <ele>966.0</ele>
        <time>2019-07-31T14:45:19.086Z</time>
      </trkpt>
      <trkpt lat="43.000355" lon="-1.10489167">
        <ele>967.0</ele>
        <time>2019-07-31T14:45:20.092Z</time>
      </trkpt>
      <trkpt lat="43.00035833" lon="-1.1049">
        <ele>968.0</ele>
        <time>2019-07-31T14:45:21.096Z</time>
      </trkpt>
      <trkpt lat="43.00036" lon="-1.10490167">
        <ele>970.0</ele>
        <time>2019-07-31T14:45:22.101Z</time>
      </trkpt>
      <trkpt lat="43.000365" lon="-1.10490667">
        <ele>970.0</ele>
        <time>2019-07-31T14:45:23.107Z</time>
      </trkpt>
      <trkpt lat="43.00037167" lon="-1.10491333">
        <ele>970.0</ele>
        <time>2019-07-31T14:45:24.113Z</time>
      </trkpt>
      <trkpt lat="43.00038" lon="-1.104915">
        <ele>970.0</ele>
        <time>2019-07-31T14:45:25.118Z</time>
      </trkpt>
      <trkpt lat="43.000385" lon="-1.10492167">
        <ele>970.0</ele>
        <time>2019-07-31T14:45:26.123Z</time>
      </trkpt>
      <trkpt lat="43.00039333" lon="-1.104925">
        <ele>970.0</ele>
        <time>2019-07-31T14:45:27.128Z</time>
      </trkpt>
      <trkpt lat="43.00039833" lon="-1.10493">
        <ele>970.0</ele>
        <time>2019-07-31T14:45:28.134Z</time>
      </trkpt>
      <trkpt lat="43.000405" lon="-1.10493333">
        <ele>971.0</ele>
        <time>2019-07-31T14:45:29.140Z</time>
      </trkpt>
      <trkpt lat="43.00040833" lon="-1.10494167">
        <ele>972.0</ele>
        <time>2019-07-31T14:45:30.144Z</time>
      </trkpt>
      <trkpt lat="43.00041667" lon="-1.10495">
        <ele>972.0</ele>
        <time>2019-07-31T14:45:31.148Z</time>
      </trkpt>
      <trkpt lat="43.000425" lon="-1.104955">
        <ele>973.0</ele>
        <time>2019-07-31T14:45:32.153Z</time>
      </trkpt>
      <trkpt lat="43.00043333" lon="-1.10496">
        <ele>974.0</ele>
        <time>2019-07-31T14:45:33.157Z</time>
      </trkpt>
      <trkpt lat="43.00043833" lon="-1.10496167">
        <ele>974.0</ele>
        <time>2019-07-31T14:45:34.162Z</time>
      </trkpt>
      <trkpt lat="43.00044167" lon="-1.10496667">
        <ele>975.0</ele>
        <time>2019-07-31T14:45:35.169Z</time>
      </trkpt>
      <trkpt lat="43.00045" lon="-1.10497667">
        <ele>975.0</ele>
        <time>2019-07-31T14:45:36.176Z</time>
      </trkpt>
      <trkpt lat="43.00045833" lon="-1.10498667">
        <ele>976.0</ele>
        <time>2019-07-31T14:45:37.179Z</time>
      </trkpt>
      <trkpt lat="43.00046667" lon="-1.10498667">
        <ele>976.0</ele>
        <time>2019-07-31T14:45:38.183Z</time>
      </trkpt>
      <trkpt lat="43.000475" lon="-1.10499667">
        <ele>976.0</ele>
        <time>2019-07-31T14:45:39.064Z</time>
      </trkpt>
      <trkpt lat="43.000485" lon="-1.10499833">
        <ele>976.0</ele>
        <time>2019-07-31T14:45:40.067Z</time>
      </trkpt>
      <trkpt lat="43.00048833" lon="-1.10501167">
        <ele>977.0</ele>
        <time>2019-07-31T14:45:41.074Z</time>
      </trkpt>
      <trkpt lat="43.00049667" lon="-1.10501833">
        <ele>978.0</ele>
        <time>2019-07-31T14:45:42.078Z</time>
      </trkpt>
      <trkpt lat="43.00050833" lon="-1.105025">
        <ele>978.0</ele>
        <time>2019-07-31T14:45:43.082Z</time>
      </trkpt>
      <trkpt lat="43.00051667" lon="-1.10503333">
        <ele>979.0</ele>
        <time>2019-07-31T14:45:44.084Z</time>
      </trkpt>
      <trkpt lat="43.00052167" lon="-1.10504667">
        <ele>981.0</ele>
        <time>2019-07-31T14:45:45.089Z</time>
      </trkpt>
      <trkpt lat="43.000525" lon="-1.105055">
        <ele>981.0</ele>
        <time>2019-07-31T14:45:46.094Z</time>
      </trkpt>
      <trkpt lat="43.00052833" lon="-1.105065">
        <ele>981.0</ele>
        <time>2019-07-31T14:45:47.099Z</time>
      </trkpt>
      <trkpt lat="43.00053167" lon="-1.10509333">
        <ele>982.0</ele>
        <time>2019-07-31T14:45:48.103Z</time>
      </trkpt>
      <trkpt lat="43.00054" lon="-1.10510667">
        <ele>983.0</ele>
        <time>2019-07-31T14:45:49.111Z</time>
      </trkpt>
      <trkpt lat="43.00055" lon="-1.10512667">
        <ele>984.0</ele>
        <time>2019-07-31T14:45:50.116Z</time>
      </trkpt>
      <trkpt lat="43.000565" lon="-1.105135">
        <ele>984.0</ele>
        <time>2019-07-31T14:45:51.123Z</time>
      </trkpt>
      <trkpt lat="43.00058333" lon="-1.10513833">
        <ele>984.0</ele>
        <time>2019-07-31T14:45:52.126Z</time>
      </trkpt>
      <trkpt lat="43.000595" lon="-1.10514">
        <ele>983.0</ele>
        <time>2019-07-31T14:45:53.132Z</time>
      </trkpt>
      <trkpt lat="43.00060333" lon="-1.10515167">
        <ele>982.0</ele>
        <time>2019-07-31T14:45:54.135Z</time>
      </trkpt>
      <trkpt lat="43.00061167" lon="-1.10516833">
        <ele>982.0</ele>
        <time>2019-07-31T14:45:55.141Z</time>
      </trkpt>
      <trkpt lat="43.00062167" lon="-1.10519667">
        <ele>983.0</ele>
        <time>2019-07-31T14:45:56.148Z</time>
      </trkpt>
      <trkpt lat="43.000635" lon="-1.10521">
        <ele>983.0</ele>
        <time>2019-07-31T14:45:57.152Z</time>
      </trkpt>
      <trkpt lat="43.00065167" lon="-1.10520833">
        <ele>981.0</ele>
        <time>2019-07-31T14:45:58.158Z</time>
      </trkpt>
      <trkpt lat="43.00066333" lon="-1.10522333">
        <ele>980.0</ele>
        <time>2019-07-31T14:45:59.164Z</time>
      </trkpt>
      <trkpt lat="43.000675" lon="-1.10523667">
        <ele>978.0</ele>
        <time>2019-07-31T14:46:00.171Z</time>
      </trkpt>
      <trkpt lat="43.00068667" lon="-1.10523833">
        <ele>976.0</ele>
        <time>2019-07-31T14:46:01.174Z</time>
      </trkpt>
      <trkpt lat="43.00069667" lon="-1.105235">
        <ele>975.0</ele>
        <time>2019-07-31T14:46:02.179Z</time>
      </trkpt>
      <trkpt lat="43.00071" lon="-1.105235">
        <ele>974.0</ele>
        <time>2019-07-31T14:46:03.185Z</time>
      </trkpt>
      <trkpt lat="43.00072833" lon="-1.10523">
        <ele>973.0</ele>
        <time>2019-07-31T14:46:04.064Z</time>
      </trkpt>
      <trkpt lat="43.00074" lon="-1.10523667">
        <ele>973.0</ele>
        <time>2019-07-31T14:46:05.068Z</time>
      </trkpt>
      <trkpt lat="43.000745" lon="-1.10526">
        <ele>974.0</ele>
        <time>2019-07-31T14:46:06.074Z</time>
      </trkpt>
      <trkpt lat="43.00074833" lon="-1.10527333">
        <ele>975.0</ele>
        <time>2019-07-31T14:46:07.079Z</time>
      </trkpt>
      <trkpt lat="43.00075333" lon="-1.105285">
        <ele>976.0</ele>
        <time>2019-07-31T14:46:08.082Z</time>
      </trkpt>
      <trkpt lat="43.00075667" lon="-1.10530833">
        <ele>976.0</ele>
        <time>2019-07-31T14:46:09.087Z</time>
      </trkpt>
      <trkpt lat="43.00076333" lon="-1.105325">
        <ele>976.0</ele>
        <time>2019-07-31T14:46:10.092Z</time>
      </trkpt>
      <trkpt lat="43.000765" lon="-1.105335">
        <ele>977.0</ele>
        <time>2019-07-31T14:46:11.098Z</time>
      </trkpt>
      <trkpt lat="43.00076667" lon="-1.105335">
        <ele>978.0</ele>
        <time>2019-07-31T14:46:12.103Z</time>
      </trkpt>
      <trkpt lat="43.00077667" lon="-1.105355">
        <ele>979.0</ele>
        <time>2019-07-31T14:46:13.107Z</time>
      </trkpt>
      <trkpt lat="43.00078667" lon="-1.10537667">
        <ele>979.0</ele>
        <time>2019-07-31T14:46:14.114Z</time>
      </trkpt>
      <trkpt lat="43.000795" lon="-1.10539167">
        <ele>980.0</ele>
        <time>2019-07-31T14:46:15.119Z</time>
      </trkpt>
      <trkpt lat="43.00080167" lon="-1.10540333">
        <ele>981.0</ele>
        <time>2019-07-31T14:46:16.125Z</time>
      </trkpt>
      <trkpt lat="43.00080833" lon="-1.10541167">
        <ele>982.0</ele>
        <time>2019-07-31T14:46:17.130Z</time>
      </trkpt>
      <trkpt lat="43.00081833" lon="-1.105415">
        <ele>982.0</ele>
        <time>2019-07-31T14:46:18.134Z</time>
      </trkpt>
      <trkpt lat="43.00082833" lon="-1.10542167">
        <ele>981.0</ele>
        <time>2019-07-31T14:46:19.140Z</time>
      </trkpt>
      <trkpt lat="43.00083667" lon="-1.10542833">
        <ele>981.0</ele>
        <time>2019-07-31T14:46:20.146Z</time>
      </trkpt>
      <trkpt lat="43.00084833" lon="-1.10543667">
        <ele>981.0</ele>
        <time>2019-07-31T14:46:21.150Z</time>
      </trkpt>
      <trkpt lat="43.00086333" lon="-1.105445">
        <ele>981.0</ele>
        <time>2019-07-31T14:46:22.155Z</time>
      </trkpt>
      <trkpt lat="43.00088333" lon="-1.10545">
        <ele>981.0</ele>
        <time>2019-07-31T14:46:23.161Z</time>
      </trkpt>
      <trkpt lat="43.0009" lon="-1.10545667">
        <ele>981.0</ele>
        <time>2019-07-31T14:46:24.167Z</time>
      </trkpt>
      <trkpt lat="43.00091167" lon="-1.10547667">
        <ele>980.0</ele>
        <time>2019-07-31T14:46:25.173Z</time>
      </trkpt>
      <trkpt lat="43.00092" lon="-1.10548833">
        <ele>980.0</ele>
        <time>2019-07-31T14:46:26.178Z</time>
      </trkpt>
      <trkpt lat="43.00093167" lon="-1.10551333">
        <ele>980.0</ele>
        <time>2019-07-31T14:46:27.185Z</time>
      </trkpt>
      <trkpt lat="43.00093833" lon="-1.10554167">
        <ele>980.0</ele>
        <time>2019-07-31T14:46:28.065Z</time>
      </trkpt>
      <trkpt lat="43.00094167" lon="-1.10555833">
        <ele>980.0</ele>
        <time>2019-07-31T14:46:29.069Z</time>
      </trkpt>
      <trkpt lat="43.00095167" lon="-1.10557167">
        <ele>981.0</ele>
        <time>2019-07-31T14:46:30.075Z</time>
      </trkpt>
      <trkpt lat="43.00096167" lon="-1.10558167">
        <ele>981.0</ele>
        <time>2019-07-31T14:46:31.079Z</time>
      </trkpt>
      <trkpt lat="43.00097" lon="-1.10558667">
        <ele>982.0</ele>
        <time>2019-07-31T14:46:32.083Z</time>
      </trkpt>
      <trkpt lat="43.00098167" lon="-1.10560667">
        <ele>982.0</ele>
        <time>2019-07-31T14:46:33.090Z</time>
      </trkpt>
      <trkpt lat="43.00098833" lon="-1.10562167">
        <ele>982.0</ele>
        <time>2019-07-31T14:46:34.096Z</time>
      </trkpt>
      <trkpt lat="43.00099833" lon="-1.10563">
        <ele>982.0</ele>
        <time>2019-07-31T14:46:35.101Z</time>
      </trkpt>
      <trkpt lat="43.00101" lon="-1.10563667">
        <ele>982.0</ele>
        <time>2019-07-31T14:46:36.107Z</time>
      </trkpt>
      <trkpt lat="43.00102167" lon="-1.10563333">
        <ele>981.0</ele>
        <time>2019-07-31T14:46:37.112Z</time>
      </trkpt>
      <trkpt lat="43.00103167" lon="-1.105635">
        <ele>981.0</ele>
        <time>2019-07-31T14:46:38.120Z</time>
      </trkpt>
      <trkpt lat="43.00103833" lon="-1.105635">
        <ele>980.0</ele>
        <time>2019-07-31T14:46:39.126Z</time>
      </trkpt>
      <trkpt lat="43.00104667" lon="-1.10564167">
        <ele>981.0</ele>
        <time>2019-07-31T14:46:40.133Z</time>
      </trkpt>
      <trkpt lat="43.00105333" lon="-1.10565333">
        <ele>982.0</ele>
        <time>2019-07-31T14:46:41.134Z</time>
      </trkpt>
      <trkpt lat="43.00105833" lon="-1.10566167">
        <ele>982.0</ele>
        <time>2019-07-31T14:46:42.139Z</time>
      </trkpt>
      <trkpt lat="43.00106167" lon="-1.10566333">
        <ele>982.0</ele>
        <time>2019-07-31T14:46:43.143Z</time>
      </trkpt>
      <trkpt lat="43.00106833" lon="-1.10567667">
        <ele>981.0</ele>
        <time>2019-07-31T14:46:44.149Z</time>
      </trkpt>
      <trkpt lat="43.00108333" lon="-1.10568167">
        <ele>981.0</ele>
        <time>2019-07-31T14:46:45.152Z</time>
      </trkpt>
      <trkpt lat="43.00109" lon="-1.10568667">
        <ele>982.0</ele>
        <time>2019-07-31T14:46:46.157Z</time>
      </trkpt>
      <trkpt lat="43.00109667" lon="-1.10568833">
        <ele>982.0</ele>
        <time>2019-07-31T14:46:47.163Z</time>
      </trkpt>
      <trkpt lat="43.001105" lon="-1.10569333">
        <ele>982.0</ele>
        <time>2019-07-31T14:46:48.167Z</time>
      </trkpt>
      <trkpt lat="43.00111" lon="-1.105705">
        <ele>983.0</ele>
        <time>2019-07-31T14:46:49.172Z</time>
      </trkpt>
      <trkpt lat="43.00111333" lon="-1.105715">
        <ele>983.0</ele>
        <time>2019-07-31T14:46:50.178Z</time>
      </trkpt>
      <trkpt lat="43.00112333" lon="-1.10572167">
        <ele>983.0</ele>
        <time>2019-07-31T14:46:51.184Z</time>
      </trkpt>
      <trkpt lat="43.00113333" lon="-1.10572333">
        <ele>983.0</ele>
        <time>2019-07-31T14:46:52.061Z</time>
      </trkpt>
      <trkpt lat="43.00114167" lon="-1.10572667">
        <ele>983.0</ele>
        <time>2019-07-31T14:46:53.065Z</time>
      </trkpt>
      <trkpt lat="43.00114833" lon="-1.10573667">
        <ele>983.0</ele>
        <time>2019-07-31T14:46:54.069Z</time>
      </trkpt>
      <trkpt lat="43.00115333" lon="-1.10574333">
        <ele>984.0</ele>
        <time>2019-07-31T14:46:55.075Z</time>
      </trkpt>
      <trkpt lat="43.00115833" lon="-1.10575">
        <ele>984.0</ele>
        <time>2019-07-31T14:46:56.079Z</time>
      </trkpt>
      <trkpt lat="43.001165" lon="-1.10576">
        <ele>985.0</ele>
        <time>2019-07-31T14:46:57.082Z</time>
      </trkpt>
      <trkpt lat="43.00117333" lon="-1.10577167">
        <ele>985.0</ele>
        <time>2019-07-31T14:46:58.088Z</time>
      </trkpt>
      <trkpt lat="43.00118333" lon="-1.10578333">
        <ele>985.0</ele>
        <time>2019-07-31T14:46:59.094Z</time>
      </trkpt>
      <trkpt lat="43.00119" lon="-1.10578833">
        <ele>986.0</ele>
        <time>2019-07-31T14:47:00.100Z</time>
      </trkpt>
      <trkpt lat="43.00119333" lon="-1.10579167">
        <ele>986.0</ele>
        <time>2019-07-31T14:47:01.106Z</time>
      </trkpt>
      <trkpt lat="43.001195" lon="-1.10579833">
        <ele>987.0</ele>
        <time>2019-07-31T14:47:02.111Z</time>
      </trkpt>
      <trkpt lat="43.00119833" lon="-1.10580667">
        <ele>987.0</ele>
        <time>2019-07-31T14:47:03.116Z</time>
      </trkpt>
      <trkpt lat="43.00120833" lon="-1.10581167">
        <ele>988.0</ele>
        <time>2019-07-31T14:47:04.121Z</time>
      </trkpt>
      <trkpt lat="43.00122" lon="-1.10582">
        <ele>989.0</ele>
        <time>2019-07-31T14:47:05.127Z</time>
      </trkpt>
      <trkpt lat="43.00122667" lon="-1.10582">
        <ele>990.0</ele>
        <time>2019-07-31T14:47:06.130Z</time>
      </trkpt>
      <trkpt lat="43.001235" lon="-1.10582833">
        <ele>990.0</ele>
        <time>2019-07-31T14:47:07.134Z</time>
      </trkpt>
      <trkpt lat="43.00124333" lon="-1.10583667">
        <ele>990.0</ele>
        <time>2019-07-31T14:47:08.139Z</time>
      </trkpt>
      <trkpt lat="43.00125" lon="-1.10584167">
        <ele>991.0</ele>
        <time>2019-07-31T14:47:09.144Z</time>
      </trkpt>
      <trkpt lat="43.00125" lon="-1.10584333">
        <ele>991.0</ele>
        <time>2019-07-31T14:47:10.150Z</time>
      </trkpt>
      <trkpt lat="43.00125167" lon="-1.10584833">
        <ele>992.0</ele>
        <time>2019-07-31T14:47:11.156Z</time>
      </trkpt>
      <trkpt lat="43.00126167" lon="-1.10585833">
        <ele>993.0</ele>
        <time>2019-07-31T14:47:12.163Z</time>
      </trkpt>
      <trkpt lat="43.00127167" lon="-1.10586667">
        <ele>994.0</ele>
        <time>2019-07-31T14:47:13.166Z</time>
      </trkpt>
      <trkpt lat="43.001285" lon="-1.10588">
        <ele>993.0</ele>
        <time>2019-07-31T14:47:14.172Z</time>
      </trkpt>
      <trkpt lat="43.00129667" lon="-1.10589333">
        <ele>993.0</ele>
        <time>2019-07-31T14:47:15.176Z</time>
      </trkpt>
      <trkpt lat="43.001305" lon="-1.105915">
        <ele>992.0</ele>
        <time>2019-07-31T14:47:16.181Z</time>
      </trkpt>
      <trkpt lat="43.00131333" lon="-1.10592167">
        <ele>992.0</ele>
        <time>2019-07-31T14:47:17.186Z</time>
      </trkpt>
      <trkpt lat="43.00132" lon="-1.10592667">
        <ele>991.0</ele>
        <time>2019-07-31T14:47:18.066Z</time>
      </trkpt>
      <trkpt lat="43.00132167" lon="-1.10594167">
        <ele>992.0</ele>
        <time>2019-07-31T14:47:19.071Z</time>
      </trkpt>
      <trkpt lat="43.00132833" lon="-1.10595833">
        <ele>992.0</ele>
        <time>2019-07-31T14:47:20.075Z</time>
      </trkpt>
      <trkpt lat="43.00133833" lon="-1.10596167">
        <ele>991.0</ele>
        <time>2019-07-31T14:47:21.081Z</time>
      </trkpt>
      <trkpt lat="43.00135167" lon="-1.105965">
        <ele>991.0</ele>
        <time>2019-07-31T14:47:22.087Z</time>
      </trkpt>
      <trkpt lat="43.00136167" lon="-1.10598167">
        <ele>990.0</ele>
        <time>2019-07-31T14:47:23.090Z</time>
      </trkpt>
      <trkpt lat="43.00136833" lon="-1.10601167">
        <ele>991.0</ele>
        <time>2019-07-31T14:47:24.095Z</time>
      </trkpt>
      <trkpt lat="43.00136833" lon="-1.10602833">
        <ele>992.0</ele>
        <time>2019-07-31T14:47:25.101Z</time>
      </trkpt>
      <trkpt lat="43.00137167" lon="-1.10604">
        <ele>993.0</ele>
        <time>2019-07-31T14:47:26.108Z</time>
      </trkpt>
      <trkpt lat="43.00137833" lon="-1.106045">
        <ele>993.0</ele>
        <time>2019-07-31T14:47:27.114Z</time>
      </trkpt>
      <trkpt lat="43.00138167" lon="-1.10605">
        <ele>993.0</ele>
        <time>2019-07-31T14:47:28.120Z</time>
      </trkpt>
      <trkpt lat="43.00138833" lon="-1.10606">
        <ele>994.0</ele>
        <time>2019-07-31T14:47:29.126Z</time>
      </trkpt>
      <trkpt lat="43.00139" lon="-1.106075">
        <ele>994.0</ele>
        <time>2019-07-31T14:47:30.134Z</time>
      </trkpt>
      <trkpt lat="43.00139667" lon="-1.106085">
        <ele>994.0</ele>
        <time>2019-07-31T14:47:31.139Z</time>
      </trkpt>
      <trkpt lat="43.00139833" lon="-1.106085">
        <ele>994.0</ele>
        <time>2019-07-31T14:47:32.144Z</time>
      </trkpt>
      <trkpt lat="43.001405" lon="-1.10608833">
        <ele>995.0</ele>
        <time>2019-07-31T14:47:33.149Z</time>
      </trkpt>
      <trkpt lat="43.00140833" lon="-1.10609333">
        <ele>995.0</ele>
        <time>2019-07-31T14:47:34.156Z</time>
      </trkpt>
      <trkpt lat="43.001415" lon="-1.10611333">
        <ele>995.0</ele>
        <time>2019-07-31T14:47:35.161Z</time>
      </trkpt>
      <trkpt lat="43.00141667" lon="-1.10613333">
        <ele>996.0</ele>
        <time>2019-07-31T14:47:36.166Z</time>
      </trkpt>
      <trkpt lat="43.00142667" lon="-1.10614333">
        <ele>995.0</ele>
        <time>2019-07-31T14:47:37.170Z</time>
      </trkpt>
      <trkpt lat="43.00143167" lon="-1.10614833">
        <ele>996.0</ele>
        <time>2019-07-31T14:47:38.176Z</time>
      </trkpt>
      <trkpt lat="43.00143667" lon="-1.10616333">
        <ele>996.0</ele>
        <time>2019-07-31T14:47:39.182Z</time>
      </trkpt>
      <trkpt lat="43.00144" lon="-1.106175">
        <ele>997.0</ele>
        <time>2019-07-31T14:47:40.186Z</time>
      </trkpt>
      <trkpt lat="43.001445" lon="-1.10619">
        <ele>998.0</ele>
        <time>2019-07-31T14:47:41.066Z</time>
      </trkpt>
      <trkpt lat="43.00144667" lon="-1.106205">
        <ele>998.0</ele>
        <time>2019-07-31T14:47:42.071Z</time>
      </trkpt>
      <trkpt lat="43.00144833" lon="-1.10621667">
        <ele>999.0</ele>
        <time>2019-07-31T14:47:43.076Z</time>
      </trkpt>
      <trkpt lat="43.001455" lon="-1.10622667">
        <ele>999.0</ele>
        <time>2019-07-31T14:47:44.080Z</time>
      </trkpt>
      <trkpt lat="43.00146167" lon="-1.10623833">
        <ele>999.0</ele>
        <time>2019-07-31T14:47:45.086Z</time>
      </trkpt>
      <trkpt lat="43.001465" lon="-1.10624667">
        <ele>1000.0</ele>
        <time>2019-07-31T14:47:46.092Z</time>
      </trkpt>
      <trkpt lat="43.00147" lon="-1.10626333">
        <ele>1000.0</ele>
        <time>2019-07-31T14:47:47.097Z</time>
      </trkpt>
      <trkpt lat="43.00147167" lon="-1.106275">
        <ele>1001.0</ele>
        <time>2019-07-31T14:47:48.102Z</time>
      </trkpt>
      <trkpt lat="43.00147333" lon="-1.106285">
        <ele>1001.0</ele>
        <time>2019-07-31T14:47:49.109Z</time>
      </trkpt>
      <trkpt lat="43.00148167" lon="-1.10629">
        <ele>1001.0</ele>
        <time>2019-07-31T14:47:50.114Z</time>
      </trkpt>
      <trkpt lat="43.00148833" lon="-1.10629167">
        <ele>1001.0</ele>
        <time>2019-07-31T14:47:51.121Z</time>
      </trkpt>
      <trkpt lat="43.001495" lon="-1.10629333">
        <ele>1001.0</ele>
        <time>2019-07-31T14:47:52.127Z</time>
      </trkpt>
      <trkpt lat="43.0015" lon="-1.10630167">
        <ele>1002.0</ele>
        <time>2019-07-31T14:47:53.133Z</time>
      </trkpt>
      <trkpt lat="43.001505" lon="-1.10631667">
        <ele>1002.0</ele>
        <time>2019-07-31T14:47:54.135Z</time>
      </trkpt>
      <trkpt lat="43.001515" lon="-1.10632833">
        <ele>1002.0</ele>
        <time>2019-07-31T14:47:55.140Z</time>
      </trkpt>
      <trkpt lat="43.00152333" lon="-1.10634167">
        <ele>1002.0</ele>
        <time>2019-07-31T14:47:56.143Z</time>
      </trkpt>
      <trkpt lat="43.00153" lon="-1.10635167">
        <ele>1003.0</ele>
        <time>2019-07-31T14:47:57.146Z</time>
      </trkpt>
      <trkpt lat="43.00153833" lon="-1.10636">
        <ele>1003.0</ele>
        <time>2019-07-31T14:47:58.150Z</time>
      </trkpt>
      <trkpt lat="43.00155" lon="-1.10637">
        <ele>1004.0</ele>
        <time>2019-07-31T14:47:59.152Z</time>
      </trkpt>
      <trkpt lat="43.00155667" lon="-1.10637667">
        <ele>1004.0</ele>
        <time>2019-07-31T14:48:00.156Z</time>
      </trkpt>
      <trkpt lat="43.001565" lon="-1.10637667">
        <ele>1004.0</ele>
        <time>2019-07-31T14:48:01.163Z</time>
      </trkpt>
      <trkpt lat="43.00156833" lon="-1.10637833">
        <ele>1004.0</ele>
        <time>2019-07-31T14:48:02.170Z</time>
      </trkpt>
      <trkpt lat="43.001575" lon="-1.106395">
        <ele>1004.0</ele>
        <time>2019-07-31T14:48:03.176Z</time>
      </trkpt>
      <trkpt lat="43.001585" lon="-1.10639667">
        <ele>1005.0</ele>
        <time>2019-07-31T14:48:04.182Z</time>
      </trkpt>
      <trkpt lat="43.001595" lon="-1.10639333">
        <ele>1006.0</ele>
        <time>2019-07-31T14:48:05.063Z</time>
      </trkpt>
      <trkpt lat="43.00160833" lon="-1.106395">
        <ele>1006.0</ele>
        <time>2019-07-31T14:48:06.070Z</time>
      </trkpt>
      <trkpt lat="43.00161667" lon="-1.10640833">
        <ele>1006.0</ele>
        <time>2019-07-31T14:48:07.076Z</time>
      </trkpt>
      <trkpt lat="43.00162667" lon="-1.10640667">
        <ele>1006.0</ele>
        <time>2019-07-31T14:48:08.077Z</time>
      </trkpt>
      <trkpt lat="43.00164333" lon="-1.10641167">
        <ele>1005.0</ele>
        <time>2019-07-31T14:48:09.082Z</time>
      </trkpt>
      <trkpt lat="43.00165167" lon="-1.10641333">
        <ele>1005.0</ele>
        <time>2019-07-31T14:48:10.088Z</time>
      </trkpt>
      <trkpt lat="43.00166333" lon="-1.10640833">
        <ele>1004.0</ele>
        <time>2019-07-31T14:48:11.092Z</time>
      </trkpt>
      <trkpt lat="43.00167" lon="-1.106405">
        <ele>1004.0</ele>
        <time>2019-07-31T14:48:12.098Z</time>
      </trkpt>
      <trkpt lat="43.00168167" lon="-1.10642333">
        <ele>1005.0</ele>
        <time>2019-07-31T14:48:13.102Z</time>
      </trkpt>
      <trkpt lat="43.00169333" lon="-1.10643833">
        <ele>1004.0</ele>
        <time>2019-07-31T14:48:14.108Z</time>
      </trkpt>
      <trkpt lat="43.00171" lon="-1.10644667">
        <ele>1004.0</ele>
        <time>2019-07-31T14:48:15.114Z</time>
      </trkpt>
      <trkpt lat="43.00172333" lon="-1.10645333">
        <ele>1004.0</ele>
        <time>2019-07-31T14:48:16.119Z</time>
      </trkpt>
      <trkpt lat="43.001735" lon="-1.10646333">
        <ele>1004.0</ele>
        <time>2019-07-31T14:48:17.125Z</time>
      </trkpt>
      <trkpt lat="43.00174833" lon="-1.10647833">
        <ele>1005.0</ele>
        <time>2019-07-31T14:48:18.131Z</time>
      </trkpt>
      <trkpt lat="43.00176333" lon="-1.10648">
        <ele>1005.0</ele>
        <time>2019-07-31T14:48:19.135Z</time>
      </trkpt>
      <trkpt lat="43.001775" lon="-1.10648333">
        <ele>1004.0</ele>
        <time>2019-07-31T14:48:20.139Z</time>
      </trkpt>
      <trkpt lat="43.00179" lon="-1.10647833">
        <ele>1004.0</ele>
        <time>2019-07-31T14:48:21.143Z</time>
      </trkpt>
      <trkpt lat="43.00180333" lon="-1.10648667">
        <ele>1005.0</ele>
        <time>2019-07-31T14:48:22.149Z</time>
      </trkpt>
      <trkpt lat="43.001815" lon="-1.10650167">
        <ele>1006.0</ele>
        <time>2019-07-31T14:48:23.156Z</time>
      </trkpt>
      <trkpt lat="43.00182167" lon="-1.106505">
        <ele>1005.0</ele>
        <time>2019-07-31T14:48:24.162Z</time>
      </trkpt>
      <trkpt lat="43.00183" lon="-1.10651833">
        <ele>1004.0</ele>
        <time>2019-07-31T14:48:25.169Z</time>
      </trkpt>
      <trkpt lat="43.001835" lon="-1.10653333">
        <ele>1004.0</ele>
        <time>2019-07-31T14:48:26.175Z</time>
      </trkpt>
      <trkpt lat="43.00184167" lon="-1.10655">
        <ele>1004.0</ele>
        <time>2019-07-31T14:48:27.179Z</time>
      </trkpt>
      <trkpt lat="43.001855" lon="-1.10656167">
        <ele>1004.0</ele>
        <time>2019-07-31T14:48:28.184Z</time>
      </trkpt>
      <trkpt lat="43.00186333" lon="-1.10658667">
        <ele>1004.0</ele>
        <time>2019-07-31T14:48:29.064Z</time>
      </trkpt>
      <trkpt lat="43.00187167" lon="-1.10659833">
        <ele>1004.0</ele>
        <time>2019-07-31T14:48:30.071Z</time>
      </trkpt>
      <trkpt lat="43.001885" lon="-1.10661833">
        <ele>1005.0</ele>
        <time>2019-07-31T14:48:31.076Z</time>
      </trkpt>
      <trkpt lat="43.00189667" lon="-1.10662667">
        <ele>1005.0</ele>
        <time>2019-07-31T14:48:32.082Z</time>
      </trkpt>
      <trkpt lat="43.00191" lon="-1.106635">
        <ele>1005.0</ele>
        <time>2019-07-31T14:48:33.089Z</time>
      </trkpt>
      <trkpt lat="43.001925" lon="-1.10663833">
        <ele>1004.0</ele>
        <time>2019-07-31T14:48:34.094Z</time>
      </trkpt>
      <trkpt lat="43.001945" lon="-1.10662833">
        <ele>1004.0</ele>
        <time>2019-07-31T14:48:35.100Z</time>
      </trkpt>
      <trkpt lat="43.00195833" lon="-1.10662333">
        <ele>1003.0</ele>
        <time>2019-07-31T14:48:36.107Z</time>
      </trkpt>
      <trkpt lat="43.00198" lon="-1.106615">
        <ele>1003.0</ele>
        <time>2019-07-31T14:48:37.113Z</time>
      </trkpt>
      <trkpt lat="43.001995" lon="-1.10662167">
        <ele>1003.0</ele>
        <time>2019-07-31T14:48:38.117Z</time>
      </trkpt>
      <trkpt lat="43.00201" lon="-1.10662667">
        <ele>1002.0</ele>
        <time>2019-07-31T14:48:39.122Z</time>
      </trkpt>
      <trkpt lat="43.002025" lon="-1.10662833">
        <ele>1003.0</ele>
        <time>2019-07-31T14:48:40.126Z</time>
      </trkpt>
      <trkpt lat="43.00203667" lon="-1.10663667">
        <ele>1003.0</ele>
        <time>2019-07-31T14:48:41.131Z</time>
      </trkpt>
      <trkpt lat="43.00204167" lon="-1.106655">
        <ele>1003.0</ele>
        <time>2019-07-31T14:48:42.135Z</time>
      </trkpt>
      <trkpt lat="43.00204667" lon="-1.10667">
        <ele>1003.0</ele>
        <time>2019-07-31T14:48:43.141Z</time>
      </trkpt>
      <trkpt lat="43.00205" lon="-1.10668833">
        <ele>1004.0</ele>
        <time>2019-07-31T14:48:44.142Z</time>
      </trkpt>
      <trkpt lat="43.00205333" lon="-1.10670667">
        <ele>1006.0</ele>
        <time>2019-07-31T14:48:45.147Z</time>
      </trkpt>
      <trkpt lat="43.00205667" lon="-1.10672">
        <ele>1007.0</ele>
        <time>2019-07-31T14:48:46.153Z</time>
      </trkpt>
      <trkpt lat="43.002065" lon="-1.10672667">
        <ele>1007.0</ele>
        <time>2019-07-31T14:48:47.159Z</time>
      </trkpt>
      <trkpt lat="43.00207167" lon="-1.10674167">
        <ele>1008.0</ele>
        <time>2019-07-31T14:48:48.163Z</time>
      </trkpt>
      <trkpt lat="43.00208333" lon="-1.10674">
        <ele>1009.0</ele>
        <time>2019-07-31T14:48:49.168Z</time>
      </trkpt>
      <trkpt lat="43.002095" lon="-1.10674">
        <ele>1010.0</ele>
        <time>2019-07-31T14:48:50.172Z</time>
      </trkpt>
      <trkpt lat="43.00211167" lon="-1.10675167">
        <ele>1010.0</ele>
        <time>2019-07-31T14:48:51.176Z</time>
      </trkpt>
      <trkpt lat="43.00212667" lon="-1.10674">
        <ele>1011.0</ele>
        <time>2019-07-31T14:48:52.181Z</time>
      </trkpt>
      <trkpt lat="43.00213833" lon="-1.10674">
        <ele>1012.0</ele>
        <time>2019-07-31T14:48:53.061Z</time>
      </trkpt>
      <trkpt lat="43.00214667" lon="-1.106745">
        <ele>1012.0</ele>
        <time>2019-07-31T14:48:54.068Z</time>
      </trkpt>
      <trkpt lat="43.00215667" lon="-1.10675833">
        <ele>1012.0</ele>
        <time>2019-07-31T14:48:55.073Z</time>
      </trkpt>
      <trkpt lat="43.00217833" lon="-1.10675667">
        <ele>1013.0</ele>
        <time>2019-07-31T14:48:56.077Z</time>
      </trkpt>
      <trkpt lat="43.00219667" lon="-1.10674333">
        <ele>1013.0</ele>
        <time>2019-07-31T14:48:57.083Z</time>
      </trkpt>
      <trkpt lat="43.0022" lon="-1.10674667">
        <ele>1013.0</ele>
        <time>2019-07-31T14:48:58.088Z</time>
      </trkpt>
      <trkpt lat="43.00220333" lon="-1.10674667">
        <ele>1014.0</ele>
        <time>2019-07-31T14:48:59.093Z</time>
      </trkpt>
      <trkpt lat="43.002215" lon="-1.10674833">
        <ele>1013.0</ele>
        <time>2019-07-31T14:49:00.100Z</time>
      </trkpt>
      <trkpt lat="43.00222333" lon="-1.106765">
        <ele>1013.0</ele>
        <time>2019-07-31T14:49:01.106Z</time>
      </trkpt>
      <trkpt lat="43.00223333" lon="-1.10678333">
        <ele>1014.0</ele>
        <time>2019-07-31T14:49:02.111Z</time>
      </trkpt>
      <trkpt lat="43.00224667" lon="-1.10679167">
        <ele>1015.0</ele>
        <time>2019-07-31T14:49:03.115Z</time>
      </trkpt>
      <trkpt lat="43.00226667" lon="-1.10679667">
        <ele>1015.0</ele>
        <time>2019-07-31T14:49:04.121Z</time>
      </trkpt>
      <trkpt lat="43.00227667" lon="-1.10681">
        <ele>1017.0</ele>
        <time>2019-07-31T14:49:05.127Z</time>
      </trkpt>
      <trkpt lat="43.00228167" lon="-1.10680833">
        <ele>1019.0</ele>
        <time>2019-07-31T14:49:06.133Z</time>
      </trkpt>
      <trkpt lat="43.00228333" lon="-1.10682167">
        <ele>1020.0</ele>
        <time>2019-07-31T14:49:07.139Z</time>
      </trkpt>
      <trkpt lat="43.00229" lon="-1.10684833">
        <ele>1021.0</ele>
        <time>2019-07-31T14:49:08.144Z</time>
      </trkpt>
      <trkpt lat="43.00229333" lon="-1.10687">
        <ele>1021.0</ele>
        <time>2019-07-31T14:49:09.150Z</time>
      </trkpt>
      <trkpt lat="43.00229833" lon="-1.106885">
        <ele>1021.0</ele>
        <time>2019-07-31T14:49:10.156Z</time>
      </trkpt>
      <trkpt lat="43.00231167" lon="-1.10689">
        <ele>1022.0</ele>
        <time>2019-07-31T14:49:11.161Z</time>
      </trkpt>
      <trkpt lat="43.00232167" lon="-1.10689167">
        <ele>1023.0</ele>
        <time>2019-07-31T14:49:12.166Z</time>
      </trkpt>
      <trkpt lat="43.00233333" lon="-1.10689">
        <ele>1023.0</ele>
        <time>2019-07-31T14:49:13.170Z</time>
      </trkpt>
      <trkpt lat="43.00234333" lon="-1.10690167">
        <ele>1022.0</ele>
        <time>2019-07-31T14:49:14.175Z</time>
      </trkpt>
      <trkpt lat="43.002355" lon="-1.106905">
        <ele>1023.0</ele>
        <time>2019-07-31T14:49:15.180Z</time>
      </trkpt>
      <trkpt lat="43.00236333" lon="-1.106915">
        <ele>1024.0</ele>
        <time>2019-07-31T14:49:16.186Z</time>
      </trkpt>
      <trkpt lat="43.00237167" lon="-1.10692667">
        <ele>1024.0</ele>
        <time>2019-07-31T14:49:17.067Z</time>
      </trkpt>
      <trkpt lat="43.00237833" lon="-1.10692667">
        <ele>1025.0</ele>
        <time>2019-07-31T14:49:18.072Z</time>
      </trkpt>
      <trkpt lat="43.00238333" lon="-1.10693333">
        <ele>1026.0</ele>
        <time>2019-07-31T14:49:19.076Z</time>
      </trkpt>
      <trkpt lat="43.00238667" lon="-1.106945">
        <ele>1026.0</ele>
        <time>2019-07-31T14:49:20.080Z</time>
      </trkpt>
      <trkpt lat="43.00239167" lon="-1.106955">
        <ele>1026.0</ele>
        <time>2019-07-31T14:49:21.087Z</time>
      </trkpt>
      <trkpt lat="43.00239833" lon="-1.10696">
        <ele>1025.0</ele>
        <time>2019-07-31T14:49:22.091Z</time>
      </trkpt>
      <trkpt lat="43.00241333" lon="-1.10696167">
        <ele>1025.0</ele>
        <time>2019-07-31T14:49:23.092Z</time>
      </trkpt>
      <trkpt lat="43.00243333" lon="-1.10696">
        <ele>1026.0</ele>
        <time>2019-07-31T14:49:24.096Z</time>
      </trkpt>
      <trkpt lat="43.00244833" lon="-1.10696">
        <ele>1026.0</ele>
        <time>2019-07-31T14:49:25.101Z</time>
      </trkpt>
      <trkpt lat="43.00246167" lon="-1.10696">
        <ele>1026.0</ele>
        <time>2019-07-31T14:49:26.107Z</time>
      </trkpt>
      <trkpt lat="43.00247333" lon="-1.10696">
        <ele>1025.0</ele>
        <time>2019-07-31T14:49:27.114Z</time>
      </trkpt>
      <trkpt lat="43.00248833" lon="-1.106965">
        <ele>1025.0</ele>
        <time>2019-07-31T14:49:28.120Z</time>
      </trkpt>
      <trkpt lat="43.00249833" lon="-1.10696">
        <ele>1025.0</ele>
        <time>2019-07-31T14:49:29.124Z</time>
      </trkpt>
      <trkpt lat="43.002505" lon="-1.10696333">
        <ele>1025.0</ele>
        <time>2019-07-31T14:49:30.130Z</time>
      </trkpt>
      <trkpt lat="43.002515" lon="-1.106965">
        <ele>1024.0</ele>
        <time>2019-07-31T14:49:31.135Z</time>
      </trkpt>
      <trkpt lat="43.00252667" lon="-1.10697">
        <ele>1024.0</ele>
        <time>2019-07-31T14:49:32.140Z</time>
      </trkpt>
      <trkpt lat="43.00253667" lon="-1.10697333">
        <ele>1023.0</ele>
        <time>2019-07-31T14:49:33.146Z</time>
      </trkpt>
      <trkpt lat="43.00255167" lon="-1.10697667">
        <ele>1022.0</ele>
        <time>2019-07-31T14:49:34.151Z</time>
      </trkpt>
      <trkpt lat="43.00255667" lon="-1.10697667">
        <ele>1021.0</ele>
        <time>2019-07-31T14:49:35.158Z</time>
      </trkpt>
      <trkpt lat="43.00256" lon="-1.106955">
        <ele>1020.0</ele>
        <time>2019-07-31T14:49:36.163Z</time>
      </trkpt>
      <trkpt lat="43.00255833" lon="-1.10693333">
        <ele>1022.0</ele>
        <time>2019-07-31T14:49:37.169Z</time>
      </trkpt>
      <trkpt lat="43.002565" lon="-1.10692333">
        <ele>1021.0</ele>
        <time>2019-07-31T14:49:38.175Z</time>
      </trkpt>
      <trkpt lat="43.002575" lon="-1.10692167">
        <ele>1020.0</ele>
        <time>2019-07-31T14:49:39.181Z</time>
      </trkpt>
      <trkpt lat="43.002585" lon="-1.106925">
        <ele>1019.0</ele>
        <time>2019-07-31T14:49:40.184Z</time>
      </trkpt>
      <trkpt lat="43.00259" lon="-1.10691167">
        <ele>1020.0</ele>
        <time>2019-07-31T14:49:41.064Z</time>
      </trkpt>
      <trkpt lat="43.00258833" lon="-1.10689667">
        <ele>1022.0</ele>
        <time>2019-07-31T14:49:42.072Z</time>
      </trkpt>
      <trkpt lat="43.00258833" lon="-1.10688667">
        <ele>1023.0</ele>
        <time>2019-07-31T14:49:43.077Z</time>
      </trkpt>
      <trkpt lat="43.0026" lon="-1.10687167">
        <ele>1024.0</ele>
        <time>2019-07-31T14:49:44.082Z</time>
      </trkpt>
      <trkpt lat="43.00260833" lon="-1.10686167">
        <ele>1024.0</ele>
        <time>2019-07-31T14:49:45.087Z</time>
      </trkpt>
      <trkpt lat="43.002605" lon="-1.10685833">
        <ele>1025.0</ele>
        <time>2019-07-31T14:49:46.092Z</time>
      </trkpt>
      <trkpt lat="43.00260333" lon="-1.10685667">
        <ele>1026.0</ele>
        <time>2019-07-31T14:49:47.097Z</time>
      </trkpt>
      <trkpt lat="43.00259833" lon="-1.10685667">
        <ele>1026.0</ele>
        <time>2019-07-31T14:49:48.103Z</time>
      </trkpt>
      <trkpt lat="43.00258833" lon="-1.10685333">
        <ele>1027.0</ele>
        <time>2019-07-31T14:49:49.107Z</time>
      </trkpt>
      <trkpt lat="43.002585" lon="-1.10685167">
        <ele>1027.0</ele>
        <time>2019-07-31T14:49:50.110Z</time>
      </trkpt>
      <trkpt lat="43.002585" lon="-1.106855">
        <ele>1028.0</ele>
        <time>2019-07-31T14:49:51.115Z</time>
      </trkpt>
      <trkpt lat="43.00259333" lon="-1.10688">
        <ele>1028.0</ele>
        <time>2019-07-31T14:49:52.120Z</time>
      </trkpt>
      <trkpt lat="43.00259833" lon="-1.10689833">
        <ele>1028.0</ele>
        <time>2019-07-31T14:49:53.126Z</time>
      </trkpt>
      <trkpt lat="43.00260333" lon="-1.10692">
        <ele>1027.0</ele>
        <time>2019-07-31T14:49:54.129Z</time>
      </trkpt>
      <trkpt lat="43.00261167" lon="-1.10693">
        <ele>1028.0</ele>
        <time>2019-07-31T14:49:55.135Z</time>
      </trkpt>
      <trkpt lat="43.00262167" lon="-1.106935">
        <ele>1028.0</ele>
        <time>2019-07-31T14:49:56.141Z</time>
      </trkpt>
      <trkpt lat="43.00262333" lon="-1.10694167">
        <ele>1028.0</ele>
        <time>2019-07-31T14:49:57.148Z</time>
      </trkpt>
      <trkpt lat="43.00262667" lon="-1.10695">
        <ele>1027.0</ele>
        <time>2019-07-31T14:49:58.154Z</time>
      </trkpt>
      <trkpt lat="43.00262833" lon="-1.10695333">
        <ele>1027.0</ele>
        <time>2019-07-31T14:49:59.162Z</time>
      </trkpt>
      <trkpt lat="43.00263333" lon="-1.10694333">
        <ele>1026.0</ele>
        <time>2019-07-31T14:50:00.167Z</time>
      </trkpt>
      <trkpt lat="43.002635" lon="-1.10694167">
        <ele>1025.0</ele>
        <time>2019-07-31T14:50:01.172Z</time>
      </trkpt>
      <trkpt lat="43.00263667" lon="-1.106945">
        <ele>1025.0</ele>
        <time>2019-07-31T14:50:02.176Z</time>
      </trkpt>
      <trkpt lat="43.00264167" lon="-1.10694833">
        <ele>1026.0</ele>
        <time>2019-07-31T14:50:03.179Z</time>
      </trkpt>
      <trkpt lat="43.00264167" lon="-1.10694667">
        <ele>1026.0</ele>
        <time>2019-07-31T14:50:04.182Z</time>
      </trkpt>
      <trkpt lat="43.00264667" lon="-1.10693">
        <ele>1027.0</ele>
        <time>2019-07-31T14:50:05.063Z</time>
      </trkpt>
      <trkpt lat="43.00265167" lon="-1.10693167">
        <ele>1028.0</ele>
        <time>2019-07-31T14:50:06.068Z</time>
      </trkpt>
      <trkpt lat="43.002655" lon="-1.10694667">
        <ele>1028.0</ele>
        <time>2019-07-31T14:50:07.074Z</time>
      </trkpt>
      <trkpt lat="43.00265667" lon="-1.10695333">
        <ele>1029.0</ele>
        <time>2019-07-31T14:50:08.079Z</time>
      </trkpt>
      <trkpt lat="43.00266167" lon="-1.106955">
        <ele>1029.0</ele>
        <time>2019-07-31T14:50:09.083Z</time>
      </trkpt>
      <trkpt lat="43.00267167" lon="-1.10695667">
        <ele>1029.0</ele>
        <time>2019-07-31T14:50:10.088Z</time>
      </trkpt>
      <trkpt lat="43.00267833" lon="-1.10695833">
        <ele>1030.0</ele>
        <time>2019-07-31T14:50:11.092Z</time>
      </trkpt>
      <trkpt lat="43.00268833" lon="-1.10696">
        <ele>1030.0</ele>
        <time>2019-07-31T14:50:12.098Z</time>
      </trkpt>
      <trkpt lat="43.002695" lon="-1.10696333">
        <ele>1030.0</ele>
        <time>2019-07-31T14:50:13.103Z</time>
      </trkpt>
      <trkpt lat="43.00270167" lon="-1.10697">
        <ele>1030.0</ele>
        <time>2019-07-31T14:50:14.111Z</time>
      </trkpt>
      <trkpt lat="43.00270833" lon="-1.10698">
        <ele>1031.0</ele>
        <time>2019-07-31T14:50:15.115Z</time>
      </trkpt>
      <trkpt lat="43.00271667" lon="-1.10698833">
        <ele>1031.0</ele>
        <time>2019-07-31T14:50:16.119Z</time>
      </trkpt>
      <trkpt lat="43.00273" lon="-1.10699333">
        <ele>1031.0</ele>
        <time>2019-07-31T14:50:17.123Z</time>
      </trkpt>
      <trkpt lat="43.00273667" lon="-1.106995">
        <ele>1032.0</ele>
        <time>2019-07-31T14:50:18.129Z</time>
      </trkpt>
      <trkpt lat="43.00274" lon="-1.10699833">
        <ele>1033.0</ele>
        <time>2019-07-31T14:50:19.134Z</time>
      </trkpt>
      <trkpt lat="43.00274833" lon="-1.107">
        <ele>1035.0</ele>
        <time>2019-07-31T14:50:20.140Z</time>
      </trkpt>
      <trkpt lat="43.00275833" lon="-1.10700833">
        <ele>1036.0</ele>
        <time>2019-07-31T14:50:21.146Z</time>
      </trkpt>
      <trkpt lat="43.00276667" lon="-1.107015">
        <ele>1036.0</ele>
        <time>2019-07-31T14:50:22.152Z</time>
      </trkpt>
      <trkpt lat="43.002775" lon="-1.10702">
        <ele>1037.0</ele>
        <time>2019-07-31T14:50:23.157Z</time>
      </trkpt>
      <trkpt lat="43.002785" lon="-1.107025">
        <ele>1037.0</ele>
        <time>2019-07-31T14:50:24.160Z</time>
      </trkpt>
      <trkpt lat="43.00279833" lon="-1.10703167">
        <ele>1038.0</ele>
        <time>2019-07-31T14:50:25.164Z</time>
      </trkpt>
      <trkpt lat="43.00281" lon="-1.10703667">
        <ele>1038.0</ele>
        <time>2019-07-31T14:50:26.168Z</time>
      </trkpt>
      <trkpt lat="43.00281667" lon="-1.10704">
        <ele>1039.0</ele>
        <time>2019-07-31T14:50:27.174Z</time>
      </trkpt>
      <trkpt lat="43.00282667" lon="-1.10704833">
        <ele>1040.0</ele>
        <time>2019-07-31T14:50:28.177Z</time>
      </trkpt>
      <trkpt lat="43.00283333" lon="-1.10705833">
        <ele>1041.0</ele>
        <time>2019-07-31T14:50:29.181Z</time>
      </trkpt>
      <trkpt lat="43.00284" lon="-1.107065">
        <ele>1041.0</ele>
        <time>2019-07-31T14:50:30.185Z</time>
      </trkpt>
      <trkpt lat="43.00284833" lon="-1.107065">
        <ele>1042.0</ele>
        <time>2019-07-31T14:50:31.066Z</time>
      </trkpt>
      <trkpt lat="43.00286" lon="-1.10706333">
        <ele>1042.0</ele>
        <time>2019-07-31T14:50:32.071Z</time>
      </trkpt>
      <trkpt lat="43.00287333" lon="-1.10706333">
        <ele>1043.0</ele>
        <time>2019-07-31T14:50:33.076Z</time>
      </trkpt>
      <trkpt lat="43.00289333" lon="-1.10705833">
        <ele>1044.0</ele>
        <time>2019-07-31T14:50:34.079Z</time>
      </trkpt>
      <trkpt lat="43.00290667" lon="-1.107055">
        <ele>1045.0</ele>
        <time>2019-07-31T14:50:35.083Z</time>
      </trkpt>
      <trkpt lat="43.00291833" lon="-1.10706">
        <ele>1045.0</ele>
        <time>2019-07-31T14:50:36.086Z</time>
      </trkpt>
      <trkpt lat="43.00292667" lon="-1.10707833">
        <ele>1046.0</ele>
        <time>2019-07-31T14:50:37.091Z</time>
      </trkpt>
      <trkpt lat="43.00293" lon="-1.107095">
        <ele>1046.0</ele>
        <time>2019-07-31T14:50:38.095Z</time>
      </trkpt>
      <trkpt lat="43.00294" lon="-1.1071">
        <ele>1047.0</ele>
        <time>2019-07-31T14:50:39.099Z</time>
      </trkpt>
      <trkpt lat="43.00294833" lon="-1.10710667">
        <ele>1047.0</ele>
        <time>2019-07-31T14:50:40.103Z</time>
      </trkpt>
      <trkpt lat="43.00295833" lon="-1.10709167">
        <ele>1049.0</ele>
        <time>2019-07-31T14:50:41.107Z</time>
      </trkpt>
      <trkpt lat="43.00296833" lon="-1.10708167">
        <ele>1049.0</ele>
        <time>2019-07-31T14:50:42.115Z</time>
      </trkpt>
      <trkpt lat="43.00297667" lon="-1.10708333">
        <ele>1050.0</ele>
        <time>2019-07-31T14:50:43.120Z</time>
      </trkpt>
      <trkpt lat="43.00297667" lon="-1.10707833">
        <ele>1051.0</ele>
        <time>2019-07-31T14:50:44.125Z</time>
      </trkpt>
      <trkpt lat="43.00297833" lon="-1.107075">
        <ele>1051.0</ele>
        <time>2019-07-31T14:50:45.132Z</time>
      </trkpt>
      <trkpt lat="43.002985" lon="-1.10707167">
        <ele>1053.0</ele>
        <time>2019-07-31T14:50:46.136Z</time>
      </trkpt>
      <trkpt lat="43.00299667" lon="-1.10706833">
        <ele>1055.0</ele>
        <time>2019-07-31T14:50:47.141Z</time>
      </trkpt>
      <trkpt lat="43.00301167" lon="-1.10707167">
        <ele>1056.0</ele>
        <time>2019-07-31T14:50:48.147Z</time>
      </trkpt>
      <trkpt lat="43.003025" lon="-1.10707833">
        <ele>1056.0</ele>
        <time>2019-07-31T14:50:49.154Z</time>
      </trkpt>
      <trkpt lat="43.00303833" lon="-1.10709833">
        <ele>1056.0</ele>
        <time>2019-07-31T14:50:50.159Z</time>
      </trkpt>
      <trkpt lat="43.00305167" lon="-1.1071">
        <ele>1056.0</ele>
        <time>2019-07-31T14:50:51.166Z</time>
      </trkpt>
      <trkpt lat="43.00306333" lon="-1.1071">
        <ele>1056.0</ele>
        <time>2019-07-31T14:50:52.173Z</time>
      </trkpt>
      <trkpt lat="43.003075" lon="-1.10709833">
        <ele>1056.0</ele>
        <time>2019-07-31T14:50:53.178Z</time>
      </trkpt>
      <trkpt lat="43.00308333" lon="-1.10709167">
        <ele>1056.0</ele>
        <time>2019-07-31T14:50:54.182Z</time>
      </trkpt>
      <trkpt lat="43.00309333" lon="-1.10709333">
        <ele>1056.0</ele>
        <time>2019-07-31T14:50:55.062Z</time>
      </trkpt>
      <trkpt lat="43.00309833" lon="-1.1071">
        <ele>1055.0</ele>
        <time>2019-07-31T14:50:56.065Z</time>
      </trkpt>
      <trkpt lat="43.003105" lon="-1.10711">
        <ele>1054.0</ele>
        <time>2019-07-31T14:50:57.070Z</time>
      </trkpt>
      <trkpt lat="43.00312" lon="-1.10711">
        <ele>1053.0</ele>
        <time>2019-07-31T14:50:58.076Z</time>
      </trkpt>
      <trkpt lat="43.003135" lon="-1.10711167">
        <ele>1052.0</ele>
        <time>2019-07-31T14:50:59.081Z</time>
      </trkpt>
      <trkpt lat="43.003145" lon="-1.10711667">
        <ele>1052.0</ele>
        <time>2019-07-31T14:51:00.085Z</time>
      </trkpt>
      <trkpt lat="43.00315667" lon="-1.10712167">
        <ele>1051.0</ele>
        <time>2019-07-31T14:51:01.092Z</time>
      </trkpt>
      <trkpt lat="43.00317" lon="-1.10713333">
        <ele>1050.0</ele>
        <time>2019-07-31T14:51:02.097Z</time>
      </trkpt>
      <trkpt lat="43.00318333" lon="-1.107135">
        <ele>1049.0</ele>
        <time>2019-07-31T14:51:03.101Z</time>
      </trkpt>
      <trkpt lat="43.00319333" lon="-1.10714333">
        <ele>1048.0</ele>
        <time>2019-07-31T14:51:04.108Z</time>
      </trkpt>
      <trkpt lat="43.00320333" lon="-1.10714833">
        <ele>1046.0</ele>
        <time>2019-07-31T14:51:05.113Z</time>
      </trkpt>
      <trkpt lat="43.00321333" lon="-1.10715333">
        <ele>1045.0</ele>
        <time>2019-07-31T14:51:06.119Z</time>
      </trkpt>
      <trkpt lat="43.00321333" lon="-1.10717">
        <ele>1043.0</ele>
        <time>2019-07-31T14:51:07.123Z</time>
      </trkpt>
      <trkpt lat="43.00321" lon="-1.10718333">
        <ele>1041.0</ele>
        <time>2019-07-31T14:51:08.126Z</time>
      </trkpt>
      <trkpt lat="43.00321167" lon="-1.1072">
        <ele>1039.0</ele>
        <time>2019-07-31T14:51:09.129Z</time>
      </trkpt>
      <trkpt lat="43.003215" lon="-1.107215">
        <ele>1038.0</ele>
        <time>2019-07-31T14:51:10.133Z</time>
      </trkpt>
      <trkpt lat="43.00321833" lon="-1.107235">
        <ele>1038.0</ele>
        <time>2019-07-31T14:51:11.138Z</time>
      </trkpt>
      <trkpt lat="43.00322667" lon="-1.10724833">
        <ele>1038.0</ele>
        <time>2019-07-31T14:51:12.145Z</time>
      </trkpt>
      <trkpt lat="43.00323167" lon="-1.10725167">
        <ele>1038.0</ele>
        <time>2019-07-31T14:51:13.151Z</time>
      </trkpt>
      <trkpt lat="43.00323833" lon="-1.10725667">
        <ele>1037.0</ele>
        <time>2019-07-31T14:51:14.158Z</time>
      </trkpt>
      <trkpt lat="43.00324667" lon="-1.10726">
        <ele>1037.0</ele>
        <time>2019-07-31T14:51:15.162Z</time>
      </trkpt>
      <trkpt lat="43.00325333" lon="-1.10726833">
        <ele>1037.0</ele>
        <time>2019-07-31T14:51:16.166Z</time>
      </trkpt>
      <trkpt lat="43.00326" lon="-1.10726833">
        <ele>1037.0</ele>
        <time>2019-07-31T14:51:17.170Z</time>
      </trkpt>
      <trkpt lat="43.00327" lon="-1.10726833">
        <ele>1037.0</ele>
        <time>2019-07-31T14:51:18.175Z</time>
      </trkpt>
      <trkpt lat="43.00328167" lon="-1.10726333">
        <ele>1036.0</ele>
        <time>2019-07-31T14:51:19.178Z</time>
      </trkpt>
      <trkpt lat="43.00328833" lon="-1.10727">
        <ele>1035.0</ele>
        <time>2019-07-31T14:51:20.183Z</time>
      </trkpt>
      <trkpt lat="43.00329667" lon="-1.10726333">
        <ele>1035.0</ele>
        <time>2019-07-31T14:51:21.061Z</time>
      </trkpt>
      <trkpt lat="43.00330333" lon="-1.10726333">
        <ele>1035.0</ele>
        <time>2019-07-31T14:51:22.067Z</time>
      </trkpt>
      <trkpt lat="43.003315" lon="-1.10726833">
        <ele>1033.0</ele>
        <time>2019-07-31T14:51:23.074Z</time>
      </trkpt>
      <trkpt lat="43.003325" lon="-1.107285">
        <ele>1031.0</ele>
        <time>2019-07-31T14:51:24.080Z</time>
      </trkpt>
      <trkpt lat="43.00333333" lon="-1.10729667">
        <ele>1031.0</ele>
        <time>2019-07-31T14:51:25.085Z</time>
      </trkpt>
      <trkpt lat="43.00334" lon="-1.10729833">
        <ele>1031.0</ele>
        <time>2019-07-31T14:51:26.090Z</time>
      </trkpt>
      <trkpt lat="43.003355" lon="-1.10729667">
        <ele>1032.0</ele>
        <time>2019-07-31T14:51:27.096Z</time>
      </trkpt>
      <trkpt lat="43.00336833" lon="-1.10728333">
        <ele>1033.0</ele>
        <time>2019-07-31T14:51:28.100Z</time>
      </trkpt>
      <trkpt lat="43.00338167" lon="-1.10728167">
        <ele>1033.0</ele>
        <time>2019-07-31T14:51:29.103Z</time>
      </trkpt>
      <trkpt lat="43.003395" lon="-1.10728167">
        <ele>1032.0</ele>
        <time>2019-07-31T14:51:30.107Z</time>
      </trkpt>
      <trkpt lat="43.00340833" lon="-1.10728167">
        <ele>1031.0</ele>
        <time>2019-07-31T14:51:31.112Z</time>
      </trkpt>
      <trkpt lat="43.00341667" lon="-1.10729">
        <ele>1030.0</ele>
        <time>2019-07-31T14:51:32.118Z</time>
      </trkpt>
      <trkpt lat="43.003425" lon="-1.107285">
        <ele>1030.0</ele>
        <time>2019-07-31T14:51:33.123Z</time>
      </trkpt>
      <trkpt lat="43.003435" lon="-1.10728667">
        <ele>1030.0</ele>
        <time>2019-07-31T14:51:34.125Z</time>
      </trkpt>
      <trkpt lat="43.00344333" lon="-1.10728167">
        <ele>1030.0</ele>
        <time>2019-07-31T14:51:35.129Z</time>
      </trkpt>
      <trkpt lat="43.00345833" lon="-1.10728">
        <ele>1030.0</ele>
        <time>2019-07-31T14:51:36.134Z</time>
      </trkpt>
      <trkpt lat="43.00347167" lon="-1.10728">
        <ele>1031.0</ele>
        <time>2019-07-31T14:51:37.138Z</time>
      </trkpt>
      <trkpt lat="43.003485" lon="-1.10728833">
        <ele>1031.0</ele>
        <time>2019-07-31T14:51:38.142Z</time>
      </trkpt>
      <trkpt lat="43.003495" lon="-1.10729167">
        <ele>1030.0</ele>
        <time>2019-07-31T14:51:39.148Z</time>
      </trkpt>
      <trkpt lat="43.00349833" lon="-1.10728667">
        <ele>1029.0</ele>
        <time>2019-07-31T14:51:40.154Z</time>
      </trkpt>
      <trkpt lat="43.003505" lon="-1.10729833">
        <ele>1028.0</ele>
        <time>2019-07-31T14:51:41.160Z</time>
      </trkpt>
      <trkpt lat="43.00351667" lon="-1.10730167">
        <ele>1027.0</ele>
        <time>2019-07-31T14:51:42.167Z</time>
      </trkpt>
      <trkpt lat="43.003535" lon="-1.1073">
        <ele>1027.0</ele>
        <time>2019-07-31T14:51:43.175Z</time>
      </trkpt>
      <trkpt lat="43.00354333" lon="-1.107295">
        <ele>1027.0</ele>
        <time>2019-07-31T14:51:44.182Z</time>
      </trkpt>
      <trkpt lat="43.00356" lon="-1.107285">
        <ele>1028.0</ele>
        <time>2019-07-31T14:51:45.064Z</time>
      </trkpt>
      <trkpt lat="43.00357833" lon="-1.107275">
        <ele>1028.0</ele>
        <time>2019-07-31T14:51:46.069Z</time>
      </trkpt>
      <trkpt lat="43.00358667" lon="-1.10727167">
        <ele>1028.0</ele>
        <time>2019-07-31T14:51:47.076Z</time>
      </trkpt>
      <trkpt lat="43.0036" lon="-1.10726333">
        <ele>1028.0</ele>
        <time>2019-07-31T14:51:48.081Z</time>
      </trkpt>
      <trkpt lat="43.003615" lon="-1.10726667">
        <ele>1027.0</ele>
        <time>2019-07-31T14:51:49.087Z</time>
      </trkpt>
      <trkpt lat="43.003625" lon="-1.10727833">
        <ele>1027.0</ele>
        <time>2019-07-31T14:51:50.091Z</time>
      </trkpt>
      <trkpt lat="43.00362833" lon="-1.10729167">
        <ele>1027.0</ele>
        <time>2019-07-31T14:51:51.095Z</time>
      </trkpt>
      <trkpt lat="43.00363" lon="-1.10731">
        <ele>1026.0</ele>
        <time>2019-07-31T14:51:52.100Z</time>
      </trkpt>
      <trkpt lat="43.00363167" lon="-1.10733">
        <ele>1026.0</ele>
        <time>2019-07-31T14:51:53.106Z</time>
      </trkpt>
      <trkpt lat="43.00363" lon="-1.10735667">
        <ele>1026.0</ele>
        <time>2019-07-31T14:51:54.110Z</time>
      </trkpt>
      <trkpt lat="43.00364333" lon="-1.10736">
        <ele>1026.0</ele>
        <time>2019-07-31T14:51:55.117Z</time>
      </trkpt>
      <trkpt lat="43.00365667" lon="-1.107355">
        <ele>1027.0</ele>
        <time>2019-07-31T14:51:56.123Z</time>
      </trkpt>
      <trkpt lat="43.00366667" lon="-1.10736167">
        <ele>1028.0</ele>
        <time>2019-07-31T14:51:57.123Z</time>
      </trkpt>
      <trkpt lat="43.00367667" lon="-1.10736333">
        <ele>1028.0</ele>
        <time>2019-07-31T14:51:58.125Z</time>
      </trkpt>
      <trkpt lat="43.00368333" lon="-1.10737">
        <ele>1028.0</ele>
        <time>2019-07-31T14:51:59.128Z</time>
      </trkpt>
      <trkpt lat="43.00368833" lon="-1.10737333">
        <ele>1028.0</ele>
        <time>2019-07-31T14:52:00.132Z</time>
      </trkpt>
      <trkpt lat="43.003695" lon="-1.10738167">
        <ele>1028.0</ele>
        <time>2019-07-31T14:52:01.134Z</time>
      </trkpt>
      <trkpt lat="43.00370333" lon="-1.10739167">
        <ele>1028.0</ele>
        <time>2019-07-31T14:52:02.139Z</time>
      </trkpt>
      <trkpt lat="43.00371" lon="-1.10739833">
        <ele>1027.0</ele>
        <time>2019-07-31T14:52:03.145Z</time>
      </trkpt>
      <trkpt lat="43.00371833" lon="-1.10740833">
        <ele>1027.0</ele>
        <time>2019-07-31T14:52:04.151Z</time>
      </trkpt>
      <trkpt lat="43.003725" lon="-1.10741833">
        <ele>1027.0</ele>
        <time>2019-07-31T14:52:05.158Z</time>
      </trkpt>
      <trkpt lat="43.00373167" lon="-1.10743667">
        <ele>1027.0</ele>
        <time>2019-07-31T14:52:06.165Z</time>
      </trkpt>
      <trkpt lat="43.00374" lon="-1.10745">
        <ele>1027.0</ele>
        <time>2019-07-31T14:52:07.171Z</time>
      </trkpt>
      <trkpt lat="43.00374333" lon="-1.10746333">
        <ele>1028.0</ele>
        <time>2019-07-31T14:52:08.176Z</time>
      </trkpt>
      <trkpt lat="43.00374833" lon="-1.10747167">
        <ele>1028.0</ele>
        <time>2019-07-31T14:52:09.181Z</time>
      </trkpt>
      <trkpt lat="43.003755" lon="-1.10748333">
        <ele>1028.0</ele>
        <time>2019-07-31T14:52:10.185Z</time>
      </trkpt>
      <trkpt lat="43.00376667" lon="-1.10749">
        <ele>1028.0</ele>
        <time>2019-07-31T14:52:11.066Z</time>
      </trkpt>
      <trkpt lat="43.00377667" lon="-1.10749833">
        <ele>1028.0</ele>
        <time>2019-07-31T14:52:12.072Z</time>
      </trkpt>
      <trkpt lat="43.00378333" lon="-1.10751">
        <ele>1029.0</ele>
        <time>2019-07-31T14:52:13.078Z</time>
      </trkpt>
      <trkpt lat="43.00379667" lon="-1.10751833">
        <ele>1029.0</ele>
        <time>2019-07-31T14:52:14.084Z</time>
      </trkpt>
      <trkpt lat="43.00380167" lon="-1.10752667">
        <ele>1029.0</ele>
        <time>2019-07-31T14:52:15.090Z</time>
      </trkpt>
      <trkpt lat="43.00381" lon="-1.107535">
        <ele>1029.0</ele>
        <time>2019-07-31T14:52:16.096Z</time>
      </trkpt>
      <trkpt lat="43.00381667" lon="-1.107545">
        <ele>1029.0</ele>
        <time>2019-07-31T14:52:17.100Z</time>
      </trkpt>
      <trkpt lat="43.00381667" lon="-1.107555">
        <ele>1030.0</ele>
        <time>2019-07-31T14:52:18.105Z</time>
      </trkpt>
      <trkpt lat="43.00381833" lon="-1.10756333">
        <ele>1030.0</ele>
        <time>2019-07-31T14:52:19.109Z</time>
      </trkpt>
      <trkpt lat="43.00382" lon="-1.10757">
        <ele>1030.0</ele>
        <time>2019-07-31T14:52:20.114Z</time>
      </trkpt>
      <trkpt lat="43.00382167" lon="-1.107585">
        <ele>1030.0</ele>
        <time>2019-07-31T14:52:21.120Z</time>
      </trkpt>
      <trkpt lat="43.00382667" lon="-1.1076">
        <ele>1030.0</ele>
        <time>2019-07-31T14:52:22.124Z</time>
      </trkpt>
      <trkpt lat="43.00383167" lon="-1.10761167">
        <ele>1031.0</ele>
        <time>2019-07-31T14:52:23.128Z</time>
      </trkpt>
      <trkpt lat="43.00383667" lon="-1.10762333">
        <ele>1031.0</ele>
        <time>2019-07-31T14:52:24.132Z</time>
      </trkpt>
      <trkpt lat="43.003845" lon="-1.10764167">
        <ele>1031.0</ele>
        <time>2019-07-31T14:52:25.136Z</time>
      </trkpt>
      <trkpt lat="43.00385167" lon="-1.10766">
        <ele>1031.0</ele>
        <time>2019-07-31T14:52:26.143Z</time>
      </trkpt>
      <trkpt lat="43.00385333" lon="-1.107665">
        <ele>1032.0</ele>
        <time>2019-07-31T14:52:27.149Z</time>
      </trkpt>
      <trkpt lat="43.003855" lon="-1.10767333">
        <ele>1032.0</ele>
        <time>2019-07-31T14:52:28.153Z</time>
      </trkpt>
      <trkpt lat="43.00385333" lon="-1.10767667">
        <ele>1033.0</ele>
        <time>2019-07-31T14:52:29.159Z</time>
      </trkpt>
      <trkpt lat="43.003855" lon="-1.10767167">
        <ele>1034.0</ele>
        <time>2019-07-31T14:52:30.162Z</time>
      </trkpt>
      <trkpt lat="43.00385333" lon="-1.10766833">
        <ele>1035.0</ele>
        <time>2019-07-31T14:52:31.167Z</time>
      </trkpt>
      <trkpt lat="43.003855" lon="-1.10767">
        <ele>1036.0</ele>
        <time>2019-07-31T14:52:32.172Z</time>
      </trkpt>
      <trkpt lat="43.00385333" lon="-1.10766667">
        <ele>1036.0</ele>
        <time>2019-07-31T14:52:33.177Z</time>
      </trkpt>
      <trkpt lat="43.00385667" lon="-1.10766">
        <ele>1036.0</ele>
        <time>2019-07-31T14:52:34.179Z</time>
      </trkpt>
      <trkpt lat="43.00385833" lon="-1.10764833">
        <ele>1035.0</ele>
        <time>2019-07-31T14:52:35.183Z</time>
      </trkpt>
      <trkpt lat="43.00385667" lon="-1.10763833">
        <ele>1035.0</ele>
        <time>2019-07-31T14:52:36.064Z</time>
      </trkpt>
      <trkpt lat="43.00385667" lon="-1.10762833">
        <ele>1036.0</ele>
        <time>2019-07-31T14:52:37.070Z</time>
      </trkpt>
      <trkpt lat="43.003855" lon="-1.10761667">
        <ele>1037.0</ele>
        <time>2019-07-31T14:52:38.076Z</time>
      </trkpt>
      <trkpt lat="43.00385167" lon="-1.10760333">
        <ele>1038.0</ele>
        <time>2019-07-31T14:52:39.084Z</time>
      </trkpt>
      <trkpt lat="43.00384833" lon="-1.10759333">
        <ele>1038.0</ele>
        <time>2019-07-31T14:52:40.091Z</time>
      </trkpt>
      <trkpt lat="43.00384333" lon="-1.107585">
        <ele>1038.0</ele>
        <time>2019-07-31T14:52:41.096Z</time>
      </trkpt>
      <trkpt lat="43.00383667" lon="-1.10756833">
        <ele>1038.0</ele>
        <time>2019-07-31T14:52:42.101Z</time>
      </trkpt>
      <trkpt lat="43.00383333" lon="-1.10756">
        <ele>1038.0</ele>
        <time>2019-07-31T14:52:43.106Z</time>
      </trkpt>
      <trkpt lat="43.00382667" lon="-1.10754333">
        <ele>1037.0</ele>
        <time>2019-07-31T14:52:44.112Z</time>
      </trkpt>
      <trkpt lat="43.00382" lon="-1.107545">
        <ele>1037.0</ele>
        <time>2019-07-31T14:52:45.119Z</time>
      </trkpt>
      <trkpt lat="43.00381667" lon="-1.107545">
        <ele>1036.0</ele>
        <time>2019-07-31T14:52:46.124Z</time>
      </trkpt>
      <trkpt lat="43.00380833" lon="-1.10753833">
        <ele>1037.0</ele>
        <time>2019-07-31T14:52:47.129Z</time>
      </trkpt>
      <trkpt lat="43.00380333" lon="-1.10752833">
        <ele>1037.0</ele>
        <time>2019-07-31T14:52:48.134Z</time>
      </trkpt>
      <trkpt lat="43.00378833" lon="-1.107525">
        <ele>1037.0</ele>
        <time>2019-07-31T14:52:49.141Z</time>
      </trkpt>
      <trkpt lat="43.00377833" lon="-1.10752333">
        <ele>1036.0</ele>
        <time>2019-07-31T14:52:50.148Z</time>
      </trkpt>
      <trkpt lat="43.00377333" lon="-1.107515">
        <ele>1035.0</ele>
        <time>2019-07-31T14:52:51.151Z</time>
      </trkpt>
      <trkpt lat="43.00377" lon="-1.10750667">
        <ele>1035.0</ele>
        <time>2019-07-31T14:52:52.156Z</time>
      </trkpt>
      <trkpt lat="43.00376667" lon="-1.10750833">
        <ele>1034.0</ele>
        <time>2019-07-31T14:52:53.162Z</time>
      </trkpt>
      <trkpt lat="43.00375333" lon="-1.10751333">
        <ele>1033.0</ele>
        <time>2019-07-31T14:52:54.169Z</time>
      </trkpt>
      <trkpt lat="43.003745" lon="-1.10751667">
        <ele>1032.0</ele>
        <time>2019-07-31T14:52:55.175Z</time>
      </trkpt>
      <trkpt lat="43.00374" lon="-1.10751833">
        <ele>1031.0</ele>
        <time>2019-07-31T14:52:56.182Z</time>
      </trkpt>
      <trkpt lat="43.00373333" lon="-1.10752167">
        <ele>1030.0</ele>
        <time>2019-07-31T14:52:57.061Z</time>
      </trkpt>
      <trkpt lat="43.00372667" lon="-1.10753">
        <ele>1029.0</ele>
        <time>2019-07-31T14:52:58.067Z</time>
      </trkpt>
      <trkpt lat="43.00372167" lon="-1.10754">
        <ele>1029.0</ele>
        <time>2019-07-31T14:52:59.072Z</time>
      </trkpt>
      <trkpt lat="43.003715" lon="-1.10754">
        <ele>1029.0</ele>
        <time>2019-07-31T14:53:00.078Z</time>
      </trkpt>
      <trkpt lat="43.00370667" lon="-1.10754667">
        <ele>1029.0</ele>
        <time>2019-07-31T14:53:01.084Z</time>
      </trkpt>
      <trkpt lat="43.003695" lon="-1.10754667">
        <ele>1029.0</ele>
        <time>2019-07-31T14:53:02.087Z</time>
      </trkpt>
      <trkpt lat="43.00368" lon="-1.10755167">
        <ele>1029.0</ele>
        <time>2019-07-31T14:53:03.092Z</time>
      </trkpt>
      <trkpt lat="43.00367333" lon="-1.10756">
        <ele>1029.0</ele>
        <time>2019-07-31T14:53:04.097Z</time>
      </trkpt>
      <trkpt lat="43.00365833" lon="-1.10756167">
        <ele>1029.0</ele>
        <time>2019-07-31T14:53:05.103Z</time>
      </trkpt>
      <trkpt lat="43.00364833" lon="-1.10756">
        <ele>1029.0</ele>
        <time>2019-07-31T14:53:06.109Z</time>
      </trkpt>
      <trkpt lat="43.003635" lon="-1.107565">
        <ele>1030.0</ele>
        <time>2019-07-31T14:53:07.114Z</time>
      </trkpt>
      <trkpt lat="43.003625" lon="-1.10757833">
        <ele>1030.0</ele>
        <time>2019-07-31T14:53:08.118Z</time>
      </trkpt>
      <trkpt lat="43.003615" lon="-1.10758833">
        <ele>1030.0</ele>
        <time>2019-07-31T14:53:09.124Z</time>
      </trkpt>
      <trkpt lat="43.00360333" lon="-1.10759833">
        <ele>1031.0</ele>
        <time>2019-07-31T14:53:10.128Z</time>
      </trkpt>
      <trkpt lat="43.003595" lon="-1.10761167">
        <ele>1032.0</ele>
        <time>2019-07-31T14:53:11.134Z</time>
      </trkpt>
      <trkpt lat="43.00358833" lon="-1.10763">
        <ele>1032.0</ele>
        <time>2019-07-31T14:53:12.139Z</time>
      </trkpt>
      <trkpt lat="43.00358167" lon="-1.10764833">
        <ele>1032.0</ele>
        <time>2019-07-31T14:53:13.145Z</time>
      </trkpt>
      <trkpt lat="43.00357333" lon="-1.10766">
        <ele>1033.0</ele>
        <time>2019-07-31T14:53:14.148Z</time>
      </trkpt>
      <trkpt lat="43.00356" lon="-1.10767833">
        <ele>1033.0</ele>
        <time>2019-07-31T14:53:15.153Z</time>
      </trkpt>
      <trkpt lat="43.00355" lon="-1.107695">
        <ele>1033.0</ele>
        <time>2019-07-31T14:53:16.159Z</time>
      </trkpt>
      <trkpt lat="43.00354167" lon="-1.107715">
        <ele>1034.0</ele>
        <time>2019-07-31T14:53:17.165Z</time>
      </trkpt>
      <trkpt lat="43.00353667" lon="-1.10773833">
        <ele>1034.0</ele>
        <time>2019-07-31T14:53:18.172Z</time>
      </trkpt>
      <trkpt lat="43.00352833" lon="-1.10776333">
        <ele>1034.0</ele>
        <time>2019-07-31T14:53:19.177Z</time>
      </trkpt>
      <trkpt lat="43.00352333" lon="-1.10777667">
        <ele>1033.0</ele>
        <time>2019-07-31T14:53:20.183Z</time>
      </trkpt>
      <trkpt lat="43.00352167" lon="-1.10779667">
        <ele>1033.0</ele>
        <time>2019-07-31T14:53:21.062Z</time>
      </trkpt>
      <trkpt lat="43.00351667" lon="-1.10782333">
        <ele>1033.0</ele>
        <time>2019-07-31T14:53:22.066Z</time>
      </trkpt>
      <trkpt lat="43.00351333" lon="-1.10784667">
        <ele>1032.0</ele>
        <time>2019-07-31T14:53:23.070Z</time>
      </trkpt>
      <trkpt lat="43.00351" lon="-1.107885">
        <ele>1033.0</ele>
        <time>2019-07-31T14:53:24.077Z</time>
      </trkpt>
      <trkpt lat="43.00349667" lon="-1.10790667">
        <ele>1034.0</ele>
        <time>2019-07-31T14:53:25.080Z</time>
      </trkpt>
      <trkpt lat="43.00348667" lon="-1.10792167">
        <ele>1035.0</ele>
        <time>2019-07-31T14:53:26.086Z</time>
      </trkpt>
      <trkpt lat="43.00348833" lon="-1.10794167">
        <ele>1036.0</ele>
        <time>2019-07-31T14:53:27.089Z</time>
      </trkpt>
      <trkpt lat="43.003485" lon="-1.107965">
        <ele>1037.0</ele>
        <time>2019-07-31T14:53:28.093Z</time>
      </trkpt>
      <trkpt lat="43.003485" lon="-1.10799667">
        <ele>1036.0</ele>
        <time>2019-07-31T14:53:29.095Z</time>
      </trkpt>
      <trkpt lat="43.00349" lon="-1.10802833">
        <ele>1036.0</ele>
        <time>2019-07-31T14:53:30.101Z</time>
      </trkpt>
      <trkpt lat="43.00349167" lon="-1.10806333">
        <ele>1036.0</ele>
        <time>2019-07-31T14:53:31.105Z</time>
      </trkpt>
      <trkpt lat="43.003495" lon="-1.10807833">
        <ele>1038.0</ele>
        <time>2019-07-31T14:53:32.110Z</time>
      </trkpt>
      <trkpt lat="43.003505" lon="-1.1081">
        <ele>1038.0</ele>
        <time>2019-07-31T14:53:33.116Z</time>
      </trkpt>
      <trkpt lat="43.00350667" lon="-1.10811333">
        <ele>1039.0</ele>
        <time>2019-07-31T14:53:34.120Z</time>
      </trkpt>
      <trkpt lat="43.00350833" lon="-1.10812667">
        <ele>1039.0</ele>
        <time>2019-07-31T14:53:35.125Z</time>
      </trkpt>
      <trkpt lat="43.00350833" lon="-1.10812833">
        <ele>1040.0</ele>
        <time>2019-07-31T14:53:36.131Z</time>
      </trkpt>
      <trkpt lat="43.00350833" lon="-1.10813833">
        <ele>1039.0</ele>
        <time>2019-07-31T14:53:37.135Z</time>
      </trkpt>
      <trkpt lat="43.00351" lon="-1.10815833">
        <ele>1040.0</ele>
        <time>2019-07-31T14:53:38.143Z</time>
      </trkpt>
      <trkpt lat="43.00351167" lon="-1.10818167">
        <ele>1040.0</ele>
        <time>2019-07-31T14:53:39.148Z</time>
      </trkpt>
      <trkpt lat="43.00351333" lon="-1.10820333">
        <ele>1040.0</ele>
        <time>2019-07-31T14:53:40.152Z</time>
      </trkpt>
      <trkpt lat="43.00352" lon="-1.10822167">
        <ele>1041.0</ele>
        <time>2019-07-31T14:53:41.159Z</time>
      </trkpt>
      <trkpt lat="43.003525" lon="-1.10823">
        <ele>1042.0</ele>
        <time>2019-07-31T14:53:42.160Z</time>
      </trkpt>
      <trkpt lat="43.00352333" lon="-1.10824833">
        <ele>1043.0</ele>
        <time>2019-07-31T14:53:43.164Z</time>
      </trkpt>
      <trkpt lat="43.00352667" lon="-1.10827333">
        <ele>1044.0</ele>
        <time>2019-07-31T14:53:44.170Z</time>
      </trkpt>
      <trkpt lat="43.00352667" lon="-1.10829167">
        <ele>1045.0</ele>
        <time>2019-07-31T14:53:45.175Z</time>
      </trkpt>
      <trkpt lat="43.00353" lon="-1.10830167">
        <ele>1046.0</ele>
        <time>2019-07-31T14:53:46.177Z</time>
      </trkpt>
      <trkpt lat="43.003535" lon="-1.10832">
        <ele>1048.0</ele>
        <time>2019-07-31T14:53:47.183Z</time>
      </trkpt>
      <trkpt lat="43.00353667" lon="-1.10833333">
        <ele>1048.0</ele>
        <time>2019-07-31T14:53:48.063Z</time>
      </trkpt>
      <trkpt lat="43.00353667" lon="-1.10834167">
        <ele>1048.0</ele>
        <time>2019-07-31T14:53:49.068Z</time>
      </trkpt>
      <trkpt lat="43.00353333" lon="-1.10834667">
        <ele>1049.0</ele>
        <time>2019-07-31T14:53:50.072Z</time>
      </trkpt>
      <trkpt lat="43.00353667" lon="-1.10836167">
        <ele>1049.0</ele>
        <time>2019-07-31T14:53:51.076Z</time>
      </trkpt>
      <trkpt lat="43.003535" lon="-1.10838333">
        <ele>1050.0</ele>
        <time>2019-07-31T14:53:52.079Z</time>
      </trkpt>
      <trkpt lat="43.003535" lon="-1.10839833">
        <ele>1050.0</ele>
        <time>2019-07-31T14:53:53.085Z</time>
      </trkpt>
      <trkpt lat="43.00353667" lon="-1.10841167">
        <ele>1050.0</ele>
        <time>2019-07-31T14:53:54.087Z</time>
      </trkpt>
      <trkpt lat="43.003535" lon="-1.10842167">
        <ele>1050.0</ele>
        <time>2019-07-31T14:53:55.090Z</time>
      </trkpt>
      <trkpt lat="43.003535" lon="-1.108435">
        <ele>1050.0</ele>
        <time>2019-07-31T14:53:56.091Z</time>
      </trkpt>
      <trkpt lat="43.00353333" lon="-1.10844667">
        <ele>1050.0</ele>
        <time>2019-07-31T14:53:57.093Z</time>
      </trkpt>
      <trkpt lat="43.00352833" lon="-1.10845833">
        <ele>1050.0</ele>
        <time>2019-07-31T14:53:58.098Z</time>
      </trkpt>
      <trkpt lat="43.00352333" lon="-1.10846667">
        <ele>1050.0</ele>
        <time>2019-07-31T14:53:59.102Z</time>
      </trkpt>
      <trkpt lat="43.00351667" lon="-1.10847833">
        <ele>1050.0</ele>
        <time>2019-07-31T14:54:00.105Z</time>
      </trkpt>
      <trkpt lat="43.00350833" lon="-1.10848667">
        <ele>1050.0</ele>
        <time>2019-07-31T14:54:01.111Z</time>
      </trkpt>
      <trkpt lat="43.00350167" lon="-1.108495">
        <ele>1050.0</ele>
        <time>2019-07-31T14:54:02.117Z</time>
      </trkpt>
      <trkpt lat="43.00349833" lon="-1.10850333">
        <ele>1049.0</ele>
        <time>2019-07-31T14:54:03.123Z</time>
      </trkpt>
      <trkpt lat="43.00350167" lon="-1.10850833">
        <ele>1049.0</ele>
        <time>2019-07-31T14:54:04.129Z</time>
      </trkpt>
      <trkpt lat="43.00350333" lon="-1.10851">
        <ele>1049.0</ele>
        <time>2019-07-31T14:54:05.133Z</time>
      </trkpt>
      <trkpt lat="43.00350167" lon="-1.108505">
        <ele>1048.0</ele>
        <time>2019-07-31T14:54:06.138Z</time>
      </trkpt>
      <trkpt lat="43.00349833" lon="-1.10849667">
        <ele>1048.0</ele>
        <time>2019-07-31T14:54:07.142Z</time>
      </trkpt>
      <trkpt lat="43.00349167" lon="-1.10849">
        <ele>1049.0</ele>
        <time>2019-07-31T14:54:08.146Z</time>
      </trkpt>
      <trkpt lat="43.00348667" lon="-1.10849167">
        <ele>1049.0</ele>
        <time>2019-07-31T14:54:09.153Z</time>
      </trkpt>
      <trkpt lat="43.00347833" lon="-1.108495">
        <ele>1050.0</ele>
        <time>2019-07-31T14:54:10.157Z</time>
      </trkpt>
      <trkpt lat="43.00346833" lon="-1.1085">
        <ele>1052.0</ele>
        <time>2019-07-31T14:54:11.165Z</time>
      </trkpt>
      <trkpt lat="43.003465" lon="-1.10850167">
        <ele>1052.0</ele>
        <time>2019-07-31T14:54:12.171Z</time>
      </trkpt>
      <trkpt lat="43.003455" lon="-1.10850167">
        <ele>1051.0</ele>
        <time>2019-07-31T14:54:13.176Z</time>
      </trkpt>
      <trkpt lat="43.003445" lon="-1.10850833">
        <ele>1049.0</ele>
        <time>2019-07-31T14:54:14.183Z</time>
      </trkpt>
      <trkpt lat="43.00343833" lon="-1.10850333">
        <ele>1049.0</ele>
        <time>2019-07-31T14:54:15.062Z</time>
      </trkpt>
      <trkpt lat="43.00343" lon="-1.108505">
        <ele>1048.0</ele>
        <time>2019-07-31T14:54:16.067Z</time>
      </trkpt>
      <trkpt lat="43.003425" lon="-1.108505">
        <ele>1048.0</ele>
        <time>2019-07-31T14:54:17.072Z</time>
      </trkpt>
      <trkpt lat="43.003415" lon="-1.10850667">
        <ele>1048.0</ele>
        <time>2019-07-31T14:54:18.080Z</time>
      </trkpt>
      <trkpt lat="43.00340833" lon="-1.108505">
        <ele>1047.0</ele>
        <time>2019-07-31T14:54:19.081Z</time>
      </trkpt>
      <trkpt lat="43.00339833" lon="-1.10850667">
        <ele>1047.0</ele>
        <time>2019-07-31T14:54:20.083Z</time>
      </trkpt>
      <trkpt lat="43.00339" lon="-1.10850833">
        <ele>1048.0</ele>
        <time>2019-07-31T14:54:21.089Z</time>
      </trkpt>
      <trkpt lat="43.00338333" lon="-1.108515">
        <ele>1048.0</ele>
        <time>2019-07-31T14:54:22.093Z</time>
      </trkpt>
      <trkpt lat="43.003375" lon="-1.10851667">
        <ele>1048.0</ele>
        <time>2019-07-31T14:54:23.098Z</time>
      </trkpt>
      <trkpt lat="43.00336667" lon="-1.10852">
        <ele>1049.0</ele>
        <time>2019-07-31T14:54:24.102Z</time>
      </trkpt>
      <trkpt lat="43.00335833" lon="-1.10852167">
        <ele>1049.0</ele>
        <time>2019-07-31T14:54:25.107Z</time>
      </trkpt>
      <trkpt lat="43.00334833" lon="-1.108525">
        <ele>1049.0</ele>
        <time>2019-07-31T14:54:26.112Z</time>
      </trkpt>
      <trkpt lat="43.00333667" lon="-1.10852833">
        <ele>1050.0</ele>
        <time>2019-07-31T14:54:27.117Z</time>
      </trkpt>
      <trkpt lat="43.00332667" lon="-1.10853333">
        <ele>1050.0</ele>
        <time>2019-07-31T14:54:28.122Z</time>
      </trkpt>
      <trkpt lat="43.00331667" lon="-1.10853667">
        <ele>1051.0</ele>
        <time>2019-07-31T14:54:29.125Z</time>
      </trkpt>
      <trkpt lat="43.00330833" lon="-1.10854">
        <ele>1050.0</ele>
        <time>2019-07-31T14:54:30.129Z</time>
      </trkpt>
      <trkpt lat="43.0033" lon="-1.10854167">
        <ele>1050.0</ele>
        <time>2019-07-31T14:54:31.134Z</time>
      </trkpt>
      <trkpt lat="43.00329" lon="-1.10854833">
        <ele>1049.0</ele>
        <time>2019-07-31T14:54:32.139Z</time>
      </trkpt>
      <trkpt lat="43.003285" lon="-1.108545">
        <ele>1049.0</ele>
        <time>2019-07-31T14:54:33.145Z</time>
      </trkpt>
      <trkpt lat="43.00327833" lon="-1.108535">
        <ele>1049.0</ele>
        <time>2019-07-31T14:54:34.151Z</time>
      </trkpt>
      <trkpt lat="43.00327167" lon="-1.10852667">
        <ele>1050.0</ele>
        <time>2019-07-31T14:54:35.157Z</time>
      </trkpt>
      <trkpt lat="43.00326333" lon="-1.10852333">
        <ele>1050.0</ele>
        <time>2019-07-31T14:54:36.163Z</time>
      </trkpt>
      <trkpt lat="43.00325333" lon="-1.10852167">
        <ele>1050.0</ele>
        <time>2019-07-31T14:54:37.169Z</time>
      </trkpt>
      <trkpt lat="43.00324167" lon="-1.10851667">
        <ele>1050.0</ele>
        <time>2019-07-31T14:54:38.174Z</time>
      </trkpt>
      <trkpt lat="43.00323167" lon="-1.10851">
        <ele>1051.0</ele>
        <time>2019-07-31T14:54:39.178Z</time>
      </trkpt>
      <trkpt lat="43.00322333" lon="-1.10849833">
        <ele>1052.0</ele>
        <time>2019-07-31T14:54:40.185Z</time>
      </trkpt>
      <trkpt lat="43.00321667" lon="-1.10848667">
        <ele>1053.0</ele>
        <time>2019-07-31T14:54:41.065Z</time>
      </trkpt>
      <trkpt lat="43.00320667" lon="-1.10848167">
        <ele>1053.0</ele>
        <time>2019-07-31T14:54:42.073Z</time>
      </trkpt>
      <trkpt lat="43.00319667" lon="-1.10848">
        <ele>1053.0</ele>
        <time>2019-07-31T14:54:43.079Z</time>
      </trkpt>
      <trkpt lat="43.00318667" lon="-1.10847833">
        <ele>1054.0</ele>
        <time>2019-07-31T14:54:44.085Z</time>
      </trkpt>
      <trkpt lat="43.00318" lon="-1.10848">
        <ele>1055.0</ele>
        <time>2019-07-31T14:54:45.090Z</time>
      </trkpt>
      <trkpt lat="43.00317333" lon="-1.10847833">
        <ele>1055.0</ele>
        <time>2019-07-31T14:54:46.094Z</time>
      </trkpt>
      <trkpt lat="43.00316333" lon="-1.108475">
        <ele>1055.0</ele>
        <time>2019-07-31T14:54:47.100Z</time>
      </trkpt>
      <trkpt lat="43.00315667" lon="-1.10846333">
        <ele>1055.0</ele>
        <time>2019-07-31T14:54:48.105Z</time>
      </trkpt>
      <trkpt lat="43.00314833" lon="-1.10845167">
        <ele>1055.0</ele>
        <time>2019-07-31T14:54:49.111Z</time>
      </trkpt>
      <trkpt lat="43.00313833" lon="-1.10844167">
        <ele>1056.0</ele>
        <time>2019-07-31T14:54:50.119Z</time>
      </trkpt>
      <trkpt lat="43.00312667" lon="-1.108435">
        <ele>1057.0</ele>
        <time>2019-07-31T14:54:51.124Z</time>
      </trkpt>
      <trkpt lat="43.00311167" lon="-1.10842333">
        <ele>1058.0</ele>
        <time>2019-07-31T14:54:52.129Z</time>
      </trkpt>
      <trkpt lat="43.00310333" lon="-1.10841667">
        <ele>1059.0</ele>
        <time>2019-07-31T14:54:53.132Z</time>
      </trkpt>
      <trkpt lat="43.00308667" lon="-1.108405">
        <ele>1060.0</ele>
        <time>2019-07-31T14:54:54.135Z</time>
      </trkpt>
      <trkpt lat="43.00307333" lon="-1.10839833">
        <ele>1061.0</ele>
        <time>2019-07-31T14:54:55.140Z</time>
      </trkpt>
      <trkpt lat="43.00305667" lon="-1.10840167">
        <ele>1061.0</ele>
        <time>2019-07-31T14:54:56.143Z</time>
      </trkpt>
      <trkpt lat="43.00304" lon="-1.10839333">
        <ele>1062.0</ele>
        <time>2019-07-31T14:54:57.149Z</time>
      </trkpt>
      <trkpt lat="43.00302833" lon="-1.10839667">
        <ele>1061.0</ele>
        <time>2019-07-31T14:54:58.154Z</time>
      </trkpt>
      <trkpt lat="43.003015" lon="-1.108395">
        <ele>1061.0</ele>
        <time>2019-07-31T14:54:59.161Z</time>
      </trkpt>
      <trkpt lat="43.003005" lon="-1.10839167">
        <ele>1060.0</ele>
        <time>2019-07-31T14:55:00.164Z</time>
      </trkpt>
      <trkpt lat="43.00298833" lon="-1.10839167">
        <ele>1058.0</ele>
        <time>2019-07-31T14:55:01.172Z</time>
      </trkpt>
      <trkpt lat="43.00298167" lon="-1.1084">
        <ele>1057.0</ele>
        <time>2019-07-31T14:55:02.178Z</time>
      </trkpt>
      <trkpt lat="43.00297333" lon="-1.10841333">
        <ele>1055.0</ele>
        <time>2019-07-31T14:55:03.184Z</time>
      </trkpt>
      <trkpt lat="43.00297" lon="-1.10842833">
        <ele>1053.0</ele>
        <time>2019-07-31T14:55:04.065Z</time>
      </trkpt>
      <trkpt lat="43.00295333" lon="-1.10843">
        <ele>1053.0</ele>
        <time>2019-07-31T14:55:05.068Z</time>
      </trkpt>
      <trkpt lat="43.00294" lon="-1.10843333">
        <ele>1053.0</ele>
        <time>2019-07-31T14:55:06.074Z</time>
      </trkpt>
      <trkpt lat="43.002925" lon="-1.108425">
        <ele>1054.0</ele>
        <time>2019-07-31T14:55:07.080Z</time>
      </trkpt>
      <trkpt lat="43.00290667" lon="-1.10841">
        <ele>1055.0</ele>
        <time>2019-07-31T14:55:08.084Z</time>
      </trkpt>
      <trkpt lat="43.002895" lon="-1.10840167">
        <ele>1054.0</ele>
        <time>2019-07-31T14:55:09.089Z</time>
      </trkpt>
      <trkpt lat="43.00288167" lon="-1.10839333">
        <ele>1052.0</ele>
        <time>2019-07-31T14:55:10.093Z</time>
      </trkpt>
      <trkpt lat="43.00287333" lon="-1.10839">
        <ele>1051.0</ele>
        <time>2019-07-31T14:55:11.099Z</time>
      </trkpt>
      <trkpt lat="43.00286333" lon="-1.10840667">
        <ele>1050.0</ele>
        <time>2019-07-31T14:55:12.105Z</time>
      </trkpt>
      <trkpt lat="43.00285333" lon="-1.10842">
        <ele>1050.0</ele>
        <time>2019-07-31T14:55:13.111Z</time>
      </trkpt>
      <trkpt lat="43.00284167" lon="-1.10843667">
        <ele>1051.0</ele>
        <time>2019-07-31T14:55:14.117Z</time>
      </trkpt>
      <trkpt lat="43.00283" lon="-1.10843667">
        <ele>1051.0</ele>
        <time>2019-07-31T14:55:15.124Z</time>
      </trkpt>
      <trkpt lat="43.002815" lon="-1.10842333">
        <ele>1053.0</ele>
        <time>2019-07-31T14:55:16.130Z</time>
      </trkpt>
      <trkpt lat="43.00280167" lon="-1.10842167">
        <ele>1053.0</ele>
        <time>2019-07-31T14:55:17.134Z</time>
      </trkpt>
      <trkpt lat="43.00279167" lon="-1.108435">
        <ele>1054.0</ele>
        <time>2019-07-31T14:55:18.140Z</time>
      </trkpt>
      <trkpt lat="43.00277667" lon="-1.10845">
        <ele>1053.0</ele>
        <time>2019-07-31T14:55:19.147Z</time>
      </trkpt>
      <trkpt lat="43.00276333" lon="-1.108465">
        <ele>1053.0</ele>
        <time>2019-07-31T14:55:20.152Z</time>
      </trkpt>
      <trkpt lat="43.00274833" lon="-1.108465">
        <ele>1053.0</ele>
        <time>2019-07-31T14:55:21.158Z</time>
      </trkpt>
      <trkpt lat="43.00273333" lon="-1.108455">
        <ele>1053.0</ele>
        <time>2019-07-31T14:55:22.163Z</time>
      </trkpt>
      <trkpt lat="43.00272" lon="-1.108455">
        <ele>1054.0</ele>
        <time>2019-07-31T14:55:23.169Z</time>
      </trkpt>
      <trkpt lat="43.002705" lon="-1.10845833">
        <ele>1054.0</ele>
        <time>2019-07-31T14:55:24.176Z</time>
      </trkpt>
      <trkpt lat="43.00269667" lon="-1.10846167">
        <ele>1054.0</ele>
        <time>2019-07-31T14:55:25.180Z</time>
      </trkpt>
      <trkpt lat="43.002685" lon="-1.10847">
        <ele>1053.0</ele>
        <time>2019-07-31T14:55:26.061Z</time>
      </trkpt>
      <trkpt lat="43.002675" lon="-1.10847">
        <ele>1053.0</ele>
        <time>2019-07-31T14:55:27.066Z</time>
      </trkpt>
      <trkpt lat="43.00266667" lon="-1.10847667">
        <ele>1053.0</ele>
        <time>2019-07-31T14:55:28.070Z</time>
      </trkpt>
      <trkpt lat="43.002655" lon="-1.10847333">
        <ele>1054.0</ele>
        <time>2019-07-31T14:55:29.077Z</time>
      </trkpt>
      <trkpt lat="43.00264" lon="-1.10846333">
        <ele>1054.0</ele>
        <time>2019-07-31T14:55:30.082Z</time>
      </trkpt>
      <trkpt lat="43.002625" lon="-1.10846167">
        <ele>1055.0</ele>
        <time>2019-07-31T14:55:31.085Z</time>
      </trkpt>
      <trkpt lat="43.002615" lon="-1.10846333">
        <ele>1056.0</ele>
        <time>2019-07-31T14:55:32.090Z</time>
      </trkpt>
      <trkpt lat="43.00260667" lon="-1.108465">
        <ele>1056.0</ele>
        <time>2019-07-31T14:55:33.095Z</time>
      </trkpt>
      <trkpt lat="43.00259167" lon="-1.10846833">
        <ele>1057.0</ele>
        <time>2019-07-31T14:55:34.102Z</time>
      </trkpt>
      <trkpt lat="43.00258" lon="-1.10846833">
        <ele>1057.0</ele>
        <time>2019-07-31T14:55:35.108Z</time>
      </trkpt>
      <trkpt lat="43.00256333" lon="-1.10846333">
        <ele>1057.0</ele>
        <time>2019-07-31T14:55:36.114Z</time>
      </trkpt>
      <trkpt lat="43.00255667" lon="-1.10847167">
        <ele>1057.0</ele>
        <time>2019-07-31T14:55:37.121Z</time>
      </trkpt>
      <trkpt lat="43.00255" lon="-1.10848833">
        <ele>1056.0</ele>
        <time>2019-07-31T14:55:38.125Z</time>
      </trkpt>
      <trkpt lat="43.00254" lon="-1.10849333">
        <ele>1056.0</ele>
        <time>2019-07-31T14:55:39.132Z</time>
      </trkpt>
      <trkpt lat="43.00253333" lon="-1.1085">
        <ele>1056.0</ele>
        <time>2019-07-31T14:55:40.137Z</time>
      </trkpt>
      <trkpt lat="43.002525" lon="-1.10850667">
        <ele>1056.0</ele>
        <time>2019-07-31T14:55:41.141Z</time>
      </trkpt>
      <trkpt lat="43.00252333" lon="-1.10850833">
        <ele>1056.0</ele>
        <time>2019-07-31T14:55:42.147Z</time>
      </trkpt>
      <trkpt lat="43.00251333" lon="-1.10849833">
        <ele>1057.0</ele>
        <time>2019-07-31T14:55:43.153Z</time>
      </trkpt>
      <trkpt lat="43.002505" lon="-1.10849167">
        <ele>1057.0</ele>
        <time>2019-07-31T14:55:44.162Z</time>
      </trkpt>
      <trkpt lat="43.002495" lon="-1.10849">
        <ele>1060.0</ele>
        <time>2019-07-31T14:55:45.166Z</time>
      </trkpt>
      <trkpt lat="43.002485" lon="-1.10848833">
        <ele>1060.0</ele>
        <time>2019-07-31T14:55:46.171Z</time>
      </trkpt>
      <trkpt lat="43.00247667" lon="-1.10848833">
        <ele>1060.0</ele>
        <time>2019-07-31T14:55:47.176Z</time>
      </trkpt>
      <trkpt lat="43.00246667" lon="-1.10849167">
        <ele>1060.0</ele>
        <time>2019-07-31T14:55:48.179Z</time>
      </trkpt>
      <trkpt lat="43.00245667" lon="-1.10849667">
        <ele>1061.0</ele>
        <time>2019-07-31T14:55:49.061Z</time>
      </trkpt>
      <trkpt lat="43.00244667" lon="-1.10850167">
        <ele>1061.0</ele>
        <time>2019-07-31T14:55:50.068Z</time>
      </trkpt>
      <trkpt lat="43.00244167" lon="-1.10850333">
        <ele>1061.0</ele>
        <time>2019-07-31T14:55:51.071Z</time>
      </trkpt>
      <trkpt lat="43.00243167" lon="-1.108505">
        <ele>1061.0</ele>
        <time>2019-07-31T14:55:52.076Z</time>
      </trkpt>
      <trkpt lat="43.00242167" lon="-1.108505">
        <ele>1061.0</ele>
        <time>2019-07-31T14:55:53.081Z</time>
      </trkpt>
      <trkpt lat="43.00241" lon="-1.108505">
        <ele>1062.0</ele>
        <time>2019-07-31T14:55:54.087Z</time>
      </trkpt>
      <trkpt lat="43.00240333" lon="-1.108505">
        <ele>1062.0</ele>
        <time>2019-07-31T14:55:55.092Z</time>
      </trkpt>
      <trkpt lat="43.002395" lon="-1.10850333">
        <ele>1063.0</ele>
        <time>2019-07-31T14:55:56.097Z</time>
      </trkpt>
      <trkpt lat="43.00238167" lon="-1.10850333">
        <ele>1063.0</ele>
        <time>2019-07-31T14:55:57.104Z</time>
      </trkpt>
      <trkpt lat="43.00236833" lon="-1.10850667">
        <ele>1064.0</ele>
        <time>2019-07-31T14:55:58.109Z</time>
      </trkpt>
      <trkpt lat="43.00235833" lon="-1.10851167">
        <ele>1064.0</ele>
        <time>2019-07-31T14:55:59.114Z</time>
      </trkpt>
      <trkpt lat="43.002345" lon="-1.10852">
        <ele>1063.0</ele>
        <time>2019-07-31T14:56:00.121Z</time>
      </trkpt>
      <trkpt lat="43.00233167" lon="-1.10852833">
        <ele>1063.0</ele>
        <time>2019-07-31T14:56:01.127Z</time>
      </trkpt>
      <trkpt lat="43.00231833" lon="-1.10853333">
        <ele>1062.0</ele>
        <time>2019-07-31T14:56:02.132Z</time>
      </trkpt>
      <trkpt lat="43.00230667" lon="-1.108535">
        <ele>1062.0</ele>
        <time>2019-07-31T14:56:03.136Z</time>
      </trkpt>
      <trkpt lat="43.002295" lon="-1.10854">
        <ele>1062.0</ele>
        <time>2019-07-31T14:56:04.141Z</time>
      </trkpt>
      <trkpt lat="43.002285" lon="-1.10854667">
        <ele>1063.0</ele>
        <time>2019-07-31T14:56:05.145Z</time>
      </trkpt>
      <trkpt lat="43.00227667" lon="-1.108545">
        <ele>1063.0</ele>
        <time>2019-07-31T14:56:06.151Z</time>
      </trkpt>
      <trkpt lat="43.00226667" lon="-1.10854667">
        <ele>1063.0</ele>
        <time>2019-07-31T14:56:07.159Z</time>
      </trkpt>
      <trkpt lat="43.00225333" lon="-1.10855333">
        <ele>1063.0</ele>
        <time>2019-07-31T14:56:08.165Z</time>
      </trkpt>
      <trkpt lat="43.00224" lon="-1.10855">
        <ele>1063.0</ele>
        <time>2019-07-31T14:56:09.171Z</time>
      </trkpt>
      <trkpt lat="43.00222667" lon="-1.10855833">
        <ele>1064.0</ele>
        <time>2019-07-31T14:56:10.176Z</time>
      </trkpt>
      <trkpt lat="43.00221833" lon="-1.10857167">
        <ele>1064.0</ele>
        <time>2019-07-31T14:56:11.181Z</time>
      </trkpt>
      <trkpt lat="43.00220667" lon="-1.10858667">
        <ele>1064.0</ele>
        <time>2019-07-31T14:56:12.185Z</time>
      </trkpt>
      <trkpt lat="43.0022" lon="-1.10861167">
        <ele>1064.0</ele>
        <time>2019-07-31T14:56:13.065Z</time>
      </trkpt>
      <trkpt lat="43.00220167" lon="-1.10864333">
        <ele>1064.0</ele>
        <time>2019-07-31T14:56:14.071Z</time>
      </trkpt>
      <trkpt lat="43.0022" lon="-1.10867">
        <ele>1065.0</ele>
        <time>2019-07-31T14:56:15.078Z</time>
      </trkpt>
      <trkpt lat="43.002205" lon="-1.10870333">
        <ele>1066.0</ele>
        <time>2019-07-31T14:56:16.084Z</time>
      </trkpt>
      <trkpt lat="43.00220667" lon="-1.10872333">
        <ele>1066.0</ele>
        <time>2019-07-31T14:56:17.090Z</time>
      </trkpt>
      <trkpt lat="43.00220833" lon="-1.108745">
        <ele>1066.0</ele>
        <time>2019-07-31T14:56:18.096Z</time>
      </trkpt>
      <trkpt lat="43.00221167" lon="-1.10875667">
        <ele>1068.0</ele>
        <time>2019-07-31T14:56:19.101Z</time>
      </trkpt>
      <trkpt lat="43.00221833" lon="-1.108785">
        <ele>1068.0</ele>
        <time>2019-07-31T14:56:20.106Z</time>
      </trkpt>
      <trkpt lat="43.00222833" lon="-1.10882">
        <ele>1070.0</ele>
        <time>2019-07-31T14:56:21.113Z</time>
      </trkpt>
      <trkpt lat="43.00223833" lon="-1.10885167">
        <ele>1070.0</ele>
        <time>2019-07-31T14:56:22.119Z</time>
      </trkpt>
      <trkpt lat="43.002245" lon="-1.10887667">
        <ele>1072.0</ele>
        <time>2019-07-31T14:56:23.125Z</time>
      </trkpt>
      <trkpt lat="43.00224" lon="-1.10889167">
        <ele>1072.0</ele>
        <time>2019-07-31T14:56:24.132Z</time>
      </trkpt>
      <trkpt lat="43.00224833" lon="-1.10891333">
        <ele>1072.0</ele>
        <time>2019-07-31T14:56:25.137Z</time>
      </trkpt>
      <trkpt lat="43.00226333" lon="-1.10894333">
        <ele>1071.0</ele>
        <time>2019-07-31T14:56:26.144Z</time>
      </trkpt>
      <trkpt lat="43.00227333" lon="-1.10895667">
        <ele>1072.0</ele>
        <time>2019-07-31T14:56:27.149Z</time>
      </trkpt>
      <trkpt lat="43.00227833" lon="-1.108975">
        <ele>1072.0</ele>
        <time>2019-07-31T14:56:28.155Z</time>
      </trkpt>
      <trkpt lat="43.00228" lon="-1.10897833">
        <ele>1073.0</ele>
        <time>2019-07-31T14:56:29.161Z</time>
      </trkpt>
      <trkpt lat="43.00229" lon="-1.10898333">
        <ele>1073.0</ele>
        <time>2019-07-31T14:56:30.165Z</time>
      </trkpt>
      <trkpt lat="43.00229667" lon="-1.10898667">
        <ele>1074.0</ele>
        <time>2019-07-31T14:56:31.172Z</time>
      </trkpt>
      <trkpt lat="43.002305" lon="-1.10900333">
        <ele>1074.0</ele>
        <time>2019-07-31T14:56:32.177Z</time>
      </trkpt>
      <trkpt lat="43.00231167" lon="-1.10901333">
        <ele>1075.0</ele>
        <time>2019-07-31T14:56:33.183Z</time>
      </trkpt>
      <trkpt lat="43.00232" lon="-1.10902167">
        <ele>1076.0</ele>
        <time>2019-07-31T14:56:34.062Z</time>
      </trkpt>
      <trkpt lat="43.00233" lon="-1.10903167">
        <ele>1076.0</ele>
        <time>2019-07-31T14:56:35.068Z</time>
      </trkpt>
      <trkpt lat="43.00234" lon="-1.10904167">
        <ele>1076.0</ele>
        <time>2019-07-31T14:56:36.071Z</time>
      </trkpt>
      <trkpt lat="43.00234667" lon="-1.10904833">
        <ele>1076.0</ele>
        <time>2019-07-31T14:56:37.078Z</time>
      </trkpt>
      <trkpt lat="43.00235333" lon="-1.10905667">
        <ele>1076.0</ele>
        <time>2019-07-31T14:56:38.083Z</time>
      </trkpt>
      <trkpt lat="43.00235667" lon="-1.109065">
        <ele>1076.0</ele>
        <time>2019-07-31T14:56:39.090Z</time>
      </trkpt>
      <trkpt lat="43.00236333" lon="-1.10907667">
        <ele>1076.0</ele>
        <time>2019-07-31T14:56:40.096Z</time>
      </trkpt>
      <trkpt lat="43.00237167" lon="-1.10909">
        <ele>1077.0</ele>
        <time>2019-07-31T14:56:41.101Z</time>
      </trkpt>
      <trkpt lat="43.00237833" lon="-1.1091">
        <ele>1077.0</ele>
        <time>2019-07-31T14:56:42.106Z</time>
      </trkpt>
      <trkpt lat="43.00238333" lon="-1.10911">
        <ele>1078.0</ele>
        <time>2019-07-31T14:56:43.112Z</time>
      </trkpt>
      <trkpt lat="43.00239" lon="-1.10911833">
        <ele>1078.0</ele>
        <time>2019-07-31T14:56:44.118Z</time>
      </trkpt>
      <trkpt lat="43.00239667" lon="-1.10912667">
        <ele>1078.0</ele>
        <time>2019-07-31T14:56:45.124Z</time>
      </trkpt>
      <trkpt lat="43.00240167" lon="-1.10913667">
        <ele>1079.0</ele>
        <time>2019-07-31T14:56:46.130Z</time>
      </trkpt>
      <trkpt lat="43.00240833" lon="-1.109145">
        <ele>1079.0</ele>
        <time>2019-07-31T14:56:47.135Z</time>
      </trkpt>
      <trkpt lat="43.002415" lon="-1.10915833">
        <ele>1080.0</ele>
        <time>2019-07-31T14:56:48.139Z</time>
      </trkpt>
      <trkpt lat="43.00242167" lon="-1.10917">
        <ele>1081.0</ele>
        <time>2019-07-31T14:56:49.144Z</time>
      </trkpt>
      <trkpt lat="43.00243" lon="-1.109185">
        <ele>1081.0</ele>
        <time>2019-07-31T14:56:50.151Z</time>
      </trkpt>
      <trkpt lat="43.00243667" lon="-1.109195">
        <ele>1081.0</ele>
        <time>2019-07-31T14:56:51.156Z</time>
      </trkpt>
      <trkpt lat="43.00244" lon="-1.10920333">
        <ele>1081.0</ele>
        <time>2019-07-31T14:56:52.162Z</time>
      </trkpt>
      <trkpt lat="43.00244" lon="-1.10920167">
        <ele>1082.0</ele>
        <time>2019-07-31T14:56:53.166Z</time>
      </trkpt>
      <trkpt lat="43.00244" lon="-1.10920833">
        <ele>1082.0</ele>
        <time>2019-07-31T14:56:54.171Z</time>
      </trkpt>
      <trkpt lat="43.00244667" lon="-1.10922833">
        <ele>1083.0</ele>
        <time>2019-07-31T14:56:55.175Z</time>
      </trkpt>
      <trkpt lat="43.00245167" lon="-1.10924">
        <ele>1084.0</ele>
        <time>2019-07-31T14:56:56.180Z</time>
      </trkpt>
      <trkpt lat="43.00245667" lon="-1.10924">
        <ele>1084.0</ele>
        <time>2019-07-31T14:56:57.186Z</time>
      </trkpt>
      <trkpt lat="43.00246167" lon="-1.10925">
        <ele>1085.0</ele>
        <time>2019-07-31T14:56:58.066Z</time>
      </trkpt>
      <trkpt lat="43.00246667" lon="-1.10926">
        <ele>1085.0</ele>
        <time>2019-07-31T14:56:59.071Z</time>
      </trkpt>
      <trkpt lat="43.00247667" lon="-1.10925833">
        <ele>1084.0</ele>
        <time>2019-07-31T14:57:00.075Z</time>
      </trkpt>
      <trkpt lat="43.00248833" lon="-1.10926167">
        <ele>1083.0</ele>
        <time>2019-07-31T14:57:01.080Z</time>
      </trkpt>
      <trkpt lat="43.00249667" lon="-1.10927167">
        <ele>1083.0</ele>
        <time>2019-07-31T14:57:02.087Z</time>
      </trkpt>
      <trkpt lat="43.00250333" lon="-1.10928667">
        <ele>1082.0</ele>
        <time>2019-07-31T14:57:03.092Z</time>
      </trkpt>
      <trkpt lat="43.00250833" lon="-1.10928333">
        <ele>1082.0</ele>
        <time>2019-07-31T14:57:04.098Z</time>
      </trkpt>
      <trkpt lat="43.00252" lon="-1.10929333">
        <ele>1083.0</ele>
        <time>2019-07-31T14:57:05.103Z</time>
      </trkpt>
      <trkpt lat="43.002535" lon="-1.10932">
        <ele>1083.0</ele>
        <time>2019-07-31T14:57:06.108Z</time>
      </trkpt>
      <trkpt lat="43.00255167" lon="-1.10934667">
        <ele>1083.0</ele>
        <time>2019-07-31T14:57:07.113Z</time>
      </trkpt>
      <trkpt lat="43.00257" lon="-1.10937333">
        <ele>1083.0</ele>
        <time>2019-07-31T14:57:08.117Z</time>
      </trkpt>
      <trkpt lat="43.00258167" lon="-1.10939167">
        <ele>1084.0</ele>
        <time>2019-07-31T14:57:09.122Z</time>
      </trkpt>
      <trkpt lat="43.002595" lon="-1.1094">
        <ele>1084.0</ele>
        <time>2019-07-31T14:57:10.125Z</time>
      </trkpt>
      <trkpt lat="43.00260667" lon="-1.10941667">
        <ele>1085.0</ele>
        <time>2019-07-31T14:57:11.130Z</time>
      </trkpt>
      <trkpt lat="43.00262" lon="-1.10942833">
        <ele>1085.0</ele>
        <time>2019-07-31T14:57:12.135Z</time>
      </trkpt>
      <trkpt lat="43.002635" lon="-1.10944833">
        <ele>1085.0</ele>
        <time>2019-07-31T14:57:13.139Z</time>
      </trkpt>
      <trkpt lat="43.00265333" lon="-1.10946833">
        <ele>1086.0</ele>
        <time>2019-07-31T14:57:14.146Z</time>
      </trkpt>
      <trkpt lat="43.00266667" lon="-1.109475">
        <ele>1087.0</ele>
        <time>2019-07-31T14:57:15.151Z</time>
      </trkpt>
      <trkpt lat="43.00267833" lon="-1.10948833">
        <ele>1089.0</ele>
        <time>2019-07-31T14:57:16.155Z</time>
      </trkpt>
      <trkpt lat="43.00268167" lon="-1.10949167">
        <ele>1090.0</ele>
        <time>2019-07-31T14:57:17.161Z</time>
      </trkpt>
      <trkpt lat="43.00268333" lon="-1.10950333">
        <ele>1092.0</ele>
        <time>2019-07-31T14:57:18.167Z</time>
      </trkpt>
      <trkpt lat="43.00269333" lon="-1.10951667">
        <ele>1093.0</ele>
        <time>2019-07-31T14:57:19.173Z</time>
      </trkpt>
      <trkpt lat="43.00270167" lon="-1.10952333">
        <ele>1093.0</ele>
        <time>2019-07-31T14:57:20.176Z</time>
      </trkpt>
      <trkpt lat="43.00271" lon="-1.10953">
        <ele>1093.0</ele>
        <time>2019-07-31T14:57:21.183Z</time>
      </trkpt>
      <trkpt lat="43.00272333" lon="-1.10955167">
        <ele>1093.0</ele>
        <time>2019-07-31T14:57:22.064Z</time>
      </trkpt>
      <trkpt lat="43.00273667" lon="-1.10956833">
        <ele>1095.0</ele>
        <time>2019-07-31T14:57:23.071Z</time>
      </trkpt>
      <trkpt lat="43.00274667" lon="-1.10957833">
        <ele>1095.0</ele>
        <time>2019-07-31T14:57:24.079Z</time>
      </trkpt>
      <trkpt lat="43.00275667" lon="-1.109585">
        <ele>1096.0</ele>
        <time>2019-07-31T14:57:25.085Z</time>
      </trkpt>
      <trkpt lat="43.00276167" lon="-1.10959167">
        <ele>1095.0</ele>
        <time>2019-07-31T14:57:26.089Z</time>
      </trkpt>
      <trkpt lat="43.002765" lon="-1.10959667">
        <ele>1095.0</ele>
        <time>2019-07-31T14:57:27.093Z</time>
      </trkpt>
      <trkpt lat="43.00276833" lon="-1.10961">
        <ele>1095.0</ele>
        <time>2019-07-31T14:57:28.097Z</time>
      </trkpt>
      <trkpt lat="43.00278" lon="-1.10962">
        <ele>1095.0</ele>
        <time>2019-07-31T14:57:29.104Z</time>
      </trkpt>
      <trkpt lat="43.00279667" lon="-1.109625">
        <ele>1096.0</ele>
        <time>2019-07-31T14:57:30.109Z</time>
      </trkpt>
      <trkpt lat="43.00281167" lon="-1.10963667">
        <ele>1095.0</ele>
        <time>2019-07-31T14:57:31.114Z</time>
      </trkpt>
      <trkpt lat="43.00281667" lon="-1.10964667">
        <ele>1095.0</ele>
        <time>2019-07-31T14:57:32.119Z</time>
      </trkpt>
      <trkpt lat="43.00282" lon="-1.10965833">
        <ele>1096.0</ele>
        <time>2019-07-31T14:57:33.123Z</time>
      </trkpt>
      <trkpt lat="43.00283167" lon="-1.10965667">
        <ele>1096.0</ele>
        <time>2019-07-31T14:57:34.129Z</time>
      </trkpt>
      <trkpt lat="43.00284333" lon="-1.109665">
        <ele>1096.0</ele>
        <time>2019-07-31T14:57:35.134Z</time>
      </trkpt>
      <trkpt lat="43.00285333" lon="-1.10967">
        <ele>1095.0</ele>
        <time>2019-07-31T14:57:36.138Z</time>
      </trkpt>
      <trkpt lat="43.00286167" lon="-1.10967">
        <ele>1094.0</ele>
        <time>2019-07-31T14:57:37.142Z</time>
      </trkpt>
      <trkpt lat="43.00287333" lon="-1.10968333">
        <ele>1094.0</ele>
        <time>2019-07-31T14:57:38.147Z</time>
      </trkpt>
      <trkpt lat="43.002885" lon="-1.10969167">
        <ele>1096.0</ele>
        <time>2019-07-31T14:57:39.153Z</time>
      </trkpt>
      <trkpt lat="43.00289333" lon="-1.10970833">
        <ele>1098.0</ele>
        <time>2019-07-31T14:57:40.160Z</time>
      </trkpt>
      <trkpt lat="43.00290167" lon="-1.10971333">
        <ele>1099.0</ele>
        <time>2019-07-31T14:57:41.165Z</time>
      </trkpt>
      <trkpt lat="43.00291833" lon="-1.10972167">
        <ele>1099.0</ele>
        <time>2019-07-31T14:57:42.172Z</time>
      </trkpt>
      <trkpt lat="43.00293" lon="-1.10973833">
        <ele>1099.0</ele>
        <time>2019-07-31T14:57:43.176Z</time>
      </trkpt>
      <trkpt lat="43.00294167" lon="-1.10975833">
        <ele>1099.0</ele>
        <time>2019-07-31T14:57:44.179Z</time>
      </trkpt>
      <trkpt lat="43.002955" lon="-1.10977">
        <ele>1098.0</ele>
        <time>2019-07-31T14:57:45.184Z</time>
      </trkpt>
      <trkpt lat="43.00297" lon="-1.10977833">
        <ele>1097.0</ele>
        <time>2019-07-31T14:57:46.065Z</time>
      </trkpt>
      <trkpt lat="43.00297833" lon="-1.10979667">
        <ele>1097.0</ele>
        <time>2019-07-31T14:57:47.069Z</time>
      </trkpt>
      <trkpt lat="43.002985" lon="-1.10980667">
        <ele>1098.0</ele>
        <time>2019-07-31T14:57:48.076Z</time>
      </trkpt>
      <trkpt lat="43.00299333" lon="-1.10982">
        <ele>1098.0</ele>
        <time>2019-07-31T14:57:49.083Z</time>
      </trkpt>
      <trkpt lat="43.00300833" lon="-1.10983667">
        <ele>1099.0</ele>
        <time>2019-07-31T14:57:50.088Z</time>
      </trkpt>
      <trkpt lat="43.00302667" lon="-1.10985167">
        <ele>1099.0</ele>
        <time>2019-07-31T14:57:51.093Z</time>
      </trkpt>
      <trkpt lat="43.00304167" lon="-1.10985167">
        <ele>1098.0</ele>
        <time>2019-07-31T14:57:52.100Z</time>
      </trkpt>
      <trkpt lat="43.003055" lon="-1.10985667">
        <ele>1098.0</ele>
        <time>2019-07-31T14:57:53.104Z</time>
      </trkpt>
      <trkpt lat="43.00306" lon="-1.10985833">
        <ele>1098.0</ele>
        <time>2019-07-31T14:57:54.108Z</time>
      </trkpt>
      <trkpt lat="43.00306833" lon="-1.10986167">
        <ele>1099.0</ele>
        <time>2019-07-31T14:57:55.114Z</time>
      </trkpt>
      <trkpt lat="43.00307333" lon="-1.10986">
        <ele>1101.0</ele>
        <time>2019-07-31T14:57:56.120Z</time>
      </trkpt>
      <trkpt lat="43.00308" lon="-1.10986167">
        <ele>1101.0</ele>
        <time>2019-07-31T14:57:57.126Z</time>
      </trkpt>
      <trkpt lat="43.00308833" lon="-1.10985667">
        <ele>1101.0</ele>
        <time>2019-07-31T14:57:58.131Z</time>
      </trkpt>
      <trkpt lat="43.00309" lon="-1.10984833">
        <ele>1100.0</ele>
        <time>2019-07-31T14:57:59.133Z</time>
      </trkpt>
      <trkpt lat="43.00309333" lon="-1.10984167">
        <ele>1102.0</ele>
        <time>2019-07-31T14:58:00.139Z</time>
      </trkpt>
      <trkpt lat="43.0031" lon="-1.10984167">
        <ele>1102.0</ele>
        <time>2019-07-31T14:58:01.143Z</time>
      </trkpt>
      <trkpt lat="43.00311" lon="-1.10985167">
        <ele>1101.0</ele>
        <time>2019-07-31T14:58:02.148Z</time>
      </trkpt>
      <trkpt lat="43.00312167" lon="-1.10986833">
        <ele>1100.0</ele>
        <time>2019-07-31T14:58:03.152Z</time>
      </trkpt>
      <trkpt lat="43.00314167" lon="-1.10988167">
        <ele>1100.0</ele>
        <time>2019-07-31T14:58:04.156Z</time>
      </trkpt>
      <trkpt lat="43.00315667" lon="-1.10990167">
        <ele>1100.0</ele>
        <time>2019-07-31T14:58:05.159Z</time>
      </trkpt>
      <trkpt lat="43.003175" lon="-1.10991667">
        <ele>1100.0</ele>
        <time>2019-07-31T14:58:06.165Z</time>
      </trkpt>
      <trkpt lat="43.00319" lon="-1.10994">
        <ele>1099.0</ele>
        <time>2019-07-31T14:58:07.169Z</time>
      </trkpt>
      <trkpt lat="43.00320167" lon="-1.10995833">
        <ele>1099.0</ele>
        <time>2019-07-31T14:58:08.174Z</time>
      </trkpt>
      <trkpt lat="43.003205" lon="-1.10998167">
        <ele>1099.0</ele>
        <time>2019-07-31T14:58:09.178Z</time>
      </trkpt>
      <trkpt lat="43.00321167" lon="-1.10999167">
        <ele>1100.0</ele>
        <time>2019-07-31T14:58:10.182Z</time>
      </trkpt>
      <trkpt lat="43.00322167" lon="-1.11">
        <ele>1100.0</ele>
        <time>2019-07-31T14:58:11.061Z</time>
      </trkpt>
      <trkpt lat="43.00323333" lon="-1.11">
        <ele>1099.0</ele>
        <time>2019-07-31T14:58:12.066Z</time>
      </trkpt>
      <trkpt lat="43.00324" lon="-1.11000333">
        <ele>1099.0</ele>
        <time>2019-07-31T14:58:13.073Z</time>
      </trkpt>
      <trkpt lat="43.00325167" lon="-1.11001167">
        <ele>1098.0</ele>
        <time>2019-07-31T14:58:14.077Z</time>
      </trkpt>
      <trkpt lat="43.00326333" lon="-1.11002833">
        <ele>1098.0</ele>
        <time>2019-07-31T14:58:15.084Z</time>
      </trkpt>
      <trkpt lat="43.00327167" lon="-1.11005">
        <ele>1098.0</ele>
        <time>2019-07-31T14:58:16.091Z</time>
      </trkpt>
      <trkpt lat="43.00327333" lon="-1.11006333">
        <ele>1098.0</ele>
        <time>2019-07-31T14:58:17.096Z</time>
      </trkpt>
      <trkpt lat="43.00327833" lon="-1.11007833">
        <ele>1099.0</ele>
        <time>2019-07-31T14:58:18.103Z</time>
      </trkpt>
      <trkpt lat="43.00328" lon="-1.11010667">
        <ele>1099.0</ele>
        <time>2019-07-31T14:58:19.108Z</time>
      </trkpt>
      <trkpt lat="43.00329" lon="-1.110125">
        <ele>1099.0</ele>
        <time>2019-07-31T14:58:20.113Z</time>
      </trkpt>
      <trkpt lat="43.00330333" lon="-1.11014833">
        <ele>1100.0</ele>
        <time>2019-07-31T14:58:21.119Z</time>
      </trkpt>
      <trkpt lat="43.00331333" lon="-1.11016667">
        <ele>1100.0</ele>
        <time>2019-07-31T14:58:22.125Z</time>
      </trkpt>
      <trkpt lat="43.00332333" lon="-1.11017833">
        <ele>1101.0</ele>
        <time>2019-07-31T14:58:23.131Z</time>
      </trkpt>
      <trkpt lat="43.00333167" lon="-1.11018333">
        <ele>1101.0</ele>
        <time>2019-07-31T14:58:24.135Z</time>
      </trkpt>
      <trkpt lat="43.00334167" lon="-1.11018667">
        <ele>1100.0</ele>
        <time>2019-07-31T14:58:25.140Z</time>
      </trkpt>
      <trkpt lat="43.00335167" lon="-1.11018167">
        <ele>1099.0</ele>
        <time>2019-07-31T14:58:26.145Z</time>
      </trkpt>
      <trkpt lat="43.00336833" lon="-1.11018833">
        <ele>1098.0</ele>
        <time>2019-07-31T14:58:27.150Z</time>
      </trkpt>
      <trkpt lat="43.00338167" lon="-1.11018167">
        <ele>1096.0</ele>
        <time>2019-07-31T14:58:28.157Z</time>
      </trkpt>
      <trkpt lat="43.00340167" lon="-1.11018833">
        <ele>1095.0</ele>
        <time>2019-07-31T14:58:29.162Z</time>
      </trkpt>
      <trkpt lat="43.00341167" lon="-1.11019833">
        <ele>1095.0</ele>
        <time>2019-07-31T14:58:30.167Z</time>
      </trkpt>
      <trkpt lat="43.00342167" lon="-1.11021">
        <ele>1096.0</ele>
        <time>2019-07-31T14:58:31.171Z</time>
      </trkpt>
      <trkpt lat="43.003435" lon="-1.11022333">
        <ele>1096.0</ele>
        <time>2019-07-31T14:58:32.176Z</time>
      </trkpt>
      <trkpt lat="43.003445" lon="-1.110235">
        <ele>1096.0</ele>
        <time>2019-07-31T14:58:33.179Z</time>
      </trkpt>
      <trkpt lat="43.003455" lon="-1.11024">
        <ele>1097.0</ele>
        <time>2019-07-31T14:58:34.184Z</time>
      </trkpt>
      <trkpt lat="43.00346667" lon="-1.11024167">
        <ele>1098.0</ele>
        <time>2019-07-31T14:58:35.066Z</time>
      </trkpt>
      <trkpt lat="43.00348167" lon="-1.110245">
        <ele>1098.0</ele>
        <time>2019-07-31T14:58:36.069Z</time>
      </trkpt>
      <trkpt lat="43.003495" lon="-1.110245">
        <ele>1097.0</ele>
        <time>2019-07-31T14:58:37.074Z</time>
      </trkpt>
      <trkpt lat="43.00350667" lon="-1.110255">
        <ele>1095.0</ele>
        <time>2019-07-31T14:58:38.080Z</time>
      </trkpt>
      <trkpt lat="43.00353" lon="-1.11026333">
        <ele>1093.0</ele>
        <time>2019-07-31T14:58:39.088Z</time>
      </trkpt>
      <trkpt lat="43.00355167" lon="-1.11027333">
        <ele>1091.0</ele>
        <time>2019-07-31T14:58:40.092Z</time>
      </trkpt>
      <trkpt lat="43.00357167" lon="-1.110295">
        <ele>1089.0</ele>
        <time>2019-07-31T14:58:41.095Z</time>
      </trkpt>
      <trkpt lat="43.00358667" lon="-1.11030167">
        <ele>1089.0</ele>
        <time>2019-07-31T14:58:42.098Z</time>
      </trkpt>
      <trkpt lat="43.003595" lon="-1.11031667">
        <ele>1088.0</ele>
        <time>2019-07-31T14:58:43.103Z</time>
      </trkpt>
      <trkpt lat="43.00360667" lon="-1.11033333">
        <ele>1088.0</ele>
        <time>2019-07-31T14:58:44.108Z</time>
      </trkpt>
      <trkpt lat="43.00361333" lon="-1.11034667">
        <ele>1089.0</ele>
        <time>2019-07-31T14:58:45.115Z</time>
      </trkpt>
      <trkpt lat="43.00362167" lon="-1.11034667">
        <ele>1088.0</ele>
        <time>2019-07-31T14:58:46.121Z</time>
      </trkpt>
      <trkpt lat="43.00363333" lon="-1.110345">
        <ele>1089.0</ele>
        <time>2019-07-31T14:58:47.128Z</time>
      </trkpt>
      <trkpt lat="43.00364667" lon="-1.110355">
        <ele>1090.0</ele>
        <time>2019-07-31T14:58:48.134Z</time>
      </trkpt>
      <trkpt lat="43.00365667" lon="-1.11036333">
        <ele>1090.0</ele>
        <time>2019-07-31T14:58:49.139Z</time>
      </trkpt>
      <trkpt lat="43.003675" lon="-1.110365">
        <ele>1092.0</ele>
        <time>2019-07-31T14:58:50.142Z</time>
      </trkpt>
      <trkpt lat="43.00368333" lon="-1.110365">
        <ele>1092.0</ele>
        <time>2019-07-31T14:58:51.145Z</time>
      </trkpt>
      <trkpt lat="43.00368333" lon="-1.11035167">
        <ele>1092.0</ele>
        <time>2019-07-31T14:58:52.151Z</time>
      </trkpt>
      <trkpt lat="43.00368667" lon="-1.11036167">
        <ele>1092.0</ele>
        <time>2019-07-31T14:58:53.156Z</time>
      </trkpt>
      <trkpt lat="43.00368667" lon="-1.11036833">
        <ele>1092.0</ele>
        <time>2019-07-31T14:58:54.160Z</time>
      </trkpt>
      <trkpt lat="43.003695" lon="-1.11037167">
        <ele>1093.0</ele>
        <time>2019-07-31T14:58:55.163Z</time>
      </trkpt>
      <trkpt lat="43.00371" lon="-1.11036">
        <ele>1093.0</ele>
        <time>2019-07-31T14:58:56.168Z</time>
      </trkpt>
      <trkpt lat="43.00371667" lon="-1.11035833">
        <ele>1094.0</ele>
        <time>2019-07-31T14:58:57.173Z</time>
      </trkpt>
      <trkpt lat="43.00371833" lon="-1.11036">
        <ele>1094.0</ele>
        <time>2019-07-31T14:58:58.179Z</time>
      </trkpt>
      <trkpt lat="43.00372167" lon="-1.110365">
        <ele>1094.0</ele>
        <time>2019-07-31T14:58:59.061Z</time>
      </trkpt>
      <trkpt lat="43.00372167" lon="-1.110365">
        <ele>1094.0</ele>
        <time>2019-07-31T14:59:00.068Z</time>
      </trkpt>
      <trkpt lat="43.00372167" lon="-1.11036333">
        <ele>1094.0</ele>
        <time>2019-07-31T14:59:01.071Z</time>
      </trkpt>
      <trkpt lat="43.00372" lon="-1.110365">
        <ele>1095.0</ele>
        <time>2019-07-31T14:59:02.077Z</time>
      </trkpt>
      <trkpt lat="43.00372" lon="-1.11036667">
        <ele>1095.0</ele>
        <time>2019-07-31T14:59:03.081Z</time>
      </trkpt>
      <trkpt lat="43.00372" lon="-1.11036833">
        <ele>1095.0</ele>
        <time>2019-07-31T14:59:04.086Z</time>
      </trkpt>
      <trkpt lat="43.00372167" lon="-1.11036833">
        <ele>1096.0</ele>
        <time>2019-07-31T14:59:05.092Z</time>
      </trkpt>
      <trkpt lat="43.00372" lon="-1.11036833">
        <ele>1096.0</ele>
        <time>2019-07-31T14:59:06.097Z</time>
      </trkpt>
      <trkpt lat="43.00371833" lon="-1.110365">
        <ele>1096.0</ele>
        <time>2019-07-31T14:59:07.103Z</time>
      </trkpt>
      <trkpt lat="43.00371667" lon="-1.11036167">
        <ele>1097.0</ele>
        <time>2019-07-31T14:59:08.108Z</time>
      </trkpt>
      <trkpt lat="43.00371667" lon="-1.11036167">
        <ele>1097.0</ele>
        <time>2019-07-31T14:59:09.114Z</time>
      </trkpt>
      <trkpt lat="43.00372167" lon="-1.11036333">
        <ele>1097.0</ele>
        <time>2019-07-31T14:59:10.120Z</time>
      </trkpt>
      <trkpt lat="43.00372333" lon="-1.11036167">
        <ele>1096.0</ele>
        <time>2019-07-31T14:59:11.123Z</time>
      </trkpt>
      <trkpt lat="43.00372833" lon="-1.11036167">
        <ele>1096.0</ele>
        <time>2019-07-31T14:59:12.128Z</time>
      </trkpt>
      <trkpt lat="43.00373" lon="-1.11035333">
        <ele>1096.0</ele>
        <time>2019-07-31T14:59:13.133Z</time>
      </trkpt>
      <trkpt lat="43.00373667" lon="-1.11035167">
        <ele>1096.0</ele>
        <time>2019-07-31T14:59:14.137Z</time>
      </trkpt>
      <trkpt lat="43.00374333" lon="-1.11034667">
        <ele>1096.0</ele>
        <time>2019-07-31T14:59:15.140Z</time>
      </trkpt>
      <trkpt lat="43.00375167" lon="-1.110335">
        <ele>1096.0</ele>
        <time>2019-07-31T14:59:16.147Z</time>
      </trkpt>
      <trkpt lat="43.003755" lon="-1.11032833">
        <ele>1095.0</ele>
        <time>2019-07-31T14:59:17.151Z</time>
      </trkpt>
      <trkpt lat="43.00375667" lon="-1.11031833">
        <ele>1095.0</ele>
        <time>2019-07-31T14:59:18.157Z</time>
      </trkpt>
      <trkpt lat="43.00375667" lon="-1.110315">
        <ele>1095.0</ele>
        <time>2019-07-31T14:59:19.163Z</time>
      </trkpt>
      <trkpt lat="43.00375667" lon="-1.11030833">
        <ele>1095.0</ele>
        <time>2019-07-31T14:59:20.166Z</time>
      </trkpt>
      <trkpt lat="43.003755" lon="-1.1103">
        <ele>1096.0</ele>
        <time>2019-07-31T14:59:21.172Z</time>
      </trkpt>
      <trkpt lat="43.00374667" lon="-1.11028833">
        <ele>1097.0</ele>
        <time>2019-07-31T14:59:22.178Z</time>
      </trkpt>
      <trkpt lat="43.00374" lon="-1.11028667">
        <ele>1097.0</ele>
        <time>2019-07-31T14:59:23.184Z</time>
      </trkpt>
      <trkpt lat="43.00373667" lon="-1.11027833">
        <ele>1097.0</ele>
        <time>2019-07-31T14:59:24.064Z</time>
      </trkpt>
      <trkpt lat="43.00373333" lon="-1.11027167">
        <ele>1097.0</ele>
        <time>2019-07-31T14:59:25.071Z</time>
      </trkpt>
      <trkpt lat="43.003725" lon="-1.11025167">
        <ele>1097.0</ele>
        <time>2019-07-31T14:59:26.076Z</time>
      </trkpt>
      <trkpt lat="43.00371833" lon="-1.11023833">
        <ele>1097.0</ele>
        <time>2019-07-31T14:59:27.082Z</time>
      </trkpt>
      <trkpt lat="43.00371333" lon="-1.11023333">
        <ele>1098.0</ele>
        <time>2019-07-31T14:59:28.087Z</time>
      </trkpt>
      <trkpt lat="43.003705" lon="-1.11022333">
        <ele>1098.0</ele>
        <time>2019-07-31T14:59:29.089Z</time>
      </trkpt>
      <trkpt lat="43.003705" lon="-1.11022167">
        <ele>1097.0</ele>
        <time>2019-07-31T14:59:30.093Z</time>
      </trkpt>
      <trkpt lat="43.00370667" lon="-1.11021667">
        <ele>1097.0</ele>
        <time>2019-07-31T14:59:31.097Z</time>
      </trkpt>
      <trkpt lat="43.00370333" lon="-1.11021333">
        <ele>1097.0</ele>
        <time>2019-07-31T14:59:32.102Z</time>
      </trkpt>
      <trkpt lat="43.003715" lon="-1.11020667">
        <ele>1097.0</ele>
        <time>2019-07-31T14:59:33.106Z</time>
      </trkpt>
      <trkpt lat="43.00372167" lon="-1.11021">
        <ele>1096.0</ele>
        <time>2019-07-31T14:59:34.112Z</time>
      </trkpt>
      <trkpt lat="43.00373333" lon="-1.110225">
        <ele>1096.0</ele>
        <time>2019-07-31T14:59:35.118Z</time>
      </trkpt>
      <trkpt lat="43.00374667" lon="-1.11023">
        <ele>1096.0</ele>
        <time>2019-07-31T14:59:36.123Z</time>
      </trkpt>
      <trkpt lat="43.00374667" lon="-1.11024167">
        <ele>1095.0</ele>
        <time>2019-07-31T14:59:37.128Z</time>
      </trkpt>
      <trkpt lat="43.00374333" lon="-1.110255">
        <ele>1094.0</ele>
        <time>2019-07-31T14:59:38.133Z</time>
      </trkpt>
      <trkpt lat="43.003735" lon="-1.11028">
        <ele>1094.0</ele>
        <time>2019-07-31T14:59:39.137Z</time>
      </trkpt>
      <trkpt lat="43.00373333" lon="-1.1103">
        <ele>1093.0</ele>
        <time>2019-07-31T14:59:40.142Z</time>
      </trkpt>
      <trkpt lat="43.003735" lon="-1.110315">
        <ele>1092.0</ele>
        <time>2019-07-31T14:59:41.149Z</time>
      </trkpt>
      <trkpt lat="43.00374167" lon="-1.11032833">
        <ele>1092.0</ele>
        <time>2019-07-31T14:59:42.153Z</time>
      </trkpt>
      <trkpt lat="43.00375167" lon="-1.11032833">
        <ele>1092.0</ele>
        <time>2019-07-31T14:59:43.158Z</time>
      </trkpt>
      <trkpt lat="43.00375" lon="-1.11031667">
        <ele>1092.0</ele>
        <time>2019-07-31T14:59:44.164Z</time>
      </trkpt>
      <trkpt lat="43.00374833" lon="-1.11031333">
        <ele>1092.0</ele>
        <time>2019-07-31T14:59:45.169Z</time>
      </trkpt>
      <trkpt lat="43.00374167" lon="-1.11031333">
        <ele>1092.0</ele>
        <time>2019-07-31T14:59:46.176Z</time>
      </trkpt>
      <trkpt lat="43.00373333" lon="-1.1103">
        <ele>1093.0</ele>
        <time>2019-07-31T14:59:47.181Z</time>
      </trkpt>
      <trkpt lat="43.00372333" lon="-1.11028333">
        <ele>1094.0</ele>
        <time>2019-07-31T14:59:48.061Z</time>
      </trkpt>
      <trkpt lat="43.003715" lon="-1.11027333">
        <ele>1094.0</ele>
        <time>2019-07-31T14:59:49.067Z</time>
      </trkpt>
      <trkpt lat="43.00371" lon="-1.110265">
        <ele>1094.0</ele>
        <time>2019-07-31T14:59:50.074Z</time>
      </trkpt>
      <trkpt lat="43.00370333" lon="-1.11026667">
        <ele>1093.0</ele>
        <time>2019-07-31T14:59:51.082Z</time>
      </trkpt>
      <trkpt lat="43.00369667" lon="-1.11027">
        <ele>1092.0</ele>
        <time>2019-07-31T14:59:52.088Z</time>
      </trkpt>
      <trkpt lat="43.003695" lon="-1.11027667">
        <ele>1092.0</ele>
        <time>2019-07-31T14:59:53.094Z</time>
      </trkpt>
      <trkpt lat="43.00369333" lon="-1.11028333">
        <ele>1092.0</ele>
        <time>2019-07-31T14:59:54.100Z</time>
      </trkpt>
      <trkpt lat="43.00368667" lon="-1.110295">
        <ele>1091.0</ele>
        <time>2019-07-31T14:59:55.104Z</time>
      </trkpt>
      <trkpt lat="43.00367833" lon="-1.11029667">
        <ele>1091.0</ele>
        <time>2019-07-31T14:59:56.109Z</time>
      </trkpt>
      <trkpt lat="43.00366667" lon="-1.110305">
        <ele>1091.0</ele>
        <time>2019-07-31T14:59:57.113Z</time>
      </trkpt>
      <trkpt lat="43.00366" lon="-1.11031667">
        <ele>1091.0</ele>
        <time>2019-07-31T14:59:58.119Z</time>
      </trkpt>
      <trkpt lat="43.00365167" lon="-1.11032333">
        <ele>1091.0</ele>
        <time>2019-07-31T14:59:59.123Z</time>
      </trkpt>
      <trkpt lat="43.003645" lon="-1.11032333">
        <ele>1092.0</ele>
        <time>2019-07-31T15:00:00.126Z</time>
      </trkpt>
      <trkpt lat="43.00364167" lon="-1.11032167">
        <ele>1093.0</ele>
        <time>2019-07-31T15:00:01.132Z</time>
      </trkpt>
      <trkpt lat="43.00363833" lon="-1.11032333">
        <ele>1093.0</ele>
        <time>2019-07-31T15:00:02.138Z</time>
      </trkpt>
      <trkpt lat="43.00363667" lon="-1.11032167">
        <ele>1094.0</ele>
        <time>2019-07-31T15:00:03.144Z</time>
      </trkpt>
      <trkpt lat="43.003635" lon="-1.11032">
        <ele>1094.0</ele>
        <time>2019-07-31T15:00:04.150Z</time>
      </trkpt>
      <trkpt lat="43.00363167" lon="-1.11032167">
        <ele>1094.0</ele>
        <time>2019-07-31T15:00:05.157Z</time>
      </trkpt>
      <trkpt lat="43.00363167" lon="-1.110325">
        <ele>1095.0</ele>
        <time>2019-07-31T15:00:06.162Z</time>
      </trkpt>
      <trkpt lat="43.00362667" lon="-1.11033">
        <ele>1095.0</ele>
        <time>2019-07-31T15:00:07.169Z</time>
      </trkpt>
      <trkpt lat="43.00362333" lon="-1.110335">
        <ele>1095.0</ele>
        <time>2019-07-31T15:00:08.174Z</time>
      </trkpt>
      <trkpt lat="43.00362" lon="-1.11034167">
        <ele>1094.0</ele>
        <time>2019-07-31T15:00:09.178Z</time>
      </trkpt>
      <trkpt lat="43.003615" lon="-1.11035333">
        <ele>1094.0</ele>
        <time>2019-07-31T15:00:10.182Z</time>
      </trkpt>
      <trkpt lat="43.00361" lon="-1.11036167">
        <ele>1093.0</ele>
        <time>2019-07-31T15:00:11.062Z</time>
      </trkpt>
      <trkpt lat="43.00360167" lon="-1.11037167">
        <ele>1092.0</ele>
        <time>2019-07-31T15:00:12.068Z</time>
      </trkpt>
      <trkpt lat="43.003595" lon="-1.11038167">
        <ele>1091.0</ele>
        <time>2019-07-31T15:00:13.072Z</time>
      </trkpt>
      <trkpt lat="43.00358667" lon="-1.11039167">
        <ele>1090.0</ele>
        <time>2019-07-31T15:00:14.077Z</time>
      </trkpt>
      <trkpt lat="43.00357833" lon="-1.11039833">
        <ele>1090.0</ele>
        <time>2019-07-31T15:00:15.081Z</time>
      </trkpt>
      <trkpt lat="43.00357167" lon="-1.11041167">
        <ele>1089.0</ele>
        <time>2019-07-31T15:00:16.085Z</time>
      </trkpt>
      <trkpt lat="43.00356167" lon="-1.11042167">
        <ele>1089.0</ele>
        <time>2019-07-31T15:00:17.089Z</time>
      </trkpt>
      <trkpt lat="43.00355167" lon="-1.11043167">
        <ele>1089.0</ele>
        <time>2019-07-31T15:00:18.091Z</time>
      </trkpt>
      <trkpt lat="43.00354167" lon="-1.11044667">
        <ele>1088.0</ele>
        <time>2019-07-31T15:00:19.097Z</time>
      </trkpt>
      <trkpt lat="43.00353167" lon="-1.110465">
        <ele>1088.0</ele>
        <time>2019-07-31T15:00:20.103Z</time>
      </trkpt>
      <trkpt lat="43.00352" lon="-1.11048833">
        <ele>1087.0</ele>
        <time>2019-07-31T15:00:21.108Z</time>
      </trkpt>
      <trkpt lat="43.00351333" lon="-1.110505">
        <ele>1087.0</ele>
        <time>2019-07-31T15:00:22.113Z</time>
      </trkpt>
      <trkpt lat="43.00350333" lon="-1.11052167">
        <ele>1087.0</ele>
        <time>2019-07-31T15:00:23.118Z</time>
      </trkpt>
      <trkpt lat="43.00349833" lon="-1.110545">
        <ele>1087.0</ele>
        <time>2019-07-31T15:00:24.124Z</time>
      </trkpt>
      <trkpt lat="43.00349" lon="-1.110575">
        <ele>1088.0</ele>
        <time>2019-07-31T15:00:25.130Z</time>
      </trkpt>
      <trkpt lat="43.00348167" lon="-1.11059833">
        <ele>1088.0</ele>
        <time>2019-07-31T15:00:26.135Z</time>
      </trkpt>
      <trkpt lat="43.003475" lon="-1.11061">
        <ele>1087.0</ele>
        <time>2019-07-31T15:00:27.139Z</time>
      </trkpt>
      <trkpt lat="43.00347167" lon="-1.11062833">
        <ele>1086.0</ele>
        <time>2019-07-31T15:00:28.143Z</time>
      </trkpt>
      <trkpt lat="43.00346833" lon="-1.11064833">
        <ele>1084.0</ele>
        <time>2019-07-31T15:00:29.149Z</time>
      </trkpt>
      <trkpt lat="43.00346333" lon="-1.11067167">
        <ele>1082.0</ele>
        <time>2019-07-31T15:00:30.155Z</time>
      </trkpt>
      <trkpt lat="43.003455" lon="-1.1107">
        <ele>1080.0</ele>
        <time>2019-07-31T15:00:31.159Z</time>
      </trkpt>
      <trkpt lat="43.00344" lon="-1.110725">
        <ele>1079.0</ele>
        <time>2019-07-31T15:00:32.164Z</time>
      </trkpt>
      <trkpt lat="43.00342833" lon="-1.110755">
        <ele>1079.0</ele>
        <time>2019-07-31T15:00:33.170Z</time>
      </trkpt>
      <trkpt lat="43.00342167" lon="-1.11078333">
        <ele>1079.0</ele>
        <time>2019-07-31T15:00:34.176Z</time>
      </trkpt>
      <trkpt lat="43.00341833" lon="-1.110815">
        <ele>1079.0</ele>
        <time>2019-07-31T15:00:35.179Z</time>
      </trkpt>
      <trkpt lat="43.00341167" lon="-1.11083333">
        <ele>1078.0</ele>
        <time>2019-07-31T15:00:36.183Z</time>
      </trkpt>
      <trkpt lat="43.00340667" lon="-1.11084667">
        <ele>1078.0</ele>
        <time>2019-07-31T15:00:37.062Z</time>
      </trkpt>
      <trkpt lat="43.00340167" lon="-1.11084833">
        <ele>1078.0</ele>
        <time>2019-07-31T15:00:38.068Z</time>
      </trkpt>
      <trkpt lat="43.00339667" lon="-1.11086">
        <ele>1078.0</ele>
        <time>2019-07-31T15:00:39.073Z</time>
      </trkpt>
      <trkpt lat="43.00338833" lon="-1.110875">
        <ele>1078.0</ele>
        <time>2019-07-31T15:00:40.079Z</time>
      </trkpt>
      <trkpt lat="43.00338333" lon="-1.11088167">
        <ele>1077.0</ele>
        <time>2019-07-31T15:00:41.086Z</time>
      </trkpt>
      <trkpt lat="43.00337833" lon="-1.11089667">
        <ele>1077.0</ele>
        <time>2019-07-31T15:00:42.090Z</time>
      </trkpt>
      <trkpt lat="43.00337" lon="-1.11091167">
        <ele>1077.0</ele>
        <time>2019-07-31T15:00:43.096Z</time>
      </trkpt>
      <trkpt lat="43.00336667" lon="-1.11092">
        <ele>1077.0</ele>
        <time>2019-07-31T15:00:44.102Z</time>
      </trkpt>
      <trkpt lat="43.003365" lon="-1.11093167">
        <ele>1077.0</ele>
        <time>2019-07-31T15:00:45.107Z</time>
      </trkpt>
      <trkpt lat="43.00336167" lon="-1.110945">
        <ele>1077.0</ele>
        <time>2019-07-31T15:00:46.112Z</time>
      </trkpt>
      <trkpt lat="43.00335667" lon="-1.11095333">
        <ele>1077.0</ele>
        <time>2019-07-31T15:00:47.117Z</time>
      </trkpt>
      <trkpt lat="43.00335167" lon="-1.11096">
        <ele>1076.0</ele>
        <time>2019-07-31T15:00:48.122Z</time>
      </trkpt>
      <trkpt lat="43.003345" lon="-1.11097167">
        <ele>1076.0</ele>
        <time>2019-07-31T15:00:49.129Z</time>
      </trkpt>
      <trkpt lat="43.00333667" lon="-1.11098667">
        <ele>1076.0</ele>
        <time>2019-07-31T15:00:50.132Z</time>
      </trkpt>
      <trkpt lat="43.003325" lon="-1.111005">
        <ele>1076.0</ele>
        <time>2019-07-31T15:00:51.136Z</time>
      </trkpt>
      <trkpt lat="43.00331667" lon="-1.11102167">
        <ele>1076.0</ele>
        <time>2019-07-31T15:00:52.141Z</time>
      </trkpt>
      <trkpt lat="43.00331167" lon="-1.11103667">
        <ele>1077.0</ele>
        <time>2019-07-31T15:00:53.146Z</time>
      </trkpt>
      <trkpt lat="43.00330833" lon="-1.11104333">
        <ele>1077.0</ele>
        <time>2019-07-31T15:00:54.152Z</time>
      </trkpt>
      <trkpt lat="43.00330333" lon="-1.11105">
        <ele>1078.0</ele>
        <time>2019-07-31T15:00:55.158Z</time>
      </trkpt>
      <trkpt lat="43.00329667" lon="-1.11105833">
        <ele>1078.0</ele>
        <time>2019-07-31T15:00:56.163Z</time>
      </trkpt>
      <trkpt lat="43.00328833" lon="-1.11107">
        <ele>1078.0</ele>
        <time>2019-07-31T15:00:57.168Z</time>
      </trkpt>
      <trkpt lat="43.00328167" lon="-1.11108">
        <ele>1079.0</ele>
        <time>2019-07-31T15:00:58.174Z</time>
      </trkpt>
      <trkpt lat="43.003275" lon="-1.11109833">
        <ele>1079.0</ele>
        <time>2019-07-31T15:00:59.179Z</time>
      </trkpt>
      <trkpt lat="43.00327167" lon="-1.111115">
        <ele>1079.0</ele>
        <time>2019-07-31T15:01:00.185Z</time>
      </trkpt>
      <trkpt lat="43.00326833" lon="-1.11113333">
        <ele>1079.0</ele>
        <time>2019-07-31T15:01:01.064Z</time>
      </trkpt>
      <trkpt lat="43.00326833" lon="-1.11115167">
        <ele>1078.0</ele>
        <time>2019-07-31T15:01:02.071Z</time>
      </trkpt>
      <trkpt lat="43.00326667" lon="-1.11116667">
        <ele>1078.0</ele>
        <time>2019-07-31T15:01:03.076Z</time>
      </trkpt>
      <trkpt lat="43.00326167" lon="-1.11117667">
        <ele>1078.0</ele>
        <time>2019-07-31T15:01:04.081Z</time>
      </trkpt>
      <trkpt lat="43.00325667" lon="-1.11119333">
        <ele>1078.0</ele>
        <time>2019-07-31T15:01:05.087Z</time>
      </trkpt>
      <trkpt lat="43.00325167" lon="-1.11121333">
        <ele>1078.0</ele>
        <time>2019-07-31T15:01:06.092Z</time>
      </trkpt>
      <trkpt lat="43.00324333" lon="-1.11123333">
        <ele>1079.0</ele>
        <time>2019-07-31T15:01:07.096Z</time>
      </trkpt>
      <trkpt lat="43.00323167" lon="-1.11125">
        <ele>1079.0</ele>
        <time>2019-07-31T15:01:08.102Z</time>
      </trkpt>
      <trkpt lat="43.00322" lon="-1.111265">
        <ele>1080.0</ele>
        <time>2019-07-31T15:01:09.107Z</time>
      </trkpt>
      <trkpt lat="43.00321333" lon="-1.11127833">
        <ele>1080.0</ele>
        <time>2019-07-31T15:01:10.112Z</time>
      </trkpt>
      <trkpt lat="43.00320667" lon="-1.111285">
        <ele>1080.0</ele>
        <time>2019-07-31T15:01:11.117Z</time>
      </trkpt>
      <trkpt lat="43.00320333" lon="-1.11130333">
        <ele>1080.0</ele>
        <time>2019-07-31T15:01:12.124Z</time>
      </trkpt>
      <trkpt lat="43.00319667" lon="-1.11132833">
        <ele>1081.0</ele>
        <time>2019-07-31T15:01:13.131Z</time>
      </trkpt>
      <trkpt lat="43.00319833" lon="-1.11135833">
        <ele>1081.0</ele>
        <time>2019-07-31T15:01:14.137Z</time>
      </trkpt>
      <trkpt lat="43.00319667" lon="-1.111385">
        <ele>1080.0</ele>
        <time>2019-07-31T15:01:15.143Z</time>
      </trkpt>
      <trkpt lat="43.003195" lon="-1.1114">
        <ele>1080.0</ele>
        <time>2019-07-31T15:01:16.148Z</time>
      </trkpt>
      <trkpt lat="43.00319333" lon="-1.11142167">
        <ele>1079.0</ele>
        <time>2019-07-31T15:01:17.153Z</time>
      </trkpt>
      <trkpt lat="43.00319667" lon="-1.11143667">
        <ele>1079.0</ele>
        <time>2019-07-31T15:01:18.158Z</time>
      </trkpt>
      <trkpt lat="43.00319167" lon="-1.111455">
        <ele>1079.0</ele>
        <time>2019-07-31T15:01:19.163Z</time>
      </trkpt>
      <trkpt lat="43.00319" lon="-1.11147">
        <ele>1078.0</ele>
        <time>2019-07-31T15:01:20.167Z</time>
      </trkpt>
      <trkpt lat="43.00319" lon="-1.11149667">
        <ele>1077.0</ele>
        <time>2019-07-31T15:01:21.172Z</time>
      </trkpt>
      <trkpt lat="43.00318833" lon="-1.11151167">
        <ele>1076.0</ele>
        <time>2019-07-31T15:01:22.178Z</time>
      </trkpt>
      <trkpt lat="43.003185" lon="-1.111525">
        <ele>1075.0</ele>
        <time>2019-07-31T15:01:23.184Z</time>
      </trkpt>
      <trkpt lat="43.00318" lon="-1.11155167">
        <ele>1075.0</ele>
        <time>2019-07-31T15:01:24.064Z</time>
      </trkpt>
      <trkpt lat="43.00317667" lon="-1.11158167">
        <ele>1075.0</ele>
        <time>2019-07-31T15:01:25.069Z</time>
      </trkpt>
      <trkpt lat="43.00317" lon="-1.11161">
        <ele>1074.0</ele>
        <time>2019-07-31T15:01:26.074Z</time>
      </trkpt>
      <trkpt lat="43.00316167" lon="-1.111625">
        <ele>1074.0</ele>
        <time>2019-07-31T15:01:27.078Z</time>
      </trkpt>
      <trkpt lat="43.00315333" lon="-1.11164167">
        <ele>1073.0</ele>
        <time>2019-07-31T15:01:28.083Z</time>
      </trkpt>
      <trkpt lat="43.00314833" lon="-1.111655">
        <ele>1073.0</ele>
        <time>2019-07-31T15:01:29.087Z</time>
      </trkpt>
      <trkpt lat="43.003145" lon="-1.11167167">
        <ele>1073.0</ele>
        <time>2019-07-31T15:01:30.092Z</time>
      </trkpt>
      <trkpt lat="43.00314833" lon="-1.11168167">
        <ele>1072.0</ele>
        <time>2019-07-31T15:01:31.094Z</time>
      </trkpt>
      <trkpt lat="43.003145" lon="-1.11170667">
        <ele>1072.0</ele>
        <time>2019-07-31T15:01:32.100Z</time>
      </trkpt>
      <trkpt lat="43.00314167" lon="-1.11172833">
        <ele>1072.0</ele>
        <time>2019-07-31T15:01:33.107Z</time>
      </trkpt>
      <trkpt lat="43.00314667" lon="-1.11175667">
        <ele>1073.0</ele>
        <time>2019-07-31T15:01:34.113Z</time>
      </trkpt>
      <trkpt lat="43.00315167" lon="-1.111785">
        <ele>1073.0</ele>
        <time>2019-07-31T15:01:35.118Z</time>
      </trkpt>
      <trkpt lat="43.00315167" lon="-1.111805">
        <ele>1074.0</ele>
        <time>2019-07-31T15:01:36.123Z</time>
      </trkpt>
      <trkpt lat="43.00314833" lon="-1.11181167">
        <ele>1075.0</ele>
        <time>2019-07-31T15:01:37.128Z</time>
      </trkpt>
      <trkpt lat="43.00314" lon="-1.111825">
        <ele>1075.0</ele>
        <time>2019-07-31T15:01:38.135Z</time>
      </trkpt>
      <trkpt lat="43.00313" lon="-1.11183667">
        <ele>1076.0</ele>
        <time>2019-07-31T15:01:39.138Z</time>
      </trkpt>
      <trkpt lat="43.00312167" lon="-1.11184833">
        <ele>1076.0</ele>
        <time>2019-07-31T15:01:40.140Z</time>
      </trkpt>
      <trkpt lat="43.003115" lon="-1.11186333">
        <ele>1076.0</ele>
        <time>2019-07-31T15:01:41.145Z</time>
      </trkpt>
      <trkpt lat="43.00311" lon="-1.11187333">
        <ele>1077.0</ele>
        <time>2019-07-31T15:01:42.152Z</time>
      </trkpt>
      <trkpt lat="43.00311" lon="-1.11188667">
        <ele>1078.0</ele>
        <time>2019-07-31T15:01:43.157Z</time>
      </trkpt>
      <trkpt lat="43.003105" lon="-1.111905">
        <ele>1079.0</ele>
        <time>2019-07-31T15:01:44.165Z</time>
      </trkpt>
      <trkpt lat="43.0031" lon="-1.111925">
        <ele>1081.0</ele>
        <time>2019-07-31T15:01:45.171Z</time>
      </trkpt>
      <trkpt lat="43.00309333" lon="-1.11194667">
        <ele>1081.0</ele>
        <time>2019-07-31T15:01:46.177Z</time>
      </trkpt>
      <trkpt lat="43.00309167" lon="-1.11195667">
        <ele>1082.0</ele>
        <time>2019-07-31T15:01:47.183Z</time>
      </trkpt>
      <trkpt lat="43.003095" lon="-1.11196833">
        <ele>1083.0</ele>
        <time>2019-07-31T15:01:48.064Z</time>
      </trkpt>
      <trkpt lat="43.003095" lon="-1.111985">
        <ele>1083.0</ele>
        <time>2019-07-31T15:01:49.069Z</time>
      </trkpt>
      <trkpt lat="43.00309" lon="-1.112">
        <ele>1083.0</ele>
        <time>2019-07-31T15:01:50.076Z</time>
      </trkpt>
      <trkpt lat="43.00308333" lon="-1.11202167">
        <ele>1083.0</ele>
        <time>2019-07-31T15:01:51.082Z</time>
      </trkpt>
      <trkpt lat="43.00308333" lon="-1.11203333">
        <ele>1083.0</ele>
        <time>2019-07-31T15:01:52.088Z</time>
      </trkpt>
      <trkpt lat="43.00308667" lon="-1.11204833">
        <ele>1083.0</ele>
        <time>2019-07-31T15:01:53.094Z</time>
      </trkpt>
      <trkpt lat="43.00308833" lon="-1.11205667">
        <ele>1082.0</ele>
        <time>2019-07-31T15:01:54.099Z</time>
      </trkpt>
      <trkpt lat="43.00308667" lon="-1.11207333">
        <ele>1083.0</ele>
        <time>2019-07-31T15:01:55.104Z</time>
      </trkpt>
      <trkpt lat="43.00308167" lon="-1.11209">
        <ele>1082.0</ele>
        <time>2019-07-31T15:01:56.109Z</time>
      </trkpt>
      <trkpt lat="43.00307333" lon="-1.11211">
        <ele>1081.0</ele>
        <time>2019-07-31T15:01:57.116Z</time>
      </trkpt>
      <trkpt lat="43.00307" lon="-1.112125">
        <ele>1081.0</ele>
        <time>2019-07-31T15:01:58.122Z</time>
      </trkpt>
      <trkpt lat="43.00307333" lon="-1.11213667">
        <ele>1080.0</ele>
        <time>2019-07-31T15:01:59.128Z</time>
      </trkpt>
      <trkpt lat="43.003075" lon="-1.11215667">
        <ele>1079.0</ele>
        <time>2019-07-31T15:02:00.133Z</time>
      </trkpt>
      <trkpt lat="43.003075" lon="-1.112175">
        <ele>1077.0</ele>
        <time>2019-07-31T15:02:01.136Z</time>
      </trkpt>
      <trkpt lat="43.003075" lon="-1.11219167">
        <ele>1076.0</ele>
        <time>2019-07-31T15:02:02.137Z</time>
      </trkpt>
      <trkpt lat="43.00307167" lon="-1.11221">
        <ele>1076.0</ele>
        <time>2019-07-31T15:02:03.140Z</time>
      </trkpt>
      <trkpt lat="43.003065" lon="-1.11222667">
        <ele>1076.0</ele>
        <time>2019-07-31T15:02:04.143Z</time>
      </trkpt>
      <trkpt lat="43.00305667" lon="-1.11224667">
        <ele>1076.0</ele>
        <time>2019-07-31T15:02:05.145Z</time>
      </trkpt>
      <trkpt lat="43.00306" lon="-1.11226333">
        <ele>1076.0</ele>
        <time>2019-07-31T15:02:06.148Z</time>
      </trkpt>
      <trkpt lat="43.00306" lon="-1.112275">
        <ele>1074.0</ele>
        <time>2019-07-31T15:02:07.155Z</time>
      </trkpt>
      <trkpt lat="43.00305667" lon="-1.11228667">
        <ele>1073.0</ele>
        <time>2019-07-31T15:02:08.161Z</time>
      </trkpt>
      <trkpt lat="43.00305" lon="-1.11230833">
        <ele>1073.0</ele>
        <time>2019-07-31T15:02:09.168Z</time>
      </trkpt>
      <trkpt lat="43.00304833" lon="-1.112325">
        <ele>1072.0</ele>
        <time>2019-07-31T15:02:10.173Z</time>
      </trkpt>
      <trkpt lat="43.00304" lon="-1.11234833">
        <ele>1070.0</ele>
        <time>2019-07-31T15:02:11.179Z</time>
      </trkpt>
      <trkpt lat="43.00303333" lon="-1.112375">
        <ele>1069.0</ele>
        <time>2019-07-31T15:02:12.183Z</time>
      </trkpt>
      <trkpt lat="43.00303167" lon="-1.11239">
        <ele>1070.0</ele>
        <time>2019-07-31T15:02:13.063Z</time>
      </trkpt>
      <trkpt lat="43.00303" lon="-1.11240833">
        <ele>1071.0</ele>
        <time>2019-07-31T15:02:14.069Z</time>
      </trkpt>
      <trkpt lat="43.00302833" lon="-1.112415">
        <ele>1072.0</ele>
        <time>2019-07-31T15:02:15.074Z</time>
      </trkpt>
      <trkpt lat="43.00302667" lon="-1.11243667">
        <ele>1071.0</ele>
        <time>2019-07-31T15:02:16.080Z</time>
      </trkpt>
      <trkpt lat="43.00302333" lon="-1.11244667">
        <ele>1070.0</ele>
        <time>2019-07-31T15:02:17.086Z</time>
      </trkpt>
      <trkpt lat="43.00303" lon="-1.112455">
        <ele>1070.0</ele>
        <time>2019-07-31T15:02:18.089Z</time>
      </trkpt>
      <trkpt lat="43.00303833" lon="-1.11246833">
        <ele>1070.0</ele>
        <time>2019-07-31T15:02:19.093Z</time>
      </trkpt>
      <trkpt lat="43.003045" lon="-1.11248167">
        <ele>1070.0</ele>
        <time>2019-07-31T15:02:20.099Z</time>
      </trkpt>
      <trkpt lat="43.00304833" lon="-1.112495">
        <ele>1070.0</ele>
        <time>2019-07-31T15:02:21.104Z</time>
      </trkpt>
      <trkpt lat="43.00304833" lon="-1.11250167">
        <ele>1069.0</ele>
        <time>2019-07-31T15:02:22.109Z</time>
      </trkpt>
      <trkpt lat="43.00304167" lon="-1.112515">
        <ele>1069.0</ele>
        <time>2019-07-31T15:02:23.115Z</time>
      </trkpt>
      <trkpt lat="43.00303667" lon="-1.11251833">
        <ele>1069.0</ele>
        <time>2019-07-31T15:02:24.121Z</time>
      </trkpt>
      <trkpt lat="43.00303333" lon="-1.11251833">
        <ele>1069.0</ele>
        <time>2019-07-31T15:02:25.127Z</time>
      </trkpt>
      <trkpt lat="43.003035" lon="-1.11251667">
        <ele>1069.0</ele>
        <time>2019-07-31T15:02:26.133Z</time>
      </trkpt>
      <trkpt lat="43.00303667" lon="-1.11251667">
        <ele>1069.0</ele>
        <time>2019-07-31T15:02:27.138Z</time>
      </trkpt>
      <trkpt lat="43.00303667" lon="-1.11252">
        <ele>1069.0</ele>
        <time>2019-07-31T15:02:28.142Z</time>
      </trkpt>
      <trkpt lat="43.00303167" lon="-1.112525">
        <ele>1069.0</ele>
        <time>2019-07-31T15:02:29.148Z</time>
      </trkpt>
      <trkpt lat="43.00302667" lon="-1.11252833">
        <ele>1069.0</ele>
        <time>2019-07-31T15:02:30.154Z</time>
      </trkpt>
      <trkpt lat="43.00301833" lon="-1.11253667">
        <ele>1069.0</ele>
        <time>2019-07-31T15:02:31.160Z</time>
      </trkpt>
      <trkpt lat="43.00301" lon="-1.112545">
        <ele>1069.0</ele>
        <time>2019-07-31T15:02:32.164Z</time>
      </trkpt>
      <trkpt lat="43.003005" lon="-1.112555">
        <ele>1069.0</ele>
        <time>2019-07-31T15:02:33.170Z</time>
      </trkpt>
      <trkpt lat="43.003005" lon="-1.11256167">
        <ele>1069.0</ele>
        <time>2019-07-31T15:02:34.174Z</time>
      </trkpt>
      <trkpt lat="43.00300333" lon="-1.11257">
        <ele>1069.0</ele>
        <time>2019-07-31T15:02:35.177Z</time>
      </trkpt>
      <trkpt lat="43.003" lon="-1.11258333">
        <ele>1069.0</ele>
        <time>2019-07-31T15:02:36.184Z</time>
      </trkpt>
      <trkpt lat="43.00299833" lon="-1.11259167">
        <ele>1070.0</ele>
        <time>2019-07-31T15:02:37.064Z</time>
      </trkpt>
      <trkpt lat="43.00299333" lon="-1.11259667">
        <ele>1071.0</ele>
        <time>2019-07-31T15:02:38.069Z</time>
      </trkpt>
      <trkpt lat="43.00299" lon="-1.11259833">
        <ele>1071.0</ele>
        <time>2019-07-31T15:02:39.075Z</time>
      </trkpt>
      <trkpt lat="43.002985" lon="-1.11259833">
        <ele>1072.0</ele>
        <time>2019-07-31T15:02:40.081Z</time>
      </trkpt>
      <trkpt lat="43.00298167" lon="-1.11260333">
        <ele>1074.0</ele>
        <time>2019-07-31T15:02:41.085Z</time>
      </trkpt>
      <trkpt lat="43.002975" lon="-1.11261167">
        <ele>1075.0</ele>
        <time>2019-07-31T15:02:42.090Z</time>
      </trkpt>
      <trkpt lat="43.002975" lon="-1.11262">
        <ele>1076.0</ele>
        <time>2019-07-31T15:02:43.092Z</time>
      </trkpt>
      <trkpt lat="43.00297333" lon="-1.11262833">
        <ele>1076.0</ele>
        <time>2019-07-31T15:02:44.097Z</time>
      </trkpt>
      <trkpt lat="43.00296833" lon="-1.11263667">
        <ele>1077.0</ele>
        <time>2019-07-31T15:02:45.103Z</time>
      </trkpt>
      <trkpt lat="43.00296333" lon="-1.11264">
        <ele>1077.0</ele>
        <time>2019-07-31T15:02:46.109Z</time>
      </trkpt>
      <trkpt lat="43.00295667" lon="-1.11265167">
        <ele>1078.0</ele>
        <time>2019-07-31T15:02:47.115Z</time>
      </trkpt>
      <trkpt lat="43.00295333" lon="-1.11265667">
        <ele>1078.0</ele>
        <time>2019-07-31T15:02:48.119Z</time>
      </trkpt>
      <trkpt lat="43.00295833" lon="-1.112655">
        <ele>1078.0</ele>
        <time>2019-07-31T15:02:49.126Z</time>
      </trkpt>
      <trkpt lat="43.00296" lon="-1.11266333">
        <ele>1078.0</ele>
        <time>2019-07-31T15:02:50.132Z</time>
      </trkpt>
      <trkpt lat="43.00296" lon="-1.11267">
        <ele>1078.0</ele>
        <time>2019-07-31T15:02:51.137Z</time>
      </trkpt>
      <trkpt lat="43.00296167" lon="-1.11268333">
        <ele>1078.0</ele>
        <time>2019-07-31T15:02:52.141Z</time>
      </trkpt>
      <trkpt lat="43.00296167" lon="-1.11269333">
        <ele>1079.0</ele>
        <time>2019-07-31T15:02:53.146Z</time>
      </trkpt>
      <trkpt lat="43.00296" lon="-1.11270667">
        <ele>1080.0</ele>
        <time>2019-07-31T15:02:54.151Z</time>
      </trkpt>
      <trkpt lat="43.002955" lon="-1.11272">
        <ele>1081.0</ele>
        <time>2019-07-31T15:02:55.157Z</time>
      </trkpt>
      <trkpt lat="43.00295167" lon="-1.11273333">
        <ele>1083.0</ele>
        <time>2019-07-31T15:02:56.162Z</time>
      </trkpt>
      <trkpt lat="43.002945" lon="-1.112745">
        <ele>1084.0</ele>
        <time>2019-07-31T15:02:57.169Z</time>
      </trkpt>
      <trkpt lat="43.002935" lon="-1.11276667">
        <ele>1085.0</ele>
        <time>2019-07-31T15:02:58.174Z</time>
      </trkpt>
      <trkpt lat="43.00293667" lon="-1.112785">
        <ele>1086.0</ele>
        <time>2019-07-31T15:02:59.178Z</time>
      </trkpt>
      <trkpt lat="43.00294333" lon="-1.11279833">
        <ele>1086.0</ele>
        <time>2019-07-31T15:03:00.183Z</time>
      </trkpt>
      <trkpt lat="43.00295167" lon="-1.11281833">
        <ele>1086.0</ele>
        <time>2019-07-31T15:03:01.064Z</time>
      </trkpt>
      <trkpt lat="43.00295667" lon="-1.11283333">
        <ele>1085.0</ele>
        <time>2019-07-31T15:03:02.070Z</time>
      </trkpt>
      <trkpt lat="43.00295667" lon="-1.11285333">
        <ele>1085.0</ele>
        <time>2019-07-31T15:03:03.076Z</time>
      </trkpt>
      <trkpt lat="43.00295667" lon="-1.112865">
        <ele>1085.0</ele>
        <time>2019-07-31T15:03:04.080Z</time>
      </trkpt>
      <trkpt lat="43.002955" lon="-1.112885">
        <ele>1085.0</ele>
        <time>2019-07-31T15:03:05.086Z</time>
      </trkpt>
      <trkpt lat="43.00295333" lon="-1.11290167">
        <ele>1084.0</ele>
        <time>2019-07-31T15:03:06.091Z</time>
      </trkpt>
      <trkpt lat="43.00295167" lon="-1.11291333">
        <ele>1084.0</ele>
        <time>2019-07-31T15:03:07.096Z</time>
      </trkpt>
      <trkpt lat="43.00295167" lon="-1.112925">
        <ele>1083.0</ele>
        <time>2019-07-31T15:03:08.101Z</time>
      </trkpt>
      <trkpt lat="43.00295" lon="-1.11294">
        <ele>1083.0</ele>
        <time>2019-07-31T15:03:09.105Z</time>
      </trkpt>
      <trkpt lat="43.00295333" lon="-1.11295333">
        <ele>1082.0</ele>
        <time>2019-07-31T15:03:10.109Z</time>
      </trkpt>
      <trkpt lat="43.00295667" lon="-1.11296667">
        <ele>1079.0</ele>
        <time>2019-07-31T15:03:11.116Z</time>
      </trkpt>
      <trkpt lat="43.00296" lon="-1.11297167">
        <ele>1077.0</ele>
        <time>2019-07-31T15:03:12.123Z</time>
      </trkpt>
      <trkpt lat="43.00296167" lon="-1.11297667">
        <ele>1076.0</ele>
        <time>2019-07-31T15:03:13.126Z</time>
      </trkpt>
      <trkpt lat="43.002965" lon="-1.11298">
        <ele>1076.0</ele>
        <time>2019-07-31T15:03:14.130Z</time>
      </trkpt>
      <trkpt lat="43.00297" lon="-1.11298667">
        <ele>1076.0</ele>
        <time>2019-07-31T15:03:15.135Z</time>
      </trkpt>
      <trkpt lat="43.00297333" lon="-1.11299">
        <ele>1075.0</ele>
        <time>2019-07-31T15:03:16.140Z</time>
      </trkpt>
      <trkpt lat="43.00297167" lon="-1.11299667">
        <ele>1074.0</ele>
        <time>2019-07-31T15:03:17.145Z</time>
      </trkpt>
      <trkpt lat="43.00296667" lon="-1.11300667">
        <ele>1073.0</ele>
        <time>2019-07-31T15:03:18.151Z</time>
      </trkpt>
      <trkpt lat="43.002965" lon="-1.11302333">
        <ele>1073.0</ele>
        <time>2019-07-31T15:03:19.158Z</time>
      </trkpt>
      <trkpt lat="43.002965" lon="-1.11304667">
        <ele>1074.0</ele>
        <time>2019-07-31T15:03:20.164Z</time>
      </trkpt>
      <trkpt lat="43.00296667" lon="-1.113065">
        <ele>1074.0</ele>
        <time>2019-07-31T15:03:21.170Z</time>
      </trkpt>
      <trkpt lat="43.002965" lon="-1.11308833">
        <ele>1073.0</ele>
        <time>2019-07-31T15:03:22.176Z</time>
      </trkpt>
      <trkpt lat="43.00296667" lon="-1.11311333">
        <ele>1073.0</ele>
        <time>2019-07-31T15:03:23.181Z</time>
      </trkpt>
      <trkpt lat="43.00297" lon="-1.11314">
        <ele>1072.0</ele>
        <time>2019-07-31T15:03:24.186Z</time>
      </trkpt>
      <trkpt lat="43.00297667" lon="-1.11315667">
        <ele>1072.0</ele>
        <time>2019-07-31T15:03:25.065Z</time>
      </trkpt>
      <trkpt lat="43.00297833" lon="-1.11317667">
        <ele>1072.0</ele>
        <time>2019-07-31T15:03:26.072Z</time>
      </trkpt>
      <trkpt lat="43.00298" lon="-1.11319667">
        <ele>1072.0</ele>
        <time>2019-07-31T15:03:27.080Z</time>
      </trkpt>
      <trkpt lat="43.00298167" lon="-1.11321833">
        <ele>1071.0</ele>
        <time>2019-07-31T15:03:28.087Z</time>
      </trkpt>
      <trkpt lat="43.00298667" lon="-1.11323">
        <ele>1071.0</ele>
        <time>2019-07-31T15:03:29.091Z</time>
      </trkpt>
      <trkpt lat="43.002995" lon="-1.11324333">
        <ele>1071.0</ele>
        <time>2019-07-31T15:03:30.095Z</time>
      </trkpt>
      <trkpt lat="43.00300667" lon="-1.11324667">
        <ele>1071.0</ele>
        <time>2019-07-31T15:03:31.099Z</time>
      </trkpt>
      <trkpt lat="43.003015" lon="-1.113255">
        <ele>1070.0</ele>
        <time>2019-07-31T15:03:32.106Z</time>
      </trkpt>
      <trkpt lat="43.00301333" lon="-1.11328">
        <ele>1069.0</ele>
        <time>2019-07-31T15:03:33.112Z</time>
      </trkpt>
      <trkpt lat="43.00301333" lon="-1.11329833">
        <ele>1069.0</ele>
        <time>2019-07-31T15:03:34.116Z</time>
      </trkpt>
      <trkpt lat="43.00301833" lon="-1.11330833">
        <ele>1069.0</ele>
        <time>2019-07-31T15:03:35.121Z</time>
      </trkpt>
      <trkpt lat="43.003025" lon="-1.113305">
        <ele>1070.0</ele>
        <time>2019-07-31T15:03:36.125Z</time>
      </trkpt>
      <trkpt lat="43.00302667" lon="-1.11331">
        <ele>1069.0</ele>
        <time>2019-07-31T15:03:37.130Z</time>
      </trkpt>
      <trkpt lat="43.00302333" lon="-1.11332167">
        <ele>1069.0</ele>
        <time>2019-07-31T15:03:38.134Z</time>
      </trkpt>
      <trkpt lat="43.00302333" lon="-1.11333333">
        <ele>1069.0</ele>
        <time>2019-07-31T15:03:39.139Z</time>
      </trkpt>
      <trkpt lat="43.00302333" lon="-1.11333667">
        <ele>1069.0</ele>
        <time>2019-07-31T15:03:40.145Z</time>
      </trkpt>
      <trkpt lat="43.00301833" lon="-1.11334">
        <ele>1069.0</ele>
        <time>2019-07-31T15:03:41.152Z</time>
      </trkpt>
      <trkpt lat="43.00302" lon="-1.11335167">
        <ele>1069.0</ele>
        <time>2019-07-31T15:03:42.157Z</time>
      </trkpt>
      <trkpt lat="43.00302333" lon="-1.11336333">
        <ele>1069.0</ele>
        <time>2019-07-31T15:03:43.162Z</time>
      </trkpt>
      <trkpt lat="43.003025" lon="-1.11337167">
        <ele>1068.0</ele>
        <time>2019-07-31T15:03:44.166Z</time>
      </trkpt>
      <trkpt lat="43.00302833" lon="-1.11338">
        <ele>1068.0</ele>
        <time>2019-07-31T15:03:45.172Z</time>
      </trkpt>
      <trkpt lat="43.00303" lon="-1.11339333">
        <ele>1067.0</ele>
        <time>2019-07-31T15:03:46.176Z</time>
      </trkpt>
      <trkpt lat="43.00303167" lon="-1.11340833">
        <ele>1067.0</ele>
        <time>2019-07-31T15:03:47.182Z</time>
      </trkpt>
      <trkpt lat="43.00303333" lon="-1.11342">
        <ele>1068.0</ele>
        <time>2019-07-31T15:03:48.063Z</time>
      </trkpt>
      <trkpt lat="43.003035" lon="-1.11343333">
        <ele>1067.0</ele>
        <time>2019-07-31T15:03:49.070Z</time>
      </trkpt>
      <trkpt lat="43.00304" lon="-1.11344167">
        <ele>1068.0</ele>
        <time>2019-07-31T15:03:50.078Z</time>
      </trkpt>
      <trkpt lat="43.00303833" lon="-1.11345167">
        <ele>1068.0</ele>
        <time>2019-07-31T15:03:51.083Z</time>
      </trkpt>
      <trkpt lat="43.00303833" lon="-1.11346667">
        <ele>1068.0</ele>
        <time>2019-07-31T15:03:52.089Z</time>
      </trkpt>
      <trkpt lat="43.00303667" lon="-1.113485">
        <ele>1068.0</ele>
        <time>2019-07-31T15:03:53.094Z</time>
      </trkpt>
      <trkpt lat="43.003035" lon="-1.1135">
        <ele>1068.0</ele>
        <time>2019-07-31T15:03:54.098Z</time>
      </trkpt>
      <trkpt lat="43.003035" lon="-1.11351333">
        <ele>1067.0</ele>
        <time>2019-07-31T15:03:55.102Z</time>
      </trkpt>
      <trkpt lat="43.00303667" lon="-1.11352833">
        <ele>1067.0</ele>
        <time>2019-07-31T15:03:56.105Z</time>
      </trkpt>
      <trkpt lat="43.00303833" lon="-1.11353833">
        <ele>1067.0</ele>
        <time>2019-07-31T15:03:57.108Z</time>
      </trkpt>
      <trkpt lat="43.00304167" lon="-1.113545">
        <ele>1068.0</ele>
        <time>2019-07-31T15:03:58.112Z</time>
      </trkpt>
      <trkpt lat="43.003045" lon="-1.11355833">
        <ele>1068.0</ele>
        <time>2019-07-31T15:03:59.115Z</time>
      </trkpt>
      <trkpt lat="43.00304667" lon="-1.11356333">
        <ele>1068.0</ele>
        <time>2019-07-31T15:04:00.121Z</time>
      </trkpt>
      <trkpt lat="43.00305" lon="-1.11356667">
        <ele>1068.0</ele>
        <time>2019-07-31T15:04:01.128Z</time>
      </trkpt>
      <trkpt lat="43.00305" lon="-1.113565">
        <ele>1067.0</ele>
        <time>2019-07-31T15:04:02.134Z</time>
      </trkpt>
      <trkpt lat="43.00305333" lon="-1.11357">
        <ele>1067.0</ele>
        <time>2019-07-31T15:04:03.139Z</time>
      </trkpt>
      <trkpt lat="43.00305667" lon="-1.113575">
        <ele>1066.0</ele>
        <time>2019-07-31T15:04:04.145Z</time>
      </trkpt>
      <trkpt lat="43.00306" lon="-1.11357333">
        <ele>1065.0</ele>
        <time>2019-07-31T15:04:05.151Z</time>
      </trkpt>
      <trkpt lat="43.00306333" lon="-1.11357333">
        <ele>1065.0</ele>
        <time>2019-07-31T15:04:06.158Z</time>
      </trkpt>
      <trkpt lat="43.00307" lon="-1.11357167">
        <ele>1065.0</ele>
        <time>2019-07-31T15:04:07.163Z</time>
      </trkpt>
      <trkpt lat="43.00306833" lon="-1.11357167">
        <ele>1065.0</ele>
        <time>2019-07-31T15:04:08.167Z</time>
      </trkpt>
      <trkpt lat="43.003065" lon="-1.11357167">
        <ele>1065.0</ele>
        <time>2019-07-31T15:04:09.173Z</time>
      </trkpt>
      <trkpt lat="43.00306" lon="-1.113575">
        <ele>1064.0</ele>
        <time>2019-07-31T15:04:10.177Z</time>
      </trkpt>
      <trkpt lat="43.00306" lon="-1.11357667">
        <ele>1063.0</ele>
        <time>2019-07-31T15:04:11.184Z</time>
      </trkpt>
      <trkpt lat="43.00306167" lon="-1.11358833">
        <ele>1062.0</ele>
        <time>2019-07-31T15:04:12.064Z</time>
      </trkpt>
      <trkpt lat="43.00306333" lon="-1.11359">
        <ele>1062.0</ele>
        <time>2019-07-31T15:04:13.071Z</time>
      </trkpt>
      <trkpt lat="43.00306667" lon="-1.11359">
        <ele>1063.0</ele>
        <time>2019-07-31T15:04:14.078Z</time>
      </trkpt>
      <trkpt lat="43.00307" lon="-1.11358667">
        <ele>1063.0</ele>
        <time>2019-07-31T15:04:15.086Z</time>
      </trkpt>
      <trkpt lat="43.00306667" lon="-1.11358833">
        <ele>1062.0</ele>
        <time>2019-07-31T15:04:16.091Z</time>
      </trkpt>
      <trkpt lat="43.003065" lon="-1.11358833">
        <ele>1062.0</ele>
        <time>2019-07-31T15:04:17.094Z</time>
      </trkpt>
      <trkpt lat="43.003065" lon="-1.11359167">
        <ele>1062.0</ele>
        <time>2019-07-31T15:04:18.099Z</time>
      </trkpt>
      <trkpt lat="43.003065" lon="-1.113595">
        <ele>1062.0</ele>
        <time>2019-07-31T15:04:19.104Z</time>
      </trkpt>
      <trkpt lat="43.003065" lon="-1.113605">
        <ele>1062.0</ele>
        <time>2019-07-31T15:04:20.110Z</time>
      </trkpt>
      <trkpt lat="43.003065" lon="-1.11361833">
        <ele>1062.0</ele>
        <time>2019-07-31T15:04:21.115Z</time>
      </trkpt>
      <trkpt lat="43.00306333" lon="-1.113635">
        <ele>1062.0</ele>
        <time>2019-07-31T15:04:22.122Z</time>
      </trkpt>
      <trkpt lat="43.003065" lon="-1.113655">
        <ele>1063.0</ele>
        <time>2019-07-31T15:04:23.128Z</time>
      </trkpt>
      <trkpt lat="43.00306333" lon="-1.113675">
        <ele>1063.0</ele>
        <time>2019-07-31T15:04:24.133Z</time>
      </trkpt>
      <trkpt lat="43.00306333" lon="-1.11369667">
        <ele>1063.0</ele>
        <time>2019-07-31T15:04:25.139Z</time>
      </trkpt>
      <trkpt lat="43.00306333" lon="-1.11371333">
        <ele>1063.0</ele>
        <time>2019-07-31T15:04:26.144Z</time>
      </trkpt>
      <trkpt lat="43.00306333" lon="-1.11373">
        <ele>1063.0</ele>
        <time>2019-07-31T15:04:27.150Z</time>
      </trkpt>
      <trkpt lat="43.00306333" lon="-1.11375">
        <ele>1063.0</ele>
        <time>2019-07-31T15:04:28.154Z</time>
      </trkpt>
      <trkpt lat="43.00306833" lon="-1.11377333">
        <ele>1064.0</ele>
        <time>2019-07-31T15:04:29.159Z</time>
      </trkpt>
      <trkpt lat="43.00307" lon="-1.11379333">
        <ele>1065.0</ele>
        <time>2019-07-31T15:04:30.165Z</time>
      </trkpt>
      <trkpt lat="43.00307" lon="-1.11380667">
        <ele>1065.0</ele>
        <time>2019-07-31T15:04:31.173Z</time>
      </trkpt>
      <trkpt lat="43.00307167" lon="-1.11381667">
        <ele>1065.0</ele>
        <time>2019-07-31T15:04:32.176Z</time>
      </trkpt>
      <trkpt lat="43.003075" lon="-1.113825">
        <ele>1064.0</ele>
        <time>2019-07-31T15:04:33.182Z</time>
      </trkpt>
      <trkpt lat="43.00308" lon="-1.113835">
        <ele>1064.0</ele>
        <time>2019-07-31T15:04:34.063Z</time>
      </trkpt>
      <trkpt lat="43.00308167" lon="-1.11385667">
        <ele>1063.0</ele>
        <time>2019-07-31T15:04:35.069Z</time>
      </trkpt>
      <trkpt lat="43.00308667" lon="-1.113875">
        <ele>1063.0</ele>
        <time>2019-07-31T15:04:36.076Z</time>
      </trkpt>
      <trkpt lat="43.003095" lon="-1.11388667">
        <ele>1063.0</ele>
        <time>2019-07-31T15:04:37.082Z</time>
      </trkpt>
      <trkpt lat="43.00309667" lon="-1.11390167">
        <ele>1063.0</ele>
        <time>2019-07-31T15:04:38.087Z</time>
      </trkpt>
      <trkpt lat="43.0031" lon="-1.11390833">
        <ele>1063.0</ele>
        <time>2019-07-31T15:04:39.093Z</time>
      </trkpt>
      <trkpt lat="43.00310167" lon="-1.11389833">
        <ele>1064.0</ele>
        <time>2019-07-31T15:04:40.098Z</time>
      </trkpt>
      <trkpt lat="43.00310333" lon="-1.113895">
        <ele>1064.0</ele>
        <time>2019-07-31T15:04:41.104Z</time>
      </trkpt>
      <trkpt lat="43.0031" lon="-1.11389167">
        <ele>1062.0</ele>
        <time>2019-07-31T15:04:42.111Z</time>
      </trkpt>
      <trkpt lat="43.00310667" lon="-1.11389">
        <ele>1061.0</ele>
        <time>2019-07-31T15:04:43.117Z</time>
      </trkpt>
      <trkpt lat="43.00311" lon="-1.1139">
        <ele>1061.0</ele>
        <time>2019-07-31T15:04:44.121Z</time>
      </trkpt>
      <trkpt lat="43.00311333" lon="-1.11390833">
        <ele>1061.0</ele>
        <time>2019-07-31T15:04:45.127Z</time>
      </trkpt>
      <trkpt lat="43.00311833" lon="-1.11392">
        <ele>1061.0</ele>
        <time>2019-07-31T15:04:46.131Z</time>
      </trkpt>
      <trkpt lat="43.00312333" lon="-1.11393333">
        <ele>1061.0</ele>
        <time>2019-07-31T15:04:47.134Z</time>
      </trkpt>
      <trkpt lat="43.00312333" lon="-1.11395">
        <ele>1062.0</ele>
        <time>2019-07-31T15:04:48.139Z</time>
      </trkpt>
      <trkpt lat="43.003125" lon="-1.11396167">
        <ele>1062.0</ele>
        <time>2019-07-31T15:04:49.146Z</time>
      </trkpt>
      <trkpt lat="43.00312833" lon="-1.11397">
        <ele>1061.0</ele>
        <time>2019-07-31T15:04:50.152Z</time>
      </trkpt>
      <trkpt lat="43.00313" lon="-1.11397833">
        <ele>1061.0</ele>
        <time>2019-07-31T15:04:51.157Z</time>
      </trkpt>
      <trkpt lat="43.00312833" lon="-1.11398667">
        <ele>1061.0</ele>
        <time>2019-07-31T15:04:52.165Z</time>
      </trkpt>
      <trkpt lat="43.00313" lon="-1.11399833">
        <ele>1061.0</ele>
        <time>2019-07-31T15:04:53.170Z</time>
      </trkpt>
      <trkpt lat="43.00312833" lon="-1.11400833">
        <ele>1062.0</ele>
        <time>2019-07-31T15:04:54.175Z</time>
      </trkpt>
      <trkpt lat="43.00313" lon="-1.11402333">
        <ele>1062.0</ele>
        <time>2019-07-31T15:04:55.180Z</time>
      </trkpt>
      <trkpt lat="43.00313167" lon="-1.11404333">
        <ele>1062.0</ele>
        <time>2019-07-31T15:04:56.185Z</time>
      </trkpt>
      <trkpt lat="43.003135" lon="-1.11406167">
        <ele>1062.0</ele>
        <time>2019-07-31T15:04:57.066Z</time>
      </trkpt>
      <trkpt lat="43.003135" lon="-1.11408167">
        <ele>1063.0</ele>
        <time>2019-07-31T15:04:58.071Z</time>
      </trkpt>
      <trkpt lat="43.003135" lon="-1.11410333">
        <ele>1064.0</ele>
        <time>2019-07-31T15:04:59.077Z</time>
      </trkpt>
      <trkpt lat="43.00313833" lon="-1.11412333">
        <ele>1065.0</ele>
        <time>2019-07-31T15:05:00.084Z</time>
      </trkpt>
      <trkpt lat="43.00314" lon="-1.11414">
        <ele>1065.0</ele>
        <time>2019-07-31T15:05:01.091Z</time>
      </trkpt>
      <trkpt lat="43.00314" lon="-1.11416333">
        <ele>1066.0</ele>
        <time>2019-07-31T15:05:02.095Z</time>
      </trkpt>
      <trkpt lat="43.00313667" lon="-1.114185">
        <ele>1066.0</ele>
        <time>2019-07-31T15:05:03.101Z</time>
      </trkpt>
      <trkpt lat="43.00313333" lon="-1.11419667">
        <ele>1066.0</ele>
        <time>2019-07-31T15:05:04.107Z</time>
      </trkpt>
      <trkpt lat="43.00313" lon="-1.11421333">
        <ele>1066.0</ele>
        <time>2019-07-31T15:05:05.112Z</time>
      </trkpt>
      <trkpt lat="43.00312667" lon="-1.114235">
        <ele>1066.0</ele>
        <time>2019-07-31T15:05:06.119Z</time>
      </trkpt>
      <trkpt lat="43.00312333" lon="-1.11425833">
        <ele>1067.0</ele>
        <time>2019-07-31T15:05:07.123Z</time>
      </trkpt>
      <trkpt lat="43.00311667" lon="-1.114275">
        <ele>1067.0</ele>
        <time>2019-07-31T15:05:08.129Z</time>
      </trkpt>
      <trkpt lat="43.00311" lon="-1.11429333">
        <ele>1067.0</ele>
        <time>2019-07-31T15:05:09.134Z</time>
      </trkpt>
      <trkpt lat="43.00310667" lon="-1.11429833">
        <ele>1067.0</ele>
        <time>2019-07-31T15:05:10.140Z</time>
      </trkpt>
      <trkpt lat="43.00310333" lon="-1.11430833">
        <ele>1067.0</ele>
        <time>2019-07-31T15:05:11.147Z</time>
      </trkpt>
      <trkpt lat="43.00309833" lon="-1.114325">
        <ele>1067.0</ele>
        <time>2019-07-31T15:05:12.152Z</time>
      </trkpt>
      <trkpt lat="43.0031" lon="-1.11433333">
        <ele>1065.0</ele>
        <time>2019-07-31T15:05:13.157Z</time>
      </trkpt>
      <trkpt lat="43.00310667" lon="-1.11435">
        <ele>1063.0</ele>
        <time>2019-07-31T15:05:14.161Z</time>
      </trkpt>
      <trkpt lat="43.00310833" lon="-1.11437">
        <ele>1062.0</ele>
        <time>2019-07-31T15:05:15.165Z</time>
      </trkpt>
      <trkpt lat="43.00311167" lon="-1.11438167">
        <ele>1061.0</ele>
        <time>2019-07-31T15:05:16.169Z</time>
      </trkpt>
      <trkpt lat="43.00311833" lon="-1.11440333">
        <ele>1062.0</ele>
        <time>2019-07-31T15:05:17.175Z</time>
      </trkpt>
      <trkpt lat="43.003125" lon="-1.11443333">
        <ele>1064.0</ele>
        <time>2019-07-31T15:05:18.178Z</time>
      </trkpt>
      <trkpt lat="43.00311667" lon="-1.114465">
        <ele>1063.0</ele>
        <time>2019-07-31T15:05:19.061Z</time>
      </trkpt>
      <trkpt lat="43.00311833" lon="-1.11449333">
        <ele>1064.0</ele>
        <time>2019-07-31T15:05:20.069Z</time>
      </trkpt>
      <trkpt lat="43.00312167" lon="-1.11452333">
        <ele>1066.0</ele>
        <time>2019-07-31T15:05:21.074Z</time>
      </trkpt>
      <trkpt lat="43.00312167" lon="-1.11456167">
        <ele>1067.0</ele>
        <time>2019-07-31T15:05:22.079Z</time>
      </trkpt>
      <trkpt lat="43.00312" lon="-1.11458667">
        <ele>1066.0</ele>
        <time>2019-07-31T15:05:23.084Z</time>
      </trkpt>
      <trkpt lat="43.00311667" lon="-1.11460833">
        <ele>1066.0</ele>
        <time>2019-07-31T15:05:24.090Z</time>
      </trkpt>
      <trkpt lat="43.00311667" lon="-1.114615">
        <ele>1067.0</ele>
        <time>2019-07-31T15:05:25.095Z</time>
      </trkpt>
      <trkpt lat="43.00312167" lon="-1.11461333">
        <ele>1066.0</ele>
        <time>2019-07-31T15:05:26.101Z</time>
      </trkpt>
      <trkpt lat="43.003125" lon="-1.11461833">
        <ele>1065.0</ele>
        <time>2019-07-31T15:05:27.108Z</time>
      </trkpt>
      <trkpt lat="43.003125" lon="-1.11463167">
        <ele>1065.0</ele>
        <time>2019-07-31T15:05:28.114Z</time>
      </trkpt>
      <trkpt lat="43.00312667" lon="-1.11463667">
        <ele>1066.0</ele>
        <time>2019-07-31T15:05:29.119Z</time>
      </trkpt>
      <trkpt lat="43.00313" lon="-1.114635">
        <ele>1067.0</ele>
        <time>2019-07-31T15:05:30.126Z</time>
      </trkpt>
      <trkpt lat="43.00312833" lon="-1.11464">
        <ele>1066.0</ele>
        <time>2019-07-31T15:05:31.133Z</time>
      </trkpt>
      <trkpt lat="43.00312833" lon="-1.11463667">
        <ele>1067.0</ele>
        <time>2019-07-31T15:05:32.139Z</time>
      </trkpt>
      <trkpt lat="43.00312833" lon="-1.11464833">
        <ele>1067.0</ele>
        <time>2019-07-31T15:05:33.145Z</time>
      </trkpt>
      <trkpt lat="43.003135" lon="-1.11465167">
        <ele>1068.0</ele>
        <time>2019-07-31T15:05:34.151Z</time>
      </trkpt>
      <trkpt lat="43.00313667" lon="-1.11466">
        <ele>1068.0</ele>
        <time>2019-07-31T15:05:35.159Z</time>
      </trkpt>
      <trkpt lat="43.00314167" lon="-1.11466833">
        <ele>1068.0</ele>
        <time>2019-07-31T15:05:36.164Z</time>
      </trkpt>
      <trkpt lat="43.00314333" lon="-1.11467833">
        <ele>1068.0</ele>
        <time>2019-07-31T15:05:37.170Z</time>
      </trkpt>
      <trkpt lat="43.00314333" lon="-1.114685">
        <ele>1068.0</ele>
        <time>2019-07-31T15:05:38.176Z</time>
      </trkpt>
      <trkpt lat="43.003145" lon="-1.114695">
        <ele>1068.0</ele>
        <time>2019-07-31T15:05:39.182Z</time>
      </trkpt>
      <trkpt lat="43.00314667" lon="-1.11470167">
        <ele>1067.0</ele>
        <time>2019-07-31T15:05:40.063Z</time>
      </trkpt>
      <trkpt lat="43.00314667" lon="-1.11471">
        <ele>1067.0</ele>
        <time>2019-07-31T15:05:41.068Z</time>
      </trkpt>
      <trkpt lat="43.00314833" lon="-1.11471833">
        <ele>1067.0</ele>
        <time>2019-07-31T15:05:42.074Z</time>
      </trkpt>
      <trkpt lat="43.00314667" lon="-1.11473167">
        <ele>1067.0</ele>
        <time>2019-07-31T15:05:43.078Z</time>
      </trkpt>
      <trkpt lat="43.003145" lon="-1.114745">
        <ele>1066.0</ele>
        <time>2019-07-31T15:05:44.086Z</time>
      </trkpt>
      <trkpt lat="43.003145" lon="-1.11476">
        <ele>1066.0</ele>
        <time>2019-07-31T15:05:45.092Z</time>
      </trkpt>
      <trkpt lat="43.003145" lon="-1.11477333">
        <ele>1066.0</ele>
        <time>2019-07-31T15:05:46.097Z</time>
      </trkpt>
      <trkpt lat="43.00314667" lon="-1.114785">
        <ele>1065.0</ele>
        <time>2019-07-31T15:05:47.102Z</time>
      </trkpt>
      <trkpt lat="43.00315" lon="-1.11479667">
        <ele>1065.0</ele>
        <time>2019-07-31T15:05:48.107Z</time>
      </trkpt>
      <trkpt lat="43.00315167" lon="-1.11480833">
        <ele>1065.0</ele>
        <time>2019-07-31T15:05:49.112Z</time>
      </trkpt>
      <trkpt lat="43.003155" lon="-1.11482">
        <ele>1065.0</ele>
        <time>2019-07-31T15:05:50.117Z</time>
      </trkpt>
      <trkpt lat="43.00316" lon="-1.11482667">
        <ele>1065.0</ele>
        <time>2019-07-31T15:05:51.122Z</time>
      </trkpt>
      <trkpt lat="43.00316333" lon="-1.11483833">
        <ele>1065.0</ele>
        <time>2019-07-31T15:05:52.127Z</time>
      </trkpt>
      <trkpt lat="43.00316667" lon="-1.11484833">
        <ele>1065.0</ele>
        <time>2019-07-31T15:05:53.134Z</time>
      </trkpt>
      <trkpt lat="43.00316833" lon="-1.11486">
        <ele>1065.0</ele>
        <time>2019-07-31T15:05:54.140Z</time>
      </trkpt>
      <trkpt lat="43.00316833" lon="-1.11486667">
        <ele>1065.0</ele>
        <time>2019-07-31T15:05:55.146Z</time>
      </trkpt>
      <trkpt lat="43.003165" lon="-1.11487833">
        <ele>1065.0</ele>
        <time>2019-07-31T15:05:56.152Z</time>
      </trkpt>
      <trkpt lat="43.003165" lon="-1.11489167">
        <ele>1065.0</ele>
        <time>2019-07-31T15:05:57.158Z</time>
      </trkpt>
      <trkpt lat="43.00316667" lon="-1.11490667">
        <ele>1065.0</ele>
        <time>2019-07-31T15:05:58.161Z</time>
      </trkpt>
      <trkpt lat="43.00316667" lon="-1.11492333">
        <ele>1064.0</ele>
        <time>2019-07-31T15:05:59.168Z</time>
      </trkpt>
      <trkpt lat="43.003165" lon="-1.11494833">
        <ele>1064.0</ele>
        <time>2019-07-31T15:06:00.173Z</time>
      </trkpt>
      <trkpt lat="43.00317" lon="-1.114955">
        <ele>1063.0</ele>
        <time>2019-07-31T15:06:01.179Z</time>
      </trkpt>
      <trkpt lat="43.00317" lon="-1.11496">
        <ele>1063.0</ele>
        <time>2019-07-31T15:06:02.185Z</time>
      </trkpt>
      <trkpt lat="43.00317333" lon="-1.11496833">
        <ele>1063.0</ele>
        <time>2019-07-31T15:06:03.064Z</time>
      </trkpt>
      <trkpt lat="43.00317833" lon="-1.11498333">
        <ele>1063.0</ele>
        <time>2019-07-31T15:06:04.070Z</time>
      </trkpt>
      <trkpt lat="43.00317833" lon="-1.11499667">
        <ele>1062.0</ele>
        <time>2019-07-31T15:06:05.076Z</time>
      </trkpt>
      <trkpt lat="43.00317333" lon="-1.115015">
        <ele>1060.0</ele>
        <time>2019-07-31T15:06:06.081Z</time>
      </trkpt>
      <trkpt lat="43.00317167" lon="-1.11504">
        <ele>1059.0</ele>
        <time>2019-07-31T15:06:07.087Z</time>
      </trkpt>
      <trkpt lat="43.00317333" lon="-1.11507167">
        <ele>1059.0</ele>
        <time>2019-07-31T15:06:08.092Z</time>
      </trkpt>
      <trkpt lat="43.00317" lon="-1.115105">
        <ele>1059.0</ele>
        <time>2019-07-31T15:06:09.098Z</time>
      </trkpt>
      <trkpt lat="43.00316667" lon="-1.11513">
        <ele>1058.0</ele>
        <time>2019-07-31T15:06:10.106Z</time>
      </trkpt>
      <trkpt lat="43.00316667" lon="-1.11515">
        <ele>1058.0</ele>
        <time>2019-07-31T15:06:11.110Z</time>
      </trkpt>
      <trkpt lat="43.00316833" lon="-1.11516333">
        <ele>1058.0</ele>
        <time>2019-07-31T15:06:12.114Z</time>
      </trkpt>
      <trkpt lat="43.00317" lon="-1.11518833">
        <ele>1059.0</ele>
        <time>2019-07-31T15:06:13.118Z</time>
      </trkpt>
      <trkpt lat="43.00317" lon="-1.11521">
        <ele>1060.0</ele>
        <time>2019-07-31T15:06:14.124Z</time>
      </trkpt>
      <trkpt lat="43.00318167" lon="-1.11522833">
        <ele>1061.0</ele>
        <time>2019-07-31T15:06:15.132Z</time>
      </trkpt>
      <trkpt lat="43.00318667" lon="-1.11524167">
        <ele>1061.0</ele>
        <time>2019-07-31T15:06:16.137Z</time>
      </trkpt>
      <trkpt lat="43.00318833" lon="-1.11526">
        <ele>1060.0</ele>
        <time>2019-07-31T15:06:17.141Z</time>
      </trkpt>
      <trkpt lat="43.00318833" lon="-1.11528167">
        <ele>1059.0</ele>
        <time>2019-07-31T15:06:18.148Z</time>
      </trkpt>
      <trkpt lat="43.00319333" lon="-1.11529667">
        <ele>1058.0</ele>
        <time>2019-07-31T15:06:19.153Z</time>
      </trkpt>
      <trkpt lat="43.00320167" lon="-1.11531">
        <ele>1057.0</ele>
        <time>2019-07-31T15:06:20.159Z</time>
      </trkpt>
      <trkpt lat="43.00320833" lon="-1.11532833">
        <ele>1056.0</ele>
        <time>2019-07-31T15:06:21.165Z</time>
      </trkpt>
      <trkpt lat="43.00321667" lon="-1.11534167">
        <ele>1056.0</ele>
        <time>2019-07-31T15:06:22.167Z</time>
      </trkpt>
      <trkpt lat="43.00322833" lon="-1.11535">
        <ele>1056.0</ele>
        <time>2019-07-31T15:06:23.173Z</time>
      </trkpt>
      <trkpt lat="43.00324167" lon="-1.11535">
        <ele>1056.0</ele>
        <time>2019-07-31T15:06:24.179Z</time>
      </trkpt>
      <trkpt lat="43.003245" lon="-1.11536">
        <ele>1056.0</ele>
        <time>2019-07-31T15:06:25.182Z</time>
      </trkpt>
      <trkpt lat="43.00324167" lon="-1.11537667">
        <ele>1054.0</ele>
        <time>2019-07-31T15:06:26.062Z</time>
      </trkpt>
      <trkpt lat="43.00323833" lon="-1.115395">
        <ele>1053.0</ele>
        <time>2019-07-31T15:06:27.068Z</time>
      </trkpt>
      <trkpt lat="43.00323833" lon="-1.11540667">
        <ele>1052.0</ele>
        <time>2019-07-31T15:06:28.073Z</time>
      </trkpt>
      <trkpt lat="43.00323833" lon="-1.11542333">
        <ele>1051.0</ele>
        <time>2019-07-31T15:06:29.079Z</time>
      </trkpt>
      <trkpt lat="43.00323833" lon="-1.11543167">
        <ele>1053.0</ele>
        <time>2019-07-31T15:06:30.082Z</time>
      </trkpt>
      <trkpt lat="43.00324" lon="-1.11545167">
        <ele>1053.0</ele>
        <time>2019-07-31T15:06:31.089Z</time>
      </trkpt>
      <trkpt lat="43.00324" lon="-1.11546667">
        <ele>1053.0</ele>
        <time>2019-07-31T15:06:32.093Z</time>
      </trkpt>
      <trkpt lat="43.00323833" lon="-1.11548333">
        <ele>1053.0</ele>
        <time>2019-07-31T15:06:33.098Z</time>
      </trkpt>
      <trkpt lat="43.00323667" lon="-1.11549833">
        <ele>1053.0</ele>
        <time>2019-07-31T15:06:34.104Z</time>
      </trkpt>
      <trkpt lat="43.003235" lon="-1.115515">
        <ele>1053.0</ele>
        <time>2019-07-31T15:06:35.110Z</time>
      </trkpt>
      <trkpt lat="43.00323667" lon="-1.11552667">
        <ele>1053.0</ele>
        <time>2019-07-31T15:06:36.112Z</time>
      </trkpt>
      <trkpt lat="43.00323667" lon="-1.11554">
        <ele>1052.0</ele>
        <time>2019-07-31T15:06:37.118Z</time>
      </trkpt>
      <trkpt lat="43.00324" lon="-1.11555333">
        <ele>1052.0</ele>
        <time>2019-07-31T15:06:38.124Z</time>
      </trkpt>
      <trkpt lat="43.00324333" lon="-1.11556333">
        <ele>1051.0</ele>
        <time>2019-07-31T15:06:39.128Z</time>
      </trkpt>
      <trkpt lat="43.003245" lon="-1.115575">
        <ele>1051.0</ele>
        <time>2019-07-31T15:06:40.133Z</time>
      </trkpt>
      <trkpt lat="43.00324667" lon="-1.11558667">
        <ele>1051.0</ele>
        <time>2019-07-31T15:06:41.138Z</time>
      </trkpt>
      <trkpt lat="43.00324167" lon="-1.1156">
        <ele>1052.0</ele>
        <time>2019-07-31T15:06:42.142Z</time>
      </trkpt>
      <trkpt lat="43.00323833" lon="-1.11561333">
        <ele>1052.0</ele>
        <time>2019-07-31T15:06:43.147Z</time>
      </trkpt>
      <trkpt lat="43.00323833" lon="-1.11562667">
        <ele>1052.0</ele>
        <time>2019-07-31T15:06:44.151Z</time>
      </trkpt>
      <trkpt lat="43.00323833" lon="-1.11564167">
        <ele>1052.0</ele>
        <time>2019-07-31T15:06:45.156Z</time>
      </trkpt>
      <trkpt lat="43.00323667" lon="-1.11565667">
        <ele>1053.0</ele>
        <time>2019-07-31T15:06:46.160Z</time>
      </trkpt>
      <trkpt lat="43.00323333" lon="-1.11567167">
        <ele>1053.0</ele>
        <time>2019-07-31T15:06:47.166Z</time>
      </trkpt>
      <trkpt lat="43.00323167" lon="-1.11568667">
        <ele>1053.0</ele>
        <time>2019-07-31T15:06:48.173Z</time>
      </trkpt>
      <trkpt lat="43.00323333" lon="-1.115705">
        <ele>1052.0</ele>
        <time>2019-07-31T15:06:49.179Z</time>
      </trkpt>
      <trkpt lat="43.00323333" lon="-1.11571833">
        <ele>1052.0</ele>
        <time>2019-07-31T15:06:50.186Z</time>
      </trkpt>
      <trkpt lat="43.003235" lon="-1.11573">
        <ele>1052.0</ele>
        <time>2019-07-31T15:06:51.068Z</time>
      </trkpt>
      <trkpt lat="43.00323167" lon="-1.11574333">
        <ele>1052.0</ele>
        <time>2019-07-31T15:06:52.074Z</time>
      </trkpt>
      <trkpt lat="43.00323" lon="-1.115755">
        <ele>1052.0</ele>
        <time>2019-07-31T15:06:53.080Z</time>
      </trkpt>
      <trkpt lat="43.00323" lon="-1.11576833">
        <ele>1051.0</ele>
        <time>2019-07-31T15:06:54.087Z</time>
      </trkpt>
      <trkpt lat="43.00322833" lon="-1.11578333">
        <ele>1051.0</ele>
        <time>2019-07-31T15:06:55.091Z</time>
      </trkpt>
      <trkpt lat="43.00322667" lon="-1.11579667">
        <ele>1050.0</ele>
        <time>2019-07-31T15:06:56.097Z</time>
      </trkpt>
      <trkpt lat="43.003225" lon="-1.11581">
        <ele>1050.0</ele>
        <time>2019-07-31T15:06:57.102Z</time>
      </trkpt>
      <trkpt lat="43.003225" lon="-1.11582167">
        <ele>1050.0</ele>
        <time>2019-07-31T15:06:58.108Z</time>
      </trkpt>
      <trkpt lat="43.00322667" lon="-1.115835">
        <ele>1049.0</ele>
        <time>2019-07-31T15:06:59.113Z</time>
      </trkpt>
      <trkpt lat="43.00323" lon="-1.11585">
        <ele>1049.0</ele>
        <time>2019-07-31T15:07:00.119Z</time>
      </trkpt>
      <trkpt lat="43.003235" lon="-1.11587167">
        <ele>1049.0</ele>
        <time>2019-07-31T15:07:01.124Z</time>
      </trkpt>
      <trkpt lat="43.00323833" lon="-1.11588667">
        <ele>1050.0</ele>
        <time>2019-07-31T15:07:02.131Z</time>
      </trkpt>
      <trkpt lat="43.00324333" lon="-1.11589667">
        <ele>1050.0</ele>
        <time>2019-07-31T15:07:03.135Z</time>
      </trkpt>
      <trkpt lat="43.00324333" lon="-1.11590667">
        <ele>1050.0</ele>
        <time>2019-07-31T15:07:04.141Z</time>
      </trkpt>
      <trkpt lat="43.00324833" lon="-1.11592">
        <ele>1050.0</ele>
        <time>2019-07-31T15:07:05.146Z</time>
      </trkpt>
      <trkpt lat="43.00324667" lon="-1.11593333">
        <ele>1050.0</ele>
        <time>2019-07-31T15:07:06.151Z</time>
      </trkpt>
      <trkpt lat="43.003245" lon="-1.11594833">
        <ele>1051.0</ele>
        <time>2019-07-31T15:07:07.156Z</time>
      </trkpt>
      <trkpt lat="43.00324333" lon="-1.11596">
        <ele>1052.0</ele>
        <time>2019-07-31T15:07:08.161Z</time>
      </trkpt>
      <trkpt lat="43.00323333" lon="-1.11597667">
        <ele>1052.0</ele>
        <time>2019-07-31T15:07:09.167Z</time>
      </trkpt>
      <trkpt lat="43.00322667" lon="-1.115995">
        <ele>1051.0</ele>
        <time>2019-07-31T15:07:10.170Z</time>
      </trkpt>
      <trkpt lat="43.003225" lon="-1.11601333">
        <ele>1051.0</ele>
        <time>2019-07-31T15:07:11.175Z</time>
      </trkpt>
      <trkpt lat="43.00322167" lon="-1.116025">
        <ele>1049.0</ele>
        <time>2019-07-31T15:07:12.179Z</time>
      </trkpt>
      <trkpt lat="43.00322" lon="-1.11602333">
        <ele>1050.0</ele>
        <time>2019-07-31T15:07:13.185Z</time>
      </trkpt>
      <trkpt lat="43.00321667" lon="-1.11602333">
        <ele>1050.0</ele>
        <time>2019-07-31T15:07:14.066Z</time>
      </trkpt>
      <trkpt lat="43.00321833" lon="-1.11603167">
        <ele>1050.0</ele>
        <time>2019-07-31T15:07:15.072Z</time>
      </trkpt>
      <trkpt lat="43.00322" lon="-1.11604833">
        <ele>1048.0</ele>
        <time>2019-07-31T15:07:16.078Z</time>
      </trkpt>
      <trkpt lat="43.00321667" lon="-1.11606167">
        <ele>1047.0</ele>
        <time>2019-07-31T15:07:17.084Z</time>
      </trkpt>
      <trkpt lat="43.00321167" lon="-1.116075">
        <ele>1046.0</ele>
        <time>2019-07-31T15:07:18.090Z</time>
      </trkpt>
      <trkpt lat="43.00320667" lon="-1.116085">
        <ele>1046.0</ele>
        <time>2019-07-31T15:07:19.093Z</time>
      </trkpt>
      <trkpt lat="43.00320167" lon="-1.116095">
        <ele>1045.0</ele>
        <time>2019-07-31T15:07:20.098Z</time>
      </trkpt>
      <trkpt lat="43.00319667" lon="-1.11611">
        <ele>1045.0</ele>
        <time>2019-07-31T15:07:21.105Z</time>
      </trkpt>
      <trkpt lat="43.00319167" lon="-1.11611833">
        <ele>1045.0</ele>
        <time>2019-07-31T15:07:22.111Z</time>
      </trkpt>
      <trkpt lat="43.00318667" lon="-1.116125">
        <ele>1044.0</ele>
        <time>2019-07-31T15:07:23.117Z</time>
      </trkpt>
      <trkpt lat="43.00317833" lon="-1.116135">
        <ele>1044.0</ele>
        <time>2019-07-31T15:07:24.124Z</time>
      </trkpt>
      <trkpt lat="43.00317167" lon="-1.11614833">
        <ele>1043.0</ele>
        <time>2019-07-31T15:07:25.131Z</time>
      </trkpt>
      <trkpt lat="43.003165" lon="-1.11616">
        <ele>1043.0</ele>
        <time>2019-07-31T15:07:26.134Z</time>
      </trkpt>
      <trkpt lat="43.00316" lon="-1.11616833">
        <ele>1042.0</ele>
        <time>2019-07-31T15:07:27.139Z</time>
      </trkpt>
      <trkpt lat="43.00315333" lon="-1.11618167">
        <ele>1041.0</ele>
        <time>2019-07-31T15:07:28.145Z</time>
      </trkpt>
      <trkpt lat="43.00314667" lon="-1.11619167">
        <ele>1041.0</ele>
        <time>2019-07-31T15:07:29.152Z</time>
      </trkpt>
      <trkpt lat="43.00314" lon="-1.11620167">
        <ele>1041.0</ele>
        <time>2019-07-31T15:07:30.159Z</time>
      </trkpt>
      <trkpt lat="43.00313667" lon="-1.11621333">
        <ele>1041.0</ele>
        <time>2019-07-31T15:07:31.164Z</time>
      </trkpt>
      <trkpt lat="43.00313333" lon="-1.11622333">
        <ele>1041.0</ele>
        <time>2019-07-31T15:07:32.169Z</time>
      </trkpt>
      <trkpt lat="43.00312833" lon="-1.116235">
        <ele>1042.0</ele>
        <time>2019-07-31T15:07:33.175Z</time>
      </trkpt>
      <trkpt lat="43.00312167" lon="-1.11623833">
        <ele>1041.0</ele>
        <time>2019-07-31T15:07:34.179Z</time>
      </trkpt>
      <trkpt lat="43.003115" lon="-1.11624">
        <ele>1041.0</ele>
        <time>2019-07-31T15:07:35.183Z</time>
      </trkpt>
      <trkpt lat="43.00310833" lon="-1.11624333">
        <ele>1041.0</ele>
        <time>2019-07-31T15:07:36.063Z</time>
      </trkpt>
      <trkpt lat="43.00310333" lon="-1.11624833">
        <ele>1040.0</ele>
        <time>2019-07-31T15:07:37.070Z</time>
      </trkpt>
      <trkpt lat="43.00309667" lon="-1.11624667">
        <ele>1040.0</ele>
        <time>2019-07-31T15:07:38.075Z</time>
      </trkpt>
      <trkpt lat="43.00309167" lon="-1.11625">
        <ele>1040.0</ele>
        <time>2019-07-31T15:07:39.080Z</time>
      </trkpt>
      <trkpt lat="43.003085" lon="-1.11625">
        <ele>1040.0</ele>
        <time>2019-07-31T15:07:40.085Z</time>
      </trkpt>
      <trkpt lat="43.003075" lon="-1.11625667">
        <ele>1039.0</ele>
        <time>2019-07-31T15:07:41.091Z</time>
      </trkpt>
      <trkpt lat="43.00306333" lon="-1.11626167">
        <ele>1038.0</ele>
        <time>2019-07-31T15:07:42.096Z</time>
      </trkpt>
      <trkpt lat="43.00305333" lon="-1.11626833">
        <ele>1037.0</ele>
        <time>2019-07-31T15:07:43.102Z</time>
      </trkpt>
      <trkpt lat="43.00304833" lon="-1.11627">
        <ele>1037.0</ele>
        <time>2019-07-31T15:07:44.107Z</time>
      </trkpt>
      <trkpt lat="43.00304" lon="-1.11628">
        <ele>1036.0</ele>
        <time>2019-07-31T15:07:45.111Z</time>
      </trkpt>
      <trkpt lat="43.00302833" lon="-1.116295">
        <ele>1036.0</ele>
        <time>2019-07-31T15:07:46.114Z</time>
      </trkpt>
      <trkpt lat="43.003025" lon="-1.11630667">
        <ele>1035.0</ele>
        <time>2019-07-31T15:07:47.120Z</time>
      </trkpt>
      <trkpt lat="43.00302333" lon="-1.11632167">
        <ele>1036.0</ele>
        <time>2019-07-31T15:07:48.124Z</time>
      </trkpt>
      <trkpt lat="43.00302167" lon="-1.11632833">
        <ele>1038.0</ele>
        <time>2019-07-31T15:07:49.131Z</time>
      </trkpt>
      <trkpt lat="43.00301667" lon="-1.11632167">
        <ele>1038.0</ele>
        <time>2019-07-31T15:07:50.136Z</time>
      </trkpt>
      <trkpt lat="43.00301" lon="-1.11632167">
        <ele>1037.0</ele>
        <time>2019-07-31T15:07:51.144Z</time>
      </trkpt>
      <trkpt lat="43.00300833" lon="-1.11633167">
        <ele>1038.0</ele>
        <time>2019-07-31T15:07:52.150Z</time>
      </trkpt>
      <trkpt lat="43.00301" lon="-1.116335">
        <ele>1038.0</ele>
        <time>2019-07-31T15:07:53.156Z</time>
      </trkpt>
      <trkpt lat="43.00301833" lon="-1.11633667">
        <ele>1038.0</ele>
        <time>2019-07-31T15:07:54.162Z</time>
      </trkpt>
      <trkpt lat="43.00301667" lon="-1.11634833">
        <ele>1038.0</ele>
        <time>2019-07-31T15:07:55.169Z</time>
      </trkpt>
      <trkpt lat="43.003" lon="-1.11636667">
        <ele>1038.0</ele>
        <time>2019-07-31T15:07:56.172Z</time>
      </trkpt>
      <trkpt lat="43.00299" lon="-1.11637333">
        <ele>1039.0</ele>
        <time>2019-07-31T15:07:57.177Z</time>
      </trkpt>
      <trkpt lat="43.00297833" lon="-1.116375">
        <ele>1039.0</ele>
        <time>2019-07-31T15:07:58.182Z</time>
      </trkpt>
      <trkpt lat="43.002965" lon="-1.11639333">
        <ele>1039.0</ele>
        <time>2019-07-31T15:07:59.186Z</time>
      </trkpt>
      <trkpt lat="43.00295333" lon="-1.11640833">
        <ele>1038.0</ele>
        <time>2019-07-31T15:08:00.065Z</time>
      </trkpt>
      <trkpt lat="43.00294167" lon="-1.11641667">
        <ele>1038.0</ele>
        <time>2019-07-31T15:08:01.070Z</time>
      </trkpt>
      <trkpt lat="43.00293167" lon="-1.11642833">
        <ele>1038.0</ele>
        <time>2019-07-31T15:08:02.077Z</time>
      </trkpt>
      <trkpt lat="43.002925" lon="-1.11644667">
        <ele>1038.0</ele>
        <time>2019-07-31T15:08:03.083Z</time>
      </trkpt>
      <trkpt lat="43.00291833" lon="-1.11646167">
        <ele>1039.0</ele>
        <time>2019-07-31T15:08:04.088Z</time>
      </trkpt>
      <trkpt lat="43.00291167" lon="-1.11648833">
        <ele>1039.0</ele>
        <time>2019-07-31T15:08:05.092Z</time>
      </trkpt>
      <trkpt lat="43.00290833" lon="-1.11651167">
        <ele>1040.0</ele>
        <time>2019-07-31T15:08:06.096Z</time>
      </trkpt>
      <trkpt lat="43.00290833" lon="-1.11654">
        <ele>1042.0</ele>
        <time>2019-07-31T15:08:07.099Z</time>
      </trkpt>
      <trkpt lat="43.00290667" lon="-1.11656167">
        <ele>1043.0</ele>
        <time>2019-07-31T15:08:08.104Z</time>
      </trkpt>
      <trkpt lat="43.00290167" lon="-1.11658333">
        <ele>1044.0</ele>
        <time>2019-07-31T15:08:09.110Z</time>
      </trkpt>
      <trkpt lat="43.00289667" lon="-1.11660667">
        <ele>1045.0</ele>
        <time>2019-07-31T15:08:10.116Z</time>
      </trkpt>
      <trkpt lat="43.00289333" lon="-1.11662667">
        <ele>1046.0</ele>
        <time>2019-07-31T15:08:11.121Z</time>
      </trkpt>
      <trkpt lat="43.00289167" lon="-1.116635">
        <ele>1046.0</ele>
        <time>2019-07-31T15:08:12.128Z</time>
      </trkpt>
      <trkpt lat="43.00289333" lon="-1.116645">
        <ele>1047.0</ele>
        <time>2019-07-31T15:08:13.132Z</time>
      </trkpt>
      <trkpt lat="43.00289667" lon="-1.11665833">
        <ele>1048.0</ele>
        <time>2019-07-31T15:08:14.137Z</time>
      </trkpt>
      <trkpt lat="43.00289833" lon="-1.11666667">
        <ele>1048.0</ele>
        <time>2019-07-31T15:08:15.143Z</time>
      </trkpt>
      <trkpt lat="43.00289667" lon="-1.11667833">
        <ele>1048.0</ele>
        <time>2019-07-31T15:08:16.148Z</time>
      </trkpt>
      <trkpt lat="43.002895" lon="-1.116695">
        <ele>1048.0</ele>
        <time>2019-07-31T15:08:17.151Z</time>
      </trkpt>
      <trkpt lat="43.00289" lon="-1.11671667">
        <ele>1049.0</ele>
        <time>2019-07-31T15:08:18.156Z</time>
      </trkpt>
      <trkpt lat="43.00289333" lon="-1.11674167">
        <ele>1050.0</ele>
        <time>2019-07-31T15:08:19.162Z</time>
      </trkpt>
      <trkpt lat="43.00289833" lon="-1.11675833">
        <ele>1050.0</ele>
        <time>2019-07-31T15:08:20.167Z</time>
      </trkpt>
      <trkpt lat="43.0029" lon="-1.11677833">
        <ele>1049.0</ele>
        <time>2019-07-31T15:08:21.170Z</time>
      </trkpt>
      <trkpt lat="43.00290667" lon="-1.11679833">
        <ele>1048.0</ele>
        <time>2019-07-31T15:08:22.176Z</time>
      </trkpt>
      <trkpt lat="43.002915" lon="-1.11681667">
        <ele>1047.0</ele>
        <time>2019-07-31T15:08:23.182Z</time>
      </trkpt>
      <trkpt lat="43.00291833" lon="-1.11682833">
        <ele>1046.0</ele>
        <time>2019-07-31T15:08:24.065Z</time>
      </trkpt>
      <trkpt lat="43.00292167" lon="-1.11684167">
        <ele>1045.0</ele>
        <time>2019-07-31T15:08:25.071Z</time>
      </trkpt>
      <trkpt lat="43.00292167" lon="-1.11686333">
        <ele>1045.0</ele>
        <time>2019-07-31T15:08:26.078Z</time>
      </trkpt>
      <trkpt lat="43.002925" lon="-1.11689">
        <ele>1046.0</ele>
        <time>2019-07-31T15:08:27.084Z</time>
      </trkpt>
      <trkpt lat="43.00292667" lon="-1.11692167">
        <ele>1046.0</ele>
        <time>2019-07-31T15:08:28.087Z</time>
      </trkpt>
      <trkpt lat="43.00292167" lon="-1.116945">
        <ele>1046.0</ele>
        <time>2019-07-31T15:08:29.092Z</time>
      </trkpt>
      <trkpt lat="43.00292667" lon="-1.116965">
        <ele>1046.0</ele>
        <time>2019-07-31T15:08:30.093Z</time>
      </trkpt>
      <trkpt lat="43.002935" lon="-1.11698833">
        <ele>1046.0</ele>
        <time>2019-07-31T15:08:31.097Z</time>
      </trkpt>
      <trkpt lat="43.00293833" lon="-1.11701167">
        <ele>1045.0</ele>
        <time>2019-07-31T15:08:32.103Z</time>
      </trkpt>
      <trkpt lat="43.00295167" lon="-1.11703333">
        <ele>1044.0</ele>
        <time>2019-07-31T15:08:33.110Z</time>
      </trkpt>
      <trkpt lat="43.002965" lon="-1.117055">
        <ele>1043.0</ele>
        <time>2019-07-31T15:08:34.114Z</time>
      </trkpt>
      <trkpt lat="43.002975" lon="-1.11708">
        <ele>1042.0</ele>
        <time>2019-07-31T15:08:35.115Z</time>
      </trkpt>
      <trkpt lat="43.00298667" lon="-1.11709167">
        <ele>1042.0</ele>
        <time>2019-07-31T15:08:36.121Z</time>
      </trkpt>
      <trkpt lat="43.00299833" lon="-1.11710833">
        <ele>1042.0</ele>
        <time>2019-07-31T15:08:37.125Z</time>
      </trkpt>
      <trkpt lat="43.00300833" lon="-1.11712333">
        <ele>1043.0</ele>
        <time>2019-07-31T15:08:38.129Z</time>
      </trkpt>
      <trkpt lat="43.00302" lon="-1.11713833">
        <ele>1044.0</ele>
        <time>2019-07-31T15:08:39.131Z</time>
      </trkpt>
      <trkpt lat="43.00302667" lon="-1.11715">
        <ele>1045.0</ele>
        <time>2019-07-31T15:08:40.134Z</time>
      </trkpt>
      <trkpt lat="43.00303" lon="-1.11715667">
        <ele>1045.0</ele>
        <time>2019-07-31T15:08:41.141Z</time>
      </trkpt>
      <trkpt lat="43.00303333" lon="-1.11716167">
        <ele>1045.0</ele>
        <time>2019-07-31T15:08:42.147Z</time>
      </trkpt>
      <trkpt lat="43.00303333" lon="-1.11717833">
        <ele>1046.0</ele>
        <time>2019-07-31T15:08:43.153Z</time>
      </trkpt>
      <trkpt lat="43.003035" lon="-1.11719333">
        <ele>1046.0</ele>
        <time>2019-07-31T15:08:44.159Z</time>
      </trkpt>
      <trkpt lat="43.00303667" lon="-1.11721333">
        <ele>1045.0</ele>
        <time>2019-07-31T15:08:45.165Z</time>
      </trkpt>
      <trkpt lat="43.00304" lon="-1.11722667">
        <ele>1045.0</ele>
        <time>2019-07-31T15:08:46.170Z</time>
      </trkpt>
      <trkpt lat="43.003045" lon="-1.11724">
        <ele>1044.0</ele>
        <time>2019-07-31T15:08:47.175Z</time>
      </trkpt>
      <trkpt lat="43.00305333" lon="-1.11725333">
        <ele>1043.0</ele>
        <time>2019-07-31T15:08:48.179Z</time>
      </trkpt>
      <trkpt lat="43.00306" lon="-1.11727">
        <ele>1042.0</ele>
        <time>2019-07-31T15:08:49.186Z</time>
      </trkpt>
      <trkpt lat="43.00306667" lon="-1.11727667">
        <ele>1040.0</ele>
        <time>2019-07-31T15:08:50.066Z</time>
      </trkpt>
      <trkpt lat="43.00306833" lon="-1.11728667">
        <ele>1039.0</ele>
        <time>2019-07-31T15:08:51.072Z</time>
      </trkpt>
      <trkpt lat="43.00307" lon="-1.11729833">
        <ele>1038.0</ele>
        <time>2019-07-31T15:08:52.079Z</time>
      </trkpt>
      <trkpt lat="43.00307167" lon="-1.117315">
        <ele>1038.0</ele>
        <time>2019-07-31T15:08:53.084Z</time>
      </trkpt>
      <trkpt lat="43.00307" lon="-1.11733">
        <ele>1038.0</ele>
        <time>2019-07-31T15:08:54.089Z</time>
      </trkpt>
      <trkpt lat="43.00306667" lon="-1.11734667">
        <ele>1038.0</ele>
        <time>2019-07-31T15:08:55.092Z</time>
      </trkpt>
      <trkpt lat="43.00306" lon="-1.11736833">
        <ele>1038.0</ele>
        <time>2019-07-31T15:08:56.097Z</time>
      </trkpt>
      <trkpt lat="43.00306333" lon="-1.117385">
        <ele>1039.0</ele>
        <time>2019-07-31T15:08:57.101Z</time>
      </trkpt>
      <trkpt lat="43.00306167" lon="-1.11740167">
        <ele>1038.0</ele>
        <time>2019-07-31T15:08:58.107Z</time>
      </trkpt>
      <trkpt lat="43.00306333" lon="-1.11742">
        <ele>1038.0</ele>
        <time>2019-07-31T15:08:59.111Z</time>
      </trkpt>
      <trkpt lat="43.003065" lon="-1.11743667">
        <ele>1038.0</ele>
        <time>2019-07-31T15:09:00.115Z</time>
      </trkpt>
      <trkpt lat="43.00306667" lon="-1.11745">
        <ele>1037.0</ele>
        <time>2019-07-31T15:09:01.120Z</time>
      </trkpt>
      <trkpt lat="43.00307" lon="-1.117465">
        <ele>1037.0</ele>
        <time>2019-07-31T15:09:02.126Z</time>
      </trkpt>
      <trkpt lat="43.00306833" lon="-1.11747667">
        <ele>1036.0</ele>
        <time>2019-07-31T15:09:03.131Z</time>
      </trkpt>
      <trkpt lat="43.00306833" lon="-1.11749">
        <ele>1036.0</ele>
        <time>2019-07-31T15:09:04.134Z</time>
      </trkpt>
      <trkpt lat="43.00307" lon="-1.11750833">
        <ele>1036.0</ele>
        <time>2019-07-31T15:09:05.140Z</time>
      </trkpt>
      <trkpt lat="43.00307" lon="-1.11752333">
        <ele>1036.0</ele>
        <time>2019-07-31T15:09:06.145Z</time>
      </trkpt>
      <trkpt lat="43.00307" lon="-1.11753333">
        <ele>1036.0</ele>
        <time>2019-07-31T15:09:07.152Z</time>
      </trkpt>
      <trkpt lat="43.00306833" lon="-1.11754333">
        <ele>1036.0</ele>
        <time>2019-07-31T15:09:08.158Z</time>
      </trkpt>
      <trkpt lat="43.00306833" lon="-1.117555">
        <ele>1035.0</ele>
        <time>2019-07-31T15:09:09.163Z</time>
      </trkpt>
      <trkpt lat="43.00306833" lon="-1.11756333">
        <ele>1033.0</ele>
        <time>2019-07-31T15:09:10.169Z</time>
      </trkpt>
      <trkpt lat="43.00307" lon="-1.11757167">
        <ele>1032.0</ele>
        <time>2019-07-31T15:09:11.174Z</time>
      </trkpt>
      <trkpt lat="43.00307" lon="-1.11758">
        <ele>1031.0</ele>
        <time>2019-07-31T15:09:12.179Z</time>
      </trkpt>
      <trkpt lat="43.00306833" lon="-1.11759167">
        <ele>1031.0</ele>
        <time>2019-07-31T15:09:13.184Z</time>
      </trkpt>
      <trkpt lat="43.00306667" lon="-1.1176">
        <ele>1031.0</ele>
        <time>2019-07-31T15:09:14.065Z</time>
      </trkpt>
      <trkpt lat="43.003065" lon="-1.11761">
        <ele>1031.0</ele>
        <time>2019-07-31T15:09:15.068Z</time>
      </trkpt>
      <trkpt lat="43.00306167" lon="-1.11762167">
        <ele>1030.0</ele>
        <time>2019-07-31T15:09:16.072Z</time>
      </trkpt>
      <trkpt lat="43.00306167" lon="-1.11763667">
        <ele>1030.0</ele>
        <time>2019-07-31T15:09:17.077Z</time>
      </trkpt>
      <trkpt lat="43.00306333" lon="-1.11765167">
        <ele>1030.0</ele>
        <time>2019-07-31T15:09:18.082Z</time>
      </trkpt>
      <trkpt lat="43.00306167" lon="-1.117665">
        <ele>1030.0</ele>
        <time>2019-07-31T15:09:19.088Z</time>
      </trkpt>
      <trkpt lat="43.00306167" lon="-1.11767667">
        <ele>1030.0</ele>
        <time>2019-07-31T15:09:20.091Z</time>
      </trkpt>
      <trkpt lat="43.00306167" lon="-1.11768833">
        <ele>1029.0</ele>
        <time>2019-07-31T15:09:21.094Z</time>
      </trkpt>
      <trkpt lat="43.00305667" lon="-1.11770333">
        <ele>1029.0</ele>
        <time>2019-07-31T15:09:22.099Z</time>
      </trkpt>
      <trkpt lat="43.00305333" lon="-1.11772">
        <ele>1029.0</ele>
        <time>2019-07-31T15:09:23.103Z</time>
      </trkpt>
      <trkpt lat="43.00305" lon="-1.11773667">
        <ele>1028.0</ele>
        <time>2019-07-31T15:09:24.107Z</time>
      </trkpt>
      <trkpt lat="43.003045" lon="-1.11775167">
        <ele>1027.0</ele>
        <time>2019-07-31T15:09:25.110Z</time>
      </trkpt>
      <trkpt lat="43.003045" lon="-1.11776333">
        <ele>1026.0</ele>
        <time>2019-07-31T15:09:26.115Z</time>
      </trkpt>
      <trkpt lat="43.00304" lon="-1.11777667">
        <ele>1025.0</ele>
        <time>2019-07-31T15:09:27.121Z</time>
      </trkpt>
      <trkpt lat="43.00303667" lon="-1.11778833">
        <ele>1025.0</ele>
        <time>2019-07-31T15:09:28.126Z</time>
      </trkpt>
      <trkpt lat="43.00302833" lon="-1.11780333">
        <ele>1024.0</ele>
        <time>2019-07-31T15:09:29.130Z</time>
      </trkpt>
      <trkpt lat="43.00302167" lon="-1.11782">
        <ele>1023.0</ele>
        <time>2019-07-31T15:09:30.134Z</time>
      </trkpt>
      <trkpt lat="43.00301833" lon="-1.11783333">
        <ele>1023.0</ele>
        <time>2019-07-31T15:09:31.138Z</time>
      </trkpt>
      <trkpt lat="43.00301167" lon="-1.117855">
        <ele>1022.0</ele>
        <time>2019-07-31T15:09:32.142Z</time>
      </trkpt>
      <trkpt lat="43.00300667" lon="-1.11787167">
        <ele>1022.0</ele>
        <time>2019-07-31T15:09:33.146Z</time>
      </trkpt>
      <trkpt lat="43.00299667" lon="-1.11788833">
        <ele>1021.0</ele>
        <time>2019-07-31T15:09:34.150Z</time>
      </trkpt>
      <trkpt lat="43.00299" lon="-1.11791">
        <ele>1021.0</ele>
        <time>2019-07-31T15:09:35.155Z</time>
      </trkpt>
      <trkpt lat="43.00298333" lon="-1.11793">
        <ele>1021.0</ele>
        <time>2019-07-31T15:09:36.161Z</time>
      </trkpt>
      <trkpt lat="43.00298333" lon="-1.11795167">
        <ele>1022.0</ele>
        <time>2019-07-31T15:09:37.168Z</time>
      </trkpt>
      <trkpt lat="43.00298167" lon="-1.11796667">
        <ele>1022.0</ele>
        <time>2019-07-31T15:09:38.174Z</time>
      </trkpt>
      <trkpt lat="43.00298333" lon="-1.11798">
        <ele>1023.0</ele>
        <time>2019-07-31T15:09:39.179Z</time>
      </trkpt>
      <trkpt lat="43.00298" lon="-1.11799833">
        <ele>1023.0</ele>
        <time>2019-07-31T15:09:40.184Z</time>
      </trkpt>
      <trkpt lat="43.00297833" lon="-1.11801667">
        <ele>1024.0</ele>
        <time>2019-07-31T15:09:41.062Z</time>
      </trkpt>
      <trkpt lat="43.00297833" lon="-1.11802833">
        <ele>1023.0</ele>
        <time>2019-07-31T15:09:42.067Z</time>
      </trkpt>
      <trkpt lat="43.00297667" lon="-1.11803833">
        <ele>1023.0</ele>
        <time>2019-07-31T15:09:43.072Z</time>
      </trkpt>
      <trkpt lat="43.00297667" lon="-1.11804167">
        <ele>1023.0</ele>
        <time>2019-07-31T15:09:44.077Z</time>
      </trkpt>
      <trkpt lat="43.00297333" lon="-1.11804667">
        <ele>1023.0</ele>
        <time>2019-07-31T15:09:45.084Z</time>
      </trkpt>
      <trkpt lat="43.002965" lon="-1.11806833">
        <ele>1023.0</ele>
        <time>2019-07-31T15:09:46.091Z</time>
      </trkpt>
      <trkpt lat="43.00295667" lon="-1.11807667">
        <ele>1024.0</ele>
        <time>2019-07-31T15:09:47.096Z</time>
      </trkpt>
      <trkpt lat="43.00295667" lon="-1.118075">
        <ele>1025.0</ele>
        <time>2019-07-31T15:09:48.102Z</time>
      </trkpt>
      <trkpt lat="43.00295833" lon="-1.11808333">
        <ele>1025.0</ele>
        <time>2019-07-31T15:09:49.107Z</time>
      </trkpt>
      <trkpt lat="43.00296333" lon="-1.11809333">
        <ele>1024.0</ele>
        <time>2019-07-31T15:09:50.113Z</time>
      </trkpt>
      <trkpt lat="43.00297" lon="-1.11808667">
        <ele>1024.0</ele>
        <time>2019-07-31T15:09:51.118Z</time>
      </trkpt>
      <trkpt lat="43.00297" lon="-1.11809833">
        <ele>1023.0</ele>
        <time>2019-07-31T15:09:52.121Z</time>
      </trkpt>
      <trkpt lat="43.00297333" lon="-1.11811833">
        <ele>1023.0</ele>
        <time>2019-07-31T15:09:53.126Z</time>
      </trkpt>
      <trkpt lat="43.00297833" lon="-1.11813333">
        <ele>1023.0</ele>
        <time>2019-07-31T15:09:54.133Z</time>
      </trkpt>
      <trkpt lat="43.00298333" lon="-1.11816">
        <ele>1024.0</ele>
        <time>2019-07-31T15:09:55.138Z</time>
      </trkpt>
      <trkpt lat="43.00298833" lon="-1.11818833">
        <ele>1025.0</ele>
        <time>2019-07-31T15:09:56.144Z</time>
      </trkpt>
      <trkpt lat="43.00299667" lon="-1.11822167">
        <ele>1026.0</ele>
        <time>2019-07-31T15:09:57.151Z</time>
      </trkpt>
      <trkpt lat="43.003" lon="-1.11824167">
        <ele>1027.0</ele>
        <time>2019-07-31T15:09:58.157Z</time>
      </trkpt>
      <trkpt lat="43.00300333" lon="-1.118265">
        <ele>1027.0</ele>
        <time>2019-07-31T15:09:59.162Z</time>
      </trkpt>
      <trkpt lat="43.00301" lon="-1.11828167">
        <ele>1027.0</ele>
        <time>2019-07-31T15:10:00.168Z</time>
      </trkpt>
      <trkpt lat="43.00301833" lon="-1.11831">
        <ele>1027.0</ele>
        <time>2019-07-31T15:10:01.171Z</time>
      </trkpt>
      <trkpt lat="43.00302333" lon="-1.11833333">
        <ele>1026.0</ele>
        <time>2019-07-31T15:10:02.174Z</time>
      </trkpt>
      <trkpt lat="43.00303167" lon="-1.11835833">
        <ele>1024.0</ele>
        <time>2019-07-31T15:10:03.180Z</time>
      </trkpt>
      <trkpt lat="43.00304333" lon="-1.11837333">
        <ele>1023.0</ele>
        <time>2019-07-31T15:10:04.185Z</time>
      </trkpt>
      <trkpt lat="43.00305333" lon="-1.11838667">
        <ele>1023.0</ele>
        <time>2019-07-31T15:10:05.065Z</time>
      </trkpt>
      <trkpt lat="43.00306833" lon="-1.11840167">
        <ele>1023.0</ele>
        <time>2019-07-31T15:10:06.071Z</time>
      </trkpt>
      <trkpt lat="43.00307833" lon="-1.11842667">
        <ele>1022.0</ele>
        <time>2019-07-31T15:10:07.078Z</time>
      </trkpt>
      <trkpt lat="43.00308167" lon="-1.11845">
        <ele>1022.0</ele>
        <time>2019-07-31T15:10:08.086Z</time>
      </trkpt>
      <trkpt lat="43.003085" lon="-1.118465">
        <ele>1021.0</ele>
        <time>2019-07-31T15:10:09.091Z</time>
      </trkpt>
      <trkpt lat="43.003085" lon="-1.11848667">
        <ele>1021.0</ele>
        <time>2019-07-31T15:10:10.097Z</time>
      </trkpt>
      <trkpt lat="43.00308667" lon="-1.11850167">
        <ele>1021.0</ele>
        <time>2019-07-31T15:10:11.104Z</time>
      </trkpt>
      <trkpt lat="43.00308833" lon="-1.11851333">
        <ele>1020.0</ele>
        <time>2019-07-31T15:10:12.108Z</time>
      </trkpt>
      <trkpt lat="43.00309" lon="-1.11852667">
        <ele>1020.0</ele>
        <time>2019-07-31T15:10:13.113Z</time>
      </trkpt>
      <trkpt lat="43.00309667" lon="-1.11854">
        <ele>1020.0</ele>
        <time>2019-07-31T15:10:14.118Z</time>
      </trkpt>
      <trkpt lat="43.00310667" lon="-1.11855167">
        <ele>1020.0</ele>
        <time>2019-07-31T15:10:15.125Z</time>
      </trkpt>
      <trkpt lat="43.00311667" lon="-1.11855167">
        <ele>1019.0</ele>
        <time>2019-07-31T15:10:16.130Z</time>
      </trkpt>
      <trkpt lat="43.00312167" lon="-1.118555">
        <ele>1018.0</ele>
        <time>2019-07-31T15:10:17.136Z</time>
      </trkpt>
      <trkpt lat="43.00312833" lon="-1.11856833">
        <ele>1017.0</ele>
        <time>2019-07-31T15:10:18.142Z</time>
      </trkpt>
      <trkpt lat="43.00313833" lon="-1.11858667">
        <ele>1017.0</ele>
        <time>2019-07-31T15:10:19.148Z</time>
      </trkpt>
      <trkpt lat="43.00314833" lon="-1.11860333">
        <ele>1017.0</ele>
        <time>2019-07-31T15:10:20.155Z</time>
      </trkpt>
      <trkpt lat="43.00316167" lon="-1.118615">
        <ele>1018.0</ele>
        <time>2019-07-31T15:10:21.161Z</time>
      </trkpt>
      <trkpt lat="43.00317833" lon="-1.11861833">
        <ele>1018.0</ele>
        <time>2019-07-31T15:10:22.164Z</time>
      </trkpt>
      <trkpt lat="43.00318667" lon="-1.11862333">
        <ele>1018.0</ele>
        <time>2019-07-31T15:10:23.166Z</time>
      </trkpt>
      <trkpt lat="43.00319167" lon="-1.11863667">
        <ele>1017.0</ele>
        <time>2019-07-31T15:10:24.171Z</time>
      </trkpt>
      <trkpt lat="43.0032" lon="-1.11864833">
        <ele>1018.0</ele>
        <time>2019-07-31T15:10:25.177Z</time>
      </trkpt>
      <trkpt lat="43.00321" lon="-1.11866167">
        <ele>1018.0</ele>
        <time>2019-07-31T15:10:26.182Z</time>
      </trkpt>
      <trkpt lat="43.003215" lon="-1.11868167">
        <ele>1018.0</ele>
        <time>2019-07-31T15:10:27.063Z</time>
      </trkpt>
      <trkpt lat="43.00322" lon="-1.118695">
        <ele>1019.0</ele>
        <time>2019-07-31T15:10:28.070Z</time>
      </trkpt>
      <trkpt lat="43.00322333" lon="-1.11871167">
        <ele>1020.0</ele>
        <time>2019-07-31T15:10:29.078Z</time>
      </trkpt>
      <trkpt lat="43.00323" lon="-1.11872333">
        <ele>1021.0</ele>
        <time>2019-07-31T15:10:30.084Z</time>
      </trkpt>
      <trkpt lat="43.00323833" lon="-1.11873833">
        <ele>1022.0</ele>
        <time>2019-07-31T15:10:31.091Z</time>
      </trkpt>
      <trkpt lat="43.00324833" lon="-1.11874667">
        <ele>1021.0</ele>
        <time>2019-07-31T15:10:32.096Z</time>
      </trkpt>
      <trkpt lat="43.00326" lon="-1.11875333">
        <ele>1021.0</ele>
        <time>2019-07-31T15:10:33.102Z</time>
      </trkpt>
      <trkpt lat="43.00326833" lon="-1.11875833">
        <ele>1021.0</ele>
        <time>2019-07-31T15:10:34.106Z</time>
      </trkpt>
      <trkpt lat="43.00328" lon="-1.11876333">
        <ele>1021.0</ele>
        <time>2019-07-31T15:10:35.112Z</time>
      </trkpt>
      <trkpt lat="43.00328833" lon="-1.11877333">
        <ele>1021.0</ele>
        <time>2019-07-31T15:10:36.117Z</time>
      </trkpt>
      <trkpt lat="43.00329667" lon="-1.11878">
        <ele>1021.0</ele>
        <time>2019-07-31T15:10:37.122Z</time>
      </trkpt>
      <trkpt lat="43.00330667" lon="-1.11878667">
        <ele>1022.0</ele>
        <time>2019-07-31T15:10:38.128Z</time>
      </trkpt>
      <trkpt lat="43.003315" lon="-1.11879167">
        <ele>1023.0</ele>
        <time>2019-07-31T15:10:39.134Z</time>
      </trkpt>
      <trkpt lat="43.00332667" lon="-1.11879333">
        <ele>1023.0</ele>
        <time>2019-07-31T15:10:40.137Z</time>
      </trkpt>
      <trkpt lat="43.00333167" lon="-1.11880167">
        <ele>1023.0</ele>
        <time>2019-07-31T15:10:41.143Z</time>
      </trkpt>
      <trkpt lat="43.00333667" lon="-1.11881333">
        <ele>1023.0</ele>
        <time>2019-07-31T15:10:42.149Z</time>
      </trkpt>
      <trkpt lat="43.00334333" lon="-1.11882167">
        <ele>1023.0</ele>
        <time>2019-07-31T15:10:43.154Z</time>
      </trkpt>
      <trkpt lat="43.00335" lon="-1.11882833">
        <ele>1023.0</ele>
        <time>2019-07-31T15:10:44.160Z</time>
      </trkpt>
      <trkpt lat="43.00335833" lon="-1.118835">
        <ele>1023.0</ele>
        <time>2019-07-31T15:10:45.166Z</time>
      </trkpt>
      <trkpt lat="43.00337167" lon="-1.11884">
        <ele>1023.0</ele>
        <time>2019-07-31T15:10:46.172Z</time>
      </trkpt>
      <trkpt lat="43.003385" lon="-1.11884333">
        <ele>1022.0</ele>
        <time>2019-07-31T15:10:47.176Z</time>
      </trkpt>
      <trkpt lat="43.00339833" lon="-1.118845">
        <ele>1022.0</ele>
        <time>2019-07-31T15:10:48.182Z</time>
      </trkpt>
      <trkpt lat="43.00341167" lon="-1.118845">
        <ele>1021.0</ele>
        <time>2019-07-31T15:10:49.063Z</time>
      </trkpt>
      <trkpt lat="43.00342" lon="-1.11885">
        <ele>1020.0</ele>
        <time>2019-07-31T15:10:50.071Z</time>
      </trkpt>
      <trkpt lat="43.00343" lon="-1.11885667">
        <ele>1019.0</ele>
        <time>2019-07-31T15:10:51.078Z</time>
      </trkpt>
      <trkpt lat="43.003435" lon="-1.118865">
        <ele>1018.0</ele>
        <time>2019-07-31T15:10:52.084Z</time>
      </trkpt>
      <trkpt lat="43.00344167" lon="-1.118875">
        <ele>1017.0</ele>
        <time>2019-07-31T15:10:53.090Z</time>
      </trkpt>
      <trkpt lat="43.00345333" lon="-1.11887667">
        <ele>1017.0</ele>
        <time>2019-07-31T15:10:54.094Z</time>
      </trkpt>
      <trkpt lat="43.00346167" lon="-1.11888333">
        <ele>1017.0</ele>
        <time>2019-07-31T15:10:55.099Z</time>
      </trkpt>
      <trkpt lat="43.00347167" lon="-1.118885">
        <ele>1015.0</ele>
        <time>2019-07-31T15:10:56.106Z</time>
      </trkpt>
      <trkpt lat="43.00348167" lon="-1.11889">
        <ele>1014.0</ele>
        <time>2019-07-31T15:10:57.111Z</time>
      </trkpt>
      <trkpt lat="43.00348667" lon="-1.11889667">
        <ele>1014.0</ele>
        <time>2019-07-31T15:10:58.116Z</time>
      </trkpt>
      <trkpt lat="43.00348667" lon="-1.118905">
        <ele>1013.0</ele>
        <time>2019-07-31T15:10:59.122Z</time>
      </trkpt>
      <trkpt lat="43.00349333" lon="-1.118915">
        <ele>1012.0</ele>
        <time>2019-07-31T15:11:00.130Z</time>
      </trkpt>
      <trkpt lat="43.00350167" lon="-1.11892833">
        <ele>1011.0</ele>
        <time>2019-07-31T15:11:01.134Z</time>
      </trkpt>
      <trkpt lat="43.00351" lon="-1.11894333">
        <ele>1010.0</ele>
        <time>2019-07-31T15:11:02.140Z</time>
      </trkpt>
      <trkpt lat="43.00352333" lon="-1.11896">
        <ele>1010.0</ele>
        <time>2019-07-31T15:11:03.146Z</time>
      </trkpt>
      <trkpt lat="43.003535" lon="-1.11897167">
        <ele>1011.0</ele>
        <time>2019-07-31T15:11:04.153Z</time>
      </trkpt>
      <trkpt lat="43.00354667" lon="-1.11898667">
        <ele>1011.0</ele>
        <time>2019-07-31T15:11:05.159Z</time>
      </trkpt>
      <trkpt lat="43.00355667" lon="-1.11900167">
        <ele>1011.0</ele>
        <time>2019-07-31T15:11:06.164Z</time>
      </trkpt>
      <trkpt lat="43.003565" lon="-1.11901833">
        <ele>1011.0</ele>
        <time>2019-07-31T15:11:07.168Z</time>
      </trkpt>
      <trkpt lat="43.00357" lon="-1.11902833">
        <ele>1012.0</ele>
        <time>2019-07-31T15:11:08.172Z</time>
      </trkpt>
      <trkpt lat="43.003575" lon="-1.11904">
        <ele>1011.0</ele>
        <time>2019-07-31T15:11:09.177Z</time>
      </trkpt>
      <trkpt lat="43.00358667" lon="-1.11905667">
        <ele>1011.0</ele>
        <time>2019-07-31T15:11:10.184Z</time>
      </trkpt>
      <trkpt lat="43.00359667" lon="-1.11907667">
        <ele>1012.0</ele>
        <time>2019-07-31T15:11:11.064Z</time>
      </trkpt>
      <trkpt lat="43.00361167" lon="-1.11908667">
        <ele>1012.0</ele>
        <time>2019-07-31T15:11:12.069Z</time>
      </trkpt>
      <trkpt lat="43.003625" lon="-1.11909667">
        <ele>1011.0</ele>
        <time>2019-07-31T15:11:13.075Z</time>
      </trkpt>
      <trkpt lat="43.00363667" lon="-1.11909667">
        <ele>1012.0</ele>
        <time>2019-07-31T15:11:14.079Z</time>
      </trkpt>
      <trkpt lat="43.00363333" lon="-1.11910333">
        <ele>1013.0</ele>
        <time>2019-07-31T15:11:15.085Z</time>
      </trkpt>
      <trkpt lat="43.00362833" lon="-1.11909833">
        <ele>1012.0</ele>
        <time>2019-07-31T15:11:16.089Z</time>
      </trkpt>
      <trkpt lat="43.00362833" lon="-1.11909833">
        <ele>1012.0</ele>
        <time>2019-07-31T15:11:17.093Z</time>
      </trkpt>
      <trkpt lat="43.00363167" lon="-1.11909667">
        <ele>1011.0</ele>
        <time>2019-07-31T15:11:18.098Z</time>
      </trkpt>
      <trkpt lat="43.00363167" lon="-1.11909833">
        <ele>1011.0</ele>
        <time>2019-07-31T15:11:19.105Z</time>
      </trkpt>
      <trkpt lat="43.00363" lon="-1.11909833">
        <ele>1011.0</ele>
        <time>2019-07-31T15:11:20.111Z</time>
      </trkpt>
      <trkpt lat="43.00363" lon="-1.11909833">
        <ele>1011.0</ele>
        <time>2019-07-31T15:11:21.118Z</time>
      </trkpt>
      <trkpt lat="43.00363" lon="-1.1191">
        <ele>1012.0</ele>
        <time>2019-07-31T15:11:22.125Z</time>
      </trkpt>
      <trkpt lat="43.00362833" lon="-1.11910167">
        <ele>1011.0</ele>
        <time>2019-07-31T15:11:23.131Z</time>
      </trkpt>
      <trkpt lat="43.00363167" lon="-1.119105">
        <ele>1012.0</ele>
        <time>2019-07-31T15:11:24.136Z</time>
      </trkpt>
      <trkpt lat="43.003635" lon="-1.119105">
        <ele>1012.0</ele>
        <time>2019-07-31T15:11:25.141Z</time>
      </trkpt>
      <trkpt lat="43.00363667" lon="-1.11910833">
        <ele>1012.0</ele>
        <time>2019-07-31T15:11:26.146Z</time>
      </trkpt>
      <trkpt lat="43.00364167" lon="-1.11911">
        <ele>1012.0</ele>
        <time>2019-07-31T15:11:27.152Z</time>
      </trkpt>
      <trkpt lat="43.00364167" lon="-1.11911167">
        <ele>1012.0</ele>
        <time>2019-07-31T15:11:28.159Z</time>
      </trkpt>
      <trkpt lat="43.00364333" lon="-1.11911167">
        <ele>1012.0</ele>
        <time>2019-07-31T15:11:29.166Z</time>
      </trkpt>
      <trkpt lat="43.003645" lon="-1.11911167">
        <ele>1011.0</ele>
        <time>2019-07-31T15:11:30.174Z</time>
      </trkpt>
      <trkpt lat="43.00364333" lon="-1.11911333">
        <ele>1011.0</ele>
        <time>2019-07-31T15:11:31.181Z</time>
      </trkpt>
      <trkpt lat="43.00364333" lon="-1.11911667">
        <ele>1011.0</ele>
        <time>2019-07-31T15:11:32.062Z</time>
      </trkpt>
      <trkpt lat="43.00364667" lon="-1.11912">
        <ele>1010.0</ele>
        <time>2019-07-31T15:11:33.068Z</time>
      </trkpt>
      <trkpt lat="43.00364667" lon="-1.119125">
        <ele>1010.0</ele>
        <time>2019-07-31T15:11:34.072Z</time>
      </trkpt>
      <trkpt lat="43.00364333" lon="-1.11913">
        <ele>1009.0</ele>
        <time>2019-07-31T15:11:35.078Z</time>
      </trkpt>
      <trkpt lat="43.00364667" lon="-1.11913333">
        <ele>1009.0</ele>
        <time>2019-07-31T15:11:36.083Z</time>
      </trkpt>
      <trkpt lat="43.003655" lon="-1.11912833">
        <ele>1009.0</ele>
        <time>2019-07-31T15:11:37.087Z</time>
      </trkpt>
      <trkpt lat="43.00365667" lon="-1.11912667">
        <ele>1008.0</ele>
        <time>2019-07-31T15:11:38.092Z</time>
      </trkpt>
      <trkpt lat="43.003655" lon="-1.11912667">
        <ele>1008.0</ele>
        <time>2019-07-31T15:11:39.096Z</time>
      </trkpt>
      <trkpt lat="43.00365667" lon="-1.11913333">
        <ele>1007.0</ele>
        <time>2019-07-31T15:11:40.102Z</time>
      </trkpt>
      <trkpt lat="43.00366333" lon="-1.11914167">
        <ele>1008.0</ele>
        <time>2019-07-31T15:11:41.109Z</time>
      </trkpt>
      <trkpt lat="43.00367333" lon="-1.119155">
        <ele>1008.0</ele>
        <time>2019-07-31T15:11:42.115Z</time>
      </trkpt>
      <trkpt lat="43.00368" lon="-1.11916333">
        <ele>1008.0</ele>
        <time>2019-07-31T15:11:43.121Z</time>
      </trkpt>
      <trkpt lat="43.00368333" lon="-1.11917667">
        <ele>1007.0</ele>
        <time>2019-07-31T15:11:44.126Z</time>
      </trkpt>
      <trkpt lat="43.00368667" lon="-1.119195">
        <ele>1008.0</ele>
        <time>2019-07-31T15:11:45.133Z</time>
      </trkpt>
      <trkpt lat="43.00369333" lon="-1.11920167">
        <ele>1008.0</ele>
        <time>2019-07-31T15:11:46.139Z</time>
      </trkpt>
      <trkpt lat="43.003695" lon="-1.11920833">
        <ele>1008.0</ele>
        <time>2019-07-31T15:11:47.143Z</time>
      </trkpt>
      <trkpt lat="43.00369667" lon="-1.11922">
        <ele>1009.0</ele>
        <time>2019-07-31T15:11:48.147Z</time>
      </trkpt>
      <trkpt lat="43.00370167" lon="-1.11923667">
        <ele>1010.0</ele>
        <time>2019-07-31T15:11:49.153Z</time>
      </trkpt>
      <trkpt lat="43.00370667" lon="-1.11925167">
        <ele>1011.0</ele>
        <time>2019-07-31T15:11:50.160Z</time>
      </trkpt>
      <trkpt lat="43.00370667" lon="-1.11926833">
        <ele>1012.0</ele>
        <time>2019-07-31T15:11:51.166Z</time>
      </trkpt>
      <trkpt lat="43.00371" lon="-1.11927667">
        <ele>1012.0</ele>
        <time>2019-07-31T15:11:52.173Z</time>
      </trkpt>
      <trkpt lat="43.00371833" lon="-1.11928333">
        <ele>1014.0</ele>
        <time>2019-07-31T15:11:53.178Z</time>
      </trkpt>
      <trkpt lat="43.00372833" lon="-1.11928833">
        <ele>1014.0</ele>
        <time>2019-07-31T15:11:54.183Z</time>
      </trkpt>
      <trkpt lat="43.00374" lon="-1.119295">
        <ele>1014.0</ele>
        <time>2019-07-31T15:11:55.062Z</time>
      </trkpt>
      <trkpt lat="43.00375" lon="-1.11930667">
        <ele>1014.0</ele>
        <time>2019-07-31T15:11:56.069Z</time>
      </trkpt>
      <trkpt lat="43.00375667" lon="-1.11931833">
        <ele>1014.0</ele>
        <time>2019-07-31T15:11:57.075Z</time>
      </trkpt>
      <trkpt lat="43.00376667" lon="-1.11931833">
        <ele>1013.0</ele>
        <time>2019-07-31T15:11:58.079Z</time>
      </trkpt>
      <trkpt lat="43.00377333" lon="-1.11931167">
        <ele>1014.0</ele>
        <time>2019-07-31T15:11:59.088Z</time>
      </trkpt>
      <trkpt lat="43.00378" lon="-1.11930833">
        <ele>1013.0</ele>
        <time>2019-07-31T15:12:00.093Z</time>
      </trkpt>
      <trkpt lat="43.003785" lon="-1.119305">
        <ele>1012.0</ele>
        <time>2019-07-31T15:12:01.099Z</time>
      </trkpt>
      <trkpt lat="43.00378833" lon="-1.11929833">
        <ele>1012.0</ele>
        <time>2019-07-31T15:12:02.105Z</time>
      </trkpt>
      <trkpt lat="43.00379167" lon="-1.11928667">
        <ele>1011.0</ele>
        <time>2019-07-31T15:12:03.112Z</time>
      </trkpt>
      <trkpt lat="43.0038" lon="-1.11927667">
        <ele>1011.0</ele>
        <time>2019-07-31T15:12:04.118Z</time>
      </trkpt>
      <trkpt lat="43.00380167" lon="-1.11926667">
        <ele>1011.0</ele>
        <time>2019-07-31T15:12:05.124Z</time>
      </trkpt>
      <trkpt lat="43.003805" lon="-1.11926667">
        <ele>1011.0</ele>
        <time>2019-07-31T15:12:06.128Z</time>
      </trkpt>
      <trkpt lat="43.003805" lon="-1.119285">
        <ele>1011.0</ele>
        <time>2019-07-31T15:12:07.133Z</time>
      </trkpt>
      <trkpt lat="43.00380667" lon="-1.11930333">
        <ele>1010.0</ele>
        <time>2019-07-31T15:12:08.139Z</time>
      </trkpt>
      <trkpt lat="43.00381167" lon="-1.119305">
        <ele>1010.0</ele>
        <time>2019-07-31T15:12:09.146Z</time>
      </trkpt>
      <trkpt lat="43.00381667" lon="-1.11930333">
        <ele>1011.0</ele>
        <time>2019-07-31T15:12:10.152Z</time>
      </trkpt>
      <trkpt lat="43.00381833" lon="-1.11930167">
        <ele>1012.0</ele>
        <time>2019-07-31T15:12:11.156Z</time>
      </trkpt>
      <trkpt lat="43.00382333" lon="-1.1193">
        <ele>1011.0</ele>
        <time>2019-07-31T15:12:12.161Z</time>
      </trkpt>
      <trkpt lat="43.00382833" lon="-1.119295">
        <ele>1011.0</ele>
        <time>2019-07-31T15:12:13.168Z</time>
      </trkpt>
      <trkpt lat="43.00382833" lon="-1.11929167">
        <ele>1011.0</ele>
        <time>2019-07-31T15:12:14.174Z</time>
      </trkpt>
      <trkpt lat="43.00383" lon="-1.11928667">
        <ele>1011.0</ele>
        <time>2019-07-31T15:12:15.178Z</time>
      </trkpt>
      <trkpt lat="43.00383" lon="-1.11928667">
        <ele>1011.0</ele>
        <time>2019-07-31T15:12:16.185Z</time>
      </trkpt>
      <trkpt lat="43.00383333" lon="-1.11928667">
        <ele>1011.0</ele>
        <time>2019-07-31T15:12:17.065Z</time>
      </trkpt>
      <trkpt lat="43.00383667" lon="-1.119285">
        <ele>1011.0</ele>
        <time>2019-07-31T15:12:18.069Z</time>
      </trkpt>
      <trkpt lat="43.00384167" lon="-1.11928167">
        <ele>1012.0</ele>
        <time>2019-07-31T15:12:19.073Z</time>
      </trkpt>
      <trkpt lat="43.00384833" lon="-1.11928">
        <ele>1011.0</ele>
        <time>2019-07-31T15:12:20.076Z</time>
      </trkpt>
      <trkpt lat="43.003855" lon="-1.11928667">
        <ele>1011.0</ele>
        <time>2019-07-31T15:12:21.080Z</time>
      </trkpt>
      <trkpt lat="43.003855" lon="-1.119285">
        <ele>1010.0</ele>
        <time>2019-07-31T15:12:22.087Z</time>
      </trkpt>
      <trkpt lat="43.00385333" lon="-1.119285">
        <ele>1010.0</ele>
        <time>2019-07-31T15:12:23.092Z</time>
      </trkpt>
      <trkpt lat="43.003855" lon="-1.11928667">
        <ele>1010.0</ele>
        <time>2019-07-31T15:12:24.097Z</time>
      </trkpt>
      <trkpt lat="43.00385333" lon="-1.11929">
        <ele>1010.0</ele>
        <time>2019-07-31T15:12:25.101Z</time>
      </trkpt>
      <trkpt lat="43.003855" lon="-1.11929167">
        <ele>1010.0</ele>
        <time>2019-07-31T15:12:26.106Z</time>
      </trkpt>
      <trkpt lat="43.00386" lon="-1.11929">
        <ele>1011.0</ele>
        <time>2019-07-31T15:12:27.111Z</time>
      </trkpt>
      <trkpt lat="43.00386333" lon="-1.11929333">
        <ele>1011.0</ele>
        <time>2019-07-31T15:12:28.116Z</time>
      </trkpt>
      <trkpt lat="43.00387" lon="-1.11930333">
        <ele>1011.0</ele>
        <time>2019-07-31T15:12:29.119Z</time>
      </trkpt>
      <trkpt lat="43.00387667" lon="-1.11929833">
        <ele>1010.0</ele>
        <time>2019-07-31T15:12:30.122Z</time>
      </trkpt>
      <trkpt lat="43.00388" lon="-1.11929667">
        <ele>1009.0</ele>
        <time>2019-07-31T15:12:31.127Z</time>
      </trkpt>
      <trkpt lat="43.00389" lon="-1.11929833">
        <ele>1009.0</ele>
        <time>2019-07-31T15:12:32.132Z</time>
      </trkpt>
      <trkpt lat="43.00389833" lon="-1.1193">
        <ele>1009.0</ele>
        <time>2019-07-31T15:12:33.136Z</time>
      </trkpt>
      <trkpt lat="43.0039" lon="-1.11930833">
        <ele>1009.0</ele>
        <time>2019-07-31T15:12:34.142Z</time>
      </trkpt>
      <trkpt lat="43.00389667" lon="-1.11930667">
        <ele>1010.0</ele>
        <time>2019-07-31T15:12:35.147Z</time>
      </trkpt>
      <trkpt lat="43.00389667" lon="-1.11931167">
        <ele>1009.0</ele>
        <time>2019-07-31T15:12:36.152Z</time>
      </trkpt>
      <trkpt lat="43.00390333" lon="-1.11931333">
        <ele>1008.0</ele>
        <time>2019-07-31T15:12:37.158Z</time>
      </trkpt>
      <trkpt lat="43.003915" lon="-1.11930667">
        <ele>1008.0</ele>
        <time>2019-07-31T15:12:38.163Z</time>
      </trkpt>
      <trkpt lat="43.00392667" lon="-1.11930167">
        <ele>1007.0</ele>
        <time>2019-07-31T15:12:39.169Z</time>
      </trkpt>
      <trkpt lat="43.00393667" lon="-1.119305">
        <ele>1006.0</ele>
        <time>2019-07-31T15:12:40.174Z</time>
      </trkpt>
      <trkpt lat="43.003935" lon="-1.1193">
        <ele>1006.0</ele>
        <time>2019-07-31T15:12:41.180Z</time>
      </trkpt>
      <trkpt lat="43.003925" lon="-1.11928333">
        <ele>1006.0</ele>
        <time>2019-07-31T15:12:42.061Z</time>
      </trkpt>
      <trkpt lat="43.00392167" lon="-1.11928333">
        <ele>1006.0</ele>
        <time>2019-07-31T15:12:43.067Z</time>
      </trkpt>
      <trkpt lat="43.00392" lon="-1.11926833">
        <ele>1007.0</ele>
        <time>2019-07-31T15:12:44.073Z</time>
      </trkpt>
      <trkpt lat="43.00392167" lon="-1.11925833">
        <ele>1007.0</ele>
        <time>2019-07-31T15:12:45.080Z</time>
      </trkpt>
      <trkpt lat="43.00392167" lon="-1.11925333">
        <ele>1007.0</ele>
        <time>2019-07-31T15:12:46.086Z</time>
      </trkpt>
      <trkpt lat="43.00393167" lon="-1.11925833">
        <ele>1007.0</ele>
        <time>2019-07-31T15:12:47.092Z</time>
      </trkpt>
      <trkpt lat="43.00394167" lon="-1.11926833">
        <ele>1007.0</ele>
        <time>2019-07-31T15:12:48.096Z</time>
      </trkpt>
      <trkpt lat="43.00394667" lon="-1.11927333">
        <ele>1006.0</ele>
        <time>2019-07-31T15:12:49.102Z</time>
      </trkpt>
      <trkpt lat="43.00395167" lon="-1.11926167">
        <ele>1006.0</ele>
        <time>2019-07-31T15:12:50.108Z</time>
      </trkpt>
      <trkpt lat="43.00395167" lon="-1.11923667">
        <ele>1006.0</ele>
        <time>2019-07-31T15:12:51.112Z</time>
      </trkpt>
      <trkpt lat="43.00395" lon="-1.11921">
        <ele>1007.0</ele>
        <time>2019-07-31T15:12:52.117Z</time>
      </trkpt>
      <trkpt lat="43.00394833" lon="-1.119195">
        <ele>1007.0</ele>
        <time>2019-07-31T15:12:53.123Z</time>
      </trkpt>
      <trkpt lat="43.00393833" lon="-1.11918833">
        <ele>1007.0</ele>
        <time>2019-07-31T15:12:54.128Z</time>
      </trkpt>
      <trkpt lat="43.00393667" lon="-1.1192">
        <ele>1006.0</ele>
        <time>2019-07-31T15:12:55.131Z</time>
      </trkpt>
      <trkpt lat="43.00394" lon="-1.11923">
        <ele>1004.0</ele>
        <time>2019-07-31T15:12:56.135Z</time>
      </trkpt>
      <trkpt lat="43.00394167" lon="-1.11925833">
        <ele>1003.0</ele>
        <time>2019-07-31T15:12:57.140Z</time>
      </trkpt>
      <trkpt lat="43.00393833" lon="-1.11927">
        <ele>1003.0</ele>
        <time>2019-07-31T15:12:58.145Z</time>
      </trkpt>
      <trkpt lat="43.00393333" lon="-1.11927667">
        <ele>1001.0</ele>
        <time>2019-07-31T15:12:59.152Z</time>
      </trkpt>
      <trkpt lat="43.00393333" lon="-1.11927833">
        <ele>1001.0</ele>
        <time>2019-07-31T15:13:00.160Z</time>
      </trkpt>
      <trkpt lat="43.00393333" lon="-1.11927667">
        <ele>1000.0</ele>
        <time>2019-07-31T15:13:01.164Z</time>
      </trkpt>
      <trkpt lat="43.00393333" lon="-1.11927833">
        <ele>1000.0</ele>
        <time>2019-07-31T15:13:02.169Z</time>
      </trkpt>
      <trkpt lat="43.00393167" lon="-1.11928167">
        <ele>1000.0</ele>
        <time>2019-07-31T15:13:03.176Z</time>
      </trkpt>
      <trkpt lat="43.00392667" lon="-1.11928667">
        <ele>999.0</ele>
        <time>2019-07-31T15:13:04.182Z</time>
      </trkpt>
      <trkpt lat="43.00392833" lon="-1.119295">
        <ele>1000.0</ele>
        <time>2019-07-31T15:13:05.062Z</time>
      </trkpt>
      <trkpt lat="43.003925" lon="-1.11929833">
        <ele>1000.0</ele>
        <time>2019-07-31T15:13:06.068Z</time>
      </trkpt>
      <trkpt lat="43.00392333" lon="-1.11930333">
        <ele>1000.0</ele>
        <time>2019-07-31T15:13:07.074Z</time>
      </trkpt>
      <trkpt lat="43.00392167" lon="-1.11930667">
        <ele>999.0</ele>
        <time>2019-07-31T15:13:08.078Z</time>
      </trkpt>
      <trkpt lat="43.00391833" lon="-1.11930833">
        <ele>999.0</ele>
        <time>2019-07-31T15:13:09.082Z</time>
      </trkpt>
      <trkpt lat="43.003915" lon="-1.11930667">
        <ele>999.0</ele>
        <time>2019-07-31T15:13:10.088Z</time>
      </trkpt>
      <trkpt lat="43.00391333" lon="-1.11930667">
        <ele>999.0</ele>
        <time>2019-07-31T15:13:11.093Z</time>
      </trkpt>
      <trkpt lat="43.00391167" lon="-1.11930833">
        <ele>999.0</ele>
        <time>2019-07-31T15:13:12.100Z</time>
      </trkpt>
      <trkpt lat="43.00390833" lon="-1.11931333">
        <ele>999.0</ele>
        <time>2019-07-31T15:13:13.105Z</time>
      </trkpt>
      <trkpt lat="43.00390667" lon="-1.11931333">
        <ele>999.0</ele>
        <time>2019-07-31T15:13:14.111Z</time>
      </trkpt>
      <trkpt lat="43.00390833" lon="-1.11931167">
        <ele>999.0</ele>
        <time>2019-07-31T15:13:15.115Z</time>
      </trkpt>
      <trkpt lat="43.00391167" lon="-1.11931">
        <ele>999.0</ele>
        <time>2019-07-31T15:13:16.119Z</time>
      </trkpt>
      <trkpt lat="43.00391" lon="-1.11930833">
        <ele>999.0</ele>
        <time>2019-07-31T15:13:17.125Z</time>
      </trkpt>
      <trkpt lat="43.00390833" lon="-1.11931">
        <ele>999.0</ele>
        <time>2019-07-31T15:13:18.129Z</time>
      </trkpt>
      <trkpt lat="43.00390333" lon="-1.119315">
        <ele>999.0</ele>
        <time>2019-07-31T15:13:19.134Z</time>
      </trkpt>
      <trkpt lat="43.00390167" lon="-1.11931667">
        <ele>1000.0</ele>
        <time>2019-07-31T15:13:20.140Z</time>
      </trkpt>
      <trkpt lat="43.0039" lon="-1.11932">
        <ele>1000.0</ele>
        <time>2019-07-31T15:13:21.146Z</time>
      </trkpt>
      <trkpt lat="43.00389667" lon="-1.11932333">
        <ele>1000.0</ele>
        <time>2019-07-31T15:13:22.150Z</time>
      </trkpt>
      <trkpt lat="43.00389333" lon="-1.11932667">
        <ele>1000.0</ele>
        <time>2019-07-31T15:13:23.154Z</time>
      </trkpt>
      <trkpt lat="43.00389167" lon="-1.11933">
        <ele>1000.0</ele>
        <time>2019-07-31T15:13:24.159Z</time>
      </trkpt>
      <trkpt lat="43.00389333" lon="-1.11933">
        <ele>1000.0</ele>
        <time>2019-07-31T15:13:25.165Z</time>
      </trkpt>
      <trkpt lat="43.00389667" lon="-1.11932833">
        <ele>999.0</ele>
        <time>2019-07-31T15:13:26.172Z</time>
      </trkpt>
      <trkpt lat="43.00389833" lon="-1.11933">
        <ele>998.0</ele>
        <time>2019-07-31T15:13:27.177Z</time>
      </trkpt>
      <trkpt lat="43.00389833" lon="-1.11933167">
        <ele>997.0</ele>
        <time>2019-07-31T15:13:28.183Z</time>
      </trkpt>
      <trkpt lat="43.00389667" lon="-1.11933333">
        <ele>997.0</ele>
        <time>2019-07-31T15:13:29.061Z</time>
      </trkpt>
      <trkpt lat="43.00389" lon="-1.11933333">
        <ele>996.0</ele>
        <time>2019-07-31T15:13:30.066Z</time>
      </trkpt>
      <trkpt lat="43.00388833" lon="-1.11932833">
        <ele>997.0</ele>
        <time>2019-07-31T15:13:31.073Z</time>
      </trkpt>
      <trkpt lat="43.00388333" lon="-1.119325">
        <ele>997.0</ele>
        <time>2019-07-31T15:13:32.076Z</time>
      </trkpt>
      <trkpt lat="43.00387667" lon="-1.11932167">
        <ele>998.0</ele>
        <time>2019-07-31T15:13:33.080Z</time>
      </trkpt>
      <trkpt lat="43.00387333" lon="-1.11931667">
        <ele>998.0</ele>
        <time>2019-07-31T15:13:34.086Z</time>
      </trkpt>
      <trkpt lat="43.00386833" lon="-1.11932">
        <ele>999.0</ele>
        <time>2019-07-31T15:13:35.092Z</time>
      </trkpt>
      <trkpt lat="43.00386333" lon="-1.11932">
        <ele>1000.0</ele>
        <time>2019-07-31T15:13:36.097Z</time>
      </trkpt>
      <trkpt lat="43.003865" lon="-1.11931833">
        <ele>1000.0</ele>
        <time>2019-07-31T15:13:37.103Z</time>
      </trkpt>
      <trkpt lat="43.00386667" lon="-1.119315">
        <ele>1001.0</ele>
        <time>2019-07-31T15:13:38.109Z</time>
      </trkpt>
      <trkpt lat="43.003865" lon="-1.11931833">
        <ele>1001.0</ele>
        <time>2019-07-31T15:13:39.113Z</time>
      </trkpt>
      <trkpt lat="43.00386333" lon="-1.11932167">
        <ele>1001.0</ele>
        <time>2019-07-31T15:13:40.115Z</time>
      </trkpt>
      <trkpt lat="43.00386" lon="-1.119325">
        <ele>1000.0</ele>
        <time>2019-07-31T15:13:41.121Z</time>
      </trkpt>
      <trkpt lat="43.00385833" lon="-1.11932167">
        <ele>1000.0</ele>
        <time>2019-07-31T15:13:42.126Z</time>
      </trkpt>
      <trkpt lat="43.00385333" lon="-1.11931833">
        <ele>1000.0</ele>
        <time>2019-07-31T15:13:43.131Z</time>
      </trkpt>
      <trkpt lat="43.00385167" lon="-1.119315">
        <ele>1000.0</ele>
        <time>2019-07-31T15:13:44.136Z</time>
      </trkpt>
      <trkpt lat="43.00384667" lon="-1.119315">
        <ele>1001.0</ele>
        <time>2019-07-31T15:13:45.141Z</time>
      </trkpt>
      <trkpt lat="43.00384167" lon="-1.11931667">
        <ele>1000.0</ele>
        <time>2019-07-31T15:13:46.147Z</time>
      </trkpt>
      <trkpt lat="43.00383833" lon="-1.11931833">
        <ele>999.0</ele>
        <time>2019-07-31T15:13:47.152Z</time>
      </trkpt>
      <trkpt lat="43.00383833" lon="-1.119315">
        <ele>999.0</ele>
        <time>2019-07-31T15:13:48.158Z</time>
      </trkpt>
      <trkpt lat="43.00384167" lon="-1.11930667">
        <ele>998.0</ele>
        <time>2019-07-31T15:13:49.163Z</time>
      </trkpt>
      <trkpt lat="43.00384333" lon="-1.11930333">
        <ele>997.0</ele>
        <time>2019-07-31T15:13:50.168Z</time>
      </trkpt>
      <trkpt lat="43.00384333" lon="-1.11930333">
        <ele>997.0</ele>
        <time>2019-07-31T15:13:51.174Z</time>
      </trkpt>
      <trkpt lat="43.00384333" lon="-1.11930667">
        <ele>996.0</ele>
        <time>2019-07-31T15:13:52.178Z</time>
      </trkpt>
      <trkpt lat="43.00384" lon="-1.11931167">
        <ele>996.0</ele>
        <time>2019-07-31T15:13:53.182Z</time>
      </trkpt>
      <trkpt lat="43.00384" lon="-1.11930833">
        <ele>996.0</ele>
        <time>2019-07-31T15:13:54.062Z</time>
      </trkpt>
      <trkpt lat="43.00384" lon="-1.11930333">
        <ele>996.0</ele>
        <time>2019-07-31T15:13:55.070Z</time>
      </trkpt>
      <trkpt lat="43.00383833" lon="-1.1193">
        <ele>996.0</ele>
        <time>2019-07-31T15:13:56.073Z</time>
      </trkpt>
      <trkpt lat="43.00383667" lon="-1.11930167">
        <ele>995.0</ele>
        <time>2019-07-31T15:13:57.077Z</time>
      </trkpt>
      <trkpt lat="43.00383667" lon="-1.11930333">
        <ele>995.0</ele>
        <time>2019-07-31T15:13:58.084Z</time>
      </trkpt>
      <trkpt lat="43.00383833" lon="-1.11930333">
        <ele>994.0</ele>
        <time>2019-07-31T15:13:59.091Z</time>
      </trkpt>
      <trkpt lat="43.003835" lon="-1.11930833">
        <ele>994.0</ele>
        <time>2019-07-31T15:14:00.097Z</time>
      </trkpt>
      <trkpt lat="43.00383667" lon="-1.11931167">
        <ele>993.0</ele>
        <time>2019-07-31T15:14:01.103Z</time>
      </trkpt>
      <trkpt lat="43.00384167" lon="-1.11930833">
        <ele>992.0</ele>
        <time>2019-07-31T15:14:02.108Z</time>
      </trkpt>
      <trkpt lat="43.003845" lon="-1.11930667">
        <ele>991.0</ele>
        <time>2019-07-31T15:14:03.113Z</time>
      </trkpt>
      <trkpt lat="43.00384333" lon="-1.11930833">
        <ele>990.0</ele>
        <time>2019-07-31T15:14:04.117Z</time>
      </trkpt>
      <trkpt lat="43.00384167" lon="-1.11930833">
        <ele>990.0</ele>
        <time>2019-07-31T15:14:05.123Z</time>
      </trkpt>
      <trkpt lat="43.00384" lon="-1.11930667">
        <ele>991.0</ele>
        <time>2019-07-31T15:14:06.128Z</time>
      </trkpt>
      <trkpt lat="43.00384167" lon="-1.1193">
        <ele>991.0</ele>
        <time>2019-07-31T15:14:07.134Z</time>
      </trkpt>
      <trkpt lat="43.00384" lon="-1.11929333">
        <ele>992.0</ele>
        <time>2019-07-31T15:14:08.138Z</time>
      </trkpt>
      <trkpt lat="43.00383833" lon="-1.11928667">
        <ele>993.0</ele>
        <time>2019-07-31T15:14:09.143Z</time>
      </trkpt>
      <trkpt lat="43.00383833" lon="-1.11928667">
        <ele>993.0</ele>
        <time>2019-07-31T15:14:10.147Z</time>
      </trkpt>
      <trkpt lat="43.00384" lon="-1.119285">
        <ele>993.0</ele>
        <time>2019-07-31T15:14:11.152Z</time>
      </trkpt>
      <trkpt lat="43.00384" lon="-1.119285">
        <ele>993.0</ele>
        <time>2019-07-31T15:14:12.157Z</time>
      </trkpt>
      <trkpt lat="43.00384167" lon="-1.11928667">
        <ele>994.0</ele>
        <time>2019-07-31T15:14:13.163Z</time>
      </trkpt>
      <trkpt lat="43.00384667" lon="-1.119285">
        <ele>994.0</ele>
        <time>2019-07-31T15:14:14.167Z</time>
      </trkpt>
      <trkpt lat="43.003845" lon="-1.11929167">
        <ele>994.0</ele>
        <time>2019-07-31T15:14:15.173Z</time>
      </trkpt>
      <trkpt lat="43.00384333" lon="-1.11929167">
        <ele>995.0</ele>
        <time>2019-07-31T15:14:16.179Z</time>
      </trkpt>
      <trkpt lat="43.00384333" lon="-1.11929">
        <ele>996.0</ele>
        <time>2019-07-31T15:14:17.182Z</time>
      </trkpt>
      <trkpt lat="43.003845" lon="-1.11929">
        <ele>996.0</ele>
        <time>2019-07-31T15:14:18.061Z</time>
      </trkpt>
      <trkpt lat="43.00385333" lon="-1.11928667">
        <ele>996.0</ele>
        <time>2019-07-31T15:14:19.069Z</time>
      </trkpt>
      <trkpt lat="43.00386" lon="-1.11929167">
        <ele>997.0</ele>
        <time>2019-07-31T15:14:20.076Z</time>
      </trkpt>
      <trkpt lat="43.003865" lon="-1.11929">
        <ele>996.0</ele>
        <time>2019-07-31T15:14:21.083Z</time>
      </trkpt>
      <trkpt lat="43.00387" lon="-1.11928333">
        <ele>996.0</ele>
        <time>2019-07-31T15:14:22.088Z</time>
      </trkpt>
      <trkpt lat="43.003875" lon="-1.119275">
        <ele>996.0</ele>
        <time>2019-07-31T15:14:23.093Z</time>
      </trkpt>
      <trkpt lat="43.00388" lon="-1.11927333">
        <ele>996.0</ele>
        <time>2019-07-31T15:14:24.098Z</time>
      </trkpt>
      <trkpt lat="43.00388333" lon="-1.119275">
        <ele>997.0</ele>
        <time>2019-07-31T15:14:25.101Z</time>
      </trkpt>
      <trkpt lat="43.003885" lon="-1.11927333">
        <ele>997.0</ele>
        <time>2019-07-31T15:14:26.105Z</time>
      </trkpt>
      <trkpt lat="43.00388833" lon="-1.119265">
        <ele>998.0</ele>
        <time>2019-07-31T15:14:27.111Z</time>
      </trkpt>
      <trkpt lat="43.00389333" lon="-1.11925667">
        <ele>998.0</ele>
        <time>2019-07-31T15:14:28.117Z</time>
      </trkpt>
      <trkpt lat="43.00407667" lon="-1.11973833">
        <ele>998.0</ele>
        <time>2019-07-31T15:14:30.123Z</time>
      </trkpt>
      <trkpt lat="43.00408833" lon="-1.119735">
        <ele>998.0</ele>
        <time>2019-07-31T15:14:31.129Z</time>
      </trkpt>
      <trkpt lat="43.00409167" lon="-1.11974">
        <ele>998.0</ele>
        <time>2019-07-31T15:14:32.137Z</time>
      </trkpt>
      <trkpt lat="43.00409333" lon="-1.11974167">
        <ele>999.0</ele>
        <time>2019-07-31T15:14:33.144Z</time>
      </trkpt>
      <trkpt lat="43.0041" lon="-1.11974167">
        <ele>1000.0</ele>
        <time>2019-07-31T15:14:34.149Z</time>
      </trkpt>
      <trkpt lat="43.00410667" lon="-1.11974667">
        <ele>1001.0</ele>
        <time>2019-07-31T15:14:35.154Z</time>
      </trkpt>
      <trkpt lat="43.004105" lon="-1.11975">
        <ele>1001.0</ele>
        <time>2019-07-31T15:14:36.162Z</time>
      </trkpt>
      <trkpt lat="43.00410167" lon="-1.11975333">
        <ele>1002.0</ele>
        <time>2019-07-31T15:14:37.167Z</time>
      </trkpt>
      <trkpt lat="43.0041" lon="-1.11976333">
        <ele>1002.0</ele>
        <time>2019-07-31T15:14:38.173Z</time>
      </trkpt>
      <trkpt lat="43.0041" lon="-1.11976333">
        <ele>1002.0</ele>
        <time>2019-07-31T15:14:39.179Z</time>
      </trkpt>
      <trkpt lat="43.00409833" lon="-1.11976167">
        <ele>1002.0</ele>
        <time>2019-07-31T15:14:40.184Z</time>
      </trkpt>
      <trkpt lat="43.00409333" lon="-1.11976333">
        <ele>1003.0</ele>
        <time>2019-07-31T15:14:41.064Z</time>
      </trkpt>
      <trkpt lat="43.00409" lon="-1.11976667">
        <ele>1003.0</ele>
        <time>2019-07-31T15:14:42.071Z</time>
      </trkpt>
      <trkpt lat="43.004085" lon="-1.11978167">
        <ele>1003.0</ele>
        <time>2019-07-31T15:14:43.076Z</time>
      </trkpt>
      <trkpt lat="43.00408167" lon="-1.11979333">
        <ele>1004.0</ele>
        <time>2019-07-31T15:14:44.079Z</time>
      </trkpt>
      <trkpt lat="43.00408167" lon="-1.11979667">
        <ele>1004.0</ele>
        <time>2019-07-31T15:14:45.084Z</time>
      </trkpt>
      <trkpt lat="43.00408167" lon="-1.119795">
        <ele>1003.0</ele>
        <time>2019-07-31T15:14:46.089Z</time>
      </trkpt>
      <trkpt lat="43.00408333" lon="-1.119795">
        <ele>1003.0</ele>
        <time>2019-07-31T15:14:47.093Z</time>
      </trkpt>
      <trkpt lat="43.00409" lon="-1.11979667">
        <ele>1002.0</ele>
        <time>2019-07-31T15:14:48.096Z</time>
      </trkpt>
      <trkpt lat="43.00409333" lon="-1.1198">
        <ele>1002.0</ele>
        <time>2019-07-31T15:14:49.099Z</time>
      </trkpt>
      <trkpt lat="43.0041" lon="-1.11980333">
        <ele>1001.0</ele>
        <time>2019-07-31T15:14:50.106Z</time>
      </trkpt>
      <trkpt lat="43.004105" lon="-1.11980833">
        <ele>1001.0</ele>
        <time>2019-07-31T15:14:51.111Z</time>
      </trkpt>
      <trkpt lat="43.00411" lon="-1.11981333">
        <ele>1001.0</ele>
        <time>2019-07-31T15:14:52.118Z</time>
      </trkpt>
      <trkpt lat="43.004115" lon="-1.11981833">
        <ele>1002.0</ele>
        <time>2019-07-31T15:14:53.124Z</time>
      </trkpt>
      <trkpt lat="43.00411833" lon="-1.11982333">
        <ele>1002.0</ele>
        <time>2019-07-31T15:14:54.129Z</time>
      </trkpt>
      <trkpt lat="43.00412333" lon="-1.11983">
        <ele>1002.0</ele>
        <time>2019-07-31T15:14:55.135Z</time>
      </trkpt>
      <trkpt lat="43.00412667" lon="-1.11983833">
        <ele>1002.0</ele>
        <time>2019-07-31T15:14:56.141Z</time>
      </trkpt>
      <trkpt lat="43.00413167" lon="-1.11984167">
        <ele>1001.0</ele>
        <time>2019-07-31T15:14:57.146Z</time>
      </trkpt>
      <trkpt lat="43.00414" lon="-1.119845">
        <ele>1001.0</ele>
        <time>2019-07-31T15:14:58.152Z</time>
      </trkpt>
      <trkpt lat="43.00414667" lon="-1.11985">
        <ele>1000.0</ele>
        <time>2019-07-31T15:14:59.158Z</time>
      </trkpt>
      <trkpt lat="43.004155" lon="-1.11986167">
        <ele>999.0</ele>
        <time>2019-07-31T15:15:00.163Z</time>
      </trkpt>
      <trkpt lat="43.00416167" lon="-1.11987">
        <ele>998.0</ele>
        <time>2019-07-31T15:15:01.167Z</time>
      </trkpt>
      <trkpt lat="43.00417" lon="-1.11987833">
        <ele>997.0</ele>
        <time>2019-07-31T15:15:02.172Z</time>
      </trkpt>
      <trkpt lat="43.004185" lon="-1.11988167">
        <ele>997.0</ele>
        <time>2019-07-31T15:15:03.177Z</time>
      </trkpt>
      <trkpt lat="43.004195" lon="-1.11988167">
        <ele>997.0</ele>
        <time>2019-07-31T15:15:04.181Z</time>
      </trkpt>
      <trkpt lat="43.004205" lon="-1.119895">
        <ele>997.0</ele>
        <time>2019-07-31T15:15:05.061Z</time>
      </trkpt>
      <trkpt lat="43.00421333" lon="-1.119905">
        <ele>997.0</ele>
        <time>2019-07-31T15:15:06.067Z</time>
      </trkpt>
      <trkpt lat="43.00422333" lon="-1.119915">
        <ele>997.0</ele>
        <time>2019-07-31T15:15:07.074Z</time>
      </trkpt>
      <trkpt lat="43.00423" lon="-1.11992667">
        <ele>997.0</ele>
        <time>2019-07-31T15:15:08.078Z</time>
      </trkpt>
      <trkpt lat="43.004235" lon="-1.11993667">
        <ele>997.0</ele>
        <time>2019-07-31T15:15:09.082Z</time>
      </trkpt>
      <trkpt lat="43.00424" lon="-1.11994333">
        <ele>998.0</ele>
        <time>2019-07-31T15:15:10.085Z</time>
      </trkpt>
      <trkpt lat="43.004255" lon="-1.11994833">
        <ele>998.0</ele>
        <time>2019-07-31T15:15:11.089Z</time>
      </trkpt>
      <trkpt lat="43.00426667" lon="-1.11995333">
        <ele>999.0</ele>
        <time>2019-07-31T15:15:12.095Z</time>
      </trkpt>
      <trkpt lat="43.00427167" lon="-1.11995833">
        <ele>999.0</ele>
        <time>2019-07-31T15:15:13.100Z</time>
      </trkpt>
      <trkpt lat="43.004275" lon="-1.11996167">
        <ele>999.0</ele>
        <time>2019-07-31T15:15:14.106Z</time>
      </trkpt>
      <trkpt lat="43.00428167" lon="-1.11996667">
        <ele>999.0</ele>
        <time>2019-07-31T15:15:15.110Z</time>
      </trkpt>
      <trkpt lat="43.00429" lon="-1.11997">
        <ele>999.0</ele>
        <time>2019-07-31T15:15:16.115Z</time>
      </trkpt>
      <trkpt lat="43.00429833" lon="-1.119975">
        <ele>998.0</ele>
        <time>2019-07-31T15:15:17.119Z</time>
      </trkpt>
      <trkpt lat="43.00431" lon="-1.11998833">
        <ele>998.0</ele>
        <time>2019-07-31T15:15:18.123Z</time>
      </trkpt>
      <trkpt lat="43.00432167" lon="-1.12000167">
        <ele>996.0</ele>
        <time>2019-07-31T15:15:19.127Z</time>
      </trkpt>
      <trkpt lat="43.00432833" lon="-1.12001833">
        <ele>996.0</ele>
        <time>2019-07-31T15:15:20.132Z</time>
      </trkpt>
      <trkpt lat="43.00434333" lon="-1.12004">
        <ele>996.0</ele>
        <time>2019-07-31T15:15:21.138Z</time>
      </trkpt>
      <trkpt lat="43.00435833" lon="-1.12005333">
        <ele>996.0</ele>
        <time>2019-07-31T15:15:22.142Z</time>
      </trkpt>
      <trkpt lat="43.004375" lon="-1.12007">
        <ele>995.0</ele>
        <time>2019-07-31T15:15:23.147Z</time>
      </trkpt>
      <trkpt lat="43.00438333" lon="-1.12008667">
        <ele>993.0</ele>
        <time>2019-07-31T15:15:24.154Z</time>
      </trkpt>
      <trkpt lat="43.00439" lon="-1.12009833">
        <ele>992.0</ele>
        <time>2019-07-31T15:15:25.159Z</time>
      </trkpt>
      <trkpt lat="43.004395" lon="-1.12011167">
        <ele>992.0</ele>
        <time>2019-07-31T15:15:26.165Z</time>
      </trkpt>
      <trkpt lat="43.00440333" lon="-1.12012333">
        <ele>992.0</ele>
        <time>2019-07-31T15:15:27.170Z</time>
      </trkpt>
      <trkpt lat="43.00441333" lon="-1.12013167">
        <ele>994.0</ele>
        <time>2019-07-31T15:15:28.176Z</time>
      </trkpt>
      <trkpt lat="43.004425" lon="-1.12013333">
        <ele>994.0</ele>
        <time>2019-07-31T15:15:29.181Z</time>
      </trkpt>
      <trkpt lat="43.00443667" lon="-1.12013833">
        <ele>994.0</ele>
        <time>2019-07-31T15:15:30.061Z</time>
      </trkpt>
      <trkpt lat="43.00445" lon="-1.12014333">
        <ele>994.0</ele>
        <time>2019-07-31T15:15:31.067Z</time>
      </trkpt>
      <trkpt lat="43.00446" lon="-1.12014333">
        <ele>994.0</ele>
        <time>2019-07-31T15:15:32.070Z</time>
      </trkpt>
      <trkpt lat="43.00447167" lon="-1.120145">
        <ele>993.0</ele>
        <time>2019-07-31T15:15:33.075Z</time>
      </trkpt>
      <trkpt lat="43.00448333" lon="-1.12015333">
        <ele>993.0</ele>
        <time>2019-07-31T15:15:34.079Z</time>
      </trkpt>
      <trkpt lat="43.00448667" lon="-1.120165">
        <ele>992.0</ele>
        <time>2019-07-31T15:15:35.079Z</time>
      </trkpt>
      <trkpt lat="43.00449333" lon="-1.12018">
        <ele>990.0</ele>
        <time>2019-07-31T15:15:36.085Z</time>
      </trkpt>
      <trkpt lat="43.004505" lon="-1.12019333">
        <ele>989.0</ele>
        <time>2019-07-31T15:15:37.093Z</time>
      </trkpt>
      <trkpt lat="43.004515" lon="-1.120205">
        <ele>988.0</ele>
        <time>2019-07-31T15:15:38.097Z</time>
      </trkpt>
      <trkpt lat="43.00452667" lon="-1.12021667">
        <ele>987.0</ele>
        <time>2019-07-31T15:15:39.103Z</time>
      </trkpt>
      <trkpt lat="43.00453333" lon="-1.12023333">
        <ele>987.0</ele>
        <time>2019-07-31T15:15:40.108Z</time>
      </trkpt>
      <trkpt lat="43.00453833" lon="-1.120245">
        <ele>986.0</ele>
        <time>2019-07-31T15:15:41.114Z</time>
      </trkpt>
      <trkpt lat="43.00454833" lon="-1.12025333">
        <ele>985.0</ele>
        <time>2019-07-31T15:15:42.119Z</time>
      </trkpt>
      <trkpt lat="43.004555" lon="-1.120265">
        <ele>985.0</ele>
        <time>2019-07-31T15:15:43.125Z</time>
      </trkpt>
      <trkpt lat="43.00456667" lon="-1.12026833">
        <ele>985.0</ele>
        <time>2019-07-31T15:15:44.130Z</time>
      </trkpt>
      <trkpt lat="43.00458" lon="-1.120275">
        <ele>985.0</ele>
        <time>2019-07-31T15:15:45.134Z</time>
      </trkpt>
      <trkpt lat="43.00459" lon="-1.12027833">
        <ele>984.0</ele>
        <time>2019-07-31T15:15:46.140Z</time>
      </trkpt>
      <trkpt lat="43.004605" lon="-1.12028833">
        <ele>983.0</ele>
        <time>2019-07-31T15:15:47.145Z</time>
      </trkpt>
      <trkpt lat="43.00461167" lon="-1.12029667">
        <ele>982.0</ele>
        <time>2019-07-31T15:15:48.151Z</time>
      </trkpt>
      <trkpt lat="43.00462333" lon="-1.12031167">
        <ele>981.0</ele>
        <time>2019-07-31T15:15:49.158Z</time>
      </trkpt>
      <trkpt lat="43.00463" lon="-1.12032167">
        <ele>981.0</ele>
        <time>2019-07-31T15:15:50.162Z</time>
      </trkpt>
      <trkpt lat="43.00463667" lon="-1.12033167">
        <ele>980.0</ele>
        <time>2019-07-31T15:15:51.167Z</time>
      </trkpt>
      <trkpt lat="43.004645" lon="-1.12034167">
        <ele>980.0</ele>
        <time>2019-07-31T15:15:52.171Z</time>
      </trkpt>
      <trkpt lat="43.00465167" lon="-1.12035167">
        <ele>980.0</ele>
        <time>2019-07-31T15:15:53.176Z</time>
      </trkpt>
      <trkpt lat="43.00466167" lon="-1.12036">
        <ele>979.0</ele>
        <time>2019-07-31T15:15:54.180Z</time>
      </trkpt>
      <trkpt lat="43.00466833" lon="-1.12036333">
        <ele>979.0</ele>
        <time>2019-07-31T15:15:55.186Z</time>
      </trkpt>
      <trkpt lat="43.00468" lon="-1.12037333">
        <ele>979.0</ele>
        <time>2019-07-31T15:15:56.066Z</time>
      </trkpt>
      <trkpt lat="43.00468833" lon="-1.12037833">
        <ele>979.0</ele>
        <time>2019-07-31T15:15:57.072Z</time>
      </trkpt>
      <trkpt lat="43.00469667" lon="-1.12038833">
        <ele>979.0</ele>
        <time>2019-07-31T15:15:58.079Z</time>
      </trkpt>
      <trkpt lat="43.00470167" lon="-1.12039667">
        <ele>980.0</ele>
        <time>2019-07-31T15:15:59.084Z</time>
      </trkpt>
      <trkpt lat="43.00470667" lon="-1.12041333">
        <ele>981.0</ele>
        <time>2019-07-31T15:16:00.089Z</time>
      </trkpt>
      <trkpt lat="43.00471167" lon="-1.12042833">
        <ele>981.0</ele>
        <time>2019-07-31T15:16:01.094Z</time>
      </trkpt>
      <trkpt lat="43.00472167" lon="-1.12043833">
        <ele>980.0</ele>
        <time>2019-07-31T15:16:02.100Z</time>
      </trkpt>
      <trkpt lat="43.00473" lon="-1.12044833">
        <ele>980.0</ele>
        <time>2019-07-31T15:16:03.106Z</time>
      </trkpt>
      <trkpt lat="43.00473667" lon="-1.12045833">
        <ele>979.0</ele>
        <time>2019-07-31T15:16:04.111Z</time>
      </trkpt>
      <trkpt lat="43.004745" lon="-1.120465">
        <ele>978.0</ele>
        <time>2019-07-31T15:16:05.119Z</time>
      </trkpt>
      <trkpt lat="43.004755" lon="-1.12047167">
        <ele>977.0</ele>
        <time>2019-07-31T15:16:06.125Z</time>
      </trkpt>
      <trkpt lat="43.00476167" lon="-1.12047833">
        <ele>976.0</ele>
        <time>2019-07-31T15:16:07.131Z</time>
      </trkpt>
      <trkpt lat="43.00477167" lon="-1.12048333">
        <ele>975.0</ele>
        <time>2019-07-31T15:16:08.138Z</time>
      </trkpt>
      <trkpt lat="43.00479" lon="-1.120485">
        <ele>975.0</ele>
        <time>2019-07-31T15:16:09.143Z</time>
      </trkpt>
      <trkpt lat="43.0048" lon="-1.120495">
        <ele>975.0</ele>
        <time>2019-07-31T15:16:10.146Z</time>
      </trkpt>
      <trkpt lat="43.00480833" lon="-1.12050333">
        <ele>976.0</ele>
        <time>2019-07-31T15:16:11.151Z</time>
      </trkpt>
      <trkpt lat="43.00481333" lon="-1.12050833">
        <ele>975.0</ele>
        <time>2019-07-31T15:16:12.157Z</time>
      </trkpt>
      <trkpt lat="43.00481167" lon="-1.12052333">
        <ele>975.0</ele>
        <time>2019-07-31T15:16:13.162Z</time>
      </trkpt>
      <trkpt lat="43.00481833" lon="-1.12053">
        <ele>975.0</ele>
        <time>2019-07-31T15:16:14.167Z</time>
      </trkpt>
      <trkpt lat="43.00482833" lon="-1.12053833">
        <ele>976.0</ele>
        <time>2019-07-31T15:16:15.172Z</time>
      </trkpt>
      <trkpt lat="43.00484167" lon="-1.12054333">
        <ele>976.0</ele>
        <time>2019-07-31T15:16:16.176Z</time>
      </trkpt>
      <trkpt lat="43.00484833" lon="-1.12055167">
        <ele>978.0</ele>
        <time>2019-07-31T15:16:17.182Z</time>
      </trkpt>
      <trkpt lat="43.00486167" lon="-1.12056">
        <ele>976.0</ele>
        <time>2019-07-31T15:16:18.061Z</time>
      </trkpt>
      <trkpt lat="43.00487667" lon="-1.12056">
        <ele>976.0</ele>
        <time>2019-07-31T15:16:19.067Z</time>
      </trkpt>
      <trkpt lat="43.00489" lon="-1.12056333">
        <ele>976.0</ele>
        <time>2019-07-31T15:16:20.073Z</time>
      </trkpt>
      <trkpt lat="43.00490167" lon="-1.12056667">
        <ele>975.0</ele>
        <time>2019-07-31T15:16:21.078Z</time>
      </trkpt>
      <trkpt lat="43.00491167" lon="-1.120565">
        <ele>974.0</ele>
        <time>2019-07-31T15:16:22.083Z</time>
      </trkpt>
      <trkpt lat="43.00492" lon="-1.12057667">
        <ele>973.0</ele>
        <time>2019-07-31T15:16:23.087Z</time>
      </trkpt>
      <trkpt lat="43.00493333" lon="-1.12058667">
        <ele>971.0</ele>
        <time>2019-07-31T15:16:24.093Z</time>
      </trkpt>
      <trkpt lat="43.00494" lon="-1.120595">
        <ele>971.0</ele>
        <time>2019-07-31T15:16:25.099Z</time>
      </trkpt>
      <trkpt lat="43.00493833" lon="-1.120605">
        <ele>970.0</ele>
        <time>2019-07-31T15:16:26.105Z</time>
      </trkpt>
      <trkpt lat="43.004945" lon="-1.12061333">
        <ele>969.0</ele>
        <time>2019-07-31T15:16:27.112Z</time>
      </trkpt>
      <trkpt lat="43.00495" lon="-1.12062833">
        <ele>969.0</ele>
        <time>2019-07-31T15:16:28.117Z</time>
      </trkpt>
      <trkpt lat="43.00495167" lon="-1.12064833">
        <ele>968.0</ele>
        <time>2019-07-31T15:16:29.123Z</time>
      </trkpt>
      <trkpt lat="43.004955" lon="-1.12066667">
        <ele>967.0</ele>
        <time>2019-07-31T15:16:30.129Z</time>
      </trkpt>
      <trkpt lat="43.00496" lon="-1.120675">
        <ele>967.0</ele>
        <time>2019-07-31T15:16:31.133Z</time>
      </trkpt>
      <trkpt lat="43.004975" lon="-1.12068667">
        <ele>966.0</ele>
        <time>2019-07-31T15:16:32.138Z</time>
      </trkpt>
      <trkpt lat="43.00498333" lon="-1.12069667">
        <ele>966.0</ele>
        <time>2019-07-31T15:16:33.142Z</time>
      </trkpt>
      <trkpt lat="43.00499167" lon="-1.120705">
        <ele>966.0</ele>
        <time>2019-07-31T15:16:34.149Z</time>
      </trkpt>
      <trkpt lat="43.00499667" lon="-1.12071833">
        <ele>965.0</ele>
        <time>2019-07-31T15:16:35.155Z</time>
      </trkpt>
      <trkpt lat="43.00500833" lon="-1.12073">
        <ele>966.0</ele>
        <time>2019-07-31T15:16:36.158Z</time>
      </trkpt>
      <trkpt lat="43.00501667" lon="-1.12074667">
        <ele>966.0</ele>
        <time>2019-07-31T15:16:37.163Z</time>
      </trkpt>
      <trkpt lat="43.00502833" lon="-1.120755">
        <ele>965.0</ele>
        <time>2019-07-31T15:16:38.169Z</time>
      </trkpt>
      <trkpt lat="43.00504" lon="-1.12076667">
        <ele>964.0</ele>
        <time>2019-07-31T15:16:39.176Z</time>
      </trkpt>
      <trkpt lat="43.005055" lon="-1.12077833">
        <ele>963.0</ele>
        <time>2019-07-31T15:16:40.182Z</time>
      </trkpt>
      <trkpt lat="43.00506333" lon="-1.12078667">
        <ele>963.0</ele>
        <time>2019-07-31T15:16:41.061Z</time>
      </trkpt>
      <trkpt lat="43.00507167" lon="-1.12080167">
        <ele>963.0</ele>
        <time>2019-07-31T15:16:42.067Z</time>
      </trkpt>
      <trkpt lat="43.00507833" lon="-1.120815">
        <ele>963.0</ele>
        <time>2019-07-31T15:16:43.071Z</time>
      </trkpt>
      <trkpt lat="43.00508333" lon="-1.120825">
        <ele>962.0</ele>
        <time>2019-07-31T15:16:44.076Z</time>
      </trkpt>
      <trkpt lat="43.005085" lon="-1.12084167">
        <ele>962.0</ele>
        <time>2019-07-31T15:16:45.080Z</time>
      </trkpt>
      <trkpt lat="43.00508833" lon="-1.12085667">
        <ele>963.0</ele>
        <time>2019-07-31T15:16:46.084Z</time>
      </trkpt>
      <trkpt lat="43.00509" lon="-1.12086667">
        <ele>963.0</ele>
        <time>2019-07-31T15:16:47.089Z</time>
      </trkpt>
      <trkpt lat="43.00509167" lon="-1.12087667">
        <ele>963.0</ele>
        <time>2019-07-31T15:16:48.094Z</time>
      </trkpt>
      <trkpt lat="43.00509333" lon="-1.120885">
        <ele>963.0</ele>
        <time>2019-07-31T15:16:49.101Z</time>
      </trkpt>
      <trkpt lat="43.00509833" lon="-1.1209">
        <ele>963.0</ele>
        <time>2019-07-31T15:16:50.105Z</time>
      </trkpt>
      <trkpt lat="43.00510167" lon="-1.12091167">
        <ele>962.0</ele>
        <time>2019-07-31T15:16:51.111Z</time>
      </trkpt>
      <trkpt lat="43.00510667" lon="-1.12092333">
        <ele>961.0</ele>
        <time>2019-07-31T15:16:52.116Z</time>
      </trkpt>
      <trkpt lat="43.00511333" lon="-1.12093167">
        <ele>961.0</ele>
        <time>2019-07-31T15:16:53.123Z</time>
      </trkpt>
      <trkpt lat="43.00512" lon="-1.12094167">
        <ele>960.0</ele>
        <time>2019-07-31T15:16:54.128Z</time>
      </trkpt>
      <trkpt lat="43.00512167" lon="-1.12095333">
        <ele>959.0</ele>
        <time>2019-07-31T15:16:55.131Z</time>
      </trkpt>
      <trkpt lat="43.00512667" lon="-1.12096333">
        <ele>959.0</ele>
        <time>2019-07-31T15:16:56.134Z</time>
      </trkpt>
      <trkpt lat="43.00513" lon="-1.12097333">
        <ele>958.0</ele>
        <time>2019-07-31T15:16:57.135Z</time>
      </trkpt>
      <trkpt lat="43.00513333" lon="-1.12098167">
        <ele>958.0</ele>
        <time>2019-07-31T15:16:58.137Z</time>
      </trkpt>
      <trkpt lat="43.00513833" lon="-1.12098833">
        <ele>958.0</ele>
        <time>2019-07-31T15:16:59.139Z</time>
      </trkpt>
      <trkpt lat="43.005145" lon="-1.121">
        <ele>957.0</ele>
        <time>2019-07-31T15:17:00.145Z</time>
      </trkpt>
      <trkpt lat="43.00515333" lon="-1.12100667">
        <ele>956.0</ele>
        <time>2019-07-31T15:17:01.150Z</time>
      </trkpt>
      <trkpt lat="43.005155" lon="-1.12102">
        <ele>956.0</ele>
        <time>2019-07-31T15:17:02.156Z</time>
      </trkpt>
      <trkpt lat="43.00515833" lon="-1.12103333">
        <ele>956.0</ele>
        <time>2019-07-31T15:17:03.163Z</time>
      </trkpt>
      <trkpt lat="43.00516167" lon="-1.12104333">
        <ele>956.0</ele>
        <time>2019-07-31T15:17:04.169Z</time>
      </trkpt>
      <trkpt lat="43.00516833" lon="-1.121055">
        <ele>956.0</ele>
        <time>2019-07-31T15:17:05.174Z</time>
      </trkpt>
      <trkpt lat="43.00517333" lon="-1.12106833">
        <ele>957.0</ele>
        <time>2019-07-31T15:17:06.178Z</time>
      </trkpt>
      <trkpt lat="43.00517667" lon="-1.121085">
        <ele>958.0</ele>
        <time>2019-07-31T15:17:07.182Z</time>
      </trkpt>
      <trkpt lat="43.005185" lon="-1.12109833">
        <ele>958.0</ele>
        <time>2019-07-31T15:17:08.061Z</time>
      </trkpt>
      <trkpt lat="43.00519167" lon="-1.12111167">
        <ele>959.0</ele>
        <time>2019-07-31T15:17:09.066Z</time>
      </trkpt>
      <trkpt lat="43.005195" lon="-1.12112833">
        <ele>959.0</ele>
        <time>2019-07-31T15:17:10.072Z</time>
      </trkpt>
      <trkpt lat="43.0052" lon="-1.12114167">
        <ele>958.0</ele>
        <time>2019-07-31T15:17:11.078Z</time>
      </trkpt>
      <trkpt lat="43.005205" lon="-1.12114667">
        <ele>958.0</ele>
        <time>2019-07-31T15:17:12.083Z</time>
      </trkpt>
      <trkpt lat="43.00521667" lon="-1.12115">
        <ele>958.0</ele>
        <time>2019-07-31T15:17:13.085Z</time>
      </trkpt>
      <trkpt lat="43.00522833" lon="-1.12116333">
        <ele>957.0</ele>
        <time>2019-07-31T15:17:14.091Z</time>
      </trkpt>
      <trkpt lat="43.005235" lon="-1.12117833">
        <ele>959.0</ele>
        <time>2019-07-31T15:17:15.097Z</time>
      </trkpt>
      <trkpt lat="43.00524" lon="-1.12119833">
        <ele>961.0</ele>
        <time>2019-07-31T15:17:16.103Z</time>
      </trkpt>
      <trkpt lat="43.00524333" lon="-1.12121333">
        <ele>962.0</ele>
        <time>2019-07-31T15:17:17.108Z</time>
      </trkpt>
      <trkpt lat="43.005245" lon="-1.12123333">
        <ele>962.0</ele>
        <time>2019-07-31T15:17:18.113Z</time>
      </trkpt>
      <trkpt lat="43.00524667" lon="-1.12125">
        <ele>961.0</ele>
        <time>2019-07-31T15:17:19.118Z</time>
      </trkpt>
      <trkpt lat="43.00525333" lon="-1.12126667">
        <ele>960.0</ele>
        <time>2019-07-31T15:17:20.124Z</time>
      </trkpt>
      <trkpt lat="43.00526167" lon="-1.12128167">
        <ele>959.0</ele>
        <time>2019-07-31T15:17:21.130Z</time>
      </trkpt>
      <trkpt lat="43.00527" lon="-1.1213">
        <ele>958.0</ele>
        <time>2019-07-31T15:17:22.134Z</time>
      </trkpt>
      <trkpt lat="43.00527667" lon="-1.12131833">
        <ele>956.0</ele>
        <time>2019-07-31T15:17:23.139Z</time>
      </trkpt>
      <trkpt lat="43.00527833" lon="-1.12133833">
        <ele>956.0</ele>
        <time>2019-07-31T15:17:24.146Z</time>
      </trkpt>
      <trkpt lat="43.005285" lon="-1.12135">
        <ele>954.0</ele>
        <time>2019-07-31T15:17:25.153Z</time>
      </trkpt>
      <trkpt lat="43.00529" lon="-1.12136333">
        <ele>953.0</ele>
        <time>2019-07-31T15:17:26.159Z</time>
      </trkpt>
      <trkpt lat="43.00529833" lon="-1.12137667">
        <ele>952.0</ele>
        <time>2019-07-31T15:17:27.165Z</time>
      </trkpt>
      <trkpt lat="43.00530833" lon="-1.12139833">
        <ele>953.0</ele>
        <time>2019-07-31T15:17:28.170Z</time>
      </trkpt>
      <trkpt lat="43.00532333" lon="-1.12141667">
        <ele>953.0</ele>
        <time>2019-07-31T15:17:29.177Z</time>
      </trkpt>
      <trkpt lat="43.00533333" lon="-1.12143">
        <ele>952.0</ele>
        <time>2019-07-31T15:17:30.182Z</time>
      </trkpt>
      <trkpt lat="43.00534" lon="-1.12144333">
        <ele>952.0</ele>
        <time>2019-07-31T15:17:31.061Z</time>
      </trkpt>
      <trkpt lat="43.00534833" lon="-1.12146167">
        <ele>952.0</ele>
        <time>2019-07-31T15:17:32.066Z</time>
      </trkpt>
      <trkpt lat="43.00535667" lon="-1.12148167">
        <ele>952.0</ele>
        <time>2019-07-31T15:17:33.071Z</time>
      </trkpt>
      <trkpt lat="43.00536167" lon="-1.12150333">
        <ele>952.0</ele>
        <time>2019-07-31T15:17:34.078Z</time>
      </trkpt>
      <trkpt lat="43.00536833" lon="-1.12152167">
        <ele>951.0</ele>
        <time>2019-07-31T15:17:35.083Z</time>
      </trkpt>
      <trkpt lat="43.005375" lon="-1.12154167">
        <ele>949.0</ele>
        <time>2019-07-31T15:17:36.088Z</time>
      </trkpt>
      <trkpt lat="43.00538167" lon="-1.12155667">
        <ele>948.0</ele>
        <time>2019-07-31T15:17:37.094Z</time>
      </trkpt>
      <trkpt lat="43.00538667" lon="-1.12157333">
        <ele>947.0</ele>
        <time>2019-07-31T15:17:38.099Z</time>
      </trkpt>
      <trkpt lat="43.005395" lon="-1.12158333">
        <ele>947.0</ele>
        <time>2019-07-31T15:17:39.106Z</time>
      </trkpt>
      <trkpt lat="43.0054" lon="-1.12159667">
        <ele>947.0</ele>
        <time>2019-07-31T15:17:40.111Z</time>
      </trkpt>
      <trkpt lat="43.00541" lon="-1.12161">
        <ele>946.0</ele>
        <time>2019-07-31T15:17:41.117Z</time>
      </trkpt>
      <trkpt lat="43.00541833" lon="-1.12161833">
        <ele>946.0</ele>
        <time>2019-07-31T15:17:42.124Z</time>
      </trkpt>
      <trkpt lat="43.00542833" lon="-1.12161833">
        <ele>947.0</ele>
        <time>2019-07-31T15:17:43.130Z</time>
      </trkpt>
      <trkpt lat="43.00543667" lon="-1.12162333">
        <ele>947.0</ele>
        <time>2019-07-31T15:17:44.137Z</time>
      </trkpt>
      <trkpt lat="43.00544833" lon="-1.12163833">
        <ele>948.0</ele>
        <time>2019-07-31T15:17:45.143Z</time>
      </trkpt>
      <trkpt lat="43.00546" lon="-1.121645">
        <ele>947.0</ele>
        <time>2019-07-31T15:17:46.149Z</time>
      </trkpt>
      <trkpt lat="43.005465" lon="-1.121655">
        <ele>947.0</ele>
        <time>2019-07-31T15:17:47.155Z</time>
      </trkpt>
      <trkpt lat="43.00546833" lon="-1.12166333">
        <ele>947.0</ele>
        <time>2019-07-31T15:17:48.162Z</time>
      </trkpt>
      <trkpt lat="43.00547167" lon="-1.12167667">
        <ele>948.0</ele>
        <time>2019-07-31T15:17:49.167Z</time>
      </trkpt>
      <trkpt lat="43.005475" lon="-1.12168833">
        <ele>948.0</ele>
        <time>2019-07-31T15:17:50.173Z</time>
      </trkpt>
      <trkpt lat="43.00548" lon="-1.12169833">
        <ele>948.0</ele>
        <time>2019-07-31T15:17:51.178Z</time>
      </trkpt>
      <trkpt lat="43.00548667" lon="-1.12171">
        <ele>947.0</ele>
        <time>2019-07-31T15:17:52.184Z</time>
      </trkpt>
      <trkpt lat="43.00549167" lon="-1.12172333">
        <ele>947.0</ele>
        <time>2019-07-31T15:17:53.063Z</time>
      </trkpt>
      <trkpt lat="43.0055" lon="-1.12173833">
        <ele>947.0</ele>
        <time>2019-07-31T15:17:54.069Z</time>
      </trkpt>
      <trkpt lat="43.00551" lon="-1.12175667">
        <ele>947.0</ele>
        <time>2019-07-31T15:17:55.073Z</time>
      </trkpt>
      <trkpt lat="43.00551667" lon="-1.12177167">
        <ele>947.0</ele>
        <time>2019-07-31T15:17:56.078Z</time>
      </trkpt>
      <trkpt lat="43.00551833" lon="-1.12178333">
        <ele>947.0</ele>
        <time>2019-07-31T15:17:57.082Z</time>
      </trkpt>
      <trkpt lat="43.00552167" lon="-1.12179833">
        <ele>947.0</ele>
        <time>2019-07-31T15:17:58.086Z</time>
      </trkpt>
      <trkpt lat="43.005525" lon="-1.12181">
        <ele>946.0</ele>
        <time>2019-07-31T15:17:59.092Z</time>
      </trkpt>
      <trkpt lat="43.00552833" lon="-1.12182">
        <ele>946.0</ele>
        <time>2019-07-31T15:18:00.097Z</time>
      </trkpt>
      <trkpt lat="43.00553167" lon="-1.12183">
        <ele>946.0</ele>
        <time>2019-07-31T15:18:01.103Z</time>
      </trkpt>
      <trkpt lat="43.00553667" lon="-1.12183833">
        <ele>947.0</ele>
        <time>2019-07-31T15:18:02.109Z</time>
      </trkpt>
      <trkpt lat="43.00554" lon="-1.12184667">
        <ele>947.0</ele>
        <time>2019-07-31T15:18:03.115Z</time>
      </trkpt>
      <trkpt lat="43.00554667" lon="-1.12185667">
        <ele>948.0</ele>
        <time>2019-07-31T15:18:04.121Z</time>
      </trkpt>
      <trkpt lat="43.00555333" lon="-1.12186833">
        <ele>949.0</ele>
        <time>2019-07-31T15:18:05.126Z</time>
      </trkpt>
      <trkpt lat="43.00556167" lon="-1.121875">
        <ele>950.0</ele>
        <time>2019-07-31T15:18:06.132Z</time>
      </trkpt>
      <trkpt lat="43.00557" lon="-1.12188333">
        <ele>950.0</ele>
        <time>2019-07-31T15:18:07.138Z</time>
      </trkpt>
      <trkpt lat="43.00557833" lon="-1.12189">
        <ele>951.0</ele>
        <time>2019-07-31T15:18:08.144Z</time>
      </trkpt>
      <trkpt lat="43.00558667" lon="-1.12190167">
        <ele>951.0</ele>
        <time>2019-07-31T15:18:09.150Z</time>
      </trkpt>
      <trkpt lat="43.00559667" lon="-1.12191167">
        <ele>952.0</ele>
        <time>2019-07-31T15:18:10.155Z</time>
      </trkpt>
      <trkpt lat="43.00560833" lon="-1.12192333">
        <ele>952.0</ele>
        <time>2019-07-31T15:18:11.160Z</time>
      </trkpt>
      <trkpt lat="43.00562167" lon="-1.12193833">
        <ele>953.0</ele>
        <time>2019-07-31T15:18:12.166Z</time>
      </trkpt>
      <trkpt lat="43.00563333" lon="-1.12195667">
        <ele>952.0</ele>
        <time>2019-07-31T15:18:13.171Z</time>
      </trkpt>
      <trkpt lat="43.005645" lon="-1.12197333">
        <ele>953.0</ele>
        <time>2019-07-31T15:18:14.177Z</time>
      </trkpt>
      <trkpt lat="43.00565667" lon="-1.12198167">
        <ele>953.0</ele>
        <time>2019-07-31T15:18:15.184Z</time>
      </trkpt>
      <trkpt lat="43.00566833" lon="-1.12198833">
        <ele>953.0</ele>
        <time>2019-07-31T15:18:16.064Z</time>
      </trkpt>
      <trkpt lat="43.00568" lon="-1.12200167">
        <ele>954.0</ele>
        <time>2019-07-31T15:18:17.067Z</time>
      </trkpt>
      <trkpt lat="43.00569167" lon="-1.12201333">
        <ele>954.0</ele>
        <time>2019-07-31T15:18:18.072Z</time>
      </trkpt>
      <trkpt lat="43.00570167" lon="-1.12203">
        <ele>954.0</ele>
        <time>2019-07-31T15:18:19.076Z</time>
      </trkpt>
      <trkpt lat="43.00571" lon="-1.12205">
        <ele>954.0</ele>
        <time>2019-07-31T15:18:20.081Z</time>
      </trkpt>
      <trkpt lat="43.00571833" lon="-1.12206667">
        <ele>955.0</ele>
        <time>2019-07-31T15:18:21.084Z</time>
      </trkpt>
      <trkpt lat="43.00572667" lon="-1.12208167">
        <ele>955.0</ele>
        <time>2019-07-31T15:18:22.089Z</time>
      </trkpt>
      <trkpt lat="43.005735" lon="-1.12209833">
        <ele>954.0</ele>
        <time>2019-07-31T15:18:23.096Z</time>
      </trkpt>
      <trkpt lat="43.00574667" lon="-1.12210667">
        <ele>954.0</ele>
        <time>2019-07-31T15:18:24.101Z</time>
      </trkpt>
      <trkpt lat="43.00576" lon="-1.122115">
        <ele>955.0</ele>
        <time>2019-07-31T15:18:25.107Z</time>
      </trkpt>
      <trkpt lat="43.005775" lon="-1.12212">
        <ele>956.0</ele>
        <time>2019-07-31T15:18:26.113Z</time>
      </trkpt>
      <trkpt lat="43.00578833" lon="-1.12212667">
        <ele>956.0</ele>
        <time>2019-07-31T15:18:27.118Z</time>
      </trkpt>
      <trkpt lat="43.00579667" lon="-1.12213667">
        <ele>956.0</ele>
        <time>2019-07-31T15:18:28.122Z</time>
      </trkpt>
      <trkpt lat="43.00580333" lon="-1.12214667">
        <ele>956.0</ele>
        <time>2019-07-31T15:18:29.127Z</time>
      </trkpt>
      <trkpt lat="43.00581" lon="-1.12216167">
        <ele>955.0</ele>
        <time>2019-07-31T15:18:30.135Z</time>
      </trkpt>
      <trkpt lat="43.00582" lon="-1.12217333">
        <ele>955.0</ele>
        <time>2019-07-31T15:18:31.142Z</time>
      </trkpt>
      <trkpt lat="43.00582833" lon="-1.12218833">
        <ele>955.0</ele>
        <time>2019-07-31T15:18:32.148Z</time>
      </trkpt>
      <trkpt lat="43.00583667" lon="-1.12219833">
        <ele>955.0</ele>
        <time>2019-07-31T15:18:33.153Z</time>
      </trkpt>
      <trkpt lat="43.00584" lon="-1.12220667">
        <ele>956.0</ele>
        <time>2019-07-31T15:18:34.158Z</time>
      </trkpt>
      <trkpt lat="43.00584833" lon="-1.12222">
        <ele>956.0</ele>
        <time>2019-07-31T15:18:35.166Z</time>
      </trkpt>
      <trkpt lat="43.00586" lon="-1.12223833">
        <ele>955.0</ele>
        <time>2019-07-31T15:18:36.172Z</time>
      </trkpt>
      <trkpt lat="43.00587333" lon="-1.12227167">
        <ele>954.0</ele>
        <time>2019-07-31T15:18:37.178Z</time>
      </trkpt>
      <trkpt lat="43.00588" lon="-1.12229">
        <ele>953.0</ele>
        <time>2019-07-31T15:18:38.184Z</time>
      </trkpt>
      <trkpt lat="43.00589167" lon="-1.122305">
        <ele>952.0</ele>
        <time>2019-07-31T15:18:39.062Z</time>
      </trkpt>
      <trkpt lat="43.00589833" lon="-1.12232167">
        <ele>950.0</ele>
        <time>2019-07-31T15:18:40.065Z</time>
      </trkpt>
      <trkpt lat="43.005905" lon="-1.12234">
        <ele>949.0</ele>
        <time>2019-07-31T15:18:41.070Z</time>
      </trkpt>
      <trkpt lat="43.00591167" lon="-1.12235167">
        <ele>948.0</ele>
        <time>2019-07-31T15:18:42.074Z</time>
      </trkpt>
      <trkpt lat="43.00593" lon="-1.12235833">
        <ele>946.0</ele>
        <time>2019-07-31T15:18:43.080Z</time>
      </trkpt>
      <trkpt lat="43.00594333" lon="-1.122355">
        <ele>945.0</ele>
        <time>2019-07-31T15:18:44.084Z</time>
      </trkpt>
      <trkpt lat="43.005955" lon="-1.12235667">
        <ele>945.0</ele>
        <time>2019-07-31T15:18:45.088Z</time>
      </trkpt>
      <trkpt lat="43.00596833" lon="-1.12237">
        <ele>946.0</ele>
        <time>2019-07-31T15:18:46.094Z</time>
      </trkpt>
      <trkpt lat="43.00598167" lon="-1.12238333">
        <ele>946.0</ele>
        <time>2019-07-31T15:18:47.100Z</time>
      </trkpt>
      <trkpt lat="43.005995" lon="-1.12239167">
        <ele>946.0</ele>
        <time>2019-07-31T15:18:48.106Z</time>
      </trkpt>
      <trkpt lat="43.00601167" lon="-1.12239833">
        <ele>947.0</ele>
        <time>2019-07-31T15:18:49.113Z</time>
      </trkpt>
      <trkpt lat="43.00602167" lon="-1.12240833">
        <ele>947.0</ele>
        <time>2019-07-31T15:18:50.118Z</time>
      </trkpt>
      <trkpt lat="43.00603" lon="-1.122425">
        <ele>947.0</ele>
        <time>2019-07-31T15:18:51.122Z</time>
      </trkpt>
      <trkpt lat="43.00603333" lon="-1.12244833">
        <ele>946.0</ele>
        <time>2019-07-31T15:18:52.126Z</time>
      </trkpt>
      <trkpt lat="43.00603833" lon="-1.122465">
        <ele>946.0</ele>
        <time>2019-07-31T15:18:53.132Z</time>
      </trkpt>
      <trkpt lat="43.00604167" lon="-1.122485">
        <ele>945.0</ele>
        <time>2019-07-31T15:18:54.136Z</time>
      </trkpt>
      <trkpt lat="43.00605167" lon="-1.12249333">
        <ele>945.0</ele>
        <time>2019-07-31T15:18:55.141Z</time>
      </trkpt>
      <trkpt lat="43.00606" lon="-1.12250667">
        <ele>945.0</ele>
        <time>2019-07-31T15:18:56.147Z</time>
      </trkpt>
      <trkpt lat="43.00606667" lon="-1.12252167">
        <ele>944.0</ele>
        <time>2019-07-31T15:18:57.153Z</time>
      </trkpt>
      <trkpt lat="43.00607167" lon="-1.12253667">
        <ele>944.0</ele>
        <time>2019-07-31T15:18:58.155Z</time>
      </trkpt>
      <trkpt lat="43.00607667" lon="-1.122555">
        <ele>943.0</ele>
        <time>2019-07-31T15:18:59.157Z</time>
      </trkpt>
      <trkpt lat="43.006085" lon="-1.122565">
        <ele>942.0</ele>
        <time>2019-07-31T15:19:00.165Z</time>
      </trkpt>
      <trkpt lat="43.00609833" lon="-1.12257167">
        <ele>941.0</ele>
        <time>2019-07-31T15:19:01.169Z</time>
      </trkpt>
      <trkpt lat="43.00611" lon="-1.12258333">
        <ele>941.0</ele>
        <time>2019-07-31T15:19:02.175Z</time>
      </trkpt>
      <trkpt lat="43.00611833" lon="-1.122605">
        <ele>939.0</ele>
        <time>2019-07-31T15:19:03.181Z</time>
      </trkpt>
      <trkpt lat="43.006125" lon="-1.12262667">
        <ele>938.0</ele>
        <time>2019-07-31T15:19:04.186Z</time>
      </trkpt>
      <trkpt lat="43.00612833" lon="-1.122655">
        <ele>938.0</ele>
        <time>2019-07-31T15:19:05.066Z</time>
      </trkpt>
      <trkpt lat="43.00613667" lon="-1.12266333">
        <ele>937.0</ele>
        <time>2019-07-31T15:19:06.071Z</time>
      </trkpt>
      <trkpt lat="43.006145" lon="-1.12266833">
        <ele>937.0</ele>
        <time>2019-07-31T15:19:07.077Z</time>
      </trkpt>
      <trkpt lat="43.00615667" lon="-1.122675">
        <ele>937.0</ele>
        <time>2019-07-31T15:19:08.083Z</time>
      </trkpt>
      <trkpt lat="43.00616667" lon="-1.12269">
        <ele>939.0</ele>
        <time>2019-07-31T15:19:09.087Z</time>
      </trkpt>
      <trkpt lat="43.00617833" lon="-1.12270667">
        <ele>939.0</ele>
        <time>2019-07-31T15:19:10.092Z</time>
      </trkpt>
      <trkpt lat="43.00618667" lon="-1.122715">
        <ele>938.0</ele>
        <time>2019-07-31T15:19:11.098Z</time>
      </trkpt>
      <trkpt lat="43.006195" lon="-1.12272333">
        <ele>937.0</ele>
        <time>2019-07-31T15:19:12.103Z</time>
      </trkpt>
      <trkpt lat="43.00620333" lon="-1.12273">
        <ele>935.0</ele>
        <time>2019-07-31T15:19:13.110Z</time>
      </trkpt>
      <trkpt lat="43.00621167" lon="-1.12273667">
        <ele>934.0</ele>
        <time>2019-07-31T15:19:14.113Z</time>
      </trkpt>
      <trkpt lat="43.006215" lon="-1.122745">
        <ele>933.0</ele>
        <time>2019-07-31T15:19:15.120Z</time>
      </trkpt>
      <trkpt lat="43.00622" lon="-1.12276">
        <ele>933.0</ele>
        <time>2019-07-31T15:19:16.125Z</time>
      </trkpt>
      <trkpt lat="43.00622333" lon="-1.12278333">
        <ele>932.0</ele>
        <time>2019-07-31T15:19:17.131Z</time>
      </trkpt>
      <trkpt lat="43.00622667" lon="-1.12279">
        <ele>931.0</ele>
        <time>2019-07-31T15:19:18.137Z</time>
      </trkpt>
      <trkpt lat="43.00623" lon="-1.12280333">
        <ele>931.0</ele>
        <time>2019-07-31T15:19:19.143Z</time>
      </trkpt>
      <trkpt lat="43.00623167" lon="-1.12281167">
        <ele>930.0</ele>
        <time>2019-07-31T15:19:20.148Z</time>
      </trkpt>
      <trkpt lat="43.00623833" lon="-1.12282333">
        <ele>930.0</ele>
        <time>2019-07-31T15:19:21.152Z</time>
      </trkpt>
      <trkpt lat="43.00624333" lon="-1.122835">
        <ele>930.0</ele>
        <time>2019-07-31T15:19:22.157Z</time>
      </trkpt>
      <trkpt lat="43.00625" lon="-1.122845">
        <ele>929.0</ele>
        <time>2019-07-31T15:19:23.161Z</time>
      </trkpt>
      <trkpt lat="43.00625667" lon="-1.122855">
        <ele>928.0</ele>
        <time>2019-07-31T15:19:24.164Z</time>
      </trkpt>
      <trkpt lat="43.00625833" lon="-1.12286333">
        <ele>928.0</ele>
        <time>2019-07-31T15:19:25.167Z</time>
      </trkpt>
      <trkpt lat="43.006265" lon="-1.122875">
        <ele>928.0</ele>
        <time>2019-07-31T15:19:26.173Z</time>
      </trkpt>
      <trkpt lat="43.00627" lon="-1.12288667">
        <ele>927.0</ele>
        <time>2019-07-31T15:19:27.179Z</time>
      </trkpt>
      <trkpt lat="43.00627167" lon="-1.12289833">
        <ele>927.0</ele>
        <time>2019-07-31T15:19:28.185Z</time>
      </trkpt>
      <trkpt lat="43.00627333" lon="-1.12291167">
        <ele>926.0</ele>
        <time>2019-07-31T15:19:29.064Z</time>
      </trkpt>
      <trkpt lat="43.00627667" lon="-1.12292333">
        <ele>926.0</ele>
        <time>2019-07-31T15:19:30.070Z</time>
      </trkpt>
      <trkpt lat="43.00628167" lon="-1.12293167">
        <ele>926.0</ele>
        <time>2019-07-31T15:19:31.073Z</time>
      </trkpt>
      <trkpt lat="43.00628667" lon="-1.12294333">
        <ele>926.0</ele>
        <time>2019-07-31T15:19:32.079Z</time>
      </trkpt>
      <trkpt lat="43.00629167" lon="-1.122955">
        <ele>926.0</ele>
        <time>2019-07-31T15:19:33.084Z</time>
      </trkpt>
      <trkpt lat="43.006295" lon="-1.12296667">
        <ele>926.0</ele>
        <time>2019-07-31T15:19:34.088Z</time>
      </trkpt>
      <trkpt lat="43.00629667" lon="-1.12297833">
        <ele>926.0</ele>
        <time>2019-07-31T15:19:35.091Z</time>
      </trkpt>
      <trkpt lat="43.00629833" lon="-1.12299333">
        <ele>926.0</ele>
        <time>2019-07-31T15:19:36.099Z</time>
      </trkpt>
      <trkpt lat="43.00630333" lon="-1.12300167">
        <ele>925.0</ele>
        <time>2019-07-31T15:19:37.106Z</time>
      </trkpt>
      <trkpt lat="43.00630833" lon="-1.12300667">
        <ele>925.0</ele>
        <time>2019-07-31T15:19:38.111Z</time>
      </trkpt>
      <trkpt lat="43.006315" lon="-1.12300833">
        <ele>925.0</ele>
        <time>2019-07-31T15:19:39.118Z</time>
      </trkpt>
      <trkpt lat="43.00631833" lon="-1.12301333">
        <ele>926.0</ele>
        <time>2019-07-31T15:19:40.123Z</time>
      </trkpt>
      <trkpt lat="43.00632167" lon="-1.12301833">
        <ele>926.0</ele>
        <time>2019-07-31T15:19:41.126Z</time>
      </trkpt>
      <trkpt lat="43.00632667" lon="-1.12302">
        <ele>926.0</ele>
        <time>2019-07-31T15:19:42.132Z</time>
      </trkpt>
      <trkpt lat="43.00633167" lon="-1.123025">
        <ele>926.0</ele>
        <time>2019-07-31T15:19:43.138Z</time>
      </trkpt>
      <trkpt lat="43.00634" lon="-1.12303">
        <ele>925.0</ele>
        <time>2019-07-31T15:19:44.143Z</time>
      </trkpt>
      <trkpt lat="43.00634167" lon="-1.12304667">
        <ele>924.0</ele>
        <time>2019-07-31T15:19:45.150Z</time>
      </trkpt>
      <trkpt lat="43.00634167" lon="-1.12306167">
        <ele>923.0</ele>
        <time>2019-07-31T15:19:46.155Z</time>
      </trkpt>
      <trkpt lat="43.00634667" lon="-1.12307667">
        <ele>921.0</ele>
        <time>2019-07-31T15:19:47.161Z</time>
      </trkpt>
      <trkpt lat="43.00635333" lon="-1.12308667">
        <ele>919.0</ele>
        <time>2019-07-31T15:19:48.167Z</time>
      </trkpt>
      <trkpt lat="43.00635833" lon="-1.12309833">
        <ele>917.0</ele>
        <time>2019-07-31T15:19:49.171Z</time>
      </trkpt>
      <trkpt lat="43.00636167" lon="-1.12312">
        <ele>916.0</ele>
        <time>2019-07-31T15:19:50.176Z</time>
      </trkpt>
      <trkpt lat="43.00637" lon="-1.12313">
        <ele>915.0</ele>
        <time>2019-07-31T15:19:51.181Z</time>
      </trkpt>
      <trkpt lat="43.00637833" lon="-1.12313833">
        <ele>912.0</ele>
        <time>2019-07-31T15:19:52.185Z</time>
      </trkpt>
      <trkpt lat="43.00638667" lon="-1.12315">
        <ele>913.0</ele>
        <time>2019-07-31T15:19:53.062Z</time>
      </trkpt>
      <trkpt lat="43.0064" lon="-1.123155">
        <ele>913.0</ele>
        <time>2019-07-31T15:19:54.069Z</time>
      </trkpt>
      <trkpt lat="43.006405" lon="-1.12316667">
        <ele>914.0</ele>
        <time>2019-07-31T15:19:55.073Z</time>
      </trkpt>
      <trkpt lat="43.00640333" lon="-1.12317833">
        <ele>915.0</ele>
        <time>2019-07-31T15:19:56.078Z</time>
      </trkpt>
      <trkpt lat="43.00640333" lon="-1.12319667">
        <ele>917.0</ele>
        <time>2019-07-31T15:19:57.084Z</time>
      </trkpt>
      <trkpt lat="43.00640833" lon="-1.123215">
        <ele>917.0</ele>
        <time>2019-07-31T15:19:58.089Z</time>
      </trkpt>
      <trkpt lat="43.00641667" lon="-1.12323667">
        <ele>917.0</ele>
        <time>2019-07-31T15:19:59.091Z</time>
      </trkpt>
      <trkpt lat="43.00642333" lon="-1.12325667">
        <ele>918.0</ele>
        <time>2019-07-31T15:20:00.097Z</time>
      </trkpt>
      <trkpt lat="43.00643" lon="-1.123265">
        <ele>919.0</ele>
        <time>2019-07-31T15:20:01.103Z</time>
      </trkpt>
      <trkpt lat="43.006435" lon="-1.12328333">
        <ele>920.0</ele>
        <time>2019-07-31T15:20:02.107Z</time>
      </trkpt>
      <trkpt lat="43.00644167" lon="-1.12330667">
        <ele>918.0</ele>
        <time>2019-07-31T15:20:03.109Z</time>
      </trkpt>
      <trkpt lat="43.00644833" lon="-1.12333">
        <ele>917.0</ele>
        <time>2019-07-31T15:20:04.116Z</time>
      </trkpt>
      <trkpt lat="43.00645167" lon="-1.12335333">
        <ele>917.0</ele>
        <time>2019-07-31T15:20:05.121Z</time>
      </trkpt>
      <trkpt lat="43.006455" lon="-1.12336833">
        <ele>917.0</ele>
        <time>2019-07-31T15:20:06.125Z</time>
      </trkpt>
      <trkpt lat="43.00646" lon="-1.12338167">
        <ele>917.0</ele>
        <time>2019-07-31T15:20:07.131Z</time>
      </trkpt>
      <trkpt lat="43.00646667" lon="-1.12340167">
        <ele>918.0</ele>
        <time>2019-07-31T15:20:08.137Z</time>
      </trkpt>
      <trkpt lat="43.00646833" lon="-1.123415">
        <ele>918.0</ele>
        <time>2019-07-31T15:20:09.144Z</time>
      </trkpt>
      <trkpt lat="43.00647167" lon="-1.12342833">
        <ele>919.0</ele>
        <time>2019-07-31T15:20:10.150Z</time>
      </trkpt>
      <trkpt lat="43.006475" lon="-1.12345">
        <ele>919.0</ele>
        <time>2019-07-31T15:20:11.154Z</time>
      </trkpt>
      <trkpt lat="43.00648333" lon="-1.12345833">
        <ele>919.0</ele>
        <time>2019-07-31T15:20:12.160Z</time>
      </trkpt>
      <trkpt lat="43.006485" lon="-1.12347333">
        <ele>918.0</ele>
        <time>2019-07-31T15:20:13.164Z</time>
      </trkpt>
      <trkpt lat="43.00649167" lon="-1.123485">
        <ele>918.0</ele>
        <time>2019-07-31T15:20:14.167Z</time>
      </trkpt>
      <trkpt lat="43.0065" lon="-1.12349333">
        <ele>918.0</ele>
        <time>2019-07-31T15:20:15.171Z</time>
      </trkpt>
      <trkpt lat="43.00650833" lon="-1.12350833">
        <ele>919.0</ele>
        <time>2019-07-31T15:20:16.177Z</time>
      </trkpt>
      <trkpt lat="43.00651667" lon="-1.12352833">
        <ele>921.0</ele>
        <time>2019-07-31T15:20:17.183Z</time>
      </trkpt>
      <trkpt lat="43.00652" lon="-1.12354333">
        <ele>921.0</ele>
        <time>2019-07-31T15:20:18.063Z</time>
      </trkpt>
      <trkpt lat="43.00652667" lon="-1.12355667">
        <ele>924.0</ele>
        <time>2019-07-31T15:20:19.066Z</time>
      </trkpt>
      <trkpt lat="43.00653167" lon="-1.123575">
        <ele>926.0</ele>
        <time>2019-07-31T15:20:20.071Z</time>
      </trkpt>
      <trkpt lat="43.00653833" lon="-1.12358833">
        <ele>926.0</ele>
        <time>2019-07-31T15:20:21.074Z</time>
      </trkpt>
      <trkpt lat="43.00655" lon="-1.12360167">
        <ele>927.0</ele>
        <time>2019-07-31T15:20:22.078Z</time>
      </trkpt>
      <trkpt lat="43.006565" lon="-1.12361833">
        <ele>927.0</ele>
        <time>2019-07-31T15:20:23.083Z</time>
      </trkpt>
      <trkpt lat="43.00657833" lon="-1.12364167">
        <ele>927.0</ele>
        <time>2019-07-31T15:20:24.087Z</time>
      </trkpt>
      <trkpt lat="43.00659333" lon="-1.123665">
        <ele>927.0</ele>
        <time>2019-07-31T15:20:25.092Z</time>
      </trkpt>
      <trkpt lat="43.00661167" lon="-1.123685">
        <ele>928.0</ele>
        <time>2019-07-31T15:20:26.097Z</time>
      </trkpt>
      <trkpt lat="43.00662833" lon="-1.1237">
        <ele>928.0</ele>
        <time>2019-07-31T15:20:27.103Z</time>
      </trkpt>
      <trkpt lat="43.00664667" lon="-1.12370167">
        <ele>928.0</ele>
        <time>2019-07-31T15:20:28.110Z</time>
      </trkpt>
      <trkpt lat="43.00666833" lon="-1.1237">
        <ele>927.0</ele>
        <time>2019-07-31T15:20:29.117Z</time>
      </trkpt>
      <trkpt lat="43.00668833" lon="-1.1237">
        <ele>926.0</ele>
        <time>2019-07-31T15:20:30.125Z</time>
      </trkpt>
      <trkpt lat="43.00670167" lon="-1.123705">
        <ele>925.0</ele>
        <time>2019-07-31T15:20:31.130Z</time>
      </trkpt>
      <trkpt lat="43.00671" lon="-1.12371667">
        <ele>925.0</ele>
        <time>2019-07-31T15:20:32.133Z</time>
      </trkpt>
      <trkpt lat="43.00672167" lon="-1.123725">
        <ele>925.0</ele>
        <time>2019-07-31T15:20:33.140Z</time>
      </trkpt>
      <trkpt lat="43.00674167" lon="-1.12371667">
        <ele>924.0</ele>
        <time>2019-07-31T15:20:34.148Z</time>
      </trkpt>
      <trkpt lat="43.00676" lon="-1.12371667">
        <ele>923.0</ele>
        <time>2019-07-31T15:20:35.155Z</time>
      </trkpt>
      <trkpt lat="43.006775" lon="-1.12372333">
        <ele>922.0</ele>
        <time>2019-07-31T15:20:36.161Z</time>
      </trkpt>
      <trkpt lat="43.00678333" lon="-1.123735">
        <ele>921.0</ele>
        <time>2019-07-31T15:20:37.167Z</time>
      </trkpt>
      <trkpt lat="43.00679" lon="-1.123745">
        <ele>920.0</ele>
        <time>2019-07-31T15:20:38.170Z</time>
      </trkpt>
      <trkpt lat="43.0068" lon="-1.12375667">
        <ele>921.0</ele>
        <time>2019-07-31T15:20:39.177Z</time>
      </trkpt>
      <trkpt lat="43.00681167" lon="-1.12377333">
        <ele>920.0</ele>
        <time>2019-07-31T15:20:40.182Z</time>
      </trkpt>
      <trkpt lat="43.00681833" lon="-1.12379">
        <ele>919.0</ele>
        <time>2019-07-31T15:20:41.062Z</time>
      </trkpt>
      <trkpt lat="43.006825" lon="-1.123805">
        <ele>917.0</ele>
        <time>2019-07-31T15:20:42.069Z</time>
      </trkpt>
      <trkpt lat="43.00683333" lon="-1.123815">
        <ele>917.0</ele>
        <time>2019-07-31T15:20:43.075Z</time>
      </trkpt>
      <trkpt lat="43.006845" lon="-1.12382333">
        <ele>915.0</ele>
        <time>2019-07-31T15:20:44.080Z</time>
      </trkpt>
      <trkpt lat="43.00685833" lon="-1.12383">
        <ele>915.0</ele>
        <time>2019-07-31T15:20:45.084Z</time>
      </trkpt>
      <trkpt lat="43.00687" lon="-1.123825">
        <ele>914.0</ele>
        <time>2019-07-31T15:20:46.088Z</time>
      </trkpt>
      <trkpt lat="43.00687833" lon="-1.123825">
        <ele>914.0</ele>
        <time>2019-07-31T15:20:47.093Z</time>
      </trkpt>
      <trkpt lat="43.006895" lon="-1.123835">
        <ele>913.0</ele>
        <time>2019-07-31T15:20:48.097Z</time>
      </trkpt>
      <trkpt lat="43.00690667" lon="-1.12385167">
        <ele>913.0</ele>
        <time>2019-07-31T15:20:49.102Z</time>
      </trkpt>
      <trkpt lat="43.00692" lon="-1.12386667">
        <ele>912.0</ele>
        <time>2019-07-31T15:20:50.108Z</time>
      </trkpt>
      <trkpt lat="43.00693167" lon="-1.12387167">
        <ele>911.0</ele>
        <time>2019-07-31T15:20:51.114Z</time>
      </trkpt>
      <trkpt lat="43.00693833" lon="-1.12387667">
        <ele>911.0</ele>
        <time>2019-07-31T15:20:52.118Z</time>
      </trkpt>
      <trkpt lat="43.006945" lon="-1.12388667">
        <ele>910.0</ele>
        <time>2019-07-31T15:20:53.123Z</time>
      </trkpt>
      <trkpt lat="43.00695833" lon="-1.12389833">
        <ele>910.0</ele>
        <time>2019-07-31T15:20:54.129Z</time>
      </trkpt>
      <trkpt lat="43.00697" lon="-1.12391167">
        <ele>909.0</ele>
        <time>2019-07-31T15:20:55.132Z</time>
      </trkpt>
      <trkpt lat="43.00698" lon="-1.12392167">
        <ele>909.0</ele>
        <time>2019-07-31T15:20:56.139Z</time>
      </trkpt>
      <trkpt lat="43.00698667" lon="-1.12393167">
        <ele>910.0</ele>
        <time>2019-07-31T15:20:57.143Z</time>
      </trkpt>
      <trkpt lat="43.00699833" lon="-1.12394667">
        <ele>910.0</ele>
        <time>2019-07-31T15:20:58.149Z</time>
      </trkpt>
      <trkpt lat="43.00700667" lon="-1.123955">
        <ele>909.0</ele>
        <time>2019-07-31T15:20:59.153Z</time>
      </trkpt>
      <trkpt lat="43.00700833" lon="-1.12397167">
        <ele>909.0</ele>
        <time>2019-07-31T15:21:00.160Z</time>
      </trkpt>
      <trkpt lat="43.00701333" lon="-1.12398167">
        <ele>909.0</ele>
        <time>2019-07-31T15:21:01.167Z</time>
      </trkpt>
      <trkpt lat="43.00702" lon="-1.12398333">
        <ele>910.0</ele>
        <time>2019-07-31T15:21:02.171Z</time>
      </trkpt>
      <trkpt lat="43.00703" lon="-1.124">
        <ele>908.0</ele>
        <time>2019-07-31T15:21:03.177Z</time>
      </trkpt>
      <trkpt lat="43.00704" lon="-1.12401">
        <ele>907.0</ele>
        <time>2019-07-31T15:21:04.184Z</time>
      </trkpt>
      <trkpt lat="43.007045" lon="-1.12401833">
        <ele>907.0</ele>
        <time>2019-07-31T15:21:05.064Z</time>
      </trkpt>
      <trkpt lat="43.00705" lon="-1.12402833">
        <ele>906.0</ele>
        <time>2019-07-31T15:21:06.070Z</time>
      </trkpt>
      <trkpt lat="43.00705167" lon="-1.12404333">
        <ele>906.0</ele>
        <time>2019-07-31T15:21:07.077Z</time>
      </trkpt>
      <trkpt lat="43.007055" lon="-1.12405833">
        <ele>905.0</ele>
        <time>2019-07-31T15:21:08.083Z</time>
      </trkpt>
      <trkpt lat="43.007055" lon="-1.12407333">
        <ele>904.0</ele>
        <time>2019-07-31T15:21:09.086Z</time>
      </trkpt>
      <trkpt lat="43.00706" lon="-1.12408833">
        <ele>903.0</ele>
        <time>2019-07-31T15:21:10.092Z</time>
      </trkpt>
      <trkpt lat="43.00706333" lon="-1.12410167">
        <ele>902.0</ele>
        <time>2019-07-31T15:21:11.097Z</time>
      </trkpt>
      <trkpt lat="43.00706833" lon="-1.124115">
        <ele>901.0</ele>
        <time>2019-07-31T15:21:12.103Z</time>
      </trkpt>
      <trkpt lat="43.00707167" lon="-1.12413">
        <ele>901.0</ele>
        <time>2019-07-31T15:21:13.109Z</time>
      </trkpt>
      <trkpt lat="43.00707833" lon="-1.12414667">
        <ele>901.0</ele>
        <time>2019-07-31T15:21:14.117Z</time>
      </trkpt>
      <trkpt lat="43.00708333" lon="-1.12415833">
        <ele>901.0</ele>
        <time>2019-07-31T15:21:15.122Z</time>
      </trkpt>
      <trkpt lat="43.00708667" lon="-1.12417833">
        <ele>900.0</ele>
        <time>2019-07-31T15:21:16.125Z</time>
      </trkpt>
      <trkpt lat="43.00709" lon="-1.124195">
        <ele>899.0</ele>
        <time>2019-07-31T15:21:17.131Z</time>
      </trkpt>
      <trkpt lat="43.00709333" lon="-1.12420833">
        <ele>898.0</ele>
        <time>2019-07-31T15:21:18.136Z</time>
      </trkpt>
      <trkpt lat="43.00709667" lon="-1.124225">
        <ele>898.0</ele>
        <time>2019-07-31T15:21:19.142Z</time>
      </trkpt>
      <trkpt lat="43.00710333" lon="-1.124235">
        <ele>898.0</ele>
        <time>2019-07-31T15:21:20.149Z</time>
      </trkpt>
      <trkpt lat="43.00711" lon="-1.12425167">
        <ele>898.0</ele>
        <time>2019-07-31T15:21:21.155Z</time>
      </trkpt>
      <trkpt lat="43.00711333" lon="-1.12427">
        <ele>897.0</ele>
        <time>2019-07-31T15:21:22.161Z</time>
      </trkpt>
      <trkpt lat="43.00711667" lon="-1.12428333">
        <ele>897.0</ele>
        <time>2019-07-31T15:21:23.167Z</time>
      </trkpt>
      <trkpt lat="43.00712333" lon="-1.124295">
        <ele>897.0</ele>
        <time>2019-07-31T15:21:24.169Z</time>
      </trkpt>
      <trkpt lat="43.00713" lon="-1.12431">
        <ele>897.0</ele>
        <time>2019-07-31T15:21:25.172Z</time>
      </trkpt>
      <trkpt lat="43.00713833" lon="-1.124325">
        <ele>896.0</ele>
        <time>2019-07-31T15:21:26.178Z</time>
      </trkpt>
      <trkpt lat="43.00714833" lon="-1.124345">
        <ele>895.0</ele>
        <time>2019-07-31T15:21:27.183Z</time>
      </trkpt>
      <trkpt lat="43.00715333" lon="-1.12436333">
        <ele>894.0</ele>
        <time>2019-07-31T15:21:28.063Z</time>
      </trkpt>
      <trkpt lat="43.00716167" lon="-1.12438167">
        <ele>893.0</ele>
        <time>2019-07-31T15:21:29.068Z</time>
      </trkpt>
      <trkpt lat="43.00717" lon="-1.12439333">
        <ele>892.0</ele>
        <time>2019-07-31T15:21:30.073Z</time>
      </trkpt>
      <trkpt lat="43.00718" lon="-1.12440833">
        <ele>891.0</ele>
        <time>2019-07-31T15:21:31.078Z</time>
      </trkpt>
      <trkpt lat="43.007185" lon="-1.12442">
        <ele>890.0</ele>
        <time>2019-07-31T15:21:32.084Z</time>
      </trkpt>
      <trkpt lat="43.00719333" lon="-1.12443333">
        <ele>890.0</ele>
        <time>2019-07-31T15:21:33.088Z</time>
      </trkpt>
      <trkpt lat="43.0072" lon="-1.12444">
        <ele>890.0</ele>
        <time>2019-07-31T15:21:34.095Z</time>
      </trkpt>
      <trkpt lat="43.00720333" lon="-1.12446">
        <ele>890.0</ele>
        <time>2019-07-31T15:21:35.100Z</time>
      </trkpt>
      <trkpt lat="43.00720667" lon="-1.12447667">
        <ele>891.0</ele>
        <time>2019-07-31T15:21:36.103Z</time>
      </trkpt>
      <trkpt lat="43.00720833" lon="-1.12449167">
        <ele>893.0</ele>
        <time>2019-07-31T15:21:37.108Z</time>
      </trkpt>
      <trkpt lat="43.00721" lon="-1.124505">
        <ele>894.0</ele>
        <time>2019-07-31T15:21:38.113Z</time>
      </trkpt>
      <trkpt lat="43.00721667" lon="-1.124515">
        <ele>894.0</ele>
        <time>2019-07-31T15:21:39.116Z</time>
      </trkpt>
      <trkpt lat="43.00722" lon="-1.12453167">
        <ele>896.0</ele>
        <time>2019-07-31T15:21:40.120Z</time>
      </trkpt>
      <trkpt lat="43.00722" lon="-1.12454667">
        <ele>896.0</ele>
        <time>2019-07-31T15:21:41.126Z</time>
      </trkpt>
      <trkpt lat="43.00722167" lon="-1.12457">
        <ele>895.0</ele>
        <time>2019-07-31T15:21:42.132Z</time>
      </trkpt>
      <trkpt lat="43.007225" lon="-1.124585">
        <ele>896.0</ele>
        <time>2019-07-31T15:21:43.135Z</time>
      </trkpt>
      <trkpt lat="43.00723667" lon="-1.12460667">
        <ele>896.0</ele>
        <time>2019-07-31T15:21:44.141Z</time>
      </trkpt>
      <trkpt lat="43.00724333" lon="-1.12463167">
        <ele>895.0</ele>
        <time>2019-07-31T15:21:45.145Z</time>
      </trkpt>
      <trkpt lat="43.007255" lon="-1.12465167">
        <ele>895.0</ele>
        <time>2019-07-31T15:21:46.150Z</time>
      </trkpt>
      <trkpt lat="43.00726167" lon="-1.12466167">
        <ele>894.0</ele>
        <time>2019-07-31T15:21:47.153Z</time>
      </trkpt>
      <trkpt lat="43.00727" lon="-1.124675">
        <ele>894.0</ele>
        <time>2019-07-31T15:21:48.158Z</time>
      </trkpt>
      <trkpt lat="43.00727333" lon="-1.12470333">
        <ele>894.0</ele>
        <time>2019-07-31T15:21:49.162Z</time>
      </trkpt>
      <trkpt lat="43.007275" lon="-1.12473">
        <ele>895.0</ele>
        <time>2019-07-31T15:21:50.164Z</time>
      </trkpt>
      <trkpt lat="43.00727667" lon="-1.12475333">
        <ele>894.0</ele>
        <time>2019-07-31T15:21:51.169Z</time>
      </trkpt>
      <trkpt lat="43.00728" lon="-1.12477167">
        <ele>894.0</ele>
        <time>2019-07-31T15:21:52.174Z</time>
      </trkpt>
      <trkpt lat="43.00728667" lon="-1.124785">
        <ele>893.0</ele>
        <time>2019-07-31T15:21:53.181Z</time>
      </trkpt>
      <trkpt lat="43.00729333" lon="-1.1248">
        <ele>892.0</ele>
        <time>2019-07-31T15:21:54.062Z</time>
      </trkpt>
      <trkpt lat="43.00729833" lon="-1.12482">
        <ele>893.0</ele>
        <time>2019-07-31T15:21:55.068Z</time>
      </trkpt>
      <trkpt lat="43.00730333" lon="-1.12483833">
        <ele>893.0</ele>
        <time>2019-07-31T15:21:56.073Z</time>
      </trkpt>
      <trkpt lat="43.00730667" lon="-1.12484833">
        <ele>893.0</ele>
        <time>2019-07-31T15:21:57.078Z</time>
      </trkpt>
      <trkpt lat="43.00731167" lon="-1.12486833">
        <ele>893.0</ele>
        <time>2019-07-31T15:21:58.084Z</time>
      </trkpt>
      <trkpt lat="43.00731833" lon="-1.124885">
        <ele>893.0</ele>
        <time>2019-07-31T15:21:59.090Z</time>
      </trkpt>
      <trkpt lat="43.007325" lon="-1.12489833">
        <ele>893.0</ele>
        <time>2019-07-31T15:22:00.096Z</time>
      </trkpt>
      <trkpt lat="43.00733333" lon="-1.12491167">
        <ele>894.0</ele>
        <time>2019-07-31T15:22:01.102Z</time>
      </trkpt>
      <trkpt lat="43.00734333" lon="-1.12492167">
        <ele>894.0</ele>
        <time>2019-07-31T15:22:02.108Z</time>
      </trkpt>
      <trkpt lat="43.00735" lon="-1.12493333">
        <ele>895.0</ele>
        <time>2019-07-31T15:22:03.113Z</time>
      </trkpt>
      <trkpt lat="43.00734833" lon="-1.12495667">
        <ele>895.0</ele>
        <time>2019-07-31T15:22:04.119Z</time>
      </trkpt>
      <trkpt lat="43.00735" lon="-1.124975">
        <ele>895.0</ele>
        <time>2019-07-31T15:22:05.125Z</time>
      </trkpt>
      <trkpt lat="43.007355" lon="-1.12498833">
        <ele>894.0</ele>
        <time>2019-07-31T15:22:06.130Z</time>
      </trkpt>
      <trkpt lat="43.007365" lon="-1.12500167">
        <ele>894.0</ele>
        <time>2019-07-31T15:22:07.135Z</time>
      </trkpt>
      <trkpt lat="43.00737667" lon="-1.12501333">
        <ele>894.0</ele>
        <time>2019-07-31T15:22:08.141Z</time>
      </trkpt>
      <trkpt lat="43.00738667" lon="-1.12502">
        <ele>893.0</ele>
        <time>2019-07-31T15:22:09.149Z</time>
      </trkpt>
      <trkpt lat="43.0074" lon="-1.12503167">
        <ele>893.0</ele>
        <time>2019-07-31T15:22:10.155Z</time>
      </trkpt>
      <trkpt lat="43.00740833" lon="-1.125045">
        <ele>892.0</ele>
        <time>2019-07-31T15:22:11.158Z</time>
      </trkpt>
      <trkpt lat="43.00741667" lon="-1.12506">
        <ele>891.0</ele>
        <time>2019-07-31T15:22:12.162Z</time>
      </trkpt>
      <trkpt lat="43.00742667" lon="-1.12507333">
        <ele>890.0</ele>
        <time>2019-07-31T15:22:13.167Z</time>
      </trkpt>
      <trkpt lat="43.00743667" lon="-1.12508333">
        <ele>889.0</ele>
        <time>2019-07-31T15:22:14.169Z</time>
      </trkpt>
      <trkpt lat="43.00744" lon="-1.12509333">
        <ele>888.0</ele>
        <time>2019-07-31T15:22:15.172Z</time>
      </trkpt>
      <trkpt lat="43.00745" lon="-1.12510333">
        <ele>887.0</ele>
        <time>2019-07-31T15:22:16.179Z</time>
      </trkpt>
      <trkpt lat="43.00746167" lon="-1.12511167">
        <ele>887.0</ele>
        <time>2019-07-31T15:22:17.183Z</time>
      </trkpt>
      <trkpt lat="43.00747333" lon="-1.12512333">
        <ele>886.0</ele>
        <time>2019-07-31T15:22:18.063Z</time>
      </trkpt>
      <trkpt lat="43.00748" lon="-1.12513833">
        <ele>886.0</ele>
        <time>2019-07-31T15:22:19.070Z</time>
      </trkpt>
      <trkpt lat="43.00748167" lon="-1.12515333">
        <ele>886.0</ele>
        <time>2019-07-31T15:22:20.077Z</time>
      </trkpt>
      <trkpt lat="43.00749" lon="-1.12516167">
        <ele>886.0</ele>
        <time>2019-07-31T15:22:21.082Z</time>
      </trkpt>
      <trkpt lat="43.00749833" lon="-1.12517167">
        <ele>886.0</ele>
        <time>2019-07-31T15:22:22.086Z</time>
      </trkpt>
      <trkpt lat="43.007505" lon="-1.12518333">
        <ele>885.0</ele>
        <time>2019-07-31T15:22:23.092Z</time>
      </trkpt>
      <trkpt lat="43.00750833" lon="-1.125205">
        <ele>884.0</ele>
        <time>2019-07-31T15:22:24.100Z</time>
      </trkpt>
      <trkpt lat="43.00751333" lon="-1.12522667">
        <ele>883.0</ele>
        <time>2019-07-31T15:22:25.105Z</time>
      </trkpt>
      <trkpt lat="43.00751667" lon="-1.125245">
        <ele>883.0</ele>
        <time>2019-07-31T15:22:26.110Z</time>
      </trkpt>
      <trkpt lat="43.00752167" lon="-1.12526167">
        <ele>882.0</ele>
        <time>2019-07-31T15:22:27.115Z</time>
      </trkpt>
      <trkpt lat="43.00752667" lon="-1.12527833">
        <ele>881.0</ele>
        <time>2019-07-31T15:22:28.120Z</time>
      </trkpt>
      <trkpt lat="43.00753167" lon="-1.12529333">
        <ele>881.0</ele>
        <time>2019-07-31T15:22:29.126Z</time>
      </trkpt>
      <trkpt lat="43.00753667" lon="-1.12530833">
        <ele>880.0</ele>
        <time>2019-07-31T15:22:30.133Z</time>
      </trkpt>
      <trkpt lat="43.00754167" lon="-1.125325">
        <ele>880.0</ele>
        <time>2019-07-31T15:22:31.138Z</time>
      </trkpt>
      <trkpt lat="43.00755167" lon="-1.12534">
        <ele>880.0</ele>
        <time>2019-07-31T15:22:32.142Z</time>
      </trkpt>
      <trkpt lat="43.00756167" lon="-1.12535333">
        <ele>879.0</ele>
        <time>2019-07-31T15:22:33.149Z</time>
      </trkpt>
      <trkpt lat="43.00757333" lon="-1.12536333">
        <ele>879.0</ele>
        <time>2019-07-31T15:22:34.156Z</time>
      </trkpt>
      <trkpt lat="43.00758167" lon="-1.12537833">
        <ele>878.0</ele>
        <time>2019-07-31T15:22:35.159Z</time>
      </trkpt>
      <trkpt lat="43.00758667" lon="-1.12539167">
        <ele>878.0</ele>
        <time>2019-07-31T15:22:36.164Z</time>
      </trkpt>
      <trkpt lat="43.00759167" lon="-1.12540667">
        <ele>878.0</ele>
        <time>2019-07-31T15:22:37.169Z</time>
      </trkpt>
      <trkpt lat="43.00759833" lon="-1.12542">
        <ele>878.0</ele>
        <time>2019-07-31T15:22:38.173Z</time>
      </trkpt>
      <trkpt lat="43.00760333" lon="-1.12543833">
        <ele>879.0</ele>
        <time>2019-07-31T15:22:39.178Z</time>
      </trkpt>
      <trkpt lat="43.00761" lon="-1.12545833">
        <ele>880.0</ele>
        <time>2019-07-31T15:22:40.185Z</time>
      </trkpt>
      <trkpt lat="43.00761167" lon="-1.125475">
        <ele>880.0</ele>
        <time>2019-07-31T15:22:41.065Z</time>
      </trkpt>
      <trkpt lat="43.00761333" lon="-1.12548833">
        <ele>881.0</ele>
        <time>2019-07-31T15:22:42.069Z</time>
      </trkpt>
      <trkpt lat="43.00761833" lon="-1.12549833">
        <ele>880.0</ele>
        <time>2019-07-31T15:22:43.073Z</time>
      </trkpt>
      <trkpt lat="43.00762333" lon="-1.12551667">
        <ele>880.0</ele>
        <time>2019-07-31T15:22:44.076Z</time>
      </trkpt>
      <trkpt lat="43.00763" lon="-1.12552833">
        <ele>880.0</ele>
        <time>2019-07-31T15:22:45.079Z</time>
      </trkpt>
      <trkpt lat="43.00763667" lon="-1.12554833">
        <ele>880.0</ele>
        <time>2019-07-31T15:22:46.084Z</time>
      </trkpt>
      <trkpt lat="43.00764167" lon="-1.12556333">
        <ele>880.0</ele>
        <time>2019-07-31T15:22:47.089Z</time>
      </trkpt>
      <trkpt lat="43.00764667" lon="-1.125575">
        <ele>879.0</ele>
        <time>2019-07-31T15:22:48.094Z</time>
      </trkpt>
      <trkpt lat="43.00765333" lon="-1.12558833">
        <ele>879.0</ele>
        <time>2019-07-31T15:22:49.098Z</time>
      </trkpt>
      <trkpt lat="43.007655" lon="-1.1256">
        <ele>878.0</ele>
        <time>2019-07-31T15:22:50.104Z</time>
      </trkpt>
      <trkpt lat="43.00765667" lon="-1.125615">
        <ele>878.0</ele>
        <time>2019-07-31T15:22:51.110Z</time>
      </trkpt>
      <trkpt lat="43.00765833" lon="-1.12563">
        <ele>878.0</ele>
        <time>2019-07-31T15:22:52.116Z</time>
      </trkpt>
      <trkpt lat="43.00766" lon="-1.12564167">
        <ele>878.0</ele>
        <time>2019-07-31T15:22:53.122Z</time>
      </trkpt>
      <trkpt lat="43.00766333" lon="-1.12565833">
        <ele>879.0</ele>
        <time>2019-07-31T15:22:54.126Z</time>
      </trkpt>
      <trkpt lat="43.00766333" lon="-1.12568167">
        <ele>879.0</ele>
        <time>2019-07-31T15:22:55.133Z</time>
      </trkpt>
      <trkpt lat="43.00766667" lon="-1.1257">
        <ele>879.0</ele>
        <time>2019-07-31T15:22:56.141Z</time>
      </trkpt>
      <trkpt lat="43.00767167" lon="-1.12570833">
        <ele>879.0</ele>
        <time>2019-07-31T15:22:57.147Z</time>
      </trkpt>
      <trkpt lat="43.00768333" lon="-1.12572167">
        <ele>879.0</ele>
        <time>2019-07-31T15:22:58.155Z</time>
      </trkpt>
      <trkpt lat="43.00769667" lon="-1.12573333">
        <ele>878.0</ele>
        <time>2019-07-31T15:22:59.161Z</time>
      </trkpt>
      <trkpt lat="43.007705" lon="-1.12575167">
        <ele>877.0</ele>
        <time>2019-07-31T15:23:00.167Z</time>
      </trkpt>
      <trkpt lat="43.00771167" lon="-1.12577167">
        <ele>876.0</ele>
        <time>2019-07-31T15:23:01.173Z</time>
      </trkpt>
      <trkpt lat="43.007715" lon="-1.12579167">
        <ele>877.0</ele>
        <time>2019-07-31T15:23:02.179Z</time>
      </trkpt>
      <trkpt lat="43.00771667" lon="-1.12581167">
        <ele>877.0</ele>
        <time>2019-07-31T15:23:03.185Z</time>
      </trkpt>
      <trkpt lat="43.00772" lon="-1.12583333">
        <ele>877.0</ele>
        <time>2019-07-31T15:23:04.066Z</time>
      </trkpt>
      <trkpt lat="43.00772667" lon="-1.12585667">
        <ele>876.0</ele>
        <time>2019-07-31T15:23:05.072Z</time>
      </trkpt>
      <trkpt lat="43.00773167" lon="-1.12587333">
        <ele>876.0</ele>
        <time>2019-07-31T15:23:06.075Z</time>
      </trkpt>
      <trkpt lat="43.00773667" lon="-1.12588833">
        <ele>875.0</ele>
        <time>2019-07-31T15:23:07.080Z</time>
      </trkpt>
      <trkpt lat="43.00774667" lon="-1.1259">
        <ele>874.0</ele>
        <time>2019-07-31T15:23:08.084Z</time>
      </trkpt>
      <trkpt lat="43.00774667" lon="-1.125915">
        <ele>874.0</ele>
        <time>2019-07-31T15:23:09.089Z</time>
      </trkpt>
      <trkpt lat="43.00774167" lon="-1.12593167">
        <ele>874.0</ele>
        <time>2019-07-31T15:23:10.096Z</time>
      </trkpt>
      <trkpt lat="43.007735" lon="-1.12594333">
        <ele>874.0</ele>
        <time>2019-07-31T15:23:11.103Z</time>
      </trkpt>
      <trkpt lat="43.007735" lon="-1.12594833">
        <ele>874.0</ele>
        <time>2019-07-31T15:23:12.107Z</time>
      </trkpt>
      <trkpt lat="43.00773667" lon="-1.12595">
        <ele>874.0</ele>
        <time>2019-07-31T15:23:13.113Z</time>
      </trkpt>
      <trkpt lat="43.00773" lon="-1.12595833">
        <ele>874.0</ele>
        <time>2019-07-31T15:23:14.120Z</time>
      </trkpt>
      <trkpt lat="43.007725" lon="-1.12596833">
        <ele>874.0</ele>
        <time>2019-07-31T15:23:15.125Z</time>
      </trkpt>
      <trkpt lat="43.00771833" lon="-1.12597667">
        <ele>875.0</ele>
        <time>2019-07-31T15:23:16.129Z</time>
      </trkpt>
      <trkpt lat="43.00772" lon="-1.12598333">
        <ele>876.0</ele>
        <time>2019-07-31T15:23:17.134Z</time>
      </trkpt>
      <trkpt lat="43.00771833" lon="-1.125985">
        <ele>877.0</ele>
        <time>2019-07-31T15:23:18.141Z</time>
      </trkpt>
      <trkpt lat="43.00771833" lon="-1.12598333">
        <ele>878.0</ele>
        <time>2019-07-31T15:23:19.145Z</time>
      </trkpt>
      <trkpt lat="43.00772" lon="-1.12598167">
        <ele>879.0</ele>
        <time>2019-07-31T15:23:20.152Z</time>
      </trkpt>
      <trkpt lat="43.00771667" lon="-1.12598667">
        <ele>881.0</ele>
        <time>2019-07-31T15:23:21.158Z</time>
      </trkpt>
      <trkpt lat="43.007715" lon="-1.125995">
        <ele>883.0</ele>
        <time>2019-07-31T15:23:22.164Z</time>
      </trkpt>
      <trkpt lat="43.00771667" lon="-1.12599833">
        <ele>884.0</ele>
        <time>2019-07-31T15:23:23.169Z</time>
      </trkpt>
      <trkpt lat="43.00772167" lon="-1.12600167">
        <ele>884.0</ele>
        <time>2019-07-31T15:23:24.174Z</time>
      </trkpt>
      <trkpt lat="43.00772833" lon="-1.12600667">
        <ele>884.0</ele>
        <time>2019-07-31T15:23:25.176Z</time>
      </trkpt>
      <trkpt lat="43.00773833" lon="-1.12601167">
        <ele>882.0</ele>
        <time>2019-07-31T15:23:26.180Z</time>
      </trkpt>
      <trkpt lat="43.00774667" lon="-1.12601667">
        <ele>880.0</ele>
        <time>2019-07-31T15:23:27.186Z</time>
      </trkpt>
      <trkpt lat="43.00775167" lon="-1.12602833">
        <ele>879.0</ele>
        <time>2019-07-31T15:23:28.066Z</time>
      </trkpt>
      <trkpt lat="43.00775667" lon="-1.12603833">
        <ele>880.0</ele>
        <time>2019-07-31T15:23:29.072Z</time>
      </trkpt>
      <trkpt lat="43.00776333" lon="-1.126045">
        <ele>879.0</ele>
        <time>2019-07-31T15:23:30.076Z</time>
      </trkpt>
      <trkpt lat="43.00776667" lon="-1.12605">
        <ele>879.0</ele>
        <time>2019-07-31T15:23:31.082Z</time>
      </trkpt>
      <trkpt lat="43.00777167" lon="-1.12606167">
        <ele>878.0</ele>
        <time>2019-07-31T15:23:32.086Z</time>
      </trkpt>
      <trkpt lat="43.00777833" lon="-1.126065">
        <ele>877.0</ele>
        <time>2019-07-31T15:23:33.091Z</time>
      </trkpt>
      <trkpt lat="43.00778833" lon="-1.126065">
        <ele>876.0</ele>
        <time>2019-07-31T15:23:34.097Z</time>
      </trkpt>
      <trkpt lat="43.007795" lon="-1.12606833">
        <ele>876.0</ele>
        <time>2019-07-31T15:23:35.103Z</time>
      </trkpt>
      <trkpt lat="43.00779667" lon="-1.126075">
        <ele>877.0</ele>
        <time>2019-07-31T15:23:36.108Z</time>
      </trkpt>
      <trkpt lat="43.00779833" lon="-1.12608">
        <ele>877.0</ele>
        <time>2019-07-31T15:23:37.114Z</time>
      </trkpt>
      <trkpt lat="43.00779833" lon="-1.126085">
        <ele>877.0</ele>
        <time>2019-07-31T15:23:38.120Z</time>
      </trkpt>
      <trkpt lat="43.00779833" lon="-1.12608833">
        <ele>878.0</ele>
        <time>2019-07-31T15:23:39.127Z</time>
      </trkpt>
      <trkpt lat="43.0078" lon="-1.126085">
        <ele>878.0</ele>
        <time>2019-07-31T15:23:40.134Z</time>
      </trkpt>
      <trkpt lat="43.00780667" lon="-1.12608167">
        <ele>878.0</ele>
        <time>2019-07-31T15:23:41.139Z</time>
      </trkpt>
      <trkpt lat="43.00781333" lon="-1.12608667">
        <ele>877.0</ele>
        <time>2019-07-31T15:23:42.144Z</time>
      </trkpt>
      <trkpt lat="43.00781833" lon="-1.126095">
        <ele>877.0</ele>
        <time>2019-07-31T15:23:43.149Z</time>
      </trkpt>
      <trkpt lat="43.00782" lon="-1.12611">
        <ele>876.0</ele>
        <time>2019-07-31T15:23:44.155Z</time>
      </trkpt>
      <trkpt lat="43.00782167" lon="-1.12612167">
        <ele>875.0</ele>
        <time>2019-07-31T15:23:45.162Z</time>
      </trkpt>
      <trkpt lat="43.007825" lon="-1.12613667">
        <ele>874.0</ele>
        <time>2019-07-31T15:23:46.167Z</time>
      </trkpt>
      <trkpt lat="43.00783" lon="-1.12614833">
        <ele>873.0</ele>
        <time>2019-07-31T15:23:47.170Z</time>
      </trkpt>
      <trkpt lat="43.007835" lon="-1.126165">
        <ele>872.0</ele>
        <time>2019-07-31T15:23:48.175Z</time>
      </trkpt>
      <trkpt lat="43.007845" lon="-1.12617333">
        <ele>872.0</ele>
        <time>2019-07-31T15:23:49.182Z</time>
      </trkpt>
      <trkpt lat="43.007855" lon="-1.12617833">
        <ele>871.0</ele>
        <time>2019-07-31T15:23:50.062Z</time>
      </trkpt>
      <trkpt lat="43.00786333" lon="-1.12618167">
        <ele>871.0</ele>
        <time>2019-07-31T15:23:51.067Z</time>
      </trkpt>
      <trkpt lat="43.00787167" lon="-1.12619">
        <ele>872.0</ele>
        <time>2019-07-31T15:23:52.073Z</time>
      </trkpt>
      <trkpt lat="43.00788" lon="-1.12620167">
        <ele>872.0</ele>
        <time>2019-07-31T15:23:53.078Z</time>
      </trkpt>
      <trkpt lat="43.00788167" lon="-1.12621167">
        <ele>872.0</ele>
        <time>2019-07-31T15:23:54.081Z</time>
      </trkpt>
      <trkpt lat="43.00789" lon="-1.12621167">
        <ele>872.0</ele>
        <time>2019-07-31T15:23:55.083Z</time>
      </trkpt>
      <trkpt lat="43.007905" lon="-1.126205">
        <ele>872.0</ele>
        <time>2019-07-31T15:23:56.087Z</time>
      </trkpt>
      <trkpt lat="43.00791833" lon="-1.1262">
        <ele>872.0</ele>
        <time>2019-07-31T15:23:57.092Z</time>
      </trkpt>
      <trkpt lat="43.00793" lon="-1.12619833">
        <ele>872.0</ele>
        <time>2019-07-31T15:23:58.097Z</time>
      </trkpt>
      <trkpt lat="43.00793667" lon="-1.126205">
        <ele>873.0</ele>
        <time>2019-07-31T15:23:59.104Z</time>
      </trkpt>
      <trkpt lat="43.00795" lon="-1.126205">
        <ele>873.0</ele>
        <time>2019-07-31T15:24:00.109Z</time>
      </trkpt>
      <trkpt lat="43.00796167" lon="-1.126205">
        <ele>873.0</ele>
        <time>2019-07-31T15:24:01.117Z</time>
      </trkpt>
      <trkpt lat="43.00797833" lon="-1.12619333">
        <ele>872.0</ele>
        <time>2019-07-31T15:24:02.123Z</time>
      </trkpt>
      <trkpt lat="43.00799667" lon="-1.12618">
        <ele>871.0</ele>
        <time>2019-07-31T15:24:03.125Z</time>
      </trkpt>
      <trkpt lat="43.008015" lon="-1.126165">
        <ele>871.0</ele>
        <time>2019-07-31T15:24:04.129Z</time>
      </trkpt>
      <trkpt lat="43.00802833" lon="-1.12615167">
        <ele>871.0</ele>
        <time>2019-07-31T15:24:05.135Z</time>
      </trkpt>
      <trkpt lat="43.008035" lon="-1.12614333">
        <ele>870.0</ele>
        <time>2019-07-31T15:24:06.141Z</time>
      </trkpt>
      <trkpt lat="43.00803833" lon="-1.12612833">
        <ele>868.0</ele>
        <time>2019-07-31T15:24:07.147Z</time>
      </trkpt>
      <trkpt lat="43.00804833" lon="-1.12611333">
        <ele>867.0</ele>
        <time>2019-07-31T15:24:08.154Z</time>
      </trkpt>
      <trkpt lat="43.00806" lon="-1.12609833">
        <ele>867.0</ele>
        <time>2019-07-31T15:24:09.156Z</time>
      </trkpt>
      <trkpt lat="43.008065" lon="-1.12607667">
        <ele>867.0</ele>
        <time>2019-07-31T15:24:10.161Z</time>
      </trkpt>
      <trkpt lat="43.00806667" lon="-1.12606333">
        <ele>867.0</ele>
        <time>2019-07-31T15:24:11.164Z</time>
      </trkpt>
      <trkpt lat="43.00807333" lon="-1.126055">
        <ele>866.0</ele>
        <time>2019-07-31T15:24:12.167Z</time>
      </trkpt>
      <trkpt lat="43.00809167" lon="-1.12603667">
        <ele>865.0</ele>
        <time>2019-07-31T15:24:13.169Z</time>
      </trkpt>
      <trkpt lat="43.00811167" lon="-1.12601667">
        <ele>865.0</ele>
        <time>2019-07-31T15:24:14.173Z</time>
      </trkpt>
      <trkpt lat="43.008115" lon="-1.12600833">
        <ele>865.0</ele>
        <time>2019-07-31T15:24:15.180Z</time>
      </trkpt>
      <trkpt lat="43.00811667" lon="-1.12600667">
        <ele>864.0</ele>
        <time>2019-07-31T15:24:16.183Z</time>
      </trkpt>
      <trkpt lat="43.00812167" lon="-1.12600333">
        <ele>865.0</ele>
        <time>2019-07-31T15:24:17.061Z</time>
      </trkpt>
      <trkpt lat="43.00812667" lon="-1.12600333">
        <ele>866.0</ele>
        <time>2019-07-31T15:24:18.065Z</time>
      </trkpt>
      <trkpt lat="43.00813833" lon="-1.125995">
        <ele>865.0</ele>
        <time>2019-07-31T15:24:19.068Z</time>
      </trkpt>
      <trkpt lat="43.008145" lon="-1.12598">
        <ele>865.0</ele>
        <time>2019-07-31T15:24:20.073Z</time>
      </trkpt>
      <trkpt lat="43.00814833" lon="-1.125975">
        <ele>864.0</ele>
        <time>2019-07-31T15:24:21.078Z</time>
      </trkpt>
      <trkpt lat="43.00814667" lon="-1.12597667">
        <ele>865.0</ele>
        <time>2019-07-31T15:24:22.084Z</time>
      </trkpt>
      <trkpt lat="43.00814667" lon="-1.12597833">
        <ele>864.0</ele>
        <time>2019-07-31T15:24:23.088Z</time>
      </trkpt>
      <trkpt lat="43.008145" lon="-1.12598167">
        <ele>864.0</ele>
        <time>2019-07-31T15:24:24.093Z</time>
      </trkpt>
      <trkpt lat="43.00814833" lon="-1.12598333">
        <ele>864.0</ele>
        <time>2019-07-31T15:24:25.100Z</time>
      </trkpt>
      <trkpt lat="43.00815333" lon="-1.125985">
        <ele>864.0</ele>
        <time>2019-07-31T15:24:26.107Z</time>
      </trkpt>
      <trkpt lat="43.00815667" lon="-1.12598667">
        <ele>864.0</ele>
        <time>2019-07-31T15:24:27.113Z</time>
      </trkpt>
      <trkpt lat="43.00815833" lon="-1.12598833">
        <ele>864.0</ele>
        <time>2019-07-31T15:24:28.118Z</time>
      </trkpt>
      <trkpt lat="43.00815833" lon="-1.12599833">
        <ele>863.0</ele>
        <time>2019-07-31T15:24:29.124Z</time>
      </trkpt>
      <trkpt lat="43.00815833" lon="-1.12600833">
        <ele>863.0</ele>
        <time>2019-07-31T15:24:30.128Z</time>
      </trkpt>
      <trkpt lat="43.008155" lon="-1.12602167">
        <ele>862.0</ele>
        <time>2019-07-31T15:24:31.134Z</time>
      </trkpt>
      <trkpt lat="43.008155" lon="-1.126035">
        <ele>862.0</ele>
        <time>2019-07-31T15:24:32.137Z</time>
      </trkpt>
      <trkpt lat="43.00815667" lon="-1.12605">
        <ele>862.0</ele>
        <time>2019-07-31T15:24:33.139Z</time>
      </trkpt>
      <trkpt lat="43.00815833" lon="-1.12606667">
        <ele>862.0</ele>
        <time>2019-07-31T15:24:34.143Z</time>
      </trkpt>
      <trkpt lat="43.00816" lon="-1.12608333">
        <ele>862.0</ele>
        <time>2019-07-31T15:24:35.145Z</time>
      </trkpt>
      <trkpt lat="43.00816" lon="-1.12609833">
        <ele>862.0</ele>
        <time>2019-07-31T15:24:36.145Z</time>
      </trkpt>
      <trkpt lat="43.00816167" lon="-1.126115">
        <ele>862.0</ele>
        <time>2019-07-31T15:24:37.148Z</time>
      </trkpt>
      <trkpt lat="43.00815833" lon="-1.12613333">
        <ele>862.0</ele>
        <time>2019-07-31T15:24:38.155Z</time>
      </trkpt>
      <trkpt lat="43.00816" lon="-1.12615333">
        <ele>862.0</ele>
        <time>2019-07-31T15:24:39.159Z</time>
      </trkpt>
      <trkpt lat="43.00816167" lon="-1.12617167">
        <ele>862.0</ele>
        <time>2019-07-31T15:24:40.161Z</time>
      </trkpt>
      <trkpt lat="43.008165" lon="-1.12619167">
        <ele>862.0</ele>
        <time>2019-07-31T15:24:41.166Z</time>
      </trkpt>
      <trkpt lat="43.00816333" lon="-1.12621167">
        <ele>861.0</ele>
        <time>2019-07-31T15:24:42.171Z</time>
      </trkpt>
      <trkpt lat="43.008165" lon="-1.12623333">
        <ele>861.0</ele>
        <time>2019-07-31T15:24:43.176Z</time>
      </trkpt>
      <trkpt lat="43.008165" lon="-1.12625333">
        <ele>860.0</ele>
        <time>2019-07-31T15:24:44.182Z</time>
      </trkpt>
      <trkpt lat="43.008165" lon="-1.12627">
        <ele>860.0</ele>
        <time>2019-07-31T15:24:45.186Z</time>
      </trkpt>
      <trkpt lat="43.008165" lon="-1.12628167">
        <ele>860.0</ele>
        <time>2019-07-31T15:24:46.064Z</time>
      </trkpt>
      <trkpt lat="43.008165" lon="-1.12629333">
        <ele>861.0</ele>
        <time>2019-07-31T15:24:47.071Z</time>
      </trkpt>
      <trkpt lat="43.00816333" lon="-1.12630833">
        <ele>861.0</ele>
        <time>2019-07-31T15:24:48.075Z</time>
      </trkpt>
      <trkpt lat="43.00816667" lon="-1.12631333">
        <ele>863.0</ele>
        <time>2019-07-31T15:24:49.080Z</time>
      </trkpt>
      <trkpt lat="43.00817333" lon="-1.12630833">
        <ele>864.0</ele>
        <time>2019-07-31T15:24:50.084Z</time>
      </trkpt>
      <trkpt lat="43.00818333" lon="-1.12629667">
        <ele>864.0</ele>
        <time>2019-07-31T15:24:51.091Z</time>
      </trkpt>
      <trkpt lat="43.00818667" lon="-1.1263">
        <ele>864.0</ele>
        <time>2019-07-31T15:24:52.097Z</time>
      </trkpt>
      <trkpt lat="43.008185" lon="-1.1263">
        <ele>864.0</ele>
        <time>2019-07-31T15:24:53.103Z</time>
      </trkpt>
      <trkpt lat="43.00818333" lon="-1.1263">
        <ele>864.0</ele>
        <time>2019-07-31T15:24:54.109Z</time>
      </trkpt>
      <trkpt lat="43.00818" lon="-1.12630167">
        <ele>865.0</ele>
        <time>2019-07-31T15:24:55.112Z</time>
      </trkpt>
      <trkpt lat="43.00817667" lon="-1.12630167">
        <ele>865.0</ele>
        <time>2019-07-31T15:24:56.119Z</time>
      </trkpt>
      <trkpt lat="43.00817333" lon="-1.12630333">
        <ele>865.0</ele>
        <time>2019-07-31T15:24:57.124Z</time>
      </trkpt>
      <trkpt lat="43.00817" lon="-1.12630667">
        <ele>866.0</ele>
        <time>2019-07-31T15:24:58.128Z</time>
      </trkpt>
      <trkpt lat="43.00816333" lon="-1.12631833">
        <ele>866.0</ele>
        <time>2019-07-31T15:24:59.135Z</time>
      </trkpt>
      <trkpt lat="43.00815833" lon="-1.12633">
        <ele>867.0</ele>
        <time>2019-07-31T15:25:00.143Z</time>
      </trkpt>
      <trkpt lat="43.008155" lon="-1.12633667">
        <ele>867.0</ele>
        <time>2019-07-31T15:25:01.148Z</time>
      </trkpt>
      <trkpt lat="43.00815333" lon="-1.12634333">
        <ele>867.0</ele>
        <time>2019-07-31T15:25:02.154Z</time>
      </trkpt>
      <trkpt lat="43.00815167" lon="-1.12634667">
        <ele>867.0</ele>
        <time>2019-07-31T15:25:03.159Z</time>
      </trkpt>
      <trkpt lat="43.00815" lon="-1.12635667">
        <ele>868.0</ele>
        <time>2019-07-31T15:25:04.167Z</time>
      </trkpt>
      <trkpt lat="43.00815" lon="-1.12637">
        <ele>869.0</ele>
        <time>2019-07-31T15:25:05.172Z</time>
      </trkpt>
      <trkpt lat="43.00814833" lon="-1.12638833">
        <ele>869.0</ele>
        <time>2019-07-31T15:25:06.177Z</time>
      </trkpt>
      <trkpt lat="43.00814333" lon="-1.12640333">
        <ele>869.0</ele>
        <time>2019-07-31T15:25:07.183Z</time>
      </trkpt>
      <trkpt lat="43.00814" lon="-1.12642167">
        <ele>869.0</ele>
        <time>2019-07-31T15:25:08.064Z</time>
      </trkpt>
      <trkpt lat="43.00813667" lon="-1.12644333">
        <ele>868.0</ele>
        <time>2019-07-31T15:25:09.068Z</time>
      </trkpt>
      <trkpt lat="43.00812833" lon="-1.126465">
        <ele>868.0</ele>
        <time>2019-07-31T15:25:10.071Z</time>
      </trkpt>
      <trkpt lat="43.00812" lon="-1.12648667">
        <ele>868.0</ele>
        <time>2019-07-31T15:25:11.075Z</time>
      </trkpt>
      <trkpt lat="43.00811167" lon="-1.126505">
        <ele>869.0</ele>
        <time>2019-07-31T15:25:12.080Z</time>
      </trkpt>
      <trkpt lat="43.00811" lon="-1.12651833">
        <ele>868.0</ele>
        <time>2019-07-31T15:25:13.085Z</time>
      </trkpt>
      <trkpt lat="43.00810833" lon="-1.12653">
        <ele>869.0</ele>
        <time>2019-07-31T15:25:14.090Z</time>
      </trkpt>
      <trkpt lat="43.00810833" lon="-1.126545">
        <ele>869.0</ele>
        <time>2019-07-31T15:25:15.096Z</time>
      </trkpt>
      <trkpt lat="43.00811167" lon="-1.12656333">
        <ele>868.0</ele>
        <time>2019-07-31T15:25:16.103Z</time>
      </trkpt>
      <trkpt lat="43.00811167" lon="-1.12658667">
        <ele>869.0</ele>
        <time>2019-07-31T15:25:17.109Z</time>
      </trkpt>
      <trkpt lat="43.00811167" lon="-1.12660833">
        <ele>869.0</ele>
        <time>2019-07-31T15:25:18.115Z</time>
      </trkpt>
      <trkpt lat="43.008115" lon="-1.12662667">
        <ele>871.0</ele>
        <time>2019-07-31T15:25:19.120Z</time>
      </trkpt>
      <trkpt lat="43.008115" lon="-1.12665">
        <ele>870.0</ele>
        <time>2019-07-31T15:25:20.123Z</time>
      </trkpt>
      <trkpt lat="43.008115" lon="-1.12667833">
        <ele>870.0</ele>
        <time>2019-07-31T15:25:21.126Z</time>
      </trkpt>
      <trkpt lat="43.00811333" lon="-1.12671333">
        <ele>869.0</ele>
        <time>2019-07-31T15:25:22.132Z</time>
      </trkpt>
      <trkpt lat="43.00811333" lon="-1.12674333">
        <ele>868.0</ele>
        <time>2019-07-31T15:25:23.139Z</time>
      </trkpt>
      <trkpt lat="43.00811667" lon="-1.12676667">
        <ele>867.0</ele>
        <time>2019-07-31T15:25:24.141Z</time>
      </trkpt>
      <trkpt lat="43.00812" lon="-1.12678833">
        <ele>867.0</ele>
        <time>2019-07-31T15:25:25.143Z</time>
      </trkpt>
      <trkpt lat="43.00812" lon="-1.12681167">
        <ele>865.0</ele>
        <time>2019-07-31T15:25:26.148Z</time>
      </trkpt>
      <trkpt lat="43.00812333" lon="-1.126825">
        <ele>865.0</ele>
        <time>2019-07-31T15:25:27.152Z</time>
      </trkpt>
      <trkpt lat="43.00812333" lon="-1.12683333">
        <ele>865.0</ele>
        <time>2019-07-31T15:25:28.155Z</time>
      </trkpt>
      <trkpt lat="43.00812667" lon="-1.126845">
        <ele>865.0</ele>
        <time>2019-07-31T15:25:29.157Z</time>
      </trkpt>
      <trkpt lat="43.00813167" lon="-1.12685333">
        <ele>865.0</ele>
        <time>2019-07-31T15:25:30.161Z</time>
      </trkpt>
      <trkpt lat="43.008125" lon="-1.12688167">
        <ele>864.0</ele>
        <time>2019-07-31T15:25:31.164Z</time>
      </trkpt>
      <trkpt lat="43.00812333" lon="-1.12691167">
        <ele>864.0</ele>
        <time>2019-07-31T15:25:32.169Z</time>
      </trkpt>
      <trkpt lat="43.008125" lon="-1.126925">
        <ele>864.0</ele>
        <time>2019-07-31T15:25:33.173Z</time>
      </trkpt>
      <trkpt lat="43.00812667" lon="-1.12694167">
        <ele>864.0</ele>
        <time>2019-07-31T15:25:34.178Z</time>
      </trkpt>
      <trkpt lat="43.008125" lon="-1.12696333">
        <ele>863.0</ele>
        <time>2019-07-31T15:25:35.185Z</time>
      </trkpt>
      <trkpt lat="43.00812833" lon="-1.12698667">
        <ele>864.0</ele>
        <time>2019-07-31T15:25:36.066Z</time>
      </trkpt>
      <trkpt lat="43.00812667" lon="-1.12701167">
        <ele>864.0</ele>
        <time>2019-07-31T15:25:37.072Z</time>
      </trkpt>
      <trkpt lat="43.00812667" lon="-1.12703667">
        <ele>864.0</ele>
        <time>2019-07-31T15:25:38.077Z</time>
      </trkpt>
      <trkpt lat="43.008125" lon="-1.12706167">
        <ele>864.0</ele>
        <time>2019-07-31T15:25:39.084Z</time>
      </trkpt>
      <trkpt lat="43.008125" lon="-1.12708333">
        <ele>864.0</ele>
        <time>2019-07-31T15:25:40.087Z</time>
      </trkpt>
      <trkpt lat="43.00812333" lon="-1.127105">
        <ele>865.0</ele>
        <time>2019-07-31T15:25:41.091Z</time>
      </trkpt>
      <trkpt lat="43.00812333" lon="-1.127125">
        <ele>865.0</ele>
        <time>2019-07-31T15:25:42.096Z</time>
      </trkpt>
      <trkpt lat="43.00812667" lon="-1.12714333">
        <ele>864.0</ele>
        <time>2019-07-31T15:25:43.102Z</time>
      </trkpt>
      <trkpt lat="43.00813" lon="-1.12716">
        <ele>864.0</ele>
        <time>2019-07-31T15:25:44.109Z</time>
      </trkpt>
      <trkpt lat="43.00813" lon="-1.12718">
        <ele>863.0</ele>
        <time>2019-07-31T15:25:45.115Z</time>
      </trkpt>
      <trkpt lat="43.00813" lon="-1.1272">
        <ele>863.0</ele>
        <time>2019-07-31T15:25:46.122Z</time>
      </trkpt>
      <trkpt lat="43.00813167" lon="-1.12722167">
        <ele>862.0</ele>
        <time>2019-07-31T15:25:47.125Z</time>
      </trkpt>
      <trkpt lat="43.008135" lon="-1.12724">
        <ele>862.0</ele>
        <time>2019-07-31T15:25:48.133Z</time>
      </trkpt>
      <trkpt lat="43.00814" lon="-1.12726">
        <ele>862.0</ele>
        <time>2019-07-31T15:25:49.140Z</time>
      </trkpt>
      <trkpt lat="43.00814" lon="-1.12728333">
        <ele>863.0</ele>
        <time>2019-07-31T15:25:50.146Z</time>
      </trkpt>
      <trkpt lat="43.008135" lon="-1.12731333">
        <ele>864.0</ele>
        <time>2019-07-31T15:25:51.153Z</time>
      </trkpt>
      <trkpt lat="43.008135" lon="-1.12733833">
        <ele>864.0</ele>
        <time>2019-07-31T15:25:52.158Z</time>
      </trkpt>
      <trkpt lat="43.00814" lon="-1.12736167">
        <ele>864.0</ele>
        <time>2019-07-31T15:25:53.162Z</time>
      </trkpt>
      <trkpt lat="43.00814667" lon="-1.12738">
        <ele>864.0</ele>
        <time>2019-07-31T15:25:54.165Z</time>
      </trkpt>
      <trkpt lat="43.00815" lon="-1.12739667">
        <ele>863.0</ele>
        <time>2019-07-31T15:25:55.168Z</time>
      </trkpt>
      <trkpt lat="43.00814833" lon="-1.12741">
        <ele>863.0</ele>
        <time>2019-07-31T15:25:56.172Z</time>
      </trkpt>
      <trkpt lat="43.00814167" lon="-1.12742333">
        <ele>864.0</ele>
        <time>2019-07-31T15:25:57.178Z</time>
      </trkpt>
      <trkpt lat="43.00813833" lon="-1.12744167">
        <ele>865.0</ele>
        <time>2019-07-31T15:25:58.183Z</time>
      </trkpt>
      <trkpt lat="43.00814167" lon="-1.12746667">
        <ele>868.0</ele>
        <time>2019-07-31T15:25:59.061Z</time>
      </trkpt>
      <trkpt lat="43.00815" lon="-1.127465">
        <ele>868.0</ele>
        <time>2019-07-31T15:26:00.064Z</time>
      </trkpt>
      <trkpt lat="43.00815167" lon="-1.127475">
        <ele>867.0</ele>
        <time>2019-07-31T15:26:01.070Z</time>
      </trkpt>
      <trkpt lat="43.00814333" lon="-1.12748833">
        <ele>868.0</ele>
        <time>2019-07-31T15:26:02.075Z</time>
      </trkpt>
      <trkpt lat="43.00814" lon="-1.12750667">
        <ele>869.0</ele>
        <time>2019-07-31T15:26:03.080Z</time>
      </trkpt>
      <trkpt lat="43.00813667" lon="-1.12751167">
        <ele>870.0</ele>
        <time>2019-07-31T15:26:04.084Z</time>
      </trkpt>
      <trkpt lat="43.00812833" lon="-1.127515">
        <ele>872.0</ele>
        <time>2019-07-31T15:26:05.089Z</time>
      </trkpt>
      <trkpt lat="43.00812333" lon="-1.12752">
        <ele>873.0</ele>
        <time>2019-07-31T15:26:06.095Z</time>
      </trkpt>
      <trkpt lat="43.00812667" lon="-1.12752333">
        <ele>875.0</ele>
        <time>2019-07-31T15:26:07.101Z</time>
      </trkpt>
      <trkpt lat="43.00813167" lon="-1.12752667">
        <ele>876.0</ele>
        <time>2019-07-31T15:26:08.106Z</time>
      </trkpt>
      <trkpt lat="43.008135" lon="-1.127535">
        <ele>877.0</ele>
        <time>2019-07-31T15:26:09.112Z</time>
      </trkpt>
      <trkpt lat="43.00813667" lon="-1.12754667">
        <ele>877.0</ele>
        <time>2019-07-31T15:26:10.116Z</time>
      </trkpt>
      <trkpt lat="43.008135" lon="-1.127555">
        <ele>877.0</ele>
        <time>2019-07-31T15:26:11.122Z</time>
      </trkpt>
      <trkpt lat="43.00813667" lon="-1.12756">
        <ele>876.0</ele>
        <time>2019-07-31T15:26:12.127Z</time>
      </trkpt>
      <trkpt lat="43.00813667" lon="-1.12757">
        <ele>876.0</ele>
        <time>2019-07-31T15:26:13.134Z</time>
      </trkpt>
      <trkpt lat="43.00813833" lon="-1.12758">
        <ele>875.0</ele>
        <time>2019-07-31T15:26:14.141Z</time>
      </trkpt>
      <trkpt lat="43.00813667" lon="-1.12759167">
        <ele>875.0</ele>
        <time>2019-07-31T15:26:15.149Z</time>
      </trkpt>
      <trkpt lat="43.00813833" lon="-1.12760333">
        <ele>874.0</ele>
        <time>2019-07-31T15:26:16.155Z</time>
      </trkpt>
      <trkpt lat="43.00813833" lon="-1.12761667">
        <ele>874.0</ele>
        <time>2019-07-31T15:26:17.161Z</time>
      </trkpt>
      <trkpt lat="43.008135" lon="-1.12763167">
        <ele>874.0</ele>
        <time>2019-07-31T15:26:18.167Z</time>
      </trkpt>
      <trkpt lat="43.008135" lon="-1.127645">
        <ele>874.0</ele>
        <time>2019-07-31T15:26:19.171Z</time>
      </trkpt>
      <trkpt lat="43.00812833" lon="-1.127655">
        <ele>874.0</ele>
        <time>2019-07-31T15:26:20.173Z</time>
      </trkpt>
      <trkpt lat="43.00812167" lon="-1.12767167">
        <ele>875.0</ele>
        <time>2019-07-31T15:26:21.179Z</time>
      </trkpt>
      <trkpt lat="43.00811667" lon="-1.12768333">
        <ele>875.0</ele>
        <time>2019-07-31T15:26:22.185Z</time>
      </trkpt>
      <trkpt lat="43.008115" lon="-1.12769333">
        <ele>875.0</ele>
        <time>2019-07-31T15:26:23.064Z</time>
      </trkpt>
      <trkpt lat="43.00811167" lon="-1.127705">
        <ele>874.0</ele>
        <time>2019-07-31T15:26:24.070Z</time>
      </trkpt>
      <trkpt lat="43.00810833" lon="-1.12771333">
        <ele>874.0</ele>
        <time>2019-07-31T15:26:25.076Z</time>
      </trkpt>
      <trkpt lat="43.00810333" lon="-1.12772333">
        <ele>873.0</ele>
        <time>2019-07-31T15:26:26.082Z</time>
      </trkpt>
      <trkpt lat="43.00809833" lon="-1.12773167">
        <ele>873.0</ele>
        <time>2019-07-31T15:26:27.087Z</time>
      </trkpt>
      <trkpt lat="43.00809167" lon="-1.12774167">
        <ele>873.0</ele>
        <time>2019-07-31T15:26:28.093Z</time>
      </trkpt>
      <trkpt lat="43.00808667" lon="-1.12775333">
        <ele>873.0</ele>
        <time>2019-07-31T15:26:29.100Z</time>
      </trkpt>
      <trkpt lat="43.00808167" lon="-1.12777167">
        <ele>873.0</ele>
        <time>2019-07-31T15:26:30.106Z</time>
      </trkpt>
      <trkpt lat="43.00807833" lon="-1.127785">
        <ele>873.0</ele>
        <time>2019-07-31T15:26:31.113Z</time>
      </trkpt>
      <trkpt lat="43.00807167" lon="-1.12779833">
        <ele>873.0</ele>
        <time>2019-07-31T15:26:32.119Z</time>
      </trkpt>
      <trkpt lat="43.008065" lon="-1.12781833">
        <ele>874.0</ele>
        <time>2019-07-31T15:26:33.123Z</time>
      </trkpt>
      <trkpt lat="43.00806" lon="-1.12784167">
        <ele>875.0</ele>
        <time>2019-07-31T15:26:34.127Z</time>
      </trkpt>
      <trkpt lat="43.008055" lon="-1.12786">
        <ele>875.0</ele>
        <time>2019-07-31T15:26:35.133Z</time>
      </trkpt>
      <trkpt lat="43.00805333" lon="-1.12787833">
        <ele>875.0</ele>
        <time>2019-07-31T15:26:36.137Z</time>
      </trkpt>
      <trkpt lat="43.00804667" lon="-1.12790167">
        <ele>876.0</ele>
        <time>2019-07-31T15:26:37.143Z</time>
      </trkpt>
      <trkpt lat="43.00804" lon="-1.12792333">
        <ele>876.0</ele>
        <time>2019-07-31T15:26:38.149Z</time>
      </trkpt>
      <trkpt lat="43.008035" lon="-1.12794">
        <ele>877.0</ele>
        <time>2019-07-31T15:26:39.154Z</time>
      </trkpt>
      <trkpt lat="43.00802833" lon="-1.12795833">
        <ele>877.0</ele>
        <time>2019-07-31T15:26:40.159Z</time>
      </trkpt>
      <trkpt lat="43.00802667" lon="-1.12797667">
        <ele>878.0</ele>
        <time>2019-07-31T15:26:41.165Z</time>
      </trkpt>
      <trkpt lat="43.00802833" lon="-1.127995">
        <ele>878.0</ele>
        <time>2019-07-31T15:26:42.170Z</time>
      </trkpt>
      <trkpt lat="43.00802333" lon="-1.12802">
        <ele>878.0</ele>
        <time>2019-07-31T15:26:43.174Z</time>
      </trkpt>
      <trkpt lat="43.00801667" lon="-1.12804667">
        <ele>879.0</ele>
        <time>2019-07-31T15:26:44.181Z</time>
      </trkpt>
      <trkpt lat="43.00801333" lon="-1.12807833">
        <ele>879.0</ele>
        <time>2019-07-31T15:26:45.185Z</time>
      </trkpt>
      <trkpt lat="43.008015" lon="-1.12809833">
        <ele>879.0</ele>
        <time>2019-07-31T15:26:46.064Z</time>
      </trkpt>
      <trkpt lat="43.00801667" lon="-1.12811833">
        <ele>879.0</ele>
        <time>2019-07-31T15:26:47.071Z</time>
      </trkpt>
      <trkpt lat="43.008015" lon="-1.128135">
        <ele>878.0</ele>
        <time>2019-07-31T15:26:48.076Z</time>
      </trkpt>
      <trkpt lat="43.00801333" lon="-1.12815333">
        <ele>879.0</ele>
        <time>2019-07-31T15:26:49.079Z</time>
      </trkpt>
      <trkpt lat="43.00800667" lon="-1.12817333">
        <ele>879.0</ele>
        <time>2019-07-31T15:26:50.084Z</time>
      </trkpt>
      <trkpt lat="43.00799833" lon="-1.12819833">
        <ele>878.0</ele>
        <time>2019-07-31T15:26:51.087Z</time>
      </trkpt>
      <trkpt lat="43.00799167" lon="-1.12822">
        <ele>878.0</ele>
        <time>2019-07-31T15:26:52.094Z</time>
      </trkpt>
      <trkpt lat="43.00798667" lon="-1.12825">
        <ele>878.0</ele>
        <time>2019-07-31T15:26:53.099Z</time>
      </trkpt>
      <trkpt lat="43.00798833" lon="-1.12827">
        <ele>878.0</ele>
        <time>2019-07-31T15:26:54.102Z</time>
      </trkpt>
      <trkpt lat="43.00798" lon="-1.128285">
        <ele>879.0</ele>
        <time>2019-07-31T15:26:55.107Z</time>
      </trkpt>
      <trkpt lat="43.00796833" lon="-1.12830667">
        <ele>881.0</ele>
        <time>2019-07-31T15:26:56.111Z</time>
      </trkpt>
      <trkpt lat="43.00796167" lon="-1.12832833">
        <ele>881.0</ele>
        <time>2019-07-31T15:26:57.117Z</time>
      </trkpt>
      <trkpt lat="43.00796333" lon="-1.128345">
        <ele>882.0</ele>
        <time>2019-07-31T15:26:58.122Z</time>
      </trkpt>
      <trkpt lat="43.00795833" lon="-1.12838167">
        <ele>883.0</ele>
        <time>2019-07-31T15:26:59.129Z</time>
      </trkpt>
      <trkpt lat="43.00795167" lon="-1.128415">
        <ele>882.0</ele>
        <time>2019-07-31T15:27:00.136Z</time>
      </trkpt>
      <trkpt lat="43.00794833" lon="-1.12845333">
        <ele>881.0</ele>
        <time>2019-07-31T15:27:01.142Z</time>
      </trkpt>
      <trkpt lat="43.007945" lon="-1.12847833">
        <ele>880.0</ele>
        <time>2019-07-31T15:27:02.149Z</time>
      </trkpt>
      <trkpt lat="43.00794667" lon="-1.1285">
        <ele>883.0</ele>
        <time>2019-07-31T15:27:03.155Z</time>
      </trkpt>
      <trkpt lat="43.00794333" lon="-1.12851833">
        <ele>884.0</ele>
        <time>2019-07-31T15:27:04.161Z</time>
      </trkpt>
      <trkpt lat="43.00794167" lon="-1.12853">
        <ele>885.0</ele>
        <time>2019-07-31T15:27:05.167Z</time>
      </trkpt>
      <trkpt lat="43.007935" lon="-1.128555">
        <ele>886.0</ele>
        <time>2019-07-31T15:27:06.171Z</time>
      </trkpt>
      <trkpt lat="43.007925" lon="-1.12858167">
        <ele>886.0</ele>
        <time>2019-07-31T15:27:07.176Z</time>
      </trkpt>
      <trkpt lat="43.00791833" lon="-1.128605">
        <ele>886.0</ele>
        <time>2019-07-31T15:27:08.182Z</time>
      </trkpt>
      <trkpt lat="43.00791167" lon="-1.128625">
        <ele>886.0</ele>
        <time>2019-07-31T15:27:09.061Z</time>
      </trkpt>
      <trkpt lat="43.00790333" lon="-1.12864333">
        <ele>885.0</ele>
        <time>2019-07-31T15:27:10.068Z</time>
      </trkpt>
      <trkpt lat="43.00789667" lon="-1.12866333">
        <ele>885.0</ele>
        <time>2019-07-31T15:27:11.071Z</time>
      </trkpt>
      <trkpt lat="43.00788833" lon="-1.12869">
        <ele>885.0</ele>
        <time>2019-07-31T15:27:12.077Z</time>
      </trkpt>
      <trkpt lat="43.00788167" lon="-1.12870833">
        <ele>884.0</ele>
        <time>2019-07-31T15:27:13.082Z</time>
      </trkpt>
      <trkpt lat="43.00787833" lon="-1.128725">
        <ele>884.0</ele>
        <time>2019-07-31T15:27:14.086Z</time>
      </trkpt>
      <trkpt lat="43.007875" lon="-1.12874333">
        <ele>884.0</ele>
        <time>2019-07-31T15:27:15.087Z</time>
      </trkpt>
      <trkpt lat="43.00787333" lon="-1.12875833">
        <ele>885.0</ele>
        <time>2019-07-31T15:27:16.091Z</time>
      </trkpt>
      <trkpt lat="43.00787167" lon="-1.12877">
        <ele>885.0</ele>
        <time>2019-07-31T15:27:17.095Z</time>
      </trkpt>
      <trkpt lat="43.00786667" lon="-1.12877833">
        <ele>885.0</ele>
        <time>2019-07-31T15:27:18.102Z</time>
      </trkpt>
      <trkpt lat="43.00786333" lon="-1.12878167">
        <ele>884.0</ele>
        <time>2019-07-31T15:27:19.107Z</time>
      </trkpt>
      <trkpt lat="43.007855" lon="-1.128795">
        <ele>884.0</ele>
        <time>2019-07-31T15:27:20.112Z</time>
      </trkpt>
      <trkpt lat="43.00784167" lon="-1.12882">
        <ele>885.0</ele>
        <time>2019-07-31T15:27:21.119Z</time>
      </trkpt>
      <trkpt lat="43.007835" lon="-1.12883667">
        <ele>885.0</ele>
        <time>2019-07-31T15:27:22.125Z</time>
      </trkpt>
      <trkpt lat="43.00783" lon="-1.12885833">
        <ele>886.0</ele>
        <time>2019-07-31T15:27:23.129Z</time>
      </trkpt>
      <trkpt lat="43.00782333" lon="-1.128875">
        <ele>886.0</ele>
        <time>2019-07-31T15:27:24.133Z</time>
      </trkpt>
      <trkpt lat="43.00781833" lon="-1.128895">
        <ele>887.0</ele>
        <time>2019-07-31T15:27:25.136Z</time>
      </trkpt>
      <trkpt lat="43.007815" lon="-1.12890833">
        <ele>888.0</ele>
        <time>2019-07-31T15:27:26.142Z</time>
      </trkpt>
      <trkpt lat="43.007815" lon="-1.12892333">
        <ele>888.0</ele>
        <time>2019-07-31T15:27:27.146Z</time>
      </trkpt>
      <trkpt lat="43.00781333" lon="-1.12894">
        <ele>888.0</ele>
        <time>2019-07-31T15:27:28.154Z</time>
      </trkpt>
      <trkpt lat="43.007815" lon="-1.12895833">
        <ele>888.0</ele>
        <time>2019-07-31T15:27:29.158Z</time>
      </trkpt>
      <trkpt lat="43.00781833" lon="-1.12897667">
        <ele>888.0</ele>
        <time>2019-07-31T15:27:30.162Z</time>
      </trkpt>
      <trkpt lat="43.007825" lon="-1.12899333">
        <ele>888.0</ele>
        <time>2019-07-31T15:27:31.168Z</time>
      </trkpt>
      <trkpt lat="43.00783667" lon="-1.129005">
        <ele>888.0</ele>
        <time>2019-07-31T15:27:32.175Z</time>
      </trkpt>
      <trkpt lat="43.00784833" lon="-1.12901667">
        <ele>886.0</ele>
        <time>2019-07-31T15:27:33.179Z</time>
      </trkpt>
      <trkpt lat="43.00786333" lon="-1.12902667">
        <ele>885.0</ele>
        <time>2019-07-31T15:27:34.179Z</time>
      </trkpt>
      <trkpt lat="43.00787833" lon="-1.12904167">
        <ele>883.0</ele>
        <time>2019-07-31T15:27:35.184Z</time>
      </trkpt>
      <trkpt lat="43.00789333" lon="-1.12905833">
        <ele>882.0</ele>
        <time>2019-07-31T15:27:36.065Z</time>
      </trkpt>
      <trkpt lat="43.00790667" lon="-1.12908167">
        <ele>881.0</ele>
        <time>2019-07-31T15:27:37.070Z</time>
      </trkpt>
      <trkpt lat="43.00792" lon="-1.12910333">
        <ele>878.0</ele>
        <time>2019-07-31T15:27:38.074Z</time>
      </trkpt>
      <trkpt lat="43.00793333" lon="-1.12913333">
        <ele>877.0</ele>
        <time>2019-07-31T15:27:39.078Z</time>
      </trkpt>
      <trkpt lat="43.00794333" lon="-1.12916167">
        <ele>876.0</ele>
        <time>2019-07-31T15:27:40.083Z</time>
      </trkpt>
      <trkpt lat="43.00795667" lon="-1.12918333">
        <ele>874.0</ele>
        <time>2019-07-31T15:27:41.085Z</time>
      </trkpt>
      <trkpt lat="43.00797333" lon="-1.12920167">
        <ele>872.0</ele>
        <time>2019-07-31T15:27:42.092Z</time>
      </trkpt>
      <trkpt lat="43.00799167" lon="-1.129215">
        <ele>870.0</ele>
        <time>2019-07-31T15:27:43.099Z</time>
      </trkpt>
      <trkpt lat="43.00801" lon="-1.12923167">
        <ele>869.0</ele>
        <time>2019-07-31T15:27:44.104Z</time>
      </trkpt>
      <trkpt lat="43.00802" lon="-1.12925">
        <ele>868.0</ele>
        <time>2019-07-31T15:27:45.109Z</time>
      </trkpt>
      <trkpt lat="43.00803333" lon="-1.129275">
        <ele>867.0</ele>
        <time>2019-07-31T15:27:46.115Z</time>
      </trkpt>
      <trkpt lat="43.00804833" lon="-1.12929">
        <ele>865.0</ele>
        <time>2019-07-31T15:27:47.120Z</time>
      </trkpt>
      <trkpt lat="43.00806167" lon="-1.12931">
        <ele>863.0</ele>
        <time>2019-07-31T15:27:48.125Z</time>
      </trkpt>
      <trkpt lat="43.00807833" lon="-1.12932833">
        <ele>862.0</ele>
        <time>2019-07-31T15:27:49.130Z</time>
      </trkpt>
      <trkpt lat="43.00809333" lon="-1.12934833">
        <ele>862.0</ele>
        <time>2019-07-31T15:27:50.136Z</time>
      </trkpt>
      <trkpt lat="43.00810833" lon="-1.129375">
        <ele>861.0</ele>
        <time>2019-07-31T15:27:51.142Z</time>
      </trkpt>
      <trkpt lat="43.00812167" lon="-1.12940167">
        <ele>860.0</ele>
        <time>2019-07-31T15:27:52.147Z</time>
      </trkpt>
      <trkpt lat="43.00813167" lon="-1.12943">
        <ele>859.0</ele>
        <time>2019-07-31T15:27:53.153Z</time>
      </trkpt>
      <trkpt lat="43.00813667" lon="-1.12945667">
        <ele>860.0</ele>
        <time>2019-07-31T15:27:54.159Z</time>
      </trkpt>
      <trkpt lat="43.00814667" lon="-1.129485">
        <ele>859.0</ele>
        <time>2019-07-31T15:27:55.164Z</time>
      </trkpt>
      <trkpt lat="43.00815167" lon="-1.12952">
        <ele>860.0</ele>
        <time>2019-07-31T15:27:56.169Z</time>
      </trkpt>
      <trkpt lat="43.00815833" lon="-1.12955">
        <ele>860.0</ele>
        <time>2019-07-31T15:27:57.175Z</time>
      </trkpt>
      <trkpt lat="43.00817167" lon="-1.12957167">
        <ele>861.0</ele>
        <time>2019-07-31T15:27:58.180Z</time>
      </trkpt>
      <trkpt lat="43.00818167" lon="-1.12958833">
        <ele>861.0</ele>
        <time>2019-07-31T15:27:59.182Z</time>
      </trkpt>
      <trkpt lat="43.008195" lon="-1.12960833">
        <ele>860.0</ele>
        <time>2019-07-31T15:28:00.061Z</time>
      </trkpt>
      <trkpt lat="43.00820667" lon="-1.129625">
        <ele>859.0</ele>
        <time>2019-07-31T15:28:01.064Z</time>
      </trkpt>
      <trkpt lat="43.00821667" lon="-1.12965167">
        <ele>859.0</ele>
        <time>2019-07-31T15:28:02.071Z</time>
      </trkpt>
      <trkpt lat="43.00822167" lon="-1.12967833">
        <ele>859.0</ele>
        <time>2019-07-31T15:28:03.078Z</time>
      </trkpt>
      <trkpt lat="43.00823" lon="-1.1297">
        <ele>859.0</ele>
        <time>2019-07-31T15:28:04.084Z</time>
      </trkpt>
      <trkpt lat="43.00824" lon="-1.129715">
        <ele>860.0</ele>
        <time>2019-07-31T15:28:05.087Z</time>
      </trkpt>
      <trkpt lat="43.00824333" lon="-1.12972333">
        <ele>859.0</ele>
        <time>2019-07-31T15:28:06.093Z</time>
      </trkpt>
      <trkpt lat="43.00824333" lon="-1.129735">
        <ele>860.0</ele>
        <time>2019-07-31T15:28:07.098Z</time>
      </trkpt>
      <trkpt lat="43.008245" lon="-1.12974333">
        <ele>859.0</ele>
        <time>2019-07-31T15:28:08.104Z</time>
      </trkpt>
      <trkpt lat="43.00824833" lon="-1.12975667">
        <ele>860.0</ele>
        <time>2019-07-31T15:28:09.107Z</time>
      </trkpt>
      <trkpt lat="43.00825333" lon="-1.12977167">
        <ele>861.0</ele>
        <time>2019-07-31T15:28:10.114Z</time>
      </trkpt>
      <trkpt lat="43.00825833" lon="-1.12979">
        <ele>862.0</ele>
        <time>2019-07-31T15:28:11.118Z</time>
      </trkpt>
      <trkpt lat="43.00826" lon="-1.12980667">
        <ele>861.0</ele>
        <time>2019-07-31T15:28:12.123Z</time>
      </trkpt>
      <trkpt lat="43.00826667" lon="-1.129825">
        <ele>861.0</ele>
        <time>2019-07-31T15:28:13.128Z</time>
      </trkpt>
      <trkpt lat="43.008275" lon="-1.129845">
        <ele>861.0</ele>
        <time>2019-07-31T15:28:14.134Z</time>
      </trkpt>
      <trkpt lat="43.00828167" lon="-1.129865">
        <ele>861.0</ele>
        <time>2019-07-31T15:28:15.139Z</time>
      </trkpt>
      <trkpt lat="43.00828833" lon="-1.12988">
        <ele>860.0</ele>
        <time>2019-07-31T15:28:16.146Z</time>
      </trkpt>
      <trkpt lat="43.00829667" lon="-1.12989667">
        <ele>861.0</ele>
        <time>2019-07-31T15:28:17.152Z</time>
      </trkpt>
      <trkpt lat="43.008305" lon="-1.12991833">
        <ele>861.0</ele>
        <time>2019-07-31T15:28:18.159Z</time>
      </trkpt>
      <trkpt lat="43.00831" lon="-1.12994167">
        <ele>861.0</ele>
        <time>2019-07-31T15:28:19.163Z</time>
      </trkpt>
      <trkpt lat="43.008315" lon="-1.12996667">
        <ele>861.0</ele>
        <time>2019-07-31T15:28:20.167Z</time>
      </trkpt>
      <trkpt lat="43.00832167" lon="-1.129985">
        <ele>861.0</ele>
        <time>2019-07-31T15:28:21.171Z</time>
      </trkpt>
      <trkpt lat="43.008325" lon="-1.13000333">
        <ele>860.0</ele>
        <time>2019-07-31T15:28:22.176Z</time>
      </trkpt>
      <trkpt lat="43.00833333" lon="-1.13002667">
        <ele>861.0</ele>
        <time>2019-07-31T15:28:23.182Z</time>
      </trkpt>
      <trkpt lat="43.00834167" lon="-1.130045">
        <ele>860.0</ele>
        <time>2019-07-31T15:28:24.062Z</time>
      </trkpt>
      <trkpt lat="43.00834667" lon="-1.13006667">
        <ele>861.0</ele>
        <time>2019-07-31T15:28:25.068Z</time>
      </trkpt>
      <trkpt lat="43.008355" lon="-1.13008333">
        <ele>861.0</ele>
        <time>2019-07-31T15:28:26.073Z</time>
      </trkpt>
      <trkpt lat="43.00836167" lon="-1.1301">
        <ele>862.0</ele>
        <time>2019-07-31T15:28:27.079Z</time>
      </trkpt>
      <trkpt lat="43.00837" lon="-1.13011333">
        <ele>863.0</ele>
        <time>2019-07-31T15:28:28.085Z</time>
      </trkpt>
      <trkpt lat="43.00837833" lon="-1.130125">
        <ele>862.0</ele>
        <time>2019-07-31T15:28:29.091Z</time>
      </trkpt>
      <trkpt lat="43.008385" lon="-1.13013833">
        <ele>862.0</ele>
        <time>2019-07-31T15:28:30.096Z</time>
      </trkpt>
      <trkpt lat="43.008395" lon="-1.13015">
        <ele>861.0</ele>
        <time>2019-07-31T15:28:31.100Z</time>
      </trkpt>
      <trkpt lat="43.00840833" lon="-1.13015667">
        <ele>861.0</ele>
        <time>2019-07-31T15:28:32.107Z</time>
      </trkpt>
      <trkpt lat="43.00841667" lon="-1.13017167">
        <ele>861.0</ele>
        <time>2019-07-31T15:28:33.112Z</time>
      </trkpt>
      <trkpt lat="43.008425" lon="-1.13018833">
        <ele>861.0</ele>
        <time>2019-07-31T15:28:34.118Z</time>
      </trkpt>
      <trkpt lat="43.00843" lon="-1.13021">
        <ele>862.0</ele>
        <time>2019-07-31T15:28:35.125Z</time>
      </trkpt>
      <trkpt lat="43.00843667" lon="-1.13023">
        <ele>861.0</ele>
        <time>2019-07-31T15:28:36.131Z</time>
      </trkpt>
      <trkpt lat="43.00844333" lon="-1.13025">
        <ele>861.0</ele>
        <time>2019-07-31T15:28:37.137Z</time>
      </trkpt>
      <trkpt lat="43.00845167" lon="-1.130265">
        <ele>860.0</ele>
        <time>2019-07-31T15:28:38.144Z</time>
      </trkpt>
      <trkpt lat="43.00846" lon="-1.13028333">
        <ele>860.0</ele>
        <time>2019-07-31T15:28:39.151Z</time>
      </trkpt>
      <trkpt lat="43.00846" lon="-1.130305">
        <ele>860.0</ele>
        <time>2019-07-31T15:28:40.154Z</time>
      </trkpt>
      <trkpt lat="43.008465" lon="-1.13032667">
        <ele>861.0</ele>
        <time>2019-07-31T15:28:41.158Z</time>
      </trkpt>
      <trkpt lat="43.00847167" lon="-1.13034333">
        <ele>861.0</ele>
        <time>2019-07-31T15:28:42.163Z</time>
      </trkpt>
      <trkpt lat="43.00847333" lon="-1.130365">
        <ele>861.0</ele>
        <time>2019-07-31T15:28:43.167Z</time>
      </trkpt>
      <trkpt lat="43.00847667" lon="-1.130385">
        <ele>861.0</ele>
        <time>2019-07-31T15:28:44.170Z</time>
      </trkpt>
      <trkpt lat="43.00848" lon="-1.13040167">
        <ele>861.0</ele>
        <time>2019-07-31T15:28:45.175Z</time>
      </trkpt>
      <trkpt lat="43.00848333" lon="-1.13042167">
        <ele>861.0</ele>
        <time>2019-07-31T15:28:46.182Z</time>
      </trkpt>
      <trkpt lat="43.00849167" lon="-1.13043333">
        <ele>861.0</ele>
        <time>2019-07-31T15:28:47.061Z</time>
      </trkpt>
      <trkpt lat="43.00850167" lon="-1.13044167">
        <ele>862.0</ele>
        <time>2019-07-31T15:28:48.067Z</time>
      </trkpt>
      <trkpt lat="43.00851" lon="-1.130455">
        <ele>862.0</ele>
        <time>2019-07-31T15:28:49.072Z</time>
      </trkpt>
      <trkpt lat="43.00852" lon="-1.13047167">
        <ele>862.0</ele>
        <time>2019-07-31T15:28:50.078Z</time>
      </trkpt>
      <trkpt lat="43.00853167" lon="-1.13049">
        <ele>861.0</ele>
        <time>2019-07-31T15:28:51.081Z</time>
      </trkpt>
      <trkpt lat="43.00853667" lon="-1.13051167">
        <ele>861.0</ele>
        <time>2019-07-31T15:28:52.086Z</time>
      </trkpt>
      <trkpt lat="43.00854" lon="-1.13053333">
        <ele>861.0</ele>
        <time>2019-07-31T15:28:53.092Z</time>
      </trkpt>
      <trkpt lat="43.00854" lon="-1.130555">
        <ele>861.0</ele>
        <time>2019-07-31T15:28:54.097Z</time>
      </trkpt>
      <trkpt lat="43.00854667" lon="-1.13056833">
        <ele>860.0</ele>
        <time>2019-07-31T15:28:55.101Z</time>
      </trkpt>
      <trkpt lat="43.00855333" lon="-1.130585">
        <ele>860.0</ele>
        <time>2019-07-31T15:28:56.106Z</time>
      </trkpt>
      <trkpt lat="43.00856333" lon="-1.13059667">
        <ele>859.0</ele>
        <time>2019-07-31T15:28:57.112Z</time>
      </trkpt>
      <trkpt lat="43.00857" lon="-1.13061167">
        <ele>859.0</ele>
        <time>2019-07-31T15:28:58.118Z</time>
      </trkpt>
      <trkpt lat="43.00857" lon="-1.13063">
        <ele>860.0</ele>
        <time>2019-07-31T15:28:59.123Z</time>
      </trkpt>
      <trkpt lat="43.00857167" lon="-1.13064">
        <ele>862.0</ele>
        <time>2019-07-31T15:29:00.127Z</time>
      </trkpt>
      <trkpt lat="43.008575" lon="-1.13065">
        <ele>863.0</ele>
        <time>2019-07-31T15:29:01.132Z</time>
      </trkpt>
      <trkpt lat="43.00858" lon="-1.13065833">
        <ele>864.0</ele>
        <time>2019-07-31T15:29:02.136Z</time>
      </trkpt>
      <trkpt lat="43.00858833" lon="-1.130665">
        <ele>864.0</ele>
        <time>2019-07-31T15:29:03.141Z</time>
      </trkpt>
      <trkpt lat="43.008595" lon="-1.130685">
        <ele>866.0</ele>
        <time>2019-07-31T15:29:04.148Z</time>
      </trkpt>
      <trkpt lat="43.00859833" lon="-1.13070167">
        <ele>867.0</ele>
        <time>2019-07-31T15:29:05.155Z</time>
      </trkpt>
      <trkpt lat="43.00860333" lon="-1.13071833">
        <ele>867.0</ele>
        <time>2019-07-31T15:29:06.161Z</time>
      </trkpt>
      <trkpt lat="43.00860667" lon="-1.13073333">
        <ele>868.0</ele>
        <time>2019-07-31T15:29:07.167Z</time>
      </trkpt>
      <trkpt lat="43.00861" lon="-1.13074667">
        <ele>869.0</ele>
        <time>2019-07-31T15:29:08.174Z</time>
      </trkpt>
      <trkpt lat="43.00861333" lon="-1.13076">
        <ele>869.0</ele>
        <time>2019-07-31T15:29:09.176Z</time>
      </trkpt>
      <trkpt lat="43.008615" lon="-1.13077333">
        <ele>870.0</ele>
        <time>2019-07-31T15:29:10.180Z</time>
      </trkpt>
      <trkpt lat="43.00861167" lon="-1.13079333">
        <ele>872.0</ele>
        <time>2019-07-31T15:29:11.185Z</time>
      </trkpt>
      <trkpt lat="43.00861333" lon="-1.13081333">
        <ele>873.0</ele>
        <time>2019-07-31T15:29:12.065Z</time>
      </trkpt>
      <trkpt lat="43.00861667" lon="-1.13083667">
        <ele>873.0</ele>
        <time>2019-07-31T15:29:13.068Z</time>
      </trkpt>
      <trkpt lat="43.00861667" lon="-1.13085667">
        <ele>873.0</ele>
        <time>2019-07-31T15:29:14.075Z</time>
      </trkpt>
      <trkpt lat="43.00861833" lon="-1.130875">
        <ele>872.0</ele>
        <time>2019-07-31T15:29:15.081Z</time>
      </trkpt>
      <trkpt lat="43.00861833" lon="-1.13088833">
        <ele>872.0</ele>
        <time>2019-07-31T15:29:16.085Z</time>
      </trkpt>
      <trkpt lat="43.00861667" lon="-1.130905">
        <ele>873.0</ele>
        <time>2019-07-31T15:29:17.090Z</time>
      </trkpt>
      <trkpt lat="43.00861333" lon="-1.13092">
        <ele>874.0</ele>
        <time>2019-07-31T15:29:18.097Z</time>
      </trkpt>
      <trkpt lat="43.00861167" lon="-1.13093333">
        <ele>874.0</ele>
        <time>2019-07-31T15:29:19.103Z</time>
      </trkpt>
      <trkpt lat="43.00861" lon="-1.13094833">
        <ele>873.0</ele>
        <time>2019-07-31T15:29:20.110Z</time>
      </trkpt>
      <trkpt lat="43.00860667" lon="-1.13096667">
        <ele>873.0</ele>
        <time>2019-07-31T15:29:21.114Z</time>
      </trkpt>
      <trkpt lat="43.00860667" lon="-1.130985">
        <ele>873.0</ele>
        <time>2019-07-31T15:29:22.119Z</time>
      </trkpt>
      <trkpt lat="43.00860667" lon="-1.131">
        <ele>873.0</ele>
        <time>2019-07-31T15:29:23.124Z</time>
      </trkpt>
      <trkpt lat="43.00860667" lon="-1.131015">
        <ele>873.0</ele>
        <time>2019-07-31T15:29:24.129Z</time>
      </trkpt>
      <trkpt lat="43.00860833" lon="-1.13102667">
        <ele>872.0</ele>
        <time>2019-07-31T15:29:25.134Z</time>
      </trkpt>
      <trkpt lat="43.00860667" lon="-1.13104167">
        <ele>872.0</ele>
        <time>2019-07-31T15:29:26.139Z</time>
      </trkpt>
      <trkpt lat="43.00860667" lon="-1.13105167">
        <ele>873.0</ele>
        <time>2019-07-31T15:29:27.146Z</time>
      </trkpt>
      <trkpt lat="43.008605" lon="-1.13107">
        <ele>872.0</ele>
        <time>2019-07-31T15:29:28.151Z</time>
      </trkpt>
      <trkpt lat="43.0086" lon="-1.131085">
        <ele>872.0</ele>
        <time>2019-07-31T15:29:29.155Z</time>
      </trkpt>
      <trkpt lat="43.0086" lon="-1.13110667">
        <ele>874.0</ele>
        <time>2019-07-31T15:29:30.161Z</time>
      </trkpt>
      <trkpt lat="43.0086" lon="-1.13112667">
        <ele>874.0</ele>
        <time>2019-07-31T15:29:31.165Z</time>
      </trkpt>
      <trkpt lat="43.00860167" lon="-1.13114333">
        <ele>873.0</ele>
        <time>2019-07-31T15:29:32.170Z</time>
      </trkpt>
      <trkpt lat="43.00860167" lon="-1.13115833">
        <ele>873.0</ele>
        <time>2019-07-31T15:29:33.175Z</time>
      </trkpt>
      <trkpt lat="43.00860167" lon="-1.13117167">
        <ele>873.0</ele>
        <time>2019-07-31T15:29:34.179Z</time>
      </trkpt>
      <trkpt lat="43.0086" lon="-1.13118833">
        <ele>873.0</ele>
        <time>2019-07-31T15:29:35.181Z</time>
      </trkpt>
      <trkpt lat="43.00859833" lon="-1.131205">
        <ele>873.0</ele>
        <time>2019-07-31T15:29:36.185Z</time>
      </trkpt>
      <trkpt lat="43.00859333" lon="-1.13122333">
        <ele>873.0</ele>
        <time>2019-07-31T15:29:37.066Z</time>
      </trkpt>
      <trkpt lat="43.00859167" lon="-1.13124333">
        <ele>873.0</ele>
        <time>2019-07-31T15:29:38.071Z</time>
      </trkpt>
      <trkpt lat="43.00859" lon="-1.13126167">
        <ele>873.0</ele>
        <time>2019-07-31T15:29:39.076Z</time>
      </trkpt>
      <trkpt lat="43.00859" lon="-1.13128167">
        <ele>873.0</ele>
        <time>2019-07-31T15:29:40.081Z</time>
      </trkpt>
      <trkpt lat="43.00859" lon="-1.131305">
        <ele>873.0</ele>
        <time>2019-07-31T15:29:41.087Z</time>
      </trkpt>
      <trkpt lat="43.00858833" lon="-1.13132667">
        <ele>872.0</ele>
        <time>2019-07-31T15:29:42.093Z</time>
      </trkpt>
      <trkpt lat="43.00858833" lon="-1.13135">
        <ele>872.0</ele>
        <time>2019-07-31T15:29:43.096Z</time>
      </trkpt>
      <trkpt lat="43.00858667" lon="-1.13137667">
        <ele>872.0</ele>
        <time>2019-07-31T15:29:44.101Z</time>
      </trkpt>
      <trkpt lat="43.00858167" lon="-1.13140167">
        <ele>873.0</ele>
        <time>2019-07-31T15:29:45.104Z</time>
      </trkpt>
      <trkpt lat="43.008575" lon="-1.13142167">
        <ele>873.0</ele>
        <time>2019-07-31T15:29:46.109Z</time>
      </trkpt>
      <trkpt lat="43.00857167" lon="-1.131445">
        <ele>874.0</ele>
        <time>2019-07-31T15:29:47.115Z</time>
      </trkpt>
      <trkpt lat="43.00857" lon="-1.131465">
        <ele>875.0</ele>
        <time>2019-07-31T15:29:48.121Z</time>
      </trkpt>
      <trkpt lat="43.00857" lon="-1.13148333">
        <ele>876.0</ele>
        <time>2019-07-31T15:29:49.125Z</time>
      </trkpt>
      <trkpt lat="43.00857333" lon="-1.13149667">
        <ele>875.0</ele>
        <time>2019-07-31T15:29:50.132Z</time>
      </trkpt>
      <trkpt lat="43.00857667" lon="-1.13150667">
        <ele>875.0</ele>
        <time>2019-07-31T15:29:51.138Z</time>
      </trkpt>
      <trkpt lat="43.00857667" lon="-1.131525">
        <ele>874.0</ele>
        <time>2019-07-31T15:29:52.145Z</time>
      </trkpt>
      <trkpt lat="43.00857667" lon="-1.131545">
        <ele>875.0</ele>
        <time>2019-07-31T15:29:53.151Z</time>
      </trkpt>
      <trkpt lat="43.008575" lon="-1.13156333">
        <ele>877.0</ele>
        <time>2019-07-31T15:29:54.156Z</time>
      </trkpt>
      <trkpt lat="43.00856833" lon="-1.13158167">
        <ele>877.0</ele>
        <time>2019-07-31T15:29:55.163Z</time>
      </trkpt>
      <trkpt lat="43.00856333" lon="-1.13160333">
        <ele>878.0</ele>
        <time>2019-07-31T15:29:56.169Z</time>
      </trkpt>
      <trkpt lat="43.00856167" lon="-1.13163">
        <ele>878.0</ele>
        <time>2019-07-31T15:29:57.175Z</time>
      </trkpt>
      <trkpt lat="43.00856" lon="-1.13165333">
        <ele>879.0</ele>
        <time>2019-07-31T15:29:58.182Z</time>
      </trkpt>
      <trkpt lat="43.008555" lon="-1.13167">
        <ele>880.0</ele>
        <time>2019-07-31T15:29:59.186Z</time>
      </trkpt>
      <trkpt lat="43.00855" lon="-1.13168833">
        <ele>880.0</ele>
        <time>2019-07-31T15:30:00.065Z</time>
      </trkpt>
      <trkpt lat="43.00854" lon="-1.13170833">
        <ele>881.0</ele>
        <time>2019-07-31T15:30:01.070Z</time>
      </trkpt>
      <trkpt lat="43.00853333" lon="-1.13172833">
        <ele>882.0</ele>
        <time>2019-07-31T15:30:02.076Z</time>
      </trkpt>
      <trkpt lat="43.00853" lon="-1.13174">
        <ele>883.0</ele>
        <time>2019-07-31T15:30:03.082Z</time>
      </trkpt>
      <trkpt lat="43.008525" lon="-1.13175833">
        <ele>885.0</ele>
        <time>2019-07-31T15:30:04.086Z</time>
      </trkpt>
      <trkpt lat="43.00852667" lon="-1.13178333">
        <ele>886.0</ele>
        <time>2019-07-31T15:30:05.091Z</time>
      </trkpt>
      <trkpt lat="43.00851667" lon="-1.13181167">
        <ele>887.0</ele>
        <time>2019-07-31T15:30:06.096Z</time>
      </trkpt>
      <trkpt lat="43.00851167" lon="-1.13182833">
        <ele>889.0</ele>
        <time>2019-07-31T15:30:07.101Z</time>
      </trkpt>
      <trkpt lat="43.00850833" lon="-1.13184833">
        <ele>890.0</ele>
        <time>2019-07-31T15:30:08.106Z</time>
      </trkpt>
      <trkpt lat="43.008505" lon="-1.13186833">
        <ele>890.0</ele>
        <time>2019-07-31T15:30:09.109Z</time>
      </trkpt>
      <trkpt lat="43.00850167" lon="-1.13189167">
        <ele>891.0</ele>
        <time>2019-07-31T15:30:10.114Z</time>
      </trkpt>
      <trkpt lat="43.00850167" lon="-1.13190833">
        <ele>892.0</ele>
        <time>2019-07-31T15:30:11.120Z</time>
      </trkpt>
      <trkpt lat="43.00849833" lon="-1.13192167">
        <ele>892.0</ele>
        <time>2019-07-31T15:30:12.124Z</time>
      </trkpt>
      <trkpt lat="43.00849667" lon="-1.13193667">
        <ele>892.0</ele>
        <time>2019-07-31T15:30:13.132Z</time>
      </trkpt>
      <trkpt lat="43.00849667" lon="-1.13195167">
        <ele>892.0</ele>
        <time>2019-07-31T15:30:14.134Z</time>
      </trkpt>
      <trkpt lat="43.00849833" lon="-1.13196833">
        <ele>891.0</ele>
        <time>2019-07-31T15:30:15.138Z</time>
      </trkpt>
      <trkpt lat="43.00849833" lon="-1.13198667">
        <ele>891.0</ele>
        <time>2019-07-31T15:30:16.143Z</time>
      </trkpt>
      <trkpt lat="43.0085" lon="-1.132">
        <ele>890.0</ele>
        <time>2019-07-31T15:30:17.149Z</time>
      </trkpt>
      <trkpt lat="43.008495" lon="-1.13201833">
        <ele>889.0</ele>
        <time>2019-07-31T15:30:18.153Z</time>
      </trkpt>
      <trkpt lat="43.00849333" lon="-1.13203833">
        <ele>890.0</ele>
        <time>2019-07-31T15:30:19.161Z</time>
      </trkpt>
      <trkpt lat="43.00849333" lon="-1.13205333">
        <ele>890.0</ele>
        <time>2019-07-31T15:30:20.167Z</time>
      </trkpt>
      <trkpt lat="43.00849167" lon="-1.13207167">
        <ele>890.0</ele>
        <time>2019-07-31T15:30:21.171Z</time>
      </trkpt>
      <trkpt lat="43.00849167" lon="-1.13209167">
        <ele>889.0</ele>
        <time>2019-07-31T15:30:22.177Z</time>
      </trkpt>
      <trkpt lat="43.00848667" lon="-1.13211">
        <ele>888.0</ele>
        <time>2019-07-31T15:30:23.182Z</time>
      </trkpt>
      <trkpt lat="43.00847833" lon="-1.13213">
        <ele>888.0</ele>
        <time>2019-07-31T15:30:24.062Z</time>
      </trkpt>
      <trkpt lat="43.00847333" lon="-1.13214833">
        <ele>887.0</ele>
        <time>2019-07-31T15:30:25.067Z</time>
      </trkpt>
      <trkpt lat="43.00846667" lon="-1.13216833">
        <ele>887.0</ele>
        <time>2019-07-31T15:30:26.073Z</time>
      </trkpt>
      <trkpt lat="43.00846" lon="-1.13219333">
        <ele>887.0</ele>
        <time>2019-07-31T15:30:27.079Z</time>
      </trkpt>
      <trkpt lat="43.00845333" lon="-1.13221">
        <ele>888.0</ele>
        <time>2019-07-31T15:30:28.084Z</time>
      </trkpt>
      <trkpt lat="43.00844333" lon="-1.13223">
        <ele>888.0</ele>
        <time>2019-07-31T15:30:29.089Z</time>
      </trkpt>
      <trkpt lat="43.00843667" lon="-1.13224333">
        <ele>889.0</ele>
        <time>2019-07-31T15:30:30.095Z</time>
      </trkpt>
      <trkpt lat="43.00843167" lon="-1.13225833">
        <ele>888.0</ele>
        <time>2019-07-31T15:30:31.102Z</time>
      </trkpt>
      <trkpt lat="43.008425" lon="-1.13227333">
        <ele>887.0</ele>
        <time>2019-07-31T15:30:32.108Z</time>
      </trkpt>
      <trkpt lat="43.00841833" lon="-1.13229">
        <ele>886.0</ele>
        <time>2019-07-31T15:30:33.113Z</time>
      </trkpt>
      <trkpt lat="43.00841167" lon="-1.13230667">
        <ele>885.0</ele>
        <time>2019-07-31T15:30:34.117Z</time>
      </trkpt>
      <trkpt lat="43.00840333" lon="-1.13232667">
        <ele>885.0</ele>
        <time>2019-07-31T15:30:35.121Z</time>
      </trkpt>
      <trkpt lat="43.00839833" lon="-1.132345">
        <ele>884.0</ele>
        <time>2019-07-31T15:30:36.125Z</time>
      </trkpt>
      <trkpt lat="43.00839167" lon="-1.13236333">
        <ele>883.0</ele>
        <time>2019-07-31T15:30:37.127Z</time>
      </trkpt>
      <trkpt lat="43.00838667" lon="-1.13238333">
        <ele>883.0</ele>
        <time>2019-07-31T15:30:38.132Z</time>
      </trkpt>
      <trkpt lat="43.00838833" lon="-1.13240167">
        <ele>882.0</ele>
        <time>2019-07-31T15:30:39.136Z</time>
      </trkpt>
      <trkpt lat="43.008385" lon="-1.13241833">
        <ele>882.0</ele>
        <time>2019-07-31T15:30:40.139Z</time>
      </trkpt>
      <trkpt lat="43.00838333" lon="-1.13243167">
        <ele>881.0</ele>
        <time>2019-07-31T15:30:41.144Z</time>
      </trkpt>
      <trkpt lat="43.00837667" lon="-1.13245333">
        <ele>880.0</ele>
        <time>2019-07-31T15:30:42.147Z</time>
      </trkpt>
      <trkpt lat="43.00837167" lon="-1.13247333">
        <ele>879.0</ele>
        <time>2019-07-31T15:30:43.154Z</time>
      </trkpt>
      <trkpt lat="43.008365" lon="-1.13248833">
        <ele>878.0</ele>
        <time>2019-07-31T15:30:44.159Z</time>
      </trkpt>
      <trkpt lat="43.00835833" lon="-1.13250167">
        <ele>878.0</ele>
        <time>2019-07-31T15:30:45.163Z</time>
      </trkpt>
      <trkpt lat="43.00835" lon="-1.13251667">
        <ele>878.0</ele>
        <time>2019-07-31T15:30:46.166Z</time>
      </trkpt>
      <trkpt lat="43.00834333" lon="-1.13253">
        <ele>878.0</ele>
        <time>2019-07-31T15:30:47.170Z</time>
      </trkpt>
      <trkpt lat="43.00833333" lon="-1.13254667">
        <ele>878.0</ele>
        <time>2019-07-31T15:30:48.175Z</time>
      </trkpt>
      <trkpt lat="43.00832667" lon="-1.13255833">
        <ele>878.0</ele>
        <time>2019-07-31T15:30:49.179Z</time>
      </trkpt>
      <trkpt lat="43.00832333" lon="-1.13256833">
        <ele>876.0</ele>
        <time>2019-07-31T15:30:50.186Z</time>
      </trkpt>
      <trkpt lat="43.00831833" lon="-1.13258167">
        <ele>876.0</ele>
        <time>2019-07-31T15:30:51.067Z</time>
      </trkpt>
      <trkpt lat="43.00831333" lon="-1.13259333">
        <ele>874.0</ele>
        <time>2019-07-31T15:30:52.074Z</time>
      </trkpt>
      <trkpt lat="43.00830333" lon="-1.13260833">
        <ele>873.0</ele>
        <time>2019-07-31T15:30:53.080Z</time>
      </trkpt>
      <trkpt lat="43.00829333" lon="-1.13262167">
        <ele>872.0</ele>
        <time>2019-07-31T15:30:54.085Z</time>
      </trkpt>
      <trkpt lat="43.00828833" lon="-1.132635">
        <ele>871.0</ele>
        <time>2019-07-31T15:30:55.092Z</time>
      </trkpt>
      <trkpt lat="43.00828333" lon="-1.13265167">
        <ele>871.0</ele>
        <time>2019-07-31T15:30:56.097Z</time>
      </trkpt>
      <trkpt lat="43.00827833" lon="-1.13267167">
        <ele>871.0</ele>
        <time>2019-07-31T15:30:57.100Z</time>
      </trkpt>
      <trkpt lat="43.00827" lon="-1.132685">
        <ele>871.0</ele>
        <time>2019-07-31T15:30:58.106Z</time>
      </trkpt>
      <trkpt lat="43.00826" lon="-1.13269833">
        <ele>870.0</ele>
        <time>2019-07-31T15:30:59.109Z</time>
      </trkpt>
      <trkpt lat="43.00825167" lon="-1.13271333">
        <ele>869.0</ele>
        <time>2019-07-31T15:31:00.112Z</time>
      </trkpt>
      <trkpt lat="43.008245" lon="-1.132725">
        <ele>869.0</ele>
        <time>2019-07-31T15:31:01.115Z</time>
      </trkpt>
      <trkpt lat="43.00823667" lon="-1.13273667">
        <ele>869.0</ele>
        <time>2019-07-31T15:31:02.122Z</time>
      </trkpt>
      <trkpt lat="43.00823" lon="-1.13275167">
        <ele>869.0</ele>
        <time>2019-07-31T15:31:03.126Z</time>
      </trkpt>
      <trkpt lat="43.00822333" lon="-1.13276833">
        <ele>868.0</ele>
        <time>2019-07-31T15:31:04.132Z</time>
      </trkpt>
      <trkpt lat="43.00821833" lon="-1.13278333">
        <ele>867.0</ele>
        <time>2019-07-31T15:31:05.136Z</time>
      </trkpt>
      <trkpt lat="43.00821167" lon="-1.1328">
        <ele>866.0</ele>
        <time>2019-07-31T15:31:06.141Z</time>
      </trkpt>
      <trkpt lat="43.008205" lon="-1.13282167">
        <ele>867.0</ele>
        <time>2019-07-31T15:31:07.147Z</time>
      </trkpt>
      <trkpt lat="43.008195" lon="-1.13284">
        <ele>868.0</ele>
        <time>2019-07-31T15:31:08.153Z</time>
      </trkpt>
      <trkpt lat="43.00818333" lon="-1.13286167">
        <ele>869.0</ele>
        <time>2019-07-31T15:31:09.160Z</time>
      </trkpt>
      <trkpt lat="43.00817333" lon="-1.13287833">
        <ele>870.0</ele>
        <time>2019-07-31T15:31:10.166Z</time>
      </trkpt>
      <trkpt lat="43.00816167" lon="-1.1329">
        <ele>870.0</ele>
        <time>2019-07-31T15:31:11.171Z</time>
      </trkpt>
      <trkpt lat="43.008155" lon="-1.13291333">
        <ele>871.0</ele>
        <time>2019-07-31T15:31:12.177Z</time>
      </trkpt>
      <trkpt lat="43.00815167" lon="-1.13292333">
        <ele>871.0</ele>
        <time>2019-07-31T15:31:13.183Z</time>
      </trkpt>
      <trkpt lat="43.00815167" lon="-1.13292833">
        <ele>872.0</ele>
        <time>2019-07-31T15:31:14.064Z</time>
      </trkpt>
      <trkpt lat="43.00815333" lon="-1.13293">
        <ele>870.0</ele>
        <time>2019-07-31T15:31:15.071Z</time>
      </trkpt>
      <trkpt lat="43.00815167" lon="-1.13293667">
        <ele>870.0</ele>
        <time>2019-07-31T15:31:16.077Z</time>
      </trkpt>
      <trkpt lat="43.00815" lon="-1.13294333">
        <ele>870.0</ele>
        <time>2019-07-31T15:31:17.081Z</time>
      </trkpt>
      <trkpt lat="43.00814667" lon="-1.13295333">
        <ele>870.0</ele>
        <time>2019-07-31T15:31:18.084Z</time>
      </trkpt>
      <trkpt lat="43.008145" lon="-1.13296667">
        <ele>871.0</ele>
        <time>2019-07-31T15:31:19.089Z</time>
      </trkpt>
      <trkpt lat="43.00814333" lon="-1.13297667">
        <ele>871.0</ele>
        <time>2019-07-31T15:31:20.092Z</time>
      </trkpt>
      <trkpt lat="43.008145" lon="-1.13298333">
        <ele>870.0</ele>
        <time>2019-07-31T15:31:21.098Z</time>
      </trkpt>
      <trkpt lat="43.00814333" lon="-1.132995">
        <ele>870.0</ele>
        <time>2019-07-31T15:31:22.104Z</time>
      </trkpt>
      <trkpt lat="43.00814" lon="-1.13301167">
        <ele>871.0</ele>
        <time>2019-07-31T15:31:23.112Z</time>
      </trkpt>
      <trkpt lat="43.00813333" lon="-1.133025">
        <ele>871.0</ele>
        <time>2019-07-31T15:31:24.118Z</time>
      </trkpt>
      <trkpt lat="43.00812667" lon="-1.133045">
        <ele>871.0</ele>
        <time>2019-07-31T15:31:25.124Z</time>
      </trkpt>
      <trkpt lat="43.00812333" lon="-1.13306333">
        <ele>872.0</ele>
        <time>2019-07-31T15:31:26.130Z</time>
      </trkpt>
      <trkpt lat="43.00812167" lon="-1.13308167">
        <ele>871.0</ele>
        <time>2019-07-31T15:31:27.135Z</time>
      </trkpt>
      <trkpt lat="43.00812667" lon="-1.133095">
        <ele>871.0</ele>
        <time>2019-07-31T15:31:28.140Z</time>
      </trkpt>
      <trkpt lat="43.008125" lon="-1.13311667">
        <ele>870.0</ele>
        <time>2019-07-31T15:31:29.146Z</time>
      </trkpt>
      <trkpt lat="43.008125" lon="-1.133135">
        <ele>870.0</ele>
        <time>2019-07-31T15:31:30.152Z</time>
      </trkpt>
      <trkpt lat="43.00811833" lon="-1.13315667">
        <ele>870.0</ele>
        <time>2019-07-31T15:31:31.155Z</time>
      </trkpt>
      <trkpt lat="43.00810833" lon="-1.13318333">
        <ele>870.0</ele>
        <time>2019-07-31T15:31:32.161Z</time>
      </trkpt>
      <trkpt lat="43.0081" lon="-1.13320333">
        <ele>870.0</ele>
        <time>2019-07-31T15:31:33.167Z</time>
      </trkpt>
      <trkpt lat="43.00809333" lon="-1.13322333">
        <ele>870.0</ele>
        <time>2019-07-31T15:31:34.172Z</time>
      </trkpt>
      <trkpt lat="43.00809" lon="-1.13324333">
        <ele>871.0</ele>
        <time>2019-07-31T15:31:35.177Z</time>
      </trkpt>
      <trkpt lat="43.00808667" lon="-1.133265">
        <ele>871.0</ele>
        <time>2019-07-31T15:31:36.184Z</time>
      </trkpt>
      <trkpt lat="43.00807667" lon="-1.13329333">
        <ele>871.0</ele>
        <time>2019-07-31T15:31:37.063Z</time>
      </trkpt>
      <trkpt lat="43.00807" lon="-1.13331833">
        <ele>870.0</ele>
        <time>2019-07-31T15:31:38.069Z</time>
      </trkpt>
      <trkpt lat="43.00807167" lon="-1.13334667">
        <ele>869.0</ele>
        <time>2019-07-31T15:31:39.074Z</time>
      </trkpt>
      <trkpt lat="43.00807333" lon="-1.13337">
        <ele>868.0</ele>
        <time>2019-07-31T15:31:40.079Z</time>
      </trkpt>
      <trkpt lat="43.00807167" lon="-1.13339833">
        <ele>868.0</ele>
        <time>2019-07-31T15:31:41.085Z</time>
      </trkpt>
      <trkpt lat="43.00807167" lon="-1.13343">
        <ele>868.0</ele>
        <time>2019-07-31T15:31:42.089Z</time>
      </trkpt>
      <trkpt lat="43.00806667" lon="-1.13345667">
        <ele>868.0</ele>
        <time>2019-07-31T15:31:43.095Z</time>
      </trkpt>
      <trkpt lat="43.00806333" lon="-1.13347833">
        <ele>868.0</ele>
        <time>2019-07-31T15:31:44.101Z</time>
      </trkpt>
      <trkpt lat="43.008065" lon="-1.13349333">
        <ele>867.0</ele>
        <time>2019-07-31T15:31:45.106Z</time>
      </trkpt>
      <trkpt lat="43.008065" lon="-1.13351333">
        <ele>867.0</ele>
        <time>2019-07-31T15:31:46.112Z</time>
      </trkpt>
      <trkpt lat="43.00806333" lon="-1.133535">
        <ele>867.0</ele>
        <time>2019-07-31T15:31:47.118Z</time>
      </trkpt>
      <trkpt lat="43.00806" lon="-1.13355833">
        <ele>867.0</ele>
        <time>2019-07-31T15:31:48.123Z</time>
      </trkpt>
      <trkpt lat="43.00805833" lon="-1.13358333">
        <ele>868.0</ele>
        <time>2019-07-31T15:31:49.127Z</time>
      </trkpt>
      <trkpt lat="43.00806" lon="-1.13360833">
        <ele>868.0</ele>
        <time>2019-07-31T15:31:50.132Z</time>
      </trkpt>
      <trkpt lat="43.00806" lon="-1.13363167">
        <ele>867.0</ele>
        <time>2019-07-31T15:31:51.138Z</time>
      </trkpt>
      <trkpt lat="43.00805833" lon="-1.13365667">
        <ele>867.0</ele>
        <time>2019-07-31T15:31:52.145Z</time>
      </trkpt>
      <trkpt lat="43.00805833" lon="-1.13367667">
        <ele>867.0</ele>
        <time>2019-07-31T15:31:53.149Z</time>
      </trkpt>
      <trkpt lat="43.00805833" lon="-1.1337">
        <ele>867.0</ele>
        <time>2019-07-31T15:31:54.156Z</time>
      </trkpt>
      <trkpt lat="43.00806" lon="-1.13372333">
        <ele>867.0</ele>
        <time>2019-07-31T15:31:55.163Z</time>
      </trkpt>
      <trkpt lat="43.00806" lon="-1.133745">
        <ele>868.0</ele>
        <time>2019-07-31T15:31:56.167Z</time>
      </trkpt>
      <trkpt lat="43.00806167" lon="-1.13376833">
        <ele>869.0</ele>
        <time>2019-07-31T15:31:57.174Z</time>
      </trkpt>
      <trkpt lat="43.00806167" lon="-1.13379">
        <ele>869.0</ele>
        <time>2019-07-31T15:31:58.180Z</time>
      </trkpt>
      <trkpt lat="43.00806167" lon="-1.13381">
        <ele>869.0</ele>
        <time>2019-07-31T15:31:59.184Z</time>
      </trkpt>
      <trkpt lat="43.008055" lon="-1.133835">
        <ele>870.0</ele>
        <time>2019-07-31T15:32:00.066Z</time>
      </trkpt>
      <trkpt lat="43.00805" lon="-1.133855">
        <ele>871.0</ele>
        <time>2019-07-31T15:32:01.072Z</time>
      </trkpt>
      <trkpt lat="43.00804833" lon="-1.13387333">
        <ele>871.0</ele>
        <time>2019-07-31T15:32:02.078Z</time>
      </trkpt>
      <trkpt lat="43.00804167" lon="-1.13389667">
        <ele>872.0</ele>
        <time>2019-07-31T15:32:03.083Z</time>
      </trkpt>
      <trkpt lat="43.00804" lon="-1.13391333">
        <ele>872.0</ele>
        <time>2019-07-31T15:32:04.086Z</time>
      </trkpt>
      <trkpt lat="43.00804167" lon="-1.13393">
        <ele>872.0</ele>
        <time>2019-07-31T15:32:05.092Z</time>
      </trkpt>
      <trkpt lat="43.00804333" lon="-1.133945">
        <ele>871.0</ele>
        <time>2019-07-31T15:32:06.098Z</time>
      </trkpt>
      <trkpt lat="43.00804167" lon="-1.13396333">
        <ele>871.0</ele>
        <time>2019-07-31T15:32:07.104Z</time>
      </trkpt>
      <trkpt lat="43.00803667" lon="-1.13398333">
        <ele>871.0</ele>
        <time>2019-07-31T15:32:08.110Z</time>
      </trkpt>
      <trkpt lat="43.00803833" lon="-1.134005">
        <ele>872.0</ele>
        <time>2019-07-31T15:32:09.115Z</time>
      </trkpt>
      <trkpt lat="43.00803667" lon="-1.13403">
        <ele>872.0</ele>
        <time>2019-07-31T15:32:10.121Z</time>
      </trkpt>
      <trkpt lat="43.00803167" lon="-1.13405333">
        <ele>871.0</ele>
        <time>2019-07-31T15:32:11.125Z</time>
      </trkpt>
      <trkpt lat="43.008025" lon="-1.13407167">
        <ele>870.0</ele>
        <time>2019-07-31T15:32:12.130Z</time>
      </trkpt>
      <trkpt lat="43.00802667" lon="-1.13408667">
        <ele>869.0</ele>
        <time>2019-07-31T15:32:13.136Z</time>
      </trkpt>
      <trkpt lat="43.00803" lon="-1.13409833">
        <ele>869.0</ele>
        <time>2019-07-31T15:32:14.141Z</time>
      </trkpt>
      <trkpt lat="43.00803167" lon="-1.13410833">
        <ele>869.0</ele>
        <time>2019-07-31T15:32:15.148Z</time>
      </trkpt>
      <trkpt lat="43.00803333" lon="-1.13412167">
        <ele>869.0</ele>
        <time>2019-07-31T15:32:16.154Z</time>
      </trkpt>
      <trkpt lat="43.00803333" lon="-1.134135">
        <ele>869.0</ele>
        <time>2019-07-31T15:32:17.159Z</time>
      </trkpt>
      <trkpt lat="43.00803167" lon="-1.134155">
        <ele>869.0</ele>
        <time>2019-07-31T15:32:18.167Z</time>
      </trkpt>
      <trkpt lat="43.00803167" lon="-1.134165">
        <ele>869.0</ele>
        <time>2019-07-31T15:32:19.171Z</time>
      </trkpt>
      <trkpt lat="43.00803333" lon="-1.13417833">
        <ele>869.0</ele>
        <time>2019-07-31T15:32:20.176Z</time>
      </trkpt>
      <trkpt lat="43.008035" lon="-1.13419667">
        <ele>869.0</ele>
        <time>2019-07-31T15:32:21.178Z</time>
      </trkpt>
      <trkpt lat="43.008035" lon="-1.13421667">
        <ele>870.0</ele>
        <time>2019-07-31T15:32:22.181Z</time>
      </trkpt>
      <trkpt lat="43.00803667" lon="-1.13423833">
        <ele>869.0</ele>
        <time>2019-07-31T15:32:23.061Z</time>
      </trkpt>
      <trkpt lat="43.00803833" lon="-1.13426">
        <ele>869.0</ele>
        <time>2019-07-31T15:32:24.069Z</time>
      </trkpt>
      <trkpt lat="43.00804" lon="-1.13427833">
        <ele>869.0</ele>
        <time>2019-07-31T15:32:25.077Z</time>
      </trkpt>
      <trkpt lat="43.00804" lon="-1.13430167">
        <ele>867.0</ele>
        <time>2019-07-31T15:32:26.083Z</time>
      </trkpt>
      <trkpt lat="43.00803833" lon="-1.13432167">
        <ele>866.0</ele>
        <time>2019-07-31T15:32:27.088Z</time>
      </trkpt>
      <trkpt lat="43.00804167" lon="-1.13434333">
        <ele>865.0</ele>
        <time>2019-07-31T15:32:28.093Z</time>
      </trkpt>
      <trkpt lat="43.00804667" lon="-1.13436667">
        <ele>865.0</ele>
        <time>2019-07-31T15:32:29.098Z</time>
      </trkpt>
      <trkpt lat="43.00804833" lon="-1.13439333">
        <ele>865.0</ele>
        <time>2019-07-31T15:32:30.104Z</time>
      </trkpt>
      <trkpt lat="43.00805333" lon="-1.13441667">
        <ele>865.0</ele>
        <time>2019-07-31T15:32:31.108Z</time>
      </trkpt>
      <trkpt lat="43.008055" lon="-1.13444167">
        <ele>864.0</ele>
        <time>2019-07-31T15:32:32.115Z</time>
      </trkpt>
      <trkpt lat="43.00806" lon="-1.13446167">
        <ele>864.0</ele>
        <time>2019-07-31T15:32:33.122Z</time>
      </trkpt>
      <trkpt lat="43.00806333" lon="-1.13448167">
        <ele>864.0</ele>
        <time>2019-07-31T15:32:34.127Z</time>
      </trkpt>
      <trkpt lat="43.00806167" lon="-1.13450667">
        <ele>864.0</ele>
        <time>2019-07-31T15:32:35.134Z</time>
      </trkpt>
      <trkpt lat="43.00806" lon="-1.13453667">
        <ele>864.0</ele>
        <time>2019-07-31T15:32:36.140Z</time>
      </trkpt>
      <trkpt lat="43.008065" lon="-1.13455333">
        <ele>865.0</ele>
        <time>2019-07-31T15:32:37.147Z</time>
      </trkpt>
      <trkpt lat="43.00807333" lon="-1.134575">
        <ele>864.0</ele>
        <time>2019-07-31T15:32:38.152Z</time>
      </trkpt>
      <trkpt lat="43.00807833" lon="-1.134595">
        <ele>864.0</ele>
        <time>2019-07-31T15:32:39.157Z</time>
      </trkpt>
      <trkpt lat="43.00808167" lon="-1.13461167">
        <ele>864.0</ele>
        <time>2019-07-31T15:32:40.163Z</time>
      </trkpt>
      <trkpt lat="43.00809167" lon="-1.13462833">
        <ele>865.0</ele>
        <time>2019-07-31T15:32:41.167Z</time>
      </trkpt>
      <trkpt lat="43.00809833" lon="-1.13463833">
        <ele>865.0</ele>
        <time>2019-07-31T15:32:42.171Z</time>
      </trkpt>
      <trkpt lat="43.00810667" lon="-1.13464667">
        <ele>866.0</ele>
        <time>2019-07-31T15:32:43.176Z</time>
      </trkpt>
      <trkpt lat="43.00811333" lon="-1.13465">
        <ele>866.0</ele>
        <time>2019-07-31T15:32:44.183Z</time>
      </trkpt>
      <trkpt lat="43.00812" lon="-1.13466">
        <ele>867.0</ele>
        <time>2019-07-31T15:32:45.063Z</time>
      </trkpt>
      <trkpt lat="43.00813" lon="-1.13466667">
        <ele>867.0</ele>
        <time>2019-07-31T15:32:46.068Z</time>
      </trkpt>
      <trkpt lat="43.00814333" lon="-1.13468">
        <ele>868.0</ele>
        <time>2019-07-31T15:32:47.075Z</time>
      </trkpt>
      <trkpt lat="43.00815" lon="-1.134695">
        <ele>867.0</ele>
        <time>2019-07-31T15:32:48.082Z</time>
      </trkpt>
      <trkpt lat="43.00815333" lon="-1.13471">
        <ele>866.0</ele>
        <time>2019-07-31T15:32:49.086Z</time>
      </trkpt>
      <trkpt lat="43.00815833" lon="-1.13472333">
        <ele>865.0</ele>
        <time>2019-07-31T15:32:50.089Z</time>
      </trkpt>
      <trkpt lat="43.00816333" lon="-1.134735">
        <ele>865.0</ele>
        <time>2019-07-31T15:32:51.093Z</time>
      </trkpt>
      <trkpt lat="43.00816667" lon="-1.13475">
        <ele>863.0</ele>
        <time>2019-07-31T15:32:52.097Z</time>
      </trkpt>
      <trkpt lat="43.00817333" lon="-1.13476667">
        <ele>863.0</ele>
        <time>2019-07-31T15:32:53.101Z</time>
      </trkpt>
      <trkpt lat="43.00817833" lon="-1.13478">
        <ele>862.0</ele>
        <time>2019-07-31T15:32:54.107Z</time>
      </trkpt>
      <trkpt lat="43.00818667" lon="-1.13479333">
        <ele>862.0</ele>
        <time>2019-07-31T15:32:55.114Z</time>
      </trkpt>
      <trkpt lat="43.00819333" lon="-1.134805">
        <ele>861.0</ele>
        <time>2019-07-31T15:32:56.121Z</time>
      </trkpt>
      <trkpt lat="43.008205" lon="-1.13481667">
        <ele>861.0</ele>
        <time>2019-07-31T15:32:57.128Z</time>
      </trkpt>
      <trkpt lat="43.00821667" lon="-1.13483167">
        <ele>860.0</ele>
        <time>2019-07-31T15:32:58.131Z</time>
      </trkpt>
      <trkpt lat="43.00822667" lon="-1.13484833">
        <ele>859.0</ele>
        <time>2019-07-31T15:32:59.137Z</time>
      </trkpt>
      <trkpt lat="43.00823333" lon="-1.13486333">
        <ele>858.0</ele>
        <time>2019-07-31T15:33:00.141Z</time>
      </trkpt>
      <trkpt lat="43.00824167" lon="-1.13488">
        <ele>858.0</ele>
        <time>2019-07-31T15:33:01.148Z</time>
      </trkpt>
      <trkpt lat="43.00825" lon="-1.13489333">
        <ele>857.0</ele>
        <time>2019-07-31T15:33:02.151Z</time>
      </trkpt>
      <trkpt lat="43.00826" lon="-1.13490833">
        <ele>857.0</ele>
        <time>2019-07-31T15:33:03.156Z</time>
      </trkpt>
      <trkpt lat="43.00826833" lon="-1.134925">
        <ele>856.0</ele>
        <time>2019-07-31T15:33:04.162Z</time>
      </trkpt>
      <trkpt lat="43.00827667" lon="-1.13494333">
        <ele>856.0</ele>
        <time>2019-07-31T15:33:05.167Z</time>
      </trkpt>
      <trkpt lat="43.00828667" lon="-1.13495667">
        <ele>856.0</ele>
        <time>2019-07-31T15:33:06.168Z</time>
      </trkpt>
      <trkpt lat="43.00829833" lon="-1.13497167">
        <ele>855.0</ele>
        <time>2019-07-31T15:33:07.175Z</time>
      </trkpt>
      <trkpt lat="43.00830833" lon="-1.13498667">
        <ele>854.0</ele>
        <time>2019-07-31T15:33:08.179Z</time>
      </trkpt>
      <trkpt lat="43.00831833" lon="-1.13500333">
        <ele>853.0</ele>
        <time>2019-07-31T15:33:09.184Z</time>
      </trkpt>
      <trkpt lat="43.00832833" lon="-1.13501833">
        <ele>853.0</ele>
        <time>2019-07-31T15:33:10.063Z</time>
      </trkpt>
      <trkpt lat="43.00833333" lon="-1.13503667">
        <ele>853.0</ele>
        <time>2019-07-31T15:33:11.067Z</time>
      </trkpt>
      <trkpt lat="43.00834" lon="-1.13506167">
        <ele>853.0</ele>
        <time>2019-07-31T15:33:12.071Z</time>
      </trkpt>
      <trkpt lat="43.00834833" lon="-1.13508167">
        <ele>854.0</ele>
        <time>2019-07-31T15:33:13.076Z</time>
      </trkpt>
      <trkpt lat="43.008355" lon="-1.1351">
        <ele>854.0</ele>
        <time>2019-07-31T15:33:14.082Z</time>
      </trkpt>
      <trkpt lat="43.00835833" lon="-1.13511667">
        <ele>854.0</ele>
        <time>2019-07-31T15:33:15.087Z</time>
      </trkpt>
      <trkpt lat="43.008365" lon="-1.13513333">
        <ele>854.0</ele>
        <time>2019-07-31T15:33:16.092Z</time>
      </trkpt>
      <trkpt lat="43.00837833" lon="-1.13515">
        <ele>854.0</ele>
        <time>2019-07-31T15:33:17.097Z</time>
      </trkpt>
      <trkpt lat="43.00838667" lon="-1.135175">
        <ele>856.0</ele>
        <time>2019-07-31T15:33:18.102Z</time>
      </trkpt>
      <trkpt lat="43.00839333" lon="-1.13520167">
        <ele>856.0</ele>
        <time>2019-07-31T15:33:19.108Z</time>
      </trkpt>
      <trkpt lat="43.00840333" lon="-1.13521667">
        <ele>858.0</ele>
        <time>2019-07-31T15:33:20.114Z</time>
      </trkpt>
      <trkpt lat="43.008415" lon="-1.13523833">
        <ele>860.0</ele>
        <time>2019-07-31T15:33:21.121Z</time>
      </trkpt>
      <trkpt lat="43.00842667" lon="-1.13525333">
        <ele>861.0</ele>
        <time>2019-07-31T15:33:22.127Z</time>
      </trkpt>
      <trkpt lat="43.00844" lon="-1.13527">
        <ele>861.0</ele>
        <time>2019-07-31T15:33:23.132Z</time>
      </trkpt>
      <trkpt lat="43.00844667" lon="-1.13529333">
        <ele>860.0</ele>
        <time>2019-07-31T15:33:24.135Z</time>
      </trkpt>
      <trkpt lat="43.00845167" lon="-1.13531833">
        <ele>860.0</ele>
        <time>2019-07-31T15:33:25.141Z</time>
      </trkpt>
      <trkpt lat="43.00846167" lon="-1.13533">
        <ele>859.0</ele>
        <time>2019-07-31T15:33:26.148Z</time>
      </trkpt>
      <trkpt lat="43.00847167" lon="-1.13533833">
        <ele>859.0</ele>
        <time>2019-07-31T15:33:27.155Z</time>
      </trkpt>
      <trkpt lat="43.008475" lon="-1.13535">
        <ele>859.0</ele>
        <time>2019-07-31T15:33:28.163Z</time>
      </trkpt>
      <trkpt lat="43.00846833" lon="-1.13536833">
        <ele>859.0</ele>
        <time>2019-07-31T15:33:29.168Z</time>
      </trkpt>
      <trkpt lat="43.00846833" lon="-1.13538667">
        <ele>857.0</ele>
        <time>2019-07-31T15:33:30.175Z</time>
      </trkpt>
      <trkpt lat="43.00847167" lon="-1.13540667">
        <ele>856.0</ele>
        <time>2019-07-31T15:33:31.180Z</time>
      </trkpt>
      <trkpt lat="43.008475" lon="-1.13542333">
        <ele>854.0</ele>
        <time>2019-07-31T15:33:32.186Z</time>
      </trkpt>
      <trkpt lat="43.00848167" lon="-1.13544">
        <ele>855.0</ele>
        <time>2019-07-31T15:33:33.065Z</time>
      </trkpt>
      <trkpt lat="43.00848667" lon="-1.135455">
        <ele>854.0</ele>
        <time>2019-07-31T15:33:34.070Z</time>
      </trkpt>
      <trkpt lat="43.00849167" lon="-1.13547333">
        <ele>855.0</ele>
        <time>2019-07-31T15:33:35.072Z</time>
      </trkpt>
      <trkpt lat="43.00849667" lon="-1.13548667">
        <ele>855.0</ele>
        <time>2019-07-31T15:33:36.078Z</time>
      </trkpt>
      <trkpt lat="43.0085" lon="-1.13550667">
        <ele>854.0</ele>
        <time>2019-07-31T15:33:37.084Z</time>
      </trkpt>
      <trkpt lat="43.00850167" lon="-1.13552667">
        <ele>855.0</ele>
        <time>2019-07-31T15:33:38.089Z</time>
      </trkpt>
      <trkpt lat="43.00850333" lon="-1.13554667">
        <ele>855.0</ele>
        <time>2019-07-31T15:33:39.094Z</time>
      </trkpt>
      <trkpt lat="43.00850667" lon="-1.13556167">
        <ele>855.0</ele>
        <time>2019-07-31T15:33:40.098Z</time>
      </trkpt>
      <trkpt lat="43.00851167" lon="-1.13557667">
        <ele>855.0</ele>
        <time>2019-07-31T15:33:41.102Z</time>
      </trkpt>
      <trkpt lat="43.00851833" lon="-1.135595">
        <ele>856.0</ele>
        <time>2019-07-31T15:33:42.107Z</time>
      </trkpt>
      <trkpt lat="43.00852167" lon="-1.13561167">
        <ele>856.0</ele>
        <time>2019-07-31T15:33:43.112Z</time>
      </trkpt>
      <trkpt lat="43.00852167" lon="-1.135625">
        <ele>856.0</ele>
        <time>2019-07-31T15:33:44.120Z</time>
      </trkpt>
      <trkpt lat="43.00852333" lon="-1.13564333">
        <ele>857.0</ele>
        <time>2019-07-31T15:33:45.126Z</time>
      </trkpt>
      <trkpt lat="43.00852667" lon="-1.13565667">
        <ele>858.0</ele>
        <time>2019-07-31T15:33:46.131Z</time>
      </trkpt>
      <trkpt lat="43.008535" lon="-1.13566833">
        <ele>858.0</ele>
        <time>2019-07-31T15:33:47.136Z</time>
      </trkpt>
      <trkpt lat="43.00854" lon="-1.13568167">
        <ele>859.0</ele>
        <time>2019-07-31T15:33:48.141Z</time>
      </trkpt>
      <trkpt lat="43.00854333" lon="-1.13569667">
        <ele>860.0</ele>
        <time>2019-07-31T15:33:49.146Z</time>
      </trkpt>
      <trkpt lat="43.00855" lon="-1.13571167">
        <ele>861.0</ele>
        <time>2019-07-31T15:33:50.151Z</time>
      </trkpt>
      <trkpt lat="43.00855833" lon="-1.13572833">
        <ele>862.0</ele>
        <time>2019-07-31T15:33:51.156Z</time>
      </trkpt>
      <trkpt lat="43.00856333" lon="-1.13574167">
        <ele>864.0</ele>
        <time>2019-07-31T15:33:52.161Z</time>
      </trkpt>
      <trkpt lat="43.00856667" lon="-1.13575167">
        <ele>864.0</ele>
        <time>2019-07-31T15:33:53.166Z</time>
      </trkpt>
      <trkpt lat="43.00856" lon="-1.13578167">
        <ele>865.0</ele>
        <time>2019-07-31T15:33:54.169Z</time>
      </trkpt>
      <trkpt lat="43.00856" lon="-1.13580167">
        <ele>865.0</ele>
        <time>2019-07-31T15:33:55.172Z</time>
      </trkpt>
      <trkpt lat="43.008555" lon="-1.135825">
        <ele>866.0</ele>
        <time>2019-07-31T15:33:56.176Z</time>
      </trkpt>
      <trkpt lat="43.00855167" lon="-1.13584667">
        <ele>867.0</ele>
        <time>2019-07-31T15:33:57.182Z</time>
      </trkpt>
      <trkpt lat="43.00855333" lon="-1.13586333">
        <ele>868.0</ele>
        <time>2019-07-31T15:33:58.185Z</time>
      </trkpt>
      <trkpt lat="43.008555" lon="-1.13588333">
        <ele>868.0</ele>
        <time>2019-07-31T15:33:59.063Z</time>
      </trkpt>
      <trkpt lat="43.00856" lon="-1.13590333">
        <ele>869.0</ele>
        <time>2019-07-31T15:34:00.069Z</time>
      </trkpt>
      <trkpt lat="43.00856" lon="-1.13593333">
        <ele>870.0</ele>
        <time>2019-07-31T15:34:01.074Z</time>
      </trkpt>
      <trkpt lat="43.00856" lon="-1.13596167">
        <ele>871.0</ele>
        <time>2019-07-31T15:34:02.080Z</time>
      </trkpt>
      <trkpt lat="43.00856167" lon="-1.135985">
        <ele>870.0</ele>
        <time>2019-07-31T15:34:03.084Z</time>
      </trkpt>
      <trkpt lat="43.00856333" lon="-1.13600167">
        <ele>871.0</ele>
        <time>2019-07-31T15:34:04.089Z</time>
      </trkpt>
      <trkpt lat="43.00856667" lon="-1.13601833">
        <ele>870.0</ele>
        <time>2019-07-31T15:34:05.095Z</time>
      </trkpt>
      <trkpt lat="43.00856667" lon="-1.13604167">
        <ele>870.0</ele>
        <time>2019-07-31T15:34:06.101Z</time>
      </trkpt>
      <trkpt lat="43.00856833" lon="-1.13606">
        <ele>871.0</ele>
        <time>2019-07-31T15:34:07.106Z</time>
      </trkpt>
      <trkpt lat="43.00856833" lon="-1.13608167">
        <ele>871.0</ele>
        <time>2019-07-31T15:34:08.113Z</time>
      </trkpt>
      <trkpt lat="43.008565" lon="-1.13610833">
        <ele>872.0</ele>
        <time>2019-07-31T15:34:09.118Z</time>
      </trkpt>
      <trkpt lat="43.00856833" lon="-1.13613667">
        <ele>872.0</ele>
        <time>2019-07-31T15:34:10.124Z</time>
      </trkpt>
      <trkpt lat="43.00856833" lon="-1.13616167">
        <ele>873.0</ele>
        <time>2019-07-31T15:34:11.127Z</time>
      </trkpt>
      <trkpt lat="43.00856667" lon="-1.13618167">
        <ele>873.0</ele>
        <time>2019-07-31T15:34:12.133Z</time>
      </trkpt>
      <trkpt lat="43.00856667" lon="-1.13619833">
        <ele>873.0</ele>
        <time>2019-07-31T15:34:13.138Z</time>
      </trkpt>
      <trkpt lat="43.00857667" lon="-1.13620833">
        <ele>874.0</ele>
        <time>2019-07-31T15:34:14.144Z</time>
      </trkpt>
      <trkpt lat="43.00857833" lon="-1.13623">
        <ele>874.0</ele>
        <time>2019-07-31T15:34:15.150Z</time>
      </trkpt>
      <trkpt lat="43.00858333" lon="-1.13625333">
        <ele>875.0</ele>
        <time>2019-07-31T15:34:16.156Z</time>
      </trkpt>
      <trkpt lat="43.00858833" lon="-1.13627667">
        <ele>874.0</ele>
        <time>2019-07-31T15:34:17.162Z</time>
      </trkpt>
      <trkpt lat="43.00860167" lon="-1.13629">
        <ele>874.0</ele>
        <time>2019-07-31T15:34:18.166Z</time>
      </trkpt>
      <trkpt lat="43.008615" lon="-1.13631">
        <ele>874.0</ele>
        <time>2019-07-31T15:34:19.170Z</time>
      </trkpt>
      <trkpt lat="43.00862333" lon="-1.13633167">
        <ele>873.0</ele>
        <time>2019-07-31T15:34:20.176Z</time>
      </trkpt>
      <trkpt lat="43.00863333" lon="-1.136345">
        <ele>873.0</ele>
        <time>2019-07-31T15:34:21.182Z</time>
      </trkpt>
      <trkpt lat="43.00863833" lon="-1.13637167">
        <ele>872.0</ele>
        <time>2019-07-31T15:34:22.061Z</time>
      </trkpt>
      <trkpt lat="43.00864833" lon="-1.13639">
        <ele>872.0</ele>
        <time>2019-07-31T15:34:23.067Z</time>
      </trkpt>
      <trkpt lat="43.00865667" lon="-1.13640833">
        <ele>871.0</ele>
        <time>2019-07-31T15:34:24.072Z</time>
      </trkpt>
      <trkpt lat="43.00866667" lon="-1.13642667">
        <ele>869.0</ele>
        <time>2019-07-31T15:34:25.076Z</time>
      </trkpt>
      <trkpt lat="43.00868167" lon="-1.13644167">
        <ele>868.0</ele>
        <time>2019-07-31T15:34:26.080Z</time>
      </trkpt>
      <trkpt lat="43.00869333" lon="-1.136455">
        <ele>867.0</ele>
        <time>2019-07-31T15:34:27.084Z</time>
      </trkpt>
      <trkpt lat="43.00870333" lon="-1.136465">
        <ele>866.0</ele>
        <time>2019-07-31T15:34:28.090Z</time>
      </trkpt>
      <trkpt lat="43.00871" lon="-1.13648">
        <ele>866.0</ele>
        <time>2019-07-31T15:34:29.096Z</time>
      </trkpt>
      <trkpt lat="43.00871667" lon="-1.13649667">
        <ele>866.0</ele>
        <time>2019-07-31T15:34:30.102Z</time>
      </trkpt>
      <trkpt lat="43.00872167" lon="-1.13651667">
        <ele>866.0</ele>
        <time>2019-07-31T15:34:31.108Z</time>
      </trkpt>
      <trkpt lat="43.008725" lon="-1.136535">
        <ele>867.0</ele>
        <time>2019-07-31T15:34:32.116Z</time>
      </trkpt>
      <trkpt lat="43.00873667" lon="-1.13655">
        <ele>867.0</ele>
        <time>2019-07-31T15:34:33.120Z</time>
      </trkpt>
      <trkpt lat="43.008745" lon="-1.13658">
        <ele>867.0</ele>
        <time>2019-07-31T15:34:34.125Z</time>
      </trkpt>
      <trkpt lat="43.00875333" lon="-1.13660667">
        <ele>867.0</ele>
        <time>2019-07-31T15:34:35.131Z</time>
      </trkpt>
      <trkpt lat="43.00875833" lon="-1.13663167">
        <ele>867.0</ele>
        <time>2019-07-31T15:34:36.137Z</time>
      </trkpt>
      <trkpt lat="43.00876167" lon="-1.13666">
        <ele>867.0</ele>
        <time>2019-07-31T15:34:37.142Z</time>
      </trkpt>
      <trkpt lat="43.00876333" lon="-1.13669667">
        <ele>867.0</ele>
        <time>2019-07-31T15:34:38.148Z</time>
      </trkpt>
      <trkpt lat="43.00876667" lon="-1.136725">
        <ele>866.0</ele>
        <time>2019-07-31T15:34:39.153Z</time>
      </trkpt>
      <trkpt lat="43.00876833" lon="-1.136745">
        <ele>866.0</ele>
        <time>2019-07-31T15:34:40.157Z</time>
      </trkpt>
      <trkpt lat="43.00877333" lon="-1.13675167">
        <ele>866.0</ele>
        <time>2019-07-31T15:34:41.163Z</time>
      </trkpt>
      <trkpt lat="43.008775" lon="-1.136765">
        <ele>865.0</ele>
        <time>2019-07-31T15:34:42.167Z</time>
      </trkpt>
      <trkpt lat="43.008785" lon="-1.13677167">
        <ele>866.0</ele>
        <time>2019-07-31T15:34:43.170Z</time>
      </trkpt>
      <trkpt lat="43.00879667" lon="-1.13677833">
        <ele>866.0</ele>
        <time>2019-07-31T15:34:44.176Z</time>
      </trkpt>
      <trkpt lat="43.00880667" lon="-1.13679">
        <ele>867.0</ele>
        <time>2019-07-31T15:34:45.183Z</time>
      </trkpt>
      <trkpt lat="43.00881167" lon="-1.1368">
        <ele>867.0</ele>
        <time>2019-07-31T15:34:46.064Z</time>
      </trkpt>
      <trkpt lat="43.008815" lon="-1.13681667">
        <ele>867.0</ele>
        <time>2019-07-31T15:34:47.069Z</time>
      </trkpt>
      <trkpt lat="43.00881667" lon="-1.13683333">
        <ele>867.0</ele>
        <time>2019-07-31T15:34:48.073Z</time>
      </trkpt>
      <trkpt lat="43.00882" lon="-1.13684833">
        <ele>867.0</ele>
        <time>2019-07-31T15:34:49.075Z</time>
      </trkpt>
      <trkpt lat="43.00882167" lon="-1.13686667">
        <ele>867.0</ele>
        <time>2019-07-31T15:34:50.082Z</time>
      </trkpt>
      <trkpt lat="43.008825" lon="-1.13688167">
        <ele>866.0</ele>
        <time>2019-07-31T15:34:51.087Z</time>
      </trkpt>
      <trkpt lat="43.00883" lon="-1.13689833">
        <ele>866.0</ele>
        <time>2019-07-31T15:34:52.093Z</time>
      </trkpt>
      <trkpt lat="43.008835" lon="-1.13691667">
        <ele>866.0</ele>
        <time>2019-07-31T15:34:53.099Z</time>
      </trkpt>
      <trkpt lat="43.00883667" lon="-1.13693">
        <ele>866.0</ele>
        <time>2019-07-31T15:34:54.106Z</time>
      </trkpt>
      <trkpt lat="43.00884167" lon="-1.136945">
        <ele>866.0</ele>
        <time>2019-07-31T15:34:55.110Z</time>
      </trkpt>
      <trkpt lat="43.008845" lon="-1.13696">
        <ele>866.0</ele>
        <time>2019-07-31T15:34:56.116Z</time>
      </trkpt>
      <trkpt lat="43.00884833" lon="-1.13697833">
        <ele>866.0</ele>
        <time>2019-07-31T15:34:57.121Z</time>
      </trkpt>
      <trkpt lat="43.00885167" lon="-1.13699833">
        <ele>866.0</ele>
        <time>2019-07-31T15:34:58.126Z</time>
      </trkpt>
      <trkpt lat="43.00885333" lon="-1.137015">
        <ele>866.0</ele>
        <time>2019-07-31T15:34:59.132Z</time>
      </trkpt>
      <trkpt lat="43.00885667" lon="-1.13703667">
        <ele>866.0</ele>
        <time>2019-07-31T15:35:00.138Z</time>
      </trkpt>
      <trkpt lat="43.00886167" lon="-1.137055">
        <ele>866.0</ele>
        <time>2019-07-31T15:35:01.143Z</time>
      </trkpt>
      <trkpt lat="43.00886333" lon="-1.13707167">
        <ele>866.0</ele>
        <time>2019-07-31T15:35:02.150Z</time>
      </trkpt>
      <trkpt lat="43.00886833" lon="-1.13708833">
        <ele>867.0</ele>
        <time>2019-07-31T15:35:03.158Z</time>
      </trkpt>
      <trkpt lat="43.00886333" lon="-1.13711">
        <ele>867.0</ele>
        <time>2019-07-31T15:35:04.164Z</time>
      </trkpt>
      <trkpt lat="43.00886167" lon="-1.13713">
        <ele>866.0</ele>
        <time>2019-07-31T15:35:05.169Z</time>
      </trkpt>
      <trkpt lat="43.00886167" lon="-1.13715667">
        <ele>866.0</ele>
        <time>2019-07-31T15:35:06.174Z</time>
      </trkpt>
      <trkpt lat="43.00886" lon="-1.13717667">
        <ele>866.0</ele>
        <time>2019-07-31T15:35:07.180Z</time>
      </trkpt>
      <trkpt lat="43.00886" lon="-1.13719833">
        <ele>867.0</ele>
        <time>2019-07-31T15:35:08.183Z</time>
      </trkpt>
      <trkpt lat="43.00885667" lon="-1.13721667">
        <ele>867.0</ele>
        <time>2019-07-31T15:35:09.062Z</time>
      </trkpt>
      <trkpt lat="43.00885833" lon="-1.13724167">
        <ele>867.0</ele>
        <time>2019-07-31T15:35:10.068Z</time>
      </trkpt>
      <trkpt lat="43.00886167" lon="-1.13726667">
        <ele>867.0</ele>
        <time>2019-07-31T15:35:11.075Z</time>
      </trkpt>
      <trkpt lat="43.00886667" lon="-1.13728833">
        <ele>867.0</ele>
        <time>2019-07-31T15:35:12.079Z</time>
      </trkpt>
      <trkpt lat="43.00887" lon="-1.13730833">
        <ele>866.0</ele>
        <time>2019-07-31T15:35:13.084Z</time>
      </trkpt>
      <trkpt lat="43.00887333" lon="-1.13733">
        <ele>866.0</ele>
        <time>2019-07-31T15:35:14.091Z</time>
      </trkpt>
      <trkpt lat="43.00887667" lon="-1.137355">
        <ele>865.0</ele>
        <time>2019-07-31T15:35:15.097Z</time>
      </trkpt>
      <trkpt lat="43.00887833" lon="-1.13737333">
        <ele>865.0</ele>
        <time>2019-07-31T15:35:16.104Z</time>
      </trkpt>
      <trkpt lat="43.00888333" lon="-1.137395">
        <ele>865.0</ele>
        <time>2019-07-31T15:35:17.105Z</time>
      </trkpt>
      <trkpt lat="43.00889333" lon="-1.13741333">
        <ele>865.0</ele>
        <time>2019-07-31T15:35:18.112Z</time>
      </trkpt>
      <trkpt lat="43.00890167" lon="-1.13744">
        <ele>865.0</ele>
        <time>2019-07-31T15:35:19.118Z</time>
      </trkpt>
      <trkpt lat="43.00890667" lon="-1.13746833">
        <ele>865.0</ele>
        <time>2019-07-31T15:35:20.123Z</time>
      </trkpt>
      <trkpt lat="43.00891" lon="-1.13749833">
        <ele>865.0</ele>
        <time>2019-07-31T15:35:21.125Z</time>
      </trkpt>
      <trkpt lat="43.00891" lon="-1.13752667">
        <ele>864.0</ele>
        <time>2019-07-31T15:35:22.130Z</time>
      </trkpt>
      <trkpt lat="43.00890833" lon="-1.13755333">
        <ele>864.0</ele>
        <time>2019-07-31T15:35:23.137Z</time>
      </trkpt>
      <trkpt lat="43.00891167" lon="-1.13758">
        <ele>864.0</ele>
        <time>2019-07-31T15:35:24.145Z</time>
      </trkpt>
      <trkpt lat="43.008915" lon="-1.137605">
        <ele>864.0</ele>
        <time>2019-07-31T15:35:25.151Z</time>
      </trkpt>
      <trkpt lat="43.008915" lon="-1.13762833">
        <ele>864.0</ele>
        <time>2019-07-31T15:35:26.157Z</time>
      </trkpt>
      <trkpt lat="43.00892333" lon="-1.13765333">
        <ele>865.0</ele>
        <time>2019-07-31T15:35:27.163Z</time>
      </trkpt>
      <trkpt lat="43.00893167" lon="-1.13767167">
        <ele>865.0</ele>
        <time>2019-07-31T15:35:28.168Z</time>
      </trkpt>
      <trkpt lat="43.00893167" lon="-1.13769667">
        <ele>866.0</ele>
        <time>2019-07-31T15:35:29.172Z</time>
      </trkpt>
      <trkpt lat="43.00893" lon="-1.13772333">
        <ele>866.0</ele>
        <time>2019-07-31T15:35:30.176Z</time>
      </trkpt>
      <trkpt lat="43.00893" lon="-1.13774167">
        <ele>866.0</ele>
        <time>2019-07-31T15:35:31.181Z</time>
      </trkpt>
      <trkpt lat="43.008935" lon="-1.13775333">
        <ele>865.0</ele>
        <time>2019-07-31T15:35:32.061Z</time>
      </trkpt>
      <trkpt lat="43.008935" lon="-1.13776667">
        <ele>865.0</ele>
        <time>2019-07-31T15:35:33.065Z</time>
      </trkpt>
      <trkpt lat="43.00893833" lon="-1.13778">
        <ele>865.0</ele>
        <time>2019-07-31T15:35:34.070Z</time>
      </trkpt>
      <trkpt lat="43.00894167" lon="-1.13778833">
        <ele>865.0</ele>
        <time>2019-07-31T15:35:35.076Z</time>
      </trkpt>
      <trkpt lat="43.00895" lon="-1.1378">
        <ele>864.0</ele>
        <time>2019-07-31T15:35:36.081Z</time>
      </trkpt>
      <trkpt lat="43.008955" lon="-1.137815">
        <ele>864.0</ele>
        <time>2019-07-31T15:35:37.086Z</time>
      </trkpt>
      <trkpt lat="43.00895833" lon="-1.13783167">
        <ele>864.0</ele>
        <time>2019-07-31T15:35:38.091Z</time>
      </trkpt>
      <trkpt lat="43.00896167" lon="-1.13785167">
        <ele>863.0</ele>
        <time>2019-07-31T15:35:39.093Z</time>
      </trkpt>
      <trkpt lat="43.00896667" lon="-1.13787">
        <ele>863.0</ele>
        <time>2019-07-31T15:35:40.098Z</time>
      </trkpt>
      <trkpt lat="43.00896833" lon="-1.137885">
        <ele>863.0</ele>
        <time>2019-07-31T15:35:41.102Z</time>
      </trkpt>
      <trkpt lat="43.008965" lon="-1.137905">
        <ele>863.0</ele>
        <time>2019-07-31T15:35:42.107Z</time>
      </trkpt>
      <trkpt lat="43.008965" lon="-1.13792167">
        <ele>862.0</ele>
        <time>2019-07-31T15:35:43.112Z</time>
      </trkpt>
      <trkpt lat="43.008965" lon="-1.137935">
        <ele>862.0</ele>
        <time>2019-07-31T15:35:44.117Z</time>
      </trkpt>
      <trkpt lat="43.008965" lon="-1.13794833">
        <ele>862.0</ele>
        <time>2019-07-31T15:35:45.123Z</time>
      </trkpt>
      <trkpt lat="43.00896667" lon="-1.13796167">
        <ele>862.0</ele>
        <time>2019-07-31T15:35:46.128Z</time>
      </trkpt>
      <trkpt lat="43.00897167" lon="-1.13797667">
        <ele>863.0</ele>
        <time>2019-07-31T15:35:47.132Z</time>
      </trkpt>
      <trkpt lat="43.008975" lon="-1.13799167">
        <ele>862.0</ele>
        <time>2019-07-31T15:35:48.136Z</time>
      </trkpt>
      <trkpt lat="43.008975" lon="-1.13800667">
        <ele>862.0</ele>
        <time>2019-07-31T15:35:49.141Z</time>
      </trkpt>
      <trkpt lat="43.008975" lon="-1.13802667">
        <ele>862.0</ele>
        <time>2019-07-31T15:35:50.147Z</time>
      </trkpt>
      <trkpt lat="43.008975" lon="-1.138045">
        <ele>862.0</ele>
        <time>2019-07-31T15:35:51.149Z</time>
      </trkpt>
      <trkpt lat="43.00897667" lon="-1.13806">
        <ele>862.0</ele>
        <time>2019-07-31T15:35:52.155Z</time>
      </trkpt>
      <trkpt lat="43.00897833" lon="-1.13808">
        <ele>862.0</ele>
        <time>2019-07-31T15:35:53.161Z</time>
      </trkpt>
      <trkpt lat="43.00898" lon="-1.1381">
        <ele>862.0</ele>
        <time>2019-07-31T15:35:54.168Z</time>
      </trkpt>
      <trkpt lat="43.00898333" lon="-1.13811333">
        <ele>862.0</ele>
        <time>2019-07-31T15:35:55.172Z</time>
      </trkpt>
      <trkpt lat="43.00898333" lon="-1.13812667">
        <ele>862.0</ele>
        <time>2019-07-31T15:35:56.177Z</time>
      </trkpt>
      <trkpt lat="43.00898667" lon="-1.138145">
        <ele>862.0</ele>
        <time>2019-07-31T15:35:57.183Z</time>
      </trkpt>
      <trkpt lat="43.00898667" lon="-1.13816667">
        <ele>862.0</ele>
        <time>2019-07-31T15:35:58.062Z</time>
      </trkpt>
      <trkpt lat="43.00899" lon="-1.13818833">
        <ele>863.0</ele>
        <time>2019-07-31T15:35:59.067Z</time>
      </trkpt>
      <trkpt lat="43.00898833" lon="-1.138215">
        <ele>864.0</ele>
        <time>2019-07-31T15:36:00.073Z</time>
      </trkpt>
      <trkpt lat="43.00899" lon="-1.138245">
        <ele>865.0</ele>
        <time>2019-07-31T15:36:01.080Z</time>
      </trkpt>
      <trkpt lat="43.00899333" lon="-1.13827167">
        <ele>866.0</ele>
        <time>2019-07-31T15:36:02.084Z</time>
      </trkpt>
      <trkpt lat="43.00899667" lon="-1.138295">
        <ele>866.0</ele>
        <time>2019-07-31T15:36:03.088Z</time>
      </trkpt>
      <trkpt lat="43.00900167" lon="-1.13832167">
        <ele>866.0</ele>
        <time>2019-07-31T15:36:04.094Z</time>
      </trkpt>
      <trkpt lat="43.00899833" lon="-1.13835333">
        <ele>866.0</ele>
        <time>2019-07-31T15:36:05.101Z</time>
      </trkpt>
      <trkpt lat="43.00899667" lon="-1.13838">
        <ele>867.0</ele>
        <time>2019-07-31T15:36:06.107Z</time>
      </trkpt>
      <trkpt lat="43.009" lon="-1.13840833">
        <ele>867.0</ele>
        <time>2019-07-31T15:36:07.113Z</time>
      </trkpt>
      <trkpt lat="43.009005" lon="-1.13843333">
        <ele>868.0</ele>
        <time>2019-07-31T15:36:08.117Z</time>
      </trkpt>
      <trkpt lat="43.00901333" lon="-1.13845833">
        <ele>868.0</ele>
        <time>2019-07-31T15:36:09.121Z</time>
      </trkpt>
      <trkpt lat="43.00902333" lon="-1.13847667">
        <ele>868.0</ele>
        <time>2019-07-31T15:36:10.126Z</time>
      </trkpt>
      <trkpt lat="43.00902167" lon="-1.13850333">
        <ele>867.0</ele>
        <time>2019-07-31T15:36:11.132Z</time>
      </trkpt>
      <trkpt lat="43.00902667" lon="-1.13852333">
        <ele>867.0</ele>
        <time>2019-07-31T15:36:12.136Z</time>
      </trkpt>
      <trkpt lat="43.00902667" lon="-1.13854667">
        <ele>867.0</ele>
        <time>2019-07-31T15:36:13.142Z</time>
      </trkpt>
      <trkpt lat="43.009035" lon="-1.13856167">
        <ele>868.0</ele>
        <time>2019-07-31T15:36:14.148Z</time>
      </trkpt>
      <trkpt lat="43.00903833" lon="-1.13857833">
        <ele>868.0</ele>
        <time>2019-07-31T15:36:15.153Z</time>
      </trkpt>
      <trkpt lat="43.00904" lon="-1.13860333">
        <ele>869.0</ele>
        <time>2019-07-31T15:36:16.161Z</time>
      </trkpt>
      <trkpt lat="43.00904333" lon="-1.138625">
        <ele>869.0</ele>
        <time>2019-07-31T15:36:17.167Z</time>
      </trkpt>
      <trkpt lat="43.00904833" lon="-1.13864833">
        <ele>869.0</ele>
        <time>2019-07-31T15:36:18.173Z</time>
      </trkpt>
      <trkpt lat="43.00905333" lon="-1.138675">
        <ele>870.0</ele>
        <time>2019-07-31T15:36:19.176Z</time>
      </trkpt>
      <trkpt lat="43.00906" lon="-1.13869667">
        <ele>871.0</ele>
        <time>2019-07-31T15:36:20.183Z</time>
      </trkpt>
      <trkpt lat="43.00906833" lon="-1.13871667">
        <ele>871.0</ele>
        <time>2019-07-31T15:36:21.063Z</time>
      </trkpt>
      <trkpt lat="43.009075" lon="-1.13874167">
        <ele>870.0</ele>
        <time>2019-07-31T15:36:22.066Z</time>
      </trkpt>
      <trkpt lat="43.00907833" lon="-1.13876333">
        <ele>869.0</ele>
        <time>2019-07-31T15:36:23.069Z</time>
      </trkpt>
      <trkpt lat="43.00908833" lon="-1.13878167">
        <ele>868.0</ele>
        <time>2019-07-31T15:36:24.074Z</time>
      </trkpt>
      <trkpt lat="43.00909167" lon="-1.13879833">
        <ele>868.0</ele>
        <time>2019-07-31T15:36:25.080Z</time>
      </trkpt>
      <trkpt lat="43.00909667" lon="-1.13881333">
        <ele>867.0</ele>
        <time>2019-07-31T15:36:26.087Z</time>
      </trkpt>
      <trkpt lat="43.00910167" lon="-1.13882833">
        <ele>866.0</ele>
        <time>2019-07-31T15:36:27.094Z</time>
      </trkpt>
      <trkpt lat="43.00910333" lon="-1.138845">
        <ele>866.0</ele>
        <time>2019-07-31T15:36:28.099Z</time>
      </trkpt>
      <trkpt lat="43.00911" lon="-1.13886167">
        <ele>866.0</ele>
        <time>2019-07-31T15:36:29.105Z</time>
      </trkpt>
      <trkpt lat="43.00911333" lon="-1.13888167">
        <ele>865.0</ele>
        <time>2019-07-31T15:36:30.111Z</time>
      </trkpt>
      <trkpt lat="43.00912167" lon="-1.13889833">
        <ele>865.0</ele>
        <time>2019-07-31T15:36:31.116Z</time>
      </trkpt>
      <trkpt lat="43.00912667" lon="-1.13891333">
        <ele>865.0</ele>
        <time>2019-07-31T15:36:32.122Z</time>
      </trkpt>
      <trkpt lat="43.00913" lon="-1.13893167">
        <ele>865.0</ele>
        <time>2019-07-31T15:36:33.125Z</time>
      </trkpt>
      <trkpt lat="43.009135" lon="-1.13894667">
        <ele>865.0</ele>
        <time>2019-07-31T15:36:34.130Z</time>
      </trkpt>
      <trkpt lat="43.00914333" lon="-1.13896833">
        <ele>865.0</ele>
        <time>2019-07-31T15:36:35.132Z</time>
      </trkpt>
      <trkpt lat="43.00915" lon="-1.138985">
        <ele>866.0</ele>
        <time>2019-07-31T15:36:36.137Z</time>
      </trkpt>
      <trkpt lat="43.00914833" lon="-1.13901">
        <ele>866.0</ele>
        <time>2019-07-31T15:36:37.145Z</time>
      </trkpt>
      <trkpt lat="43.00915167" lon="-1.13903">
        <ele>866.0</ele>
        <time>2019-07-31T15:36:38.152Z</time>
      </trkpt>
      <trkpt lat="43.009155" lon="-1.13904833">
        <ele>866.0</ele>
        <time>2019-07-31T15:36:39.157Z</time>
      </trkpt>
      <trkpt lat="43.00916333" lon="-1.139065">
        <ele>865.0</ele>
        <time>2019-07-31T15:36:40.163Z</time>
      </trkpt>
      <trkpt lat="43.00916667" lon="-1.13908333">
        <ele>864.0</ele>
        <time>2019-07-31T15:36:41.169Z</time>
      </trkpt>
      <trkpt lat="43.00917167" lon="-1.13910333">
        <ele>863.0</ele>
        <time>2019-07-31T15:36:42.174Z</time>
      </trkpt>
      <trkpt lat="43.00918333" lon="-1.13911667">
        <ele>862.0</ele>
        <time>2019-07-31T15:36:43.179Z</time>
      </trkpt>
      <trkpt lat="43.00918833" lon="-1.139135">
        <ele>861.0</ele>
        <time>2019-07-31T15:36:44.185Z</time>
      </trkpt>
      <trkpt lat="43.00919" lon="-1.13915833">
        <ele>861.0</ele>
        <time>2019-07-31T15:36:45.062Z</time>
      </trkpt>
      <trkpt lat="43.00919" lon="-1.13918333">
        <ele>862.0</ele>
        <time>2019-07-31T15:36:46.065Z</time>
      </trkpt>
      <trkpt lat="43.00919167" lon="-1.13919833">
        <ele>862.0</ele>
        <time>2019-07-31T15:36:47.071Z</time>
      </trkpt>
      <trkpt lat="43.00919667" lon="-1.13921333">
        <ele>861.0</ele>
        <time>2019-07-31T15:36:48.078Z</time>
      </trkpt>
      <trkpt lat="43.00920167" lon="-1.13923333">
        <ele>861.0</ele>
        <time>2019-07-31T15:36:49.081Z</time>
      </trkpt>
      <trkpt lat="43.00920667" lon="-1.13925167">
        <ele>861.0</ele>
        <time>2019-07-31T15:36:50.083Z</time>
      </trkpt>
      <trkpt lat="43.00921" lon="-1.13926667">
        <ele>861.0</ele>
        <time>2019-07-31T15:36:51.088Z</time>
      </trkpt>
      <trkpt lat="43.00921333" lon="-1.139275">
        <ele>859.0</ele>
        <time>2019-07-31T15:36:52.093Z</time>
      </trkpt>
      <trkpt lat="43.00921167" lon="-1.13929167">
        <ele>858.0</ele>
        <time>2019-07-31T15:36:53.098Z</time>
      </trkpt>
      <trkpt lat="43.00921333" lon="-1.13930667">
        <ele>857.0</ele>
        <time>2019-07-31T15:36:54.102Z</time>
      </trkpt>
      <trkpt lat="43.009215" lon="-1.13931833">
        <ele>857.0</ele>
        <time>2019-07-31T15:36:55.104Z</time>
      </trkpt>
      <trkpt lat="43.00921333" lon="-1.13933333">
        <ele>857.0</ele>
        <time>2019-07-31T15:36:56.108Z</time>
      </trkpt>
      <trkpt lat="43.00921333" lon="-1.13934833">
        <ele>857.0</ele>
        <time>2019-07-31T15:36:57.114Z</time>
      </trkpt>
      <trkpt lat="43.00921667" lon="-1.139365">
        <ele>857.0</ele>
        <time>2019-07-31T15:36:58.120Z</time>
      </trkpt>
      <trkpt lat="43.00922167" lon="-1.13937833">
        <ele>857.0</ele>
        <time>2019-07-31T15:36:59.124Z</time>
      </trkpt>
      <trkpt lat="43.00922167" lon="-1.13938833">
        <ele>857.0</ele>
        <time>2019-07-31T15:37:00.128Z</time>
      </trkpt>
      <trkpt lat="43.00922" lon="-1.139405">
        <ele>856.0</ele>
        <time>2019-07-31T15:37:01.129Z</time>
      </trkpt>
      <trkpt lat="43.00921833" lon="-1.13941833">
        <ele>856.0</ele>
        <time>2019-07-31T15:37:02.134Z</time>
      </trkpt>
      <trkpt lat="43.009215" lon="-1.13942833">
        <ele>856.0</ele>
        <time>2019-07-31T15:37:03.138Z</time>
      </trkpt>
      <trkpt lat="43.00921" lon="-1.13944">
        <ele>857.0</ele>
        <time>2019-07-31T15:37:04.144Z</time>
      </trkpt>
      <trkpt lat="43.00920167" lon="-1.13945167">
        <ele>859.0</ele>
        <time>2019-07-31T15:37:05.151Z</time>
      </trkpt>
      <trkpt lat="43.00919667" lon="-1.13946667">
        <ele>859.0</ele>
        <time>2019-07-31T15:37:06.158Z</time>
      </trkpt>
      <trkpt lat="43.00919" lon="-1.13948">
        <ele>859.0</ele>
        <time>2019-07-31T15:37:07.164Z</time>
      </trkpt>
      <trkpt lat="43.00918" lon="-1.13949">
        <ele>859.0</ele>
        <time>2019-07-31T15:37:08.170Z</time>
      </trkpt>
      <trkpt lat="43.00916667" lon="-1.13950167">
        <ele>859.0</ele>
        <time>2019-07-31T15:37:09.176Z</time>
      </trkpt>
      <trkpt lat="43.00915" lon="-1.13951333">
        <ele>859.0</ele>
        <time>2019-07-31T15:37:10.181Z</time>
      </trkpt>
      <trkpt lat="43.00913833" lon="-1.13952333">
        <ele>860.0</ele>
        <time>2019-07-31T15:37:11.186Z</time>
      </trkpt>
      <trkpt lat="43.00912833" lon="-1.13953">
        <ele>860.0</ele>
        <time>2019-07-31T15:37:12.064Z</time>
      </trkpt>
      <trkpt lat="43.00911667" lon="-1.139545">
        <ele>860.0</ele>
        <time>2019-07-31T15:37:13.067Z</time>
      </trkpt>
      <trkpt lat="43.00910667" lon="-1.13955667">
        <ele>860.0</ele>
        <time>2019-07-31T15:37:14.072Z</time>
      </trkpt>
      <trkpt lat="43.00909667" lon="-1.13956667">
        <ele>860.0</ele>
        <time>2019-07-31T15:37:15.077Z</time>
      </trkpt>
      <trkpt lat="43.00908667" lon="-1.13957667">
        <ele>860.0</ele>
        <time>2019-07-31T15:37:16.082Z</time>
      </trkpt>
      <trkpt lat="43.00907667" lon="-1.139585">
        <ele>860.0</ele>
        <time>2019-07-31T15:37:17.088Z</time>
      </trkpt>
      <trkpt lat="43.00906667" lon="-1.1396">
        <ele>860.0</ele>
        <time>2019-07-31T15:37:18.093Z</time>
      </trkpt>
      <trkpt lat="43.00905833" lon="-1.13961167">
        <ele>859.0</ele>
        <time>2019-07-31T15:37:19.100Z</time>
      </trkpt>
      <trkpt lat="43.00904833" lon="-1.13962167">
        <ele>859.0</ele>
        <time>2019-07-31T15:37:20.106Z</time>
      </trkpt>
      <trkpt lat="43.00904" lon="-1.13963167">
        <ele>859.0</ele>
        <time>2019-07-31T15:37:21.111Z</time>
      </trkpt>
      <trkpt lat="43.00903" lon="-1.139645">
        <ele>859.0</ele>
        <time>2019-07-31T15:37:22.115Z</time>
      </trkpt>
      <trkpt lat="43.00902167" lon="-1.13965667">
        <ele>860.0</ele>
        <time>2019-07-31T15:37:23.121Z</time>
      </trkpt>
      <trkpt lat="43.00901333" lon="-1.13966833">
        <ele>861.0</ele>
        <time>2019-07-31T15:37:24.125Z</time>
      </trkpt>
      <trkpt lat="43.00900333" lon="-1.13967833">
        <ele>861.0</ele>
        <time>2019-07-31T15:37:25.131Z</time>
      </trkpt>
      <trkpt lat="43.00899667" lon="-1.13968833">
        <ele>862.0</ele>
        <time>2019-07-31T15:37:26.136Z</time>
      </trkpt>
      <trkpt lat="43.00899167" lon="-1.13969667">
        <ele>862.0</ele>
        <time>2019-07-31T15:37:27.141Z</time>
      </trkpt>
      <trkpt lat="43.00898333" lon="-1.139705">
        <ele>862.0</ele>
        <time>2019-07-31T15:37:28.147Z</time>
      </trkpt>
      <trkpt lat="43.00897667" lon="-1.13971167">
        <ele>862.0</ele>
        <time>2019-07-31T15:37:29.153Z</time>
      </trkpt>
      <trkpt lat="43.00896833" lon="-1.13972">
        <ele>863.0</ele>
        <time>2019-07-31T15:37:30.161Z</time>
      </trkpt>
      <trkpt lat="43.00896" lon="-1.13972833">
        <ele>863.0</ele>
        <time>2019-07-31T15:37:31.165Z</time>
      </trkpt>
      <trkpt lat="43.00895" lon="-1.13974">
        <ele>864.0</ele>
        <time>2019-07-31T15:37:32.170Z</time>
      </trkpt>
      <trkpt lat="43.00894333" lon="-1.13975">
        <ele>864.0</ele>
        <time>2019-07-31T15:37:33.175Z</time>
      </trkpt>
      <trkpt lat="43.00893667" lon="-1.13976167">
        <ele>865.0</ele>
        <time>2019-07-31T15:37:34.180Z</time>
      </trkpt>
      <trkpt lat="43.00892833" lon="-1.13977167">
        <ele>865.0</ele>
        <time>2019-07-31T15:37:35.061Z</time>
      </trkpt>
      <trkpt lat="43.008915" lon="-1.13978667">
        <ele>866.0</ele>
        <time>2019-07-31T15:37:36.067Z</time>
      </trkpt>
      <trkpt lat="43.00890333" lon="-1.13979833">
        <ele>866.0</ele>
        <time>2019-07-31T15:37:37.072Z</time>
      </trkpt>
      <trkpt lat="43.00889667" lon="-1.13981167">
        <ele>866.0</ele>
        <time>2019-07-31T15:37:38.079Z</time>
      </trkpt>
      <trkpt lat="43.00888667" lon="-1.13982667">
        <ele>865.0</ele>
        <time>2019-07-31T15:37:39.084Z</time>
      </trkpt>
      <trkpt lat="43.00887833" lon="-1.13983833">
        <ele>864.0</ele>
        <time>2019-07-31T15:37:40.088Z</time>
      </trkpt>
      <trkpt lat="43.00886833" lon="-1.139845">
        <ele>864.0</ele>
        <time>2019-07-31T15:37:41.093Z</time>
      </trkpt>
      <trkpt lat="43.008855" lon="-1.13985">
        <ele>864.0</ele>
        <time>2019-07-31T15:37:42.100Z</time>
      </trkpt>
      <trkpt lat="43.00884333" lon="-1.13985833">
        <ele>865.0</ele>
        <time>2019-07-31T15:37:43.105Z</time>
      </trkpt>
      <trkpt lat="43.00883333" lon="-1.139865">
        <ele>864.0</ele>
        <time>2019-07-31T15:37:44.110Z</time>
      </trkpt>
      <trkpt lat="43.00882" lon="-1.13987167">
        <ele>864.0</ele>
        <time>2019-07-31T15:37:45.112Z</time>
      </trkpt>
      <trkpt lat="43.00880667" lon="-1.13988167">
        <ele>863.0</ele>
        <time>2019-07-31T15:37:46.117Z</time>
      </trkpt>
      <trkpt lat="43.00879667" lon="-1.13989167">
        <ele>863.0</ele>
        <time>2019-07-31T15:37:47.121Z</time>
      </trkpt>
      <trkpt lat="43.00878833" lon="-1.13990167">
        <ele>862.0</ele>
        <time>2019-07-31T15:37:48.125Z</time>
      </trkpt>
      <trkpt lat="43.00877833" lon="-1.13991">
        <ele>862.0</ele>
        <time>2019-07-31T15:37:49.131Z</time>
      </trkpt>
      <trkpt lat="43.008765" lon="-1.13992">
        <ele>863.0</ele>
        <time>2019-07-31T15:37:50.135Z</time>
      </trkpt>
      <trkpt lat="43.00875333" lon="-1.13992833">
        <ele>862.0</ele>
        <time>2019-07-31T15:37:51.139Z</time>
      </trkpt>
      <trkpt lat="43.00874167" lon="-1.13993333">
        <ele>862.0</ele>
        <time>2019-07-31T15:37:52.146Z</time>
      </trkpt>
      <trkpt lat="43.00873" lon="-1.13994167">
        <ele>862.0</ele>
        <time>2019-07-31T15:37:53.152Z</time>
      </trkpt>
      <trkpt lat="43.00871667" lon="-1.13994833">
        <ele>862.0</ele>
        <time>2019-07-31T15:37:54.158Z</time>
      </trkpt>
      <trkpt lat="43.00870333" lon="-1.13995667">
        <ele>861.0</ele>
        <time>2019-07-31T15:37:55.164Z</time>
      </trkpt>
      <trkpt lat="43.00868667" lon="-1.13997167">
        <ele>862.0</ele>
        <time>2019-07-31T15:37:56.168Z</time>
      </trkpt>
      <trkpt lat="43.00867167" lon="-1.13998333">
        <ele>862.0</ele>
        <time>2019-07-31T15:37:57.173Z</time>
      </trkpt>
      <trkpt lat="43.00866333" lon="-1.13999333">
        <ele>861.0</ele>
        <time>2019-07-31T15:37:58.177Z</time>
      </trkpt>
      <trkpt lat="43.008655" lon="-1.13999667">
        <ele>861.0</ele>
        <time>2019-07-31T15:37:59.184Z</time>
      </trkpt>
      <trkpt lat="43.00864167" lon="-1.140005">
        <ele>861.0</ele>
        <time>2019-07-31T15:38:00.063Z</time>
      </trkpt>
      <trkpt lat="43.00862833" lon="-1.14001333">
        <ele>862.0</ele>
        <time>2019-07-31T15:38:01.069Z</time>
      </trkpt>
      <trkpt lat="43.008615" lon="-1.140025">
        <ele>862.0</ele>
        <time>2019-07-31T15:38:02.074Z</time>
      </trkpt>
      <trkpt lat="43.00859833" lon="-1.14004167">
        <ele>862.0</ele>
        <time>2019-07-31T15:38:03.080Z</time>
      </trkpt>
      <trkpt lat="43.00858667" lon="-1.14005">
        <ele>862.0</ele>
        <time>2019-07-31T15:38:04.083Z</time>
      </trkpt>
      <trkpt lat="43.00858167" lon="-1.14005667">
        <ele>863.0</ele>
        <time>2019-07-31T15:38:05.087Z</time>
      </trkpt>
      <trkpt lat="43.008575" lon="-1.140065">
        <ele>863.0</ele>
        <time>2019-07-31T15:38:06.090Z</time>
      </trkpt>
      <trkpt lat="43.00856333" lon="-1.14006833">
        <ele>864.0</ele>
        <time>2019-07-31T15:38:07.094Z</time>
      </trkpt>
      <trkpt lat="43.00855" lon="-1.140065">
        <ele>864.0</ele>
        <time>2019-07-31T15:38:08.098Z</time>
      </trkpt>
      <trkpt lat="43.00853333" lon="-1.14006667">
        <ele>865.0</ele>
        <time>2019-07-31T15:38:09.104Z</time>
      </trkpt>
      <trkpt lat="43.00851667" lon="-1.14007333">
        <ele>865.0</ele>
        <time>2019-07-31T15:38:10.110Z</time>
      </trkpt>
      <trkpt lat="43.008505" lon="-1.14007833">
        <ele>865.0</ele>
        <time>2019-07-31T15:38:11.114Z</time>
      </trkpt>
      <trkpt lat="43.00849333" lon="-1.14008333">
        <ele>865.0</ele>
        <time>2019-07-31T15:38:12.120Z</time>
      </trkpt>
      <trkpt lat="43.00847667" lon="-1.14009667">
        <ele>865.0</ele>
        <time>2019-07-31T15:38:13.125Z</time>
      </trkpt>
      <trkpt lat="43.008465" lon="-1.14010333">
        <ele>866.0</ele>
        <time>2019-07-31T15:38:14.131Z</time>
      </trkpt>
      <trkpt lat="43.00845167" lon="-1.14010833">
        <ele>865.0</ele>
        <time>2019-07-31T15:38:15.136Z</time>
      </trkpt>
      <trkpt lat="43.00843833" lon="-1.14011333">
        <ele>865.0</ele>
        <time>2019-07-31T15:38:16.143Z</time>
      </trkpt>
      <trkpt lat="43.008425" lon="-1.14012333">
        <ele>865.0</ele>
        <time>2019-07-31T15:38:17.146Z</time>
      </trkpt>
      <trkpt lat="43.00841333" lon="-1.14014333">
        <ele>864.0</ele>
        <time>2019-07-31T15:38:18.150Z</time>
      </trkpt>
      <trkpt lat="43.00841" lon="-1.14015167">
        <ele>863.0</ele>
        <time>2019-07-31T15:38:19.157Z</time>
      </trkpt>
      <trkpt lat="43.00839667" lon="-1.14016333">
        <ele>862.0</ele>
        <time>2019-07-31T15:38:20.164Z</time>
      </trkpt>
      <trkpt lat="43.00839" lon="-1.14017">
        <ele>862.0</ele>
        <time>2019-07-31T15:38:21.168Z</time>
      </trkpt>
      <trkpt lat="43.00838667" lon="-1.14017333">
        <ele>861.0</ele>
        <time>2019-07-31T15:38:22.175Z</time>
      </trkpt>
      <trkpt lat="43.00837833" lon="-1.14017667">
        <ele>860.0</ele>
        <time>2019-07-31T15:38:23.180Z</time>
      </trkpt>
      <trkpt lat="43.00836833" lon="-1.14018333">
        <ele>859.0</ele>
        <time>2019-07-31T15:38:24.183Z</time>
      </trkpt>
      <trkpt lat="43.00835833" lon="-1.14018833">
        <ele>859.0</ele>
        <time>2019-07-31T15:38:25.062Z</time>
      </trkpt>
      <trkpt lat="43.00834833" lon="-1.140195">
        <ele>859.0</ele>
        <time>2019-07-31T15:38:26.066Z</time>
      </trkpt>
      <trkpt lat="43.00833667" lon="-1.14020167">
        <ele>859.0</ele>
        <time>2019-07-31T15:38:27.072Z</time>
      </trkpt>
      <trkpt lat="43.00832333" lon="-1.14020667">
        <ele>859.0</ele>
        <time>2019-07-31T15:38:28.077Z</time>
      </trkpt>
      <trkpt lat="43.00831333" lon="-1.140215">
        <ele>860.0</ele>
        <time>2019-07-31T15:38:29.082Z</time>
      </trkpt>
      <trkpt lat="43.00830333" lon="-1.14022167">
        <ele>860.0</ele>
        <time>2019-07-31T15:38:30.088Z</time>
      </trkpt>
      <trkpt lat="43.00829333" lon="-1.14022833">
        <ele>860.0</ele>
        <time>2019-07-31T15:38:31.094Z</time>
      </trkpt>
      <trkpt lat="43.00828333" lon="-1.14023667">
        <ele>860.0</ele>
        <time>2019-07-31T15:38:32.099Z</time>
      </trkpt>
      <trkpt lat="43.00827333" lon="-1.14024667">
        <ele>861.0</ele>
        <time>2019-07-31T15:38:33.105Z</time>
      </trkpt>
      <trkpt lat="43.00826" lon="-1.14025833">
        <ele>861.0</ele>
        <time>2019-07-31T15:38:34.111Z</time>
      </trkpt>
      <trkpt lat="43.00824833" lon="-1.14026667">
        <ele>861.0</ele>
        <time>2019-07-31T15:38:35.117Z</time>
      </trkpt>
      <trkpt lat="43.00823167" lon="-1.14027833">
        <ele>861.0</ele>
        <time>2019-07-31T15:38:36.121Z</time>
      </trkpt>
      <trkpt lat="43.00821667" lon="-1.14029">
        <ele>862.0</ele>
        <time>2019-07-31T15:38:37.126Z</time>
      </trkpt>
      <trkpt lat="43.00820333" lon="-1.14030167">
        <ele>862.0</ele>
        <time>2019-07-31T15:38:38.130Z</time>
      </trkpt>
      <trkpt lat="43.00818667" lon="-1.140315">
        <ele>862.0</ele>
        <time>2019-07-31T15:38:39.134Z</time>
      </trkpt>
      <trkpt lat="43.00816833" lon="-1.14033167">
        <ele>862.0</ele>
        <time>2019-07-31T15:38:40.141Z</time>
      </trkpt>
      <trkpt lat="43.00815" lon="-1.14034667">
        <ele>862.0</ele>
        <time>2019-07-31T15:38:41.147Z</time>
      </trkpt>
      <trkpt lat="43.008135" lon="-1.14036167">
        <ele>862.0</ele>
        <time>2019-07-31T15:38:42.153Z</time>
      </trkpt>
      <trkpt lat="43.00812167" lon="-1.14038333">
        <ele>862.0</ele>
        <time>2019-07-31T15:38:43.159Z</time>
      </trkpt>
      <trkpt lat="43.00811333" lon="-1.14039667">
        <ele>861.0</ele>
        <time>2019-07-31T15:38:44.165Z</time>
      </trkpt>
      <trkpt lat="43.00809833" lon="-1.14041333">
        <ele>861.0</ele>
        <time>2019-07-31T15:38:45.169Z</time>
      </trkpt>
      <trkpt lat="43.00808" lon="-1.14042667">
        <ele>861.0</ele>
        <time>2019-07-31T15:38:46.175Z</time>
      </trkpt>
      <trkpt lat="43.00807167" lon="-1.14044167">
        <ele>861.0</ele>
        <time>2019-07-31T15:38:47.182Z</time>
      </trkpt>
      <trkpt lat="43.00806667" lon="-1.14046">
        <ele>861.0</ele>
        <time>2019-07-31T15:38:48.061Z</time>
      </trkpt>
      <trkpt lat="43.00806167" lon="-1.14047667">
        <ele>860.0</ele>
        <time>2019-07-31T15:38:49.066Z</time>
      </trkpt>
      <trkpt lat="43.00804833" lon="-1.14050167">
        <ele>859.0</ele>
        <time>2019-07-31T15:38:50.073Z</time>
      </trkpt>
      <trkpt lat="43.00803667" lon="-1.140525">
        <ele>858.0</ele>
        <time>2019-07-31T15:38:51.078Z</time>
      </trkpt>
      <trkpt lat="43.00802667" lon="-1.14053833">
        <ele>857.0</ele>
        <time>2019-07-31T15:38:52.082Z</time>
      </trkpt>
      <trkpt lat="43.00801333" lon="-1.140555">
        <ele>857.0</ele>
        <time>2019-07-31T15:38:53.087Z</time>
      </trkpt>
      <trkpt lat="43.008" lon="-1.14056833">
        <ele>856.0</ele>
        <time>2019-07-31T15:38:54.094Z</time>
      </trkpt>
      <trkpt lat="43.00798333" lon="-1.14058333">
        <ele>856.0</ele>
        <time>2019-07-31T15:38:55.100Z</time>
      </trkpt>
      <trkpt lat="43.00796333" lon="-1.14058833">
        <ele>856.0</ele>
        <time>2019-07-31T15:38:56.107Z</time>
      </trkpt>
      <trkpt lat="43.00794667" lon="-1.14059667">
        <ele>855.0</ele>
        <time>2019-07-31T15:38:57.110Z</time>
      </trkpt>
      <trkpt lat="43.00793167" lon="-1.14061">
        <ele>854.0</ele>
        <time>2019-07-31T15:38:58.117Z</time>
      </trkpt>
      <trkpt lat="43.007925" lon="-1.14062833">
        <ele>852.0</ele>
        <time>2019-07-31T15:38:59.122Z</time>
      </trkpt>
      <trkpt lat="43.00791333" lon="-1.14065333">
        <ele>851.0</ele>
        <time>2019-07-31T15:39:00.125Z</time>
      </trkpt>
      <trkpt lat="43.007905" lon="-1.14065833">
        <ele>849.0</ele>
        <time>2019-07-31T15:39:01.129Z</time>
      </trkpt>
      <trkpt lat="43.0079" lon="-1.14067667">
        <ele>847.0</ele>
        <time>2019-07-31T15:39:02.135Z</time>
      </trkpt>
      <trkpt lat="43.00789167" lon="-1.14069667">
        <ele>846.0</ele>
        <time>2019-07-31T15:39:03.140Z</time>
      </trkpt>
      <trkpt lat="43.007885" lon="-1.14071333">
        <ele>845.0</ele>
        <time>2019-07-31T15:39:04.145Z</time>
      </trkpt>
      <trkpt lat="43.007875" lon="-1.14073167">
        <ele>845.0</ele>
        <time>2019-07-31T15:39:05.151Z</time>
      </trkpt>
      <trkpt lat="43.00786333" lon="-1.14073833">
        <ele>844.0</ele>
        <time>2019-07-31T15:39:06.156Z</time>
      </trkpt>
      <trkpt lat="43.007855" lon="-1.14074167">
        <ele>843.0</ele>
        <time>2019-07-31T15:39:07.162Z</time>
      </trkpt>
      <trkpt lat="43.00784" lon="-1.14075167">
        <ele>843.0</ele>
        <time>2019-07-31T15:39:08.168Z</time>
      </trkpt>
      <trkpt lat="43.00783" lon="-1.14075167">
        <ele>843.0</ele>
        <time>2019-07-31T15:39:09.171Z</time>
      </trkpt>
      <trkpt lat="43.00781833" lon="-1.14075167">
        <ele>843.0</ele>
        <time>2019-07-31T15:39:10.177Z</time>
      </trkpt>
      <trkpt lat="43.00780667" lon="-1.14076167">
        <ele>843.0</ele>
        <time>2019-07-31T15:39:11.182Z</time>
      </trkpt>
      <trkpt lat="43.00780167" lon="-1.14077167">
        <ele>844.0</ele>
        <time>2019-07-31T15:39:12.061Z</time>
      </trkpt>
      <trkpt lat="43.007795" lon="-1.14078333">
        <ele>844.0</ele>
        <time>2019-07-31T15:39:13.067Z</time>
      </trkpt>
      <trkpt lat="43.00778" lon="-1.14079167">
        <ele>844.0</ele>
        <time>2019-07-31T15:39:14.074Z</time>
      </trkpt>
      <trkpt lat="43.00776667" lon="-1.14080667">
        <ele>844.0</ele>
        <time>2019-07-31T15:39:15.082Z</time>
      </trkpt>
      <trkpt lat="43.00774833" lon="-1.14082">
        <ele>844.0</ele>
        <time>2019-07-31T15:39:16.086Z</time>
      </trkpt>
      <trkpt lat="43.00773333" lon="-1.14083333">
        <ele>843.0</ele>
        <time>2019-07-31T15:39:17.092Z</time>
      </trkpt>
      <trkpt lat="43.007715" lon="-1.14085167">
        <ele>844.0</ele>
        <time>2019-07-31T15:39:18.097Z</time>
      </trkpt>
      <trkpt lat="43.00769833" lon="-1.140865">
        <ele>845.0</ele>
        <time>2019-07-31T15:39:19.100Z</time>
      </trkpt>
      <trkpt lat="43.00768167" lon="-1.14087667">
        <ele>846.0</ele>
        <time>2019-07-31T15:39:20.103Z</time>
      </trkpt>
      <trkpt lat="43.00767333" lon="-1.14089167">
        <ele>846.0</ele>
        <time>2019-07-31T15:39:21.109Z</time>
      </trkpt>
      <trkpt lat="43.00766" lon="-1.14090667">
        <ele>846.0</ele>
        <time>2019-07-31T15:39:22.115Z</time>
      </trkpt>
      <trkpt lat="43.00765333" lon="-1.140915">
        <ele>846.0</ele>
        <time>2019-07-31T15:39:23.120Z</time>
      </trkpt>
      <trkpt lat="43.00764667" lon="-1.14093333">
        <ele>846.0</ele>
        <time>2019-07-31T15:39:24.125Z</time>
      </trkpt>
      <trkpt lat="43.00764333" lon="-1.14094667">
        <ele>846.0</ele>
        <time>2019-07-31T15:39:25.129Z</time>
      </trkpt>
      <trkpt lat="43.00763667" lon="-1.14096333">
        <ele>846.0</ele>
        <time>2019-07-31T15:39:26.133Z</time>
      </trkpt>
      <trkpt lat="43.007625" lon="-1.14097667">
        <ele>846.0</ele>
        <time>2019-07-31T15:39:27.139Z</time>
      </trkpt>
      <trkpt lat="43.00761667" lon="-1.14099667">
        <ele>846.0</ele>
        <time>2019-07-31T15:39:28.144Z</time>
      </trkpt>
      <trkpt lat="43.00760667" lon="-1.14101333">
        <ele>846.0</ele>
        <time>2019-07-31T15:39:29.149Z</time>
      </trkpt>
      <trkpt lat="43.007595" lon="-1.141025">
        <ele>846.0</ele>
        <time>2019-07-31T15:39:30.153Z</time>
      </trkpt>
      <trkpt lat="43.00758833" lon="-1.141035">
        <ele>845.0</ele>
        <time>2019-07-31T15:39:31.156Z</time>
      </trkpt>
      <trkpt lat="43.00758" lon="-1.14104667">
        <ele>844.0</ele>
        <time>2019-07-31T15:39:32.161Z</time>
      </trkpt>
      <trkpt lat="43.00757" lon="-1.14106167">
        <ele>844.0</ele>
        <time>2019-07-31T15:39:33.167Z</time>
      </trkpt>
      <trkpt lat="43.00756" lon="-1.14107333">
        <ele>844.0</ele>
        <time>2019-07-31T15:39:34.172Z</time>
      </trkpt>
      <trkpt lat="43.00755333" lon="-1.14108167">
        <ele>843.0</ele>
        <time>2019-07-31T15:39:35.176Z</time>
      </trkpt>
      <trkpt lat="43.00754667" lon="-1.14109">
        <ele>843.0</ele>
        <time>2019-07-31T15:39:36.180Z</time>
      </trkpt>
      <trkpt lat="43.00754" lon="-1.141095">
        <ele>844.0</ele>
        <time>2019-07-31T15:39:37.186Z</time>
      </trkpt>
      <trkpt lat="43.00753167" lon="-1.14110167">
        <ele>844.0</ele>
        <time>2019-07-31T15:39:38.067Z</time>
      </trkpt>
      <trkpt lat="43.00752167" lon="-1.14111333">
        <ele>844.0</ele>
        <time>2019-07-31T15:39:39.070Z</time>
      </trkpt>
      <trkpt lat="43.00750833" lon="-1.14112333">
        <ele>844.0</ele>
        <time>2019-07-31T15:39:40.076Z</time>
      </trkpt>
      <trkpt lat="43.00749667" lon="-1.141135">
        <ele>844.0</ele>
        <time>2019-07-31T15:39:41.080Z</time>
      </trkpt>
      <trkpt lat="43.007485" lon="-1.14115167">
        <ele>845.0</ele>
        <time>2019-07-31T15:39:42.084Z</time>
      </trkpt>
      <trkpt lat="43.007475" lon="-1.14116833">
        <ele>845.0</ele>
        <time>2019-07-31T15:39:43.087Z</time>
      </trkpt>
      <trkpt lat="43.00746333" lon="-1.14118">
        <ele>845.0</ele>
        <time>2019-07-31T15:39:44.093Z</time>
      </trkpt>
      <trkpt lat="43.00745333" lon="-1.14118833">
        <ele>846.0</ele>
        <time>2019-07-31T15:39:45.100Z</time>
      </trkpt>
      <trkpt lat="43.00744167" lon="-1.14119333">
        <ele>845.0</ele>
        <time>2019-07-31T15:39:46.107Z</time>
      </trkpt>
      <trkpt lat="43.00743" lon="-1.14120167">
        <ele>846.0</ele>
        <time>2019-07-31T15:39:47.112Z</time>
      </trkpt>
      <trkpt lat="43.00742167" lon="-1.14120833">
        <ele>845.0</ele>
        <time>2019-07-31T15:39:48.118Z</time>
      </trkpt>
      <trkpt lat="43.007415" lon="-1.141215">
        <ele>845.0</ele>
        <time>2019-07-31T15:39:49.122Z</time>
      </trkpt>
      <trkpt lat="43.00740667" lon="-1.14122167">
        <ele>846.0</ele>
        <time>2019-07-31T15:39:50.125Z</time>
      </trkpt>
      <trkpt lat="43.00739167" lon="-1.14123">
        <ele>845.0</ele>
        <time>2019-07-31T15:39:51.131Z</time>
      </trkpt>
      <trkpt lat="43.00737833" lon="-1.14124">
        <ele>845.0</ele>
        <time>2019-07-31T15:39:52.137Z</time>
      </trkpt>
      <trkpt lat="43.00736833" lon="-1.14124667">
        <ele>845.0</ele>
        <time>2019-07-31T15:39:53.143Z</time>
      </trkpt>
      <trkpt lat="43.00735333" lon="-1.14126">
        <ele>845.0</ele>
        <time>2019-07-31T15:39:54.148Z</time>
      </trkpt>
      <trkpt lat="43.00734333" lon="-1.14126667">
        <ele>844.0</ele>
        <time>2019-07-31T15:39:55.155Z</time>
      </trkpt>
      <trkpt lat="43.00733333" lon="-1.14127333">
        <ele>844.0</ele>
        <time>2019-07-31T15:39:56.160Z</time>
      </trkpt>
      <trkpt lat="43.00731833" lon="-1.14128833">
        <ele>844.0</ele>
        <time>2019-07-31T15:39:57.166Z</time>
      </trkpt>
      <trkpt lat="43.00730333" lon="-1.1413">
        <ele>844.0</ele>
        <time>2019-07-31T15:39:58.167Z</time>
      </trkpt>
      <trkpt lat="43.00729167" lon="-1.141305">
        <ele>844.0</ele>
        <time>2019-07-31T15:39:59.174Z</time>
      </trkpt>
      <trkpt lat="43.00728167" lon="-1.14130833">
        <ele>844.0</ele>
        <time>2019-07-31T15:40:00.178Z</time>
      </trkpt>
      <trkpt lat="43.00727" lon="-1.14131">
        <ele>843.0</ele>
        <time>2019-07-31T15:40:01.183Z</time>
      </trkpt>
      <trkpt lat="43.00726" lon="-1.141315">
        <ele>842.0</ele>
        <time>2019-07-31T15:40:02.062Z</time>
      </trkpt>
      <trkpt lat="43.00725" lon="-1.14131833">
        <ele>843.0</ele>
        <time>2019-07-31T15:40:03.068Z</time>
      </trkpt>
      <trkpt lat="43.00724167" lon="-1.14132333">
        <ele>843.0</ele>
        <time>2019-07-31T15:40:04.072Z</time>
      </trkpt>
      <trkpt lat="43.00723167" lon="-1.14133">
        <ele>843.0</ele>
        <time>2019-07-31T15:40:05.078Z</time>
      </trkpt>
      <trkpt lat="43.00721833" lon="-1.14133333">
        <ele>844.0</ele>
        <time>2019-07-31T15:40:06.083Z</time>
      </trkpt>
      <trkpt lat="43.00720833" lon="-1.14133833">
        <ele>845.0</ele>
        <time>2019-07-31T15:40:07.087Z</time>
      </trkpt>
      <trkpt lat="43.00719833" lon="-1.141345">
        <ele>846.0</ele>
        <time>2019-07-31T15:40:08.093Z</time>
      </trkpt>
      <trkpt lat="43.00719" lon="-1.14135">
        <ele>847.0</ele>
        <time>2019-07-31T15:40:09.099Z</time>
      </trkpt>
      <trkpt lat="43.00718" lon="-1.141355">
        <ele>848.0</ele>
        <time>2019-07-31T15:40:10.102Z</time>
      </trkpt>
      <trkpt lat="43.00717" lon="-1.14135833">
        <ele>848.0</ele>
        <time>2019-07-31T15:40:11.107Z</time>
      </trkpt>
      <trkpt lat="43.00716" lon="-1.141365">
        <ele>848.0</ele>
        <time>2019-07-31T15:40:12.112Z</time>
      </trkpt>
      <trkpt lat="43.00715333" lon="-1.14137167">
        <ele>848.0</ele>
        <time>2019-07-31T15:40:13.116Z</time>
      </trkpt>
      <trkpt lat="43.00714333" lon="-1.141375">
        <ele>848.0</ele>
        <time>2019-07-31T15:40:14.121Z</time>
      </trkpt>
      <trkpt lat="43.00713" lon="-1.14137833">
        <ele>847.0</ele>
        <time>2019-07-31T15:40:15.127Z</time>
      </trkpt>
      <trkpt lat="43.00712" lon="-1.141375">
        <ele>847.0</ele>
        <time>2019-07-31T15:40:16.133Z</time>
      </trkpt>
      <trkpt lat="43.00711167" lon="-1.14136833">
        <ele>847.0</ele>
        <time>2019-07-31T15:40:17.139Z</time>
      </trkpt>
      <trkpt lat="43.00710333" lon="-1.14136167">
        <ele>846.0</ele>
        <time>2019-07-31T15:40:18.145Z</time>
      </trkpt>
      <trkpt lat="43.007095" lon="-1.14136">
        <ele>845.0</ele>
        <time>2019-07-31T15:40:19.149Z</time>
      </trkpt>
      <trkpt lat="43.007085" lon="-1.14136">
        <ele>844.0</ele>
        <time>2019-07-31T15:40:20.153Z</time>
      </trkpt>
      <trkpt lat="43.00707333" lon="-1.14136167">
        <ele>844.0</ele>
        <time>2019-07-31T15:40:21.156Z</time>
      </trkpt>
      <trkpt lat="43.007065" lon="-1.14136">
        <ele>842.0</ele>
        <time>2019-07-31T15:40:22.163Z</time>
      </trkpt>
      <trkpt lat="43.00705333" lon="-1.14136167">
        <ele>841.0</ele>
        <time>2019-07-31T15:40:23.167Z</time>
      </trkpt>
      <trkpt lat="43.00703667" lon="-1.14136667">
        <ele>841.0</ele>
        <time>2019-07-31T15:40:24.174Z</time>
      </trkpt>
      <trkpt lat="43.00702167" lon="-1.14137333">
        <ele>840.0</ele>
        <time>2019-07-31T15:40:25.178Z</time>
      </trkpt>
      <trkpt lat="43.00701" lon="-1.14137667">
        <ele>840.0</ele>
        <time>2019-07-31T15:40:26.183Z</time>
      </trkpt>
      <trkpt lat="43.00699667" lon="-1.14138667">
        <ele>839.0</ele>
        <time>2019-07-31T15:40:27.063Z</time>
      </trkpt>
      <trkpt lat="43.00698167" lon="-1.1414">
        <ele>838.0</ele>
        <time>2019-07-31T15:40:28.069Z</time>
      </trkpt>
      <trkpt lat="43.00697167" lon="-1.14141167">
        <ele>837.0</ele>
        <time>2019-07-31T15:40:29.075Z</time>
      </trkpt>
      <trkpt lat="43.00696667" lon="-1.14141833">
        <ele>834.0</ele>
        <time>2019-07-31T15:40:30.078Z</time>
      </trkpt>
      <trkpt lat="43.00696167" lon="-1.14142167">
        <ele>833.0</ele>
        <time>2019-07-31T15:40:31.082Z</time>
      </trkpt>
      <trkpt lat="43.00695333" lon="-1.14142667">
        <ele>831.0</ele>
        <time>2019-07-31T15:40:32.086Z</time>
      </trkpt>
      <trkpt lat="43.00694167" lon="-1.14143833">
        <ele>831.0</ele>
        <time>2019-07-31T15:40:33.091Z</time>
      </trkpt>
      <trkpt lat="43.00692833" lon="-1.14145">
        <ele>831.0</ele>
        <time>2019-07-31T15:40:34.097Z</time>
      </trkpt>
      <trkpt lat="43.00691833" lon="-1.14147">
        <ele>831.0</ele>
        <time>2019-07-31T15:40:35.103Z</time>
      </trkpt>
      <trkpt lat="43.00690667" lon="-1.14149167">
        <ele>831.0</ele>
        <time>2019-07-31T15:40:36.108Z</time>
      </trkpt>
      <trkpt lat="43.00690833" lon="-1.141505">
        <ele>830.0</ele>
        <time>2019-07-31T15:40:37.115Z</time>
      </trkpt>
      <trkpt lat="43.006915" lon="-1.141525">
        <ele>829.0</ele>
        <time>2019-07-31T15:40:38.122Z</time>
      </trkpt>
      <trkpt lat="43.00692333" lon="-1.141545">
        <ele>830.0</ele>
        <time>2019-07-31T15:40:39.126Z</time>
      </trkpt>
      <trkpt lat="43.00693333" lon="-1.14156167">
        <ele>831.0</ele>
        <time>2019-07-31T15:40:40.130Z</time>
      </trkpt>
      <trkpt lat="43.00695" lon="-1.14157167">
        <ele>832.0</ele>
        <time>2019-07-31T15:40:41.135Z</time>
      </trkpt>
      <trkpt lat="43.006965" lon="-1.14158">
        <ele>832.0</ele>
        <time>2019-07-31T15:40:42.140Z</time>
      </trkpt>
      <trkpt lat="43.00697333" lon="-1.14159333">
        <ele>832.0</ele>
        <time>2019-07-31T15:40:43.145Z</time>
      </trkpt>
      <trkpt lat="43.00697833" lon="-1.14160167">
        <ele>832.0</ele>
        <time>2019-07-31T15:40:44.150Z</time>
      </trkpt>
      <trkpt lat="43.00699" lon="-1.14160667">
        <ele>832.0</ele>
        <time>2019-07-31T15:40:45.156Z</time>
      </trkpt>
      <trkpt lat="43.00700333" lon="-1.14161333">
        <ele>832.0</ele>
        <time>2019-07-31T15:40:46.163Z</time>
      </trkpt>
      <trkpt lat="43.00701333" lon="-1.141625">
        <ele>832.0</ele>
        <time>2019-07-31T15:40:47.169Z</time>
      </trkpt>
      <trkpt lat="43.00701667" lon="-1.141645">
        <ele>832.0</ele>
        <time>2019-07-31T15:40:48.175Z</time>
      </trkpt>
      <trkpt lat="43.00701833" lon="-1.14166667">
        <ele>832.0</ele>
        <time>2019-07-31T15:40:49.181Z</time>
      </trkpt>
      <trkpt lat="43.00702167" lon="-1.14168667">
        <ele>832.0</ele>
        <time>2019-07-31T15:40:50.061Z</time>
      </trkpt>
      <trkpt lat="43.00703167" lon="-1.14169667">
        <ele>832.0</ele>
        <time>2019-07-31T15:40:51.067Z</time>
      </trkpt>
      <trkpt lat="43.00704167" lon="-1.14170833">
        <ele>831.0</ele>
        <time>2019-07-31T15:40:52.072Z</time>
      </trkpt>
      <trkpt lat="43.00705167" lon="-1.141715">
        <ele>831.0</ele>
        <time>2019-07-31T15:40:53.078Z</time>
      </trkpt>
      <trkpt lat="43.00706667" lon="-1.14172333">
        <ele>832.0</ele>
        <time>2019-07-31T15:40:54.082Z</time>
      </trkpt>
      <trkpt lat="43.00707667" lon="-1.14173">
        <ele>833.0</ele>
        <time>2019-07-31T15:40:55.084Z</time>
      </trkpt>
      <trkpt lat="43.00708667" lon="-1.14174">
        <ele>833.0</ele>
        <time>2019-07-31T15:40:56.087Z</time>
      </trkpt>
      <trkpt lat="43.0071" lon="-1.14174333">
        <ele>832.0</ele>
        <time>2019-07-31T15:40:57.093Z</time>
      </trkpt>
      <trkpt lat="43.00710833" lon="-1.14174667">
        <ele>832.0</ele>
        <time>2019-07-31T15:40:58.099Z</time>
      </trkpt>
      <trkpt lat="43.00711333" lon="-1.14174833">
        <ele>830.0</ele>
        <time>2019-07-31T15:40:59.105Z</time>
      </trkpt>
      <trkpt lat="43.007125" lon="-1.14174667">
        <ele>830.0</ele>
        <time>2019-07-31T15:41:00.111Z</time>
      </trkpt>
      <trkpt lat="43.00713833" lon="-1.141745">
        <ele>830.0</ele>
        <time>2019-07-31T15:41:01.118Z</time>
      </trkpt>
      <trkpt lat="43.00715167" lon="-1.14174167">
        <ele>830.0</ele>
        <time>2019-07-31T15:41:02.123Z</time>
      </trkpt>
      <trkpt lat="43.00716" lon="-1.14173833">
        <ele>831.0</ele>
        <time>2019-07-31T15:41:03.128Z</time>
      </trkpt>
      <trkpt lat="43.00716833" lon="-1.14173333">
        <ele>830.0</ele>
        <time>2019-07-31T15:41:04.131Z</time>
      </trkpt>
      <trkpt lat="43.00717667" lon="-1.14173">
        <ele>830.0</ele>
        <time>2019-07-31T15:41:05.135Z</time>
      </trkpt>
      <trkpt lat="43.00718" lon="-1.14173167">
        <ele>830.0</ele>
        <time>2019-07-31T15:41:06.140Z</time>
      </trkpt>
      <trkpt lat="43.00718667" lon="-1.14173333">
        <ele>831.0</ele>
        <time>2019-07-31T15:41:07.147Z</time>
      </trkpt>
      <trkpt lat="43.00718667" lon="-1.14174">
        <ele>831.0</ele>
        <time>2019-07-31T15:41:08.153Z</time>
      </trkpt>
      <trkpt lat="43.007185" lon="-1.14174833">
        <ele>831.0</ele>
        <time>2019-07-31T15:41:09.160Z</time>
      </trkpt>
      <trkpt lat="43.00718333" lon="-1.14175833">
        <ele>832.0</ele>
        <time>2019-07-31T15:41:10.167Z</time>
      </trkpt>
      <trkpt lat="43.007185" lon="-1.14176333">
        <ele>832.0</ele>
        <time>2019-07-31T15:41:11.172Z</time>
      </trkpt>
      <trkpt lat="43.007185" lon="-1.14177">
        <ele>832.0</ele>
        <time>2019-07-31T15:41:12.177Z</time>
      </trkpt>
      <trkpt lat="43.00718333" lon="-1.14177333">
        <ele>832.0</ele>
        <time>2019-07-31T15:41:13.182Z</time>
      </trkpt>
      <trkpt lat="43.00718167" lon="-1.14177">
        <ele>831.0</ele>
        <time>2019-07-31T15:41:14.061Z</time>
      </trkpt>
      <trkpt lat="43.00717833" lon="-1.14176333">
        <ele>831.0</ele>
        <time>2019-07-31T15:41:15.067Z</time>
      </trkpt>
      <trkpt lat="43.00717833" lon="-1.141755">
        <ele>832.0</ele>
        <time>2019-07-31T15:41:16.072Z</time>
      </trkpt>
      <trkpt lat="43.007175" lon="-1.14175333">
        <ele>831.0</ele>
        <time>2019-07-31T15:41:17.076Z</time>
      </trkpt>
      <trkpt lat="43.00717167" lon="-1.14175">
        <ele>831.0</ele>
        <time>2019-07-31T15:41:18.082Z</time>
      </trkpt>
      <trkpt lat="43.00717167" lon="-1.14174333">
        <ele>830.0</ele>
        <time>2019-07-31T15:41:19.087Z</time>
      </trkpt>
      <trkpt lat="43.00717333" lon="-1.14174">
        <ele>828.0</ele>
        <time>2019-07-31T15:41:20.092Z</time>
      </trkpt>
      <trkpt lat="43.00717667" lon="-1.141735">
        <ele>827.0</ele>
        <time>2019-07-31T15:41:21.099Z</time>
      </trkpt>
      <trkpt lat="43.00717833" lon="-1.14173333">
        <ele>826.0</ele>
        <time>2019-07-31T15:41:22.105Z</time>
      </trkpt>
      <trkpt lat="43.00718" lon="-1.14172667">
        <ele>825.0</ele>
        <time>2019-07-31T15:41:23.109Z</time>
      </trkpt>
      <trkpt lat="43.00718" lon="-1.14172">
        <ele>824.0</ele>
        <time>2019-07-31T15:41:24.114Z</time>
      </trkpt>
      <trkpt lat="43.00717833" lon="-1.14171333">
        <ele>824.0</ele>
        <time>2019-07-31T15:41:25.121Z</time>
      </trkpt>
      <trkpt lat="43.00717833" lon="-1.14171333">
        <ele>824.0</ele>
        <time>2019-07-31T15:41:26.126Z</time>
      </trkpt>
      <trkpt lat="43.00717667" lon="-1.14171667">
        <ele>823.0</ele>
        <time>2019-07-31T15:41:27.132Z</time>
      </trkpt>
      <trkpt lat="43.00717167" lon="-1.14172333">
        <ele>822.0</ele>
        <time>2019-07-31T15:41:28.136Z</time>
      </trkpt>
      <trkpt lat="43.007175" lon="-1.14172333">
        <ele>821.0</ele>
        <time>2019-07-31T15:41:29.142Z</time>
      </trkpt>
      <trkpt lat="43.00717333" lon="-1.14172667">
        <ele>821.0</ele>
        <time>2019-07-31T15:41:30.149Z</time>
      </trkpt>
      <trkpt lat="43.00717333" lon="-1.14172667">
        <ele>821.0</ele>
        <time>2019-07-31T15:41:31.155Z</time>
      </trkpt>
      <trkpt lat="43.00717167" lon="-1.141725">
        <ele>821.0</ele>
        <time>2019-07-31T15:41:32.161Z</time>
      </trkpt>
      <trkpt lat="43.00717" lon="-1.14172333">
        <ele>822.0</ele>
        <time>2019-07-31T15:41:33.165Z</time>
      </trkpt>
      <trkpt lat="43.00717167" lon="-1.14172167">
        <ele>822.0</ele>
        <time>2019-07-31T15:41:34.169Z</time>
      </trkpt>
      <trkpt lat="43.00717" lon="-1.14172">
        <ele>823.0</ele>
        <time>2019-07-31T15:41:35.175Z</time>
      </trkpt>
      <trkpt lat="43.00717" lon="-1.14171833">
        <ele>823.0</ele>
        <time>2019-07-31T15:41:36.180Z</time>
      </trkpt>
      <trkpt lat="43.00717" lon="-1.141715">
        <ele>823.0</ele>
        <time>2019-07-31T15:41:37.183Z</time>
      </trkpt>
      <trkpt lat="43.00717167" lon="-1.14171167">
        <ele>824.0</ele>
        <time>2019-07-31T15:41:38.063Z</time>
      </trkpt>
      <trkpt lat="43.00717167" lon="-1.141705">
        <ele>824.0</ele>
        <time>2019-07-31T15:41:39.069Z</time>
      </trkpt>
      <trkpt lat="43.00717333" lon="-1.1417">
        <ele>824.0</ele>
        <time>2019-07-31T15:41:40.073Z</time>
      </trkpt>
      <trkpt lat="43.00717333" lon="-1.14169333">
        <ele>825.0</ele>
        <time>2019-07-31T15:41:41.079Z</time>
      </trkpt>
      <trkpt lat="43.00717333" lon="-1.14168833">
        <ele>825.0</ele>
        <time>2019-07-31T15:41:42.084Z</time>
      </trkpt>
      <trkpt lat="43.00717167" lon="-1.141685">
        <ele>826.0</ele>
        <time>2019-07-31T15:41:43.090Z</time>
      </trkpt>
      <trkpt lat="43.00717167" lon="-1.14167833">
        <ele>826.0</ele>
        <time>2019-07-31T15:41:44.095Z</time>
      </trkpt>
      <trkpt lat="43.00717167" lon="-1.14167333">
        <ele>825.0</ele>
        <time>2019-07-31T15:41:45.098Z</time>
      </trkpt>
      <trkpt lat="43.00716833" lon="-1.14167167">
        <ele>825.0</ele>
        <time>2019-07-31T15:41:46.100Z</time>
      </trkpt>
      <trkpt lat="43.007165" lon="-1.14167167">
        <ele>824.0</ele>
        <time>2019-07-31T15:41:47.106Z</time>
      </trkpt>
      <trkpt lat="43.00716" lon="-1.14167833">
        <ele>824.0</ele>
        <time>2019-07-31T15:41:48.111Z</time>
      </trkpt>
      <trkpt lat="43.00716167" lon="-1.14168167">
        <ele>824.0</ele>
        <time>2019-07-31T15:41:49.116Z</time>
      </trkpt>
      <trkpt lat="43.00716333" lon="-1.14169">
        <ele>823.0</ele>
        <time>2019-07-31T15:41:50.120Z</time>
      </trkpt>
      <trkpt lat="43.007165" lon="-1.14169833">
        <ele>824.0</ele>
        <time>2019-07-31T15:41:51.123Z</time>
      </trkpt>
      <trkpt lat="43.00716833" lon="-1.1417">
        <ele>825.0</ele>
        <time>2019-07-31T15:41:52.129Z</time>
      </trkpt>
      <trkpt lat="43.00717" lon="-1.141705">
        <ele>825.0</ele>
        <time>2019-07-31T15:41:53.135Z</time>
      </trkpt>
      <trkpt lat="43.00717" lon="-1.14171">
        <ele>824.0</ele>
        <time>2019-07-31T15:41:54.139Z</time>
      </trkpt>
      <trkpt lat="43.007165" lon="-1.14171333">
        <ele>825.0</ele>
        <time>2019-07-31T15:41:55.145Z</time>
      </trkpt>
      <trkpt lat="43.00716333" lon="-1.14171833">
        <ele>825.0</ele>
        <time>2019-07-31T15:41:56.152Z</time>
      </trkpt>
      <trkpt lat="43.00716333" lon="-1.141725">
        <ele>825.0</ele>
        <time>2019-07-31T15:41:57.158Z</time>
      </trkpt>
      <trkpt lat="43.00716667" lon="-1.14172833">
        <ele>826.0</ele>
        <time>2019-07-31T15:41:58.162Z</time>
      </trkpt>
      <trkpt lat="43.00716833" lon="-1.14173">
        <ele>826.0</ele>
        <time>2019-07-31T15:41:59.167Z</time>
      </trkpt>
      <trkpt lat="43.007165" lon="-1.141735">
        <ele>826.0</ele>
        <time>2019-07-31T15:42:00.172Z</time>
      </trkpt>
      <trkpt lat="43.007165" lon="-1.14173833">
        <ele>825.0</ele>
        <time>2019-07-31T15:42:01.177Z</time>
      </trkpt>
      <trkpt lat="43.007165" lon="-1.141745">
        <ele>825.0</ele>
        <time>2019-07-31T15:42:02.181Z</time>
      </trkpt>
      <trkpt lat="43.00716833" lon="-1.14175167">
        <ele>825.0</ele>
        <time>2019-07-31T15:42:03.185Z</time>
      </trkpt>
      <trkpt lat="43.00717333" lon="-1.14175333">
        <ele>825.0</ele>
        <time>2019-07-31T15:42:04.065Z</time>
      </trkpt>
      <trkpt lat="43.00717667" lon="-1.14175167">
        <ele>825.0</ele>
        <time>2019-07-31T15:42:05.072Z</time>
      </trkpt>
      <trkpt lat="43.00718167" lon="-1.14175167">
        <ele>825.0</ele>
        <time>2019-07-31T15:42:06.078Z</time>
      </trkpt>
      <trkpt lat="43.00718833" lon="-1.14175">
        <ele>825.0</ele>
        <time>2019-07-31T15:42:07.083Z</time>
      </trkpt>
      <trkpt lat="43.007195" lon="-1.14175">
        <ele>824.0</ele>
        <time>2019-07-31T15:42:08.088Z</time>
      </trkpt>
      <trkpt lat="43.00720667" lon="-1.14175167">
        <ele>824.0</ele>
        <time>2019-07-31T15:42:09.094Z</time>
      </trkpt>
      <trkpt lat="43.00721667" lon="-1.14175167">
        <ele>824.0</ele>
        <time>2019-07-31T15:42:10.099Z</time>
      </trkpt>
      <trkpt lat="43.007225" lon="-1.14175333">
        <ele>824.0</ele>
        <time>2019-07-31T15:42:11.105Z</time>
      </trkpt>
      <trkpt lat="43.00723833" lon="-1.141755">
        <ele>823.0</ele>
        <time>2019-07-31T15:42:12.110Z</time>
      </trkpt>
      <trkpt lat="43.00725" lon="-1.14175833">
        <ele>823.0</ele>
        <time>2019-07-31T15:42:13.116Z</time>
      </trkpt>
      <trkpt lat="43.00725833" lon="-1.14176167">
        <ele>823.0</ele>
        <time>2019-07-31T15:42:14.123Z</time>
      </trkpt>
      <trkpt lat="43.00726833" lon="-1.141765">
        <ele>823.0</ele>
        <time>2019-07-31T15:42:15.129Z</time>
      </trkpt>
      <trkpt lat="43.00728" lon="-1.14176833">
        <ele>823.0</ele>
        <time>2019-07-31T15:42:16.136Z</time>
      </trkpt>
      <trkpt lat="43.00729167" lon="-1.14177333">
        <ele>823.0</ele>
        <time>2019-07-31T15:42:17.142Z</time>
      </trkpt>
      <trkpt lat="43.00730333" lon="-1.14177333">
        <ele>823.0</ele>
        <time>2019-07-31T15:42:18.147Z</time>
      </trkpt>
      <trkpt lat="43.00731" lon="-1.14177667">
        <ele>823.0</ele>
        <time>2019-07-31T15:42:19.154Z</time>
      </trkpt>
      <trkpt lat="43.00732" lon="-1.14178167">
        <ele>822.0</ele>
        <time>2019-07-31T15:42:20.159Z</time>
      </trkpt>
      <trkpt lat="43.00733" lon="-1.14178667">
        <ele>823.0</ele>
        <time>2019-07-31T15:42:21.165Z</time>
      </trkpt>
      <trkpt lat="43.00734167" lon="-1.14178833">
        <ele>824.0</ele>
        <time>2019-07-31T15:42:22.170Z</time>
      </trkpt>
      <trkpt lat="43.00735833" lon="-1.14179">
        <ele>824.0</ele>
        <time>2019-07-31T15:42:23.175Z</time>
      </trkpt>
      <trkpt lat="43.00737" lon="-1.14179333">
        <ele>824.0</ele>
        <time>2019-07-31T15:42:24.181Z</time>
      </trkpt>
      <trkpt lat="43.00738333" lon="-1.1418">
        <ele>825.0</ele>
        <time>2019-07-31T15:42:25.062Z</time>
      </trkpt>
      <trkpt lat="43.00739167" lon="-1.14180833">
        <ele>825.0</ele>
        <time>2019-07-31T15:42:26.069Z</time>
      </trkpt>
      <trkpt lat="43.007405" lon="-1.14181333">
        <ele>825.0</ele>
        <time>2019-07-31T15:42:27.073Z</time>
      </trkpt>
      <trkpt lat="43.00741" lon="-1.14182167">
        <ele>824.0</ele>
        <time>2019-07-31T15:42:28.079Z</time>
      </trkpt>
      <trkpt lat="43.00741333" lon="-1.14183333">
        <ele>824.0</ele>
        <time>2019-07-31T15:42:29.084Z</time>
      </trkpt>
      <trkpt lat="43.00741" lon="-1.14184833">
        <ele>824.0</ele>
        <time>2019-07-31T15:42:30.086Z</time>
      </trkpt>
      <trkpt lat="43.007405" lon="-1.14186167">
        <ele>824.0</ele>
        <time>2019-07-31T15:42:31.091Z</time>
      </trkpt>
      <trkpt lat="43.007405" lon="-1.14187">
        <ele>824.0</ele>
        <time>2019-07-31T15:42:32.098Z</time>
      </trkpt>
      <trkpt lat="43.007405" lon="-1.14187167">
        <ele>823.0</ele>
        <time>2019-07-31T15:42:33.104Z</time>
      </trkpt>
      <trkpt lat="43.00740167" lon="-1.14187">
        <ele>823.0</ele>
        <time>2019-07-31T15:42:34.111Z</time>
      </trkpt>
      <trkpt lat="43.00740167" lon="-1.14187">
        <ele>822.0</ele>
        <time>2019-07-31T15:42:35.119Z</time>
      </trkpt>
      <trkpt lat="43.0074" lon="-1.141875">
        <ele>822.0</ele>
        <time>2019-07-31T15:42:36.124Z</time>
      </trkpt>
      <trkpt lat="43.00739833" lon="-1.14188833">
        <ele>822.0</ele>
        <time>2019-07-31T15:42:37.128Z</time>
      </trkpt>
      <trkpt lat="43.007405" lon="-1.14188667">
        <ele>823.0</ele>
        <time>2019-07-31T15:42:38.132Z</time>
      </trkpt>
      <trkpt lat="43.00741667" lon="-1.14189">
        <ele>823.0</ele>
        <time>2019-07-31T15:42:39.137Z</time>
      </trkpt>
      <trkpt lat="43.00741167" lon="-1.14190333">
        <ele>823.0</ele>
        <time>2019-07-31T15:42:40.144Z</time>
      </trkpt>
      <trkpt lat="43.00740833" lon="-1.14191167">
        <ele>822.0</ele>
        <time>2019-07-31T15:42:41.149Z</time>
      </trkpt>
      <trkpt lat="43.00740333" lon="-1.141915">
        <ele>822.0</ele>
        <time>2019-07-31T15:42:42.154Z</time>
      </trkpt>
      <trkpt lat="43.00739667" lon="-1.14192">
        <ele>823.0</ele>
        <time>2019-07-31T15:42:43.160Z</time>
      </trkpt>
      <trkpt lat="43.007395" lon="-1.14191667">
        <ele>823.0</ele>
        <time>2019-07-31T15:42:44.167Z</time>
      </trkpt>
      <trkpt lat="43.00739333" lon="-1.14190833">
        <ele>823.0</ele>
        <time>2019-07-31T15:42:45.174Z</time>
      </trkpt>
      <trkpt lat="43.00739333" lon="-1.14190167">
        <ele>822.0</ele>
        <time>2019-07-31T15:42:46.179Z</time>
      </trkpt>
      <trkpt lat="43.00739333" lon="-1.14190333">
        <ele>823.0</ele>
        <time>2019-07-31T15:42:47.183Z</time>
      </trkpt>
      <trkpt lat="43.00739" lon="-1.14191">
        <ele>823.0</ele>
        <time>2019-07-31T15:42:48.062Z</time>
      </trkpt>
      <trkpt lat="43.00738667" lon="-1.14191667">
        <ele>824.0</ele>
        <time>2019-07-31T15:42:49.066Z</time>
      </trkpt>
      <trkpt lat="43.00738333" lon="-1.14192333">
        <ele>825.0</ele>
        <time>2019-07-31T15:42:50.073Z</time>
      </trkpt>
      <trkpt lat="43.00738167" lon="-1.14193">
        <ele>825.0</ele>
        <time>2019-07-31T15:42:51.079Z</time>
      </trkpt>
      <trkpt lat="43.007385" lon="-1.14193333">
        <ele>826.0</ele>
        <time>2019-07-31T15:42:52.083Z</time>
      </trkpt>
      <trkpt lat="43.00739" lon="-1.14193167">
        <ele>826.0</ele>
        <time>2019-07-31T15:42:53.087Z</time>
      </trkpt>
      <trkpt lat="43.00739333" lon="-1.14193167">
        <ele>826.0</ele>
        <time>2019-07-31T15:42:54.093Z</time>
      </trkpt>
      <trkpt lat="43.007395" lon="-1.141935">
        <ele>826.0</ele>
        <time>2019-07-31T15:42:55.100Z</time>
      </trkpt>
      <trkpt lat="43.00739833" lon="-1.14193667">
        <ele>826.0</ele>
        <time>2019-07-31T15:42:56.107Z</time>
      </trkpt>
      <trkpt lat="43.00739667" lon="-1.14193833">
        <ele>826.0</ele>
        <time>2019-07-31T15:42:57.113Z</time>
      </trkpt>
      <trkpt lat="43.007395" lon="-1.14194">
        <ele>825.0</ele>
        <time>2019-07-31T15:42:58.119Z</time>
      </trkpt>
      <trkpt lat="43.00739333" lon="-1.14194333">
        <ele>825.0</ele>
        <time>2019-07-31T15:42:59.125Z</time>
      </trkpt>
      <trkpt lat="43.00739" lon="-1.14194833">
        <ele>825.0</ele>
        <time>2019-07-31T15:43:00.128Z</time>
      </trkpt>
      <trkpt lat="43.00738667" lon="-1.14194667">
        <ele>826.0</ele>
        <time>2019-07-31T15:43:01.134Z</time>
      </trkpt>
      <trkpt lat="43.00738667" lon="-1.14194667">
        <ele>826.0</ele>
        <time>2019-07-31T15:43:02.140Z</time>
      </trkpt>
      <trkpt lat="43.007385" lon="-1.14195">
        <ele>826.0</ele>
        <time>2019-07-31T15:43:03.146Z</time>
      </trkpt>
      <trkpt lat="43.00738333" lon="-1.14195">
        <ele>825.0</ele>
        <time>2019-07-31T15:43:04.154Z</time>
      </trkpt>
      <trkpt lat="43.00737667" lon="-1.14194667">
        <ele>826.0</ele>
        <time>2019-07-31T15:43:05.159Z</time>
      </trkpt>
      <trkpt lat="43.00737667" lon="-1.14194">
        <ele>826.0</ele>
        <time>2019-07-31T15:43:06.164Z</time>
      </trkpt>
      <trkpt lat="43.00737667" lon="-1.141935">
        <ele>826.0</ele>
        <time>2019-07-31T15:43:07.167Z</time>
      </trkpt>
      <trkpt lat="43.00737833" lon="-1.14193167">
        <ele>826.0</ele>
        <time>2019-07-31T15:43:08.172Z</time>
      </trkpt>
      <trkpt lat="43.00738" lon="-1.14192667">
        <ele>825.0</ele>
        <time>2019-07-31T15:43:09.176Z</time>
      </trkpt>
      <trkpt lat="43.00738167" lon="-1.14192667">
        <ele>826.0</ele>
        <time>2019-07-31T15:43:10.179Z</time>
      </trkpt>
      <trkpt lat="43.00738333" lon="-1.14192833">
        <ele>826.0</ele>
        <time>2019-07-31T15:43:11.184Z</time>
      </trkpt>
      <trkpt lat="43.007385" lon="-1.14193167">
        <ele>826.0</ele>
        <time>2019-07-31T15:43:12.063Z</time>
      </trkpt>
      <trkpt lat="43.00738667" lon="-1.141935">
        <ele>825.0</ele>
        <time>2019-07-31T15:43:13.067Z</time>
      </trkpt>
      <trkpt lat="43.00738667" lon="-1.14194">
        <ele>826.0</ele>
        <time>2019-07-31T15:43:14.072Z</time>
      </trkpt>
      <trkpt lat="43.007385" lon="-1.14194333">
        <ele>827.0</ele>
        <time>2019-07-31T15:43:15.077Z</time>
      </trkpt>
      <trkpt lat="43.00738167" lon="-1.14194333">
        <ele>828.0</ele>
        <time>2019-07-31T15:43:16.084Z</time>
      </trkpt>
      <trkpt lat="43.00737833" lon="-1.14194">
        <ele>829.0</ele>
        <time>2019-07-31T15:43:17.088Z</time>
      </trkpt>
      <trkpt lat="43.00737667" lon="-1.14194333">
        <ele>829.0</ele>
        <time>2019-07-31T15:43:18.093Z</time>
      </trkpt>
      <trkpt lat="43.00737833" lon="-1.141945">
        <ele>830.0</ele>
        <time>2019-07-31T15:43:19.097Z</time>
      </trkpt>
      <trkpt lat="43.00738167" lon="-1.14194833">
        <ele>830.0</ele>
        <time>2019-07-31T15:43:20.104Z</time>
      </trkpt>
      <trkpt lat="43.00739" lon="-1.14195">
        <ele>830.0</ele>
        <time>2019-07-31T15:43:21.110Z</time>
      </trkpt>
      <trkpt lat="43.00740167" lon="-1.14194667">
        <ele>830.0</ele>
        <time>2019-07-31T15:43:22.116Z</time>
      </trkpt>
      <trkpt lat="43.00741333" lon="-1.14194">
        <ele>831.0</ele>
        <time>2019-07-31T15:43:23.122Z</time>
      </trkpt>
      <trkpt lat="43.007425" lon="-1.14192833">
        <ele>832.0</ele>
        <time>2019-07-31T15:43:24.127Z</time>
      </trkpt>
      <trkpt lat="43.007435" lon="-1.141915">
        <ele>832.0</ele>
        <time>2019-07-31T15:43:25.132Z</time>
      </trkpt>
      <trkpt lat="43.007445" lon="-1.14190167">
        <ele>832.0</ele>
        <time>2019-07-31T15:43:26.138Z</time>
      </trkpt>
      <trkpt lat="43.00745" lon="-1.14189">
        <ele>833.0</ele>
        <time>2019-07-31T15:43:27.145Z</time>
      </trkpt>
      <trkpt lat="43.00745167" lon="-1.14187333">
        <ele>833.0</ele>
        <time>2019-07-31T15:43:28.151Z</time>
      </trkpt>
      <trkpt lat="43.00745667" lon="-1.14185833">
        <ele>833.0</ele>
        <time>2019-07-31T15:43:29.157Z</time>
      </trkpt>
      <trkpt lat="43.00746" lon="-1.14184667">
        <ele>833.0</ele>
        <time>2019-07-31T15:43:30.164Z</time>
      </trkpt>
      <trkpt lat="43.007465" lon="-1.14183833">
        <ele>833.0</ele>
        <time>2019-07-31T15:43:31.168Z</time>
      </trkpt>
      <trkpt lat="43.00746833" lon="-1.14182833">
        <ele>832.0</ele>
        <time>2019-07-31T15:43:32.175Z</time>
      </trkpt>
      <trkpt lat="43.00746833" lon="-1.14182">
        <ele>831.0</ele>
        <time>2019-07-31T15:43:33.183Z</time>
      </trkpt>
      <trkpt lat="43.00747167" lon="-1.14180833">
        <ele>831.0</ele>
        <time>2019-07-31T15:43:34.064Z</time>
      </trkpt>
      <trkpt lat="43.007475" lon="-1.14180167">
        <ele>830.0</ele>
        <time>2019-07-31T15:43:35.071Z</time>
      </trkpt>
      <trkpt lat="43.00748167" lon="-1.14179667">
        <ele>828.0</ele>
        <time>2019-07-31T15:43:36.075Z</time>
      </trkpt>
      <trkpt lat="43.00748833" lon="-1.14179167">
        <ele>827.0</ele>
        <time>2019-07-31T15:43:37.082Z</time>
      </trkpt>
      <trkpt lat="43.00749833" lon="-1.141785">
        <ele>826.0</ele>
        <time>2019-07-31T15:43:38.087Z</time>
      </trkpt>
      <trkpt lat="43.00750667" lon="-1.14177833">
        <ele>826.0</ele>
        <time>2019-07-31T15:43:39.092Z</time>
      </trkpt>
      <trkpt lat="43.00751667" lon="-1.14177333">
        <ele>826.0</ele>
        <time>2019-07-31T15:43:40.098Z</time>
      </trkpt>
      <trkpt lat="43.00752667" lon="-1.14176833">
        <ele>825.0</ele>
        <time>2019-07-31T15:43:41.103Z</time>
      </trkpt>
      <trkpt lat="43.00753333" lon="-1.14176333">
        <ele>825.0</ele>
        <time>2019-07-31T15:43:42.105Z</time>
      </trkpt>
      <trkpt lat="43.00754" lon="-1.14176167">
        <ele>824.0</ele>
        <time>2019-07-31T15:43:43.106Z</time>
      </trkpt>
      <trkpt lat="43.007545" lon="-1.141755">
        <ele>824.0</ele>
        <time>2019-07-31T15:43:44.108Z</time>
      </trkpt>
      <trkpt lat="43.00754833" lon="-1.14174667">
        <ele>824.0</ele>
        <time>2019-07-31T15:43:45.112Z</time>
      </trkpt>
      <trkpt lat="43.00755167" lon="-1.14173833">
        <ele>824.0</ele>
        <time>2019-07-31T15:43:46.114Z</time>
      </trkpt>
      <trkpt lat="43.00755833" lon="-1.14173">
        <ele>824.0</ele>
        <time>2019-07-31T15:43:47.121Z</time>
      </trkpt>
      <trkpt lat="43.00756333" lon="-1.14172667">
        <ele>824.0</ele>
        <time>2019-07-31T15:43:48.127Z</time>
      </trkpt>
      <trkpt lat="43.00756833" lon="-1.14172">
        <ele>824.0</ele>
        <time>2019-07-31T15:43:49.131Z</time>
      </trkpt>
      <trkpt lat="43.00757667" lon="-1.14171333">
        <ele>824.0</ele>
        <time>2019-07-31T15:43:50.136Z</time>
      </trkpt>
      <trkpt lat="43.00758333" lon="-1.14170833">
        <ele>824.0</ele>
        <time>2019-07-31T15:43:51.143Z</time>
      </trkpt>
      <trkpt lat="43.007585" lon="-1.14170333">
        <ele>823.0</ele>
        <time>2019-07-31T15:43:52.149Z</time>
      </trkpt>
      <trkpt lat="43.00758" lon="-1.1417">
        <ele>823.0</ele>
        <time>2019-07-31T15:43:53.154Z</time>
      </trkpt>
      <trkpt lat="43.00757167" lon="-1.14170167">
        <ele>824.0</ele>
        <time>2019-07-31T15:43:54.159Z</time>
      </trkpt>
      <trkpt lat="43.007565" lon="-1.14170333">
        <ele>826.0</ele>
        <time>2019-07-31T15:43:55.165Z</time>
      </trkpt>
      <trkpt lat="43.00756333" lon="-1.1417">
        <ele>826.0</ele>
        <time>2019-07-31T15:43:56.171Z</time>
      </trkpt>
      <trkpt lat="43.00756167" lon="-1.14169667">
        <ele>826.0</ele>
        <time>2019-07-31T15:43:57.178Z</time>
      </trkpt>
      <trkpt lat="43.00756333" lon="-1.14169333">
        <ele>827.0</ele>
        <time>2019-07-31T15:43:58.184Z</time>
      </trkpt>
      <trkpt lat="43.007565" lon="-1.14169">
        <ele>827.0</ele>
        <time>2019-07-31T15:43:59.064Z</time>
      </trkpt>
      <trkpt lat="43.00756667" lon="-1.14169667">
        <ele>828.0</ele>
        <time>2019-07-31T15:44:00.067Z</time>
      </trkpt>
      <trkpt lat="43.00756333" lon="-1.14170833">
        <ele>828.0</ele>
        <time>2019-07-31T15:44:01.069Z</time>
      </trkpt>
      <trkpt lat="43.00755667" lon="-1.14172167">
        <ele>829.0</ele>
        <time>2019-07-31T15:44:02.077Z</time>
      </trkpt>
      <trkpt lat="43.00754833" lon="-1.14173333">
        <ele>829.0</ele>
        <time>2019-07-31T15:44:03.083Z</time>
      </trkpt>
      <trkpt lat="43.007535" lon="-1.14174833">
        <ele>829.0</ele>
        <time>2019-07-31T15:44:04.087Z</time>
      </trkpt>
      <trkpt lat="43.00752333" lon="-1.14176333">
        <ele>830.0</ele>
        <time>2019-07-31T15:44:05.092Z</time>
      </trkpt>
      <trkpt lat="43.00751333" lon="-1.141775">
        <ele>830.0</ele>
        <time>2019-07-31T15:44:06.095Z</time>
      </trkpt>
      <trkpt lat="43.00750333" lon="-1.141785">
        <ele>830.0</ele>
        <time>2019-07-31T15:44:07.100Z</time>
      </trkpt>
      <trkpt lat="43.00749333" lon="-1.14179333">
        <ele>829.0</ele>
        <time>2019-07-31T15:44:08.106Z</time>
      </trkpt>
      <trkpt lat="43.007485" lon="-1.141795">
        <ele>829.0</ele>
        <time>2019-07-31T15:44:09.112Z</time>
      </trkpt>
      <trkpt lat="43.007475" lon="-1.14179333">
        <ele>828.0</ele>
        <time>2019-07-31T15:44:10.119Z</time>
      </trkpt>
      <trkpt lat="43.00746333" lon="-1.14179333">
        <ele>828.0</ele>
        <time>2019-07-31T15:44:11.124Z</time>
      </trkpt>
      <trkpt lat="43.007455" lon="-1.14179167">
        <ele>827.0</ele>
        <time>2019-07-31T15:44:12.128Z</time>
      </trkpt>
      <trkpt lat="43.00744667" lon="-1.141795">
        <ele>827.0</ele>
        <time>2019-07-31T15:44:13.133Z</time>
      </trkpt>
      <trkpt lat="43.00744167" lon="-1.141795">
        <ele>826.0</ele>
        <time>2019-07-31T15:44:14.139Z</time>
      </trkpt>
      <trkpt lat="43.00744" lon="-1.14179167">
        <ele>826.0</ele>
        <time>2019-07-31T15:44:15.145Z</time>
      </trkpt>
      <trkpt lat="43.007435" lon="-1.14179333">
        <ele>826.0</ele>
        <time>2019-07-31T15:44:16.150Z</time>
      </trkpt>
      <trkpt lat="43.00743167" lon="-1.14179667">
        <ele>826.0</ele>
        <time>2019-07-31T15:44:17.154Z</time>
      </trkpt>
      <trkpt lat="43.00742833" lon="-1.14179667">
        <ele>827.0</ele>
        <time>2019-07-31T15:44:18.160Z</time>
      </trkpt>
      <trkpt lat="43.00742667" lon="-1.141795">
        <ele>827.0</ele>
        <time>2019-07-31T15:44:19.166Z</time>
      </trkpt>
      <trkpt lat="43.00742667" lon="-1.14179333">
        <ele>828.0</ele>
        <time>2019-07-31T15:44:20.168Z</time>
      </trkpt>
      <trkpt lat="43.00742833" lon="-1.14179167">
        <ele>828.0</ele>
        <time>2019-07-31T15:44:21.174Z</time>
      </trkpt>
      <trkpt lat="43.00743167" lon="-1.14178667">
        <ele>827.0</ele>
        <time>2019-07-31T15:44:22.181Z</time>
      </trkpt>
      <trkpt lat="43.00743333" lon="-1.141785">
        <ele>827.0</ele>
        <time>2019-07-31T15:44:23.186Z</time>
      </trkpt>
      <trkpt lat="43.00743667" lon="-1.14178333">
        <ele>827.0</ele>
        <time>2019-07-31T15:44:24.066Z</time>
      </trkpt>
      <trkpt lat="43.00743667" lon="-1.14178167">
        <ele>827.0</ele>
        <time>2019-07-31T15:44:25.071Z</time>
      </trkpt>
      <trkpt lat="43.00744" lon="-1.14178167">
        <ele>827.0</ele>
        <time>2019-07-31T15:44:26.077Z</time>
      </trkpt>
      <trkpt lat="43.00744333" lon="-1.14178333">
        <ele>826.0</ele>
        <time>2019-07-31T15:44:27.081Z</time>
      </trkpt>
      <trkpt lat="43.00744833" lon="-1.14178167">
        <ele>826.0</ele>
        <time>2019-07-31T15:44:28.085Z</time>
      </trkpt>
      <trkpt lat="43.00745167" lon="-1.14178167">
        <ele>825.0</ele>
        <time>2019-07-31T15:44:29.090Z</time>
      </trkpt>
      <trkpt lat="43.00745333" lon="-1.14178333">
        <ele>824.0</ele>
        <time>2019-07-31T15:44:30.094Z</time>
      </trkpt>
      <trkpt lat="43.007455" lon="-1.14178667">
        <ele>824.0</ele>
        <time>2019-07-31T15:44:31.097Z</time>
      </trkpt>
      <trkpt lat="43.00745667" lon="-1.141785">
        <ele>823.0</ele>
        <time>2019-07-31T15:44:32.102Z</time>
      </trkpt>
      <trkpt lat="43.00745667" lon="-1.141785">
        <ele>823.0</ele>
        <time>2019-07-31T15:44:33.105Z</time>
      </trkpt>
      <trkpt lat="43.007455" lon="-1.14178333">
        <ele>823.0</ele>
        <time>2019-07-31T15:44:34.109Z</time>
      </trkpt>
      <trkpt lat="43.00745167" lon="-1.14178167">
        <ele>823.0</ele>
        <time>2019-07-31T15:44:35.111Z</time>
      </trkpt>
      <trkpt lat="43.00745" lon="-1.14178167">
        <ele>823.0</ele>
        <time>2019-07-31T15:44:36.113Z</time>
      </trkpt>
      <trkpt lat="43.00744833" lon="-1.14178333">
        <ele>822.0</ele>
        <time>2019-07-31T15:44:37.119Z</time>
      </trkpt>
      <trkpt lat="43.00744333" lon="-1.141785">
        <ele>822.0</ele>
        <time>2019-07-31T15:44:38.124Z</time>
      </trkpt>
      <trkpt lat="43.00744" lon="-1.141785">
        <ele>822.0</ele>
        <time>2019-07-31T15:44:39.130Z</time>
      </trkpt>
      <trkpt lat="43.00743833" lon="-1.14178">
        <ele>822.0</ele>
        <time>2019-07-31T15:44:40.138Z</time>
      </trkpt>
      <trkpt lat="43.007435" lon="-1.14177833">
        <ele>821.0</ele>
        <time>2019-07-31T15:44:41.145Z</time>
      </trkpt>
      <trkpt lat="43.00743333" lon="-1.14177667">
        <ele>821.0</ele>
        <time>2019-07-31T15:44:42.150Z</time>
      </trkpt>
      <trkpt lat="43.00743333" lon="-1.14177833">
        <ele>820.0</ele>
        <time>2019-07-31T15:44:43.156Z</time>
      </trkpt>
      <trkpt lat="43.00743167" lon="-1.14178">
        <ele>820.0</ele>
        <time>2019-07-31T15:44:44.160Z</time>
      </trkpt>
      <trkpt lat="43.00742833" lon="-1.141785">
        <ele>821.0</ele>
        <time>2019-07-31T15:44:45.167Z</time>
      </trkpt>
      <trkpt lat="43.00742833" lon="-1.141785">
        <ele>821.0</ele>
        <time>2019-07-31T15:44:46.172Z</time>
      </trkpt>
      <trkpt lat="43.007425" lon="-1.14178167">
        <ele>821.0</ele>
        <time>2019-07-31T15:44:47.179Z</time>
      </trkpt>
      <trkpt lat="43.00742333" lon="-1.14177667">
        <ele>821.0</ele>
        <time>2019-07-31T15:44:48.185Z</time>
      </trkpt>
      <trkpt lat="43.00742333" lon="-1.14178">
        <ele>820.0</ele>
        <time>2019-07-31T15:44:49.066Z</time>
      </trkpt>
      <trkpt lat="43.00742" lon="-1.14178667">
        <ele>820.0</ele>
        <time>2019-07-31T15:44:50.072Z</time>
      </trkpt>
      <trkpt lat="43.00741667" lon="-1.141795">
        <ele>820.0</ele>
        <time>2019-07-31T15:44:51.078Z</time>
      </trkpt>
      <trkpt lat="43.00741333" lon="-1.14179667">
        <ele>820.0</ele>
        <time>2019-07-31T15:44:52.084Z</time>
      </trkpt>
      <trkpt lat="43.00741333" lon="-1.14179833">
        <ele>820.0</ele>
        <time>2019-07-31T15:44:53.090Z</time>
      </trkpt>
      <trkpt lat="43.007415" lon="-1.14180167">
        <ele>820.0</ele>
        <time>2019-07-31T15:44:54.096Z</time>
      </trkpt>
      <trkpt lat="43.00741167" lon="-1.141805">
        <ele>820.0</ele>
        <time>2019-07-31T15:44:55.104Z</time>
      </trkpt>
      <trkpt lat="43.00740833" lon="-1.141815">
        <ele>821.0</ele>
        <time>2019-07-31T15:44:56.109Z</time>
      </trkpt>
      <trkpt lat="43.00740667" lon="-1.14182167">
        <ele>821.0</ele>
        <time>2019-07-31T15:44:57.116Z</time>
      </trkpt>
      <trkpt lat="43.00740667" lon="-1.14182333">
        <ele>821.0</ele>
        <time>2019-07-31T15:44:58.122Z</time>
      </trkpt>
      <trkpt lat="43.00740833" lon="-1.14182333">
        <ele>820.0</ele>
        <time>2019-07-31T15:44:59.128Z</time>
      </trkpt>
      <trkpt lat="43.00741167" lon="-1.14182167">
        <ele>820.0</ele>
        <time>2019-07-31T15:45:00.135Z</time>
      </trkpt>
      <trkpt lat="43.007415" lon="-1.141825">
        <ele>820.0</ele>
        <time>2019-07-31T15:45:01.141Z</time>
      </trkpt>
      <trkpt lat="43.007415" lon="-1.14182833">
        <ele>820.0</ele>
        <time>2019-07-31T15:45:02.146Z</time>
      </trkpt>
      <trkpt lat="43.00741667" lon="-1.14183167">
        <ele>821.0</ele>
        <time>2019-07-31T15:45:03.151Z</time>
      </trkpt>
      <trkpt lat="43.007415" lon="-1.14183333">
        <ele>821.0</ele>
        <time>2019-07-31T15:45:04.158Z</time>
      </trkpt>
      <trkpt lat="43.00741833" lon="-1.14183333">
        <ele>821.0</ele>
        <time>2019-07-31T15:45:05.162Z</time>
      </trkpt>
      <trkpt lat="43.00741833" lon="-1.14184">
        <ele>821.0</ele>
        <time>2019-07-31T15:45:06.168Z</time>
      </trkpt>
      <trkpt lat="43.00741833" lon="-1.14184167">
        <ele>821.0</ele>
        <time>2019-07-31T15:45:07.172Z</time>
      </trkpt>
      <trkpt lat="43.00741667" lon="-1.14184333">
        <ele>821.0</ele>
        <time>2019-07-31T15:45:08.178Z</time>
      </trkpt>
      <trkpt lat="43.00741333" lon="-1.14184667">
        <ele>821.0</ele>
        <time>2019-07-31T15:45:09.184Z</time>
      </trkpt>
      <trkpt lat="43.00741" lon="-1.14185333">
        <ele>821.0</ele>
        <time>2019-07-31T15:45:10.064Z</time>
      </trkpt>
      <trkpt lat="43.00741" lon="-1.141855">
        <ele>821.0</ele>
        <time>2019-07-31T15:45:11.070Z</time>
      </trkpt>
      <trkpt lat="43.00740833" lon="-1.14185833">
        <ele>822.0</ele>
        <time>2019-07-31T15:45:12.076Z</time>
      </trkpt>
      <trkpt lat="43.00740833" lon="-1.14186167">
        <ele>822.0</ele>
        <time>2019-07-31T15:45:13.080Z</time>
      </trkpt>
      <trkpt lat="43.00740667" lon="-1.14186333">
        <ele>822.0</ele>
        <time>2019-07-31T15:45:14.086Z</time>
      </trkpt>
      <trkpt lat="43.007405" lon="-1.14186667">
        <ele>822.0</ele>
        <time>2019-07-31T15:45:15.090Z</time>
      </trkpt>
      <trkpt lat="43.007405" lon="-1.14186667">
        <ele>822.0</ele>
        <time>2019-07-31T15:45:16.095Z</time>
      </trkpt>
      <trkpt lat="43.007405" lon="-1.14186333">
        <ele>822.0</ele>
        <time>2019-07-31T15:45:17.102Z</time>
      </trkpt>
      <trkpt lat="43.00741" lon="-1.14186">
        <ele>822.0</ele>
        <time>2019-07-31T15:45:18.108Z</time>
      </trkpt>
      <trkpt lat="43.00741" lon="-1.14186167">
        <ele>822.0</ele>
        <time>2019-07-31T15:45:19.113Z</time>
      </trkpt>
      <trkpt lat="43.00741" lon="-1.14186833">
        <ele>822.0</ele>
        <time>2019-07-31T15:45:20.120Z</time>
      </trkpt>
      <trkpt lat="43.00741333" lon="-1.14187">
        <ele>821.0</ele>
        <time>2019-07-31T15:45:21.125Z</time>
      </trkpt>
      <trkpt lat="43.00741333" lon="-1.14186833">
        <ele>821.0</ele>
        <time>2019-07-31T15:45:22.130Z</time>
      </trkpt>
      <trkpt lat="43.00741167" lon="-1.14187">
        <ele>822.0</ele>
        <time>2019-07-31T15:45:23.136Z</time>
      </trkpt>
      <trkpt lat="43.00741167" lon="-1.14187333">
        <ele>822.0</ele>
        <time>2019-07-31T15:45:24.142Z</time>
      </trkpt>
      <trkpt lat="43.00741167" lon="-1.14187667">
        <ele>823.0</ele>
        <time>2019-07-31T15:45:25.148Z</time>
      </trkpt>
      <trkpt lat="43.00741167" lon="-1.14187333">
        <ele>823.0</ele>
        <time>2019-07-31T15:45:26.156Z</time>
      </trkpt>
      <trkpt lat="43.00741167" lon="-1.141875">
        <ele>823.0</ele>
        <time>2019-07-31T15:45:27.161Z</time>
      </trkpt>
      <trkpt lat="43.00741333" lon="-1.14187833">
        <ele>824.0</ele>
        <time>2019-07-31T15:45:28.166Z</time>
      </trkpt>
      <trkpt lat="43.007415" lon="-1.141885">
        <ele>825.0</ele>
        <time>2019-07-31T15:45:29.172Z</time>
      </trkpt>
      <trkpt lat="43.00741167" lon="-1.14189333">
        <ele>825.0</ele>
        <time>2019-07-31T15:45:30.178Z</time>
      </trkpt>
      <trkpt lat="43.00741" lon="-1.1419">
        <ele>826.0</ele>
        <time>2019-07-31T15:45:31.184Z</time>
      </trkpt>
      <trkpt lat="43.00740833" lon="-1.14190167">
        <ele>827.0</ele>
        <time>2019-07-31T15:45:32.063Z</time>
      </trkpt>
      <trkpt lat="43.00740667" lon="-1.14190333">
        <ele>828.0</ele>
        <time>2019-07-31T15:45:33.068Z</time>
      </trkpt>
      <trkpt lat="43.00740667" lon="-1.14190333">
        <ele>829.0</ele>
        <time>2019-07-31T15:45:34.072Z</time>
      </trkpt>
      <trkpt lat="43.007405" lon="-1.1419">
        <ele>829.0</ele>
        <time>2019-07-31T15:45:35.079Z</time>
      </trkpt>
      <trkpt lat="43.00740667" lon="-1.14190333">
        <ele>829.0</ele>
        <time>2019-07-31T15:45:36.084Z</time>
      </trkpt>
      <trkpt lat="43.00740667" lon="-1.14190333">
        <ele>830.0</ele>
        <time>2019-07-31T15:45:37.088Z</time>
      </trkpt>
      <trkpt lat="43.007405" lon="-1.14190167">
        <ele>830.0</ele>
        <time>2019-07-31T15:45:38.092Z</time>
      </trkpt>
      <trkpt lat="43.007405" lon="-1.14190167">
        <ele>830.0</ele>
        <time>2019-07-31T15:45:39.096Z</time>
      </trkpt>
      <trkpt lat="43.00740667" lon="-1.14190333">
        <ele>830.0</ele>
        <time>2019-07-31T15:45:40.104Z</time>
      </trkpt>
      <trkpt lat="43.00740667" lon="-1.141905">
        <ele>830.0</ele>
        <time>2019-07-31T15:45:41.110Z</time>
      </trkpt>
      <trkpt lat="43.00740333" lon="-1.141905">
        <ele>830.0</ele>
        <time>2019-07-31T15:45:42.118Z</time>
      </trkpt>
      <trkpt lat="43.007405" lon="-1.1419">
        <ele>829.0</ele>
        <time>2019-07-31T15:45:43.124Z</time>
      </trkpt>
      <trkpt lat="43.00741" lon="-1.1419">
        <ele>830.0</ele>
        <time>2019-07-31T15:45:44.130Z</time>
      </trkpt>
      <trkpt lat="43.00740833" lon="-1.141905">
        <ele>830.0</ele>
        <time>2019-07-31T15:45:45.137Z</time>
      </trkpt>
      <trkpt lat="43.00740833" lon="-1.14191333">
        <ele>830.0</ele>
        <time>2019-07-31T15:45:46.141Z</time>
      </trkpt>
      <trkpt lat="43.00741" lon="-1.14191833">
        <ele>830.0</ele>
        <time>2019-07-31T15:45:47.146Z</time>
      </trkpt>
      <trkpt lat="43.00741" lon="-1.141925">
        <ele>831.0</ele>
        <time>2019-07-31T15:45:48.153Z</time>
      </trkpt>
      <trkpt lat="43.00741" lon="-1.14193">
        <ele>831.0</ele>
        <time>2019-07-31T15:45:49.159Z</time>
      </trkpt>
      <trkpt lat="43.00740667" lon="-1.141935">
        <ele>831.0</ele>
        <time>2019-07-31T15:45:50.166Z</time>
      </trkpt>
      <trkpt lat="43.00740167" lon="-1.14193833">
        <ele>831.0</ele>
        <time>2019-07-31T15:45:51.171Z</time>
      </trkpt>
      <trkpt lat="43.00739667" lon="-1.14194167">
        <ele>831.0</ele>
        <time>2019-07-31T15:45:52.176Z</time>
      </trkpt>
      <trkpt lat="43.00739167" lon="-1.14194833">
        <ele>831.0</ele>
        <time>2019-07-31T15:45:53.182Z</time>
      </trkpt>
      <trkpt lat="43.00739" lon="-1.14195333">
        <ele>831.0</ele>
        <time>2019-07-31T15:45:54.062Z</time>
      </trkpt>
      <trkpt lat="43.00738833" lon="-1.141955">
        <ele>831.0</ele>
        <time>2019-07-31T15:45:55.067Z</time>
      </trkpt>
      <trkpt lat="43.00739" lon="-1.14195333">
        <ele>831.0</ele>
        <time>2019-07-31T15:45:56.071Z</time>
      </trkpt>
      <trkpt lat="43.00739333" lon="-1.14195167">
        <ele>831.0</ele>
        <time>2019-07-31T15:45:57.073Z</time>
      </trkpt>
      <trkpt lat="43.00739667" lon="-1.14195333">
        <ele>832.0</ele>
        <time>2019-07-31T15:45:58.078Z</time>
      </trkpt>
      <trkpt lat="43.00739667" lon="-1.14195833">
        <ele>832.0</ele>
        <time>2019-07-31T15:45:59.084Z</time>
      </trkpt>
      <trkpt lat="43.00739833" lon="-1.14195833">
        <ele>832.0</ele>
        <time>2019-07-31T15:46:00.086Z</time>
      </trkpt>
      <trkpt lat="43.007395" lon="-1.14195833">
        <ele>832.0</ele>
        <time>2019-07-31T15:46:01.090Z</time>
      </trkpt>
      <trkpt lat="43.007395" lon="-1.14196333">
        <ele>832.0</ele>
        <time>2019-07-31T15:46:02.096Z</time>
      </trkpt>
      <trkpt lat="43.007395" lon="-1.14195667">
        <ele>832.0</ele>
        <time>2019-07-31T15:46:03.102Z</time>
      </trkpt>
      <trkpt lat="43.00739333" lon="-1.14195833">
        <ele>831.0</ele>
        <time>2019-07-31T15:46:04.106Z</time>
      </trkpt>
      <trkpt lat="43.007395" lon="-1.14196333">
        <ele>832.0</ele>
        <time>2019-07-31T15:46:05.109Z</time>
      </trkpt>
      <trkpt lat="43.007395" lon="-1.141965">
        <ele>832.0</ele>
        <time>2019-07-31T15:46:06.114Z</time>
      </trkpt>
      <trkpt lat="43.00739333" lon="-1.141965">
        <ele>833.0</ele>
        <time>2019-07-31T15:46:07.119Z</time>
      </trkpt>
      <trkpt lat="43.00739167" lon="-1.14194833">
        <ele>832.0</ele>
        <time>2019-07-31T15:46:08.125Z</time>
      </trkpt>
      <trkpt lat="43.00738667" lon="-1.14193">
        <ele>831.0</ele>
        <time>2019-07-31T15:46:09.129Z</time>
      </trkpt>
      <trkpt lat="43.007385" lon="-1.14191167">
        <ele>830.0</ele>
        <time>2019-07-31T15:46:10.133Z</time>
      </trkpt>
      <trkpt lat="43.00738" lon="-1.141895">
        <ele>830.0</ele>
        <time>2019-07-31T15:46:11.137Z</time>
      </trkpt>
      <trkpt lat="43.00737333" lon="-1.14188333">
        <ele>830.0</ele>
        <time>2019-07-31T15:46:12.142Z</time>
      </trkpt>
      <trkpt lat="43.007365" lon="-1.14187333">
        <ele>830.0</ele>
        <time>2019-07-31T15:46:13.149Z</time>
      </trkpt>
      <trkpt lat="43.00735333" lon="-1.14186833">
        <ele>830.0</ele>
        <time>2019-07-31T15:46:14.156Z</time>
      </trkpt>
      <trkpt lat="43.00734333" lon="-1.14185833">
        <ele>829.0</ele>
        <time>2019-07-31T15:46:15.162Z</time>
      </trkpt>
      <trkpt lat="43.00733167" lon="-1.14185333">
        <ele>829.0</ele>
        <time>2019-07-31T15:46:16.167Z</time>
      </trkpt>
      <trkpt lat="43.00732" lon="-1.14184833">
        <ele>829.0</ele>
        <time>2019-07-31T15:46:17.171Z</time>
      </trkpt>
      <trkpt lat="43.00730833" lon="-1.14184333">
        <ele>830.0</ele>
        <time>2019-07-31T15:46:18.178Z</time>
      </trkpt>
      <trkpt lat="43.00729667" lon="-1.14184">
        <ele>830.0</ele>
        <time>2019-07-31T15:46:19.185Z</time>
      </trkpt>
      <trkpt lat="43.00728667" lon="-1.14184">
        <ele>830.0</ele>
        <time>2019-07-31T15:46:20.065Z</time>
      </trkpt>
      <trkpt lat="43.00727667" lon="-1.141835">
        <ele>830.0</ele>
        <time>2019-07-31T15:46:21.071Z</time>
      </trkpt>
      <trkpt lat="43.00726667" lon="-1.14182833">
        <ele>829.0</ele>
        <time>2019-07-31T15:46:22.075Z</time>
      </trkpt>
      <trkpt lat="43.007255" lon="-1.14182">
        <ele>828.0</ele>
        <time>2019-07-31T15:46:23.080Z</time>
      </trkpt>
      <trkpt lat="43.00724667" lon="-1.14181667">
        <ele>828.0</ele>
        <time>2019-07-31T15:46:24.085Z</time>
      </trkpt>
      <trkpt lat="43.00723833" lon="-1.14181">
        <ele>827.0</ele>
        <time>2019-07-31T15:46:25.091Z</time>
      </trkpt>
      <trkpt lat="43.00722833" lon="-1.141805">
        <ele>827.0</ele>
        <time>2019-07-31T15:46:26.096Z</time>
      </trkpt>
      <trkpt lat="43.00721833" lon="-1.1418">
        <ele>827.0</ele>
        <time>2019-07-31T15:46:27.100Z</time>
      </trkpt>
      <trkpt lat="43.00720833" lon="-1.14179667">
        <ele>826.0</ele>
        <time>2019-07-31T15:46:28.102Z</time>
      </trkpt>
      <trkpt lat="43.00719833" lon="-1.14179">
        <ele>827.0</ele>
        <time>2019-07-31T15:46:29.108Z</time>
      </trkpt>
      <trkpt lat="43.00718833" lon="-1.14178833">
        <ele>827.0</ele>
        <time>2019-07-31T15:46:30.114Z</time>
      </trkpt>
      <trkpt lat="43.00718" lon="-1.141785">
        <ele>827.0</ele>
        <time>2019-07-31T15:46:31.118Z</time>
      </trkpt>
      <trkpt lat="43.007175" lon="-1.14178">
        <ele>827.0</ele>
        <time>2019-07-31T15:46:32.122Z</time>
      </trkpt>
      <trkpt lat="43.00717167" lon="-1.14177667">
        <ele>827.0</ele>
        <time>2019-07-31T15:46:33.126Z</time>
      </trkpt>
      <trkpt lat="43.00717333" lon="-1.141775">
        <ele>827.0</ele>
        <time>2019-07-31T15:46:34.134Z</time>
      </trkpt>
      <trkpt lat="43.00717" lon="-1.141775">
        <ele>827.0</ele>
        <time>2019-07-31T15:46:35.141Z</time>
      </trkpt>
      <trkpt lat="43.00717" lon="-1.14177">
        <ele>827.0</ele>
        <time>2019-07-31T15:46:36.147Z</time>
      </trkpt>
      <trkpt lat="43.00716833" lon="-1.14176167">
        <ele>826.0</ele>
        <time>2019-07-31T15:46:37.154Z</time>
      </trkpt>
      <trkpt lat="43.007165" lon="-1.14174833">
        <ele>827.0</ele>
        <time>2019-07-31T15:46:38.159Z</time>
      </trkpt>
      <trkpt lat="43.00715667" lon="-1.14173833">
        <ele>827.0</ele>
        <time>2019-07-31T15:46:39.163Z</time>
      </trkpt>
      <trkpt lat="43.007145" lon="-1.14173333">
        <ele>827.0</ele>
        <time>2019-07-31T15:46:40.168Z</time>
      </trkpt>
      <trkpt lat="43.00713333" lon="-1.141725">
        <ele>828.0</ele>
        <time>2019-07-31T15:46:41.174Z</time>
      </trkpt>
      <trkpt lat="43.00712167" lon="-1.14171833">
        <ele>829.0</ele>
        <time>2019-07-31T15:46:42.178Z</time>
      </trkpt>
      <trkpt lat="43.00711" lon="-1.14171">
        <ele>829.0</ele>
        <time>2019-07-31T15:46:43.184Z</time>
      </trkpt>
      <trkpt lat="43.0071" lon="-1.14170667">
        <ele>829.0</ele>
        <time>2019-07-31T15:46:44.064Z</time>
      </trkpt>
      <trkpt lat="43.00708833" lon="-1.14170333">
        <ele>829.0</ele>
        <time>2019-07-31T15:46:45.069Z</time>
      </trkpt>
      <trkpt lat="43.007075" lon="-1.14169833">
        <ele>828.0</ele>
        <time>2019-07-31T15:46:46.075Z</time>
      </trkpt>
      <trkpt lat="43.00706" lon="-1.141695">
        <ele>828.0</ele>
        <time>2019-07-31T15:46:47.082Z</time>
      </trkpt>
      <trkpt lat="43.007045" lon="-1.14169">
        <ele>829.0</ele>
        <time>2019-07-31T15:46:48.086Z</time>
      </trkpt>
      <trkpt lat="43.00703167" lon="-1.14168333">
        <ele>829.0</ele>
        <time>2019-07-31T15:46:49.092Z</time>
      </trkpt>
      <trkpt lat="43.00701667" lon="-1.141675">
        <ele>830.0</ele>
        <time>2019-07-31T15:46:50.096Z</time>
      </trkpt>
      <trkpt lat="43.00700167" lon="-1.14166833">
        <ele>831.0</ele>
        <time>2019-07-31T15:46:51.103Z</time>
      </trkpt>
      <trkpt lat="43.00698667" lon="-1.14166833">
        <ele>832.0</ele>
        <time>2019-07-31T15:46:52.108Z</time>
      </trkpt>
      <trkpt lat="43.00697167" lon="-1.14166667">
        <ele>834.0</ele>
        <time>2019-07-31T15:46:53.112Z</time>
      </trkpt>
      <trkpt lat="43.00695333" lon="-1.14166667">
        <ele>834.0</ele>
        <time>2019-07-31T15:46:54.113Z</time>
      </trkpt>
      <trkpt lat="43.006935" lon="-1.14167">
        <ele>835.0</ele>
        <time>2019-07-31T15:46:55.120Z</time>
      </trkpt>
      <trkpt lat="43.00691833" lon="-1.14167">
        <ele>835.0</ele>
        <time>2019-07-31T15:46:56.125Z</time>
      </trkpt>
      <trkpt lat="43.0069" lon="-1.14167">
        <ele>835.0</ele>
        <time>2019-07-31T15:46:57.128Z</time>
      </trkpt>
      <trkpt lat="43.00688333" lon="-1.14167167">
        <ele>835.0</ele>
        <time>2019-07-31T15:46:58.133Z</time>
      </trkpt>
      <trkpt lat="43.00686667" lon="-1.14166833">
        <ele>835.0</ele>
        <time>2019-07-31T15:46:59.138Z</time>
      </trkpt>
      <trkpt lat="43.00685" lon="-1.14167">
        <ele>836.0</ele>
        <time>2019-07-31T15:47:00.142Z</time>
      </trkpt>
      <trkpt lat="43.00683" lon="-1.141675">
        <ele>836.0</ele>
        <time>2019-07-31T15:47:01.145Z</time>
      </trkpt>
      <trkpt lat="43.00681" lon="-1.14167833">
        <ele>836.0</ele>
        <time>2019-07-31T15:47:02.150Z</time>
      </trkpt>
      <trkpt lat="43.00679333" lon="-1.141685">
        <ele>836.0</ele>
        <time>2019-07-31T15:47:03.156Z</time>
      </trkpt>
      <trkpt lat="43.006775" lon="-1.14169167">
        <ele>836.0</ele>
        <time>2019-07-31T15:47:04.164Z</time>
      </trkpt>
      <trkpt lat="43.00676167" lon="-1.14169833">
        <ele>836.0</ele>
        <time>2019-07-31T15:47:05.170Z</time>
      </trkpt>
      <trkpt lat="43.00675" lon="-1.14170667">
        <ele>835.0</ele>
        <time>2019-07-31T15:47:06.173Z</time>
      </trkpt>
      <trkpt lat="43.00674" lon="-1.141715">
        <ele>834.0</ele>
        <time>2019-07-31T15:47:07.178Z</time>
      </trkpt>
      <trkpt lat="43.00672833" lon="-1.14172333">
        <ele>832.0</ele>
        <time>2019-07-31T15:47:08.186Z</time>
      </trkpt>
      <trkpt lat="43.00671667" lon="-1.14173">
        <ele>831.0</ele>
        <time>2019-07-31T15:47:09.065Z</time>
      </trkpt>
      <trkpt lat="43.006705" lon="-1.14173833">
        <ele>830.0</ele>
        <time>2019-07-31T15:47:10.070Z</time>
      </trkpt>
      <trkpt lat="43.00669333" lon="-1.141745">
        <ele>830.0</ele>
        <time>2019-07-31T15:47:11.077Z</time>
      </trkpt>
      <trkpt lat="43.00668333" lon="-1.14175333">
        <ele>830.0</ele>
        <time>2019-07-31T15:47:12.083Z</time>
      </trkpt>
      <trkpt lat="43.006675" lon="-1.141765">
        <ele>829.0</ele>
        <time>2019-07-31T15:47:13.088Z</time>
      </trkpt>
      <trkpt lat="43.00666833" lon="-1.14177333">
        <ele>828.0</ele>
        <time>2019-07-31T15:47:14.092Z</time>
      </trkpt>
      <trkpt lat="43.00666167" lon="-1.14178">
        <ele>828.0</ele>
        <time>2019-07-31T15:47:15.095Z</time>
      </trkpt>
      <trkpt lat="43.00665" lon="-1.14178667">
        <ele>828.0</ele>
        <time>2019-07-31T15:47:16.096Z</time>
      </trkpt>
      <trkpt lat="43.00663667" lon="-1.14178833">
        <ele>827.0</ele>
        <time>2019-07-31T15:47:17.103Z</time>
      </trkpt>
      <trkpt lat="43.00662833" lon="-1.14179167">
        <ele>827.0</ele>
        <time>2019-07-31T15:47:18.110Z</time>
      </trkpt>
      <trkpt lat="43.00661667" lon="-1.14179833">
        <ele>827.0</ele>
        <time>2019-07-31T15:47:19.116Z</time>
      </trkpt>
      <trkpt lat="43.006605" lon="-1.14179667">
        <ele>827.0</ele>
        <time>2019-07-31T15:47:20.122Z</time>
      </trkpt>
      <trkpt lat="43.006595" lon="-1.141795">
        <ele>827.0</ele>
        <time>2019-07-31T15:47:21.125Z</time>
      </trkpt>
      <trkpt lat="43.00658667" lon="-1.14179">
        <ele>827.0</ele>
        <time>2019-07-31T15:47:22.130Z</time>
      </trkpt>
      <trkpt lat="43.00657667" lon="-1.141795">
        <ele>827.0</ele>
        <time>2019-07-31T15:47:23.136Z</time>
      </trkpt>
      <trkpt lat="43.006575" lon="-1.14180167">
        <ele>828.0</ele>
        <time>2019-07-31T15:47:24.140Z</time>
      </trkpt>
      <trkpt lat="43.00656833" lon="-1.14181667">
        <ele>829.0</ele>
        <time>2019-07-31T15:47:25.144Z</time>
      </trkpt>
      <trkpt lat="43.00656667" lon="-1.141825">
        <ele>829.0</ele>
        <time>2019-07-31T15:47:26.148Z</time>
      </trkpt>
      <trkpt lat="43.00656833" lon="-1.14183">
        <ele>830.0</ele>
        <time>2019-07-31T15:47:27.155Z</time>
      </trkpt>
      <trkpt lat="43.00657167" lon="-1.141835">
        <ele>830.0</ele>
        <time>2019-07-31T15:47:28.159Z</time>
      </trkpt>
      <trkpt lat="43.00657333" lon="-1.14184">
        <ele>830.0</ele>
        <time>2019-07-31T15:47:29.166Z</time>
      </trkpt>
      <trkpt lat="43.00657667" lon="-1.141845">
        <ele>831.0</ele>
        <time>2019-07-31T15:47:30.171Z</time>
      </trkpt>
      <trkpt lat="43.00658" lon="-1.14185">
        <ele>832.0</ele>
        <time>2019-07-31T15:47:31.176Z</time>
      </trkpt>
      <trkpt lat="43.00658167" lon="-1.14185333">
        <ele>832.0</ele>
        <time>2019-07-31T15:47:32.183Z</time>
      </trkpt>
      <trkpt lat="43.00658" lon="-1.14185167">
        <ele>833.0</ele>
        <time>2019-07-31T15:47:33.061Z</time>
      </trkpt>
      <trkpt lat="43.00658167" lon="-1.14185333">
        <ele>833.0</ele>
        <time>2019-07-31T15:47:34.064Z</time>
      </trkpt>
      <trkpt lat="43.00657833" lon="-1.14185167">
        <ele>834.0</ele>
        <time>2019-07-31T15:47:35.070Z</time>
      </trkpt>
      <trkpt lat="43.00657333" lon="-1.14184833">
        <ele>834.0</ele>
        <time>2019-07-31T15:47:36.077Z</time>
      </trkpt>
      <trkpt lat="43.00657" lon="-1.14184167">
        <ele>835.0</ele>
        <time>2019-07-31T15:47:37.079Z</time>
      </trkpt>
      <trkpt lat="43.00657167" lon="-1.14184">
        <ele>835.0</ele>
        <time>2019-07-31T15:47:38.084Z</time>
      </trkpt>
      <trkpt lat="43.006575" lon="-1.14183833">
        <ele>834.0</ele>
        <time>2019-07-31T15:47:39.090Z</time>
      </trkpt>
      <trkpt lat="43.00657667" lon="-1.14183667">
        <ele>832.0</ele>
        <time>2019-07-31T15:47:40.095Z</time>
      </trkpt>
      <trkpt lat="43.00658167" lon="-1.14184333">
        <ele>831.0</ele>
        <time>2019-07-31T15:47:41.101Z</time>
      </trkpt>
      <trkpt lat="43.006585" lon="-1.14185333">
        <ele>829.0</ele>
        <time>2019-07-31T15:47:42.106Z</time>
      </trkpt>
      <trkpt lat="43.00658833" lon="-1.14186167">
        <ele>828.0</ele>
        <time>2019-07-31T15:47:43.112Z</time>
      </trkpt>
      <trkpt lat="43.00658833" lon="-1.14186167">
        <ele>826.0</ele>
        <time>2019-07-31T15:47:44.116Z</time>
      </trkpt>
      <trkpt lat="43.006585" lon="-1.14185833">
        <ele>827.0</ele>
        <time>2019-07-31T15:47:45.121Z</time>
      </trkpt>
      <trkpt lat="43.00657833" lon="-1.141855">
        <ele>828.0</ele>
        <time>2019-07-31T15:47:46.124Z</time>
      </trkpt>
      <trkpt lat="43.00657667" lon="-1.14185667">
        <ele>828.0</ele>
        <time>2019-07-31T15:47:47.129Z</time>
      </trkpt>
      <trkpt lat="43.00657333" lon="-1.141875">
        <ele>828.0</ele>
        <time>2019-07-31T15:47:48.135Z</time>
      </trkpt>
      <trkpt lat="43.00657333" lon="-1.14189667">
        <ele>828.0</ele>
        <time>2019-07-31T15:47:49.140Z</time>
      </trkpt>
      <trkpt lat="43.00657167" lon="-1.14191833">
        <ele>828.0</ele>
        <time>2019-07-31T15:47:50.147Z</time>
      </trkpt>
      <trkpt lat="43.00657" lon="-1.14193667">
        <ele>829.0</ele>
        <time>2019-07-31T15:47:51.152Z</time>
      </trkpt>
      <trkpt lat="43.00657" lon="-1.14195167">
        <ele>829.0</ele>
        <time>2019-07-31T15:47:52.156Z</time>
      </trkpt>
      <trkpt lat="43.00656833" lon="-1.14196667">
        <ele>829.0</ele>
        <time>2019-07-31T15:47:53.162Z</time>
      </trkpt>
      <trkpt lat="43.00656833" lon="-1.14198333">
        <ele>830.0</ele>
        <time>2019-07-31T15:47:54.167Z</time>
      </trkpt>
      <trkpt lat="43.00656833" lon="-1.142">
        <ele>830.0</ele>
        <time>2019-07-31T15:47:55.172Z</time>
      </trkpt>
      <trkpt lat="43.00657167" lon="-1.14201667">
        <ele>830.0</ele>
        <time>2019-07-31T15:47:56.177Z</time>
      </trkpt>
      <trkpt lat="43.00657333" lon="-1.14203667">
        <ele>830.0</ele>
        <time>2019-07-31T15:47:57.183Z</time>
      </trkpt>
      <trkpt lat="43.00657833" lon="-1.14205833">
        <ele>830.0</ele>
        <time>2019-07-31T15:47:58.063Z</time>
      </trkpt>
      <trkpt lat="43.00658333" lon="-1.14207833">
        <ele>830.0</ele>
        <time>2019-07-31T15:47:59.069Z</time>
      </trkpt>
      <trkpt lat="43.00658667" lon="-1.1421">
        <ele>830.0</ele>
        <time>2019-07-31T15:48:00.074Z</time>
      </trkpt>
      <trkpt lat="43.00659167" lon="-1.14212333">
        <ele>830.0</ele>
        <time>2019-07-31T15:48:01.080Z</time>
      </trkpt>
      <trkpt lat="43.00659667" lon="-1.14214667">
        <ele>830.0</ele>
        <time>2019-07-31T15:48:02.084Z</time>
      </trkpt>
      <trkpt lat="43.00660167" lon="-1.14217">
        <ele>830.0</ele>
        <time>2019-07-31T15:48:03.089Z</time>
      </trkpt>
      <trkpt lat="43.00660833" lon="-1.14218833">
        <ele>830.0</ele>
        <time>2019-07-31T15:48:04.095Z</time>
      </trkpt>
      <trkpt lat="43.00661333" lon="-1.14221">
        <ele>830.0</ele>
        <time>2019-07-31T15:48:05.102Z</time>
      </trkpt>
      <trkpt lat="43.00661833" lon="-1.14223">
        <ele>830.0</ele>
        <time>2019-07-31T15:48:06.108Z</time>
      </trkpt>
      <trkpt lat="43.00662167" lon="-1.14225167">
        <ele>829.0</ele>
        <time>2019-07-31T15:48:07.114Z</time>
      </trkpt>
      <trkpt lat="43.006625" lon="-1.14227167">
        <ele>829.0</ele>
        <time>2019-07-31T15:48:08.120Z</time>
      </trkpt>
      <trkpt lat="43.00662667" lon="-1.14229167">
        <ele>829.0</ele>
        <time>2019-07-31T15:48:09.125Z</time>
      </trkpt>
      <trkpt lat="43.00662833" lon="-1.14231">
        <ele>829.0</ele>
        <time>2019-07-31T15:48:10.130Z</time>
      </trkpt>
      <trkpt lat="43.00662333" lon="-1.142325">
        <ele>829.0</ele>
        <time>2019-07-31T15:48:11.136Z</time>
      </trkpt>
      <trkpt lat="43.00662" lon="-1.14234">
        <ele>828.0</ele>
        <time>2019-07-31T15:48:12.141Z</time>
      </trkpt>
      <trkpt lat="43.006615" lon="-1.14235167">
        <ele>828.0</ele>
        <time>2019-07-31T15:48:13.146Z</time>
      </trkpt>
      <trkpt lat="43.00660833" lon="-1.14236333">
        <ele>828.0</ele>
        <time>2019-07-31T15:48:14.153Z</time>
      </trkpt>
      <trkpt lat="43.00659833" lon="-1.14237333">
        <ele>828.0</ele>
        <time>2019-07-31T15:48:15.160Z</time>
      </trkpt>
      <trkpt lat="43.00659" lon="-1.142385">
        <ele>827.0</ele>
        <time>2019-07-31T15:48:16.165Z</time>
      </trkpt>
      <trkpt lat="43.00658" lon="-1.14239667">
        <ele>827.0</ele>
        <time>2019-07-31T15:48:17.171Z</time>
      </trkpt>
      <trkpt lat="43.006575" lon="-1.14240833">
        <ele>826.0</ele>
        <time>2019-07-31T15:48:18.176Z</time>
      </trkpt>
      <trkpt lat="43.00656667" lon="-1.14242">
        <ele>825.0</ele>
        <time>2019-07-31T15:48:19.182Z</time>
      </trkpt>
      <trkpt lat="43.00655667" lon="-1.14243">
        <ele>825.0</ele>
        <time>2019-07-31T15:48:20.062Z</time>
      </trkpt>
      <trkpt lat="43.006545" lon="-1.14243833">
        <ele>824.0</ele>
        <time>2019-07-31T15:48:21.068Z</time>
      </trkpt>
      <trkpt lat="43.00653167" lon="-1.14244667">
        <ele>824.0</ele>
        <time>2019-07-31T15:48:22.073Z</time>
      </trkpt>
      <trkpt lat="43.00652" lon="-1.14245667">
        <ele>824.0</ele>
        <time>2019-07-31T15:48:23.077Z</time>
      </trkpt>
      <trkpt lat="43.00650667" lon="-1.142465">
        <ele>824.0</ele>
        <time>2019-07-31T15:48:24.082Z</time>
      </trkpt>
      <trkpt lat="43.006495" lon="-1.14247333">
        <ele>823.0</ele>
        <time>2019-07-31T15:48:25.088Z</time>
      </trkpt>
      <trkpt lat="43.00648167" lon="-1.14248">
        <ele>823.0</ele>
        <time>2019-07-31T15:48:26.093Z</time>
      </trkpt>
      <trkpt lat="43.00646833" lon="-1.142485">
        <ele>823.0</ele>
        <time>2019-07-31T15:48:27.097Z</time>
      </trkpt>
      <trkpt lat="43.00645333" lon="-1.14249167">
        <ele>823.0</ele>
        <time>2019-07-31T15:48:28.102Z</time>
      </trkpt>
      <trkpt lat="43.00643833" lon="-1.14249833">
        <ele>823.0</ele>
        <time>2019-07-31T15:48:29.107Z</time>
      </trkpt>
      <trkpt lat="43.00642333" lon="-1.14250333">
        <ele>822.0</ele>
        <time>2019-07-31T15:48:30.112Z</time>
      </trkpt>
      <trkpt lat="43.00640667" lon="-1.14250833">
        <ele>822.0</ele>
        <time>2019-07-31T15:48:31.119Z</time>
      </trkpt>
      <trkpt lat="43.00639167" lon="-1.142515">
        <ele>822.0</ele>
        <time>2019-07-31T15:48:32.123Z</time>
      </trkpt>
      <trkpt lat="43.00637333" lon="-1.14252">
        <ele>822.0</ele>
        <time>2019-07-31T15:48:33.127Z</time>
      </trkpt>
      <trkpt lat="43.006355" lon="-1.142525">
        <ele>823.0</ele>
        <time>2019-07-31T15:48:34.130Z</time>
      </trkpt>
      <trkpt lat="43.00634" lon="-1.14252833">
        <ele>823.0</ele>
        <time>2019-07-31T15:48:35.134Z</time>
      </trkpt>
      <trkpt lat="43.006325" lon="-1.142535">
        <ele>822.0</ele>
        <time>2019-07-31T15:48:36.140Z</time>
      </trkpt>
      <trkpt lat="43.00631" lon="-1.142545">
        <ele>822.0</ele>
        <time>2019-07-31T15:48:37.142Z</time>
      </trkpt>
      <trkpt lat="43.00629167" lon="-1.14255333">
        <ele>823.0</ele>
        <time>2019-07-31T15:48:38.146Z</time>
      </trkpt>
      <trkpt lat="43.006275" lon="-1.14256167">
        <ele>823.0</ele>
        <time>2019-07-31T15:48:39.153Z</time>
      </trkpt>
      <trkpt lat="43.00626333" lon="-1.14257">
        <ele>822.0</ele>
        <time>2019-07-31T15:48:40.158Z</time>
      </trkpt>
      <trkpt lat="43.006255" lon="-1.14258">
        <ele>821.0</ele>
        <time>2019-07-31T15:48:41.163Z</time>
      </trkpt>
      <trkpt lat="43.00624333" lon="-1.14258667">
        <ele>821.0</ele>
        <time>2019-07-31T15:48:42.168Z</time>
      </trkpt>
      <trkpt lat="43.00623167" lon="-1.142595">
        <ele>821.0</ele>
        <time>2019-07-31T15:48:43.173Z</time>
      </trkpt>
      <trkpt lat="43.00621667" lon="-1.142605">
        <ele>820.0</ele>
        <time>2019-07-31T15:48:44.180Z</time>
      </trkpt>
      <trkpt lat="43.00620333" lon="-1.14261167">
        <ele>820.0</ele>
        <time>2019-07-31T15:48:45.185Z</time>
      </trkpt>
      <trkpt lat="43.00618667" lon="-1.14261833">
        <ele>820.0</ele>
        <time>2019-07-31T15:48:46.065Z</time>
      </trkpt>
      <trkpt lat="43.00617333" lon="-1.14262667">
        <ele>820.0</ele>
        <time>2019-07-31T15:48:47.070Z</time>
      </trkpt>
      <trkpt lat="43.00616" lon="-1.14263333">
        <ele>820.0</ele>
        <time>2019-07-31T15:48:48.073Z</time>
      </trkpt>
      <trkpt lat="43.00614667" lon="-1.14263833">
        <ele>819.0</ele>
        <time>2019-07-31T15:48:49.077Z</time>
      </trkpt>
      <trkpt lat="43.006135" lon="-1.14264667">
        <ele>819.0</ele>
        <time>2019-07-31T15:48:50.084Z</time>
      </trkpt>
      <trkpt lat="43.00612167" lon="-1.14264833">
        <ele>819.0</ele>
        <time>2019-07-31T15:48:51.088Z</time>
      </trkpt>
      <trkpt lat="43.006105" lon="-1.14265">
        <ele>819.0</ele>
        <time>2019-07-31T15:48:52.093Z</time>
      </trkpt>
      <trkpt lat="43.00608667" lon="-1.142655">
        <ele>820.0</ele>
        <time>2019-07-31T15:48:53.100Z</time>
      </trkpt>
      <trkpt lat="43.00607167" lon="-1.14266">
        <ele>820.0</ele>
        <time>2019-07-31T15:48:54.105Z</time>
      </trkpt>
      <trkpt lat="43.00605667" lon="-1.14266333">
        <ele>820.0</ele>
        <time>2019-07-31T15:48:55.108Z</time>
      </trkpt>
      <trkpt lat="43.00604167" lon="-1.14267">
        <ele>820.0</ele>
        <time>2019-07-31T15:48:56.112Z</time>
      </trkpt>
      <trkpt lat="43.00602667" lon="-1.14268">
        <ele>821.0</ele>
        <time>2019-07-31T15:48:57.117Z</time>
      </trkpt>
      <trkpt lat="43.00601167" lon="-1.14268667">
        <ele>821.0</ele>
        <time>2019-07-31T15:48:58.122Z</time>
      </trkpt>
      <trkpt lat="43.00599833" lon="-1.14269333">
        <ele>821.0</ele>
        <time>2019-07-31T15:48:59.124Z</time>
      </trkpt>
      <trkpt lat="43.00598333" lon="-1.14270333">
        <ele>821.0</ele>
        <time>2019-07-31T15:49:00.127Z</time>
      </trkpt>
      <trkpt lat="43.00597" lon="-1.14271167">
        <ele>821.0</ele>
        <time>2019-07-31T15:49:01.131Z</time>
      </trkpt>
      <trkpt lat="43.00595333" lon="-1.14271833">
        <ele>820.0</ele>
        <time>2019-07-31T15:49:02.137Z</time>
      </trkpt>
      <trkpt lat="43.00593833" lon="-1.142725">
        <ele>821.0</ele>
        <time>2019-07-31T15:49:03.142Z</time>
      </trkpt>
      <trkpt lat="43.00592333" lon="-1.14273167">
        <ele>821.0</ele>
        <time>2019-07-31T15:49:04.148Z</time>
      </trkpt>
      <trkpt lat="43.00591" lon="-1.14274167">
        <ele>821.0</ele>
        <time>2019-07-31T15:49:05.155Z</time>
      </trkpt>
      <trkpt lat="43.005895" lon="-1.14275">
        <ele>821.0</ele>
        <time>2019-07-31T15:49:06.161Z</time>
      </trkpt>
      <trkpt lat="43.00588167" lon="-1.14275833">
        <ele>821.0</ele>
        <time>2019-07-31T15:49:07.167Z</time>
      </trkpt>
      <trkpt lat="43.005865" lon="-1.14276167">
        <ele>821.0</ele>
        <time>2019-07-31T15:49:08.172Z</time>
      </trkpt>
      <trkpt lat="43.00585" lon="-1.14276167">
        <ele>821.0</ele>
        <time>2019-07-31T15:49:09.178Z</time>
      </trkpt>
      <trkpt lat="43.005835" lon="-1.14276333">
        <ele>821.0</ele>
        <time>2019-07-31T15:49:10.184Z</time>
      </trkpt>
      <trkpt lat="43.00581833" lon="-1.14277">
        <ele>821.0</ele>
        <time>2019-07-31T15:49:11.065Z</time>
      </trkpt>
      <trkpt lat="43.005805" lon="-1.14277667">
        <ele>821.0</ele>
        <time>2019-07-31T15:49:12.070Z</time>
      </trkpt>
      <trkpt lat="43.00579167" lon="-1.142785">
        <ele>821.0</ele>
        <time>2019-07-31T15:49:13.075Z</time>
      </trkpt>
      <trkpt lat="43.00577833" lon="-1.14279">
        <ele>821.0</ele>
        <time>2019-07-31T15:49:14.081Z</time>
      </trkpt>
      <trkpt lat="43.005765" lon="-1.14279833">
        <ele>820.0</ele>
        <time>2019-07-31T15:49:15.087Z</time>
      </trkpt>
      <trkpt lat="43.00574833" lon="-1.142805">
        <ele>820.0</ele>
        <time>2019-07-31T15:49:16.093Z</time>
      </trkpt>
      <trkpt lat="43.00573333" lon="-1.14280833">
        <ele>820.0</ele>
        <time>2019-07-31T15:49:17.099Z</time>
      </trkpt>
      <trkpt lat="43.00571667" lon="-1.142815">
        <ele>821.0</ele>
        <time>2019-07-31T15:49:18.104Z</time>
      </trkpt>
      <trkpt lat="43.00570167" lon="-1.14282333">
        <ele>821.0</ele>
        <time>2019-07-31T15:49:19.108Z</time>
      </trkpt>
      <trkpt lat="43.00568667" lon="-1.14283167">
        <ele>821.0</ele>
        <time>2019-07-31T15:49:20.111Z</time>
      </trkpt>
      <trkpt lat="43.00567167" lon="-1.14283833">
        <ele>821.0</ele>
        <time>2019-07-31T15:49:21.114Z</time>
      </trkpt>
      <trkpt lat="43.00565667" lon="-1.14284833">
        <ele>821.0</ele>
        <time>2019-07-31T15:49:22.115Z</time>
      </trkpt>
      <trkpt lat="43.00564" lon="-1.14285833">
        <ele>821.0</ele>
        <time>2019-07-31T15:49:23.121Z</time>
      </trkpt>
      <trkpt lat="43.005625" lon="-1.14287167">
        <ele>821.0</ele>
        <time>2019-07-31T15:49:24.127Z</time>
      </trkpt>
      <trkpt lat="43.00560833" lon="-1.142885">
        <ele>821.0</ele>
        <time>2019-07-31T15:49:25.134Z</time>
      </trkpt>
      <trkpt lat="43.00559833" lon="-1.14289833">
        <ele>821.0</ele>
        <time>2019-07-31T15:49:26.140Z</time>
      </trkpt>
      <trkpt lat="43.00558333" lon="-1.14291167">
        <ele>821.0</ele>
        <time>2019-07-31T15:49:27.148Z</time>
      </trkpt>
      <trkpt lat="43.00557167" lon="-1.14292667">
        <ele>821.0</ele>
        <time>2019-07-31T15:49:28.154Z</time>
      </trkpt>
      <trkpt lat="43.00555833" lon="-1.14294">
        <ele>821.0</ele>
        <time>2019-07-31T15:49:29.161Z</time>
      </trkpt>
      <trkpt lat="43.00554333" lon="-1.14295167">
        <ele>821.0</ele>
        <time>2019-07-31T15:49:30.166Z</time>
      </trkpt>
      <trkpt lat="43.00553167" lon="-1.14296167">
        <ele>821.0</ele>
        <time>2019-07-31T15:49:31.167Z</time>
      </trkpt>
      <trkpt lat="43.00552" lon="-1.14297">
        <ele>821.0</ele>
        <time>2019-07-31T15:49:32.169Z</time>
      </trkpt>
      <trkpt lat="43.00550833" lon="-1.14298">
        <ele>820.0</ele>
        <time>2019-07-31T15:49:33.176Z</time>
      </trkpt>
      <trkpt lat="43.005495" lon="-1.14299167">
        <ele>820.0</ele>
        <time>2019-07-31T15:49:34.184Z</time>
      </trkpt>
      <trkpt lat="43.00548167" lon="-1.143005">
        <ele>820.0</ele>
        <time>2019-07-31T15:49:35.064Z</time>
      </trkpt>
      <trkpt lat="43.00547" lon="-1.14302">
        <ele>820.0</ele>
        <time>2019-07-31T15:49:36.069Z</time>
      </trkpt>
      <trkpt lat="43.00545667" lon="-1.14303167">
        <ele>820.0</ele>
        <time>2019-07-31T15:49:37.076Z</time>
      </trkpt>
      <trkpt lat="43.00544333" lon="-1.143045">
        <ele>820.0</ele>
        <time>2019-07-31T15:49:38.083Z</time>
      </trkpt>
      <trkpt lat="43.00543" lon="-1.14306">
        <ele>820.0</ele>
        <time>2019-07-31T15:49:39.088Z</time>
      </trkpt>
      <trkpt lat="43.00541833" lon="-1.14307333">
        <ele>820.0</ele>
        <time>2019-07-31T15:49:40.097Z</time>
      </trkpt>
      <trkpt lat="43.005405" lon="-1.143085">
        <ele>819.0</ele>
        <time>2019-07-31T15:49:41.104Z</time>
      </trkpt>
      <trkpt lat="43.00539167" lon="-1.143095">
        <ele>819.0</ele>
        <time>2019-07-31T15:49:42.109Z</time>
      </trkpt>
      <trkpt lat="43.00537833" lon="-1.14311">
        <ele>819.0</ele>
        <time>2019-07-31T15:49:43.116Z</time>
      </trkpt>
      <trkpt lat="43.005365" lon="-1.14312333">
        <ele>819.0</ele>
        <time>2019-07-31T15:49:44.120Z</time>
      </trkpt>
      <trkpt lat="43.00535167" lon="-1.14313667">
        <ele>820.0</ele>
        <time>2019-07-31T15:49:45.125Z</time>
      </trkpt>
      <trkpt lat="43.00533833" lon="-1.14314833">
        <ele>820.0</ele>
        <time>2019-07-31T15:49:46.131Z</time>
      </trkpt>
      <trkpt lat="43.005325" lon="-1.14315833">
        <ele>819.0</ele>
        <time>2019-07-31T15:49:47.137Z</time>
      </trkpt>
      <trkpt lat="43.00531" lon="-1.14316833">
        <ele>820.0</ele>
        <time>2019-07-31T15:49:48.143Z</time>
      </trkpt>
      <trkpt lat="43.005295" lon="-1.14317667">
        <ele>820.0</ele>
        <time>2019-07-31T15:49:49.149Z</time>
      </trkpt>
      <trkpt lat="43.00528167" lon="-1.143185">
        <ele>820.0</ele>
        <time>2019-07-31T15:49:50.157Z</time>
      </trkpt>
      <trkpt lat="43.00526667" lon="-1.14319667">
        <ele>820.0</ele>
        <time>2019-07-31T15:49:51.162Z</time>
      </trkpt>
      <trkpt lat="43.00525333" lon="-1.14320667">
        <ele>820.0</ele>
        <time>2019-07-31T15:49:52.167Z</time>
      </trkpt>
      <trkpt lat="43.00523833" lon="-1.14321667">
        <ele>820.0</ele>
        <time>2019-07-31T15:49:53.174Z</time>
      </trkpt>
      <trkpt lat="43.00522333" lon="-1.14322833">
        <ele>820.0</ele>
        <time>2019-07-31T15:49:54.179Z</time>
      </trkpt>
      <trkpt lat="43.00521167" lon="-1.14324">
        <ele>820.0</ele>
        <time>2019-07-31T15:49:55.186Z</time>
      </trkpt>
      <trkpt lat="43.00519833" lon="-1.143255">
        <ele>820.0</ele>
        <time>2019-07-31T15:49:56.068Z</time>
      </trkpt>
      <trkpt lat="43.00518667" lon="-1.14326333">
        <ele>820.0</ele>
        <time>2019-07-31T15:49:57.073Z</time>
      </trkpt>
      <trkpt lat="43.00517333" lon="-1.14327167">
        <ele>821.0</ele>
        <time>2019-07-31T15:49:58.078Z</time>
      </trkpt>
      <trkpt lat="43.00516" lon="-1.143285">
        <ele>821.0</ele>
        <time>2019-07-31T15:49:59.084Z</time>
      </trkpt>
      <trkpt lat="43.00514833" lon="-1.14329667">
        <ele>821.0</ele>
        <time>2019-07-31T15:50:00.088Z</time>
      </trkpt>
      <trkpt lat="43.005135" lon="-1.14330833">
        <ele>821.0</ele>
        <time>2019-07-31T15:50:01.093Z</time>
      </trkpt>
      <trkpt lat="43.00512333" lon="-1.14332">
        <ele>820.0</ele>
        <time>2019-07-31T15:50:02.097Z</time>
      </trkpt>
      <trkpt lat="43.00510833" lon="-1.14333167">
        <ele>821.0</ele>
        <time>2019-07-31T15:50:03.102Z</time>
      </trkpt>
      <trkpt lat="43.00509833" lon="-1.14334333">
        <ele>821.0</ele>
        <time>2019-07-31T15:50:04.108Z</time>
      </trkpt>
      <trkpt lat="43.00508333" lon="-1.14335333">
        <ele>821.0</ele>
        <time>2019-07-31T15:50:05.113Z</time>
      </trkpt>
      <trkpt lat="43.00507" lon="-1.14336667">
        <ele>821.0</ele>
        <time>2019-07-31T15:50:06.117Z</time>
      </trkpt>
      <trkpt lat="43.005055" lon="-1.14338">
        <ele>822.0</ele>
        <time>2019-07-31T15:50:07.121Z</time>
      </trkpt>
      <trkpt lat="43.005045" lon="-1.14339">
        <ele>821.0</ele>
        <time>2019-07-31T15:50:08.125Z</time>
      </trkpt>
      <trkpt lat="43.00503167" lon="-1.14340167">
        <ele>822.0</ele>
        <time>2019-07-31T15:50:09.131Z</time>
      </trkpt>
      <trkpt lat="43.00502" lon="-1.14341167">
        <ele>822.0</ele>
        <time>2019-07-31T15:50:10.137Z</time>
      </trkpt>
      <trkpt lat="43.005005" lon="-1.143425">
        <ele>822.0</ele>
        <time>2019-07-31T15:50:11.140Z</time>
      </trkpt>
      <trkpt lat="43.00499333" lon="-1.143435">
        <ele>822.0</ele>
        <time>2019-07-31T15:50:12.144Z</time>
      </trkpt>
      <trkpt lat="43.00497833" lon="-1.14344667">
        <ele>823.0</ele>
        <time>2019-07-31T15:50:13.150Z</time>
      </trkpt>
      <trkpt lat="43.00496667" lon="-1.14346">
        <ele>823.0</ele>
        <time>2019-07-31T15:50:14.156Z</time>
      </trkpt>
      <trkpt lat="43.00495167" lon="-1.14347167">
        <ele>823.0</ele>
        <time>2019-07-31T15:50:15.161Z</time>
      </trkpt>
      <trkpt lat="43.00494" lon="-1.14348167">
        <ele>823.0</ele>
        <time>2019-07-31T15:50:16.168Z</time>
      </trkpt>
      <trkpt lat="43.004925" lon="-1.14349">
        <ele>824.0</ele>
        <time>2019-07-31T15:50:17.175Z</time>
      </trkpt>
      <trkpt lat="43.00491" lon="-1.14350167">
        <ele>824.0</ele>
        <time>2019-07-31T15:50:18.180Z</time>
      </trkpt>
      <trkpt lat="43.00489667" lon="-1.14351333">
        <ele>824.0</ele>
        <time>2019-07-31T15:50:19.185Z</time>
      </trkpt>
      <trkpt lat="43.00488333" lon="-1.143525">
        <ele>824.0</ele>
        <time>2019-07-31T15:50:20.064Z</time>
      </trkpt>
      <trkpt lat="43.00487" lon="-1.14353333">
        <ele>824.0</ele>
        <time>2019-07-31T15:50:21.069Z</time>
      </trkpt>
      <trkpt lat="43.00485667" lon="-1.14354333">
        <ele>824.0</ele>
        <time>2019-07-31T15:50:22.072Z</time>
      </trkpt>
      <trkpt lat="43.00484167" lon="-1.14355">
        <ele>824.0</ele>
        <time>2019-07-31T15:50:23.077Z</time>
      </trkpt>
      <trkpt lat="43.00482833" lon="-1.14355667">
        <ele>824.0</ele>
        <time>2019-07-31T15:50:24.082Z</time>
      </trkpt>
      <trkpt lat="43.004815" lon="-1.143565">
        <ele>824.0</ele>
        <time>2019-07-31T15:50:25.088Z</time>
      </trkpt>
      <trkpt lat="43.00480167" lon="-1.143575">
        <ele>824.0</ele>
        <time>2019-07-31T15:50:26.091Z</time>
      </trkpt>
      <trkpt lat="43.004785" lon="-1.14358167">
        <ele>825.0</ele>
        <time>2019-07-31T15:50:27.096Z</time>
      </trkpt>
      <trkpt lat="43.00477167" lon="-1.14359">
        <ele>825.0</ele>
        <time>2019-07-31T15:50:28.102Z</time>
      </trkpt>
      <trkpt lat="43.004755" lon="-1.14359167">
        <ele>826.0</ele>
        <time>2019-07-31T15:50:29.108Z</time>
      </trkpt>
      <trkpt lat="43.00474167" lon="-1.14359667">
        <ele>826.0</ele>
        <time>2019-07-31T15:50:30.111Z</time>
      </trkpt>
      <trkpt lat="43.004725" lon="-1.14360333">
        <ele>827.0</ele>
        <time>2019-07-31T15:50:31.116Z</time>
      </trkpt>
      <trkpt lat="43.00471" lon="-1.14361">
        <ele>827.0</ele>
        <time>2019-07-31T15:50:32.122Z</time>
      </trkpt>
      <trkpt lat="43.004695" lon="-1.14361667">
        <ele>827.0</ele>
        <time>2019-07-31T15:50:33.126Z</time>
      </trkpt>
      <trkpt lat="43.00468167" lon="-1.14362833">
        <ele>827.0</ele>
        <time>2019-07-31T15:50:34.132Z</time>
      </trkpt>
      <trkpt lat="43.00466833" lon="-1.14363667">
        <ele>827.0</ele>
        <time>2019-07-31T15:50:35.138Z</time>
      </trkpt>
      <trkpt lat="43.00465167" lon="-1.143645">
        <ele>827.0</ele>
        <time>2019-07-31T15:50:36.145Z</time>
      </trkpt>
      <trkpt lat="43.00463667" lon="-1.14365333">
        <ele>827.0</ele>
        <time>2019-07-31T15:50:37.150Z</time>
      </trkpt>
      <trkpt lat="43.00462167" lon="-1.14366167">
        <ele>827.0</ele>
        <time>2019-07-31T15:50:38.154Z</time>
      </trkpt>
      <trkpt lat="43.00460667" lon="-1.14367">
        <ele>827.0</ele>
        <time>2019-07-31T15:50:39.159Z</time>
      </trkpt>
      <trkpt lat="43.00459167" lon="-1.14367667">
        <ele>827.0</ele>
        <time>2019-07-31T15:50:40.166Z</time>
      </trkpt>
      <trkpt lat="43.00457667" lon="-1.14368667">
        <ele>827.0</ele>
        <time>2019-07-31T15:50:41.172Z</time>
      </trkpt>
      <trkpt lat="43.00456333" lon="-1.143695">
        <ele>827.0</ele>
        <time>2019-07-31T15:50:42.179Z</time>
      </trkpt>
      <trkpt lat="43.00454833" lon="-1.14370833">
        <ele>827.0</ele>
        <time>2019-07-31T15:50:43.184Z</time>
      </trkpt>
      <trkpt lat="43.00453667" lon="-1.14371833">
        <ele>826.0</ele>
        <time>2019-07-31T15:50:44.065Z</time>
      </trkpt>
      <trkpt lat="43.00452333" lon="-1.14372833">
        <ele>826.0</ele>
        <time>2019-07-31T15:50:45.070Z</time>
      </trkpt>
      <trkpt lat="43.00450833" lon="-1.14373667">
        <ele>826.0</ele>
        <time>2019-07-31T15:50:46.077Z</time>
      </trkpt>
      <trkpt lat="43.00449333" lon="-1.14374667">
        <ele>826.0</ele>
        <time>2019-07-31T15:50:47.081Z</time>
      </trkpt>
      <trkpt lat="43.00448" lon="-1.14375833">
        <ele>826.0</ele>
        <time>2019-07-31T15:50:48.086Z</time>
      </trkpt>
      <trkpt lat="43.004465" lon="-1.14376833">
        <ele>826.0</ele>
        <time>2019-07-31T15:50:49.093Z</time>
      </trkpt>
      <trkpt lat="43.00445167" lon="-1.14378333">
        <ele>827.0</ele>
        <time>2019-07-31T15:50:50.099Z</time>
      </trkpt>
      <trkpt lat="43.00443667" lon="-1.14379667">
        <ele>827.0</ele>
        <time>2019-07-31T15:50:51.099Z</time>
      </trkpt>
      <trkpt lat="43.00442333" lon="-1.14380833">
        <ele>826.0</ele>
        <time>2019-07-31T15:50:52.104Z</time>
      </trkpt>
      <trkpt lat="43.00440833" lon="-1.14381833">
        <ele>827.0</ele>
        <time>2019-07-31T15:50:53.112Z</time>
      </trkpt>
      <trkpt lat="43.00439667" lon="-1.14383">
        <ele>826.0</ele>
        <time>2019-07-31T15:50:54.118Z</time>
      </trkpt>
      <trkpt lat="43.004385" lon="-1.14384167">
        <ele>826.0</ele>
        <time>2019-07-31T15:50:55.123Z</time>
      </trkpt>
      <trkpt lat="43.00437167" lon="-1.143855">
        <ele>826.0</ele>
        <time>2019-07-31T15:50:56.128Z</time>
      </trkpt>
      <trkpt lat="43.00436" lon="-1.14386833">
        <ele>826.0</ele>
        <time>2019-07-31T15:50:57.136Z</time>
      </trkpt>
      <trkpt lat="43.00434833" lon="-1.14388167">
        <ele>825.0</ele>
        <time>2019-07-31T15:50:58.142Z</time>
      </trkpt>
      <trkpt lat="43.004335" lon="-1.14389333">
        <ele>825.0</ele>
        <time>2019-07-31T15:50:59.147Z</time>
      </trkpt>
      <trkpt lat="43.00432" lon="-1.14390833">
        <ele>825.0</ele>
        <time>2019-07-31T15:51:00.150Z</time>
      </trkpt>
      <trkpt lat="43.00430667" lon="-1.14392333">
        <ele>825.0</ele>
        <time>2019-07-31T15:51:01.154Z</time>
      </trkpt>
      <trkpt lat="43.004295" lon="-1.14393833">
        <ele>825.0</ele>
        <time>2019-07-31T15:51:02.161Z</time>
      </trkpt>
      <trkpt lat="43.00428333" lon="-1.143955">
        <ele>825.0</ele>
        <time>2019-07-31T15:51:03.167Z</time>
      </trkpt>
      <trkpt lat="43.00427167" lon="-1.14397333">
        <ele>825.0</ele>
        <time>2019-07-31T15:51:04.172Z</time>
      </trkpt>
      <trkpt lat="43.00426167" lon="-1.14399167">
        <ele>825.0</ele>
        <time>2019-07-31T15:51:05.177Z</time>
      </trkpt>
      <trkpt lat="43.00425" lon="-1.14400833">
        <ele>825.0</ele>
        <time>2019-07-31T15:51:06.183Z</time>
      </trkpt>
      <trkpt lat="43.00424" lon="-1.14402833">
        <ele>825.0</ele>
        <time>2019-07-31T15:51:07.062Z</time>
      </trkpt>
      <trkpt lat="43.00423" lon="-1.144045">
        <ele>825.0</ele>
        <time>2019-07-31T15:51:08.064Z</time>
      </trkpt>
      <trkpt lat="43.00422167" lon="-1.144065">
        <ele>824.0</ele>
        <time>2019-07-31T15:51:09.069Z</time>
      </trkpt>
      <trkpt lat="43.00421167" lon="-1.14407833">
        <ele>824.0</ele>
        <time>2019-07-31T15:51:10.072Z</time>
      </trkpt>
      <trkpt lat="43.00420333" lon="-1.14409333">
        <ele>824.0</ele>
        <time>2019-07-31T15:51:11.072Z</time>
      </trkpt>
      <trkpt lat="43.004195" lon="-1.14411">
        <ele>824.0</ele>
        <time>2019-07-31T15:51:12.077Z</time>
      </trkpt>
      <trkpt lat="43.00418333" lon="-1.144125">
        <ele>824.0</ele>
        <time>2019-07-31T15:51:13.082Z</time>
      </trkpt>
      <trkpt lat="43.004175" lon="-1.14414167">
        <ele>824.0</ele>
        <time>2019-07-31T15:51:14.087Z</time>
      </trkpt>
      <trkpt lat="43.004165" lon="-1.14416">
        <ele>824.0</ele>
        <time>2019-07-31T15:51:15.092Z</time>
      </trkpt>
      <trkpt lat="43.00415667" lon="-1.14417667">
        <ele>824.0</ele>
        <time>2019-07-31T15:51:16.099Z</time>
      </trkpt>
      <trkpt lat="43.00415" lon="-1.14419333">
        <ele>823.0</ele>
        <time>2019-07-31T15:51:17.105Z</time>
      </trkpt>
      <trkpt lat="43.00414167" lon="-1.14421">
        <ele>823.0</ele>
        <time>2019-07-31T15:51:18.111Z</time>
      </trkpt>
      <trkpt lat="43.00412833" lon="-1.14422667">
        <ele>824.0</ele>
        <time>2019-07-31T15:51:19.117Z</time>
      </trkpt>
      <trkpt lat="43.00412" lon="-1.14424333">
        <ele>824.0</ele>
        <time>2019-07-31T15:51:20.122Z</time>
      </trkpt>
      <trkpt lat="43.00411" lon="-1.14426167">
        <ele>824.0</ele>
        <time>2019-07-31T15:51:21.124Z</time>
      </trkpt>
      <trkpt lat="43.00409833" lon="-1.14427833">
        <ele>824.0</ele>
        <time>2019-07-31T15:51:22.130Z</time>
      </trkpt>
      <trkpt lat="43.00409" lon="-1.144295">
        <ele>824.0</ele>
        <time>2019-07-31T15:51:23.137Z</time>
      </trkpt>
      <trkpt lat="43.00408167" lon="-1.14431167">
        <ele>823.0</ele>
        <time>2019-07-31T15:51:24.143Z</time>
      </trkpt>
      <trkpt lat="43.00407167" lon="-1.14432833">
        <ele>823.0</ele>
        <time>2019-07-31T15:51:25.148Z</time>
      </trkpt>
      <trkpt lat="43.00406167" lon="-1.14434333">
        <ele>823.0</ele>
        <time>2019-07-31T15:51:26.153Z</time>
      </trkpt>
      <trkpt lat="43.00405333" lon="-1.14436">
        <ele>823.0</ele>
        <time>2019-07-31T15:51:27.159Z</time>
      </trkpt>
      <trkpt lat="43.00404667" lon="-1.14437667">
        <ele>823.0</ele>
        <time>2019-07-31T15:51:28.164Z</time>
      </trkpt>
      <trkpt lat="43.00403667" lon="-1.14439167">
        <ele>823.0</ele>
        <time>2019-07-31T15:51:29.169Z</time>
      </trkpt>
      <trkpt lat="43.004025" lon="-1.14441">
        <ele>822.0</ele>
        <time>2019-07-31T15:51:30.176Z</time>
      </trkpt>
      <trkpt lat="43.00401833" lon="-1.14442667">
        <ele>822.0</ele>
        <time>2019-07-31T15:51:31.183Z</time>
      </trkpt>
      <trkpt lat="43.00400833" lon="-1.14444167">
        <ele>823.0</ele>
        <time>2019-07-31T15:51:32.063Z</time>
      </trkpt>
      <trkpt lat="43.004" lon="-1.14446">
        <ele>823.0</ele>
        <time>2019-07-31T15:51:33.069Z</time>
      </trkpt>
      <trkpt lat="43.00399167" lon="-1.14447667">
        <ele>823.0</ele>
        <time>2019-07-31T15:51:34.076Z</time>
      </trkpt>
      <trkpt lat="43.003985" lon="-1.144495">
        <ele>822.0</ele>
        <time>2019-07-31T15:51:35.079Z</time>
      </trkpt>
      <trkpt lat="43.00397667" lon="-1.14451167">
        <ele>822.0</ele>
        <time>2019-07-31T15:51:36.082Z</time>
      </trkpt>
      <trkpt lat="43.00396667" lon="-1.14452833">
        <ele>822.0</ele>
        <time>2019-07-31T15:51:37.085Z</time>
      </trkpt>
      <trkpt lat="43.00396" lon="-1.14454667">
        <ele>822.0</ele>
        <time>2019-07-31T15:51:38.091Z</time>
      </trkpt>
      <trkpt lat="43.00394833" lon="-1.14456333">
        <ele>822.0</ele>
        <time>2019-07-31T15:51:39.096Z</time>
      </trkpt>
      <trkpt lat="43.00393667" lon="-1.14458167">
        <ele>822.0</ele>
        <time>2019-07-31T15:51:40.099Z</time>
      </trkpt>
      <trkpt lat="43.00392333" lon="-1.14460167">
        <ele>822.0</ele>
        <time>2019-07-31T15:51:41.106Z</time>
      </trkpt>
      <trkpt lat="43.00391167" lon="-1.14461833">
        <ele>822.0</ele>
        <time>2019-07-31T15:51:42.111Z</time>
      </trkpt>
      <trkpt lat="43.00390333" lon="-1.14463833">
        <ele>822.0</ele>
        <time>2019-07-31T15:51:43.117Z</time>
      </trkpt>
      <trkpt lat="43.003895" lon="-1.14466">
        <ele>822.0</ele>
        <time>2019-07-31T15:51:44.123Z</time>
      </trkpt>
      <trkpt lat="43.00388667" lon="-1.144675">
        <ele>822.0</ele>
        <time>2019-07-31T15:51:45.126Z</time>
      </trkpt>
      <trkpt lat="43.00388" lon="-1.14469">
        <ele>823.0</ele>
        <time>2019-07-31T15:51:46.130Z</time>
      </trkpt>
      <trkpt lat="43.00387" lon="-1.144705">
        <ele>824.0</ele>
        <time>2019-07-31T15:51:47.134Z</time>
      </trkpt>
      <trkpt lat="43.00386167" lon="-1.14471833">
        <ele>824.0</ele>
        <time>2019-07-31T15:51:48.140Z</time>
      </trkpt>
      <trkpt lat="43.00385333" lon="-1.14473333">
        <ele>824.0</ele>
        <time>2019-07-31T15:51:49.146Z</time>
      </trkpt>
      <trkpt lat="43.003845" lon="-1.14475">
        <ele>824.0</ele>
        <time>2019-07-31T15:51:50.150Z</time>
      </trkpt>
      <trkpt lat="43.003835" lon="-1.14475833">
        <ele>824.0</ele>
        <time>2019-07-31T15:51:51.155Z</time>
      </trkpt>
      <trkpt lat="43.00382833" lon="-1.14476833">
        <ele>824.0</ele>
        <time>2019-07-31T15:51:52.162Z</time>
      </trkpt>
      <trkpt lat="43.00381667" lon="-1.144785">
        <ele>826.0</ele>
        <time>2019-07-31T15:51:53.167Z</time>
      </trkpt>
      <trkpt lat="43.003805" lon="-1.14479">
        <ele>827.0</ele>
        <time>2019-07-31T15:51:54.172Z</time>
      </trkpt>
      <trkpt lat="43.00379" lon="-1.14480167">
        <ele>828.0</ele>
        <time>2019-07-31T15:51:55.179Z</time>
      </trkpt>
      <trkpt lat="43.00377833" lon="-1.14480667">
        <ele>829.0</ele>
        <time>2019-07-31T15:51:56.186Z</time>
      </trkpt>
      <trkpt lat="43.003765" lon="-1.14482">
        <ele>829.0</ele>
        <time>2019-07-31T15:51:57.064Z</time>
      </trkpt>
      <trkpt lat="43.00375833" lon="-1.14483833">
        <ele>829.0</ele>
        <time>2019-07-31T15:51:58.070Z</time>
      </trkpt>
      <trkpt lat="43.00374667" lon="-1.144855">
        <ele>828.0</ele>
        <time>2019-07-31T15:51:59.075Z</time>
      </trkpt>
      <trkpt lat="43.00373667" lon="-1.14487167">
        <ele>828.0</ele>
        <time>2019-07-31T15:52:00.079Z</time>
      </trkpt>
      <trkpt lat="43.003725" lon="-1.14487833">
        <ele>829.0</ele>
        <time>2019-07-31T15:52:01.081Z</time>
      </trkpt>
      <trkpt lat="43.00371" lon="-1.14489667">
        <ele>829.0</ele>
        <time>2019-07-31T15:52:02.087Z</time>
      </trkpt>
      <trkpt lat="43.00369667" lon="-1.14491167">
        <ele>830.0</ele>
        <time>2019-07-31T15:52:03.093Z</time>
      </trkpt>
      <trkpt lat="43.00369" lon="-1.14492833">
        <ele>831.0</ele>
        <time>2019-07-31T15:52:04.097Z</time>
      </trkpt>
      <trkpt lat="43.00367833" lon="-1.14494">
        <ele>831.0</ele>
        <time>2019-07-31T15:52:05.102Z</time>
      </trkpt>
      <trkpt lat="43.00367333" lon="-1.14495833">
        <ele>830.0</ele>
        <time>2019-07-31T15:52:06.106Z</time>
      </trkpt>
      <trkpt lat="43.00366667" lon="-1.14497833">
        <ele>828.0</ele>
        <time>2019-07-31T15:52:07.110Z</time>
      </trkpt>
      <trkpt lat="43.00365667" lon="-1.144995">
        <ele>829.0</ele>
        <time>2019-07-31T15:52:08.116Z</time>
      </trkpt>
      <trkpt lat="43.00364833" lon="-1.14500667">
        <ele>829.0</ele>
        <time>2019-07-31T15:52:09.118Z</time>
      </trkpt>
      <trkpt lat="43.00364167" lon="-1.14501667">
        <ele>830.0</ele>
        <time>2019-07-31T15:52:10.124Z</time>
      </trkpt>
      <trkpt lat="43.00363333" lon="-1.14502833">
        <ele>830.0</ele>
        <time>2019-07-31T15:52:11.127Z</time>
      </trkpt>
      <trkpt lat="43.003625" lon="-1.14504167">
        <ele>830.0</ele>
        <time>2019-07-31T15:52:12.133Z</time>
      </trkpt>
      <trkpt lat="43.00361333" lon="-1.145055">
        <ele>830.0</ele>
        <time>2019-07-31T15:52:13.137Z</time>
      </trkpt>
      <trkpt lat="43.00360167" lon="-1.145065">
        <ele>831.0</ele>
        <time>2019-07-31T15:52:14.141Z</time>
      </trkpt>
      <trkpt lat="43.00359167" lon="-1.14507667">
        <ele>832.0</ele>
        <time>2019-07-31T15:52:15.146Z</time>
      </trkpt>
      <trkpt lat="43.00358167" lon="-1.14509167">
        <ele>832.0</ele>
        <time>2019-07-31T15:52:16.152Z</time>
      </trkpt>
      <trkpt lat="43.00357167" lon="-1.145105">
        <ele>832.0</ele>
        <time>2019-07-31T15:52:17.158Z</time>
      </trkpt>
      <trkpt lat="43.00356167" lon="-1.14511667">
        <ele>833.0</ele>
        <time>2019-07-31T15:52:18.163Z</time>
      </trkpt>
      <trkpt lat="43.00355167" lon="-1.14513">
        <ele>832.0</ele>
        <time>2019-07-31T15:52:19.168Z</time>
      </trkpt>
      <trkpt lat="43.00353833" lon="-1.14514167">
        <ele>833.0</ele>
        <time>2019-07-31T15:52:20.173Z</time>
      </trkpt>
      <trkpt lat="43.00352667" lon="-1.14515667">
        <ele>833.0</ele>
        <time>2019-07-31T15:52:21.181Z</time>
      </trkpt>
      <trkpt lat="43.00351333" lon="-1.14517167">
        <ele>833.0</ele>
        <time>2019-07-31T15:52:22.061Z</time>
      </trkpt>
      <trkpt lat="43.00350333" lon="-1.14518667">
        <ele>832.0</ele>
        <time>2019-07-31T15:52:23.067Z</time>
      </trkpt>
      <trkpt lat="43.00349167" lon="-1.14520333">
        <ele>832.0</ele>
        <time>2019-07-31T15:52:24.072Z</time>
      </trkpt>
      <trkpt lat="43.00347667" lon="-1.145215">
        <ele>832.0</ele>
        <time>2019-07-31T15:52:25.079Z</time>
      </trkpt>
      <trkpt lat="43.00346667" lon="-1.14522833">
        <ele>832.0</ele>
        <time>2019-07-31T15:52:26.083Z</time>
      </trkpt>
      <trkpt lat="43.00345167" lon="-1.14523833">
        <ele>832.0</ele>
        <time>2019-07-31T15:52:27.089Z</time>
      </trkpt>
      <trkpt lat="43.00343833" lon="-1.14525">
        <ele>832.0</ele>
        <time>2019-07-31T15:52:28.093Z</time>
      </trkpt>
      <trkpt lat="43.003425" lon="-1.14526167">
        <ele>832.0</ele>
        <time>2019-07-31T15:52:29.098Z</time>
      </trkpt>
      <trkpt lat="43.00341333" lon="-1.14527667">
        <ele>831.0</ele>
        <time>2019-07-31T15:52:30.104Z</time>
      </trkpt>
      <trkpt lat="43.00340333" lon="-1.14528333">
        <ele>832.0</ele>
        <time>2019-07-31T15:52:31.111Z</time>
      </trkpt>
      <trkpt lat="43.00338667" lon="-1.145295">
        <ele>832.0</ele>
        <time>2019-07-31T15:52:32.118Z</time>
      </trkpt>
      <trkpt lat="43.00337" lon="-1.14530167">
        <ele>831.0</ele>
        <time>2019-07-31T15:52:33.125Z</time>
      </trkpt>
      <trkpt lat="43.00335667" lon="-1.14531333">
        <ele>831.0</ele>
        <time>2019-07-31T15:52:34.129Z</time>
      </trkpt>
      <trkpt lat="43.00334333" lon="-1.145325">
        <ele>831.0</ele>
        <time>2019-07-31T15:52:35.135Z</time>
      </trkpt>
      <trkpt lat="43.00332833" lon="-1.14533667">
        <ele>831.0</ele>
        <time>2019-07-31T15:52:36.141Z</time>
      </trkpt>
      <trkpt lat="43.00331333" lon="-1.14534833">
        <ele>831.0</ele>
        <time>2019-07-31T15:52:37.148Z</time>
      </trkpt>
      <trkpt lat="43.00329833" lon="-1.14535833">
        <ele>831.0</ele>
        <time>2019-07-31T15:52:38.153Z</time>
      </trkpt>
      <trkpt lat="43.00328333" lon="-1.14536667">
        <ele>831.0</ele>
        <time>2019-07-31T15:52:39.159Z</time>
      </trkpt>
      <trkpt lat="43.00326833" lon="-1.14537333">
        <ele>831.0</ele>
        <time>2019-07-31T15:52:40.163Z</time>
      </trkpt>
      <trkpt lat="43.003255" lon="-1.14538167">
        <ele>831.0</ele>
        <time>2019-07-31T15:52:41.168Z</time>
      </trkpt>
      <trkpt lat="43.00323833" lon="-1.14539333">
        <ele>831.0</ele>
        <time>2019-07-31T15:52:42.174Z</time>
      </trkpt>
      <trkpt lat="43.00322333" lon="-1.145405">
        <ele>831.0</ele>
        <time>2019-07-31T15:52:43.181Z</time>
      </trkpt>
      <trkpt lat="43.00321" lon="-1.14541667">
        <ele>831.0</ele>
        <time>2019-07-31T15:52:44.186Z</time>
      </trkpt>
      <trkpt lat="43.003195" lon="-1.14543">
        <ele>831.0</ele>
        <time>2019-07-31T15:52:45.065Z</time>
      </trkpt>
      <trkpt lat="43.00318167" lon="-1.14544333">
        <ele>831.0</ele>
        <time>2019-07-31T15:52:46.071Z</time>
      </trkpt>
      <trkpt lat="43.00316667" lon="-1.14545333">
        <ele>831.0</ele>
        <time>2019-07-31T15:52:47.078Z</time>
      </trkpt>
      <trkpt lat="43.00315333" lon="-1.14545833">
        <ele>831.0</ele>
        <time>2019-07-31T15:52:48.084Z</time>
      </trkpt>
      <trkpt lat="43.00313833" lon="-1.14546833">
        <ele>831.0</ele>
        <time>2019-07-31T15:52:49.088Z</time>
      </trkpt>
      <trkpt lat="43.00312333" lon="-1.14547333">
        <ele>832.0</ele>
        <time>2019-07-31T15:52:50.093Z</time>
      </trkpt>
      <trkpt lat="43.00310667" lon="-1.14547667">
        <ele>833.0</ele>
        <time>2019-07-31T15:52:51.098Z</time>
      </trkpt>
      <trkpt lat="43.00309167" lon="-1.145485">
        <ele>833.0</ele>
        <time>2019-07-31T15:52:52.103Z</time>
      </trkpt>
      <trkpt lat="43.00307667" lon="-1.14549">
        <ele>834.0</ele>
        <time>2019-07-31T15:52:53.109Z</time>
      </trkpt>
      <trkpt lat="43.00306167" lon="-1.14549667">
        <ele>834.0</ele>
        <time>2019-07-31T15:52:54.114Z</time>
      </trkpt>
      <trkpt lat="43.00304667" lon="-1.14550333">
        <ele>834.0</ele>
        <time>2019-07-31T15:52:55.119Z</time>
      </trkpt>
      <trkpt lat="43.00303167" lon="-1.14551167">
        <ele>834.0</ele>
        <time>2019-07-31T15:52:56.125Z</time>
      </trkpt>
      <trkpt lat="43.00301833" lon="-1.14551833">
        <ele>834.0</ele>
        <time>2019-07-31T15:52:57.130Z</time>
      </trkpt>
      <trkpt lat="43.00300333" lon="-1.14552167">
        <ele>835.0</ele>
        <time>2019-07-31T15:52:58.137Z</time>
      </trkpt>
      <trkpt lat="43.00299" lon="-1.14552833">
        <ele>835.0</ele>
        <time>2019-07-31T15:52:59.142Z</time>
      </trkpt>
      <trkpt lat="43.00297333" lon="-1.14553333">
        <ele>835.0</ele>
        <time>2019-07-31T15:53:00.147Z</time>
      </trkpt>
      <trkpt lat="43.00296" lon="-1.14553333">
        <ele>836.0</ele>
        <time>2019-07-31T15:53:01.154Z</time>
      </trkpt>
      <trkpt lat="43.00294667" lon="-1.14553333">
        <ele>836.0</ele>
        <time>2019-07-31T15:53:02.160Z</time>
      </trkpt>
      <trkpt lat="43.00293333" lon="-1.14552833">
        <ele>836.0</ele>
        <time>2019-07-31T15:53:03.167Z</time>
      </trkpt>
      <trkpt lat="43.00292" lon="-1.14552333">
        <ele>836.0</ele>
        <time>2019-07-31T15:53:04.171Z</time>
      </trkpt>
      <trkpt lat="43.002905" lon="-1.14552">
        <ele>836.0</ele>
        <time>2019-07-31T15:53:05.178Z</time>
      </trkpt>
      <trkpt lat="43.00289" lon="-1.14551667">
        <ele>837.0</ele>
        <time>2019-07-31T15:53:06.181Z</time>
      </trkpt>
      <trkpt lat="43.00287333" lon="-1.145515">
        <ele>837.0</ele>
        <time>2019-07-31T15:53:07.185Z</time>
      </trkpt>
      <trkpt lat="43.00285833" lon="-1.14551">
        <ele>838.0</ele>
        <time>2019-07-31T15:53:08.066Z</time>
      </trkpt>
      <trkpt lat="43.002845" lon="-1.14550333">
        <ele>839.0</ele>
        <time>2019-07-31T15:53:09.073Z</time>
      </trkpt>
      <trkpt lat="43.00283167" lon="-1.14549833">
        <ele>838.0</ele>
        <time>2019-07-31T15:53:10.079Z</time>
      </trkpt>
      <trkpt lat="43.00281833" lon="-1.14549667">
        <ele>838.0</ele>
        <time>2019-07-31T15:53:11.086Z</time>
      </trkpt>
      <trkpt lat="43.002805" lon="-1.14549667">
        <ele>838.0</ele>
        <time>2019-07-31T15:53:12.091Z</time>
      </trkpt>
      <trkpt lat="43.00279167" lon="-1.145495">
        <ele>838.0</ele>
        <time>2019-07-31T15:53:13.097Z</time>
      </trkpt>
      <trkpt lat="43.00277833" lon="-1.14549167">
        <ele>837.0</ele>
        <time>2019-07-31T15:53:14.101Z</time>
      </trkpt>
      <trkpt lat="43.00276333" lon="-1.14549167">
        <ele>837.0</ele>
        <time>2019-07-31T15:53:15.107Z</time>
      </trkpt>
      <trkpt lat="43.00274833" lon="-1.14548833">
        <ele>837.0</ele>
        <time>2019-07-31T15:53:16.113Z</time>
      </trkpt>
      <trkpt lat="43.00273333" lon="-1.14548833">
        <ele>836.0</ele>
        <time>2019-07-31T15:53:17.119Z</time>
      </trkpt>
      <trkpt lat="43.00271833" lon="-1.14548833">
        <ele>837.0</ele>
        <time>2019-07-31T15:53:18.125Z</time>
      </trkpt>
      <trkpt lat="43.002705" lon="-1.145485">
        <ele>837.0</ele>
        <time>2019-07-31T15:53:19.130Z</time>
      </trkpt>
      <trkpt lat="43.00268833" lon="-1.14548167">
        <ele>837.0</ele>
        <time>2019-07-31T15:53:20.133Z</time>
      </trkpt>
      <trkpt lat="43.00267167" lon="-1.14547833">
        <ele>837.0</ele>
        <time>2019-07-31T15:53:21.138Z</time>
      </trkpt>
      <trkpt lat="43.002655" lon="-1.14547333">
        <ele>838.0</ele>
        <time>2019-07-31T15:53:22.144Z</time>
      </trkpt>
      <trkpt lat="43.00263833" lon="-1.14547167">
        <ele>838.0</ele>
        <time>2019-07-31T15:53:23.149Z</time>
      </trkpt>
      <trkpt lat="43.00262167" lon="-1.145475">
        <ele>837.0</ele>
        <time>2019-07-31T15:53:24.156Z</time>
      </trkpt>
      <trkpt lat="43.00260667" lon="-1.14547833">
        <ele>837.0</ele>
        <time>2019-07-31T15:53:25.161Z</time>
      </trkpt>
      <trkpt lat="43.00259167" lon="-1.14548">
        <ele>837.0</ele>
        <time>2019-07-31T15:53:26.167Z</time>
      </trkpt>
      <trkpt lat="43.00257667" lon="-1.14548">
        <ele>837.0</ele>
        <time>2019-07-31T15:53:27.173Z</time>
      </trkpt>
      <trkpt lat="43.00256333" lon="-1.14548">
        <ele>838.0</ele>
        <time>2019-07-31T15:53:28.180Z</time>
      </trkpt>
      <trkpt lat="43.00255" lon="-1.14548333">
        <ele>837.0</ele>
        <time>2019-07-31T15:53:29.186Z</time>
      </trkpt>
      <trkpt lat="43.002535" lon="-1.14548333">
        <ele>837.0</ele>
        <time>2019-07-31T15:53:30.066Z</time>
      </trkpt>
      <trkpt lat="43.00251833" lon="-1.145485">
        <ele>837.0</ele>
        <time>2019-07-31T15:53:31.070Z</time>
      </trkpt>
      <trkpt lat="43.00250167" lon="-1.14548667">
        <ele>838.0</ele>
        <time>2019-07-31T15:53:32.075Z</time>
      </trkpt>
      <trkpt lat="43.002485" lon="-1.14548833">
        <ele>839.0</ele>
        <time>2019-07-31T15:53:33.082Z</time>
      </trkpt>
      <trkpt lat="43.00246833" lon="-1.14548667">
        <ele>839.0</ele>
        <time>2019-07-31T15:53:34.086Z</time>
      </trkpt>
      <trkpt lat="43.00245333" lon="-1.14549">
        <ele>839.0</ele>
        <time>2019-07-31T15:53:35.092Z</time>
      </trkpt>
      <trkpt lat="43.00243667" lon="-1.14548667">
        <ele>839.0</ele>
        <time>2019-07-31T15:53:36.097Z</time>
      </trkpt>
      <trkpt lat="43.002425" lon="-1.14548667">
        <ele>839.0</ele>
        <time>2019-07-31T15:53:37.100Z</time>
      </trkpt>
      <trkpt lat="43.00240833" lon="-1.145485">
        <ele>839.0</ele>
        <time>2019-07-31T15:53:38.106Z</time>
      </trkpt>
      <trkpt lat="43.00239167" lon="-1.14549">
        <ele>839.0</ele>
        <time>2019-07-31T15:53:39.112Z</time>
      </trkpt>
      <trkpt lat="43.002375" lon="-1.14549167">
        <ele>839.0</ele>
        <time>2019-07-31T15:53:40.119Z</time>
      </trkpt>
      <trkpt lat="43.00235833" lon="-1.14549167">
        <ele>838.0</ele>
        <time>2019-07-31T15:53:41.123Z</time>
      </trkpt>
      <trkpt lat="43.00234167" lon="-1.14549667">
        <ele>838.0</ele>
        <time>2019-07-31T15:53:42.127Z</time>
      </trkpt>
      <trkpt lat="43.00232667" lon="-1.14549667">
        <ele>837.0</ele>
        <time>2019-07-31T15:53:43.132Z</time>
      </trkpt>
      <trkpt lat="43.00231333" lon="-1.145495">
        <ele>837.0</ele>
        <time>2019-07-31T15:53:44.137Z</time>
      </trkpt>
      <trkpt lat="43.00229833" lon="-1.14549167">
        <ele>837.0</ele>
        <time>2019-07-31T15:53:45.142Z</time>
      </trkpt>
      <trkpt lat="43.002285" lon="-1.14549167">
        <ele>837.0</ele>
        <time>2019-07-31T15:53:46.148Z</time>
      </trkpt>
      <trkpt lat="43.00227167" lon="-1.14548833">
        <ele>837.0</ele>
        <time>2019-07-31T15:53:47.154Z</time>
      </trkpt>
      <trkpt lat="43.002255" lon="-1.14548333">
        <ele>837.0</ele>
        <time>2019-07-31T15:53:48.160Z</time>
      </trkpt>
      <trkpt lat="43.00224" lon="-1.14548">
        <ele>836.0</ele>
        <time>2019-07-31T15:53:49.165Z</time>
      </trkpt>
      <trkpt lat="43.00222667" lon="-1.14547667">
        <ele>836.0</ele>
        <time>2019-07-31T15:53:50.170Z</time>
      </trkpt>
      <trkpt lat="43.00221" lon="-1.145475">
        <ele>836.0</ele>
        <time>2019-07-31T15:53:51.176Z</time>
      </trkpt>
      <trkpt lat="43.00219167" lon="-1.14547333">
        <ele>837.0</ele>
        <time>2019-07-31T15:53:52.182Z</time>
      </trkpt>
      <trkpt lat="43.00217667" lon="-1.14546833">
        <ele>836.0</ele>
        <time>2019-07-31T15:53:53.064Z</time>
      </trkpt>
      <trkpt lat="43.00216167" lon="-1.14546333">
        <ele>836.0</ele>
        <time>2019-07-31T15:53:54.065Z</time>
      </trkpt>
      <trkpt lat="43.00214667" lon="-1.145455">
        <ele>836.0</ele>
        <time>2019-07-31T15:53:55.069Z</time>
      </trkpt>
      <trkpt lat="43.00213" lon="-1.14544833">
        <ele>836.0</ele>
        <time>2019-07-31T15:53:56.073Z</time>
      </trkpt>
      <trkpt lat="43.00211833" lon="-1.14543667">
        <ele>836.0</ele>
        <time>2019-07-31T15:53:57.079Z</time>
      </trkpt>
      <trkpt lat="43.002105" lon="-1.14542667">
        <ele>837.0</ele>
        <time>2019-07-31T15:53:58.084Z</time>
      </trkpt>
      <trkpt lat="43.00209" lon="-1.14541667">
        <ele>837.0</ele>
        <time>2019-07-31T15:53:59.091Z</time>
      </trkpt>
      <trkpt lat="43.00207833" lon="-1.145405">
        <ele>837.0</ele>
        <time>2019-07-31T15:54:00.096Z</time>
      </trkpt>
      <trkpt lat="43.002065" lon="-1.145395">
        <ele>837.0</ele>
        <time>2019-07-31T15:54:01.098Z</time>
      </trkpt>
      <trkpt lat="43.00205333" lon="-1.14538667">
        <ele>836.0</ele>
        <time>2019-07-31T15:54:02.100Z</time>
      </trkpt>
      <trkpt lat="43.00204" lon="-1.14537833">
        <ele>836.0</ele>
        <time>2019-07-31T15:54:03.103Z</time>
      </trkpt>
      <trkpt lat="43.00202667" lon="-1.145375">
        <ele>835.0</ele>
        <time>2019-07-31T15:54:04.106Z</time>
      </trkpt>
      <trkpt lat="43.00201167" lon="-1.14537">
        <ele>835.0</ele>
        <time>2019-07-31T15:54:05.108Z</time>
      </trkpt>
      <trkpt lat="43.00199667" lon="-1.14536333">
        <ele>835.0</ele>
        <time>2019-07-31T15:54:06.114Z</time>
      </trkpt>
      <trkpt lat="43.00198333" lon="-1.14535333">
        <ele>835.0</ele>
        <time>2019-07-31T15:54:07.119Z</time>
      </trkpt>
      <trkpt lat="43.00196667" lon="-1.14535167">
        <ele>835.0</ele>
        <time>2019-07-31T15:54:08.125Z</time>
      </trkpt>
      <trkpt lat="43.00195167" lon="-1.145345">
        <ele>835.0</ele>
        <time>2019-07-31T15:54:09.131Z</time>
      </trkpt>
      <trkpt lat="43.00193667" lon="-1.14534">
        <ele>835.0</ele>
        <time>2019-07-31T15:54:10.136Z</time>
      </trkpt>
      <trkpt lat="43.00192167" lon="-1.14533667">
        <ele>836.0</ele>
        <time>2019-07-31T15:54:11.140Z</time>
      </trkpt>
      <trkpt lat="43.001905" lon="-1.145335">
        <ele>835.0</ele>
        <time>2019-07-31T15:54:12.147Z</time>
      </trkpt>
      <trkpt lat="43.00189" lon="-1.14533667">
        <ele>835.0</ele>
        <time>2019-07-31T15:54:13.151Z</time>
      </trkpt>
      <trkpt lat="43.00187667" lon="-1.14533833">
        <ele>835.0</ele>
        <time>2019-07-31T15:54:14.156Z</time>
      </trkpt>
      <trkpt lat="43.00186" lon="-1.14534167">
        <ele>836.0</ele>
        <time>2019-07-31T15:54:15.162Z</time>
      </trkpt>
      <trkpt lat="43.00184167" lon="-1.14534333">
        <ele>836.0</ele>
        <time>2019-07-31T15:54:16.167Z</time>
      </trkpt>
      <trkpt lat="43.00182333" lon="-1.14534333">
        <ele>837.0</ele>
        <time>2019-07-31T15:54:17.173Z</time>
      </trkpt>
      <trkpt lat="43.00180667" lon="-1.14534667">
        <ele>837.0</ele>
        <time>2019-07-31T15:54:18.180Z</time>
      </trkpt>
      <trkpt lat="43.00179167" lon="-1.14535167">
        <ele>837.0</ele>
        <time>2019-07-31T15:54:19.186Z</time>
      </trkpt>
      <trkpt lat="43.00177833" lon="-1.14535833">
        <ele>836.0</ele>
        <time>2019-07-31T15:54:20.065Z</time>
      </trkpt>
      <trkpt lat="43.00176167" lon="-1.14536">
        <ele>835.0</ele>
        <time>2019-07-31T15:54:21.072Z</time>
      </trkpt>
      <trkpt lat="43.001745" lon="-1.14536833">
        <ele>835.0</ele>
        <time>2019-07-31T15:54:22.079Z</time>
      </trkpt>
      <trkpt lat="43.00172667" lon="-1.14537">
        <ele>834.0</ele>
        <time>2019-07-31T15:54:23.084Z</time>
      </trkpt>
      <trkpt lat="43.00171" lon="-1.14537167">
        <ele>834.0</ele>
        <time>2019-07-31T15:54:24.088Z</time>
      </trkpt>
      <trkpt lat="43.001695" lon="-1.14537">
        <ele>834.0</ele>
        <time>2019-07-31T15:54:25.093Z</time>
      </trkpt>
      <trkpt lat="43.00168" lon="-1.14537">
        <ele>835.0</ele>
        <time>2019-07-31T15:54:26.100Z</time>
      </trkpt>
      <trkpt lat="43.00166167" lon="-1.14536833">
        <ele>835.0</ele>
        <time>2019-07-31T15:54:27.106Z</time>
      </trkpt>
      <trkpt lat="43.00164667" lon="-1.145365">
        <ele>835.0</ele>
        <time>2019-07-31T15:54:28.112Z</time>
      </trkpt>
      <trkpt lat="43.00163333" lon="-1.14536667">
        <ele>835.0</ele>
        <time>2019-07-31T15:54:29.117Z</time>
      </trkpt>
      <trkpt lat="43.00161833" lon="-1.14537167">
        <ele>835.0</ele>
        <time>2019-07-31T15:54:30.123Z</time>
      </trkpt>
      <trkpt lat="43.00160333" lon="-1.14537333">
        <ele>834.0</ele>
        <time>2019-07-31T15:54:31.128Z</time>
      </trkpt>
      <trkpt lat="43.00158833" lon="-1.14537333">
        <ele>834.0</ele>
        <time>2019-07-31T15:54:32.133Z</time>
      </trkpt>
      <trkpt lat="43.00157333" lon="-1.14536833">
        <ele>834.0</ele>
        <time>2019-07-31T15:54:33.138Z</time>
      </trkpt>
      <trkpt lat="43.00155833" lon="-1.145365">
        <ele>834.0</ele>
        <time>2019-07-31T15:54:34.144Z</time>
      </trkpt>
      <trkpt lat="43.00154333" lon="-1.14536">
        <ele>834.0</ele>
        <time>2019-07-31T15:54:35.148Z</time>
      </trkpt>
      <trkpt lat="43.00152667" lon="-1.14535667">
        <ele>834.0</ele>
        <time>2019-07-31T15:54:36.154Z</time>
      </trkpt>
      <trkpt lat="43.00151167" lon="-1.145355">
        <ele>834.0</ele>
        <time>2019-07-31T15:54:37.159Z</time>
      </trkpt>
      <trkpt lat="43.00149833" lon="-1.14535667">
        <ele>834.0</ele>
        <time>2019-07-31T15:54:38.165Z</time>
      </trkpt>
      <trkpt lat="43.001485" lon="-1.145355">
        <ele>833.0</ele>
        <time>2019-07-31T15:54:39.169Z</time>
      </trkpt>
      <trkpt lat="43.00147167" lon="-1.14535333">
        <ele>833.0</ele>
        <time>2019-07-31T15:54:40.175Z</time>
      </trkpt>
      <trkpt lat="43.00145833" lon="-1.14535">
        <ele>832.0</ele>
        <time>2019-07-31T15:54:41.182Z</time>
      </trkpt>
      <trkpt lat="43.00144167" lon="-1.14534667">
        <ele>833.0</ele>
        <time>2019-07-31T15:54:42.062Z</time>
      </trkpt>
      <trkpt lat="43.00142667" lon="-1.14534333">
        <ele>833.0</ele>
        <time>2019-07-31T15:54:43.067Z</time>
      </trkpt>
      <trkpt lat="43.00141167" lon="-1.14534333">
        <ele>833.0</ele>
        <time>2019-07-31T15:54:44.074Z</time>
      </trkpt>
      <trkpt lat="43.00139667" lon="-1.14534">
        <ele>832.0</ele>
        <time>2019-07-31T15:54:45.078Z</time>
      </trkpt>
      <trkpt lat="43.00138" lon="-1.14534">
        <ele>833.0</ele>
        <time>2019-07-31T15:54:46.082Z</time>
      </trkpt>
      <trkpt lat="43.00136667" lon="-1.14534167">
        <ele>832.0</ele>
        <time>2019-07-31T15:54:47.085Z</time>
      </trkpt>
      <trkpt lat="43.00135167" lon="-1.14534167">
        <ele>832.0</ele>
        <time>2019-07-31T15:54:48.091Z</time>
      </trkpt>
      <trkpt lat="43.00133667" lon="-1.14534">
        <ele>832.0</ele>
        <time>2019-07-31T15:54:49.096Z</time>
      </trkpt>
      <trkpt lat="43.00132333" lon="-1.14534333">
        <ele>832.0</ele>
        <time>2019-07-31T15:54:50.103Z</time>
      </trkpt>
      <trkpt lat="43.00130667" lon="-1.145345">
        <ele>833.0</ele>
        <time>2019-07-31T15:54:51.110Z</time>
      </trkpt>
      <trkpt lat="43.00129167" lon="-1.14535">
        <ele>832.0</ele>
        <time>2019-07-31T15:54:52.116Z</time>
      </trkpt>
      <trkpt lat="43.00127667" lon="-1.14535333">
        <ele>832.0</ele>
        <time>2019-07-31T15:54:53.122Z</time>
      </trkpt>
      <trkpt lat="43.00126" lon="-1.14535833">
        <ele>832.0</ele>
        <time>2019-07-31T15:54:54.125Z</time>
      </trkpt>
      <trkpt lat="43.001245" lon="-1.14536833">
        <ele>833.0</ele>
        <time>2019-07-31T15:54:55.129Z</time>
      </trkpt>
      <trkpt lat="43.00123167" lon="-1.14538167">
        <ele>832.0</ele>
        <time>2019-07-31T15:54:56.133Z</time>
      </trkpt>
      <trkpt lat="43.00122167" lon="-1.14539833">
        <ele>832.0</ele>
        <time>2019-07-31T15:54:57.138Z</time>
      </trkpt>
      <trkpt lat="43.00121333" lon="-1.14542">
        <ele>831.0</ele>
        <time>2019-07-31T15:54:58.144Z</time>
      </trkpt>
      <trkpt lat="43.00120667" lon="-1.14544667">
        <ele>830.0</ele>
        <time>2019-07-31T15:54:59.150Z</time>
      </trkpt>
      <trkpt lat="43.00120333" lon="-1.14547167">
        <ele>829.0</ele>
        <time>2019-07-31T15:55:00.156Z</time>
      </trkpt>
      <trkpt lat="43.00120167" lon="-1.1455">
        <ele>829.0</ele>
        <time>2019-07-31T15:55:01.161Z</time>
      </trkpt>
      <trkpt lat="43.00120333" lon="-1.14552667">
        <ele>828.0</ele>
        <time>2019-07-31T15:55:02.167Z</time>
      </trkpt>
      <trkpt lat="43.00120833" lon="-1.14555333">
        <ele>828.0</ele>
        <time>2019-07-31T15:55:03.173Z</time>
      </trkpt>
      <trkpt lat="43.00121167" lon="-1.14558167">
        <ele>827.0</ele>
        <time>2019-07-31T15:55:04.178Z</time>
      </trkpt>
      <trkpt lat="43.00121833" lon="-1.14560833">
        <ele>826.0</ele>
        <time>2019-07-31T15:55:05.184Z</time>
      </trkpt>
      <trkpt lat="43.00122167" lon="-1.14563667">
        <ele>826.0</ele>
        <time>2019-07-31T15:55:06.065Z</time>
      </trkpt>
      <trkpt lat="43.00122667" lon="-1.14566167">
        <ele>825.0</ele>
        <time>2019-07-31T15:55:07.070Z</time>
      </trkpt>
      <trkpt lat="43.00123333" lon="-1.14568667">
        <ele>825.0</ele>
        <time>2019-07-31T15:55:08.076Z</time>
      </trkpt>
      <trkpt lat="43.00123667" lon="-1.14571167">
        <ele>825.0</ele>
        <time>2019-07-31T15:55:09.082Z</time>
      </trkpt>
      <trkpt lat="43.00124167" lon="-1.14573833">
        <ele>824.0</ele>
        <time>2019-07-31T15:55:10.086Z</time>
      </trkpt>
      <trkpt lat="43.001245" lon="-1.14576833">
        <ele>824.0</ele>
        <time>2019-07-31T15:55:11.092Z</time>
      </trkpt>
      <trkpt lat="43.00125" lon="-1.145795">
        <ele>824.0</ele>
        <time>2019-07-31T15:55:12.099Z</time>
      </trkpt>
      <trkpt lat="43.00125167" lon="-1.145815">
        <ele>824.0</ele>
        <time>2019-07-31T15:55:13.105Z</time>
      </trkpt>
      <trkpt lat="43.00125167" lon="-1.145835">
        <ele>823.0</ele>
        <time>2019-07-31T15:55:14.110Z</time>
      </trkpt>
      <trkpt lat="43.00125167" lon="-1.145855">
        <ele>823.0</ele>
        <time>2019-07-31T15:55:15.118Z</time>
      </trkpt>
      <trkpt lat="43.00125" lon="-1.14587333">
        <ele>822.0</ele>
        <time>2019-07-31T15:55:16.122Z</time>
      </trkpt>
      <trkpt lat="43.00124667" lon="-1.14589333">
        <ele>822.0</ele>
        <time>2019-07-31T15:55:17.125Z</time>
      </trkpt>
      <trkpt lat="43.00123833" lon="-1.14591">
        <ele>822.0</ele>
        <time>2019-07-31T15:55:18.130Z</time>
      </trkpt>
      <trkpt lat="43.00123" lon="-1.14592">
        <ele>822.0</ele>
        <time>2019-07-31T15:55:19.136Z</time>
      </trkpt>
      <trkpt lat="43.00122" lon="-1.14593">
        <ele>822.0</ele>
        <time>2019-07-31T15:55:20.140Z</time>
      </trkpt>
      <trkpt lat="43.00120667" lon="-1.145935">
        <ele>823.0</ele>
        <time>2019-07-31T15:55:21.145Z</time>
      </trkpt>
      <trkpt lat="43.00119167" lon="-1.14594333">
        <ele>823.0</ele>
        <time>2019-07-31T15:55:22.150Z</time>
      </trkpt>
      <trkpt lat="43.00117833" lon="-1.14595">
        <ele>823.0</ele>
        <time>2019-07-31T15:55:23.156Z</time>
      </trkpt>
      <trkpt lat="43.00116333" lon="-1.14595667">
        <ele>824.0</ele>
        <time>2019-07-31T15:55:24.162Z</time>
      </trkpt>
      <trkpt lat="43.00115" lon="-1.14596167">
        <ele>824.0</ele>
        <time>2019-07-31T15:55:25.167Z</time>
      </trkpt>
      <trkpt lat="43.00113667" lon="-1.14597">
        <ele>823.0</ele>
        <time>2019-07-31T15:55:26.172Z</time>
      </trkpt>
      <trkpt lat="43.00112167" lon="-1.14597167">
        <ele>823.0</ele>
        <time>2019-07-31T15:55:27.176Z</time>
      </trkpt>
      <trkpt lat="43.00110333" lon="-1.14596833">
        <ele>824.0</ele>
        <time>2019-07-31T15:55:28.183Z</time>
      </trkpt>
      <trkpt lat="43.00108833" lon="-1.14596">
        <ele>824.0</ele>
        <time>2019-07-31T15:55:29.063Z</time>
      </trkpt>
      <trkpt lat="43.001075" lon="-1.14594667">
        <ele>825.0</ele>
        <time>2019-07-31T15:55:30.068Z</time>
      </trkpt>
      <trkpt lat="43.00106" lon="-1.14593333">
        <ele>827.0</ele>
        <time>2019-07-31T15:55:31.073Z</time>
      </trkpt>
      <trkpt lat="43.001045" lon="-1.145925">
        <ele>828.0</ele>
        <time>2019-07-31T15:55:32.078Z</time>
      </trkpt>
      <trkpt lat="43.00103167" lon="-1.14591833">
        <ele>829.0</ele>
        <time>2019-07-31T15:55:33.083Z</time>
      </trkpt>
      <trkpt lat="43.00101833" lon="-1.14591">
        <ele>830.0</ele>
        <time>2019-07-31T15:55:34.086Z</time>
      </trkpt>
      <trkpt lat="43.001005" lon="-1.14589667">
        <ele>831.0</ele>
        <time>2019-07-31T15:55:35.091Z</time>
      </trkpt>
      <trkpt lat="43.00098833" lon="-1.145885">
        <ele>832.0</ele>
        <time>2019-07-31T15:55:36.097Z</time>
      </trkpt>
      <trkpt lat="43.00097333" lon="-1.14587667">
        <ele>832.0</ele>
        <time>2019-07-31T15:55:37.102Z</time>
      </trkpt>
      <trkpt lat="43.00095833" lon="-1.14587167">
        <ele>832.0</ele>
        <time>2019-07-31T15:55:38.107Z</time>
      </trkpt>
      <trkpt lat="43.00093667" lon="-1.14586667">
        <ele>832.0</ele>
        <time>2019-07-31T15:55:39.110Z</time>
      </trkpt>
      <trkpt lat="43.00092" lon="-1.14587">
        <ele>833.0</ele>
        <time>2019-07-31T15:55:40.113Z</time>
      </trkpt>
      <trkpt lat="43.00090333" lon="-1.14587333">
        <ele>833.0</ele>
        <time>2019-07-31T15:55:41.117Z</time>
      </trkpt>
      <trkpt lat="43.00089" lon="-1.14588">
        <ele>832.0</ele>
        <time>2019-07-31T15:55:42.124Z</time>
      </trkpt>
      <trkpt lat="43.00087667" lon="-1.145885">
        <ele>832.0</ele>
        <time>2019-07-31T15:55:43.129Z</time>
      </trkpt>
      <trkpt lat="43.00086333" lon="-1.14589667">
        <ele>831.0</ele>
        <time>2019-07-31T15:55:44.134Z</time>
      </trkpt>
      <trkpt lat="43.00085167" lon="-1.14590667">
        <ele>831.0</ele>
        <time>2019-07-31T15:55:45.140Z</time>
      </trkpt>
      <trkpt lat="43.00083833" lon="-1.14592">
        <ele>831.0</ele>
        <time>2019-07-31T15:55:46.146Z</time>
      </trkpt>
      <trkpt lat="43.00082833" lon="-1.14593167">
        <ele>830.0</ele>
        <time>2019-07-31T15:55:47.149Z</time>
      </trkpt>
      <trkpt lat="43.000815" lon="-1.14594667">
        <ele>830.0</ele>
        <time>2019-07-31T15:55:48.155Z</time>
      </trkpt>
      <trkpt lat="43.000805" lon="-1.145965">
        <ele>830.0</ele>
        <time>2019-07-31T15:55:49.159Z</time>
      </trkpt>
      <trkpt lat="43.00079333" lon="-1.14598167">
        <ele>829.0</ele>
        <time>2019-07-31T15:55:50.166Z</time>
      </trkpt>
      <trkpt lat="43.000785" lon="-1.14599667">
        <ele>829.0</ele>
        <time>2019-07-31T15:55:51.171Z</time>
      </trkpt>
      <trkpt lat="43.00077167" lon="-1.14601">
        <ele>829.0</ele>
        <time>2019-07-31T15:55:52.177Z</time>
      </trkpt>
      <trkpt lat="43.00076333" lon="-1.14602667">
        <ele>829.0</ele>
        <time>2019-07-31T15:55:53.182Z</time>
      </trkpt>
      <trkpt lat="43.00075333" lon="-1.14604333">
        <ele>829.0</ele>
        <time>2019-07-31T15:55:54.063Z</time>
      </trkpt>
      <trkpt lat="43.00074167" lon="-1.14606">
        <ele>829.0</ele>
        <time>2019-07-31T15:55:55.070Z</time>
      </trkpt>
      <trkpt lat="43.00073" lon="-1.146075">
        <ele>829.0</ele>
        <time>2019-07-31T15:55:56.078Z</time>
      </trkpt>
      <trkpt lat="43.00071833" lon="-1.14609333">
        <ele>829.0</ele>
        <time>2019-07-31T15:55:57.084Z</time>
      </trkpt>
      <trkpt lat="43.00070667" lon="-1.14610833">
        <ele>829.0</ele>
        <time>2019-07-31T15:55:58.086Z</time>
      </trkpt>
      <trkpt lat="43.000695" lon="-1.146125">
        <ele>828.0</ele>
        <time>2019-07-31T15:55:59.090Z</time>
      </trkpt>
      <trkpt lat="43.00068" lon="-1.14614">
        <ele>829.0</ele>
        <time>2019-07-31T15:56:00.095Z</time>
      </trkpt>
      <trkpt lat="43.00067167" lon="-1.14615333">
        <ele>829.0</ele>
        <time>2019-07-31T15:56:01.102Z</time>
      </trkpt>
      <trkpt lat="43.00066" lon="-1.146175">
        <ele>828.0</ele>
        <time>2019-07-31T15:56:02.107Z</time>
      </trkpt>
      <trkpt lat="43.00065" lon="-1.14619333">
        <ele>827.0</ele>
        <time>2019-07-31T15:56:03.112Z</time>
      </trkpt>
      <trkpt lat="43.00064" lon="-1.14621">
        <ele>827.0</ele>
        <time>2019-07-31T15:56:04.115Z</time>
      </trkpt>
      <trkpt lat="43.00062833" lon="-1.14622667">
        <ele>826.0</ele>
        <time>2019-07-31T15:56:05.119Z</time>
      </trkpt>
      <trkpt lat="43.000615" lon="-1.14624333">
        <ele>826.0</ele>
        <time>2019-07-31T15:56:06.125Z</time>
      </trkpt>
      <trkpt lat="43.00060333" lon="-1.14625833">
        <ele>826.0</ele>
        <time>2019-07-31T15:56:07.131Z</time>
      </trkpt>
      <trkpt lat="43.00059167" lon="-1.14627333">
        <ele>826.0</ele>
        <time>2019-07-31T15:56:08.136Z</time>
      </trkpt>
      <trkpt lat="43.00058" lon="-1.14629">
        <ele>825.0</ele>
        <time>2019-07-31T15:56:09.141Z</time>
      </trkpt>
      <trkpt lat="43.00056833" lon="-1.146305">
        <ele>825.0</ele>
        <time>2019-07-31T15:56:10.147Z</time>
      </trkpt>
      <trkpt lat="43.00055667" lon="-1.14632">
        <ele>825.0</ele>
        <time>2019-07-31T15:56:11.152Z</time>
      </trkpt>
      <trkpt lat="43.00054333" lon="-1.14633167">
        <ele>825.0</ele>
        <time>2019-07-31T15:56:12.158Z</time>
      </trkpt>
      <trkpt lat="43.00053167" lon="-1.14634667">
        <ele>825.0</ele>
        <time>2019-07-31T15:56:13.164Z</time>
      </trkpt>
      <trkpt lat="43.00052" lon="-1.146365">
        <ele>824.0</ele>
        <time>2019-07-31T15:56:14.170Z</time>
      </trkpt>
      <trkpt lat="43.00050833" lon="-1.14637667">
        <ele>824.0</ele>
        <time>2019-07-31T15:56:15.175Z</time>
      </trkpt>
      <trkpt lat="43.00049667" lon="-1.14639167">
        <ele>824.0</ele>
        <time>2019-07-31T15:56:16.182Z</time>
      </trkpt>
      <trkpt lat="43.000485" lon="-1.14640667">
        <ele>824.0</ele>
        <time>2019-07-31T15:56:17.062Z</time>
      </trkpt>
      <trkpt lat="43.000475" lon="-1.14642333">
        <ele>823.0</ele>
        <time>2019-07-31T15:56:18.068Z</time>
      </trkpt>
      <trkpt lat="43.00046333" lon="-1.14643833">
        <ele>823.0</ele>
        <time>2019-07-31T15:56:19.072Z</time>
      </trkpt>
      <trkpt lat="43.00045167" lon="-1.14644833">
        <ele>823.0</ele>
        <time>2019-07-31T15:56:20.077Z</time>
      </trkpt>
      <trkpt lat="43.00043833" lon="-1.14646">
        <ele>823.0</ele>
        <time>2019-07-31T15:56:21.083Z</time>
      </trkpt>
      <trkpt lat="43.000425" lon="-1.14647167">
        <ele>823.0</ele>
        <time>2019-07-31T15:56:22.087Z</time>
      </trkpt>
      <trkpt lat="43.00041167" lon="-1.146485">
        <ele>822.0</ele>
        <time>2019-07-31T15:56:23.094Z</time>
      </trkpt>
      <trkpt lat="43.00039667" lon="-1.14649667">
        <ele>823.0</ele>
        <time>2019-07-31T15:56:24.099Z</time>
      </trkpt>
      <trkpt lat="43.00038333" lon="-1.14650833">
        <ele>823.0</ele>
        <time>2019-07-31T15:56:25.103Z</time>
      </trkpt>
      <trkpt lat="43.00036833" lon="-1.14651833">
        <ele>823.0</ele>
        <time>2019-07-31T15:56:26.106Z</time>
      </trkpt>
      <trkpt lat="43.00035667" lon="-1.14652667">
        <ele>823.0</ele>
        <time>2019-07-31T15:56:27.111Z</time>
      </trkpt>
      <trkpt lat="43.00034" lon="-1.146535">
        <ele>823.0</ele>
        <time>2019-07-31T15:56:28.116Z</time>
      </trkpt>
      <trkpt lat="43.000325" lon="-1.14653833">
        <ele>823.0</ele>
        <time>2019-07-31T15:56:29.122Z</time>
      </trkpt>
      <trkpt lat="43.00031" lon="-1.146545">
        <ele>823.0</ele>
        <time>2019-07-31T15:56:30.123Z</time>
      </trkpt>
      <trkpt lat="43.000295" lon="-1.14655333">
        <ele>824.0</ele>
        <time>2019-07-31T15:56:31.127Z</time>
      </trkpt>
      <trkpt lat="43.00028" lon="-1.14656">
        <ele>824.0</ele>
        <time>2019-07-31T15:56:32.131Z</time>
      </trkpt>
      <trkpt lat="43.00026833" lon="-1.14656833">
        <ele>824.0</ele>
        <time>2019-07-31T15:56:33.136Z</time>
      </trkpt>
      <trkpt lat="43.00025333" lon="-1.146575">
        <ele>824.0</ele>
        <time>2019-07-31T15:56:34.140Z</time>
      </trkpt>
      <trkpt lat="43.00023833" lon="-1.14658">
        <ele>825.0</ele>
        <time>2019-07-31T15:56:35.145Z</time>
      </trkpt>
      <trkpt lat="43.00022333" lon="-1.14658667">
        <ele>825.0</ele>
        <time>2019-07-31T15:56:36.149Z</time>
      </trkpt>
      <trkpt lat="43.00020833" lon="-1.14659333">
        <ele>824.0</ele>
        <time>2019-07-31T15:56:37.155Z</time>
      </trkpt>
      <trkpt lat="43.00019333" lon="-1.14659833">
        <ele>825.0</ele>
        <time>2019-07-31T15:56:38.161Z</time>
      </trkpt>
      <trkpt lat="43.00017667" lon="-1.14660167">
        <ele>825.0</ele>
        <time>2019-07-31T15:56:39.167Z</time>
      </trkpt>
      <trkpt lat="43.00016167" lon="-1.14659833">
        <ele>826.0</ele>
        <time>2019-07-31T15:56:40.173Z</time>
      </trkpt>
      <trkpt lat="43.000145" lon="-1.14659667">
        <ele>826.0</ele>
        <time>2019-07-31T15:56:41.179Z</time>
      </trkpt>
      <trkpt lat="43.00013" lon="-1.14659667">
        <ele>827.0</ele>
        <time>2019-07-31T15:56:42.186Z</time>
      </trkpt>
      <trkpt lat="43.000115" lon="-1.14659333">
        <ele>827.0</ele>
        <time>2019-07-31T15:56:43.066Z</time>
      </trkpt>
      <trkpt lat="43.00009833" lon="-1.14658667">
        <ele>829.0</ele>
        <time>2019-07-31T15:56:44.071Z</time>
      </trkpt>
      <trkpt lat="43.00007833" lon="-1.14658167">
        <ele>831.0</ele>
        <time>2019-07-31T15:56:45.076Z</time>
      </trkpt>
      <trkpt lat="43.00005833" lon="-1.14658333">
        <ele>832.0</ele>
        <time>2019-07-31T15:56:46.081Z</time>
      </trkpt>
      <trkpt lat="43.00004333" lon="-1.14658167">
        <ele>833.0</ele>
        <time>2019-07-31T15:56:47.087Z</time>
      </trkpt>
      <trkpt lat="43.00003167" lon="-1.14657333">
        <ele>834.0</ele>
        <time>2019-07-31T15:56:48.092Z</time>
      </trkpt>
      <trkpt lat="43.000015" lon="-1.14657833">
        <ele>835.0</ele>
        <time>2019-07-31T15:56:49.100Z</time>
      </trkpt>
      <trkpt lat="43.0" lon="-1.14658">
        <ele>836.0</ele>
        <time>2019-07-31T15:56:50.101Z</time>
      </trkpt>
      <trkpt lat="42.99998667" lon="-1.146585">
        <ele>836.0</ele>
        <time>2019-07-31T15:56:51.105Z</time>
      </trkpt>
      <trkpt lat="42.99997" lon="-1.14659">
        <ele>837.0</ele>
        <time>2019-07-31T15:56:52.109Z</time>
      </trkpt>
      <trkpt lat="42.999955" lon="-1.14659167">
        <ele>837.0</ele>
        <time>2019-07-31T15:56:53.115Z</time>
      </trkpt>
      <trkpt lat="42.99994" lon="-1.14658833">
        <ele>837.0</ele>
        <time>2019-07-31T15:56:54.119Z</time>
      </trkpt>
      <trkpt lat="42.999925" lon="-1.14658333">
        <ele>837.0</ele>
        <time>2019-07-31T15:56:55.125Z</time>
      </trkpt>
      <trkpt lat="42.99990667" lon="-1.14658333">
        <ele>838.0</ele>
        <time>2019-07-31T15:56:56.131Z</time>
      </trkpt>
      <trkpt lat="42.99988167" lon="-1.14657667">
        <ele>839.0</ele>
        <time>2019-07-31T15:56:57.136Z</time>
      </trkpt>
      <trkpt lat="42.99985667" lon="-1.14657333">
        <ele>840.0</ele>
        <time>2019-07-31T15:56:58.141Z</time>
      </trkpt>
      <trkpt lat="42.99983833" lon="-1.14656667">
        <ele>841.0</ele>
        <time>2019-07-31T15:56:59.146Z</time>
      </trkpt>
      <trkpt lat="42.99982167" lon="-1.14656167">
        <ele>841.0</ele>
        <time>2019-07-31T15:57:00.153Z</time>
      </trkpt>
      <trkpt lat="42.99980833" lon="-1.14655167">
        <ele>842.0</ele>
        <time>2019-07-31T15:57:01.159Z</time>
      </trkpt>
      <trkpt lat="42.999795" lon="-1.14653333">
        <ele>842.0</ele>
        <time>2019-07-31T15:57:02.163Z</time>
      </trkpt>
      <trkpt lat="42.99978" lon="-1.14651833">
        <ele>844.0</ele>
        <time>2019-07-31T15:57:03.167Z</time>
      </trkpt>
      <trkpt lat="42.99976333" lon="-1.14650667">
        <ele>845.0</ele>
        <time>2019-07-31T15:57:04.171Z</time>
      </trkpt>
      <trkpt lat="42.99975333" lon="-1.14650167">
        <ele>846.0</ele>
        <time>2019-07-31T15:57:05.177Z</time>
      </trkpt>
      <trkpt lat="42.99974333" lon="-1.14650833">
        <ele>846.0</ele>
        <time>2019-07-31T15:57:06.183Z</time>
      </trkpt>
      <trkpt lat="42.99973333" lon="-1.14651167">
        <ele>847.0</ele>
        <time>2019-07-31T15:57:07.063Z</time>
      </trkpt>
      <trkpt lat="42.99972167" lon="-1.146505">
        <ele>848.0</ele>
        <time>2019-07-31T15:57:08.068Z</time>
      </trkpt>
      <trkpt lat="42.99971" lon="-1.14649667">
        <ele>849.0</ele>
        <time>2019-07-31T15:57:09.074Z</time>
      </trkpt>
      <trkpt lat="42.99969833" lon="-1.14648833">
        <ele>849.0</ele>
        <time>2019-07-31T15:57:10.081Z</time>
      </trkpt>
      <trkpt lat="42.99968833" lon="-1.14647833">
        <ele>850.0</ele>
        <time>2019-07-31T15:57:11.087Z</time>
      </trkpt>
      <trkpt lat="42.99967667" lon="-1.14647167">
        <ele>850.0</ele>
        <time>2019-07-31T15:57:12.092Z</time>
      </trkpt>
      <trkpt lat="42.99966167" lon="-1.14646333">
        <ele>850.0</ele>
        <time>2019-07-31T15:57:13.096Z</time>
      </trkpt>
      <trkpt lat="42.99965167" lon="-1.14645667">
        <ele>850.0</ele>
        <time>2019-07-31T15:57:14.101Z</time>
      </trkpt>
      <trkpt lat="42.99963833" lon="-1.14644333">
        <ele>850.0</ele>
        <time>2019-07-31T15:57:15.106Z</time>
      </trkpt>
      <trkpt lat="42.999625" lon="-1.146435">
        <ele>850.0</ele>
        <time>2019-07-31T15:57:16.111Z</time>
      </trkpt>
      <trkpt lat="42.99961167" lon="-1.14642833">
        <ele>850.0</ele>
        <time>2019-07-31T15:57:17.118Z</time>
      </trkpt>
      <trkpt lat="42.99959833" lon="-1.14642">
        <ele>850.0</ele>
        <time>2019-07-31T15:57:18.124Z</time>
      </trkpt>
      <trkpt lat="42.999585" lon="-1.146415">
        <ele>850.0</ele>
        <time>2019-07-31T15:57:19.128Z</time>
      </trkpt>
      <trkpt lat="42.99957333" lon="-1.14641167">
        <ele>850.0</ele>
        <time>2019-07-31T15:57:20.135Z</time>
      </trkpt>
      <trkpt lat="42.99956167" lon="-1.14640833">
        <ele>849.0</ele>
        <time>2019-07-31T15:57:21.140Z</time>
      </trkpt>
      <trkpt lat="42.99954667" lon="-1.14640333">
        <ele>849.0</ele>
        <time>2019-07-31T15:57:22.144Z</time>
      </trkpt>
      <trkpt lat="42.99953167" lon="-1.14639833">
        <ele>849.0</ele>
        <time>2019-07-31T15:57:23.150Z</time>
      </trkpt>
      <trkpt lat="42.999515" lon="-1.14639333">
        <ele>849.0</ele>
        <time>2019-07-31T15:57:24.155Z</time>
      </trkpt>
      <trkpt lat="42.9995" lon="-1.14638667">
        <ele>849.0</ele>
        <time>2019-07-31T15:57:25.161Z</time>
      </trkpt>
      <trkpt lat="42.99948333" lon="-1.14637833">
        <ele>849.0</ele>
        <time>2019-07-31T15:57:26.168Z</time>
      </trkpt>
      <trkpt lat="42.99946667" lon="-1.14637333">
        <ele>850.0</ele>
        <time>2019-07-31T15:57:27.174Z</time>
      </trkpt>
      <trkpt lat="42.99945167" lon="-1.14636667">
        <ele>850.0</ele>
        <time>2019-07-31T15:57:28.181Z</time>
      </trkpt>
      <trkpt lat="42.999435" lon="-1.14635667">
        <ele>850.0</ele>
        <time>2019-07-31T15:57:29.061Z</time>
      </trkpt>
      <trkpt lat="42.99942" lon="-1.14634833">
        <ele>851.0</ele>
        <time>2019-07-31T15:57:30.064Z</time>
      </trkpt>
      <trkpt lat="42.999405" lon="-1.14634333">
        <ele>851.0</ele>
        <time>2019-07-31T15:57:31.071Z</time>
      </trkpt>
      <trkpt lat="42.99939" lon="-1.14634167">
        <ele>851.0</ele>
        <time>2019-07-31T15:57:32.077Z</time>
      </trkpt>
      <trkpt lat="42.99937167" lon="-1.14634333">
        <ele>851.0</ele>
        <time>2019-07-31T15:57:33.079Z</time>
      </trkpt>
      <trkpt lat="42.99935333" lon="-1.146345">
        <ele>851.0</ele>
        <time>2019-07-31T15:57:34.084Z</time>
      </trkpt>
      <trkpt lat="42.99933667" lon="-1.146345">
        <ele>851.0</ele>
        <time>2019-07-31T15:57:35.089Z</time>
      </trkpt>
      <trkpt lat="42.999325" lon="-1.14633833">
        <ele>851.0</ele>
        <time>2019-07-31T15:57:36.094Z</time>
      </trkpt>
      <trkpt lat="42.99931" lon="-1.14633833">
        <ele>851.0</ele>
        <time>2019-07-31T15:57:37.101Z</time>
      </trkpt>
      <trkpt lat="42.99929667" lon="-1.14634">
        <ele>850.0</ele>
        <time>2019-07-31T15:57:38.108Z</time>
      </trkpt>
      <trkpt lat="42.99928167" lon="-1.14633833">
        <ele>850.0</ele>
        <time>2019-07-31T15:57:39.114Z</time>
      </trkpt>
      <trkpt lat="42.99926333" lon="-1.14633833">
        <ele>850.0</ele>
        <time>2019-07-31T15:57:40.120Z</time>
      </trkpt>
      <trkpt lat="42.99924667" lon="-1.146335">
        <ele>850.0</ele>
        <time>2019-07-31T15:57:41.125Z</time>
      </trkpt>
      <trkpt lat="42.99923167" lon="-1.14633667">
        <ele>849.0</ele>
        <time>2019-07-31T15:57:42.131Z</time>
      </trkpt>
      <trkpt lat="42.99921833" lon="-1.14633333">
        <ele>848.0</ele>
        <time>2019-07-31T15:57:43.136Z</time>
      </trkpt>
      <trkpt lat="42.999205" lon="-1.146335">
        <ele>848.0</ele>
        <time>2019-07-31T15:57:44.140Z</time>
      </trkpt>
      <trkpt lat="42.99919" lon="-1.14633667">
        <ele>849.0</ele>
        <time>2019-07-31T15:57:45.145Z</time>
      </trkpt>
      <trkpt lat="42.99917667" lon="-1.14633333">
        <ele>849.0</ele>
        <time>2019-07-31T15:57:46.151Z</time>
      </trkpt>
      <trkpt lat="42.99916167" lon="-1.14633">
        <ele>850.0</ele>
        <time>2019-07-31T15:57:47.155Z</time>
      </trkpt>
      <trkpt lat="42.999145" lon="-1.14632667">
        <ele>850.0</ele>
        <time>2019-07-31T15:57:48.161Z</time>
      </trkpt>
      <trkpt lat="42.99913333" lon="-1.14632833">
        <ele>851.0</ele>
        <time>2019-07-31T15:57:49.167Z</time>
      </trkpt>
      <trkpt lat="42.99912" lon="-1.14632833">
        <ele>851.0</ele>
        <time>2019-07-31T15:57:50.172Z</time>
      </trkpt>
      <trkpt lat="42.99910333" lon="-1.14632833">
        <ele>852.0</ele>
        <time>2019-07-31T15:57:51.177Z</time>
      </trkpt>
      <trkpt lat="42.99908833" lon="-1.14633">
        <ele>853.0</ele>
        <time>2019-07-31T15:57:52.184Z</time>
      </trkpt>
      <trkpt lat="42.99907667" lon="-1.14633">
        <ele>853.0</ele>
        <time>2019-07-31T15:57:53.065Z</time>
      </trkpt>
      <trkpt lat="42.99906333" lon="-1.14633333">
        <ele>852.0</ele>
        <time>2019-07-31T15:57:54.069Z</time>
      </trkpt>
      <trkpt lat="42.99905" lon="-1.14633833">
        <ele>852.0</ele>
        <time>2019-07-31T15:57:55.074Z</time>
      </trkpt>
      <trkpt lat="42.999035" lon="-1.14634333">
        <ele>851.0</ele>
        <time>2019-07-31T15:57:56.080Z</time>
      </trkpt>
      <trkpt lat="42.99902167" lon="-1.14634333">
        <ele>851.0</ele>
        <time>2019-07-31T15:57:57.084Z</time>
      </trkpt>
      <trkpt lat="42.999005" lon="-1.14634167">
        <ele>851.0</ele>
        <time>2019-07-31T15:57:58.088Z</time>
      </trkpt>
      <trkpt lat="42.99898667" lon="-1.14634333">
        <ele>852.0</ele>
        <time>2019-07-31T15:57:59.094Z</time>
      </trkpt>
      <trkpt lat="42.99897" lon="-1.14634167">
        <ele>851.0</ele>
        <time>2019-07-31T15:58:00.098Z</time>
      </trkpt>
      <trkpt lat="42.99895333" lon="-1.14634167">
        <ele>851.0</ele>
        <time>2019-07-31T15:58:01.104Z</time>
      </trkpt>
      <trkpt lat="42.99893667" lon="-1.14634333">
        <ele>850.0</ele>
        <time>2019-07-31T15:58:02.111Z</time>
      </trkpt>
      <trkpt lat="42.99892" lon="-1.14634667">
        <ele>849.0</ele>
        <time>2019-07-31T15:58:03.118Z</time>
      </trkpt>
      <trkpt lat="42.998905" lon="-1.146355">
        <ele>848.0</ele>
        <time>2019-07-31T15:58:04.123Z</time>
      </trkpt>
      <trkpt lat="42.99888833" lon="-1.14636667">
        <ele>847.0</ele>
        <time>2019-07-31T15:58:05.127Z</time>
      </trkpt>
      <trkpt lat="42.99887667" lon="-1.146375">
        <ele>846.0</ele>
        <time>2019-07-31T15:58:06.130Z</time>
      </trkpt>
      <trkpt lat="42.99886167" lon="-1.14638167">
        <ele>845.0</ele>
        <time>2019-07-31T15:58:07.138Z</time>
      </trkpt>
      <trkpt lat="42.99884167" lon="-1.14639333">
        <ele>845.0</ele>
        <time>2019-07-31T15:58:08.143Z</time>
      </trkpt>
      <trkpt lat="42.99882333" lon="-1.14640667">
        <ele>844.0</ele>
        <time>2019-07-31T15:58:09.150Z</time>
      </trkpt>
      <trkpt lat="42.99881" lon="-1.14641833">
        <ele>842.0</ele>
        <time>2019-07-31T15:58:10.156Z</time>
      </trkpt>
      <trkpt lat="42.998795" lon="-1.14643333">
        <ele>841.0</ele>
        <time>2019-07-31T15:58:11.159Z</time>
      </trkpt>
      <trkpt lat="42.99878" lon="-1.14644833">
        <ele>840.0</ele>
        <time>2019-07-31T15:58:12.163Z</time>
      </trkpt>
      <trkpt lat="42.99876167" lon="-1.14646">
        <ele>838.0</ele>
        <time>2019-07-31T15:58:13.168Z</time>
      </trkpt>
      <trkpt lat="42.99874167" lon="-1.146475">
        <ele>837.0</ele>
        <time>2019-07-31T15:58:14.173Z</time>
      </trkpt>
      <trkpt lat="42.99872" lon="-1.14648833">
        <ele>838.0</ele>
        <time>2019-07-31T15:58:15.179Z</time>
      </trkpt>
      <trkpt lat="42.998705" lon="-1.146495">
        <ele>838.0</ele>
        <time>2019-07-31T15:58:16.185Z</time>
      </trkpt>
      <trkpt lat="42.99869167" lon="-1.14650833">
        <ele>838.0</ele>
        <time>2019-07-31T15:58:17.065Z</time>
      </trkpt>
      <trkpt lat="42.99867" lon="-1.14651667">
        <ele>838.0</ele>
        <time>2019-07-31T15:58:18.070Z</time>
      </trkpt>
      <trkpt lat="42.99865167" lon="-1.14652667">
        <ele>838.0</ele>
        <time>2019-07-31T15:58:19.076Z</time>
      </trkpt>
      <trkpt lat="42.99863167" lon="-1.146535">
        <ele>838.0</ele>
        <time>2019-07-31T15:58:20.081Z</time>
      </trkpt>
      <trkpt lat="42.99861" lon="-1.14655167">
        <ele>838.0</ele>
        <time>2019-07-31T15:58:21.086Z</time>
      </trkpt>
      <trkpt lat="42.99859833" lon="-1.14656333">
        <ele>839.0</ele>
        <time>2019-07-31T15:58:22.091Z</time>
      </trkpt>
      <trkpt lat="42.998585" lon="-1.14658">
        <ele>839.0</ele>
        <time>2019-07-31T15:58:23.097Z</time>
      </trkpt>
      <trkpt lat="42.99856833" lon="-1.14659333">
        <ele>840.0</ele>
        <time>2019-07-31T15:58:24.103Z</time>
      </trkpt>
      <trkpt lat="42.99855333" lon="-1.14660167">
        <ele>840.0</ele>
        <time>2019-07-31T15:58:25.107Z</time>
      </trkpt>
      <trkpt lat="42.998545" lon="-1.14660667">
        <ele>840.0</ele>
        <time>2019-07-31T15:58:26.111Z</time>
      </trkpt>
      <trkpt lat="42.99853333" lon="-1.14661167">
        <ele>839.0</ele>
        <time>2019-07-31T15:58:27.117Z</time>
      </trkpt>
      <trkpt lat="42.99851833" lon="-1.146615">
        <ele>840.0</ele>
        <time>2019-07-31T15:58:28.121Z</time>
      </trkpt>
      <trkpt lat="42.99850667" lon="-1.14662167">
        <ele>840.0</ele>
        <time>2019-07-31T15:58:29.126Z</time>
      </trkpt>
      <trkpt lat="42.99849167" lon="-1.14663">
        <ele>840.0</ele>
        <time>2019-07-31T15:58:30.133Z</time>
      </trkpt>
      <trkpt lat="42.99847833" lon="-1.14664">
        <ele>839.0</ele>
        <time>2019-07-31T15:58:31.139Z</time>
      </trkpt>
      <trkpt lat="42.998465" lon="-1.14665167">
        <ele>839.0</ele>
        <time>2019-07-31T15:58:32.145Z</time>
      </trkpt>
      <trkpt lat="42.99845333" lon="-1.14665833">
        <ele>839.0</ele>
        <time>2019-07-31T15:58:33.152Z</time>
      </trkpt>
      <trkpt lat="42.99844" lon="-1.14666333">
        <ele>839.0</ele>
        <time>2019-07-31T15:58:34.157Z</time>
      </trkpt>
      <trkpt lat="42.99842167" lon="-1.14667167">
        <ele>839.0</ele>
        <time>2019-07-31T15:58:35.162Z</time>
      </trkpt>
      <trkpt lat="42.99840833" lon="-1.14668333">
        <ele>839.0</ele>
        <time>2019-07-31T15:58:36.167Z</time>
      </trkpt>
      <trkpt lat="42.99839333" lon="-1.146695">
        <ele>839.0</ele>
        <time>2019-07-31T15:58:37.171Z</time>
      </trkpt>
      <trkpt lat="42.998385" lon="-1.146705">
        <ele>839.0</ele>
        <time>2019-07-31T15:58:38.177Z</time>
      </trkpt>
      <trkpt lat="42.99837" lon="-1.14672167">
        <ele>839.0</ele>
        <time>2019-07-31T15:58:39.182Z</time>
      </trkpt>
      <trkpt lat="42.99835833" lon="-1.14673833">
        <ele>838.0</ele>
        <time>2019-07-31T15:58:40.064Z</time>
      </trkpt>
      <trkpt lat="42.99834667" lon="-1.146755">
        <ele>838.0</ele>
        <time>2019-07-31T15:58:41.072Z</time>
      </trkpt>
      <trkpt lat="42.99834" lon="-1.146775">
        <ele>838.0</ele>
        <time>2019-07-31T15:58:42.078Z</time>
      </trkpt>
      <trkpt lat="42.998335" lon="-1.14679333">
        <ele>837.0</ele>
        <time>2019-07-31T15:58:43.083Z</time>
      </trkpt>
      <trkpt lat="42.99832667" lon="-1.14682">
        <ele>837.0</ele>
        <time>2019-07-31T15:58:44.088Z</time>
      </trkpt>
      <trkpt lat="42.998325" lon="-1.14684167">
        <ele>837.0</ele>
        <time>2019-07-31T15:58:45.093Z</time>
      </trkpt>
      <trkpt lat="42.99832333" lon="-1.14687">
        <ele>836.0</ele>
        <time>2019-07-31T15:58:46.100Z</time>
      </trkpt>
      <trkpt lat="42.998325" lon="-1.14689333">
        <ele>835.0</ele>
        <time>2019-07-31T15:58:47.105Z</time>
      </trkpt>
      <trkpt lat="42.99833" lon="-1.146915">
        <ele>835.0</ele>
        <time>2019-07-31T15:58:48.109Z</time>
      </trkpt>
      <trkpt lat="42.99833333" lon="-1.14694">
        <ele>835.0</ele>
        <time>2019-07-31T15:58:49.115Z</time>
      </trkpt>
      <trkpt lat="42.99834" lon="-1.146965">
        <ele>835.0</ele>
        <time>2019-07-31T15:58:50.121Z</time>
      </trkpt>
      <trkpt lat="42.99834667" lon="-1.14698667">
        <ele>834.0</ele>
        <time>2019-07-31T15:58:51.126Z</time>
      </trkpt>
      <trkpt lat="42.99835833" lon="-1.147005">
        <ele>833.0</ele>
        <time>2019-07-31T15:58:52.133Z</time>
      </trkpt>
      <trkpt lat="42.99836833" lon="-1.14702">
        <ele>832.0</ele>
        <time>2019-07-31T15:58:53.138Z</time>
      </trkpt>
      <trkpt lat="42.99838333" lon="-1.14704">
        <ele>831.0</ele>
        <time>2019-07-31T15:58:54.144Z</time>
      </trkpt>
      <trkpt lat="42.99839333" lon="-1.14705833">
        <ele>831.0</ele>
        <time>2019-07-31T15:58:55.148Z</time>
      </trkpt>
      <trkpt lat="42.99840333" lon="-1.14707667">
        <ele>831.0</ele>
        <time>2019-07-31T15:58:56.151Z</time>
      </trkpt>
      <trkpt lat="42.998415" lon="-1.147095">
        <ele>830.0</ele>
        <time>2019-07-31T15:58:57.155Z</time>
      </trkpt>
      <trkpt lat="42.998425" lon="-1.14710833">
        <ele>829.0</ele>
        <time>2019-07-31T15:58:58.160Z</time>
      </trkpt>
      <trkpt lat="42.99843833" lon="-1.14713167">
        <ele>829.0</ele>
        <time>2019-07-31T15:58:59.167Z</time>
      </trkpt>
      <trkpt lat="42.99844833" lon="-1.14715">
        <ele>829.0</ele>
        <time>2019-07-31T15:59:00.172Z</time>
      </trkpt>
      <trkpt lat="42.99846" lon="-1.14717167">
        <ele>828.0</ele>
        <time>2019-07-31T15:59:01.179Z</time>
      </trkpt>
      <trkpt lat="42.99846833" lon="-1.14719333">
        <ele>827.0</ele>
        <time>2019-07-31T15:59:02.185Z</time>
      </trkpt>
      <trkpt lat="42.99848167" lon="-1.14721">
        <ele>827.0</ele>
        <time>2019-07-31T15:59:03.065Z</time>
      </trkpt>
      <trkpt lat="42.99849333" lon="-1.14722833">
        <ele>827.0</ele>
        <time>2019-07-31T15:59:04.072Z</time>
      </trkpt>
      <trkpt lat="42.9985" lon="-1.14724833">
        <ele>828.0</ele>
        <time>2019-07-31T15:59:05.079Z</time>
      </trkpt>
      <trkpt lat="42.998505" lon="-1.14727167">
        <ele>829.0</ele>
        <time>2019-07-31T15:59:06.085Z</time>
      </trkpt>
      <trkpt lat="42.99851333" lon="-1.14728667">
        <ele>829.0</ele>
        <time>2019-07-31T15:59:07.090Z</time>
      </trkpt>
      <trkpt lat="42.99851833" lon="-1.14731">
        <ele>829.0</ele>
        <time>2019-07-31T15:59:08.095Z</time>
      </trkpt>
      <trkpt lat="42.99852833" lon="-1.14733167">
        <ele>828.0</ele>
        <time>2019-07-31T15:59:09.100Z</time>
      </trkpt>
      <trkpt lat="42.99853167" lon="-1.14735">
        <ele>829.0</ele>
        <time>2019-07-31T15:59:10.103Z</time>
      </trkpt>
      <trkpt lat="42.99853667" lon="-1.14737">
        <ele>829.0</ele>
        <time>2019-07-31T15:59:11.111Z</time>
      </trkpt>
      <trkpt lat="42.99854" lon="-1.14739333">
        <ele>828.0</ele>
        <time>2019-07-31T15:59:12.117Z</time>
      </trkpt>
      <trkpt lat="42.99853667" lon="-1.14741">
        <ele>829.0</ele>
        <time>2019-07-31T15:59:13.123Z</time>
      </trkpt>
      <trkpt lat="42.99854167" lon="-1.14743667">
        <ele>828.0</ele>
        <time>2019-07-31T15:59:14.127Z</time>
      </trkpt>
      <trkpt lat="42.99854" lon="-1.14745667">
        <ele>828.0</ele>
        <time>2019-07-31T15:59:15.132Z</time>
      </trkpt>
      <trkpt lat="42.998535" lon="-1.147475">
        <ele>828.0</ele>
        <time>2019-07-31T15:59:16.136Z</time>
      </trkpt>
      <trkpt lat="42.99853333" lon="-1.14749167">
        <ele>828.0</ele>
        <time>2019-07-31T15:59:17.140Z</time>
      </trkpt>
      <trkpt lat="42.99852667" lon="-1.147505">
        <ele>828.0</ele>
        <time>2019-07-31T15:59:18.144Z</time>
      </trkpt>
      <trkpt lat="42.99851833" lon="-1.147515">
        <ele>828.0</ele>
        <time>2019-07-31T15:59:19.148Z</time>
      </trkpt>
      <trkpt lat="42.99850833" lon="-1.14752333">
        <ele>827.0</ele>
        <time>2019-07-31T15:59:20.154Z</time>
      </trkpt>
      <trkpt lat="42.99849833" lon="-1.14752667">
        <ele>827.0</ele>
        <time>2019-07-31T15:59:21.161Z</time>
      </trkpt>
      <trkpt lat="42.99848333" lon="-1.14753333">
        <ele>827.0</ele>
        <time>2019-07-31T15:59:22.165Z</time>
      </trkpt>
      <trkpt lat="42.99847167" lon="-1.14753333">
        <ele>828.0</ele>
        <time>2019-07-31T15:59:23.172Z</time>
      </trkpt>
      <trkpt lat="42.99845667" lon="-1.14753167">
        <ele>828.0</ele>
        <time>2019-07-31T15:59:24.177Z</time>
      </trkpt>
      <trkpt lat="42.99844" lon="-1.14753">
        <ele>830.0</ele>
        <time>2019-07-31T15:59:25.185Z</time>
      </trkpt>
      <trkpt lat="42.99842667" lon="-1.14752833">
        <ele>830.0</ele>
        <time>2019-07-31T15:59:26.063Z</time>
      </trkpt>
      <trkpt lat="42.99841167" lon="-1.14752333">
        <ele>831.0</ele>
        <time>2019-07-31T15:59:27.067Z</time>
      </trkpt>
      <trkpt lat="42.9984" lon="-1.147515">
        <ele>832.0</ele>
        <time>2019-07-31T15:59:28.073Z</time>
      </trkpt>
      <trkpt lat="42.99838833" lon="-1.14750833">
        <ele>833.0</ele>
        <time>2019-07-31T15:59:29.078Z</time>
      </trkpt>
      <trkpt lat="42.99837667" lon="-1.14749833">
        <ele>834.0</ele>
        <time>2019-07-31T15:59:30.082Z</time>
      </trkpt>
      <trkpt lat="42.99836333" lon="-1.147485">
        <ele>836.0</ele>
        <time>2019-07-31T15:59:31.088Z</time>
      </trkpt>
      <trkpt lat="42.99834333" lon="-1.14746667">
        <ele>837.0</ele>
        <time>2019-07-31T15:59:32.095Z</time>
      </trkpt>
      <trkpt lat="42.99832833" lon="-1.14745">
        <ele>839.0</ele>
        <time>2019-07-31T15:59:33.102Z</time>
      </trkpt>
      <trkpt lat="42.99831" lon="-1.14743333">
        <ele>840.0</ele>
        <time>2019-07-31T15:59:34.107Z</time>
      </trkpt>
      <trkpt lat="42.99829667" lon="-1.14742333">
        <ele>840.0</ele>
        <time>2019-07-31T15:59:35.114Z</time>
      </trkpt>
      <trkpt lat="42.99828" lon="-1.14741">
        <ele>841.0</ele>
        <time>2019-07-31T15:59:36.120Z</time>
      </trkpt>
      <trkpt lat="42.99826" lon="-1.14739">
        <ele>842.0</ele>
        <time>2019-07-31T15:59:37.124Z</time>
      </trkpt>
      <trkpt lat="42.99824333" lon="-1.14737">
        <ele>843.0</ele>
        <time>2019-07-31T15:59:38.128Z</time>
      </trkpt>
      <trkpt lat="42.99822833" lon="-1.14735833">
        <ele>843.0</ele>
        <time>2019-07-31T15:59:39.134Z</time>
      </trkpt>
      <trkpt lat="42.99821167" lon="-1.14735">
        <ele>843.0</ele>
        <time>2019-07-31T15:59:40.138Z</time>
      </trkpt>
      <trkpt lat="42.99819833" lon="-1.14734">
        <ele>843.0</ele>
        <time>2019-07-31T15:59:41.145Z</time>
      </trkpt>
      <trkpt lat="42.998185" lon="-1.14733667">
        <ele>842.0</ele>
        <time>2019-07-31T15:59:42.152Z</time>
      </trkpt>
      <trkpt lat="42.99817167" lon="-1.14733333">
        <ele>840.0</ele>
        <time>2019-07-31T15:59:43.158Z</time>
      </trkpt>
      <trkpt lat="42.99815167" lon="-1.14732833">
        <ele>840.0</ele>
        <time>2019-07-31T15:59:44.162Z</time>
      </trkpt>
      <trkpt lat="42.998135" lon="-1.14732">
        <ele>839.0</ele>
        <time>2019-07-31T15:59:45.165Z</time>
      </trkpt>
      <trkpt lat="42.99813" lon="-1.14732333">
        <ele>839.0</ele>
        <time>2019-07-31T15:59:46.171Z</time>
      </trkpt>
      <trkpt lat="42.99810667" lon="-1.14732">
        <ele>839.0</ele>
        <time>2019-07-31T15:59:47.174Z</time>
      </trkpt>
      <trkpt lat="42.998085" lon="-1.14731667">
        <ele>839.0</ele>
        <time>2019-07-31T15:59:48.178Z</time>
      </trkpt>
      <trkpt lat="42.99806833" lon="-1.14731">
        <ele>840.0</ele>
        <time>2019-07-31T15:59:49.183Z</time>
      </trkpt>
      <trkpt lat="42.99805667" lon="-1.1473">
        <ele>840.0</ele>
        <time>2019-07-31T15:59:50.063Z</time>
      </trkpt>
      <trkpt lat="42.99803333" lon="-1.14729167">
        <ele>842.0</ele>
        <time>2019-07-31T15:59:51.068Z</time>
      </trkpt>
      <trkpt lat="42.99801833" lon="-1.14728167">
        <ele>843.0</ele>
        <time>2019-07-31T15:59:52.074Z</time>
      </trkpt>
      <trkpt lat="42.998" lon="-1.14727167">
        <ele>843.0</ele>
        <time>2019-07-31T15:59:53.081Z</time>
      </trkpt>
      <trkpt lat="42.997985" lon="-1.14726167">
        <ele>843.0</ele>
        <time>2019-07-31T15:59:54.087Z</time>
      </trkpt>
      <trkpt lat="42.99797" lon="-1.14725667">
        <ele>843.0</ele>
        <time>2019-07-31T15:59:55.094Z</time>
      </trkpt>
      <trkpt lat="42.99795" lon="-1.147255">
        <ele>843.0</ele>
        <time>2019-07-31T15:59:56.100Z</time>
      </trkpt>
      <trkpt lat="42.99793333" lon="-1.14725333">
        <ele>843.0</ele>
        <time>2019-07-31T15:59:57.105Z</time>
      </trkpt>
      <trkpt lat="42.99791667" lon="-1.14725667">
        <ele>842.0</ele>
        <time>2019-07-31T15:59:58.112Z</time>
      </trkpt>
      <trkpt lat="42.9979" lon="-1.14725333">
        <ele>842.0</ele>
        <time>2019-07-31T15:59:59.118Z</time>
      </trkpt>
      <trkpt lat="42.99788333" lon="-1.14724667">
        <ele>843.0</ele>
        <time>2019-07-31T16:00:00.123Z</time>
      </trkpt>
      <trkpt lat="42.99786667" lon="-1.14724333">
        <ele>842.0</ele>
        <time>2019-07-31T16:00:01.125Z</time>
      </trkpt>
      <trkpt lat="42.99785167" lon="-1.14723833">
        <ele>842.0</ele>
        <time>2019-07-31T16:00:02.128Z</time>
      </trkpt>
      <trkpt lat="42.99783667" lon="-1.14724">
        <ele>842.0</ele>
        <time>2019-07-31T16:00:03.133Z</time>
      </trkpt>
      <trkpt lat="42.99782167" lon="-1.14724333">
        <ele>841.0</ele>
        <time>2019-07-31T16:00:04.137Z</time>
      </trkpt>
      <trkpt lat="42.99781167" lon="-1.14724667">
        <ele>841.0</ele>
        <time>2019-07-31T16:00:05.142Z</time>
      </trkpt>
      <trkpt lat="42.99779" lon="-1.14725">
        <ele>841.0</ele>
        <time>2019-07-31T16:00:06.148Z</time>
      </trkpt>
      <trkpt lat="42.99777333" lon="-1.14724833">
        <ele>841.0</ele>
        <time>2019-07-31T16:00:07.154Z</time>
      </trkpt>
      <trkpt lat="42.99776" lon="-1.147245">
        <ele>841.0</ele>
        <time>2019-07-31T16:00:08.159Z</time>
      </trkpt>
      <trkpt lat="42.997745" lon="-1.14724167">
        <ele>841.0</ele>
        <time>2019-07-31T16:00:09.165Z</time>
      </trkpt>
      <trkpt lat="42.99772667" lon="-1.14724">
        <ele>840.0</ele>
        <time>2019-07-31T16:00:10.169Z</time>
      </trkpt>
      <trkpt lat="42.99771167" lon="-1.14724">
        <ele>840.0</ele>
        <time>2019-07-31T16:00:11.173Z</time>
      </trkpt>
      <trkpt lat="42.99769833" lon="-1.147245">
        <ele>840.0</ele>
        <time>2019-07-31T16:00:12.177Z</time>
      </trkpt>
      <trkpt lat="42.997685" lon="-1.14725">
        <ele>839.0</ele>
        <time>2019-07-31T16:00:13.183Z</time>
      </trkpt>
      <trkpt lat="42.99767333" lon="-1.14725167">
        <ele>839.0</ele>
        <time>2019-07-31T16:00:14.064Z</time>
      </trkpt>
      <trkpt lat="42.997655" lon="-1.14725667">
        <ele>838.0</ele>
        <time>2019-07-31T16:00:15.065Z</time>
      </trkpt>
      <trkpt lat="42.99764167" lon="-1.14725667">
        <ele>837.0</ele>
        <time>2019-07-31T16:00:16.071Z</time>
      </trkpt>
      <trkpt lat="42.997625" lon="-1.14726">
        <ele>837.0</ele>
        <time>2019-07-31T16:00:17.075Z</time>
      </trkpt>
      <trkpt lat="42.99761" lon="-1.14726333">
        <ele>836.0</ele>
        <time>2019-07-31T16:00:18.082Z</time>
      </trkpt>
      <trkpt lat="42.99759333" lon="-1.14726333">
        <ele>836.0</ele>
        <time>2019-07-31T16:00:19.082Z</time>
      </trkpt>
      <trkpt lat="42.99758" lon="-1.14727">
        <ele>835.0</ele>
        <time>2019-07-31T16:00:20.087Z</time>
      </trkpt>
      <trkpt lat="42.99756333" lon="-1.14727667">
        <ele>835.0</ele>
        <time>2019-07-31T16:00:21.092Z</time>
      </trkpt>
      <trkpt lat="42.99754667" lon="-1.14728667">
        <ele>834.0</ele>
        <time>2019-07-31T16:00:22.097Z</time>
      </trkpt>
      <trkpt lat="42.99753167" lon="-1.14729667">
        <ele>833.0</ele>
        <time>2019-07-31T16:00:23.102Z</time>
      </trkpt>
      <trkpt lat="42.99751667" lon="-1.147305">
        <ele>833.0</ele>
        <time>2019-07-31T16:00:24.108Z</time>
      </trkpt>
      <trkpt lat="42.9975" lon="-1.14731667">
        <ele>832.0</ele>
        <time>2019-07-31T16:00:25.114Z</time>
      </trkpt>
      <trkpt lat="42.997485" lon="-1.14732833">
        <ele>831.0</ele>
        <time>2019-07-31T16:00:26.119Z</time>
      </trkpt>
      <trkpt lat="42.99747" lon="-1.14734167">
        <ele>831.0</ele>
        <time>2019-07-31T16:00:27.123Z</time>
      </trkpt>
      <trkpt lat="42.99745667" lon="-1.14735167">
        <ele>830.0</ele>
        <time>2019-07-31T16:00:28.128Z</time>
      </trkpt>
      <trkpt lat="42.99744333" lon="-1.14736333">
        <ele>830.0</ele>
        <time>2019-07-31T16:00:29.130Z</time>
      </trkpt>
      <trkpt lat="42.99742833" lon="-1.147375">
        <ele>829.0</ele>
        <time>2019-07-31T16:00:30.137Z</time>
      </trkpt>
      <trkpt lat="42.997415" lon="-1.14738667">
        <ele>829.0</ele>
        <time>2019-07-31T16:00:31.142Z</time>
      </trkpt>
      <trkpt lat="42.99740167" lon="-1.14740167">
        <ele>828.0</ele>
        <time>2019-07-31T16:00:32.146Z</time>
      </trkpt>
      <trkpt lat="42.99739" lon="-1.147415">
        <ele>827.0</ele>
        <time>2019-07-31T16:00:33.150Z</time>
      </trkpt>
      <trkpt lat="42.99737167" lon="-1.14742667">
        <ele>827.0</ele>
        <time>2019-07-31T16:00:34.155Z</time>
      </trkpt>
      <trkpt lat="42.99735667" lon="-1.14743667">
        <ele>827.0</ele>
        <time>2019-07-31T16:00:35.161Z</time>
      </trkpt>
      <trkpt lat="42.99734167" lon="-1.14744833">
        <ele>827.0</ele>
        <time>2019-07-31T16:00:36.166Z</time>
      </trkpt>
      <trkpt lat="42.99733" lon="-1.14745667">
        <ele>827.0</ele>
        <time>2019-07-31T16:00:37.172Z</time>
      </trkpt>
      <trkpt lat="42.99732" lon="-1.147465">
        <ele>826.0</ele>
        <time>2019-07-31T16:00:38.178Z</time>
      </trkpt>
      <trkpt lat="42.99730333" lon="-1.14747333">
        <ele>825.0</ele>
        <time>2019-07-31T16:00:39.184Z</time>
      </trkpt>
      <trkpt lat="42.99729" lon="-1.14748167">
        <ele>825.0</ele>
        <time>2019-07-31T16:00:40.064Z</time>
      </trkpt>
      <trkpt lat="42.997275" lon="-1.14749167">
        <ele>825.0</ele>
        <time>2019-07-31T16:00:41.069Z</time>
      </trkpt>
      <trkpt lat="42.99726167" lon="-1.1475">
        <ele>825.0</ele>
        <time>2019-07-31T16:00:42.074Z</time>
      </trkpt>
      <trkpt lat="42.99724667" lon="-1.14750833">
        <ele>825.0</ele>
        <time>2019-07-31T16:00:43.080Z</time>
      </trkpt>
      <trkpt lat="42.99723167" lon="-1.14751667">
        <ele>825.0</ele>
        <time>2019-07-31T16:00:44.085Z</time>
      </trkpt>
      <trkpt lat="42.99721833" lon="-1.14752667">
        <ele>825.0</ele>
        <time>2019-07-31T16:00:45.091Z</time>
      </trkpt>
      <trkpt lat="42.997205" lon="-1.14753333">
        <ele>824.0</ele>
        <time>2019-07-31T16:00:46.095Z</time>
      </trkpt>
      <trkpt lat="42.99719167" lon="-1.14753667">
        <ele>825.0</ele>
        <time>2019-07-31T16:00:47.102Z</time>
      </trkpt>
      <trkpt lat="42.997175" lon="-1.14754167">
        <ele>825.0</ele>
        <time>2019-07-31T16:00:48.108Z</time>
      </trkpt>
      <trkpt lat="42.99716" lon="-1.14754833">
        <ele>825.0</ele>
        <time>2019-07-31T16:00:49.111Z</time>
      </trkpt>
      <trkpt lat="42.99714667" lon="-1.14755333">
        <ele>825.0</ele>
        <time>2019-07-31T16:00:50.115Z</time>
      </trkpt>
      <trkpt lat="42.99713" lon="-1.14755833">
        <ele>825.0</ele>
        <time>2019-07-31T16:00:51.121Z</time>
      </trkpt>
      <trkpt lat="42.99711833" lon="-1.14756">
        <ele>825.0</ele>
        <time>2019-07-31T16:00:52.126Z</time>
      </trkpt>
      <trkpt lat="42.99709667" lon="-1.14756667">
        <ele>825.0</ele>
        <time>2019-07-31T16:00:53.131Z</time>
      </trkpt>
      <trkpt lat="42.99708" lon="-1.14757">
        <ele>826.0</ele>
        <time>2019-07-31T16:00:54.136Z</time>
      </trkpt>
      <trkpt lat="42.99706333" lon="-1.147575">
        <ele>826.0</ele>
        <time>2019-07-31T16:00:55.142Z</time>
      </trkpt>
      <trkpt lat="42.99704667" lon="-1.14758333">
        <ele>826.0</ele>
        <time>2019-07-31T16:00:56.148Z</time>
      </trkpt>
      <trkpt lat="42.99703167" lon="-1.14758833">
        <ele>826.0</ele>
        <time>2019-07-31T16:00:57.155Z</time>
      </trkpt>
      <trkpt lat="42.99701833" lon="-1.147595">
        <ele>825.0</ele>
        <time>2019-07-31T16:00:58.162Z</time>
      </trkpt>
      <trkpt lat="42.99700333" lon="-1.14760167">
        <ele>825.0</ele>
        <time>2019-07-31T16:00:59.167Z</time>
      </trkpt>
      <trkpt lat="42.99698833" lon="-1.14760667">
        <ele>825.0</ele>
        <time>2019-07-31T16:01:00.173Z</time>
      </trkpt>
      <trkpt lat="42.99697167" lon="-1.14761333">
        <ele>825.0</ele>
        <time>2019-07-31T16:01:01.178Z</time>
      </trkpt>
      <trkpt lat="42.99695667" lon="-1.14762167">
        <ele>825.0</ele>
        <time>2019-07-31T16:01:02.181Z</time>
      </trkpt>
      <trkpt lat="42.99694333" lon="-1.14763167">
        <ele>825.0</ele>
        <time>2019-07-31T16:01:03.185Z</time>
      </trkpt>
      <trkpt lat="42.99693" lon="-1.14764167">
        <ele>824.0</ele>
        <time>2019-07-31T16:01:04.065Z</time>
      </trkpt>
      <trkpt lat="42.996915" lon="-1.14765167">
        <ele>824.0</ele>
        <time>2019-07-31T16:01:05.071Z</time>
      </trkpt>
      <trkpt lat="42.99690167" lon="-1.147665">
        <ele>823.0</ele>
        <time>2019-07-31T16:01:06.078Z</time>
      </trkpt>
      <trkpt lat="42.99688833" lon="-1.14767667">
        <ele>823.0</ele>
        <time>2019-07-31T16:01:07.085Z</time>
      </trkpt>
      <trkpt lat="42.99687667" lon="-1.14769333">
        <ele>823.0</ele>
        <time>2019-07-31T16:01:08.087Z</time>
      </trkpt>
      <trkpt lat="42.99686333" lon="-1.14770833">
        <ele>823.0</ele>
        <time>2019-07-31T16:01:09.092Z</time>
      </trkpt>
      <trkpt lat="42.99685" lon="-1.14772833">
        <ele>823.0</ele>
        <time>2019-07-31T16:01:10.093Z</time>
      </trkpt>
      <trkpt lat="42.99683667" lon="-1.147745">
        <ele>823.0</ele>
        <time>2019-07-31T16:01:11.095Z</time>
      </trkpt>
      <trkpt lat="42.99682667" lon="-1.14776167">
        <ele>823.0</ele>
        <time>2019-07-31T16:01:12.100Z</time>
      </trkpt>
      <trkpt lat="42.99681833" lon="-1.14777833">
        <ele>823.0</ele>
        <time>2019-07-31T16:01:13.106Z</time>
      </trkpt>
      <trkpt lat="42.99680833" lon="-1.14779833">
        <ele>823.0</ele>
        <time>2019-07-31T16:01:14.110Z</time>
      </trkpt>
      <trkpt lat="42.99679667" lon="-1.14781833">
        <ele>822.0</ele>
        <time>2019-07-31T16:01:15.117Z</time>
      </trkpt>
      <trkpt lat="42.99678667" lon="-1.14783667">
        <ele>822.0</ele>
        <time>2019-07-31T16:01:16.123Z</time>
      </trkpt>
      <trkpt lat="42.99677833" lon="-1.147855">
        <ele>822.0</ele>
        <time>2019-07-31T16:01:17.128Z</time>
      </trkpt>
      <trkpt lat="42.99677333" lon="-1.147875">
        <ele>822.0</ele>
        <time>2019-07-31T16:01:18.135Z</time>
      </trkpt>
      <trkpt lat="42.99676833" lon="-1.14789333">
        <ele>821.0</ele>
        <time>2019-07-31T16:01:19.141Z</time>
      </trkpt>
      <trkpt lat="42.99676333" lon="-1.14791333">
        <ele>821.0</ele>
        <time>2019-07-31T16:01:20.146Z</time>
      </trkpt>
      <trkpt lat="42.99675833" lon="-1.14793333">
        <ele>820.0</ele>
        <time>2019-07-31T16:01:21.150Z</time>
      </trkpt>
      <trkpt lat="42.99675167" lon="-1.14795167">
        <ele>820.0</ele>
        <time>2019-07-31T16:01:22.156Z</time>
      </trkpt>
      <trkpt lat="42.996745" lon="-1.147965">
        <ele>820.0</ele>
        <time>2019-07-31T16:01:23.158Z</time>
      </trkpt>
      <trkpt lat="42.99673833" lon="-1.147975">
        <ele>820.0</ele>
        <time>2019-07-31T16:01:24.162Z</time>
      </trkpt>
      <trkpt lat="42.99672667" lon="-1.14798667">
        <ele>821.0</ele>
        <time>2019-07-31T16:01:25.168Z</time>
      </trkpt>
      <trkpt lat="42.99671667" lon="-1.14799667">
        <ele>822.0</ele>
        <time>2019-07-31T16:01:26.170Z</time>
      </trkpt>
      <trkpt lat="42.996705" lon="-1.14800667">
        <ele>823.0</ele>
        <time>2019-07-31T16:01:27.174Z</time>
      </trkpt>
      <trkpt lat="42.99669333" lon="-1.148015">
        <ele>824.0</ele>
        <time>2019-07-31T16:01:28.181Z</time>
      </trkpt>
      <trkpt lat="42.99668" lon="-1.148025">
        <ele>824.0</ele>
        <time>2019-07-31T16:01:29.063Z</time>
      </trkpt>
      <trkpt lat="42.996665" lon="-1.14803167">
        <ele>825.0</ele>
        <time>2019-07-31T16:01:30.069Z</time>
      </trkpt>
      <trkpt lat="42.99665" lon="-1.14803667">
        <ele>824.0</ele>
        <time>2019-07-31T16:01:31.077Z</time>
      </trkpt>
      <trkpt lat="42.99663667" lon="-1.14804167">
        <ele>824.0</ele>
        <time>2019-07-31T16:01:32.083Z</time>
      </trkpt>
      <trkpt lat="42.99662167" lon="-1.14804333">
        <ele>824.0</ele>
        <time>2019-07-31T16:01:33.087Z</time>
      </trkpt>
      <trkpt lat="42.99660667" lon="-1.14804167">
        <ele>825.0</ele>
        <time>2019-07-31T16:01:34.092Z</time>
      </trkpt>
      <trkpt lat="42.99659" lon="-1.14803667">
        <ele>826.0</ele>
        <time>2019-07-31T16:01:35.097Z</time>
      </trkpt>
      <trkpt lat="42.996575" lon="-1.14802833">
        <ele>826.0</ele>
        <time>2019-07-31T16:01:36.101Z</time>
      </trkpt>
      <trkpt lat="42.99656167" lon="-1.14802">
        <ele>827.0</ele>
        <time>2019-07-31T16:01:37.108Z</time>
      </trkpt>
      <trkpt lat="42.99654667" lon="-1.14801167">
        <ele>827.0</ele>
        <time>2019-07-31T16:01:38.114Z</time>
      </trkpt>
      <trkpt lat="42.99653167" lon="-1.14800167">
        <ele>827.0</ele>
        <time>2019-07-31T16:01:39.120Z</time>
      </trkpt>
      <trkpt lat="42.99651667" lon="-1.147995">
        <ele>827.0</ele>
        <time>2019-07-31T16:01:40.126Z</time>
      </trkpt>
      <trkpt lat="42.9965" lon="-1.14798667">
        <ele>828.0</ele>
        <time>2019-07-31T16:01:41.132Z</time>
      </trkpt>
      <trkpt lat="42.99648333" lon="-1.14798167">
        <ele>829.0</ele>
        <time>2019-07-31T16:01:42.137Z</time>
      </trkpt>
      <trkpt lat="42.996465" lon="-1.14798">
        <ele>829.0</ele>
        <time>2019-07-31T16:01:43.142Z</time>
      </trkpt>
      <trkpt lat="42.99644833" lon="-1.14797667">
        <ele>830.0</ele>
        <time>2019-07-31T16:01:44.147Z</time>
      </trkpt>
      <trkpt lat="42.99643167" lon="-1.147975">
        <ele>831.0</ele>
        <time>2019-07-31T16:01:45.153Z</time>
      </trkpt>
      <trkpt lat="42.996415" lon="-1.14797333">
        <ele>832.0</ele>
        <time>2019-07-31T16:01:46.158Z</time>
      </trkpt>
      <trkpt lat="42.99639833" lon="-1.14797">
        <ele>832.0</ele>
        <time>2019-07-31T16:01:47.164Z</time>
      </trkpt>
      <trkpt lat="42.99638333" lon="-1.14796833">
        <ele>833.0</ele>
        <time>2019-07-31T16:01:48.170Z</time>
      </trkpt>
      <trkpt lat="42.99636833" lon="-1.14797">
        <ele>833.0</ele>
        <time>2019-07-31T16:01:49.176Z</time>
      </trkpt>
      <trkpt lat="42.996355" lon="-1.14796667">
        <ele>833.0</ele>
        <time>2019-07-31T16:01:50.183Z</time>
      </trkpt>
      <trkpt lat="42.996335" lon="-1.14796333">
        <ele>833.0</ele>
        <time>2019-07-31T16:01:51.063Z</time>
      </trkpt>
      <trkpt lat="42.99631833" lon="-1.147955">
        <ele>833.0</ele>
        <time>2019-07-31T16:01:52.069Z</time>
      </trkpt>
      <trkpt lat="42.9963" lon="-1.14794833">
        <ele>833.0</ele>
        <time>2019-07-31T16:01:53.075Z</time>
      </trkpt>
      <trkpt lat="42.99628667" lon="-1.14794667">
        <ele>833.0</ele>
        <time>2019-07-31T16:01:54.082Z</time>
      </trkpt>
      <trkpt lat="42.99626667" lon="-1.14794333">
        <ele>833.0</ele>
        <time>2019-07-31T16:01:55.084Z</time>
      </trkpt>
      <trkpt lat="42.99625333" lon="-1.14794333">
        <ele>832.0</ele>
        <time>2019-07-31T16:01:56.086Z</time>
      </trkpt>
      <trkpt lat="42.99624" lon="-1.14794833">
        <ele>831.0</ele>
        <time>2019-07-31T16:01:57.090Z</time>
      </trkpt>
      <trkpt lat="42.996225" lon="-1.14794833">
        <ele>832.0</ele>
        <time>2019-07-31T16:01:58.093Z</time>
      </trkpt>
      <trkpt lat="42.99620833" lon="-1.14794667">
        <ele>832.0</ele>
        <time>2019-07-31T16:01:59.098Z</time>
      </trkpt>
      <trkpt lat="42.99619333" lon="-1.147945">
        <ele>832.0</ele>
        <time>2019-07-31T16:02:00.103Z</time>
      </trkpt>
      <trkpt lat="42.99617667" lon="-1.14794667">
        <ele>832.0</ele>
        <time>2019-07-31T16:02:01.109Z</time>
      </trkpt>
      <trkpt lat="42.99616" lon="-1.14794833">
        <ele>832.0</ele>
        <time>2019-07-31T16:02:02.115Z</time>
      </trkpt>
      <trkpt lat="42.996145" lon="-1.14795">
        <ele>832.0</ele>
        <time>2019-07-31T16:02:03.121Z</time>
      </trkpt>
      <trkpt lat="42.99613" lon="-1.14795667">
        <ele>832.0</ele>
        <time>2019-07-31T16:02:04.126Z</time>
      </trkpt>
      <trkpt lat="42.996115" lon="-1.14796333">
        <ele>831.0</ele>
        <time>2019-07-31T16:02:05.129Z</time>
      </trkpt>
      <trkpt lat="42.99609833" lon="-1.14796833">
        <ele>831.0</ele>
        <time>2019-07-31T16:02:06.132Z</time>
      </trkpt>
      <trkpt lat="42.99608333" lon="-1.14797333">
        <ele>831.0</ele>
        <time>2019-07-31T16:02:07.137Z</time>
      </trkpt>
      <trkpt lat="42.99606667" lon="-1.14798">
        <ele>830.0</ele>
        <time>2019-07-31T16:02:08.143Z</time>
      </trkpt>
      <trkpt lat="42.99605167" lon="-1.147985">
        <ele>830.0</ele>
        <time>2019-07-31T16:02:09.148Z</time>
      </trkpt>
      <trkpt lat="42.996035" lon="-1.14798833">
        <ele>830.0</ele>
        <time>2019-07-31T16:02:10.150Z</time>
      </trkpt>
      <trkpt lat="42.99602" lon="-1.14799167">
        <ele>830.0</ele>
        <time>2019-07-31T16:02:11.155Z</time>
      </trkpt>
      <trkpt lat="42.99600333" lon="-1.147995">
        <ele>829.0</ele>
        <time>2019-07-31T16:02:12.162Z</time>
      </trkpt>
      <trkpt lat="42.99598833" lon="-1.14800167">
        <ele>829.0</ele>
        <time>2019-07-31T16:02:13.167Z</time>
      </trkpt>
      <trkpt lat="42.99597333" lon="-1.14801167">
        <ele>828.0</ele>
        <time>2019-07-31T16:02:14.172Z</time>
      </trkpt>
      <trkpt lat="42.99595667" lon="-1.14802333">
        <ele>828.0</ele>
        <time>2019-07-31T16:02:15.178Z</time>
      </trkpt>
      <trkpt lat="42.99594167" lon="-1.14803167">
        <ele>827.0</ele>
        <time>2019-07-31T16:02:16.181Z</time>
      </trkpt>
      <trkpt lat="42.99592667" lon="-1.14804167">
        <ele>827.0</ele>
        <time>2019-07-31T16:02:17.185Z</time>
      </trkpt>
      <trkpt lat="42.99590833" lon="-1.14804667">
        <ele>827.0</ele>
        <time>2019-07-31T16:02:18.065Z</time>
      </trkpt>
      <trkpt lat="42.99589333" lon="-1.14805167">
        <ele>827.0</ele>
        <time>2019-07-31T16:02:19.070Z</time>
      </trkpt>
      <trkpt lat="42.99587833" lon="-1.14805667">
        <ele>827.0</ele>
        <time>2019-07-31T16:02:20.077Z</time>
      </trkpt>
      <trkpt lat="42.99586167" lon="-1.14806333">
        <ele>827.0</ele>
        <time>2019-07-31T16:02:21.083Z</time>
      </trkpt>
      <trkpt lat="42.995845" lon="-1.148065">
        <ele>828.0</ele>
        <time>2019-07-31T16:02:22.088Z</time>
      </trkpt>
      <trkpt lat="42.99583" lon="-1.14806833">
        <ele>828.0</ele>
        <time>2019-07-31T16:02:23.094Z</time>
      </trkpt>
      <trkpt lat="42.995815" lon="-1.14807167">
        <ele>828.0</ele>
        <time>2019-07-31T16:02:24.100Z</time>
      </trkpt>
      <trkpt lat="42.99579833" lon="-1.14807833">
        <ele>829.0</ele>
        <time>2019-07-31T16:02:25.104Z</time>
      </trkpt>
      <trkpt lat="42.995785" lon="-1.14808667">
        <ele>828.0</ele>
        <time>2019-07-31T16:02:26.110Z</time>
      </trkpt>
      <trkpt lat="42.99577333" lon="-1.148095">
        <ele>828.0</ele>
        <time>2019-07-31T16:02:27.116Z</time>
      </trkpt>
      <trkpt lat="42.99575667" lon="-1.14810333">
        <ele>829.0</ele>
        <time>2019-07-31T16:02:28.120Z</time>
      </trkpt>
      <trkpt lat="42.995745" lon="-1.148115">
        <ele>828.0</ele>
        <time>2019-07-31T16:02:29.125Z</time>
      </trkpt>
      <trkpt lat="42.99573167" lon="-1.14812333">
        <ele>828.0</ele>
        <time>2019-07-31T16:02:30.128Z</time>
      </trkpt>
      <trkpt lat="42.99571667" lon="-1.14813167">
        <ele>827.0</ele>
        <time>2019-07-31T16:02:31.131Z</time>
      </trkpt>
      <trkpt lat="42.9957" lon="-1.14813167">
        <ele>827.0</ele>
        <time>2019-07-31T16:02:32.134Z</time>
      </trkpt>
      <trkpt lat="42.99568333" lon="-1.14813">
        <ele>827.0</ele>
        <time>2019-07-31T16:02:33.140Z</time>
      </trkpt>
      <trkpt lat="42.99567" lon="-1.148135">
        <ele>827.0</ele>
        <time>2019-07-31T16:02:34.145Z</time>
      </trkpt>
      <trkpt lat="42.99565333" lon="-1.14814167">
        <ele>827.0</ele>
        <time>2019-07-31T16:02:35.150Z</time>
      </trkpt>
      <trkpt lat="42.99564" lon="-1.14814333">
        <ele>827.0</ele>
        <time>2019-07-31T16:02:36.156Z</time>
      </trkpt>
      <trkpt lat="42.99562333" lon="-1.14815167">
        <ele>827.0</ele>
        <time>2019-07-31T16:02:37.160Z</time>
      </trkpt>
      <trkpt lat="42.99560667" lon="-1.14815167">
        <ele>827.0</ele>
        <time>2019-07-31T16:02:38.166Z</time>
      </trkpt>
      <trkpt lat="42.99559333" lon="-1.14815333">
        <ele>828.0</ele>
        <time>2019-07-31T16:02:39.171Z</time>
      </trkpt>
      <trkpt lat="42.99557667" lon="-1.148155">
        <ele>828.0</ele>
        <time>2019-07-31T16:02:40.177Z</time>
      </trkpt>
      <trkpt lat="42.99556" lon="-1.148155">
        <ele>828.0</ele>
        <time>2019-07-31T16:02:41.182Z</time>
      </trkpt>
      <trkpt lat="42.995545" lon="-1.14816333">
        <ele>828.0</ele>
        <time>2019-07-31T16:02:42.063Z</time>
      </trkpt>
      <trkpt lat="42.99553" lon="-1.14817">
        <ele>828.0</ele>
        <time>2019-07-31T16:02:43.069Z</time>
      </trkpt>
      <trkpt lat="42.99551833" lon="-1.14817833">
        <ele>827.0</ele>
        <time>2019-07-31T16:02:44.074Z</time>
      </trkpt>
      <trkpt lat="42.995505" lon="-1.148185">
        <ele>827.0</ele>
        <time>2019-07-31T16:02:45.080Z</time>
      </trkpt>
      <trkpt lat="42.99549167" lon="-1.14819">
        <ele>827.0</ele>
        <time>2019-07-31T16:02:46.085Z</time>
      </trkpt>
      <trkpt lat="42.99548333" lon="-1.14819667">
        <ele>827.0</ele>
        <time>2019-07-31T16:02:47.090Z</time>
      </trkpt>
      <trkpt lat="42.995475" lon="-1.14819833">
        <ele>826.0</ele>
        <time>2019-07-31T16:02:48.094Z</time>
      </trkpt>
      <trkpt lat="42.99547167" lon="-1.1482">
        <ele>826.0</ele>
        <time>2019-07-31T16:02:49.098Z</time>
      </trkpt>
      <trkpt lat="42.995475" lon="-1.1482">
        <ele>825.0</ele>
        <time>2019-07-31T16:02:50.104Z</time>
      </trkpt>
      <trkpt lat="42.99547667" lon="-1.14820167">
        <ele>825.0</ele>
        <time>2019-07-31T16:02:51.110Z</time>
      </trkpt>
      <trkpt lat="42.995475" lon="-1.14820167">
        <ele>826.0</ele>
        <time>2019-07-31T16:02:52.117Z</time>
      </trkpt>
      <trkpt lat="42.99547167" lon="-1.148205">
        <ele>826.0</ele>
        <time>2019-07-31T16:02:53.123Z</time>
      </trkpt>
      <trkpt lat="42.99546667" lon="-1.14820667">
        <ele>826.0</ele>
        <time>2019-07-31T16:02:54.127Z</time>
      </trkpt>
      <trkpt lat="42.995465" lon="-1.14820667">
        <ele>827.0</ele>
        <time>2019-07-31T16:02:55.132Z</time>
      </trkpt>
      <trkpt lat="42.99546167" lon="-1.148205">
        <ele>827.0</ele>
        <time>2019-07-31T16:02:56.138Z</time>
      </trkpt>
      <trkpt lat="42.99546167" lon="-1.14820333">
        <ele>827.0</ele>
        <time>2019-07-31T16:02:57.146Z</time>
      </trkpt>
      <trkpt lat="42.99546167" lon="-1.148205">
        <ele>828.0</ele>
        <time>2019-07-31T16:02:58.151Z</time>
      </trkpt>
      <trkpt lat="42.99546167" lon="-1.14820667">
        <ele>827.0</ele>
        <time>2019-07-31T16:02:59.157Z</time>
      </trkpt>
      <trkpt lat="42.99545833" lon="-1.14820167">
        <ele>828.0</ele>
        <time>2019-07-31T16:03:00.164Z</time>
      </trkpt>
      <trkpt lat="42.99545833" lon="-1.14819833">
        <ele>828.0</ele>
        <time>2019-07-31T16:03:01.170Z</time>
      </trkpt>
      <trkpt lat="42.99545833" lon="-1.148195">
        <ele>828.0</ele>
        <time>2019-07-31T16:03:02.175Z</time>
      </trkpt>
      <trkpt lat="42.99545667" lon="-1.14819167">
        <ele>828.0</ele>
        <time>2019-07-31T16:03:03.179Z</time>
      </trkpt>
      <trkpt lat="42.99545667" lon="-1.148195">
        <ele>828.0</ele>
        <time>2019-07-31T16:03:04.061Z</time>
      </trkpt>
      <trkpt lat="42.995465" lon="-1.14819833">
        <ele>827.0</ele>
        <time>2019-07-31T16:03:05.066Z</time>
      </trkpt>
      <trkpt lat="42.995465" lon="-1.14820333">
        <ele>827.0</ele>
        <time>2019-07-31T16:03:06.071Z</time>
      </trkpt>
      <trkpt lat="42.99546667" lon="-1.148205">
        <ele>826.0</ele>
        <time>2019-07-31T16:03:07.078Z</time>
      </trkpt>
      <trkpt lat="42.99546833" lon="-1.14820667">
        <ele>825.0</ele>
        <time>2019-07-31T16:03:08.084Z</time>
      </trkpt>
      <trkpt lat="42.99547" lon="-1.148205">
        <ele>825.0</ele>
        <time>2019-07-31T16:03:09.087Z</time>
      </trkpt>
      <trkpt lat="42.99547167" lon="-1.14820167">
        <ele>825.0</ele>
        <time>2019-07-31T16:03:10.092Z</time>
      </trkpt>
      <trkpt lat="42.99547167" lon="-1.14819833">
        <ele>825.0</ele>
        <time>2019-07-31T16:03:11.098Z</time>
      </trkpt>
      <trkpt lat="42.99547167" lon="-1.14819667">
        <ele>825.0</ele>
        <time>2019-07-31T16:03:12.103Z</time>
      </trkpt>
      <trkpt lat="42.99547" lon="-1.1482">
        <ele>825.0</ele>
        <time>2019-07-31T16:03:13.109Z</time>
      </trkpt>
      <trkpt lat="42.99547" lon="-1.14820167">
        <ele>825.0</ele>
        <time>2019-07-31T16:03:14.116Z</time>
      </trkpt>
      <trkpt lat="42.99547" lon="-1.14819833">
        <ele>825.0</ele>
        <time>2019-07-31T16:03:15.122Z</time>
      </trkpt>
      <trkpt lat="42.99546833" lon="-1.14820167">
        <ele>826.0</ele>
        <time>2019-07-31T16:03:16.127Z</time>
      </trkpt>
      <trkpt lat="42.99546333" lon="-1.14820667">
        <ele>826.0</ele>
        <time>2019-07-31T16:03:17.132Z</time>
      </trkpt>
      <trkpt lat="42.99546167" lon="-1.14820833">
        <ele>826.0</ele>
        <time>2019-07-31T16:03:18.138Z</time>
      </trkpt>
      <trkpt lat="42.99546" lon="-1.14821333">
        <ele>826.0</ele>
        <time>2019-07-31T16:03:19.142Z</time>
      </trkpt>
      <trkpt lat="42.99546" lon="-1.148215">
        <ele>826.0</ele>
        <time>2019-07-31T16:03:20.147Z</time>
      </trkpt>
      <trkpt lat="42.99546167" lon="-1.14821667">
        <ele>825.0</ele>
        <time>2019-07-31T16:03:21.153Z</time>
      </trkpt>
      <trkpt lat="42.99546167" lon="-1.14822167">
        <ele>824.0</ele>
        <time>2019-07-31T16:03:22.158Z</time>
      </trkpt>
      <trkpt lat="42.99546167" lon="-1.14822">
        <ele>823.0</ele>
        <time>2019-07-31T16:03:23.165Z</time>
      </trkpt>
      <trkpt lat="42.99546167" lon="-1.14821667">
        <ele>823.0</ele>
        <time>2019-07-31T16:03:24.170Z</time>
      </trkpt>
      <trkpt lat="42.99546167" lon="-1.14822167">
        <ele>823.0</ele>
        <time>2019-07-31T16:03:25.177Z</time>
      </trkpt>
      <trkpt lat="42.99546167" lon="-1.148225">
        <ele>823.0</ele>
        <time>2019-07-31T16:03:26.184Z</time>
      </trkpt>
      <trkpt lat="42.99546" lon="-1.14822667">
        <ele>823.0</ele>
        <time>2019-07-31T16:03:27.065Z</time>
      </trkpt>
      <trkpt lat="42.99546333" lon="-1.14822833">
        <ele>822.0</ele>
        <time>2019-07-31T16:03:28.071Z</time>
      </trkpt>
      <trkpt lat="42.99546833" lon="-1.14822667">
        <ele>821.0</ele>
        <time>2019-07-31T16:03:29.077Z</time>
      </trkpt>
      <trkpt lat="42.99546667" lon="-1.14823">
        <ele>822.0</ele>
        <time>2019-07-31T16:03:30.082Z</time>
      </trkpt>
      <trkpt lat="42.995465" lon="-1.14823">
        <ele>821.0</ele>
        <time>2019-07-31T16:03:31.085Z</time>
      </trkpt>
      <trkpt lat="42.99546167" lon="-1.14823">
        <ele>821.0</ele>
        <time>2019-07-31T16:03:32.089Z</time>
      </trkpt>
      <trkpt lat="42.99546167" lon="-1.14823">
        <ele>821.0</ele>
        <time>2019-07-31T16:03:33.095Z</time>
      </trkpt>
      <trkpt lat="42.99545833" lon="-1.14822833">
        <ele>821.0</ele>
        <time>2019-07-31T16:03:34.101Z</time>
      </trkpt>
      <trkpt lat="42.99545833" lon="-1.14823">
        <ele>822.0</ele>
        <time>2019-07-31T16:03:35.108Z</time>
      </trkpt>
      <trkpt lat="42.99545833" lon="-1.14823167">
        <ele>823.0</ele>
        <time>2019-07-31T16:03:36.115Z</time>
      </trkpt>
      <trkpt lat="42.99546167" lon="-1.14823167">
        <ele>822.0</ele>
        <time>2019-07-31T16:03:37.121Z</time>
      </trkpt>
      <trkpt lat="42.99546333" lon="-1.14823167">
        <ele>822.0</ele>
        <time>2019-07-31T16:03:38.127Z</time>
      </trkpt>
      <trkpt lat="42.99546167" lon="-1.14823">
        <ele>822.0</ele>
        <time>2019-07-31T16:03:39.132Z</time>
      </trkpt>
      <trkpt lat="42.99546" lon="-1.14822667">
        <ele>822.0</ele>
        <time>2019-07-31T16:03:40.137Z</time>
      </trkpt>
      <trkpt lat="42.99545667" lon="-1.14822667">
        <ele>823.0</ele>
        <time>2019-07-31T16:03:41.142Z</time>
      </trkpt>
      <trkpt lat="42.99545333" lon="-1.14822833">
        <ele>823.0</ele>
        <time>2019-07-31T16:03:42.145Z</time>
      </trkpt>
      <trkpt lat="42.99545" lon="-1.14823">
        <ele>824.0</ele>
        <time>2019-07-31T16:03:43.150Z</time>
      </trkpt>
      <trkpt lat="42.99544" lon="-1.14823">
        <ele>825.0</ele>
        <time>2019-07-31T16:03:44.156Z</time>
      </trkpt>
      <trkpt lat="42.99543167" lon="-1.14822667">
        <ele>825.0</ele>
        <time>2019-07-31T16:03:45.164Z</time>
      </trkpt>
      <trkpt lat="42.99541833" lon="-1.14822333">
        <ele>825.0</ele>
        <time>2019-07-31T16:03:46.170Z</time>
      </trkpt>
      <trkpt lat="42.99540667" lon="-1.14822167">
        <ele>825.0</ele>
        <time>2019-07-31T16:03:47.175Z</time>
      </trkpt>
      <trkpt lat="42.99539167" lon="-1.14821833">
        <ele>825.0</ele>
        <time>2019-07-31T16:03:48.180Z</time>
      </trkpt>
      <trkpt lat="42.99537833" lon="-1.14821333">
        <ele>825.0</ele>
        <time>2019-07-31T16:03:49.186Z</time>
      </trkpt>
      <trkpt lat="42.995365" lon="-1.14821333">
        <ele>826.0</ele>
        <time>2019-07-31T16:03:50.066Z</time>
      </trkpt>
      <trkpt lat="42.99535" lon="-1.14821333">
        <ele>825.0</ele>
        <time>2019-07-31T16:03:51.073Z</time>
      </trkpt>
      <trkpt lat="42.995335" lon="-1.14821167">
        <ele>826.0</ele>
        <time>2019-07-31T16:03:52.078Z</time>
      </trkpt>
      <trkpt lat="42.99532167" lon="-1.14821333">
        <ele>826.0</ele>
        <time>2019-07-31T16:03:53.084Z</time>
      </trkpt>
      <trkpt lat="42.99531" lon="-1.148215">
        <ele>826.0</ele>
        <time>2019-07-31T16:03:54.088Z</time>
      </trkpt>
      <trkpt lat="42.99529833" lon="-1.148215">
        <ele>826.0</ele>
        <time>2019-07-31T16:03:55.094Z</time>
      </trkpt>
      <trkpt lat="42.99528167" lon="-1.14821833">
        <ele>826.0</ele>
        <time>2019-07-31T16:03:56.101Z</time>
      </trkpt>
      <trkpt lat="42.99526833" lon="-1.14822333">
        <ele>827.0</ele>
        <time>2019-07-31T16:03:57.105Z</time>
      </trkpt>
      <trkpt lat="42.995255" lon="-1.14822167">
        <ele>827.0</ele>
        <time>2019-07-31T16:03:58.110Z</time>
      </trkpt>
      <trkpt lat="42.99524167" lon="-1.14822667">
        <ele>826.0</ele>
        <time>2019-07-31T16:03:59.114Z</time>
      </trkpt>
      <trkpt lat="42.99522667" lon="-1.14823167">
        <ele>826.0</ele>
        <time>2019-07-31T16:04:00.120Z</time>
      </trkpt>
      <trkpt lat="42.99521333" lon="-1.14822833">
        <ele>826.0</ele>
        <time>2019-07-31T16:04:01.125Z</time>
      </trkpt>
      <trkpt lat="42.9952" lon="-1.14822667">
        <ele>826.0</ele>
        <time>2019-07-31T16:04:02.128Z</time>
      </trkpt>
      <trkpt lat="42.99518333" lon="-1.14822667">
        <ele>826.0</ele>
        <time>2019-07-31T16:04:03.134Z</time>
      </trkpt>
      <trkpt lat="42.99516833" lon="-1.14822833">
        <ele>827.0</ele>
        <time>2019-07-31T16:04:04.140Z</time>
      </trkpt>
      <trkpt lat="42.99515167" lon="-1.14823333">
        <ele>827.0</ele>
        <time>2019-07-31T16:04:05.146Z</time>
      </trkpt>
      <trkpt lat="42.995135" lon="-1.14823667">
        <ele>827.0</ele>
        <time>2019-07-31T16:04:06.150Z</time>
      </trkpt>
      <trkpt lat="42.99512" lon="-1.14823833">
        <ele>826.0</ele>
        <time>2019-07-31T16:04:07.157Z</time>
      </trkpt>
      <trkpt lat="42.99510667" lon="-1.14824">
        <ele>826.0</ele>
        <time>2019-07-31T16:04:08.161Z</time>
      </trkpt>
      <trkpt lat="42.99509" lon="-1.14824167">
        <ele>826.0</ele>
        <time>2019-07-31T16:04:09.166Z</time>
      </trkpt>
      <trkpt lat="42.99507333" lon="-1.148245">
        <ele>825.0</ele>
        <time>2019-07-31T16:04:10.169Z</time>
      </trkpt>
      <trkpt lat="42.99506167" lon="-1.148245">
        <ele>826.0</ele>
        <time>2019-07-31T16:04:11.175Z</time>
      </trkpt>
      <trkpt lat="42.99505" lon="-1.14824667">
        <ele>825.0</ele>
        <time>2019-07-31T16:04:12.180Z</time>
      </trkpt>
      <trkpt lat="42.995035" lon="-1.14825">
        <ele>825.0</ele>
        <time>2019-07-31T16:04:13.184Z</time>
      </trkpt>
      <trkpt lat="42.99502" lon="-1.14825167">
        <ele>824.0</ele>
        <time>2019-07-31T16:04:14.063Z</time>
      </trkpt>
      <trkpt lat="42.99500667" lon="-1.14825333">
        <ele>823.0</ele>
        <time>2019-07-31T16:04:15.070Z</time>
      </trkpt>
      <trkpt lat="42.99499167" lon="-1.14825333">
        <ele>823.0</ele>
        <time>2019-07-31T16:04:16.078Z</time>
      </trkpt>
      <trkpt lat="42.994975" lon="-1.148255">
        <ele>823.0</ele>
        <time>2019-07-31T16:04:17.085Z</time>
      </trkpt>
      <trkpt lat="42.99496" lon="-1.148255">
        <ele>822.0</ele>
        <time>2019-07-31T16:04:18.091Z</time>
      </trkpt>
      <trkpt lat="42.99494667" lon="-1.148255">
        <ele>822.0</ele>
        <time>2019-07-31T16:04:19.098Z</time>
      </trkpt>
      <trkpt lat="42.99493167" lon="-1.14825167">
        <ele>821.0</ele>
        <time>2019-07-31T16:04:20.103Z</time>
      </trkpt>
      <trkpt lat="42.994915" lon="-1.14825">
        <ele>821.0</ele>
        <time>2019-07-31T16:04:21.110Z</time>
      </trkpt>
      <trkpt lat="42.99489667" lon="-1.14825167">
        <ele>821.0</ele>
        <time>2019-07-31T16:04:22.117Z</time>
      </trkpt>
      <trkpt lat="42.99487833" lon="-1.14825">
        <ele>820.0</ele>
        <time>2019-07-31T16:04:23.122Z</time>
      </trkpt>
      <trkpt lat="42.99486167" lon="-1.14825167">
        <ele>820.0</ele>
        <time>2019-07-31T16:04:24.126Z</time>
      </trkpt>
      <trkpt lat="42.99484667" lon="-1.14825833">
        <ele>819.0</ele>
        <time>2019-07-31T16:04:25.132Z</time>
      </trkpt>
      <trkpt lat="42.99483167" lon="-1.14826667">
        <ele>819.0</ele>
        <time>2019-07-31T16:04:26.139Z</time>
      </trkpt>
      <trkpt lat="42.99481833" lon="-1.14827667">
        <ele>819.0</ele>
        <time>2019-07-31T16:04:27.144Z</time>
      </trkpt>
      <trkpt lat="42.994805" lon="-1.148285">
        <ele>819.0</ele>
        <time>2019-07-31T16:04:28.151Z</time>
      </trkpt>
      <trkpt lat="42.99479333" lon="-1.14829333">
        <ele>818.0</ele>
        <time>2019-07-31T16:04:29.157Z</time>
      </trkpt>
      <trkpt lat="42.99477667" lon="-1.14829833">
        <ele>818.0</ele>
        <time>2019-07-31T16:04:30.162Z</time>
      </trkpt>
      <trkpt lat="42.99475667" lon="-1.14830333">
        <ele>818.0</ele>
        <time>2019-07-31T16:04:31.167Z</time>
      </trkpt>
      <trkpt lat="42.99474" lon="-1.14831">
        <ele>818.0</ele>
        <time>2019-07-31T16:04:32.171Z</time>
      </trkpt>
      <trkpt lat="42.99472333" lon="-1.14831833">
        <ele>817.0</ele>
        <time>2019-07-31T16:04:33.177Z</time>
      </trkpt>
      <trkpt lat="42.99470833" lon="-1.14833167">
        <ele>817.0</ele>
        <time>2019-07-31T16:04:34.180Z</time>
      </trkpt>
      <trkpt lat="42.99469333" lon="-1.14834667">
        <ele>816.0</ele>
        <time>2019-07-31T16:04:35.061Z</time>
      </trkpt>
      <trkpt lat="42.99468" lon="-1.148355">
        <ele>816.0</ele>
        <time>2019-07-31T16:04:36.068Z</time>
      </trkpt>
      <trkpt lat="42.99466167" lon="-1.14836333">
        <ele>816.0</ele>
        <time>2019-07-31T16:04:37.077Z</time>
      </trkpt>
      <trkpt lat="42.99464833" lon="-1.14837167">
        <ele>816.0</ele>
        <time>2019-07-31T16:04:38.084Z</time>
      </trkpt>
      <trkpt lat="42.99463167" lon="-1.14838333">
        <ele>816.0</ele>
        <time>2019-07-31T16:04:39.090Z</time>
      </trkpt>
      <trkpt lat="42.99461833" lon="-1.14839667">
        <ele>816.0</ele>
        <time>2019-07-31T16:04:40.095Z</time>
      </trkpt>
      <trkpt lat="42.99460333" lon="-1.14840833">
        <ele>816.0</ele>
        <time>2019-07-31T16:04:41.103Z</time>
      </trkpt>
      <trkpt lat="42.99458833" lon="-1.14842">
        <ele>816.0</ele>
        <time>2019-07-31T16:04:42.108Z</time>
      </trkpt>
      <trkpt lat="42.99457833" lon="-1.14843333">
        <ele>816.0</ele>
        <time>2019-07-31T16:04:43.112Z</time>
      </trkpt>
      <trkpt lat="42.99456167" lon="-1.14844833">
        <ele>816.0</ele>
        <time>2019-07-31T16:04:44.117Z</time>
      </trkpt>
      <trkpt lat="42.994545" lon="-1.14847">
        <ele>817.0</ele>
        <time>2019-07-31T16:04:45.123Z</time>
      </trkpt>
      <trkpt lat="42.99453667" lon="-1.14848833">
        <ele>816.0</ele>
        <time>2019-07-31T16:04:46.126Z</time>
      </trkpt>
      <trkpt lat="42.99452667" lon="-1.14850667">
        <ele>817.0</ele>
        <time>2019-07-31T16:04:47.131Z</time>
      </trkpt>
      <trkpt lat="42.994515" lon="-1.14852833">
        <ele>818.0</ele>
        <time>2019-07-31T16:04:48.138Z</time>
      </trkpt>
      <trkpt lat="42.99450333" lon="-1.14854667">
        <ele>818.0</ele>
        <time>2019-07-31T16:04:49.144Z</time>
      </trkpt>
      <trkpt lat="42.99449667" lon="-1.148565">
        <ele>818.0</ele>
        <time>2019-07-31T16:04:50.149Z</time>
      </trkpt>
      <trkpt lat="42.994485" lon="-1.14859333">
        <ele>818.0</ele>
        <time>2019-07-31T16:04:51.153Z</time>
      </trkpt>
      <trkpt lat="42.99447667" lon="-1.14862">
        <ele>819.0</ele>
        <time>2019-07-31T16:04:52.157Z</time>
      </trkpt>
      <trkpt lat="42.99446833" lon="-1.14863667">
        <ele>818.0</ele>
        <time>2019-07-31T16:04:53.162Z</time>
      </trkpt>
      <trkpt lat="42.99446167" lon="-1.14866333">
        <ele>818.0</ele>
        <time>2019-07-31T16:04:54.166Z</time>
      </trkpt>
      <trkpt lat="42.99445667" lon="-1.14868333">
        <ele>819.0</ele>
        <time>2019-07-31T16:04:55.171Z</time>
      </trkpt>
      <trkpt lat="42.99445" lon="-1.14870167">
        <ele>818.0</ele>
        <time>2019-07-31T16:04:56.176Z</time>
      </trkpt>
      <trkpt lat="42.994445" lon="-1.14872333">
        <ele>818.0</ele>
        <time>2019-07-31T16:04:57.183Z</time>
      </trkpt>
      <trkpt lat="42.99443667" lon="-1.14874333">
        <ele>818.0</ele>
        <time>2019-07-31T16:04:58.063Z</time>
      </trkpt>
      <trkpt lat="42.99443" lon="-1.14876167">
        <ele>819.0</ele>
        <time>2019-07-31T16:04:59.070Z</time>
      </trkpt>
      <trkpt lat="42.99442333" lon="-1.14877833">
        <ele>819.0</ele>
        <time>2019-07-31T16:05:00.075Z</time>
      </trkpt>
      <trkpt lat="42.994415" lon="-1.14879167">
        <ele>820.0</ele>
        <time>2019-07-31T16:05:01.081Z</time>
      </trkpt>
      <trkpt lat="42.99440667" lon="-1.148805">
        <ele>820.0</ele>
        <time>2019-07-31T16:05:02.086Z</time>
      </trkpt>
      <trkpt lat="42.994395" lon="-1.14881833">
        <ele>820.0</ele>
        <time>2019-07-31T16:05:03.091Z</time>
      </trkpt>
      <trkpt lat="42.99438" lon="-1.14882833">
        <ele>821.0</ele>
        <time>2019-07-31T16:05:04.097Z</time>
      </trkpt>
      <trkpt lat="42.99436667" lon="-1.14884">
        <ele>820.0</ele>
        <time>2019-07-31T16:05:05.101Z</time>
      </trkpt>
      <trkpt lat="42.99435167" lon="-1.148845">
        <ele>820.0</ele>
        <time>2019-07-31T16:05:06.106Z</time>
      </trkpt>
      <trkpt lat="42.994335" lon="-1.148845">
        <ele>820.0</ele>
        <time>2019-07-31T16:05:07.112Z</time>
      </trkpt>
      <trkpt lat="42.99431833" lon="-1.14884">
        <ele>820.0</ele>
        <time>2019-07-31T16:05:08.118Z</time>
      </trkpt>
      <trkpt lat="42.994305" lon="-1.14883167">
        <ele>821.0</ele>
        <time>2019-07-31T16:05:09.125Z</time>
      </trkpt>
      <trkpt lat="42.99429" lon="-1.148815">
        <ele>822.0</ele>
        <time>2019-07-31T16:05:10.129Z</time>
      </trkpt>
      <trkpt lat="42.994275" lon="-1.14879833">
        <ele>823.0</ele>
        <time>2019-07-31T16:05:11.134Z</time>
      </trkpt>
      <trkpt lat="42.99426167" lon="-1.14878333">
        <ele>823.0</ele>
        <time>2019-07-31T16:05:12.138Z</time>
      </trkpt>
      <trkpt lat="42.99425" lon="-1.14876667">
        <ele>824.0</ele>
        <time>2019-07-31T16:05:13.140Z</time>
      </trkpt>
      <trkpt lat="42.99424" lon="-1.14875">
        <ele>824.0</ele>
        <time>2019-07-31T16:05:14.142Z</time>
      </trkpt>
      <trkpt lat="42.99423" lon="-1.14873333">
        <ele>825.0</ele>
        <time>2019-07-31T16:05:15.145Z</time>
      </trkpt>
      <trkpt lat="42.99421833" lon="-1.14871667">
        <ele>825.0</ele>
        <time>2019-07-31T16:05:16.151Z</time>
      </trkpt>
      <trkpt lat="42.99420667" lon="-1.14870333">
        <ele>826.0</ele>
        <time>2019-07-31T16:05:17.153Z</time>
      </trkpt>
      <trkpt lat="42.994195" lon="-1.148695">
        <ele>826.0</ele>
        <time>2019-07-31T16:05:18.159Z</time>
      </trkpt>
      <trkpt lat="42.99418167" lon="-1.14868167">
        <ele>826.0</ele>
        <time>2019-07-31T16:05:19.166Z</time>
      </trkpt>
      <trkpt lat="42.99417" lon="-1.14867167">
        <ele>826.0</ele>
        <time>2019-07-31T16:05:20.170Z</time>
      </trkpt>
      <trkpt lat="42.99415667" lon="-1.14865667">
        <ele>826.0</ele>
        <time>2019-07-31T16:05:21.173Z</time>
      </trkpt>
      <trkpt lat="42.994145" lon="-1.14863833">
        <ele>826.0</ele>
        <time>2019-07-31T16:05:22.178Z</time>
      </trkpt>
      <trkpt lat="42.99413333" lon="-1.14862167">
        <ele>827.0</ele>
        <time>2019-07-31T16:05:23.183Z</time>
      </trkpt>
      <trkpt lat="42.99412333" lon="-1.14861167">
        <ele>826.0</ele>
        <time>2019-07-31T16:05:24.063Z</time>
      </trkpt>
      <trkpt lat="42.99410333" lon="-1.14859667">
        <ele>827.0</ele>
        <time>2019-07-31T16:05:25.068Z</time>
      </trkpt>
      <trkpt lat="42.99408833" lon="-1.14858333">
        <ele>827.0</ele>
        <time>2019-07-31T16:05:26.073Z</time>
      </trkpt>
      <trkpt lat="42.99406667" lon="-1.148565">
        <ele>827.0</ele>
        <time>2019-07-31T16:05:27.078Z</time>
      </trkpt>
      <trkpt lat="42.99404667" lon="-1.148555">
        <ele>828.0</ele>
        <time>2019-07-31T16:05:28.083Z</time>
      </trkpt>
      <trkpt lat="42.99403167" lon="-1.14855">
        <ele>827.0</ele>
        <time>2019-07-31T16:05:29.088Z</time>
      </trkpt>
      <trkpt lat="42.99401833" lon="-1.14855333">
        <ele>826.0</ele>
        <time>2019-07-31T16:05:30.095Z</time>
      </trkpt>
      <trkpt lat="42.994" lon="-1.14854667">
        <ele>826.0</ele>
        <time>2019-07-31T16:05:31.101Z</time>
      </trkpt>
      <trkpt lat="42.99398167" lon="-1.148535">
        <ele>826.0</ele>
        <time>2019-07-31T16:05:32.106Z</time>
      </trkpt>
      <trkpt lat="42.993965" lon="-1.14852">
        <ele>826.0</ele>
        <time>2019-07-31T16:05:33.112Z</time>
      </trkpt>
      <trkpt lat="42.99394667" lon="-1.14852">
        <ele>826.0</ele>
        <time>2019-07-31T16:05:34.117Z</time>
      </trkpt>
      <trkpt lat="42.99393" lon="-1.14853167">
        <ele>825.0</ele>
        <time>2019-07-31T16:05:35.123Z</time>
      </trkpt>
      <trkpt lat="42.993915" lon="-1.14854">
        <ele>825.0</ele>
        <time>2019-07-31T16:05:36.126Z</time>
      </trkpt>
      <trkpt lat="42.99390167" lon="-1.14855167">
        <ele>825.0</ele>
        <time>2019-07-31T16:05:37.130Z</time>
      </trkpt>
      <trkpt lat="42.99388667" lon="-1.14856333">
        <ele>825.0</ele>
        <time>2019-07-31T16:05:38.136Z</time>
      </trkpt>
      <trkpt lat="42.99387333" lon="-1.148575">
        <ele>825.0</ele>
        <time>2019-07-31T16:05:39.142Z</time>
      </trkpt>
      <trkpt lat="42.99386167" lon="-1.14859">
        <ele>826.0</ele>
        <time>2019-07-31T16:05:40.148Z</time>
      </trkpt>
      <trkpt lat="42.99385333" lon="-1.1486">
        <ele>826.0</ele>
        <time>2019-07-31T16:05:41.153Z</time>
      </trkpt>
      <trkpt lat="42.99384333" lon="-1.14861833">
        <ele>826.0</ele>
        <time>2019-07-31T16:05:42.159Z</time>
      </trkpt>
      <trkpt lat="42.99383667" lon="-1.14864">
        <ele>826.0</ele>
        <time>2019-07-31T16:05:43.164Z</time>
      </trkpt>
      <trkpt lat="42.99383333" lon="-1.14866333">
        <ele>825.0</ele>
        <time>2019-07-31T16:05:44.168Z</time>
      </trkpt>
      <trkpt lat="42.99383" lon="-1.14868167">
        <ele>825.0</ele>
        <time>2019-07-31T16:05:45.174Z</time>
      </trkpt>
      <trkpt lat="42.99382833" lon="-1.148705">
        <ele>824.0</ele>
        <time>2019-07-31T16:05:46.178Z</time>
      </trkpt>
      <trkpt lat="42.99382833" lon="-1.148735">
        <ele>824.0</ele>
        <time>2019-07-31T16:05:47.184Z</time>
      </trkpt>
      <trkpt lat="42.99383" lon="-1.14875667">
        <ele>824.0</ele>
        <time>2019-07-31T16:05:48.065Z</time>
      </trkpt>
      <trkpt lat="42.99383" lon="-1.14877833">
        <ele>824.0</ele>
        <time>2019-07-31T16:05:49.070Z</time>
      </trkpt>
      <trkpt lat="42.99383167" lon="-1.14879667">
        <ele>824.0</ele>
        <time>2019-07-31T16:05:50.076Z</time>
      </trkpt>
      <trkpt lat="42.99383167" lon="-1.14881833">
        <ele>824.0</ele>
        <time>2019-07-31T16:05:51.081Z</time>
      </trkpt>
      <trkpt lat="42.99383167" lon="-1.148845">
        <ele>825.0</ele>
        <time>2019-07-31T16:05:52.085Z</time>
      </trkpt>
      <trkpt lat="42.993835" lon="-1.14886667">
        <ele>825.0</ele>
        <time>2019-07-31T16:05:53.091Z</time>
      </trkpt>
      <trkpt lat="42.99383667" lon="-1.14889">
        <ele>825.0</ele>
        <time>2019-07-31T16:05:54.096Z</time>
      </trkpt>
      <trkpt lat="42.99384" lon="-1.14891167">
        <ele>825.0</ele>
        <time>2019-07-31T16:05:55.102Z</time>
      </trkpt>
      <trkpt lat="42.99384333" lon="-1.148935">
        <ele>824.0</ele>
        <time>2019-07-31T16:05:56.109Z</time>
      </trkpt>
      <trkpt lat="42.99384333" lon="-1.14896333">
        <ele>824.0</ele>
        <time>2019-07-31T16:05:57.114Z</time>
      </trkpt>
      <trkpt lat="42.99384333" lon="-1.14898833">
        <ele>824.0</ele>
        <time>2019-07-31T16:05:58.119Z</time>
      </trkpt>
      <trkpt lat="42.99384667" lon="-1.149015">
        <ele>824.0</ele>
        <time>2019-07-31T16:05:59.125Z</time>
      </trkpt>
      <trkpt lat="42.99384667" lon="-1.14904">
        <ele>824.0</ele>
        <time>2019-07-31T16:06:00.131Z</time>
      </trkpt>
      <trkpt lat="42.99384667" lon="-1.149065">
        <ele>824.0</ele>
        <time>2019-07-31T16:06:01.137Z</time>
      </trkpt>
      <trkpt lat="42.99384667" lon="-1.149085">
        <ele>825.0</ele>
        <time>2019-07-31T16:06:02.144Z</time>
      </trkpt>
      <trkpt lat="42.99384333" lon="-1.14910333">
        <ele>826.0</ele>
        <time>2019-07-31T16:06:03.150Z</time>
      </trkpt>
      <trkpt lat="42.99384" lon="-1.14912167">
        <ele>827.0</ele>
        <time>2019-07-31T16:06:04.152Z</time>
      </trkpt>
      <trkpt lat="42.99383667" lon="-1.14914167">
        <ele>828.0</ele>
        <time>2019-07-31T16:06:05.157Z</time>
      </trkpt>
      <trkpt lat="42.99383333" lon="-1.14915667">
        <ele>828.0</ele>
        <time>2019-07-31T16:06:06.164Z</time>
      </trkpt>
      <trkpt lat="42.99383" lon="-1.149175">
        <ele>830.0</ele>
        <time>2019-07-31T16:06:07.168Z</time>
      </trkpt>
      <trkpt lat="42.99382167" lon="-1.14919333">
        <ele>831.0</ele>
        <time>2019-07-31T16:06:08.172Z</time>
      </trkpt>
      <trkpt lat="42.99381667" lon="-1.14921">
        <ele>832.0</ele>
        <time>2019-07-31T16:06:09.179Z</time>
      </trkpt>
      <trkpt lat="42.99382" lon="-1.14922667">
        <ele>831.0</ele>
        <time>2019-07-31T16:06:10.184Z</time>
      </trkpt>
      <trkpt lat="42.993815" lon="-1.14924">
        <ele>832.0</ele>
        <time>2019-07-31T16:06:11.064Z</time>
      </trkpt>
      <trkpt lat="42.99381" lon="-1.14924833">
        <ele>833.0</ele>
        <time>2019-07-31T16:06:12.071Z</time>
      </trkpt>
      <trkpt lat="42.9938" lon="-1.14925167">
        <ele>833.0</ele>
        <time>2019-07-31T16:06:13.076Z</time>
      </trkpt>
      <trkpt lat="42.99378833" lon="-1.14925333">
        <ele>834.0</ele>
        <time>2019-07-31T16:06:14.083Z</time>
      </trkpt>
      <trkpt lat="42.99377667" lon="-1.14925833">
        <ele>834.0</ele>
        <time>2019-07-31T16:06:15.087Z</time>
      </trkpt>
      <trkpt lat="42.99376167" lon="-1.14926167">
        <ele>834.0</ele>
        <time>2019-07-31T16:06:16.094Z</time>
      </trkpt>
      <trkpt lat="42.99374667" lon="-1.14925833">
        <ele>834.0</ele>
        <time>2019-07-31T16:06:17.099Z</time>
      </trkpt>
      <trkpt lat="42.993735" lon="-1.149255">
        <ele>835.0</ele>
        <time>2019-07-31T16:06:18.104Z</time>
      </trkpt>
      <trkpt lat="42.99372333" lon="-1.14925">
        <ele>835.0</ele>
        <time>2019-07-31T16:06:19.110Z</time>
      </trkpt>
      <trkpt lat="42.99371333" lon="-1.14924167">
        <ele>836.0</ele>
        <time>2019-07-31T16:06:20.118Z</time>
      </trkpt>
      <trkpt lat="42.99370333" lon="-1.149235">
        <ele>837.0</ele>
        <time>2019-07-31T16:06:21.124Z</time>
      </trkpt>
      <trkpt lat="42.99369333" lon="-1.149225">
        <ele>837.0</ele>
        <time>2019-07-31T16:06:22.128Z</time>
      </trkpt>
      <trkpt lat="42.99368333" lon="-1.14921667">
        <ele>837.0</ele>
        <time>2019-07-31T16:06:23.134Z</time>
      </trkpt>
      <trkpt lat="42.993675" lon="-1.14920667">
        <ele>837.0</ele>
        <time>2019-07-31T16:06:24.139Z</time>
      </trkpt>
      <trkpt lat="42.99366333" lon="-1.149195">
        <ele>837.0</ele>
        <time>2019-07-31T16:06:25.142Z</time>
      </trkpt>
      <trkpt lat="42.993655" lon="-1.14918333">
        <ele>838.0</ele>
        <time>2019-07-31T16:06:26.146Z</time>
      </trkpt>
      <trkpt lat="42.99364833" lon="-1.14917167">
        <ele>838.0</ele>
        <time>2019-07-31T16:06:27.151Z</time>
      </trkpt>
      <trkpt lat="42.99364167" lon="-1.14916">
        <ele>838.0</ele>
        <time>2019-07-31T16:06:28.156Z</time>
      </trkpt>
      <trkpt lat="42.99363333" lon="-1.14914667">
        <ele>837.0</ele>
        <time>2019-07-31T16:06:29.160Z</time>
      </trkpt>
      <trkpt lat="42.99362167" lon="-1.14912833">
        <ele>838.0</ele>
        <time>2019-07-31T16:06:30.166Z</time>
      </trkpt>
      <trkpt lat="42.99361333" lon="-1.14911">
        <ele>837.0</ele>
        <time>2019-07-31T16:06:31.171Z</time>
      </trkpt>
      <trkpt lat="42.99360167" lon="-1.14909">
        <ele>837.0</ele>
        <time>2019-07-31T16:06:32.176Z</time>
      </trkpt>
      <trkpt lat="42.99359333" lon="-1.14907167">
        <ele>837.0</ele>
        <time>2019-07-31T16:06:33.182Z</time>
      </trkpt>
      <trkpt lat="42.99358333" lon="-1.14905333">
        <ele>837.0</ele>
        <time>2019-07-31T16:06:34.061Z</time>
      </trkpt>
      <trkpt lat="42.993575" lon="-1.149035">
        <ele>837.0</ele>
        <time>2019-07-31T16:06:35.064Z</time>
      </trkpt>
      <trkpt lat="42.993565" lon="-1.149015">
        <ele>837.0</ele>
        <time>2019-07-31T16:06:36.069Z</time>
      </trkpt>
      <trkpt lat="42.993555" lon="-1.14899667">
        <ele>837.0</ele>
        <time>2019-07-31T16:06:37.074Z</time>
      </trkpt>
      <trkpt lat="42.993545" lon="-1.14898">
        <ele>837.0</ele>
        <time>2019-07-31T16:06:38.080Z</time>
      </trkpt>
      <trkpt lat="42.99353167" lon="-1.14896833">
        <ele>838.0</ele>
        <time>2019-07-31T16:06:39.085Z</time>
      </trkpt>
      <trkpt lat="42.99352" lon="-1.14895833">
        <ele>838.0</ele>
        <time>2019-07-31T16:06:40.091Z</time>
      </trkpt>
      <trkpt lat="42.99350667" lon="-1.14895167">
        <ele>838.0</ele>
        <time>2019-07-31T16:06:41.097Z</time>
      </trkpt>
      <trkpt lat="42.99349667" lon="-1.14894">
        <ele>838.0</ele>
        <time>2019-07-31T16:06:42.104Z</time>
      </trkpt>
      <trkpt lat="42.99348167" lon="-1.14892">
        <ele>838.0</ele>
        <time>2019-07-31T16:06:43.110Z</time>
      </trkpt>
      <trkpt lat="42.993465" lon="-1.1489">
        <ele>838.0</ele>
        <time>2019-07-31T16:06:44.117Z</time>
      </trkpt>
      <trkpt lat="42.993455" lon="-1.148885">
        <ele>838.0</ele>
        <time>2019-07-31T16:06:45.120Z</time>
      </trkpt>
      <trkpt lat="42.993445" lon="-1.14886833">
        <ele>838.0</ele>
        <time>2019-07-31T16:06:46.123Z</time>
      </trkpt>
      <trkpt lat="42.993435" lon="-1.14885167">
        <ele>838.0</ele>
        <time>2019-07-31T16:06:47.126Z</time>
      </trkpt>
      <trkpt lat="42.99341667" lon="-1.148835">
        <ele>838.0</ele>
        <time>2019-07-31T16:06:48.133Z</time>
      </trkpt>
      <trkpt lat="42.993405" lon="-1.14881667">
        <ele>839.0</ele>
        <time>2019-07-31T16:06:49.138Z</time>
      </trkpt>
      <trkpt lat="42.99339167" lon="-1.14880167">
        <ele>838.0</ele>
        <time>2019-07-31T16:06:50.144Z</time>
      </trkpt>
      <trkpt lat="42.99337667" lon="-1.148795">
        <ele>837.0</ele>
        <time>2019-07-31T16:06:51.150Z</time>
      </trkpt>
      <trkpt lat="42.99336667" lon="-1.14878667">
        <ele>837.0</ele>
        <time>2019-07-31T16:06:52.155Z</time>
      </trkpt>
      <trkpt lat="42.99335667" lon="-1.14877333">
        <ele>836.0</ele>
        <time>2019-07-31T16:06:53.160Z</time>
      </trkpt>
      <trkpt lat="42.993345" lon="-1.14875167">
        <ele>836.0</ele>
        <time>2019-07-31T16:06:54.166Z</time>
      </trkpt>
      <trkpt lat="42.99333667" lon="-1.14874">
        <ele>837.0</ele>
        <time>2019-07-31T16:06:55.170Z</time>
      </trkpt>
      <trkpt lat="42.99332333" lon="-1.14873167">
        <ele>837.0</ele>
        <time>2019-07-31T16:06:56.172Z</time>
      </trkpt>
      <trkpt lat="42.99330833" lon="-1.14871833">
        <ele>837.0</ele>
        <time>2019-07-31T16:06:57.176Z</time>
      </trkpt>
      <trkpt lat="42.99330167" lon="-1.14871">
        <ele>836.0</ele>
        <time>2019-07-31T16:06:58.183Z</time>
      </trkpt>
      <trkpt lat="42.99328833" lon="-1.1487">
        <ele>836.0</ele>
        <time>2019-07-31T16:06:59.062Z</time>
      </trkpt>
      <trkpt lat="42.993275" lon="-1.14869167">
        <ele>836.0</ele>
        <time>2019-07-31T16:07:00.066Z</time>
      </trkpt>
      <trkpt lat="42.99326" lon="-1.14868167">
        <ele>836.0</ele>
        <time>2019-07-31T16:07:01.073Z</time>
      </trkpt>
      <trkpt lat="42.99324833" lon="-1.14867167">
        <ele>836.0</ele>
        <time>2019-07-31T16:07:02.078Z</time>
      </trkpt>
      <trkpt lat="42.993235" lon="-1.14866167">
        <ele>836.0</ele>
        <time>2019-07-31T16:07:03.084Z</time>
      </trkpt>
      <trkpt lat="42.99322167" lon="-1.14865">
        <ele>836.0</ele>
        <time>2019-07-31T16:07:04.090Z</time>
      </trkpt>
      <trkpt lat="42.99320833" lon="-1.14864167">
        <ele>836.0</ele>
        <time>2019-07-31T16:07:05.096Z</time>
      </trkpt>
      <trkpt lat="42.993195" lon="-1.14863667">
        <ele>836.0</ele>
        <time>2019-07-31T16:07:06.102Z</time>
      </trkpt>
      <trkpt lat="42.99318667" lon="-1.14863">
        <ele>836.0</ele>
        <time>2019-07-31T16:07:07.105Z</time>
      </trkpt>
      <trkpt lat="42.99317333" lon="-1.14862">
        <ele>836.0</ele>
        <time>2019-07-31T16:07:08.108Z</time>
      </trkpt>
      <trkpt lat="42.99315667" lon="-1.14860833">
        <ele>835.0</ele>
        <time>2019-07-31T16:07:09.112Z</time>
      </trkpt>
      <trkpt lat="42.993145" lon="-1.1486">
        <ele>835.0</ele>
        <time>2019-07-31T16:07:10.118Z</time>
      </trkpt>
      <trkpt lat="42.99313" lon="-1.14859167">
        <ele>834.0</ele>
        <time>2019-07-31T16:07:11.122Z</time>
      </trkpt>
      <trkpt lat="42.99311333" lon="-1.14858333">
        <ele>834.0</ele>
        <time>2019-07-31T16:07:12.125Z</time>
      </trkpt>
      <trkpt lat="42.99309833" lon="-1.14857833">
        <ele>835.0</ele>
        <time>2019-07-31T16:07:13.131Z</time>
      </trkpt>
      <trkpt lat="42.99308333" lon="-1.14857667">
        <ele>835.0</ele>
        <time>2019-07-31T16:07:14.137Z</time>
      </trkpt>
      <trkpt lat="42.99306833" lon="-1.148575">
        <ele>835.0</ele>
        <time>2019-07-31T16:07:15.142Z</time>
      </trkpt>
      <trkpt lat="42.99305667" lon="-1.14857167">
        <ele>835.0</ele>
        <time>2019-07-31T16:07:16.147Z</time>
      </trkpt>
      <trkpt lat="42.99303667" lon="-1.148565">
        <ele>835.0</ele>
        <time>2019-07-31T16:07:17.151Z</time>
      </trkpt>
      <trkpt lat="42.99302" lon="-1.14856">
        <ele>836.0</ele>
        <time>2019-07-31T16:07:18.156Z</time>
      </trkpt>
      <trkpt lat="42.993005" lon="-1.148555">
        <ele>836.0</ele>
        <time>2019-07-31T16:07:19.162Z</time>
      </trkpt>
      <trkpt lat="42.99298833" lon="-1.14854833">
        <ele>836.0</ele>
        <time>2019-07-31T16:07:20.166Z</time>
      </trkpt>
      <trkpt lat="42.99297333" lon="-1.148545">
        <ele>837.0</ele>
        <time>2019-07-31T16:07:21.172Z</time>
      </trkpt>
      <trkpt lat="42.99295667" lon="-1.14854167">
        <ele>837.0</ele>
        <time>2019-07-31T16:07:22.178Z</time>
      </trkpt>
      <trkpt lat="42.99294167" lon="-1.14854333">
        <ele>837.0</ele>
        <time>2019-07-31T16:07:23.183Z</time>
      </trkpt>
      <trkpt lat="42.992925" lon="-1.14854167">
        <ele>837.0</ele>
        <time>2019-07-31T16:07:24.064Z</time>
      </trkpt>
      <trkpt lat="42.99291167" lon="-1.14853833">
        <ele>837.0</ele>
        <time>2019-07-31T16:07:25.070Z</time>
      </trkpt>
      <trkpt lat="42.992895" lon="-1.14853833">
        <ele>838.0</ele>
        <time>2019-07-31T16:07:26.076Z</time>
      </trkpt>
      <trkpt lat="42.992875" lon="-1.14853833">
        <ele>838.0</ele>
        <time>2019-07-31T16:07:27.081Z</time>
      </trkpt>
      <trkpt lat="42.99286" lon="-1.14854167">
        <ele>838.0</ele>
        <time>2019-07-31T16:07:28.086Z</time>
      </trkpt>
      <trkpt lat="42.992845" lon="-1.148545">
        <ele>838.0</ele>
        <time>2019-07-31T16:07:29.092Z</time>
      </trkpt>
      <trkpt lat="42.99282833" lon="-1.148545">
        <ele>838.0</ele>
        <time>2019-07-31T16:07:30.098Z</time>
      </trkpt>
      <trkpt lat="42.99281333" lon="-1.14854833">
        <ele>838.0</ele>
        <time>2019-07-31T16:07:31.104Z</time>
      </trkpt>
      <trkpt lat="42.9928" lon="-1.14855167">
        <ele>838.0</ele>
        <time>2019-07-31T16:07:32.108Z</time>
      </trkpt>
      <trkpt lat="42.992785" lon="-1.14855333">
        <ele>838.0</ele>
        <time>2019-07-31T16:07:33.112Z</time>
      </trkpt>
      <trkpt lat="42.99277" lon="-1.14855">
        <ele>838.0</ele>
        <time>2019-07-31T16:07:34.117Z</time>
      </trkpt>
      <trkpt lat="42.99275667" lon="-1.14854833">
        <ele>838.0</ele>
        <time>2019-07-31T16:07:35.121Z</time>
      </trkpt>
      <trkpt lat="42.99274" lon="-1.14855">
        <ele>838.0</ele>
        <time>2019-07-31T16:07:36.125Z</time>
      </trkpt>
      <trkpt lat="42.99272333" lon="-1.14854833">
        <ele>838.0</ele>
        <time>2019-07-31T16:07:37.130Z</time>
      </trkpt>
      <trkpt lat="42.99270833" lon="-1.14855">
        <ele>838.0</ele>
        <time>2019-07-31T16:07:38.136Z</time>
      </trkpt>
      <trkpt lat="42.992695" lon="-1.14855167">
        <ele>838.0</ele>
        <time>2019-07-31T16:07:39.140Z</time>
      </trkpt>
      <trkpt lat="42.99268333" lon="-1.148555">
        <ele>838.0</ele>
        <time>2019-07-31T16:07:40.144Z</time>
      </trkpt>
      <trkpt lat="42.992665" lon="-1.14855667">
        <ele>838.0</ele>
        <time>2019-07-31T16:07:41.150Z</time>
      </trkpt>
      <trkpt lat="42.99264667" lon="-1.14855833">
        <ele>839.0</ele>
        <time>2019-07-31T16:07:42.154Z</time>
      </trkpt>
      <trkpt lat="42.99263167" lon="-1.14856167">
        <ele>839.0</ele>
        <time>2019-07-31T16:07:43.159Z</time>
      </trkpt>
      <trkpt lat="42.99261667" lon="-1.14856">
        <ele>839.0</ele>
        <time>2019-07-31T16:07:44.165Z</time>
      </trkpt>
      <trkpt lat="42.99260667" lon="-1.14856667">
        <ele>838.0</ele>
        <time>2019-07-31T16:07:45.171Z</time>
      </trkpt>
      <trkpt lat="42.99259167" lon="-1.14857333">
        <ele>838.0</ele>
        <time>2019-07-31T16:07:46.178Z</time>
      </trkpt>
      <trkpt lat="42.992575" lon="-1.14857833">
        <ele>838.0</ele>
        <time>2019-07-31T16:07:47.185Z</time>
      </trkpt>
      <trkpt lat="42.99256" lon="-1.14858333">
        <ele>838.0</ele>
        <time>2019-07-31T16:07:48.064Z</time>
      </trkpt>
      <trkpt lat="42.99254833" lon="-1.14859">
        <ele>837.0</ele>
        <time>2019-07-31T16:07:49.070Z</time>
      </trkpt>
      <trkpt lat="42.992535" lon="-1.148595">
        <ele>837.0</ele>
        <time>2019-07-31T16:07:50.074Z</time>
      </trkpt>
      <trkpt lat="42.99251833" lon="-1.14860333">
        <ele>837.0</ele>
        <time>2019-07-31T16:07:51.081Z</time>
      </trkpt>
      <trkpt lat="42.99250667" lon="-1.14860833">
        <ele>837.0</ele>
        <time>2019-07-31T16:07:52.086Z</time>
      </trkpt>
      <trkpt lat="42.99249" lon="-1.14861833">
        <ele>837.0</ele>
        <time>2019-07-31T16:07:53.091Z</time>
      </trkpt>
      <trkpt lat="42.99247667" lon="-1.148625">
        <ele>837.0</ele>
        <time>2019-07-31T16:07:54.096Z</time>
      </trkpt>
      <trkpt lat="42.99246333" lon="-1.14863667">
        <ele>837.0</ele>
        <time>2019-07-31T16:07:55.102Z</time>
      </trkpt>
      <trkpt lat="42.99244833" lon="-1.14864667">
        <ele>836.0</ele>
        <time>2019-07-31T16:07:56.105Z</time>
      </trkpt>
      <trkpt lat="42.992435" lon="-1.148655">
        <ele>836.0</ele>
        <time>2019-07-31T16:07:57.111Z</time>
      </trkpt>
      <trkpt lat="42.99242333" lon="-1.148665">
        <ele>837.0</ele>
        <time>2019-07-31T16:07:58.116Z</time>
      </trkpt>
      <trkpt lat="42.99241" lon="-1.14867833">
        <ele>836.0</ele>
        <time>2019-07-31T16:07:59.122Z</time>
      </trkpt>
      <trkpt lat="42.9924" lon="-1.14869">
        <ele>836.0</ele>
        <time>2019-07-31T16:08:00.125Z</time>
      </trkpt>
      <trkpt lat="42.99238333" lon="-1.148705">
        <ele>836.0</ele>
        <time>2019-07-31T16:08:01.130Z</time>
      </trkpt>
      <trkpt lat="42.99237" lon="-1.14871833">
        <ele>836.0</ele>
        <time>2019-07-31T16:08:02.133Z</time>
      </trkpt>
      <trkpt lat="42.99235833" lon="-1.14873333">
        <ele>836.0</ele>
        <time>2019-07-31T16:08:03.136Z</time>
      </trkpt>
      <trkpt lat="42.99234833" lon="-1.14874667">
        <ele>837.0</ele>
        <time>2019-07-31T16:08:04.141Z</time>
      </trkpt>
      <trkpt lat="42.99233833" lon="-1.14876">
        <ele>837.0</ele>
        <time>2019-07-31T16:08:05.148Z</time>
      </trkpt>
      <trkpt lat="42.99232667" lon="-1.14877667">
        <ele>837.0</ele>
        <time>2019-07-31T16:08:06.153Z</time>
      </trkpt>
      <trkpt lat="42.99231667" lon="-1.14879667">
        <ele>837.0</ele>
        <time>2019-07-31T16:08:07.156Z</time>
      </trkpt>
      <trkpt lat="42.99230833" lon="-1.14881167">
        <ele>837.0</ele>
        <time>2019-07-31T16:08:08.159Z</time>
      </trkpt>
      <trkpt lat="42.9923" lon="-1.14883167">
        <ele>837.0</ele>
        <time>2019-07-31T16:08:09.165Z</time>
      </trkpt>
      <trkpt lat="42.99229" lon="-1.14884667">
        <ele>836.0</ele>
        <time>2019-07-31T16:08:10.169Z</time>
      </trkpt>
      <trkpt lat="42.99228333" lon="-1.14886">
        <ele>836.0</ele>
        <time>2019-07-31T16:08:11.176Z</time>
      </trkpt>
      <trkpt lat="42.992275" lon="-1.14888">
        <ele>835.0</ele>
        <time>2019-07-31T16:08:12.180Z</time>
      </trkpt>
      <trkpt lat="42.99226833" lon="-1.148895">
        <ele>836.0</ele>
        <time>2019-07-31T16:08:13.185Z</time>
      </trkpt>
      <trkpt lat="42.99226333" lon="-1.148915">
        <ele>835.0</ele>
        <time>2019-07-31T16:08:14.064Z</time>
      </trkpt>
      <trkpt lat="42.992255" lon="-1.148935">
        <ele>835.0</ele>
        <time>2019-07-31T16:08:15.068Z</time>
      </trkpt>
      <trkpt lat="42.99225" lon="-1.14895833">
        <ele>835.0</ele>
        <time>2019-07-31T16:08:16.073Z</time>
      </trkpt>
      <trkpt lat="42.99224333" lon="-1.14897833">
        <ele>835.0</ele>
        <time>2019-07-31T16:08:17.077Z</time>
      </trkpt>
      <trkpt lat="42.99223333" lon="-1.149">
        <ele>835.0</ele>
        <time>2019-07-31T16:08:18.082Z</time>
      </trkpt>
      <trkpt lat="42.99222667" lon="-1.149015">
        <ele>835.0</ele>
        <time>2019-07-31T16:08:19.087Z</time>
      </trkpt>
      <trkpt lat="42.99221833" lon="-1.14903833">
        <ele>835.0</ele>
        <time>2019-07-31T16:08:20.092Z</time>
      </trkpt>
      <trkpt lat="42.99221" lon="-1.149055">
        <ele>835.0</ele>
        <time>2019-07-31T16:08:21.098Z</time>
      </trkpt>
      <trkpt lat="42.99220167" lon="-1.14907167">
        <ele>835.0</ele>
        <time>2019-07-31T16:08:22.104Z</time>
      </trkpt>
      <trkpt lat="42.992195" lon="-1.149085">
        <ele>835.0</ele>
        <time>2019-07-31T16:08:23.108Z</time>
      </trkpt>
      <trkpt lat="42.992185" lon="-1.14910167">
        <ele>835.0</ele>
        <time>2019-07-31T16:08:24.113Z</time>
      </trkpt>
      <trkpt lat="42.992175" lon="-1.14911833">
        <ele>835.0</ele>
        <time>2019-07-31T16:08:25.117Z</time>
      </trkpt>
      <trkpt lat="42.992165" lon="-1.14913833">
        <ele>835.0</ele>
        <time>2019-07-31T16:08:26.121Z</time>
      </trkpt>
      <trkpt lat="42.992155" lon="-1.149155">
        <ele>835.0</ele>
        <time>2019-07-31T16:08:27.125Z</time>
      </trkpt>
      <trkpt lat="42.99214" lon="-1.14916">
        <ele>835.0</ele>
        <time>2019-07-31T16:08:28.130Z</time>
      </trkpt>
      <trkpt lat="42.992125" lon="-1.14917167">
        <ele>835.0</ele>
        <time>2019-07-31T16:08:29.138Z</time>
      </trkpt>
      <trkpt lat="42.99211333" lon="-1.14918333">
        <ele>835.0</ele>
        <time>2019-07-31T16:08:30.144Z</time>
      </trkpt>
      <trkpt lat="42.992105" lon="-1.149195">
        <ele>835.0</ele>
        <time>2019-07-31T16:08:31.150Z</time>
      </trkpt>
      <trkpt lat="42.99209" lon="-1.149205">
        <ele>835.0</ele>
        <time>2019-07-31T16:08:32.154Z</time>
      </trkpt>
      <trkpt lat="42.99208" lon="-1.14921833">
        <ele>835.0</ele>
        <time>2019-07-31T16:08:33.159Z</time>
      </trkpt>
      <trkpt lat="42.99206667" lon="-1.14922167">
        <ele>835.0</ele>
        <time>2019-07-31T16:08:34.164Z</time>
      </trkpt>
      <trkpt lat="42.99205167" lon="-1.14922833">
        <ele>836.0</ele>
        <time>2019-07-31T16:08:35.167Z</time>
      </trkpt>
      <trkpt lat="42.992035" lon="-1.14923">
        <ele>836.0</ele>
        <time>2019-07-31T16:08:36.171Z</time>
      </trkpt>
      <trkpt lat="42.99202" lon="-1.14922667">
        <ele>838.0</ele>
        <time>2019-07-31T16:08:37.178Z</time>
      </trkpt>
      <trkpt lat="42.99200167" lon="-1.14922333">
        <ele>839.0</ele>
        <time>2019-07-31T16:08:38.183Z</time>
      </trkpt>
      <trkpt lat="42.991985" lon="-1.14922333">
        <ele>840.0</ele>
        <time>2019-07-31T16:08:39.064Z</time>
      </trkpt>
      <trkpt lat="42.99196667" lon="-1.149225">
        <ele>841.0</ele>
        <time>2019-07-31T16:08:40.069Z</time>
      </trkpt>
      <trkpt lat="42.99195167" lon="-1.14922667">
        <ele>841.0</ele>
        <time>2019-07-31T16:08:41.075Z</time>
      </trkpt>
      <trkpt lat="42.991935" lon="-1.149225">
        <ele>842.0</ele>
        <time>2019-07-31T16:08:42.081Z</time>
      </trkpt>
      <trkpt lat="42.99191667" lon="-1.14922333">
        <ele>842.0</ele>
        <time>2019-07-31T16:08:43.086Z</time>
      </trkpt>
      <trkpt lat="42.99190167" lon="-1.14921833">
        <ele>842.0</ele>
        <time>2019-07-31T16:08:44.091Z</time>
      </trkpt>
      <trkpt lat="42.991885" lon="-1.14921333">
        <ele>843.0</ele>
        <time>2019-07-31T16:08:45.096Z</time>
      </trkpt>
      <trkpt lat="42.99186667" lon="-1.14921">
        <ele>843.0</ele>
        <time>2019-07-31T16:08:46.102Z</time>
      </trkpt>
      <trkpt lat="42.99185167" lon="-1.14921">
        <ele>844.0</ele>
        <time>2019-07-31T16:08:47.107Z</time>
      </trkpt>
      <trkpt lat="42.99183667" lon="-1.14920833">
        <ele>844.0</ele>
        <time>2019-07-31T16:08:48.112Z</time>
      </trkpt>
      <trkpt lat="42.99182167" lon="-1.149205">
        <ele>845.0</ele>
        <time>2019-07-31T16:08:49.119Z</time>
      </trkpt>
      <trkpt lat="42.99180833" lon="-1.14920167">
        <ele>846.0</ele>
        <time>2019-07-31T16:08:50.125Z</time>
      </trkpt>
      <trkpt lat="42.99179333" lon="-1.14919667">
        <ele>846.0</ele>
        <time>2019-07-31T16:08:51.130Z</time>
      </trkpt>
      <trkpt lat="42.99178167" lon="-1.14919667">
        <ele>847.0</ele>
        <time>2019-07-31T16:08:52.135Z</time>
      </trkpt>
      <trkpt lat="42.991765" lon="-1.14919667">
        <ele>848.0</ele>
        <time>2019-07-31T16:08:53.140Z</time>
      </trkpt>
      <trkpt lat="42.99175" lon="-1.14919667">
        <ele>848.0</ele>
        <time>2019-07-31T16:08:54.145Z</time>
      </trkpt>
      <trkpt lat="42.99173333" lon="-1.14919833">
        <ele>849.0</ele>
        <time>2019-07-31T16:08:55.150Z</time>
      </trkpt>
      <trkpt lat="42.99171667" lon="-1.1492">
        <ele>850.0</ele>
        <time>2019-07-31T16:08:56.155Z</time>
      </trkpt>
      <trkpt lat="42.99170333" lon="-1.14920167">
        <ele>850.0</ele>
        <time>2019-07-31T16:08:57.160Z</time>
      </trkpt>
      <trkpt lat="42.99168833" lon="-1.149205">
        <ele>850.0</ele>
        <time>2019-07-31T16:08:58.165Z</time>
      </trkpt>
      <trkpt lat="42.99166667" lon="-1.14920667">
        <ele>851.0</ele>
        <time>2019-07-31T16:08:59.170Z</time>
      </trkpt>
      <trkpt lat="42.99165667" lon="-1.14921">
        <ele>851.0</ele>
        <time>2019-07-31T16:09:00.176Z</time>
      </trkpt>
      <trkpt lat="42.99164167" lon="-1.14921333">
        <ele>851.0</ele>
        <time>2019-07-31T16:09:01.182Z</time>
      </trkpt>
      <trkpt lat="42.99162667" lon="-1.14921833">
        <ele>851.0</ele>
        <time>2019-07-31T16:09:02.063Z</time>
      </trkpt>
      <trkpt lat="42.99161167" lon="-1.149225">
        <ele>851.0</ele>
        <time>2019-07-31T16:09:03.067Z</time>
      </trkpt>
      <trkpt lat="42.991595" lon="-1.149235">
        <ele>851.0</ele>
        <time>2019-07-31T16:09:04.070Z</time>
      </trkpt>
      <trkpt lat="42.99158" lon="-1.14924167">
        <ele>850.0</ele>
        <time>2019-07-31T16:09:05.074Z</time>
      </trkpt>
      <trkpt lat="42.99156833" lon="-1.14924667">
        <ele>850.0</ele>
        <time>2019-07-31T16:09:06.079Z</time>
      </trkpt>
      <trkpt lat="42.99155667" lon="-1.14925333">
        <ele>850.0</ele>
        <time>2019-07-31T16:09:07.085Z</time>
      </trkpt>
      <trkpt lat="42.991545" lon="-1.149255">
        <ele>851.0</ele>
        <time>2019-07-31T16:09:08.091Z</time>
      </trkpt>
      <trkpt lat="42.99153" lon="-1.14926333">
        <ele>851.0</ele>
        <time>2019-07-31T16:09:09.096Z</time>
      </trkpt>
      <trkpt lat="42.99151333" lon="-1.14926667">
        <ele>851.0</ele>
        <time>2019-07-31T16:09:10.102Z</time>
      </trkpt>
      <trkpt lat="42.99149667" lon="-1.14927667">
        <ele>851.0</ele>
        <time>2019-07-31T16:09:11.108Z</time>
      </trkpt>
      <trkpt lat="42.991485" lon="-1.14928833">
        <ele>850.0</ele>
        <time>2019-07-31T16:09:12.113Z</time>
      </trkpt>
      <trkpt lat="42.99146833" lon="-1.14930333">
        <ele>850.0</ele>
        <time>2019-07-31T16:09:13.117Z</time>
      </trkpt>
      <trkpt lat="42.991455" lon="-1.14931667">
        <ele>849.0</ele>
        <time>2019-07-31T16:09:14.122Z</time>
      </trkpt>
      <trkpt lat="42.99144167" lon="-1.14933">
        <ele>849.0</ele>
        <time>2019-07-31T16:09:15.127Z</time>
      </trkpt>
      <trkpt lat="42.99143167" lon="-1.14934167">
        <ele>848.0</ele>
        <time>2019-07-31T16:09:16.133Z</time>
      </trkpt>
      <trkpt lat="42.99141833" lon="-1.14935833">
        <ele>848.0</ele>
        <time>2019-07-31T16:09:17.137Z</time>
      </trkpt>
      <trkpt lat="42.99140667" lon="-1.149375">
        <ele>847.0</ele>
        <time>2019-07-31T16:09:18.143Z</time>
      </trkpt>
      <trkpt lat="42.99139167" lon="-1.14939">
        <ele>846.0</ele>
        <time>2019-07-31T16:09:19.150Z</time>
      </trkpt>
      <trkpt lat="42.99137833" lon="-1.14940667">
        <ele>846.0</ele>
        <time>2019-07-31T16:09:20.156Z</time>
      </trkpt>
      <trkpt lat="42.99137" lon="-1.14942167">
        <ele>845.0</ele>
        <time>2019-07-31T16:09:21.163Z</time>
      </trkpt>
      <trkpt lat="42.991355" lon="-1.14943833">
        <ele>845.0</ele>
        <time>2019-07-31T16:09:22.168Z</time>
      </trkpt>
      <trkpt lat="42.99134167" lon="-1.14945333">
        <ele>845.0</ele>
        <time>2019-07-31T16:09:23.174Z</time>
      </trkpt>
      <trkpt lat="42.99133167" lon="-1.14946833">
        <ele>845.0</ele>
        <time>2019-07-31T16:09:24.178Z</time>
      </trkpt>
      <trkpt lat="42.99132" lon="-1.14948333">
        <ele>845.0</ele>
        <time>2019-07-31T16:09:25.183Z</time>
      </trkpt>
      <trkpt lat="42.99130833" lon="-1.14950167">
        <ele>845.0</ele>
        <time>2019-07-31T16:09:26.063Z</time>
      </trkpt>
      <trkpt lat="42.99129833" lon="-1.14952333">
        <ele>845.0</ele>
        <time>2019-07-31T16:09:27.068Z</time>
      </trkpt>
      <trkpt lat="42.99128833" lon="-1.14955">
        <ele>845.0</ele>
        <time>2019-07-31T16:09:28.074Z</time>
      </trkpt>
      <trkpt lat="42.99128167" lon="-1.14957333">
        <ele>844.0</ele>
        <time>2019-07-31T16:09:29.079Z</time>
      </trkpt>
      <trkpt lat="42.99127333" lon="-1.14959833">
        <ele>843.0</ele>
        <time>2019-07-31T16:09:30.084Z</time>
      </trkpt>
      <trkpt lat="42.99126667" lon="-1.14962">
        <ele>843.0</ele>
        <time>2019-07-31T16:09:31.090Z</time>
      </trkpt>
      <trkpt lat="42.99125833" lon="-1.14964">
        <ele>843.0</ele>
        <time>2019-07-31T16:09:32.096Z</time>
      </trkpt>
      <trkpt lat="42.991255" lon="-1.14965833">
        <ele>842.0</ele>
        <time>2019-07-31T16:09:33.102Z</time>
      </trkpt>
      <trkpt lat="42.99124667" lon="-1.14967333">
        <ele>842.0</ele>
        <time>2019-07-31T16:09:34.107Z</time>
      </trkpt>
      <trkpt lat="42.99124333" lon="-1.14968833">
        <ele>841.0</ele>
        <time>2019-07-31T16:09:35.108Z</time>
      </trkpt>
      <trkpt lat="42.99123833" lon="-1.14970833">
        <ele>840.0</ele>
        <time>2019-07-31T16:09:36.112Z</time>
      </trkpt>
      <trkpt lat="42.99122667" lon="-1.14973167">
        <ele>840.0</ele>
        <time>2019-07-31T16:09:37.119Z</time>
      </trkpt>
      <trkpt lat="42.99121667" lon="-1.14975667">
        <ele>841.0</ele>
        <time>2019-07-31T16:09:38.124Z</time>
      </trkpt>
      <trkpt lat="42.991205" lon="-1.14977833">
        <ele>841.0</ele>
        <time>2019-07-31T16:09:39.128Z</time>
      </trkpt>
      <trkpt lat="42.991195" lon="-1.1498">
        <ele>841.0</ele>
        <time>2019-07-31T16:09:40.135Z</time>
      </trkpt>
      <trkpt lat="42.99119" lon="-1.14982333">
        <ele>840.0</ele>
        <time>2019-07-31T16:09:41.141Z</time>
      </trkpt>
      <trkpt lat="42.99118333" lon="-1.14984">
        <ele>840.0</ele>
        <time>2019-07-31T16:09:42.146Z</time>
      </trkpt>
      <trkpt lat="42.99117333" lon="-1.14986667">
        <ele>841.0</ele>
        <time>2019-07-31T16:09:43.152Z</time>
      </trkpt>
      <trkpt lat="42.991165" lon="-1.14988667">
        <ele>841.0</ele>
        <time>2019-07-31T16:09:44.158Z</time>
      </trkpt>
      <trkpt lat="42.99116" lon="-1.14991">
        <ele>841.0</ele>
        <time>2019-07-31T16:09:45.161Z</time>
      </trkpt>
      <trkpt lat="42.99115333" lon="-1.14992833">
        <ele>840.0</ele>
        <time>2019-07-31T16:09:46.164Z</time>
      </trkpt>
      <trkpt lat="42.99114167" lon="-1.14995167">
        <ele>841.0</ele>
        <time>2019-07-31T16:09:47.167Z</time>
      </trkpt>
      <trkpt lat="42.99113" lon="-1.14996667">
        <ele>842.0</ele>
        <time>2019-07-31T16:09:48.171Z</time>
      </trkpt>
      <trkpt lat="42.99112" lon="-1.149985">
        <ele>842.0</ele>
        <time>2019-07-31T16:09:49.176Z</time>
      </trkpt>
      <trkpt lat="42.99111167" lon="-1.150005">
        <ele>842.0</ele>
        <time>2019-07-31T16:09:50.182Z</time>
      </trkpt>
      <trkpt lat="42.99110333" lon="-1.15002167">
        <ele>841.0</ele>
        <time>2019-07-31T16:09:51.186Z</time>
      </trkpt>
      <trkpt lat="42.991095" lon="-1.15004">
        <ele>841.0</ele>
        <time>2019-07-31T16:09:52.066Z</time>
      </trkpt>
      <trkpt lat="42.99108667" lon="-1.15005333">
        <ele>842.0</ele>
        <time>2019-07-31T16:09:53.072Z</time>
      </trkpt>
      <trkpt lat="42.99107833" lon="-1.15006833">
        <ele>842.0</ele>
        <time>2019-07-31T16:09:54.078Z</time>
      </trkpt>
      <trkpt lat="42.99106667" lon="-1.150085">
        <ele>842.0</ele>
        <time>2019-07-31T16:09:55.083Z</time>
      </trkpt>
      <trkpt lat="42.99105833" lon="-1.15010167">
        <ele>842.0</ele>
        <time>2019-07-31T16:09:56.088Z</time>
      </trkpt>
      <trkpt lat="42.99105167" lon="-1.15011667">
        <ele>842.0</ele>
        <time>2019-07-31T16:09:57.093Z</time>
      </trkpt>
      <trkpt lat="42.99104667" lon="-1.15013167">
        <ele>842.0</ele>
        <time>2019-07-31T16:09:58.100Z</time>
      </trkpt>
      <trkpt lat="42.99104" lon="-1.15015">
        <ele>842.0</ele>
        <time>2019-07-31T16:09:59.104Z</time>
      </trkpt>
      <trkpt lat="42.991035" lon="-1.15016667">
        <ele>842.0</ele>
        <time>2019-07-31T16:10:00.110Z</time>
      </trkpt>
      <trkpt lat="42.99102667" lon="-1.15018333">
        <ele>842.0</ele>
        <time>2019-07-31T16:10:01.113Z</time>
      </trkpt>
      <trkpt lat="42.99102" lon="-1.1502">
        <ele>842.0</ele>
        <time>2019-07-31T16:10:02.120Z</time>
      </trkpt>
      <trkpt lat="42.99101333" lon="-1.15021333">
        <ele>842.0</ele>
        <time>2019-07-31T16:10:03.126Z</time>
      </trkpt>
      <trkpt lat="42.991005" lon="-1.15023167">
        <ele>842.0</ele>
        <time>2019-07-31T16:10:04.131Z</time>
      </trkpt>
      <trkpt lat="42.99099667" lon="-1.15024667">
        <ele>843.0</ele>
        <time>2019-07-31T16:10:05.138Z</time>
      </trkpt>
      <trkpt lat="42.99099" lon="-1.15026167">
        <ele>843.0</ele>
        <time>2019-07-31T16:10:06.144Z</time>
      </trkpt>
      <trkpt lat="42.99098" lon="-1.15027833">
        <ele>844.0</ele>
        <time>2019-07-31T16:10:07.151Z</time>
      </trkpt>
      <trkpt lat="42.99097333" lon="-1.150295">
        <ele>844.0</ele>
        <time>2019-07-31T16:10:08.156Z</time>
      </trkpt>
      <trkpt lat="42.990965" lon="-1.15031167">
        <ele>844.0</ele>
        <time>2019-07-31T16:10:09.162Z</time>
      </trkpt>
      <trkpt lat="42.99095833" lon="-1.15033167">
        <ele>844.0</ele>
        <time>2019-07-31T16:10:10.167Z</time>
      </trkpt>
      <trkpt lat="42.99095" lon="-1.15035667">
        <ele>844.0</ele>
        <time>2019-07-31T16:10:11.172Z</time>
      </trkpt>
      <trkpt lat="42.99094833" lon="-1.15037167">
        <ele>844.0</ele>
        <time>2019-07-31T16:10:12.177Z</time>
      </trkpt>
      <trkpt lat="42.99094167" lon="-1.150395">
        <ele>844.0</ele>
        <time>2019-07-31T16:10:13.184Z</time>
      </trkpt>
      <trkpt lat="42.99093333" lon="-1.15042">
        <ele>844.0</ele>
        <time>2019-07-31T16:10:14.063Z</time>
      </trkpt>
      <trkpt lat="42.99093" lon="-1.15043833">
        <ele>845.0</ele>
        <time>2019-07-31T16:10:15.068Z</time>
      </trkpt>
      <trkpt lat="42.990925" lon="-1.15045667">
        <ele>845.0</ele>
        <time>2019-07-31T16:10:16.073Z</time>
      </trkpt>
      <trkpt lat="42.99091833" lon="-1.15048">
        <ele>845.0</ele>
        <time>2019-07-31T16:10:17.080Z</time>
      </trkpt>
      <trkpt lat="42.990915" lon="-1.150505">
        <ele>845.0</ele>
        <time>2019-07-31T16:10:18.083Z</time>
      </trkpt>
      <trkpt lat="42.99091167" lon="-1.15052667">
        <ele>844.0</ele>
        <time>2019-07-31T16:10:19.088Z</time>
      </trkpt>
      <trkpt lat="42.99091" lon="-1.15054667">
        <ele>844.0</ele>
        <time>2019-07-31T16:10:20.094Z</time>
      </trkpt>
      <trkpt lat="42.99090833" lon="-1.15057167">
        <ele>844.0</ele>
        <time>2019-07-31T16:10:21.098Z</time>
      </trkpt>
      <trkpt lat="42.99090833" lon="-1.15059333">
        <ele>843.0</ele>
        <time>2019-07-31T16:10:22.105Z</time>
      </trkpt>
      <trkpt lat="42.99090667" lon="-1.15061667">
        <ele>843.0</ele>
        <time>2019-07-31T16:10:23.110Z</time>
      </trkpt>
      <trkpt lat="42.990905" lon="-1.15064167">
        <ele>842.0</ele>
        <time>2019-07-31T16:10:24.116Z</time>
      </trkpt>
      <trkpt lat="42.990905" lon="-1.150665">
        <ele>842.0</ele>
        <time>2019-07-31T16:10:25.121Z</time>
      </trkpt>
      <trkpt lat="42.99090667" lon="-1.15069167">
        <ele>841.0</ele>
        <time>2019-07-31T16:10:26.127Z</time>
      </trkpt>
      <trkpt lat="42.99091" lon="-1.150715">
        <ele>841.0</ele>
        <time>2019-07-31T16:10:27.129Z</time>
      </trkpt>
      <trkpt lat="42.99091167" lon="-1.15074333">
        <ele>841.0</ele>
        <time>2019-07-31T16:10:28.135Z</time>
      </trkpt>
      <trkpt lat="42.99091167" lon="-1.15076667">
        <ele>841.0</ele>
        <time>2019-07-31T16:10:29.140Z</time>
      </trkpt>
      <trkpt lat="42.99091167" lon="-1.15079">
        <ele>840.0</ele>
        <time>2019-07-31T16:10:30.144Z</time>
      </trkpt>
      <trkpt lat="42.99091" lon="-1.15081167">
        <ele>840.0</ele>
        <time>2019-07-31T16:10:31.147Z</time>
      </trkpt>
      <trkpt lat="42.99091167" lon="-1.150835">
        <ele>839.0</ele>
        <time>2019-07-31T16:10:32.153Z</time>
      </trkpt>
      <trkpt lat="42.990915" lon="-1.15086167">
        <ele>840.0</ele>
        <time>2019-07-31T16:10:33.159Z</time>
      </trkpt>
      <trkpt lat="42.99092" lon="-1.15088833">
        <ele>841.0</ele>
        <time>2019-07-31T16:10:34.164Z</time>
      </trkpt>
      <trkpt lat="42.99092333" lon="-1.15090833">
        <ele>841.0</ele>
        <time>2019-07-31T16:10:35.170Z</time>
      </trkpt>
      <trkpt lat="42.99092667" lon="-1.15093333">
        <ele>841.0</ele>
        <time>2019-07-31T16:10:36.177Z</time>
      </trkpt>
      <trkpt lat="42.99093" lon="-1.15096">
        <ele>841.0</ele>
        <time>2019-07-31T16:10:37.184Z</time>
      </trkpt>
      <trkpt lat="42.990935" lon="-1.15097667">
        <ele>840.0</ele>
        <time>2019-07-31T16:10:38.063Z</time>
      </trkpt>
      <trkpt lat="42.99093667" lon="-1.15099167">
        <ele>840.0</ele>
        <time>2019-07-31T16:10:39.064Z</time>
      </trkpt>
      <trkpt lat="42.99094" lon="-1.15101">
        <ele>841.0</ele>
        <time>2019-07-31T16:10:40.072Z</time>
      </trkpt>
      <trkpt lat="42.99094667" lon="-1.15103333">
        <ele>841.0</ele>
        <time>2019-07-31T16:10:41.079Z</time>
      </trkpt>
      <trkpt lat="42.99095667" lon="-1.15105833">
        <ele>842.0</ele>
        <time>2019-07-31T16:10:42.084Z</time>
      </trkpt>
      <trkpt lat="42.99096" lon="-1.15108333">
        <ele>842.0</ele>
        <time>2019-07-31T16:10:43.087Z</time>
      </trkpt>
      <trkpt lat="42.99096333" lon="-1.15111">
        <ele>843.0</ele>
        <time>2019-07-31T16:10:44.093Z</time>
      </trkpt>
      <trkpt lat="42.99097" lon="-1.15113667">
        <ele>843.0</ele>
        <time>2019-07-31T16:10:45.095Z</time>
      </trkpt>
      <trkpt lat="42.99097833" lon="-1.15116333">
        <ele>843.0</ele>
        <time>2019-07-31T16:10:46.100Z</time>
      </trkpt>
      <trkpt lat="42.99098667" lon="-1.151185">
        <ele>843.0</ele>
        <time>2019-07-31T16:10:47.107Z</time>
      </trkpt>
      <trkpt lat="42.99099667" lon="-1.15120667">
        <ele>843.0</ele>
        <time>2019-07-31T16:10:48.114Z</time>
      </trkpt>
      <trkpt lat="42.99100333" lon="-1.15123">
        <ele>842.0</ele>
        <time>2019-07-31T16:10:49.119Z</time>
      </trkpt>
      <trkpt lat="42.99100333" lon="-1.15125">
        <ele>843.0</ele>
        <time>2019-07-31T16:10:50.124Z</time>
      </trkpt>
      <trkpt lat="42.99100833" lon="-1.151275">
        <ele>843.0</ele>
        <time>2019-07-31T16:10:51.126Z</time>
      </trkpt>
      <trkpt lat="42.991015" lon="-1.15129667">
        <ele>843.0</ele>
        <time>2019-07-31T16:10:52.129Z</time>
      </trkpt>
      <trkpt lat="42.991025" lon="-1.15131">
        <ele>842.0</ele>
        <time>2019-07-31T16:10:53.134Z</time>
      </trkpt>
      <trkpt lat="42.99102833" lon="-1.15132833">
        <ele>842.0</ele>
        <time>2019-07-31T16:10:54.140Z</time>
      </trkpt>
      <trkpt lat="42.991035" lon="-1.15135667">
        <ele>842.0</ele>
        <time>2019-07-31T16:10:55.146Z</time>
      </trkpt>
      <trkpt lat="42.99104167" lon="-1.15139">
        <ele>842.0</ele>
        <time>2019-07-31T16:10:56.149Z</time>
      </trkpt>
      <trkpt lat="42.99105" lon="-1.15141833">
        <ele>842.0</ele>
        <time>2019-07-31T16:10:57.154Z</time>
      </trkpt>
      <trkpt lat="42.99105667" lon="-1.15143667">
        <ele>842.0</ele>
        <time>2019-07-31T16:10:58.159Z</time>
      </trkpt>
      <trkpt lat="42.99106333" lon="-1.15145">
        <ele>842.0</ele>
        <time>2019-07-31T16:10:59.164Z</time>
      </trkpt>
      <trkpt lat="42.99107" lon="-1.15147167">
        <ele>842.0</ele>
        <time>2019-07-31T16:11:00.168Z</time>
      </trkpt>
      <trkpt lat="42.99107667" lon="-1.151485">
        <ele>842.0</ele>
        <time>2019-07-31T16:11:01.173Z</time>
      </trkpt>
      <trkpt lat="42.991085" lon="-1.15150667">
        <ele>842.0</ele>
        <time>2019-07-31T16:11:02.177Z</time>
      </trkpt>
      <trkpt lat="42.991095" lon="-1.151525">
        <ele>842.0</ele>
        <time>2019-07-31T16:11:03.181Z</time>
      </trkpt>
      <trkpt lat="42.99110167" lon="-1.15154167">
        <ele>842.0</ele>
        <time>2019-07-31T16:11:04.186Z</time>
      </trkpt>
      <trkpt lat="42.99111" lon="-1.15155667">
        <ele>842.0</ele>
        <time>2019-07-31T16:11:05.066Z</time>
      </trkpt>
      <trkpt lat="42.99111667" lon="-1.15157167">
        <ele>841.0</ele>
        <time>2019-07-31T16:11:06.072Z</time>
      </trkpt>
      <trkpt lat="42.99112833" lon="-1.15158667">
        <ele>840.0</ele>
        <time>2019-07-31T16:11:07.077Z</time>
      </trkpt>
      <trkpt lat="42.99113833" lon="-1.151605">
        <ele>839.0</ele>
        <time>2019-07-31T16:11:08.083Z</time>
      </trkpt>
      <trkpt lat="42.99114667" lon="-1.151625">
        <ele>838.0</ele>
        <time>2019-07-31T16:11:09.087Z</time>
      </trkpt>
      <trkpt lat="42.99115333" lon="-1.15164667">
        <ele>838.0</ele>
        <time>2019-07-31T16:11:10.094Z</time>
      </trkpt>
      <trkpt lat="42.99116167" lon="-1.15166833">
        <ele>839.0</ele>
        <time>2019-07-31T16:11:11.101Z</time>
      </trkpt>
      <trkpt lat="42.99116833" lon="-1.15169">
        <ele>839.0</ele>
        <time>2019-07-31T16:11:12.109Z</time>
      </trkpt>
      <trkpt lat="42.99118" lon="-1.15170167">
        <ele>839.0</ele>
        <time>2019-07-31T16:11:13.114Z</time>
      </trkpt>
      <trkpt lat="42.99119" lon="-1.15172">
        <ele>838.0</ele>
        <time>2019-07-31T16:11:14.119Z</time>
      </trkpt>
      <trkpt lat="42.991195" lon="-1.15173667">
        <ele>837.0</ele>
        <time>2019-07-31T16:11:15.124Z</time>
      </trkpt>
      <trkpt lat="42.99119667" lon="-1.15175667">
        <ele>837.0</ele>
        <time>2019-07-31T16:11:16.128Z</time>
      </trkpt>
      <trkpt lat="42.99119667" lon="-1.15177">
        <ele>837.0</ele>
        <time>2019-07-31T16:11:17.131Z</time>
      </trkpt>
      <trkpt lat="42.99119833" lon="-1.15179167">
        <ele>836.0</ele>
        <time>2019-07-31T16:11:18.136Z</time>
      </trkpt>
      <trkpt lat="42.99119833" lon="-1.15181167">
        <ele>836.0</ele>
        <time>2019-07-31T16:11:19.141Z</time>
      </trkpt>
      <trkpt lat="42.991195" lon="-1.15182667">
        <ele>836.0</ele>
        <time>2019-07-31T16:11:20.146Z</time>
      </trkpt>
      <trkpt lat="42.99119" lon="-1.15184">
        <ele>837.0</ele>
        <time>2019-07-31T16:11:21.152Z</time>
      </trkpt>
      <trkpt lat="42.99118167" lon="-1.15184833">
        <ele>837.0</ele>
        <time>2019-07-31T16:11:22.159Z</time>
      </trkpt>
      <trkpt lat="42.99117333" lon="-1.15185667">
        <ele>838.0</ele>
        <time>2019-07-31T16:11:23.165Z</time>
      </trkpt>
      <trkpt lat="42.99116333" lon="-1.151865">
        <ele>838.0</ele>
        <time>2019-07-31T16:11:24.169Z</time>
      </trkpt>
      <trkpt lat="42.99115" lon="-1.15187333">
        <ele>839.0</ele>
        <time>2019-07-31T16:11:25.175Z</time>
      </trkpt>
      <trkpt lat="42.99114" lon="-1.15187833">
        <ele>839.0</ele>
        <time>2019-07-31T16:11:26.181Z</time>
      </trkpt>
      <trkpt lat="42.99112833" lon="-1.15187667">
        <ele>840.0</ele>
        <time>2019-07-31T16:11:27.063Z</time>
      </trkpt>
      <trkpt lat="42.991115" lon="-1.151875">
        <ele>841.0</ele>
        <time>2019-07-31T16:11:28.070Z</time>
      </trkpt>
      <trkpt lat="42.99109667" lon="-1.15187167">
        <ele>842.0</ele>
        <time>2019-07-31T16:11:29.075Z</time>
      </trkpt>
      <trkpt lat="42.99108333" lon="-1.15186833">
        <ele>844.0</ele>
        <time>2019-07-31T16:11:30.081Z</time>
      </trkpt>
      <trkpt lat="42.99107" lon="-1.151865">
        <ele>844.0</ele>
        <time>2019-07-31T16:11:31.086Z</time>
      </trkpt>
      <trkpt lat="42.991055" lon="-1.15185833">
        <ele>845.0</ele>
        <time>2019-07-31T16:11:32.092Z</time>
      </trkpt>
      <trkpt lat="42.99103667" lon="-1.15185">
        <ele>846.0</ele>
        <time>2019-07-31T16:11:33.099Z</time>
      </trkpt>
      <trkpt lat="42.99102333" lon="-1.15184333">
        <ele>847.0</ele>
        <time>2019-07-31T16:11:34.105Z</time>
      </trkpt>
      <trkpt lat="42.99101" lon="-1.15183333">
        <ele>848.0</ele>
        <time>2019-07-31T16:11:35.111Z</time>
      </trkpt>
      <trkpt lat="42.991" lon="-1.15182333">
        <ele>849.0</ele>
        <time>2019-07-31T16:11:36.116Z</time>
      </trkpt>
      <trkpt lat="42.99098333" lon="-1.15180833">
        <ele>850.0</ele>
        <time>2019-07-31T16:11:37.122Z</time>
      </trkpt>
      <trkpt lat="42.99097833" lon="-1.15179833">
        <ele>851.0</ele>
        <time>2019-07-31T16:11:38.126Z</time>
      </trkpt>
      <trkpt lat="42.990965" lon="-1.15178667">
        <ele>853.0</ele>
        <time>2019-07-31T16:11:39.130Z</time>
      </trkpt>
      <trkpt lat="42.99096" lon="-1.151775">
        <ele>854.0</ele>
        <time>2019-07-31T16:11:40.135Z</time>
      </trkpt>
      <trkpt lat="42.99094833" lon="-1.15176167">
        <ele>855.0</ele>
        <time>2019-07-31T16:11:41.141Z</time>
      </trkpt>
      <trkpt lat="42.99093333" lon="-1.15174667">
        <ele>857.0</ele>
        <time>2019-07-31T16:11:42.147Z</time>
      </trkpt>
      <trkpt lat="42.99092" lon="-1.15173833">
        <ele>857.0</ele>
        <time>2019-07-31T16:11:43.152Z</time>
      </trkpt>
      <trkpt lat="42.99090833" lon="-1.15172833">
        <ele>858.0</ele>
        <time>2019-07-31T16:11:44.157Z</time>
      </trkpt>
      <trkpt lat="42.99089333" lon="-1.151715">
        <ele>859.0</ele>
        <time>2019-07-31T16:11:45.163Z</time>
      </trkpt>
      <trkpt lat="42.99088167" lon="-1.1517">
        <ele>861.0</ele>
        <time>2019-07-31T16:11:46.168Z</time>
      </trkpt>
      <trkpt lat="42.99086667" lon="-1.15169">
        <ele>863.0</ele>
        <time>2019-07-31T16:11:47.173Z</time>
      </trkpt>
      <trkpt lat="42.99084667" lon="-1.151675">
        <ele>864.0</ele>
        <time>2019-07-31T16:11:48.179Z</time>
      </trkpt>
      <trkpt lat="42.99083" lon="-1.151665">
        <ele>864.0</ele>
        <time>2019-07-31T16:11:49.185Z</time>
      </trkpt>
      <trkpt lat="42.990815" lon="-1.151655">
        <ele>865.0</ele>
        <time>2019-07-31T16:11:50.064Z</time>
      </trkpt>
      <trkpt lat="42.99080333" lon="-1.15164333">
        <ele>865.0</ele>
        <time>2019-07-31T16:11:51.069Z</time>
      </trkpt>
      <trkpt lat="42.99078833" lon="-1.151625">
        <ele>865.0</ele>
        <time>2019-07-31T16:11:52.075Z</time>
      </trkpt>
      <trkpt lat="42.99077167" lon="-1.15161">
        <ele>866.0</ele>
        <time>2019-07-31T16:11:53.082Z</time>
      </trkpt>
      <trkpt lat="42.99075167" lon="-1.15159833">
        <ele>868.0</ele>
        <time>2019-07-31T16:11:54.086Z</time>
      </trkpt>
      <trkpt lat="42.99074" lon="-1.15158667">
        <ele>868.0</ele>
        <time>2019-07-31T16:11:55.092Z</time>
      </trkpt>
      <trkpt lat="42.99071667" lon="-1.15157333">
        <ele>868.0</ele>
        <time>2019-07-31T16:11:56.098Z</time>
      </trkpt>
      <trkpt lat="42.99069833" lon="-1.15155667">
        <ele>869.0</ele>
        <time>2019-07-31T16:11:57.104Z</time>
      </trkpt>
      <trkpt lat="42.990685" lon="-1.15155333">
        <ele>870.0</ele>
        <time>2019-07-31T16:11:58.109Z</time>
      </trkpt>
      <trkpt lat="42.99067333" lon="-1.15154667">
        <ele>871.0</ele>
        <time>2019-07-31T16:11:59.115Z</time>
      </trkpt>
      <trkpt lat="42.99065833" lon="-1.15153667">
        <ele>872.0</ele>
        <time>2019-07-31T16:12:00.119Z</time>
      </trkpt>
      <trkpt lat="42.99064167" lon="-1.15153167">
        <ele>872.0</ele>
        <time>2019-07-31T16:12:01.124Z</time>
      </trkpt>
      <trkpt lat="42.99062833" lon="-1.15152833">
        <ele>872.0</ele>
        <time>2019-07-31T16:12:02.127Z</time>
      </trkpt>
      <trkpt lat="42.99061833" lon="-1.15152167">
        <ele>871.0</ele>
        <time>2019-07-31T16:12:03.132Z</time>
      </trkpt>
      <trkpt lat="42.99060833" lon="-1.15151667">
        <ele>871.0</ele>
        <time>2019-07-31T16:12:04.139Z</time>
      </trkpt>
      <trkpt lat="42.99059833" lon="-1.15151667">
        <ele>872.0</ele>
        <time>2019-07-31T16:12:05.146Z</time>
      </trkpt>
      <trkpt lat="42.990585" lon="-1.15151">
        <ele>873.0</ele>
        <time>2019-07-31T16:12:06.151Z</time>
      </trkpt>
      <trkpt lat="42.99057333" lon="-1.15150667">
        <ele>873.0</ele>
        <time>2019-07-31T16:12:07.157Z</time>
      </trkpt>
      <trkpt lat="42.99055333" lon="-1.151505">
        <ele>874.0</ele>
        <time>2019-07-31T16:12:08.163Z</time>
      </trkpt>
      <trkpt lat="42.99053833" lon="-1.15150333">
        <ele>874.0</ele>
        <time>2019-07-31T16:12:09.169Z</time>
      </trkpt>
      <trkpt lat="42.99052333" lon="-1.15150167">
        <ele>873.0</ele>
        <time>2019-07-31T16:12:10.173Z</time>
      </trkpt>
      <trkpt lat="42.99050333" lon="-1.15150333">
        <ele>873.0</ele>
        <time>2019-07-31T16:12:11.177Z</time>
      </trkpt>
      <trkpt lat="42.99048833" lon="-1.151505">
        <ele>872.0</ele>
        <time>2019-07-31T16:12:12.182Z</time>
      </trkpt>
      <trkpt lat="42.99047167" lon="-1.15150333">
        <ele>872.0</ele>
        <time>2019-07-31T16:12:13.186Z</time>
      </trkpt>
      <trkpt lat="42.990455" lon="-1.151505">
        <ele>872.0</ele>
        <time>2019-07-31T16:12:14.067Z</time>
      </trkpt>
      <trkpt lat="42.99043833" lon="-1.15151333">
        <ele>872.0</ele>
        <time>2019-07-31T16:12:15.073Z</time>
      </trkpt>
      <trkpt lat="42.990425" lon="-1.15152333">
        <ele>871.0</ele>
        <time>2019-07-31T16:12:16.078Z</time>
      </trkpt>
      <trkpt lat="42.990405" lon="-1.15152833">
        <ele>871.0</ele>
        <time>2019-07-31T16:12:17.084Z</time>
      </trkpt>
      <trkpt lat="42.99039167" lon="-1.15153333">
        <ele>870.0</ele>
        <time>2019-07-31T16:12:18.090Z</time>
      </trkpt>
      <trkpt lat="42.99037167" lon="-1.151535">
        <ele>870.0</ele>
        <time>2019-07-31T16:12:19.097Z</time>
      </trkpt>
      <trkpt lat="42.99034833" lon="-1.15154333">
        <ele>870.0</ele>
        <time>2019-07-31T16:12:20.103Z</time>
      </trkpt>
      <trkpt lat="42.99032667" lon="-1.15155833">
        <ele>869.0</ele>
        <time>2019-07-31T16:12:21.109Z</time>
      </trkpt>
      <trkpt lat="42.99031167" lon="-1.15157167">
        <ele>869.0</ele>
        <time>2019-07-31T16:12:22.115Z</time>
      </trkpt>
      <trkpt lat="42.990295" lon="-1.15158833">
        <ele>868.0</ele>
        <time>2019-07-31T16:12:23.120Z</time>
      </trkpt>
      <trkpt lat="42.99028167" lon="-1.1516">
        <ele>867.0</ele>
        <time>2019-07-31T16:12:24.125Z</time>
      </trkpt>
      <trkpt lat="42.99026333" lon="-1.15161333">
        <ele>866.0</ele>
        <time>2019-07-31T16:12:25.130Z</time>
      </trkpt>
      <trkpt lat="42.99024667" lon="-1.151625">
        <ele>865.0</ele>
        <time>2019-07-31T16:12:26.132Z</time>
      </trkpt>
      <trkpt lat="42.990235" lon="-1.15163833">
        <ele>864.0</ele>
        <time>2019-07-31T16:12:27.135Z</time>
      </trkpt>
      <trkpt lat="42.99022167" lon="-1.151655">
        <ele>863.0</ele>
        <time>2019-07-31T16:12:28.142Z</time>
      </trkpt>
      <trkpt lat="42.99021" lon="-1.15167333">
        <ele>862.0</ele>
        <time>2019-07-31T16:12:29.149Z</time>
      </trkpt>
      <trkpt lat="42.990195" lon="-1.15168833">
        <ele>861.0</ele>
        <time>2019-07-31T16:12:30.156Z</time>
      </trkpt>
      <trkpt lat="42.990175" lon="-1.151705">
        <ele>861.0</ele>
        <time>2019-07-31T16:12:31.163Z</time>
      </trkpt>
      <trkpt lat="42.99016" lon="-1.15171333">
        <ele>860.0</ele>
        <time>2019-07-31T16:12:32.168Z</time>
      </trkpt>
      <trkpt lat="42.99014333" lon="-1.15173167">
        <ele>859.0</ele>
        <time>2019-07-31T16:12:33.172Z</time>
      </trkpt>
      <trkpt lat="42.99012833" lon="-1.15174833">
        <ele>858.0</ele>
        <time>2019-07-31T16:12:34.177Z</time>
      </trkpt>
      <trkpt lat="42.99011667" lon="-1.15177">
        <ele>857.0</ele>
        <time>2019-07-31T16:12:35.181Z</time>
      </trkpt>
      <trkpt lat="42.99010667" lon="-1.151785">
        <ele>857.0</ele>
        <time>2019-07-31T16:12:36.061Z</time>
      </trkpt>
      <trkpt lat="42.990095" lon="-1.15180333">
        <ele>856.0</ele>
        <time>2019-07-31T16:12:37.065Z</time>
      </trkpt>
      <trkpt lat="42.99008" lon="-1.15181667">
        <ele>856.0</ele>
        <time>2019-07-31T16:12:38.071Z</time>
      </trkpt>
      <trkpt lat="42.99006333" lon="-1.15182667">
        <ele>856.0</ele>
        <time>2019-07-31T16:12:39.077Z</time>
      </trkpt>
      <trkpt lat="42.99004833" lon="-1.15183">
        <ele>856.0</ele>
        <time>2019-07-31T16:12:40.082Z</time>
      </trkpt>
      <trkpt lat="42.99003333" lon="-1.15185">
        <ele>855.0</ele>
        <time>2019-07-31T16:12:41.086Z</time>
      </trkpt>
      <trkpt lat="42.99002" lon="-1.15187167">
        <ele>854.0</ele>
        <time>2019-07-31T16:12:42.092Z</time>
      </trkpt>
      <trkpt lat="42.99000833" lon="-1.15188667">
        <ele>853.0</ele>
        <time>2019-07-31T16:12:43.098Z</time>
      </trkpt>
      <trkpt lat="42.98999667" lon="-1.15190667">
        <ele>852.0</ele>
        <time>2019-07-31T16:12:44.102Z</time>
      </trkpt>
      <trkpt lat="42.98998167" lon="-1.15192167">
        <ele>852.0</ele>
        <time>2019-07-31T16:12:45.107Z</time>
      </trkpt>
      <trkpt lat="42.98996833" lon="-1.15194">
        <ele>852.0</ele>
        <time>2019-07-31T16:12:46.110Z</time>
      </trkpt>
      <trkpt lat="42.989955" lon="-1.151945">
        <ele>852.0</ele>
        <time>2019-07-31T16:12:47.114Z</time>
      </trkpt>
      <trkpt lat="42.98994167" lon="-1.15195167">
        <ele>852.0</ele>
        <time>2019-07-31T16:12:48.119Z</time>
      </trkpt>
      <trkpt lat="42.98992667" lon="-1.15196">
        <ele>852.0</ele>
        <time>2019-07-31T16:12:49.125Z</time>
      </trkpt>
      <trkpt lat="42.98991167" lon="-1.15197167">
        <ele>852.0</ele>
        <time>2019-07-31T16:12:50.130Z</time>
      </trkpt>
      <trkpt lat="42.98989833" lon="-1.15198167">
        <ele>853.0</ele>
        <time>2019-07-31T16:12:51.136Z</time>
      </trkpt>
      <trkpt lat="42.98987833" lon="-1.15199">
        <ele>853.0</ele>
        <time>2019-07-31T16:12:52.143Z</time>
      </trkpt>
      <trkpt lat="42.98986333" lon="-1.15200333">
        <ele>853.0</ele>
        <time>2019-07-31T16:12:53.150Z</time>
      </trkpt>
      <trkpt lat="42.98984833" lon="-1.15201167">
        <ele>853.0</ele>
        <time>2019-07-31T16:12:54.156Z</time>
      </trkpt>
      <trkpt lat="42.989835" lon="-1.15202333">
        <ele>853.0</ele>
        <time>2019-07-31T16:12:55.161Z</time>
      </trkpt>
      <trkpt lat="42.98982167" lon="-1.15203667">
        <ele>853.0</ele>
        <time>2019-07-31T16:12:56.167Z</time>
      </trkpt>
      <trkpt lat="42.989805" lon="-1.15205167">
        <ele>853.0</ele>
        <time>2019-07-31T16:12:57.173Z</time>
      </trkpt>
      <trkpt lat="42.989795" lon="-1.15206167">
        <ele>853.0</ele>
        <time>2019-07-31T16:12:58.178Z</time>
      </trkpt>
      <trkpt lat="42.98978" lon="-1.15207167">
        <ele>853.0</ele>
        <time>2019-07-31T16:12:59.183Z</time>
      </trkpt>
      <trkpt lat="42.989765" lon="-1.15208">
        <ele>853.0</ele>
        <time>2019-07-31T16:13:00.063Z</time>
      </trkpt>
      <trkpt lat="42.98974833" lon="-1.15208667">
        <ele>853.0</ele>
        <time>2019-07-31T16:13:01.069Z</time>
      </trkpt>
      <trkpt lat="42.98973333" lon="-1.15209667">
        <ele>853.0</ele>
        <time>2019-07-31T16:13:02.076Z</time>
      </trkpt>
      <trkpt lat="42.989715" lon="-1.15211">
        <ele>853.0</ele>
        <time>2019-07-31T16:13:03.081Z</time>
      </trkpt>
      <trkpt lat="42.9897" lon="-1.15211667">
        <ele>854.0</ele>
        <time>2019-07-31T16:13:04.085Z</time>
      </trkpt>
      <trkpt lat="42.98968667" lon="-1.15212833">
        <ele>853.0</ele>
        <time>2019-07-31T16:13:05.090Z</time>
      </trkpt>
      <trkpt lat="42.98967333" lon="-1.15213833">
        <ele>853.0</ele>
        <time>2019-07-31T16:13:06.096Z</time>
      </trkpt>
      <trkpt lat="42.98966" lon="-1.152145">
        <ele>853.0</ele>
        <time>2019-07-31T16:13:07.103Z</time>
      </trkpt>
      <trkpt lat="42.98964667" lon="-1.15215833">
        <ele>853.0</ele>
        <time>2019-07-31T16:13:08.108Z</time>
      </trkpt>
      <trkpt lat="42.98963333" lon="-1.15216667">
        <ele>853.0</ele>
        <time>2019-07-31T16:13:09.112Z</time>
      </trkpt>
      <trkpt lat="42.98962" lon="-1.15217333">
        <ele>854.0</ele>
        <time>2019-07-31T16:13:10.118Z</time>
      </trkpt>
      <trkpt lat="42.98960667" lon="-1.15217667">
        <ele>854.0</ele>
        <time>2019-07-31T16:13:11.124Z</time>
      </trkpt>
      <trkpt lat="42.98959333" lon="-1.152185">
        <ele>854.0</ele>
        <time>2019-07-31T16:13:12.127Z</time>
      </trkpt>
      <trkpt lat="42.98957833" lon="-1.15219333">
        <ele>855.0</ele>
        <time>2019-07-31T16:13:13.131Z</time>
      </trkpt>
      <trkpt lat="42.989565" lon="-1.1522">
        <ele>856.0</ele>
        <time>2019-07-31T16:13:14.137Z</time>
      </trkpt>
      <trkpt lat="42.98955167" lon="-1.15221333">
        <ele>856.0</ele>
        <time>2019-07-31T16:13:15.143Z</time>
      </trkpt>
      <trkpt lat="42.98953833" lon="-1.152225">
        <ele>855.0</ele>
        <time>2019-07-31T16:13:16.149Z</time>
      </trkpt>
      <trkpt lat="42.989525" lon="-1.152235">
        <ele>856.0</ele>
        <time>2019-07-31T16:13:17.155Z</time>
      </trkpt>
      <trkpt lat="42.98950833" lon="-1.15224667">
        <ele>856.0</ele>
        <time>2019-07-31T16:13:18.159Z</time>
      </trkpt>
      <trkpt lat="42.98949667" lon="-1.152255">
        <ele>856.0</ele>
        <time>2019-07-31T16:13:19.164Z</time>
      </trkpt>
      <trkpt lat="42.98948" lon="-1.15227">
        <ele>855.0</ele>
        <time>2019-07-31T16:13:20.169Z</time>
      </trkpt>
      <trkpt lat="42.98946333" lon="-1.15227833">
        <ele>855.0</ele>
        <time>2019-07-31T16:13:21.176Z</time>
      </trkpt>
      <trkpt lat="42.98945167" lon="-1.152285">
        <ele>856.0</ele>
        <time>2019-07-31T16:13:22.182Z</time>
      </trkpt>
      <trkpt lat="42.98943667" lon="-1.15229167">
        <ele>856.0</ele>
        <time>2019-07-31T16:13:23.062Z</time>
      </trkpt>
      <trkpt lat="42.98942167" lon="-1.15230167">
        <ele>857.0</ele>
        <time>2019-07-31T16:13:24.068Z</time>
      </trkpt>
      <trkpt lat="42.98941" lon="-1.15231">
        <ele>857.0</ele>
        <time>2019-07-31T16:13:25.074Z</time>
      </trkpt>
      <trkpt lat="42.989395" lon="-1.15232">
        <ele>857.0</ele>
        <time>2019-07-31T16:13:26.081Z</time>
      </trkpt>
      <trkpt lat="42.98938" lon="-1.15233167">
        <ele>856.0</ele>
        <time>2019-07-31T16:13:27.086Z</time>
      </trkpt>
      <trkpt lat="42.98937" lon="-1.15234167">
        <ele>856.0</ele>
        <time>2019-07-31T16:13:28.090Z</time>
      </trkpt>
      <trkpt lat="42.989355" lon="-1.15235667">
        <ele>856.0</ele>
        <time>2019-07-31T16:13:29.096Z</time>
      </trkpt>
      <trkpt lat="42.98934167" lon="-1.15236833">
        <ele>856.0</ele>
        <time>2019-07-31T16:13:30.101Z</time>
      </trkpt>
      <trkpt lat="42.98932667" lon="-1.15237833">
        <ele>856.0</ele>
        <time>2019-07-31T16:13:31.108Z</time>
      </trkpt>
      <trkpt lat="42.98931" lon="-1.15238833">
        <ele>856.0</ele>
        <time>2019-07-31T16:13:32.114Z</time>
      </trkpt>
      <trkpt lat="42.98929667" lon="-1.15240167">
        <ele>856.0</ele>
        <time>2019-07-31T16:13:33.120Z</time>
      </trkpt>
      <trkpt lat="42.98928667" lon="-1.15241833">
        <ele>855.0</ele>
        <time>2019-07-31T16:13:34.124Z</time>
      </trkpt>
      <trkpt lat="42.989275" lon="-1.15243333">
        <ele>854.0</ele>
        <time>2019-07-31T16:13:35.128Z</time>
      </trkpt>
      <trkpt lat="42.98926333" lon="-1.15244667">
        <ele>855.0</ele>
        <time>2019-07-31T16:13:36.134Z</time>
      </trkpt>
      <trkpt lat="42.98925667" lon="-1.15245833">
        <ele>854.0</ele>
        <time>2019-07-31T16:13:37.141Z</time>
      </trkpt>
      <trkpt lat="42.98924167" lon="-1.15247167">
        <ele>854.0</ele>
        <time>2019-07-31T16:13:38.147Z</time>
      </trkpt>
      <trkpt lat="42.989225" lon="-1.15248833">
        <ele>853.0</ele>
        <time>2019-07-31T16:13:39.153Z</time>
      </trkpt>
      <trkpt lat="42.989215" lon="-1.152505">
        <ele>853.0</ele>
        <time>2019-07-31T16:13:40.157Z</time>
      </trkpt>
      <trkpt lat="42.98920167" lon="-1.15251833">
        <ele>853.0</ele>
        <time>2019-07-31T16:13:41.163Z</time>
      </trkpt>
      <trkpt lat="42.98918667" lon="-1.15253333">
        <ele>853.0</ele>
        <time>2019-07-31T16:13:42.167Z</time>
      </trkpt>
      <trkpt lat="42.98917167" lon="-1.15254833">
        <ele>852.0</ele>
        <time>2019-07-31T16:13:43.173Z</time>
      </trkpt>
      <trkpt lat="42.98916333" lon="-1.15256167">
        <ele>852.0</ele>
        <time>2019-07-31T16:13:44.178Z</time>
      </trkpt>
      <trkpt lat="42.98915167" lon="-1.15258">
        <ele>851.0</ele>
        <time>2019-07-31T16:13:45.182Z</time>
      </trkpt>
      <trkpt lat="42.98914333" lon="-1.15258833">
        <ele>850.0</ele>
        <time>2019-07-31T16:13:46.064Z</time>
      </trkpt>
      <trkpt lat="42.98912833" lon="-1.1526">
        <ele>850.0</ele>
        <time>2019-07-31T16:13:47.069Z</time>
      </trkpt>
      <trkpt lat="42.98911667" lon="-1.15261667">
        <ele>849.0</ele>
        <time>2019-07-31T16:13:48.075Z</time>
      </trkpt>
      <trkpt lat="42.98910833" lon="-1.15262833">
        <ele>849.0</ele>
        <time>2019-07-31T16:13:49.080Z</time>
      </trkpt>
      <trkpt lat="42.98909667" lon="-1.152635">
        <ele>848.0</ele>
        <time>2019-07-31T16:13:50.086Z</time>
      </trkpt>
      <trkpt lat="42.989085" lon="-1.15264">
        <ele>848.0</ele>
        <time>2019-07-31T16:13:51.092Z</time>
      </trkpt>
      <trkpt lat="42.98906833" lon="-1.15264333">
        <ele>849.0</ele>
        <time>2019-07-31T16:13:52.099Z</time>
      </trkpt>
      <trkpt lat="42.98905167" lon="-1.15265167">
        <ele>850.0</ele>
        <time>2019-07-31T16:13:53.105Z</time>
      </trkpt>
      <trkpt lat="42.98903667" lon="-1.15265667">
        <ele>851.0</ele>
        <time>2019-07-31T16:13:54.111Z</time>
      </trkpt>
      <trkpt lat="42.98902" lon="-1.15266833">
        <ele>851.0</ele>
        <time>2019-07-31T16:13:55.117Z</time>
      </trkpt>
      <trkpt lat="42.98901" lon="-1.15267667">
        <ele>851.0</ele>
        <time>2019-07-31T16:13:56.121Z</time>
      </trkpt>
      <trkpt lat="42.98899667" lon="-1.15269">
        <ele>852.0</ele>
        <time>2019-07-31T16:13:57.124Z</time>
      </trkpt>
      <trkpt lat="42.98898167" lon="-1.1527">
        <ele>852.0</ele>
        <time>2019-07-31T16:13:58.128Z</time>
      </trkpt>
      <trkpt lat="42.988965" lon="-1.15270833">
        <ele>853.0</ele>
        <time>2019-07-31T16:13:59.134Z</time>
      </trkpt>
      <trkpt lat="42.98895333" lon="-1.152715">
        <ele>854.0</ele>
        <time>2019-07-31T16:14:00.138Z</time>
      </trkpt>
      <trkpt lat="42.98894167" lon="-1.15271833">
        <ele>854.0</ele>
        <time>2019-07-31T16:14:01.142Z</time>
      </trkpt>
      <trkpt lat="42.98892167" lon="-1.15272167">
        <ele>855.0</ele>
        <time>2019-07-31T16:14:02.148Z</time>
      </trkpt>
      <trkpt lat="42.98891" lon="-1.15272167">
        <ele>855.0</ele>
        <time>2019-07-31T16:14:03.153Z</time>
      </trkpt>
      <trkpt lat="42.988895" lon="-1.15272667">
        <ele>856.0</ele>
        <time>2019-07-31T16:14:04.160Z</time>
      </trkpt>
      <trkpt lat="42.98888167" lon="-1.15273167">
        <ele>856.0</ele>
        <time>2019-07-31T16:14:05.163Z</time>
      </trkpt>
      <trkpt lat="42.98887" lon="-1.152745">
        <ele>856.0</ele>
        <time>2019-07-31T16:14:06.167Z</time>
      </trkpt>
      <trkpt lat="42.98885833" lon="-1.15275833">
        <ele>856.0</ele>
        <time>2019-07-31T16:14:07.173Z</time>
      </trkpt>
      <trkpt lat="42.98884833" lon="-1.15277167">
        <ele>856.0</ele>
        <time>2019-07-31T16:14:08.178Z</time>
      </trkpt>
      <trkpt lat="42.988835" lon="-1.15278167">
        <ele>856.0</ele>
        <time>2019-07-31T16:14:09.184Z</time>
      </trkpt>
      <trkpt lat="42.988825" lon="-1.15279">
        <ele>856.0</ele>
        <time>2019-07-31T16:14:10.064Z</time>
      </trkpt>
      <trkpt lat="42.988815" lon="-1.152805">
        <ele>856.0</ele>
        <time>2019-07-31T16:14:11.069Z</time>
      </trkpt>
      <trkpt lat="42.98880333" lon="-1.152825">
        <ele>856.0</ele>
        <time>2019-07-31T16:14:12.076Z</time>
      </trkpt>
      <trkpt lat="42.98879667" lon="-1.152845">
        <ele>856.0</ele>
        <time>2019-07-31T16:14:13.084Z</time>
      </trkpt>
      <trkpt lat="42.98879" lon="-1.152865">
        <ele>856.0</ele>
        <time>2019-07-31T16:14:14.088Z</time>
      </trkpt>
      <trkpt lat="42.98878333" lon="-1.15289">
        <ele>855.0</ele>
        <time>2019-07-31T16:14:15.092Z</time>
      </trkpt>
      <trkpt lat="42.98878167" lon="-1.15290833">
        <ele>854.0</ele>
        <time>2019-07-31T16:14:16.098Z</time>
      </trkpt>
      <trkpt lat="42.98878333" lon="-1.15294">
        <ele>854.0</ele>
        <time>2019-07-31T16:14:17.106Z</time>
      </trkpt>
      <trkpt lat="42.98878333" lon="-1.15296833">
        <ele>853.0</ele>
        <time>2019-07-31T16:14:18.110Z</time>
      </trkpt>
      <trkpt lat="42.98878" lon="-1.15298833">
        <ele>852.0</ele>
        <time>2019-07-31T16:14:19.114Z</time>
      </trkpt>
      <trkpt lat="42.98877833" lon="-1.15301667">
        <ele>852.0</ele>
        <time>2019-07-31T16:14:20.121Z</time>
      </trkpt>
      <trkpt lat="42.98877833" lon="-1.15305">
        <ele>851.0</ele>
        <time>2019-07-31T16:14:21.125Z</time>
      </trkpt>
      <trkpt lat="42.98878" lon="-1.153075">
        <ele>851.0</ele>
        <time>2019-07-31T16:14:22.129Z</time>
      </trkpt>
      <trkpt lat="42.98878333" lon="-1.15310167">
        <ele>850.0</ele>
        <time>2019-07-31T16:14:23.134Z</time>
      </trkpt>
      <trkpt lat="42.98878833" lon="-1.15312333">
        <ele>849.0</ele>
        <time>2019-07-31T16:14:24.139Z</time>
      </trkpt>
      <trkpt lat="42.9888" lon="-1.15315667">
        <ele>849.0</ele>
        <time>2019-07-31T16:14:25.144Z</time>
      </trkpt>
      <trkpt lat="42.98880667" lon="-1.15318">
        <ele>847.0</ele>
        <time>2019-07-31T16:14:26.147Z</time>
      </trkpt>
      <trkpt lat="42.98881833" lon="-1.153205">
        <ele>847.0</ele>
        <time>2019-07-31T16:14:27.153Z</time>
      </trkpt>
      <trkpt lat="42.98882333" lon="-1.153225">
        <ele>847.0</ele>
        <time>2019-07-31T16:14:28.157Z</time>
      </trkpt>
      <trkpt lat="42.98882833" lon="-1.15324333">
        <ele>847.0</ele>
        <time>2019-07-31T16:14:29.162Z</time>
      </trkpt>
      <trkpt lat="42.988835" lon="-1.153265">
        <ele>846.0</ele>
        <time>2019-07-31T16:14:30.168Z</time>
      </trkpt>
      <trkpt lat="42.98884167" lon="-1.15328333">
        <ele>846.0</ele>
        <time>2019-07-31T16:14:31.171Z</time>
      </trkpt>
      <trkpt lat="42.98885167" lon="-1.15330167">
        <ele>846.0</ele>
        <time>2019-07-31T16:14:32.174Z</time>
      </trkpt>
      <trkpt lat="42.988865" lon="-1.15332167">
        <ele>846.0</ele>
        <time>2019-07-31T16:14:33.179Z</time>
      </trkpt>
      <trkpt lat="42.98887833" lon="-1.15334167">
        <ele>845.0</ele>
        <time>2019-07-31T16:14:34.186Z</time>
      </trkpt>
      <trkpt lat="42.98889667" lon="-1.153365">
        <ele>844.0</ele>
        <time>2019-07-31T16:14:35.066Z</time>
      </trkpt>
      <trkpt lat="42.98891" lon="-1.153385">
        <ele>844.0</ele>
        <time>2019-07-31T16:14:36.070Z</time>
      </trkpt>
      <trkpt lat="42.98892667" lon="-1.15340833">
        <ele>844.0</ele>
        <time>2019-07-31T16:14:37.076Z</time>
      </trkpt>
      <trkpt lat="42.98893667" lon="-1.15342833">
        <ele>845.0</ele>
        <time>2019-07-31T16:14:38.082Z</time>
      </trkpt>
      <trkpt lat="42.98894833" lon="-1.15345833">
        <ele>847.0</ele>
        <time>2019-07-31T16:14:39.085Z</time>
      </trkpt>
      <trkpt lat="42.98895667" lon="-1.15348833">
        <ele>848.0</ele>
        <time>2019-07-31T16:14:40.090Z</time>
      </trkpt>
      <trkpt lat="42.98896833" lon="-1.15351">
        <ele>848.0</ele>
        <time>2019-07-31T16:14:41.095Z</time>
      </trkpt>
      <trkpt lat="42.988975" lon="-1.15353">
        <ele>849.0</ele>
        <time>2019-07-31T16:14:42.098Z</time>
      </trkpt>
      <trkpt lat="42.98898" lon="-1.15354833">
        <ele>850.0</ele>
        <time>2019-07-31T16:14:43.104Z</time>
      </trkpt>
      <trkpt lat="42.98899833" lon="-1.15356333">
        <ele>849.0</ele>
        <time>2019-07-31T16:14:44.110Z</time>
      </trkpt>
      <trkpt lat="42.98901333" lon="-1.15357167">
        <ele>848.0</ele>
        <time>2019-07-31T16:14:45.115Z</time>
      </trkpt>
      <trkpt lat="42.98902667" lon="-1.15359167">
        <ele>848.0</ele>
        <time>2019-07-31T16:14:46.120Z</time>
      </trkpt>
      <trkpt lat="42.98903333" lon="-1.15360833">
        <ele>848.0</ele>
        <time>2019-07-31T16:14:47.125Z</time>
      </trkpt>
      <trkpt lat="42.98904333" lon="-1.15362333">
        <ele>848.0</ele>
        <time>2019-07-31T16:14:48.130Z</time>
      </trkpt>
      <trkpt lat="42.98905333" lon="-1.15363833">
        <ele>848.0</ele>
        <time>2019-07-31T16:14:49.135Z</time>
      </trkpt>
      <trkpt lat="42.98906667" lon="-1.153655">
        <ele>847.0</ele>
        <time>2019-07-31T16:14:50.140Z</time>
      </trkpt>
      <trkpt lat="42.989075" lon="-1.15367333">
        <ele>847.0</ele>
        <time>2019-07-31T16:14:51.147Z</time>
      </trkpt>
      <trkpt lat="42.989085" lon="-1.15368833">
        <ele>848.0</ele>
        <time>2019-07-31T16:14:52.153Z</time>
      </trkpt>
      <trkpt lat="42.98909167" lon="-1.15370333">
        <ele>849.0</ele>
        <time>2019-07-31T16:14:53.158Z</time>
      </trkpt>
      <trkpt lat="42.98910167" lon="-1.15372167">
        <ele>850.0</ele>
        <time>2019-07-31T16:14:54.163Z</time>
      </trkpt>
      <trkpt lat="42.98911167" lon="-1.15374167">
        <ele>850.0</ele>
        <time>2019-07-31T16:14:55.169Z</time>
      </trkpt>
      <trkpt lat="42.98911667" lon="-1.15375833">
        <ele>851.0</ele>
        <time>2019-07-31T16:14:56.175Z</time>
      </trkpt>
      <trkpt lat="42.989125" lon="-1.15377667">
        <ele>851.0</ele>
        <time>2019-07-31T16:14:57.182Z</time>
      </trkpt>
      <trkpt lat="42.98912833" lon="-1.15379">
        <ele>851.0</ele>
        <time>2019-07-31T16:14:58.062Z</time>
      </trkpt>
      <trkpt lat="42.98913333" lon="-1.153805">
        <ele>852.0</ele>
        <time>2019-07-31T16:14:59.067Z</time>
      </trkpt>
      <trkpt lat="42.98914167" lon="-1.15381667">
        <ele>851.0</ele>
        <time>2019-07-31T16:15:00.072Z</time>
      </trkpt>
      <trkpt lat="42.98915333" lon="-1.15382833">
        <ele>851.0</ele>
        <time>2019-07-31T16:15:01.079Z</time>
      </trkpt>
      <trkpt lat="42.98916333" lon="-1.15383">
        <ele>851.0</ele>
        <time>2019-07-31T16:15:02.085Z</time>
      </trkpt>
      <trkpt lat="42.98917833" lon="-1.15384">
        <ele>851.0</ele>
        <time>2019-07-31T16:15:03.091Z</time>
      </trkpt>
      <trkpt lat="42.98919" lon="-1.15385667">
        <ele>851.0</ele>
        <time>2019-07-31T16:15:04.097Z</time>
      </trkpt>
      <trkpt lat="42.98920167" lon="-1.15386833">
        <ele>851.0</ele>
        <time>2019-07-31T16:15:05.103Z</time>
      </trkpt>
      <trkpt lat="42.98921" lon="-1.15388167">
        <ele>851.0</ele>
        <time>2019-07-31T16:15:06.108Z</time>
      </trkpt>
      <trkpt lat="42.98921833" lon="-1.15389667">
        <ele>851.0</ele>
        <time>2019-07-31T16:15:07.114Z</time>
      </trkpt>
      <trkpt lat="42.98923" lon="-1.15391">
        <ele>851.0</ele>
        <time>2019-07-31T16:15:08.121Z</time>
      </trkpt>
      <trkpt lat="42.98924167" lon="-1.15392167">
        <ele>850.0</ele>
        <time>2019-07-31T16:15:09.126Z</time>
      </trkpt>
      <trkpt lat="42.98925167" lon="-1.15393333">
        <ele>850.0</ele>
        <time>2019-07-31T16:15:10.131Z</time>
      </trkpt>
      <trkpt lat="42.98926167" lon="-1.15394333">
        <ele>850.0</ele>
        <time>2019-07-31T16:15:11.137Z</time>
      </trkpt>
      <trkpt lat="42.98927167" lon="-1.15395667">
        <ele>849.0</ele>
        <time>2019-07-31T16:15:12.143Z</time>
      </trkpt>
      <trkpt lat="42.989285" lon="-1.15397167">
        <ele>849.0</ele>
        <time>2019-07-31T16:15:13.149Z</time>
      </trkpt>
      <trkpt lat="42.98929667" lon="-1.15398333">
        <ele>849.0</ele>
        <time>2019-07-31T16:15:14.155Z</time>
      </trkpt>
      <trkpt lat="42.989305" lon="-1.15399333">
        <ele>848.0</ele>
        <time>2019-07-31T16:15:15.161Z</time>
      </trkpt>
      <trkpt lat="42.98931833" lon="-1.15400333">
        <ele>847.0</ele>
        <time>2019-07-31T16:15:16.167Z</time>
      </trkpt>
      <trkpt lat="42.98933167" lon="-1.15401667">
        <ele>847.0</ele>
        <time>2019-07-31T16:15:17.169Z</time>
      </trkpt>
      <trkpt lat="42.98934333" lon="-1.15403">
        <ele>847.0</ele>
        <time>2019-07-31T16:15:18.174Z</time>
      </trkpt>
      <trkpt lat="42.98935833" lon="-1.15404333">
        <ele>846.0</ele>
        <time>2019-07-31T16:15:19.180Z</time>
      </trkpt>
      <trkpt lat="42.98936667" lon="-1.15406">
        <ele>847.0</ele>
        <time>2019-07-31T16:15:20.185Z</time>
      </trkpt>
      <trkpt lat="42.98937667" lon="-1.154075">
        <ele>847.0</ele>
        <time>2019-07-31T16:15:21.065Z</time>
      </trkpt>
      <trkpt lat="42.98938833" lon="-1.15409167">
        <ele>848.0</ele>
        <time>2019-07-31T16:15:22.071Z</time>
      </trkpt>
      <trkpt lat="42.98940167" lon="-1.154105">
        <ele>848.0</ele>
        <time>2019-07-31T16:15:23.077Z</time>
      </trkpt>
      <trkpt lat="42.989415" lon="-1.15412">
        <ele>848.0</ele>
        <time>2019-07-31T16:15:24.084Z</time>
      </trkpt>
      <trkpt lat="42.98942833" lon="-1.154135">
        <ele>848.0</ele>
        <time>2019-07-31T16:15:25.090Z</time>
      </trkpt>
      <trkpt lat="42.98944167" lon="-1.15415167">
        <ele>848.0</ele>
        <time>2019-07-31T16:15:26.096Z</time>
      </trkpt>
      <trkpt lat="42.98945833" lon="-1.15417">
        <ele>848.0</ele>
        <time>2019-07-31T16:15:27.102Z</time>
      </trkpt>
      <trkpt lat="42.98947333" lon="-1.15418333">
        <ele>848.0</ele>
        <time>2019-07-31T16:15:28.108Z</time>
      </trkpt>
      <trkpt lat="42.98948833" lon="-1.15419667">
        <ele>848.0</ele>
        <time>2019-07-31T16:15:29.115Z</time>
      </trkpt>
      <trkpt lat="42.98950167" lon="-1.154215">
        <ele>849.0</ele>
        <time>2019-07-31T16:15:30.119Z</time>
      </trkpt>
      <trkpt lat="42.989515" lon="-1.15423333">
        <ele>850.0</ele>
        <time>2019-07-31T16:15:31.123Z</time>
      </trkpt>
      <trkpt lat="42.98952667" lon="-1.15425167">
        <ele>851.0</ele>
        <time>2019-07-31T16:15:32.126Z</time>
      </trkpt>
      <trkpt lat="42.98953333" lon="-1.15426667">
        <ele>851.0</ele>
        <time>2019-07-31T16:15:33.133Z</time>
      </trkpt>
      <trkpt lat="42.98954333" lon="-1.15428667">
        <ele>852.0</ele>
        <time>2019-07-31T16:15:34.138Z</time>
      </trkpt>
      <trkpt lat="42.98955333" lon="-1.154305">
        <ele>852.0</ele>
        <time>2019-07-31T16:15:35.144Z</time>
      </trkpt>
      <trkpt lat="42.98956167" lon="-1.15432167">
        <ele>853.0</ele>
        <time>2019-07-31T16:15:36.148Z</time>
      </trkpt>
      <trkpt lat="42.98957167" lon="-1.154335">
        <ele>853.0</ele>
        <time>2019-07-31T16:15:37.151Z</time>
      </trkpt>
      <trkpt lat="42.98958167" lon="-1.15435167">
        <ele>852.0</ele>
        <time>2019-07-31T16:15:38.158Z</time>
      </trkpt>
      <trkpt lat="42.98959167" lon="-1.15436667">
        <ele>852.0</ele>
        <time>2019-07-31T16:15:39.165Z</time>
      </trkpt>
      <trkpt lat="42.989605" lon="-1.15438333">
        <ele>851.0</ele>
        <time>2019-07-31T16:15:40.169Z</time>
      </trkpt>
      <trkpt lat="42.98961667" lon="-1.15440167">
        <ele>852.0</ele>
        <time>2019-07-31T16:15:41.171Z</time>
      </trkpt>
      <trkpt lat="42.98962667" lon="-1.15441167">
        <ele>852.0</ele>
        <time>2019-07-31T16:15:42.171Z</time>
      </trkpt>
      <trkpt lat="42.98963833" lon="-1.15442333">
        <ele>851.0</ele>
        <time>2019-07-31T16:15:43.178Z</time>
      </trkpt>
      <trkpt lat="42.98964667" lon="-1.15443667">
        <ele>851.0</ele>
        <time>2019-07-31T16:15:44.183Z</time>
      </trkpt>
      <trkpt lat="42.98965667" lon="-1.15445167">
        <ele>851.0</ele>
        <time>2019-07-31T16:15:45.062Z</time>
      </trkpt>
      <trkpt lat="42.98966333" lon="-1.15446667">
        <ele>852.0</ele>
        <time>2019-07-31T16:15:46.069Z</time>
      </trkpt>
      <trkpt lat="42.98967" lon="-1.15448">
        <ele>852.0</ele>
        <time>2019-07-31T16:15:47.075Z</time>
      </trkpt>
      <trkpt lat="42.98967833" lon="-1.154495">
        <ele>852.0</ele>
        <time>2019-07-31T16:15:48.082Z</time>
      </trkpt>
      <trkpt lat="42.989685" lon="-1.15450667">
        <ele>852.0</ele>
        <time>2019-07-31T16:15:49.087Z</time>
      </trkpt>
      <trkpt lat="42.98969333" lon="-1.15452">
        <ele>851.0</ele>
        <time>2019-07-31T16:15:50.092Z</time>
      </trkpt>
      <trkpt lat="42.98970167" lon="-1.154535">
        <ele>851.0</ele>
        <time>2019-07-31T16:15:51.097Z</time>
      </trkpt>
      <trkpt lat="42.98971" lon="-1.15454833">
        <ele>851.0</ele>
        <time>2019-07-31T16:15:52.101Z</time>
      </trkpt>
      <trkpt lat="42.98971667" lon="-1.15456167">
        <ele>851.0</ele>
        <time>2019-07-31T16:15:53.108Z</time>
      </trkpt>
      <trkpt lat="42.98972833" lon="-1.15457">
        <ele>850.0</ele>
        <time>2019-07-31T16:15:54.112Z</time>
      </trkpt>
      <trkpt lat="42.98974" lon="-1.15458167">
        <ele>849.0</ele>
        <time>2019-07-31T16:15:55.117Z</time>
      </trkpt>
      <trkpt lat="42.98974833" lon="-1.154595">
        <ele>848.0</ele>
        <time>2019-07-31T16:15:56.120Z</time>
      </trkpt>
      <trkpt lat="42.98975667" lon="-1.15460667">
        <ele>848.0</ele>
        <time>2019-07-31T16:15:57.123Z</time>
      </trkpt>
      <trkpt lat="42.989765" lon="-1.15461833">
        <ele>848.0</ele>
        <time>2019-07-31T16:15:58.126Z</time>
      </trkpt>
      <trkpt lat="42.98977333" lon="-1.15463167">
        <ele>848.0</ele>
        <time>2019-07-31T16:15:59.133Z</time>
      </trkpt>
      <trkpt lat="42.98978167" lon="-1.15464333">
        <ele>847.0</ele>
        <time>2019-07-31T16:16:00.139Z</time>
      </trkpt>
      <trkpt lat="42.98978667" lon="-1.15465">
        <ele>847.0</ele>
        <time>2019-07-31T16:16:01.147Z</time>
      </trkpt>
      <trkpt lat="42.989795" lon="-1.15466667">
        <ele>846.0</ele>
        <time>2019-07-31T16:16:02.154Z</time>
      </trkpt>
      <trkpt lat="42.98980167" lon="-1.15468">
        <ele>846.0</ele>
        <time>2019-07-31T16:16:03.160Z</time>
      </trkpt>
      <trkpt lat="42.98980833" lon="-1.15469333">
        <ele>845.0</ele>
        <time>2019-07-31T16:16:04.165Z</time>
      </trkpt>
      <trkpt lat="42.989815" lon="-1.15470667">
        <ele>845.0</ele>
        <time>2019-07-31T16:16:05.168Z</time>
      </trkpt>
      <trkpt lat="42.98982167" lon="-1.15471833">
        <ele>845.0</ele>
        <time>2019-07-31T16:16:06.172Z</time>
      </trkpt>
      <trkpt lat="42.98982833" lon="-1.154725">
        <ele>844.0</ele>
        <time>2019-07-31T16:16:07.178Z</time>
      </trkpt>
      <trkpt lat="42.98983833" lon="-1.15474">
        <ele>843.0</ele>
        <time>2019-07-31T16:16:08.183Z</time>
      </trkpt>
      <trkpt lat="42.98984833" lon="-1.15475333">
        <ele>843.0</ele>
        <time>2019-07-31T16:16:09.063Z</time>
      </trkpt>
      <trkpt lat="42.989855" lon="-1.15476667">
        <ele>843.0</ele>
        <time>2019-07-31T16:16:10.069Z</time>
      </trkpt>
      <trkpt lat="42.98986333" lon="-1.15478">
        <ele>843.0</ele>
        <time>2019-07-31T16:16:11.074Z</time>
      </trkpt>
      <trkpt lat="42.98987" lon="-1.15479333">
        <ele>842.0</ele>
        <time>2019-07-31T16:16:12.080Z</time>
      </trkpt>
      <trkpt lat="42.98987667" lon="-1.15480667">
        <ele>841.0</ele>
        <time>2019-07-31T16:16:13.084Z</time>
      </trkpt>
      <trkpt lat="42.98988333" lon="-1.15482">
        <ele>841.0</ele>
        <time>2019-07-31T16:16:14.088Z</time>
      </trkpt>
      <trkpt lat="42.98989333" lon="-1.15483167">
        <ele>840.0</ele>
        <time>2019-07-31T16:16:15.093Z</time>
      </trkpt>
      <trkpt lat="42.9899" lon="-1.15484333">
        <ele>839.0</ele>
        <time>2019-07-31T16:16:16.096Z</time>
      </trkpt>
      <trkpt lat="42.98990667" lon="-1.15485667">
        <ele>839.0</ele>
        <time>2019-07-31T16:16:17.100Z</time>
      </trkpt>
      <trkpt lat="42.989915" lon="-1.15486833">
        <ele>838.0</ele>
        <time>2019-07-31T16:16:18.103Z</time>
      </trkpt>
      <trkpt lat="42.98992333" lon="-1.15488333">
        <ele>837.0</ele>
        <time>2019-07-31T16:16:19.105Z</time>
      </trkpt>
      <trkpt lat="42.98993167" lon="-1.15489667">
        <ele>837.0</ele>
        <time>2019-07-31T16:16:20.111Z</time>
      </trkpt>
      <trkpt lat="42.98994" lon="-1.15490833">
        <ele>837.0</ele>
        <time>2019-07-31T16:16:21.114Z</time>
      </trkpt>
      <trkpt lat="42.98995" lon="-1.15491667">
        <ele>836.0</ele>
        <time>2019-07-31T16:16:22.121Z</time>
      </trkpt>
      <trkpt lat="42.98995667" lon="-1.15493167">
        <ele>835.0</ele>
        <time>2019-07-31T16:16:23.125Z</time>
      </trkpt>
      <trkpt lat="42.98996167" lon="-1.15494333">
        <ele>835.0</ele>
        <time>2019-07-31T16:16:24.130Z</time>
      </trkpt>
      <trkpt lat="42.98997" lon="-1.15496">
        <ele>835.0</ele>
        <time>2019-07-31T16:16:25.136Z</time>
      </trkpt>
      <trkpt lat="42.98998" lon="-1.15497167">
        <ele>835.0</ele>
        <time>2019-07-31T16:16:26.143Z</time>
      </trkpt>
      <trkpt lat="42.98999167" lon="-1.15498167">
        <ele>834.0</ele>
        <time>2019-07-31T16:16:27.150Z</time>
      </trkpt>
      <trkpt lat="42.99000167" lon="-1.154995">
        <ele>834.0</ele>
        <time>2019-07-31T16:16:28.153Z</time>
      </trkpt>
      <trkpt lat="42.99001833" lon="-1.155005">
        <ele>833.0</ele>
        <time>2019-07-31T16:16:29.158Z</time>
      </trkpt>
      <trkpt lat="42.99003167" lon="-1.15501667">
        <ele>833.0</ele>
        <time>2019-07-31T16:16:30.163Z</time>
      </trkpt>
      <trkpt lat="42.99004333" lon="-1.15503">
        <ele>833.0</ele>
        <time>2019-07-31T16:16:31.167Z</time>
      </trkpt>
      <trkpt lat="42.99005667" lon="-1.15504167">
        <ele>833.0</ele>
        <time>2019-07-31T16:16:32.174Z</time>
      </trkpt>
      <trkpt lat="42.99006833" lon="-1.15505333">
        <ele>832.0</ele>
        <time>2019-07-31T16:16:33.180Z</time>
      </trkpt>
      <trkpt lat="42.99008" lon="-1.15507167">
        <ele>832.0</ele>
        <time>2019-07-31T16:16:34.184Z</time>
      </trkpt>
      <trkpt lat="42.99009" lon="-1.155085">
        <ele>832.0</ele>
        <time>2019-07-31T16:16:35.063Z</time>
      </trkpt>
      <trkpt lat="42.9901" lon="-1.1551">
        <ele>832.0</ele>
        <time>2019-07-31T16:16:36.068Z</time>
      </trkpt>
      <trkpt lat="42.99011167" lon="-1.15511167">
        <ele>831.0</ele>
        <time>2019-07-31T16:16:37.075Z</time>
      </trkpt>
      <trkpt lat="42.99012333" lon="-1.15512333">
        <ele>831.0</ele>
        <time>2019-07-31T16:16:38.081Z</time>
      </trkpt>
      <trkpt lat="42.99013833" lon="-1.15514">
        <ele>830.0</ele>
        <time>2019-07-31T16:16:39.086Z</time>
      </trkpt>
      <trkpt lat="42.99015167" lon="-1.15515667">
        <ele>830.0</ele>
        <time>2019-07-31T16:16:40.093Z</time>
      </trkpt>
      <trkpt lat="42.99016333" lon="-1.15517333">
        <ele>830.0</ele>
        <time>2019-07-31T16:16:41.097Z</time>
      </trkpt>
      <trkpt lat="42.99017333" lon="-1.15518667">
        <ele>830.0</ele>
        <time>2019-07-31T16:16:42.101Z</time>
      </trkpt>
      <trkpt lat="42.990185" lon="-1.15521167">
        <ele>830.0</ele>
        <time>2019-07-31T16:16:43.107Z</time>
      </trkpt>
      <trkpt lat="42.99019833" lon="-1.15522833">
        <ele>830.0</ele>
        <time>2019-07-31T16:16:44.111Z</time>
      </trkpt>
      <trkpt lat="42.99021" lon="-1.15524667">
        <ele>830.0</ele>
        <time>2019-07-31T16:16:45.116Z</time>
      </trkpt>
      <trkpt lat="42.99022167" lon="-1.15526333">
        <ele>830.0</ele>
        <time>2019-07-31T16:16:46.120Z</time>
      </trkpt>
      <trkpt lat="42.99023333" lon="-1.15527667">
        <ele>830.0</ele>
        <time>2019-07-31T16:16:47.125Z</time>
      </trkpt>
      <trkpt lat="42.990245" lon="-1.155295">
        <ele>830.0</ele>
        <time>2019-07-31T16:16:48.132Z</time>
      </trkpt>
      <trkpt lat="42.99025333" lon="-1.15531167">
        <ele>830.0</ele>
        <time>2019-07-31T16:16:49.137Z</time>
      </trkpt>
      <trkpt lat="42.99026333" lon="-1.15533">
        <ele>829.0</ele>
        <time>2019-07-31T16:16:50.142Z</time>
      </trkpt>
      <trkpt lat="42.99027333" lon="-1.155345">
        <ele>828.0</ele>
        <time>2019-07-31T16:16:51.148Z</time>
      </trkpt>
      <trkpt lat="42.99027833" lon="-1.15535833">
        <ele>827.0</ele>
        <time>2019-07-31T16:16:52.153Z</time>
      </trkpt>
      <trkpt lat="42.99028833" lon="-1.15537667">
        <ele>827.0</ele>
        <time>2019-07-31T16:16:53.159Z</time>
      </trkpt>
      <trkpt lat="42.99029667" lon="-1.155395">
        <ele>827.0</ele>
        <time>2019-07-31T16:16:54.163Z</time>
      </trkpt>
      <trkpt lat="42.990305" lon="-1.15541333">
        <ele>827.0</ele>
        <time>2019-07-31T16:16:55.167Z</time>
      </trkpt>
      <trkpt lat="42.99031333" lon="-1.15543333">
        <ele>826.0</ele>
        <time>2019-07-31T16:16:56.173Z</time>
      </trkpt>
      <trkpt lat="42.99032" lon="-1.15545167">
        <ele>826.0</ele>
        <time>2019-07-31T16:16:57.178Z</time>
      </trkpt>
      <trkpt lat="42.99032667" lon="-1.15547">
        <ele>826.0</ele>
        <time>2019-07-31T16:16:58.183Z</time>
      </trkpt>
      <trkpt lat="42.99033333" lon="-1.15548833">
        <ele>826.0</ele>
        <time>2019-07-31T16:16:59.063Z</time>
      </trkpt>
      <trkpt lat="42.99034" lon="-1.15550667">
        <ele>826.0</ele>
        <time>2019-07-31T16:17:00.068Z</time>
      </trkpt>
      <trkpt lat="42.99034667" lon="-1.15552333">
        <ele>826.0</ele>
        <time>2019-07-31T16:17:01.074Z</time>
      </trkpt>
      <trkpt lat="42.99035167" lon="-1.15554167">
        <ele>826.0</ele>
        <time>2019-07-31T16:17:02.080Z</time>
      </trkpt>
      <trkpt lat="42.99035833" lon="-1.15556167">
        <ele>826.0</ele>
        <time>2019-07-31T16:17:03.084Z</time>
      </trkpt>
      <trkpt lat="42.99036667" lon="-1.15558">
        <ele>826.0</ele>
        <time>2019-07-31T16:17:04.091Z</time>
      </trkpt>
      <trkpt lat="42.99037333" lon="-1.1556">
        <ele>825.0</ele>
        <time>2019-07-31T16:17:05.097Z</time>
      </trkpt>
      <trkpt lat="42.99037833" lon="-1.15561833">
        <ele>825.0</ele>
        <time>2019-07-31T16:17:06.101Z</time>
      </trkpt>
      <trkpt lat="42.99038333" lon="-1.15563667">
        <ele>825.0</ele>
        <time>2019-07-31T16:17:07.105Z</time>
      </trkpt>
      <trkpt lat="42.99039" lon="-1.15565667">
        <ele>825.0</ele>
        <time>2019-07-31T16:17:08.111Z</time>
      </trkpt>
      <trkpt lat="42.99039333" lon="-1.15567667">
        <ele>825.0</ele>
        <time>2019-07-31T16:17:09.117Z</time>
      </trkpt>
      <trkpt lat="42.9904" lon="-1.155695">
        <ele>824.0</ele>
        <time>2019-07-31T16:17:10.121Z</time>
      </trkpt>
      <trkpt lat="42.990405" lon="-1.155715">
        <ele>824.0</ele>
        <time>2019-07-31T16:17:11.125Z</time>
      </trkpt>
      <trkpt lat="42.99041" lon="-1.155735">
        <ele>823.0</ele>
        <time>2019-07-31T16:17:12.127Z</time>
      </trkpt>
      <trkpt lat="42.99041167" lon="-1.15575333">
        <ele>824.0</ele>
        <time>2019-07-31T16:17:13.133Z</time>
      </trkpt>
      <trkpt lat="42.990415" lon="-1.15577333">
        <ele>824.0</ele>
        <time>2019-07-31T16:17:14.139Z</time>
      </trkpt>
      <trkpt lat="42.99042" lon="-1.15579167">
        <ele>824.0</ele>
        <time>2019-07-31T16:17:15.143Z</time>
      </trkpt>
      <trkpt lat="42.99042167" lon="-1.15581333">
        <ele>825.0</ele>
        <time>2019-07-31T16:17:16.149Z</time>
      </trkpt>
      <trkpt lat="42.990425" lon="-1.15583167">
        <ele>825.0</ele>
        <time>2019-07-31T16:17:17.151Z</time>
      </trkpt>
      <trkpt lat="42.99043" lon="-1.15585">
        <ele>825.0</ele>
        <time>2019-07-31T16:17:18.158Z</time>
      </trkpt>
      <trkpt lat="42.99043167" lon="-1.15587167">
        <ele>825.0</ele>
        <time>2019-07-31T16:17:19.163Z</time>
      </trkpt>
      <trkpt lat="42.990435" lon="-1.15589">
        <ele>824.0</ele>
        <time>2019-07-31T16:17:20.168Z</time>
      </trkpt>
      <trkpt lat="42.99044" lon="-1.15591">
        <ele>824.0</ele>
        <time>2019-07-31T16:17:21.172Z</time>
      </trkpt>
      <trkpt lat="42.990445" lon="-1.15593167">
        <ele>824.0</ele>
        <time>2019-07-31T16:17:22.178Z</time>
      </trkpt>
      <trkpt lat="42.99044833" lon="-1.15595">
        <ele>824.0</ele>
        <time>2019-07-31T16:17:23.184Z</time>
      </trkpt>
      <trkpt lat="42.99044833" lon="-1.15596833">
        <ele>824.0</ele>
        <time>2019-07-31T16:17:24.066Z</time>
      </trkpt>
      <trkpt lat="42.99044833" lon="-1.15599">
        <ele>824.0</ele>
        <time>2019-07-31T16:17:25.072Z</time>
      </trkpt>
      <trkpt lat="42.99045167" lon="-1.156005">
        <ele>824.0</ele>
        <time>2019-07-31T16:17:26.077Z</time>
      </trkpt>
      <trkpt lat="42.99045333" lon="-1.15602167">
        <ele>824.0</ele>
        <time>2019-07-31T16:17:27.084Z</time>
      </trkpt>
      <trkpt lat="42.99045667" lon="-1.15604167">
        <ele>824.0</ele>
        <time>2019-07-31T16:17:28.086Z</time>
      </trkpt>
      <trkpt lat="42.99046" lon="-1.15606167">
        <ele>824.0</ele>
        <time>2019-07-31T16:17:29.092Z</time>
      </trkpt>
      <trkpt lat="42.99046333" lon="-1.15608167">
        <ele>824.0</ele>
        <time>2019-07-31T16:17:30.097Z</time>
      </trkpt>
      <trkpt lat="42.99046833" lon="-1.1561">
        <ele>824.0</ele>
        <time>2019-07-31T16:17:31.104Z</time>
      </trkpt>
      <trkpt lat="42.99047333" lon="-1.15611833">
        <ele>825.0</ele>
        <time>2019-07-31T16:17:32.111Z</time>
      </trkpt>
      <trkpt lat="42.990475" lon="-1.15614">
        <ele>825.0</ele>
        <time>2019-07-31T16:17:33.116Z</time>
      </trkpt>
      <trkpt lat="42.99047833" lon="-1.15616167">
        <ele>824.0</ele>
        <time>2019-07-31T16:17:34.123Z</time>
      </trkpt>
      <trkpt lat="42.99048167" lon="-1.15618333">
        <ele>824.0</ele>
        <time>2019-07-31T16:17:35.126Z</time>
      </trkpt>
      <trkpt lat="42.99048167" lon="-1.15620333">
        <ele>825.0</ele>
        <time>2019-07-31T16:17:36.132Z</time>
      </trkpt>
      <trkpt lat="42.99048333" lon="-1.15622167">
        <ele>825.0</ele>
        <time>2019-07-31T16:17:37.137Z</time>
      </trkpt>
      <trkpt lat="42.99048167" lon="-1.15624">
        <ele>825.0</ele>
        <time>2019-07-31T16:17:38.143Z</time>
      </trkpt>
      <trkpt lat="42.990485" lon="-1.15625833">
        <ele>825.0</ele>
        <time>2019-07-31T16:17:39.148Z</time>
      </trkpt>
      <trkpt lat="42.99049" lon="-1.156275">
        <ele>825.0</ele>
        <time>2019-07-31T16:17:40.151Z</time>
      </trkpt>
      <trkpt lat="42.99049333" lon="-1.15629">
        <ele>824.0</ele>
        <time>2019-07-31T16:17:41.157Z</time>
      </trkpt>
      <trkpt lat="42.99049667" lon="-1.15630667">
        <ele>824.0</ele>
        <time>2019-07-31T16:17:42.162Z</time>
      </trkpt>
      <trkpt lat="42.99049167" lon="-1.15632167">
        <ele>824.0</ele>
        <time>2019-07-31T16:17:43.166Z</time>
      </trkpt>
      <trkpt lat="42.99048833" lon="-1.15634167">
        <ele>824.0</ele>
        <time>2019-07-31T16:17:44.170Z</time>
      </trkpt>
      <trkpt lat="42.990485" lon="-1.15636">
        <ele>825.0</ele>
        <time>2019-07-31T16:17:45.175Z</time>
      </trkpt>
      <trkpt lat="42.99048833" lon="-1.15637667">
        <ele>825.0</ele>
        <time>2019-07-31T16:17:46.182Z</time>
      </trkpt>
      <trkpt lat="42.99048667" lon="-1.15639667">
        <ele>825.0</ele>
        <time>2019-07-31T16:17:47.061Z</time>
      </trkpt>
      <trkpt lat="42.99048167" lon="-1.15641833">
        <ele>826.0</ele>
        <time>2019-07-31T16:17:48.066Z</time>
      </trkpt>
      <trkpt lat="42.99048" lon="-1.15643833">
        <ele>826.0</ele>
        <time>2019-07-31T16:17:49.071Z</time>
      </trkpt>
      <trkpt lat="42.99047833" lon="-1.156455">
        <ele>826.0</ele>
        <time>2019-07-31T16:17:50.078Z</time>
      </trkpt>
      <trkpt lat="42.99048333" lon="-1.15647333">
        <ele>826.0</ele>
        <time>2019-07-31T16:17:51.080Z</time>
      </trkpt>
      <trkpt lat="42.990485" lon="-1.15649167">
        <ele>826.0</ele>
        <time>2019-07-31T16:17:52.084Z</time>
      </trkpt>
      <trkpt lat="42.990485" lon="-1.15650833">
        <ele>826.0</ele>
        <time>2019-07-31T16:17:53.089Z</time>
      </trkpt>
      <trkpt lat="42.99048167" lon="-1.156525">
        <ele>825.0</ele>
        <time>2019-07-31T16:17:54.095Z</time>
      </trkpt>
      <trkpt lat="42.99047833" lon="-1.15654333">
        <ele>825.0</ele>
        <time>2019-07-31T16:17:55.101Z</time>
      </trkpt>
      <trkpt lat="42.990475" lon="-1.15657">
        <ele>824.0</ele>
        <time>2019-07-31T16:17:56.107Z</time>
      </trkpt>
      <trkpt lat="42.99047333" lon="-1.15659">
        <ele>824.0</ele>
        <time>2019-07-31T16:17:57.112Z</time>
      </trkpt>
      <trkpt lat="42.99047" lon="-1.15661">
        <ele>824.0</ele>
        <time>2019-07-31T16:17:58.119Z</time>
      </trkpt>
      <trkpt lat="42.99046333" lon="-1.15662667">
        <ele>824.0</ele>
        <time>2019-07-31T16:17:59.123Z</time>
      </trkpt>
      <trkpt lat="42.99045833" lon="-1.15664333">
        <ele>824.0</ele>
        <time>2019-07-31T16:18:00.128Z</time>
      </trkpt>
      <trkpt lat="42.99045167" lon="-1.15666167">
        <ele>823.0</ele>
        <time>2019-07-31T16:18:01.134Z</time>
      </trkpt>
      <trkpt lat="42.99044833" lon="-1.15668">
        <ele>823.0</ele>
        <time>2019-07-31T16:18:02.141Z</time>
      </trkpt>
      <trkpt lat="42.99044167" lon="-1.15669833">
        <ele>823.0</ele>
        <time>2019-07-31T16:18:03.145Z</time>
      </trkpt>
      <trkpt lat="42.990435" lon="-1.15671667">
        <ele>823.0</ele>
        <time>2019-07-31T16:18:04.152Z</time>
      </trkpt>
      <trkpt lat="42.99042833" lon="-1.15673833">
        <ele>822.0</ele>
        <time>2019-07-31T16:18:05.156Z</time>
      </trkpt>
      <trkpt lat="42.99042" lon="-1.15676">
        <ele>821.0</ele>
        <time>2019-07-31T16:18:06.163Z</time>
      </trkpt>
      <trkpt lat="42.99041333" lon="-1.15678167">
        <ele>821.0</ele>
        <time>2019-07-31T16:18:07.169Z</time>
      </trkpt>
      <trkpt lat="42.99040833" lon="-1.1568">
        <ele>822.0</ele>
        <time>2019-07-31T16:18:08.174Z</time>
      </trkpt>
      <trkpt lat="42.99040667" lon="-1.15681833">
        <ele>821.0</ele>
        <time>2019-07-31T16:18:09.177Z</time>
      </trkpt>
      <trkpt lat="42.99040167" lon="-1.15684167">
        <ele>821.0</ele>
        <time>2019-07-31T16:18:10.182Z</time>
      </trkpt>
      <trkpt lat="42.99039833" lon="-1.15686">
        <ele>821.0</ele>
        <time>2019-07-31T16:18:11.062Z</time>
      </trkpt>
      <trkpt lat="42.99039333" lon="-1.15687833">
        <ele>822.0</ele>
        <time>2019-07-31T16:18:12.068Z</time>
      </trkpt>
      <trkpt lat="42.99038667" lon="-1.156895">
        <ele>823.0</ele>
        <time>2019-07-31T16:18:13.073Z</time>
      </trkpt>
      <trkpt lat="42.99038167" lon="-1.156915">
        <ele>823.0</ele>
        <time>2019-07-31T16:18:14.077Z</time>
      </trkpt>
      <trkpt lat="42.99038" lon="-1.156935">
        <ele>823.0</ele>
        <time>2019-07-31T16:18:15.083Z</time>
      </trkpt>
      <trkpt lat="42.99037333" lon="-1.15695667">
        <ele>823.0</ele>
        <time>2019-07-31T16:18:16.084Z</time>
      </trkpt>
      <trkpt lat="42.99037" lon="-1.15698">
        <ele>823.0</ele>
        <time>2019-07-31T16:18:17.092Z</time>
      </trkpt>
      <trkpt lat="42.990375" lon="-1.15699833">
        <ele>822.0</ele>
        <time>2019-07-31T16:18:18.098Z</time>
      </trkpt>
      <trkpt lat="42.99038" lon="-1.15702333">
        <ele>822.0</ele>
        <time>2019-07-31T16:18:19.103Z</time>
      </trkpt>
      <trkpt lat="42.99038333" lon="-1.15704333">
        <ele>822.0</ele>
        <time>2019-07-31T16:18:20.108Z</time>
      </trkpt>
      <trkpt lat="42.99038833" lon="-1.15706333">
        <ele>821.0</ele>
        <time>2019-07-31T16:18:21.114Z</time>
      </trkpt>
      <trkpt lat="42.99039333" lon="-1.15708333">
        <ele>821.0</ele>
        <time>2019-07-31T16:18:22.121Z</time>
      </trkpt>
      <trkpt lat="42.99039667" lon="-1.15710333">
        <ele>821.0</ele>
        <time>2019-07-31T16:18:23.124Z</time>
      </trkpt>
      <trkpt lat="42.99039833" lon="-1.15712167">
        <ele>821.0</ele>
        <time>2019-07-31T16:18:24.127Z</time>
      </trkpt>
      <trkpt lat="42.99040333" lon="-1.15714167">
        <ele>821.0</ele>
        <time>2019-07-31T16:18:25.131Z</time>
      </trkpt>
      <trkpt lat="42.99040833" lon="-1.15716167">
        <ele>821.0</ele>
        <time>2019-07-31T16:18:26.137Z</time>
      </trkpt>
      <trkpt lat="42.990415" lon="-1.15718167">
        <ele>821.0</ele>
        <time>2019-07-31T16:18:27.143Z</time>
      </trkpt>
      <trkpt lat="42.99042167" lon="-1.15719667">
        <ele>822.0</ele>
        <time>2019-07-31T16:18:28.149Z</time>
      </trkpt>
      <trkpt lat="42.99043167" lon="-1.15721833">
        <ele>822.0</ele>
        <time>2019-07-31T16:18:29.153Z</time>
      </trkpt>
      <trkpt lat="42.99043833" lon="-1.15724">
        <ele>822.0</ele>
        <time>2019-07-31T16:18:30.157Z</time>
      </trkpt>
      <trkpt lat="42.99044167" lon="-1.15726167">
        <ele>822.0</ele>
        <time>2019-07-31T16:18:31.164Z</time>
      </trkpt>
      <trkpt lat="42.990445" lon="-1.15728167">
        <ele>822.0</ele>
        <time>2019-07-31T16:18:32.168Z</time>
      </trkpt>
      <trkpt lat="42.99044667" lon="-1.15729833">
        <ele>822.0</ele>
        <time>2019-07-31T16:18:33.171Z</time>
      </trkpt>
      <trkpt lat="42.99045" lon="-1.15732">
        <ele>822.0</ele>
        <time>2019-07-31T16:18:34.176Z</time>
      </trkpt>
      <trkpt lat="42.99045" lon="-1.15733667">
        <ele>822.0</ele>
        <time>2019-07-31T16:18:35.181Z</time>
      </trkpt>
      <trkpt lat="42.99045" lon="-1.15735667">
        <ele>821.0</ele>
        <time>2019-07-31T16:18:36.061Z</time>
      </trkpt>
      <trkpt lat="42.990445" lon="-1.15737667">
        <ele>821.0</ele>
        <time>2019-07-31T16:18:37.066Z</time>
      </trkpt>
      <trkpt lat="42.99044333" lon="-1.15739333">
        <ele>821.0</ele>
        <time>2019-07-31T16:18:38.073Z</time>
      </trkpt>
      <trkpt lat="42.99044" lon="-1.15741">
        <ele>821.0</ele>
        <time>2019-07-31T16:18:39.080Z</time>
      </trkpt>
      <trkpt lat="42.99043333" lon="-1.15742667">
        <ele>822.0</ele>
        <time>2019-07-31T16:18:40.084Z</time>
      </trkpt>
      <trkpt lat="42.990425" lon="-1.15743833">
        <ele>821.0</ele>
        <time>2019-07-31T16:18:41.086Z</time>
      </trkpt>
      <trkpt lat="42.99041333" lon="-1.15745">
        <ele>822.0</ele>
        <time>2019-07-31T16:18:42.092Z</time>
      </trkpt>
      <trkpt lat="42.99040167" lon="-1.15746">
        <ele>822.0</ele>
        <time>2019-07-31T16:18:43.098Z</time>
      </trkpt>
      <trkpt lat="42.99038667" lon="-1.15746833">
        <ele>822.0</ele>
        <time>2019-07-31T16:18:44.103Z</time>
      </trkpt>
      <trkpt lat="42.99037333" lon="-1.15748">
        <ele>822.0</ele>
        <time>2019-07-31T16:18:45.109Z</time>
      </trkpt>
      <trkpt lat="42.99036" lon="-1.15749">
        <ele>823.0</ele>
        <time>2019-07-31T16:18:46.114Z</time>
      </trkpt>
      <trkpt lat="42.990345" lon="-1.15750167">
        <ele>824.0</ele>
        <time>2019-07-31T16:18:47.118Z</time>
      </trkpt>
      <trkpt lat="42.99033167" lon="-1.15750833">
        <ele>824.0</ele>
        <time>2019-07-31T16:18:48.123Z</time>
      </trkpt>
      <trkpt lat="42.99032167" lon="-1.15752">
        <ele>824.0</ele>
        <time>2019-07-31T16:18:49.128Z</time>
      </trkpt>
      <trkpt lat="42.99031333" lon="-1.157525">
        <ele>824.0</ele>
        <time>2019-07-31T16:18:50.133Z</time>
      </trkpt>
      <trkpt lat="42.99030167" lon="-1.157535">
        <ele>825.0</ele>
        <time>2019-07-31T16:18:51.135Z</time>
      </trkpt>
      <trkpt lat="42.990285" lon="-1.15754833">
        <ele>826.0</ele>
        <time>2019-07-31T16:18:52.141Z</time>
      </trkpt>
      <trkpt lat="42.99026833" lon="-1.157565">
        <ele>826.0</ele>
        <time>2019-07-31T16:18:53.147Z</time>
      </trkpt>
      <trkpt lat="42.990255" lon="-1.15758">
        <ele>827.0</ele>
        <time>2019-07-31T16:18:54.152Z</time>
      </trkpt>
      <trkpt lat="42.99024167" lon="-1.157595">
        <ele>828.0</ele>
        <time>2019-07-31T16:18:55.156Z</time>
      </trkpt>
      <trkpt lat="42.99022833" lon="-1.15761333">
        <ele>828.0</ele>
        <time>2019-07-31T16:18:56.161Z</time>
      </trkpt>
      <trkpt lat="42.99022" lon="-1.15762833">
        <ele>829.0</ele>
        <time>2019-07-31T16:18:57.166Z</time>
      </trkpt>
      <trkpt lat="42.990205" lon="-1.157645">
        <ele>829.0</ele>
        <time>2019-07-31T16:18:58.170Z</time>
      </trkpt>
      <trkpt lat="42.990195" lon="-1.157665">
        <ele>829.0</ele>
        <time>2019-07-31T16:18:59.175Z</time>
      </trkpt>
      <trkpt lat="42.99019167" lon="-1.15768">
        <ele>829.0</ele>
        <time>2019-07-31T16:19:00.180Z</time>
      </trkpt>
      <trkpt lat="42.99018167" lon="-1.15769667">
        <ele>829.0</ele>
        <time>2019-07-31T16:19:01.184Z</time>
      </trkpt>
      <trkpt lat="42.99017167" lon="-1.15771167">
        <ele>830.0</ele>
        <time>2019-07-31T16:19:02.063Z</time>
      </trkpt>
      <trkpt lat="42.99016167" lon="-1.15772333">
        <ele>830.0</ele>
        <time>2019-07-31T16:19:03.069Z</time>
      </trkpt>
      <trkpt lat="42.99015333" lon="-1.15774">
        <ele>830.0</ele>
        <time>2019-07-31T16:19:04.074Z</time>
      </trkpt>
      <trkpt lat="42.99014333" lon="-1.157755">
        <ele>830.0</ele>
        <time>2019-07-31T16:19:05.079Z</time>
      </trkpt>
      <trkpt lat="42.990135" lon="-1.15777333">
        <ele>830.0</ele>
        <time>2019-07-31T16:19:06.084Z</time>
      </trkpt>
      <trkpt lat="42.99012667" lon="-1.15779167">
        <ele>830.0</ele>
        <time>2019-07-31T16:19:07.092Z</time>
      </trkpt>
      <trkpt lat="42.99011833" lon="-1.15781167">
        <ele>830.0</ele>
        <time>2019-07-31T16:19:08.097Z</time>
      </trkpt>
      <trkpt lat="42.99011" lon="-1.15783">
        <ele>831.0</ele>
        <time>2019-07-31T16:19:09.103Z</time>
      </trkpt>
      <trkpt lat="42.99010167" lon="-1.15785">
        <ele>831.0</ele>
        <time>2019-07-31T16:19:10.108Z</time>
      </trkpt>
      <trkpt lat="42.99009333" lon="-1.15787">
        <ele>831.0</ele>
        <time>2019-07-31T16:19:11.111Z</time>
      </trkpt>
      <trkpt lat="42.990085" lon="-1.15788667">
        <ele>832.0</ele>
        <time>2019-07-31T16:19:12.115Z</time>
      </trkpt>
      <trkpt lat="42.99007667" lon="-1.15790333">
        <ele>832.0</ele>
        <time>2019-07-31T16:19:13.121Z</time>
      </trkpt>
      <trkpt lat="42.99006667" lon="-1.15791833">
        <ele>833.0</ele>
        <time>2019-07-31T16:19:14.125Z</time>
      </trkpt>
      <trkpt lat="42.99005333" lon="-1.157925">
        <ele>833.0</ele>
        <time>2019-07-31T16:19:15.130Z</time>
      </trkpt>
      <trkpt lat="42.99005" lon="-1.15792833">
        <ele>833.0</ele>
        <time>2019-07-31T16:19:16.134Z</time>
      </trkpt>
      <trkpt lat="42.99004833" lon="-1.15793167">
        <ele>834.0</ele>
        <time>2019-07-31T16:19:17.137Z</time>
      </trkpt>
      <trkpt lat="42.99004833" lon="-1.15793167">
        <ele>834.0</ele>
        <time>2019-07-31T16:19:18.142Z</time>
      </trkpt>
      <trkpt lat="42.99005167" lon="-1.15793333">
        <ele>834.0</ele>
        <time>2019-07-31T16:19:19.146Z</time>
      </trkpt>
      <trkpt lat="42.99006" lon="-1.15794">
        <ele>833.0</ele>
        <time>2019-07-31T16:19:20.150Z</time>
      </trkpt>
      <trkpt lat="42.99005833" lon="-1.15794833">
        <ele>832.0</ele>
        <time>2019-07-31T16:19:21.153Z</time>
      </trkpt>
      <trkpt lat="42.99005667" lon="-1.15796">
        <ele>832.0</ele>
        <time>2019-07-31T16:19:22.157Z</time>
      </trkpt>
      <trkpt lat="42.99005" lon="-1.15797333">
        <ele>832.0</ele>
        <time>2019-07-31T16:19:23.161Z</time>
      </trkpt>
      <trkpt lat="42.99004333" lon="-1.157985">
        <ele>832.0</ele>
        <time>2019-07-31T16:19:24.164Z</time>
      </trkpt>
      <trkpt lat="42.990035" lon="-1.15799833">
        <ele>833.0</ele>
        <time>2019-07-31T16:19:25.169Z</time>
      </trkpt>
      <trkpt lat="42.99002667" lon="-1.15800667">
        <ele>833.0</ele>
        <time>2019-07-31T16:19:26.177Z</time>
      </trkpt>
      <trkpt lat="42.990015" lon="-1.15801833">
        <ele>833.0</ele>
        <time>2019-07-31T16:19:27.182Z</time>
      </trkpt>
      <trkpt lat="42.99000667" lon="-1.15803167">
        <ele>833.0</ele>
        <time>2019-07-31T16:19:28.184Z</time>
      </trkpt>
      <trkpt lat="42.98999667" lon="-1.15804667">
        <ele>833.0</ele>
        <time>2019-07-31T16:19:29.064Z</time>
      </trkpt>
      <trkpt lat="42.98998833" lon="-1.15806333">
        <ele>833.0</ele>
        <time>2019-07-31T16:19:30.069Z</time>
      </trkpt>
      <trkpt lat="42.989985" lon="-1.158075">
        <ele>833.0</ele>
        <time>2019-07-31T16:19:31.076Z</time>
      </trkpt>
      <trkpt lat="42.98997333" lon="-1.15808333">
        <ele>833.0</ele>
        <time>2019-07-31T16:19:32.081Z</time>
      </trkpt>
      <trkpt lat="42.98996333" lon="-1.15809833">
        <ele>833.0</ele>
        <time>2019-07-31T16:19:33.087Z</time>
      </trkpt>
      <trkpt lat="42.98995333" lon="-1.15811333">
        <ele>833.0</ele>
        <time>2019-07-31T16:19:34.093Z</time>
      </trkpt>
      <trkpt lat="42.98994167" lon="-1.15813167">
        <ele>833.0</ele>
        <time>2019-07-31T16:19:35.099Z</time>
      </trkpt>
      <trkpt lat="42.98993333" lon="-1.15814667">
        <ele>832.0</ele>
        <time>2019-07-31T16:19:36.104Z</time>
      </trkpt>
      <trkpt lat="42.989925" lon="-1.158165">
        <ele>832.0</ele>
        <time>2019-07-31T16:19:37.110Z</time>
      </trkpt>
      <trkpt lat="42.98991333" lon="-1.15818833">
        <ele>831.0</ele>
        <time>2019-07-31T16:19:38.114Z</time>
      </trkpt>
      <trkpt lat="42.989905" lon="-1.15821">
        <ele>831.0</ele>
        <time>2019-07-31T16:19:39.119Z</time>
      </trkpt>
      <trkpt lat="42.98989667" lon="-1.15822667">
        <ele>830.0</ele>
        <time>2019-07-31T16:19:40.125Z</time>
      </trkpt>
      <trkpt lat="42.98988833" lon="-1.158245">
        <ele>830.0</ele>
        <time>2019-07-31T16:19:41.128Z</time>
      </trkpt>
      <trkpt lat="42.98988" lon="-1.15826667">
        <ele>830.0</ele>
        <time>2019-07-31T16:19:42.132Z</time>
      </trkpt>
      <trkpt lat="42.98987" lon="-1.15828667">
        <ele>829.0</ele>
        <time>2019-07-31T16:19:43.137Z</time>
      </trkpt>
      <trkpt lat="42.98985833" lon="-1.158305">
        <ele>829.0</ele>
        <time>2019-07-31T16:19:44.141Z</time>
      </trkpt>
      <trkpt lat="42.98985" lon="-1.15832333">
        <ele>829.0</ele>
        <time>2019-07-31T16:19:45.147Z</time>
      </trkpt>
      <trkpt lat="42.98984167" lon="-1.15834333">
        <ele>829.0</ele>
        <time>2019-07-31T16:19:46.150Z</time>
      </trkpt>
      <trkpt lat="42.98983333" lon="-1.158365">
        <ele>828.0</ele>
        <time>2019-07-31T16:19:47.156Z</time>
      </trkpt>
      <trkpt lat="42.989825" lon="-1.158385">
        <ele>828.0</ele>
        <time>2019-07-31T16:19:48.159Z</time>
      </trkpt>
      <trkpt lat="42.98981833" lon="-1.15840833">
        <ele>828.0</ele>
        <time>2019-07-31T16:19:49.166Z</time>
      </trkpt>
      <trkpt lat="42.98981333" lon="-1.158425">
        <ele>828.0</ele>
        <time>2019-07-31T16:19:50.170Z</time>
      </trkpt>
      <trkpt lat="42.989805" lon="-1.15845">
        <ele>827.0</ele>
        <time>2019-07-31T16:19:51.173Z</time>
      </trkpt>
      <trkpt lat="42.98979833" lon="-1.15847">
        <ele>827.0</ele>
        <time>2019-07-31T16:19:52.180Z</time>
      </trkpt>
      <trkpt lat="42.98979" lon="-1.15848833">
        <ele>826.0</ele>
        <time>2019-07-31T16:19:53.184Z</time>
      </trkpt>
      <trkpt lat="42.98978167" lon="-1.158505">
        <ele>826.0</ele>
        <time>2019-07-31T16:19:54.064Z</time>
      </trkpt>
      <trkpt lat="42.989775" lon="-1.15852167">
        <ele>826.0</ele>
        <time>2019-07-31T16:19:55.067Z</time>
      </trkpt>
      <trkpt lat="42.98976667" lon="-1.15853833">
        <ele>826.0</ele>
        <time>2019-07-31T16:19:56.070Z</time>
      </trkpt>
      <trkpt lat="42.989755" lon="-1.158555">
        <ele>825.0</ele>
        <time>2019-07-31T16:19:57.072Z</time>
      </trkpt>
      <trkpt lat="42.98974833" lon="-1.15857167">
        <ele>825.0</ele>
        <time>2019-07-31T16:19:58.075Z</time>
      </trkpt>
      <trkpt lat="42.98974333" lon="-1.15858333">
        <ele>825.0</ele>
        <time>2019-07-31T16:19:59.082Z</time>
      </trkpt>
      <trkpt lat="42.98973" lon="-1.15859667">
        <ele>825.0</ele>
        <time>2019-07-31T16:20:00.087Z</time>
      </trkpt>
      <trkpt lat="42.98971667" lon="-1.15861333">
        <ele>826.0</ele>
        <time>2019-07-31T16:20:01.093Z</time>
      </trkpt>
      <trkpt lat="42.98970333" lon="-1.15863">
        <ele>826.0</ele>
        <time>2019-07-31T16:20:02.101Z</time>
      </trkpt>
      <trkpt lat="42.98969167" lon="-1.158645">
        <ele>827.0</ele>
        <time>2019-07-31T16:20:03.107Z</time>
      </trkpt>
      <trkpt lat="42.989675" lon="-1.15866667">
        <ele>827.0</ele>
        <time>2019-07-31T16:20:04.113Z</time>
      </trkpt>
      <trkpt lat="42.989665" lon="-1.15868167">
        <ele>828.0</ele>
        <time>2019-07-31T16:20:05.117Z</time>
      </trkpt>
      <trkpt lat="42.98965167" lon="-1.15869667">
        <ele>828.0</ele>
        <time>2019-07-31T16:20:06.123Z</time>
      </trkpt>
      <trkpt lat="42.98964167" lon="-1.15871167">
        <ele>828.0</ele>
        <time>2019-07-31T16:20:07.128Z</time>
      </trkpt>
      <trkpt lat="42.989635" lon="-1.15873167">
        <ele>828.0</ele>
        <time>2019-07-31T16:20:08.135Z</time>
      </trkpt>
      <trkpt lat="42.989625" lon="-1.15875333">
        <ele>828.0</ele>
        <time>2019-07-31T16:20:09.139Z</time>
      </trkpt>
      <trkpt lat="42.989615" lon="-1.15877">
        <ele>829.0</ele>
        <time>2019-07-31T16:20:10.144Z</time>
      </trkpt>
      <trkpt lat="42.98960333" lon="-1.15878333">
        <ele>829.0</ele>
        <time>2019-07-31T16:20:11.149Z</time>
      </trkpt>
      <trkpt lat="42.98959" lon="-1.15879833">
        <ele>830.0</ele>
        <time>2019-07-31T16:20:12.156Z</time>
      </trkpt>
      <trkpt lat="42.98957833" lon="-1.15881167">
        <ele>830.0</ele>
        <time>2019-07-31T16:20:13.162Z</time>
      </trkpt>
      <trkpt lat="42.98956833" lon="-1.15883">
        <ele>831.0</ele>
        <time>2019-07-31T16:20:14.168Z</time>
      </trkpt>
      <trkpt lat="42.98955833" lon="-1.15884667">
        <ele>831.0</ele>
        <time>2019-07-31T16:20:15.174Z</time>
      </trkpt>
      <trkpt lat="42.98954833" lon="-1.15886">
        <ele>831.0</ele>
        <time>2019-07-31T16:20:16.180Z</time>
      </trkpt>
      <trkpt lat="42.98953833" lon="-1.15887167">
        <ele>831.0</ele>
        <time>2019-07-31T16:20:17.061Z</time>
      </trkpt>
      <trkpt lat="42.98952667" lon="-1.15888">
        <ele>831.0</ele>
        <time>2019-07-31T16:20:18.064Z</time>
      </trkpt>
      <trkpt lat="42.98951667" lon="-1.15889167">
        <ele>831.0</ele>
        <time>2019-07-31T16:20:19.071Z</time>
      </trkpt>
      <trkpt lat="42.98950667" lon="-1.158905">
        <ele>831.0</ele>
        <time>2019-07-31T16:20:20.077Z</time>
      </trkpt>
      <trkpt lat="42.989495" lon="-1.15891667">
        <ele>831.0</ele>
        <time>2019-07-31T16:20:21.082Z</time>
      </trkpt>
      <trkpt lat="42.989485" lon="-1.15893">
        <ele>831.0</ele>
        <time>2019-07-31T16:20:22.087Z</time>
      </trkpt>
      <trkpt lat="42.989475" lon="-1.15894667">
        <ele>831.0</ele>
        <time>2019-07-31T16:20:23.093Z</time>
      </trkpt>
      <trkpt lat="42.98946667" lon="-1.15896167">
        <ele>831.0</ele>
        <time>2019-07-31T16:20:24.096Z</time>
      </trkpt>
      <trkpt lat="42.98945333" lon="-1.15897667">
        <ele>831.0</ele>
        <time>2019-07-31T16:20:25.098Z</time>
      </trkpt>
      <trkpt lat="42.98944167" lon="-1.15898833">
        <ele>831.0</ele>
        <time>2019-07-31T16:20:26.103Z</time>
      </trkpt>
      <trkpt lat="42.98942833" lon="-1.15900167">
        <ele>832.0</ele>
        <time>2019-07-31T16:20:27.110Z</time>
      </trkpt>
      <trkpt lat="42.98941667" lon="-1.159015">
        <ele>831.0</ele>
        <time>2019-07-31T16:20:28.117Z</time>
      </trkpt>
      <trkpt lat="42.989405" lon="-1.15903">
        <ele>831.0</ele>
        <time>2019-07-31T16:20:29.118Z</time>
      </trkpt>
      <trkpt lat="42.98939333" lon="-1.15904333">
        <ele>831.0</ele>
        <time>2019-07-31T16:20:30.122Z</time>
      </trkpt>
      <trkpt lat="42.98938167" lon="-1.15905833">
        <ele>832.0</ele>
        <time>2019-07-31T16:20:31.126Z</time>
      </trkpt>
      <trkpt lat="42.98936667" lon="-1.15907333">
        <ele>832.0</ele>
        <time>2019-07-31T16:20:32.130Z</time>
      </trkpt>
      <trkpt lat="42.98935333" lon="-1.15909167">
        <ele>832.0</ele>
        <time>2019-07-31T16:20:33.134Z</time>
      </trkpt>
      <trkpt lat="42.98934333" lon="-1.15910833">
        <ele>831.0</ele>
        <time>2019-07-31T16:20:34.135Z</time>
      </trkpt>
      <trkpt lat="42.98933833" lon="-1.15912833">
        <ele>831.0</ele>
        <time>2019-07-31T16:20:35.137Z</time>
      </trkpt>
      <trkpt lat="42.98933333" lon="-1.15914833">
        <ele>830.0</ele>
        <time>2019-07-31T16:20:36.138Z</time>
      </trkpt>
      <trkpt lat="42.989325" lon="-1.15916167">
        <ele>830.0</ele>
        <time>2019-07-31T16:20:37.141Z</time>
      </trkpt>
      <trkpt lat="42.98931333" lon="-1.15917333">
        <ele>829.0</ele>
        <time>2019-07-31T16:20:38.148Z</time>
      </trkpt>
      <trkpt lat="42.9893" lon="-1.15918833">
        <ele>828.0</ele>
        <time>2019-07-31T16:20:39.153Z</time>
      </trkpt>
      <trkpt lat="42.98928667" lon="-1.15920167">
        <ele>828.0</ele>
        <time>2019-07-31T16:20:40.157Z</time>
      </trkpt>
      <trkpt lat="42.989275" lon="-1.15922">
        <ele>828.0</ele>
        <time>2019-07-31T16:20:41.163Z</time>
      </trkpt>
      <trkpt lat="42.98926" lon="-1.15923333">
        <ele>828.0</ele>
        <time>2019-07-31T16:20:42.167Z</time>
      </trkpt>
      <trkpt lat="42.98924833" lon="-1.15924667">
        <ele>827.0</ele>
        <time>2019-07-31T16:20:43.169Z</time>
      </trkpt>
      <trkpt lat="42.98923667" lon="-1.15926">
        <ele>827.0</ele>
        <time>2019-07-31T16:20:44.175Z</time>
      </trkpt>
      <trkpt lat="42.98922167" lon="-1.15927167">
        <ele>827.0</ele>
        <time>2019-07-31T16:20:45.180Z</time>
      </trkpt>
      <trkpt lat="42.98920667" lon="-1.15928167">
        <ele>827.0</ele>
        <time>2019-07-31T16:20:46.186Z</time>
      </trkpt>
      <trkpt lat="42.98919333" lon="-1.15929667">
        <ele>827.0</ele>
        <time>2019-07-31T16:20:47.066Z</time>
      </trkpt>
      <trkpt lat="42.98918" lon="-1.15930667">
        <ele>828.0</ele>
        <time>2019-07-31T16:20:48.073Z</time>
      </trkpt>
      <trkpt lat="42.98916667" lon="-1.15931667">
        <ele>828.0</ele>
        <time>2019-07-31T16:20:49.078Z</time>
      </trkpt>
      <trkpt lat="42.98915333" lon="-1.15932667">
        <ele>828.0</ele>
        <time>2019-07-31T16:20:50.084Z</time>
      </trkpt>
      <trkpt lat="42.98913833" lon="-1.15933833">
        <ele>828.0</ele>
        <time>2019-07-31T16:20:51.090Z</time>
      </trkpt>
      <trkpt lat="42.989125" lon="-1.159345">
        <ele>828.0</ele>
        <time>2019-07-31T16:20:52.097Z</time>
      </trkpt>
      <trkpt lat="42.98911167" lon="-1.159355">
        <ele>828.0</ele>
        <time>2019-07-31T16:20:53.103Z</time>
      </trkpt>
      <trkpt lat="42.98909833" lon="-1.15936333">
        <ele>828.0</ele>
        <time>2019-07-31T16:20:54.109Z</time>
      </trkpt>
      <trkpt lat="42.98908333" lon="-1.15936833">
        <ele>828.0</ele>
        <time>2019-07-31T16:20:55.115Z</time>
      </trkpt>
      <trkpt lat="42.98906833" lon="-1.15937167">
        <ele>829.0</ele>
        <time>2019-07-31T16:20:56.121Z</time>
      </trkpt>
      <trkpt lat="42.98905167" lon="-1.15937833">
        <ele>828.0</ele>
        <time>2019-07-31T16:20:57.125Z</time>
      </trkpt>
      <trkpt lat="42.98903833" lon="-1.15938667">
        <ele>828.0</ele>
        <time>2019-07-31T16:20:58.132Z</time>
      </trkpt>
      <trkpt lat="42.98902333" lon="-1.15939333">
        <ele>828.0</ele>
        <time>2019-07-31T16:20:59.137Z</time>
      </trkpt>
      <trkpt lat="42.98900833" lon="-1.1594">
        <ele>829.0</ele>
        <time>2019-07-31T16:21:00.141Z</time>
      </trkpt>
      <trkpt lat="42.98899167" lon="-1.15940333">
        <ele>829.0</ele>
        <time>2019-07-31T16:21:01.144Z</time>
      </trkpt>
      <trkpt lat="42.988975" lon="-1.15941">
        <ele>829.0</ele>
        <time>2019-07-31T16:21:02.147Z</time>
      </trkpt>
      <trkpt lat="42.98896167" lon="-1.15941333">
        <ele>830.0</ele>
        <time>2019-07-31T16:21:03.152Z</time>
      </trkpt>
      <trkpt lat="42.98894667" lon="-1.15941667">
        <ele>830.0</ele>
        <time>2019-07-31T16:21:04.157Z</time>
      </trkpt>
      <trkpt lat="42.98893167" lon="-1.15941833">
        <ele>830.0</ele>
        <time>2019-07-31T16:21:05.162Z</time>
      </trkpt>
      <trkpt lat="42.988915" lon="-1.15942167">
        <ele>831.0</ele>
        <time>2019-07-31T16:21:06.166Z</time>
      </trkpt>
      <trkpt lat="42.9889" lon="-1.159425">
        <ele>831.0</ele>
        <time>2019-07-31T16:21:07.169Z</time>
      </trkpt>
      <trkpt lat="42.988885" lon="-1.15942833">
        <ele>832.0</ele>
        <time>2019-07-31T16:21:08.175Z</time>
      </trkpt>
      <trkpt lat="42.98887" lon="-1.15943333">
        <ele>832.0</ele>
        <time>2019-07-31T16:21:09.180Z</time>
      </trkpt>
      <trkpt lat="42.988855" lon="-1.15943667">
        <ele>832.0</ele>
        <time>2019-07-31T16:21:10.061Z</time>
      </trkpt>
      <trkpt lat="42.98884167" lon="-1.15944">
        <ele>832.0</ele>
        <time>2019-07-31T16:21:11.066Z</time>
      </trkpt>
      <trkpt lat="42.98882667" lon="-1.15944833">
        <ele>832.0</ele>
        <time>2019-07-31T16:21:12.073Z</time>
      </trkpt>
      <trkpt lat="42.98881167" lon="-1.159455">
        <ele>831.0</ele>
        <time>2019-07-31T16:21:13.077Z</time>
      </trkpt>
      <trkpt lat="42.98879833" lon="-1.15946333">
        <ele>831.0</ele>
        <time>2019-07-31T16:21:14.082Z</time>
      </trkpt>
      <trkpt lat="42.988785" lon="-1.15947333">
        <ele>830.0</ele>
        <time>2019-07-31T16:21:15.088Z</time>
      </trkpt>
      <trkpt lat="42.98877167" lon="-1.15948167">
        <ele>830.0</ele>
        <time>2019-07-31T16:21:16.092Z</time>
      </trkpt>
      <trkpt lat="42.98875833" lon="-1.15948833">
        <ele>830.0</ele>
        <time>2019-07-31T16:21:17.100Z</time>
      </trkpt>
      <trkpt lat="42.988745" lon="-1.159495">
        <ele>830.0</ele>
        <time>2019-07-31T16:21:18.106Z</time>
      </trkpt>
      <trkpt lat="42.98873167" lon="-1.159505">
        <ele>830.0</ele>
        <time>2019-07-31T16:21:19.113Z</time>
      </trkpt>
      <trkpt lat="42.98872" lon="-1.15951167">
        <ele>829.0</ele>
        <time>2019-07-31T16:21:20.119Z</time>
      </trkpt>
      <trkpt lat="42.98870667" lon="-1.15951833">
        <ele>829.0</ele>
        <time>2019-07-31T16:21:21.124Z</time>
      </trkpt>
      <trkpt lat="42.98869333" lon="-1.15952333">
        <ele>829.0</ele>
        <time>2019-07-31T16:21:22.129Z</time>
      </trkpt>
      <trkpt lat="42.98868" lon="-1.15953333">
        <ele>829.0</ele>
        <time>2019-07-31T16:21:23.133Z</time>
      </trkpt>
      <trkpt lat="42.98866667" lon="-1.159545">
        <ele>828.0</ele>
        <time>2019-07-31T16:21:24.139Z</time>
      </trkpt>
      <trkpt lat="42.988655" lon="-1.15955333">
        <ele>828.0</ele>
        <time>2019-07-31T16:21:25.145Z</time>
      </trkpt>
      <trkpt lat="42.98864167" lon="-1.15956167">
        <ele>827.0</ele>
        <time>2019-07-31T16:21:26.149Z</time>
      </trkpt>
      <trkpt lat="42.98862833" lon="-1.15957167">
        <ele>826.0</ele>
        <time>2019-07-31T16:21:27.154Z</time>
      </trkpt>
      <trkpt lat="42.98861333" lon="-1.15957667">
        <ele>827.0</ele>
        <time>2019-07-31T16:21:28.159Z</time>
      </trkpt>
      <trkpt lat="42.98859833" lon="-1.15958">
        <ele>827.0</ele>
        <time>2019-07-31T16:21:29.164Z</time>
      </trkpt>
      <trkpt lat="42.98858167" lon="-1.15957833">
        <ele>828.0</ele>
        <time>2019-07-31T16:21:30.168Z</time>
      </trkpt>
      <trkpt lat="42.988565" lon="-1.15958333">
        <ele>828.0</ele>
        <time>2019-07-31T16:21:31.171Z</time>
      </trkpt>
      <trkpt lat="42.98855" lon="-1.15958833">
        <ele>828.0</ele>
        <time>2019-07-31T16:21:32.175Z</time>
      </trkpt>
      <trkpt lat="42.988535" lon="-1.15959667">
        <ele>828.0</ele>
        <time>2019-07-31T16:21:33.179Z</time>
      </trkpt>
      <trkpt lat="42.98852167" lon="-1.15960333">
        <ele>829.0</ele>
        <time>2019-07-31T16:21:34.186Z</time>
      </trkpt>
      <trkpt lat="42.98850833" lon="-1.15960667">
        <ele>829.0</ele>
        <time>2019-07-31T16:21:35.065Z</time>
      </trkpt>
      <trkpt lat="42.98849333" lon="-1.15961333">
        <ele>829.0</ele>
        <time>2019-07-31T16:21:36.071Z</time>
      </trkpt>
      <trkpt lat="42.98847833" lon="-1.15962167">
        <ele>829.0</ele>
        <time>2019-07-31T16:21:37.078Z</time>
      </trkpt>
      <trkpt lat="42.98846167" lon="-1.15962667">
        <ele>829.0</ele>
        <time>2019-07-31T16:21:38.084Z</time>
      </trkpt>
      <trkpt lat="42.98844667" lon="-1.15962833">
        <ele>829.0</ele>
        <time>2019-07-31T16:21:39.090Z</time>
      </trkpt>
      <trkpt lat="42.98843333" lon="-1.15963333">
        <ele>829.0</ele>
        <time>2019-07-31T16:21:40.095Z</time>
      </trkpt>
      <trkpt lat="42.98842" lon="-1.15963667">
        <ele>829.0</ele>
        <time>2019-07-31T16:21:41.100Z</time>
      </trkpt>
      <trkpt lat="42.98840333" lon="-1.15964667">
        <ele>829.0</ele>
        <time>2019-07-31T16:21:42.105Z</time>
      </trkpt>
      <trkpt lat="42.98838833" lon="-1.15965167">
        <ele>829.0</ele>
        <time>2019-07-31T16:21:43.111Z</time>
      </trkpt>
      <trkpt lat="42.98837167" lon="-1.15965667">
        <ele>829.0</ele>
        <time>2019-07-31T16:21:44.115Z</time>
      </trkpt>
      <trkpt lat="42.98835667" lon="-1.15966">
        <ele>830.0</ele>
        <time>2019-07-31T16:21:45.122Z</time>
      </trkpt>
      <trkpt lat="42.98834167" lon="-1.15966">
        <ele>830.0</ele>
        <time>2019-07-31T16:21:46.127Z</time>
      </trkpt>
      <trkpt lat="42.98832833" lon="-1.15966167">
        <ele>830.0</ele>
        <time>2019-07-31T16:21:47.134Z</time>
      </trkpt>
      <trkpt lat="42.98831333" lon="-1.15966">
        <ele>830.0</ele>
        <time>2019-07-31T16:21:48.137Z</time>
      </trkpt>
      <trkpt lat="42.98830167" lon="-1.15966167">
        <ele>830.0</ele>
        <time>2019-07-31T16:21:49.142Z</time>
      </trkpt>
      <trkpt lat="42.98828833" lon="-1.15966333">
        <ele>830.0</ele>
        <time>2019-07-31T16:21:50.147Z</time>
      </trkpt>
      <trkpt lat="42.98827167" lon="-1.15966167">
        <ele>831.0</ele>
        <time>2019-07-31T16:21:51.153Z</time>
      </trkpt>
      <trkpt lat="42.988255" lon="-1.15966167">
        <ele>831.0</ele>
        <time>2019-07-31T16:21:52.159Z</time>
      </trkpt>
      <trkpt lat="42.98824" lon="-1.15966333">
        <ele>831.0</ele>
        <time>2019-07-31T16:21:53.163Z</time>
      </trkpt>
      <trkpt lat="42.988225" lon="-1.15966667">
        <ele>831.0</ele>
        <time>2019-07-31T16:21:54.167Z</time>
      </trkpt>
      <trkpt lat="42.98821" lon="-1.15967167">
        <ele>831.0</ele>
        <time>2019-07-31T16:21:55.173Z</time>
      </trkpt>
      <trkpt lat="42.98819667" lon="-1.15967167">
        <ele>831.0</ele>
        <time>2019-07-31T16:21:56.179Z</time>
      </trkpt>
      <trkpt lat="42.988185" lon="-1.15967667">
        <ele>831.0</ele>
        <time>2019-07-31T16:21:57.185Z</time>
      </trkpt>
      <trkpt lat="42.98817167" lon="-1.15968167">
        <ele>831.0</ele>
        <time>2019-07-31T16:21:58.065Z</time>
      </trkpt>
      <trkpt lat="42.98815833" lon="-1.15968167">
        <ele>832.0</ele>
        <time>2019-07-31T16:21:59.069Z</time>
      </trkpt>
      <trkpt lat="42.98814333" lon="-1.15968">
        <ele>832.0</ele>
        <time>2019-07-31T16:22:00.073Z</time>
      </trkpt>
      <trkpt lat="42.98812833" lon="-1.15967833">
        <ele>833.0</ele>
        <time>2019-07-31T16:22:01.080Z</time>
      </trkpt>
      <trkpt lat="42.98811333" lon="-1.15967333">
        <ele>834.0</ele>
        <time>2019-07-31T16:22:02.085Z</time>
      </trkpt>
      <trkpt lat="42.98809667" lon="-1.15967">
        <ele>834.0</ele>
        <time>2019-07-31T16:22:03.089Z</time>
      </trkpt>
      <trkpt lat="42.98807833" lon="-1.159675">
        <ele>835.0</ele>
        <time>2019-07-31T16:22:04.096Z</time>
      </trkpt>
      <trkpt lat="42.98806167" lon="-1.15967833">
        <ele>835.0</ele>
        <time>2019-07-31T16:22:05.101Z</time>
      </trkpt>
      <trkpt lat="42.98804667" lon="-1.15967833">
        <ele>836.0</ele>
        <time>2019-07-31T16:22:06.106Z</time>
      </trkpt>
      <trkpt lat="42.98803333" lon="-1.15967833">
        <ele>836.0</ele>
        <time>2019-07-31T16:22:07.114Z</time>
      </trkpt>
      <trkpt lat="42.98802" lon="-1.15968">
        <ele>836.0</ele>
        <time>2019-07-31T16:22:08.118Z</time>
      </trkpt>
      <trkpt lat="42.98800667" lon="-1.159685">
        <ele>836.0</ele>
        <time>2019-07-31T16:22:09.124Z</time>
      </trkpt>
      <trkpt lat="42.987995" lon="-1.15968833">
        <ele>836.0</ele>
        <time>2019-07-31T16:22:10.130Z</time>
      </trkpt>
      <trkpt lat="42.98798167" lon="-1.15969167">
        <ele>835.0</ele>
        <time>2019-07-31T16:22:11.136Z</time>
      </trkpt>
      <trkpt lat="42.98796667" lon="-1.15969333">
        <ele>835.0</ele>
        <time>2019-07-31T16:22:12.140Z</time>
      </trkpt>
      <trkpt lat="42.98795333" lon="-1.15969667">
        <ele>835.0</ele>
        <time>2019-07-31T16:22:13.147Z</time>
      </trkpt>
      <trkpt lat="42.98794" lon="-1.159695">
        <ele>834.0</ele>
        <time>2019-07-31T16:22:14.152Z</time>
      </trkpt>
      <trkpt lat="42.987925" lon="-1.15969">
        <ele>834.0</ele>
        <time>2019-07-31T16:22:15.156Z</time>
      </trkpt>
      <trkpt lat="42.98791167" lon="-1.15968833">
        <ele>834.0</ele>
        <time>2019-07-31T16:22:16.161Z</time>
      </trkpt>
      <trkpt lat="42.98789667" lon="-1.15968833">
        <ele>833.0</ele>
        <time>2019-07-31T16:22:17.166Z</time>
      </trkpt>
      <trkpt lat="42.98788167" lon="-1.15968667">
        <ele>833.0</ele>
        <time>2019-07-31T16:22:18.171Z</time>
      </trkpt>
      <trkpt lat="42.98786667" lon="-1.15968">
        <ele>832.0</ele>
        <time>2019-07-31T16:22:19.177Z</time>
      </trkpt>
      <trkpt lat="42.98785" lon="-1.15967333">
        <ele>832.0</ele>
        <time>2019-07-31T16:22:20.184Z</time>
      </trkpt>
      <trkpt lat="42.98783667" lon="-1.15966333">
        <ele>832.0</ele>
        <time>2019-07-31T16:22:21.062Z</time>
      </trkpt>
      <trkpt lat="42.98782167" lon="-1.15965167">
        <ele>832.0</ele>
        <time>2019-07-31T16:22:22.066Z</time>
      </trkpt>
      <trkpt lat="42.98780667" lon="-1.15963833">
        <ele>832.0</ele>
        <time>2019-07-31T16:22:23.071Z</time>
      </trkpt>
      <trkpt lat="42.98779167" lon="-1.15962833">
        <ele>832.0</ele>
        <time>2019-07-31T16:22:24.078Z</time>
      </trkpt>
      <trkpt lat="42.98777833" lon="-1.15962">
        <ele>832.0</ele>
        <time>2019-07-31T16:22:25.082Z</time>
      </trkpt>
      <trkpt lat="42.98776333" lon="-1.15961333">
        <ele>833.0</ele>
        <time>2019-07-31T16:22:26.085Z</time>
      </trkpt>
      <trkpt lat="42.98775167" lon="-1.15960667">
        <ele>833.0</ele>
        <time>2019-07-31T16:22:27.091Z</time>
      </trkpt>
      <trkpt lat="42.98773667" lon="-1.15959833">
        <ele>833.0</ele>
        <time>2019-07-31T16:22:28.093Z</time>
      </trkpt>
      <trkpt lat="42.98772" lon="-1.15958667">
        <ele>833.0</ele>
        <time>2019-07-31T16:22:29.100Z</time>
      </trkpt>
      <trkpt lat="42.98770833" lon="-1.15958">
        <ele>834.0</ele>
        <time>2019-07-31T16:22:30.106Z</time>
      </trkpt>
      <trkpt lat="42.987695" lon="-1.15957667">
        <ele>834.0</ele>
        <time>2019-07-31T16:22:31.113Z</time>
      </trkpt>
      <trkpt lat="42.98767833" lon="-1.159565">
        <ele>834.0</ele>
        <time>2019-07-31T16:22:32.117Z</time>
      </trkpt>
      <trkpt lat="42.98766333" lon="-1.15955667">
        <ele>834.0</ele>
        <time>2019-07-31T16:22:33.123Z</time>
      </trkpt>
      <trkpt lat="42.98764667" lon="-1.159545">
        <ele>834.0</ele>
        <time>2019-07-31T16:22:34.128Z</time>
      </trkpt>
      <trkpt lat="42.98763" lon="-1.15953667">
        <ele>834.0</ele>
        <time>2019-07-31T16:22:35.134Z</time>
      </trkpt>
      <trkpt lat="42.98761333" lon="-1.15952667">
        <ele>834.0</ele>
        <time>2019-07-31T16:22:36.138Z</time>
      </trkpt>
      <trkpt lat="42.98759833" lon="-1.15951833">
        <ele>835.0</ele>
        <time>2019-07-31T16:22:37.144Z</time>
      </trkpt>
      <trkpt lat="42.98758667" lon="-1.159515">
        <ele>836.0</ele>
        <time>2019-07-31T16:22:38.149Z</time>
      </trkpt>
      <trkpt lat="42.98757333" lon="-1.15951833">
        <ele>836.0</ele>
        <time>2019-07-31T16:22:39.154Z</time>
      </trkpt>
      <trkpt lat="42.98755833" lon="-1.15952">
        <ele>836.0</ele>
        <time>2019-07-31T16:22:40.160Z</time>
      </trkpt>
      <trkpt lat="42.98755" lon="-1.159525">
        <ele>835.0</ele>
        <time>2019-07-31T16:22:41.165Z</time>
      </trkpt>
      <trkpt lat="42.98754167" lon="-1.15952667">
        <ele>835.0</ele>
        <time>2019-07-31T16:22:42.169Z</time>
      </trkpt>
      <trkpt lat="42.98753667" lon="-1.15952833">
        <ele>835.0</ele>
        <time>2019-07-31T16:22:43.173Z</time>
      </trkpt>
      <trkpt lat="42.98752333" lon="-1.15952167">
        <ele>835.0</ele>
        <time>2019-07-31T16:22:44.178Z</time>
      </trkpt>
      <trkpt lat="42.98751167" lon="-1.15953">
        <ele>834.0</ele>
        <time>2019-07-31T16:22:45.182Z</time>
      </trkpt>
      <trkpt lat="42.98749833" lon="-1.15953">
        <ele>834.0</ele>
        <time>2019-07-31T16:22:46.061Z</time>
      </trkpt>
      <trkpt lat="42.98748333" lon="-1.159525">
        <ele>834.0</ele>
        <time>2019-07-31T16:22:47.065Z</time>
      </trkpt>
      <trkpt lat="42.98746833" lon="-1.15951667">
        <ele>833.0</ele>
        <time>2019-07-31T16:22:48.071Z</time>
      </trkpt>
      <trkpt lat="42.98745333" lon="-1.15950667">
        <ele>833.0</ele>
        <time>2019-07-31T16:22:49.077Z</time>
      </trkpt>
      <trkpt lat="42.98743833" lon="-1.1595">
        <ele>833.0</ele>
        <time>2019-07-31T16:22:50.080Z</time>
      </trkpt>
      <trkpt lat="42.98742167" lon="-1.15949167">
        <ele>833.0</ele>
        <time>2019-07-31T16:22:51.086Z</time>
      </trkpt>
      <trkpt lat="42.98740667" lon="-1.15948">
        <ele>833.0</ele>
        <time>2019-07-31T16:22:52.093Z</time>
      </trkpt>
      <trkpt lat="42.98739" lon="-1.15946167">
        <ele>834.0</ele>
        <time>2019-07-31T16:22:53.099Z</time>
      </trkpt>
      <trkpt lat="42.98737833" lon="-1.15944667">
        <ele>834.0</ele>
        <time>2019-07-31T16:22:54.106Z</time>
      </trkpt>
      <trkpt lat="42.98735833" lon="-1.15943333">
        <ele>834.0</ele>
        <time>2019-07-31T16:22:55.111Z</time>
      </trkpt>
      <trkpt lat="42.98734167" lon="-1.15942">
        <ele>834.0</ele>
        <time>2019-07-31T16:22:56.118Z</time>
      </trkpt>
      <trkpt lat="42.98733" lon="-1.15940667">
        <ele>833.0</ele>
        <time>2019-07-31T16:22:57.123Z</time>
      </trkpt>
      <trkpt lat="42.98731667" lon="-1.15939333">
        <ele>833.0</ele>
        <time>2019-07-31T16:22:58.129Z</time>
      </trkpt>
      <trkpt lat="42.98731167" lon="-1.15938167">
        <ele>834.0</ele>
        <time>2019-07-31T16:22:59.134Z</time>
      </trkpt>
      <trkpt lat="42.98730333" lon="-1.15936833">
        <ele>834.0</ele>
        <time>2019-07-31T16:23:00.139Z</time>
      </trkpt>
      <trkpt lat="42.987295" lon="-1.15934833">
        <ele>834.0</ele>
        <time>2019-07-31T16:23:01.146Z</time>
      </trkpt>
      <trkpt lat="42.987285" lon="-1.15932833">
        <ele>834.0</ele>
        <time>2019-07-31T16:23:02.152Z</time>
      </trkpt>
      <trkpt lat="42.987275" lon="-1.15930333">
        <ele>834.0</ele>
        <time>2019-07-31T16:23:03.156Z</time>
      </trkpt>
      <trkpt lat="42.98726667" lon="-1.159285">
        <ele>835.0</ele>
        <time>2019-07-31T16:23:04.162Z</time>
      </trkpt>
      <trkpt lat="42.98725833" lon="-1.15926333">
        <ele>835.0</ele>
        <time>2019-07-31T16:23:05.167Z</time>
      </trkpt>
      <trkpt lat="42.98725167" lon="-1.15924">
        <ele>835.0</ele>
        <time>2019-07-31T16:23:06.170Z</time>
      </trkpt>
      <trkpt lat="42.987245" lon="-1.159225">
        <ele>835.0</ele>
        <time>2019-07-31T16:23:07.173Z</time>
      </trkpt>
      <trkpt lat="42.98723167" lon="-1.15921333">
        <ele>834.0</ele>
        <time>2019-07-31T16:23:08.178Z</time>
      </trkpt>
      <trkpt lat="42.98722" lon="-1.15920333">
        <ele>834.0</ele>
        <time>2019-07-31T16:23:09.185Z</time>
      </trkpt>
      <trkpt lat="42.98721" lon="-1.159185">
        <ele>833.0</ele>
        <time>2019-07-31T16:23:10.064Z</time>
      </trkpt>
      <trkpt lat="42.98720167" lon="-1.15916667">
        <ele>832.0</ele>
        <time>2019-07-31T16:23:11.070Z</time>
      </trkpt>
      <trkpt lat="42.987195" lon="-1.15914833">
        <ele>832.0</ele>
        <time>2019-07-31T16:23:12.075Z</time>
      </trkpt>
      <trkpt lat="42.98718667" lon="-1.15913333">
        <ele>832.0</ele>
        <time>2019-07-31T16:23:13.081Z</time>
      </trkpt>
      <trkpt lat="42.98717833" lon="-1.159115">
        <ele>832.0</ele>
        <time>2019-07-31T16:23:14.086Z</time>
      </trkpt>
      <trkpt lat="42.98717333" lon="-1.15909833">
        <ele>833.0</ele>
        <time>2019-07-31T16:23:15.092Z</time>
      </trkpt>
      <trkpt lat="42.98716667" lon="-1.159075">
        <ele>833.0</ele>
        <time>2019-07-31T16:23:16.099Z</time>
      </trkpt>
      <trkpt lat="42.98715833" lon="-1.159055">
        <ele>833.0</ele>
        <time>2019-07-31T16:23:17.102Z</time>
      </trkpt>
      <trkpt lat="42.98714667" lon="-1.159035">
        <ele>834.0</ele>
        <time>2019-07-31T16:23:18.107Z</time>
      </trkpt>
      <trkpt lat="42.98713833" lon="-1.159015">
        <ele>833.0</ele>
        <time>2019-07-31T16:23:19.112Z</time>
      </trkpt>
      <trkpt lat="42.98713" lon="-1.15899667">
        <ele>834.0</ele>
        <time>2019-07-31T16:23:20.116Z</time>
      </trkpt>
      <trkpt lat="42.98712" lon="-1.15897833">
        <ele>834.0</ele>
        <time>2019-07-31T16:23:21.121Z</time>
      </trkpt>
      <trkpt lat="42.98711333" lon="-1.15896333">
        <ele>834.0</ele>
        <time>2019-07-31T16:23:22.125Z</time>
      </trkpt>
      <trkpt lat="42.98710167" lon="-1.15894667">
        <ele>835.0</ele>
        <time>2019-07-31T16:23:23.132Z</time>
      </trkpt>
      <trkpt lat="42.98709167" lon="-1.15892833">
        <ele>836.0</ele>
        <time>2019-07-31T16:23:24.137Z</time>
      </trkpt>
      <trkpt lat="42.987085" lon="-1.15891">
        <ele>836.0</ele>
        <time>2019-07-31T16:23:25.142Z</time>
      </trkpt>
      <trkpt lat="42.987075" lon="-1.1589">
        <ele>836.0</ele>
        <time>2019-07-31T16:23:26.147Z</time>
      </trkpt>
      <trkpt lat="42.98706667" lon="-1.15888333">
        <ele>837.0</ele>
        <time>2019-07-31T16:23:27.151Z</time>
      </trkpt>
      <trkpt lat="42.98706" lon="-1.15886167">
        <ele>836.0</ele>
        <time>2019-07-31T16:23:28.156Z</time>
      </trkpt>
      <trkpt lat="42.98705" lon="-1.15884167">
        <ele>837.0</ele>
        <time>2019-07-31T16:23:29.161Z</time>
      </trkpt>
      <trkpt lat="42.987045" lon="-1.15882">
        <ele>837.0</ele>
        <time>2019-07-31T16:23:30.166Z</time>
      </trkpt>
      <trkpt lat="42.98704" lon="-1.158805">
        <ele>836.0</ele>
        <time>2019-07-31T16:23:31.169Z</time>
      </trkpt>
      <trkpt lat="42.98702833" lon="-1.15878167">
        <ele>837.0</ele>
        <time>2019-07-31T16:23:32.174Z</time>
      </trkpt>
      <trkpt lat="42.98702" lon="-1.15876333">
        <ele>837.0</ele>
        <time>2019-07-31T16:23:33.182Z</time>
      </trkpt>
      <trkpt lat="42.98701167" lon="-1.158745">
        <ele>838.0</ele>
        <time>2019-07-31T16:23:34.061Z</time>
      </trkpt>
      <trkpt lat="42.98700833" lon="-1.15873">
        <ele>838.0</ele>
        <time>2019-07-31T16:23:35.067Z</time>
      </trkpt>
      <trkpt lat="42.987005" lon="-1.15871333">
        <ele>838.0</ele>
        <time>2019-07-31T16:23:36.073Z</time>
      </trkpt>
      <trkpt lat="42.987" lon="-1.15869333">
        <ele>838.0</ele>
        <time>2019-07-31T16:23:37.077Z</time>
      </trkpt>
      <trkpt lat="42.98699833" lon="-1.15867833">
        <ele>838.0</ele>
        <time>2019-07-31T16:23:38.084Z</time>
      </trkpt>
      <trkpt lat="42.98699167" lon="-1.15866333">
        <ele>838.0</ele>
        <time>2019-07-31T16:23:39.090Z</time>
      </trkpt>
      <trkpt lat="42.98698833" lon="-1.15865333">
        <ele>838.0</ele>
        <time>2019-07-31T16:23:40.097Z</time>
      </trkpt>
      <trkpt lat="42.98698167" lon="-1.15864167">
        <ele>838.0</ele>
        <time>2019-07-31T16:23:41.103Z</time>
      </trkpt>
      <trkpt lat="42.986975" lon="-1.15862833">
        <ele>838.0</ele>
        <time>2019-07-31T16:23:42.110Z</time>
      </trkpt>
      <trkpt lat="42.98696833" lon="-1.15861833">
        <ele>838.0</ele>
        <time>2019-07-31T16:23:43.116Z</time>
      </trkpt>
      <trkpt lat="42.98696333" lon="-1.15860833">
        <ele>838.0</ele>
        <time>2019-07-31T16:23:44.122Z</time>
      </trkpt>
      <trkpt lat="42.98695667" lon="-1.158595">
        <ele>838.0</ele>
        <time>2019-07-31T16:23:45.126Z</time>
      </trkpt>
      <trkpt lat="42.98695167" lon="-1.15857833">
        <ele>838.0</ele>
        <time>2019-07-31T16:23:46.129Z</time>
      </trkpt>
      <trkpt lat="42.98694667" lon="-1.15856333">
        <ele>838.0</ele>
        <time>2019-07-31T16:23:47.137Z</time>
      </trkpt>
      <trkpt lat="42.98694" lon="-1.15854833">
        <ele>838.0</ele>
        <time>2019-07-31T16:23:48.142Z</time>
      </trkpt>
      <trkpt lat="42.986935" lon="-1.158535">
        <ele>838.0</ele>
        <time>2019-07-31T16:23:49.146Z</time>
      </trkpt>
      <trkpt lat="42.98692667" lon="-1.15852167">
        <ele>838.0</ele>
        <time>2019-07-31T16:23:50.151Z</time>
      </trkpt>
      <trkpt lat="42.98692167" lon="-1.15850833">
        <ele>838.0</ele>
        <time>2019-07-31T16:23:51.157Z</time>
      </trkpt>
      <trkpt lat="42.98691167" lon="-1.158495">
        <ele>838.0</ele>
        <time>2019-07-31T16:23:52.161Z</time>
      </trkpt>
      <trkpt lat="42.98690167" lon="-1.158485">
        <ele>838.0</ele>
        <time>2019-07-31T16:23:53.168Z</time>
      </trkpt>
      <trkpt lat="42.98689" lon="-1.15846833">
        <ele>838.0</ele>
        <time>2019-07-31T16:23:54.174Z</time>
      </trkpt>
      <trkpt lat="42.98688167" lon="-1.15845167">
        <ele>839.0</ele>
        <time>2019-07-31T16:23:55.179Z</time>
      </trkpt>
      <trkpt lat="42.986875" lon="-1.15843667">
        <ele>839.0</ele>
        <time>2019-07-31T16:23:56.184Z</time>
      </trkpt>
      <trkpt lat="42.98686667" lon="-1.15841833">
        <ele>839.0</ele>
        <time>2019-07-31T16:23:57.065Z</time>
      </trkpt>
      <trkpt lat="42.98686" lon="-1.15840667">
        <ele>840.0</ele>
        <time>2019-07-31T16:23:58.069Z</time>
      </trkpt>
      <trkpt lat="42.98685167" lon="-1.15839">
        <ele>840.0</ele>
        <time>2019-07-31T16:23:59.075Z</time>
      </trkpt>
      <trkpt lat="42.986845" lon="-1.158375">
        <ele>840.0</ele>
        <time>2019-07-31T16:24:00.081Z</time>
      </trkpt>
      <trkpt lat="42.98683833" lon="-1.15835833">
        <ele>841.0</ele>
        <time>2019-07-31T16:24:01.086Z</time>
      </trkpt>
      <trkpt lat="42.98683" lon="-1.15833833">
        <ele>842.0</ele>
        <time>2019-07-31T16:24:02.089Z</time>
      </trkpt>
      <trkpt lat="42.98682167" lon="-1.158325">
        <ele>842.0</ele>
        <time>2019-07-31T16:24:03.091Z</time>
      </trkpt>
      <trkpt lat="42.98681333" lon="-1.15831333">
        <ele>843.0</ele>
        <time>2019-07-31T16:24:04.095Z</time>
      </trkpt>
      <trkpt lat="42.98680167" lon="-1.15829667">
        <ele>843.0</ele>
        <time>2019-07-31T16:24:05.098Z</time>
      </trkpt>
      <trkpt lat="42.98679167" lon="-1.15828667">
        <ele>843.0</ele>
        <time>2019-07-31T16:24:06.102Z</time>
      </trkpt>
      <trkpt lat="42.98678333" lon="-1.15827333">
        <ele>843.0</ele>
        <time>2019-07-31T16:24:07.104Z</time>
      </trkpt>
      <trkpt lat="42.98677667" lon="-1.15826167">
        <ele>844.0</ele>
        <time>2019-07-31T16:24:08.110Z</time>
      </trkpt>
      <trkpt lat="42.98677" lon="-1.158245">
        <ele>843.0</ele>
        <time>2019-07-31T16:24:09.116Z</time>
      </trkpt>
      <trkpt lat="42.98676167" lon="-1.15823">
        <ele>844.0</ele>
        <time>2019-07-31T16:24:10.121Z</time>
      </trkpt>
      <trkpt lat="42.986755" lon="-1.15821167">
        <ele>844.0</ele>
        <time>2019-07-31T16:24:11.127Z</time>
      </trkpt>
      <trkpt lat="42.98674833" lon="-1.158195">
        <ele>845.0</ele>
        <time>2019-07-31T16:24:12.134Z</time>
      </trkpt>
      <trkpt lat="42.98673833" lon="-1.15818">
        <ele>845.0</ele>
        <time>2019-07-31T16:24:13.139Z</time>
      </trkpt>
      <trkpt lat="42.98672833" lon="-1.15816167">
        <ele>845.0</ele>
        <time>2019-07-31T16:24:14.145Z</time>
      </trkpt>
      <trkpt lat="42.98672167" lon="-1.15814333">
        <ele>845.0</ele>
        <time>2019-07-31T16:24:15.151Z</time>
      </trkpt>
      <trkpt lat="42.98671333" lon="-1.15812333">
        <ele>845.0</ele>
        <time>2019-07-31T16:24:16.156Z</time>
      </trkpt>
      <trkpt lat="42.98670833" lon="-1.15810333">
        <ele>845.0</ele>
        <time>2019-07-31T16:24:17.163Z</time>
      </trkpt>
      <trkpt lat="42.9867" lon="-1.15808167">
        <ele>845.0</ele>
        <time>2019-07-31T16:24:18.168Z</time>
      </trkpt>
      <trkpt lat="42.986695" lon="-1.158065">
        <ele>845.0</ele>
        <time>2019-07-31T16:24:19.173Z</time>
      </trkpt>
      <trkpt lat="42.98669167" lon="-1.15805">
        <ele>845.0</ele>
        <time>2019-07-31T16:24:20.178Z</time>
      </trkpt>
      <trkpt lat="42.98668167" lon="-1.15803167">
        <ele>846.0</ele>
        <time>2019-07-31T16:24:21.184Z</time>
      </trkpt>
      <trkpt lat="42.98667" lon="-1.158015">
        <ele>845.0</ele>
        <time>2019-07-31T16:24:22.064Z</time>
      </trkpt>
      <trkpt lat="42.986665" lon="-1.158">
        <ele>845.0</ele>
        <time>2019-07-31T16:24:23.071Z</time>
      </trkpt>
      <trkpt lat="42.98666" lon="-1.15798167">
        <ele>844.0</ele>
        <time>2019-07-31T16:24:24.077Z</time>
      </trkpt>
      <trkpt lat="42.98665333" lon="-1.15797167">
        <ele>845.0</ele>
        <time>2019-07-31T16:24:25.083Z</time>
      </trkpt>
      <trkpt lat="42.98664667" lon="-1.15796">
        <ele>845.0</ele>
        <time>2019-07-31T16:24:26.086Z</time>
      </trkpt>
      <trkpt lat="42.98664333" lon="-1.15794">
        <ele>845.0</ele>
        <time>2019-07-31T16:24:27.092Z</time>
      </trkpt>
      <trkpt lat="42.98663167" lon="-1.157915">
        <ele>845.0</ele>
        <time>2019-07-31T16:24:28.097Z</time>
      </trkpt>
      <trkpt lat="42.986625" lon="-1.15789833">
        <ele>845.0</ele>
        <time>2019-07-31T16:24:29.104Z</time>
      </trkpt>
      <trkpt lat="42.986625" lon="-1.15787667">
        <ele>845.0</ele>
        <time>2019-07-31T16:24:30.111Z</time>
      </trkpt>
      <trkpt lat="42.98662" lon="-1.15785333">
        <ele>844.0</ele>
        <time>2019-07-31T16:24:31.117Z</time>
      </trkpt>
      <trkpt lat="42.98662" lon="-1.15783167">
        <ele>842.0</ele>
        <time>2019-07-31T16:24:32.119Z</time>
      </trkpt>
      <trkpt lat="42.98661833" lon="-1.15781333">
        <ele>841.0</ele>
        <time>2019-07-31T16:24:33.125Z</time>
      </trkpt>
      <trkpt lat="42.98661333" lon="-1.15779333">
        <ele>841.0</ele>
        <time>2019-07-31T16:24:34.129Z</time>
      </trkpt>
      <trkpt lat="42.986605" lon="-1.15778167">
        <ele>841.0</ele>
        <time>2019-07-31T16:24:35.136Z</time>
      </trkpt>
      <trkpt lat="42.98660333" lon="-1.15776833">
        <ele>841.0</ele>
        <time>2019-07-31T16:24:36.143Z</time>
      </trkpt>
      <trkpt lat="42.98659667" lon="-1.15774833">
        <ele>841.0</ele>
        <time>2019-07-31T16:24:37.149Z</time>
      </trkpt>
      <trkpt lat="42.98658833" lon="-1.15773">
        <ele>841.0</ele>
        <time>2019-07-31T16:24:38.154Z</time>
      </trkpt>
      <trkpt lat="42.98657833" lon="-1.15770333">
        <ele>841.0</ele>
        <time>2019-07-31T16:24:39.159Z</time>
      </trkpt>
      <trkpt lat="42.98657167" lon="-1.157695">
        <ele>841.0</ele>
        <time>2019-07-31T16:24:40.164Z</time>
      </trkpt>
      <trkpt lat="42.98656667" lon="-1.15768167">
        <ele>841.0</ele>
        <time>2019-07-31T16:24:41.169Z</time>
      </trkpt>
      <trkpt lat="42.98656333" lon="-1.15767">
        <ele>841.0</ele>
        <time>2019-07-31T16:24:42.174Z</time>
      </trkpt>
      <trkpt lat="42.98655833" lon="-1.157655">
        <ele>841.0</ele>
        <time>2019-07-31T16:24:43.181Z</time>
      </trkpt>
      <trkpt lat="42.98655" lon="-1.15764">
        <ele>841.0</ele>
        <time>2019-07-31T16:24:44.061Z</time>
      </trkpt>
      <trkpt lat="42.98654333" lon="-1.157625">
        <ele>841.0</ele>
        <time>2019-07-31T16:24:45.066Z</time>
      </trkpt>
      <trkpt lat="42.986535" lon="-1.15761">
        <ele>841.0</ele>
        <time>2019-07-31T16:24:46.072Z</time>
      </trkpt>
      <trkpt lat="42.98652667" lon="-1.15759667">
        <ele>841.0</ele>
        <time>2019-07-31T16:24:47.078Z</time>
      </trkpt>
      <trkpt lat="42.986515" lon="-1.15758">
        <ele>841.0</ele>
        <time>2019-07-31T16:24:48.084Z</time>
      </trkpt>
      <trkpt lat="42.98650833" lon="-1.157565">
        <ele>842.0</ele>
        <time>2019-07-31T16:24:49.088Z</time>
      </trkpt>
      <trkpt lat="42.98649667" lon="-1.15755167">
        <ele>842.0</ele>
        <time>2019-07-31T16:24:50.091Z</time>
      </trkpt>
      <trkpt lat="42.98648167" lon="-1.15753833">
        <ele>842.0</ele>
        <time>2019-07-31T16:24:51.097Z</time>
      </trkpt>
      <trkpt lat="42.98647" lon="-1.15752667">
        <ele>841.0</ele>
        <time>2019-07-31T16:24:52.101Z</time>
      </trkpt>
      <trkpt lat="42.986455" lon="-1.15751833">
        <ele>841.0</ele>
        <time>2019-07-31T16:24:53.107Z</time>
      </trkpt>
      <trkpt lat="42.98643833" lon="-1.15751167">
        <ele>841.0</ele>
        <time>2019-07-31T16:24:54.114Z</time>
      </trkpt>
      <trkpt lat="42.98642333" lon="-1.157505">
        <ele>841.0</ele>
        <time>2019-07-31T16:24:55.120Z</time>
      </trkpt>
      <trkpt lat="42.98640667" lon="-1.1575">
        <ele>841.0</ele>
        <time>2019-07-31T16:24:56.125Z</time>
      </trkpt>
      <trkpt lat="42.98639" lon="-1.15749667">
        <ele>840.0</ele>
        <time>2019-07-31T16:24:57.130Z</time>
      </trkpt>
      <trkpt lat="42.986375" lon="-1.15749833">
        <ele>840.0</ele>
        <time>2019-07-31T16:24:58.137Z</time>
      </trkpt>
      <trkpt lat="42.98636333" lon="-1.15750667">
        <ele>840.0</ele>
        <time>2019-07-31T16:24:59.142Z</time>
      </trkpt>
      <trkpt lat="42.98635" lon="-1.15751833">
        <ele>839.0</ele>
        <time>2019-07-31T16:25:00.149Z</time>
      </trkpt>
      <trkpt lat="42.98633667" lon="-1.15753333">
        <ele>838.0</ele>
        <time>2019-07-31T16:25:01.155Z</time>
      </trkpt>
      <trkpt lat="42.986325" lon="-1.15755167">
        <ele>838.0</ele>
        <time>2019-07-31T16:25:02.161Z</time>
      </trkpt>
      <trkpt lat="42.98631833" lon="-1.15757167">
        <ele>837.0</ele>
        <time>2019-07-31T16:25:03.166Z</time>
      </trkpt>
      <trkpt lat="42.98630833" lon="-1.15758167">
        <ele>837.0</ele>
        <time>2019-07-31T16:25:04.171Z</time>
      </trkpt>
      <trkpt lat="42.98629667" lon="-1.157595">
        <ele>837.0</ele>
        <time>2019-07-31T16:25:05.174Z</time>
      </trkpt>
      <trkpt lat="42.986285" lon="-1.15760333">
        <ele>837.0</ele>
        <time>2019-07-31T16:25:06.180Z</time>
      </trkpt>
      <trkpt lat="42.98627333" lon="-1.15760667">
        <ele>837.0</ele>
        <time>2019-07-31T16:25:07.061Z</time>
      </trkpt>
      <trkpt lat="42.98625333" lon="-1.15761667">
        <ele>836.0</ele>
        <time>2019-07-31T16:25:08.067Z</time>
      </trkpt>
      <trkpt lat="42.98624" lon="-1.15762667">
        <ele>836.0</ele>
        <time>2019-07-31T16:25:09.073Z</time>
      </trkpt>
      <trkpt lat="42.98622667" lon="-1.15764">
        <ele>836.0</ele>
        <time>2019-07-31T16:25:10.080Z</time>
      </trkpt>
      <trkpt lat="42.986215" lon="-1.15765333">
        <ele>836.0</ele>
        <time>2019-07-31T16:25:11.085Z</time>
      </trkpt>
      <trkpt lat="42.98620333" lon="-1.15766667">
        <ele>836.0</ele>
        <time>2019-07-31T16:25:12.091Z</time>
      </trkpt>
      <trkpt lat="42.98619167" lon="-1.15768167">
        <ele>836.0</ele>
        <time>2019-07-31T16:25:13.097Z</time>
      </trkpt>
      <trkpt lat="42.98618167" lon="-1.15769667">
        <ele>836.0</ele>
        <time>2019-07-31T16:25:14.102Z</time>
      </trkpt>
      <trkpt lat="42.98616833" lon="-1.157715">
        <ele>836.0</ele>
        <time>2019-07-31T16:25:15.109Z</time>
      </trkpt>
      <trkpt lat="42.98616167" lon="-1.15772833">
        <ele>836.0</ele>
        <time>2019-07-31T16:25:16.115Z</time>
      </trkpt>
      <trkpt lat="42.98614833" lon="-1.15774667">
        <ele>835.0</ele>
        <time>2019-07-31T16:25:17.122Z</time>
      </trkpt>
      <trkpt lat="42.98613833" lon="-1.15775833">
        <ele>835.0</ele>
        <time>2019-07-31T16:25:18.126Z</time>
      </trkpt>
      <trkpt lat="42.98612833" lon="-1.15777333">
        <ele>835.0</ele>
        <time>2019-07-31T16:25:19.133Z</time>
      </trkpt>
      <trkpt lat="42.98611667" lon="-1.15779333">
        <ele>835.0</ele>
        <time>2019-07-31T16:25:20.140Z</time>
      </trkpt>
      <trkpt lat="42.986105" lon="-1.15781">
        <ele>835.0</ele>
        <time>2019-07-31T16:25:21.146Z</time>
      </trkpt>
      <trkpt lat="42.98609667" lon="-1.15782333">
        <ele>835.0</ele>
        <time>2019-07-31T16:25:22.153Z</time>
      </trkpt>
      <trkpt lat="42.98608833" lon="-1.15784">
        <ele>834.0</ele>
        <time>2019-07-31T16:25:23.158Z</time>
      </trkpt>
      <trkpt lat="42.98607667" lon="-1.15785667">
        <ele>835.0</ele>
        <time>2019-07-31T16:25:24.162Z</time>
      </trkpt>
      <trkpt lat="42.98606667" lon="-1.157875">
        <ele>835.0</ele>
        <time>2019-07-31T16:25:25.166Z</time>
      </trkpt>
      <trkpt lat="42.98605833" lon="-1.15789">
        <ele>834.0</ele>
        <time>2019-07-31T16:25:26.171Z</time>
      </trkpt>
      <trkpt lat="42.98604833" lon="-1.157905">
        <ele>834.0</ele>
        <time>2019-07-31T16:25:27.178Z</time>
      </trkpt>
      <trkpt lat="42.98604" lon="-1.15792">
        <ele>834.0</ele>
        <time>2019-07-31T16:25:28.183Z</time>
      </trkpt>
      <trkpt lat="42.98603" lon="-1.15793833">
        <ele>834.0</ele>
        <time>2019-07-31T16:25:29.062Z</time>
      </trkpt>
      <trkpt lat="42.98601833" lon="-1.15795333">
        <ele>834.0</ele>
        <time>2019-07-31T16:25:30.066Z</time>
      </trkpt>
      <trkpt lat="42.98600833" lon="-1.15797">
        <ele>834.0</ele>
        <time>2019-07-31T16:25:31.073Z</time>
      </trkpt>
      <trkpt lat="42.98599667" lon="-1.157985">
        <ele>834.0</ele>
        <time>2019-07-31T16:25:32.079Z</time>
      </trkpt>
      <trkpt lat="42.985985" lon="-1.15800167">
        <ele>833.0</ele>
        <time>2019-07-31T16:25:33.085Z</time>
      </trkpt>
      <trkpt lat="42.98597333" lon="-1.15801667">
        <ele>833.0</ele>
        <time>2019-07-31T16:25:34.091Z</time>
      </trkpt>
      <trkpt lat="42.98596333" lon="-1.15803333">
        <ele>833.0</ele>
        <time>2019-07-31T16:25:35.096Z</time>
      </trkpt>
      <trkpt lat="42.985955" lon="-1.15805">
        <ele>833.0</ele>
        <time>2019-07-31T16:25:36.100Z</time>
      </trkpt>
      <trkpt lat="42.98594667" lon="-1.15806667">
        <ele>833.0</ele>
        <time>2019-07-31T16:25:37.105Z</time>
      </trkpt>
      <trkpt lat="42.98593667" lon="-1.15807667">
        <ele>832.0</ele>
        <time>2019-07-31T16:25:38.110Z</time>
      </trkpt>
      <trkpt lat="42.98592667" lon="-1.15809">
        <ele>832.0</ele>
        <time>2019-07-31T16:25:39.116Z</time>
      </trkpt>
      <trkpt lat="42.985915" lon="-1.15810667">
        <ele>832.0</ele>
        <time>2019-07-31T16:25:40.122Z</time>
      </trkpt>
      <trkpt lat="42.98590667" lon="-1.15811667">
        <ele>832.0</ele>
        <time>2019-07-31T16:25:41.125Z</time>
      </trkpt>
      <trkpt lat="42.98589667" lon="-1.15812667">
        <ele>832.0</ele>
        <time>2019-07-31T16:25:42.130Z</time>
      </trkpt>
      <trkpt lat="42.985885" lon="-1.15814167">
        <ele>832.0</ele>
        <time>2019-07-31T16:25:43.134Z</time>
      </trkpt>
      <trkpt lat="42.98587667" lon="-1.15815">
        <ele>832.0</ele>
        <time>2019-07-31T16:25:44.138Z</time>
      </trkpt>
      <trkpt lat="42.98586833" lon="-1.15816167">
        <ele>832.0</ele>
        <time>2019-07-31T16:25:45.141Z</time>
      </trkpt>
      <trkpt lat="42.98585667" lon="-1.15817">
        <ele>832.0</ele>
        <time>2019-07-31T16:25:46.143Z</time>
      </trkpt>
      <trkpt lat="42.98584833" lon="-1.15818167">
        <ele>832.0</ele>
        <time>2019-07-31T16:25:47.150Z</time>
      </trkpt>
      <trkpt lat="42.98583667" lon="-1.15819167">
        <ele>832.0</ele>
        <time>2019-07-31T16:25:48.157Z</time>
      </trkpt>
      <trkpt lat="42.98582833" lon="-1.15820167">
        <ele>832.0</ele>
        <time>2019-07-31T16:25:49.164Z</time>
      </trkpt>
      <trkpt lat="42.98581667" lon="-1.15821333">
        <ele>832.0</ele>
        <time>2019-07-31T16:25:50.170Z</time>
      </trkpt>
      <trkpt lat="42.98580667" lon="-1.15822333">
        <ele>833.0</ele>
        <time>2019-07-31T16:25:51.174Z</time>
      </trkpt>
      <trkpt lat="42.98579333" lon="-1.15822667">
        <ele>834.0</ele>
        <time>2019-07-31T16:25:52.178Z</time>
      </trkpt>
      <trkpt lat="42.98577833" lon="-1.15822833">
        <ele>836.0</ele>
        <time>2019-07-31T16:25:53.182Z</time>
      </trkpt>
      <trkpt lat="42.98576333" lon="-1.15823333">
        <ele>837.0</ele>
        <time>2019-07-31T16:25:54.061Z</time>
      </trkpt>
      <trkpt lat="42.98575" lon="-1.15824167">
        <ele>838.0</ele>
        <time>2019-07-31T16:25:55.067Z</time>
      </trkpt>
      <trkpt lat="42.98573833" lon="-1.15825">
        <ele>839.0</ele>
        <time>2019-07-31T16:25:56.073Z</time>
      </trkpt>
      <trkpt lat="42.98572833" lon="-1.158255">
        <ele>839.0</ele>
        <time>2019-07-31T16:25:57.076Z</time>
      </trkpt>
      <trkpt lat="42.98571667" lon="-1.15826333">
        <ele>840.0</ele>
        <time>2019-07-31T16:25:58.080Z</time>
      </trkpt>
      <trkpt lat="42.985705" lon="-1.15828">
        <ele>840.0</ele>
        <time>2019-07-31T16:25:59.086Z</time>
      </trkpt>
      <trkpt lat="42.98569833" lon="-1.158295">
        <ele>840.0</ele>
        <time>2019-07-31T16:26:00.092Z</time>
      </trkpt>
      <trkpt lat="42.985685" lon="-1.15831333">
        <ele>840.0</ele>
        <time>2019-07-31T16:26:01.099Z</time>
      </trkpt>
      <trkpt lat="42.98567833" lon="-1.15833">
        <ele>840.0</ele>
        <time>2019-07-31T16:26:02.106Z</time>
      </trkpt>
      <trkpt lat="42.98567333" lon="-1.158345">
        <ele>841.0</ele>
        <time>2019-07-31T16:26:03.112Z</time>
      </trkpt>
      <trkpt lat="42.98566667" lon="-1.15835667">
        <ele>841.0</ele>
        <time>2019-07-31T16:26:04.119Z</time>
      </trkpt>
      <trkpt lat="42.98565333" lon="-1.15837">
        <ele>841.0</ele>
        <time>2019-07-31T16:26:05.123Z</time>
      </trkpt>
      <trkpt lat="42.98564167" lon="-1.15838833">
        <ele>840.0</ele>
        <time>2019-07-31T16:26:06.126Z</time>
      </trkpt>
      <trkpt lat="42.98563333" lon="-1.15841">
        <ele>841.0</ele>
        <time>2019-07-31T16:26:07.130Z</time>
      </trkpt>
      <trkpt lat="42.98563" lon="-1.15843">
        <ele>840.0</ele>
        <time>2019-07-31T16:26:08.137Z</time>
      </trkpt>
      <trkpt lat="42.98562333" lon="-1.15845">
        <ele>839.0</ele>
        <time>2019-07-31T16:26:09.142Z</time>
      </trkpt>
      <trkpt lat="42.985615" lon="-1.15847">
        <ele>839.0</ele>
        <time>2019-07-31T16:26:10.147Z</time>
      </trkpt>
      <trkpt lat="42.98559833" lon="-1.15848667">
        <ele>840.0</ele>
        <time>2019-07-31T16:26:11.155Z</time>
      </trkpt>
      <trkpt lat="42.98558833" lon="-1.15850833">
        <ele>840.0</ele>
        <time>2019-07-31T16:26:12.161Z</time>
      </trkpt>
      <trkpt lat="42.98557167" lon="-1.15852333">
        <ele>841.0</ele>
        <time>2019-07-31T16:26:13.166Z</time>
      </trkpt>
      <trkpt lat="42.98555833" lon="-1.15853667">
        <ele>841.0</ele>
        <time>2019-07-31T16:26:14.171Z</time>
      </trkpt>
      <trkpt lat="42.98554833" lon="-1.15854333">
        <ele>841.0</ele>
        <time>2019-07-31T16:26:15.177Z</time>
      </trkpt>
      <trkpt lat="42.98554333" lon="-1.158555">
        <ele>843.0</ele>
        <time>2019-07-31T16:26:16.180Z</time>
      </trkpt>
      <trkpt lat="42.98553667" lon="-1.15855667">
        <ele>843.0</ele>
        <time>2019-07-31T16:26:17.184Z</time>
      </trkpt>
      <trkpt lat="42.98553667" lon="-1.158565">
        <ele>842.0</ele>
        <time>2019-07-31T16:26:18.064Z</time>
      </trkpt>
      <trkpt lat="42.98552833" lon="-1.15857333">
        <ele>842.0</ele>
        <time>2019-07-31T16:26:19.070Z</time>
      </trkpt>
      <trkpt lat="42.98552333" lon="-1.15858667">
        <ele>842.0</ele>
        <time>2019-07-31T16:26:20.075Z</time>
      </trkpt>
      <trkpt lat="42.98552667" lon="-1.15860333">
        <ele>841.0</ele>
        <time>2019-07-31T16:26:21.081Z</time>
      </trkpt>
      <trkpt lat="42.985525" lon="-1.15862333">
        <ele>841.0</ele>
        <time>2019-07-31T16:26:22.085Z</time>
      </trkpt>
      <trkpt lat="42.98552167" lon="-1.15864333">
        <ele>840.0</ele>
        <time>2019-07-31T16:26:23.092Z</time>
      </trkpt>
      <trkpt lat="42.98552167" lon="-1.15865">
        <ele>839.0</ele>
        <time>2019-07-31T16:26:24.098Z</time>
      </trkpt>
      <trkpt lat="42.98552167" lon="-1.15865333">
        <ele>837.0</ele>
        <time>2019-07-31T16:26:25.104Z</time>
      </trkpt>
      <trkpt lat="42.98552667" lon="-1.15865167">
        <ele>836.0</ele>
        <time>2019-07-31T16:26:26.109Z</time>
      </trkpt>
      <trkpt lat="42.98553667" lon="-1.15865167">
        <ele>836.0</ele>
        <time>2019-07-31T16:26:27.115Z</time>
      </trkpt>
      <trkpt lat="42.98553667" lon="-1.158655">
        <ele>837.0</ele>
        <time>2019-07-31T16:26:28.121Z</time>
      </trkpt>
      <trkpt lat="42.98553667" lon="-1.15865667">
        <ele>837.0</ele>
        <time>2019-07-31T16:26:29.125Z</time>
      </trkpt>
      <trkpt lat="42.985535" lon="-1.15865667">
        <ele>837.0</ele>
        <time>2019-07-31T16:26:30.130Z</time>
      </trkpt>
      <trkpt lat="42.98553333" lon="-1.15865667">
        <ele>837.0</ele>
        <time>2019-07-31T16:26:31.136Z</time>
      </trkpt>
      <trkpt lat="42.98553333" lon="-1.15865833">
        <ele>838.0</ele>
        <time>2019-07-31T16:26:32.141Z</time>
      </trkpt>
      <trkpt lat="42.98553167" lon="-1.15866">
        <ele>838.0</ele>
        <time>2019-07-31T16:26:33.145Z</time>
      </trkpt>
      <trkpt lat="42.98553333" lon="-1.15866167">
        <ele>838.0</ele>
        <time>2019-07-31T16:26:34.153Z</time>
      </trkpt>
      <trkpt lat="42.98553167" lon="-1.15866333">
        <ele>838.0</ele>
        <time>2019-07-31T16:26:35.159Z</time>
      </trkpt>
      <trkpt lat="42.98553333" lon="-1.15866667">
        <ele>838.0</ele>
        <time>2019-07-31T16:26:36.164Z</time>
      </trkpt>
      <trkpt lat="42.98553667" lon="-1.15866833">
        <ele>838.0</ele>
        <time>2019-07-31T16:26:37.167Z</time>
      </trkpt>
      <trkpt lat="42.98553833" lon="-1.15867">
        <ele>837.0</ele>
        <time>2019-07-31T16:26:38.173Z</time>
      </trkpt>
      <trkpt lat="42.98553667" lon="-1.158675">
        <ele>837.0</ele>
        <time>2019-07-31T16:26:39.179Z</time>
      </trkpt>
      <trkpt lat="42.98553833" lon="-1.15867667">
        <ele>837.0</ele>
        <time>2019-07-31T16:26:40.184Z</time>
      </trkpt>
      <trkpt lat="42.98554" lon="-1.15867833">
        <ele>837.0</ele>
        <time>2019-07-31T16:26:41.064Z</time>
      </trkpt>
      <trkpt lat="42.98554167" lon="-1.15867833">
        <ele>837.0</ele>
        <time>2019-07-31T16:26:42.067Z</time>
      </trkpt>
      <trkpt lat="42.985545" lon="-1.15867833">
        <ele>837.0</ele>
        <time>2019-07-31T16:26:43.075Z</time>
      </trkpt>
      <trkpt lat="42.98554333" lon="-1.15867833">
        <ele>838.0</ele>
        <time>2019-07-31T16:26:44.079Z</time>
      </trkpt>
      <trkpt lat="42.98554333" lon="-1.15867833">
        <ele>839.0</ele>
        <time>2019-07-31T16:26:45.085Z</time>
      </trkpt>
      <trkpt lat="42.98554167" lon="-1.15867833">
        <ele>840.0</ele>
        <time>2019-07-31T16:26:46.090Z</time>
      </trkpt>
      <trkpt lat="42.98554167" lon="-1.15867667">
        <ele>839.0</ele>
        <time>2019-07-31T16:26:47.095Z</time>
      </trkpt>
      <trkpt lat="42.98554" lon="-1.15867833">
        <ele>839.0</ele>
        <time>2019-07-31T16:26:48.099Z</time>
      </trkpt>
      <trkpt lat="42.98553833" lon="-1.15868">
        <ele>839.0</ele>
        <time>2019-07-31T16:26:49.104Z</time>
      </trkpt>
      <trkpt lat="42.98554" lon="-1.15867833">
        <ele>839.0</ele>
        <time>2019-07-31T16:26:50.110Z</time>
      </trkpt>
      <trkpt lat="42.98554167" lon="-1.15868">
        <ele>838.0</ele>
        <time>2019-07-31T16:26:51.113Z</time>
      </trkpt>
      <trkpt lat="42.98554333" lon="-1.15868">
        <ele>838.0</ele>
        <time>2019-07-31T16:26:52.117Z</time>
      </trkpt>
      <trkpt lat="42.98554167" lon="-1.15867833">
        <ele>838.0</ele>
        <time>2019-07-31T16:26:53.123Z</time>
      </trkpt>
      <trkpt lat="42.98554167" lon="-1.15867833">
        <ele>838.0</ele>
        <time>2019-07-31T16:26:54.128Z</time>
      </trkpt>
      <trkpt lat="42.98554" lon="-1.158675">
        <ele>838.0</ele>
        <time>2019-07-31T16:26:55.134Z</time>
      </trkpt>
      <trkpt lat="42.98554167" lon="-1.15867167">
        <ele>837.0</ele>
        <time>2019-07-31T16:26:56.139Z</time>
      </trkpt>
      <trkpt lat="42.98554167" lon="-1.15867167">
        <ele>836.0</ele>
        <time>2019-07-31T16:26:57.143Z</time>
      </trkpt>
      <trkpt lat="42.98553833" lon="-1.15866833">
        <ele>836.0</ele>
        <time>2019-07-31T16:26:58.149Z</time>
      </trkpt>
      <trkpt lat="42.98553833" lon="-1.15867">
        <ele>836.0</ele>
        <time>2019-07-31T16:26:59.153Z</time>
      </trkpt>
      <trkpt lat="42.98554167" lon="-1.15867">
        <ele>836.0</ele>
        <time>2019-07-31T16:27:00.159Z</time>
      </trkpt>
      <trkpt lat="42.98554333" lon="-1.15867167">
        <ele>836.0</ele>
        <time>2019-07-31T16:27:01.164Z</time>
      </trkpt>
      <trkpt lat="42.98554667" lon="-1.15867">
        <ele>835.0</ele>
        <time>2019-07-31T16:27:02.169Z</time>
      </trkpt>
      <trkpt lat="42.98554833" lon="-1.15866833">
        <ele>835.0</ele>
        <time>2019-07-31T16:27:03.176Z</time>
      </trkpt>
      <trkpt lat="42.98554833" lon="-1.15866833">
        <ele>835.0</ele>
        <time>2019-07-31T16:27:04.181Z</time>
      </trkpt>
      <trkpt lat="42.98555" lon="-1.15866833">
        <ele>835.0</ele>
        <time>2019-07-31T16:27:05.062Z</time>
      </trkpt>
      <trkpt lat="42.98555" lon="-1.15867">
        <ele>835.0</ele>
        <time>2019-07-31T16:27:06.069Z</time>
      </trkpt>
      <trkpt lat="42.985555" lon="-1.15866833">
        <ele>835.0</ele>
        <time>2019-07-31T16:27:07.076Z</time>
      </trkpt>
      <trkpt lat="42.985555" lon="-1.15866833">
        <ele>835.0</ele>
        <time>2019-07-31T16:27:08.083Z</time>
      </trkpt>
      <trkpt lat="42.98555167" lon="-1.15866833">
        <ele>835.0</ele>
        <time>2019-07-31T16:27:09.088Z</time>
      </trkpt>
      <trkpt lat="42.98555" lon="-1.15866833">
        <ele>835.0</ele>
        <time>2019-07-31T16:27:10.094Z</time>
      </trkpt>
      <trkpt lat="42.98555167" lon="-1.15866833">
        <ele>835.0</ele>
        <time>2019-07-31T16:27:11.100Z</time>
      </trkpt>
      <trkpt lat="42.98555167" lon="-1.15866667">
        <ele>835.0</ele>
        <time>2019-07-31T16:27:12.103Z</time>
      </trkpt>
      <trkpt lat="42.98555167" lon="-1.158665">
        <ele>835.0</ele>
        <time>2019-07-31T16:27:13.109Z</time>
      </trkpt>
      <trkpt lat="42.985555" lon="-1.158665">
        <ele>834.0</ele>
        <time>2019-07-31T16:27:14.115Z</time>
      </trkpt>
      <trkpt lat="42.985555" lon="-1.158665">
        <ele>834.0</ele>
        <time>2019-07-31T16:27:15.121Z</time>
      </trkpt>
      <trkpt lat="42.985555" lon="-1.15866333">
        <ele>835.0</ele>
        <time>2019-07-31T16:27:16.125Z</time>
      </trkpt>
      <trkpt lat="42.985555" lon="-1.15866333">
        <ele>835.0</ele>
        <time>2019-07-31T16:27:17.131Z</time>
      </trkpt>
      <trkpt lat="42.98555333" lon="-1.15866333">
        <ele>834.0</ele>
        <time>2019-07-31T16:27:18.135Z</time>
      </trkpt>
      <trkpt lat="42.98555" lon="-1.15866667">
        <ele>834.0</ele>
        <time>2019-07-31T16:27:19.139Z</time>
      </trkpt>
      <trkpt lat="42.98555" lon="-1.158665">
        <ele>834.0</ele>
        <time>2019-07-31T16:27:20.144Z</time>
      </trkpt>
      <trkpt lat="42.98555" lon="-1.15866667">
        <ele>834.0</ele>
        <time>2019-07-31T16:27:21.149Z</time>
      </trkpt>
      <trkpt lat="42.98555333" lon="-1.15866667">
        <ele>834.0</ele>
        <time>2019-07-31T16:27:22.152Z</time>
      </trkpt>
      <trkpt lat="42.985555" lon="-1.15866667">
        <ele>834.0</ele>
        <time>2019-07-31T16:27:23.156Z</time>
      </trkpt>
      <trkpt lat="42.985555" lon="-1.15866833">
        <ele>834.0</ele>
        <time>2019-07-31T16:27:24.162Z</time>
      </trkpt>
      <trkpt lat="42.98555833" lon="-1.15867167">
        <ele>834.0</ele>
        <time>2019-07-31T16:27:25.167Z</time>
      </trkpt>
      <trkpt lat="42.98555833" lon="-1.15867333">
        <ele>834.0</ele>
        <time>2019-07-31T16:27:26.173Z</time>
      </trkpt>
      <trkpt lat="42.98556" lon="-1.15867333">
        <ele>834.0</ele>
        <time>2019-07-31T16:27:27.177Z</time>
      </trkpt>
      <trkpt lat="42.98556333" lon="-1.15867667">
        <ele>835.0</ele>
        <time>2019-07-31T16:27:28.183Z</time>
      </trkpt>
      <trkpt lat="42.98556167" lon="-1.15868167">
        <ele>835.0</ele>
        <time>2019-07-31T16:27:29.063Z</time>
      </trkpt>
      <trkpt lat="42.98556333" lon="-1.15868">
        <ele>834.0</ele>
        <time>2019-07-31T16:27:30.066Z</time>
      </trkpt>
      <trkpt lat="42.98556333" lon="-1.15868">
        <ele>834.0</ele>
        <time>2019-07-31T16:27:31.072Z</time>
      </trkpt>
      <trkpt lat="42.985565" lon="-1.158675">
        <ele>834.0</ele>
        <time>2019-07-31T16:27:32.077Z</time>
      </trkpt>
      <trkpt lat="42.98556667" lon="-1.15867333">
        <ele>834.0</ele>
        <time>2019-07-31T16:27:33.082Z</time>
      </trkpt>
      <trkpt lat="42.985565" lon="-1.15867">
        <ele>834.0</ele>
        <time>2019-07-31T16:27:34.088Z</time>
      </trkpt>
      <trkpt lat="42.985565" lon="-1.15866833">
        <ele>835.0</ele>
        <time>2019-07-31T16:27:35.093Z</time>
      </trkpt>
      <trkpt lat="42.98556667" lon="-1.158665">
        <ele>835.0</ele>
        <time>2019-07-31T16:27:36.101Z</time>
      </trkpt>
      <trkpt lat="42.98556167" lon="-1.15866">
        <ele>835.0</ele>
        <time>2019-07-31T16:27:37.105Z</time>
      </trkpt>
      <trkpt lat="42.985555" lon="-1.158655">
        <ele>836.0</ele>
        <time>2019-07-31T16:27:38.109Z</time>
      </trkpt>
      <trkpt lat="42.98555667" lon="-1.15865833">
        <ele>836.0</ele>
        <time>2019-07-31T16:27:39.116Z</time>
      </trkpt>
      <trkpt lat="42.985555" lon="-1.15866">
        <ele>836.0</ele>
        <time>2019-07-31T16:27:40.120Z</time>
      </trkpt>
      <trkpt lat="42.98555333" lon="-1.15866333">
        <ele>836.0</ele>
        <time>2019-07-31T16:27:41.125Z</time>
      </trkpt>
      <trkpt lat="42.985555" lon="-1.15866667">
        <ele>836.0</ele>
        <time>2019-07-31T16:27:42.128Z</time>
      </trkpt>
      <trkpt lat="42.98555333" lon="-1.158675">
        <ele>835.0</ele>
        <time>2019-07-31T16:27:43.134Z</time>
      </trkpt>
      <trkpt lat="42.98555167" lon="-1.158685">
        <ele>835.0</ele>
        <time>2019-07-31T16:27:44.140Z</time>
      </trkpt>
      <trkpt lat="42.98555" lon="-1.1587">
        <ele>835.0</ele>
        <time>2019-07-31T16:27:45.145Z</time>
      </trkpt>
      <trkpt lat="42.98554667" lon="-1.15871833">
        <ele>835.0</ele>
        <time>2019-07-31T16:27:46.150Z</time>
      </trkpt>
      <trkpt lat="42.98554167" lon="-1.15873833">
        <ele>835.0</ele>
        <time>2019-07-31T16:27:47.156Z</time>
      </trkpt>
      <trkpt lat="42.98553667" lon="-1.15875833">
        <ele>835.0</ele>
        <time>2019-07-31T16:27:48.160Z</time>
      </trkpt>
      <trkpt lat="42.98553" lon="-1.15877667">
        <ele>834.0</ele>
        <time>2019-07-31T16:27:49.165Z</time>
      </trkpt>
      <trkpt lat="42.985525" lon="-1.15879667">
        <ele>834.0</ele>
        <time>2019-07-31T16:27:50.167Z</time>
      </trkpt>
      <trkpt lat="42.98551833" lon="-1.15881667">
        <ele>834.0</ele>
        <time>2019-07-31T16:27:51.171Z</time>
      </trkpt>
      <trkpt lat="42.98551333" lon="-1.15883833">
        <ele>834.0</ele>
        <time>2019-07-31T16:27:52.177Z</time>
      </trkpt>
      <trkpt lat="42.98550833" lon="-1.15885833">
        <ele>834.0</ele>
        <time>2019-07-31T16:27:53.183Z</time>
      </trkpt>
      <trkpt lat="42.98550333" lon="-1.15888167">
        <ele>834.0</ele>
        <time>2019-07-31T16:27:54.062Z</time>
      </trkpt>
      <trkpt lat="42.98549833" lon="-1.15890167">
        <ele>834.0</ele>
        <time>2019-07-31T16:27:55.069Z</time>
      </trkpt>
      <trkpt lat="42.98549667" lon="-1.158925">
        <ele>834.0</ele>
        <time>2019-07-31T16:27:56.074Z</time>
      </trkpt>
      <trkpt lat="42.98549167" lon="-1.158945">
        <ele>834.0</ele>
        <time>2019-07-31T16:27:57.079Z</time>
      </trkpt>
      <trkpt lat="42.98548667" lon="-1.15896833">
        <ele>834.0</ele>
        <time>2019-07-31T16:27:58.084Z</time>
      </trkpt>
      <trkpt lat="42.98548167" lon="-1.15899167">
        <ele>834.0</ele>
        <time>2019-07-31T16:27:59.089Z</time>
      </trkpt>
      <trkpt lat="42.98547667" lon="-1.159015">
        <ele>834.0</ele>
        <time>2019-07-31T16:28:00.094Z</time>
      </trkpt>
      <trkpt lat="42.985475" lon="-1.15903667">
        <ele>834.0</ele>
        <time>2019-07-31T16:28:01.101Z</time>
      </trkpt>
      <trkpt lat="42.98547167" lon="-1.15905833">
        <ele>834.0</ele>
        <time>2019-07-31T16:28:02.106Z</time>
      </trkpt>
      <trkpt lat="42.98546833" lon="-1.15908167">
        <ele>834.0</ele>
        <time>2019-07-31T16:28:03.113Z</time>
      </trkpt>
      <trkpt lat="42.985465" lon="-1.15910167">
        <ele>834.0</ele>
        <time>2019-07-31T16:28:04.120Z</time>
      </trkpt>
      <trkpt lat="42.98546" lon="-1.15912333">
        <ele>834.0</ele>
        <time>2019-07-31T16:28:05.125Z</time>
      </trkpt>
      <trkpt lat="42.98545833" lon="-1.159145">
        <ele>834.0</ele>
        <time>2019-07-31T16:28:06.129Z</time>
      </trkpt>
      <trkpt lat="42.98545167" lon="-1.15916833">
        <ele>834.0</ele>
        <time>2019-07-31T16:28:07.135Z</time>
      </trkpt>
      <trkpt lat="42.98544667" lon="-1.15919">
        <ele>834.0</ele>
        <time>2019-07-31T16:28:08.142Z</time>
      </trkpt>
      <trkpt lat="42.98544333" lon="-1.15921167">
        <ele>834.0</ele>
        <time>2019-07-31T16:28:09.146Z</time>
      </trkpt>
      <trkpt lat="42.98544" lon="-1.159235">
        <ele>834.0</ele>
        <time>2019-07-31T16:28:10.148Z</time>
      </trkpt>
      <trkpt lat="42.985435" lon="-1.15925167">
        <ele>835.0</ele>
        <time>2019-07-31T16:28:11.152Z</time>
      </trkpt>
      <trkpt lat="42.98543167" lon="-1.15927667">
        <ele>835.0</ele>
        <time>2019-07-31T16:28:12.159Z</time>
      </trkpt>
      <trkpt lat="42.98542833" lon="-1.15929167">
        <ele>834.0</ele>
        <time>2019-07-31T16:28:13.163Z</time>
      </trkpt>
      <trkpt lat="42.98542333" lon="-1.15931833">
        <ele>835.0</ele>
        <time>2019-07-31T16:28:14.167Z</time>
      </trkpt>
      <trkpt lat="42.98541833" lon="-1.15933833">
        <ele>834.0</ele>
        <time>2019-07-31T16:28:15.170Z</time>
      </trkpt>
      <trkpt lat="42.98541167" lon="-1.15935833">
        <ele>834.0</ele>
        <time>2019-07-31T16:28:16.175Z</time>
      </trkpt>
      <trkpt lat="42.98540833" lon="-1.15938">
        <ele>834.0</ele>
        <time>2019-07-31T16:28:17.180Z</time>
      </trkpt>
      <trkpt lat="42.98540667" lon="-1.1594">
        <ele>834.0</ele>
        <time>2019-07-31T16:28:18.186Z</time>
      </trkpt>
      <trkpt lat="42.98540333" lon="-1.15942">
        <ele>833.0</ele>
        <time>2019-07-31T16:28:19.065Z</time>
      </trkpt>
      <trkpt lat="42.9854" lon="-1.15944">
        <ele>833.0</ele>
        <time>2019-07-31T16:28:20.071Z</time>
      </trkpt>
      <trkpt lat="42.98539333" lon="-1.15946167">
        <ele>833.0</ele>
        <time>2019-07-31T16:28:21.075Z</time>
      </trkpt>
      <trkpt lat="42.98538833" lon="-1.15948333">
        <ele>833.0</ele>
        <time>2019-07-31T16:28:22.079Z</time>
      </trkpt>
      <trkpt lat="42.98538167" lon="-1.15950333">
        <ele>833.0</ele>
        <time>2019-07-31T16:28:23.083Z</time>
      </trkpt>
      <trkpt lat="42.985375" lon="-1.15952">
        <ele>833.0</ele>
        <time>2019-07-31T16:28:24.087Z</time>
      </trkpt>
      <trkpt lat="42.98537" lon="-1.15953667">
        <ele>833.0</ele>
        <time>2019-07-31T16:28:25.093Z</time>
      </trkpt>
      <trkpt lat="42.98536833" lon="-1.159555">
        <ele>833.0</ele>
        <time>2019-07-31T16:28:26.098Z</time>
      </trkpt>
      <trkpt lat="42.98536667" lon="-1.15957333">
        <ele>833.0</ele>
        <time>2019-07-31T16:28:27.103Z</time>
      </trkpt>
      <trkpt lat="42.98536333" lon="-1.15959167">
        <ele>834.0</ele>
        <time>2019-07-31T16:28:28.106Z</time>
      </trkpt>
      <trkpt lat="42.98535667" lon="-1.15961">
        <ele>834.0</ele>
        <time>2019-07-31T16:28:29.112Z</time>
      </trkpt>
      <trkpt lat="42.98535167" lon="-1.15962833">
        <ele>835.0</ele>
        <time>2019-07-31T16:28:30.117Z</time>
      </trkpt>
      <trkpt lat="42.98535" lon="-1.15964667">
        <ele>836.0</ele>
        <time>2019-07-31T16:28:31.122Z</time>
      </trkpt>
      <trkpt lat="42.98534667" lon="-1.15966333">
        <ele>835.0</ele>
        <time>2019-07-31T16:28:32.127Z</time>
      </trkpt>
      <trkpt lat="42.98534167" lon="-1.15968">
        <ele>834.0</ele>
        <time>2019-07-31T16:28:33.132Z</time>
      </trkpt>
      <trkpt lat="42.985335" lon="-1.15969833">
        <ele>834.0</ele>
        <time>2019-07-31T16:28:34.137Z</time>
      </trkpt>
      <trkpt lat="42.98533167" lon="-1.159715">
        <ele>834.0</ele>
        <time>2019-07-31T16:28:35.143Z</time>
      </trkpt>
      <trkpt lat="42.985325" lon="-1.15972833">
        <ele>834.0</ele>
        <time>2019-07-31T16:28:36.149Z</time>
      </trkpt>
      <trkpt lat="42.98532167" lon="-1.159745">
        <ele>835.0</ele>
        <time>2019-07-31T16:28:37.153Z</time>
      </trkpt>
      <trkpt lat="42.98532" lon="-1.15976">
        <ele>835.0</ele>
        <time>2019-07-31T16:28:38.160Z</time>
      </trkpt>
      <trkpt lat="42.98531667" lon="-1.159775">
        <ele>835.0</ele>
        <time>2019-07-31T16:28:39.164Z</time>
      </trkpt>
      <trkpt lat="42.98531333" lon="-1.15978833">
        <ele>835.0</ele>
        <time>2019-07-31T16:28:40.170Z</time>
      </trkpt>
      <trkpt lat="42.98530833" lon="-1.1598">
        <ele>836.0</ele>
        <time>2019-07-31T16:28:41.175Z</time>
      </trkpt>
      <trkpt lat="42.985305" lon="-1.15981333">
        <ele>836.0</ele>
        <time>2019-07-31T16:28:42.178Z</time>
      </trkpt>
      <trkpt lat="42.98529667" lon="-1.159825">
        <ele>837.0</ele>
        <time>2019-07-31T16:28:43.181Z</time>
      </trkpt>
      <trkpt lat="42.98528833" lon="-1.15983833">
        <ele>838.0</ele>
        <time>2019-07-31T16:28:44.185Z</time>
      </trkpt>
      <trkpt lat="42.98528333" lon="-1.15985333">
        <ele>838.0</ele>
        <time>2019-07-31T16:28:45.065Z</time>
      </trkpt>
      <trkpt lat="42.985275" lon="-1.15986833">
        <ele>838.0</ele>
        <time>2019-07-31T16:28:46.069Z</time>
      </trkpt>
      <trkpt lat="42.98526667" lon="-1.15988">
        <ele>839.0</ele>
        <time>2019-07-31T16:28:47.077Z</time>
      </trkpt>
      <trkpt lat="42.98525833" lon="-1.15989167">
        <ele>839.0</ele>
        <time>2019-07-31T16:28:48.081Z</time>
      </trkpt>
      <trkpt lat="42.98524667" lon="-1.15990333">
        <ele>840.0</ele>
        <time>2019-07-31T16:28:49.086Z</time>
      </trkpt>
      <trkpt lat="42.98524167" lon="-1.15991667">
        <ele>840.0</ele>
        <time>2019-07-31T16:28:50.092Z</time>
      </trkpt>
      <trkpt lat="42.98523333" lon="-1.15992833">
        <ele>840.0</ele>
        <time>2019-07-31T16:28:51.096Z</time>
      </trkpt>
      <trkpt lat="42.98522" lon="-1.15994">
        <ele>841.0</ele>
        <time>2019-07-31T16:28:52.103Z</time>
      </trkpt>
      <trkpt lat="42.98520833" lon="-1.15995333">
        <ele>842.0</ele>
        <time>2019-07-31T16:28:53.107Z</time>
      </trkpt>
      <trkpt lat="42.98520167" lon="-1.15996833">
        <ele>842.0</ele>
        <time>2019-07-31T16:28:54.113Z</time>
      </trkpt>
      <trkpt lat="42.98519667" lon="-1.15998667">
        <ele>842.0</ele>
        <time>2019-07-31T16:28:55.119Z</time>
      </trkpt>
      <trkpt lat="42.98519" lon="-1.16000667">
        <ele>842.0</ele>
        <time>2019-07-31T16:28:56.125Z</time>
      </trkpt>
      <trkpt lat="42.98518167" lon="-1.16002333">
        <ele>842.0</ele>
        <time>2019-07-31T16:28:57.130Z</time>
      </trkpt>
      <trkpt lat="42.985175" lon="-1.160045">
        <ele>843.0</ele>
        <time>2019-07-31T16:28:58.137Z</time>
      </trkpt>
      <trkpt lat="42.98517333" lon="-1.16006167">
        <ele>843.0</ele>
        <time>2019-07-31T16:28:59.143Z</time>
      </trkpt>
      <trkpt lat="42.98517" lon="-1.16008333">
        <ele>843.0</ele>
        <time>2019-07-31T16:29:00.149Z</time>
      </trkpt>
      <trkpt lat="42.98516167" lon="-1.16010167">
        <ele>843.0</ele>
        <time>2019-07-31T16:29:01.155Z</time>
      </trkpt>
      <trkpt lat="42.98515667" lon="-1.16012167">
        <ele>843.0</ele>
        <time>2019-07-31T16:29:02.163Z</time>
      </trkpt>
      <trkpt lat="42.985145" lon="-1.16014167">
        <ele>843.0</ele>
        <time>2019-07-31T16:29:03.167Z</time>
      </trkpt>
      <trkpt lat="42.985135" lon="-1.16016167">
        <ele>843.0</ele>
        <time>2019-07-31T16:29:04.172Z</time>
      </trkpt>
      <trkpt lat="42.98512333" lon="-1.16018167">
        <ele>843.0</ele>
        <time>2019-07-31T16:29:05.178Z</time>
      </trkpt>
      <trkpt lat="42.985115" lon="-1.16020167">
        <ele>843.0</ele>
        <time>2019-07-31T16:29:06.182Z</time>
      </trkpt>
      <trkpt lat="42.98511" lon="-1.16022167">
        <ele>843.0</ele>
        <time>2019-07-31T16:29:07.185Z</time>
      </trkpt>
      <trkpt lat="42.98510333" lon="-1.16023833">
        <ele>844.0</ele>
        <time>2019-07-31T16:29:08.062Z</time>
      </trkpt>
      <trkpt lat="42.98509833" lon="-1.16025667">
        <ele>845.0</ele>
        <time>2019-07-31T16:29:09.067Z</time>
      </trkpt>
      <trkpt lat="42.98508833" lon="-1.16027833">
        <ele>845.0</ele>
        <time>2019-07-31T16:29:10.073Z</time>
      </trkpt>
      <trkpt lat="42.98508" lon="-1.16029333">
        <ele>846.0</ele>
        <time>2019-07-31T16:29:11.079Z</time>
      </trkpt>
      <trkpt lat="42.985075" lon="-1.16031333">
        <ele>846.0</ele>
        <time>2019-07-31T16:29:12.083Z</time>
      </trkpt>
      <trkpt lat="42.985075" lon="-1.16034">
        <ele>846.0</ele>
        <time>2019-07-31T16:29:13.087Z</time>
      </trkpt>
      <trkpt lat="42.98507167" lon="-1.16036667">
        <ele>846.0</ele>
        <time>2019-07-31T16:29:14.092Z</time>
      </trkpt>
      <trkpt lat="42.98506667" lon="-1.16039333">
        <ele>846.0</ele>
        <time>2019-07-31T16:29:15.096Z</time>
      </trkpt>
      <trkpt lat="42.98506167" lon="-1.160415">
        <ele>845.0</ele>
        <time>2019-07-31T16:29:16.099Z</time>
      </trkpt>
      <trkpt lat="42.98505833" lon="-1.16043667">
        <ele>845.0</ele>
        <time>2019-07-31T16:29:17.106Z</time>
      </trkpt>
      <trkpt lat="42.98505167" lon="-1.16046167">
        <ele>844.0</ele>
        <time>2019-07-31T16:29:18.114Z</time>
      </trkpt>
      <trkpt lat="42.98505" lon="-1.16048333">
        <ele>843.0</ele>
        <time>2019-07-31T16:29:19.121Z</time>
      </trkpt>
      <trkpt lat="42.985055" lon="-1.16050833">
        <ele>842.0</ele>
        <time>2019-07-31T16:29:20.125Z</time>
      </trkpt>
      <trkpt lat="42.985055" lon="-1.16053">
        <ele>842.0</ele>
        <time>2019-07-31T16:29:21.129Z</time>
      </trkpt>
      <trkpt lat="42.98505333" lon="-1.16055333">
        <ele>841.0</ele>
        <time>2019-07-31T16:29:22.135Z</time>
      </trkpt>
      <trkpt lat="42.98505167" lon="-1.16057333">
        <ele>841.0</ele>
        <time>2019-07-31T16:29:23.144Z</time>
      </trkpt>
      <trkpt lat="42.98505667" lon="-1.16059333">
        <ele>841.0</ele>
        <time>2019-07-31T16:29:24.149Z</time>
      </trkpt>
      <trkpt lat="42.98506" lon="-1.16061667">
        <ele>841.0</ele>
        <time>2019-07-31T16:29:25.154Z</time>
      </trkpt>
      <trkpt lat="42.98505333" lon="-1.16063667">
        <ele>841.0</ele>
        <time>2019-07-31T16:29:26.157Z</time>
      </trkpt>
      <trkpt lat="42.98505167" lon="-1.16066">
        <ele>840.0</ele>
        <time>2019-07-31T16:29:27.159Z</time>
      </trkpt>
      <trkpt lat="42.98505167" lon="-1.160675">
        <ele>840.0</ele>
        <time>2019-07-31T16:29:28.163Z</time>
      </trkpt>
      <trkpt lat="42.98505167" lon="-1.16069167">
        <ele>840.0</ele>
        <time>2019-07-31T16:29:29.169Z</time>
      </trkpt>
      <trkpt lat="42.98504667" lon="-1.16071667">
        <ele>840.0</ele>
        <time>2019-07-31T16:29:30.172Z</time>
      </trkpt>
      <trkpt lat="42.98504833" lon="-1.16074167">
        <ele>840.0</ele>
        <time>2019-07-31T16:29:31.178Z</time>
      </trkpt>
      <trkpt lat="42.98505333" lon="-1.16076167">
        <ele>839.0</ele>
        <time>2019-07-31T16:29:32.181Z</time>
      </trkpt>
      <trkpt lat="42.985045" lon="-1.16078667">
        <ele>839.0</ele>
        <time>2019-07-31T16:29:33.186Z</time>
      </trkpt>
      <trkpt lat="42.98503833" lon="-1.16081">
        <ele>839.0</ele>
        <time>2019-07-31T16:29:34.064Z</time>
      </trkpt>
      <trkpt lat="42.98503333" lon="-1.16083167">
        <ele>839.0</ele>
        <time>2019-07-31T16:29:35.070Z</time>
      </trkpt>
      <trkpt lat="42.98502667" lon="-1.160855">
        <ele>838.0</ele>
        <time>2019-07-31T16:29:36.075Z</time>
      </trkpt>
      <trkpt lat="42.98502167" lon="-1.16087333">
        <ele>839.0</ele>
        <time>2019-07-31T16:29:37.080Z</time>
      </trkpt>
      <trkpt lat="42.98502167" lon="-1.16089333">
        <ele>840.0</ele>
        <time>2019-07-31T16:29:38.085Z</time>
      </trkpt>
      <trkpt lat="42.98502167" lon="-1.16091333">
        <ele>840.0</ele>
        <time>2019-07-31T16:29:39.092Z</time>
      </trkpt>
      <trkpt lat="42.98502" lon="-1.16093">
        <ele>840.0</ele>
        <time>2019-07-31T16:29:40.097Z</time>
      </trkpt>
      <trkpt lat="42.985015" lon="-1.16094833">
        <ele>840.0</ele>
        <time>2019-07-31T16:29:41.102Z</time>
      </trkpt>
      <trkpt lat="42.985015" lon="-1.16097167">
        <ele>839.0</ele>
        <time>2019-07-31T16:29:42.109Z</time>
      </trkpt>
      <trkpt lat="42.98501333" lon="-1.16099333">
        <ele>839.0</ele>
        <time>2019-07-31T16:29:43.117Z</time>
      </trkpt>
      <trkpt lat="42.98501167" lon="-1.161015">
        <ele>840.0</ele>
        <time>2019-07-31T16:29:44.123Z</time>
      </trkpt>
      <trkpt lat="42.98501333" lon="-1.161035">
        <ele>839.0</ele>
        <time>2019-07-31T16:29:45.126Z</time>
      </trkpt>
      <trkpt lat="42.98501" lon="-1.16105833">
        <ele>839.0</ele>
        <time>2019-07-31T16:29:46.132Z</time>
      </trkpt>
      <trkpt lat="42.98500667" lon="-1.16108">
        <ele>839.0</ele>
        <time>2019-07-31T16:29:47.137Z</time>
      </trkpt>
      <trkpt lat="42.98500333" lon="-1.16110167">
        <ele>840.0</ele>
        <time>2019-07-31T16:29:48.144Z</time>
      </trkpt>
      <trkpt lat="42.985005" lon="-1.16112667">
        <ele>839.0</ele>
        <time>2019-07-31T16:29:49.149Z</time>
      </trkpt>
      <trkpt lat="42.98500833" lon="-1.16114833">
        <ele>839.0</ele>
        <time>2019-07-31T16:29:50.155Z</time>
      </trkpt>
      <trkpt lat="42.98500667" lon="-1.16117167">
        <ele>839.0</ele>
        <time>2019-07-31T16:29:51.160Z</time>
      </trkpt>
      <trkpt lat="42.98500333" lon="-1.16119667">
        <ele>838.0</ele>
        <time>2019-07-31T16:29:52.165Z</time>
      </trkpt>
      <trkpt lat="42.98500667" lon="-1.16122167">
        <ele>838.0</ele>
        <time>2019-07-31T16:29:53.169Z</time>
      </trkpt>
      <trkpt lat="42.985" lon="-1.161245">
        <ele>838.0</ele>
        <time>2019-07-31T16:29:54.173Z</time>
      </trkpt>
      <trkpt lat="42.98499667" lon="-1.16126833">
        <ele>838.0</ele>
        <time>2019-07-31T16:29:55.178Z</time>
      </trkpt>
      <trkpt lat="42.98500333" lon="-1.16128833">
        <ele>838.0</ele>
        <time>2019-07-31T16:29:56.182Z</time>
      </trkpt>
      <trkpt lat="42.985" lon="-1.16131333">
        <ele>838.0</ele>
        <time>2019-07-31T16:29:57.061Z</time>
      </trkpt>
      <trkpt lat="42.98499667" lon="-1.16134167">
        <ele>839.0</ele>
        <time>2019-07-31T16:29:58.067Z</time>
      </trkpt>
      <trkpt lat="42.98500167" lon="-1.16137">
        <ele>840.0</ele>
        <time>2019-07-31T16:29:59.073Z</time>
      </trkpt>
      <trkpt lat="42.98500667" lon="-1.16139667">
        <ele>840.0</ele>
        <time>2019-07-31T16:30:00.079Z</time>
      </trkpt>
      <trkpt lat="42.98501333" lon="-1.16142">
        <ele>841.0</ele>
        <time>2019-07-31T16:30:01.084Z</time>
      </trkpt>
      <trkpt lat="42.985025" lon="-1.16143667">
        <ele>841.0</ele>
        <time>2019-07-31T16:30:02.089Z</time>
      </trkpt>
      <trkpt lat="42.98503" lon="-1.161455">
        <ele>841.0</ele>
        <time>2019-07-31T16:30:03.095Z</time>
      </trkpt>
      <trkpt lat="42.98503333" lon="-1.16147667">
        <ele>842.0</ele>
        <time>2019-07-31T16:30:04.101Z</time>
      </trkpt>
      <trkpt lat="42.98503833" lon="-1.16149333">
        <ele>841.0</ele>
        <time>2019-07-31T16:30:05.106Z</time>
      </trkpt>
      <trkpt lat="42.98504167" lon="-1.16151333">
        <ele>841.0</ele>
        <time>2019-07-31T16:30:06.113Z</time>
      </trkpt>
      <trkpt lat="42.98504833" lon="-1.16152833">
        <ele>841.0</ele>
        <time>2019-07-31T16:30:07.120Z</time>
      </trkpt>
      <trkpt lat="42.98506" lon="-1.161545">
        <ele>842.0</ele>
        <time>2019-07-31T16:30:08.124Z</time>
      </trkpt>
      <trkpt lat="42.985055" lon="-1.16156167">
        <ele>841.0</ele>
        <time>2019-07-31T16:30:09.129Z</time>
      </trkpt>
      <trkpt lat="42.98505833" lon="-1.16157667">
        <ele>841.0</ele>
        <time>2019-07-31T16:30:10.133Z</time>
      </trkpt>
      <trkpt lat="42.98506667" lon="-1.16158667">
        <ele>842.0</ele>
        <time>2019-07-31T16:30:11.136Z</time>
      </trkpt>
      <trkpt lat="42.98507667" lon="-1.16160333">
        <ele>842.0</ele>
        <time>2019-07-31T16:30:12.139Z</time>
      </trkpt>
      <trkpt lat="42.98508333" lon="-1.16161667">
        <ele>842.0</ele>
        <time>2019-07-31T16:30:13.143Z</time>
      </trkpt>
      <trkpt lat="42.98508833" lon="-1.161635">
        <ele>842.0</ele>
        <time>2019-07-31T16:30:14.148Z</time>
      </trkpt>
      <trkpt lat="42.98509333" lon="-1.16165833">
        <ele>843.0</ele>
        <time>2019-07-31T16:30:15.153Z</time>
      </trkpt>
      <trkpt lat="42.98510333" lon="-1.161685">
        <ele>844.0</ele>
        <time>2019-07-31T16:30:16.157Z</time>
      </trkpt>
      <trkpt lat="42.98510833" lon="-1.16170333">
        <ele>843.0</ele>
        <time>2019-07-31T16:30:17.164Z</time>
      </trkpt>
      <trkpt lat="42.98512167" lon="-1.16172">
        <ele>843.0</ele>
        <time>2019-07-31T16:30:18.167Z</time>
      </trkpt>
      <trkpt lat="42.98513167" lon="-1.16173667">
        <ele>843.0</ele>
        <time>2019-07-31T16:30:19.173Z</time>
      </trkpt>
      <trkpt lat="42.98513667" lon="-1.16175667">
        <ele>843.0</ele>
        <time>2019-07-31T16:30:20.178Z</time>
      </trkpt>
      <trkpt lat="42.98514167" lon="-1.16177833">
        <ele>843.0</ele>
        <time>2019-07-31T16:30:21.184Z</time>
      </trkpt>
      <trkpt lat="42.985145" lon="-1.16179333">
        <ele>843.0</ele>
        <time>2019-07-31T16:30:22.065Z</time>
      </trkpt>
      <trkpt lat="42.98515167" lon="-1.16181">
        <ele>843.0</ele>
        <time>2019-07-31T16:30:23.072Z</time>
      </trkpt>
      <trkpt lat="42.98516333" lon="-1.16182167">
        <ele>842.0</ele>
        <time>2019-07-31T16:30:24.076Z</time>
      </trkpt>
      <trkpt lat="42.98517167" lon="-1.16183667">
        <ele>841.0</ele>
        <time>2019-07-31T16:30:25.080Z</time>
      </trkpt>
      <trkpt lat="42.98517833" lon="-1.16185333">
        <ele>841.0</ele>
        <time>2019-07-31T16:30:26.084Z</time>
      </trkpt>
      <trkpt lat="42.985185" lon="-1.161875">
        <ele>841.0</ele>
        <time>2019-07-31T16:30:27.088Z</time>
      </trkpt>
      <trkpt lat="42.98519333" lon="-1.1619">
        <ele>840.0</ele>
        <time>2019-07-31T16:30:28.089Z</time>
      </trkpt>
      <trkpt lat="42.98520167" lon="-1.16192833">
        <ele>840.0</ele>
        <time>2019-07-31T16:30:29.094Z</time>
      </trkpt>
      <trkpt lat="42.98521167" lon="-1.16195167">
        <ele>840.0</ele>
        <time>2019-07-31T16:30:30.101Z</time>
      </trkpt>
      <trkpt lat="42.98521833" lon="-1.16196667">
        <ele>841.0</ele>
        <time>2019-07-31T16:30:31.108Z</time>
      </trkpt>
      <trkpt lat="42.98522833" lon="-1.161985">
        <ele>842.0</ele>
        <time>2019-07-31T16:30:32.114Z</time>
      </trkpt>
      <trkpt lat="42.98523833" lon="-1.16200167">
        <ele>842.0</ele>
        <time>2019-07-31T16:30:33.120Z</time>
      </trkpt>
      <trkpt lat="42.98524667" lon="-1.16202">
        <ele>842.0</ele>
        <time>2019-07-31T16:30:34.127Z</time>
      </trkpt>
      <trkpt lat="42.985255" lon="-1.16204">
        <ele>841.0</ele>
        <time>2019-07-31T16:30:35.131Z</time>
      </trkpt>
      <trkpt lat="42.985265" lon="-1.16206167">
        <ele>841.0</ele>
        <time>2019-07-31T16:30:36.137Z</time>
      </trkpt>
      <trkpt lat="42.98527333" lon="-1.16207833">
        <ele>841.0</ele>
        <time>2019-07-31T16:30:37.143Z</time>
      </trkpt>
      <trkpt lat="42.98528333" lon="-1.16210167">
        <ele>841.0</ele>
        <time>2019-07-31T16:30:38.148Z</time>
      </trkpt>
      <trkpt lat="42.98528833" lon="-1.16212333">
        <ele>841.0</ele>
        <time>2019-07-31T16:30:39.151Z</time>
      </trkpt>
      <trkpt lat="42.98529833" lon="-1.16214667">
        <ele>842.0</ele>
        <time>2019-07-31T16:30:40.155Z</time>
      </trkpt>
      <trkpt lat="42.98531167" lon="-1.16217167">
        <ele>843.0</ele>
        <time>2019-07-31T16:30:41.159Z</time>
      </trkpt>
      <trkpt lat="42.98532" lon="-1.16219667">
        <ele>842.0</ele>
        <time>2019-07-31T16:30:42.163Z</time>
      </trkpt>
      <trkpt lat="42.98532833" lon="-1.16222">
        <ele>843.0</ele>
        <time>2019-07-31T16:30:43.169Z</time>
      </trkpt>
      <trkpt lat="42.985335" lon="-1.16224333">
        <ele>843.0</ele>
        <time>2019-07-31T16:30:44.175Z</time>
      </trkpt>
      <trkpt lat="42.98534167" lon="-1.16226333">
        <ele>843.0</ele>
        <time>2019-07-31T16:30:45.180Z</time>
      </trkpt>
      <trkpt lat="42.98534" lon="-1.16228">
        <ele>843.0</ele>
        <time>2019-07-31T16:30:46.183Z</time>
      </trkpt>
      <trkpt lat="42.98534" lon="-1.1623">
        <ele>842.0</ele>
        <time>2019-07-31T16:30:47.064Z</time>
      </trkpt>
      <trkpt lat="42.985345" lon="-1.16232">
        <ele>841.0</ele>
        <time>2019-07-31T16:30:48.067Z</time>
      </trkpt>
      <trkpt lat="42.98534833" lon="-1.16234667">
        <ele>839.0</ele>
        <time>2019-07-31T16:30:49.072Z</time>
      </trkpt>
      <trkpt lat="42.98535167" lon="-1.16237167">
        <ele>839.0</ele>
        <time>2019-07-31T16:30:50.077Z</time>
      </trkpt>
      <trkpt lat="42.98535833" lon="-1.16239">
        <ele>839.0</ele>
        <time>2019-07-31T16:30:51.084Z</time>
      </trkpt>
      <trkpt lat="42.98536167" lon="-1.16241333">
        <ele>839.0</ele>
        <time>2019-07-31T16:30:52.088Z</time>
      </trkpt>
      <trkpt lat="42.98536333" lon="-1.16243333">
        <ele>839.0</ele>
        <time>2019-07-31T16:30:53.094Z</time>
      </trkpt>
      <trkpt lat="42.98536833" lon="-1.16245667">
        <ele>839.0</ele>
        <time>2019-07-31T16:30:54.101Z</time>
      </trkpt>
      <trkpt lat="42.98537167" lon="-1.16247833">
        <ele>838.0</ele>
        <time>2019-07-31T16:30:55.107Z</time>
      </trkpt>
      <trkpt lat="42.98537667" lon="-1.16249667">
        <ele>837.0</ele>
        <time>2019-07-31T16:30:56.113Z</time>
      </trkpt>
      <trkpt lat="42.98538" lon="-1.162515">
        <ele>837.0</ele>
        <time>2019-07-31T16:30:57.120Z</time>
      </trkpt>
      <trkpt lat="42.98538167" lon="-1.16253667">
        <ele>837.0</ele>
        <time>2019-07-31T16:30:58.125Z</time>
      </trkpt>
      <trkpt lat="42.98538167" lon="-1.16256167">
        <ele>837.0</ele>
        <time>2019-07-31T16:30:59.130Z</time>
      </trkpt>
      <trkpt lat="42.98538333" lon="-1.162585">
        <ele>836.0</ele>
        <time>2019-07-31T16:31:00.135Z</time>
      </trkpt>
      <trkpt lat="42.98538333" lon="-1.16260833">
        <ele>836.0</ele>
        <time>2019-07-31T16:31:01.142Z</time>
      </trkpt>
      <trkpt lat="42.985385" lon="-1.16263167">
        <ele>836.0</ele>
        <time>2019-07-31T16:31:02.148Z</time>
      </trkpt>
      <trkpt lat="42.98539167" lon="-1.16265333">
        <ele>837.0</ele>
        <time>2019-07-31T16:31:03.154Z</time>
      </trkpt>
      <trkpt lat="42.98539667" lon="-1.16267333">
        <ele>837.0</ele>
        <time>2019-07-31T16:31:04.161Z</time>
      </trkpt>
      <trkpt lat="42.98540333" lon="-1.16269167">
        <ele>836.0</ele>
        <time>2019-07-31T16:31:05.167Z</time>
      </trkpt>
      <trkpt lat="42.98540833" lon="-1.16271667">
        <ele>836.0</ele>
        <time>2019-07-31T16:31:06.171Z</time>
      </trkpt>
      <trkpt lat="42.98541167" lon="-1.16273667">
        <ele>835.0</ele>
        <time>2019-07-31T16:31:07.178Z</time>
      </trkpt>
      <trkpt lat="42.98541333" lon="-1.16275667">
        <ele>835.0</ele>
        <time>2019-07-31T16:31:08.183Z</time>
      </trkpt>
      <trkpt lat="42.985415" lon="-1.16277333">
        <ele>834.0</ele>
        <time>2019-07-31T16:31:09.063Z</time>
      </trkpt>
      <trkpt lat="42.98541833" lon="-1.16279167">
        <ele>833.0</ele>
        <time>2019-07-31T16:31:10.066Z</time>
      </trkpt>
      <trkpt lat="42.98542333" lon="-1.16281167">
        <ele>832.0</ele>
        <time>2019-07-31T16:31:11.070Z</time>
      </trkpt>
      <trkpt lat="42.98542667" lon="-1.16283333">
        <ele>832.0</ele>
        <time>2019-07-31T16:31:12.077Z</time>
      </trkpt>
      <trkpt lat="42.98543" lon="-1.16285333">
        <ele>831.0</ele>
        <time>2019-07-31T16:31:13.083Z</time>
      </trkpt>
      <trkpt lat="42.985435" lon="-1.16287333">
        <ele>830.0</ele>
        <time>2019-07-31T16:31:14.089Z</time>
      </trkpt>
      <trkpt lat="42.98543833" lon="-1.162895">
        <ele>830.0</ele>
        <time>2019-07-31T16:31:15.095Z</time>
      </trkpt>
      <trkpt lat="42.98544167" lon="-1.162915">
        <ele>829.0</ele>
        <time>2019-07-31T16:31:16.101Z</time>
      </trkpt>
      <trkpt lat="42.985445" lon="-1.16293667">
        <ele>828.0</ele>
        <time>2019-07-31T16:31:17.108Z</time>
      </trkpt>
      <trkpt lat="42.98545" lon="-1.162955">
        <ele>827.0</ele>
        <time>2019-07-31T16:31:18.114Z</time>
      </trkpt>
      <trkpt lat="42.98545333" lon="-1.162975">
        <ele>826.0</ele>
        <time>2019-07-31T16:31:19.119Z</time>
      </trkpt>
      <trkpt lat="42.98545833" lon="-1.16299667">
        <ele>826.0</ele>
        <time>2019-07-31T16:31:20.125Z</time>
      </trkpt>
      <trkpt lat="42.98546167" lon="-1.16301167">
        <ele>825.0</ele>
        <time>2019-07-31T16:31:21.129Z</time>
      </trkpt>
      <trkpt lat="42.98546333" lon="-1.16303667">
        <ele>825.0</ele>
        <time>2019-07-31T16:31:22.135Z</time>
      </trkpt>
      <trkpt lat="42.98546833" lon="-1.16305667">
        <ele>824.0</ele>
        <time>2019-07-31T16:31:23.140Z</time>
      </trkpt>
      <trkpt lat="42.98547167" lon="-1.16307833">
        <ele>824.0</ele>
        <time>2019-07-31T16:31:24.146Z</time>
      </trkpt>
      <trkpt lat="42.98547167" lon="-1.163095">
        <ele>824.0</ele>
        <time>2019-07-31T16:31:25.152Z</time>
      </trkpt>
      <trkpt lat="42.98547167" lon="-1.163115">
        <ele>823.0</ele>
        <time>2019-07-31T16:31:26.158Z</time>
      </trkpt>
      <trkpt lat="42.98547333" lon="-1.16313333">
        <ele>823.0</ele>
        <time>2019-07-31T16:31:27.164Z</time>
      </trkpt>
      <trkpt lat="42.98547333" lon="-1.16315167">
        <ele>822.0</ele>
        <time>2019-07-31T16:31:28.169Z</time>
      </trkpt>
      <trkpt lat="42.98547" lon="-1.16317333">
        <ele>822.0</ele>
        <time>2019-07-31T16:31:29.175Z</time>
      </trkpt>
      <trkpt lat="42.98546833" lon="-1.16319333">
        <ele>821.0</ele>
        <time>2019-07-31T16:31:30.179Z</time>
      </trkpt>
      <trkpt lat="42.985465" lon="-1.16321">
        <ele>821.0</ele>
        <time>2019-07-31T16:31:31.061Z</time>
      </trkpt>
      <trkpt lat="42.98546167" lon="-1.16323167">
        <ele>820.0</ele>
        <time>2019-07-31T16:31:32.066Z</time>
      </trkpt>
      <trkpt lat="42.98546" lon="-1.16325167">
        <ele>820.0</ele>
        <time>2019-07-31T16:31:33.071Z</time>
      </trkpt>
      <trkpt lat="42.98545667" lon="-1.16327167">
        <ele>819.0</ele>
        <time>2019-07-31T16:31:34.075Z</time>
      </trkpt>
      <trkpt lat="42.98545333" lon="-1.16329167">
        <ele>819.0</ele>
        <time>2019-07-31T16:31:35.082Z</time>
      </trkpt>
      <trkpt lat="42.98545" lon="-1.16331333">
        <ele>818.0</ele>
        <time>2019-07-31T16:31:36.086Z</time>
      </trkpt>
      <trkpt lat="42.985445" lon="-1.16333167">
        <ele>818.0</ele>
        <time>2019-07-31T16:31:37.093Z</time>
      </trkpt>
      <trkpt lat="42.98544333" lon="-1.16335333">
        <ele>818.0</ele>
        <time>2019-07-31T16:31:38.096Z</time>
      </trkpt>
      <trkpt lat="42.98544167" lon="-1.16337167">
        <ele>817.0</ele>
        <time>2019-07-31T16:31:39.102Z</time>
      </trkpt>
      <trkpt lat="42.98543833" lon="-1.16338833">
        <ele>817.0</ele>
        <time>2019-07-31T16:31:40.108Z</time>
      </trkpt>
      <trkpt lat="42.985435" lon="-1.16341333">
        <ele>817.0</ele>
        <time>2019-07-31T16:31:41.112Z</time>
      </trkpt>
      <trkpt lat="42.98543167" lon="-1.16343333">
        <ele>817.0</ele>
        <time>2019-07-31T16:31:42.118Z</time>
      </trkpt>
      <trkpt lat="42.98542833" lon="-1.16345333">
        <ele>817.0</ele>
        <time>2019-07-31T16:31:43.125Z</time>
      </trkpt>
      <trkpt lat="42.98542833" lon="-1.16346833">
        <ele>817.0</ele>
        <time>2019-07-31T16:31:44.130Z</time>
      </trkpt>
      <trkpt lat="42.98542833" lon="-1.16348833">
        <ele>816.0</ele>
        <time>2019-07-31T16:31:45.133Z</time>
      </trkpt>
      <trkpt lat="42.98542167" lon="-1.16350833">
        <ele>817.0</ele>
        <time>2019-07-31T16:31:46.140Z</time>
      </trkpt>
      <trkpt lat="42.98541833" lon="-1.16353333">
        <ele>817.0</ele>
        <time>2019-07-31T16:31:47.145Z</time>
      </trkpt>
      <trkpt lat="42.98541333" lon="-1.16355333">
        <ele>816.0</ele>
        <time>2019-07-31T16:31:48.152Z</time>
      </trkpt>
      <trkpt lat="42.98541" lon="-1.16357">
        <ele>816.0</ele>
        <time>2019-07-31T16:31:49.159Z</time>
      </trkpt>
      <trkpt lat="42.98540833" lon="-1.16359333">
        <ele>816.0</ele>
        <time>2019-07-31T16:31:50.165Z</time>
      </trkpt>
      <trkpt lat="42.985405" lon="-1.16361667">
        <ele>817.0</ele>
        <time>2019-07-31T16:31:51.168Z</time>
      </trkpt>
      <trkpt lat="42.98540333" lon="-1.16364">
        <ele>817.0</ele>
        <time>2019-07-31T16:31:52.170Z</time>
      </trkpt>
      <trkpt lat="42.98540333" lon="-1.16365667">
        <ele>817.0</ele>
        <time>2019-07-31T16:31:53.173Z</time>
      </trkpt>
      <trkpt lat="42.98540667" lon="-1.16368">
        <ele>817.0</ele>
        <time>2019-07-31T16:31:54.180Z</time>
      </trkpt>
      <trkpt lat="42.98540833" lon="-1.16369833">
        <ele>817.0</ele>
        <time>2019-07-31T16:31:55.186Z</time>
      </trkpt>
      <trkpt lat="42.98540833" lon="-1.16371833">
        <ele>817.0</ele>
        <time>2019-07-31T16:31:56.066Z</time>
      </trkpt>
      <trkpt lat="42.98541167" lon="-1.16373833">
        <ele>817.0</ele>
        <time>2019-07-31T16:31:57.072Z</time>
      </trkpt>
      <trkpt lat="42.985415" lon="-1.16375667">
        <ele>816.0</ele>
        <time>2019-07-31T16:31:58.077Z</time>
      </trkpt>
      <trkpt lat="42.98542" lon="-1.16377833">
        <ele>816.0</ele>
        <time>2019-07-31T16:31:59.083Z</time>
      </trkpt>
      <trkpt lat="42.98542833" lon="-1.16379833">
        <ele>816.0</ele>
        <time>2019-07-31T16:32:00.087Z</time>
      </trkpt>
      <trkpt lat="42.985435" lon="-1.16381833">
        <ele>816.0</ele>
        <time>2019-07-31T16:32:01.092Z</time>
      </trkpt>
      <trkpt lat="42.98544167" lon="-1.163835">
        <ele>815.0</ele>
        <time>2019-07-31T16:32:02.098Z</time>
      </trkpt>
      <trkpt lat="42.98545167" lon="-1.163855">
        <ele>815.0</ele>
        <time>2019-07-31T16:32:03.105Z</time>
      </trkpt>
      <trkpt lat="42.98546167" lon="-1.16387333">
        <ele>815.0</ele>
        <time>2019-07-31T16:32:04.110Z</time>
      </trkpt>
      <trkpt lat="42.98547333" lon="-1.16389333">
        <ele>815.0</ele>
        <time>2019-07-31T16:32:05.117Z</time>
      </trkpt>
      <trkpt lat="42.985485" lon="-1.16391">
        <ele>815.0</ele>
        <time>2019-07-31T16:32:06.124Z</time>
      </trkpt>
      <trkpt lat="42.98549833" lon="-1.163925">
        <ele>814.0</ele>
        <time>2019-07-31T16:32:07.130Z</time>
      </trkpt>
      <trkpt lat="42.98551" lon="-1.16394333">
        <ele>815.0</ele>
        <time>2019-07-31T16:32:08.136Z</time>
      </trkpt>
      <trkpt lat="42.98552333" lon="-1.16396">
        <ele>814.0</ele>
        <time>2019-07-31T16:32:09.141Z</time>
      </trkpt>
      <trkpt lat="42.98553833" lon="-1.16397333">
        <ele>814.0</ele>
        <time>2019-07-31T16:32:10.146Z</time>
      </trkpt>
      <trkpt lat="42.98555" lon="-1.163985">
        <ele>814.0</ele>
        <time>2019-07-31T16:32:11.149Z</time>
      </trkpt>
      <trkpt lat="42.98556167" lon="-1.163995">
        <ele>815.0</ele>
        <time>2019-07-31T16:32:12.150Z</time>
      </trkpt>
      <trkpt lat="42.98557667" lon="-1.16400667">
        <ele>814.0</ele>
        <time>2019-07-31T16:32:13.157Z</time>
      </trkpt>
      <trkpt lat="42.98559" lon="-1.16401833">
        <ele>814.0</ele>
        <time>2019-07-31T16:32:14.162Z</time>
      </trkpt>
      <trkpt lat="42.98560333" lon="-1.16403">
        <ele>814.0</ele>
        <time>2019-07-31T16:32:15.167Z</time>
      </trkpt>
      <trkpt lat="42.985615" lon="-1.16404">
        <ele>815.0</ele>
        <time>2019-07-31T16:32:16.172Z</time>
      </trkpt>
      <trkpt lat="42.98562333" lon="-1.164045">
        <ele>814.0</ele>
        <time>2019-07-31T16:32:17.178Z</time>
      </trkpt>
      <trkpt lat="42.98563833" lon="-1.16405667">
        <ele>815.0</ele>
        <time>2019-07-31T16:32:18.184Z</time>
      </trkpt>
      <trkpt lat="42.98565" lon="-1.16406667">
        <ele>815.0</ele>
        <time>2019-07-31T16:32:19.065Z</time>
      </trkpt>
      <trkpt lat="42.98566333" lon="-1.16408">
        <ele>815.0</ele>
        <time>2019-07-31T16:32:20.069Z</time>
      </trkpt>
      <trkpt lat="42.98567667" lon="-1.16409167">
        <ele>816.0</ele>
        <time>2019-07-31T16:32:21.071Z</time>
      </trkpt>
      <trkpt lat="42.98569" lon="-1.16410667">
        <ele>816.0</ele>
        <time>2019-07-31T16:32:22.074Z</time>
      </trkpt>
      <trkpt lat="42.98570333" lon="-1.16411833">
        <ele>817.0</ele>
        <time>2019-07-31T16:32:23.078Z</time>
      </trkpt>
      <trkpt lat="42.98571833" lon="-1.16413">
        <ele>817.0</ele>
        <time>2019-07-31T16:32:24.084Z</time>
      </trkpt>
      <trkpt lat="42.98572667" lon="-1.16414167">
        <ele>817.0</ele>
        <time>2019-07-31T16:32:25.087Z</time>
      </trkpt>
      <trkpt lat="42.98573333" lon="-1.16415667">
        <ele>818.0</ele>
        <time>2019-07-31T16:32:26.092Z</time>
      </trkpt>
      <trkpt lat="42.98574333" lon="-1.16417333">
        <ele>819.0</ele>
        <time>2019-07-31T16:32:27.095Z</time>
      </trkpt>
      <trkpt lat="42.985755" lon="-1.16418833">
        <ele>821.0</ele>
        <time>2019-07-31T16:32:28.099Z</time>
      </trkpt>
      <trkpt lat="42.98576833" lon="-1.16420333">
        <ele>822.0</ele>
        <time>2019-07-31T16:32:29.105Z</time>
      </trkpt>
      <trkpt lat="42.98578" lon="-1.16422167">
        <ele>823.0</ele>
        <time>2019-07-31T16:32:30.112Z</time>
      </trkpt>
      <trkpt lat="42.985795" lon="-1.16423667">
        <ele>824.0</ele>
        <time>2019-07-31T16:32:31.116Z</time>
      </trkpt>
      <trkpt lat="42.98581" lon="-1.16425167">
        <ele>825.0</ele>
        <time>2019-07-31T16:32:32.123Z</time>
      </trkpt>
      <trkpt lat="42.98582333" lon="-1.16426667">
        <ele>826.0</ele>
        <time>2019-07-31T16:32:33.129Z</time>
      </trkpt>
      <trkpt lat="42.98583333" lon="-1.16428">
        <ele>827.0</ele>
        <time>2019-07-31T16:32:34.134Z</time>
      </trkpt>
      <trkpt lat="42.985845" lon="-1.164295">
        <ele>828.0</ele>
        <time>2019-07-31T16:32:35.138Z</time>
      </trkpt>
      <trkpt lat="42.98586" lon="-1.16431">
        <ele>829.0</ele>
        <time>2019-07-31T16:32:36.143Z</time>
      </trkpt>
      <trkpt lat="42.98587333" lon="-1.16432">
        <ele>830.0</ele>
        <time>2019-07-31T16:32:37.151Z</time>
      </trkpt>
      <trkpt lat="42.98589" lon="-1.16433333">
        <ele>831.0</ele>
        <time>2019-07-31T16:32:38.159Z</time>
      </trkpt>
      <trkpt lat="42.98590167" lon="-1.16434167">
        <ele>832.0</ele>
        <time>2019-07-31T16:32:39.165Z</time>
      </trkpt>
      <trkpt lat="42.985915" lon="-1.16435333">
        <ele>833.0</ele>
        <time>2019-07-31T16:32:40.170Z</time>
      </trkpt>
      <trkpt lat="42.98592833" lon="-1.16436833">
        <ele>834.0</ele>
        <time>2019-07-31T16:32:41.174Z</time>
      </trkpt>
      <trkpt lat="42.98594" lon="-1.16438167">
        <ele>835.0</ele>
        <time>2019-07-31T16:32:42.178Z</time>
      </trkpt>
      <trkpt lat="42.98595167" lon="-1.16439833">
        <ele>836.0</ele>
        <time>2019-07-31T16:32:43.184Z</time>
      </trkpt>
      <trkpt lat="42.985965" lon="-1.16441333">
        <ele>837.0</ele>
        <time>2019-07-31T16:32:44.064Z</time>
      </trkpt>
      <trkpt lat="42.98597667" lon="-1.16443167">
        <ele>838.0</ele>
        <time>2019-07-31T16:32:45.069Z</time>
      </trkpt>
      <trkpt lat="42.98599" lon="-1.16444833">
        <ele>839.0</ele>
        <time>2019-07-31T16:32:46.074Z</time>
      </trkpt>
      <trkpt lat="42.986005" lon="-1.164465">
        <ele>839.0</ele>
        <time>2019-07-31T16:32:47.080Z</time>
      </trkpt>
      <trkpt lat="42.986015" lon="-1.164475">
        <ele>839.0</ele>
        <time>2019-07-31T16:32:48.085Z</time>
      </trkpt>
      <trkpt lat="42.98603" lon="-1.16449167">
        <ele>839.0</ele>
        <time>2019-07-31T16:32:49.093Z</time>
      </trkpt>
      <trkpt lat="42.98604167" lon="-1.16450667">
        <ele>840.0</ele>
        <time>2019-07-31T16:32:50.099Z</time>
      </trkpt>
      <trkpt lat="42.98605167" lon="-1.16452333">
        <ele>840.0</ele>
        <time>2019-07-31T16:32:51.105Z</time>
      </trkpt>
      <trkpt lat="42.98606333" lon="-1.16454167">
        <ele>841.0</ele>
        <time>2019-07-31T16:32:52.111Z</time>
      </trkpt>
      <trkpt lat="42.98607667" lon="-1.16455833">
        <ele>842.0</ele>
        <time>2019-07-31T16:32:53.117Z</time>
      </trkpt>
      <trkpt lat="42.98608833" lon="-1.164575">
        <ele>842.0</ele>
        <time>2019-07-31T16:32:54.122Z</time>
      </trkpt>
      <trkpt lat="42.98610167" lon="-1.16459333">
        <ele>842.0</ele>
        <time>2019-07-31T16:32:55.125Z</time>
      </trkpt>
      <trkpt lat="42.98611" lon="-1.16461167">
        <ele>842.0</ele>
        <time>2019-07-31T16:32:56.130Z</time>
      </trkpt>
      <trkpt lat="42.98612167" lon="-1.16463">
        <ele>842.0</ele>
        <time>2019-07-31T16:32:57.136Z</time>
      </trkpt>
      <trkpt lat="42.98613167" lon="-1.164645">
        <ele>842.0</ele>
        <time>2019-07-31T16:32:58.139Z</time>
      </trkpt>
      <trkpt lat="42.98614" lon="-1.16466167">
        <ele>843.0</ele>
        <time>2019-07-31T16:32:59.145Z</time>
      </trkpt>
      <trkpt lat="42.98615167" lon="-1.16467833">
        <ele>843.0</ele>
        <time>2019-07-31T16:33:00.151Z</time>
      </trkpt>
      <trkpt lat="42.98616167" lon="-1.16469333">
        <ele>844.0</ele>
        <time>2019-07-31T16:33:01.156Z</time>
      </trkpt>
      <trkpt lat="42.986175" lon="-1.16470833">
        <ele>845.0</ele>
        <time>2019-07-31T16:33:02.163Z</time>
      </trkpt>
      <trkpt lat="42.986185" lon="-1.16472667">
        <ele>845.0</ele>
        <time>2019-07-31T16:33:03.168Z</time>
      </trkpt>
      <trkpt lat="42.98619333" lon="-1.16474333">
        <ele>845.0</ele>
        <time>2019-07-31T16:33:04.173Z</time>
      </trkpt>
      <trkpt lat="42.986205" lon="-1.16475667">
        <ele>844.0</ele>
        <time>2019-07-31T16:33:05.179Z</time>
      </trkpt>
      <trkpt lat="42.986215" lon="-1.16477">
        <ele>844.0</ele>
        <time>2019-07-31T16:33:06.185Z</time>
      </trkpt>
      <trkpt lat="42.98622333" lon="-1.16478167">
        <ele>844.0</ele>
        <time>2019-07-31T16:33:07.065Z</time>
      </trkpt>
      <trkpt lat="42.98623167" lon="-1.16479667">
        <ele>844.0</ele>
        <time>2019-07-31T16:33:08.071Z</time>
      </trkpt>
      <trkpt lat="42.98624333" lon="-1.16480833">
        <ele>844.0</ele>
        <time>2019-07-31T16:33:09.077Z</time>
      </trkpt>
      <trkpt lat="42.98625333" lon="-1.16482333">
        <ele>844.0</ele>
        <time>2019-07-31T16:33:10.084Z</time>
      </trkpt>
      <trkpt lat="42.98626333" lon="-1.16484">
        <ele>845.0</ele>
        <time>2019-07-31T16:33:11.090Z</time>
      </trkpt>
      <trkpt lat="42.98627333" lon="-1.164855">
        <ele>846.0</ele>
        <time>2019-07-31T16:33:12.097Z</time>
      </trkpt>
      <trkpt lat="42.98628167" lon="-1.16487333">
        <ele>845.0</ele>
        <time>2019-07-31T16:33:13.102Z</time>
      </trkpt>
      <trkpt lat="42.98629333" lon="-1.16488833">
        <ele>846.0</ele>
        <time>2019-07-31T16:33:14.108Z</time>
      </trkpt>
      <trkpt lat="42.986305" lon="-1.16490333">
        <ele>846.0</ele>
        <time>2019-07-31T16:33:15.114Z</time>
      </trkpt>
      <trkpt lat="42.986315" lon="-1.16491833">
        <ele>846.0</ele>
        <time>2019-07-31T16:33:16.120Z</time>
      </trkpt>
      <trkpt lat="42.98632333" lon="-1.16493167">
        <ele>846.0</ele>
        <time>2019-07-31T16:33:17.125Z</time>
      </trkpt>
      <trkpt lat="42.98633167" lon="-1.16494667">
        <ele>846.0</ele>
        <time>2019-07-31T16:33:18.130Z</time>
      </trkpt>
      <trkpt lat="42.98634167" lon="-1.16496">
        <ele>846.0</ele>
        <time>2019-07-31T16:33:19.135Z</time>
      </trkpt>
      <trkpt lat="42.98635" lon="-1.16497833">
        <ele>846.0</ele>
        <time>2019-07-31T16:33:20.140Z</time>
      </trkpt>
      <trkpt lat="42.98635833" lon="-1.16499">
        <ele>846.0</ele>
        <time>2019-07-31T16:33:21.148Z</time>
      </trkpt>
      <trkpt lat="42.98637167" lon="-1.16500833">
        <ele>846.0</ele>
        <time>2019-07-31T16:33:22.154Z</time>
      </trkpt>
      <trkpt lat="42.98638333" lon="-1.165025">
        <ele>846.0</ele>
        <time>2019-07-31T16:33:23.160Z</time>
      </trkpt>
      <trkpt lat="42.98639333" lon="-1.16504333">
        <ele>846.0</ele>
        <time>2019-07-31T16:33:24.165Z</time>
      </trkpt>
      <trkpt lat="42.986405" lon="-1.16505833">
        <ele>845.0</ele>
        <time>2019-07-31T16:33:25.169Z</time>
      </trkpt>
      <trkpt lat="42.98641667" lon="-1.16507667">
        <ele>845.0</ele>
        <time>2019-07-31T16:33:26.174Z</time>
      </trkpt>
      <trkpt lat="42.986425" lon="-1.16509167">
        <ele>845.0</ele>
        <time>2019-07-31T16:33:27.178Z</time>
      </trkpt>
      <trkpt lat="42.986435" lon="-1.16511">
        <ele>845.0</ele>
        <time>2019-07-31T16:33:28.182Z</time>
      </trkpt>
      <trkpt lat="42.986445" lon="-1.165125">
        <ele>844.0</ele>
        <time>2019-07-31T16:33:29.062Z</time>
      </trkpt>
      <trkpt lat="42.98645667" lon="-1.16514167">
        <ele>844.0</ele>
        <time>2019-07-31T16:33:30.069Z</time>
      </trkpt>
      <trkpt lat="42.98646667" lon="-1.16515667">
        <ele>843.0</ele>
        <time>2019-07-31T16:33:31.075Z</time>
      </trkpt>
      <trkpt lat="42.98647667" lon="-1.16517167">
        <ele>843.0</ele>
        <time>2019-07-31T16:33:32.079Z</time>
      </trkpt>
      <trkpt lat="42.98648667" lon="-1.16518333">
        <ele>842.0</ele>
        <time>2019-07-31T16:33:33.086Z</time>
      </trkpt>
      <trkpt lat="42.98649833" lon="-1.1652">
        <ele>841.0</ele>
        <time>2019-07-31T16:33:34.091Z</time>
      </trkpt>
      <trkpt lat="42.98651" lon="-1.165215">
        <ele>841.0</ele>
        <time>2019-07-31T16:33:35.097Z</time>
      </trkpt>
      <trkpt lat="42.98652" lon="-1.16522833">
        <ele>840.0</ele>
        <time>2019-07-31T16:33:36.102Z</time>
      </trkpt>
      <trkpt lat="42.98653" lon="-1.16524333">
        <ele>839.0</ele>
        <time>2019-07-31T16:33:37.108Z</time>
      </trkpt>
      <trkpt lat="42.98654" lon="-1.16525333">
        <ele>839.0</ele>
        <time>2019-07-31T16:33:38.114Z</time>
      </trkpt>
      <trkpt lat="42.98655167" lon="-1.165265">
        <ele>838.0</ele>
        <time>2019-07-31T16:33:39.120Z</time>
      </trkpt>
      <trkpt lat="42.98656167" lon="-1.16528">
        <ele>838.0</ele>
        <time>2019-07-31T16:33:40.126Z</time>
      </trkpt>
      <trkpt lat="42.98657333" lon="-1.16529333">
        <ele>838.0</ele>
        <time>2019-07-31T16:33:41.133Z</time>
      </trkpt>
      <trkpt lat="42.98658333" lon="-1.16530333">
        <ele>837.0</ele>
        <time>2019-07-31T16:33:42.139Z</time>
      </trkpt>
      <trkpt lat="42.98659333" lon="-1.16530833">
        <ele>837.0</ele>
        <time>2019-07-31T16:33:43.146Z</time>
      </trkpt>
      <trkpt lat="42.98660333" lon="-1.16531667">
        <ele>837.0</ele>
        <time>2019-07-31T16:33:44.152Z</time>
      </trkpt>
      <trkpt lat="42.98662" lon="-1.16532833">
        <ele>837.0</ele>
        <time>2019-07-31T16:33:45.157Z</time>
      </trkpt>
      <trkpt lat="42.98663333" lon="-1.16533833">
        <ele>837.0</ele>
        <time>2019-07-31T16:33:46.162Z</time>
      </trkpt>
      <trkpt lat="42.98664833" lon="-1.16534833">
        <ele>836.0</ele>
        <time>2019-07-31T16:33:47.167Z</time>
      </trkpt>
      <trkpt lat="42.98666" lon="-1.16535667">
        <ele>836.0</ele>
        <time>2019-07-31T16:33:48.172Z</time>
      </trkpt>
      <trkpt lat="42.98667167" lon="-1.165365">
        <ele>836.0</ele>
        <time>2019-07-31T16:33:49.176Z</time>
      </trkpt>
      <trkpt lat="42.98668667" lon="-1.165375">
        <ele>836.0</ele>
        <time>2019-07-31T16:33:50.181Z</time>
      </trkpt>
      <trkpt lat="42.98670333" lon="-1.16538333">
        <ele>837.0</ele>
        <time>2019-07-31T16:33:51.061Z</time>
      </trkpt>
      <trkpt lat="42.986715" lon="-1.16539333">
        <ele>837.0</ele>
        <time>2019-07-31T16:33:52.065Z</time>
      </trkpt>
      <trkpt lat="42.98672833" lon="-1.16540333">
        <ele>838.0</ele>
        <time>2019-07-31T16:33:53.072Z</time>
      </trkpt>
      <trkpt lat="42.98673833" lon="-1.16541167">
        <ele>838.0</ele>
        <time>2019-07-31T16:33:54.076Z</time>
      </trkpt>
      <trkpt lat="42.98675167" lon="-1.165425">
        <ele>838.0</ele>
        <time>2019-07-31T16:33:55.080Z</time>
      </trkpt>
      <trkpt lat="42.98676333" lon="-1.16543667">
        <ele>838.0</ele>
        <time>2019-07-31T16:33:56.085Z</time>
      </trkpt>
      <trkpt lat="42.98677667" lon="-1.165445">
        <ele>838.0</ele>
        <time>2019-07-31T16:33:57.091Z</time>
      </trkpt>
      <trkpt lat="42.98679" lon="-1.16545333">
        <ele>839.0</ele>
        <time>2019-07-31T16:33:58.097Z</time>
      </trkpt>
      <trkpt lat="42.986805" lon="-1.16546667">
        <ele>840.0</ele>
        <time>2019-07-31T16:33:59.102Z</time>
      </trkpt>
      <trkpt lat="42.98681667" lon="-1.16548">
        <ele>840.0</ele>
        <time>2019-07-31T16:34:00.108Z</time>
      </trkpt>
      <trkpt lat="42.98682667" lon="-1.16549833">
        <ele>840.0</ele>
        <time>2019-07-31T16:34:01.115Z</time>
      </trkpt>
      <trkpt lat="42.986835" lon="-1.16551667">
        <ele>841.0</ele>
        <time>2019-07-31T16:34:02.119Z</time>
      </trkpt>
      <trkpt lat="42.98684667" lon="-1.16553833">
        <ele>842.0</ele>
        <time>2019-07-31T16:34:03.125Z</time>
      </trkpt>
      <trkpt lat="42.98685833" lon="-1.16555667">
        <ele>842.0</ele>
        <time>2019-07-31T16:34:04.129Z</time>
      </trkpt>
      <trkpt lat="42.98686667" lon="-1.16557">
        <ele>842.0</ele>
        <time>2019-07-31T16:34:05.135Z</time>
      </trkpt>
      <trkpt lat="42.98688167" lon="-1.16558833">
        <ele>841.0</ele>
        <time>2019-07-31T16:34:06.141Z</time>
      </trkpt>
      <trkpt lat="42.98689" lon="-1.1656">
        <ele>841.0</ele>
        <time>2019-07-31T16:34:07.146Z</time>
      </trkpt>
      <trkpt lat="42.98690667" lon="-1.16561333">
        <ele>840.0</ele>
        <time>2019-07-31T16:34:08.150Z</time>
      </trkpt>
      <trkpt lat="42.98691333" lon="-1.165625">
        <ele>839.0</ele>
        <time>2019-07-31T16:34:09.155Z</time>
      </trkpt>
      <trkpt lat="42.98691833" lon="-1.16564333">
        <ele>839.0</ele>
        <time>2019-07-31T16:34:10.162Z</time>
      </trkpt>
      <trkpt lat="42.98692667" lon="-1.16565833">
        <ele>838.0</ele>
        <time>2019-07-31T16:34:11.167Z</time>
      </trkpt>
      <trkpt lat="42.98693167" lon="-1.165675">
        <ele>838.0</ele>
        <time>2019-07-31T16:34:12.167Z</time>
      </trkpt>
      <trkpt lat="42.98693667" lon="-1.16568833">
        <ele>838.0</ele>
        <time>2019-07-31T16:34:13.171Z</time>
      </trkpt>
      <trkpt lat="42.98693833" lon="-1.16570333">
        <ele>838.0</ele>
        <time>2019-07-31T16:34:14.177Z</time>
      </trkpt>
      <trkpt lat="42.98694333" lon="-1.165715">
        <ele>837.0</ele>
        <time>2019-07-31T16:34:15.181Z</time>
      </trkpt>
      <trkpt lat="42.98695167" lon="-1.16572833">
        <ele>837.0</ele>
        <time>2019-07-31T16:34:16.186Z</time>
      </trkpt>
      <trkpt lat="42.986955" lon="-1.16573833">
        <ele>836.0</ele>
        <time>2019-07-31T16:34:17.066Z</time>
      </trkpt>
      <trkpt lat="42.98696333" lon="-1.165755">
        <ele>835.0</ele>
        <time>2019-07-31T16:34:18.071Z</time>
      </trkpt>
      <trkpt lat="42.98696833" lon="-1.16577333">
        <ele>834.0</ele>
        <time>2019-07-31T16:34:19.077Z</time>
      </trkpt>
      <trkpt lat="42.986975" lon="-1.16578833">
        <ele>834.0</ele>
        <time>2019-07-31T16:34:20.082Z</time>
      </trkpt>
      <trkpt lat="42.98698" lon="-1.16580333">
        <ele>834.0</ele>
        <time>2019-07-31T16:34:21.087Z</time>
      </trkpt>
      <trkpt lat="42.986985" lon="-1.16582333">
        <ele>833.0</ele>
        <time>2019-07-31T16:34:22.090Z</time>
      </trkpt>
      <trkpt lat="42.98699" lon="-1.16583833">
        <ele>833.0</ele>
        <time>2019-07-31T16:34:23.095Z</time>
      </trkpt>
      <trkpt lat="42.98699333" lon="-1.165855">
        <ele>833.0</ele>
        <time>2019-07-31T16:34:24.102Z</time>
      </trkpt>
      <trkpt lat="42.98699833" lon="-1.165875">
        <ele>833.0</ele>
        <time>2019-07-31T16:34:25.108Z</time>
      </trkpt>
      <trkpt lat="42.98700333" lon="-1.16589167">
        <ele>832.0</ele>
        <time>2019-07-31T16:34:26.114Z</time>
      </trkpt>
      <trkpt lat="42.987005" lon="-1.16591167">
        <ele>832.0</ele>
        <time>2019-07-31T16:34:27.120Z</time>
      </trkpt>
      <trkpt lat="42.98701167" lon="-1.165925">
        <ele>832.0</ele>
        <time>2019-07-31T16:34:28.125Z</time>
      </trkpt>
      <trkpt lat="42.98702" lon="-1.16594333">
        <ele>832.0</ele>
        <time>2019-07-31T16:34:29.129Z</time>
      </trkpt>
      <trkpt lat="42.98702667" lon="-1.16595833">
        <ele>832.0</ele>
        <time>2019-07-31T16:34:30.134Z</time>
      </trkpt>
      <trkpt lat="42.98703667" lon="-1.16597667">
        <ele>832.0</ele>
        <time>2019-07-31T16:34:31.139Z</time>
      </trkpt>
      <trkpt lat="42.987045" lon="-1.16599667">
        <ele>832.0</ele>
        <time>2019-07-31T16:34:32.143Z</time>
      </trkpt>
      <trkpt lat="42.98705167" lon="-1.16600833">
        <ele>831.0</ele>
        <time>2019-07-31T16:34:33.147Z</time>
      </trkpt>
      <trkpt lat="42.98706" lon="-1.16602167">
        <ele>831.0</ele>
        <time>2019-07-31T16:34:34.153Z</time>
      </trkpt>
      <trkpt lat="42.98706667" lon="-1.16603667">
        <ele>830.0</ele>
        <time>2019-07-31T16:34:35.159Z</time>
      </trkpt>
      <trkpt lat="42.98707833" lon="-1.16604833">
        <ele>830.0</ele>
        <time>2019-07-31T16:34:36.165Z</time>
      </trkpt>
      <trkpt lat="42.98709" lon="-1.16606167">
        <ele>829.0</ele>
        <time>2019-07-31T16:34:37.170Z</time>
      </trkpt>
      <trkpt lat="42.9871" lon="-1.16606833">
        <ele>829.0</ele>
        <time>2019-07-31T16:34:38.176Z</time>
      </trkpt>
      <trkpt lat="42.987115" lon="-1.16607667">
        <ele>829.0</ele>
        <time>2019-07-31T16:34:39.181Z</time>
      </trkpt>
      <trkpt lat="42.98712833" lon="-1.16608667">
        <ele>829.0</ele>
        <time>2019-07-31T16:34:40.061Z</time>
      </trkpt>
      <trkpt lat="42.98714333" lon="-1.166095">
        <ele>829.0</ele>
        <time>2019-07-31T16:34:41.066Z</time>
      </trkpt>
      <trkpt lat="42.98715833" lon="-1.166105">
        <ele>828.0</ele>
        <time>2019-07-31T16:34:42.071Z</time>
      </trkpt>
      <trkpt lat="42.98718167" lon="-1.16610333">
        <ele>827.0</ele>
        <time>2019-07-31T16:34:43.077Z</time>
      </trkpt>
      <trkpt lat="42.98719833" lon="-1.16610833">
        <ele>827.0</ele>
        <time>2019-07-31T16:34:44.084Z</time>
      </trkpt>
      <trkpt lat="42.98721167" lon="-1.166115">
        <ele>827.0</ele>
        <time>2019-07-31T16:34:45.088Z</time>
      </trkpt>
      <trkpt lat="42.98722833" lon="-1.16612167">
        <ele>828.0</ele>
        <time>2019-07-31T16:34:46.091Z</time>
      </trkpt>
      <trkpt lat="42.987245" lon="-1.16612833">
        <ele>828.0</ele>
        <time>2019-07-31T16:34:47.095Z</time>
      </trkpt>
      <trkpt lat="42.98726333" lon="-1.16613667">
        <ele>829.0</ele>
        <time>2019-07-31T16:34:48.101Z</time>
      </trkpt>
      <trkpt lat="42.98727833" lon="-1.166145">
        <ele>829.0</ele>
        <time>2019-07-31T16:34:49.105Z</time>
      </trkpt>
      <trkpt lat="42.98729167" lon="-1.16615333">
        <ele>830.0</ele>
        <time>2019-07-31T16:34:50.111Z</time>
      </trkpt>
      <trkpt lat="42.98730333" lon="-1.16616333">
        <ele>830.0</ele>
        <time>2019-07-31T16:34:51.115Z</time>
      </trkpt>
      <trkpt lat="42.98731667" lon="-1.16617333">
        <ele>831.0</ele>
        <time>2019-07-31T16:34:52.120Z</time>
      </trkpt>
      <trkpt lat="42.98733167" lon="-1.16618333">
        <ele>832.0</ele>
        <time>2019-07-31T16:34:53.125Z</time>
      </trkpt>
      <trkpt lat="42.98734833" lon="-1.166195">
        <ele>833.0</ele>
        <time>2019-07-31T16:34:54.132Z</time>
      </trkpt>
      <trkpt lat="42.987365" lon="-1.166205">
        <ele>835.0</ele>
        <time>2019-07-31T16:34:55.138Z</time>
      </trkpt>
      <trkpt lat="42.98738" lon="-1.16621167">
        <ele>836.0</ele>
        <time>2019-07-31T16:34:56.143Z</time>
      </trkpt>
      <trkpt lat="42.98739833" lon="-1.16622167">
        <ele>836.0</ele>
        <time>2019-07-31T16:34:57.148Z</time>
      </trkpt>
      <trkpt lat="42.98741333" lon="-1.16623">
        <ele>837.0</ele>
        <time>2019-07-31T16:34:58.154Z</time>
      </trkpt>
      <trkpt lat="42.98742667" lon="-1.16623667">
        <ele>838.0</ele>
        <time>2019-07-31T16:34:59.161Z</time>
      </trkpt>
      <trkpt lat="42.98744333" lon="-1.16625">
        <ele>839.0</ele>
        <time>2019-07-31T16:35:00.166Z</time>
      </trkpt>
      <trkpt lat="42.987455" lon="-1.16625833">
        <ele>840.0</ele>
        <time>2019-07-31T16:35:01.170Z</time>
      </trkpt>
      <trkpt lat="42.98747" lon="-1.16626167">
        <ele>840.0</ele>
        <time>2019-07-31T16:35:02.177Z</time>
      </trkpt>
      <trkpt lat="42.987485" lon="-1.16626833">
        <ele>840.0</ele>
        <time>2019-07-31T16:35:03.185Z</time>
      </trkpt>
      <trkpt lat="42.9875" lon="-1.16627167">
        <ele>840.0</ele>
        <time>2019-07-31T16:35:04.065Z</time>
      </trkpt>
      <trkpt lat="42.98751833" lon="-1.16626667">
        <ele>840.0</ele>
        <time>2019-07-31T16:35:05.071Z</time>
      </trkpt>
      <trkpt lat="42.98754167" lon="-1.16625833">
        <ele>839.0</ele>
        <time>2019-07-31T16:35:06.075Z</time>
      </trkpt>
      <trkpt lat="42.98755667" lon="-1.16625667">
        <ele>837.0</ele>
        <time>2019-07-31T16:35:07.081Z</time>
      </trkpt>
      <trkpt lat="42.98757" lon="-1.16626167">
        <ele>836.0</ele>
        <time>2019-07-31T16:35:08.085Z</time>
      </trkpt>
      <trkpt lat="42.98758667" lon="-1.16626667">
        <ele>837.0</ele>
        <time>2019-07-31T16:35:09.091Z</time>
      </trkpt>
      <trkpt lat="42.98760167" lon="-1.16627167">
        <ele>837.0</ele>
        <time>2019-07-31T16:35:10.095Z</time>
      </trkpt>
      <trkpt lat="42.987615" lon="-1.16628167">
        <ele>837.0</ele>
        <time>2019-07-31T16:35:11.099Z</time>
      </trkpt>
      <trkpt lat="42.98763" lon="-1.16629167">
        <ele>838.0</ele>
        <time>2019-07-31T16:35:12.106Z</time>
      </trkpt>
      <trkpt lat="42.98764667" lon="-1.1663">
        <ele>838.0</ele>
        <time>2019-07-31T16:35:13.111Z</time>
      </trkpt>
      <trkpt lat="42.98766333" lon="-1.16630333">
        <ele>838.0</ele>
        <time>2019-07-31T16:35:14.118Z</time>
      </trkpt>
      <trkpt lat="42.98768" lon="-1.16631">
        <ele>838.0</ele>
        <time>2019-07-31T16:35:15.124Z</time>
      </trkpt>
      <trkpt lat="42.987695" lon="-1.16632">
        <ele>838.0</ele>
        <time>2019-07-31T16:35:16.128Z</time>
      </trkpt>
      <trkpt lat="42.98770667" lon="-1.16632667">
        <ele>838.0</ele>
        <time>2019-07-31T16:35:17.135Z</time>
      </trkpt>
      <trkpt lat="42.987725" lon="-1.166335">
        <ele>838.0</ele>
        <time>2019-07-31T16:35:18.141Z</time>
      </trkpt>
      <trkpt lat="42.98774333" lon="-1.16634">
        <ele>839.0</ele>
        <time>2019-07-31T16:35:19.147Z</time>
      </trkpt>
      <trkpt lat="42.98776" lon="-1.166345">
        <ele>839.0</ele>
        <time>2019-07-31T16:35:20.153Z</time>
      </trkpt>
      <trkpt lat="42.987775" lon="-1.16635">
        <ele>840.0</ele>
        <time>2019-07-31T16:35:21.159Z</time>
      </trkpt>
      <trkpt lat="42.98779" lon="-1.16636">
        <ele>840.0</ele>
        <time>2019-07-31T16:35:22.164Z</time>
      </trkpt>
      <trkpt lat="42.98780667" lon="-1.16637333">
        <ele>841.0</ele>
        <time>2019-07-31T16:35:23.169Z</time>
      </trkpt>
      <trkpt lat="42.98782167" lon="-1.16638">
        <ele>842.0</ele>
        <time>2019-07-31T16:35:24.174Z</time>
      </trkpt>
      <trkpt lat="42.987835" lon="-1.16638833">
        <ele>842.0</ele>
        <time>2019-07-31T16:35:25.180Z</time>
      </trkpt>
      <trkpt lat="42.98784667" lon="-1.16639333">
        <ele>842.0</ele>
        <time>2019-07-31T16:35:26.185Z</time>
      </trkpt>
      <trkpt lat="42.98785667" lon="-1.16639667">
        <ele>842.0</ele>
        <time>2019-07-31T16:35:27.063Z</time>
      </trkpt>
      <trkpt lat="42.98786667" lon="-1.16640333">
        <ele>841.0</ele>
        <time>2019-07-31T16:35:28.065Z</time>
      </trkpt>
      <trkpt lat="42.98788" lon="-1.166405">
        <ele>840.0</ele>
        <time>2019-07-31T16:35:29.069Z</time>
      </trkpt>
      <trkpt lat="42.98789333" lon="-1.16640833">
        <ele>840.0</ele>
        <time>2019-07-31T16:35:30.074Z</time>
      </trkpt>
      <trkpt lat="42.98791167" lon="-1.16641333">
        <ele>840.0</ele>
        <time>2019-07-31T16:35:31.080Z</time>
      </trkpt>
      <trkpt lat="42.98792667" lon="-1.16641833">
        <ele>841.0</ele>
        <time>2019-07-31T16:35:32.084Z</time>
      </trkpt>
      <trkpt lat="42.98794333" lon="-1.16642">
        <ele>842.0</ele>
        <time>2019-07-31T16:35:33.092Z</time>
      </trkpt>
      <trkpt lat="42.98796" lon="-1.16642333">
        <ele>842.0</ele>
        <time>2019-07-31T16:35:34.098Z</time>
      </trkpt>
      <trkpt lat="42.987975" lon="-1.166425">
        <ele>842.0</ele>
        <time>2019-07-31T16:35:35.104Z</time>
      </trkpt>
      <trkpt lat="42.98799" lon="-1.16642833">
        <ele>843.0</ele>
        <time>2019-07-31T16:35:36.111Z</time>
      </trkpt>
      <trkpt lat="42.98800333" lon="-1.166435">
        <ele>844.0</ele>
        <time>2019-07-31T16:35:37.117Z</time>
      </trkpt>
      <trkpt lat="42.988015" lon="-1.16644167">
        <ele>844.0</ele>
        <time>2019-07-31T16:35:38.124Z</time>
      </trkpt>
      <trkpt lat="42.98802333" lon="-1.16644667">
        <ele>845.0</ele>
        <time>2019-07-31T16:35:39.129Z</time>
      </trkpt>
      <trkpt lat="42.98804" lon="-1.16645333">
        <ele>845.0</ele>
        <time>2019-07-31T16:35:40.131Z</time>
      </trkpt>
      <trkpt lat="42.98805333" lon="-1.16646333">
        <ele>847.0</ele>
        <time>2019-07-31T16:35:41.137Z</time>
      </trkpt>
      <trkpt lat="42.98807" lon="-1.16647">
        <ele>847.0</ele>
        <time>2019-07-31T16:35:42.143Z</time>
      </trkpt>
      <trkpt lat="42.98808167" lon="-1.166475">
        <ele>848.0</ele>
        <time>2019-07-31T16:35:43.146Z</time>
      </trkpt>
      <trkpt lat="42.98809333" lon="-1.16648">
        <ele>848.0</ele>
        <time>2019-07-31T16:35:44.151Z</time>
      </trkpt>
      <trkpt lat="42.98810833" lon="-1.16649167">
        <ele>849.0</ele>
        <time>2019-07-31T16:35:45.158Z</time>
      </trkpt>
      <trkpt lat="42.988125" lon="-1.16650333">
        <ele>850.0</ele>
        <time>2019-07-31T16:35:46.164Z</time>
      </trkpt>
      <trkpt lat="42.98814" lon="-1.16651167">
        <ele>851.0</ele>
        <time>2019-07-31T16:35:47.169Z</time>
      </trkpt>
      <trkpt lat="42.988155" lon="-1.16652167">
        <ele>852.0</ele>
        <time>2019-07-31T16:35:48.175Z</time>
      </trkpt>
      <trkpt lat="42.98816667" lon="-1.16652833">
        <ele>854.0</ele>
        <time>2019-07-31T16:35:49.181Z</time>
      </trkpt>
      <trkpt lat="42.98817833" lon="-1.16653833">
        <ele>855.0</ele>
        <time>2019-07-31T16:35:50.185Z</time>
      </trkpt>
      <trkpt lat="42.98819167" lon="-1.166545">
        <ele>857.0</ele>
        <time>2019-07-31T16:35:51.063Z</time>
      </trkpt>
      <trkpt lat="42.98820333" lon="-1.16655167">
        <ele>859.0</ele>
        <time>2019-07-31T16:35:52.066Z</time>
      </trkpt>
      <trkpt lat="42.98821833" lon="-1.16655667">
        <ele>860.0</ele>
        <time>2019-07-31T16:35:53.071Z</time>
      </trkpt>
      <trkpt lat="42.988235" lon="-1.16656333">
        <ele>860.0</ele>
        <time>2019-07-31T16:35:54.076Z</time>
      </trkpt>
      <trkpt lat="42.98825667" lon="-1.16656833">
        <ele>861.0</ele>
        <time>2019-07-31T16:35:55.082Z</time>
      </trkpt>
      <trkpt lat="42.988275" lon="-1.16657333">
        <ele>861.0</ele>
        <time>2019-07-31T16:35:56.088Z</time>
      </trkpt>
      <trkpt lat="42.98829" lon="-1.16657333">
        <ele>860.0</ele>
        <time>2019-07-31T16:35:57.095Z</time>
      </trkpt>
      <trkpt lat="42.98831" lon="-1.16657167">
        <ele>860.0</ele>
        <time>2019-07-31T16:35:58.101Z</time>
      </trkpt>
      <trkpt lat="42.98833" lon="-1.16657167">
        <ele>860.0</ele>
        <time>2019-07-31T16:35:59.107Z</time>
      </trkpt>
      <trkpt lat="42.98835167" lon="-1.16657667">
        <ele>859.0</ele>
        <time>2019-07-31T16:36:00.112Z</time>
      </trkpt>
      <trkpt lat="42.98837" lon="-1.16658333">
        <ele>859.0</ele>
        <time>2019-07-31T16:36:01.115Z</time>
      </trkpt>
      <trkpt lat="42.988385" lon="-1.16659167">
        <ele>859.0</ele>
        <time>2019-07-31T16:36:02.122Z</time>
      </trkpt>
      <trkpt lat="42.98839667" lon="-1.1666">
        <ele>859.0</ele>
        <time>2019-07-31T16:36:03.125Z</time>
      </trkpt>
      <trkpt lat="42.98841167" lon="-1.16661">
        <ele>859.0</ele>
        <time>2019-07-31T16:36:04.130Z</time>
      </trkpt>
      <trkpt lat="42.98842833" lon="-1.16662333">
        <ele>860.0</ele>
        <time>2019-07-31T16:36:05.135Z</time>
      </trkpt>
      <trkpt lat="42.98844167" lon="-1.16663167">
        <ele>860.0</ele>
        <time>2019-07-31T16:36:06.140Z</time>
      </trkpt>
      <trkpt lat="42.988455" lon="-1.16664">
        <ele>860.0</ele>
        <time>2019-07-31T16:36:07.145Z</time>
      </trkpt>
      <trkpt lat="42.98847" lon="-1.16664667">
        <ele>861.0</ele>
        <time>2019-07-31T16:36:08.151Z</time>
      </trkpt>
      <trkpt lat="42.988485" lon="-1.16665167">
        <ele>861.0</ele>
        <time>2019-07-31T16:36:09.156Z</time>
      </trkpt>
      <trkpt lat="42.98850333" lon="-1.16665667">
        <ele>861.0</ele>
        <time>2019-07-31T16:36:10.159Z</time>
      </trkpt>
      <trkpt lat="42.98852" lon="-1.16666">
        <ele>861.0</ele>
        <time>2019-07-31T16:36:11.159Z</time>
      </trkpt>
      <trkpt lat="42.988535" lon="-1.16666167">
        <ele>861.0</ele>
        <time>2019-07-31T16:36:12.159Z</time>
      </trkpt>
      <trkpt lat="42.98854833" lon="-1.16666667">
        <ele>861.0</ele>
        <time>2019-07-31T16:36:13.160Z</time>
      </trkpt>
      <trkpt lat="42.98856333" lon="-1.16667333">
        <ele>861.0</ele>
        <time>2019-07-31T16:36:14.164Z</time>
      </trkpt>
      <trkpt lat="42.98858167" lon="-1.16668167">
        <ele>860.0</ele>
        <time>2019-07-31T16:36:15.167Z</time>
      </trkpt>
      <trkpt lat="42.9886" lon="-1.16668333">
        <ele>859.0</ele>
        <time>2019-07-31T16:36:16.172Z</time>
      </trkpt>
      <trkpt lat="42.98861667" lon="-1.16668667">
        <ele>859.0</ele>
        <time>2019-07-31T16:36:17.177Z</time>
      </trkpt>
      <trkpt lat="42.98863333" lon="-1.16668833">
        <ele>858.0</ele>
        <time>2019-07-31T16:36:18.182Z</time>
      </trkpt>
      <trkpt lat="42.98864833" lon="-1.16669">
        <ele>857.0</ele>
        <time>2019-07-31T16:36:19.062Z</time>
      </trkpt>
      <trkpt lat="42.98866" lon="-1.16669167">
        <ele>856.0</ele>
        <time>2019-07-31T16:36:20.068Z</time>
      </trkpt>
      <trkpt lat="42.98867333" lon="-1.1667">
        <ele>855.0</ele>
        <time>2019-07-31T16:36:21.073Z</time>
      </trkpt>
      <trkpt lat="42.98868833" lon="-1.16670667">
        <ele>854.0</ele>
        <time>2019-07-31T16:36:22.078Z</time>
      </trkpt>
      <trkpt lat="42.98870333" lon="-1.166715">
        <ele>853.0</ele>
        <time>2019-07-31T16:36:23.084Z</time>
      </trkpt>
      <trkpt lat="42.98871667" lon="-1.16672167">
        <ele>853.0</ele>
        <time>2019-07-31T16:36:24.089Z</time>
      </trkpt>
      <trkpt lat="42.98873" lon="-1.16673167">
        <ele>852.0</ele>
        <time>2019-07-31T16:36:25.094Z</time>
      </trkpt>
      <trkpt lat="42.98874333" lon="-1.16674333">
        <ele>852.0</ele>
        <time>2019-07-31T16:36:26.099Z</time>
      </trkpt>
      <trkpt lat="42.98875833" lon="-1.16675">
        <ele>851.0</ele>
        <time>2019-07-31T16:36:27.106Z</time>
      </trkpt>
      <trkpt lat="42.98877333" lon="-1.16675833">
        <ele>852.0</ele>
        <time>2019-07-31T16:36:28.112Z</time>
      </trkpt>
      <trkpt lat="42.98878833" lon="-1.16676333">
        <ele>851.0</ele>
        <time>2019-07-31T16:36:29.117Z</time>
      </trkpt>
      <trkpt lat="42.98880333" lon="-1.16676667">
        <ele>851.0</ele>
        <time>2019-07-31T16:36:30.122Z</time>
      </trkpt>
      <trkpt lat="42.98881333" lon="-1.16677167">
        <ele>851.0</ele>
        <time>2019-07-31T16:36:31.126Z</time>
      </trkpt>
      <trkpt lat="42.98882833" lon="-1.16677667">
        <ele>852.0</ele>
        <time>2019-07-31T16:36:32.131Z</time>
      </trkpt>
      <trkpt lat="42.98884333" lon="-1.16678667">
        <ele>852.0</ele>
        <time>2019-07-31T16:36:33.138Z</time>
      </trkpt>
      <trkpt lat="42.98885833" lon="-1.16679833">
        <ele>852.0</ele>
        <time>2019-07-31T16:36:34.142Z</time>
      </trkpt>
      <trkpt lat="42.98887333" lon="-1.16680833">
        <ele>853.0</ele>
        <time>2019-07-31T16:36:35.145Z</time>
      </trkpt>
      <trkpt lat="42.98888667" lon="-1.16682">
        <ele>853.0</ele>
        <time>2019-07-31T16:36:36.148Z</time>
      </trkpt>
      <trkpt lat="42.98890167" lon="-1.16683">
        <ele>853.0</ele>
        <time>2019-07-31T16:36:37.154Z</time>
      </trkpt>
      <trkpt lat="42.988915" lon="-1.16683833">
        <ele>853.0</ele>
        <time>2019-07-31T16:36:38.159Z</time>
      </trkpt>
      <trkpt lat="42.98893" lon="-1.16684833">
        <ele>853.0</ele>
        <time>2019-07-31T16:36:39.166Z</time>
      </trkpt>
      <trkpt lat="42.98894333" lon="-1.16685667">
        <ele>853.0</ele>
        <time>2019-07-31T16:36:40.170Z</time>
      </trkpt>
      <trkpt lat="42.98896" lon="-1.16686">
        <ele>854.0</ele>
        <time>2019-07-31T16:36:41.175Z</time>
      </trkpt>
      <trkpt lat="42.98897667" lon="-1.166865">
        <ele>854.0</ele>
        <time>2019-07-31T16:36:42.179Z</time>
      </trkpt>
      <trkpt lat="42.98899167" lon="-1.16687167">
        <ele>854.0</ele>
        <time>2019-07-31T16:36:43.184Z</time>
      </trkpt>
      <trkpt lat="42.989005" lon="-1.16687833">
        <ele>855.0</ele>
        <time>2019-07-31T16:36:44.064Z</time>
      </trkpt>
      <trkpt lat="42.98902167" lon="-1.16688667">
        <ele>855.0</ele>
        <time>2019-07-31T16:36:45.068Z</time>
      </trkpt>
      <trkpt lat="42.989035" lon="-1.166895">
        <ele>855.0</ele>
        <time>2019-07-31T16:36:46.074Z</time>
      </trkpt>
      <trkpt lat="42.98904833" lon="-1.16690167">
        <ele>855.0</ele>
        <time>2019-07-31T16:36:47.079Z</time>
      </trkpt>
      <trkpt lat="42.98906333" lon="-1.16691">
        <ele>856.0</ele>
        <time>2019-07-31T16:36:48.083Z</time>
      </trkpt>
      <trkpt lat="42.98907833" lon="-1.16691667">
        <ele>856.0</ele>
        <time>2019-07-31T16:36:49.086Z</time>
      </trkpt>
      <trkpt lat="42.98909333" lon="-1.166925">
        <ele>856.0</ele>
        <time>2019-07-31T16:36:50.093Z</time>
      </trkpt>
      <trkpt lat="42.98911" lon="-1.166935">
        <ele>857.0</ele>
        <time>2019-07-31T16:36:51.099Z</time>
      </trkpt>
      <trkpt lat="42.98912667" lon="-1.16694167">
        <ele>858.0</ele>
        <time>2019-07-31T16:36:52.105Z</time>
      </trkpt>
      <trkpt lat="42.98914" lon="-1.16694833">
        <ele>858.0</ele>
        <time>2019-07-31T16:36:53.109Z</time>
      </trkpt>
      <trkpt lat="42.98915333" lon="-1.16695167">
        <ele>858.0</ele>
        <time>2019-07-31T16:36:54.116Z</time>
      </trkpt>
      <trkpt lat="42.98917" lon="-1.16696">
        <ele>858.0</ele>
        <time>2019-07-31T16:36:55.121Z</time>
      </trkpt>
      <trkpt lat="42.989185" lon="-1.16696167">
        <ele>858.0</ele>
        <time>2019-07-31T16:36:56.126Z</time>
      </trkpt>
      <trkpt lat="42.9892" lon="-1.16696167">
        <ele>857.0</ele>
        <time>2019-07-31T16:36:57.133Z</time>
      </trkpt>
      <trkpt lat="42.989215" lon="-1.16696667">
        <ele>857.0</ele>
        <time>2019-07-31T16:36:58.139Z</time>
      </trkpt>
      <trkpt lat="42.98922833" lon="-1.16697333">
        <ele>857.0</ele>
        <time>2019-07-31T16:36:59.144Z</time>
      </trkpt>
      <trkpt lat="42.98924167" lon="-1.16697833">
        <ele>856.0</ele>
        <time>2019-07-31T16:37:00.149Z</time>
      </trkpt>
      <trkpt lat="42.989255" lon="-1.16698333">
        <ele>856.0</ele>
        <time>2019-07-31T16:37:01.153Z</time>
      </trkpt>
      <trkpt lat="42.98927333" lon="-1.16699167">
        <ele>857.0</ele>
        <time>2019-07-31T16:37:02.160Z</time>
      </trkpt>
      <trkpt lat="42.98929" lon="-1.16699833">
        <ele>857.0</ele>
        <time>2019-07-31T16:37:03.165Z</time>
      </trkpt>
      <trkpt lat="42.98930333" lon="-1.167005">
        <ele>857.0</ele>
        <time>2019-07-31T16:37:04.171Z</time>
      </trkpt>
      <trkpt lat="42.98931667" lon="-1.16701167">
        <ele>858.0</ele>
        <time>2019-07-31T16:37:05.176Z</time>
      </trkpt>
      <trkpt lat="42.98933167" lon="-1.16701667">
        <ele>858.0</ele>
        <time>2019-07-31T16:37:06.182Z</time>
      </trkpt>
      <trkpt lat="42.98934667" lon="-1.16702">
        <ele>858.0</ele>
        <time>2019-07-31T16:37:07.063Z</time>
      </trkpt>
      <trkpt lat="42.98936167" lon="-1.16702667">
        <ele>859.0</ele>
        <time>2019-07-31T16:37:08.067Z</time>
      </trkpt>
      <trkpt lat="42.98937667" lon="-1.16703333">
        <ele>859.0</ele>
        <time>2019-07-31T16:37:09.071Z</time>
      </trkpt>
      <trkpt lat="42.98939" lon="-1.16704">
        <ele>860.0</ele>
        <time>2019-07-31T16:37:10.078Z</time>
      </trkpt>
      <trkpt lat="42.98940333" lon="-1.16704667">
        <ele>860.0</ele>
        <time>2019-07-31T16:37:11.084Z</time>
      </trkpt>
      <trkpt lat="42.98942333" lon="-1.16705">
        <ele>860.0</ele>
        <time>2019-07-31T16:37:12.087Z</time>
      </trkpt>
      <trkpt lat="42.98944333" lon="-1.16705167">
        <ele>860.0</ele>
        <time>2019-07-31T16:37:13.089Z</time>
      </trkpt>
      <trkpt lat="42.98946167" lon="-1.16705167">
        <ele>859.0</ele>
        <time>2019-07-31T16:37:14.095Z</time>
      </trkpt>
      <trkpt lat="42.98947833" lon="-1.16705167">
        <ele>859.0</ele>
        <time>2019-07-31T16:37:15.099Z</time>
      </trkpt>
      <trkpt lat="42.98949667" lon="-1.16705167">
        <ele>858.0</ele>
        <time>2019-07-31T16:37:16.103Z</time>
      </trkpt>
      <trkpt lat="42.989515" lon="-1.16705167">
        <ele>858.0</ele>
        <time>2019-07-31T16:37:17.107Z</time>
      </trkpt>
      <trkpt lat="42.98953333" lon="-1.167055">
        <ele>857.0</ele>
        <time>2019-07-31T16:37:18.115Z</time>
      </trkpt>
      <trkpt lat="42.98955" lon="-1.16705667">
        <ele>856.0</ele>
        <time>2019-07-31T16:37:19.121Z</time>
      </trkpt>
      <trkpt lat="42.98956833" lon="-1.16705833">
        <ele>855.0</ele>
        <time>2019-07-31T16:37:20.126Z</time>
      </trkpt>
      <trkpt lat="42.98959" lon="-1.16705667">
        <ele>854.0</ele>
        <time>2019-07-31T16:37:21.133Z</time>
      </trkpt>
      <trkpt lat="42.98961" lon="-1.16706">
        <ele>853.0</ele>
        <time>2019-07-31T16:37:22.140Z</time>
      </trkpt>
      <trkpt lat="42.98962667" lon="-1.16706167">
        <ele>852.0</ele>
        <time>2019-07-31T16:37:23.145Z</time>
      </trkpt>
      <trkpt lat="42.98964667" lon="-1.16706333">
        <ele>852.0</ele>
        <time>2019-07-31T16:37:24.151Z</time>
      </trkpt>
      <trkpt lat="42.989665" lon="-1.167065">
        <ele>851.0</ele>
        <time>2019-07-31T16:37:25.156Z</time>
      </trkpt>
      <trkpt lat="42.98968" lon="-1.16707">
        <ele>850.0</ele>
        <time>2019-07-31T16:37:26.159Z</time>
      </trkpt>
      <trkpt lat="42.989695" lon="-1.16707333">
        <ele>849.0</ele>
        <time>2019-07-31T16:37:27.165Z</time>
      </trkpt>
      <trkpt lat="42.98971167" lon="-1.167075">
        <ele>849.0</ele>
        <time>2019-07-31T16:37:28.169Z</time>
      </trkpt>
      <trkpt lat="42.989725" lon="-1.16707833">
        <ele>847.0</ele>
        <time>2019-07-31T16:37:29.175Z</time>
      </trkpt>
      <trkpt lat="42.98974333" lon="-1.16708">
        <ele>846.0</ele>
        <time>2019-07-31T16:37:30.182Z</time>
      </trkpt>
      <trkpt lat="42.98976" lon="-1.16708">
        <ele>845.0</ele>
        <time>2019-07-31T16:37:31.062Z</time>
      </trkpt>
      <trkpt lat="42.98978" lon="-1.16708">
        <ele>844.0</ele>
        <time>2019-07-31T16:37:32.068Z</time>
      </trkpt>
      <trkpt lat="42.98979667" lon="-1.16707833">
        <ele>843.0</ele>
        <time>2019-07-31T16:37:33.075Z</time>
      </trkpt>
      <trkpt lat="42.98981333" lon="-1.16708">
        <ele>843.0</ele>
        <time>2019-07-31T16:37:34.080Z</time>
      </trkpt>
      <trkpt lat="42.98983" lon="-1.16708">
        <ele>842.0</ele>
        <time>2019-07-31T16:37:35.084Z</time>
      </trkpt>
      <trkpt lat="42.98984667" lon="-1.16708">
        <ele>842.0</ele>
        <time>2019-07-31T16:37:36.089Z</time>
      </trkpt>
      <trkpt lat="42.98986333" lon="-1.16707667">
        <ele>841.0</ele>
        <time>2019-07-31T16:37:37.097Z</time>
      </trkpt>
      <trkpt lat="42.98988" lon="-1.16707833">
        <ele>842.0</ele>
        <time>2019-07-31T16:37:38.104Z</time>
      </trkpt>
      <trkpt lat="42.989895" lon="-1.16708">
        <ele>841.0</ele>
        <time>2019-07-31T16:37:39.109Z</time>
      </trkpt>
      <trkpt lat="42.98991333" lon="-1.16708">
        <ele>841.0</ele>
        <time>2019-07-31T16:37:40.114Z</time>
      </trkpt>
      <trkpt lat="42.98993" lon="-1.16707667">
        <ele>840.0</ele>
        <time>2019-07-31T16:37:41.118Z</time>
      </trkpt>
      <trkpt lat="42.98994667" lon="-1.16707667">
        <ele>840.0</ele>
        <time>2019-07-31T16:37:42.124Z</time>
      </trkpt>
      <trkpt lat="42.98996167" lon="-1.167075">
        <ele>839.0</ele>
        <time>2019-07-31T16:37:43.130Z</time>
      </trkpt>
      <trkpt lat="42.98997667" lon="-1.16707667">
        <ele>839.0</ele>
        <time>2019-07-31T16:37:44.137Z</time>
      </trkpt>
      <trkpt lat="42.98999167" lon="-1.167075">
        <ele>838.0</ele>
        <time>2019-07-31T16:37:45.144Z</time>
      </trkpt>
      <trkpt lat="42.99000833" lon="-1.16707333">
        <ele>838.0</ele>
        <time>2019-07-31T16:37:46.147Z</time>
      </trkpt>
      <trkpt lat="42.99002333" lon="-1.16707333">
        <ele>837.0</ele>
        <time>2019-07-31T16:37:47.152Z</time>
      </trkpt>
      <trkpt lat="42.99004" lon="-1.16707">
        <ele>836.0</ele>
        <time>2019-07-31T16:37:48.156Z</time>
      </trkpt>
      <trkpt lat="42.990055" lon="-1.16706667">
        <ele>836.0</ele>
        <time>2019-07-31T16:37:49.160Z</time>
      </trkpt>
      <trkpt lat="42.99007333" lon="-1.16706333">
        <ele>835.0</ele>
        <time>2019-07-31T16:37:50.166Z</time>
      </trkpt>
      <trkpt lat="42.99009" lon="-1.16706167">
        <ele>835.0</ele>
        <time>2019-07-31T16:37:51.170Z</time>
      </trkpt>
      <trkpt lat="42.99010667" lon="-1.16706">
        <ele>835.0</ele>
        <time>2019-07-31T16:37:52.176Z</time>
      </trkpt>
      <trkpt lat="42.99012167" lon="-1.16706">
        <ele>835.0</ele>
        <time>2019-07-31T16:37:53.181Z</time>
      </trkpt>
      <trkpt lat="42.99013667" lon="-1.16705833">
        <ele>835.0</ele>
        <time>2019-07-31T16:37:54.062Z</time>
      </trkpt>
      <trkpt lat="42.99015167" lon="-1.16706167">
        <ele>835.0</ele>
        <time>2019-07-31T16:37:55.068Z</time>
      </trkpt>
      <trkpt lat="42.99016667" lon="-1.16706">
        <ele>835.0</ele>
        <time>2019-07-31T16:37:56.071Z</time>
      </trkpt>
      <trkpt lat="42.99017833" lon="-1.16706333">
        <ele>835.0</ele>
        <time>2019-07-31T16:37:57.073Z</time>
      </trkpt>
      <trkpt lat="42.99018833" lon="-1.16706667">
        <ele>835.0</ele>
        <time>2019-07-31T16:37:58.077Z</time>
      </trkpt>
      <trkpt lat="42.9902" lon="-1.16707333">
        <ele>836.0</ele>
        <time>2019-07-31T16:37:59.082Z</time>
      </trkpt>
      <trkpt lat="42.99021667" lon="-1.16707833">
        <ele>836.0</ele>
        <time>2019-07-31T16:38:00.085Z</time>
      </trkpt>
      <trkpt lat="42.99023" lon="-1.16708">
        <ele>835.0</ele>
        <time>2019-07-31T16:38:01.090Z</time>
      </trkpt>
      <trkpt lat="42.99024333" lon="-1.16708333">
        <ele>835.0</ele>
        <time>2019-07-31T16:38:02.095Z</time>
      </trkpt>
      <trkpt lat="42.99025667" lon="-1.16708667">
        <ele>834.0</ele>
        <time>2019-07-31T16:38:03.101Z</time>
      </trkpt>
      <trkpt lat="42.99027167" lon="-1.16708833">
        <ele>834.0</ele>
        <time>2019-07-31T16:38:04.108Z</time>
      </trkpt>
      <trkpt lat="42.99028833" lon="-1.16708833">
        <ele>834.0</ele>
        <time>2019-07-31T16:38:05.113Z</time>
      </trkpt>
      <trkpt lat="42.990305" lon="-1.16708833">
        <ele>834.0</ele>
        <time>2019-07-31T16:38:06.116Z</time>
      </trkpt>
      <trkpt lat="42.99032" lon="-1.167085">
        <ele>834.0</ele>
        <time>2019-07-31T16:38:07.120Z</time>
      </trkpt>
      <trkpt lat="42.990335" lon="-1.16708333">
        <ele>834.0</ele>
        <time>2019-07-31T16:38:08.125Z</time>
      </trkpt>
      <trkpt lat="42.99035" lon="-1.16708">
        <ele>835.0</ele>
        <time>2019-07-31T16:38:09.130Z</time>
      </trkpt>
      <trkpt lat="42.990365" lon="-1.16708">
        <ele>835.0</ele>
        <time>2019-07-31T16:38:10.135Z</time>
      </trkpt>
      <trkpt lat="42.99037833" lon="-1.16708">
        <ele>835.0</ele>
        <time>2019-07-31T16:38:11.140Z</time>
      </trkpt>
      <trkpt lat="42.99039167" lon="-1.16707833">
        <ele>835.0</ele>
        <time>2019-07-31T16:38:12.142Z</time>
      </trkpt>
      <trkpt lat="42.99040667" lon="-1.16707667">
        <ele>836.0</ele>
        <time>2019-07-31T16:38:13.145Z</time>
      </trkpt>
      <trkpt lat="42.99042167" lon="-1.16707667">
        <ele>836.0</ele>
        <time>2019-07-31T16:38:14.152Z</time>
      </trkpt>
      <trkpt lat="42.99043833" lon="-1.16707667">
        <ele>836.0</ele>
        <time>2019-07-31T16:38:15.157Z</time>
      </trkpt>
      <trkpt lat="42.99045333" lon="-1.16707667">
        <ele>836.0</ele>
        <time>2019-07-31T16:38:16.162Z</time>
      </trkpt>
      <trkpt lat="42.99046833" lon="-1.16708333">
        <ele>836.0</ele>
        <time>2019-07-31T16:38:17.167Z</time>
      </trkpt>
      <trkpt lat="42.99048167" lon="-1.167085">
        <ele>837.0</ele>
        <time>2019-07-31T16:38:18.173Z</time>
      </trkpt>
      <trkpt lat="42.990495" lon="-1.167085">
        <ele>837.0</ele>
        <time>2019-07-31T16:38:19.179Z</time>
      </trkpt>
      <trkpt lat="42.99051167" lon="-1.16708333">
        <ele>837.0</ele>
        <time>2019-07-31T16:38:20.184Z</time>
      </trkpt>
      <trkpt lat="42.99052333" lon="-1.167085">
        <ele>838.0</ele>
        <time>2019-07-31T16:38:21.063Z</time>
      </trkpt>
      <trkpt lat="42.99053667" lon="-1.167085">
        <ele>839.0</ele>
        <time>2019-07-31T16:38:22.069Z</time>
      </trkpt>
      <trkpt lat="42.99054833" lon="-1.16708333">
        <ele>839.0</ele>
        <time>2019-07-31T16:38:23.077Z</time>
      </trkpt>
      <trkpt lat="42.990565" lon="-1.16708">
        <ele>839.0</ele>
        <time>2019-07-31T16:38:24.084Z</time>
      </trkpt>
      <trkpt lat="42.99058" lon="-1.16708">
        <ele>839.0</ele>
        <time>2019-07-31T16:38:25.089Z</time>
      </trkpt>
      <trkpt lat="42.990595" lon="-1.16708333">
        <ele>840.0</ele>
        <time>2019-07-31T16:38:26.095Z</time>
      </trkpt>
      <trkpt lat="42.99060667" lon="-1.16708">
        <ele>841.0</ele>
        <time>2019-07-31T16:38:27.099Z</time>
      </trkpt>
      <trkpt lat="42.99062333" lon="-1.167075">
        <ele>841.0</ele>
        <time>2019-07-31T16:38:28.103Z</time>
      </trkpt>
      <trkpt lat="42.99063667" lon="-1.16707167">
        <ele>841.0</ele>
        <time>2019-07-31T16:38:29.109Z</time>
      </trkpt>
      <trkpt lat="42.99064833" lon="-1.16706333">
        <ele>842.0</ele>
        <time>2019-07-31T16:38:30.115Z</time>
      </trkpt>
      <trkpt lat="42.99066333" lon="-1.16705667">
        <ele>842.0</ele>
        <time>2019-07-31T16:38:31.121Z</time>
      </trkpt>
      <trkpt lat="42.99067667" lon="-1.16705333">
        <ele>842.0</ele>
        <time>2019-07-31T16:38:32.124Z</time>
      </trkpt>
      <trkpt lat="42.99068833" lon="-1.16705167">
        <ele>842.0</ele>
        <time>2019-07-31T16:38:33.128Z</time>
      </trkpt>
      <trkpt lat="42.99070333" lon="-1.16705167">
        <ele>841.0</ele>
        <time>2019-07-31T16:38:34.134Z</time>
      </trkpt>
      <trkpt lat="42.99071667" lon="-1.16705167">
        <ele>841.0</ele>
        <time>2019-07-31T16:38:35.139Z</time>
      </trkpt>
      <trkpt lat="42.99073167" lon="-1.16705167">
        <ele>842.0</ele>
        <time>2019-07-31T16:38:36.144Z</time>
      </trkpt>
      <trkpt lat="42.99074167" lon="-1.16705167">
        <ele>842.0</ele>
        <time>2019-07-31T16:38:37.148Z</time>
      </trkpt>
      <trkpt lat="42.990755" lon="-1.16705167">
        <ele>843.0</ele>
        <time>2019-07-31T16:38:38.153Z</time>
      </trkpt>
      <trkpt lat="42.99076833" lon="-1.16704833">
        <ele>842.0</ele>
        <time>2019-07-31T16:38:39.158Z</time>
      </trkpt>
      <trkpt lat="42.99078167" lon="-1.16704167">
        <ele>842.0</ele>
        <time>2019-07-31T16:38:40.163Z</time>
      </trkpt>
      <trkpt lat="42.99079667" lon="-1.16703667">
        <ele>842.0</ele>
        <time>2019-07-31T16:38:41.167Z</time>
      </trkpt>
      <trkpt lat="42.99081167" lon="-1.16703">
        <ele>842.0</ele>
        <time>2019-07-31T16:38:42.172Z</time>
      </trkpt>
      <trkpt lat="42.990825" lon="-1.16702">
        <ele>841.0</ele>
        <time>2019-07-31T16:38:43.179Z</time>
      </trkpt>
      <trkpt lat="42.99084" lon="-1.16700833">
        <ele>840.0</ele>
        <time>2019-07-31T16:38:44.185Z</time>
      </trkpt>
      <trkpt lat="42.99085167" lon="-1.16700167">
        <ele>840.0</ele>
        <time>2019-07-31T16:38:45.065Z</time>
      </trkpt>
      <trkpt lat="42.99086667" lon="-1.16698833">
        <ele>839.0</ele>
        <time>2019-07-31T16:38:46.071Z</time>
      </trkpt>
      <trkpt lat="42.99087833" lon="-1.166985">
        <ele>839.0</ele>
        <time>2019-07-31T16:38:47.078Z</time>
      </trkpt>
      <trkpt lat="42.99089333" lon="-1.166985">
        <ele>838.0</ele>
        <time>2019-07-31T16:38:48.084Z</time>
      </trkpt>
      <trkpt lat="42.990905" lon="-1.16698333">
        <ele>837.0</ele>
        <time>2019-07-31T16:38:49.088Z</time>
      </trkpt>
      <trkpt lat="42.99092" lon="-1.16698">
        <ele>836.0</ele>
        <time>2019-07-31T16:38:50.093Z</time>
      </trkpt>
      <trkpt lat="42.99093167" lon="-1.16697333">
        <ele>836.0</ele>
        <time>2019-07-31T16:38:51.099Z</time>
      </trkpt>
      <trkpt lat="42.99094667" lon="-1.16696333">
        <ele>835.0</ele>
        <time>2019-07-31T16:38:52.105Z</time>
      </trkpt>
      <trkpt lat="42.99095" lon="-1.16695">
        <ele>834.0</ele>
        <time>2019-07-31T16:38:53.111Z</time>
      </trkpt>
      <trkpt lat="42.99096333" lon="-1.16694">
        <ele>834.0</ele>
        <time>2019-07-31T16:38:54.117Z</time>
      </trkpt>
      <trkpt lat="42.99097667" lon="-1.16693">
        <ele>834.0</ele>
        <time>2019-07-31T16:38:55.123Z</time>
      </trkpt>
      <trkpt lat="42.99099167" lon="-1.16692167">
        <ele>834.0</ele>
        <time>2019-07-31T16:38:56.127Z</time>
      </trkpt>
      <trkpt lat="42.991005" lon="-1.16692">
        <ele>834.0</ele>
        <time>2019-07-31T16:38:57.134Z</time>
      </trkpt>
      <trkpt lat="42.99101333" lon="-1.166915">
        <ele>835.0</ele>
        <time>2019-07-31T16:38:58.140Z</time>
      </trkpt>
      <trkpt lat="42.99102667" lon="-1.16690667">
        <ele>835.0</ele>
        <time>2019-07-31T16:38:59.145Z</time>
      </trkpt>
      <trkpt lat="42.99104" lon="-1.166895">
        <ele>836.0</ele>
        <time>2019-07-31T16:39:00.151Z</time>
      </trkpt>
      <trkpt lat="42.99105833" lon="-1.166875">
        <ele>836.0</ele>
        <time>2019-07-31T16:39:01.158Z</time>
      </trkpt>
      <trkpt lat="42.99107333" lon="-1.166855">
        <ele>836.0</ele>
        <time>2019-07-31T16:39:02.165Z</time>
      </trkpt>
      <trkpt lat="42.99109167" lon="-1.16683833">
        <ele>836.0</ele>
        <time>2019-07-31T16:39:03.169Z</time>
      </trkpt>
      <trkpt lat="42.991105" lon="-1.166825">
        <ele>837.0</ele>
        <time>2019-07-31T16:39:04.174Z</time>
      </trkpt>
      <trkpt lat="42.99111833" lon="-1.16681">
        <ele>837.0</ele>
        <time>2019-07-31T16:39:05.180Z</time>
      </trkpt>
      <trkpt lat="42.99112833" lon="-1.16679">
        <ele>837.0</ele>
        <time>2019-07-31T16:39:06.186Z</time>
      </trkpt>
      <trkpt lat="42.99113667" lon="-1.166775">
        <ele>836.0</ele>
        <time>2019-07-31T16:39:07.067Z</time>
      </trkpt>
      <trkpt lat="42.991145" lon="-1.16675667">
        <ele>835.0</ele>
        <time>2019-07-31T16:39:08.069Z</time>
      </trkpt>
      <trkpt lat="42.99115167" lon="-1.166745">
        <ele>836.0</ele>
        <time>2019-07-31T16:39:09.075Z</time>
      </trkpt>
      <trkpt lat="42.99116667" lon="-1.16672833">
        <ele>835.0</ele>
        <time>2019-07-31T16:39:10.080Z</time>
      </trkpt>
      <trkpt lat="42.99118167" lon="-1.16671667">
        <ele>835.0</ele>
        <time>2019-07-31T16:39:11.084Z</time>
      </trkpt>
      <trkpt lat="42.99119167" lon="-1.16670667">
        <ele>835.0</ele>
        <time>2019-07-31T16:39:12.086Z</time>
      </trkpt>
      <trkpt lat="42.99120333" lon="-1.16670167">
        <ele>834.0</ele>
        <time>2019-07-31T16:39:13.090Z</time>
      </trkpt>
      <trkpt lat="42.99121167" lon="-1.16669833">
        <ele>835.0</ele>
        <time>2019-07-31T16:39:14.095Z</time>
      </trkpt>
      <trkpt lat="42.991225" lon="-1.16669167">
        <ele>834.0</ele>
        <time>2019-07-31T16:39:15.100Z</time>
      </trkpt>
      <trkpt lat="42.99123667" lon="-1.16668667">
        <ele>835.0</ele>
        <time>2019-07-31T16:39:16.106Z</time>
      </trkpt>
      <trkpt lat="42.99125" lon="-1.16667833">
        <ele>835.0</ele>
        <time>2019-07-31T16:39:17.113Z</time>
      </trkpt>
      <trkpt lat="42.991265" lon="-1.166675">
        <ele>836.0</ele>
        <time>2019-07-31T16:39:18.119Z</time>
      </trkpt>
      <trkpt lat="42.99127667" lon="-1.16667">
        <ele>836.0</ele>
        <time>2019-07-31T16:39:19.124Z</time>
      </trkpt>
      <trkpt lat="42.99129167" lon="-1.16666667">
        <ele>837.0</ele>
        <time>2019-07-31T16:39:20.129Z</time>
      </trkpt>
      <trkpt lat="42.99130833" lon="-1.16666167">
        <ele>837.0</ele>
        <time>2019-07-31T16:39:21.135Z</time>
      </trkpt>
      <trkpt lat="42.99132167" lon="-1.16665833">
        <ele>837.0</ele>
        <time>2019-07-31T16:39:22.142Z</time>
      </trkpt>
      <trkpt lat="42.99133167" lon="-1.166655">
        <ele>838.0</ele>
        <time>2019-07-31T16:39:23.148Z</time>
      </trkpt>
      <trkpt lat="42.991345" lon="-1.16665">
        <ele>839.0</ele>
        <time>2019-07-31T16:39:24.153Z</time>
      </trkpt>
      <trkpt lat="42.99136333" lon="-1.16664333">
        <ele>839.0</ele>
        <time>2019-07-31T16:39:25.158Z</time>
      </trkpt>
      <trkpt lat="42.99137333" lon="-1.16664167">
        <ele>839.0</ele>
        <time>2019-07-31T16:39:26.163Z</time>
      </trkpt>
      <trkpt lat="42.991385" lon="-1.16664167">
        <ele>839.0</ele>
        <time>2019-07-31T16:39:27.168Z</time>
      </trkpt>
      <trkpt lat="42.99139833" lon="-1.166645">
        <ele>839.0</ele>
        <time>2019-07-31T16:39:28.174Z</time>
      </trkpt>
      <trkpt lat="42.99141167" lon="-1.16664833">
        <ele>840.0</ele>
        <time>2019-07-31T16:39:29.178Z</time>
      </trkpt>
      <trkpt lat="42.99142667" lon="-1.166655">
        <ele>840.0</ele>
        <time>2019-07-31T16:39:30.182Z</time>
      </trkpt>
      <trkpt lat="42.99144167" lon="-1.16665">
        <ele>841.0</ele>
        <time>2019-07-31T16:39:31.061Z</time>
      </trkpt>
      <trkpt lat="42.99145833" lon="-1.16663667">
        <ele>841.0</ele>
        <time>2019-07-31T16:39:32.067Z</time>
      </trkpt>
      <trkpt lat="42.99147167" lon="-1.16662167">
        <ele>842.0</ele>
        <time>2019-07-31T16:39:33.074Z</time>
      </trkpt>
      <trkpt lat="42.99148667" lon="-1.166605">
        <ele>842.0</ele>
        <time>2019-07-31T16:39:34.079Z</time>
      </trkpt>
      <trkpt lat="42.991505" lon="-1.16658333">
        <ele>842.0</ele>
        <time>2019-07-31T16:39:35.084Z</time>
      </trkpt>
      <trkpt lat="42.99152" lon="-1.16657167">
        <ele>842.0</ele>
        <time>2019-07-31T16:39:36.088Z</time>
      </trkpt>
      <trkpt lat="42.99153167" lon="-1.16656">
        <ele>842.0</ele>
        <time>2019-07-31T16:39:37.095Z</time>
      </trkpt>
      <trkpt lat="42.99154667" lon="-1.16654833">
        <ele>841.0</ele>
        <time>2019-07-31T16:39:38.102Z</time>
      </trkpt>
      <trkpt lat="42.99156" lon="-1.16653667">
        <ele>840.0</ele>
        <time>2019-07-31T16:39:39.108Z</time>
      </trkpt>
      <trkpt lat="42.99157333" lon="-1.16652333">
        <ele>840.0</ele>
        <time>2019-07-31T16:39:40.114Z</time>
      </trkpt>
      <trkpt lat="42.99158667" lon="-1.16651333">
        <ele>840.0</ele>
        <time>2019-07-31T16:39:41.120Z</time>
      </trkpt>
      <trkpt lat="42.99159833" lon="-1.166505">
        <ele>840.0</ele>
        <time>2019-07-31T16:39:42.125Z</time>
      </trkpt>
      <trkpt lat="42.99161167" lon="-1.16649833">
        <ele>839.0</ele>
        <time>2019-07-31T16:39:43.131Z</time>
      </trkpt>
      <trkpt lat="42.991625" lon="-1.16649167">
        <ele>838.0</ele>
        <time>2019-07-31T16:39:44.136Z</time>
      </trkpt>
      <trkpt lat="42.99163833" lon="-1.166485">
        <ele>837.0</ele>
        <time>2019-07-31T16:39:45.141Z</time>
      </trkpt>
      <trkpt lat="42.99165167" lon="-1.16648">
        <ele>837.0</ele>
        <time>2019-07-31T16:39:46.144Z</time>
      </trkpt>
      <trkpt lat="42.991665" lon="-1.166475">
        <ele>836.0</ele>
        <time>2019-07-31T16:39:47.151Z</time>
      </trkpt>
      <trkpt lat="42.99167667" lon="-1.16646833">
        <ele>837.0</ele>
        <time>2019-07-31T16:39:48.158Z</time>
      </trkpt>
      <trkpt lat="42.991695" lon="-1.16646167">
        <ele>837.0</ele>
        <time>2019-07-31T16:39:49.164Z</time>
      </trkpt>
      <trkpt lat="42.99170833" lon="-1.16645167">
        <ele>836.0</ele>
        <time>2019-07-31T16:39:50.167Z</time>
      </trkpt>
      <trkpt lat="42.99172167" lon="-1.166445">
        <ele>836.0</ele>
        <time>2019-07-31T16:39:51.172Z</time>
      </trkpt>
      <trkpt lat="42.991735" lon="-1.166435">
        <ele>836.0</ele>
        <time>2019-07-31T16:39:52.180Z</time>
      </trkpt>
      <trkpt lat="42.99175167" lon="-1.16642667">
        <ele>836.0</ele>
        <time>2019-07-31T16:39:53.061Z</time>
      </trkpt>
      <trkpt lat="42.99176833" lon="-1.16642333">
        <ele>836.0</ele>
        <time>2019-07-31T16:39:54.066Z</time>
      </trkpt>
      <trkpt lat="42.991785" lon="-1.16641833">
        <ele>836.0</ele>
        <time>2019-07-31T16:39:55.072Z</time>
      </trkpt>
      <trkpt lat="42.99180333" lon="-1.16641">
        <ele>836.0</ele>
        <time>2019-07-31T16:39:56.076Z</time>
      </trkpt>
      <trkpt lat="42.99181833" lon="-1.16640333">
        <ele>837.0</ele>
        <time>2019-07-31T16:39:57.082Z</time>
      </trkpt>
      <trkpt lat="42.991835" lon="-1.16639833">
        <ele>837.0</ele>
        <time>2019-07-31T16:39:58.086Z</time>
      </trkpt>
      <trkpt lat="42.99184833" lon="-1.166395">
        <ele>837.0</ele>
        <time>2019-07-31T16:39:59.092Z</time>
      </trkpt>
      <trkpt lat="42.99186" lon="-1.16639167">
        <ele>837.0</ele>
        <time>2019-07-31T16:40:00.096Z</time>
      </trkpt>
      <trkpt lat="42.99187333" lon="-1.166385">
        <ele>837.0</ele>
        <time>2019-07-31T16:40:01.102Z</time>
      </trkpt>
      <trkpt lat="42.99189" lon="-1.16637833">
        <ele>837.0</ele>
        <time>2019-07-31T16:40:02.106Z</time>
      </trkpt>
      <trkpt lat="42.99190333" lon="-1.16637167">
        <ele>837.0</ele>
        <time>2019-07-31T16:40:03.112Z</time>
      </trkpt>
      <trkpt lat="42.99191833" lon="-1.16636667">
        <ele>836.0</ele>
        <time>2019-07-31T16:40:04.117Z</time>
      </trkpt>
      <trkpt lat="42.99193667" lon="-1.16636167">
        <ele>836.0</ele>
        <time>2019-07-31T16:40:05.124Z</time>
      </trkpt>
      <trkpt lat="42.99194667" lon="-1.16635167">
        <ele>836.0</ele>
        <time>2019-07-31T16:40:06.126Z</time>
      </trkpt>
      <trkpt lat="42.99196167" lon="-1.166345">
        <ele>836.0</ele>
        <time>2019-07-31T16:40:07.129Z</time>
      </trkpt>
      <trkpt lat="42.99197833" lon="-1.16633833">
        <ele>835.0</ele>
        <time>2019-07-31T16:40:08.134Z</time>
      </trkpt>
      <trkpt lat="42.99199333" lon="-1.16633333">
        <ele>835.0</ele>
        <time>2019-07-31T16:40:09.141Z</time>
      </trkpt>
      <trkpt lat="42.99201167" lon="-1.16632833">
        <ele>835.0</ele>
        <time>2019-07-31T16:40:10.146Z</time>
      </trkpt>
      <trkpt lat="42.99202333" lon="-1.16632167">
        <ele>836.0</ele>
        <time>2019-07-31T16:40:11.151Z</time>
      </trkpt>
      <trkpt lat="42.99204167" lon="-1.16631833">
        <ele>836.0</ele>
        <time>2019-07-31T16:40:12.157Z</time>
      </trkpt>
      <trkpt lat="42.99206167" lon="-1.166315">
        <ele>837.0</ele>
        <time>2019-07-31T16:40:13.163Z</time>
      </trkpt>
      <trkpt lat="42.99207667" lon="-1.16631333">
        <ele>837.0</ele>
        <time>2019-07-31T16:40:14.168Z</time>
      </trkpt>
      <trkpt lat="42.992095" lon="-1.166315">
        <ele>838.0</ele>
        <time>2019-07-31T16:40:15.173Z</time>
      </trkpt>
      <trkpt lat="42.99211167" lon="-1.16631333">
        <ele>839.0</ele>
        <time>2019-07-31T16:40:16.179Z</time>
      </trkpt>
      <trkpt lat="42.99213" lon="-1.166315">
        <ele>839.0</ele>
        <time>2019-07-31T16:40:17.186Z</time>
      </trkpt>
      <trkpt lat="42.99214667" lon="-1.16631833">
        <ele>839.0</ele>
        <time>2019-07-31T16:40:18.066Z</time>
      </trkpt>
      <trkpt lat="42.992165" lon="-1.16632">
        <ele>839.0</ele>
        <time>2019-07-31T16:40:19.070Z</time>
      </trkpt>
      <trkpt lat="42.99218167" lon="-1.16632">
        <ele>839.0</ele>
        <time>2019-07-31T16:40:20.076Z</time>
      </trkpt>
      <trkpt lat="42.99219667" lon="-1.16632">
        <ele>839.0</ele>
        <time>2019-07-31T16:40:21.082Z</time>
      </trkpt>
      <trkpt lat="42.99221333" lon="-1.166325">
        <ele>839.0</ele>
        <time>2019-07-31T16:40:22.086Z</time>
      </trkpt>
      <trkpt lat="42.99223" lon="-1.16633333">
        <ele>840.0</ele>
        <time>2019-07-31T16:40:23.089Z</time>
      </trkpt>
      <trkpt lat="42.992245" lon="-1.16633833">
        <ele>840.0</ele>
        <time>2019-07-31T16:40:24.094Z</time>
      </trkpt>
      <trkpt lat="42.99226" lon="-1.16634">
        <ele>840.0</ele>
        <time>2019-07-31T16:40:25.099Z</time>
      </trkpt>
      <trkpt lat="42.99227333" lon="-1.16634667">
        <ele>840.0</ele>
        <time>2019-07-31T16:40:26.103Z</time>
      </trkpt>
      <trkpt lat="42.99229333" lon="-1.16634667">
        <ele>840.0</ele>
        <time>2019-07-31T16:40:27.107Z</time>
      </trkpt>
      <trkpt lat="42.99231" lon="-1.16634333">
        <ele>840.0</ele>
        <time>2019-07-31T16:40:28.109Z</time>
      </trkpt>
      <trkpt lat="42.99232833" lon="-1.16634333">
        <ele>840.0</ele>
        <time>2019-07-31T16:40:29.116Z</time>
      </trkpt>
      <trkpt lat="42.992345" lon="-1.16634333">
        <ele>840.0</ele>
        <time>2019-07-31T16:40:30.122Z</time>
      </trkpt>
      <trkpt lat="42.99236" lon="-1.16634667">
        <ele>840.0</ele>
        <time>2019-07-31T16:40:31.127Z</time>
      </trkpt>
      <trkpt lat="42.99237667" lon="-1.16635">
        <ele>839.0</ele>
        <time>2019-07-31T16:40:32.132Z</time>
      </trkpt>
      <trkpt lat="42.99239167" lon="-1.166355">
        <ele>839.0</ele>
        <time>2019-07-31T16:40:33.134Z</time>
      </trkpt>
      <trkpt lat="42.99240667" lon="-1.166355">
        <ele>840.0</ele>
        <time>2019-07-31T16:40:34.140Z</time>
      </trkpt>
      <trkpt lat="42.99242333" lon="-1.16635333">
        <ele>839.0</ele>
        <time>2019-07-31T16:40:35.147Z</time>
      </trkpt>
      <trkpt lat="42.99244167" lon="-1.16635333">
        <ele>839.0</ele>
        <time>2019-07-31T16:40:36.154Z</time>
      </trkpt>
      <trkpt lat="42.99245833" lon="-1.166355">
        <ele>839.0</ele>
        <time>2019-07-31T16:40:37.161Z</time>
      </trkpt>
      <trkpt lat="42.99247667" lon="-1.16635333">
        <ele>840.0</ele>
        <time>2019-07-31T16:40:38.166Z</time>
      </trkpt>
      <trkpt lat="42.99249167" lon="-1.16635167">
        <ele>840.0</ele>
        <time>2019-07-31T16:40:39.171Z</time>
      </trkpt>
      <trkpt lat="42.99250667" lon="-1.16635167">
        <ele>841.0</ele>
        <time>2019-07-31T16:40:40.178Z</time>
      </trkpt>
      <trkpt lat="42.992525" lon="-1.16635333">
        <ele>840.0</ele>
        <time>2019-07-31T16:40:41.182Z</time>
      </trkpt>
      <trkpt lat="42.99254167" lon="-1.16635833">
        <ele>840.0</ele>
        <time>2019-07-31T16:40:42.062Z</time>
      </trkpt>
      <trkpt lat="42.99255667" lon="-1.166365">
        <ele>840.0</ele>
        <time>2019-07-31T16:40:43.068Z</time>
      </trkpt>
      <trkpt lat="42.99256833" lon="-1.16637333">
        <ele>840.0</ele>
        <time>2019-07-31T16:40:44.073Z</time>
      </trkpt>
      <trkpt lat="42.99258667" lon="-1.16638167">
        <ele>840.0</ele>
        <time>2019-07-31T16:40:45.076Z</time>
      </trkpt>
      <trkpt lat="42.99260167" lon="-1.16639167">
        <ele>840.0</ele>
        <time>2019-07-31T16:40:46.081Z</time>
      </trkpt>
      <trkpt lat="42.992615" lon="-1.16640167">
        <ele>841.0</ele>
        <time>2019-07-31T16:40:47.086Z</time>
      </trkpt>
      <trkpt lat="42.992625" lon="-1.16641">
        <ele>842.0</ele>
        <time>2019-07-31T16:40:48.092Z</time>
      </trkpt>
      <trkpt lat="42.99263667" lon="-1.16642">
        <ele>842.0</ele>
        <time>2019-07-31T16:40:49.097Z</time>
      </trkpt>
      <trkpt lat="42.99265333" lon="-1.16643333">
        <ele>843.0</ele>
        <time>2019-07-31T16:40:50.103Z</time>
      </trkpt>
      <trkpt lat="42.99267167" lon="-1.166445">
        <ele>845.0</ele>
        <time>2019-07-31T16:40:51.109Z</time>
      </trkpt>
      <trkpt lat="42.99268667" lon="-1.166455">
        <ele>846.0</ele>
        <time>2019-07-31T16:40:52.117Z</time>
      </trkpt>
      <trkpt lat="42.99270167" lon="-1.16646333">
        <ele>846.0</ele>
        <time>2019-07-31T16:40:53.121Z</time>
      </trkpt>
      <trkpt lat="42.99271333" lon="-1.16647167">
        <ele>847.0</ele>
        <time>2019-07-31T16:40:54.125Z</time>
      </trkpt>
      <trkpt lat="42.99273" lon="-1.16648667">
        <ele>848.0</ele>
        <time>2019-07-31T16:40:55.129Z</time>
      </trkpt>
      <trkpt lat="42.992745" lon="-1.16649833">
        <ele>848.0</ele>
        <time>2019-07-31T16:40:56.135Z</time>
      </trkpt>
      <trkpt lat="42.99276167" lon="-1.16650667">
        <ele>848.0</ele>
        <time>2019-07-31T16:40:57.140Z</time>
      </trkpt>
      <trkpt lat="42.99277333" lon="-1.166515">
        <ele>848.0</ele>
        <time>2019-07-31T16:40:58.146Z</time>
      </trkpt>
      <trkpt lat="42.99278833" lon="-1.166525">
        <ele>848.0</ele>
        <time>2019-07-31T16:40:59.150Z</time>
      </trkpt>
      <trkpt lat="42.99280667" lon="-1.16653667">
        <ele>848.0</ele>
        <time>2019-07-31T16:41:00.156Z</time>
      </trkpt>
      <trkpt lat="42.99282" lon="-1.16654667">
        <ele>848.0</ele>
        <time>2019-07-31T16:41:01.160Z</time>
      </trkpt>
      <trkpt lat="42.99283667" lon="-1.16655667">
        <ele>848.0</ele>
        <time>2019-07-31T16:41:02.164Z</time>
      </trkpt>
      <trkpt lat="42.99285" lon="-1.166565">
        <ele>849.0</ele>
        <time>2019-07-31T16:41:03.168Z</time>
      </trkpt>
      <trkpt lat="42.99286833" lon="-1.16657833">
        <ele>849.0</ele>
        <time>2019-07-31T16:41:04.175Z</time>
      </trkpt>
      <trkpt lat="42.99288333" lon="-1.16659">
        <ele>849.0</ele>
        <time>2019-07-31T16:41:05.182Z</time>
      </trkpt>
      <trkpt lat="42.99289667" lon="-1.16659833">
        <ele>849.0</ele>
        <time>2019-07-31T16:41:06.062Z</time>
      </trkpt>
      <trkpt lat="42.99290667" lon="-1.16660667">
        <ele>849.0</ele>
        <time>2019-07-31T16:41:07.065Z</time>
      </trkpt>
      <trkpt lat="42.99292167" lon="-1.166615">
        <ele>849.0</ele>
        <time>2019-07-31T16:41:08.070Z</time>
      </trkpt>
      <trkpt lat="42.99293833" lon="-1.16662833">
        <ele>850.0</ele>
        <time>2019-07-31T16:41:09.075Z</time>
      </trkpt>
      <trkpt lat="42.99295167" lon="-1.16663833">
        <ele>850.0</ele>
        <time>2019-07-31T16:41:10.080Z</time>
      </trkpt>
      <trkpt lat="42.99296333" lon="-1.16665167">
        <ele>851.0</ele>
        <time>2019-07-31T16:41:11.086Z</time>
      </trkpt>
      <trkpt lat="42.99297833" lon="-1.16666333">
        <ele>851.0</ele>
        <time>2019-07-31T16:41:12.089Z</time>
      </trkpt>
      <trkpt lat="42.99299" lon="-1.166675">
        <ele>851.0</ele>
        <time>2019-07-31T16:41:13.093Z</time>
      </trkpt>
      <trkpt lat="42.99300167" lon="-1.16669167">
        <ele>852.0</ele>
        <time>2019-07-31T16:41:14.099Z</time>
      </trkpt>
      <trkpt lat="42.99301667" lon="-1.16670333">
        <ele>852.0</ele>
        <time>2019-07-31T16:41:15.102Z</time>
      </trkpt>
      <trkpt lat="42.99303" lon="-1.16671167">
        <ele>852.0</ele>
        <time>2019-07-31T16:41:16.107Z</time>
      </trkpt>
      <trkpt lat="42.99304333" lon="-1.16671833">
        <ele>851.0</ele>
        <time>2019-07-31T16:41:17.113Z</time>
      </trkpt>
      <trkpt lat="42.99305667" lon="-1.16672667">
        <ele>850.0</ele>
        <time>2019-07-31T16:41:18.118Z</time>
      </trkpt>
      <trkpt lat="42.99307167" lon="-1.16673">
        <ele>849.0</ele>
        <time>2019-07-31T16:41:19.122Z</time>
      </trkpt>
      <trkpt lat="42.99308833" lon="-1.16673667">
        <ele>849.0</ele>
        <time>2019-07-31T16:41:20.123Z</time>
      </trkpt>
      <trkpt lat="42.99310167" lon="-1.166745">
        <ele>848.0</ele>
        <time>2019-07-31T16:41:21.128Z</time>
      </trkpt>
      <trkpt lat="42.993115" lon="-1.16675167">
        <ele>848.0</ele>
        <time>2019-07-31T16:41:22.135Z</time>
      </trkpt>
      <trkpt lat="42.99313" lon="-1.16675833">
        <ele>847.0</ele>
        <time>2019-07-31T16:41:23.143Z</time>
      </trkpt>
      <trkpt lat="42.99314333" lon="-1.16676667">
        <ele>847.0</ele>
        <time>2019-07-31T16:41:24.148Z</time>
      </trkpt>
      <trkpt lat="42.993155" lon="-1.16677667">
        <ele>847.0</ele>
        <time>2019-07-31T16:41:25.153Z</time>
      </trkpt>
      <trkpt lat="42.99316667" lon="-1.16678333">
        <ele>847.0</ele>
        <time>2019-07-31T16:41:26.157Z</time>
      </trkpt>
      <trkpt lat="42.99318333" lon="-1.16679333">
        <ele>847.0</ele>
        <time>2019-07-31T16:41:27.162Z</time>
      </trkpt>
      <trkpt lat="42.99319667" lon="-1.16680167">
        <ele>847.0</ele>
        <time>2019-07-31T16:41:28.168Z</time>
      </trkpt>
      <trkpt lat="42.99320833" lon="-1.16680833">
        <ele>847.0</ele>
        <time>2019-07-31T16:41:29.174Z</time>
      </trkpt>
      <trkpt lat="42.993225" lon="-1.166815">
        <ele>847.0</ele>
        <time>2019-07-31T16:41:30.179Z</time>
      </trkpt>
      <trkpt lat="42.99323833" lon="-1.16682333">
        <ele>848.0</ele>
        <time>2019-07-31T16:41:31.185Z</time>
      </trkpt>
      <trkpt lat="42.99325667" lon="-1.166835">
        <ele>848.0</ele>
        <time>2019-07-31T16:41:32.063Z</time>
      </trkpt>
      <trkpt lat="42.99327167" lon="-1.16684667">
        <ele>849.0</ele>
        <time>2019-07-31T16:41:33.068Z</time>
      </trkpt>
      <trkpt lat="42.99328333" lon="-1.16685333">
        <ele>849.0</ele>
        <time>2019-07-31T16:41:34.075Z</time>
      </trkpt>
      <trkpt lat="42.99329667" lon="-1.16686167">
        <ele>849.0</ele>
        <time>2019-07-31T16:41:35.080Z</time>
      </trkpt>
      <trkpt lat="42.99330667" lon="-1.16687167">
        <ele>849.0</ele>
        <time>2019-07-31T16:41:36.085Z</time>
      </trkpt>
      <trkpt lat="42.99332" lon="-1.16687833">
        <ele>849.0</ele>
        <time>2019-07-31T16:41:37.090Z</time>
      </trkpt>
      <trkpt lat="42.99332833" lon="-1.16688167">
        <ele>849.0</ele>
        <time>2019-07-31T16:41:38.097Z</time>
      </trkpt>
      <trkpt lat="42.99333667" lon="-1.16688833">
        <ele>848.0</ele>
        <time>2019-07-31T16:41:39.103Z</time>
      </trkpt>
      <trkpt lat="42.99334667" lon="-1.16689333">
        <ele>848.0</ele>
        <time>2019-07-31T16:41:40.109Z</time>
      </trkpt>
      <trkpt lat="42.99336167" lon="-1.166905">
        <ele>849.0</ele>
        <time>2019-07-31T16:41:41.115Z</time>
      </trkpt>
      <trkpt lat="42.99337333" lon="-1.16691167">
        <ele>849.0</ele>
        <time>2019-07-31T16:41:42.118Z</time>
      </trkpt>
      <trkpt lat="42.99338667" lon="-1.16692167">
        <ele>849.0</ele>
        <time>2019-07-31T16:41:43.123Z</time>
      </trkpt>
      <trkpt lat="42.9934" lon="-1.16693333">
        <ele>850.0</ele>
        <time>2019-07-31T16:41:44.129Z</time>
      </trkpt>
      <trkpt lat="42.99340833" lon="-1.16694333">
        <ele>850.0</ele>
        <time>2019-07-31T16:41:45.134Z</time>
      </trkpt>
      <trkpt lat="42.99341667" lon="-1.166955">
        <ele>850.0</ele>
        <time>2019-07-31T16:41:46.140Z</time>
      </trkpt>
      <trkpt lat="42.993425" lon="-1.16696167">
        <ele>850.0</ele>
        <time>2019-07-31T16:41:47.147Z</time>
      </trkpt>
      <trkpt lat="42.993435" lon="-1.16697167">
        <ele>850.0</ele>
        <time>2019-07-31T16:41:48.152Z</time>
      </trkpt>
      <trkpt lat="42.99344667" lon="-1.16698167">
        <ele>850.0</ele>
        <time>2019-07-31T16:41:49.158Z</time>
      </trkpt>
      <trkpt lat="42.993455" lon="-1.16699167">
        <ele>850.0</ele>
        <time>2019-07-31T16:41:50.163Z</time>
      </trkpt>
      <trkpt lat="42.99347" lon="-1.16700667">
        <ele>850.0</ele>
        <time>2019-07-31T16:41:51.167Z</time>
      </trkpt>
      <trkpt lat="42.99348667" lon="-1.16702167">
        <ele>850.0</ele>
        <time>2019-07-31T16:41:52.174Z</time>
      </trkpt>
      <trkpt lat="42.99350167" lon="-1.16704833">
        <ele>852.0</ele>
        <time>2019-07-31T16:41:53.179Z</time>
      </trkpt>
      <trkpt lat="42.99351667" lon="-1.16706333">
        <ele>853.0</ele>
        <time>2019-07-31T16:41:54.183Z</time>
      </trkpt>
      <trkpt lat="42.99353" lon="-1.16707167">
        <ele>853.0</ele>
        <time>2019-07-31T16:41:55.063Z</time>
      </trkpt>
      <trkpt lat="42.99354667" lon="-1.167085">
        <ele>853.0</ele>
        <time>2019-07-31T16:41:56.066Z</time>
      </trkpt>
      <trkpt lat="42.99356167" lon="-1.16709167">
        <ele>852.0</ele>
        <time>2019-07-31T16:41:57.073Z</time>
      </trkpt>
      <trkpt lat="42.99357667" lon="-1.167105">
        <ele>852.0</ele>
        <time>2019-07-31T16:41:58.077Z</time>
      </trkpt>
      <trkpt lat="42.99359333" lon="-1.16711833">
        <ele>853.0</ele>
        <time>2019-07-31T16:41:59.081Z</time>
      </trkpt>
      <trkpt lat="42.99360833" lon="-1.16712833">
        <ele>852.0</ele>
        <time>2019-07-31T16:42:00.085Z</time>
      </trkpt>
      <trkpt lat="42.99362333" lon="-1.16714">
        <ele>852.0</ele>
        <time>2019-07-31T16:42:01.091Z</time>
      </trkpt>
      <trkpt lat="42.99364" lon="-1.16715">
        <ele>852.0</ele>
        <time>2019-07-31T16:42:02.097Z</time>
      </trkpt>
      <trkpt lat="42.99365667" lon="-1.16715833">
        <ele>852.0</ele>
        <time>2019-07-31T16:42:03.103Z</time>
      </trkpt>
      <trkpt lat="42.99367167" lon="-1.16717">
        <ele>852.0</ele>
        <time>2019-07-31T16:42:04.108Z</time>
      </trkpt>
      <trkpt lat="42.99368833" lon="-1.16718">
        <ele>852.0</ele>
        <time>2019-07-31T16:42:05.116Z</time>
      </trkpt>
      <trkpt lat="42.993705" lon="-1.16718667">
        <ele>853.0</ele>
        <time>2019-07-31T16:42:06.122Z</time>
      </trkpt>
      <trkpt lat="42.99372333" lon="-1.16719833">
        <ele>853.0</ele>
        <time>2019-07-31T16:42:07.127Z</time>
      </trkpt>
      <trkpt lat="42.99373833" lon="-1.16720833">
        <ele>853.0</ele>
        <time>2019-07-31T16:42:08.135Z</time>
      </trkpt>
      <trkpt lat="42.99375333" lon="-1.16721833">
        <ele>853.0</ele>
        <time>2019-07-31T16:42:09.139Z</time>
      </trkpt>
      <trkpt lat="42.99376833" lon="-1.16723167">
        <ele>853.0</ele>
        <time>2019-07-31T16:42:10.145Z</time>
      </trkpt>
      <trkpt lat="42.99378" lon="-1.16724">
        <ele>853.0</ele>
        <time>2019-07-31T16:42:11.149Z</time>
      </trkpt>
      <trkpt lat="42.99379333" lon="-1.16725167">
        <ele>853.0</ele>
        <time>2019-07-31T16:42:12.154Z</time>
      </trkpt>
      <trkpt lat="42.99381" lon="-1.167265">
        <ele>853.0</ele>
        <time>2019-07-31T16:42:13.159Z</time>
      </trkpt>
      <trkpt lat="42.99382" lon="-1.16727333">
        <ele>853.0</ele>
        <time>2019-07-31T16:42:14.164Z</time>
      </trkpt>
      <trkpt lat="42.993835" lon="-1.16728667">
        <ele>853.0</ele>
        <time>2019-07-31T16:42:15.169Z</time>
      </trkpt>
      <trkpt lat="42.99385" lon="-1.16729333">
        <ele>853.0</ele>
        <time>2019-07-31T16:42:16.176Z</time>
      </trkpt>
      <trkpt lat="42.993865" lon="-1.16729833">
        <ele>853.0</ele>
        <time>2019-07-31T16:42:17.183Z</time>
      </trkpt>
      <trkpt lat="42.99387833" lon="-1.16730833">
        <ele>853.0</ele>
        <time>2019-07-31T16:42:18.062Z</time>
      </trkpt>
      <trkpt lat="42.99389167" lon="-1.16731667">
        <ele>853.0</ele>
        <time>2019-07-31T16:42:19.067Z</time>
      </trkpt>
      <trkpt lat="42.993905" lon="-1.16732667">
        <ele>853.0</ele>
        <time>2019-07-31T16:42:20.071Z</time>
      </trkpt>
      <trkpt lat="42.99391833" lon="-1.16733667">
        <ele>852.0</ele>
        <time>2019-07-31T16:42:21.075Z</time>
      </trkpt>
      <trkpt lat="42.99393167" lon="-1.16734833">
        <ele>852.0</ele>
        <time>2019-07-31T16:42:22.080Z</time>
      </trkpt>
      <trkpt lat="42.99394167" lon="-1.16735667">
        <ele>852.0</ele>
        <time>2019-07-31T16:42:23.084Z</time>
      </trkpt>
      <trkpt lat="42.993955" lon="-1.16736667">
        <ele>852.0</ele>
        <time>2019-07-31T16:42:24.089Z</time>
      </trkpt>
      <trkpt lat="42.99397" lon="-1.167385">
        <ele>852.0</ele>
        <time>2019-07-31T16:42:25.095Z</time>
      </trkpt>
      <trkpt lat="42.99398333" lon="-1.16739833">
        <ele>853.0</ele>
        <time>2019-07-31T16:42:26.100Z</time>
      </trkpt>
      <trkpt lat="42.99399667" lon="-1.16741167">
        <ele>853.0</ele>
        <time>2019-07-31T16:42:27.105Z</time>
      </trkpt>
      <trkpt lat="42.99400833" lon="-1.167425">
        <ele>853.0</ele>
        <time>2019-07-31T16:42:28.112Z</time>
      </trkpt>
      <trkpt lat="42.99402167" lon="-1.16743667">
        <ele>853.0</ele>
        <time>2019-07-31T16:42:29.116Z</time>
      </trkpt>
      <trkpt lat="42.99403333" lon="-1.16745167">
        <ele>853.0</ele>
        <time>2019-07-31T16:42:30.119Z</time>
      </trkpt>
      <trkpt lat="42.994045" lon="-1.16746667">
        <ele>854.0</ele>
        <time>2019-07-31T16:42:31.124Z</time>
      </trkpt>
      <trkpt lat="42.99405333" lon="-1.16747833">
        <ele>854.0</ele>
        <time>2019-07-31T16:42:32.129Z</time>
      </trkpt>
      <trkpt lat="42.994065" lon="-1.16749333">
        <ele>854.0</ele>
        <time>2019-07-31T16:42:33.135Z</time>
      </trkpt>
      <trkpt lat="42.99407667" lon="-1.16750667">
        <ele>854.0</ele>
        <time>2019-07-31T16:42:34.142Z</time>
      </trkpt>
      <trkpt lat="42.99409167" lon="-1.16752167">
        <ele>854.0</ele>
        <time>2019-07-31T16:42:35.148Z</time>
      </trkpt>
      <trkpt lat="42.99410667" lon="-1.167535">
        <ele>854.0</ele>
        <time>2019-07-31T16:42:36.154Z</time>
      </trkpt>
      <trkpt lat="42.99412" lon="-1.16754333">
        <ele>854.0</ele>
        <time>2019-07-31T16:42:37.160Z</time>
      </trkpt>
      <trkpt lat="42.994135" lon="-1.16756">
        <ele>854.0</ele>
        <time>2019-07-31T16:42:38.165Z</time>
      </trkpt>
      <trkpt lat="42.99414833" lon="-1.16757">
        <ele>854.0</ele>
        <time>2019-07-31T16:42:39.169Z</time>
      </trkpt>
      <trkpt lat="42.99416167" lon="-1.16757833">
        <ele>855.0</ele>
        <time>2019-07-31T16:42:40.175Z</time>
      </trkpt>
      <trkpt lat="42.99417667" lon="-1.16758833">
        <ele>855.0</ele>
        <time>2019-07-31T16:42:41.182Z</time>
      </trkpt>
      <trkpt lat="42.99419" lon="-1.16759333">
        <ele>855.0</ele>
        <time>2019-07-31T16:42:42.186Z</time>
      </trkpt>
      <trkpt lat="42.99420667" lon="-1.16759833">
        <ele>855.0</ele>
        <time>2019-07-31T16:42:43.066Z</time>
      </trkpt>
      <trkpt lat="42.99422167" lon="-1.16760667">
        <ele>854.0</ele>
        <time>2019-07-31T16:42:44.071Z</time>
      </trkpt>
      <trkpt lat="42.99423667" lon="-1.167615">
        <ele>854.0</ele>
        <time>2019-07-31T16:42:45.077Z</time>
      </trkpt>
      <trkpt lat="42.99425333" lon="-1.16762667">
        <ele>854.0</ele>
        <time>2019-07-31T16:42:46.081Z</time>
      </trkpt>
      <trkpt lat="42.99426833" lon="-1.16763833">
        <ele>854.0</ele>
        <time>2019-07-31T16:42:47.087Z</time>
      </trkpt>
      <trkpt lat="42.994285" lon="-1.16764833">
        <ele>854.0</ele>
        <time>2019-07-31T16:42:48.094Z</time>
      </trkpt>
      <trkpt lat="42.99429833" lon="-1.167655">
        <ele>854.0</ele>
        <time>2019-07-31T16:42:49.098Z</time>
      </trkpt>
      <trkpt lat="42.99431167" lon="-1.16766">
        <ele>854.0</ele>
        <time>2019-07-31T16:42:50.104Z</time>
      </trkpt>
      <trkpt lat="42.99432667" lon="-1.16766833">
        <ele>853.0</ele>
        <time>2019-07-31T16:42:51.110Z</time>
      </trkpt>
      <trkpt lat="42.99434167" lon="-1.16767667">
        <ele>853.0</ele>
        <time>2019-07-31T16:42:52.116Z</time>
      </trkpt>
      <trkpt lat="42.99435667" lon="-1.16768">
        <ele>853.0</ele>
        <time>2019-07-31T16:42:53.122Z</time>
      </trkpt>
      <trkpt lat="42.99437" lon="-1.16768667">
        <ele>852.0</ele>
        <time>2019-07-31T16:42:54.127Z</time>
      </trkpt>
      <trkpt lat="42.99438667" lon="-1.16769667">
        <ele>853.0</ele>
        <time>2019-07-31T16:42:55.134Z</time>
      </trkpt>
      <trkpt lat="42.9944" lon="-1.167705">
        <ele>852.0</ele>
        <time>2019-07-31T16:42:56.140Z</time>
      </trkpt>
      <trkpt lat="42.99441333" lon="-1.16771333">
        <ele>852.0</ele>
        <time>2019-07-31T16:42:57.147Z</time>
      </trkpt>
      <trkpt lat="42.99442833" lon="-1.16772">
        <ele>852.0</ele>
        <time>2019-07-31T16:42:58.153Z</time>
      </trkpt>
      <trkpt lat="42.99444333" lon="-1.16773">
        <ele>852.0</ele>
        <time>2019-07-31T16:42:59.159Z</time>
      </trkpt>
      <trkpt lat="42.994455" lon="-1.16774">
        <ele>852.0</ele>
        <time>2019-07-31T16:43:00.164Z</time>
      </trkpt>
      <trkpt lat="42.99447" lon="-1.16774667">
        <ele>852.0</ele>
        <time>2019-07-31T16:43:01.169Z</time>
      </trkpt>
      <trkpt lat="42.994485" lon="-1.16775667">
        <ele>852.0</ele>
        <time>2019-07-31T16:43:02.173Z</time>
      </trkpt>
      <trkpt lat="42.9945" lon="-1.167765">
        <ele>852.0</ele>
        <time>2019-07-31T16:43:03.176Z</time>
      </trkpt>
      <trkpt lat="42.99451667" lon="-1.167775">
        <ele>852.0</ele>
        <time>2019-07-31T16:43:04.179Z</time>
      </trkpt>
      <trkpt lat="42.99452833" lon="-1.16778167">
        <ele>852.0</ele>
        <time>2019-07-31T16:43:05.183Z</time>
      </trkpt>
      <trkpt lat="42.99454167" lon="-1.16778667">
        <ele>852.0</ele>
        <time>2019-07-31T16:43:06.064Z</time>
      </trkpt>
      <trkpt lat="42.99456" lon="-1.16779667">
        <ele>852.0</ele>
        <time>2019-07-31T16:43:07.068Z</time>
      </trkpt>
      <trkpt lat="42.99457333" lon="-1.16780333">
        <ele>851.0</ele>
        <time>2019-07-31T16:43:08.075Z</time>
      </trkpt>
      <trkpt lat="42.99458833" lon="-1.16781167">
        <ele>851.0</ele>
        <time>2019-07-31T16:43:09.081Z</time>
      </trkpt>
      <trkpt lat="42.99459833" lon="-1.16781667">
        <ele>851.0</ele>
        <time>2019-07-31T16:43:10.084Z</time>
      </trkpt>
      <trkpt lat="42.99461333" lon="-1.167825">
        <ele>851.0</ele>
        <time>2019-07-31T16:43:11.088Z</time>
      </trkpt>
      <trkpt lat="42.99463" lon="-1.16783333">
        <ele>851.0</ele>
        <time>2019-07-31T16:43:12.097Z</time>
      </trkpt>
      <trkpt lat="42.99464" lon="-1.16783833">
        <ele>851.0</ele>
        <time>2019-07-31T16:43:13.104Z</time>
      </trkpt>
      <trkpt lat="42.99465833" lon="-1.16784833">
        <ele>851.0</ele>
        <time>2019-07-31T16:43:14.110Z</time>
      </trkpt>
      <trkpt lat="42.99466833" lon="-1.16785">
        <ele>850.0</ele>
        <time>2019-07-31T16:43:15.115Z</time>
      </trkpt>
      <trkpt lat="42.99468167" lon="-1.16785333">
        <ele>850.0</ele>
        <time>2019-07-31T16:43:16.120Z</time>
      </trkpt>
      <trkpt lat="42.99469667" lon="-1.16785833">
        <ele>849.0</ele>
        <time>2019-07-31T16:43:17.125Z</time>
      </trkpt>
      <trkpt lat="42.99471" lon="-1.16786333">
        <ele>849.0</ele>
        <time>2019-07-31T16:43:18.132Z</time>
      </trkpt>
      <trkpt lat="42.99472" lon="-1.16787">
        <ele>848.0</ele>
        <time>2019-07-31T16:43:19.138Z</time>
      </trkpt>
      <trkpt lat="42.994725" lon="-1.16787667">
        <ele>848.0</ele>
        <time>2019-07-31T16:43:20.142Z</time>
      </trkpt>
      <trkpt lat="42.99473" lon="-1.16788667">
        <ele>848.0</ele>
        <time>2019-07-31T16:43:21.146Z</time>
      </trkpt>
      <trkpt lat="42.99473667" lon="-1.16789167">
        <ele>848.0</ele>
        <time>2019-07-31T16:43:22.151Z</time>
      </trkpt>
      <trkpt lat="42.99474167" lon="-1.167895">
        <ele>849.0</ele>
        <time>2019-07-31T16:43:23.158Z</time>
      </trkpt>
      <trkpt lat="42.99474167" lon="-1.16789667">
        <ele>849.0</ele>
        <time>2019-07-31T16:43:24.165Z</time>
      </trkpt>
      <trkpt lat="42.99474" lon="-1.16789333">
        <ele>848.0</ele>
        <time>2019-07-31T16:43:25.168Z</time>
      </trkpt>
      <trkpt lat="42.99473833" lon="-1.16789333">
        <ele>848.0</ele>
        <time>2019-07-31T16:43:26.172Z</time>
      </trkpt>
      <trkpt lat="42.994735" lon="-1.16789167">
        <ele>848.0</ele>
        <time>2019-07-31T16:43:27.177Z</time>
      </trkpt>
      <trkpt lat="42.99473" lon="-1.16789167">
        <ele>848.0</ele>
        <time>2019-07-31T16:43:28.182Z</time>
      </trkpt>
      <trkpt lat="42.99472833" lon="-1.16788667">
        <ele>848.0</ele>
        <time>2019-07-31T16:43:29.061Z</time>
      </trkpt>
      <trkpt lat="42.994725" lon="-1.16788833">
        <ele>848.0</ele>
        <time>2019-07-31T16:43:30.067Z</time>
      </trkpt>
      <trkpt lat="42.994725" lon="-1.16789167">
        <ele>848.0</ele>
        <time>2019-07-31T16:43:31.073Z</time>
      </trkpt>
      <trkpt lat="42.994725" lon="-1.16789">
        <ele>848.0</ele>
        <time>2019-07-31T16:43:32.079Z</time>
      </trkpt>
      <trkpt lat="42.99472667" lon="-1.16789667">
        <ele>849.0</ele>
        <time>2019-07-31T16:43:33.084Z</time>
      </trkpt>
      <trkpt lat="42.994725" lon="-1.1679">
        <ele>848.0</ele>
        <time>2019-07-31T16:43:34.089Z</time>
      </trkpt>
      <trkpt lat="42.994725" lon="-1.16789833">
        <ele>848.0</ele>
        <time>2019-07-31T16:43:35.092Z</time>
      </trkpt>
      <trkpt lat="42.99472667" lon="-1.16789667">
        <ele>849.0</ele>
        <time>2019-07-31T16:43:36.099Z</time>
      </trkpt>
      <trkpt lat="42.99473167" lon="-1.16789167">
        <ele>849.0</ele>
        <time>2019-07-31T16:43:37.103Z</time>
      </trkpt>
      <trkpt lat="42.99473333" lon="-1.16789">
        <ele>849.0</ele>
        <time>2019-07-31T16:43:38.108Z</time>
      </trkpt>
      <trkpt lat="42.99473167" lon="-1.16788667">
        <ele>849.0</ele>
        <time>2019-07-31T16:43:39.114Z</time>
      </trkpt>
      <trkpt lat="42.99473167" lon="-1.167885">
        <ele>849.0</ele>
        <time>2019-07-31T16:43:40.120Z</time>
      </trkpt>
      <trkpt lat="42.99473333" lon="-1.16787833">
        <ele>848.0</ele>
        <time>2019-07-31T16:43:41.125Z</time>
      </trkpt>
      <trkpt lat="42.994735" lon="-1.16787333">
        <ele>848.0</ele>
        <time>2019-07-31T16:43:42.128Z</time>
      </trkpt>
      <trkpt lat="42.994735" lon="-1.16786833">
        <ele>848.0</ele>
        <time>2019-07-31T16:43:43.132Z</time>
      </trkpt>
      <trkpt lat="42.994735" lon="-1.16787">
        <ele>848.0</ele>
        <time>2019-07-31T16:43:44.138Z</time>
      </trkpt>
      <trkpt lat="42.99473667" lon="-1.16786833">
        <ele>848.0</ele>
        <time>2019-07-31T16:43:45.145Z</time>
      </trkpt>
      <trkpt lat="42.994735" lon="-1.16787">
        <ele>848.0</ele>
        <time>2019-07-31T16:43:46.151Z</time>
      </trkpt>
      <trkpt lat="42.99473333" lon="-1.16787167">
        <ele>849.0</ele>
        <time>2019-07-31T16:43:47.153Z</time>
      </trkpt>
      <trkpt lat="42.99473167" lon="-1.167875">
        <ele>849.0</ele>
        <time>2019-07-31T16:43:48.155Z</time>
      </trkpt>
      <trkpt lat="42.99473333" lon="-1.16787333">
        <ele>849.0</ele>
        <time>2019-07-31T16:43:49.158Z</time>
      </trkpt>
      <trkpt lat="42.99473333" lon="-1.167875">
        <ele>849.0</ele>
        <time>2019-07-31T16:43:50.163Z</time>
      </trkpt>
      <trkpt lat="42.994735" lon="-1.16787167">
        <ele>848.0</ele>
        <time>2019-07-31T16:43:51.168Z</time>
      </trkpt>
      <trkpt lat="42.99473333" lon="-1.16787333">
        <ele>848.0</ele>
        <time>2019-07-31T16:43:52.172Z</time>
      </trkpt>
      <trkpt lat="42.99473333" lon="-1.16787833">
        <ele>848.0</ele>
        <time>2019-07-31T16:43:53.175Z</time>
      </trkpt>
      <trkpt lat="42.99473333" lon="-1.16788667">
        <ele>847.0</ele>
        <time>2019-07-31T16:43:54.180Z</time>
      </trkpt>
      <trkpt lat="42.994735" lon="-1.16789167">
        <ele>847.0</ele>
        <time>2019-07-31T16:43:55.184Z</time>
      </trkpt>
      <trkpt lat="42.99473667" lon="-1.16789333">
        <ele>847.0</ele>
        <time>2019-07-31T16:43:56.063Z</time>
      </trkpt>
      <trkpt lat="42.99473667" lon="-1.16789">
        <ele>847.0</ele>
        <time>2019-07-31T16:43:57.067Z</time>
      </trkpt>
      <trkpt lat="42.994735" lon="-1.167885">
        <ele>848.0</ele>
        <time>2019-07-31T16:43:58.072Z</time>
      </trkpt>
      <trkpt lat="42.99473333" lon="-1.16788">
        <ele>848.0</ele>
        <time>2019-07-31T16:43:59.077Z</time>
      </trkpt>
      <trkpt lat="42.994755" lon="-1.16789667">
        <ele>854.0</ele>
        <time>2019-07-31T16:44:01.083Z</time>
      </trkpt>
      <trkpt lat="42.99477" lon="-1.167895">
        <ele>853.0</ele>
        <time>2019-07-31T16:44:02.090Z</time>
      </trkpt>
      <trkpt lat="42.99478667" lon="-1.16789833">
        <ele>854.0</ele>
        <time>2019-07-31T16:44:03.095Z</time>
      </trkpt>
      <trkpt lat="42.99480333" lon="-1.167905">
        <ele>854.0</ele>
        <time>2019-07-31T16:44:04.100Z</time>
      </trkpt>
      <trkpt lat="42.99482" lon="-1.16791167">
        <ele>854.0</ele>
        <time>2019-07-31T16:44:05.106Z</time>
      </trkpt>
      <trkpt lat="42.99483667" lon="-1.16791833">
        <ele>854.0</ele>
        <time>2019-07-31T16:44:06.109Z</time>
      </trkpt>
      <trkpt lat="42.99485167" lon="-1.16792667">
        <ele>854.0</ele>
        <time>2019-07-31T16:44:07.115Z</time>
      </trkpt>
      <trkpt lat="42.99486667" lon="-1.16793333">
        <ele>854.0</ele>
        <time>2019-07-31T16:44:08.118Z</time>
      </trkpt>
      <trkpt lat="42.99488" lon="-1.16793833">
        <ele>854.0</ele>
        <time>2019-07-31T16:44:09.123Z</time>
      </trkpt>
      <trkpt lat="42.99489333" lon="-1.16794167">
        <ele>854.0</ele>
        <time>2019-07-31T16:44:10.130Z</time>
      </trkpt>
      <trkpt lat="42.99490667" lon="-1.16795167">
        <ele>854.0</ele>
        <time>2019-07-31T16:44:11.135Z</time>
      </trkpt>
      <trkpt lat="42.99491667" lon="-1.16795667">
        <ele>854.0</ele>
        <time>2019-07-31T16:44:12.141Z</time>
      </trkpt>
      <trkpt lat="42.99493667" lon="-1.16796833">
        <ele>855.0</ele>
        <time>2019-07-31T16:44:13.144Z</time>
      </trkpt>
      <trkpt lat="42.99495333" lon="-1.16797833">
        <ele>855.0</ele>
        <time>2019-07-31T16:44:14.148Z</time>
      </trkpt>
      <trkpt lat="42.99497333" lon="-1.16798333">
        <ele>855.0</ele>
        <time>2019-07-31T16:44:15.154Z</time>
      </trkpt>
      <trkpt lat="42.99499167" lon="-1.16798667">
        <ele>855.0</ele>
        <time>2019-07-31T16:44:16.159Z</time>
      </trkpt>
      <trkpt lat="42.99500833" lon="-1.16799167">
        <ele>855.0</ele>
        <time>2019-07-31T16:44:17.165Z</time>
      </trkpt>
      <trkpt lat="42.995025" lon="-1.167995">
        <ele>854.0</ele>
        <time>2019-07-31T16:44:18.169Z</time>
      </trkpt>
      <trkpt lat="42.99504167" lon="-1.168">
        <ele>854.0</ele>
        <time>2019-07-31T16:44:19.174Z</time>
      </trkpt>
      <trkpt lat="42.99506" lon="-1.16800667">
        <ele>854.0</ele>
        <time>2019-07-31T16:44:20.178Z</time>
      </trkpt>
      <trkpt lat="42.99507667" lon="-1.168015">
        <ele>854.0</ele>
        <time>2019-07-31T16:44:21.182Z</time>
      </trkpt>
      <trkpt lat="42.995095" lon="-1.16802167">
        <ele>855.0</ele>
        <time>2019-07-31T16:44:22.062Z</time>
      </trkpt>
      <trkpt lat="42.99511167" lon="-1.16802833">
        <ele>855.0</ele>
        <time>2019-07-31T16:44:23.069Z</time>
      </trkpt>
      <trkpt lat="42.99513" lon="-1.16803667">
        <ele>855.0</ele>
        <time>2019-07-31T16:44:24.072Z</time>
      </trkpt>
      <trkpt lat="42.995145" lon="-1.16803833">
        <ele>855.0</ele>
        <time>2019-07-31T16:44:25.078Z</time>
      </trkpt>
      <trkpt lat="42.99516167" lon="-1.16804167">
        <ele>855.0</ele>
        <time>2019-07-31T16:44:26.085Z</time>
      </trkpt>
      <trkpt lat="42.99518" lon="-1.168045">
        <ele>856.0</ele>
        <time>2019-07-31T16:44:27.092Z</time>
      </trkpt>
      <trkpt lat="42.99519667" lon="-1.16804667">
        <ele>856.0</ele>
        <time>2019-07-31T16:44:28.097Z</time>
      </trkpt>
      <trkpt lat="42.99521333" lon="-1.16804833">
        <ele>857.0</ele>
        <time>2019-07-31T16:44:29.104Z</time>
      </trkpt>
      <trkpt lat="42.99522833" lon="-1.16804833">
        <ele>857.0</ele>
        <time>2019-07-31T16:44:30.108Z</time>
      </trkpt>
      <trkpt lat="42.99524667" lon="-1.16804667">
        <ele>857.0</ele>
        <time>2019-07-31T16:44:31.114Z</time>
      </trkpt>
      <trkpt lat="42.99526333" lon="-1.16804833">
        <ele>857.0</ele>
        <time>2019-07-31T16:44:32.121Z</time>
      </trkpt>
      <trkpt lat="42.99528167" lon="-1.16804667">
        <ele>858.0</ele>
        <time>2019-07-31T16:44:33.127Z</time>
      </trkpt>
      <trkpt lat="42.9953" lon="-1.16804833">
        <ele>857.0</ele>
        <time>2019-07-31T16:44:34.134Z</time>
      </trkpt>
      <trkpt lat="42.99531833" lon="-1.16804833">
        <ele>858.0</ele>
        <time>2019-07-31T16:44:35.139Z</time>
      </trkpt>
      <trkpt lat="42.99533333" lon="-1.16805">
        <ele>858.0</ele>
        <time>2019-07-31T16:44:36.146Z</time>
      </trkpt>
      <trkpt lat="42.99534667" lon="-1.16805167">
        <ele>859.0</ele>
        <time>2019-07-31T16:44:37.152Z</time>
      </trkpt>
      <trkpt lat="42.99536333" lon="-1.16805167">
        <ele>860.0</ele>
        <time>2019-07-31T16:44:38.156Z</time>
      </trkpt>
      <trkpt lat="42.99538" lon="-1.168055">
        <ele>861.0</ele>
        <time>2019-07-31T16:44:39.161Z</time>
      </trkpt>
      <trkpt lat="42.99539667" lon="-1.16805667">
        <ele>861.0</ele>
        <time>2019-07-31T16:44:40.168Z</time>
      </trkpt>
      <trkpt lat="42.99541167" lon="-1.16805333">
        <ele>861.0</ele>
        <time>2019-07-31T16:44:41.173Z</time>
      </trkpt>
      <trkpt lat="42.99542833" lon="-1.16805167">
        <ele>861.0</ele>
        <time>2019-07-31T16:44:42.177Z</time>
      </trkpt>
      <trkpt lat="42.99544167" lon="-1.16805">
        <ele>861.0</ele>
        <time>2019-07-31T16:44:43.182Z</time>
      </trkpt>
      <trkpt lat="42.995455" lon="-1.16804833">
        <ele>861.0</ele>
        <time>2019-07-31T16:44:44.061Z</time>
      </trkpt>
      <trkpt lat="42.99547167" lon="-1.168045">
        <ele>861.0</ele>
        <time>2019-07-31T16:44:45.065Z</time>
      </trkpt>
      <trkpt lat="42.99548833" lon="-1.16803833">
        <ele>861.0</ele>
        <time>2019-07-31T16:44:46.070Z</time>
      </trkpt>
      <trkpt lat="42.99550333" lon="-1.16803333">
        <ele>861.0</ele>
        <time>2019-07-31T16:44:47.077Z</time>
      </trkpt>
      <trkpt lat="42.99551833" lon="-1.16802667">
        <ele>861.0</ele>
        <time>2019-07-31T16:44:48.084Z</time>
      </trkpt>
      <trkpt lat="42.99553" lon="-1.16802">
        <ele>860.0</ele>
        <time>2019-07-31T16:44:49.090Z</time>
      </trkpt>
      <trkpt lat="42.995545" lon="-1.16800833">
        <ele>859.0</ele>
        <time>2019-07-31T16:44:50.095Z</time>
      </trkpt>
      <trkpt lat="42.99556167" lon="-1.167995">
        <ele>858.0</ele>
        <time>2019-07-31T16:44:51.101Z</time>
      </trkpt>
      <trkpt lat="42.99557833" lon="-1.16799">
        <ele>858.0</ele>
        <time>2019-07-31T16:44:52.107Z</time>
      </trkpt>
      <trkpt lat="42.99559333" lon="-1.16798167">
        <ele>858.0</ele>
        <time>2019-07-31T16:44:53.113Z</time>
      </trkpt>
      <trkpt lat="42.99560833" lon="-1.16797667">
        <ele>858.0</ele>
        <time>2019-07-31T16:44:54.119Z</time>
      </trkpt>
      <trkpt lat="42.99562" lon="-1.16797333">
        <ele>858.0</ele>
        <time>2019-07-31T16:44:55.124Z</time>
      </trkpt>
      <trkpt lat="42.99563833" lon="-1.16796833">
        <ele>858.0</ele>
        <time>2019-07-31T16:44:56.129Z</time>
      </trkpt>
      <trkpt lat="42.995655" lon="-1.16796667">
        <ele>858.0</ele>
        <time>2019-07-31T16:44:57.133Z</time>
      </trkpt>
      <trkpt lat="42.99567" lon="-1.16796167">
        <ele>858.0</ele>
        <time>2019-07-31T16:44:58.138Z</time>
      </trkpt>
      <trkpt lat="42.995685" lon="-1.167955">
        <ele>858.0</ele>
        <time>2019-07-31T16:44:59.143Z</time>
      </trkpt>
      <trkpt lat="42.9957" lon="-1.16794833">
        <ele>858.0</ele>
        <time>2019-07-31T16:45:00.149Z</time>
      </trkpt>
      <trkpt lat="42.995715" lon="-1.16794333">
        <ele>859.0</ele>
        <time>2019-07-31T16:45:01.154Z</time>
      </trkpt>
      <trkpt lat="42.99573167" lon="-1.167935">
        <ele>859.0</ele>
        <time>2019-07-31T16:45:02.159Z</time>
      </trkpt>
      <trkpt lat="42.99574667" lon="-1.16792667">
        <ele>858.0</ele>
        <time>2019-07-31T16:45:03.165Z</time>
      </trkpt>
      <trkpt lat="42.99576167" lon="-1.16791667">
        <ele>858.0</ele>
        <time>2019-07-31T16:45:04.170Z</time>
      </trkpt>
      <trkpt lat="42.995775" lon="-1.167915">
        <ele>858.0</ele>
        <time>2019-07-31T16:45:05.175Z</time>
      </trkpt>
      <trkpt lat="42.99579" lon="-1.16791167">
        <ele>859.0</ele>
        <time>2019-07-31T16:45:06.178Z</time>
      </trkpt>
      <trkpt lat="42.99580333" lon="-1.16791">
        <ele>859.0</ele>
        <time>2019-07-31T16:45:07.185Z</time>
      </trkpt>
      <trkpt lat="42.995815" lon="-1.16790667">
        <ele>860.0</ele>
        <time>2019-07-31T16:45:08.063Z</time>
      </trkpt>
      <trkpt lat="42.99582833" lon="-1.16790667">
        <ele>861.0</ele>
        <time>2019-07-31T16:45:09.068Z</time>
      </trkpt>
      <trkpt lat="42.99584167" lon="-1.167905">
        <ele>862.0</ele>
        <time>2019-07-31T16:45:10.075Z</time>
      </trkpt>
      <trkpt lat="42.995855" lon="-1.16790333">
        <ele>862.0</ele>
        <time>2019-07-31T16:45:11.082Z</time>
      </trkpt>
      <trkpt lat="42.99587" lon="-1.16790333">
        <ele>863.0</ele>
        <time>2019-07-31T16:45:12.086Z</time>
      </trkpt>
      <trkpt lat="42.995885" lon="-1.16790333">
        <ele>864.0</ele>
        <time>2019-07-31T16:45:13.091Z</time>
      </trkpt>
      <trkpt lat="42.99589833" lon="-1.1679">
        <ele>865.0</ele>
        <time>2019-07-31T16:45:14.097Z</time>
      </trkpt>
      <trkpt lat="42.99591167" lon="-1.16789833">
        <ele>865.0</ele>
        <time>2019-07-31T16:45:15.102Z</time>
      </trkpt>
      <trkpt lat="42.99592667" lon="-1.167895">
        <ele>865.0</ele>
        <time>2019-07-31T16:45:16.105Z</time>
      </trkpt>
      <trkpt lat="42.99594333" lon="-1.16789167">
        <ele>866.0</ele>
        <time>2019-07-31T16:45:17.112Z</time>
      </trkpt>
      <trkpt lat="42.99595833" lon="-1.167885">
        <ele>867.0</ele>
        <time>2019-07-31T16:45:18.119Z</time>
      </trkpt>
      <trkpt lat="42.99596833" lon="-1.16788">
        <ele>867.0</ele>
        <time>2019-07-31T16:45:19.123Z</time>
      </trkpt>
      <trkpt lat="42.995985" lon="-1.167875">
        <ele>868.0</ele>
        <time>2019-07-31T16:45:20.128Z</time>
      </trkpt>
      <trkpt lat="42.996" lon="-1.16786833">
        <ele>868.0</ele>
        <time>2019-07-31T16:45:21.133Z</time>
      </trkpt>
      <trkpt lat="42.99601333" lon="-1.16786">
        <ele>868.0</ele>
        <time>2019-07-31T16:45:22.138Z</time>
      </trkpt>
      <trkpt lat="42.99602667" lon="-1.167855">
        <ele>869.0</ele>
        <time>2019-07-31T16:45:23.142Z</time>
      </trkpt>
      <trkpt lat="42.99604167" lon="-1.16785">
        <ele>869.0</ele>
        <time>2019-07-31T16:45:24.146Z</time>
      </trkpt>
      <trkpt lat="42.99605167" lon="-1.167845">
        <ele>869.0</ele>
        <time>2019-07-31T16:45:25.153Z</time>
      </trkpt>
      <trkpt lat="42.99606" lon="-1.16784">
        <ele>868.0</ele>
        <time>2019-07-31T16:45:26.157Z</time>
      </trkpt>
      <trkpt lat="42.99606667" lon="-1.16783167">
        <ele>867.0</ele>
        <time>2019-07-31T16:45:27.162Z</time>
      </trkpt>
      <trkpt lat="42.99607333" lon="-1.167825">
        <ele>867.0</ele>
        <time>2019-07-31T16:45:28.168Z</time>
      </trkpt>
      <trkpt lat="42.99608333" lon="-1.16781833">
        <ele>866.0</ele>
        <time>2019-07-31T16:45:29.174Z</time>
      </trkpt>
      <trkpt lat="42.996095" lon="-1.167815">
        <ele>865.0</ele>
        <time>2019-07-31T16:45:30.179Z</time>
      </trkpt>
      <trkpt lat="42.996105" lon="-1.16780833">
        <ele>865.0</ele>
        <time>2019-07-31T16:45:31.185Z</time>
      </trkpt>
      <trkpt lat="42.99611833" lon="-1.1678">
        <ele>865.0</ele>
        <time>2019-07-31T16:45:32.065Z</time>
      </trkpt>
      <trkpt lat="42.99613667" lon="-1.16779333">
        <ele>864.0</ele>
        <time>2019-07-31T16:45:33.072Z</time>
      </trkpt>
      <trkpt lat="42.99615167" lon="-1.16779">
        <ele>864.0</ele>
        <time>2019-07-31T16:45:34.079Z</time>
      </trkpt>
      <trkpt lat="42.99616667" lon="-1.16778333">
        <ele>865.0</ele>
        <time>2019-07-31T16:45:35.085Z</time>
      </trkpt>
      <trkpt lat="42.99618333" lon="-1.16777667">
        <ele>865.0</ele>
        <time>2019-07-31T16:45:36.088Z</time>
      </trkpt>
      <trkpt lat="42.99619833" lon="-1.16776833">
        <ele>865.0</ele>
        <time>2019-07-31T16:45:37.091Z</time>
      </trkpt>
      <trkpt lat="42.99621167" lon="-1.16776167">
        <ele>866.0</ele>
        <time>2019-07-31T16:45:38.098Z</time>
      </trkpt>
      <trkpt lat="42.996225" lon="-1.16775333">
        <ele>867.0</ele>
        <time>2019-07-31T16:45:39.105Z</time>
      </trkpt>
      <trkpt lat="42.99624" lon="-1.16774833">
        <ele>867.0</ele>
        <time>2019-07-31T16:45:40.110Z</time>
      </trkpt>
      <trkpt lat="42.996255" lon="-1.167745">
        <ele>868.0</ele>
        <time>2019-07-31T16:45:41.115Z</time>
      </trkpt>
      <trkpt lat="42.99626833" lon="-1.16774">
        <ele>867.0</ele>
        <time>2019-07-31T16:45:42.120Z</time>
      </trkpt>
      <trkpt lat="42.99627833" lon="-1.16773333">
        <ele>865.0</ele>
        <time>2019-07-31T16:45:43.126Z</time>
      </trkpt>
      <trkpt lat="42.99629333" lon="-1.16772833">
        <ele>864.0</ele>
        <time>2019-07-31T16:45:44.130Z</time>
      </trkpt>
      <trkpt lat="42.99631" lon="-1.16772">
        <ele>863.0</ele>
        <time>2019-07-31T16:45:45.136Z</time>
      </trkpt>
      <trkpt lat="42.99632667" lon="-1.16772167">
        <ele>863.0</ele>
        <time>2019-07-31T16:45:46.140Z</time>
      </trkpt>
      <trkpt lat="42.99634" lon="-1.16771833">
        <ele>864.0</ele>
        <time>2019-07-31T16:45:47.146Z</time>
      </trkpt>
      <trkpt lat="42.99636" lon="-1.16771333">
        <ele>864.0</ele>
        <time>2019-07-31T16:45:48.152Z</time>
      </trkpt>
      <trkpt lat="42.99637667" lon="-1.16771167">
        <ele>864.0</ele>
        <time>2019-07-31T16:45:49.157Z</time>
      </trkpt>
      <trkpt lat="42.996395" lon="-1.16771">
        <ele>865.0</ele>
        <time>2019-07-31T16:45:50.164Z</time>
      </trkpt>
      <trkpt lat="42.99641" lon="-1.16771">
        <ele>867.0</ele>
        <time>2019-07-31T16:45:51.169Z</time>
      </trkpt>
      <trkpt lat="42.99642667" lon="-1.16770667">
        <ele>867.0</ele>
        <time>2019-07-31T16:45:52.173Z</time>
      </trkpt>
      <trkpt lat="42.99644667" lon="-1.16770333">
        <ele>868.0</ele>
        <time>2019-07-31T16:45:53.177Z</time>
      </trkpt>
      <trkpt lat="42.99646333" lon="-1.16770333">
        <ele>869.0</ele>
        <time>2019-07-31T16:45:54.182Z</time>
      </trkpt>
      <trkpt lat="42.99648" lon="-1.1677">
        <ele>869.0</ele>
        <time>2019-07-31T16:45:55.062Z</time>
      </trkpt>
      <trkpt lat="42.99649333" lon="-1.16769667">
        <ele>869.0</ele>
        <time>2019-07-31T16:45:56.067Z</time>
      </trkpt>
      <trkpt lat="42.99650667" lon="-1.16769333">
        <ele>870.0</ele>
        <time>2019-07-31T16:45:57.073Z</time>
      </trkpt>
      <trkpt lat="42.996525" lon="-1.16769">
        <ele>870.0</ele>
        <time>2019-07-31T16:45:58.076Z</time>
      </trkpt>
      <trkpt lat="42.99654167" lon="-1.16769167">
        <ele>871.0</ele>
        <time>2019-07-31T16:45:59.084Z</time>
      </trkpt>
      <trkpt lat="42.99655333" lon="-1.167695">
        <ele>872.0</ele>
        <time>2019-07-31T16:46:00.090Z</time>
      </trkpt>
      <trkpt lat="42.99657167" lon="-1.16769833">
        <ele>872.0</ele>
        <time>2019-07-31T16:46:01.095Z</time>
      </trkpt>
      <trkpt lat="42.99658833" lon="-1.16770167">
        <ele>873.0</ele>
        <time>2019-07-31T16:46:02.100Z</time>
      </trkpt>
      <trkpt lat="42.99660833" lon="-1.16770667">
        <ele>873.0</ele>
        <time>2019-07-31T16:46:03.106Z</time>
      </trkpt>
      <trkpt lat="42.99662333" lon="-1.16771">
        <ele>875.0</ele>
        <time>2019-07-31T16:46:04.112Z</time>
      </trkpt>
      <trkpt lat="42.99664333" lon="-1.16770833">
        <ele>875.0</ele>
        <time>2019-07-31T16:46:05.119Z</time>
      </trkpt>
      <trkpt lat="42.99665833" lon="-1.167705">
        <ele>876.0</ele>
        <time>2019-07-31T16:46:06.126Z</time>
      </trkpt>
      <trkpt lat="42.99667333" lon="-1.167705">
        <ele>877.0</ele>
        <time>2019-07-31T16:46:07.132Z</time>
      </trkpt>
      <trkpt lat="42.99669" lon="-1.16770667">
        <ele>877.0</ele>
        <time>2019-07-31T16:46:08.136Z</time>
      </trkpt>
      <trkpt lat="42.99670667" lon="-1.16770667">
        <ele>878.0</ele>
        <time>2019-07-31T16:46:09.141Z</time>
      </trkpt>
      <trkpt lat="42.99672333" lon="-1.16771">
        <ele>878.0</ele>
        <time>2019-07-31T16:46:10.145Z</time>
      </trkpt>
      <trkpt lat="42.99674" lon="-1.16771">
        <ele>879.0</ele>
        <time>2019-07-31T16:46:11.150Z</time>
      </trkpt>
      <trkpt lat="42.99675833" lon="-1.16771167">
        <ele>879.0</ele>
        <time>2019-07-31T16:46:12.156Z</time>
      </trkpt>
      <trkpt lat="42.99677333" lon="-1.16771">
        <ele>879.0</ele>
        <time>2019-07-31T16:46:13.163Z</time>
      </trkpt>
      <trkpt lat="42.99678833" lon="-1.16771">
        <ele>879.0</ele>
        <time>2019-07-31T16:46:14.169Z</time>
      </trkpt>
      <trkpt lat="42.99680667" lon="-1.16770833">
        <ele>879.0</ele>
        <time>2019-07-31T16:46:15.175Z</time>
      </trkpt>
      <trkpt lat="42.99682333" lon="-1.16770167">
        <ele>878.0</ele>
        <time>2019-07-31T16:46:16.180Z</time>
      </trkpt>
      <trkpt lat="42.99683667" lon="-1.16770167">
        <ele>878.0</ele>
        <time>2019-07-31T16:46:17.185Z</time>
      </trkpt>
      <trkpt lat="42.99685167" lon="-1.16769833">
        <ele>878.0</ele>
        <time>2019-07-31T16:46:18.065Z</time>
      </trkpt>
      <trkpt lat="42.99686667" lon="-1.16769667">
        <ele>879.0</ele>
        <time>2019-07-31T16:46:19.067Z</time>
      </trkpt>
      <trkpt lat="42.99688" lon="-1.16768667">
        <ele>879.0</ele>
        <time>2019-07-31T16:46:20.070Z</time>
      </trkpt>
      <trkpt lat="42.99689333" lon="-1.16768">
        <ele>880.0</ele>
        <time>2019-07-31T16:46:21.070Z</time>
      </trkpt>
      <trkpt lat="42.99690667" lon="-1.16767667">
        <ele>880.0</ele>
        <time>2019-07-31T16:46:22.071Z</time>
      </trkpt>
      <trkpt lat="42.99691833" lon="-1.16767167">
        <ele>880.0</ele>
        <time>2019-07-31T16:46:23.075Z</time>
      </trkpt>
      <trkpt lat="42.99693333" lon="-1.16767">
        <ele>880.0</ele>
        <time>2019-07-31T16:46:24.083Z</time>
      </trkpt>
      <trkpt lat="42.99694667" lon="-1.16766833">
        <ele>881.0</ele>
        <time>2019-07-31T16:46:25.090Z</time>
      </trkpt>
      <trkpt lat="42.996965" lon="-1.16767">
        <ele>881.0</ele>
        <time>2019-07-31T16:46:26.096Z</time>
      </trkpt>
      <trkpt lat="42.99698167" lon="-1.16767">
        <ele>882.0</ele>
        <time>2019-07-31T16:46:27.101Z</time>
      </trkpt>
      <trkpt lat="42.99700167" lon="-1.16767167">
        <ele>882.0</ele>
        <time>2019-07-31T16:46:28.106Z</time>
      </trkpt>
      <trkpt lat="42.99702" lon="-1.16767333">
        <ele>882.0</ele>
        <time>2019-07-31T16:46:29.112Z</time>
      </trkpt>
      <trkpt lat="42.99703833" lon="-1.16767333">
        <ele>883.0</ele>
        <time>2019-07-31T16:46:30.118Z</time>
      </trkpt>
      <trkpt lat="42.99705667" lon="-1.16767">
        <ele>883.0</ele>
        <time>2019-07-31T16:46:31.123Z</time>
      </trkpt>
      <trkpt lat="42.99707167" lon="-1.16767">
        <ele>884.0</ele>
        <time>2019-07-31T16:46:32.129Z</time>
      </trkpt>
      <trkpt lat="42.99709167" lon="-1.16767">
        <ele>883.0</ele>
        <time>2019-07-31T16:46:33.135Z</time>
      </trkpt>
      <trkpt lat="42.99710833" lon="-1.16767">
        <ele>883.0</ele>
        <time>2019-07-31T16:46:34.140Z</time>
      </trkpt>
      <trkpt lat="42.997125" lon="-1.16766833">
        <ele>884.0</ele>
        <time>2019-07-31T16:46:35.145Z</time>
      </trkpt>
      <trkpt lat="42.99714" lon="-1.16766833">
        <ele>884.0</ele>
        <time>2019-07-31T16:46:36.150Z</time>
      </trkpt>
      <trkpt lat="42.997155" lon="-1.16767">
        <ele>885.0</ele>
        <time>2019-07-31T16:46:37.155Z</time>
      </trkpt>
      <trkpt lat="42.99717" lon="-1.16766667">
        <ele>885.0</ele>
        <time>2019-07-31T16:46:38.162Z</time>
      </trkpt>
      <trkpt lat="42.99718667" lon="-1.167665">
        <ele>885.0</ele>
        <time>2019-07-31T16:46:39.168Z</time>
      </trkpt>
      <trkpt lat="42.99720333" lon="-1.16766167">
        <ele>885.0</ele>
        <time>2019-07-31T16:46:40.173Z</time>
      </trkpt>
      <trkpt lat="42.99722333" lon="-1.167655">
        <ele>885.0</ele>
        <time>2019-07-31T16:46:41.178Z</time>
      </trkpt>
      <trkpt lat="42.99723833" lon="-1.16765">
        <ele>886.0</ele>
        <time>2019-07-31T16:46:42.184Z</time>
      </trkpt>
      <trkpt lat="42.997255" lon="-1.16764833">
        <ele>886.0</ele>
        <time>2019-07-31T16:46:43.064Z</time>
      </trkpt>
      <trkpt lat="42.99727167" lon="-1.16764667">
        <ele>886.0</ele>
        <time>2019-07-31T16:46:44.071Z</time>
      </trkpt>
      <trkpt lat="42.99728667" lon="-1.167645">
        <ele>886.0</ele>
        <time>2019-07-31T16:46:45.076Z</time>
      </trkpt>
      <trkpt lat="42.997305" lon="-1.16764167">
        <ele>886.0</ele>
        <time>2019-07-31T16:46:46.080Z</time>
      </trkpt>
      <trkpt lat="42.99732167" lon="-1.16763667">
        <ele>887.0</ele>
        <time>2019-07-31T16:46:47.084Z</time>
      </trkpt>
      <trkpt lat="42.99733833" lon="-1.16763667">
        <ele>887.0</ele>
        <time>2019-07-31T16:46:48.088Z</time>
      </trkpt>
      <trkpt lat="42.99735333" lon="-1.16763167">
        <ele>887.0</ele>
        <time>2019-07-31T16:46:49.093Z</time>
      </trkpt>
      <trkpt lat="42.99736833" lon="-1.16763167">
        <ele>888.0</ele>
        <time>2019-07-31T16:46:50.099Z</time>
      </trkpt>
      <trkpt lat="42.99738333" lon="-1.16762833">
        <ele>888.0</ele>
        <time>2019-07-31T16:46:51.104Z</time>
      </trkpt>
      <trkpt lat="42.9974" lon="-1.16762667">
        <ele>888.0</ele>
        <time>2019-07-31T16:46:52.110Z</time>
      </trkpt>
      <trkpt lat="42.99741667" lon="-1.16762167">
        <ele>888.0</ele>
        <time>2019-07-31T16:46:53.115Z</time>
      </trkpt>
      <trkpt lat="42.99743333" lon="-1.16761833">
        <ele>888.0</ele>
        <time>2019-07-31T16:46:54.121Z</time>
      </trkpt>
      <trkpt lat="42.99745333" lon="-1.16761333">
        <ele>888.0</ele>
        <time>2019-07-31T16:46:55.126Z</time>
      </trkpt>
      <trkpt lat="42.99747" lon="-1.16760667">
        <ele>888.0</ele>
        <time>2019-07-31T16:46:56.132Z</time>
      </trkpt>
      <trkpt lat="42.997485" lon="-1.16759667">
        <ele>887.0</ele>
        <time>2019-07-31T16:46:57.137Z</time>
      </trkpt>
      <trkpt lat="42.9975" lon="-1.16758667">
        <ele>887.0</ele>
        <time>2019-07-31T16:46:58.139Z</time>
      </trkpt>
      <trkpt lat="42.997515" lon="-1.16758">
        <ele>887.0</ele>
        <time>2019-07-31T16:46:59.144Z</time>
      </trkpt>
      <trkpt lat="42.99752667" lon="-1.16757167">
        <ele>886.0</ele>
        <time>2019-07-31T16:47:00.150Z</time>
      </trkpt>
      <trkpt lat="42.99753833" lon="-1.16756333">
        <ele>886.0</ele>
        <time>2019-07-31T16:47:01.156Z</time>
      </trkpt>
      <trkpt lat="42.99755167" lon="-1.167555">
        <ele>886.0</ele>
        <time>2019-07-31T16:47:02.159Z</time>
      </trkpt>
      <trkpt lat="42.99756667" lon="-1.167545">
        <ele>886.0</ele>
        <time>2019-07-31T16:47:03.161Z</time>
      </trkpt>
      <trkpt lat="42.99758" lon="-1.16753667">
        <ele>886.0</ele>
        <time>2019-07-31T16:47:04.164Z</time>
      </trkpt>
      <trkpt lat="42.997595" lon="-1.167525">
        <ele>885.0</ele>
        <time>2019-07-31T16:47:05.170Z</time>
      </trkpt>
      <trkpt lat="42.99760833" lon="-1.16751333">
        <ele>885.0</ele>
        <time>2019-07-31T16:47:06.175Z</time>
      </trkpt>
      <trkpt lat="42.99762" lon="-1.16749833">
        <ele>884.0</ele>
        <time>2019-07-31T16:47:07.181Z</time>
      </trkpt>
      <trkpt lat="42.99763333" lon="-1.16748333">
        <ele>883.0</ele>
        <time>2019-07-31T16:47:08.184Z</time>
      </trkpt>
      <trkpt lat="42.997645" lon="-1.16747">
        <ele>882.0</ele>
        <time>2019-07-31T16:47:09.062Z</time>
      </trkpt>
      <trkpt lat="42.99765833" lon="-1.16745333">
        <ele>881.0</ele>
        <time>2019-07-31T16:47:10.068Z</time>
      </trkpt>
      <trkpt lat="42.99766833" lon="-1.16743833">
        <ele>881.0</ele>
        <time>2019-07-31T16:47:11.073Z</time>
      </trkpt>
      <trkpt lat="42.99768167" lon="-1.16743">
        <ele>880.0</ele>
        <time>2019-07-31T16:47:12.079Z</time>
      </trkpt>
      <trkpt lat="42.99769667" lon="-1.16741833">
        <ele>880.0</ele>
        <time>2019-07-31T16:47:13.082Z</time>
      </trkpt>
      <trkpt lat="42.99770833" lon="-1.16740833">
        <ele>879.0</ele>
        <time>2019-07-31T16:47:14.087Z</time>
      </trkpt>
      <trkpt lat="42.99772" lon="-1.16739833">
        <ele>879.0</ele>
        <time>2019-07-31T16:47:15.092Z</time>
      </trkpt>
      <trkpt lat="42.99773333" lon="-1.16738667">
        <ele>878.0</ele>
        <time>2019-07-31T16:47:16.097Z</time>
      </trkpt>
      <trkpt lat="42.997745" lon="-1.167375">
        <ele>878.0</ele>
        <time>2019-07-31T16:47:17.101Z</time>
      </trkpt>
      <trkpt lat="42.99775833" lon="-1.16736667">
        <ele>878.0</ele>
        <time>2019-07-31T16:47:18.107Z</time>
      </trkpt>
      <trkpt lat="42.99777167" lon="-1.16736">
        <ele>879.0</ele>
        <time>2019-07-31T16:47:19.114Z</time>
      </trkpt>
      <trkpt lat="42.99778667" lon="-1.167355">
        <ele>881.0</ele>
        <time>2019-07-31T16:47:20.121Z</time>
      </trkpt>
      <trkpt lat="42.99780333" lon="-1.16735">
        <ele>882.0</ele>
        <time>2019-07-31T16:47:21.125Z</time>
      </trkpt>
      <trkpt lat="42.99781667" lon="-1.16734167">
        <ele>882.0</ele>
        <time>2019-07-31T16:47:22.132Z</time>
      </trkpt>
      <trkpt lat="42.99782667" lon="-1.16733167">
        <ele>881.0</ele>
        <time>2019-07-31T16:47:23.136Z</time>
      </trkpt>
      <trkpt lat="42.99783833" lon="-1.16732333">
        <ele>881.0</ele>
        <time>2019-07-31T16:47:24.141Z</time>
      </trkpt>
      <trkpt lat="42.99785" lon="-1.16731667">
        <ele>881.0</ele>
        <time>2019-07-31T16:47:25.146Z</time>
      </trkpt>
      <trkpt lat="42.997865" lon="-1.16731">
        <ele>881.0</ele>
        <time>2019-07-31T16:47:26.150Z</time>
      </trkpt>
      <trkpt lat="42.99787667" lon="-1.16729833">
        <ele>882.0</ele>
        <time>2019-07-31T16:47:27.157Z</time>
      </trkpt>
      <trkpt lat="42.99789167" lon="-1.16728833">
        <ele>882.0</ele>
        <time>2019-07-31T16:47:28.163Z</time>
      </trkpt>
      <trkpt lat="42.99790333" lon="-1.16727833">
        <ele>882.0</ele>
        <time>2019-07-31T16:47:29.167Z</time>
      </trkpt>
      <trkpt lat="42.99791667" lon="-1.16727">
        <ele>883.0</ele>
        <time>2019-07-31T16:47:30.172Z</time>
      </trkpt>
      <trkpt lat="42.99792833" lon="-1.16726">
        <ele>883.0</ele>
        <time>2019-07-31T16:47:31.177Z</time>
      </trkpt>
      <trkpt lat="42.99794333" lon="-1.16724667">
        <ele>883.0</ele>
        <time>2019-07-31T16:47:32.183Z</time>
      </trkpt>
      <trkpt lat="42.997955" lon="-1.16723667">
        <ele>884.0</ele>
        <time>2019-07-31T16:47:33.062Z</time>
      </trkpt>
      <trkpt lat="42.99796833" lon="-1.16722833">
        <ele>885.0</ele>
        <time>2019-07-31T16:47:34.069Z</time>
      </trkpt>
      <trkpt lat="42.99798167" lon="-1.16722167">
        <ele>885.0</ele>
        <time>2019-07-31T16:47:35.075Z</time>
      </trkpt>
      <trkpt lat="42.99799333" lon="-1.16721333">
        <ele>886.0</ele>
        <time>2019-07-31T16:47:36.081Z</time>
      </trkpt>
      <trkpt lat="42.99800667" lon="-1.16720667">
        <ele>886.0</ele>
        <time>2019-07-31T16:47:37.087Z</time>
      </trkpt>
      <trkpt lat="42.99801833" lon="-1.16720167">
        <ele>886.0</ele>
        <time>2019-07-31T16:47:38.091Z</time>
      </trkpt>
      <trkpt lat="42.99803" lon="-1.16719833">
        <ele>886.0</ele>
        <time>2019-07-31T16:47:39.099Z</time>
      </trkpt>
      <trkpt lat="42.99804" lon="-1.16718833">
        <ele>886.0</ele>
        <time>2019-07-31T16:47:40.106Z</time>
      </trkpt>
      <trkpt lat="42.99805333" lon="-1.167175">
        <ele>886.0</ele>
        <time>2019-07-31T16:47:41.114Z</time>
      </trkpt>
      <trkpt lat="42.99806667" lon="-1.16716">
        <ele>886.0</ele>
        <time>2019-07-31T16:47:42.121Z</time>
      </trkpt>
      <trkpt lat="42.99807667" lon="-1.16714333">
        <ele>885.0</ele>
        <time>2019-07-31T16:47:43.126Z</time>
      </trkpt>
      <trkpt lat="42.99808833" lon="-1.16713">
        <ele>885.0</ele>
        <time>2019-07-31T16:47:44.131Z</time>
      </trkpt>
      <trkpt lat="42.9981" lon="-1.167115">
        <ele>885.0</ele>
        <time>2019-07-31T16:47:45.133Z</time>
      </trkpt>
      <trkpt lat="42.99811" lon="-1.167095">
        <ele>884.0</ele>
        <time>2019-07-31T16:47:46.139Z</time>
      </trkpt>
      <trkpt lat="42.99812167" lon="-1.16707833">
        <ele>884.0</ele>
        <time>2019-07-31T16:47:47.142Z</time>
      </trkpt>
      <trkpt lat="42.99813333" lon="-1.16706">
        <ele>884.0</ele>
        <time>2019-07-31T16:47:48.148Z</time>
      </trkpt>
      <trkpt lat="42.99814333" lon="-1.16704167">
        <ele>884.0</ele>
        <time>2019-07-31T16:47:49.153Z</time>
      </trkpt>
      <trkpt lat="42.998155" lon="-1.16703">
        <ele>884.0</ele>
        <time>2019-07-31T16:47:50.158Z</time>
      </trkpt>
      <trkpt lat="42.998165" lon="-1.16701167">
        <ele>884.0</ele>
        <time>2019-07-31T16:47:51.162Z</time>
      </trkpt>
      <trkpt lat="42.99817667" lon="-1.16699833">
        <ele>883.0</ele>
        <time>2019-07-31T16:47:52.168Z</time>
      </trkpt>
      <trkpt lat="42.99818833" lon="-1.16698167">
        <ele>883.0</ele>
        <time>2019-07-31T16:47:53.172Z</time>
      </trkpt>
      <trkpt lat="42.9982" lon="-1.166965">
        <ele>882.0</ele>
        <time>2019-07-31T16:47:54.175Z</time>
      </trkpt>
      <trkpt lat="42.99821167" lon="-1.16694833">
        <ele>881.0</ele>
        <time>2019-07-31T16:47:55.180Z</time>
      </trkpt>
      <trkpt lat="42.99822333" lon="-1.16693">
        <ele>879.0</ele>
        <time>2019-07-31T16:47:56.184Z</time>
      </trkpt>
      <trkpt lat="42.998235" lon="-1.16691167">
        <ele>879.0</ele>
        <time>2019-07-31T16:47:57.064Z</time>
      </trkpt>
      <trkpt lat="42.998245" lon="-1.16689667">
        <ele>878.0</ele>
        <time>2019-07-31T16:47:58.069Z</time>
      </trkpt>
      <trkpt lat="42.99825667" lon="-1.16688">
        <ele>878.0</ele>
        <time>2019-07-31T16:47:59.075Z</time>
      </trkpt>
      <trkpt lat="42.99826833" lon="-1.16686333">
        <ele>877.0</ele>
        <time>2019-07-31T16:48:00.080Z</time>
      </trkpt>
      <trkpt lat="42.99828" lon="-1.166845">
        <ele>877.0</ele>
        <time>2019-07-31T16:48:01.085Z</time>
      </trkpt>
      <trkpt lat="42.99829167" lon="-1.16683">
        <ele>877.0</ele>
        <time>2019-07-31T16:48:02.090Z</time>
      </trkpt>
      <trkpt lat="42.99830333" lon="-1.16681667">
        <ele>877.0</ele>
        <time>2019-07-31T16:48:03.095Z</time>
      </trkpt>
      <trkpt lat="42.99831333" lon="-1.16680333">
        <ele>877.0</ele>
        <time>2019-07-31T16:48:04.101Z</time>
      </trkpt>
      <trkpt lat="42.99832667" lon="-1.16679">
        <ele>877.0</ele>
        <time>2019-07-31T16:48:05.105Z</time>
      </trkpt>
      <trkpt lat="42.998335" lon="-1.16677333">
        <ele>877.0</ele>
        <time>2019-07-31T16:48:06.111Z</time>
      </trkpt>
      <trkpt lat="42.998345" lon="-1.166755">
        <ele>876.0</ele>
        <time>2019-07-31T16:48:07.117Z</time>
      </trkpt>
      <trkpt lat="42.99835667" lon="-1.16674167">
        <ele>876.0</ele>
        <time>2019-07-31T16:48:08.122Z</time>
      </trkpt>
      <trkpt lat="42.99837" lon="-1.16672667">
        <ele>876.0</ele>
        <time>2019-07-31T16:48:09.127Z</time>
      </trkpt>
      <trkpt lat="42.99838667" lon="-1.16670833">
        <ele>876.0</ele>
        <time>2019-07-31T16:48:10.131Z</time>
      </trkpt>
      <trkpt lat="42.99839667" lon="-1.16669167">
        <ele>876.0</ele>
        <time>2019-07-31T16:48:11.135Z</time>
      </trkpt>
      <trkpt lat="42.99840833" lon="-1.16667167">
        <ele>876.0</ele>
        <time>2019-07-31T16:48:12.141Z</time>
      </trkpt>
      <trkpt lat="42.99842167" lon="-1.166655">
        <ele>876.0</ele>
        <time>2019-07-31T16:48:13.147Z</time>
      </trkpt>
      <trkpt lat="42.99843167" lon="-1.166645">
        <ele>877.0</ele>
        <time>2019-07-31T16:48:14.153Z</time>
      </trkpt>
      <trkpt lat="42.99844333" lon="-1.16663333">
        <ele>877.0</ele>
        <time>2019-07-31T16:48:15.159Z</time>
      </trkpt>
      <trkpt lat="42.998455" lon="-1.166625">
        <ele>878.0</ele>
        <time>2019-07-31T16:48:16.165Z</time>
      </trkpt>
      <trkpt lat="42.99846667" lon="-1.166615">
        <ele>878.0</ele>
        <time>2019-07-31T16:48:17.169Z</time>
      </trkpt>
      <trkpt lat="42.99848167" lon="-1.1666">
        <ele>878.0</ele>
        <time>2019-07-31T16:48:18.173Z</time>
      </trkpt>
      <trkpt lat="42.998495" lon="-1.16658167">
        <ele>878.0</ele>
        <time>2019-07-31T16:48:19.176Z</time>
      </trkpt>
      <trkpt lat="42.99850833" lon="-1.16656667">
        <ele>879.0</ele>
        <time>2019-07-31T16:48:20.181Z</time>
      </trkpt>
      <trkpt lat="42.99852167" lon="-1.16655">
        <ele>879.0</ele>
        <time>2019-07-31T16:48:21.061Z</time>
      </trkpt>
      <trkpt lat="42.998535" lon="-1.16653667">
        <ele>879.0</ele>
        <time>2019-07-31T16:48:22.067Z</time>
      </trkpt>
      <trkpt lat="42.99854833" lon="-1.16652333">
        <ele>879.0</ele>
        <time>2019-07-31T16:48:23.074Z</time>
      </trkpt>
      <trkpt lat="42.99856167" lon="-1.16651">
        <ele>880.0</ele>
        <time>2019-07-31T16:48:24.078Z</time>
      </trkpt>
      <trkpt lat="42.99857333" lon="-1.16649833">
        <ele>881.0</ele>
        <time>2019-07-31T16:48:25.084Z</time>
      </trkpt>
      <trkpt lat="42.99858333" lon="-1.16649">
        <ele>882.0</ele>
        <time>2019-07-31T16:48:26.089Z</time>
      </trkpt>
      <trkpt lat="42.99860167" lon="-1.166475">
        <ele>883.0</ele>
        <time>2019-07-31T16:48:27.094Z</time>
      </trkpt>
      <trkpt lat="42.998615" lon="-1.16646333">
        <ele>884.0</ele>
        <time>2019-07-31T16:48:28.099Z</time>
      </trkpt>
      <trkpt lat="42.99863" lon="-1.16645333">
        <ele>884.0</ele>
        <time>2019-07-31T16:48:29.106Z</time>
      </trkpt>
      <trkpt lat="42.998645" lon="-1.16644833">
        <ele>885.0</ele>
        <time>2019-07-31T16:48:30.112Z</time>
      </trkpt>
      <trkpt lat="42.99866" lon="-1.16644333">
        <ele>885.0</ele>
        <time>2019-07-31T16:48:31.118Z</time>
      </trkpt>
      <trkpt lat="42.99867333" lon="-1.16644">
        <ele>886.0</ele>
        <time>2019-07-31T16:48:32.125Z</time>
      </trkpt>
      <trkpt lat="42.99869167" lon="-1.166435">
        <ele>887.0</ele>
        <time>2019-07-31T16:48:33.129Z</time>
      </trkpt>
      <trkpt lat="42.998705" lon="-1.166435">
        <ele>887.0</ele>
        <time>2019-07-31T16:48:34.134Z</time>
      </trkpt>
      <trkpt lat="42.99872167" lon="-1.166435">
        <ele>888.0</ele>
        <time>2019-07-31T16:48:35.139Z</time>
      </trkpt>
      <trkpt lat="42.99873667" lon="-1.16643833">
        <ele>888.0</ele>
        <time>2019-07-31T16:48:36.143Z</time>
      </trkpt>
      <trkpt lat="42.99875167" lon="-1.16644333">
        <ele>889.0</ele>
        <time>2019-07-31T16:48:37.150Z</time>
      </trkpt>
      <trkpt lat="42.99876833" lon="-1.16644833">
        <ele>890.0</ele>
        <time>2019-07-31T16:48:38.155Z</time>
      </trkpt>
      <trkpt lat="42.99878333" lon="-1.16645">
        <ele>890.0</ele>
        <time>2019-07-31T16:48:39.159Z</time>
      </trkpt>
      <trkpt lat="42.9988" lon="-1.166455">
        <ele>891.0</ele>
        <time>2019-07-31T16:48:40.163Z</time>
      </trkpt>
      <trkpt lat="42.99881667" lon="-1.16646">
        <ele>891.0</ele>
        <time>2019-07-31T16:48:41.170Z</time>
      </trkpt>
      <trkpt lat="42.99883167" lon="-1.16646333">
        <ele>892.0</ele>
        <time>2019-07-31T16:48:42.175Z</time>
      </trkpt>
      <trkpt lat="42.99884833" lon="-1.16646667">
        <ele>893.0</ele>
        <time>2019-07-31T16:48:43.180Z</time>
      </trkpt>
      <trkpt lat="42.99886333" lon="-1.16647">
        <ele>893.0</ele>
        <time>2019-07-31T16:48:44.185Z</time>
      </trkpt>
      <trkpt lat="42.99888" lon="-1.166475">
        <ele>894.0</ele>
        <time>2019-07-31T16:48:45.063Z</time>
      </trkpt>
      <trkpt lat="42.99889667" lon="-1.16648">
        <ele>894.0</ele>
        <time>2019-07-31T16:48:46.070Z</time>
      </trkpt>
      <trkpt lat="42.99891167" lon="-1.16648667">
        <ele>894.0</ele>
        <time>2019-07-31T16:48:47.077Z</time>
      </trkpt>
      <trkpt lat="42.99892833" lon="-1.16649">
        <ele>895.0</ele>
        <time>2019-07-31T16:48:48.084Z</time>
      </trkpt>
      <trkpt lat="42.998945" lon="-1.166495">
        <ele>895.0</ele>
        <time>2019-07-31T16:48:49.089Z</time>
      </trkpt>
      <trkpt lat="42.99896333" lon="-1.16650167">
        <ele>896.0</ele>
        <time>2019-07-31T16:48:50.091Z</time>
      </trkpt>
      <trkpt lat="42.99897833" lon="-1.16650333">
        <ele>896.0</ele>
        <time>2019-07-31T16:48:51.093Z</time>
      </trkpt>
      <trkpt lat="42.99899333" lon="-1.16650667">
        <ele>896.0</ele>
        <time>2019-07-31T16:48:52.099Z</time>
      </trkpt>
      <trkpt lat="42.99900833" lon="-1.16651">
        <ele>896.0</ele>
        <time>2019-07-31T16:48:53.101Z</time>
      </trkpt>
      <trkpt lat="42.999025" lon="-1.16651">
        <ele>897.0</ele>
        <time>2019-07-31T16:48:54.106Z</time>
      </trkpt>
      <trkpt lat="42.99904" lon="-1.16651167">
        <ele>897.0</ele>
        <time>2019-07-31T16:48:55.111Z</time>
      </trkpt>
      <trkpt lat="42.999055" lon="-1.16651333">
        <ele>896.0</ele>
        <time>2019-07-31T16:48:56.117Z</time>
      </trkpt>
      <trkpt lat="42.99907167" lon="-1.16651833">
        <ele>896.0</ele>
        <time>2019-07-31T16:48:57.123Z</time>
      </trkpt>
      <trkpt lat="42.99908667" lon="-1.16652167">
        <ele>897.0</ele>
        <time>2019-07-31T16:48:58.130Z</time>
      </trkpt>
      <trkpt lat="42.99910167" lon="-1.166525">
        <ele>897.0</ele>
        <time>2019-07-31T16:48:59.133Z</time>
      </trkpt>
      <trkpt lat="42.99911667" lon="-1.16652833">
        <ele>897.0</ele>
        <time>2019-07-31T16:49:00.137Z</time>
      </trkpt>
      <trkpt lat="42.99913333" lon="-1.16653167">
        <ele>898.0</ele>
        <time>2019-07-31T16:49:01.144Z</time>
      </trkpt>
      <trkpt lat="42.99914833" lon="-1.16653667">
        <ele>898.0</ele>
        <time>2019-07-31T16:49:02.148Z</time>
      </trkpt>
      <trkpt lat="42.99916167" lon="-1.166545">
        <ele>898.0</ele>
        <time>2019-07-31T16:49:03.153Z</time>
      </trkpt>
      <trkpt lat="42.99917667" lon="-1.16655333">
        <ele>899.0</ele>
        <time>2019-07-31T16:49:04.158Z</time>
      </trkpt>
      <trkpt lat="42.99919" lon="-1.16655667">
        <ele>898.0</ele>
        <time>2019-07-31T16:49:05.165Z</time>
      </trkpt>
      <trkpt lat="42.999205" lon="-1.166565">
        <ele>899.0</ele>
        <time>2019-07-31T16:49:06.171Z</time>
      </trkpt>
      <trkpt lat="42.99921833" lon="-1.16657333">
        <ele>899.0</ele>
        <time>2019-07-31T16:49:07.175Z</time>
      </trkpt>
      <trkpt lat="42.99923333" lon="-1.16658167">
        <ele>899.0</ele>
        <time>2019-07-31T16:49:08.183Z</time>
      </trkpt>
      <trkpt lat="42.99924667" lon="-1.16659">
        <ele>899.0</ele>
        <time>2019-07-31T16:49:09.062Z</time>
      </trkpt>
      <trkpt lat="42.99926" lon="-1.16659333">
        <ele>899.0</ele>
        <time>2019-07-31T16:49:10.067Z</time>
      </trkpt>
      <trkpt lat="42.99927167" lon="-1.16659667">
        <ele>899.0</ele>
        <time>2019-07-31T16:49:11.072Z</time>
      </trkpt>
      <trkpt lat="42.99928333" lon="-1.16660333">
        <ele>899.0</ele>
        <time>2019-07-31T16:49:12.076Z</time>
      </trkpt>
      <trkpt lat="42.99929833" lon="-1.16660833">
        <ele>898.0</ele>
        <time>2019-07-31T16:49:13.081Z</time>
      </trkpt>
      <trkpt lat="42.99931" lon="-1.16661667">
        <ele>898.0</ele>
        <time>2019-07-31T16:49:14.086Z</time>
      </trkpt>
      <trkpt lat="42.99931833" lon="-1.16662333">
        <ele>898.0</ele>
        <time>2019-07-31T16:49:15.091Z</time>
      </trkpt>
      <trkpt lat="42.99933167" lon="-1.16663333">
        <ele>898.0</ele>
        <time>2019-07-31T16:49:16.097Z</time>
      </trkpt>
      <trkpt lat="42.99934833" lon="-1.16663667">
        <ele>898.0</ele>
        <time>2019-07-31T16:49:17.102Z</time>
      </trkpt>
      <trkpt lat="42.999365" lon="-1.16664667">
        <ele>898.0</ele>
        <time>2019-07-31T16:49:18.106Z</time>
      </trkpt>
      <trkpt lat="42.99938167" lon="-1.16665333">
        <ele>899.0</ele>
        <time>2019-07-31T16:49:19.111Z</time>
      </trkpt>
      <trkpt lat="42.99939667" lon="-1.16665833">
        <ele>899.0</ele>
        <time>2019-07-31T16:49:20.116Z</time>
      </trkpt>
      <trkpt lat="42.99941333" lon="-1.166665">
        <ele>900.0</ele>
        <time>2019-07-31T16:49:21.120Z</time>
      </trkpt>
      <trkpt lat="42.99942667" lon="-1.166675">
        <ele>900.0</ele>
        <time>2019-07-31T16:49:22.124Z</time>
      </trkpt>
      <trkpt lat="42.99944167" lon="-1.166685">
        <ele>900.0</ele>
        <time>2019-07-31T16:49:23.131Z</time>
      </trkpt>
      <trkpt lat="42.99945833" lon="-1.16669333">
        <ele>900.0</ele>
        <time>2019-07-31T16:49:24.135Z</time>
      </trkpt>
      <trkpt lat="42.99947167" lon="-1.16670333">
        <ele>900.0</ele>
        <time>2019-07-31T16:49:25.140Z</time>
      </trkpt>
      <trkpt lat="42.99948667" lon="-1.16671167">
        <ele>900.0</ele>
        <time>2019-07-31T16:49:26.147Z</time>
      </trkpt>
      <trkpt lat="42.99950167" lon="-1.16672333">
        <ele>901.0</ele>
        <time>2019-07-31T16:49:27.154Z</time>
      </trkpt>
      <trkpt lat="42.99951667" lon="-1.16673333">
        <ele>901.0</ele>
        <time>2019-07-31T16:49:28.158Z</time>
      </trkpt>
      <trkpt lat="42.99953333" lon="-1.16674167">
        <ele>902.0</ele>
        <time>2019-07-31T16:49:29.163Z</time>
      </trkpt>
      <trkpt lat="42.99954833" lon="-1.16674667">
        <ele>902.0</ele>
        <time>2019-07-31T16:49:30.169Z</time>
      </trkpt>
      <trkpt lat="42.99956333" lon="-1.16675333">
        <ele>902.0</ele>
        <time>2019-07-31T16:49:31.174Z</time>
      </trkpt>
      <trkpt lat="42.99957833" lon="-1.16675333">
        <ele>901.0</ele>
        <time>2019-07-31T16:49:32.178Z</time>
      </trkpt>
      <trkpt lat="42.999595" lon="-1.16675333">
        <ele>900.0</ele>
        <time>2019-07-31T16:49:33.183Z</time>
      </trkpt>
      <trkpt lat="42.99960833" lon="-1.16675667">
        <ele>899.0</ele>
        <time>2019-07-31T16:49:34.063Z</time>
      </trkpt>
      <trkpt lat="42.99962333" lon="-1.16676">
        <ele>898.0</ele>
        <time>2019-07-31T16:49:35.068Z</time>
      </trkpt>
      <trkpt lat="42.99963833" lon="-1.16676833">
        <ele>898.0</ele>
        <time>2019-07-31T16:49:36.072Z</time>
      </trkpt>
      <trkpt lat="42.999655" lon="-1.166775">
        <ele>898.0</ele>
        <time>2019-07-31T16:49:37.076Z</time>
      </trkpt>
      <trkpt lat="42.99967167" lon="-1.16678167">
        <ele>898.0</ele>
        <time>2019-07-31T16:49:38.082Z</time>
      </trkpt>
      <trkpt lat="42.99968667" lon="-1.16678333">
        <ele>897.0</ele>
        <time>2019-07-31T16:49:39.085Z</time>
      </trkpt>
      <trkpt lat="42.99970167" lon="-1.16678167">
        <ele>897.0</ele>
        <time>2019-07-31T16:49:40.091Z</time>
      </trkpt>
      <trkpt lat="42.999715" lon="-1.16678667">
        <ele>897.0</ele>
        <time>2019-07-31T16:49:41.096Z</time>
      </trkpt>
      <trkpt lat="42.99972833" lon="-1.16679">
        <ele>897.0</ele>
        <time>2019-07-31T16:49:42.101Z</time>
      </trkpt>
      <trkpt lat="42.999745" lon="-1.16679">
        <ele>896.0</ele>
        <time>2019-07-31T16:49:43.105Z</time>
      </trkpt>
      <trkpt lat="42.99975667" lon="-1.166785">
        <ele>895.0</ele>
        <time>2019-07-31T16:49:44.110Z</time>
      </trkpt>
      <trkpt lat="42.999775" lon="-1.16678833">
        <ele>894.0</ele>
        <time>2019-07-31T16:49:45.116Z</time>
      </trkpt>
      <trkpt lat="42.99979167" lon="-1.16679167">
        <ele>894.0</ele>
        <time>2019-07-31T16:49:46.122Z</time>
      </trkpt>
      <trkpt lat="42.99980667" lon="-1.16679333">
        <ele>893.0</ele>
        <time>2019-07-31T16:49:47.129Z</time>
      </trkpt>
      <trkpt lat="42.99982" lon="-1.16679667">
        <ele>892.0</ele>
        <time>2019-07-31T16:49:48.135Z</time>
      </trkpt>
      <trkpt lat="42.999835" lon="-1.16680333">
        <ele>892.0</ele>
        <time>2019-07-31T16:49:49.139Z</time>
      </trkpt>
      <trkpt lat="42.999855" lon="-1.16681333">
        <ele>892.0</ele>
        <time>2019-07-31T16:49:50.144Z</time>
      </trkpt>
      <trkpt lat="42.99987" lon="-1.16681333">
        <ele>891.0</ele>
        <time>2019-07-31T16:49:51.152Z</time>
      </trkpt>
      <trkpt lat="42.99988833" lon="-1.166815">
        <ele>889.0</ele>
        <time>2019-07-31T16:49:52.156Z</time>
      </trkpt>
      <trkpt lat="42.99990333" lon="-1.16682167">
        <ele>889.0</ele>
        <time>2019-07-31T16:49:53.162Z</time>
      </trkpt>
      <trkpt lat="42.999915" lon="-1.16682333">
        <ele>888.0</ele>
        <time>2019-07-31T16:49:54.166Z</time>
      </trkpt>
      <trkpt lat="42.999935" lon="-1.16682667">
        <ele>888.0</ele>
        <time>2019-07-31T16:49:55.171Z</time>
      </trkpt>
      <trkpt lat="42.99995167" lon="-1.16683333">
        <ele>888.0</ele>
        <time>2019-07-31T16:49:56.175Z</time>
      </trkpt>
      <trkpt lat="42.99996833" lon="-1.16683667">
        <ele>888.0</ele>
        <time>2019-07-31T16:49:57.182Z</time>
      </trkpt>
      <trkpt lat="42.99998333" lon="-1.16684">
        <ele>888.0</ele>
        <time>2019-07-31T16:49:58.063Z</time>
      </trkpt>
      <trkpt lat="42.99999833" lon="-1.166845">
        <ele>888.0</ele>
        <time>2019-07-31T16:49:59.070Z</time>
      </trkpt>
      <trkpt lat="43.000015" lon="-1.166845">
        <ele>888.0</ele>
        <time>2019-07-31T16:50:00.076Z</time>
      </trkpt>
      <trkpt lat="43.00002833" lon="-1.166845">
        <ele>888.0</ele>
        <time>2019-07-31T16:50:01.083Z</time>
      </trkpt>
      <trkpt lat="43.00004167" lon="-1.16684167">
        <ele>888.0</ele>
        <time>2019-07-31T16:50:02.089Z</time>
      </trkpt>
      <trkpt lat="43.00005" lon="-1.16684333">
        <ele>888.0</ele>
        <time>2019-07-31T16:50:03.091Z</time>
      </trkpt>
      <trkpt lat="43.00006333" lon="-1.16684667">
        <ele>888.0</ele>
        <time>2019-07-31T16:50:04.096Z</time>
      </trkpt>
      <trkpt lat="43.00007833" lon="-1.16684833">
        <ele>889.0</ele>
        <time>2019-07-31T16:50:05.101Z</time>
      </trkpt>
      <trkpt lat="43.00009" lon="-1.16684667">
        <ele>890.0</ele>
        <time>2019-07-31T16:50:06.108Z</time>
      </trkpt>
      <trkpt lat="43.000105" lon="-1.16685167">
        <ele>890.0</ele>
        <time>2019-07-31T16:50:07.114Z</time>
      </trkpt>
      <trkpt lat="43.00011667" lon="-1.166855">
        <ele>891.0</ele>
        <time>2019-07-31T16:50:08.121Z</time>
      </trkpt>
      <trkpt lat="43.00012833" lon="-1.16685833">
        <ele>892.0</ele>
        <time>2019-07-31T16:50:09.127Z</time>
      </trkpt>
      <trkpt lat="43.00014167" lon="-1.16686333">
        <ele>892.0</ele>
        <time>2019-07-31T16:50:10.133Z</time>
      </trkpt>
      <trkpt lat="43.00015333" lon="-1.166865">
        <ele>892.0</ele>
        <time>2019-07-31T16:50:11.139Z</time>
      </trkpt>
      <trkpt lat="43.00016" lon="-1.16686333">
        <ele>892.0</ele>
        <time>2019-07-31T16:50:12.145Z</time>
      </trkpt>
      <trkpt lat="43.00016667" lon="-1.16685833">
        <ele>892.0</ele>
        <time>2019-07-31T16:50:13.151Z</time>
      </trkpt>
      <trkpt lat="43.00017667" lon="-1.16686">
        <ele>892.0</ele>
        <time>2019-07-31T16:50:14.157Z</time>
      </trkpt>
      <trkpt lat="43.00018667" lon="-1.16686333">
        <ele>892.0</ele>
        <time>2019-07-31T16:50:15.163Z</time>
      </trkpt>
      <trkpt lat="43.00019833" lon="-1.16686833">
        <ele>892.0</ele>
        <time>2019-07-31T16:50:16.167Z</time>
      </trkpt>
      <trkpt lat="43.00021167" lon="-1.16687">
        <ele>892.0</ele>
        <time>2019-07-31T16:50:17.172Z</time>
      </trkpt>
      <trkpt lat="43.00022333" lon="-1.16687">
        <ele>892.0</ele>
        <time>2019-07-31T16:50:18.177Z</time>
      </trkpt>
      <trkpt lat="43.000235" lon="-1.16687333">
        <ele>892.0</ele>
        <time>2019-07-31T16:50:19.180Z</time>
      </trkpt>
      <trkpt lat="43.000245" lon="-1.16687667">
        <ele>892.0</ele>
        <time>2019-07-31T16:50:20.181Z</time>
      </trkpt>
      <trkpt lat="43.000255" lon="-1.16688">
        <ele>893.0</ele>
        <time>2019-07-31T16:50:21.184Z</time>
      </trkpt>
      <trkpt lat="43.00026333" lon="-1.16688333">
        <ele>893.0</ele>
        <time>2019-07-31T16:50:22.063Z</time>
      </trkpt>
      <trkpt lat="43.00027333" lon="-1.16688167">
        <ele>894.0</ele>
        <time>2019-07-31T16:50:23.066Z</time>
      </trkpt>
      <trkpt lat="43.00028333" lon="-1.166885">
        <ele>895.0</ele>
        <time>2019-07-31T16:50:24.071Z</time>
      </trkpt>
      <trkpt lat="43.0003" lon="-1.166885">
        <ele>896.0</ele>
        <time>2019-07-31T16:50:25.077Z</time>
      </trkpt>
      <trkpt lat="43.000315" lon="-1.16688667">
        <ele>897.0</ele>
        <time>2019-07-31T16:50:26.083Z</time>
      </trkpt>
      <trkpt lat="43.00033167" lon="-1.16688333">
        <ele>898.0</ele>
        <time>2019-07-31T16:50:27.088Z</time>
      </trkpt>
      <trkpt lat="43.000345" lon="-1.16688167">
        <ele>900.0</ele>
        <time>2019-07-31T16:50:28.092Z</time>
      </trkpt>
      <trkpt lat="43.00036" lon="-1.16688333">
        <ele>901.0</ele>
        <time>2019-07-31T16:50:29.098Z</time>
      </trkpt>
      <trkpt lat="43.000375" lon="-1.16688333">
        <ele>902.0</ele>
        <time>2019-07-31T16:50:30.103Z</time>
      </trkpt>
      <trkpt lat="43.00038667" lon="-1.166885">
        <ele>903.0</ele>
        <time>2019-07-31T16:50:31.109Z</time>
      </trkpt>
      <trkpt lat="43.000395" lon="-1.16688167">
        <ele>904.0</ele>
        <time>2019-07-31T16:50:32.115Z</time>
      </trkpt>
      <trkpt lat="43.00040667" lon="-1.16687">
        <ele>904.0</ele>
        <time>2019-07-31T16:50:33.121Z</time>
      </trkpt>
      <trkpt lat="43.000415" lon="-1.16686167">
        <ele>905.0</ele>
        <time>2019-07-31T16:50:34.126Z</time>
      </trkpt>
      <trkpt lat="43.00043" lon="-1.16685333">
        <ele>905.0</ele>
        <time>2019-07-31T16:50:35.130Z</time>
      </trkpt>
      <trkpt lat="43.00044667" lon="-1.16685167">
        <ele>906.0</ele>
        <time>2019-07-31T16:50:36.134Z</time>
      </trkpt>
      <trkpt lat="43.00046333" lon="-1.16685167">
        <ele>906.0</ele>
        <time>2019-07-31T16:50:37.140Z</time>
      </trkpt>
      <trkpt lat="43.00048" lon="-1.16684833">
        <ele>907.0</ele>
        <time>2019-07-31T16:50:38.145Z</time>
      </trkpt>
      <trkpt lat="43.00049667" lon="-1.16684667">
        <ele>907.0</ele>
        <time>2019-07-31T16:50:39.149Z</time>
      </trkpt>
      <trkpt lat="43.00050833" lon="-1.16684333">
        <ele>908.0</ele>
        <time>2019-07-31T16:50:40.155Z</time>
      </trkpt>
      <trkpt lat="43.00052167" lon="-1.16683833">
        <ele>908.0</ele>
        <time>2019-07-31T16:50:41.162Z</time>
      </trkpt>
      <trkpt lat="43.000535" lon="-1.16682833">
        <ele>909.0</ele>
        <time>2019-07-31T16:50:42.168Z</time>
      </trkpt>
      <trkpt lat="43.00054667" lon="-1.16682">
        <ele>910.0</ele>
        <time>2019-07-31T16:50:43.175Z</time>
      </trkpt>
      <trkpt lat="43.00056" lon="-1.16681667">
        <ele>911.0</ele>
        <time>2019-07-31T16:50:44.178Z</time>
      </trkpt>
      <trkpt lat="43.00057833" lon="-1.16681">
        <ele>913.0</ele>
        <time>2019-07-31T16:50:45.183Z</time>
      </trkpt>
      <trkpt lat="43.00059333" lon="-1.16680667">
        <ele>914.0</ele>
        <time>2019-07-31T16:50:46.061Z</time>
      </trkpt>
      <trkpt lat="43.00060833" lon="-1.16680833">
        <ele>914.0</ele>
        <time>2019-07-31T16:50:47.064Z</time>
      </trkpt>
      <trkpt lat="43.00062667" lon="-1.16679833">
        <ele>914.0</ele>
        <time>2019-07-31T16:50:48.067Z</time>
      </trkpt>
      <trkpt lat="43.00064167" lon="-1.16679167">
        <ele>914.0</ele>
        <time>2019-07-31T16:50:49.072Z</time>
      </trkpt>
      <trkpt lat="43.00066" lon="-1.166785">
        <ele>914.0</ele>
        <time>2019-07-31T16:50:50.076Z</time>
      </trkpt>
      <trkpt lat="43.000675" lon="-1.166775">
        <ele>913.0</ele>
        <time>2019-07-31T16:50:51.083Z</time>
      </trkpt>
      <trkpt lat="43.00068833" lon="-1.16676667">
        <ele>913.0</ele>
        <time>2019-07-31T16:50:52.088Z</time>
      </trkpt>
      <trkpt lat="43.00070167" lon="-1.166755">
        <ele>912.0</ele>
        <time>2019-07-31T16:50:53.094Z</time>
      </trkpt>
      <trkpt lat="43.000715" lon="-1.16674333">
        <ele>912.0</ele>
        <time>2019-07-31T16:50:54.098Z</time>
      </trkpt>
      <trkpt lat="43.00072667" lon="-1.16673167">
        <ele>912.0</ele>
        <time>2019-07-31T16:50:55.103Z</time>
      </trkpt>
      <trkpt lat="43.00073833" lon="-1.16672833">
        <ele>912.0</ele>
        <time>2019-07-31T16:50:56.109Z</time>
      </trkpt>
      <trkpt lat="43.00075" lon="-1.16672333">
        <ele>913.0</ele>
        <time>2019-07-31T16:50:57.114Z</time>
      </trkpt>
      <trkpt lat="43.00076167" lon="-1.166715">
        <ele>913.0</ele>
        <time>2019-07-31T16:50:58.121Z</time>
      </trkpt>
      <trkpt lat="43.00077667" lon="-1.16670167">
        <ele>913.0</ele>
        <time>2019-07-31T16:50:59.128Z</time>
      </trkpt>
      <trkpt lat="43.00079167" lon="-1.16669">
        <ele>912.0</ele>
        <time>2019-07-31T16:51:00.134Z</time>
      </trkpt>
      <trkpt lat="43.00080667" lon="-1.166675">
        <ele>911.0</ele>
        <time>2019-07-31T16:51:01.140Z</time>
      </trkpt>
      <trkpt lat="43.00082333" lon="-1.16666333">
        <ele>911.0</ele>
        <time>2019-07-31T16:51:02.147Z</time>
      </trkpt>
      <trkpt lat="43.00084" lon="-1.16665">
        <ele>911.0</ele>
        <time>2019-07-31T16:51:03.152Z</time>
      </trkpt>
      <trkpt lat="43.00085333" lon="-1.16664">
        <ele>911.0</ele>
        <time>2019-07-31T16:51:04.158Z</time>
      </trkpt>
      <trkpt lat="43.00086667" lon="-1.16662333">
        <ele>910.0</ele>
        <time>2019-07-31T16:51:05.164Z</time>
      </trkpt>
      <trkpt lat="43.00088" lon="-1.16660833">
        <ele>910.0</ele>
        <time>2019-07-31T16:51:06.169Z</time>
      </trkpt>
      <trkpt lat="43.000895" lon="-1.166595">
        <ele>909.0</ele>
        <time>2019-07-31T16:51:07.173Z</time>
      </trkpt>
      <trkpt lat="43.00091167" lon="-1.16657667">
        <ele>909.0</ele>
        <time>2019-07-31T16:51:08.175Z</time>
      </trkpt>
      <trkpt lat="43.00092333" lon="-1.16655833">
        <ele>907.0</ele>
        <time>2019-07-31T16:51:09.179Z</time>
      </trkpt>
      <trkpt lat="43.00094" lon="-1.16654333">
        <ele>906.0</ele>
        <time>2019-07-31T16:51:10.186Z</time>
      </trkpt>
      <trkpt lat="43.000955" lon="-1.16653167">
        <ele>904.0</ele>
        <time>2019-07-31T16:51:11.066Z</time>
      </trkpt>
      <trkpt lat="43.00097167" lon="-1.16652">
        <ele>903.0</ele>
        <time>2019-07-31T16:51:12.070Z</time>
      </trkpt>
      <trkpt lat="43.00098667" lon="-1.16650833">
        <ele>902.0</ele>
        <time>2019-07-31T16:51:13.072Z</time>
      </trkpt>
      <trkpt lat="43.001" lon="-1.16650167">
        <ele>901.0</ele>
        <time>2019-07-31T16:51:14.075Z</time>
      </trkpt>
      <trkpt lat="43.001015" lon="-1.16649833">
        <ele>900.0</ele>
        <time>2019-07-31T16:51:15.081Z</time>
      </trkpt>
      <trkpt lat="43.00103" lon="-1.16649">
        <ele>900.0</ele>
        <time>2019-07-31T16:51:16.086Z</time>
      </trkpt>
      <trkpt lat="43.00104" lon="-1.166485">
        <ele>900.0</ele>
        <time>2019-07-31T16:51:17.091Z</time>
      </trkpt>
      <trkpt lat="43.00105167" lon="-1.16648">
        <ele>900.0</ele>
        <time>2019-07-31T16:51:18.098Z</time>
      </trkpt>
      <trkpt lat="43.00106667" lon="-1.16647">
        <ele>900.0</ele>
        <time>2019-07-31T16:51:19.104Z</time>
      </trkpt>
      <trkpt lat="43.00107833" lon="-1.16646167">
        <ele>900.0</ele>
        <time>2019-07-31T16:51:20.109Z</time>
      </trkpt>
      <trkpt lat="43.00109167" lon="-1.166455">
        <ele>900.0</ele>
        <time>2019-07-31T16:51:21.114Z</time>
      </trkpt>
      <trkpt lat="43.00110833" lon="-1.16644667">
        <ele>900.0</ele>
        <time>2019-07-31T16:51:22.121Z</time>
      </trkpt>
      <trkpt lat="43.00112333" lon="-1.166435">
        <ele>899.0</ele>
        <time>2019-07-31T16:51:23.128Z</time>
      </trkpt>
      <trkpt lat="43.00114" lon="-1.16642833">
        <ele>899.0</ele>
        <time>2019-07-31T16:51:24.135Z</time>
      </trkpt>
      <trkpt lat="43.001155" lon="-1.16642167">
        <ele>899.0</ele>
        <time>2019-07-31T16:51:25.141Z</time>
      </trkpt>
      <trkpt lat="43.00117" lon="-1.16641667">
        <ele>899.0</ele>
        <time>2019-07-31T16:51:26.146Z</time>
      </trkpt>
      <trkpt lat="43.00118667" lon="-1.16641">
        <ele>899.0</ele>
        <time>2019-07-31T16:51:27.151Z</time>
      </trkpt>
      <trkpt lat="43.00119833" lon="-1.166405">
        <ele>900.0</ele>
        <time>2019-07-31T16:51:28.156Z</time>
      </trkpt>
      <trkpt lat="43.00121" lon="-1.1664">
        <ele>900.0</ele>
        <time>2019-07-31T16:51:29.163Z</time>
      </trkpt>
      <trkpt lat="43.00122333" lon="-1.16639167">
        <ele>901.0</ele>
        <time>2019-07-31T16:51:30.164Z</time>
      </trkpt>
      <trkpt lat="43.001235" lon="-1.16638167">
        <ele>901.0</ele>
        <time>2019-07-31T16:51:31.169Z</time>
      </trkpt>
      <trkpt lat="43.00125" lon="-1.16637">
        <ele>901.0</ele>
        <time>2019-07-31T16:51:32.175Z</time>
      </trkpt>
      <trkpt lat="43.001265" lon="-1.16635333">
        <ele>900.0</ele>
        <time>2019-07-31T16:51:33.179Z</time>
      </trkpt>
      <trkpt lat="43.00128" lon="-1.16634167">
        <ele>899.0</ele>
        <time>2019-07-31T16:51:34.179Z</time>
      </trkpt>
      <trkpt lat="43.001295" lon="-1.166325">
        <ele>898.0</ele>
        <time>2019-07-31T16:51:35.184Z</time>
      </trkpt>
      <trkpt lat="43.00131" lon="-1.16630833">
        <ele>897.0</ele>
        <time>2019-07-31T16:51:36.062Z</time>
      </trkpt>
      <trkpt lat="43.00132667" lon="-1.16629833">
        <ele>896.0</ele>
        <time>2019-07-31T16:51:37.064Z</time>
      </trkpt>
      <trkpt lat="43.00134333" lon="-1.166285">
        <ele>894.0</ele>
        <time>2019-07-31T16:51:38.064Z</time>
      </trkpt>
      <trkpt lat="43.00136" lon="-1.16627167">
        <ele>893.0</ele>
        <time>2019-07-31T16:51:39.068Z</time>
      </trkpt>
      <trkpt lat="43.00137667" lon="-1.16626167">
        <ele>893.0</ele>
        <time>2019-07-31T16:51:40.073Z</time>
      </trkpt>
      <trkpt lat="43.00139333" lon="-1.16625667">
        <ele>893.0</ele>
        <time>2019-07-31T16:51:41.079Z</time>
      </trkpt>
      <trkpt lat="43.00141" lon="-1.16625167">
        <ele>893.0</ele>
        <time>2019-07-31T16:51:42.088Z</time>
      </trkpt>
      <trkpt lat="43.001425" lon="-1.16625">
        <ele>893.0</ele>
        <time>2019-07-31T16:51:43.094Z</time>
      </trkpt>
      <trkpt lat="43.00144167" lon="-1.16624667">
        <ele>893.0</ele>
        <time>2019-07-31T16:51:44.100Z</time>
      </trkpt>
      <trkpt lat="43.00145833" lon="-1.16624167">
        <ele>893.0</ele>
        <time>2019-07-31T16:51:45.106Z</time>
      </trkpt>
      <trkpt lat="43.001475" lon="-1.166235">
        <ele>893.0</ele>
        <time>2019-07-31T16:51:46.112Z</time>
      </trkpt>
      <trkpt lat="43.00149" lon="-1.16622833">
        <ele>892.0</ele>
        <time>2019-07-31T16:51:47.117Z</time>
      </trkpt>
      <trkpt lat="43.00150667" lon="-1.16622333">
        <ele>892.0</ele>
        <time>2019-07-31T16:51:48.121Z</time>
      </trkpt>
      <trkpt lat="43.00152" lon="-1.16622333">
        <ele>892.0</ele>
        <time>2019-07-31T16:51:49.126Z</time>
      </trkpt>
      <trkpt lat="43.00153667" lon="-1.16621833">
        <ele>893.0</ele>
        <time>2019-07-31T16:51:50.132Z</time>
      </trkpt>
      <trkpt lat="43.001555" lon="-1.16621333">
        <ele>893.0</ele>
        <time>2019-07-31T16:51:51.134Z</time>
      </trkpt>
      <trkpt lat="43.00157333" lon="-1.16621333">
        <ele>892.0</ele>
        <time>2019-07-31T16:51:52.140Z</time>
      </trkpt>
      <trkpt lat="43.00158833" lon="-1.16620833">
        <ele>892.0</ele>
        <time>2019-07-31T16:51:53.146Z</time>
      </trkpt>
      <trkpt lat="43.00160833" lon="-1.16619833">
        <ele>892.0</ele>
        <time>2019-07-31T16:51:54.150Z</time>
      </trkpt>
      <trkpt lat="43.00162667" lon="-1.16618833">
        <ele>892.0</ele>
        <time>2019-07-31T16:51:55.156Z</time>
      </trkpt>
      <trkpt lat="43.00164" lon="-1.16617333">
        <ele>891.0</ele>
        <time>2019-07-31T16:51:56.162Z</time>
      </trkpt>
      <trkpt lat="43.00165667" lon="-1.16615833">
        <ele>890.0</ele>
        <time>2019-07-31T16:51:57.168Z</time>
      </trkpt>
      <trkpt lat="43.00167167" lon="-1.16614">
        <ele>888.0</ele>
        <time>2019-07-31T16:51:58.174Z</time>
      </trkpt>
      <trkpt lat="43.001685" lon="-1.16611833">
        <ele>887.0</ele>
        <time>2019-07-31T16:51:59.177Z</time>
      </trkpt>
      <trkpt lat="43.00169667" lon="-1.16609667">
        <ele>886.0</ele>
        <time>2019-07-31T16:52:00.183Z</time>
      </trkpt>
      <trkpt lat="43.001705" lon="-1.16607167">
        <ele>885.0</ele>
        <time>2019-07-31T16:52:01.062Z</time>
      </trkpt>
      <trkpt lat="43.00171" lon="-1.16604667">
        <ele>884.0</ele>
        <time>2019-07-31T16:52:02.069Z</time>
      </trkpt>
      <trkpt lat="43.00172" lon="-1.16602667">
        <ele>883.0</ele>
        <time>2019-07-31T16:52:03.072Z</time>
      </trkpt>
      <trkpt lat="43.00172667" lon="-1.16600833">
        <ele>881.0</ele>
        <time>2019-07-31T16:52:04.078Z</time>
      </trkpt>
      <trkpt lat="43.00173167" lon="-1.16598833">
        <ele>880.0</ele>
        <time>2019-07-31T16:52:05.084Z</time>
      </trkpt>
      <trkpt lat="43.001735" lon="-1.165965">
        <ele>878.0</ele>
        <time>2019-07-31T16:52:06.090Z</time>
      </trkpt>
      <trkpt lat="43.00174167" lon="-1.16594333">
        <ele>877.0</ele>
        <time>2019-07-31T16:52:07.096Z</time>
      </trkpt>
      <trkpt lat="43.00175167" lon="-1.16592333">
        <ele>875.0</ele>
        <time>2019-07-31T16:52:08.102Z</time>
      </trkpt>
      <trkpt lat="43.00175333" lon="-1.165905">
        <ele>875.0</ele>
        <time>2019-07-31T16:52:09.107Z</time>
      </trkpt>
      <trkpt lat="43.00176333" lon="-1.16588833">
        <ele>875.0</ele>
        <time>2019-07-31T16:52:10.113Z</time>
      </trkpt>
      <trkpt lat="43.00176833" lon="-1.16587">
        <ele>875.0</ele>
        <time>2019-07-31T16:52:11.118Z</time>
      </trkpt>
      <trkpt lat="43.00177667" lon="-1.165855">
        <ele>875.0</ele>
        <time>2019-07-31T16:52:12.123Z</time>
      </trkpt>
      <trkpt lat="43.00178333" lon="-1.16583667">
        <ele>875.0</ele>
        <time>2019-07-31T16:52:13.129Z</time>
      </trkpt>
      <trkpt lat="43.001795" lon="-1.16581667">
        <ele>874.0</ele>
        <time>2019-07-31T16:52:14.135Z</time>
      </trkpt>
      <trkpt lat="43.00180333" lon="-1.16579833">
        <ele>874.0</ele>
        <time>2019-07-31T16:52:15.140Z</time>
      </trkpt>
      <trkpt lat="43.00181333" lon="-1.16578333">
        <ele>873.0</ele>
        <time>2019-07-31T16:52:16.145Z</time>
      </trkpt>
      <trkpt lat="43.00181833" lon="-1.16576833">
        <ele>872.0</ele>
        <time>2019-07-31T16:52:17.150Z</time>
      </trkpt>
      <trkpt lat="43.00182833" lon="-1.16575667">
        <ele>872.0</ele>
        <time>2019-07-31T16:52:18.157Z</time>
      </trkpt>
      <trkpt lat="43.00183667" lon="-1.16574167">
        <ele>871.0</ele>
        <time>2019-07-31T16:52:19.163Z</time>
      </trkpt>
      <trkpt lat="43.001845" lon="-1.16572833">
        <ele>871.0</ele>
        <time>2019-07-31T16:52:20.168Z</time>
      </trkpt>
      <trkpt lat="43.00185333" lon="-1.16571167">
        <ele>871.0</ele>
        <time>2019-07-31T16:52:21.172Z</time>
      </trkpt>
      <trkpt lat="43.00186333" lon="-1.16570167">
        <ele>870.0</ele>
        <time>2019-07-31T16:52:22.178Z</time>
      </trkpt>
      <trkpt lat="43.00187667" lon="-1.16569333">
        <ele>871.0</ele>
        <time>2019-07-31T16:52:23.184Z</time>
      </trkpt>
      <trkpt lat="43.00189" lon="-1.16568333">
        <ele>871.0</ele>
        <time>2019-07-31T16:52:24.065Z</time>
      </trkpt>
      <trkpt lat="43.00190333" lon="-1.16568">
        <ele>872.0</ele>
        <time>2019-07-31T16:52:25.070Z</time>
      </trkpt>
      <trkpt lat="43.00191667" lon="-1.16567667">
        <ele>873.0</ele>
        <time>2019-07-31T16:52:26.075Z</time>
      </trkpt>
      <trkpt lat="43.00193167" lon="-1.16567333">
        <ele>873.0</ele>
        <time>2019-07-31T16:52:27.080Z</time>
      </trkpt>
      <trkpt lat="43.001945" lon="-1.16567">
        <ele>874.0</ele>
        <time>2019-07-31T16:52:28.084Z</time>
      </trkpt>
      <trkpt lat="43.00195833" lon="-1.165665">
        <ele>874.0</ele>
        <time>2019-07-31T16:52:29.088Z</time>
      </trkpt>
      <trkpt lat="43.00197333" lon="-1.16566333">
        <ele>874.0</ele>
        <time>2019-07-31T16:52:30.094Z</time>
      </trkpt>
      <trkpt lat="43.001985" lon="-1.16566">
        <ele>874.0</ele>
        <time>2019-07-31T16:52:31.100Z</time>
      </trkpt>
      <trkpt lat="43.002005" lon="-1.165665">
        <ele>875.0</ele>
        <time>2019-07-31T16:52:32.107Z</time>
      </trkpt>
      <trkpt lat="43.00202833" lon="-1.16567333">
        <ele>875.0</ele>
        <time>2019-07-31T16:52:33.113Z</time>
      </trkpt>
      <trkpt lat="43.00204667" lon="-1.16567667">
        <ele>876.0</ele>
        <time>2019-07-31T16:52:34.119Z</time>
      </trkpt>
      <trkpt lat="43.00206167" lon="-1.16567667">
        <ele>876.0</ele>
        <time>2019-07-31T16:52:35.124Z</time>
      </trkpt>
      <trkpt lat="43.002075" lon="-1.165675">
        <ele>876.0</ele>
        <time>2019-07-31T16:52:36.130Z</time>
      </trkpt>
      <trkpt lat="43.00208833" lon="-1.16567667">
        <ele>876.0</ele>
        <time>2019-07-31T16:52:37.133Z</time>
      </trkpt>
      <trkpt lat="43.00210333" lon="-1.16567833">
        <ele>876.0</ele>
        <time>2019-07-31T16:52:38.139Z</time>
      </trkpt>
      <trkpt lat="43.00211667" lon="-1.16567833">
        <ele>876.0</ele>
        <time>2019-07-31T16:52:39.145Z</time>
      </trkpt>
      <trkpt lat="43.00212667" lon="-1.16568">
        <ele>876.0</ele>
        <time>2019-07-31T16:52:40.151Z</time>
      </trkpt>
      <trkpt lat="43.00213667" lon="-1.16568333">
        <ele>876.0</ele>
        <time>2019-07-31T16:52:41.154Z</time>
      </trkpt>
      <trkpt lat="43.002145" lon="-1.16568667">
        <ele>877.0</ele>
        <time>2019-07-31T16:52:42.158Z</time>
      </trkpt>
      <trkpt lat="43.00216" lon="-1.16569167">
        <ele>877.0</ele>
        <time>2019-07-31T16:52:43.165Z</time>
      </trkpt>
      <trkpt lat="43.00217333" lon="-1.16569667">
        <ele>878.0</ele>
        <time>2019-07-31T16:52:44.171Z</time>
      </trkpt>
      <trkpt lat="43.002185" lon="-1.16570333">
        <ele>878.0</ele>
        <time>2019-07-31T16:52:45.176Z</time>
      </trkpt>
      <trkpt lat="43.002195" lon="-1.16570667">
        <ele>877.0</ele>
        <time>2019-07-31T16:52:46.182Z</time>
      </trkpt>
      <trkpt lat="43.0022" lon="-1.165705">
        <ele>877.0</ele>
        <time>2019-07-31T16:52:47.062Z</time>
      </trkpt>
      <trkpt lat="43.00221" lon="-1.16570333">
        <ele>877.0</ele>
        <time>2019-07-31T16:52:48.068Z</time>
      </trkpt>
      <trkpt lat="43.00221833" lon="-1.16570167">
        <ele>876.0</ele>
        <time>2019-07-31T16:52:49.075Z</time>
      </trkpt>
      <trkpt lat="43.00223167" lon="-1.16570167">
        <ele>876.0</ele>
        <time>2019-07-31T16:52:50.081Z</time>
      </trkpt>
      <trkpt lat="43.002245" lon="-1.16570333">
        <ele>876.0</ele>
        <time>2019-07-31T16:52:51.087Z</time>
      </trkpt>
      <trkpt lat="43.00226" lon="-1.165705">
        <ele>874.0</ele>
        <time>2019-07-31T16:52:52.092Z</time>
      </trkpt>
      <trkpt lat="43.00227333" lon="-1.16570833">
        <ele>873.0</ele>
        <time>2019-07-31T16:52:53.098Z</time>
      </trkpt>
      <trkpt lat="43.00228333" lon="-1.16571">
        <ele>873.0</ele>
        <time>2019-07-31T16:52:54.104Z</time>
      </trkpt>
      <trkpt lat="43.002295" lon="-1.16571667">
        <ele>874.0</ele>
        <time>2019-07-31T16:52:55.110Z</time>
      </trkpt>
      <trkpt lat="43.00230333" lon="-1.16572">
        <ele>874.0</ele>
        <time>2019-07-31T16:52:56.118Z</time>
      </trkpt>
      <trkpt lat="43.00231333" lon="-1.16571833">
        <ele>874.0</ele>
        <time>2019-07-31T16:52:57.123Z</time>
      </trkpt>
      <trkpt lat="43.00232333" lon="-1.16572167">
        <ele>875.0</ele>
        <time>2019-07-31T16:52:58.128Z</time>
      </trkpt>
      <trkpt lat="43.002335" lon="-1.16572667">
        <ele>874.0</ele>
        <time>2019-07-31T16:52:59.131Z</time>
      </trkpt>
      <trkpt lat="43.00234667" lon="-1.16573667">
        <ele>874.0</ele>
        <time>2019-07-31T16:53:00.136Z</time>
      </trkpt>
      <trkpt lat="43.00235833" lon="-1.165745">
        <ele>873.0</ele>
        <time>2019-07-31T16:53:01.140Z</time>
      </trkpt>
      <trkpt lat="43.00236833" lon="-1.16575">
        <ele>873.0</ele>
        <time>2019-07-31T16:53:02.144Z</time>
      </trkpt>
      <trkpt lat="43.00238" lon="-1.16575333">
        <ele>873.0</ele>
        <time>2019-07-31T16:53:03.151Z</time>
      </trkpt>
      <trkpt lat="43.00239167" lon="-1.16575833">
        <ele>873.0</ele>
        <time>2019-07-31T16:53:04.155Z</time>
      </trkpt>
      <trkpt lat="43.00240333" lon="-1.16576167">
        <ele>874.0</ele>
        <time>2019-07-31T16:53:05.158Z</time>
      </trkpt>
      <trkpt lat="43.00242" lon="-1.16576833">
        <ele>874.0</ele>
        <time>2019-07-31T16:53:06.163Z</time>
      </trkpt>
      <trkpt lat="43.00243333" lon="-1.16577333">
        <ele>874.0</ele>
        <time>2019-07-31T16:53:07.168Z</time>
      </trkpt>
      <trkpt lat="43.002445" lon="-1.16577833">
        <ele>874.0</ele>
        <time>2019-07-31T16:53:08.175Z</time>
      </trkpt>
      <trkpt lat="43.002455" lon="-1.16578333">
        <ele>874.0</ele>
        <time>2019-07-31T16:53:09.180Z</time>
      </trkpt>
      <trkpt lat="43.00246833" lon="-1.165785">
        <ele>874.0</ele>
        <time>2019-07-31T16:53:10.186Z</time>
      </trkpt>
      <trkpt lat="43.002475" lon="-1.165785">
        <ele>874.0</ele>
        <time>2019-07-31T16:53:11.065Z</time>
      </trkpt>
      <trkpt lat="43.002485" lon="-1.16578667">
        <ele>874.0</ele>
        <time>2019-07-31T16:53:12.071Z</time>
      </trkpt>
      <trkpt lat="43.00249833" lon="-1.16579167">
        <ele>875.0</ele>
        <time>2019-07-31T16:53:13.078Z</time>
      </trkpt>
      <trkpt lat="43.00251333" lon="-1.16579833">
        <ele>874.0</ele>
        <time>2019-07-31T16:53:14.084Z</time>
      </trkpt>
      <trkpt lat="43.00252667" lon="-1.16580833">
        <ele>874.0</ele>
        <time>2019-07-31T16:53:15.090Z</time>
      </trkpt>
      <trkpt lat="43.00254" lon="-1.165815">
        <ele>874.0</ele>
        <time>2019-07-31T16:53:16.094Z</time>
      </trkpt>
      <trkpt lat="43.00255667" lon="-1.16582167">
        <ele>875.0</ele>
        <time>2019-07-31T16:53:17.102Z</time>
      </trkpt>
      <trkpt lat="43.00257333" lon="-1.16583">
        <ele>875.0</ele>
        <time>2019-07-31T16:53:18.106Z</time>
      </trkpt>
      <trkpt lat="43.00258667" lon="-1.16583833">
        <ele>875.0</ele>
        <time>2019-07-31T16:53:19.111Z</time>
      </trkpt>
      <trkpt lat="43.002605" lon="-1.16584833">
        <ele>875.0</ele>
        <time>2019-07-31T16:53:20.116Z</time>
      </trkpt>
      <trkpt lat="43.00262" lon="-1.16585667">
        <ele>875.0</ele>
        <time>2019-07-31T16:53:21.122Z</time>
      </trkpt>
      <trkpt lat="43.002635" lon="-1.16586167">
        <ele>875.0</ele>
        <time>2019-07-31T16:53:22.126Z</time>
      </trkpt>
      <trkpt lat="43.00265" lon="-1.16586833">
        <ele>876.0</ele>
        <time>2019-07-31T16:53:23.131Z</time>
      </trkpt>
      <trkpt lat="43.00267" lon="-1.16588">
        <ele>876.0</ele>
        <time>2019-07-31T16:53:24.134Z</time>
      </trkpt>
      <trkpt lat="43.00269" lon="-1.16589333">
        <ele>876.0</ele>
        <time>2019-07-31T16:53:25.140Z</time>
      </trkpt>
      <trkpt lat="43.00271" lon="-1.16590333">
        <ele>876.0</ele>
        <time>2019-07-31T16:53:26.145Z</time>
      </trkpt>
      <trkpt lat="43.00273" lon="-1.16591167">
        <ele>877.0</ele>
        <time>2019-07-31T16:53:27.152Z</time>
      </trkpt>
      <trkpt lat="43.00274833" lon="-1.16591833">
        <ele>876.0</ele>
        <time>2019-07-31T16:53:28.158Z</time>
      </trkpt>
      <trkpt lat="43.002765" lon="-1.16592833">
        <ele>876.0</ele>
        <time>2019-07-31T16:53:29.162Z</time>
      </trkpt>
      <trkpt lat="43.00278167" lon="-1.16593667">
        <ele>876.0</ele>
        <time>2019-07-31T16:53:30.168Z</time>
      </trkpt>
      <trkpt lat="43.00279833" lon="-1.16594833">
        <ele>876.0</ele>
        <time>2019-07-31T16:53:31.174Z</time>
      </trkpt>
      <trkpt lat="43.00281167" lon="-1.16595833">
        <ele>876.0</ele>
        <time>2019-07-31T16:53:32.177Z</time>
      </trkpt>
      <trkpt lat="43.00282833" lon="-1.16596667">
        <ele>876.0</ele>
        <time>2019-07-31T16:53:33.182Z</time>
      </trkpt>
      <trkpt lat="43.002845" lon="-1.16597667">
        <ele>876.0</ele>
        <time>2019-07-31T16:53:34.064Z</time>
      </trkpt>
      <trkpt lat="43.00286167" lon="-1.16599">
        <ele>877.0</ele>
        <time>2019-07-31T16:53:35.068Z</time>
      </trkpt>
      <trkpt lat="43.00287833" lon="-1.16600167">
        <ele>877.0</ele>
        <time>2019-07-31T16:53:36.073Z</time>
      </trkpt>
      <trkpt lat="43.002895" lon="-1.166015">
        <ele>877.0</ele>
        <time>2019-07-31T16:53:37.078Z</time>
      </trkpt>
      <trkpt lat="43.00291" lon="-1.16602833">
        <ele>878.0</ele>
        <time>2019-07-31T16:53:38.084Z</time>
      </trkpt>
      <trkpt lat="43.00292667" lon="-1.16604333">
        <ele>878.0</ele>
        <time>2019-07-31T16:53:39.088Z</time>
      </trkpt>
      <trkpt lat="43.00294" lon="-1.166055">
        <ele>879.0</ele>
        <time>2019-07-31T16:53:40.094Z</time>
      </trkpt>
      <trkpt lat="43.00295333" lon="-1.16606833">
        <ele>878.0</ele>
        <time>2019-07-31T16:53:41.100Z</time>
      </trkpt>
      <trkpt lat="43.00296667" lon="-1.16608">
        <ele>877.0</ele>
        <time>2019-07-31T16:53:42.107Z</time>
      </trkpt>
      <trkpt lat="43.00298" lon="-1.16609167">
        <ele>876.0</ele>
        <time>2019-07-31T16:53:43.115Z</time>
      </trkpt>
      <trkpt lat="43.00299333" lon="-1.166105">
        <ele>876.0</ele>
        <time>2019-07-31T16:53:44.121Z</time>
      </trkpt>
      <trkpt lat="43.00300667" lon="-1.16612">
        <ele>876.0</ele>
        <time>2019-07-31T16:53:45.127Z</time>
      </trkpt>
      <trkpt lat="43.00301833" lon="-1.166135">
        <ele>875.0</ele>
        <time>2019-07-31T16:53:46.133Z</time>
      </trkpt>
      <trkpt lat="43.00302833" lon="-1.16615333">
        <ele>874.0</ele>
        <time>2019-07-31T16:53:47.137Z</time>
      </trkpt>
      <trkpt lat="43.00304" lon="-1.16617">
        <ele>874.0</ele>
        <time>2019-07-31T16:53:48.144Z</time>
      </trkpt>
      <trkpt lat="43.00304833" lon="-1.16618833">
        <ele>873.0</ele>
        <time>2019-07-31T16:53:49.150Z</time>
      </trkpt>
      <trkpt lat="43.00305833" lon="-1.16620833">
        <ele>873.0</ele>
        <time>2019-07-31T16:53:50.157Z</time>
      </trkpt>
      <trkpt lat="43.00306833" lon="-1.16622667">
        <ele>873.0</ele>
        <time>2019-07-31T16:53:51.162Z</time>
      </trkpt>
      <trkpt lat="43.00307667" lon="-1.16624333">
        <ele>873.0</ele>
        <time>2019-07-31T16:53:52.167Z</time>
      </trkpt>
      <trkpt lat="43.00308833" lon="-1.16626">
        <ele>873.0</ele>
        <time>2019-07-31T16:53:53.172Z</time>
      </trkpt>
      <trkpt lat="43.00309667" lon="-1.166275">
        <ele>873.0</ele>
        <time>2019-07-31T16:53:54.177Z</time>
      </trkpt>
      <trkpt lat="43.00310667" lon="-1.16629167">
        <ele>873.0</ele>
        <time>2019-07-31T16:53:55.180Z</time>
      </trkpt>
      <trkpt lat="43.003115" lon="-1.16631">
        <ele>874.0</ele>
        <time>2019-07-31T16:53:56.185Z</time>
      </trkpt>
      <trkpt lat="43.00312333" lon="-1.16632667">
        <ele>874.0</ele>
        <time>2019-07-31T16:53:57.064Z</time>
      </trkpt>
      <trkpt lat="43.00313" lon="-1.16634667">
        <ele>875.0</ele>
        <time>2019-07-31T16:53:58.066Z</time>
      </trkpt>
      <trkpt lat="43.00313667" lon="-1.166365">
        <ele>876.0</ele>
        <time>2019-07-31T16:53:59.071Z</time>
      </trkpt>
      <trkpt lat="43.00314667" lon="-1.166385">
        <ele>876.0</ele>
        <time>2019-07-31T16:54:00.075Z</time>
      </trkpt>
      <trkpt lat="43.003155" lon="-1.16640167">
        <ele>876.0</ele>
        <time>2019-07-31T16:54:01.081Z</time>
      </trkpt>
      <trkpt lat="43.00316167" lon="-1.16642167">
        <ele>877.0</ele>
        <time>2019-07-31T16:54:02.085Z</time>
      </trkpt>
      <trkpt lat="43.003165" lon="-1.16643333">
        <ele>878.0</ele>
        <time>2019-07-31T16:54:03.088Z</time>
      </trkpt>
      <trkpt lat="43.00317" lon="-1.16644833">
        <ele>879.0</ele>
        <time>2019-07-31T16:54:04.091Z</time>
      </trkpt>
      <trkpt lat="43.00317667" lon="-1.166465">
        <ele>879.0</ele>
        <time>2019-07-31T16:54:05.096Z</time>
      </trkpt>
      <trkpt lat="43.00318333" lon="-1.16647667">
        <ele>880.0</ele>
        <time>2019-07-31T16:54:06.101Z</time>
      </trkpt>
      <trkpt lat="43.00319167" lon="-1.16649">
        <ele>880.0</ele>
        <time>2019-07-31T16:54:07.107Z</time>
      </trkpt>
      <trkpt lat="43.00320333" lon="-1.166505">
        <ele>880.0</ele>
        <time>2019-07-31T16:54:08.115Z</time>
      </trkpt>
      <trkpt lat="43.00321333" lon="-1.16651667">
        <ele>881.0</ele>
        <time>2019-07-31T16:54:09.119Z</time>
      </trkpt>
      <trkpt lat="43.00322167" lon="-1.16653333">
        <ele>880.0</ele>
        <time>2019-07-31T16:54:10.126Z</time>
      </trkpt>
      <trkpt lat="43.00322833" lon="-1.16655167">
        <ele>881.0</ele>
        <time>2019-07-31T16:54:11.133Z</time>
      </trkpt>
      <trkpt lat="43.00323333" lon="-1.166565">
        <ele>880.0</ele>
        <time>2019-07-31T16:54:12.138Z</time>
      </trkpt>
      <trkpt lat="43.00323667" lon="-1.16658333">
        <ele>880.0</ele>
        <time>2019-07-31T16:54:13.144Z</time>
      </trkpt>
      <trkpt lat="43.00324167" lon="-1.1666">
        <ele>880.0</ele>
        <time>2019-07-31T16:54:14.149Z</time>
      </trkpt>
      <trkpt lat="43.00324667" lon="-1.16661667">
        <ele>880.0</ele>
        <time>2019-07-31T16:54:15.153Z</time>
      </trkpt>
      <trkpt lat="43.00324667" lon="-1.16663333">
        <ele>879.0</ele>
        <time>2019-07-31T16:54:16.158Z</time>
      </trkpt>
      <trkpt lat="43.00325" lon="-1.16664833">
        <ele>879.0</ele>
        <time>2019-07-31T16:54:17.163Z</time>
      </trkpt>
      <trkpt lat="43.003255" lon="-1.16666333">
        <ele>878.0</ele>
        <time>2019-07-31T16:54:18.165Z</time>
      </trkpt>
      <trkpt lat="43.00326" lon="-1.16667833">
        <ele>879.0</ele>
        <time>2019-07-31T16:54:19.171Z</time>
      </trkpt>
      <trkpt lat="43.003265" lon="-1.16669667">
        <ele>879.0</ele>
        <time>2019-07-31T16:54:20.177Z</time>
      </trkpt>
      <trkpt lat="43.00326667" lon="-1.16671167">
        <ele>879.0</ele>
        <time>2019-07-31T16:54:21.183Z</time>
      </trkpt>
      <trkpt lat="43.00327" lon="-1.16673">
        <ele>878.0</ele>
        <time>2019-07-31T16:54:22.063Z</time>
      </trkpt>
      <trkpt lat="43.003275" lon="-1.16674833">
        <ele>878.0</ele>
        <time>2019-07-31T16:54:23.069Z</time>
      </trkpt>
      <trkpt lat="43.00328" lon="-1.16676667">
        <ele>877.0</ele>
        <time>2019-07-31T16:54:24.074Z</time>
      </trkpt>
      <trkpt lat="43.003285" lon="-1.16678">
        <ele>877.0</ele>
        <time>2019-07-31T16:54:25.078Z</time>
      </trkpt>
      <trkpt lat="43.00329" lon="-1.166795">
        <ele>876.0</ele>
        <time>2019-07-31T16:54:26.084Z</time>
      </trkpt>
      <trkpt lat="43.003295" lon="-1.16681333">
        <ele>875.0</ele>
        <time>2019-07-31T16:54:27.089Z</time>
      </trkpt>
      <trkpt lat="43.0033" lon="-1.16683167">
        <ele>875.0</ele>
        <time>2019-07-31T16:54:28.091Z</time>
      </trkpt>
      <trkpt lat="43.00330667" lon="-1.16684833">
        <ele>875.0</ele>
        <time>2019-07-31T16:54:29.095Z</time>
      </trkpt>
      <trkpt lat="43.003315" lon="-1.16685833">
        <ele>875.0</ele>
        <time>2019-07-31T16:54:30.101Z</time>
      </trkpt>
      <trkpt lat="43.00332167" lon="-1.16687">
        <ele>875.0</ele>
        <time>2019-07-31T16:54:31.105Z</time>
      </trkpt>
      <trkpt lat="43.00332333" lon="-1.166885">
        <ele>875.0</ele>
        <time>2019-07-31T16:54:32.111Z</time>
      </trkpt>
      <trkpt lat="43.00332833" lon="-1.16690167">
        <ele>876.0</ele>
        <time>2019-07-31T16:54:33.116Z</time>
      </trkpt>
      <trkpt lat="43.00333667" lon="-1.16692167">
        <ele>876.0</ele>
        <time>2019-07-31T16:54:34.123Z</time>
      </trkpt>
      <trkpt lat="43.00334167" lon="-1.166935">
        <ele>876.0</ele>
        <time>2019-07-31T16:54:35.129Z</time>
      </trkpt>
      <trkpt lat="43.00334833" lon="-1.16695167">
        <ele>877.0</ele>
        <time>2019-07-31T16:54:36.133Z</time>
      </trkpt>
      <trkpt lat="43.00335333" lon="-1.16696833">
        <ele>876.0</ele>
        <time>2019-07-31T16:54:37.137Z</time>
      </trkpt>
      <trkpt lat="43.00335833" lon="-1.16698667">
        <ele>876.0</ele>
        <time>2019-07-31T16:54:38.142Z</time>
      </trkpt>
      <trkpt lat="43.00336833" lon="-1.167005">
        <ele>876.0</ele>
        <time>2019-07-31T16:54:39.148Z</time>
      </trkpt>
      <trkpt lat="43.00337333" lon="-1.16702167">
        <ele>876.0</ele>
        <time>2019-07-31T16:54:40.153Z</time>
      </trkpt>
      <trkpt lat="43.00338" lon="-1.16704">
        <ele>876.0</ele>
        <time>2019-07-31T16:54:41.159Z</time>
      </trkpt>
      <trkpt lat="43.00338667" lon="-1.16705333">
        <ele>877.0</ele>
        <time>2019-07-31T16:54:42.166Z</time>
      </trkpt>
      <trkpt lat="43.00338833" lon="-1.16706667">
        <ele>877.0</ele>
        <time>2019-07-31T16:54:43.172Z</time>
      </trkpt>
      <trkpt lat="43.00338667" lon="-1.16707833">
        <ele>877.0</ele>
        <time>2019-07-31T16:54:44.178Z</time>
      </trkpt>
      <trkpt lat="43.003385" lon="-1.16708667">
        <ele>878.0</ele>
        <time>2019-07-31T16:54:45.184Z</time>
      </trkpt>
      <trkpt lat="43.003385" lon="-1.167095">
        <ele>879.0</ele>
        <time>2019-07-31T16:54:46.064Z</time>
      </trkpt>
      <trkpt lat="43.00339167" lon="-1.16711">
        <ele>879.0</ele>
        <time>2019-07-31T16:54:47.068Z</time>
      </trkpt>
      <trkpt lat="43.00340167" lon="-1.16712833">
        <ele>880.0</ele>
        <time>2019-07-31T16:54:48.070Z</time>
      </trkpt>
      <trkpt lat="43.00341" lon="-1.16714333">
        <ele>880.0</ele>
        <time>2019-07-31T16:54:49.075Z</time>
      </trkpt>
      <trkpt lat="43.00341833" lon="-1.16716">
        <ele>880.0</ele>
        <time>2019-07-31T16:54:50.080Z</time>
      </trkpt>
      <trkpt lat="43.00342167" lon="-1.16717667">
        <ele>880.0</ele>
        <time>2019-07-31T16:54:51.085Z</time>
      </trkpt>
      <trkpt lat="43.00342667" lon="-1.16719">
        <ele>880.0</ele>
        <time>2019-07-31T16:54:52.092Z</time>
      </trkpt>
      <trkpt lat="43.00343333" lon="-1.1672">
        <ele>880.0</ele>
        <time>2019-07-31T16:54:53.097Z</time>
      </trkpt>
      <trkpt lat="43.00343833" lon="-1.16721167">
        <ele>881.0</ele>
        <time>2019-07-31T16:54:54.102Z</time>
      </trkpt>
      <trkpt lat="43.00345167" lon="-1.16722667">
        <ele>880.0</ele>
        <time>2019-07-31T16:54:55.109Z</time>
      </trkpt>
      <trkpt lat="43.00345667" lon="-1.16724833">
        <ele>880.0</ele>
        <time>2019-07-31T16:54:56.113Z</time>
      </trkpt>
      <trkpt lat="43.00346833" lon="-1.16726833">
        <ele>880.0</ele>
        <time>2019-07-31T16:54:57.117Z</time>
      </trkpt>
      <trkpt lat="43.003485" lon="-1.16728167">
        <ele>880.0</ele>
        <time>2019-07-31T16:54:58.123Z</time>
      </trkpt>
      <trkpt lat="43.00349667" lon="-1.16729">
        <ele>881.0</ele>
        <time>2019-07-31T16:54:59.130Z</time>
      </trkpt>
      <trkpt lat="43.00351333" lon="-1.1673">
        <ele>882.0</ele>
        <time>2019-07-31T16:55:00.133Z</time>
      </trkpt>
      <trkpt lat="43.003525" lon="-1.16731167">
        <ele>882.0</ele>
        <time>2019-07-31T16:55:01.136Z</time>
      </trkpt>
      <trkpt lat="43.00353833" lon="-1.16732">
        <ele>883.0</ele>
        <time>2019-07-31T16:55:02.141Z</time>
      </trkpt>
      <trkpt lat="43.00355167" lon="-1.16733167">
        <ele>884.0</ele>
        <time>2019-07-31T16:55:03.146Z</time>
      </trkpt>
      <trkpt lat="43.00356333" lon="-1.16734333">
        <ele>884.0</ele>
        <time>2019-07-31T16:55:04.151Z</time>
      </trkpt>
      <trkpt lat="43.00357167" lon="-1.16735667">
        <ele>884.0</ele>
        <time>2019-07-31T16:55:05.156Z</time>
      </trkpt>
      <trkpt lat="43.00358167" lon="-1.16736833">
        <ele>884.0</ele>
        <time>2019-07-31T16:55:06.161Z</time>
      </trkpt>
      <trkpt lat="43.00359333" lon="-1.16738167">
        <ele>884.0</ele>
        <time>2019-07-31T16:55:07.164Z</time>
      </trkpt>
      <trkpt lat="43.00360667" lon="-1.16739833">
        <ele>884.0</ele>
        <time>2019-07-31T16:55:08.170Z</time>
      </trkpt>
      <trkpt lat="43.00362167" lon="-1.167415">
        <ele>885.0</ele>
        <time>2019-07-31T16:55:09.173Z</time>
      </trkpt>
      <trkpt lat="43.00363833" lon="-1.16742833">
        <ele>885.0</ele>
        <time>2019-07-31T16:55:10.179Z</time>
      </trkpt>
      <trkpt lat="43.00365167" lon="-1.16744333">
        <ele>886.0</ele>
        <time>2019-07-31T16:55:11.185Z</time>
      </trkpt>
      <trkpt lat="43.00366667" lon="-1.16745333">
        <ele>886.0</ele>
        <time>2019-07-31T16:55:12.066Z</time>
      </trkpt>
      <trkpt lat="43.00367667" lon="-1.167465">
        <ele>886.0</ele>
        <time>2019-07-31T16:55:13.072Z</time>
      </trkpt>
      <trkpt lat="43.00368333" lon="-1.16747167">
        <ele>885.0</ele>
        <time>2019-07-31T16:55:14.076Z</time>
      </trkpt>
      <trkpt lat="43.00369333" lon="-1.16748333">
        <ele>886.0</ele>
        <time>2019-07-31T16:55:15.080Z</time>
      </trkpt>
      <trkpt lat="43.00370833" lon="-1.167495">
        <ele>886.0</ele>
        <time>2019-07-31T16:55:16.085Z</time>
      </trkpt>
      <trkpt lat="43.00371833" lon="-1.167505">
        <ele>887.0</ele>
        <time>2019-07-31T16:55:17.090Z</time>
      </trkpt>
      <trkpt lat="43.00373333" lon="-1.167515">
        <ele>887.0</ele>
        <time>2019-07-31T16:55:18.094Z</time>
      </trkpt>
      <trkpt lat="43.003745" lon="-1.16752667">
        <ele>888.0</ele>
        <time>2019-07-31T16:55:19.101Z</time>
      </trkpt>
      <trkpt lat="43.00375667" lon="-1.16753833">
        <ele>888.0</ele>
        <time>2019-07-31T16:55:20.107Z</time>
      </trkpt>
      <trkpt lat="43.00376833" lon="-1.16755167">
        <ele>888.0</ele>
        <time>2019-07-31T16:55:21.113Z</time>
      </trkpt>
      <trkpt lat="43.00378167" lon="-1.167565">
        <ele>888.0</ele>
        <time>2019-07-31T16:55:22.118Z</time>
      </trkpt>
      <trkpt lat="43.00379333" lon="-1.16757333">
        <ele>889.0</ele>
        <time>2019-07-31T16:55:23.122Z</time>
      </trkpt>
      <trkpt lat="43.00380667" lon="-1.16758333">
        <ele>888.0</ele>
        <time>2019-07-31T16:55:24.129Z</time>
      </trkpt>
      <trkpt lat="43.00381833" lon="-1.16759667">
        <ele>888.0</ele>
        <time>2019-07-31T16:55:25.133Z</time>
      </trkpt>
      <trkpt lat="43.00383333" lon="-1.16760833">
        <ele>888.0</ele>
        <time>2019-07-31T16:55:26.139Z</time>
      </trkpt>
      <trkpt lat="43.003845" lon="-1.16762">
        <ele>888.0</ele>
        <time>2019-07-31T16:55:27.143Z</time>
      </trkpt>
      <trkpt lat="43.00385667" lon="-1.16762833">
        <ele>888.0</ele>
        <time>2019-07-31T16:55:28.148Z</time>
      </trkpt>
      <trkpt lat="43.00387" lon="-1.16764">
        <ele>888.0</ele>
        <time>2019-07-31T16:55:29.151Z</time>
      </trkpt>
      <trkpt lat="43.00388167" lon="-1.16765">
        <ele>888.0</ele>
        <time>2019-07-31T16:55:30.155Z</time>
      </trkpt>
      <trkpt lat="43.00389833" lon="-1.16765833">
        <ele>888.0</ele>
        <time>2019-07-31T16:55:31.160Z</time>
      </trkpt>
      <trkpt lat="43.00391667" lon="-1.16766333">
        <ele>888.0</ele>
        <time>2019-07-31T16:55:32.166Z</time>
      </trkpt>
      <trkpt lat="43.00393" lon="-1.16767">
        <ele>888.0</ele>
        <time>2019-07-31T16:55:33.173Z</time>
      </trkpt>
      <trkpt lat="43.00394167" lon="-1.16768167">
        <ele>888.0</ele>
        <time>2019-07-31T16:55:34.178Z</time>
      </trkpt>
      <trkpt lat="43.003955" lon="-1.16768833">
        <ele>888.0</ele>
        <time>2019-07-31T16:55:35.183Z</time>
      </trkpt>
      <trkpt lat="43.00396833" lon="-1.16769333">
        <ele>888.0</ele>
        <time>2019-07-31T16:55:36.062Z</time>
      </trkpt>
      <trkpt lat="43.00398667" lon="-1.16770167">
        <ele>888.0</ele>
        <time>2019-07-31T16:55:37.068Z</time>
      </trkpt>
      <trkpt lat="43.00400167" lon="-1.16771">
        <ele>889.0</ele>
        <time>2019-07-31T16:55:38.073Z</time>
      </trkpt>
      <trkpt lat="43.004015" lon="-1.16771833">
        <ele>890.0</ele>
        <time>2019-07-31T16:55:39.080Z</time>
      </trkpt>
      <trkpt lat="43.00402667" lon="-1.16772667">
        <ele>890.0</ele>
        <time>2019-07-31T16:55:40.085Z</time>
      </trkpt>
      <trkpt lat="43.00403833" lon="-1.16773667">
        <ele>890.0</ele>
        <time>2019-07-31T16:55:41.090Z</time>
      </trkpt>
      <trkpt lat="43.00405" lon="-1.167745">
        <ele>890.0</ele>
        <time>2019-07-31T16:55:42.093Z</time>
      </trkpt>
      <trkpt lat="43.00406333" lon="-1.167755">
        <ele>889.0</ele>
        <time>2019-07-31T16:55:43.099Z</time>
      </trkpt>
      <trkpt lat="43.00408" lon="-1.16776333">
        <ele>889.0</ele>
        <time>2019-07-31T16:55:44.106Z</time>
      </trkpt>
      <trkpt lat="43.00409833" lon="-1.16777667">
        <ele>889.0</ele>
        <time>2019-07-31T16:55:45.112Z</time>
      </trkpt>
      <trkpt lat="43.00411667" lon="-1.16778833">
        <ele>889.0</ele>
        <time>2019-07-31T16:55:46.119Z</time>
      </trkpt>
      <trkpt lat="43.004135" lon="-1.16779667">
        <ele>890.0</ele>
        <time>2019-07-31T16:55:47.122Z</time>
      </trkpt>
      <trkpt lat="43.00414833" lon="-1.1678">
        <ele>890.0</ele>
        <time>2019-07-31T16:55:48.129Z</time>
      </trkpt>
      <trkpt lat="43.00416333" lon="-1.16780167">
        <ele>891.0</ele>
        <time>2019-07-31T16:55:49.133Z</time>
      </trkpt>
      <trkpt lat="43.00417833" lon="-1.167805">
        <ele>890.0</ele>
        <time>2019-07-31T16:55:50.138Z</time>
      </trkpt>
      <trkpt lat="43.004195" lon="-1.16781">
        <ele>890.0</ele>
        <time>2019-07-31T16:55:51.143Z</time>
      </trkpt>
      <trkpt lat="43.00421167" lon="-1.16782">
        <ele>889.0</ele>
        <time>2019-07-31T16:55:52.150Z</time>
      </trkpt>
      <trkpt lat="43.00423" lon="-1.16782833">
        <ele>889.0</ele>
        <time>2019-07-31T16:55:53.154Z</time>
      </trkpt>
      <trkpt lat="43.00424333" lon="-1.16783833">
        <ele>889.0</ele>
        <time>2019-07-31T16:55:54.160Z</time>
      </trkpt>
      <trkpt lat="43.00425833" lon="-1.16784833">
        <ele>889.0</ele>
        <time>2019-07-31T16:55:55.166Z</time>
      </trkpt>
      <trkpt lat="43.00427333" lon="-1.16786">
        <ele>888.0</ele>
        <time>2019-07-31T16:55:56.172Z</time>
      </trkpt>
      <trkpt lat="43.00428667" lon="-1.16786833">
        <ele>888.0</ele>
        <time>2019-07-31T16:55:57.176Z</time>
      </trkpt>
      <trkpt lat="43.00429833" lon="-1.16787667">
        <ele>888.0</ele>
        <time>2019-07-31T16:55:58.183Z</time>
      </trkpt>
      <trkpt lat="43.00431" lon="-1.167885">
        <ele>887.0</ele>
        <time>2019-07-31T16:55:59.062Z</time>
      </trkpt>
      <trkpt lat="43.00432167" lon="-1.16789833">
        <ele>887.0</ele>
        <time>2019-07-31T16:56:00.068Z</time>
      </trkpt>
      <trkpt lat="43.00433333" lon="-1.16791167">
        <ele>886.0</ele>
        <time>2019-07-31T16:56:01.072Z</time>
      </trkpt>
      <trkpt lat="43.00434333" lon="-1.16792333">
        <ele>886.0</ele>
        <time>2019-07-31T16:56:02.076Z</time>
      </trkpt>
      <trkpt lat="43.00435667" lon="-1.167935">
        <ele>886.0</ele>
        <time>2019-07-31T16:56:03.081Z</time>
      </trkpt>
      <trkpt lat="43.00436833" lon="-1.16794667">
        <ele>886.0</ele>
        <time>2019-07-31T16:56:04.088Z</time>
      </trkpt>
      <trkpt lat="43.00438167" lon="-1.16795833">
        <ele>886.0</ele>
        <time>2019-07-31T16:56:05.093Z</time>
      </trkpt>
      <trkpt lat="43.00439667" lon="-1.16796833">
        <ele>886.0</ele>
        <time>2019-07-31T16:56:06.100Z</time>
      </trkpt>
      <trkpt lat="43.00441" lon="-1.16797833">
        <ele>886.0</ele>
        <time>2019-07-31T16:56:07.106Z</time>
      </trkpt>
      <trkpt lat="43.00442333" lon="-1.16798833">
        <ele>886.0</ele>
        <time>2019-07-31T16:56:08.112Z</time>
      </trkpt>
      <trkpt lat="43.00443667" lon="-1.168">
        <ele>885.0</ele>
        <time>2019-07-31T16:56:09.117Z</time>
      </trkpt>
      <trkpt lat="43.00444833" lon="-1.16801">
        <ele>885.0</ele>
        <time>2019-07-31T16:56:10.122Z</time>
      </trkpt>
      <trkpt lat="43.00445833" lon="-1.16802">
        <ele>885.0</ele>
        <time>2019-07-31T16:56:11.130Z</time>
      </trkpt>
      <trkpt lat="43.00447" lon="-1.16803167">
        <ele>885.0</ele>
        <time>2019-07-31T16:56:12.133Z</time>
      </trkpt>
      <trkpt lat="43.00448167" lon="-1.168045">
        <ele>885.0</ele>
        <time>2019-07-31T16:56:13.141Z</time>
      </trkpt>
      <trkpt lat="43.00449333" lon="-1.16806">
        <ele>885.0</ele>
        <time>2019-07-31T16:56:14.146Z</time>
      </trkpt>
      <trkpt lat="43.004505" lon="-1.16807167">
        <ele>884.0</ele>
        <time>2019-07-31T16:56:15.152Z</time>
      </trkpt>
      <trkpt lat="43.00451333" lon="-1.168085">
        <ele>883.0</ele>
        <time>2019-07-31T16:56:16.158Z</time>
      </trkpt>
      <trkpt lat="43.00452333" lon="-1.168095">
        <ele>883.0</ele>
        <time>2019-07-31T16:56:17.164Z</time>
      </trkpt>
      <trkpt lat="43.00453167" lon="-1.16810833">
        <ele>882.0</ele>
        <time>2019-07-31T16:56:18.171Z</time>
      </trkpt>
      <trkpt lat="43.00454" lon="-1.16812333">
        <ele>882.0</ele>
        <time>2019-07-31T16:56:19.175Z</time>
      </trkpt>
      <trkpt lat="43.00455333" lon="-1.16813833">
        <ele>881.0</ele>
        <time>2019-07-31T16:56:20.179Z</time>
      </trkpt>
      <trkpt lat="43.004565" lon="-1.16815333">
        <ele>881.0</ele>
        <time>2019-07-31T16:56:21.184Z</time>
      </trkpt>
      <trkpt lat="43.004575" lon="-1.16816833">
        <ele>882.0</ele>
        <time>2019-07-31T16:56:22.062Z</time>
      </trkpt>
      <trkpt lat="43.004585" lon="-1.16818333">
        <ele>882.0</ele>
        <time>2019-07-31T16:56:23.070Z</time>
      </trkpt>
      <trkpt lat="43.004595" lon="-1.1682">
        <ele>882.0</ele>
        <time>2019-07-31T16:56:24.076Z</time>
      </trkpt>
      <trkpt lat="43.00460333" lon="-1.16821">
        <ele>883.0</ele>
        <time>2019-07-31T16:56:25.081Z</time>
      </trkpt>
      <trkpt lat="43.00461167" lon="-1.168225">
        <ele>883.0</ele>
        <time>2019-07-31T16:56:26.084Z</time>
      </trkpt>
      <trkpt lat="43.00462333" lon="-1.16824">
        <ele>883.0</ele>
        <time>2019-07-31T16:56:27.086Z</time>
      </trkpt>
      <trkpt lat="43.00463333" lon="-1.16825333">
        <ele>884.0</ele>
        <time>2019-07-31T16:56:28.090Z</time>
      </trkpt>
      <trkpt lat="43.004645" lon="-1.16827167">
        <ele>884.0</ele>
        <time>2019-07-31T16:56:29.094Z</time>
      </trkpt>
      <trkpt lat="43.004655" lon="-1.16829">
        <ele>885.0</ele>
        <time>2019-07-31T16:56:30.096Z</time>
      </trkpt>
      <trkpt lat="43.00466333" lon="-1.16830667">
        <ele>885.0</ele>
        <time>2019-07-31T16:56:31.101Z</time>
      </trkpt>
      <trkpt lat="43.00467333" lon="-1.16831833">
        <ele>886.0</ele>
        <time>2019-07-31T16:56:32.105Z</time>
      </trkpt>
      <trkpt lat="43.004685" lon="-1.16833333">
        <ele>887.0</ele>
        <time>2019-07-31T16:56:33.110Z</time>
      </trkpt>
      <trkpt lat="43.004695" lon="-1.16834667">
        <ele>887.0</ele>
        <time>2019-07-31T16:56:34.117Z</time>
      </trkpt>
      <trkpt lat="43.004705" lon="-1.16836333">
        <ele>887.0</ele>
        <time>2019-07-31T16:56:35.124Z</time>
      </trkpt>
      <trkpt lat="43.00471167" lon="-1.16838">
        <ele>887.0</ele>
        <time>2019-07-31T16:56:36.130Z</time>
      </trkpt>
      <trkpt lat="43.00472" lon="-1.168395">
        <ele>887.0</ele>
        <time>2019-07-31T16:56:37.133Z</time>
      </trkpt>
      <trkpt lat="43.00472667" lon="-1.16841">
        <ele>887.0</ele>
        <time>2019-07-31T16:56:38.139Z</time>
      </trkpt>
      <trkpt lat="43.00473667" lon="-1.168425">
        <ele>888.0</ele>
        <time>2019-07-31T16:56:39.142Z</time>
      </trkpt>
      <trkpt lat="43.00475" lon="-1.16844167">
        <ele>888.0</ele>
        <time>2019-07-31T16:56:40.147Z</time>
      </trkpt>
      <trkpt lat="43.00476" lon="-1.16845833">
        <ele>888.0</ele>
        <time>2019-07-31T16:56:41.152Z</time>
      </trkpt>
      <trkpt lat="43.00477" lon="-1.16847">
        <ele>888.0</ele>
        <time>2019-07-31T16:56:42.156Z</time>
      </trkpt>
      <trkpt lat="43.00478" lon="-1.16848">
        <ele>889.0</ele>
        <time>2019-07-31T16:56:43.158Z</time>
      </trkpt>
      <trkpt lat="43.00479167" lon="-1.168495">
        <ele>890.0</ele>
        <time>2019-07-31T16:56:44.163Z</time>
      </trkpt>
      <trkpt lat="43.00479833" lon="-1.16851">
        <ele>890.0</ele>
        <time>2019-07-31T16:56:45.169Z</time>
      </trkpt>
      <trkpt lat="43.00480667" lon="-1.16853">
        <ele>890.0</ele>
        <time>2019-07-31T16:56:46.173Z</time>
      </trkpt>
      <trkpt lat="43.004815" lon="-1.16854833">
        <ele>890.0</ele>
        <time>2019-07-31T16:56:47.178Z</time>
      </trkpt>
      <trkpt lat="43.00482333" lon="-1.16856167">
        <ele>890.0</ele>
        <time>2019-07-31T16:56:48.185Z</time>
      </trkpt>
      <trkpt lat="43.00483167" lon="-1.16857667">
        <ele>890.0</ele>
        <time>2019-07-31T16:56:49.065Z</time>
      </trkpt>
      <trkpt lat="43.00484167" lon="-1.16858833">
        <ele>890.0</ele>
        <time>2019-07-31T16:56:50.072Z</time>
      </trkpt>
      <trkpt lat="43.00484667" lon="-1.16860333">
        <ele>890.0</ele>
        <time>2019-07-31T16:56:51.077Z</time>
      </trkpt>
      <trkpt lat="43.00485167" lon="-1.16862167">
        <ele>889.0</ele>
        <time>2019-07-31T16:56:52.082Z</time>
      </trkpt>
      <trkpt lat="43.00486" lon="-1.16863667">
        <ele>889.0</ele>
        <time>2019-07-31T16:56:53.088Z</time>
      </trkpt>
      <trkpt lat="43.00486333" lon="-1.16865167">
        <ele>889.0</ele>
        <time>2019-07-31T16:56:54.091Z</time>
      </trkpt>
      <trkpt lat="43.00487167" lon="-1.16866833">
        <ele>889.0</ele>
        <time>2019-07-31T16:56:55.096Z</time>
      </trkpt>
      <trkpt lat="43.00488" lon="-1.16868333">
        <ele>889.0</ele>
        <time>2019-07-31T16:56:56.099Z</time>
      </trkpt>
      <trkpt lat="43.00489" lon="-1.1687">
        <ele>889.0</ele>
        <time>2019-07-31T16:56:57.107Z</time>
      </trkpt>
      <trkpt lat="43.0049" lon="-1.168715">
        <ele>889.0</ele>
        <time>2019-07-31T16:56:58.113Z</time>
      </trkpt>
      <trkpt lat="43.00490833" lon="-1.16872833">
        <ele>889.0</ele>
        <time>2019-07-31T16:56:59.119Z</time>
      </trkpt>
      <trkpt lat="43.00491667" lon="-1.16874167">
        <ele>889.0</ele>
        <time>2019-07-31T16:57:00.124Z</time>
      </trkpt>
      <trkpt lat="43.00492667" lon="-1.16875667">
        <ele>889.0</ele>
        <time>2019-07-31T16:57:01.129Z</time>
      </trkpt>
      <trkpt lat="43.004935" lon="-1.16877">
        <ele>889.0</ele>
        <time>2019-07-31T16:57:02.135Z</time>
      </trkpt>
      <trkpt lat="43.00494" lon="-1.16878833">
        <ele>889.0</ele>
        <time>2019-07-31T16:57:03.140Z</time>
      </trkpt>
      <trkpt lat="43.00495" lon="-1.16880333">
        <ele>889.0</ele>
        <time>2019-07-31T16:57:04.145Z</time>
      </trkpt>
      <trkpt lat="43.00495667" lon="-1.16882">
        <ele>888.0</ele>
        <time>2019-07-31T16:57:05.151Z</time>
      </trkpt>
      <trkpt lat="43.00496333" lon="-1.16883833">
        <ele>888.0</ele>
        <time>2019-07-31T16:57:06.156Z</time>
      </trkpt>
      <trkpt lat="43.00497" lon="-1.16885667">
        <ele>889.0</ele>
        <time>2019-07-31T16:57:07.160Z</time>
      </trkpt>
      <trkpt lat="43.004975" lon="-1.16887667">
        <ele>889.0</ele>
        <time>2019-07-31T16:57:08.164Z</time>
      </trkpt>
      <trkpt lat="43.00498333" lon="-1.16889667">
        <ele>889.0</ele>
        <time>2019-07-31T16:57:09.171Z</time>
      </trkpt>
      <trkpt lat="43.00498833" lon="-1.16891833">
        <ele>889.0</ele>
        <time>2019-07-31T16:57:10.175Z</time>
      </trkpt>
      <trkpt lat="43.004995" lon="-1.16893167">
        <ele>888.0</ele>
        <time>2019-07-31T16:57:11.178Z</time>
      </trkpt>
      <trkpt lat="43.00500333" lon="-1.16894667">
        <ele>887.0</ele>
        <time>2019-07-31T16:57:12.183Z</time>
      </trkpt>
      <trkpt lat="43.00501167" lon="-1.16896333">
        <ele>887.0</ele>
        <time>2019-07-31T16:57:13.063Z</time>
      </trkpt>
      <trkpt lat="43.00502" lon="-1.16897833">
        <ele>887.0</ele>
        <time>2019-07-31T16:57:14.067Z</time>
      </trkpt>
      <trkpt lat="43.00502667" lon="-1.168995">
        <ele>887.0</ele>
        <time>2019-07-31T16:57:15.072Z</time>
      </trkpt>
      <trkpt lat="43.00503333" lon="-1.16901333">
        <ele>888.0</ele>
        <time>2019-07-31T16:57:16.078Z</time>
      </trkpt>
      <trkpt lat="43.00503833" lon="-1.16903333">
        <ele>888.0</ele>
        <time>2019-07-31T16:57:17.085Z</time>
      </trkpt>
      <trkpt lat="43.00504167" lon="-1.16905167">
        <ele>888.0</ele>
        <time>2019-07-31T16:57:18.086Z</time>
      </trkpt>
      <trkpt lat="43.00504" lon="-1.16907">
        <ele>888.0</ele>
        <time>2019-07-31T16:57:19.091Z</time>
      </trkpt>
      <trkpt lat="43.00504167" lon="-1.16908667">
        <ele>888.0</ele>
        <time>2019-07-31T16:57:20.096Z</time>
      </trkpt>
      <trkpt lat="43.005045" lon="-1.1691">
        <ele>889.0</ele>
        <time>2019-07-31T16:57:21.099Z</time>
      </trkpt>
      <trkpt lat="43.00505" lon="-1.16911667">
        <ele>889.0</ele>
        <time>2019-07-31T16:57:22.103Z</time>
      </trkpt>
      <trkpt lat="43.00505667" lon="-1.169135">
        <ele>888.0</ele>
        <time>2019-07-31T16:57:23.110Z</time>
      </trkpt>
      <trkpt lat="43.00506" lon="-1.16915167">
        <ele>888.0</ele>
        <time>2019-07-31T16:57:24.116Z</time>
      </trkpt>
      <trkpt lat="43.00506333" lon="-1.16916833">
        <ele>888.0</ele>
        <time>2019-07-31T16:57:25.122Z</time>
      </trkpt>
      <trkpt lat="43.00506833" lon="-1.16919">
        <ele>888.0</ele>
        <time>2019-07-31T16:57:26.126Z</time>
      </trkpt>
      <trkpt lat="43.005075" lon="-1.16921">
        <ele>889.0</ele>
        <time>2019-07-31T16:57:27.132Z</time>
      </trkpt>
      <trkpt lat="43.00508333" lon="-1.169225">
        <ele>889.0</ele>
        <time>2019-07-31T16:57:28.135Z</time>
      </trkpt>
      <trkpt lat="43.00509333" lon="-1.16924333">
        <ele>890.0</ele>
        <time>2019-07-31T16:57:29.142Z</time>
      </trkpt>
      <trkpt lat="43.00511167" lon="-1.16925333">
        <ele>891.0</ele>
        <time>2019-07-31T16:57:30.149Z</time>
      </trkpt>
      <trkpt lat="43.00513" lon="-1.16926">
        <ele>892.0</ele>
        <time>2019-07-31T16:57:31.153Z</time>
      </trkpt>
      <trkpt lat="43.00514833" lon="-1.16927333">
        <ele>893.0</ele>
        <time>2019-07-31T16:57:32.158Z</time>
      </trkpt>
      <trkpt lat="43.00516333" lon="-1.16929">
        <ele>894.0</ele>
        <time>2019-07-31T16:57:33.162Z</time>
      </trkpt>
      <trkpt lat="43.00517833" lon="-1.169305">
        <ele>895.0</ele>
        <time>2019-07-31T16:57:34.168Z</time>
      </trkpt>
      <trkpt lat="43.00519167" lon="-1.16931833">
        <ele>896.0</ele>
        <time>2019-07-31T16:57:35.172Z</time>
      </trkpt>
      <trkpt lat="43.00520167" lon="-1.16932667">
        <ele>896.0</ele>
        <time>2019-07-31T16:57:36.177Z</time>
      </trkpt>
      <trkpt lat="43.00521167" lon="-1.16933667">
        <ele>897.0</ele>
        <time>2019-07-31T16:57:37.183Z</time>
      </trkpt>
      <trkpt lat="43.00522333" lon="-1.16934833">
        <ele>897.0</ele>
        <time>2019-07-31T16:57:38.061Z</time>
      </trkpt>
      <trkpt lat="43.00523667" lon="-1.16935667">
        <ele>897.0</ele>
        <time>2019-07-31T16:57:39.064Z</time>
      </trkpt>
      <trkpt lat="43.00524833" lon="-1.16936667">
        <ele>897.0</ele>
        <time>2019-07-31T16:57:40.071Z</time>
      </trkpt>
      <trkpt lat="43.00526167" lon="-1.169375">
        <ele>897.0</ele>
        <time>2019-07-31T16:57:41.076Z</time>
      </trkpt>
      <trkpt lat="43.005275" lon="-1.16938333">
        <ele>898.0</ele>
        <time>2019-07-31T16:57:42.083Z</time>
      </trkpt>
      <trkpt lat="43.00528667" lon="-1.16939333">
        <ele>898.0</ele>
        <time>2019-07-31T16:57:43.088Z</time>
      </trkpt>
      <trkpt lat="43.00529833" lon="-1.16940667">
        <ele>899.0</ele>
        <time>2019-07-31T16:57:44.091Z</time>
      </trkpt>
      <trkpt lat="43.00531" lon="-1.16942167">
        <ele>899.0</ele>
        <time>2019-07-31T16:57:45.095Z</time>
      </trkpt>
      <trkpt lat="43.00532" lon="-1.16943833">
        <ele>899.0</ele>
        <time>2019-07-31T16:57:46.100Z</time>
      </trkpt>
      <trkpt lat="43.00533167" lon="-1.169455">
        <ele>899.0</ele>
        <time>2019-07-31T16:57:47.105Z</time>
      </trkpt>
      <trkpt lat="43.00534" lon="-1.16947167">
        <ele>899.0</ele>
        <time>2019-07-31T16:57:48.110Z</time>
      </trkpt>
      <trkpt lat="43.00535167" lon="-1.169485">
        <ele>899.0</ele>
        <time>2019-07-31T16:57:49.113Z</time>
      </trkpt>
      <trkpt lat="43.00536333" lon="-1.16950167">
        <ele>899.0</ele>
        <time>2019-07-31T16:57:50.120Z</time>
      </trkpt>
      <trkpt lat="43.00537333" lon="-1.169515">
        <ele>900.0</ele>
        <time>2019-07-31T16:57:51.125Z</time>
      </trkpt>
      <trkpt lat="43.005385" lon="-1.16952667">
        <ele>900.0</ele>
        <time>2019-07-31T16:57:52.129Z</time>
      </trkpt>
      <trkpt lat="43.00540167" lon="-1.16953667">
        <ele>901.0</ele>
        <time>2019-07-31T16:57:53.135Z</time>
      </trkpt>
      <trkpt lat="43.00541833" lon="-1.16955">
        <ele>901.0</ele>
        <time>2019-07-31T16:57:54.142Z</time>
      </trkpt>
      <trkpt lat="43.00543667" lon="-1.16956333">
        <ele>901.0</ele>
        <time>2019-07-31T16:57:55.148Z</time>
      </trkpt>
      <trkpt lat="43.00544667" lon="-1.16957667">
        <ele>901.0</ele>
        <time>2019-07-31T16:57:56.154Z</time>
      </trkpt>
      <trkpt lat="43.00545333" lon="-1.169595">
        <ele>902.0</ele>
        <time>2019-07-31T16:57:57.159Z</time>
      </trkpt>
      <trkpt lat="43.005465" lon="-1.16961333">
        <ele>902.0</ele>
        <time>2019-07-31T16:57:58.164Z</time>
      </trkpt>
      <trkpt lat="43.00547667" lon="-1.16963167">
        <ele>902.0</ele>
        <time>2019-07-31T16:57:59.169Z</time>
      </trkpt>
      <trkpt lat="43.00548833" lon="-1.16964667">
        <ele>902.0</ele>
        <time>2019-07-31T16:58:00.175Z</time>
      </trkpt>
      <trkpt lat="43.0055" lon="-1.16966">
        <ele>902.0</ele>
        <time>2019-07-31T16:58:01.182Z</time>
      </trkpt>
      <trkpt lat="43.00550833" lon="-1.169675">
        <ele>903.0</ele>
        <time>2019-07-31T16:58:02.061Z</time>
      </trkpt>
      <trkpt lat="43.00551833" lon="-1.16969">
        <ele>903.0</ele>
        <time>2019-07-31T16:58:03.067Z</time>
      </trkpt>
      <trkpt lat="43.00552833" lon="-1.169705">
        <ele>903.0</ele>
        <time>2019-07-31T16:58:04.072Z</time>
      </trkpt>
      <trkpt lat="43.00553667" lon="-1.16971833">
        <ele>904.0</ele>
        <time>2019-07-31T16:58:05.076Z</time>
      </trkpt>
      <trkpt lat="43.00554833" lon="-1.16973833">
        <ele>904.0</ele>
        <time>2019-07-31T16:58:06.081Z</time>
      </trkpt>
      <trkpt lat="43.00555333" lon="-1.16975333">
        <ele>904.0</ele>
        <time>2019-07-31T16:58:07.086Z</time>
      </trkpt>
      <trkpt lat="43.00556333" lon="-1.16977">
        <ele>905.0</ele>
        <time>2019-07-31T16:58:08.090Z</time>
      </trkpt>
      <trkpt lat="43.00557333" lon="-1.16978167">
        <ele>904.0</ele>
        <time>2019-07-31T16:58:09.092Z</time>
      </trkpt>
      <trkpt lat="43.00558167" lon="-1.16979333">
        <ele>904.0</ele>
        <time>2019-07-31T16:58:10.098Z</time>
      </trkpt>
      <trkpt lat="43.00559167" lon="-1.16980833">
        <ele>905.0</ele>
        <time>2019-07-31T16:58:11.105Z</time>
      </trkpt>
      <trkpt lat="43.0056" lon="-1.16982167">
        <ele>905.0</ele>
        <time>2019-07-31T16:58:12.110Z</time>
      </trkpt>
      <trkpt lat="43.00560667" lon="-1.16983333">
        <ele>905.0</ele>
        <time>2019-07-31T16:58:13.117Z</time>
      </trkpt>
      <trkpt lat="43.005615" lon="-1.16985">
        <ele>906.0</ele>
        <time>2019-07-31T16:58:14.123Z</time>
      </trkpt>
      <trkpt lat="43.00562" lon="-1.16986">
        <ele>906.0</ele>
        <time>2019-07-31T16:58:15.128Z</time>
      </trkpt>
      <trkpt lat="43.00562667" lon="-1.16986833">
        <ele>906.0</ele>
        <time>2019-07-31T16:58:16.132Z</time>
      </trkpt>
      <trkpt lat="43.00563167" lon="-1.169875">
        <ele>907.0</ele>
        <time>2019-07-31T16:58:17.137Z</time>
      </trkpt>
      <trkpt lat="43.00564" lon="-1.169885">
        <ele>907.0</ele>
        <time>2019-07-31T16:58:18.140Z</time>
      </trkpt>
      <trkpt lat="43.00564667" lon="-1.16989333">
        <ele>907.0</ele>
        <time>2019-07-31T16:58:19.145Z</time>
      </trkpt>
      <trkpt lat="43.00565833" lon="-1.16990833">
        <ele>907.0</ele>
        <time>2019-07-31T16:58:20.151Z</time>
      </trkpt>
      <trkpt lat="43.00567333" lon="-1.16992333">
        <ele>906.0</ele>
        <time>2019-07-31T16:58:21.158Z</time>
      </trkpt>
      <trkpt lat="43.00569" lon="-1.169945">
        <ele>906.0</ele>
        <time>2019-07-31T16:58:22.163Z</time>
      </trkpt>
      <trkpt lat="43.00570167" lon="-1.16996333">
        <ele>906.0</ele>
        <time>2019-07-31T16:58:23.166Z</time>
      </trkpt>
      <trkpt lat="43.00571167" lon="-1.16998">
        <ele>906.0</ele>
        <time>2019-07-31T16:58:24.169Z</time>
      </trkpt>
      <trkpt lat="43.005725" lon="-1.16999333">
        <ele>906.0</ele>
        <time>2019-07-31T16:58:25.175Z</time>
      </trkpt>
      <trkpt lat="43.00573667" lon="-1.17000833">
        <ele>906.0</ele>
        <time>2019-07-31T16:58:26.180Z</time>
      </trkpt>
      <trkpt lat="43.005745" lon="-1.170025">
        <ele>906.0</ele>
        <time>2019-07-31T16:58:27.185Z</time>
      </trkpt>
      <trkpt lat="43.00575833" lon="-1.17004">
        <ele>907.0</ele>
        <time>2019-07-31T16:58:28.063Z</time>
      </trkpt>
      <trkpt lat="43.00577" lon="-1.17005667">
        <ele>907.0</ele>
        <time>2019-07-31T16:58:29.067Z</time>
      </trkpt>
      <trkpt lat="43.00577833" lon="-1.17007167">
        <ele>907.0</ele>
        <time>2019-07-31T16:58:30.073Z</time>
      </trkpt>
      <trkpt lat="43.00577833" lon="-1.17007167">
        <ele>907.0</ele>
        <time>2019-07-31T16:58:31.079Z</time>
      </trkpt>
      <trkpt lat="43.005785" lon="-1.17008167">
        <ele>907.0</ele>
        <time>2019-07-31T16:58:32.085Z</time>
      </trkpt>
      <trkpt lat="43.00579667" lon="-1.170115">
        <ele>907.0</ele>
        <time>2019-07-31T16:58:33.089Z</time>
      </trkpt>
      <trkpt lat="43.00580167" lon="-1.17013667">
        <ele>908.0</ele>
        <time>2019-07-31T16:58:34.094Z</time>
      </trkpt>
      <trkpt lat="43.00580667" lon="-1.170155">
        <ele>908.0</ele>
        <time>2019-07-31T16:58:35.100Z</time>
      </trkpt>
      <trkpt lat="43.005815" lon="-1.17017167">
        <ele>909.0</ele>
        <time>2019-07-31T16:58:36.106Z</time>
      </trkpt>
      <trkpt lat="43.00582833" lon="-1.17018667">
        <ele>910.0</ele>
        <time>2019-07-31T16:58:37.112Z</time>
      </trkpt>
      <trkpt lat="43.00584167" lon="-1.1702">
        <ele>909.0</ele>
        <time>2019-07-31T16:58:38.115Z</time>
      </trkpt>
      <trkpt lat="43.00585167" lon="-1.170215">
        <ele>909.0</ele>
        <time>2019-07-31T16:58:39.119Z</time>
      </trkpt>
      <trkpt lat="43.005865" lon="-1.17023333">
        <ele>909.0</ele>
        <time>2019-07-31T16:58:40.126Z</time>
      </trkpt>
      <trkpt lat="43.00587667" lon="-1.17024833">
        <ele>909.0</ele>
        <time>2019-07-31T16:58:41.131Z</time>
      </trkpt>
      <trkpt lat="43.00588333" lon="-1.17026667">
        <ele>908.0</ele>
        <time>2019-07-31T16:58:42.135Z</time>
      </trkpt>
      <trkpt lat="43.00588833" lon="-1.17028333">
        <ele>908.0</ele>
        <time>2019-07-31T16:58:43.142Z</time>
      </trkpt>
      <trkpt lat="43.00589833" lon="-1.170305">
        <ele>907.0</ele>
        <time>2019-07-31T16:58:44.150Z</time>
      </trkpt>
      <trkpt lat="43.00590333" lon="-1.17032333">
        <ele>906.0</ele>
        <time>2019-07-31T16:58:45.156Z</time>
      </trkpt>
      <trkpt lat="43.00591" lon="-1.17034167">
        <ele>907.0</ele>
        <time>2019-07-31T16:58:46.161Z</time>
      </trkpt>
      <trkpt lat="43.00591833" lon="-1.17036">
        <ele>907.0</ele>
        <time>2019-07-31T16:58:47.166Z</time>
      </trkpt>
      <trkpt lat="43.00593" lon="-1.17037667">
        <ele>908.0</ele>
        <time>2019-07-31T16:58:48.172Z</time>
      </trkpt>
      <trkpt lat="43.00593833" lon="-1.17039333">
        <ele>907.0</ele>
        <time>2019-07-31T16:58:49.179Z</time>
      </trkpt>
      <trkpt lat="43.005945" lon="-1.17041333">
        <ele>907.0</ele>
        <time>2019-07-31T16:58:50.185Z</time>
      </trkpt>
      <trkpt lat="43.005945" lon="-1.17041333">
        <ele>907.0</ele>
        <time>2019-07-31T16:58:51.064Z</time>
      </trkpt>
      <trkpt lat="43.00595167" lon="-1.17043167">
        <ele>908.0</ele>
        <time>2019-07-31T16:58:52.070Z</time>
      </trkpt>
      <trkpt lat="43.00596667" lon="-1.17046">
        <ele>908.0</ele>
        <time>2019-07-31T16:58:53.074Z</time>
      </trkpt>
      <trkpt lat="43.005975" lon="-1.170475">
        <ele>908.0</ele>
        <time>2019-07-31T16:58:54.079Z</time>
      </trkpt>
      <trkpt lat="43.005975" lon="-1.170475">
        <ele>908.0</ele>
        <time>2019-07-31T16:58:55.083Z</time>
      </trkpt>
      <trkpt lat="43.00598167" lon="-1.17048667">
        <ele>908.0</ele>
        <time>2019-07-31T16:58:56.088Z</time>
      </trkpt>
      <trkpt lat="43.00598667" lon="-1.17051833">
        <ele>908.0</ele>
        <time>2019-07-31T16:58:57.093Z</time>
      </trkpt>
      <trkpt lat="43.00599" lon="-1.17053">
        <ele>908.0</ele>
        <time>2019-07-31T16:58:58.098Z</time>
      </trkpt>
      <trkpt lat="43.00599333" lon="-1.170545">
        <ele>908.0</ele>
        <time>2019-07-31T16:58:59.104Z</time>
      </trkpt>
      <trkpt lat="43.006" lon="-1.17056333">
        <ele>909.0</ele>
        <time>2019-07-31T16:59:00.111Z</time>
      </trkpt>
      <trkpt lat="43.00600667" lon="-1.17058167">
        <ele>909.0</ele>
        <time>2019-07-31T16:59:01.115Z</time>
      </trkpt>
      <trkpt lat="43.00601333" lon="-1.17059667">
        <ele>909.0</ele>
        <time>2019-07-31T16:59:02.121Z</time>
      </trkpt>
      <trkpt lat="43.00601833" lon="-1.17061333">
        <ele>909.0</ele>
        <time>2019-07-31T16:59:03.124Z</time>
      </trkpt>
      <trkpt lat="43.00602833" lon="-1.17063333">
        <ele>909.0</ele>
        <time>2019-07-31T16:59:04.130Z</time>
      </trkpt>
      <trkpt lat="43.00604" lon="-1.17065333">
        <ele>909.0</ele>
        <time>2019-07-31T16:59:05.135Z</time>
      </trkpt>
      <trkpt lat="43.00605" lon="-1.17067167">
        <ele>909.0</ele>
        <time>2019-07-31T16:59:06.140Z</time>
      </trkpt>
      <trkpt lat="43.00605833" lon="-1.17069167">
        <ele>909.0</ele>
        <time>2019-07-31T16:59:07.146Z</time>
      </trkpt>
      <trkpt lat="43.00606833" lon="-1.170715">
        <ele>909.0</ele>
        <time>2019-07-31T16:59:08.153Z</time>
      </trkpt>
      <trkpt lat="43.00607833" lon="-1.17073667">
        <ele>909.0</ele>
        <time>2019-07-31T16:59:09.158Z</time>
      </trkpt>
      <trkpt lat="43.00609167" lon="-1.17075">
        <ele>910.0</ele>
        <time>2019-07-31T16:59:10.163Z</time>
      </trkpt>
      <trkpt lat="43.00610333" lon="-1.17076">
        <ele>911.0</ele>
        <time>2019-07-31T16:59:11.167Z</time>
      </trkpt>
      <trkpt lat="43.006115" lon="-1.17076667">
        <ele>912.0</ele>
        <time>2019-07-31T16:59:12.173Z</time>
      </trkpt>
      <trkpt lat="43.00612833" lon="-1.17077333">
        <ele>913.0</ele>
        <time>2019-07-31T16:59:13.175Z</time>
      </trkpt>
      <trkpt lat="43.00614333" lon="-1.17077667">
        <ele>914.0</ele>
        <time>2019-07-31T16:59:14.181Z</time>
      </trkpt>
      <trkpt lat="43.00615833" lon="-1.17077833">
        <ele>916.0</ele>
        <time>2019-07-31T16:59:15.185Z</time>
      </trkpt>
      <trkpt lat="43.00615833" lon="-1.17077833">
        <ele>916.0</ele>
        <time>2019-07-31T16:59:16.065Z</time>
      </trkpt>
      <trkpt lat="43.00617333" lon="-1.17078333">
        <ele>916.0</ele>
        <time>2019-07-31T16:59:17.069Z</time>
      </trkpt>
      <trkpt lat="43.00620167" lon="-1.17078">
        <ele>916.0</ele>
        <time>2019-07-31T16:59:18.072Z</time>
      </trkpt>
      <trkpt lat="43.00621667" lon="-1.17077167">
        <ele>916.0</ele>
        <time>2019-07-31T16:59:19.075Z</time>
      </trkpt>
      <trkpt lat="43.00621667" lon="-1.17077167">
        <ele>916.0</ele>
        <time>2019-07-31T16:59:20.080Z</time>
      </trkpt>
      <trkpt lat="43.00623167" lon="-1.17076167">
        <ele>916.0</ele>
        <time>2019-07-31T16:59:21.084Z</time>
      </trkpt>
      <trkpt lat="43.00624833" lon="-1.170755">
        <ele>916.0</ele>
        <time>2019-07-31T16:59:22.089Z</time>
      </trkpt>
      <trkpt lat="43.00628167" lon="-1.17074">
        <ele>915.0</ele>
        <time>2019-07-31T16:59:23.095Z</time>
      </trkpt>
      <trkpt lat="43.00629667" lon="-1.17073333">
        <ele>914.0</ele>
        <time>2019-07-31T16:59:24.099Z</time>
      </trkpt>
      <trkpt lat="43.00630833" lon="-1.17072333">
        <ele>914.0</ele>
        <time>2019-07-31T16:59:25.106Z</time>
      </trkpt>
      <trkpt lat="43.00632167" lon="-1.17071667">
        <ele>914.0</ele>
        <time>2019-07-31T16:59:26.112Z</time>
      </trkpt>
      <trkpt lat="43.00633667" lon="-1.170715">
        <ele>913.0</ele>
        <time>2019-07-31T16:59:27.116Z</time>
      </trkpt>
      <trkpt lat="43.00635167" lon="-1.170715">
        <ele>913.0</ele>
        <time>2019-07-31T16:59:28.123Z</time>
      </trkpt>
      <trkpt lat="43.00636667" lon="-1.17071333">
        <ele>912.0</ele>
        <time>2019-07-31T16:59:29.128Z</time>
      </trkpt>
      <trkpt lat="43.00638333" lon="-1.170715">
        <ele>911.0</ele>
        <time>2019-07-31T16:59:30.133Z</time>
      </trkpt>
      <trkpt lat="43.00639667" lon="-1.17071833">
        <ele>911.0</ele>
        <time>2019-07-31T16:59:31.139Z</time>
      </trkpt>
      <trkpt lat="43.00640667" lon="-1.17072333">
        <ele>910.0</ele>
        <time>2019-07-31T16:59:32.145Z</time>
      </trkpt>
      <trkpt lat="43.00642" lon="-1.17073167">
        <ele>910.0</ele>
        <time>2019-07-31T16:59:33.151Z</time>
      </trkpt>
      <trkpt lat="43.00643333" lon="-1.17074167">
        <ele>910.0</ele>
        <time>2019-07-31T16:59:34.158Z</time>
      </trkpt>
      <trkpt lat="43.00644333" lon="-1.17075">
        <ele>910.0</ele>
        <time>2019-07-31T16:59:35.162Z</time>
      </trkpt>
      <trkpt lat="43.00645333" lon="-1.17076333">
        <ele>910.0</ele>
        <time>2019-07-31T16:59:36.168Z</time>
      </trkpt>
      <trkpt lat="43.006465" lon="-1.170775">
        <ele>909.0</ele>
        <time>2019-07-31T16:59:37.172Z</time>
      </trkpt>
      <trkpt lat="43.006475" lon="-1.17079">
        <ele>909.0</ele>
        <time>2019-07-31T16:59:38.175Z</time>
      </trkpt>
      <trkpt lat="43.006485" lon="-1.170805">
        <ele>908.0</ele>
        <time>2019-07-31T16:59:39.179Z</time>
      </trkpt>
      <trkpt lat="43.00649167" lon="-1.17082">
        <ele>908.0</ele>
        <time>2019-07-31T16:59:40.184Z</time>
      </trkpt>
      <trkpt lat="43.00649167" lon="-1.17082">
        <ele>908.0</ele>
        <time>2019-07-31T16:59:41.063Z</time>
      </trkpt>
      <trkpt lat="43.00649833" lon="-1.17083667">
        <ele>909.0</ele>
        <time>2019-07-31T16:59:42.068Z</time>
      </trkpt>
      <trkpt lat="43.00651" lon="-1.17087167">
        <ele>910.0</ele>
        <time>2019-07-31T16:59:43.075Z</time>
      </trkpt>
      <trkpt lat="43.00652167" lon="-1.170895">
        <ele>910.0</ele>
        <time>2019-07-31T16:59:44.079Z</time>
      </trkpt>
      <trkpt lat="43.00653" lon="-1.17091167">
        <ele>911.0</ele>
        <time>2019-07-31T16:59:45.085Z</time>
      </trkpt>
      <trkpt lat="43.00653" lon="-1.17091167">
        <ele>911.0</ele>
        <time>2019-07-31T16:59:46.091Z</time>
      </trkpt>
      <trkpt lat="43.00655" lon="-1.17094333">
        <ele>910.0</ele>
        <time>2019-07-31T16:59:47.093Z</time>
      </trkpt>
      <trkpt lat="43.00655667" lon="-1.17095833">
        <ele>910.0</ele>
        <time>2019-07-31T16:59:48.097Z</time>
      </trkpt>
      <trkpt lat="43.00656333" lon="-1.170975">
        <ele>911.0</ele>
        <time>2019-07-31T16:59:49.102Z</time>
      </trkpt>
      <trkpt lat="43.00657" lon="-1.17099333">
        <ele>911.0</ele>
        <time>2019-07-31T16:59:50.106Z</time>
      </trkpt>
      <trkpt lat="43.00657667" lon="-1.17101167">
        <ele>911.0</ele>
        <time>2019-07-31T16:59:51.109Z</time>
      </trkpt>
      <trkpt lat="43.00658167" lon="-1.17103">
        <ele>911.0</ele>
        <time>2019-07-31T16:59:52.116Z</time>
      </trkpt>
      <trkpt lat="43.00658833" lon="-1.17104667">
        <ele>911.0</ele>
        <time>2019-07-31T16:59:53.123Z</time>
      </trkpt>
      <trkpt lat="43.006595" lon="-1.17106333">
        <ele>911.0</ele>
        <time>2019-07-31T16:59:54.130Z</time>
      </trkpt>
      <trkpt lat="43.00660333" lon="-1.17107833">
        <ele>911.0</ele>
        <time>2019-07-31T16:59:55.134Z</time>
      </trkpt>
      <trkpt lat="43.00661167" lon="-1.17109333">
        <ele>911.0</ele>
        <time>2019-07-31T16:59:56.140Z</time>
      </trkpt>
      <trkpt lat="43.00661833" lon="-1.17110833">
        <ele>911.0</ele>
        <time>2019-07-31T16:59:57.146Z</time>
      </trkpt>
      <trkpt lat="43.006625" lon="-1.171125">
        <ele>912.0</ele>
        <time>2019-07-31T16:59:58.149Z</time>
      </trkpt>
      <trkpt lat="43.00663167" lon="-1.17114">
        <ele>912.0</ele>
        <time>2019-07-31T16:59:59.152Z</time>
      </trkpt>
      <trkpt lat="43.00664333" lon="-1.17115333">
        <ele>912.0</ele>
        <time>2019-07-31T17:00:00.159Z</time>
      </trkpt>
      <trkpt lat="43.00664833" lon="-1.17116667">
        <ele>911.0</ele>
        <time>2019-07-31T17:00:01.163Z</time>
      </trkpt>
      <trkpt lat="43.00665333" lon="-1.17118333">
        <ele>912.0</ele>
        <time>2019-07-31T17:00:02.167Z</time>
      </trkpt>
      <trkpt lat="43.006665" lon="-1.17119667">
        <ele>912.0</ele>
        <time>2019-07-31T17:00:03.173Z</time>
      </trkpt>
      <trkpt lat="43.00667333" lon="-1.17121333">
        <ele>912.0</ele>
        <time>2019-07-31T17:00:04.179Z</time>
      </trkpt>
      <trkpt lat="43.00668" lon="-1.17122833">
        <ele>912.0</ele>
        <time>2019-07-31T17:00:05.184Z</time>
      </trkpt>
      <trkpt lat="43.00668" lon="-1.17122833">
        <ele>912.0</ele>
        <time>2019-07-31T17:00:06.063Z</time>
      </trkpt>
      <trkpt lat="43.00668833" lon="-1.17124667">
        <ele>913.0</ele>
        <time>2019-07-31T17:00:07.068Z</time>
      </trkpt>
      <trkpt lat="43.006705" lon="-1.171275">
        <ele>915.0</ele>
        <time>2019-07-31T17:00:08.072Z</time>
      </trkpt>
      <trkpt lat="43.00671333" lon="-1.17129167">
        <ele>916.0</ele>
        <time>2019-07-31T17:00:09.078Z</time>
      </trkpt>
      <trkpt lat="43.00671333" lon="-1.17129167">
        <ele>916.0</ele>
        <time>2019-07-31T17:00:10.083Z</time>
      </trkpt>
      <trkpt lat="43.00673167" lon="-1.17132667">
        <ele>918.0</ele>
        <time>2019-07-31T17:00:11.088Z</time>
      </trkpt>
      <trkpt lat="43.00674" lon="-1.17134167">
        <ele>919.0</ele>
        <time>2019-07-31T17:00:12.092Z</time>
      </trkpt>
      <trkpt lat="43.00675333" lon="-1.17136">
        <ele>919.0</ele>
        <time>2019-07-31T17:00:13.098Z</time>
      </trkpt>
      <trkpt lat="43.006765" lon="-1.17138">
        <ele>920.0</ele>
        <time>2019-07-31T17:00:14.106Z</time>
      </trkpt>
      <trkpt lat="43.006775" lon="-1.171395">
        <ele>920.0</ele>
        <time>2019-07-31T17:00:15.112Z</time>
      </trkpt>
      <trkpt lat="43.00679" lon="-1.17141167">
        <ele>920.0</ele>
        <time>2019-07-31T17:00:16.118Z</time>
      </trkpt>
      <trkpt lat="43.0068" lon="-1.171425">
        <ele>920.0</ele>
        <time>2019-07-31T17:00:17.125Z</time>
      </trkpt>
      <trkpt lat="43.00681" lon="-1.17144333">
        <ele>920.0</ele>
        <time>2019-07-31T17:00:18.131Z</time>
      </trkpt>
      <trkpt lat="43.00682" lon="-1.17146167">
        <ele>919.0</ele>
        <time>2019-07-31T17:00:19.135Z</time>
      </trkpt>
      <trkpt lat="43.00682667" lon="-1.171475">
        <ele>919.0</ele>
        <time>2019-07-31T17:00:20.141Z</time>
      </trkpt>
      <trkpt lat="43.00683833" lon="-1.17149">
        <ele>919.0</ele>
        <time>2019-07-31T17:00:21.145Z</time>
      </trkpt>
      <trkpt lat="43.00685" lon="-1.171505">
        <ele>918.0</ele>
        <time>2019-07-31T17:00:22.150Z</time>
      </trkpt>
      <trkpt lat="43.00686" lon="-1.17151833">
        <ele>919.0</ele>
        <time>2019-07-31T17:00:23.152Z</time>
      </trkpt>
      <trkpt lat="43.00686167" lon="-1.171525">
        <ele>919.0</ele>
        <time>2019-07-31T17:00:24.155Z</time>
      </trkpt>
      <trkpt lat="43.00686833" lon="-1.17154">
        <ele>920.0</ele>
        <time>2019-07-31T17:00:25.162Z</time>
      </trkpt>
      <trkpt lat="43.006875" lon="-1.17155167">
        <ele>920.0</ele>
        <time>2019-07-31T17:00:26.167Z</time>
      </trkpt>
      <trkpt lat="43.00689" lon="-1.17156833">
        <ele>920.0</ele>
        <time>2019-07-31T17:00:27.173Z</time>
      </trkpt>
      <trkpt lat="43.006905" lon="-1.17158">
        <ele>921.0</ele>
        <time>2019-07-31T17:00:28.177Z</time>
      </trkpt>
      <trkpt lat="43.00691833" lon="-1.17158833">
        <ele>922.0</ele>
        <time>2019-07-31T17:00:29.182Z</time>
      </trkpt>
      <trkpt lat="43.00691833" lon="-1.17158833">
        <ele>922.0</ele>
        <time>2019-07-31T17:00:30.062Z</time>
      </trkpt>
      <trkpt lat="43.00693667" lon="-1.171595">
        <ele>923.0</ele>
        <time>2019-07-31T17:00:31.068Z</time>
      </trkpt>
      <trkpt lat="43.00695167" lon="-1.17160167">
        <ele>923.0</ele>
        <time>2019-07-31T17:00:32.072Z</time>
      </trkpt>
      <trkpt lat="43.00697667" lon="-1.171615">
        <ele>924.0</ele>
        <time>2019-07-31T17:00:33.075Z</time>
      </trkpt>
      <trkpt lat="43.006985" lon="-1.17161833">
        <ele>924.0</ele>
        <time>2019-07-31T17:00:34.078Z</time>
      </trkpt>
      <trkpt lat="43.006985" lon="-1.17161833">
        <ele>924.0</ele>
        <time>2019-07-31T17:00:35.085Z</time>
      </trkpt>
      <trkpt lat="43.00700833" lon="-1.17162333">
        <ele>924.0</ele>
        <time>2019-07-31T17:00:36.090Z</time>
      </trkpt>
      <trkpt lat="43.00702" lon="-1.17162833">
        <ele>925.0</ele>
        <time>2019-07-31T17:00:37.095Z</time>
      </trkpt>
      <trkpt lat="43.007035" lon="-1.17163167">
        <ele>926.0</ele>
        <time>2019-07-31T17:00:38.103Z</time>
      </trkpt>
      <trkpt lat="43.00705" lon="-1.17163167">
        <ele>926.0</ele>
        <time>2019-07-31T17:00:39.108Z</time>
      </trkpt>
      <trkpt lat="43.007065" lon="-1.17162833">
        <ele>926.0</ele>
        <time>2019-07-31T17:00:40.113Z</time>
      </trkpt>
      <trkpt lat="43.00708167" lon="-1.17162833">
        <ele>927.0</ele>
        <time>2019-07-31T17:00:41.117Z</time>
      </trkpt>
      <trkpt lat="43.00709667" lon="-1.17163333">
        <ele>926.0</ele>
        <time>2019-07-31T17:00:42.123Z</time>
      </trkpt>
      <trkpt lat="43.00711333" lon="-1.17163833">
        <ele>926.0</ele>
        <time>2019-07-31T17:00:43.129Z</time>
      </trkpt>
      <trkpt lat="43.00713167" lon="-1.171645">
        <ele>926.0</ele>
        <time>2019-07-31T17:00:44.135Z</time>
      </trkpt>
      <trkpt lat="43.00715" lon="-1.17165167">
        <ele>927.0</ele>
        <time>2019-07-31T17:00:45.141Z</time>
      </trkpt>
      <trkpt lat="43.007165" lon="-1.17166167">
        <ele>927.0</ele>
        <time>2019-07-31T17:00:46.147Z</time>
      </trkpt>
      <trkpt lat="43.00718" lon="-1.17167333">
        <ele>927.0</ele>
        <time>2019-07-31T17:00:47.154Z</time>
      </trkpt>
      <trkpt lat="43.00718833" lon="-1.17168333">
        <ele>926.0</ele>
        <time>2019-07-31T17:00:48.161Z</time>
      </trkpt>
      <trkpt lat="43.0072" lon="-1.171695">
        <ele>925.0</ele>
        <time>2019-07-31T17:00:49.166Z</time>
      </trkpt>
      <trkpt lat="43.00721333" lon="-1.17171167">
        <ele>925.0</ele>
        <time>2019-07-31T17:00:50.170Z</time>
      </trkpt>
      <trkpt lat="43.00722167" lon="-1.171725">
        <ele>925.0</ele>
        <time>2019-07-31T17:00:51.175Z</time>
      </trkpt>
      <trkpt lat="43.00723167" lon="-1.17174333">
        <ele>925.0</ele>
        <time>2019-07-31T17:00:52.179Z</time>
      </trkpt>
      <trkpt lat="43.00724167" lon="-1.17176">
        <ele>924.0</ele>
        <time>2019-07-31T17:00:53.185Z</time>
      </trkpt>
      <trkpt lat="43.00725167" lon="-1.17177667">
        <ele>924.0</ele>
        <time>2019-07-31T17:00:54.064Z</time>
      </trkpt>
      <trkpt lat="43.00725167" lon="-1.17177667">
        <ele>924.0</ele>
        <time>2019-07-31T17:00:55.068Z</time>
      </trkpt>
      <trkpt lat="43.00726333" lon="-1.17179">
        <ele>924.0</ele>
        <time>2019-07-31T17:00:56.074Z</time>
      </trkpt>
      <trkpt lat="43.00727333" lon="-1.17180333">
        <ele>923.0</ele>
        <time>2019-07-31T17:00:57.080Z</time>
      </trkpt>
      <trkpt lat="43.00729833" lon="-1.17183667">
        <ele>922.0</ele>
        <time>2019-07-31T17:00:58.087Z</time>
      </trkpt>
      <trkpt lat="43.00730833" lon="-1.171855">
        <ele>922.0</ele>
        <time>2019-07-31T17:00:59.092Z</time>
      </trkpt>
      <trkpt lat="43.00731667" lon="-1.17187">
        <ele>921.0</ele>
        <time>2019-07-31T17:01:00.097Z</time>
      </trkpt>
      <trkpt lat="43.00732833" lon="-1.17189">
        <ele>921.0</ele>
        <time>2019-07-31T17:01:01.103Z</time>
      </trkpt>
      <trkpt lat="43.00733833" lon="-1.17190667">
        <ele>921.0</ele>
        <time>2019-07-31T17:01:02.108Z</time>
      </trkpt>
      <trkpt lat="43.007345" lon="-1.17192167">
        <ele>921.0</ele>
        <time>2019-07-31T17:01:03.113Z</time>
      </trkpt>
      <trkpt lat="43.00735667" lon="-1.17194333">
        <ele>921.0</ele>
        <time>2019-07-31T17:01:04.118Z</time>
      </trkpt>
      <trkpt lat="43.00736667" lon="-1.17196">
        <ele>920.0</ele>
        <time>2019-07-31T17:01:05.124Z</time>
      </trkpt>
      <trkpt lat="43.00737333" lon="-1.17197667">
        <ele>920.0</ele>
        <time>2019-07-31T17:01:06.129Z</time>
      </trkpt>
      <trkpt lat="43.00738167" lon="-1.17199667">
        <ele>920.0</ele>
        <time>2019-07-31T17:01:07.134Z</time>
      </trkpt>
      <trkpt lat="43.00738667" lon="-1.17201333">
        <ele>919.0</ele>
        <time>2019-07-31T17:01:08.138Z</time>
      </trkpt>
      <trkpt lat="43.00739333" lon="-1.17203667">
        <ele>919.0</ele>
        <time>2019-07-31T17:01:09.144Z</time>
      </trkpt>
      <trkpt lat="43.00739833" lon="-1.17205667">
        <ele>919.0</ele>
        <time>2019-07-31T17:01:10.150Z</time>
      </trkpt>
      <trkpt lat="43.0074" lon="-1.172075">
        <ele>919.0</ele>
        <time>2019-07-31T17:01:11.156Z</time>
      </trkpt>
      <trkpt lat="43.0074" lon="-1.172095">
        <ele>919.0</ele>
        <time>2019-07-31T17:01:12.160Z</time>
      </trkpt>
      <trkpt lat="43.00740167" lon="-1.172115">
        <ele>918.0</ele>
        <time>2019-07-31T17:01:13.167Z</time>
      </trkpt>
      <trkpt lat="43.00739833" lon="-1.17213167">
        <ele>918.0</ele>
        <time>2019-07-31T17:01:14.171Z</time>
      </trkpt>
      <trkpt lat="43.00739167" lon="-1.17214667">
        <ele>918.0</ele>
        <time>2019-07-31T17:01:15.176Z</time>
      </trkpt>
      <trkpt lat="43.00738167" lon="-1.17215833">
        <ele>917.0</ele>
        <time>2019-07-31T17:01:16.180Z</time>
      </trkpt>
      <trkpt lat="43.00737" lon="-1.17217">
        <ele>917.0</ele>
        <time>2019-07-31T17:01:17.186Z</time>
      </trkpt>
      <trkpt lat="43.00735833" lon="-1.17218167">
        <ele>917.0</ele>
        <time>2019-07-31T17:01:18.066Z</time>
      </trkpt>
      <trkpt lat="43.00734667" lon="-1.17218833">
        <ele>917.0</ele>
        <time>2019-07-31T17:01:19.073Z</time>
      </trkpt>
      <trkpt lat="43.00734667" lon="-1.17218833">
        <ele>917.0</ele>
        <time>2019-07-31T17:01:20.079Z</time>
      </trkpt>
      <trkpt lat="43.00733333" lon="-1.17219333">
        <ele>916.0</ele>
        <time>2019-07-31T17:01:21.085Z</time>
      </trkpt>
      <trkpt lat="43.00732" lon="-1.17219833">
        <ele>917.0</ele>
        <time>2019-07-31T17:01:22.089Z</time>
      </trkpt>
      <trkpt lat="43.00728833" lon="-1.17219833">
        <ele>917.0</ele>
        <time>2019-07-31T17:01:23.092Z</time>
      </trkpt>
      <trkpt lat="43.00727167" lon="-1.17219833">
        <ele>917.0</ele>
        <time>2019-07-31T17:01:24.099Z</time>
      </trkpt>
      <trkpt lat="43.00725667" lon="-1.17219833">
        <ele>917.0</ele>
        <time>2019-07-31T17:01:25.105Z</time>
      </trkpt>
      <trkpt lat="43.00724167" lon="-1.17219667">
        <ele>917.0</ele>
        <time>2019-07-31T17:01:26.110Z</time>
      </trkpt>
      <trkpt lat="43.00723" lon="-1.172195">
        <ele>917.0</ele>
        <time>2019-07-31T17:01:27.116Z</time>
      </trkpt>
      <trkpt lat="43.00721167" lon="-1.172195">
        <ele>917.0</ele>
        <time>2019-07-31T17:01:28.123Z</time>
      </trkpt>
      <trkpt lat="43.007195" lon="-1.17219833">
        <ele>917.0</ele>
        <time>2019-07-31T17:01:29.129Z</time>
      </trkpt>
      <trkpt lat="43.00717667" lon="-1.17219833">
        <ele>917.0</ele>
        <time>2019-07-31T17:01:30.134Z</time>
      </trkpt>
      <trkpt lat="43.00716167" lon="-1.172195">
        <ele>917.0</ele>
        <time>2019-07-31T17:01:31.140Z</time>
      </trkpt>
      <trkpt lat="43.00714" lon="-1.17219833">
        <ele>917.0</ele>
        <time>2019-07-31T17:01:32.148Z</time>
      </trkpt>
      <trkpt lat="43.00712667" lon="-1.172205">
        <ele>917.0</ele>
        <time>2019-07-31T17:01:33.154Z</time>
      </trkpt>
      <trkpt lat="43.007115" lon="-1.172215">
        <ele>918.0</ele>
        <time>2019-07-31T17:01:34.161Z</time>
      </trkpt>
      <trkpt lat="43.00710833" lon="-1.17223333">
        <ele>917.0</ele>
        <time>2019-07-31T17:01:35.164Z</time>
      </trkpt>
      <trkpt lat="43.00710333" lon="-1.17225">
        <ele>917.0</ele>
        <time>2019-07-31T17:01:36.169Z</time>
      </trkpt>
      <trkpt lat="43.00709667" lon="-1.17227167">
        <ele>917.0</ele>
        <time>2019-07-31T17:01:37.175Z</time>
      </trkpt>
      <trkpt lat="43.00708333" lon="-1.172285">
        <ele>917.0</ele>
        <time>2019-07-31T17:01:38.180Z</time>
      </trkpt>
      <trkpt lat="43.00707333" lon="-1.17229833">
        <ele>917.0</ele>
        <time>2019-07-31T17:01:39.182Z</time>
      </trkpt>
      <trkpt lat="43.00707333" lon="-1.17229833">
        <ele>917.0</ele>
        <time>2019-07-31T17:01:40.062Z</time>
      </trkpt>
      <trkpt lat="43.007065" lon="-1.17231333">
        <ele>917.0</ele>
        <time>2019-07-31T17:01:41.068Z</time>
      </trkpt>
      <trkpt lat="43.00704833" lon="-1.172345">
        <ele>917.0</ele>
        <time>2019-07-31T17:01:42.075Z</time>
      </trkpt>
      <trkpt lat="43.00703833" lon="-1.17236">
        <ele>917.0</ele>
        <time>2019-07-31T17:01:43.081Z</time>
      </trkpt>
      <trkpt lat="43.00702667" lon="-1.172375">
        <ele>918.0</ele>
        <time>2019-07-31T17:01:44.085Z</time>
      </trkpt>
      <trkpt lat="43.00702167" lon="-1.17239333">
        <ele>918.0</ele>
        <time>2019-07-31T17:01:45.090Z</time>
      </trkpt>
      <trkpt lat="43.00701833" lon="-1.172415">
        <ele>918.0</ele>
        <time>2019-07-31T17:01:46.094Z</time>
      </trkpt>
      <trkpt lat="43.00701833" lon="-1.17243">
        <ele>918.0</ele>
        <time>2019-07-31T17:01:47.099Z</time>
      </trkpt>
      <trkpt lat="43.00701167" lon="-1.17245333">
        <ele>918.0</ele>
        <time>2019-07-31T17:01:48.105Z</time>
      </trkpt>
      <trkpt lat="43.00701167" lon="-1.17247667">
        <ele>918.0</ele>
        <time>2019-07-31T17:01:49.110Z</time>
      </trkpt>
      <trkpt lat="43.00700833" lon="-1.17249333">
        <ele>918.0</ele>
        <time>2019-07-31T17:01:50.113Z</time>
      </trkpt>
      <trkpt lat="43.007005" lon="-1.17251167">
        <ele>918.0</ele>
        <time>2019-07-31T17:01:51.117Z</time>
      </trkpt>
      <trkpt lat="43.007005" lon="-1.172535">
        <ele>918.0</ele>
        <time>2019-07-31T17:01:52.122Z</time>
      </trkpt>
      <trkpt lat="43.00700167" lon="-1.17255667">
        <ele>917.0</ele>
        <time>2019-07-31T17:01:53.129Z</time>
      </trkpt>
      <trkpt lat="43.00699833" lon="-1.17257667">
        <ele>916.0</ele>
        <time>2019-07-31T17:01:54.134Z</time>
      </trkpt>
      <trkpt lat="43.00699667" lon="-1.17259667">
        <ele>915.0</ele>
        <time>2019-07-31T17:01:55.139Z</time>
      </trkpt>
      <trkpt lat="43.00699667" lon="-1.172615">
        <ele>914.0</ele>
        <time>2019-07-31T17:01:56.145Z</time>
      </trkpt>
      <trkpt lat="43.007" lon="-1.17263833">
        <ele>914.0</ele>
        <time>2019-07-31T17:01:57.149Z</time>
      </trkpt>
      <trkpt lat="43.00699667" lon="-1.172655">
        <ele>914.0</ele>
        <time>2019-07-31T17:01:58.155Z</time>
      </trkpt>
      <trkpt lat="43.006995" lon="-1.17267667">
        <ele>914.0</ele>
        <time>2019-07-31T17:01:59.159Z</time>
      </trkpt>
      <trkpt lat="43.00699" lon="-1.17269667">
        <ele>915.0</ele>
        <time>2019-07-31T17:02:00.162Z</time>
      </trkpt>
      <trkpt lat="43.00698" lon="-1.172715">
        <ele>915.0</ele>
        <time>2019-07-31T17:02:01.167Z</time>
      </trkpt>
      <trkpt lat="43.006975" lon="-1.17273167">
        <ele>915.0</ele>
        <time>2019-07-31T17:02:02.173Z</time>
      </trkpt>
      <trkpt lat="43.00696667" lon="-1.17275167">
        <ele>915.0</ele>
        <time>2019-07-31T17:02:03.176Z</time>
      </trkpt>
      <trkpt lat="43.00695833" lon="-1.17277">
        <ele>916.0</ele>
        <time>2019-07-31T17:02:04.180Z</time>
      </trkpt>
      <trkpt lat="43.00695" lon="-1.17278667">
        <ele>915.0</ele>
        <time>2019-07-31T17:02:05.185Z</time>
      </trkpt>
      <trkpt lat="43.00695" lon="-1.17278667">
        <ele>915.0</ele>
        <time>2019-07-31T17:02:06.064Z</time>
      </trkpt>
      <trkpt lat="43.00693667" lon="-1.17279833">
        <ele>915.0</ele>
        <time>2019-07-31T17:02:07.069Z</time>
      </trkpt>
      <trkpt lat="43.00691833" lon="-1.17282833">
        <ele>916.0</ele>
        <time>2019-07-31T17:02:08.073Z</time>
      </trkpt>
      <trkpt lat="43.00690667" lon="-1.17284167">
        <ele>916.0</ele>
        <time>2019-07-31T17:02:09.075Z</time>
      </trkpt>
      <trkpt lat="43.00689833" lon="-1.17285167">
        <ele>916.0</ele>
        <time>2019-07-31T17:02:10.083Z</time>
      </trkpt>
      <trkpt lat="43.00689" lon="-1.17286833">
        <ele>917.0</ele>
        <time>2019-07-31T17:02:11.089Z</time>
      </trkpt>
      <trkpt lat="43.00687833" lon="-1.172885">
        <ele>917.0</ele>
        <time>2019-07-31T17:02:12.094Z</time>
      </trkpt>
      <trkpt lat="43.00686833" lon="-1.17289833">
        <ele>917.0</ele>
        <time>2019-07-31T17:02:13.097Z</time>
      </trkpt>
      <trkpt lat="43.00685333" lon="-1.17290833">
        <ele>918.0</ele>
        <time>2019-07-31T17:02:14.103Z</time>
      </trkpt>
      <trkpt lat="43.00683667" lon="-1.17291833">
        <ele>919.0</ele>
        <time>2019-07-31T17:02:15.107Z</time>
      </trkpt>
      <trkpt lat="43.00682" lon="-1.17292833">
        <ele>919.0</ele>
        <time>2019-07-31T17:02:16.112Z</time>
      </trkpt>
      <trkpt lat="43.00680667" lon="-1.17294167">
        <ele>919.0</ele>
        <time>2019-07-31T17:02:17.116Z</time>
      </trkpt>
      <trkpt lat="43.0068" lon="-1.17295667">
        <ele>920.0</ele>
        <time>2019-07-31T17:02:18.119Z</time>
      </trkpt>
      <trkpt lat="43.00679" lon="-1.17296833">
        <ele>920.0</ele>
        <time>2019-07-31T17:02:19.123Z</time>
      </trkpt>
      <trkpt lat="43.00677667" lon="-1.172975">
        <ele>919.0</ele>
        <time>2019-07-31T17:02:20.131Z</time>
      </trkpt>
      <trkpt lat="43.006765" lon="-1.17298">
        <ele>920.0</ele>
        <time>2019-07-31T17:02:21.136Z</time>
      </trkpt>
      <trkpt lat="43.00675167" lon="-1.17298667">
        <ele>922.0</ele>
        <time>2019-07-31T17:02:22.143Z</time>
      </trkpt>
      <trkpt lat="43.00673333" lon="-1.17299167">
        <ele>924.0</ele>
        <time>2019-07-31T17:02:23.150Z</time>
      </trkpt>
      <trkpt lat="43.00672167" lon="-1.17299833">
        <ele>926.0</ele>
        <time>2019-07-31T17:02:24.157Z</time>
      </trkpt>
      <trkpt lat="43.00671167" lon="-1.17300833">
        <ele>927.0</ele>
        <time>2019-07-31T17:02:25.161Z</time>
      </trkpt>
      <trkpt lat="43.00669667" lon="-1.17301667">
        <ele>928.0</ele>
        <time>2019-07-31T17:02:26.167Z</time>
      </trkpt>
      <trkpt lat="43.00667833" lon="-1.173025">
        <ele>929.0</ele>
        <time>2019-07-31T17:02:27.171Z</time>
      </trkpt>
      <trkpt lat="43.00666167" lon="-1.17303">
        <ele>930.0</ele>
        <time>2019-07-31T17:02:28.175Z</time>
      </trkpt>
      <trkpt lat="43.00664333" lon="-1.173035">
        <ele>931.0</ele>
        <time>2019-07-31T17:02:29.179Z</time>
      </trkpt>
      <trkpt lat="43.00663667" lon="-1.173045">
        <ele>933.0</ele>
        <time>2019-07-31T17:02:30.185Z</time>
      </trkpt>
      <trkpt lat="43.006635" lon="-1.17305667">
        <ele>934.0</ele>
        <time>2019-07-31T17:02:31.065Z</time>
      </trkpt>
      <trkpt lat="43.00662667" lon="-1.17306833">
        <ele>936.0</ele>
        <time>2019-07-31T17:02:32.071Z</time>
      </trkpt>
      <trkpt lat="43.00662167" lon="-1.17309667">
        <ele>938.0</ele>
        <time>2019-07-31T17:02:33.079Z</time>
      </trkpt>
      <trkpt lat="43.00663167" lon="-1.173125">
        <ele>939.0</ele>
        <time>2019-07-31T17:02:34.086Z</time>
      </trkpt>
      <trkpt lat="43.00664167" lon="-1.17315667">
        <ele>941.0</ele>
        <time>2019-07-31T17:02:35.091Z</time>
      </trkpt>
      <trkpt lat="43.00665167" lon="-1.17319">
        <ele>943.0</ele>
        <time>2019-07-31T17:02:36.093Z</time>
      </trkpt>
      <trkpt lat="43.00666167" lon="-1.17322">
        <ele>943.0</ele>
        <time>2019-07-31T17:02:37.097Z</time>
      </trkpt>
      <trkpt lat="43.00667333" lon="-1.173245">
        <ele>944.0</ele>
        <time>2019-07-31T17:02:38.099Z</time>
      </trkpt>
      <trkpt lat="43.00668667" lon="-1.17326833">
        <ele>944.0</ele>
        <time>2019-07-31T17:02:39.101Z</time>
      </trkpt>
      <trkpt lat="43.0067" lon="-1.17329167">
        <ele>945.0</ele>
        <time>2019-07-31T17:02:40.106Z</time>
      </trkpt>
      <trkpt lat="43.00671333" lon="-1.17332">
        <ele>945.0</ele>
        <time>2019-07-31T17:02:41.108Z</time>
      </trkpt>
      <trkpt lat="43.00672" lon="-1.17334333">
        <ele>945.0</ele>
        <time>2019-07-31T17:02:42.109Z</time>
      </trkpt>
      <trkpt lat="43.00673" lon="-1.17337">
        <ele>945.0</ele>
        <time>2019-07-31T17:02:43.111Z</time>
      </trkpt>
      <trkpt lat="43.00674333" lon="-1.17339167">
        <ele>946.0</ele>
        <time>2019-07-31T17:02:44.112Z</time>
      </trkpt>
      <trkpt lat="43.00675833" lon="-1.17340833">
        <ele>946.0</ele>
        <time>2019-07-31T17:02:45.117Z</time>
      </trkpt>
      <trkpt lat="43.00677333" lon="-1.17343167">
        <ele>946.0</ele>
        <time>2019-07-31T17:02:46.122Z</time>
      </trkpt>
      <trkpt lat="43.00678167" lon="-1.17345167">
        <ele>947.0</ele>
        <time>2019-07-31T17:02:47.127Z</time>
      </trkpt>
      <trkpt lat="43.00678667" lon="-1.17346833">
        <ele>947.0</ele>
        <time>2019-07-31T17:02:48.134Z</time>
      </trkpt>
      <trkpt lat="43.006795" lon="-1.17349167">
        <ele>948.0</ele>
        <time>2019-07-31T17:02:49.141Z</time>
      </trkpt>
      <trkpt lat="43.006805" lon="-1.17350833">
        <ele>948.0</ele>
        <time>2019-07-31T17:02:50.146Z</time>
      </trkpt>
      <trkpt lat="43.00681333" lon="-1.17352833">
        <ele>948.0</ele>
        <time>2019-07-31T17:02:51.150Z</time>
      </trkpt>
      <trkpt lat="43.00681833" lon="-1.17354833">
        <ele>948.0</ele>
        <time>2019-07-31T17:02:52.156Z</time>
      </trkpt>
      <trkpt lat="43.00682667" lon="-1.17356333">
        <ele>949.0</ele>
        <time>2019-07-31T17:02:53.162Z</time>
      </trkpt>
      <trkpt lat="43.00683833" lon="-1.17357667">
        <ele>949.0</ele>
        <time>2019-07-31T17:02:54.169Z</time>
      </trkpt>
      <trkpt lat="43.00685667" lon="-1.17359833">
        <ele>948.0</ele>
        <time>2019-07-31T17:02:55.174Z</time>
      </trkpt>
      <trkpt lat="43.006865" lon="-1.17362">
        <ele>947.0</ele>
        <time>2019-07-31T17:02:56.180Z</time>
      </trkpt>
      <trkpt lat="43.00687167" lon="-1.17364">
        <ele>947.0</ele>
        <time>2019-07-31T17:02:57.185Z</time>
      </trkpt>
      <trkpt lat="43.00687167" lon="-1.17364">
        <ele>947.0</ele>
        <time>2019-07-31T17:02:58.065Z</time>
      </trkpt>
      <trkpt lat="43.00687333" lon="-1.173685">
        <ele>946.0</ele>
        <time>2019-07-31T17:02:59.071Z</time>
      </trkpt>
      <trkpt lat="43.006875" lon="-1.17370833">
        <ele>945.0</ele>
        <time>2019-07-31T17:03:00.077Z</time>
      </trkpt>
      <trkpt lat="43.00687833" lon="-1.17372667">
        <ele>944.0</ele>
        <time>2019-07-31T17:03:01.082Z</time>
      </trkpt>
      <trkpt lat="43.00688" lon="-1.17374667">
        <ele>943.0</ele>
        <time>2019-07-31T17:03:02.088Z</time>
      </trkpt>
      <trkpt lat="43.00687333" lon="-1.17376333">
        <ele>942.0</ele>
        <time>2019-07-31T17:03:03.092Z</time>
      </trkpt>
      <trkpt lat="43.00686667" lon="-1.17378">
        <ele>942.0</ele>
        <time>2019-07-31T17:03:04.098Z</time>
      </trkpt>
      <trkpt lat="43.00686167" lon="-1.173795">
        <ele>942.0</ele>
        <time>2019-07-31T17:03:05.102Z</time>
      </trkpt>
      <trkpt lat="43.00685667" lon="-1.17381167">
        <ele>942.0</ele>
        <time>2019-07-31T17:03:06.108Z</time>
      </trkpt>
      <trkpt lat="43.00685833" lon="-1.17382833">
        <ele>942.0</ele>
        <time>2019-07-31T17:03:07.112Z</time>
      </trkpt>
      <trkpt lat="43.00685833" lon="-1.17384667">
        <ele>943.0</ele>
        <time>2019-07-31T17:03:08.119Z</time>
      </trkpt>
      <trkpt lat="43.006855" lon="-1.173865">
        <ele>943.0</ele>
        <time>2019-07-31T17:03:09.126Z</time>
      </trkpt>
      <trkpt lat="43.00685" lon="-1.17388167">
        <ele>943.0</ele>
        <time>2019-07-31T17:03:10.131Z</time>
      </trkpt>
      <trkpt lat="43.00685" lon="-1.17389833">
        <ele>944.0</ele>
        <time>2019-07-31T17:03:11.135Z</time>
      </trkpt>
      <trkpt lat="43.00684833" lon="-1.17391333">
        <ele>944.0</ele>
        <time>2019-07-31T17:03:12.140Z</time>
      </trkpt>
      <trkpt lat="43.00684667" lon="-1.173925">
        <ele>944.0</ele>
        <time>2019-07-31T17:03:13.146Z</time>
      </trkpt>
      <trkpt lat="43.00684667" lon="-1.173945">
        <ele>944.0</ele>
        <time>2019-07-31T17:03:14.151Z</time>
      </trkpt>
      <trkpt lat="43.006845" lon="-1.17396167">
        <ele>944.0</ele>
        <time>2019-07-31T17:03:15.156Z</time>
      </trkpt>
      <trkpt lat="43.00684167" lon="-1.17397833">
        <ele>944.0</ele>
        <time>2019-07-31T17:03:16.162Z</time>
      </trkpt>
      <trkpt lat="43.00684167" lon="-1.17399667">
        <ele>943.0</ele>
        <time>2019-07-31T17:03:17.168Z</time>
      </trkpt>
      <trkpt lat="43.00684333" lon="-1.17402167">
        <ele>943.0</ele>
        <time>2019-07-31T17:03:18.173Z</time>
      </trkpt>
      <trkpt lat="43.00684167" lon="-1.17403667">
        <ele>943.0</ele>
        <time>2019-07-31T17:03:19.179Z</time>
      </trkpt>
      <trkpt lat="43.00684333" lon="-1.17406167">
        <ele>943.0</ele>
        <time>2019-07-31T17:03:20.185Z</time>
      </trkpt>
      <trkpt lat="43.00684333" lon="-1.17406167">
        <ele>943.0</ele>
        <time>2019-07-31T17:03:21.066Z</time>
      </trkpt>
      <trkpt lat="43.00684667" lon="-1.17410167">
        <ele>942.0</ele>
        <time>2019-07-31T17:03:22.071Z</time>
      </trkpt>
      <trkpt lat="43.00685" lon="-1.17412167">
        <ele>942.0</ele>
        <time>2019-07-31T17:03:23.074Z</time>
      </trkpt>
      <trkpt lat="43.00685667" lon="-1.17414167">
        <ele>942.0</ele>
        <time>2019-07-31T17:03:24.080Z</time>
      </trkpt>
      <trkpt lat="43.00686167" lon="-1.174165">
        <ele>941.0</ele>
        <time>2019-07-31T17:03:25.086Z</time>
      </trkpt>
      <trkpt lat="43.00687" lon="-1.17418333">
        <ele>940.0</ele>
        <time>2019-07-31T17:03:26.092Z</time>
      </trkpt>
      <trkpt lat="43.00687833" lon="-1.17419833">
        <ele>940.0</ele>
        <time>2019-07-31T17:03:27.098Z</time>
      </trkpt>
      <trkpt lat="43.00688833" lon="-1.17422167">
        <ele>939.0</ele>
        <time>2019-07-31T17:03:28.099Z</time>
      </trkpt>
      <trkpt lat="43.00689833" lon="-1.17424167">
        <ele>939.0</ele>
        <time>2019-07-31T17:03:29.103Z</time>
      </trkpt>
      <trkpt lat="43.006905" lon="-1.17425167">
        <ele>939.0</ele>
        <time>2019-07-31T17:03:30.109Z</time>
      </trkpt>
      <trkpt lat="43.00691833" lon="-1.17426667">
        <ele>940.0</ele>
        <time>2019-07-31T17:03:31.114Z</time>
      </trkpt>
      <trkpt lat="43.00692667" lon="-1.17427833">
        <ele>940.0</ele>
        <time>2019-07-31T17:03:32.118Z</time>
      </trkpt>
      <trkpt lat="43.00694333" lon="-1.17429">
        <ele>941.0</ele>
        <time>2019-07-31T17:03:33.125Z</time>
      </trkpt>
      <trkpt lat="43.00696333" lon="-1.17430333">
        <ele>943.0</ele>
        <time>2019-07-31T17:03:34.130Z</time>
      </trkpt>
      <trkpt lat="43.00698" lon="-1.17431">
        <ele>944.0</ele>
        <time>2019-07-31T17:03:35.136Z</time>
      </trkpt>
      <trkpt lat="43.00699833" lon="-1.17431167">
        <ele>944.0</ele>
        <time>2019-07-31T17:03:36.141Z</time>
      </trkpt>
      <trkpt lat="43.007015" lon="-1.17431167">
        <ele>945.0</ele>
        <time>2019-07-31T17:03:37.147Z</time>
      </trkpt>
      <trkpt lat="43.00703333" lon="-1.174315">
        <ele>946.0</ele>
        <time>2019-07-31T17:03:38.154Z</time>
      </trkpt>
      <trkpt lat="43.00704833" lon="-1.17431333">
        <ele>947.0</ele>
        <time>2019-07-31T17:03:39.155Z</time>
      </trkpt>
      <trkpt lat="43.00706" lon="-1.17431167">
        <ele>947.0</ele>
        <time>2019-07-31T17:03:40.159Z</time>
      </trkpt>
      <trkpt lat="43.00707167" lon="-1.17430667">
        <ele>947.0</ele>
        <time>2019-07-31T17:03:41.165Z</time>
      </trkpt>
      <trkpt lat="43.00708333" lon="-1.1743">
        <ele>948.0</ele>
        <time>2019-07-31T17:03:42.168Z</time>
      </trkpt>
      <trkpt lat="43.00709333" lon="-1.17429667">
        <ele>948.0</ele>
        <time>2019-07-31T17:03:43.173Z</time>
      </trkpt>
      <trkpt lat="43.00710833" lon="-1.17429167">
        <ele>948.0</ele>
        <time>2019-07-31T17:03:44.177Z</time>
      </trkpt>
      <trkpt lat="43.007125" lon="-1.17428667">
        <ele>948.0</ele>
        <time>2019-07-31T17:03:45.183Z</time>
      </trkpt>
      <trkpt lat="43.007125" lon="-1.17428667">
        <ele>948.0</ele>
        <time>2019-07-31T17:03:46.064Z</time>
      </trkpt>
      <trkpt lat="43.007155" lon="-1.17427333">
        <ele>948.0</ele>
        <time>2019-07-31T17:03:47.069Z</time>
      </trkpt>
      <trkpt lat="43.00716833" lon="-1.17427167">
        <ele>948.0</ele>
        <time>2019-07-31T17:03:48.074Z</time>
      </trkpt>
      <trkpt lat="43.00718667" lon="-1.17427">
        <ele>948.0</ele>
        <time>2019-07-31T17:03:49.080Z</time>
      </trkpt>
      <trkpt lat="43.00720333" lon="-1.17427">
        <ele>948.0</ele>
        <time>2019-07-31T17:03:50.086Z</time>
      </trkpt>
      <trkpt lat="43.00722" lon="-1.17427167">
        <ele>948.0</ele>
        <time>2019-07-31T17:03:51.091Z</time>
      </trkpt>
      <trkpt lat="43.00723333" lon="-1.17427167">
        <ele>947.0</ele>
        <time>2019-07-31T17:03:52.095Z</time>
      </trkpt>
      <trkpt lat="43.00725167" lon="-1.17427333">
        <ele>947.0</ele>
        <time>2019-07-31T17:03:53.099Z</time>
      </trkpt>
      <trkpt lat="43.00726667" lon="-1.17427833">
        <ele>947.0</ele>
        <time>2019-07-31T17:03:54.104Z</time>
      </trkpt>
      <trkpt lat="43.00728333" lon="-1.174285">
        <ele>947.0</ele>
        <time>2019-07-31T17:03:55.108Z</time>
      </trkpt>
      <trkpt lat="43.00729667" lon="-1.17429">
        <ele>947.0</ele>
        <time>2019-07-31T17:03:56.113Z</time>
      </trkpt>
      <trkpt lat="43.00731" lon="-1.174295">
        <ele>946.0</ele>
        <time>2019-07-31T17:03:57.120Z</time>
      </trkpt>
      <trkpt lat="43.00732333" lon="-1.17430167">
        <ele>945.0</ele>
        <time>2019-07-31T17:03:58.124Z</time>
      </trkpt>
      <trkpt lat="43.007335" lon="-1.17431">
        <ele>945.0</ele>
        <time>2019-07-31T17:03:59.128Z</time>
      </trkpt>
      <trkpt lat="43.007345" lon="-1.17431833">
        <ele>944.0</ele>
        <time>2019-07-31T17:04:00.132Z</time>
      </trkpt>
      <trkpt lat="43.00735667" lon="-1.174325">
        <ele>943.0</ele>
        <time>2019-07-31T17:04:01.136Z</time>
      </trkpt>
      <trkpt lat="43.00737" lon="-1.17433333">
        <ele>943.0</ele>
        <time>2019-07-31T17:04:02.141Z</time>
      </trkpt>
      <trkpt lat="43.00737833" lon="-1.17434167">
        <ele>942.0</ele>
        <time>2019-07-31T17:04:03.148Z</time>
      </trkpt>
      <trkpt lat="43.00739167" lon="-1.17435167">
        <ele>942.0</ele>
        <time>2019-07-31T17:04:04.155Z</time>
      </trkpt>
      <trkpt lat="43.00740333" lon="-1.174365">
        <ele>942.0</ele>
        <time>2019-07-31T17:04:05.161Z</time>
      </trkpt>
      <trkpt lat="43.007415" lon="-1.17437667">
        <ele>942.0</ele>
        <time>2019-07-31T17:04:06.165Z</time>
      </trkpt>
      <trkpt lat="43.007425" lon="-1.17438833">
        <ele>941.0</ele>
        <time>2019-07-31T17:04:07.172Z</time>
      </trkpt>
      <trkpt lat="43.00743333" lon="-1.17440167">
        <ele>942.0</ele>
        <time>2019-07-31T17:04:08.177Z</time>
      </trkpt>
      <trkpt lat="43.00744333" lon="-1.17441667">
        <ele>942.0</ele>
        <time>2019-07-31T17:04:09.182Z</time>
      </trkpt>
      <trkpt lat="43.00744333" lon="-1.17441667">
        <ele>942.0</ele>
        <time>2019-07-31T17:04:10.062Z</time>
      </trkpt>
      <trkpt lat="43.007455" lon="-1.17443667">
        <ele>942.0</ele>
        <time>2019-07-31T17:04:11.067Z</time>
      </trkpt>
      <trkpt lat="43.00747167" lon="-1.17447167">
        <ele>943.0</ele>
        <time>2019-07-31T17:04:12.073Z</time>
      </trkpt>
      <trkpt lat="43.00748333" lon="-1.17449333">
        <ele>944.0</ele>
        <time>2019-07-31T17:04:13.077Z</time>
      </trkpt>
      <trkpt lat="43.00749333" lon="-1.17451167">
        <ele>944.0</ele>
        <time>2019-07-31T17:04:14.082Z</time>
      </trkpt>
      <trkpt lat="43.00750333" lon="-1.17452833">
        <ele>945.0</ele>
        <time>2019-07-31T17:04:15.086Z</time>
      </trkpt>
      <trkpt lat="43.00751167" lon="-1.17454167">
        <ele>945.0</ele>
        <time>2019-07-31T17:04:16.091Z</time>
      </trkpt>
      <trkpt lat="43.00752" lon="-1.17455667">
        <ele>945.0</ele>
        <time>2019-07-31T17:04:17.097Z</time>
      </trkpt>
      <trkpt lat="43.00753" lon="-1.17457167">
        <ele>945.0</ele>
        <time>2019-07-31T17:04:18.103Z</time>
      </trkpt>
      <trkpt lat="43.00754167" lon="-1.174585">
        <ele>945.0</ele>
        <time>2019-07-31T17:04:19.106Z</time>
      </trkpt>
      <trkpt lat="43.00755167" lon="-1.17460167">
        <ele>945.0</ele>
        <time>2019-07-31T17:04:20.111Z</time>
      </trkpt>
      <trkpt lat="43.00755833" lon="-1.17461667">
        <ele>944.0</ele>
        <time>2019-07-31T17:04:21.117Z</time>
      </trkpt>
      <trkpt lat="43.00757" lon="-1.17463833">
        <ele>944.0</ele>
        <time>2019-07-31T17:04:22.123Z</time>
      </trkpt>
      <trkpt lat="43.00758333" lon="-1.17466167">
        <ele>945.0</ele>
        <time>2019-07-31T17:04:23.130Z</time>
      </trkpt>
      <trkpt lat="43.00759333" lon="-1.17467833">
        <ele>945.0</ele>
        <time>2019-07-31T17:04:24.136Z</time>
      </trkpt>
      <trkpt lat="43.00760667" lon="-1.17470167">
        <ele>946.0</ele>
        <time>2019-07-31T17:04:25.142Z</time>
      </trkpt>
      <trkpt lat="43.00761667" lon="-1.17471667">
        <ele>947.0</ele>
        <time>2019-07-31T17:04:26.147Z</time>
      </trkpt>
      <trkpt lat="43.00763" lon="-1.17473833">
        <ele>947.0</ele>
        <time>2019-07-31T17:04:27.153Z</time>
      </trkpt>
      <trkpt lat="43.00763833" lon="-1.17475333">
        <ele>948.0</ele>
        <time>2019-07-31T17:04:28.157Z</time>
      </trkpt>
      <trkpt lat="43.00765" lon="-1.174765">
        <ele>947.0</ele>
        <time>2019-07-31T17:04:29.162Z</time>
      </trkpt>
      <trkpt lat="43.00766167" lon="-1.17477667">
        <ele>946.0</ele>
        <time>2019-07-31T17:04:30.167Z</time>
      </trkpt>
      <trkpt lat="43.00767" lon="-1.17479">
        <ele>946.0</ele>
        <time>2019-07-31T17:04:31.171Z</time>
      </trkpt>
      <trkpt lat="43.00768" lon="-1.1748">
        <ele>945.0</ele>
        <time>2019-07-31T17:04:32.177Z</time>
      </trkpt>
      <trkpt lat="43.00769" lon="-1.17481">
        <ele>945.0</ele>
        <time>2019-07-31T17:04:33.183Z</time>
      </trkpt>
      <trkpt lat="43.00769" lon="-1.17481">
        <ele>945.0</ele>
        <time>2019-07-31T17:04:34.063Z</time>
      </trkpt>
      <trkpt lat="43.00770333" lon="-1.17482333">
        <ele>946.0</ele>
        <time>2019-07-31T17:04:35.067Z</time>
      </trkpt>
      <trkpt lat="43.00772833" lon="-1.17485">
        <ele>947.0</ele>
        <time>2019-07-31T17:04:36.073Z</time>
      </trkpt>
      <trkpt lat="43.00774167" lon="-1.17486167">
        <ele>946.0</ele>
        <time>2019-07-31T17:04:37.081Z</time>
      </trkpt>
      <trkpt lat="43.00775333" lon="-1.174875">
        <ele>946.0</ele>
        <time>2019-07-31T17:04:38.085Z</time>
      </trkpt>
      <trkpt lat="43.00776667" lon="-1.17488667">
        <ele>946.0</ele>
        <time>2019-07-31T17:04:39.090Z</time>
      </trkpt>
      <trkpt lat="43.00777667" lon="-1.1749">
        <ele>947.0</ele>
        <time>2019-07-31T17:04:40.092Z</time>
      </trkpt>
      <trkpt lat="43.00779" lon="-1.17491667">
        <ele>948.0</ele>
        <time>2019-07-31T17:04:41.098Z</time>
      </trkpt>
      <trkpt lat="43.0078" lon="-1.17493">
        <ele>949.0</ele>
        <time>2019-07-31T17:04:42.104Z</time>
      </trkpt>
      <trkpt lat="43.00781333" lon="-1.17494833">
        <ele>949.0</ele>
        <time>2019-07-31T17:04:43.109Z</time>
      </trkpt>
      <trkpt lat="43.00782333" lon="-1.174965">
        <ele>949.0</ele>
        <time>2019-07-31T17:04:44.116Z</time>
      </trkpt>
      <trkpt lat="43.00783333" lon="-1.17498333">
        <ele>949.0</ele>
        <time>2019-07-31T17:04:45.120Z</time>
      </trkpt>
      <trkpt lat="43.00784333" lon="-1.17499667">
        <ele>949.0</ele>
        <time>2019-07-31T17:04:46.125Z</time>
      </trkpt>
      <trkpt lat="43.007855" lon="-1.17501333">
        <ele>949.0</ele>
        <time>2019-07-31T17:04:47.131Z</time>
      </trkpt>
      <trkpt lat="43.007865" lon="-1.17502333">
        <ele>950.0</ele>
        <time>2019-07-31T17:04:48.135Z</time>
      </trkpt>
      <trkpt lat="43.00788333" lon="-1.17503833">
        <ele>950.0</ele>
        <time>2019-07-31T17:04:49.141Z</time>
      </trkpt>
      <trkpt lat="43.00789667" lon="-1.17505">
        <ele>950.0</ele>
        <time>2019-07-31T17:04:50.147Z</time>
      </trkpt>
      <trkpt lat="43.00790667" lon="-1.17506167">
        <ele>951.0</ele>
        <time>2019-07-31T17:04:51.152Z</time>
      </trkpt>
      <trkpt lat="43.00791167" lon="-1.17508">
        <ele>952.0</ele>
        <time>2019-07-31T17:04:52.157Z</time>
      </trkpt>
      <trkpt lat="43.00791333" lon="-1.17509667">
        <ele>953.0</ele>
        <time>2019-07-31T17:04:53.163Z</time>
      </trkpt>
      <trkpt lat="43.00792" lon="-1.17511333">
        <ele>953.0</ele>
        <time>2019-07-31T17:04:54.170Z</time>
      </trkpt>
      <trkpt lat="43.00792667" lon="-1.17512833">
        <ele>954.0</ele>
        <time>2019-07-31T17:04:55.175Z</time>
      </trkpt>
      <trkpt lat="43.00793167" lon="-1.17514167">
        <ele>954.0</ele>
        <time>2019-07-31T17:04:56.180Z</time>
      </trkpt>
      <trkpt lat="43.00794" lon="-1.17515833">
        <ele>954.0</ele>
        <time>2019-07-31T17:04:57.186Z</time>
      </trkpt>
      <trkpt lat="43.00794" lon="-1.17515833">
        <ele>954.0</ele>
        <time>2019-07-31T17:04:58.067Z</time>
      </trkpt>
      <trkpt lat="43.00795667" lon="-1.175185">
        <ele>954.0</ele>
        <time>2019-07-31T17:04:59.073Z</time>
      </trkpt>
      <trkpt lat="43.00795667" lon="-1.175185">
        <ele>954.0</ele>
        <time>2019-07-31T17:05:00.078Z</time>
      </trkpt>
      <trkpt lat="43.00797833" lon="-1.17521">
        <ele>954.0</ele>
        <time>2019-07-31T17:05:01.084Z</time>
      </trkpt>
      <trkpt lat="43.007985" lon="-1.17522333">
        <ele>954.0</ele>
        <time>2019-07-31T17:05:02.089Z</time>
      </trkpt>
      <trkpt lat="43.00799" lon="-1.17523333">
        <ele>953.0</ele>
        <time>2019-07-31T17:05:03.094Z</time>
      </trkpt>
      <trkpt lat="43.00799667" lon="-1.17524333">
        <ele>952.0</ele>
        <time>2019-07-31T17:05:04.101Z</time>
      </trkpt>
      <trkpt lat="43.00801" lon="-1.17526167">
        <ele>952.0</ele>
        <time>2019-07-31T17:05:05.106Z</time>
      </trkpt>
      <trkpt lat="43.00802" lon="-1.17527833">
        <ele>951.0</ele>
        <time>2019-07-31T17:05:06.111Z</time>
      </trkpt>
      <trkpt lat="43.00803667" lon="-1.17529833">
        <ele>951.0</ele>
        <time>2019-07-31T17:05:07.116Z</time>
      </trkpt>
      <trkpt lat="43.00804333" lon="-1.17531">
        <ele>951.0</ele>
        <time>2019-07-31T17:05:08.122Z</time>
      </trkpt>
      <trkpt lat="43.00805167" lon="-1.17532">
        <ele>951.0</ele>
        <time>2019-07-31T17:05:09.127Z</time>
      </trkpt>
      <trkpt lat="43.00805667" lon="-1.17533167">
        <ele>951.0</ele>
        <time>2019-07-31T17:05:10.133Z</time>
      </trkpt>
      <trkpt lat="43.00806167" lon="-1.17534667">
        <ele>950.0</ele>
        <time>2019-07-31T17:05:11.138Z</time>
      </trkpt>
      <trkpt lat="43.00806833" lon="-1.175365">
        <ele>950.0</ele>
        <time>2019-07-31T17:05:12.144Z</time>
      </trkpt>
      <trkpt lat="43.00807333" lon="-1.17537833">
        <ele>950.0</ele>
        <time>2019-07-31T17:05:13.148Z</time>
      </trkpt>
      <trkpt lat="43.00807667" lon="-1.17538833">
        <ele>950.0</ele>
        <time>2019-07-31T17:05:14.154Z</time>
      </trkpt>
      <trkpt lat="43.00807833" lon="-1.175395">
        <ele>950.0</ele>
        <time>2019-07-31T17:05:15.160Z</time>
      </trkpt>
      <trkpt lat="43.00808333" lon="-1.17540833">
        <ele>950.0</ele>
        <time>2019-07-31T17:05:16.165Z</time>
      </trkpt>
      <trkpt lat="43.00808833" lon="-1.175425">
        <ele>950.0</ele>
        <time>2019-07-31T17:05:17.169Z</time>
      </trkpt>
      <trkpt lat="43.00809667" lon="-1.17544167">
        <ele>950.0</ele>
        <time>2019-07-31T17:05:18.174Z</time>
      </trkpt>
      <trkpt lat="43.00810667" lon="-1.17545833">
        <ele>951.0</ele>
        <time>2019-07-31T17:05:19.180Z</time>
      </trkpt>
      <trkpt lat="43.00811" lon="-1.17547">
        <ele>952.0</ele>
        <time>2019-07-31T17:05:20.185Z</time>
      </trkpt>
      <trkpt lat="43.00811" lon="-1.17547">
        <ele>952.0</ele>
        <time>2019-07-31T17:05:21.066Z</time>
      </trkpt>
      <trkpt lat="43.00811333" lon="-1.17548833">
        <ele>952.0</ele>
        <time>2019-07-31T17:05:22.071Z</time>
      </trkpt>
      <trkpt lat="43.00811" lon="-1.17552333">
        <ele>950.0</ele>
        <time>2019-07-31T17:05:23.075Z</time>
      </trkpt>
      <trkpt lat="43.00810667" lon="-1.17554">
        <ele>949.0</ele>
        <time>2019-07-31T17:05:24.079Z</time>
      </trkpt>
      <trkpt lat="43.00810833" lon="-1.17556">
        <ele>948.0</ele>
        <time>2019-07-31T17:05:25.085Z</time>
      </trkpt>
      <trkpt lat="43.00810667" lon="-1.17557667">
        <ele>948.0</ele>
        <time>2019-07-31T17:05:26.088Z</time>
      </trkpt>
      <trkpt lat="43.00810667" lon="-1.17558833">
        <ele>947.0</ele>
        <time>2019-07-31T17:05:27.093Z</time>
      </trkpt>
      <trkpt lat="43.00810333" lon="-1.17560833">
        <ele>947.0</ele>
        <time>2019-07-31T17:05:28.099Z</time>
      </trkpt>
      <trkpt lat="43.00810333" lon="-1.17562833">
        <ele>947.0</ele>
        <time>2019-07-31T17:05:29.104Z</time>
      </trkpt>
      <trkpt lat="43.00810667" lon="-1.17564833">
        <ele>947.0</ele>
        <time>2019-07-31T17:05:30.111Z</time>
      </trkpt>
      <trkpt lat="43.00810833" lon="-1.17566833">
        <ele>947.0</ele>
        <time>2019-07-31T17:05:31.118Z</time>
      </trkpt>
      <trkpt lat="43.00810833" lon="-1.17568833">
        <ele>947.0</ele>
        <time>2019-07-31T17:05:32.124Z</time>
      </trkpt>
      <trkpt lat="43.00811167" lon="-1.17571">
        <ele>946.0</ele>
        <time>2019-07-31T17:05:33.129Z</time>
      </trkpt>
      <trkpt lat="43.00811333" lon="-1.17573">
        <ele>946.0</ele>
        <time>2019-07-31T17:05:34.135Z</time>
      </trkpt>
      <trkpt lat="43.00811167" lon="-1.175745">
        <ele>945.0</ele>
        <time>2019-07-31T17:05:35.140Z</time>
      </trkpt>
      <trkpt lat="43.008105" lon="-1.17576833">
        <ele>945.0</ele>
        <time>2019-07-31T17:05:36.146Z</time>
      </trkpt>
      <trkpt lat="43.0081" lon="-1.17578833">
        <ele>945.0</ele>
        <time>2019-07-31T17:05:37.151Z</time>
      </trkpt>
      <trkpt lat="43.00809833" lon="-1.17580667">
        <ele>945.0</ele>
        <time>2019-07-31T17:05:38.153Z</time>
      </trkpt>
      <trkpt lat="43.00809333" lon="-1.17582667">
        <ele>945.0</ele>
        <time>2019-07-31T17:05:39.157Z</time>
      </trkpt>
      <trkpt lat="43.00808333" lon="-1.17584333">
        <ele>945.0</ele>
        <time>2019-07-31T17:05:40.164Z</time>
      </trkpt>
      <trkpt lat="43.00807667" lon="-1.17586333">
        <ele>945.0</ele>
        <time>2019-07-31T17:05:41.169Z</time>
      </trkpt>
      <trkpt lat="43.00807167" lon="-1.17588">
        <ele>945.0</ele>
        <time>2019-07-31T17:05:42.174Z</time>
      </trkpt>
      <trkpt lat="43.008065" lon="-1.17589667">
        <ele>945.0</ele>
        <time>2019-07-31T17:05:43.179Z</time>
      </trkpt>
      <trkpt lat="43.00806" lon="-1.17591">
        <ele>944.0</ele>
        <time>2019-07-31T17:05:44.185Z</time>
      </trkpt>
      <trkpt lat="43.00806" lon="-1.17591">
        <ele>944.0</ele>
        <time>2019-07-31T17:05:45.064Z</time>
      </trkpt>
      <trkpt lat="43.008055" lon="-1.17592833">
        <ele>944.0</ele>
        <time>2019-07-31T17:05:46.070Z</time>
      </trkpt>
      <trkpt lat="43.00804333" lon="-1.17596833">
        <ele>943.0</ele>
        <time>2019-07-31T17:05:47.076Z</time>
      </trkpt>
      <trkpt lat="43.00804167" lon="-1.17598333">
        <ele>943.0</ele>
        <time>2019-07-31T17:05:48.082Z</time>
      </trkpt>
      <trkpt lat="43.008035" lon="-1.176">
        <ele>943.0</ele>
        <time>2019-07-31T17:05:49.089Z</time>
      </trkpt>
      <trkpt lat="43.00803" lon="-1.17601667">
        <ele>943.0</ele>
        <time>2019-07-31T17:05:50.095Z</time>
      </trkpt>
      <trkpt lat="43.00802333" lon="-1.17604">
        <ele>943.0</ele>
        <time>2019-07-31T17:05:51.100Z</time>
      </trkpt>
      <trkpt lat="43.00801667" lon="-1.17605667">
        <ele>942.0</ele>
        <time>2019-07-31T17:05:52.106Z</time>
      </trkpt>
      <trkpt lat="43.00801167" lon="-1.17607333">
        <ele>943.0</ele>
        <time>2019-07-31T17:05:53.109Z</time>
      </trkpt>
      <trkpt lat="43.00800667" lon="-1.17609">
        <ele>943.0</ele>
        <time>2019-07-31T17:05:54.115Z</time>
      </trkpt>
      <trkpt lat="43.00800167" lon="-1.176105">
        <ele>943.0</ele>
        <time>2019-07-31T17:05:55.121Z</time>
      </trkpt>
      <trkpt lat="43.00799333" lon="-1.17612667">
        <ele>943.0</ele>
        <time>2019-07-31T17:05:56.127Z</time>
      </trkpt>
      <trkpt lat="43.00798833" lon="-1.176145">
        <ele>943.0</ele>
        <time>2019-07-31T17:05:57.133Z</time>
      </trkpt>
      <trkpt lat="43.00798167" lon="-1.17616167">
        <ele>942.0</ele>
        <time>2019-07-31T17:05:58.138Z</time>
      </trkpt>
      <trkpt lat="43.00797667" lon="-1.17618">
        <ele>943.0</ele>
        <time>2019-07-31T17:05:59.143Z</time>
      </trkpt>
      <trkpt lat="43.00797333" lon="-1.17619833">
        <ele>943.0</ele>
        <time>2019-07-31T17:06:00.150Z</time>
      </trkpt>
      <trkpt lat="43.00796833" lon="-1.176215">
        <ele>943.0</ele>
        <time>2019-07-31T17:06:01.154Z</time>
      </trkpt>
      <trkpt lat="43.007965" lon="-1.17623833">
        <ele>943.0</ele>
        <time>2019-07-31T17:06:02.160Z</time>
      </trkpt>
      <trkpt lat="43.00796167" lon="-1.17625667">
        <ele>943.0</ele>
        <time>2019-07-31T17:06:03.169Z</time>
      </trkpt>
      <trkpt lat="43.00796333" lon="-1.176275">
        <ele>942.0</ele>
        <time>2019-07-31T17:06:04.175Z</time>
      </trkpt>
      <trkpt lat="43.00795833" lon="-1.17629667">
        <ele>943.0</ele>
        <time>2019-07-31T17:06:05.181Z</time>
      </trkpt>
      <trkpt lat="43.007955" lon="-1.17631833">
        <ele>943.0</ele>
        <time>2019-07-31T17:06:06.184Z</time>
      </trkpt>
      <trkpt lat="43.007955" lon="-1.17631833">
        <ele>943.0</ele>
        <time>2019-07-31T17:06:07.065Z</time>
      </trkpt>
      <trkpt lat="43.00795" lon="-1.17633667">
        <ele>944.0</ele>
        <time>2019-07-31T17:06:08.067Z</time>
      </trkpt>
      <trkpt lat="43.007935" lon="-1.17637">
        <ele>944.0</ele>
        <time>2019-07-31T17:06:09.074Z</time>
      </trkpt>
      <trkpt lat="43.00793" lon="-1.17638667">
        <ele>944.0</ele>
        <time>2019-07-31T17:06:10.079Z</time>
      </trkpt>
      <trkpt lat="43.00793" lon="-1.17640667">
        <ele>945.0</ele>
        <time>2019-07-31T17:06:11.086Z</time>
      </trkpt>
      <trkpt lat="43.00792667" lon="-1.17642333">
        <ele>945.0</ele>
        <time>2019-07-31T17:06:12.091Z</time>
      </trkpt>
      <trkpt lat="43.00792" lon="-1.17644167">
        <ele>945.0</ele>
        <time>2019-07-31T17:06:13.095Z</time>
      </trkpt>
      <trkpt lat="43.00791333" lon="-1.17645833">
        <ele>945.0</ele>
        <time>2019-07-31T17:06:14.099Z</time>
      </trkpt>
      <trkpt lat="43.00790833" lon="-1.17648">
        <ele>945.0</ele>
        <time>2019-07-31T17:06:15.105Z</time>
      </trkpt>
      <trkpt lat="43.007905" lon="-1.17650167">
        <ele>945.0</ele>
        <time>2019-07-31T17:06:16.110Z</time>
      </trkpt>
      <trkpt lat="43.00789667" lon="-1.17651667">
        <ele>945.0</ele>
        <time>2019-07-31T17:06:17.115Z</time>
      </trkpt>
      <trkpt lat="43.00788667" lon="-1.17653167">
        <ele>945.0</ele>
        <time>2019-07-31T17:06:18.120Z</time>
      </trkpt>
      <trkpt lat="43.00787667" lon="-1.176545">
        <ele>945.0</ele>
        <time>2019-07-31T17:06:19.126Z</time>
      </trkpt>
      <trkpt lat="43.00787" lon="-1.17656167">
        <ele>945.0</ele>
        <time>2019-07-31T17:06:20.131Z</time>
      </trkpt>
      <trkpt lat="43.00786167" lon="-1.17657833">
        <ele>946.0</ele>
        <time>2019-07-31T17:06:21.136Z</time>
      </trkpt>
      <trkpt lat="43.00785667" lon="-1.17659333">
        <ele>946.0</ele>
        <time>2019-07-31T17:06:22.143Z</time>
      </trkpt>
      <trkpt lat="43.00785167" lon="-1.17661">
        <ele>946.0</ele>
        <time>2019-07-31T17:06:23.148Z</time>
      </trkpt>
      <trkpt lat="43.00784333" lon="-1.176635">
        <ele>946.0</ele>
        <time>2019-07-31T17:06:24.156Z</time>
      </trkpt>
      <trkpt lat="43.00783333" lon="-1.176655">
        <ele>946.0</ele>
        <time>2019-07-31T17:06:25.161Z</time>
      </trkpt>
      <trkpt lat="43.00782667" lon="-1.17667167">
        <ele>946.0</ele>
        <time>2019-07-31T17:06:26.168Z</time>
      </trkpt>
      <trkpt lat="43.00781833" lon="-1.17669167">
        <ele>946.0</ele>
        <time>2019-07-31T17:06:27.175Z</time>
      </trkpt>
      <trkpt lat="43.00781167" lon="-1.17670333">
        <ele>946.0</ele>
        <time>2019-07-31T17:06:28.179Z</time>
      </trkpt>
      <trkpt lat="43.007805" lon="-1.176725">
        <ele>945.0</ele>
        <time>2019-07-31T17:06:29.182Z</time>
      </trkpt>
      <trkpt lat="43.007805" lon="-1.176725">
        <ele>945.0</ele>
        <time>2019-07-31T17:06:30.061Z</time>
      </trkpt>
      <trkpt lat="43.0078" lon="-1.176745">
        <ele>945.0</ele>
        <time>2019-07-31T17:06:31.066Z</time>
      </trkpt>
      <trkpt lat="43.00779167" lon="-1.17676">
        <ele>946.0</ele>
        <time>2019-07-31T17:06:32.072Z</time>
      </trkpt>
      <trkpt lat="43.00777667" lon="-1.17679">
        <ele>946.0</ele>
        <time>2019-07-31T17:06:33.077Z</time>
      </trkpt>
      <trkpt lat="43.00776667" lon="-1.17680333">
        <ele>946.0</ele>
        <time>2019-07-31T17:06:34.081Z</time>
      </trkpt>
      <trkpt lat="43.00775667" lon="-1.17681833">
        <ele>946.0</ele>
        <time>2019-07-31T17:06:35.087Z</time>
      </trkpt>
      <trkpt lat="43.00775333" lon="-1.17683333">
        <ele>947.0</ele>
        <time>2019-07-31T17:06:36.091Z</time>
      </trkpt>
      <trkpt lat="43.00775" lon="-1.17684833">
        <ele>948.0</ele>
        <time>2019-07-31T17:06:37.097Z</time>
      </trkpt>
      <trkpt lat="43.00775" lon="-1.17686667">
        <ele>948.0</ele>
        <time>2019-07-31T17:06:38.102Z</time>
      </trkpt>
      <trkpt lat="43.00774833" lon="-1.17688667">
        <ele>947.0</ele>
        <time>2019-07-31T17:06:39.107Z</time>
      </trkpt>
      <trkpt lat="43.00775" lon="-1.17690833">
        <ele>947.0</ele>
        <time>2019-07-31T17:06:40.113Z</time>
      </trkpt>
      <trkpt lat="43.00775167" lon="-1.17693167">
        <ele>947.0</ele>
        <time>2019-07-31T17:06:41.117Z</time>
      </trkpt>
      <trkpt lat="43.00775167" lon="-1.17695">
        <ele>948.0</ele>
        <time>2019-07-31T17:06:42.124Z</time>
      </trkpt>
      <trkpt lat="43.00774833" lon="-1.176965">
        <ele>949.0</ele>
        <time>2019-07-31T17:06:43.128Z</time>
      </trkpt>
      <trkpt lat="43.00774833" lon="-1.17698833">
        <ele>950.0</ele>
        <time>2019-07-31T17:06:44.134Z</time>
      </trkpt>
      <trkpt lat="43.00775333" lon="-1.17701">
        <ele>950.0</ele>
        <time>2019-07-31T17:06:45.138Z</time>
      </trkpt>
      <trkpt lat="43.00775833" lon="-1.17702667">
        <ele>951.0</ele>
        <time>2019-07-31T17:06:46.144Z</time>
      </trkpt>
      <trkpt lat="43.007765" lon="-1.17704">
        <ele>952.0</ele>
        <time>2019-07-31T17:06:47.150Z</time>
      </trkpt>
      <trkpt lat="43.00777167" lon="-1.17705667">
        <ele>952.0</ele>
        <time>2019-07-31T17:06:48.155Z</time>
      </trkpt>
      <trkpt lat="43.00778333" lon="-1.17707833">
        <ele>952.0</ele>
        <time>2019-07-31T17:06:49.161Z</time>
      </trkpt>
      <trkpt lat="43.00779333" lon="-1.177095">
        <ele>952.0</ele>
        <time>2019-07-31T17:06:50.166Z</time>
      </trkpt>
      <trkpt lat="43.00780167" lon="-1.17710833">
        <ele>951.0</ele>
        <time>2019-07-31T17:06:51.171Z</time>
      </trkpt>
      <trkpt lat="43.007815" lon="-1.17712">
        <ele>950.0</ele>
        <time>2019-07-31T17:06:52.175Z</time>
      </trkpt>
      <trkpt lat="43.00782667" lon="-1.177135">
        <ele>950.0</ele>
        <time>2019-07-31T17:06:53.182Z</time>
      </trkpt>
      <trkpt lat="43.00782667" lon="-1.177135">
        <ele>950.0</ele>
        <time>2019-07-31T17:06:54.063Z</time>
      </trkpt>
      <trkpt lat="43.00783833" lon="-1.17715667">
        <ele>950.0</ele>
        <time>2019-07-31T17:06:55.069Z</time>
      </trkpt>
      <trkpt lat="43.00785" lon="-1.17717333">
        <ele>951.0</ele>
        <time>2019-07-31T17:06:56.073Z</time>
      </trkpt>
      <trkpt lat="43.00787833" lon="-1.17720167">
        <ele>952.0</ele>
        <time>2019-07-31T17:06:57.077Z</time>
      </trkpt>
      <trkpt lat="43.00789167" lon="-1.17721333">
        <ele>953.0</ele>
        <time>2019-07-31T17:06:58.082Z</time>
      </trkpt>
      <trkpt lat="43.00790833" lon="-1.17723167">
        <ele>954.0</ele>
        <time>2019-07-31T17:06:59.088Z</time>
      </trkpt>
      <trkpt lat="43.007925" lon="-1.177245">
        <ele>955.0</ele>
        <time>2019-07-31T17:07:00.093Z</time>
      </trkpt>
      <trkpt lat="43.00794" lon="-1.17725333">
        <ele>955.0</ele>
        <time>2019-07-31T17:07:01.097Z</time>
      </trkpt>
      <trkpt lat="43.007955" lon="-1.17726167">
        <ele>955.0</ele>
        <time>2019-07-31T17:07:02.102Z</time>
      </trkpt>
      <trkpt lat="43.00796667" lon="-1.17727167">
        <ele>955.0</ele>
        <time>2019-07-31T17:07:03.108Z</time>
      </trkpt>
      <trkpt lat="43.00798" lon="-1.177285">
        <ele>956.0</ele>
        <time>2019-07-31T17:07:04.114Z</time>
      </trkpt>
      <trkpt lat="43.00799667" lon="-1.17729167">
        <ele>957.0</ele>
        <time>2019-07-31T17:07:05.120Z</time>
      </trkpt>
      <trkpt lat="43.00801167" lon="-1.177295">
        <ele>958.0</ele>
        <time>2019-07-31T17:07:06.126Z</time>
      </trkpt>
      <trkpt lat="43.00803" lon="-1.17729667">
        <ele>960.0</ele>
        <time>2019-07-31T17:07:07.134Z</time>
      </trkpt>
      <trkpt lat="43.00804833" lon="-1.17729667">
        <ele>961.0</ele>
        <time>2019-07-31T17:07:08.138Z</time>
      </trkpt>
      <trkpt lat="43.00806167" lon="-1.17729667">
        <ele>962.0</ele>
        <time>2019-07-31T17:07:09.140Z</time>
      </trkpt>
      <trkpt lat="43.00807333" lon="-1.17729333">
        <ele>962.0</ele>
        <time>2019-07-31T17:07:10.146Z</time>
      </trkpt>
      <trkpt lat="43.00808667" lon="-1.177295">
        <ele>963.0</ele>
        <time>2019-07-31T17:07:11.152Z</time>
      </trkpt>
      <trkpt lat="43.00809833" lon="-1.17728333">
        <ele>962.0</ele>
        <time>2019-07-31T17:07:12.157Z</time>
      </trkpt>
      <trkpt lat="43.00811333" lon="-1.17727167">
        <ele>963.0</ele>
        <time>2019-07-31T17:07:13.162Z</time>
      </trkpt>
      <trkpt lat="43.00812667" lon="-1.177265">
        <ele>963.0</ele>
        <time>2019-07-31T17:07:14.166Z</time>
      </trkpt>
      <trkpt lat="43.00814" lon="-1.177255">
        <ele>964.0</ele>
        <time>2019-07-31T17:07:15.171Z</time>
      </trkpt>
      <trkpt lat="43.00815333" lon="-1.177245">
        <ele>964.0</ele>
        <time>2019-07-31T17:07:16.175Z</time>
      </trkpt>
      <trkpt lat="43.00816833" lon="-1.17723333">
        <ele>964.0</ele>
        <time>2019-07-31T17:07:17.182Z</time>
      </trkpt>
      <trkpt lat="43.00816833" lon="-1.17723333">
        <ele>964.0</ele>
        <time>2019-07-31T17:07:18.062Z</time>
      </trkpt>
      <trkpt lat="43.00818167" lon="-1.17722333">
        <ele>965.0</ele>
        <time>2019-07-31T17:07:19.067Z</time>
      </trkpt>
      <trkpt lat="43.00819333" lon="-1.17721333">
        <ele>965.0</ele>
        <time>2019-07-31T17:07:20.073Z</time>
      </trkpt>
      <trkpt lat="43.00821167" lon="-1.17719333">
        <ele>965.0</ele>
        <time>2019-07-31T17:07:21.077Z</time>
      </trkpt>
      <trkpt lat="43.00821667" lon="-1.17719">
        <ele>965.0</ele>
        <time>2019-07-31T17:07:22.082Z</time>
      </trkpt>
      <trkpt lat="43.00822333" lon="-1.177185">
        <ele>965.0</ele>
        <time>2019-07-31T17:07:23.088Z</time>
      </trkpt>
      <trkpt lat="43.00822833" lon="-1.17718333">
        <ele>966.0</ele>
        <time>2019-07-31T17:07:24.091Z</time>
      </trkpt>
      <trkpt lat="43.008235" lon="-1.17718">
        <ele>966.0</ele>
        <time>2019-07-31T17:07:25.098Z</time>
      </trkpt>
      <trkpt lat="43.00824333" lon="-1.17717833">
        <ele>967.0</ele>
        <time>2019-07-31T17:07:26.103Z</time>
      </trkpt>
      <trkpt lat="43.00825333" lon="-1.17717333">
        <ele>967.0</ele>
        <time>2019-07-31T17:07:27.108Z</time>
      </trkpt>
      <trkpt lat="43.00826667" lon="-1.17717">
        <ele>966.0</ele>
        <time>2019-07-31T17:07:28.115Z</time>
      </trkpt>
      <trkpt lat="43.00828167" lon="-1.17716333">
        <ele>966.0</ele>
        <time>2019-07-31T17:07:29.120Z</time>
      </trkpt>
      <trkpt lat="43.00829333" lon="-1.17715833">
        <ele>965.0</ele>
        <time>2019-07-31T17:07:30.125Z</time>
      </trkpt>
      <trkpt lat="43.008305" lon="-1.177155">
        <ele>965.0</ele>
        <time>2019-07-31T17:07:31.129Z</time>
      </trkpt>
      <trkpt lat="43.008315" lon="-1.17715167">
        <ele>965.0</ele>
        <time>2019-07-31T17:07:32.133Z</time>
      </trkpt>
      <trkpt lat="43.00833" lon="-1.17715167">
        <ele>965.0</ele>
        <time>2019-07-31T17:07:33.139Z</time>
      </trkpt>
      <trkpt lat="43.00834333" lon="-1.17715333">
        <ele>965.0</ele>
        <time>2019-07-31T17:07:34.143Z</time>
      </trkpt>
      <trkpt lat="43.00836" lon="-1.17715833">
        <ele>966.0</ele>
        <time>2019-07-31T17:07:35.149Z</time>
      </trkpt>
      <trkpt lat="43.00837333" lon="-1.17716333">
        <ele>966.0</ele>
        <time>2019-07-31T17:07:36.151Z</time>
      </trkpt>
      <trkpt lat="43.00838833" lon="-1.177165">
        <ele>967.0</ele>
        <time>2019-07-31T17:07:37.156Z</time>
      </trkpt>
      <trkpt lat="43.00840333" lon="-1.17716833">
        <ele>967.0</ele>
        <time>2019-07-31T17:07:38.162Z</time>
      </trkpt>
      <trkpt lat="43.00841833" lon="-1.17717">
        <ele>967.0</ele>
        <time>2019-07-31T17:07:39.165Z</time>
      </trkpt>
      <trkpt lat="43.00843333" lon="-1.17718">
        <ele>968.0</ele>
        <time>2019-07-31T17:07:40.167Z</time>
      </trkpt>
      <trkpt lat="43.00844167" lon="-1.17718333">
        <ele>968.0</ele>
        <time>2019-07-31T17:07:41.168Z</time>
      </trkpt>
      <trkpt lat="43.008455" lon="-1.17719">
        <ele>969.0</ele>
        <time>2019-07-31T17:07:42.169Z</time>
      </trkpt>
      <trkpt lat="43.00846333" lon="-1.17719833">
        <ele>969.0</ele>
        <time>2019-07-31T17:07:43.174Z</time>
      </trkpt>
      <trkpt lat="43.00847333" lon="-1.177205">
        <ele>968.0</ele>
        <time>2019-07-31T17:07:44.179Z</time>
      </trkpt>
      <trkpt lat="43.00848167" lon="-1.17721667">
        <ele>968.0</ele>
        <time>2019-07-31T17:07:45.186Z</time>
      </trkpt>
      <trkpt lat="43.00848167" lon="-1.17721667">
        <ele>968.0</ele>
        <time>2019-07-31T17:07:46.066Z</time>
      </trkpt>
      <trkpt lat="43.00849167" lon="-1.17722667">
        <ele>967.0</ele>
        <time>2019-07-31T17:07:47.071Z</time>
      </trkpt>
      <trkpt lat="43.00851167" lon="-1.17724667">
        <ele>966.0</ele>
        <time>2019-07-31T17:07:48.077Z</time>
      </trkpt>
      <trkpt lat="43.00852333" lon="-1.17725833">
        <ele>966.0</ele>
        <time>2019-07-31T17:07:49.084Z</time>
      </trkpt>
      <trkpt lat="43.00853667" lon="-1.17727167">
        <ele>966.0</ele>
        <time>2019-07-31T17:07:50.089Z</time>
      </trkpt>
      <trkpt lat="43.00854667" lon="-1.17728833">
        <ele>966.0</ele>
        <time>2019-07-31T17:07:51.092Z</time>
      </trkpt>
      <trkpt lat="43.00855667" lon="-1.17730167">
        <ele>966.0</ele>
        <time>2019-07-31T17:07:52.096Z</time>
      </trkpt>
      <trkpt lat="43.00856667" lon="-1.177315">
        <ele>965.0</ele>
        <time>2019-07-31T17:07:53.102Z</time>
      </trkpt>
      <trkpt lat="43.00857667" lon="-1.17732667">
        <ele>966.0</ele>
        <time>2019-07-31T17:07:54.104Z</time>
      </trkpt>
      <trkpt lat="43.00858833" lon="-1.17733667">
        <ele>966.0</ele>
        <time>2019-07-31T17:07:55.108Z</time>
      </trkpt>
      <trkpt lat="43.00859833" lon="-1.17735333">
        <ele>966.0</ele>
        <time>2019-07-31T17:07:56.114Z</time>
      </trkpt>
      <trkpt lat="43.00861" lon="-1.17737333">
        <ele>967.0</ele>
        <time>2019-07-31T17:07:57.120Z</time>
      </trkpt>
      <trkpt lat="43.00861833" lon="-1.17739333">
        <ele>967.0</ele>
        <time>2019-07-31T17:07:58.126Z</time>
      </trkpt>
      <trkpt lat="43.008625" lon="-1.17741">
        <ele>967.0</ele>
        <time>2019-07-31T17:07:59.133Z</time>
      </trkpt>
      <trkpt lat="43.00863333" lon="-1.17742667">
        <ele>967.0</ele>
        <time>2019-07-31T17:08:00.136Z</time>
      </trkpt>
      <trkpt lat="43.00864" lon="-1.17744667">
        <ele>967.0</ele>
        <time>2019-07-31T17:08:01.142Z</time>
      </trkpt>
      <trkpt lat="43.00864667" lon="-1.17746333">
        <ele>967.0</ele>
        <time>2019-07-31T17:08:02.147Z</time>
      </trkpt>
      <trkpt lat="43.00865167" lon="-1.17748">
        <ele>967.0</ele>
        <time>2019-07-31T17:08:03.151Z</time>
      </trkpt>
      <trkpt lat="43.00866" lon="-1.17749167">
        <ele>967.0</ele>
        <time>2019-07-31T17:08:04.156Z</time>
      </trkpt>
      <trkpt lat="43.00866333" lon="-1.1775">
        <ele>967.0</ele>
        <time>2019-07-31T17:08:05.162Z</time>
      </trkpt>
      <trkpt lat="43.00866333" lon="-1.17751">
        <ele>966.0</ele>
        <time>2019-07-31T17:08:06.166Z</time>
      </trkpt>
      <trkpt lat="43.008665" lon="-1.17752167">
        <ele>966.0</ele>
        <time>2019-07-31T17:08:07.171Z</time>
      </trkpt>
      <trkpt lat="43.00867167" lon="-1.17753333">
        <ele>966.0</ele>
        <time>2019-07-31T17:08:08.175Z</time>
      </trkpt>
      <trkpt lat="43.00867667" lon="-1.17754667">
        <ele>966.0</ele>
        <time>2019-07-31T17:08:09.180Z</time>
      </trkpt>
      <trkpt lat="43.00867833" lon="-1.17755833">
        <ele>966.0</ele>
        <time>2019-07-31T17:08:10.185Z</time>
      </trkpt>
      <trkpt lat="43.00867833" lon="-1.17755833">
        <ele>966.0</ele>
        <time>2019-07-31T17:08:11.065Z</time>
      </trkpt>
      <trkpt lat="43.00868167" lon="-1.17757167">
        <ele>964.0</ele>
        <time>2019-07-31T17:08:12.071Z</time>
      </trkpt>
      <trkpt lat="43.00868667" lon="-1.1776">
        <ele>963.0</ele>
        <time>2019-07-31T17:08:13.076Z</time>
      </trkpt>
      <trkpt lat="43.00868833" lon="-1.17760667">
        <ele>963.0</ele>
        <time>2019-07-31T17:08:14.081Z</time>
      </trkpt>
      <trkpt lat="43.00869" lon="-1.177615">
        <ele>964.0</ele>
        <time>2019-07-31T17:08:15.087Z</time>
      </trkpt>
      <trkpt lat="43.00868833" lon="-1.17762667">
        <ele>964.0</ele>
        <time>2019-07-31T17:08:16.092Z</time>
      </trkpt>
      <trkpt lat="43.008685" lon="-1.17764">
        <ele>965.0</ele>
        <time>2019-07-31T17:08:17.099Z</time>
      </trkpt>
      <trkpt lat="43.00868167" lon="-1.177655">
        <ele>966.0</ele>
        <time>2019-07-31T17:08:18.101Z</time>
      </trkpt>
      <trkpt lat="43.00868" lon="-1.17767">
        <ele>965.0</ele>
        <time>2019-07-31T17:08:19.103Z</time>
      </trkpt>
      <trkpt lat="43.00867667" lon="-1.17768833">
        <ele>965.0</ele>
        <time>2019-07-31T17:08:20.108Z</time>
      </trkpt>
      <trkpt lat="43.008675" lon="-1.17771">
        <ele>964.0</ele>
        <time>2019-07-31T17:08:21.113Z</time>
      </trkpt>
      <trkpt lat="43.008675" lon="-1.177725">
        <ele>963.0</ele>
        <time>2019-07-31T17:08:22.120Z</time>
      </trkpt>
      <trkpt lat="43.00867333" lon="-1.17773667">
        <ele>961.0</ele>
        <time>2019-07-31T17:08:23.125Z</time>
      </trkpt>
      <trkpt lat="43.00866667" lon="-1.17774833">
        <ele>960.0</ele>
        <time>2019-07-31T17:08:24.130Z</time>
      </trkpt>
      <trkpt lat="43.008665" lon="-1.17777">
        <ele>961.0</ele>
        <time>2019-07-31T17:08:25.135Z</time>
      </trkpt>
      <trkpt lat="43.008665" lon="-1.17778833">
        <ele>960.0</ele>
        <time>2019-07-31T17:08:26.140Z</time>
      </trkpt>
      <trkpt lat="43.00866333" lon="-1.17780833">
        <ele>960.0</ele>
        <time>2019-07-31T17:08:27.146Z</time>
      </trkpt>
      <trkpt lat="43.00866" lon="-1.177825">
        <ele>960.0</ele>
        <time>2019-07-31T17:08:28.150Z</time>
      </trkpt>
      <trkpt lat="43.008655" lon="-1.17784167">
        <ele>960.0</ele>
        <time>2019-07-31T17:08:29.155Z</time>
      </trkpt>
      <trkpt lat="43.00864833" lon="-1.17785667">
        <ele>962.0</ele>
        <time>2019-07-31T17:08:30.160Z</time>
      </trkpt>
      <trkpt lat="43.008645" lon="-1.17787333">
        <ele>962.0</ele>
        <time>2019-07-31T17:08:31.164Z</time>
      </trkpt>
      <trkpt lat="43.00864833" lon="-1.17789333">
        <ele>961.0</ele>
        <time>2019-07-31T17:08:32.171Z</time>
      </trkpt>
      <trkpt lat="43.00865667" lon="-1.17791667">
        <ele>962.0</ele>
        <time>2019-07-31T17:08:33.173Z</time>
      </trkpt>
      <trkpt lat="43.00866833" lon="-1.17794167">
        <ele>961.0</ele>
        <time>2019-07-31T17:08:34.176Z</time>
      </trkpt>
      <trkpt lat="43.00867667" lon="-1.17797">
        <ele>961.0</ele>
        <time>2019-07-31T17:08:35.183Z</time>
      </trkpt>
      <trkpt lat="43.00867667" lon="-1.17797">
        <ele>961.0</ele>
        <time>2019-07-31T17:08:36.062Z</time>
      </trkpt>
      <trkpt lat="43.00868333" lon="-1.17798167">
        <ele>961.0</ele>
        <time>2019-07-31T17:08:37.067Z</time>
      </trkpt>
      <trkpt lat="43.00869833" lon="-1.178">
        <ele>961.0</ele>
        <time>2019-07-31T17:08:38.073Z</time>
      </trkpt>
      <trkpt lat="43.00872333" lon="-1.17802833">
        <ele>963.0</ele>
        <time>2019-07-31T17:08:39.079Z</time>
      </trkpt>
      <trkpt lat="43.008735" lon="-1.17804">
        <ele>964.0</ele>
        <time>2019-07-31T17:08:40.085Z</time>
      </trkpt>
      <trkpt lat="43.008735" lon="-1.17804">
        <ele>964.0</ele>
        <time>2019-07-31T17:08:41.091Z</time>
      </trkpt>
      <trkpt lat="43.008765" lon="-1.178055">
        <ele>965.0</ele>
        <time>2019-07-31T17:08:42.097Z</time>
      </trkpt>
      <trkpt lat="43.00878" lon="-1.17806333">
        <ele>966.0</ele>
        <time>2019-07-31T17:08:43.103Z</time>
      </trkpt>
      <trkpt lat="43.0088" lon="-1.17806833">
        <ele>967.0</ele>
        <time>2019-07-31T17:08:44.108Z</time>
      </trkpt>
      <trkpt lat="43.00882167" lon="-1.17808167">
        <ele>969.0</ele>
        <time>2019-07-31T17:08:45.112Z</time>
      </trkpt>
      <trkpt lat="43.00883833" lon="-1.17808667">
        <ele>969.0</ele>
        <time>2019-07-31T17:08:46.118Z</time>
      </trkpt>
      <trkpt lat="43.00885833" lon="-1.17809">
        <ele>970.0</ele>
        <time>2019-07-31T17:08:47.123Z</time>
      </trkpt>
      <trkpt lat="43.008875" lon="-1.17808833">
        <ele>971.0</ele>
        <time>2019-07-31T17:08:48.130Z</time>
      </trkpt>
      <trkpt lat="43.00888833" lon="-1.17808833">
        <ele>973.0</ele>
        <time>2019-07-31T17:08:49.135Z</time>
      </trkpt>
      <trkpt lat="43.0089" lon="-1.17808167">
        <ele>973.0</ele>
        <time>2019-07-31T17:08:50.142Z</time>
      </trkpt>
      <trkpt lat="43.008915" lon="-1.178075">
        <ele>972.0</ele>
        <time>2019-07-31T17:08:51.147Z</time>
      </trkpt>
      <trkpt lat="43.00892833" lon="-1.17806833">
        <ele>972.0</ele>
        <time>2019-07-31T17:08:52.152Z</time>
      </trkpt>
      <trkpt lat="43.00894167" lon="-1.17806667">
        <ele>973.0</ele>
        <time>2019-07-31T17:08:53.156Z</time>
      </trkpt>
      <trkpt lat="43.00895667" lon="-1.17806833">
        <ele>974.0</ele>
        <time>2019-07-31T17:08:54.161Z</time>
      </trkpt>
      <trkpt lat="43.008975" lon="-1.17807167">
        <ele>974.0</ele>
        <time>2019-07-31T17:08:55.166Z</time>
      </trkpt>
      <trkpt lat="43.008985" lon="-1.17807667">
        <ele>974.0</ele>
        <time>2019-07-31T17:08:56.172Z</time>
      </trkpt>
      <trkpt lat="43.00899833" lon="-1.178085">
        <ele>974.0</ele>
        <time>2019-07-31T17:08:57.176Z</time>
      </trkpt>
      <trkpt lat="43.00900833" lon="-1.17808833">
        <ele>975.0</ele>
        <time>2019-07-31T17:08:58.183Z</time>
      </trkpt>
      <trkpt lat="43.00900833" lon="-1.17808833">
        <ele>975.0</ele>
        <time>2019-07-31T17:08:59.063Z</time>
      </trkpt>
      <trkpt lat="43.00902333" lon="-1.17808667">
        <ele>976.0</ele>
        <time>2019-07-31T17:09:00.070Z</time>
      </trkpt>
      <trkpt lat="43.00904333" lon="-1.17808">
        <ele>977.0</ele>
        <time>2019-07-31T17:09:01.074Z</time>
      </trkpt>
      <trkpt lat="43.009055" lon="-1.17807667">
        <ele>977.0</ele>
        <time>2019-07-31T17:09:02.079Z</time>
      </trkpt>
      <trkpt lat="43.00906833" lon="-1.17807833">
        <ele>977.0</ele>
        <time>2019-07-31T17:09:03.084Z</time>
      </trkpt>
      <trkpt lat="43.009085" lon="-1.17808">
        <ele>977.0</ele>
        <time>2019-07-31T17:09:04.090Z</time>
      </trkpt>
      <trkpt lat="43.00910333" lon="-1.17809">
        <ele>978.0</ele>
        <time>2019-07-31T17:09:05.094Z</time>
      </trkpt>
      <trkpt lat="43.00912167" lon="-1.17809833">
        <ele>978.0</ele>
        <time>2019-07-31T17:09:06.100Z</time>
      </trkpt>
      <trkpt lat="43.00914" lon="-1.17810333">
        <ele>977.0</ele>
        <time>2019-07-31T17:09:07.106Z</time>
      </trkpt>
      <trkpt lat="43.00915333" lon="-1.178105">
        <ele>977.0</ele>
        <time>2019-07-31T17:09:08.108Z</time>
      </trkpt>
      <trkpt lat="43.00916833" lon="-1.17810833">
        <ele>977.0</ele>
        <time>2019-07-31T17:09:09.113Z</time>
      </trkpt>
      <trkpt lat="43.00917667" lon="-1.17811667">
        <ele>977.0</ele>
        <time>2019-07-31T17:09:10.119Z</time>
      </trkpt>
      <trkpt lat="43.00918167" lon="-1.178125">
        <ele>977.0</ele>
        <time>2019-07-31T17:09:11.127Z</time>
      </trkpt>
      <trkpt lat="43.00919167" lon="-1.17813333">
        <ele>976.0</ele>
        <time>2019-07-31T17:09:12.132Z</time>
      </trkpt>
      <trkpt lat="43.0092" lon="-1.178145">
        <ele>976.0</ele>
        <time>2019-07-31T17:09:13.136Z</time>
      </trkpt>
      <trkpt lat="43.00921167" lon="-1.17815667">
        <ele>976.0</ele>
        <time>2019-07-31T17:09:14.139Z</time>
      </trkpt>
      <trkpt lat="43.00922333" lon="-1.17817">
        <ele>976.0</ele>
        <time>2019-07-31T17:09:15.144Z</time>
      </trkpt>
      <trkpt lat="43.009235" lon="-1.17818333">
        <ele>976.0</ele>
        <time>2019-07-31T17:09:16.149Z</time>
      </trkpt>
      <trkpt lat="43.009245" lon="-1.17819667">
        <ele>976.0</ele>
        <time>2019-07-31T17:09:17.156Z</time>
      </trkpt>
      <trkpt lat="43.009255" lon="-1.17820833">
        <ele>975.0</ele>
        <time>2019-07-31T17:09:18.160Z</time>
      </trkpt>
      <trkpt lat="43.00926333" lon="-1.17822167">
        <ele>975.0</ele>
        <time>2019-07-31T17:09:19.164Z</time>
      </trkpt>
      <trkpt lat="43.00927333" lon="-1.17823333">
        <ele>975.0</ele>
        <time>2019-07-31T17:09:20.167Z</time>
      </trkpt>
      <trkpt lat="43.009285" lon="-1.17825167">
        <ele>974.0</ele>
        <time>2019-07-31T17:09:21.171Z</time>
      </trkpt>
      <trkpt lat="43.00929667" lon="-1.17826667">
        <ele>974.0</ele>
        <time>2019-07-31T17:09:22.175Z</time>
      </trkpt>
      <trkpt lat="43.00930833" lon="-1.17828">
        <ele>973.0</ele>
        <time>2019-07-31T17:09:23.179Z</time>
      </trkpt>
      <trkpt lat="43.00931833" lon="-1.17829333">
        <ele>973.0</ele>
        <time>2019-07-31T17:09:24.182Z</time>
      </trkpt>
      <trkpt lat="43.00931833" lon="-1.17829333">
        <ele>973.0</ele>
        <time>2019-07-31T17:09:25.063Z</time>
      </trkpt>
      <trkpt lat="43.00932667" lon="-1.17831">
        <ele>974.0</ele>
        <time>2019-07-31T17:09:26.070Z</time>
      </trkpt>
      <trkpt lat="43.00933167" lon="-1.17834167">
        <ele>973.0</ele>
        <time>2019-07-31T17:09:27.074Z</time>
      </trkpt>
      <trkpt lat="43.00933167" lon="-1.178355">
        <ele>973.0</ele>
        <time>2019-07-31T17:09:28.080Z</time>
      </trkpt>
      <trkpt lat="43.00933333" lon="-1.17837333">
        <ele>974.0</ele>
        <time>2019-07-31T17:09:29.085Z</time>
      </trkpt>
      <trkpt lat="43.00933333" lon="-1.17838833">
        <ele>974.0</ele>
        <time>2019-07-31T17:09:30.091Z</time>
      </trkpt>
      <trkpt lat="43.00933167" lon="-1.1784">
        <ele>974.0</ele>
        <time>2019-07-31T17:09:31.093Z</time>
      </trkpt>
      <trkpt lat="43.00933" lon="-1.17841167">
        <ele>974.0</ele>
        <time>2019-07-31T17:09:32.099Z</time>
      </trkpt>
      <trkpt lat="43.00933" lon="-1.178425">
        <ele>974.0</ele>
        <time>2019-07-31T17:09:33.105Z</time>
      </trkpt>
      <trkpt lat="43.00933167" lon="-1.17843667">
        <ele>974.0</ele>
        <time>2019-07-31T17:09:34.111Z</time>
      </trkpt>
      <trkpt lat="43.009335" lon="-1.17845167">
        <ele>974.0</ele>
        <time>2019-07-31T17:09:35.117Z</time>
      </trkpt>
      <trkpt lat="43.009335" lon="-1.17846667">
        <ele>974.0</ele>
        <time>2019-07-31T17:09:36.121Z</time>
      </trkpt>
      <trkpt lat="43.00934" lon="-1.17848167">
        <ele>973.0</ele>
        <time>2019-07-31T17:09:37.128Z</time>
      </trkpt>
      <trkpt lat="43.009345" lon="-1.17849333">
        <ele>973.0</ele>
        <time>2019-07-31T17:09:38.134Z</time>
      </trkpt>
      <trkpt lat="43.00935333" lon="-1.17850833">
        <ele>973.0</ele>
        <time>2019-07-31T17:09:39.141Z</time>
      </trkpt>
      <trkpt lat="43.00936" lon="-1.17852167">
        <ele>973.0</ele>
        <time>2019-07-31T17:09:40.145Z</time>
      </trkpt>
      <trkpt lat="43.00937167" lon="-1.17853667">
        <ele>973.0</ele>
        <time>2019-07-31T17:09:41.151Z</time>
      </trkpt>
      <trkpt lat="43.00938667" lon="-1.178555">
        <ele>974.0</ele>
        <time>2019-07-31T17:09:42.158Z</time>
      </trkpt>
      <trkpt lat="43.00940167" lon="-1.17857167">
        <ele>974.0</ele>
        <time>2019-07-31T17:09:43.163Z</time>
      </trkpt>
      <trkpt lat="43.009415" lon="-1.178585">
        <ele>975.0</ele>
        <time>2019-07-31T17:09:44.170Z</time>
      </trkpt>
      <trkpt lat="43.00942833" lon="-1.17859833">
        <ele>975.0</ele>
        <time>2019-07-31T17:09:45.175Z</time>
      </trkpt>
      <trkpt lat="43.00944" lon="-1.17860833">
        <ele>975.0</ele>
        <time>2019-07-31T17:09:46.178Z</time>
      </trkpt>
      <trkpt lat="43.00945167" lon="-1.17861667">
        <ele>976.0</ele>
        <time>2019-07-31T17:09:47.184Z</time>
      </trkpt>
      <trkpt lat="43.00945167" lon="-1.17861667">
        <ele>976.0</ele>
        <time>2019-07-31T17:09:48.064Z</time>
      </trkpt>
      <trkpt lat="43.00946333" lon="-1.178625">
        <ele>976.0</ele>
        <time>2019-07-31T17:09:49.071Z</time>
      </trkpt>
      <trkpt lat="43.00948833" lon="-1.178645">
        <ele>975.0</ele>
        <time>2019-07-31T17:09:50.076Z</time>
      </trkpt>
      <trkpt lat="43.00950333" lon="-1.17865667">
        <ele>975.0</ele>
        <time>2019-07-31T17:09:51.081Z</time>
      </trkpt>
      <trkpt lat="43.00951833" lon="-1.17866667">
        <ele>974.0</ele>
        <time>2019-07-31T17:09:52.086Z</time>
      </trkpt>
      <trkpt lat="43.00952833" lon="-1.17867667">
        <ele>974.0</ele>
        <time>2019-07-31T17:09:53.090Z</time>
      </trkpt>
      <trkpt lat="43.00954333" lon="-1.17868833">
        <ele>974.0</ele>
        <time>2019-07-31T17:09:54.095Z</time>
      </trkpt>
      <trkpt lat="43.00955667" lon="-1.17869833">
        <ele>974.0</ele>
        <time>2019-07-31T17:09:55.101Z</time>
      </trkpt>
      <trkpt lat="43.009565" lon="-1.178705">
        <ele>974.0</ele>
        <time>2019-07-31T17:09:56.106Z</time>
      </trkpt>
      <trkpt lat="43.009575" lon="-1.17871667">
        <ele>974.0</ele>
        <time>2019-07-31T17:09:57.113Z</time>
      </trkpt>
      <trkpt lat="43.00958667" lon="-1.17873167">
        <ele>974.0</ele>
        <time>2019-07-31T17:09:58.120Z</time>
      </trkpt>
      <trkpt lat="43.00959833" lon="-1.17874667">
        <ele>975.0</ele>
        <time>2019-07-31T17:09:59.127Z</time>
      </trkpt>
      <trkpt lat="43.00961" lon="-1.17876">
        <ele>975.0</ele>
        <time>2019-07-31T17:10:00.132Z</time>
      </trkpt>
      <trkpt lat="43.00962333" lon="-1.178775">
        <ele>975.0</ele>
        <time>2019-07-31T17:10:01.138Z</time>
      </trkpt>
      <trkpt lat="43.00963667" lon="-1.178785">
        <ele>975.0</ele>
        <time>2019-07-31T17:10:02.143Z</time>
      </trkpt>
      <trkpt lat="43.00964167" lon="-1.17879167">
        <ele>975.0</ele>
        <time>2019-07-31T17:10:03.148Z</time>
      </trkpt>
      <trkpt lat="43.00965" lon="-1.17880167">
        <ele>975.0</ele>
        <time>2019-07-31T17:10:04.154Z</time>
      </trkpt>
      <trkpt lat="43.00966167" lon="-1.17881333">
        <ele>974.0</ele>
        <time>2019-07-31T17:10:05.160Z</time>
      </trkpt>
      <trkpt lat="43.00967333" lon="-1.17882333">
        <ele>974.0</ele>
        <time>2019-07-31T17:10:06.166Z</time>
      </trkpt>
      <trkpt lat="43.00969" lon="-1.178845">
        <ele>974.0</ele>
        <time>2019-07-31T17:10:07.172Z</time>
      </trkpt>
      <trkpt lat="43.0097" lon="-1.17886">
        <ele>975.0</ele>
        <time>2019-07-31T17:10:08.176Z</time>
      </trkpt>
      <trkpt lat="43.009715" lon="-1.17887667">
        <ele>976.0</ele>
        <time>2019-07-31T17:10:09.181Z</time>
      </trkpt>
      <trkpt lat="43.009715" lon="-1.17887667">
        <ele>976.0</ele>
        <time>2019-07-31T17:10:10.061Z</time>
      </trkpt>
      <trkpt lat="43.00973" lon="-1.1789">
        <ele>976.0</ele>
        <time>2019-07-31T17:10:11.066Z</time>
      </trkpt>
      <trkpt lat="43.00974333" lon="-1.17891833">
        <ele>976.0</ele>
        <time>2019-07-31T17:10:12.071Z</time>
      </trkpt>
      <trkpt lat="43.009775" lon="-1.178955">
        <ele>977.0</ele>
        <time>2019-07-31T17:10:13.080Z</time>
      </trkpt>
      <trkpt lat="43.009785" lon="-1.17897">
        <ele>977.0</ele>
        <time>2019-07-31T17:10:14.084Z</time>
      </trkpt>
      <trkpt lat="43.0098" lon="-1.17898333">
        <ele>978.0</ele>
        <time>2019-07-31T17:10:15.091Z</time>
      </trkpt>
      <trkpt lat="43.009815" lon="-1.178995">
        <ele>978.0</ele>
        <time>2019-07-31T17:10:16.096Z</time>
      </trkpt>
      <trkpt lat="43.009835" lon="-1.179015">
        <ele>979.0</ele>
        <time>2019-07-31T17:10:17.102Z</time>
      </trkpt>
      <trkpt lat="43.00985167" lon="-1.179035">
        <ele>980.0</ele>
        <time>2019-07-31T17:10:18.109Z</time>
      </trkpt>
      <trkpt lat="43.00986333" lon="-1.17905333">
        <ele>981.0</ele>
        <time>2019-07-31T17:10:19.114Z</time>
      </trkpt>
      <trkpt lat="43.00987667" lon="-1.17907333">
        <ele>981.0</ele>
        <time>2019-07-31T17:10:20.119Z</time>
      </trkpt>
      <trkpt lat="43.00988667" lon="-1.17909">
        <ele>982.0</ele>
        <time>2019-07-31T17:10:21.124Z</time>
      </trkpt>
      <trkpt lat="43.00990167" lon="-1.17910333">
        <ele>982.0</ele>
        <time>2019-07-31T17:10:22.128Z</time>
      </trkpt>
      <trkpt lat="43.00991167" lon="-1.17911667">
        <ele>982.0</ele>
        <time>2019-07-31T17:10:23.133Z</time>
      </trkpt>
      <trkpt lat="43.00992333" lon="-1.17912833">
        <ele>982.0</ele>
        <time>2019-07-31T17:10:24.138Z</time>
      </trkpt>
      <trkpt lat="43.009935" lon="-1.17913833">
        <ele>981.0</ele>
        <time>2019-07-31T17:10:25.144Z</time>
      </trkpt>
      <trkpt lat="43.00994833" lon="-1.17914833">
        <ele>980.0</ele>
        <time>2019-07-31T17:10:26.150Z</time>
      </trkpt>
      <trkpt lat="43.00996" lon="-1.17916">
        <ele>980.0</ele>
        <time>2019-07-31T17:10:27.157Z</time>
      </trkpt>
      <trkpt lat="43.00997167" lon="-1.17917333">
        <ele>980.0</ele>
        <time>2019-07-31T17:10:28.163Z</time>
      </trkpt>
      <trkpt lat="43.00997667" lon="-1.17918167">
        <ele>980.0</ele>
        <time>2019-07-31T17:10:29.169Z</time>
      </trkpt>
      <trkpt lat="43.00999167" lon="-1.179195">
        <ele>980.0</ele>
        <time>2019-07-31T17:10:30.175Z</time>
      </trkpt>
      <trkpt lat="43.01000333" lon="-1.179205">
        <ele>980.0</ele>
        <time>2019-07-31T17:10:31.180Z</time>
      </trkpt>
      <trkpt lat="43.01001167" lon="-1.17921333">
        <ele>979.0</ele>
        <time>2019-07-31T17:10:32.185Z</time>
      </trkpt>
      <trkpt lat="43.01001167" lon="-1.17921333">
        <ele>979.0</ele>
        <time>2019-07-31T17:10:33.066Z</time>
      </trkpt>
      <trkpt lat="43.01002167" lon="-1.17922333">
        <ele>979.0</ele>
        <time>2019-07-31T17:10:34.071Z</time>
      </trkpt>
      <trkpt lat="43.01004333" lon="-1.17924667">
        <ele>979.0</ele>
        <time>2019-07-31T17:10:35.078Z</time>
      </trkpt>
      <trkpt lat="43.01004333" lon="-1.17924667">
        <ele>979.0</ele>
        <time>2019-07-31T17:10:36.085Z</time>
      </trkpt>
      <trkpt lat="43.01006833" lon="-1.17927">
        <ele>980.0</ele>
        <time>2019-07-31T17:10:37.091Z</time>
      </trkpt>
      <trkpt lat="43.01007833" lon="-1.179285">
        <ele>980.0</ele>
        <time>2019-07-31T17:10:38.097Z</time>
      </trkpt>
      <trkpt lat="43.01009" lon="-1.17929667">
        <ele>980.0</ele>
        <time>2019-07-31T17:10:39.104Z</time>
      </trkpt>
      <trkpt lat="43.0101" lon="-1.17931">
        <ele>980.0</ele>
        <time>2019-07-31T17:10:40.108Z</time>
      </trkpt>
      <trkpt lat="43.01011167" lon="-1.17932333">
        <ele>980.0</ele>
        <time>2019-07-31T17:10:41.109Z</time>
      </trkpt>
      <trkpt lat="43.01012167" lon="-1.17933333">
        <ele>979.0</ele>
        <time>2019-07-31T17:10:42.110Z</time>
      </trkpt>
      <trkpt lat="43.010135" lon="-1.179345">
        <ele>979.0</ele>
        <time>2019-07-31T17:10:43.110Z</time>
      </trkpt>
      <trkpt lat="43.010145" lon="-1.17935333">
        <ele>979.0</ele>
        <time>2019-07-31T17:10:44.113Z</time>
      </trkpt>
      <trkpt lat="43.01015833" lon="-1.17936833">
        <ele>979.0</ele>
        <time>2019-07-31T17:10:45.116Z</time>
      </trkpt>
      <trkpt lat="43.01017" lon="-1.17937833">
        <ele>979.0</ele>
        <time>2019-07-31T17:10:46.117Z</time>
      </trkpt>
      <trkpt lat="43.01018" lon="-1.17939">
        <ele>979.0</ele>
        <time>2019-07-31T17:10:47.123Z</time>
      </trkpt>
      <trkpt lat="43.01018667" lon="-1.1794">
        <ele>979.0</ele>
        <time>2019-07-31T17:10:48.126Z</time>
      </trkpt>
      <trkpt lat="43.01019333" lon="-1.17940833">
        <ele>979.0</ele>
        <time>2019-07-31T17:10:49.133Z</time>
      </trkpt>
      <trkpt lat="43.010205" lon="-1.17942167">
        <ele>979.0</ele>
        <time>2019-07-31T17:10:50.136Z</time>
      </trkpt>
      <trkpt lat="43.010215" lon="-1.17943167">
        <ele>979.0</ele>
        <time>2019-07-31T17:10:51.143Z</time>
      </trkpt>
      <trkpt lat="43.01022333" lon="-1.17944">
        <ele>979.0</ele>
        <time>2019-07-31T17:10:52.149Z</time>
      </trkpt>
      <trkpt lat="43.01023167" lon="-1.17945167">
        <ele>979.0</ele>
        <time>2019-07-31T17:10:53.156Z</time>
      </trkpt>
      <trkpt lat="43.01023833" lon="-1.17946">
        <ele>978.0</ele>
        <time>2019-07-31T17:10:54.159Z</time>
      </trkpt>
      <trkpt lat="43.01024667" lon="-1.17947667">
        <ele>978.0</ele>
        <time>2019-07-31T17:10:55.165Z</time>
      </trkpt>
      <trkpt lat="43.01025333" lon="-1.17949167">
        <ele>978.0</ele>
        <time>2019-07-31T17:10:56.171Z</time>
      </trkpt>
      <trkpt lat="43.01026" lon="-1.179505">
        <ele>978.0</ele>
        <time>2019-07-31T17:10:57.176Z</time>
      </trkpt>
      <trkpt lat="43.01026333" lon="-1.17951667">
        <ele>978.0</ele>
        <time>2019-07-31T17:10:58.180Z</time>
      </trkpt>
      <trkpt lat="43.01026833" lon="-1.17953167">
        <ele>978.0</ele>
        <time>2019-07-31T17:10:59.183Z</time>
      </trkpt>
      <trkpt lat="43.01026833" lon="-1.17953167">
        <ele>978.0</ele>
        <time>2019-07-31T17:11:00.061Z</time>
      </trkpt>
      <trkpt lat="43.01027167" lon="-1.17954833">
        <ele>978.0</ele>
        <time>2019-07-31T17:11:01.066Z</time>
      </trkpt>
      <trkpt lat="43.01027833" lon="-1.17956667">
        <ele>978.0</ele>
        <time>2019-07-31T17:11:02.071Z</time>
      </trkpt>
      <trkpt lat="43.010285" lon="-1.17959167">
        <ele>977.0</ele>
        <time>2019-07-31T17:11:03.078Z</time>
      </trkpt>
      <trkpt lat="43.01028833" lon="-1.17960333">
        <ele>978.0</ele>
        <time>2019-07-31T17:11:04.084Z</time>
      </trkpt>
      <trkpt lat="43.01029333" lon="-1.179605">
        <ele>978.0</ele>
        <time>2019-07-31T17:11:05.089Z</time>
      </trkpt>
      <trkpt lat="43.01029833" lon="-1.17959833">
        <ele>978.0</ele>
        <time>2019-07-31T17:11:06.094Z</time>
      </trkpt>
      <trkpt lat="43.01030167" lon="-1.17959167">
        <ele>978.0</ele>
        <time>2019-07-31T17:11:07.099Z</time>
      </trkpt>
      <trkpt lat="43.010305" lon="-1.17958167">
        <ele>978.0</ele>
        <time>2019-07-31T17:11:08.104Z</time>
      </trkpt>
      <trkpt lat="43.01030833" lon="-1.17956833">
        <ele>978.0</ele>
        <time>2019-07-31T17:11:09.107Z</time>
      </trkpt>
      <trkpt lat="43.010315" lon="-1.179555">
        <ele>978.0</ele>
        <time>2019-07-31T17:11:10.111Z</time>
      </trkpt>
      <trkpt lat="43.01032167" lon="-1.179545">
        <ele>977.0</ele>
        <time>2019-07-31T17:11:11.116Z</time>
      </trkpt>
      <trkpt lat="43.01033167" lon="-1.17953667">
        <ele>977.0</ele>
        <time>2019-07-31T17:11:12.121Z</time>
      </trkpt>
      <trkpt lat="43.01034333" lon="-1.17952667">
        <ele>978.0</ele>
        <time>2019-07-31T17:11:13.126Z</time>
      </trkpt>
      <trkpt lat="43.01035333" lon="-1.17952333">
        <ele>978.0</ele>
        <time>2019-07-31T17:11:14.132Z</time>
      </trkpt>
      <trkpt lat="43.01036333" lon="-1.17952167">
        <ele>979.0</ele>
        <time>2019-07-31T17:11:15.137Z</time>
      </trkpt>
      <trkpt lat="43.01037333" lon="-1.17952333">
        <ele>979.0</ele>
        <time>2019-07-31T17:11:16.144Z</time>
      </trkpt>
      <trkpt lat="43.01038333" lon="-1.17952833">
        <ele>979.0</ele>
        <time>2019-07-31T17:11:17.149Z</time>
      </trkpt>
      <trkpt lat="43.01039167" lon="-1.179535">
        <ele>979.0</ele>
        <time>2019-07-31T17:11:18.152Z</time>
      </trkpt>
      <trkpt lat="43.01040333" lon="-1.17954167">
        <ele>979.0</ele>
        <time>2019-07-31T17:11:19.157Z</time>
      </trkpt>
      <trkpt lat="43.01041333" lon="-1.17954833">
        <ele>979.0</ele>
        <time>2019-07-31T17:11:20.161Z</time>
      </trkpt>
      <trkpt lat="43.01042" lon="-1.17955333">
        <ele>979.0</ele>
        <time>2019-07-31T17:11:21.167Z</time>
      </trkpt>
      <trkpt lat="43.010425" lon="-1.17955667">
        <ele>979.0</ele>
        <time>2019-07-31T17:11:22.173Z</time>
      </trkpt>
      <trkpt lat="43.01042833" lon="-1.179565">
        <ele>979.0</ele>
        <time>2019-07-31T17:11:23.177Z</time>
      </trkpt>
      <trkpt lat="43.01042833" lon="-1.17957167">
        <ele>978.0</ele>
        <time>2019-07-31T17:11:24.181Z</time>
      </trkpt>
      <trkpt lat="43.01042167" lon="-1.17958">
        <ele>979.0</ele>
        <time>2019-07-31T17:11:25.186Z</time>
      </trkpt>
      <trkpt lat="43.01042167" lon="-1.17958">
        <ele>979.0</ele>
        <time>2019-07-31T17:11:26.066Z</time>
      </trkpt>
      <trkpt lat="43.01041667" lon="-1.17959">
        <ele>978.0</ele>
        <time>2019-07-31T17:11:27.071Z</time>
      </trkpt>
      <trkpt lat="43.01040833" lon="-1.17960667">
        <ele>978.0</ele>
        <time>2019-07-31T17:11:28.075Z</time>
      </trkpt>
      <trkpt lat="43.01040333" lon="-1.179635">
        <ele>978.0</ele>
        <time>2019-07-31T17:11:29.080Z</time>
      </trkpt>
      <trkpt lat="43.010395" lon="-1.17964833">
        <ele>978.0</ele>
        <time>2019-07-31T17:11:30.085Z</time>
      </trkpt>
      <trkpt lat="43.01039" lon="-1.17966333">
        <ele>978.0</ele>
        <time>2019-07-31T17:11:31.091Z</time>
      </trkpt>
      <trkpt lat="43.010385" lon="-1.179675">
        <ele>977.0</ele>
        <time>2019-07-31T17:11:32.094Z</time>
      </trkpt>
      <trkpt lat="43.01038167" lon="-1.17968667">
        <ele>977.0</ele>
        <time>2019-07-31T17:11:33.100Z</time>
      </trkpt>
      <trkpt lat="43.01038333" lon="-1.179705">
        <ele>978.0</ele>
        <time>2019-07-31T17:11:34.106Z</time>
      </trkpt>
      <trkpt lat="43.01038" lon="-1.179715">
        <ele>978.0</ele>
        <time>2019-07-31T17:11:35.110Z</time>
      </trkpt>
      <trkpt lat="43.010375" lon="-1.17971667">
        <ele>979.0</ele>
        <time>2019-07-31T17:11:36.115Z</time>
      </trkpt>
      <trkpt lat="43.01037333" lon="-1.17972167">
        <ele>978.0</ele>
        <time>2019-07-31T17:11:37.122Z</time>
      </trkpt>
      <trkpt lat="43.01037667" lon="-1.17972667">
        <ele>978.0</ele>
        <time>2019-07-31T17:11:38.129Z</time>
      </trkpt>
      <trkpt lat="43.01037833" lon="-1.17973">
        <ele>979.0</ele>
        <time>2019-07-31T17:11:39.133Z</time>
      </trkpt>
      <trkpt lat="43.01037833" lon="-1.17973">
        <ele>979.0</ele>
        <time>2019-07-31T17:11:40.137Z</time>
      </trkpt>
      <trkpt lat="43.010375" lon="-1.17973">
        <ele>978.0</ele>
        <time>2019-07-31T17:11:41.142Z</time>
      </trkpt>
      <trkpt lat="43.010375" lon="-1.17973167">
        <ele>978.0</ele>
        <time>2019-07-31T17:11:42.147Z</time>
      </trkpt>
      <trkpt lat="43.01037333" lon="-1.17973167">
        <ele>977.0</ele>
        <time>2019-07-31T17:11:43.150Z</time>
      </trkpt>
      <trkpt lat="43.01036833" lon="-1.17973">
        <ele>977.0</ele>
        <time>2019-07-31T17:11:44.156Z</time>
      </trkpt>
      <trkpt lat="43.01036833" lon="-1.17972833">
        <ele>977.0</ele>
        <time>2019-07-31T17:11:45.161Z</time>
      </trkpt>
      <trkpt lat="43.01037333" lon="-1.17973">
        <ele>976.0</ele>
        <time>2019-07-31T17:11:46.165Z</time>
      </trkpt>
      <trkpt lat="43.01037333" lon="-1.17973">
        <ele>976.0</ele>
        <time>2019-07-31T17:11:47.170Z</time>
      </trkpt>
      <trkpt lat="43.01037167" lon="-1.17973">
        <ele>975.0</ele>
        <time>2019-07-31T17:11:48.174Z</time>
      </trkpt>
      <trkpt lat="43.010365" lon="-1.17972667">
        <ele>975.0</ele>
        <time>2019-07-31T17:11:49.176Z</time>
      </trkpt>
      <trkpt lat="43.01036667" lon="-1.17972833">
        <ele>975.0</ele>
        <time>2019-07-31T17:11:50.182Z</time>
      </trkpt>
      <trkpt lat="43.01036667" lon="-1.17972833">
        <ele>975.0</ele>
        <time>2019-07-31T17:11:51.062Z</time>
      </trkpt>
      <trkpt lat="43.010365" lon="-1.17972833">
        <ele>976.0</ele>
        <time>2019-07-31T17:11:52.068Z</time>
      </trkpt>
      <trkpt lat="43.01037" lon="-1.17972667">
        <ele>975.0</ele>
        <time>2019-07-31T17:11:53.073Z</time>
      </trkpt>
      <trkpt lat="43.01037167" lon="-1.17971833">
        <ele>977.0</ele>
        <time>2019-07-31T17:11:54.080Z</time>
      </trkpt>
      <trkpt lat="43.01036833" lon="-1.17971333">
        <ele>977.0</ele>
        <time>2019-07-31T17:11:55.086Z</time>
      </trkpt>
      <trkpt lat="43.010365" lon="-1.17971">
        <ele>978.0</ele>
        <time>2019-07-31T17:11:56.091Z</time>
      </trkpt>
      <trkpt lat="43.01036667" lon="-1.17971333">
        <ele>977.0</ele>
        <time>2019-07-31T17:11:57.096Z</time>
      </trkpt>
      <trkpt lat="43.01037167" lon="-1.17971667">
        <ele>977.0</ele>
        <time>2019-07-31T17:11:58.100Z</time>
      </trkpt>
      <trkpt lat="43.01037167" lon="-1.17972">
        <ele>977.0</ele>
        <time>2019-07-31T17:11:59.107Z</time>
      </trkpt>
      <trkpt lat="43.01037333" lon="-1.17972333">
        <ele>977.0</ele>
        <time>2019-07-31T17:12:00.112Z</time>
      </trkpt>
      <trkpt lat="43.01037167" lon="-1.179725">
        <ele>978.0</ele>
        <time>2019-07-31T17:12:01.118Z</time>
      </trkpt>
      <trkpt lat="43.01036833" lon="-1.179725">
        <ele>979.0</ele>
        <time>2019-07-31T17:12:02.124Z</time>
      </trkpt>
      <trkpt lat="43.01036833" lon="-1.17972333">
        <ele>979.0</ele>
        <time>2019-07-31T17:12:03.129Z</time>
      </trkpt>
      <trkpt lat="43.01037" lon="-1.17972333">
        <ele>979.0</ele>
        <time>2019-07-31T17:12:04.133Z</time>
      </trkpt>
      <trkpt lat="43.01037" lon="-1.17972167">
        <ele>979.0</ele>
        <time>2019-07-31T17:12:05.140Z</time>
      </trkpt>
      <trkpt lat="43.01037" lon="-1.17972167">
        <ele>979.0</ele>
        <time>2019-07-31T17:12:06.144Z</time>
      </trkpt>
      <trkpt lat="43.01037" lon="-1.17972167">
        <ele>979.0</ele>
        <time>2019-07-31T17:12:07.151Z</time>
      </trkpt>
      <trkpt lat="43.01036833" lon="-1.17972">
        <ele>979.0</ele>
        <time>2019-07-31T17:12:08.157Z</time>
      </trkpt>
      <trkpt lat="43.01036833" lon="-1.17971833">
        <ele>979.0</ele>
        <time>2019-07-31T17:12:09.160Z</time>
      </trkpt>
      <trkpt lat="43.010365" lon="-1.179715">
        <ele>979.0</ele>
        <time>2019-07-31T17:12:10.165Z</time>
      </trkpt>
      <trkpt lat="43.01036" lon="-1.17971167">
        <ele>979.0</ele>
        <time>2019-07-31T17:12:11.170Z</time>
      </trkpt>
      <trkpt lat="43.010355" lon="-1.17970833">
        <ele>980.0</ele>
        <time>2019-07-31T17:12:12.175Z</time>
      </trkpt>
      <trkpt lat="43.010355" lon="-1.17970833">
        <ele>980.0</ele>
        <time>2019-07-31T17:12:13.178Z</time>
      </trkpt>
      <trkpt lat="43.010355" lon="-1.17970833">
        <ele>979.0</ele>
        <time>2019-07-31T17:12:14.182Z</time>
      </trkpt>
      <trkpt lat="43.010355" lon="-1.17970833">
        <ele>979.0</ele>
        <time>2019-07-31T17:12:15.062Z</time>
      </trkpt>
      <trkpt lat="43.01036" lon="-1.17971167">
        <ele>979.0</ele>
        <time>2019-07-31T17:12:16.068Z</time>
      </trkpt>
      <trkpt lat="43.010365" lon="-1.17971667">
        <ele>978.0</ele>
        <time>2019-07-31T17:12:17.073Z</time>
      </trkpt>
      <trkpt lat="43.01037333" lon="-1.17972333">
        <ele>977.0</ele>
        <time>2019-07-31T17:12:18.077Z</time>
      </trkpt>
      <trkpt lat="43.01037833" lon="-1.17972667">
        <ele>976.0</ele>
        <time>2019-07-31T17:12:19.084Z</time>
      </trkpt>
      <trkpt lat="43.01037667" lon="-1.179725">
        <ele>977.0</ele>
        <time>2019-07-31T17:12:20.090Z</time>
      </trkpt>
      <trkpt lat="43.01037333" lon="-1.179725">
        <ele>977.0</ele>
        <time>2019-07-31T17:12:21.095Z</time>
      </trkpt>
      <trkpt lat="43.01037833" lon="-1.17973167">
        <ele>977.0</ele>
        <time>2019-07-31T17:12:22.102Z</time>
      </trkpt>
      <trkpt lat="43.01037" lon="-1.17973833">
        <ele>976.0</ele>
        <time>2019-07-31T17:12:23.108Z</time>
      </trkpt>
      <trkpt lat="43.010375" lon="-1.17974">
        <ele>976.0</ele>
        <time>2019-07-31T17:12:24.115Z</time>
      </trkpt>
      <trkpt lat="43.01038167" lon="-1.17974">
        <ele>975.0</ele>
        <time>2019-07-31T17:12:25.122Z</time>
      </trkpt>
      <trkpt lat="43.010385" lon="-1.17974">
        <ele>975.0</ele>
        <time>2019-07-31T17:12:26.128Z</time>
      </trkpt>
      <trkpt lat="43.01038667" lon="-1.17974167">
        <ele>976.0</ele>
        <time>2019-07-31T17:12:27.133Z</time>
      </trkpt>
      <trkpt lat="43.01038333" lon="-1.17974">
        <ele>976.0</ele>
        <time>2019-07-31T17:12:28.139Z</time>
      </trkpt>
      <trkpt lat="43.01038167" lon="-1.17974167">
        <ele>976.0</ele>
        <time>2019-07-31T17:12:29.145Z</time>
      </trkpt>
      <trkpt lat="43.01038167" lon="-1.17974167">
        <ele>977.0</ele>
        <time>2019-07-31T17:12:30.152Z</time>
      </trkpt>
      <trkpt lat="43.01038333" lon="-1.17974">
        <ele>977.0</ele>
        <time>2019-07-31T17:12:31.157Z</time>
      </trkpt>
      <trkpt lat="43.01038833" lon="-1.17973833">
        <ele>977.0</ele>
        <time>2019-07-31T17:12:32.163Z</time>
      </trkpt>
      <trkpt lat="43.01038667" lon="-1.179735">
        <ele>978.0</ele>
        <time>2019-07-31T17:12:33.168Z</time>
      </trkpt>
      <trkpt lat="43.010385" lon="-1.17973333">
        <ele>977.0</ele>
        <time>2019-07-31T17:12:34.174Z</time>
      </trkpt>
      <trkpt lat="43.01038333" lon="-1.17972833">
        <ele>978.0</ele>
        <time>2019-07-31T17:12:35.176Z</time>
      </trkpt>
      <trkpt lat="43.01038667" lon="-1.17972333">
        <ele>978.0</ele>
        <time>2019-07-31T17:12:36.181Z</time>
      </trkpt>
      <trkpt lat="43.01038833" lon="-1.17972333">
        <ele>978.0</ele>
        <time>2019-07-31T17:12:37.187Z</time>
      </trkpt>
      <trkpt lat="43.01038833" lon="-1.17972333">
        <ele>978.0</ele>
        <time>2019-07-31T17:12:38.066Z</time>
      </trkpt>
      <trkpt lat="43.01038833" lon="-1.17972">
        <ele>978.0</ele>
        <time>2019-07-31T17:12:39.072Z</time>
      </trkpt>
      <trkpt lat="43.010385" lon="-1.17971833">
        <ele>978.0</ele>
        <time>2019-07-31T17:12:40.078Z</time>
      </trkpt>
      <trkpt lat="43.01038333" lon="-1.17971833">
        <ele>978.0</ele>
        <time>2019-07-31T17:12:41.084Z</time>
      </trkpt>
      <trkpt lat="43.01038167" lon="-1.17971667">
        <ele>977.0</ele>
        <time>2019-07-31T17:12:42.088Z</time>
      </trkpt>
      <trkpt lat="43.01038333" lon="-1.17972">
        <ele>976.0</ele>
        <time>2019-07-31T17:12:43.093Z</time>
      </trkpt>
      <trkpt lat="43.01038" lon="-1.179725">
        <ele>976.0</ele>
        <time>2019-07-31T17:12:44.099Z</time>
      </trkpt>
      <trkpt lat="43.01038" lon="-1.179725">
        <ele>976.0</ele>
        <time>2019-07-31T17:12:45.103Z</time>
      </trkpt>
      <trkpt lat="43.010385" lon="-1.17972833">
        <ele>976.0</ele>
        <time>2019-07-31T17:12:46.109Z</time>
      </trkpt>
      <trkpt lat="43.010385" lon="-1.17972833">
        <ele>976.0</ele>
        <time>2019-07-31T17:12:47.114Z</time>
      </trkpt>
      <trkpt lat="43.010385" lon="-1.17972833">
        <ele>977.0</ele>
        <time>2019-07-31T17:12:48.119Z</time>
      </trkpt>
      <trkpt lat="43.01038333" lon="-1.17972667">
        <ele>977.0</ele>
        <time>2019-07-31T17:12:49.124Z</time>
      </trkpt>
      <trkpt lat="43.01038333" lon="-1.17972667">
        <ele>977.0</ele>
        <time>2019-07-31T17:12:50.131Z</time>
      </trkpt>
      <trkpt lat="43.01038167" lon="-1.179725">
        <ele>977.0</ele>
        <time>2019-07-31T17:12:51.136Z</time>
      </trkpt>
      <trkpt lat="43.01038" lon="-1.17972333">
        <ele>977.0</ele>
        <time>2019-07-31T17:12:52.141Z</time>
      </trkpt>
      <trkpt lat="43.01038167" lon="-1.17972167">
        <ele>978.0</ele>
        <time>2019-07-31T17:12:53.147Z</time>
      </trkpt>
      <trkpt lat="43.01038167" lon="-1.17971833">
        <ele>978.0</ele>
        <time>2019-07-31T17:12:54.152Z</time>
      </trkpt>
      <trkpt lat="43.01038333" lon="-1.179715">
        <ele>978.0</ele>
        <time>2019-07-31T17:12:55.157Z</time>
      </trkpt>
      <trkpt lat="43.01038" lon="-1.17971333">
        <ele>979.0</ele>
        <time>2019-07-31T17:12:56.163Z</time>
      </trkpt>
      <trkpt lat="43.01037667" lon="-1.17970833">
        <ele>979.0</ele>
        <time>2019-07-31T17:12:57.169Z</time>
      </trkpt>
      <trkpt lat="43.01037667" lon="-1.17970667">
        <ele>980.0</ele>
        <time>2019-07-31T17:12:58.174Z</time>
      </trkpt>
      <trkpt lat="43.01037667" lon="-1.17970333">
        <ele>979.0</ele>
        <time>2019-07-31T17:12:59.178Z</time>
      </trkpt>
      <trkpt lat="43.01037833" lon="-1.17970333">
        <ele>978.0</ele>
        <time>2019-07-31T17:13:00.182Z</time>
      </trkpt>
      <trkpt lat="43.01037833" lon="-1.17970333">
        <ele>978.0</ele>
        <time>2019-07-31T17:13:01.062Z</time>
      </trkpt>
      <trkpt lat="43.01037667" lon="-1.1797">
        <ele>978.0</ele>
        <time>2019-07-31T17:13:02.067Z</time>
      </trkpt>
      <trkpt lat="43.01037167" lon="-1.17969833">
        <ele>977.0</ele>
        <time>2019-07-31T17:13:03.073Z</time>
      </trkpt>
      <trkpt lat="43.01036667" lon="-1.17969667">
        <ele>977.0</ele>
        <time>2019-07-31T17:13:04.078Z</time>
      </trkpt>
      <trkpt lat="43.01035833" lon="-1.17969167">
        <ele>977.0</ele>
        <time>2019-07-31T17:13:05.084Z</time>
      </trkpt>
      <trkpt lat="43.01035333" lon="-1.17969167">
        <ele>977.0</ele>
        <time>2019-07-31T17:13:06.090Z</time>
      </trkpt>
      <trkpt lat="43.01034833" lon="-1.17969">
        <ele>976.0</ele>
        <time>2019-07-31T17:13:07.093Z</time>
      </trkpt>
      <trkpt lat="43.010345" lon="-1.17968667">
        <ele>975.0</ele>
        <time>2019-07-31T17:13:08.099Z</time>
      </trkpt>
      <trkpt lat="43.01034" lon="-1.179685">
        <ele>974.0</ele>
        <time>2019-07-31T17:13:09.105Z</time>
      </trkpt>
      <trkpt lat="43.01033333" lon="-1.17968333">
        <ele>973.0</ele>
        <time>2019-07-31T17:13:10.113Z</time>
      </trkpt>
      <trkpt lat="43.01033" lon="-1.17968333">
        <ele>972.0</ele>
        <time>2019-07-31T17:13:11.118Z</time>
      </trkpt>
      <trkpt lat="43.01032667" lon="-1.17968333">
        <ele>971.0</ele>
        <time>2019-07-31T17:13:12.125Z</time>
      </trkpt>
      <trkpt lat="43.010325" lon="-1.17968">
        <ele>970.0</ele>
        <time>2019-07-31T17:13:13.131Z</time>
      </trkpt>
      <trkpt lat="43.01032833" lon="-1.17968">
        <ele>969.0</ele>
        <time>2019-07-31T17:13:14.138Z</time>
      </trkpt>
      <trkpt lat="43.01033333" lon="-1.17968">
        <ele>968.0</ele>
        <time>2019-07-31T17:13:15.145Z</time>
      </trkpt>
      <trkpt lat="43.01033833" lon="-1.17968167">
        <ele>967.0</ele>
        <time>2019-07-31T17:13:16.153Z</time>
      </trkpt>
      <trkpt lat="43.01034" lon="-1.17968">
        <ele>967.0</ele>
        <time>2019-07-31T17:13:17.158Z</time>
      </trkpt>
      <trkpt lat="43.01034167" lon="-1.17968167">
        <ele>967.0</ele>
        <time>2019-07-31T17:13:18.165Z</time>
      </trkpt>
      <trkpt lat="43.01034" lon="-1.17968167">
        <ele>967.0</ele>
        <time>2019-07-31T17:13:19.172Z</time>
      </trkpt>
      <trkpt lat="43.01033667" lon="-1.17968167">
        <ele>967.0</ele>
        <time>2019-07-31T17:13:20.175Z</time>
      </trkpt>
      <trkpt lat="43.01033167" lon="-1.17968">
        <ele>967.0</ele>
        <time>2019-07-31T17:13:21.181Z</time>
      </trkpt>
      <trkpt lat="43.01033167" lon="-1.17968">
        <ele>967.0</ele>
        <time>2019-07-31T17:13:22.061Z</time>
      </trkpt>
      <trkpt lat="43.01032667" lon="-1.17968">
        <ele>966.0</ele>
        <time>2019-07-31T17:13:23.066Z</time>
      </trkpt>
      <trkpt lat="43.01032333" lon="-1.17968">
        <ele>966.0</ele>
        <time>2019-07-31T17:13:24.071Z</time>
      </trkpt>
      <trkpt lat="43.01032" lon="-1.17967833">
        <ele>965.0</ele>
        <time>2019-07-31T17:13:25.073Z</time>
      </trkpt>
      <trkpt lat="43.01032" lon="-1.17967833">
        <ele>965.0</ele>
        <time>2019-07-31T17:13:26.078Z</time>
      </trkpt>
      <trkpt lat="43.01031" lon="-1.17967833">
        <ele>964.0</ele>
        <time>2019-07-31T17:13:27.084Z</time>
      </trkpt>
      <trkpt lat="43.010305" lon="-1.17968">
        <ele>964.0</ele>
        <time>2019-07-31T17:13:28.091Z</time>
      </trkpt>
      <trkpt lat="43.01029833" lon="-1.17968">
        <ele>964.0</ele>
        <time>2019-07-31T17:13:29.092Z</time>
      </trkpt>
      <trkpt lat="43.010295" lon="-1.17967833">
        <ele>964.0</ele>
        <time>2019-07-31T17:13:30.097Z</time>
      </trkpt>
      <trkpt lat="43.01029167" lon="-1.17967667">
        <ele>965.0</ele>
        <time>2019-07-31T17:13:31.103Z</time>
      </trkpt>
      <trkpt lat="43.01029" lon="-1.17967667">
        <ele>965.0</ele>
        <time>2019-07-31T17:13:32.110Z</time>
      </trkpt>
      <trkpt lat="43.01029167" lon="-1.17967833">
        <ele>965.0</ele>
        <time>2019-07-31T17:13:33.116Z</time>
      </trkpt>
      <trkpt lat="43.010285" lon="-1.179675">
        <ele>965.0</ele>
        <time>2019-07-31T17:13:34.120Z</time>
      </trkpt>
      <trkpt lat="43.01027833" lon="-1.17967">
        <ele>965.0</ele>
        <time>2019-07-31T17:13:35.128Z</time>
      </trkpt>
      <trkpt lat="43.010275" lon="-1.17966667">
        <ele>965.0</ele>
        <time>2019-07-31T17:13:36.133Z</time>
      </trkpt>
      <trkpt lat="43.010275" lon="-1.17966167">
        <ele>965.0</ele>
        <time>2019-07-31T17:13:37.138Z</time>
      </trkpt>
      <trkpt lat="43.01028" lon="-1.17966167">
        <ele>966.0</ele>
        <time>2019-07-31T17:13:38.144Z</time>
      </trkpt>
      <trkpt lat="43.010285" lon="-1.17965667">
        <ele>966.0</ele>
        <time>2019-07-31T17:13:39.149Z</time>
      </trkpt>
      <trkpt lat="43.01028667" lon="-1.17965">
        <ele>966.0</ele>
        <time>2019-07-31T17:13:40.154Z</time>
      </trkpt>
      <trkpt lat="43.01029" lon="-1.17964833">
        <ele>966.0</ele>
        <time>2019-07-31T17:13:41.159Z</time>
      </trkpt>
      <trkpt lat="43.01029333" lon="-1.17964333">
        <ele>966.0</ele>
        <time>2019-07-31T17:13:42.164Z</time>
      </trkpt>
      <trkpt lat="43.01029833" lon="-1.179645">
        <ele>966.0</ele>
        <time>2019-07-31T17:13:43.167Z</time>
      </trkpt>
      <trkpt lat="43.0103" lon="-1.17964167">
        <ele>966.0</ele>
        <time>2019-07-31T17:13:44.171Z</time>
      </trkpt>
      <trkpt lat="43.01029333" lon="-1.17964">
        <ele>968.0</ele>
        <time>2019-07-31T17:13:45.176Z</time>
      </trkpt>
      <trkpt lat="43.01029" lon="-1.17963833">
        <ele>969.0</ele>
        <time>2019-07-31T17:13:46.181Z</time>
      </trkpt>
      <trkpt lat="43.01028167" lon="-1.179635">
        <ele>971.0</ele>
        <time>2019-07-31T17:13:47.186Z</time>
      </trkpt>
      <trkpt lat="43.01028167" lon="-1.179635">
        <ele>971.0</ele>
        <time>2019-07-31T17:13:48.067Z</time>
      </trkpt>
      <trkpt lat="43.01028" lon="-1.17963333">
        <ele>971.0</ele>
        <time>2019-07-31T17:13:49.073Z</time>
      </trkpt>
      <trkpt lat="43.01027333" lon="-1.179625">
        <ele>971.0</ele>
        <time>2019-07-31T17:13:50.078Z</time>
      </trkpt>
      <trkpt lat="43.01027" lon="-1.17961667">
        <ele>972.0</ele>
        <time>2019-07-31T17:13:51.083Z</time>
      </trkpt>
      <trkpt lat="43.01027833" lon="-1.17961667">
        <ele>972.0</ele>
        <time>2019-07-31T17:13:52.090Z</time>
      </trkpt>
      <trkpt lat="43.01029" lon="-1.17962">
        <ele>972.0</ele>
        <time>2019-07-31T17:13:53.093Z</time>
      </trkpt>
      <trkpt lat="43.01030167" lon="-1.179625">
        <ele>973.0</ele>
        <time>2019-07-31T17:13:54.096Z</time>
      </trkpt>
      <trkpt lat="43.01031167" lon="-1.17962833">
        <ele>973.0</ele>
        <time>2019-07-31T17:13:55.099Z</time>
      </trkpt>
      <trkpt lat="43.01032" lon="-1.17963167">
        <ele>974.0</ele>
        <time>2019-07-31T17:13:56.105Z</time>
      </trkpt>
      <trkpt lat="43.01032667" lon="-1.17963833">
        <ele>974.0</ele>
        <time>2019-07-31T17:13:57.110Z</time>
      </trkpt>
      <trkpt lat="43.01033167" lon="-1.17964167">
        <ele>975.0</ele>
        <time>2019-07-31T17:13:58.119Z</time>
      </trkpt>
      <trkpt lat="43.01032167" lon="-1.17964">
        <ele>976.0</ele>
        <time>2019-07-31T17:13:59.126Z</time>
      </trkpt>
      <trkpt lat="43.01031333" lon="-1.17964167">
        <ele>977.0</ele>
        <time>2019-07-31T17:14:00.132Z</time>
      </trkpt>
      <trkpt lat="43.01031833" lon="-1.17965">
        <ele>977.0</ele>
        <time>2019-07-31T17:14:01.137Z</time>
      </trkpt>
      <trkpt lat="43.01032" lon="-1.17966333">
        <ele>977.0</ele>
        <time>2019-07-31T17:14:02.142Z</time>
      </trkpt>
      <trkpt lat="43.01033" lon="-1.17967833">
        <ele>977.0</ele>
        <time>2019-07-31T17:14:03.147Z</time>
      </trkpt>
      <trkpt lat="43.010345" lon="-1.179695">
        <ele>978.0</ele>
        <time>2019-07-31T17:14:04.154Z</time>
      </trkpt>
      <trkpt lat="43.01035833" lon="-1.17971167">
        <ele>978.0</ele>
        <time>2019-07-31T17:14:05.158Z</time>
      </trkpt>
      <trkpt lat="43.01036667" lon="-1.17972833">
        <ele>979.0</ele>
        <time>2019-07-31T17:14:06.163Z</time>
      </trkpt>
      <trkpt lat="43.01037333" lon="-1.17974">
        <ele>979.0</ele>
        <time>2019-07-31T17:14:07.169Z</time>
      </trkpt>
      <trkpt lat="43.01038667" lon="-1.17975333">
        <ele>979.0</ele>
        <time>2019-07-31T17:14:08.175Z</time>
      </trkpt>
      <trkpt lat="43.01039333" lon="-1.17976167">
        <ele>979.0</ele>
        <time>2019-07-31T17:14:09.182Z</time>
      </trkpt>
      <trkpt lat="43.01039333" lon="-1.17976167">
        <ele>979.0</ele>
        <time>2019-07-31T17:14:10.062Z</time>
      </trkpt>
      <trkpt lat="43.01039" lon="-1.17976167">
        <ele>981.0</ele>
        <time>2019-07-31T17:14:11.068Z</time>
      </trkpt>
      <trkpt lat="43.01038667" lon="-1.17975833">
        <ele>982.0</ele>
        <time>2019-07-31T17:14:12.072Z</time>
      </trkpt>
      <trkpt lat="43.01037667" lon="-1.17974833">
        <ele>984.0</ele>
        <time>2019-07-31T17:14:13.076Z</time>
      </trkpt>
      <trkpt lat="43.01036" lon="-1.17973333">
        <ele>985.0</ele>
        <time>2019-07-31T17:14:14.082Z</time>
      </trkpt>
      <trkpt lat="43.01035333" lon="-1.17972833">
        <ele>985.0</ele>
        <time>2019-07-31T17:14:15.089Z</time>
      </trkpt>
      <trkpt lat="43.01034167" lon="-1.17971833">
        <ele>986.0</ele>
        <time>2019-07-31T17:14:16.094Z</time>
      </trkpt>
      <trkpt lat="43.010335" lon="-1.17970833">
        <ele>986.0</ele>
        <time>2019-07-31T17:14:17.098Z</time>
      </trkpt>
      <trkpt lat="43.01033" lon="-1.17970167">
        <ele>987.0</ele>
        <time>2019-07-31T17:14:18.104Z</time>
      </trkpt>
      <trkpt lat="43.01032667" lon="-1.17969667">
        <ele>987.0</ele>
        <time>2019-07-31T17:14:19.108Z</time>
      </trkpt>
      <trkpt lat="43.010325" lon="-1.17968667">
        <ele>988.0</ele>
        <time>2019-07-31T17:14:20.114Z</time>
      </trkpt>
      <trkpt lat="43.01032833" lon="-1.17968167">
        <ele>988.0</ele>
        <time>2019-07-31T17:14:21.119Z</time>
      </trkpt>
      <trkpt lat="43.01033167" lon="-1.17967833">
        <ele>989.0</ele>
        <time>2019-07-31T17:14:22.125Z</time>
      </trkpt>
      <trkpt lat="43.01033667" lon="-1.17967333">
        <ele>990.0</ele>
        <time>2019-07-31T17:14:23.131Z</time>
      </trkpt>
      <trkpt lat="43.01033833" lon="-1.17967">
        <ele>991.0</ele>
        <time>2019-07-31T17:14:24.134Z</time>
      </trkpt>
      <trkpt lat="43.01033833" lon="-1.17966667">
        <ele>991.0</ele>
        <time>2019-07-31T17:14:25.138Z</time>
      </trkpt>
      <trkpt lat="43.01034" lon="-1.17967">
        <ele>991.0</ele>
        <time>2019-07-31T17:14:26.145Z</time>
      </trkpt>
      <trkpt lat="43.01034167" lon="-1.17967167">
        <ele>991.0</ele>
        <time>2019-07-31T17:14:27.149Z</time>
      </trkpt>
      <trkpt lat="43.01033667" lon="-1.17967">
        <ele>992.0</ele>
        <time>2019-07-31T17:14:28.152Z</time>
      </trkpt>
      <trkpt lat="43.010335" lon="-1.17967">
        <ele>993.0</ele>
        <time>2019-07-31T17:14:29.160Z</time>
      </trkpt>
      <trkpt lat="43.01033333" lon="-1.17966833">
        <ele>993.0</ele>
        <time>2019-07-31T17:14:30.167Z</time>
      </trkpt>
      <trkpt lat="43.01033333" lon="-1.17967">
        <ele>993.0</ele>
        <time>2019-07-31T17:14:31.172Z</time>
      </trkpt>
      <trkpt lat="43.01032833" lon="-1.17967">
        <ele>992.0</ele>
        <time>2019-07-31T17:14:32.177Z</time>
      </trkpt>
      <trkpt lat="43.01033" lon="-1.17967333">
        <ele>992.0</ele>
        <time>2019-07-31T17:14:33.183Z</time>
      </trkpt>
      <trkpt lat="43.01033" lon="-1.17967333">
        <ele>992.0</ele>
        <time>2019-07-31T17:14:34.061Z</time>
      </trkpt>
      <trkpt lat="43.01032833" lon="-1.17967667">
        <ele>991.0</ele>
        <time>2019-07-31T17:14:35.066Z</time>
      </trkpt>
      <trkpt lat="43.01032833" lon="-1.17967667">
        <ele>991.0</ele>
        <time>2019-07-31T17:14:36.072Z</time>
      </trkpt>
      <trkpt lat="43.01033" lon="-1.17967667">
        <ele>991.0</ele>
        <time>2019-07-31T17:14:37.077Z</time>
      </trkpt>
      <trkpt lat="43.01033167" lon="-1.179685">
        <ele>990.0</ele>
        <time>2019-07-31T17:14:38.084Z</time>
      </trkpt>
      <trkpt lat="43.01032833" lon="-1.17968667">
        <ele>990.0</ele>
        <time>2019-07-31T17:14:39.089Z</time>
      </trkpt>
      <trkpt lat="43.01033" lon="-1.179685">
        <ele>990.0</ele>
        <time>2019-07-31T17:14:40.094Z</time>
      </trkpt>
      <trkpt lat="43.01033167" lon="-1.179685">
        <ele>990.0</ele>
        <time>2019-07-31T17:14:41.100Z</time>
      </trkpt>
      <trkpt lat="43.01033167" lon="-1.17968667">
        <ele>990.0</ele>
        <time>2019-07-31T17:14:42.106Z</time>
      </trkpt>
      <trkpt lat="43.01033167" lon="-1.17968667">
        <ele>989.0</ele>
        <time>2019-07-31T17:14:43.113Z</time>
      </trkpt>
      <trkpt lat="43.01033333" lon="-1.17968833">
        <ele>989.0</ele>
        <time>2019-07-31T17:14:44.118Z</time>
      </trkpt>
      <trkpt lat="43.01033333" lon="-1.17969">
        <ele>989.0</ele>
        <time>2019-07-31T17:14:45.124Z</time>
      </trkpt>
      <trkpt lat="43.01033167" lon="-1.17969333">
        <ele>989.0</ele>
        <time>2019-07-31T17:14:46.130Z</time>
      </trkpt>
      <trkpt lat="43.01033167" lon="-1.17969333">
        <ele>988.0</ele>
        <time>2019-07-31T17:14:47.133Z</time>
      </trkpt>
      <trkpt lat="43.01033" lon="-1.17969333">
        <ele>988.0</ele>
        <time>2019-07-31T17:14:48.137Z</time>
      </trkpt>
      <trkpt lat="43.01032667" lon="-1.17969">
        <ele>988.0</ele>
        <time>2019-07-31T17:14:49.144Z</time>
      </trkpt>
      <trkpt lat="43.01032667" lon="-1.17968667">
        <ele>987.0</ele>
        <time>2019-07-31T17:14:50.149Z</time>
      </trkpt>
      <trkpt lat="43.01032667" lon="-1.17968833">
        <ele>987.0</ele>
        <time>2019-07-31T17:14:51.155Z</time>
      </trkpt>
      <trkpt lat="43.010325" lon="-1.17969167">
        <ele>986.0</ele>
        <time>2019-07-31T17:14:52.161Z</time>
      </trkpt>
      <trkpt lat="43.01032333" lon="-1.17969333">
        <ele>985.0</ele>
        <time>2019-07-31T17:14:53.168Z</time>
      </trkpt>
      <trkpt lat="43.01032333" lon="-1.179695">
        <ele>984.0</ele>
        <time>2019-07-31T17:14:54.172Z</time>
      </trkpt>
      <trkpt lat="43.01032167" lon="-1.179695">
        <ele>984.0</ele>
        <time>2019-07-31T17:14:55.176Z</time>
      </trkpt>
      <trkpt lat="43.01032333" lon="-1.17969333">
        <ele>983.0</ele>
        <time>2019-07-31T17:14:56.181Z</time>
      </trkpt>
      <trkpt lat="43.010325" lon="-1.17969333">
        <ele>983.0</ele>
        <time>2019-07-31T17:14:57.185Z</time>
      </trkpt>
      <trkpt lat="43.010325" lon="-1.17969333">
        <ele>983.0</ele>
        <time>2019-07-31T17:14:58.063Z</time>
      </trkpt>
      <trkpt lat="43.01032833" lon="-1.17969667">
        <ele>983.0</ele>
        <time>2019-07-31T17:14:59.069Z</time>
      </trkpt>
      <trkpt lat="43.01033" lon="-1.1797">
        <ele>983.0</ele>
        <time>2019-07-31T17:15:00.073Z</time>
      </trkpt>
      <trkpt lat="43.010335" lon="-1.17970167">
        <ele>983.0</ele>
        <time>2019-07-31T17:15:01.079Z</time>
      </trkpt>
      <trkpt lat="43.01033667" lon="-1.179705">
        <ele>982.0</ele>
        <time>2019-07-31T17:15:02.084Z</time>
      </trkpt>
      <trkpt lat="43.01034333" lon="-1.179705">
        <ele>981.0</ele>
        <time>2019-07-31T17:15:03.085Z</time>
      </trkpt>
      <trkpt lat="43.01035" lon="-1.17970667">
        <ele>981.0</ele>
        <time>2019-07-31T17:15:04.089Z</time>
      </trkpt>
      <trkpt lat="43.01035167" lon="-1.17971333">
        <ele>980.0</ele>
        <time>2019-07-31T17:15:05.096Z</time>
      </trkpt>
      <trkpt lat="43.01035" lon="-1.17971667">
        <ele>980.0</ele>
        <time>2019-07-31T17:15:06.101Z</time>
      </trkpt>
      <trkpt lat="43.01034667" lon="-1.17971667">
        <ele>980.0</ele>
        <time>2019-07-31T17:15:07.107Z</time>
      </trkpt>
      <trkpt lat="43.01034667" lon="-1.17971667">
        <ele>980.0</ele>
        <time>2019-07-31T17:15:08.112Z</time>
      </trkpt>
      <trkpt lat="43.01034333" lon="-1.179715">
        <ele>980.0</ele>
        <time>2019-07-31T17:15:09.115Z</time>
      </trkpt>
      <trkpt lat="43.01034333" lon="-1.17971333">
        <ele>980.0</ele>
        <time>2019-07-31T17:15:10.120Z</time>
      </trkpt>
      <trkpt lat="43.01034333" lon="-1.179715">
        <ele>980.0</ele>
        <time>2019-07-31T17:15:11.125Z</time>
      </trkpt>
      <trkpt lat="43.010345" lon="-1.17971333">
        <ele>980.0</ele>
        <time>2019-07-31T17:15:12.131Z</time>
      </trkpt>
      <trkpt lat="43.01034667" lon="-1.179715">
        <ele>980.0</ele>
        <time>2019-07-31T17:15:13.134Z</time>
      </trkpt>
      <trkpt lat="43.01034667" lon="-1.17971667">
        <ele>980.0</ele>
        <time>2019-07-31T17:15:14.138Z</time>
      </trkpt>
      <trkpt lat="43.01034833" lon="-1.17971667">
        <ele>980.0</ele>
        <time>2019-07-31T17:15:15.143Z</time>
      </trkpt>
      <trkpt lat="43.01035" lon="-1.17971667">
        <ele>979.0</ele>
        <time>2019-07-31T17:15:16.149Z</time>
      </trkpt>
      <trkpt lat="43.01035" lon="-1.17971833">
        <ele>979.0</ele>
        <time>2019-07-31T17:15:17.155Z</time>
      </trkpt>
      <trkpt lat="43.01035" lon="-1.17972167">
        <ele>979.0</ele>
        <time>2019-07-31T17:15:18.162Z</time>
      </trkpt>
      <trkpt lat="43.01034833" lon="-1.17972167">
        <ele>979.0</ele>
        <time>2019-07-31T17:15:19.169Z</time>
      </trkpt>
      <trkpt lat="43.01035167" lon="-1.17972333">
        <ele>979.0</ele>
        <time>2019-07-31T17:15:20.175Z</time>
      </trkpt>
      <trkpt lat="43.01035167" lon="-1.179725">
        <ele>979.0</ele>
        <time>2019-07-31T17:15:21.178Z</time>
      </trkpt>
      <trkpt lat="43.01035333" lon="-1.17972833">
        <ele>978.0</ele>
        <time>2019-07-31T17:15:22.183Z</time>
      </trkpt>
      <trkpt lat="43.01035333" lon="-1.17972833">
        <ele>978.0</ele>
        <time>2019-07-31T17:15:23.062Z</time>
      </trkpt>
      <trkpt lat="43.010355" lon="-1.17973167">
        <ele>978.0</ele>
        <time>2019-07-31T17:15:24.069Z</time>
      </trkpt>
      <trkpt lat="43.01035833" lon="-1.17973167">
        <ele>978.0</ele>
        <time>2019-07-31T17:15:25.076Z</time>
      </trkpt>
      <trkpt lat="43.01035833" lon="-1.17973">
        <ele>978.0</ele>
        <time>2019-07-31T17:15:26.083Z</time>
      </trkpt>
      <trkpt lat="43.01035667" lon="-1.17972833">
        <ele>978.0</ele>
        <time>2019-07-31T17:15:27.090Z</time>
      </trkpt>
      <trkpt lat="43.010355" lon="-1.17972833">
        <ele>978.0</ele>
        <time>2019-07-31T17:15:28.095Z</time>
      </trkpt>
      <trkpt lat="43.01035167" lon="-1.17973">
        <ele>978.0</ele>
        <time>2019-07-31T17:15:29.101Z</time>
      </trkpt>
      <trkpt lat="43.01035167" lon="-1.17973">
        <ele>978.0</ele>
        <time>2019-07-31T17:15:30.106Z</time>
      </trkpt>
      <trkpt lat="43.01035167" lon="-1.17973">
        <ele>978.0</ele>
        <time>2019-07-31T17:15:31.111Z</time>
      </trkpt>
      <trkpt lat="43.01035167" lon="-1.17972667">
        <ele>978.0</ele>
        <time>2019-07-31T17:15:32.117Z</time>
      </trkpt>
      <trkpt lat="43.010355" lon="-1.17972667">
        <ele>978.0</ele>
        <time>2019-07-31T17:15:33.123Z</time>
      </trkpt>
      <trkpt lat="43.010355" lon="-1.17972333">
        <ele>977.0</ele>
        <time>2019-07-31T17:15:34.130Z</time>
      </trkpt>
      <trkpt lat="43.01035833" lon="-1.17972333">
        <ele>977.0</ele>
        <time>2019-07-31T17:15:35.135Z</time>
      </trkpt>
      <trkpt lat="43.01036" lon="-1.179725">
        <ele>976.0</ele>
        <time>2019-07-31T17:15:36.141Z</time>
      </trkpt>
      <trkpt lat="43.01035833" lon="-1.17972667">
        <ele>976.0</ele>
        <time>2019-07-31T17:15:37.147Z</time>
      </trkpt>
      <trkpt lat="43.01035833" lon="-1.17972667">
        <ele>976.0</ele>
        <time>2019-07-31T17:15:38.153Z</time>
      </trkpt>
      <trkpt lat="43.01035833" lon="-1.17972667">
        <ele>976.0</ele>
        <time>2019-07-31T17:15:39.159Z</time>
      </trkpt>
      <trkpt lat="43.01036" lon="-1.179725">
        <ele>975.0</ele>
        <time>2019-07-31T17:15:40.164Z</time>
      </trkpt>
      <trkpt lat="43.01035833" lon="-1.17972167">
        <ele>975.0</ele>
        <time>2019-07-31T17:15:41.170Z</time>
      </trkpt>
      <trkpt lat="43.01036" lon="-1.179725">
        <ele>975.0</ele>
        <time>2019-07-31T17:15:42.175Z</time>
      </trkpt>
      <trkpt lat="43.01035833" lon="-1.17972667">
        <ele>975.0</ele>
        <time>2019-07-31T17:15:43.181Z</time>
      </trkpt>
      <trkpt lat="43.01035833" lon="-1.17972667">
        <ele>975.0</ele>
        <time>2019-07-31T17:15:44.061Z</time>
      </trkpt>
      <trkpt lat="43.010355" lon="-1.17972667">
        <ele>975.0</ele>
        <time>2019-07-31T17:15:45.067Z</time>
      </trkpt>
      <trkpt lat="43.010355" lon="-1.17972667">
        <ele>975.0</ele>
        <time>2019-07-31T17:15:46.071Z</time>
      </trkpt>
      <trkpt lat="43.01035667" lon="-1.17972667">
        <ele>975.0</ele>
        <time>2019-07-31T17:15:47.077Z</time>
      </trkpt>
      <trkpt lat="43.01035667" lon="-1.17973">
        <ele>975.0</ele>
        <time>2019-07-31T17:15:48.082Z</time>
      </trkpt>
      <trkpt lat="43.01035667" lon="-1.179725">
        <ele>975.0</ele>
        <time>2019-07-31T17:15:49.088Z</time>
      </trkpt>
      <trkpt lat="43.01035333" lon="-1.179725">
        <ele>975.0</ele>
        <time>2019-07-31T17:15:50.091Z</time>
      </trkpt>
      <trkpt lat="43.010355" lon="-1.17972333">
        <ele>976.0</ele>
        <time>2019-07-31T17:15:51.095Z</time>
      </trkpt>
      <trkpt lat="43.01035333" lon="-1.17972167">
        <ele>977.0</ele>
        <time>2019-07-31T17:15:52.100Z</time>
      </trkpt>
      <trkpt lat="43.01035333" lon="-1.17972">
        <ele>977.0</ele>
        <time>2019-07-31T17:15:53.104Z</time>
      </trkpt>
      <trkpt lat="43.010355" lon="-1.17971833">
        <ele>978.0</ele>
        <time>2019-07-31T17:15:54.111Z</time>
      </trkpt>
      <trkpt lat="43.01035167" lon="-1.179715">
        <ele>978.0</ele>
        <time>2019-07-31T17:15:55.118Z</time>
      </trkpt>
      <trkpt lat="43.01034833" lon="-1.179715">
        <ele>978.0</ele>
        <time>2019-07-31T17:15:56.124Z</time>
      </trkpt>
      <trkpt lat="43.01035" lon="-1.17971667">
        <ele>978.0</ele>
        <time>2019-07-31T17:15:57.128Z</time>
      </trkpt>
      <trkpt lat="43.01034667" lon="-1.17971833">
        <ele>978.0</ele>
        <time>2019-07-31T17:15:58.133Z</time>
      </trkpt>
      <trkpt lat="43.01034333" lon="-1.17972">
        <ele>978.0</ele>
        <time>2019-07-31T17:15:59.140Z</time>
      </trkpt>
      <trkpt lat="43.01034167" lon="-1.17972">
        <ele>979.0</ele>
        <time>2019-07-31T17:16:00.145Z</time>
      </trkpt>
      <trkpt lat="43.010345" lon="-1.17971833">
        <ele>979.0</ele>
        <time>2019-07-31T17:16:01.152Z</time>
      </trkpt>
      <trkpt lat="43.01035" lon="-1.17972">
        <ele>979.0</ele>
        <time>2019-07-31T17:16:02.159Z</time>
      </trkpt>
      <trkpt lat="43.01034833" lon="-1.17972">
        <ele>979.0</ele>
        <time>2019-07-31T17:16:03.166Z</time>
      </trkpt>
      <trkpt lat="43.01034167" lon="-1.17971833">
        <ele>978.0</ele>
        <time>2019-07-31T17:16:04.173Z</time>
      </trkpt>
      <trkpt lat="43.01034" lon="-1.179715">
        <ele>978.0</ele>
        <time>2019-07-31T17:16:05.176Z</time>
      </trkpt>
      <trkpt lat="43.01034667" lon="-1.17970333">
        <ele>979.0</ele>
        <time>2019-07-31T17:16:06.182Z</time>
      </trkpt>
      <trkpt lat="43.01034667" lon="-1.17970333">
        <ele>979.0</ele>
        <time>2019-07-31T17:16:07.061Z</time>
      </trkpt>
      <trkpt lat="43.01035167" lon="-1.17969167">
        <ele>979.0</ele>
        <time>2019-07-31T17:16:08.065Z</time>
      </trkpt>
      <trkpt lat="43.01036" lon="-1.17968">
        <ele>979.0</ele>
        <time>2019-07-31T17:16:09.072Z</time>
      </trkpt>
      <trkpt lat="43.01036667" lon="-1.17966833">
        <ele>980.0</ele>
        <time>2019-07-31T17:16:10.079Z</time>
      </trkpt>
      <trkpt lat="43.01037333" lon="-1.179655">
        <ele>980.0</ele>
        <time>2019-07-31T17:16:11.085Z</time>
      </trkpt>
      <trkpt lat="43.01037667" lon="-1.17962333">
        <ele>980.0</ele>
        <time>2019-07-31T17:16:12.091Z</time>
      </trkpt>
      <trkpt lat="43.01037833" lon="-1.17960667">
        <ele>980.0</ele>
        <time>2019-07-31T17:16:13.097Z</time>
      </trkpt>
      <trkpt lat="43.010375" lon="-1.17959">
        <ele>980.0</ele>
        <time>2019-07-31T17:16:14.103Z</time>
      </trkpt>
      <trkpt lat="43.01037" lon="-1.17957833">
        <ele>979.0</ele>
        <time>2019-07-31T17:16:15.109Z</time>
      </trkpt>
      <trkpt lat="43.01036167" lon="-1.17957167">
        <ele>978.0</ele>
        <time>2019-07-31T17:16:16.114Z</time>
      </trkpt>
      <trkpt lat="43.01035" lon="-1.17957167">
        <ele>978.0</ele>
        <time>2019-07-31T17:16:17.121Z</time>
      </trkpt>
      <trkpt lat="43.01033833" lon="-1.17957167">
        <ele>978.0</ele>
        <time>2019-07-31T17:16:18.126Z</time>
      </trkpt>
      <trkpt lat="43.010325" lon="-1.17957333">
        <ele>977.0</ele>
        <time>2019-07-31T17:16:19.133Z</time>
      </trkpt>
      <trkpt lat="43.01031" lon="-1.17957833">
        <ele>977.0</ele>
        <time>2019-07-31T17:16:20.137Z</time>
      </trkpt>
      <trkpt lat="43.01029833" lon="-1.17958833">
        <ele>976.0</ele>
        <time>2019-07-31T17:16:21.141Z</time>
      </trkpt>
      <trkpt lat="43.01028667" lon="-1.1796">
        <ele>976.0</ele>
        <time>2019-07-31T17:16:22.148Z</time>
      </trkpt>
      <trkpt lat="43.010275" lon="-1.179615">
        <ele>976.0</ele>
        <time>2019-07-31T17:16:23.153Z</time>
      </trkpt>
      <trkpt lat="43.01027" lon="-1.17963333">
        <ele>975.0</ele>
        <time>2019-07-31T17:16:24.159Z</time>
      </trkpt>
      <trkpt lat="43.01027167" lon="-1.17965833">
        <ele>976.0</ele>
        <time>2019-07-31T17:16:25.165Z</time>
      </trkpt>
      <trkpt lat="43.01027333" lon="-1.17967667">
        <ele>976.0</ele>
        <time>2019-07-31T17:16:26.171Z</time>
      </trkpt>
      <trkpt lat="43.01027667" lon="-1.17969833">
        <ele>976.0</ele>
        <time>2019-07-31T17:16:27.176Z</time>
      </trkpt>
      <trkpt lat="43.01028167" lon="-1.17972333">
        <ele>975.0</ele>
        <time>2019-07-31T17:16:28.182Z</time>
      </trkpt>
      <trkpt lat="43.01028167" lon="-1.17972333">
        <ele>975.0</ele>
        <time>2019-07-31T17:16:29.061Z</time>
      </trkpt>
      <trkpt lat="43.01028667" lon="-1.17974333">
        <ele>975.0</ele>
        <time>2019-07-31T17:16:30.063Z</time>
      </trkpt>
      <trkpt lat="43.01029" lon="-1.17976">
        <ele>974.0</ele>
        <time>2019-07-31T17:16:31.066Z</time>
      </trkpt>
      <trkpt lat="43.01029167" lon="-1.17978333">
        <ele>974.0</ele>
        <time>2019-07-31T17:16:32.071Z</time>
      </trkpt>
      <trkpt lat="43.01029333" lon="-1.179805">
        <ele>974.0</ele>
        <time>2019-07-31T17:16:33.076Z</time>
      </trkpt>
      <trkpt lat="43.010295" lon="-1.17982833">
        <ele>973.0</ele>
        <time>2019-07-31T17:16:34.079Z</time>
      </trkpt>
      <trkpt lat="43.0103" lon="-1.17985">
        <ele>973.0</ele>
        <time>2019-07-31T17:16:35.079Z</time>
      </trkpt>
      <trkpt lat="43.01030333" lon="-1.17987">
        <ele>973.0</ele>
        <time>2019-07-31T17:16:36.085Z</time>
      </trkpt>
      <trkpt lat="43.010315" lon="-1.179915">
        <ele>973.0</ele>
        <time>2019-07-31T17:16:37.091Z</time>
      </trkpt>
      <trkpt lat="43.01031833" lon="-1.17993667">
        <ele>973.0</ele>
        <time>2019-07-31T17:16:38.094Z</time>
      </trkpt>
      <trkpt lat="43.010325" lon="-1.17996">
        <ele>973.0</ele>
        <time>2019-07-31T17:16:39.099Z</time>
      </trkpt>
      <trkpt lat="43.01033333" lon="-1.17998333">
        <ele>973.0</ele>
        <time>2019-07-31T17:16:40.106Z</time>
      </trkpt>
      <trkpt lat="43.01034167" lon="-1.180005">
        <ele>973.0</ele>
        <time>2019-07-31T17:16:41.111Z</time>
      </trkpt>
      <trkpt lat="43.01034833" lon="-1.18002667">
        <ele>973.0</ele>
        <time>2019-07-31T17:16:42.117Z</time>
      </trkpt>
      <trkpt lat="43.01035333" lon="-1.180045">
        <ele>973.0</ele>
        <time>2019-07-31T17:16:43.124Z</time>
      </trkpt>
      <trkpt lat="43.01036333" lon="-1.18006833">
        <ele>972.0</ele>
        <time>2019-07-31T17:16:44.128Z</time>
      </trkpt>
      <trkpt lat="43.01037167" lon="-1.18009">
        <ele>972.0</ele>
        <time>2019-07-31T17:16:45.133Z</time>
      </trkpt>
      <trkpt lat="43.01037833" lon="-1.18010667">
        <ele>972.0</ele>
        <time>2019-07-31T17:16:46.141Z</time>
      </trkpt>
      <trkpt lat="43.01038333" lon="-1.180125">
        <ele>971.0</ele>
        <time>2019-07-31T17:16:47.147Z</time>
      </trkpt>
      <trkpt lat="43.01039" lon="-1.18014333">
        <ele>972.0</ele>
        <time>2019-07-31T17:16:48.152Z</time>
      </trkpt>
      <trkpt lat="43.01039833" lon="-1.18016">
        <ele>973.0</ele>
        <time>2019-07-31T17:16:49.158Z</time>
      </trkpt>
      <trkpt lat="43.01040333" lon="-1.18018167">
        <ele>974.0</ele>
        <time>2019-07-31T17:16:50.165Z</time>
      </trkpt>
      <trkpt lat="43.01041167" lon="-1.18019833">
        <ele>974.0</ele>
        <time>2019-07-31T17:16:51.169Z</time>
      </trkpt>
      <trkpt lat="43.01042" lon="-1.18021667">
        <ele>974.0</ele>
        <time>2019-07-31T17:16:52.175Z</time>
      </trkpt>
      <trkpt lat="43.01042833" lon="-1.180235">
        <ele>974.0</ele>
        <time>2019-07-31T17:16:53.178Z</time>
      </trkpt>
      <trkpt lat="43.01043667" lon="-1.18025">
        <ele>974.0</ele>
        <time>2019-07-31T17:16:54.182Z</time>
      </trkpt>
      <trkpt lat="43.01043667" lon="-1.18025">
        <ele>974.0</ele>
        <time>2019-07-31T17:16:55.063Z</time>
      </trkpt>
      <trkpt lat="43.01044667" lon="-1.18027">
        <ele>973.0</ele>
        <time>2019-07-31T17:16:56.068Z</time>
      </trkpt>
      <trkpt lat="43.01045667" lon="-1.18028667">
        <ele>973.0</ele>
        <time>2019-07-31T17:16:57.075Z</time>
      </trkpt>
      <trkpt lat="43.01046667" lon="-1.18030333">
        <ele>973.0</ele>
        <time>2019-07-31T17:16:58.082Z</time>
      </trkpt>
      <trkpt lat="43.01048833" lon="-1.18032833">
        <ele>973.0</ele>
        <time>2019-07-31T17:16:59.088Z</time>
      </trkpt>
      <trkpt lat="43.01049833" lon="-1.18034">
        <ele>973.0</ele>
        <time>2019-07-31T17:17:00.093Z</time>
      </trkpt>
      <trkpt lat="43.01051" lon="-1.18035167">
        <ele>973.0</ele>
        <time>2019-07-31T17:17:01.098Z</time>
      </trkpt>
      <trkpt lat="43.01052333" lon="-1.18036333">
        <ele>973.0</ele>
        <time>2019-07-31T17:17:02.103Z</time>
      </trkpt>
      <trkpt lat="43.01053667" lon="-1.18037167">
        <ele>973.0</ele>
        <time>2019-07-31T17:17:03.109Z</time>
      </trkpt>
      <trkpt lat="43.01055167" lon="-1.18037833">
        <ele>973.0</ele>
        <time>2019-07-31T17:17:04.117Z</time>
      </trkpt>
      <trkpt lat="43.01056833" lon="-1.18038333">
        <ele>972.0</ele>
        <time>2019-07-31T17:17:05.124Z</time>
      </trkpt>
      <trkpt lat="43.01058333" lon="-1.180385">
        <ele>972.0</ele>
        <time>2019-07-31T17:17:06.130Z</time>
      </trkpt>
      <trkpt lat="43.0106" lon="-1.180385">
        <ele>972.0</ele>
        <time>2019-07-31T17:17:07.133Z</time>
      </trkpt>
      <trkpt lat="43.010615" lon="-1.180385">
        <ele>971.0</ele>
        <time>2019-07-31T17:17:08.140Z</time>
      </trkpt>
      <trkpt lat="43.01062833" lon="-1.180385">
        <ele>971.0</ele>
        <time>2019-07-31T17:17:09.146Z</time>
      </trkpt>
      <trkpt lat="43.01064333" lon="-1.18038333">
        <ele>971.0</ele>
        <time>2019-07-31T17:17:10.153Z</time>
      </trkpt>
      <trkpt lat="43.01066" lon="-1.18038667">
        <ele>970.0</ele>
        <time>2019-07-31T17:17:11.158Z</time>
      </trkpt>
      <trkpt lat="43.010675" lon="-1.18039">
        <ele>970.0</ele>
        <time>2019-07-31T17:17:12.164Z</time>
      </trkpt>
      <trkpt lat="43.01069" lon="-1.18038833">
        <ele>969.0</ele>
        <time>2019-07-31T17:17:13.169Z</time>
      </trkpt>
      <trkpt lat="43.010705" lon="-1.18038667">
        <ele>969.0</ele>
        <time>2019-07-31T17:17:14.173Z</time>
      </trkpt>
      <trkpt lat="43.01072333" lon="-1.18038667">
        <ele>969.0</ele>
        <time>2019-07-31T17:17:15.175Z</time>
      </trkpt>
      <trkpt lat="43.01074" lon="-1.18038667">
        <ele>969.0</ele>
        <time>2019-07-31T17:17:16.181Z</time>
      </trkpt>
      <trkpt lat="43.01074" lon="-1.18038667">
        <ele>969.0</ele>
        <time>2019-07-31T17:17:17.061Z</time>
      </trkpt>
      <trkpt lat="43.01075667" lon="-1.18038833">
        <ele>968.0</ele>
        <time>2019-07-31T17:17:18.068Z</time>
      </trkpt>
      <trkpt lat="43.01077333" lon="-1.18038667">
        <ele>968.0</ele>
        <time>2019-07-31T17:17:19.075Z</time>
      </trkpt>
      <trkpt lat="43.01078667" lon="-1.18039">
        <ele>968.0</ele>
        <time>2019-07-31T17:17:20.081Z</time>
      </trkpt>
      <trkpt lat="43.01081833" lon="-1.18040167">
        <ele>967.0</ele>
        <time>2019-07-31T17:17:21.086Z</time>
      </trkpt>
      <trkpt lat="43.010835" lon="-1.180405">
        <ele>967.0</ele>
        <time>2019-07-31T17:17:22.091Z</time>
      </trkpt>
      <trkpt lat="43.01085333" lon="-1.18041167">
        <ele>967.0</ele>
        <time>2019-07-31T17:17:23.095Z</time>
      </trkpt>
      <trkpt lat="43.01087" lon="-1.18042">
        <ele>968.0</ele>
        <time>2019-07-31T17:17:24.102Z</time>
      </trkpt>
      <trkpt lat="43.01088333" lon="-1.18042833">
        <ele>967.0</ele>
        <time>2019-07-31T17:17:25.108Z</time>
      </trkpt>
      <trkpt lat="43.01089667" lon="-1.18043667">
        <ele>967.0</ele>
        <time>2019-07-31T17:17:26.114Z</time>
      </trkpt>
      <trkpt lat="43.01090833" lon="-1.18044667">
        <ele>967.0</ele>
        <time>2019-07-31T17:17:27.121Z</time>
      </trkpt>
      <trkpt lat="43.01092167" lon="-1.18045667">
        <ele>967.0</ele>
        <time>2019-07-31T17:17:28.127Z</time>
      </trkpt>
      <trkpt lat="43.010935" lon="-1.180465">
        <ele>966.0</ele>
        <time>2019-07-31T17:17:29.130Z</time>
      </trkpt>
      <trkpt lat="43.01094667" lon="-1.18047667">
        <ele>967.0</ele>
        <time>2019-07-31T17:17:30.133Z</time>
      </trkpt>
      <trkpt lat="43.01096" lon="-1.18048833">
        <ele>967.0</ele>
        <time>2019-07-31T17:17:31.138Z</time>
      </trkpt>
      <trkpt lat="43.01097" lon="-1.18050167">
        <ele>966.0</ele>
        <time>2019-07-31T17:17:32.144Z</time>
      </trkpt>
      <trkpt lat="43.01098" lon="-1.18051667">
        <ele>966.0</ele>
        <time>2019-07-31T17:17:33.151Z</time>
      </trkpt>
      <trkpt lat="43.01099167" lon="-1.18053333">
        <ele>966.0</ele>
        <time>2019-07-31T17:17:34.155Z</time>
      </trkpt>
      <trkpt lat="43.01100167" lon="-1.18055">
        <ele>966.0</ele>
        <time>2019-07-31T17:17:35.162Z</time>
      </trkpt>
      <trkpt lat="43.01101167" lon="-1.18056667">
        <ele>965.0</ele>
        <time>2019-07-31T17:17:36.167Z</time>
      </trkpt>
      <trkpt lat="43.01102" lon="-1.18058167">
        <ele>966.0</ele>
        <time>2019-07-31T17:17:37.173Z</time>
      </trkpt>
      <trkpt lat="43.01103167" lon="-1.180595">
        <ele>966.0</ele>
        <time>2019-07-31T17:17:38.177Z</time>
      </trkpt>
      <trkpt lat="43.01104167" lon="-1.18061167">
        <ele>965.0</ele>
        <time>2019-07-31T17:17:39.182Z</time>
      </trkpt>
      <trkpt lat="43.01104167" lon="-1.18061167">
        <ele>965.0</ele>
        <time>2019-07-31T17:17:40.061Z</time>
      </trkpt>
      <trkpt lat="43.01105" lon="-1.18062667">
        <ele>965.0</ele>
        <time>2019-07-31T17:17:41.067Z</time>
      </trkpt>
      <trkpt lat="43.01106333" lon="-1.18063833">
        <ele>965.0</ele>
        <time>2019-07-31T17:17:42.073Z</time>
      </trkpt>
      <trkpt lat="43.01107333" lon="-1.18065167">
        <ele>965.0</ele>
        <time>2019-07-31T17:17:43.076Z</time>
      </trkpt>
      <trkpt lat="43.01108167" lon="-1.18066333">
        <ele>964.0</ele>
        <time>2019-07-31T17:17:44.079Z</time>
      </trkpt>
      <trkpt lat="43.01109" lon="-1.18067667">
        <ele>964.0</ele>
        <time>2019-07-31T17:17:45.085Z</time>
      </trkpt>
      <trkpt lat="43.01110833" lon="-1.18070333">
        <ele>964.0</ele>
        <time>2019-07-31T17:17:46.090Z</time>
      </trkpt>
      <trkpt lat="43.01112" lon="-1.18071667">
        <ele>964.0</ele>
        <time>2019-07-31T17:17:47.094Z</time>
      </trkpt>
      <trkpt lat="43.01113" lon="-1.18072667">
        <ele>963.0</ele>
        <time>2019-07-31T17:17:48.101Z</time>
      </trkpt>
      <trkpt lat="43.01114167" lon="-1.18073833">
        <ele>964.0</ele>
        <time>2019-07-31T17:17:49.107Z</time>
      </trkpt>
      <trkpt lat="43.011155" lon="-1.18075">
        <ele>963.0</ele>
        <time>2019-07-31T17:17:50.112Z</time>
      </trkpt>
      <trkpt lat="43.01116667" lon="-1.18076333">
        <ele>963.0</ele>
        <time>2019-07-31T17:17:51.119Z</time>
      </trkpt>
      <trkpt lat="43.01118" lon="-1.18077333">
        <ele>963.0</ele>
        <time>2019-07-31T17:17:52.124Z</time>
      </trkpt>
      <trkpt lat="43.01119333" lon="-1.18078833">
        <ele>963.0</ele>
        <time>2019-07-31T17:17:53.129Z</time>
      </trkpt>
      <trkpt lat="43.01120667" lon="-1.1808">
        <ele>963.0</ele>
        <time>2019-07-31T17:17:54.134Z</time>
      </trkpt>
      <trkpt lat="43.01122" lon="-1.18081333">
        <ele>963.0</ele>
        <time>2019-07-31T17:17:55.136Z</time>
      </trkpt>
      <trkpt lat="43.01123167" lon="-1.18082667">
        <ele>963.0</ele>
        <time>2019-07-31T17:17:56.144Z</time>
      </trkpt>
      <trkpt lat="43.011245" lon="-1.18083833">
        <ele>963.0</ele>
        <time>2019-07-31T17:17:57.148Z</time>
      </trkpt>
      <trkpt lat="43.011255" lon="-1.180855">
        <ele>963.0</ele>
        <time>2019-07-31T17:17:58.153Z</time>
      </trkpt>
      <trkpt lat="43.011265" lon="-1.18087167">
        <ele>963.0</ele>
        <time>2019-07-31T17:17:59.156Z</time>
      </trkpt>
      <trkpt lat="43.011275" lon="-1.18088833">
        <ele>963.0</ele>
        <time>2019-07-31T17:18:00.161Z</time>
      </trkpt>
      <trkpt lat="43.01128667" lon="-1.18090833">
        <ele>963.0</ele>
        <time>2019-07-31T17:18:01.168Z</time>
      </trkpt>
      <trkpt lat="43.01129667" lon="-1.180925">
        <ele>963.0</ele>
        <time>2019-07-31T17:18:02.174Z</time>
      </trkpt>
      <trkpt lat="43.011305" lon="-1.18094167">
        <ele>963.0</ele>
        <time>2019-07-31T17:18:03.176Z</time>
      </trkpt>
      <trkpt lat="43.011315" lon="-1.18096">
        <ele>963.0</ele>
        <time>2019-07-31T17:18:04.181Z</time>
      </trkpt>
      <trkpt lat="43.01132333" lon="-1.18098">
        <ele>963.0</ele>
        <time>2019-07-31T17:18:05.184Z</time>
      </trkpt>
      <trkpt lat="43.01132333" lon="-1.18098">
        <ele>963.0</ele>
        <time>2019-07-31T17:18:06.064Z</time>
      </trkpt>
      <trkpt lat="43.01133" lon="-1.18099833">
        <ele>962.0</ele>
        <time>2019-07-31T17:18:07.069Z</time>
      </trkpt>
      <trkpt lat="43.011335" lon="-1.18101833">
        <ele>962.0</ele>
        <time>2019-07-31T17:18:08.073Z</time>
      </trkpt>
      <trkpt lat="43.01134167" lon="-1.18103833">
        <ele>962.0</ele>
        <time>2019-07-31T17:18:09.077Z</time>
      </trkpt>
      <trkpt lat="43.011345" lon="-1.18105833">
        <ele>962.0</ele>
        <time>2019-07-31T17:18:10.081Z</time>
      </trkpt>
      <trkpt lat="43.01134833" lon="-1.18108">
        <ele>962.0</ele>
        <time>2019-07-31T17:18:11.086Z</time>
      </trkpt>
      <trkpt lat="43.01134667" lon="-1.18112">
        <ele>962.0</ele>
        <time>2019-07-31T17:18:12.091Z</time>
      </trkpt>
      <trkpt lat="43.01134333" lon="-1.18114167">
        <ele>961.0</ele>
        <time>2019-07-31T17:18:13.095Z</time>
      </trkpt>
      <trkpt lat="43.01133833" lon="-1.18116">
        <ele>961.0</ele>
        <time>2019-07-31T17:18:14.098Z</time>
      </trkpt>
      <trkpt lat="43.01133167" lon="-1.181175">
        <ele>961.0</ele>
        <time>2019-07-31T17:18:15.103Z</time>
      </trkpt>
      <trkpt lat="43.01132333" lon="-1.18119">
        <ele>961.0</ele>
        <time>2019-07-31T17:18:16.109Z</time>
      </trkpt>
      <trkpt lat="43.01131167" lon="-1.1812">
        <ele>960.0</ele>
        <time>2019-07-31T17:18:17.115Z</time>
      </trkpt>
      <trkpt lat="43.0113" lon="-1.18121">
        <ele>960.0</ele>
        <time>2019-07-31T17:18:18.121Z</time>
      </trkpt>
      <trkpt lat="43.01128833" lon="-1.18121833">
        <ele>960.0</ele>
        <time>2019-07-31T17:18:19.128Z</time>
      </trkpt>
      <trkpt lat="43.01127167" lon="-1.18122333">
        <ele>959.0</ele>
        <time>2019-07-31T17:18:20.132Z</time>
      </trkpt>
      <trkpt lat="43.01125667" lon="-1.181225">
        <ele>960.0</ele>
        <time>2019-07-31T17:18:21.137Z</time>
      </trkpt>
      <trkpt lat="43.01124" lon="-1.18122167">
        <ele>960.0</ele>
        <time>2019-07-31T17:18:22.143Z</time>
      </trkpt>
      <trkpt lat="43.01122333" lon="-1.18121667">
        <ele>960.0</ele>
        <time>2019-07-31T17:18:23.148Z</time>
      </trkpt>
      <trkpt lat="43.01120667" lon="-1.18121167">
        <ele>960.0</ele>
        <time>2019-07-31T17:18:24.152Z</time>
      </trkpt>
      <trkpt lat="43.01119333" lon="-1.181205">
        <ele>960.0</ele>
        <time>2019-07-31T17:18:25.158Z</time>
      </trkpt>
      <trkpt lat="43.01118" lon="-1.18119333">
        <ele>960.0</ele>
        <time>2019-07-31T17:18:26.166Z</time>
      </trkpt>
      <trkpt lat="43.01116833" lon="-1.18118333">
        <ele>960.0</ele>
        <time>2019-07-31T17:18:27.173Z</time>
      </trkpt>
      <trkpt lat="43.011155" lon="-1.18117167">
        <ele>959.0</ele>
        <time>2019-07-31T17:18:28.176Z</time>
      </trkpt>
      <trkpt lat="43.01114167" lon="-1.18116">
        <ele>959.0</ele>
        <time>2019-07-31T17:18:29.180Z</time>
      </trkpt>
      <trkpt lat="43.01112833" lon="-1.18114667">
        <ele>959.0</ele>
        <time>2019-07-31T17:18:30.185Z</time>
      </trkpt>
      <trkpt lat="43.01112833" lon="-1.18114667">
        <ele>959.0</ele>
        <time>2019-07-31T17:18:31.065Z</time>
      </trkpt>
      <trkpt lat="43.011115" lon="-1.181135">
        <ele>959.0</ele>
        <time>2019-07-31T17:18:32.070Z</time>
      </trkpt>
      <trkpt lat="43.01110333" lon="-1.181125">
        <ele>959.0</ele>
        <time>2019-07-31T17:18:33.076Z</time>
      </trkpt>
      <trkpt lat="43.01109" lon="-1.18111167">
        <ele>959.0</ele>
        <time>2019-07-31T17:18:34.083Z</time>
      </trkpt>
      <trkpt lat="43.011075" lon="-1.1811">
        <ele>959.0</ele>
        <time>2019-07-31T17:18:35.090Z</time>
      </trkpt>
      <trkpt lat="43.011045" lon="-1.18107833">
        <ele>960.0</ele>
        <time>2019-07-31T17:18:36.093Z</time>
      </trkpt>
      <trkpt lat="43.01102833" lon="-1.18107">
        <ele>961.0</ele>
        <time>2019-07-31T17:18:37.099Z</time>
      </trkpt>
      <trkpt lat="43.01101333" lon="-1.181065">
        <ele>961.0</ele>
        <time>2019-07-31T17:18:38.102Z</time>
      </trkpt>
      <trkpt lat="43.01099667" lon="-1.18106667">
        <ele>960.0</ele>
        <time>2019-07-31T17:18:39.108Z</time>
      </trkpt>
      <trkpt lat="43.01098167" lon="-1.18106667">
        <ele>960.0</ele>
        <time>2019-07-31T17:18:40.116Z</time>
      </trkpt>
      <trkpt lat="43.01096667" lon="-1.18106333">
        <ele>961.0</ele>
        <time>2019-07-31T17:18:41.121Z</time>
      </trkpt>
      <trkpt lat="43.010945" lon="-1.18106">
        <ele>960.0</ele>
        <time>2019-07-31T17:18:42.128Z</time>
      </trkpt>
      <trkpt lat="43.01093" lon="-1.18106">
        <ele>960.0</ele>
        <time>2019-07-31T17:18:43.135Z</time>
      </trkpt>
      <trkpt lat="43.01091167" lon="-1.18106167">
        <ele>959.0</ele>
        <time>2019-07-31T17:18:44.140Z</time>
      </trkpt>
      <trkpt lat="43.01089833" lon="-1.18106667">
        <ele>959.0</ele>
        <time>2019-07-31T17:18:45.146Z</time>
      </trkpt>
      <trkpt lat="43.010885" lon="-1.181075">
        <ele>958.0</ele>
        <time>2019-07-31T17:18:46.152Z</time>
      </trkpt>
      <trkpt lat="43.01087167" lon="-1.18108333">
        <ele>957.0</ele>
        <time>2019-07-31T17:18:47.156Z</time>
      </trkpt>
      <trkpt lat="43.01085667" lon="-1.18109">
        <ele>957.0</ele>
        <time>2019-07-31T17:18:48.162Z</time>
      </trkpt>
      <trkpt lat="43.010845" lon="-1.1811">
        <ele>957.0</ele>
        <time>2019-07-31T17:18:49.168Z</time>
      </trkpt>
      <trkpt lat="43.010835" lon="-1.18111333">
        <ele>957.0</ele>
        <time>2019-07-31T17:18:50.173Z</time>
      </trkpt>
      <trkpt lat="43.01082333" lon="-1.181125">
        <ele>957.0</ele>
        <time>2019-07-31T17:18:51.177Z</time>
      </trkpt>
      <trkpt lat="43.01081167" lon="-1.18113667">
        <ele>957.0</ele>
        <time>2019-07-31T17:18:52.184Z</time>
      </trkpt>
      <trkpt lat="43.01081167" lon="-1.18113667">
        <ele>957.0</ele>
        <time>2019-07-31T17:18:53.062Z</time>
      </trkpt>
      <trkpt lat="43.0108" lon="-1.18114833">
        <ele>956.0</ele>
        <time>2019-07-31T17:18:54.065Z</time>
      </trkpt>
      <trkpt lat="43.01078667" lon="-1.18116167">
        <ele>956.0</ele>
        <time>2019-07-31T17:18:55.069Z</time>
      </trkpt>
      <trkpt lat="43.010775" lon="-1.18117333">
        <ele>957.0</ele>
        <time>2019-07-31T17:18:56.074Z</time>
      </trkpt>
      <trkpt lat="43.01076333" lon="-1.18119">
        <ele>957.0</ele>
        <time>2019-07-31T17:18:57.079Z</time>
      </trkpt>
      <trkpt lat="43.010755" lon="-1.18120667">
        <ele>957.0</ele>
        <time>2019-07-31T17:18:58.087Z</time>
      </trkpt>
      <trkpt lat="43.01074667" lon="-1.18122333">
        <ele>956.0</ele>
        <time>2019-07-31T17:18:59.090Z</time>
      </trkpt>
      <trkpt lat="43.01073" lon="-1.18125667">
        <ele>956.0</ele>
        <time>2019-07-31T17:19:00.094Z</time>
      </trkpt>
      <trkpt lat="43.01072" lon="-1.181275">
        <ele>956.0</ele>
        <time>2019-07-31T17:19:01.097Z</time>
      </trkpt>
      <trkpt lat="43.01071167" lon="-1.18129167">
        <ele>956.0</ele>
        <time>2019-07-31T17:19:02.101Z</time>
      </trkpt>
      <trkpt lat="43.010705" lon="-1.18131">
        <ele>955.0</ele>
        <time>2019-07-31T17:19:03.106Z</time>
      </trkpt>
      <trkpt lat="43.01069833" lon="-1.18132833">
        <ele>955.0</ele>
        <time>2019-07-31T17:19:04.110Z</time>
      </trkpt>
      <trkpt lat="43.01069" lon="-1.18134667">
        <ele>955.0</ele>
        <time>2019-07-31T17:19:05.114Z</time>
      </trkpt>
      <trkpt lat="43.01068167" lon="-1.18136667">
        <ele>955.0</ele>
        <time>2019-07-31T17:19:06.120Z</time>
      </trkpt>
      <trkpt lat="43.010675" lon="-1.181385">
        <ele>955.0</ele>
        <time>2019-07-31T17:19:07.125Z</time>
      </trkpt>
      <trkpt lat="43.01066833" lon="-1.18140167">
        <ele>954.0</ele>
        <time>2019-07-31T17:19:08.130Z</time>
      </trkpt>
      <trkpt lat="43.01066167" lon="-1.18141833">
        <ele>955.0</ele>
        <time>2019-07-31T17:19:09.136Z</time>
      </trkpt>
      <trkpt lat="43.010655" lon="-1.18143667">
        <ele>954.0</ele>
        <time>2019-07-31T17:19:10.141Z</time>
      </trkpt>
      <trkpt lat="43.01065" lon="-1.181455">
        <ele>954.0</ele>
        <time>2019-07-31T17:19:11.148Z</time>
      </trkpt>
      <trkpt lat="43.01064333" lon="-1.18147167">
        <ele>954.0</ele>
        <time>2019-07-31T17:19:12.154Z</time>
      </trkpt>
      <trkpt lat="43.01063667" lon="-1.18149167">
        <ele>954.0</ele>
        <time>2019-07-31T17:19:13.162Z</time>
      </trkpt>
      <trkpt lat="43.01063167" lon="-1.18151">
        <ele>954.0</ele>
        <time>2019-07-31T17:19:14.168Z</time>
      </trkpt>
      <trkpt lat="43.01062167" lon="-1.181525">
        <ele>954.0</ele>
        <time>2019-07-31T17:19:15.174Z</time>
      </trkpt>
      <trkpt lat="43.01061333" lon="-1.18154167">
        <ele>954.0</ele>
        <time>2019-07-31T17:19:16.178Z</time>
      </trkpt>
      <trkpt lat="43.01060833" lon="-1.18156">
        <ele>954.0</ele>
        <time>2019-07-31T17:19:17.184Z</time>
      </trkpt>
      <trkpt lat="43.01060833" lon="-1.18156">
        <ele>954.0</ele>
        <time>2019-07-31T17:19:18.064Z</time>
      </trkpt>
      <trkpt lat="43.01060333" lon="-1.18158">
        <ele>954.0</ele>
        <time>2019-07-31T17:19:19.071Z</time>
      </trkpt>
      <trkpt lat="43.01059833" lon="-1.1816">
        <ele>953.0</ele>
        <time>2019-07-31T17:19:20.077Z</time>
      </trkpt>
      <trkpt lat="43.010595" lon="-1.18162333">
        <ele>953.0</ele>
        <time>2019-07-31T17:19:21.083Z</time>
      </trkpt>
      <trkpt lat="43.01059" lon="-1.18164667">
        <ele>953.0</ele>
        <time>2019-07-31T17:19:22.088Z</time>
      </trkpt>
      <trkpt lat="43.01058333" lon="-1.181665">
        <ele>953.0</ele>
        <time>2019-07-31T17:19:23.092Z</time>
      </trkpt>
      <trkpt lat="43.010575" lon="-1.181705">
        <ele>953.0</ele>
        <time>2019-07-31T17:19:24.097Z</time>
      </trkpt>
      <trkpt lat="43.010575" lon="-1.18172667">
        <ele>953.0</ele>
        <time>2019-07-31T17:19:25.103Z</time>
      </trkpt>
      <trkpt lat="43.01057333" lon="-1.18175167">
        <ele>953.0</ele>
        <time>2019-07-31T17:19:26.108Z</time>
      </trkpt>
      <trkpt lat="43.010575" lon="-1.18177333">
        <ele>952.0</ele>
        <time>2019-07-31T17:19:27.114Z</time>
      </trkpt>
      <trkpt lat="43.010575" lon="-1.181795">
        <ele>952.0</ele>
        <time>2019-07-31T17:19:28.117Z</time>
      </trkpt>
      <trkpt lat="43.01057667" lon="-1.18181667">
        <ele>952.0</ele>
        <time>2019-07-31T17:19:29.121Z</time>
      </trkpt>
      <trkpt lat="43.01058" lon="-1.18183833">
        <ele>951.0</ele>
        <time>2019-07-31T17:19:30.127Z</time>
      </trkpt>
      <trkpt lat="43.01058167" lon="-1.18186">
        <ele>951.0</ele>
        <time>2019-07-31T17:19:31.132Z</time>
      </trkpt>
      <trkpt lat="43.01058333" lon="-1.18188">
        <ele>951.0</ele>
        <time>2019-07-31T17:19:32.135Z</time>
      </trkpt>
      <trkpt lat="43.01058667" lon="-1.181905">
        <ele>951.0</ele>
        <time>2019-07-31T17:19:33.141Z</time>
      </trkpt>
      <trkpt lat="43.01059167" lon="-1.18192833">
        <ele>950.0</ele>
        <time>2019-07-31T17:19:34.149Z</time>
      </trkpt>
      <trkpt lat="43.01059833" lon="-1.18195">
        <ele>950.0</ele>
        <time>2019-07-31T17:19:35.156Z</time>
      </trkpt>
      <trkpt lat="43.010605" lon="-1.18197333">
        <ele>950.0</ele>
        <time>2019-07-31T17:19:36.159Z</time>
      </trkpt>
      <trkpt lat="43.01061" lon="-1.181995">
        <ele>950.0</ele>
        <time>2019-07-31T17:19:37.166Z</time>
      </trkpt>
      <trkpt lat="43.01061667" lon="-1.18201833">
        <ele>950.0</ele>
        <time>2019-07-31T17:19:38.172Z</time>
      </trkpt>
      <trkpt lat="43.01062167" lon="-1.18203667">
        <ele>950.0</ele>
        <time>2019-07-31T17:19:39.176Z</time>
      </trkpt>
      <trkpt lat="43.01062833" lon="-1.18205833">
        <ele>950.0</ele>
        <time>2019-07-31T17:19:40.182Z</time>
      </trkpt>
      <trkpt lat="43.01062833" lon="-1.18205833">
        <ele>950.0</ele>
        <time>2019-07-31T17:19:41.061Z</time>
      </trkpt>
      <trkpt lat="43.01064" lon="-1.18208333">
        <ele>950.0</ele>
        <time>2019-07-31T17:19:42.067Z</time>
      </trkpt>
      <trkpt lat="43.010645" lon="-1.1821">
        <ele>950.0</ele>
        <time>2019-07-31T17:19:43.073Z</time>
      </trkpt>
      <trkpt lat="43.01065167" lon="-1.18211667">
        <ele>950.0</ele>
        <time>2019-07-31T17:19:44.080Z</time>
      </trkpt>
      <trkpt lat="43.01066167" lon="-1.18213833">
        <ele>950.0</ele>
        <time>2019-07-31T17:19:45.087Z</time>
      </trkpt>
      <trkpt lat="43.01067167" lon="-1.182155">
        <ele>949.0</ele>
        <time>2019-07-31T17:19:46.092Z</time>
      </trkpt>
      <trkpt lat="43.01068667" lon="-1.18219">
        <ele>949.0</ele>
        <time>2019-07-31T17:19:47.097Z</time>
      </trkpt>
      <trkpt lat="43.01069667" lon="-1.18221">
        <ele>949.0</ele>
        <time>2019-07-31T17:19:48.102Z</time>
      </trkpt>
      <trkpt lat="43.010705" lon="-1.18223167">
        <ele>949.0</ele>
        <time>2019-07-31T17:19:49.108Z</time>
      </trkpt>
      <trkpt lat="43.01071167" lon="-1.18225167">
        <ele>949.0</ele>
        <time>2019-07-31T17:19:50.114Z</time>
      </trkpt>
      <trkpt lat="43.01071833" lon="-1.18227333">
        <ele>949.0</ele>
        <time>2019-07-31T17:19:51.120Z</time>
      </trkpt>
      <trkpt lat="43.01072333" lon="-1.18229167">
        <ele>949.0</ele>
        <time>2019-07-31T17:19:52.125Z</time>
      </trkpt>
      <trkpt lat="43.01072833" lon="-1.18231333">
        <ele>949.0</ele>
        <time>2019-07-31T17:19:53.132Z</time>
      </trkpt>
      <trkpt lat="43.01073333" lon="-1.18233333">
        <ele>948.0</ele>
        <time>2019-07-31T17:19:54.136Z</time>
      </trkpt>
      <trkpt lat="43.01073667" lon="-1.18235167">
        <ele>948.0</ele>
        <time>2019-07-31T17:19:55.144Z</time>
      </trkpt>
      <trkpt lat="43.01074167" lon="-1.18237167">
        <ele>948.0</ele>
        <time>2019-07-31T17:19:56.149Z</time>
      </trkpt>
      <trkpt lat="43.01074833" lon="-1.18239333">
        <ele>948.0</ele>
        <time>2019-07-31T17:19:57.154Z</time>
      </trkpt>
      <trkpt lat="43.010755" lon="-1.18241167">
        <ele>947.0</ele>
        <time>2019-07-31T17:19:58.161Z</time>
      </trkpt>
      <trkpt lat="43.01076" lon="-1.18242833">
        <ele>947.0</ele>
        <time>2019-07-31T17:19:59.167Z</time>
      </trkpt>
      <trkpt lat="43.010765" lon="-1.18244833">
        <ele>947.0</ele>
        <time>2019-07-31T17:20:00.171Z</time>
      </trkpt>
      <trkpt lat="43.01077" lon="-1.18247">
        <ele>947.0</ele>
        <time>2019-07-31T17:20:01.175Z</time>
      </trkpt>
      <trkpt lat="43.010775" lon="-1.18249167">
        <ele>947.0</ele>
        <time>2019-07-31T17:20:02.180Z</time>
      </trkpt>
      <trkpt lat="43.01078167" lon="-1.18251333">
        <ele>947.0</ele>
        <time>2019-07-31T17:20:03.186Z</time>
      </trkpt>
      <trkpt lat="43.01078167" lon="-1.18251333">
        <ele>947.0</ele>
        <time>2019-07-31T17:20:04.067Z</time>
      </trkpt>
      <trkpt lat="43.01078833" lon="-1.18253333">
        <ele>947.0</ele>
        <time>2019-07-31T17:20:05.074Z</time>
      </trkpt>
      <trkpt lat="43.010795" lon="-1.18255333">
        <ele>946.0</ele>
        <time>2019-07-31T17:20:06.080Z</time>
      </trkpt>
      <trkpt lat="43.0108" lon="-1.18257167">
        <ele>946.0</ele>
        <time>2019-07-31T17:20:07.086Z</time>
      </trkpt>
      <trkpt lat="43.010805" lon="-1.18259167">
        <ele>946.0</ele>
        <time>2019-07-31T17:20:08.091Z</time>
      </trkpt>
      <trkpt lat="43.01081333" lon="-1.182635">
        <ele>946.0</ele>
        <time>2019-07-31T17:20:09.096Z</time>
      </trkpt>
      <trkpt lat="43.01081667" lon="-1.18265667">
        <ele>946.0</ele>
        <time>2019-07-31T17:20:10.101Z</time>
      </trkpt>
      <trkpt lat="43.01082" lon="-1.18267667">
        <ele>946.0</ele>
        <time>2019-07-31T17:20:11.106Z</time>
      </trkpt>
      <trkpt lat="43.010825" lon="-1.18270167">
        <ele>946.0</ele>
        <time>2019-07-31T17:20:12.111Z</time>
      </trkpt>
      <trkpt lat="43.01082833" lon="-1.18272167">
        <ele>946.0</ele>
        <time>2019-07-31T17:20:13.116Z</time>
      </trkpt>
      <trkpt lat="43.01083" lon="-1.182745">
        <ele>946.0</ele>
        <time>2019-07-31T17:20:14.120Z</time>
      </trkpt>
      <trkpt lat="43.010835" lon="-1.18276667">
        <ele>946.0</ele>
        <time>2019-07-31T17:20:15.124Z</time>
      </trkpt>
      <trkpt lat="43.01083667" lon="-1.18278667">
        <ele>946.0</ele>
        <time>2019-07-31T17:20:16.130Z</time>
      </trkpt>
      <trkpt lat="43.01084167" lon="-1.18281">
        <ele>946.0</ele>
        <time>2019-07-31T17:20:17.134Z</time>
      </trkpt>
      <trkpt lat="43.01084333" lon="-1.18283333">
        <ele>946.0</ele>
        <time>2019-07-31T17:20:18.138Z</time>
      </trkpt>
      <trkpt lat="43.01084833" lon="-1.18285667">
        <ele>946.0</ele>
        <time>2019-07-31T17:20:19.140Z</time>
      </trkpt>
      <trkpt lat="43.01085333" lon="-1.18287833">
        <ele>946.0</ele>
        <time>2019-07-31T17:20:20.143Z</time>
      </trkpt>
      <trkpt lat="43.01085833" lon="-1.18289833">
        <ele>946.0</ele>
        <time>2019-07-31T17:20:21.149Z</time>
      </trkpt>
      <trkpt lat="43.010865" lon="-1.18292333">
        <ele>946.0</ele>
        <time>2019-07-31T17:20:22.154Z</time>
      </trkpt>
      <trkpt lat="43.01087" lon="-1.18294667">
        <ele>945.0</ele>
        <time>2019-07-31T17:20:23.158Z</time>
      </trkpt>
      <trkpt lat="43.010875" lon="-1.18296833">
        <ele>945.0</ele>
        <time>2019-07-31T17:20:24.165Z</time>
      </trkpt>
      <trkpt lat="43.01087833" lon="-1.18299167">
        <ele>945.0</ele>
        <time>2019-07-31T17:20:25.172Z</time>
      </trkpt>
      <trkpt lat="43.01087833" lon="-1.18301">
        <ele>945.0</ele>
        <time>2019-07-31T17:20:26.175Z</time>
      </trkpt>
      <trkpt lat="43.01088" lon="-1.18303167">
        <ele>945.0</ele>
        <time>2019-07-31T17:20:27.182Z</time>
      </trkpt>
      <trkpt lat="43.01088" lon="-1.18303167">
        <ele>945.0</ele>
        <time>2019-07-31T17:20:28.063Z</time>
      </trkpt>
      <trkpt lat="43.01088167" lon="-1.18305333">
        <ele>945.0</ele>
        <time>2019-07-31T17:20:29.072Z</time>
      </trkpt>
      <trkpt lat="43.01088167" lon="-1.183075">
        <ele>945.0</ele>
        <time>2019-07-31T17:20:30.078Z</time>
      </trkpt>
      <trkpt lat="43.01088" lon="-1.18309833">
        <ele>945.0</ele>
        <time>2019-07-31T17:20:31.081Z</time>
      </trkpt>
      <trkpt lat="43.01088" lon="-1.18312167">
        <ele>945.0</ele>
        <time>2019-07-31T17:20:32.087Z</time>
      </trkpt>
      <trkpt lat="43.01087667" lon="-1.18314333">
        <ele>945.0</ele>
        <time>2019-07-31T17:20:33.091Z</time>
      </trkpt>
      <trkpt lat="43.01087167" lon="-1.18319167">
        <ele>945.0</ele>
        <time>2019-07-31T17:20:34.096Z</time>
      </trkpt>
      <trkpt lat="43.01086833" lon="-1.18321667">
        <ele>945.0</ele>
        <time>2019-07-31T17:20:35.103Z</time>
      </trkpt>
      <trkpt lat="43.01086667" lon="-1.18323833">
        <ele>945.0</ele>
        <time>2019-07-31T17:20:36.109Z</time>
      </trkpt>
      <trkpt lat="43.01086333" lon="-1.18325833">
        <ele>945.0</ele>
        <time>2019-07-31T17:20:37.114Z</time>
      </trkpt>
      <trkpt lat="43.01085667" lon="-1.18328">
        <ele>945.0</ele>
        <time>2019-07-31T17:20:38.119Z</time>
      </trkpt>
      <trkpt lat="43.01084833" lon="-1.18329833">
        <ele>946.0</ele>
        <time>2019-07-31T17:20:39.123Z</time>
      </trkpt>
      <trkpt lat="43.01084" lon="-1.18331667">
        <ele>946.0</ele>
        <time>2019-07-31T17:20:40.127Z</time>
      </trkpt>
      <trkpt lat="43.01083333" lon="-1.18333667">
        <ele>946.0</ele>
        <time>2019-07-31T17:20:41.133Z</time>
      </trkpt>
      <trkpt lat="43.01082833" lon="-1.18335833">
        <ele>946.0</ele>
        <time>2019-07-31T17:20:42.136Z</time>
      </trkpt>
      <trkpt lat="43.010825" lon="-1.18338">
        <ele>945.0</ele>
        <time>2019-07-31T17:20:43.142Z</time>
      </trkpt>
      <trkpt lat="43.01081833" lon="-1.18340167">
        <ele>945.0</ele>
        <time>2019-07-31T17:20:44.147Z</time>
      </trkpt>
      <trkpt lat="43.01081167" lon="-1.18342167">
        <ele>945.0</ele>
        <time>2019-07-31T17:20:45.153Z</time>
      </trkpt>
      <trkpt lat="43.01080333" lon="-1.18343833">
        <ele>945.0</ele>
        <time>2019-07-31T17:20:46.160Z</time>
      </trkpt>
      <trkpt lat="43.01079333" lon="-1.18345333">
        <ele>946.0</ele>
        <time>2019-07-31T17:20:47.167Z</time>
      </trkpt>
      <trkpt lat="43.010785" lon="-1.18347">
        <ele>946.0</ele>
        <time>2019-07-31T17:20:48.172Z</time>
      </trkpt>
      <trkpt lat="43.01077333" lon="-1.18348667">
        <ele>946.0</ele>
        <time>2019-07-31T17:20:49.178Z</time>
      </trkpt>
      <trkpt lat="43.01076667" lon="-1.18350667">
        <ele>946.0</ele>
        <time>2019-07-31T17:20:50.185Z</time>
      </trkpt>
      <trkpt lat="43.01076667" lon="-1.18350667">
        <ele>946.0</ele>
        <time>2019-07-31T17:20:51.064Z</time>
      </trkpt>
      <trkpt lat="43.01076167" lon="-1.18352667">
        <ele>946.0</ele>
        <time>2019-07-31T17:20:52.068Z</time>
      </trkpt>
      <trkpt lat="43.01075833" lon="-1.18355167">
        <ele>946.0</ele>
        <time>2019-07-31T17:20:53.072Z</time>
      </trkpt>
      <trkpt lat="43.01075333" lon="-1.183575">
        <ele>946.0</ele>
        <time>2019-07-31T17:20:54.078Z</time>
      </trkpt>
      <trkpt lat="43.010745" lon="-1.183595">
        <ele>945.0</ele>
        <time>2019-07-31T17:20:55.081Z</time>
      </trkpt>
      <trkpt lat="43.01073667" lon="-1.18362">
        <ele>945.0</ele>
        <time>2019-07-31T17:20:56.083Z</time>
      </trkpt>
      <trkpt lat="43.01073" lon="-1.18363667">
        <ele>945.0</ele>
        <time>2019-07-31T17:20:57.087Z</time>
      </trkpt>
      <trkpt lat="43.010725" lon="-1.18366">
        <ele>945.0</ele>
        <time>2019-07-31T17:20:58.090Z</time>
      </trkpt>
      <trkpt lat="43.01072167" lon="-1.18368333">
        <ele>945.0</ele>
        <time>2019-07-31T17:20:59.093Z</time>
      </trkpt>
      <trkpt lat="43.01071333" lon="-1.183735">
        <ele>945.0</ele>
        <time>2019-07-31T17:21:00.099Z</time>
      </trkpt>
      <trkpt lat="43.01071333" lon="-1.18375167">
        <ele>945.0</ele>
        <time>2019-07-31T17:21:01.104Z</time>
      </trkpt>
      <trkpt lat="43.01071667" lon="-1.18377667">
        <ele>945.0</ele>
        <time>2019-07-31T17:21:02.108Z</time>
      </trkpt>
      <trkpt lat="43.01071833" lon="-1.18380333">
        <ele>945.0</ele>
        <time>2019-07-31T17:21:03.113Z</time>
      </trkpt>
      <trkpt lat="43.01072333" lon="-1.18382167">
        <ele>945.0</ele>
        <time>2019-07-31T17:21:04.118Z</time>
      </trkpt>
      <trkpt lat="43.01072833" lon="-1.18384167">
        <ele>945.0</ele>
        <time>2019-07-31T17:21:05.125Z</time>
      </trkpt>
      <trkpt lat="43.01073333" lon="-1.18386">
        <ele>944.0</ele>
        <time>2019-07-31T17:21:06.131Z</time>
      </trkpt>
      <trkpt lat="43.01074167" lon="-1.18387833">
        <ele>944.0</ele>
        <time>2019-07-31T17:21:07.136Z</time>
      </trkpt>
      <trkpt lat="43.01075167" lon="-1.18389667">
        <ele>944.0</ele>
        <time>2019-07-31T17:21:08.139Z</time>
      </trkpt>
      <trkpt lat="43.01076333" lon="-1.18391833">
        <ele>943.0</ele>
        <time>2019-07-31T17:21:09.143Z</time>
      </trkpt>
      <trkpt lat="43.01077167" lon="-1.18393667">
        <ele>943.0</ele>
        <time>2019-07-31T17:21:10.147Z</time>
      </trkpt>
      <trkpt lat="43.01078" lon="-1.18395167">
        <ele>943.0</ele>
        <time>2019-07-31T17:21:11.153Z</time>
      </trkpt>
      <trkpt lat="43.01079333" lon="-1.18397">
        <ele>943.0</ele>
        <time>2019-07-31T17:21:12.157Z</time>
      </trkpt>
      <trkpt lat="43.01080667" lon="-1.18398667">
        <ele>942.0</ele>
        <time>2019-07-31T17:21:13.161Z</time>
      </trkpt>
      <trkpt lat="43.01081667" lon="-1.184">
        <ele>942.0</ele>
        <time>2019-07-31T17:21:14.164Z</time>
      </trkpt>
      <trkpt lat="43.01082833" lon="-1.184015">
        <ele>941.0</ele>
        <time>2019-07-31T17:21:15.168Z</time>
      </trkpt>
      <trkpt lat="43.01083833" lon="-1.18403333">
        <ele>942.0</ele>
        <time>2019-07-31T17:21:16.174Z</time>
      </trkpt>
      <trkpt lat="43.01085333" lon="-1.18405333">
        <ele>941.0</ele>
        <time>2019-07-31T17:21:17.180Z</time>
      </trkpt>
      <trkpt lat="43.01085333" lon="-1.18405333">
        <ele>941.0</ele>
        <time>2019-07-31T17:21:18.061Z</time>
      </trkpt>
      <trkpt lat="43.01086333" lon="-1.18406667">
        <ele>941.0</ele>
        <time>2019-07-31T17:21:19.067Z</time>
      </trkpt>
      <trkpt lat="43.01087667" lon="-1.184085">
        <ele>941.0</ele>
        <time>2019-07-31T17:21:20.073Z</time>
      </trkpt>
      <trkpt lat="43.01089" lon="-1.18410167">
        <ele>941.0</ele>
        <time>2019-07-31T17:21:21.078Z</time>
      </trkpt>
      <trkpt lat="43.0109" lon="-1.18411667">
        <ele>941.0</ele>
        <time>2019-07-31T17:21:22.083Z</time>
      </trkpt>
      <trkpt lat="43.010915" lon="-1.18413333">
        <ele>941.0</ele>
        <time>2019-07-31T17:21:23.088Z</time>
      </trkpt>
      <trkpt lat="43.01093" lon="-1.18415167">
        <ele>941.0</ele>
        <time>2019-07-31T17:21:24.091Z</time>
      </trkpt>
      <trkpt lat="43.01094" lon="-1.18416667">
        <ele>941.0</ele>
        <time>2019-07-31T17:21:25.094Z</time>
      </trkpt>
      <trkpt lat="43.01096" lon="-1.18419833">
        <ele>941.0</ele>
        <time>2019-07-31T17:21:26.098Z</time>
      </trkpt>
      <trkpt lat="43.010975" lon="-1.18422167">
        <ele>940.0</ele>
        <time>2019-07-31T17:21:27.104Z</time>
      </trkpt>
      <trkpt lat="43.01098167" lon="-1.18423667">
        <ele>941.0</ele>
        <time>2019-07-31T17:21:28.110Z</time>
      </trkpt>
      <trkpt lat="43.01098833" lon="-1.184255">
        <ele>941.0</ele>
        <time>2019-07-31T17:21:29.113Z</time>
      </trkpt>
      <trkpt lat="43.01099833" lon="-1.18427333">
        <ele>940.0</ele>
        <time>2019-07-31T17:21:30.117Z</time>
      </trkpt>
      <trkpt lat="43.01100833" lon="-1.18429167">
        <ele>941.0</ele>
        <time>2019-07-31T17:21:31.123Z</time>
      </trkpt>
      <trkpt lat="43.01101667" lon="-1.18431">
        <ele>941.0</ele>
        <time>2019-07-31T17:21:32.128Z</time>
      </trkpt>
      <trkpt lat="43.01102833" lon="-1.18432833">
        <ele>941.0</ele>
        <time>2019-07-31T17:21:33.133Z</time>
      </trkpt>
      <trkpt lat="43.01104" lon="-1.184345">
        <ele>941.0</ele>
        <time>2019-07-31T17:21:34.139Z</time>
      </trkpt>
      <trkpt lat="43.01105" lon="-1.18436167">
        <ele>941.0</ele>
        <time>2019-07-31T17:21:35.146Z</time>
      </trkpt>
      <trkpt lat="43.01105833" lon="-1.18438167">
        <ele>942.0</ele>
        <time>2019-07-31T17:21:36.152Z</time>
      </trkpt>
      <trkpt lat="43.01106667" lon="-1.18440333">
        <ele>942.0</ele>
        <time>2019-07-31T17:21:37.158Z</time>
      </trkpt>
      <trkpt lat="43.011075" lon="-1.18442333">
        <ele>942.0</ele>
        <time>2019-07-31T17:21:38.166Z</time>
      </trkpt>
      <trkpt lat="43.01108" lon="-1.18444167">
        <ele>942.0</ele>
        <time>2019-07-31T17:21:39.173Z</time>
      </trkpt>
      <trkpt lat="43.01108833" lon="-1.18446167">
        <ele>942.0</ele>
        <time>2019-07-31T17:21:40.179Z</time>
      </trkpt>
      <trkpt lat="43.01109333" lon="-1.18448333">
        <ele>942.0</ele>
        <time>2019-07-31T17:21:41.184Z</time>
      </trkpt>
      <trkpt lat="43.01109333" lon="-1.18448333">
        <ele>942.0</ele>
        <time>2019-07-31T17:21:42.064Z</time>
      </trkpt>
      <trkpt lat="43.01110167" lon="-1.18450333">
        <ele>942.0</ele>
        <time>2019-07-31T17:21:43.070Z</time>
      </trkpt>
      <trkpt lat="43.01110833" lon="-1.18452167">
        <ele>941.0</ele>
        <time>2019-07-31T17:21:44.072Z</time>
      </trkpt>
      <trkpt lat="43.01111333" lon="-1.18453833">
        <ele>942.0</ele>
        <time>2019-07-31T17:21:45.076Z</time>
      </trkpt>
      <trkpt lat="43.01111833" lon="-1.18456167">
        <ele>942.0</ele>
        <time>2019-07-31T17:21:46.080Z</time>
      </trkpt>
      <trkpt lat="43.01112167" lon="-1.18458167">
        <ele>942.0</ele>
        <time>2019-07-31T17:21:47.084Z</time>
      </trkpt>
      <trkpt lat="43.01112667" lon="-1.18460333">
        <ele>942.0</ele>
        <time>2019-07-31T17:21:48.090Z</time>
      </trkpt>
      <trkpt lat="43.01113" lon="-1.18462167">
        <ele>943.0</ele>
        <time>2019-07-31T17:21:49.094Z</time>
      </trkpt>
      <trkpt lat="43.01113667" lon="-1.18466167">
        <ele>943.0</ele>
        <time>2019-07-31T17:21:50.097Z</time>
      </trkpt>
      <trkpt lat="43.01114" lon="-1.18468333">
        <ele>943.0</ele>
        <time>2019-07-31T17:21:51.103Z</time>
      </trkpt>
      <trkpt lat="43.01114333" lon="-1.18470167">
        <ele>943.0</ele>
        <time>2019-07-31T17:21:52.109Z</time>
      </trkpt>
      <trkpt lat="43.01114333" lon="-1.18472167">
        <ele>943.0</ele>
        <time>2019-07-31T17:21:53.114Z</time>
      </trkpt>
      <trkpt lat="43.011145" lon="-1.184745">
        <ele>943.0</ele>
        <time>2019-07-31T17:21:54.120Z</time>
      </trkpt>
      <trkpt lat="43.01114833" lon="-1.18476833">
        <ele>943.0</ele>
        <time>2019-07-31T17:21:55.127Z</time>
      </trkpt>
      <trkpt lat="43.01115167" lon="-1.18479">
        <ele>944.0</ele>
        <time>2019-07-31T17:21:56.133Z</time>
      </trkpt>
      <trkpt lat="43.01115833" lon="-1.18481333">
        <ele>944.0</ele>
        <time>2019-07-31T17:21:57.140Z</time>
      </trkpt>
      <trkpt lat="43.01116333" lon="-1.184835">
        <ele>944.0</ele>
        <time>2019-07-31T17:21:58.145Z</time>
      </trkpt>
      <trkpt lat="43.01116667" lon="-1.18485833">
        <ele>944.0</ele>
        <time>2019-07-31T17:21:59.150Z</time>
      </trkpt>
      <trkpt lat="43.01117167" lon="-1.18488167">
        <ele>944.0</ele>
        <time>2019-07-31T17:22:00.155Z</time>
      </trkpt>
      <trkpt lat="43.01117667" lon="-1.18491">
        <ele>944.0</ele>
        <time>2019-07-31T17:22:01.161Z</time>
      </trkpt>
      <trkpt lat="43.01117667" lon="-1.18492833">
        <ele>945.0</ele>
        <time>2019-07-31T17:22:02.167Z</time>
      </trkpt>
      <trkpt lat="43.01118" lon="-1.18495">
        <ele>945.0</ele>
        <time>2019-07-31T17:22:03.172Z</time>
      </trkpt>
      <trkpt lat="43.01118333" lon="-1.18497167">
        <ele>945.0</ele>
        <time>2019-07-31T17:22:04.177Z</time>
      </trkpt>
      <trkpt lat="43.01118667" lon="-1.18499">
        <ele>945.0</ele>
        <time>2019-07-31T17:22:05.183Z</time>
      </trkpt>
      <trkpt lat="43.01118667" lon="-1.18499">
        <ele>945.0</ele>
        <time>2019-07-31T17:22:06.062Z</time>
      </trkpt>
      <trkpt lat="43.01118833" lon="-1.18501167">
        <ele>945.0</ele>
        <time>2019-07-31T17:22:07.067Z</time>
      </trkpt>
      <trkpt lat="43.01119333" lon="-1.185035">
        <ele>945.0</ele>
        <time>2019-07-31T17:22:08.074Z</time>
      </trkpt>
      <trkpt lat="43.011195" lon="-1.18505">
        <ele>945.0</ele>
        <time>2019-07-31T17:22:09.079Z</time>
      </trkpt>
      <trkpt lat="43.01119833" lon="-1.18506833">
        <ele>944.0</ele>
        <time>2019-07-31T17:22:10.084Z</time>
      </trkpt>
      <trkpt lat="43.0112" lon="-1.18509167">
        <ele>944.0</ele>
        <time>2019-07-31T17:22:11.090Z</time>
      </trkpt>
      <trkpt lat="43.01120333" lon="-1.18511">
        <ele>944.0</ele>
        <time>2019-07-31T17:22:12.095Z</time>
      </trkpt>
      <trkpt lat="43.01120833" lon="-1.18514333">
        <ele>944.0</ele>
        <time>2019-07-31T17:22:13.099Z</time>
      </trkpt>
      <trkpt lat="43.01121167" lon="-1.18516">
        <ele>944.0</ele>
        <time>2019-07-31T17:22:14.104Z</time>
      </trkpt>
      <trkpt lat="43.011215" lon="-1.18517833">
        <ele>944.0</ele>
        <time>2019-07-31T17:22:15.110Z</time>
      </trkpt>
      <trkpt lat="43.011215" lon="-1.185195">
        <ele>944.0</ele>
        <time>2019-07-31T17:22:16.113Z</time>
      </trkpt>
      <trkpt lat="43.01121833" lon="-1.18521167">
        <ele>944.0</ele>
        <time>2019-07-31T17:22:17.119Z</time>
      </trkpt>
      <trkpt lat="43.01122167" lon="-1.18523">
        <ele>943.0</ele>
        <time>2019-07-31T17:22:18.124Z</time>
      </trkpt>
      <trkpt lat="43.011225" lon="-1.18524667">
        <ele>943.0</ele>
        <time>2019-07-31T17:22:19.130Z</time>
      </trkpt>
      <trkpt lat="43.01122833" lon="-1.185265">
        <ele>943.0</ele>
        <time>2019-07-31T17:22:20.133Z</time>
      </trkpt>
      <trkpt lat="43.01123" lon="-1.185285">
        <ele>943.0</ele>
        <time>2019-07-31T17:22:21.137Z</time>
      </trkpt>
      <trkpt lat="43.01123167" lon="-1.1853">
        <ele>943.0</ele>
        <time>2019-07-31T17:22:22.144Z</time>
      </trkpt>
      <trkpt lat="43.011235" lon="-1.18532">
        <ele>943.0</ele>
        <time>2019-07-31T17:22:23.150Z</time>
      </trkpt>
      <trkpt lat="43.01123833" lon="-1.18534167">
        <ele>943.0</ele>
        <time>2019-07-31T17:22:24.157Z</time>
      </trkpt>
      <trkpt lat="43.01124333" lon="-1.18536667">
        <ele>943.0</ele>
        <time>2019-07-31T17:22:25.163Z</time>
      </trkpt>
      <trkpt lat="43.01125" lon="-1.18538833">
        <ele>943.0</ele>
        <time>2019-07-31T17:22:26.168Z</time>
      </trkpt>
      <trkpt lat="43.01125667" lon="-1.185405">
        <ele>943.0</ele>
        <time>2019-07-31T17:22:27.174Z</time>
      </trkpt>
      <trkpt lat="43.01126167" lon="-1.185425">
        <ele>943.0</ele>
        <time>2019-07-31T17:22:28.177Z</time>
      </trkpt>
      <trkpt lat="43.01126667" lon="-1.18544833">
        <ele>943.0</ele>
        <time>2019-07-31T17:22:29.181Z</time>
      </trkpt>
      <trkpt lat="43.01127167" lon="-1.18546667">
        <ele>943.0</ele>
        <time>2019-07-31T17:22:30.185Z</time>
      </trkpt>
      <trkpt lat="43.01127167" lon="-1.18546667">
        <ele>943.0</ele>
        <time>2019-07-31T17:22:31.066Z</time>
      </trkpt>
      <trkpt lat="43.01127667" lon="-1.18548833">
        <ele>943.0</ele>
        <time>2019-07-31T17:22:32.072Z</time>
      </trkpt>
      <trkpt lat="43.01128333" lon="-1.18550667">
        <ele>942.0</ele>
        <time>2019-07-31T17:22:33.077Z</time>
      </trkpt>
      <trkpt lat="43.01129" lon="-1.18552833">
        <ele>942.0</ele>
        <time>2019-07-31T17:22:34.081Z</time>
      </trkpt>
      <trkpt lat="43.011295" lon="-1.18555">
        <ele>943.0</ele>
        <time>2019-07-31T17:22:35.087Z</time>
      </trkpt>
      <trkpt lat="43.01130167" lon="-1.185575">
        <ele>943.0</ele>
        <time>2019-07-31T17:22:36.092Z</time>
      </trkpt>
      <trkpt lat="43.01130833" lon="-1.18560833">
        <ele>942.0</ele>
        <time>2019-07-31T17:22:37.097Z</time>
      </trkpt>
      <trkpt lat="43.01131333" lon="-1.18563">
        <ele>942.0</ele>
        <time>2019-07-31T17:22:38.102Z</time>
      </trkpt>
      <trkpt lat="43.01131667" lon="-1.18564833">
        <ele>942.0</ele>
        <time>2019-07-31T17:22:39.107Z</time>
      </trkpt>
      <trkpt lat="43.01132167" lon="-1.18567">
        <ele>942.0</ele>
        <time>2019-07-31T17:22:40.114Z</time>
      </trkpt>
      <trkpt lat="43.01132667" lon="-1.18569167">
        <ele>942.0</ele>
        <time>2019-07-31T17:22:41.119Z</time>
      </trkpt>
      <trkpt lat="43.01133167" lon="-1.18571">
        <ele>942.0</ele>
        <time>2019-07-31T17:22:42.125Z</time>
      </trkpt>
      <trkpt lat="43.01133667" lon="-1.18572833">
        <ele>942.0</ele>
        <time>2019-07-31T17:22:43.131Z</time>
      </trkpt>
      <trkpt lat="43.011345" lon="-1.18575">
        <ele>942.0</ele>
        <time>2019-07-31T17:22:44.136Z</time>
      </trkpt>
      <trkpt lat="43.01135333" lon="-1.18577333">
        <ele>941.0</ele>
        <time>2019-07-31T17:22:45.143Z</time>
      </trkpt>
      <trkpt lat="43.01136167" lon="-1.18579">
        <ele>941.0</ele>
        <time>2019-07-31T17:22:46.147Z</time>
      </trkpt>
      <trkpt lat="43.01137" lon="-1.18580833">
        <ele>941.0</ele>
        <time>2019-07-31T17:22:47.152Z</time>
      </trkpt>
      <trkpt lat="43.01138" lon="-1.18583">
        <ele>941.0</ele>
        <time>2019-07-31T17:22:48.156Z</time>
      </trkpt>
      <trkpt lat="43.011385" lon="-1.185845">
        <ele>941.0</ele>
        <time>2019-07-31T17:22:49.162Z</time>
      </trkpt>
      <trkpt lat="43.01138833" lon="-1.18586167">
        <ele>941.0</ele>
        <time>2019-07-31T17:22:50.169Z</time>
      </trkpt>
      <trkpt lat="43.01139167" lon="-1.185875">
        <ele>941.0</ele>
        <time>2019-07-31T17:22:51.175Z</time>
      </trkpt>
      <trkpt lat="43.01139167" lon="-1.18588667">
        <ele>941.0</ele>
        <time>2019-07-31T17:22:52.179Z</time>
      </trkpt>
      <trkpt lat="43.011395" lon="-1.185895">
        <ele>941.0</ele>
        <time>2019-07-31T17:22:53.185Z</time>
      </trkpt>
      <trkpt lat="43.011395" lon="-1.185895">
        <ele>941.0</ele>
        <time>2019-07-31T17:22:54.064Z</time>
      </trkpt>
      <trkpt lat="43.011395" lon="-1.185905">
        <ele>941.0</ele>
        <time>2019-07-31T17:22:55.069Z</time>
      </trkpt>
      <trkpt lat="43.011395" lon="-1.18591167">
        <ele>941.0</ele>
        <time>2019-07-31T17:22:56.075Z</time>
      </trkpt>
      <trkpt lat="43.01139833" lon="-1.18592167">
        <ele>941.0</ele>
        <time>2019-07-31T17:22:57.080Z</time>
      </trkpt>
      <trkpt lat="43.01140167" lon="-1.18593667">
        <ele>941.0</ele>
        <time>2019-07-31T17:22:58.083Z</time>
      </trkpt>
      <trkpt lat="43.01140833" lon="-1.18595">
        <ele>941.0</ele>
        <time>2019-07-31T17:22:59.089Z</time>
      </trkpt>
      <trkpt lat="43.01142" lon="-1.18597167">
        <ele>941.0</ele>
        <time>2019-07-31T17:23:00.094Z</time>
      </trkpt>
      <trkpt lat="43.01143667" lon="-1.18600167">
        <ele>941.0</ele>
        <time>2019-07-31T17:23:01.099Z</time>
      </trkpt>
      <trkpt lat="43.01144667" lon="-1.18602">
        <ele>940.0</ele>
        <time>2019-07-31T17:23:02.104Z</time>
      </trkpt>
      <trkpt lat="43.01145667" lon="-1.18604333">
        <ele>941.0</ele>
        <time>2019-07-31T17:23:03.111Z</time>
      </trkpt>
      <trkpt lat="43.011465" lon="-1.18606167">
        <ele>941.0</ele>
        <time>2019-07-31T17:23:04.115Z</time>
      </trkpt>
      <trkpt lat="43.011475" lon="-1.18608">
        <ele>941.0</ele>
        <time>2019-07-31T17:23:05.121Z</time>
      </trkpt>
      <trkpt lat="43.01148333" lon="-1.18609333">
        <ele>941.0</ele>
        <time>2019-07-31T17:23:06.127Z</time>
      </trkpt>
      <trkpt lat="43.011495" lon="-1.186115">
        <ele>940.0</ele>
        <time>2019-07-31T17:23:07.132Z</time>
      </trkpt>
      <trkpt lat="43.01150333" lon="-1.18613333">
        <ele>940.0</ele>
        <time>2019-07-31T17:23:08.136Z</time>
      </trkpt>
      <trkpt lat="43.01151167" lon="-1.18615">
        <ele>940.0</ele>
        <time>2019-07-31T17:23:09.141Z</time>
      </trkpt>
      <trkpt lat="43.01151833" lon="-1.186165">
        <ele>940.0</ele>
        <time>2019-07-31T17:23:10.146Z</time>
      </trkpt>
      <trkpt lat="43.01152833" lon="-1.18619">
        <ele>940.0</ele>
        <time>2019-07-31T17:23:11.150Z</time>
      </trkpt>
      <trkpt lat="43.011535" lon="-1.18621">
        <ele>939.0</ele>
        <time>2019-07-31T17:23:12.155Z</time>
      </trkpt>
      <trkpt lat="43.01154167" lon="-1.18622833">
        <ele>939.0</ele>
        <time>2019-07-31T17:23:13.160Z</time>
      </trkpt>
      <trkpt lat="43.01154833" lon="-1.18624333">
        <ele>939.0</ele>
        <time>2019-07-31T17:23:14.166Z</time>
      </trkpt>
      <trkpt lat="43.01155667" lon="-1.18626167">
        <ele>939.0</ele>
        <time>2019-07-31T17:23:15.172Z</time>
      </trkpt>
      <trkpt lat="43.01156333" lon="-1.18628833">
        <ele>939.0</ele>
        <time>2019-07-31T17:23:16.176Z</time>
      </trkpt>
      <trkpt lat="43.01156833" lon="-1.18630833">
        <ele>939.0</ele>
        <time>2019-07-31T17:23:17.180Z</time>
      </trkpt>
      <trkpt lat="43.011575" lon="-1.18632833">
        <ele>939.0</ele>
        <time>2019-07-31T17:23:18.184Z</time>
      </trkpt>
      <trkpt lat="43.011575" lon="-1.18632833">
        <ele>939.0</ele>
        <time>2019-07-31T17:23:19.062Z</time>
      </trkpt>
      <trkpt lat="43.01158" lon="-1.18634667">
        <ele>940.0</ele>
        <time>2019-07-31T17:23:20.066Z</time>
      </trkpt>
      <trkpt lat="43.01158333" lon="-1.18637167">
        <ele>940.0</ele>
        <time>2019-07-31T17:23:21.071Z</time>
      </trkpt>
      <trkpt lat="43.01158833" lon="-1.18639333">
        <ele>940.0</ele>
        <time>2019-07-31T17:23:22.076Z</time>
      </trkpt>
      <trkpt lat="43.01159167" lon="-1.18641333">
        <ele>940.0</ele>
        <time>2019-07-31T17:23:23.082Z</time>
      </trkpt>
      <trkpt lat="43.011595" lon="-1.18642833">
        <ele>940.0</ele>
        <time>2019-07-31T17:23:24.088Z</time>
      </trkpt>
      <trkpt lat="43.0116" lon="-1.18645">
        <ele>940.0</ele>
        <time>2019-07-31T17:23:25.092Z</time>
      </trkpt>
      <trkpt lat="43.01160667" lon="-1.18647667">
        <ele>939.0</ele>
        <time>2019-07-31T17:23:26.097Z</time>
      </trkpt>
      <trkpt lat="43.01161333" lon="-1.186515">
        <ele>939.0</ele>
        <time>2019-07-31T17:23:27.102Z</time>
      </trkpt>
      <trkpt lat="43.01161167" lon="-1.18653">
        <ele>939.0</ele>
        <time>2019-07-31T17:23:28.108Z</time>
      </trkpt>
      <trkpt lat="43.01161333" lon="-1.18655">
        <ele>938.0</ele>
        <time>2019-07-31T17:23:29.114Z</time>
      </trkpt>
      <trkpt lat="43.011615" lon="-1.18657167">
        <ele>939.0</ele>
        <time>2019-07-31T17:23:30.120Z</time>
      </trkpt>
      <trkpt lat="43.011615" lon="-1.18659333">
        <ele>938.0</ele>
        <time>2019-07-31T17:23:31.126Z</time>
      </trkpt>
      <trkpt lat="43.01161333" lon="-1.18661167">
        <ele>938.0</ele>
        <time>2019-07-31T17:23:32.132Z</time>
      </trkpt>
      <trkpt lat="43.01161167" lon="-1.18662833">
        <ele>938.0</ele>
        <time>2019-07-31T17:23:33.135Z</time>
      </trkpt>
      <trkpt lat="43.01161333" lon="-1.18665333">
        <ele>938.0</ele>
        <time>2019-07-31T17:23:34.143Z</time>
      </trkpt>
      <trkpt lat="43.011615" lon="-1.18667667">
        <ele>938.0</ele>
        <time>2019-07-31T17:23:35.150Z</time>
      </trkpt>
      <trkpt lat="43.01161333" lon="-1.18669667">
        <ele>938.0</ele>
        <time>2019-07-31T17:23:36.157Z</time>
      </trkpt>
      <trkpt lat="43.01161333" lon="-1.18671667">
        <ele>939.0</ele>
        <time>2019-07-31T17:23:37.162Z</time>
      </trkpt>
      <trkpt lat="43.01161333" lon="-1.18673333">
        <ele>939.0</ele>
        <time>2019-07-31T17:23:38.165Z</time>
      </trkpt>
      <trkpt lat="43.011615" lon="-1.18675667">
        <ele>940.0</ele>
        <time>2019-07-31T17:23:39.171Z</time>
      </trkpt>
      <trkpt lat="43.011615" lon="-1.18677667">
        <ele>940.0</ele>
        <time>2019-07-31T17:23:40.175Z</time>
      </trkpt>
      <trkpt lat="43.01161667" lon="-1.18680167">
        <ele>939.0</ele>
        <time>2019-07-31T17:23:41.179Z</time>
      </trkpt>
      <trkpt lat="43.01161667" lon="-1.18681667">
        <ele>939.0</ele>
        <time>2019-07-31T17:23:42.184Z</time>
      </trkpt>
      <trkpt lat="43.01161667" lon="-1.18681667">
        <ele>939.0</ele>
        <time>2019-07-31T17:23:43.063Z</time>
      </trkpt>
      <trkpt lat="43.01161833" lon="-1.18683667">
        <ele>939.0</ele>
        <time>2019-07-31T17:23:44.068Z</time>
      </trkpt>
      <trkpt lat="43.01162" lon="-1.18685667">
        <ele>938.0</ele>
        <time>2019-07-31T17:23:45.074Z</time>
      </trkpt>
      <trkpt lat="43.01162167" lon="-1.18687667">
        <ele>938.0</ele>
        <time>2019-07-31T17:23:46.080Z</time>
      </trkpt>
      <trkpt lat="43.01162167" lon="-1.18690167">
        <ele>938.0</ele>
        <time>2019-07-31T17:23:47.084Z</time>
      </trkpt>
      <trkpt lat="43.01162167" lon="-1.186915">
        <ele>937.0</ele>
        <time>2019-07-31T17:23:48.089Z</time>
      </trkpt>
      <trkpt lat="43.01162" lon="-1.186935">
        <ele>937.0</ele>
        <time>2019-07-31T17:23:49.093Z</time>
      </trkpt>
      <trkpt lat="43.01162167" lon="-1.18696">
        <ele>936.0</ele>
        <time>2019-07-31T17:23:50.096Z</time>
      </trkpt>
      <trkpt lat="43.01162167" lon="-1.187005">
        <ele>936.0</ele>
        <time>2019-07-31T17:23:51.101Z</time>
      </trkpt>
      <trkpt lat="43.01162167" lon="-1.18702333">
        <ele>936.0</ele>
        <time>2019-07-31T17:23:52.107Z</time>
      </trkpt>
      <trkpt lat="43.01162" lon="-1.18704667">
        <ele>936.0</ele>
        <time>2019-07-31T17:23:53.112Z</time>
      </trkpt>
      <trkpt lat="43.01162" lon="-1.187075">
        <ele>936.0</ele>
        <time>2019-07-31T17:23:54.119Z</time>
      </trkpt>
      <trkpt lat="43.01161833" lon="-1.187095">
        <ele>936.0</ele>
        <time>2019-07-31T17:23:55.119Z</time>
      </trkpt>
      <trkpt lat="43.011615" lon="-1.18711167">
        <ele>936.0</ele>
        <time>2019-07-31T17:23:56.125Z</time>
      </trkpt>
      <trkpt lat="43.01161667" lon="-1.18713333">
        <ele>935.0</ele>
        <time>2019-07-31T17:23:57.130Z</time>
      </trkpt>
      <trkpt lat="43.011615" lon="-1.18715667">
        <ele>935.0</ele>
        <time>2019-07-31T17:23:58.135Z</time>
      </trkpt>
      <trkpt lat="43.011615" lon="-1.18718167">
        <ele>935.0</ele>
        <time>2019-07-31T17:23:59.141Z</time>
      </trkpt>
      <trkpt lat="43.01161167" lon="-1.18720833">
        <ele>935.0</ele>
        <time>2019-07-31T17:24:00.146Z</time>
      </trkpt>
      <trkpt lat="43.01161" lon="-1.18723">
        <ele>935.0</ele>
        <time>2019-07-31T17:24:01.151Z</time>
      </trkpt>
      <trkpt lat="43.011605" lon="-1.187245">
        <ele>935.0</ele>
        <time>2019-07-31T17:24:02.156Z</time>
      </trkpt>
      <trkpt lat="43.01159833" lon="-1.18727">
        <ele>936.0</ele>
        <time>2019-07-31T17:24:03.161Z</time>
      </trkpt>
      <trkpt lat="43.01159333" lon="-1.18729">
        <ele>936.0</ele>
        <time>2019-07-31T17:24:04.167Z</time>
      </trkpt>
      <trkpt lat="43.01159167" lon="-1.18730833">
        <ele>936.0</ele>
        <time>2019-07-31T17:24:05.173Z</time>
      </trkpt>
      <trkpt lat="43.01159" lon="-1.187325">
        <ele>936.0</ele>
        <time>2019-07-31T17:24:06.177Z</time>
      </trkpt>
      <trkpt lat="43.01159" lon="-1.18734667">
        <ele>936.0</ele>
        <time>2019-07-31T17:24:07.183Z</time>
      </trkpt>
      <trkpt lat="43.01159" lon="-1.18734667">
        <ele>936.0</ele>
        <time>2019-07-31T17:24:08.062Z</time>
      </trkpt>
      <trkpt lat="43.01159167" lon="-1.187375">
        <ele>936.0</ele>
        <time>2019-07-31T17:24:09.067Z</time>
      </trkpt>
      <trkpt lat="43.01158833" lon="-1.18739333">
        <ele>936.0</ele>
        <time>2019-07-31T17:24:10.072Z</time>
      </trkpt>
      <trkpt lat="43.01158667" lon="-1.18742">
        <ele>936.0</ele>
        <time>2019-07-31T17:24:11.076Z</time>
      </trkpt>
      <trkpt lat="43.011585" lon="-1.18743333">
        <ele>935.0</ele>
        <time>2019-07-31T17:24:12.080Z</time>
      </trkpt>
      <trkpt lat="43.01158" lon="-1.187455">
        <ele>935.0</ele>
        <time>2019-07-31T17:24:13.084Z</time>
      </trkpt>
      <trkpt lat="43.011575" lon="-1.18747667">
        <ele>936.0</ele>
        <time>2019-07-31T17:24:14.089Z</time>
      </trkpt>
      <trkpt lat="43.01156833" lon="-1.18749667">
        <ele>936.0</ele>
        <time>2019-07-31T17:24:15.095Z</time>
      </trkpt>
      <trkpt lat="43.01156333" lon="-1.187535">
        <ele>936.0</ele>
        <time>2019-07-31T17:24:16.101Z</time>
      </trkpt>
      <trkpt lat="43.01155833" lon="-1.18755833">
        <ele>936.0</ele>
        <time>2019-07-31T17:24:17.106Z</time>
      </trkpt>
      <trkpt lat="43.01155833" lon="-1.18758333">
        <ele>937.0</ele>
        <time>2019-07-31T17:24:18.111Z</time>
      </trkpt>
      <trkpt lat="43.01155833" lon="-1.18760833">
        <ele>937.0</ele>
        <time>2019-07-31T17:24:19.115Z</time>
      </trkpt>
      <trkpt lat="43.01155833" lon="-1.18763333">
        <ele>936.0</ele>
        <time>2019-07-31T17:24:20.118Z</time>
      </trkpt>
      <trkpt lat="43.01156" lon="-1.18765667">
        <ele>936.0</ele>
        <time>2019-07-31T17:24:21.122Z</time>
      </trkpt>
      <trkpt lat="43.01156167" lon="-1.18768333">
        <ele>936.0</ele>
        <time>2019-07-31T17:24:22.126Z</time>
      </trkpt>
      <trkpt lat="43.01156333" lon="-1.18770667">
        <ele>936.0</ele>
        <time>2019-07-31T17:24:23.130Z</time>
      </trkpt>
      <trkpt lat="43.011565" lon="-1.18772333">
        <ele>936.0</ele>
        <time>2019-07-31T17:24:24.136Z</time>
      </trkpt>
      <trkpt lat="43.011565" lon="-1.18774667">
        <ele>936.0</ele>
        <time>2019-07-31T17:24:25.142Z</time>
      </trkpt>
      <trkpt lat="43.01156667" lon="-1.18776833">
        <ele>936.0</ele>
        <time>2019-07-31T17:24:26.146Z</time>
      </trkpt>
      <trkpt lat="43.01156833" lon="-1.18779167">
        <ele>936.0</ele>
        <time>2019-07-31T17:24:27.152Z</time>
      </trkpt>
      <trkpt lat="43.01156833" lon="-1.18782167">
        <ele>936.0</ele>
        <time>2019-07-31T17:24:28.159Z</time>
      </trkpt>
      <trkpt lat="43.01156833" lon="-1.18784833">
        <ele>937.0</ele>
        <time>2019-07-31T17:24:29.166Z</time>
      </trkpt>
      <trkpt lat="43.01157" lon="-1.18786833">
        <ele>937.0</ele>
        <time>2019-07-31T17:24:30.171Z</time>
      </trkpt>
      <trkpt lat="43.01156833" lon="-1.18789167">
        <ele>937.0</ele>
        <time>2019-07-31T17:24:31.175Z</time>
      </trkpt>
      <trkpt lat="43.01157167" lon="-1.18791667">
        <ele>936.0</ele>
        <time>2019-07-31T17:24:32.181Z</time>
      </trkpt>
      <trkpt lat="43.01157167" lon="-1.187935">
        <ele>937.0</ele>
        <time>2019-07-31T17:24:33.184Z</time>
      </trkpt>
      <trkpt lat="43.01157167" lon="-1.187935">
        <ele>937.0</ele>
        <time>2019-07-31T17:24:34.063Z</time>
      </trkpt>
      <trkpt lat="43.011575" lon="-1.18795833">
        <ele>937.0</ele>
        <time>2019-07-31T17:24:35.066Z</time>
      </trkpt>
      <trkpt lat="43.011575" lon="-1.18798167">
        <ele>937.0</ele>
        <time>2019-07-31T17:24:36.072Z</time>
      </trkpt>
      <trkpt lat="43.01157333" lon="-1.18801">
        <ele>937.0</ele>
        <time>2019-07-31T17:24:37.077Z</time>
      </trkpt>
      <trkpt lat="43.011575" lon="-1.188025">
        <ele>936.0</ele>
        <time>2019-07-31T17:24:38.084Z</time>
      </trkpt>
      <trkpt lat="43.01157333" lon="-1.18804833">
        <ele>935.0</ele>
        <time>2019-07-31T17:24:39.090Z</time>
      </trkpt>
      <trkpt lat="43.011575" lon="-1.18806667">
        <ele>935.0</ele>
        <time>2019-07-31T17:24:40.091Z</time>
      </trkpt>
      <trkpt lat="43.01157833" lon="-1.18809333">
        <ele>934.0</ele>
        <time>2019-07-31T17:24:41.097Z</time>
      </trkpt>
      <trkpt lat="43.01157667" lon="-1.18811667">
        <ele>934.0</ele>
        <time>2019-07-31T17:24:42.101Z</time>
      </trkpt>
      <trkpt lat="43.011575" lon="-1.18815333">
        <ele>934.0</ele>
        <time>2019-07-31T17:24:43.104Z</time>
      </trkpt>
      <trkpt lat="43.01157167" lon="-1.18817333">
        <ele>934.0</ele>
        <time>2019-07-31T17:24:44.109Z</time>
      </trkpt>
      <trkpt lat="43.01156833" lon="-1.18819333">
        <ele>934.0</ele>
        <time>2019-07-31T17:24:45.115Z</time>
      </trkpt>
      <trkpt lat="43.01156833" lon="-1.188215">
        <ele>934.0</ele>
        <time>2019-07-31T17:24:46.121Z</time>
      </trkpt>
      <trkpt lat="43.01156833" lon="-1.18823833">
        <ele>933.0</ele>
        <time>2019-07-31T17:24:47.126Z</time>
      </trkpt>
      <trkpt lat="43.01156667" lon="-1.18826">
        <ele>934.0</ele>
        <time>2019-07-31T17:24:48.132Z</time>
      </trkpt>
      <trkpt lat="43.011565" lon="-1.18828167">
        <ele>933.0</ele>
        <time>2019-07-31T17:24:49.136Z</time>
      </trkpt>
      <trkpt lat="43.011565" lon="-1.188305">
        <ele>933.0</ele>
        <time>2019-07-31T17:24:50.145Z</time>
      </trkpt>
      <trkpt lat="43.01156167" lon="-1.18832667">
        <ele>933.0</ele>
        <time>2019-07-31T17:24:51.149Z</time>
      </trkpt>
      <trkpt lat="43.01156667" lon="-1.18835667">
        <ele>933.0</ele>
        <time>2019-07-31T17:24:52.154Z</time>
      </trkpt>
      <trkpt lat="43.01156833" lon="-1.188375">
        <ele>934.0</ele>
        <time>2019-07-31T17:24:53.159Z</time>
      </trkpt>
      <trkpt lat="43.01156667" lon="-1.188395">
        <ele>934.0</ele>
        <time>2019-07-31T17:24:54.165Z</time>
      </trkpt>
      <trkpt lat="43.01156667" lon="-1.18841833">
        <ele>934.0</ele>
        <time>2019-07-31T17:24:55.170Z</time>
      </trkpt>
      <trkpt lat="43.01156667" lon="-1.18844">
        <ele>934.0</ele>
        <time>2019-07-31T17:24:56.176Z</time>
      </trkpt>
      <trkpt lat="43.011565" lon="-1.18846667">
        <ele>934.0</ele>
        <time>2019-07-31T17:24:57.181Z</time>
      </trkpt>
      <trkpt lat="43.011565" lon="-1.18846667">
        <ele>934.0</ele>
        <time>2019-07-31T17:24:58.062Z</time>
      </trkpt>
      <trkpt lat="43.01156667" lon="-1.188485">
        <ele>934.0</ele>
        <time>2019-07-31T17:24:59.067Z</time>
      </trkpt>
      <trkpt lat="43.01156667" lon="-1.188505">
        <ele>934.0</ele>
        <time>2019-07-31T17:25:00.072Z</time>
      </trkpt>
      <trkpt lat="43.01157" lon="-1.18853333">
        <ele>933.0</ele>
        <time>2019-07-31T17:25:01.078Z</time>
      </trkpt>
      <trkpt lat="43.01157333" lon="-1.18855167">
        <ele>933.0</ele>
        <time>2019-07-31T17:25:02.083Z</time>
      </trkpt>
      <trkpt lat="43.01157167" lon="-1.188575">
        <ele>934.0</ele>
        <time>2019-07-31T17:25:03.089Z</time>
      </trkpt>
      <trkpt lat="43.01157" lon="-1.18859">
        <ele>934.0</ele>
        <time>2019-07-31T17:25:04.091Z</time>
      </trkpt>
      <trkpt lat="43.01157" lon="-1.18861">
        <ele>934.0</ele>
        <time>2019-07-31T17:25:05.093Z</time>
      </trkpt>
      <trkpt lat="43.01157" lon="-1.18863333">
        <ele>934.0</ele>
        <time>2019-07-31T17:25:06.098Z</time>
      </trkpt>
      <trkpt lat="43.01156833" lon="-1.18866667">
        <ele>933.0</ele>
        <time>2019-07-31T17:25:07.103Z</time>
      </trkpt>
      <trkpt lat="43.01157" lon="-1.18868667">
        <ele>933.0</ele>
        <time>2019-07-31T17:25:08.108Z</time>
      </trkpt>
      <trkpt lat="43.01157" lon="-1.18870833">
        <ele>934.0</ele>
        <time>2019-07-31T17:25:09.111Z</time>
      </trkpt>
      <trkpt lat="43.011575" lon="-1.18873">
        <ele>933.0</ele>
        <time>2019-07-31T17:25:10.115Z</time>
      </trkpt>
      <trkpt lat="43.01158167" lon="-1.18875833">
        <ele>933.0</ele>
        <time>2019-07-31T17:25:11.121Z</time>
      </trkpt>
      <trkpt lat="43.01158167" lon="-1.18878167">
        <ele>933.0</ele>
        <time>2019-07-31T17:25:12.125Z</time>
      </trkpt>
      <trkpt lat="43.01158167" lon="-1.18880167">
        <ele>934.0</ele>
        <time>2019-07-31T17:25:13.129Z</time>
      </trkpt>
      <trkpt lat="43.01158333" lon="-1.18882333">
        <ele>933.0</ele>
        <time>2019-07-31T17:25:14.131Z</time>
      </trkpt>
      <trkpt lat="43.01158333" lon="-1.18884667">
        <ele>933.0</ele>
        <time>2019-07-31T17:25:15.134Z</time>
      </trkpt>
      <trkpt lat="43.011585" lon="-1.18887">
        <ele>934.0</ele>
        <time>2019-07-31T17:25:16.141Z</time>
      </trkpt>
      <trkpt lat="43.01158667" lon="-1.18889">
        <ele>934.0</ele>
        <time>2019-07-31T17:25:17.146Z</time>
      </trkpt>
      <trkpt lat="43.01159" lon="-1.18891167">
        <ele>934.0</ele>
        <time>2019-07-31T17:25:18.153Z</time>
      </trkpt>
      <trkpt lat="43.01159667" lon="-1.18893833">
        <ele>934.0</ele>
        <time>2019-07-31T17:25:19.159Z</time>
      </trkpt>
      <trkpt lat="43.0116" lon="-1.18896">
        <ele>933.0</ele>
        <time>2019-07-31T17:25:20.165Z</time>
      </trkpt>
      <trkpt lat="43.01160333" lon="-1.18898167">
        <ele>933.0</ele>
        <time>2019-07-31T17:25:21.171Z</time>
      </trkpt>
      <trkpt lat="43.01160333" lon="-1.18899833">
        <ele>934.0</ele>
        <time>2019-07-31T17:25:22.176Z</time>
      </trkpt>
      <trkpt lat="43.011605" lon="-1.18902333">
        <ele>934.0</ele>
        <time>2019-07-31T17:25:23.181Z</time>
      </trkpt>
      <trkpt lat="43.01161" lon="-1.18904833">
        <ele>934.0</ele>
        <time>2019-07-31T17:25:24.185Z</time>
      </trkpt>
      <trkpt lat="43.01161" lon="-1.18904833">
        <ele>934.0</ele>
        <time>2019-07-31T17:25:25.063Z</time>
      </trkpt>
      <trkpt lat="43.01161167" lon="-1.18907">
        <ele>933.0</ele>
        <time>2019-07-31T17:25:26.069Z</time>
      </trkpt>
      <trkpt lat="43.01161667" lon="-1.18908833">
        <ele>933.0</ele>
        <time>2019-07-31T17:25:27.073Z</time>
      </trkpt>
      <trkpt lat="43.01162167" lon="-1.18911167">
        <ele>933.0</ele>
        <time>2019-07-31T17:25:28.079Z</time>
      </trkpt>
      <trkpt lat="43.01162333" lon="-1.18913667">
        <ele>933.0</ele>
        <time>2019-07-31T17:25:29.086Z</time>
      </trkpt>
      <trkpt lat="43.01162333" lon="-1.18915833">
        <ele>933.0</ele>
        <time>2019-07-31T17:25:30.091Z</time>
      </trkpt>
      <trkpt lat="43.011625" lon="-1.18917833">
        <ele>934.0</ele>
        <time>2019-07-31T17:25:31.096Z</time>
      </trkpt>
      <trkpt lat="43.01162833" lon="-1.1892">
        <ele>934.0</ele>
        <time>2019-07-31T17:25:32.101Z</time>
      </trkpt>
      <trkpt lat="43.01163333" lon="-1.18924833">
        <ele>933.0</ele>
        <time>2019-07-31T17:25:33.106Z</time>
      </trkpt>
      <trkpt lat="43.01163333" lon="-1.18926667">
        <ele>933.0</ele>
        <time>2019-07-31T17:25:34.111Z</time>
      </trkpt>
      <trkpt lat="43.011635" lon="-1.18928667">
        <ele>933.0</ele>
        <time>2019-07-31T17:25:35.117Z</time>
      </trkpt>
      <trkpt lat="43.011635" lon="-1.18930333">
        <ele>933.0</ele>
        <time>2019-07-31T17:25:36.121Z</time>
      </trkpt>
      <trkpt lat="43.01163667" lon="-1.18932667">
        <ele>933.0</ele>
        <time>2019-07-31T17:25:37.125Z</time>
      </trkpt>
      <trkpt lat="43.01164167" lon="-1.18935">
        <ele>933.0</ele>
        <time>2019-07-31T17:25:38.130Z</time>
      </trkpt>
      <trkpt lat="43.01164667" lon="-1.189375">
        <ele>933.0</ele>
        <time>2019-07-31T17:25:39.135Z</time>
      </trkpt>
      <trkpt lat="43.01165333" lon="-1.18939167">
        <ele>933.0</ele>
        <time>2019-07-31T17:25:40.140Z</time>
      </trkpt>
      <trkpt lat="43.01165667" lon="-1.18941">
        <ele>933.0</ele>
        <time>2019-07-31T17:25:41.144Z</time>
      </trkpt>
      <trkpt lat="43.01165833" lon="-1.18943167">
        <ele>933.0</ele>
        <time>2019-07-31T17:25:42.150Z</time>
      </trkpt>
      <trkpt lat="43.01166" lon="-1.18945667">
        <ele>932.0</ele>
        <time>2019-07-31T17:25:43.155Z</time>
      </trkpt>
      <trkpt lat="43.01166" lon="-1.18947667">
        <ele>932.0</ele>
        <time>2019-07-31T17:25:44.160Z</time>
      </trkpt>
      <trkpt lat="43.01165833" lon="-1.18949667">
        <ele>932.0</ele>
        <time>2019-07-31T17:25:45.166Z</time>
      </trkpt>
      <trkpt lat="43.01166167" lon="-1.18952167">
        <ele>932.0</ele>
        <time>2019-07-31T17:25:46.172Z</time>
      </trkpt>
      <trkpt lat="43.01166333" lon="-1.18954">
        <ele>932.0</ele>
        <time>2019-07-31T17:25:47.177Z</time>
      </trkpt>
      <trkpt lat="43.01166167" lon="-1.189565">
        <ele>932.0</ele>
        <time>2019-07-31T17:25:48.183Z</time>
      </trkpt>
      <trkpt lat="43.01166167" lon="-1.189565">
        <ele>932.0</ele>
        <time>2019-07-31T17:25:49.062Z</time>
      </trkpt>
      <trkpt lat="43.01166" lon="-1.189585">
        <ele>931.0</ele>
        <time>2019-07-31T17:25:50.070Z</time>
      </trkpt>
      <trkpt lat="43.01165667" lon="-1.18960167">
        <ele>931.0</ele>
        <time>2019-07-31T17:25:51.076Z</time>
      </trkpt>
      <trkpt lat="43.01165167" lon="-1.18962167">
        <ele>931.0</ele>
        <time>2019-07-31T17:25:52.082Z</time>
      </trkpt>
      <trkpt lat="43.011645" lon="-1.18964">
        <ele>931.0</ele>
        <time>2019-07-31T17:25:53.087Z</time>
      </trkpt>
      <trkpt lat="43.01164167" lon="-1.18966">
        <ele>931.0</ele>
        <time>2019-07-31T17:25:54.093Z</time>
      </trkpt>
      <trkpt lat="43.01163667" lon="-1.189685">
        <ele>931.0</ele>
        <time>2019-07-31T17:25:55.098Z</time>
      </trkpt>
      <trkpt lat="43.01163" lon="-1.18972667">
        <ele>931.0</ele>
        <time>2019-07-31T17:25:56.104Z</time>
      </trkpt>
      <trkpt lat="43.011625" lon="-1.18974667">
        <ele>930.0</ele>
        <time>2019-07-31T17:25:57.108Z</time>
      </trkpt>
      <trkpt lat="43.01162" lon="-1.18976667">
        <ele>930.0</ele>
        <time>2019-07-31T17:25:58.114Z</time>
      </trkpt>
      <trkpt lat="43.011615" lon="-1.18978833">
        <ele>930.0</ele>
        <time>2019-07-31T17:25:59.119Z</time>
      </trkpt>
      <trkpt lat="43.01160833" lon="-1.18980667">
        <ele>930.0</ele>
        <time>2019-07-31T17:26:00.122Z</time>
      </trkpt>
      <trkpt lat="43.01159833" lon="-1.189825">
        <ele>930.0</ele>
        <time>2019-07-31T17:26:01.127Z</time>
      </trkpt>
      <trkpt lat="43.01159333" lon="-1.18985333">
        <ele>930.0</ele>
        <time>2019-07-31T17:26:02.132Z</time>
      </trkpt>
      <trkpt lat="43.01158833" lon="-1.18987167">
        <ele>930.0</ele>
        <time>2019-07-31T17:26:03.140Z</time>
      </trkpt>
      <trkpt lat="43.01158167" lon="-1.18989333">
        <ele>930.0</ele>
        <time>2019-07-31T17:26:04.144Z</time>
      </trkpt>
      <trkpt lat="43.01157333" lon="-1.18991167">
        <ele>930.0</ele>
        <time>2019-07-31T17:26:05.146Z</time>
      </trkpt>
      <trkpt lat="43.01156667" lon="-1.18992833">
        <ele>930.0</ele>
        <time>2019-07-31T17:26:06.152Z</time>
      </trkpt>
      <trkpt lat="43.01156" lon="-1.18995">
        <ele>930.0</ele>
        <time>2019-07-31T17:26:07.156Z</time>
      </trkpt>
      <trkpt lat="43.01154833" lon="-1.18997167">
        <ele>931.0</ele>
        <time>2019-07-31T17:26:08.161Z</time>
      </trkpt>
      <trkpt lat="43.01154167" lon="-1.18999333">
        <ele>930.0</ele>
        <time>2019-07-31T17:26:09.168Z</time>
      </trkpt>
      <trkpt lat="43.011535" lon="-1.19001">
        <ele>931.0</ele>
        <time>2019-07-31T17:26:10.173Z</time>
      </trkpt>
      <trkpt lat="43.01153" lon="-1.19003">
        <ele>930.0</ele>
        <time>2019-07-31T17:26:11.180Z</time>
      </trkpt>
      <trkpt lat="43.01152333" lon="-1.19005333">
        <ele>930.0</ele>
        <time>2019-07-31T17:26:12.186Z</time>
      </trkpt>
      <trkpt lat="43.01152333" lon="-1.19005333">
        <ele>930.0</ele>
        <time>2019-07-31T17:26:13.065Z</time>
      </trkpt>
      <trkpt lat="43.01151667" lon="-1.190075">
        <ele>930.0</ele>
        <time>2019-07-31T17:26:14.066Z</time>
      </trkpt>
      <trkpt lat="43.01150667" lon="-1.19009333">
        <ele>930.0</ele>
        <time>2019-07-31T17:26:15.071Z</time>
      </trkpt>
      <trkpt lat="43.0115" lon="-1.19010833">
        <ele>930.0</ele>
        <time>2019-07-31T17:26:16.076Z</time>
      </trkpt>
      <trkpt lat="43.01149" lon="-1.190125">
        <ele>930.0</ele>
        <time>2019-07-31T17:26:17.082Z</time>
      </trkpt>
      <trkpt lat="43.01148167" lon="-1.19014833">
        <ele>930.0</ele>
        <time>2019-07-31T17:26:18.087Z</time>
      </trkpt>
      <trkpt lat="43.01147833" lon="-1.19017">
        <ele>930.0</ele>
        <time>2019-07-31T17:26:19.090Z</time>
      </trkpt>
      <trkpt lat="43.011475" lon="-1.190185">
        <ele>930.0</ele>
        <time>2019-07-31T17:26:20.094Z</time>
      </trkpt>
      <trkpt lat="43.01146667" lon="-1.19020333">
        <ele>930.0</ele>
        <time>2019-07-31T17:26:21.100Z</time>
      </trkpt>
      <trkpt lat="43.011455" lon="-1.19022333">
        <ele>930.0</ele>
        <time>2019-07-31T17:26:22.105Z</time>
      </trkpt>
      <trkpt lat="43.011445" lon="-1.19024167">
        <ele>930.0</ele>
        <time>2019-07-31T17:26:23.111Z</time>
      </trkpt>
      <trkpt lat="43.01142667" lon="-1.190275">
        <ele>930.0</ele>
        <time>2019-07-31T17:26:24.115Z</time>
      </trkpt>
      <trkpt lat="43.01141833" lon="-1.1903">
        <ele>929.0</ele>
        <time>2019-07-31T17:26:25.120Z</time>
      </trkpt>
      <trkpt lat="43.01141333" lon="-1.19031667">
        <ele>929.0</ele>
        <time>2019-07-31T17:26:26.124Z</time>
      </trkpt>
      <trkpt lat="43.01140667" lon="-1.19034167">
        <ele>929.0</ele>
        <time>2019-07-31T17:26:27.131Z</time>
      </trkpt>
      <trkpt lat="43.0114" lon="-1.19035667">
        <ele>929.0</ele>
        <time>2019-07-31T17:26:28.134Z</time>
      </trkpt>
      <trkpt lat="43.01139167" lon="-1.190375">
        <ele>929.0</ele>
        <time>2019-07-31T17:26:29.139Z</time>
      </trkpt>
      <trkpt lat="43.01137667" lon="-1.19039333">
        <ele>929.0</ele>
        <time>2019-07-31T17:26:30.145Z</time>
      </trkpt>
      <trkpt lat="43.011365" lon="-1.19041">
        <ele>929.0</ele>
        <time>2019-07-31T17:26:31.150Z</time>
      </trkpt>
      <trkpt lat="43.01135833" lon="-1.19042333">
        <ele>929.0</ele>
        <time>2019-07-31T17:26:32.157Z</time>
      </trkpt>
      <trkpt lat="43.01134833" lon="-1.19044">
        <ele>929.0</ele>
        <time>2019-07-31T17:26:33.163Z</time>
      </trkpt>
      <trkpt lat="43.01134" lon="-1.19045833">
        <ele>929.0</ele>
        <time>2019-07-31T17:26:34.168Z</time>
      </trkpt>
      <trkpt lat="43.01132833" lon="-1.19048">
        <ele>929.0</ele>
        <time>2019-07-31T17:26:35.171Z</time>
      </trkpt>
      <trkpt lat="43.01132" lon="-1.19049833">
        <ele>929.0</ele>
        <time>2019-07-31T17:26:36.176Z</time>
      </trkpt>
      <trkpt lat="43.011315" lon="-1.19051">
        <ele>928.0</ele>
        <time>2019-07-31T17:26:37.181Z</time>
      </trkpt>
      <trkpt lat="43.011305" lon="-1.19052833">
        <ele>928.0</ele>
        <time>2019-07-31T17:26:38.186Z</time>
      </trkpt>
      <trkpt lat="43.011305" lon="-1.19052833">
        <ele>928.0</ele>
        <time>2019-07-31T17:26:39.067Z</time>
      </trkpt>
      <trkpt lat="43.0113" lon="-1.19054833">
        <ele>928.0</ele>
        <time>2019-07-31T17:26:40.074Z</time>
      </trkpt>
      <trkpt lat="43.01128667" lon="-1.19056833">
        <ele>928.0</ele>
        <time>2019-07-31T17:26:41.079Z</time>
      </trkpt>
      <trkpt lat="43.01127833" lon="-1.19058833">
        <ele>928.0</ele>
        <time>2019-07-31T17:26:42.084Z</time>
      </trkpt>
      <trkpt lat="43.01127" lon="-1.19060667">
        <ele>928.0</ele>
        <time>2019-07-31T17:26:43.089Z</time>
      </trkpt>
      <trkpt lat="43.01126333" lon="-1.19062">
        <ele>928.0</ele>
        <time>2019-07-31T17:26:44.095Z</time>
      </trkpt>
      <trkpt lat="43.01125333" lon="-1.19064">
        <ele>928.0</ele>
        <time>2019-07-31T17:26:45.101Z</time>
      </trkpt>
      <trkpt lat="43.011245" lon="-1.19066333">
        <ele>928.0</ele>
        <time>2019-07-31T17:26:46.110Z</time>
      </trkpt>
      <trkpt lat="43.01123833" lon="-1.19067833">
        <ele>928.0</ele>
        <time>2019-07-31T17:26:47.115Z</time>
      </trkpt>
      <trkpt lat="43.01123167" lon="-1.19069667">
        <ele>928.0</ele>
        <time>2019-07-31T17:26:48.119Z</time>
      </trkpt>
      <trkpt lat="43.01121167" lon="-1.19073167">
        <ele>928.0</ele>
        <time>2019-07-31T17:26:49.123Z</time>
      </trkpt>
      <trkpt lat="43.011205" lon="-1.19075">
        <ele>928.0</ele>
        <time>2019-07-31T17:26:50.129Z</time>
      </trkpt>
      <trkpt lat="43.01119667" lon="-1.19076333">
        <ele>929.0</ele>
        <time>2019-07-31T17:26:51.134Z</time>
      </trkpt>
      <trkpt lat="43.011185" lon="-1.190775">
        <ele>929.0</ele>
        <time>2019-07-31T17:26:52.139Z</time>
      </trkpt>
      <trkpt lat="43.011175" lon="-1.19079167">
        <ele>929.0</ele>
        <time>2019-07-31T17:26:53.144Z</time>
      </trkpt>
      <trkpt lat="43.01116333" lon="-1.19080833">
        <ele>929.0</ele>
        <time>2019-07-31T17:26:54.149Z</time>
      </trkpt>
      <trkpt lat="43.01115833" lon="-1.19082667">
        <ele>929.0</ele>
        <time>2019-07-31T17:26:55.155Z</time>
      </trkpt>
      <trkpt lat="43.011145" lon="-1.19084">
        <ele>930.0</ele>
        <time>2019-07-31T17:26:56.160Z</time>
      </trkpt>
      <trkpt lat="43.01113833" lon="-1.19085">
        <ele>930.0</ele>
        <time>2019-07-31T17:26:57.166Z</time>
      </trkpt>
      <trkpt lat="43.01113" lon="-1.190865">
        <ele>931.0</ele>
        <time>2019-07-31T17:26:58.172Z</time>
      </trkpt>
      <trkpt lat="43.011125" lon="-1.190885">
        <ele>931.0</ele>
        <time>2019-07-31T17:26:59.177Z</time>
      </trkpt>
      <trkpt lat="43.01112167" lon="-1.1909">
        <ele>931.0</ele>
        <time>2019-07-31T17:27:00.184Z</time>
      </trkpt>
      <trkpt lat="43.01112167" lon="-1.1909">
        <ele>931.0</ele>
        <time>2019-07-31T17:27:01.064Z</time>
      </trkpt>
      <trkpt lat="43.01111667" lon="-1.19092167">
        <ele>930.0</ele>
        <time>2019-07-31T17:27:02.070Z</time>
      </trkpt>
      <trkpt lat="43.01110833" lon="-1.19093833">
        <ele>930.0</ele>
        <time>2019-07-31T17:27:03.075Z</time>
      </trkpt>
      <trkpt lat="43.0111" lon="-1.190955">
        <ele>930.0</ele>
        <time>2019-07-31T17:27:04.079Z</time>
      </trkpt>
      <trkpt lat="43.01109167" lon="-1.19097167">
        <ele>931.0</ele>
        <time>2019-07-31T17:27:05.083Z</time>
      </trkpt>
      <trkpt lat="43.01108333" lon="-1.19099333">
        <ele>931.0</ele>
        <time>2019-07-31T17:27:06.089Z</time>
      </trkpt>
      <trkpt lat="43.01107833" lon="-1.19101333">
        <ele>930.0</ele>
        <time>2019-07-31T17:27:07.092Z</time>
      </trkpt>
      <trkpt lat="43.011075" lon="-1.19103167">
        <ele>930.0</ele>
        <time>2019-07-31T17:27:08.098Z</time>
      </trkpt>
      <trkpt lat="43.01106667" lon="-1.191055">
        <ele>931.0</ele>
        <time>2019-07-31T17:27:09.101Z</time>
      </trkpt>
      <trkpt lat="43.01106167" lon="-1.19107">
        <ele>931.0</ele>
        <time>2019-07-31T17:27:10.105Z</time>
      </trkpt>
      <trkpt lat="43.01105167" lon="-1.191085">
        <ele>931.0</ele>
        <time>2019-07-31T17:27:11.109Z</time>
      </trkpt>
      <trkpt lat="43.01104333" lon="-1.19110333">
        <ele>931.0</ele>
        <time>2019-07-31T17:27:12.114Z</time>
      </trkpt>
      <trkpt lat="43.01103833" lon="-1.19112333">
        <ele>931.0</ele>
        <time>2019-07-31T17:27:13.120Z</time>
      </trkpt>
      <trkpt lat="43.01102333" lon="-1.191155">
        <ele>931.0</ele>
        <time>2019-07-31T17:27:14.127Z</time>
      </trkpt>
      <trkpt lat="43.01101333" lon="-1.19117333">
        <ele>931.0</ele>
        <time>2019-07-31T17:27:15.133Z</time>
      </trkpt>
      <trkpt lat="43.011005" lon="-1.19119">
        <ele>931.0</ele>
        <time>2019-07-31T17:27:16.138Z</time>
      </trkpt>
      <trkpt lat="43.011" lon="-1.19121">
        <ele>931.0</ele>
        <time>2019-07-31T17:27:17.142Z</time>
      </trkpt>
      <trkpt lat="43.01098667" lon="-1.19123">
        <ele>932.0</ele>
        <time>2019-07-31T17:27:18.147Z</time>
      </trkpt>
      <trkpt lat="43.01097667" lon="-1.191245">
        <ele>932.0</ele>
        <time>2019-07-31T17:27:19.153Z</time>
      </trkpt>
      <trkpt lat="43.01097" lon="-1.19126">
        <ele>933.0</ele>
        <time>2019-07-31T17:27:20.159Z</time>
      </trkpt>
      <trkpt lat="43.01097167" lon="-1.19128">
        <ele>933.0</ele>
        <time>2019-07-31T17:27:21.166Z</time>
      </trkpt>
      <trkpt lat="43.01097333" lon="-1.19129833">
        <ele>933.0</ele>
        <time>2019-07-31T17:27:22.172Z</time>
      </trkpt>
      <trkpt lat="43.01097" lon="-1.191325">
        <ele>933.0</ele>
        <time>2019-07-31T17:27:23.177Z</time>
      </trkpt>
      <trkpt lat="43.01096833" lon="-1.19134833">
        <ele>933.0</ele>
        <time>2019-07-31T17:27:24.183Z</time>
      </trkpt>
      <trkpt lat="43.01096833" lon="-1.19134833">
        <ele>933.0</ele>
        <time>2019-07-31T17:27:25.064Z</time>
      </trkpt>
      <trkpt lat="43.010965" lon="-1.19136833">
        <ele>932.0</ele>
        <time>2019-07-31T17:27:26.068Z</time>
      </trkpt>
      <trkpt lat="43.01096167" lon="-1.191385">
        <ele>932.0</ele>
        <time>2019-07-31T17:27:27.073Z</time>
      </trkpt>
      <trkpt lat="43.010955" lon="-1.19140667">
        <ele>932.0</ele>
        <time>2019-07-31T17:27:28.078Z</time>
      </trkpt>
      <trkpt lat="43.01095" lon="-1.19142333">
        <ele>932.0</ele>
        <time>2019-07-31T17:27:29.084Z</time>
      </trkpt>
      <trkpt lat="43.01094667" lon="-1.19143833">
        <ele>931.0</ele>
        <time>2019-07-31T17:27:30.089Z</time>
      </trkpt>
      <trkpt lat="43.01093667" lon="-1.191455">
        <ele>931.0</ele>
        <time>2019-07-31T17:27:31.093Z</time>
      </trkpt>
      <trkpt lat="43.01092833" lon="-1.19147167">
        <ele>931.0</ele>
        <time>2019-07-31T17:27:32.097Z</time>
      </trkpt>
      <trkpt lat="43.010925" lon="-1.19149833">
        <ele>931.0</ele>
        <time>2019-07-31T17:27:33.103Z</time>
      </trkpt>
      <trkpt lat="43.010925" lon="-1.19154333">
        <ele>930.0</ele>
        <time>2019-07-31T17:27:34.108Z</time>
      </trkpt>
      <trkpt lat="43.01092333" lon="-1.19156833">
        <ele>930.0</ele>
        <time>2019-07-31T17:27:35.114Z</time>
      </trkpt>
      <trkpt lat="43.01092333" lon="-1.19156833">
        <ele>930.0</ele>
        <time>2019-07-31T17:27:36.119Z</time>
      </trkpt>
      <trkpt lat="43.01092167" lon="-1.19158833">
        <ele>930.0</ele>
        <time>2019-07-31T17:27:37.126Z</time>
      </trkpt>
      <trkpt lat="43.01091833" lon="-1.191605">
        <ele>931.0</ele>
        <time>2019-07-31T17:27:38.130Z</time>
      </trkpt>
      <trkpt lat="43.01091" lon="-1.19164833">
        <ele>931.0</ele>
        <time>2019-07-31T17:27:39.137Z</time>
      </trkpt>
      <trkpt lat="43.01090167" lon="-1.19166333">
        <ele>932.0</ele>
        <time>2019-07-31T17:27:40.143Z</time>
      </trkpt>
      <trkpt lat="43.01088833" lon="-1.19167833">
        <ele>932.0</ele>
        <time>2019-07-31T17:27:41.148Z</time>
      </trkpt>
      <trkpt lat="43.010875" lon="-1.191685">
        <ele>933.0</ele>
        <time>2019-07-31T17:27:42.154Z</time>
      </trkpt>
      <trkpt lat="43.010865" lon="-1.1917">
        <ele>934.0</ele>
        <time>2019-07-31T17:27:43.161Z</time>
      </trkpt>
      <trkpt lat="43.01085167" lon="-1.19170833">
        <ele>935.0</ele>
        <time>2019-07-31T17:27:44.168Z</time>
      </trkpt>
      <trkpt lat="43.010845" lon="-1.19172667">
        <ele>935.0</ele>
        <time>2019-07-31T17:27:45.171Z</time>
      </trkpt>
      <trkpt lat="43.01084" lon="-1.191745">
        <ele>936.0</ele>
        <time>2019-07-31T17:27:46.177Z</time>
      </trkpt>
      <trkpt lat="43.01082833" lon="-1.19175167">
        <ele>938.0</ele>
        <time>2019-07-31T17:27:47.183Z</time>
      </trkpt>
      <trkpt lat="43.01082833" lon="-1.19175167">
        <ele>938.0</ele>
        <time>2019-07-31T17:27:48.062Z</time>
      </trkpt>
      <trkpt lat="43.010815" lon="-1.19175333">
        <ele>940.0</ele>
        <time>2019-07-31T17:27:49.068Z</time>
      </trkpt>
      <trkpt lat="43.01079833" lon="-1.19175667">
        <ele>941.0</ele>
        <time>2019-07-31T17:27:50.074Z</time>
      </trkpt>
      <trkpt lat="43.01078167" lon="-1.19176167">
        <ele>942.0</ele>
        <time>2019-07-31T17:27:51.080Z</time>
      </trkpt>
      <trkpt lat="43.01076667" lon="-1.19177833">
        <ele>943.0</ele>
        <time>2019-07-31T17:27:52.085Z</time>
      </trkpt>
      <trkpt lat="43.01076833" lon="-1.19181">
        <ele>942.0</ele>
        <time>2019-07-31T17:27:53.090Z</time>
      </trkpt>
      <trkpt lat="43.01077167" lon="-1.191845">
        <ele>941.0</ele>
        <time>2019-07-31T17:27:54.096Z</time>
      </trkpt>
      <trkpt lat="43.01077167" lon="-1.19186833">
        <ele>940.0</ele>
        <time>2019-07-31T17:27:55.104Z</time>
      </trkpt>
      <trkpt lat="43.01077333" lon="-1.19189333">
        <ele>938.0</ele>
        <time>2019-07-31T17:27:56.110Z</time>
      </trkpt>
      <trkpt lat="43.01078167" lon="-1.19192333">
        <ele>936.0</ele>
        <time>2019-07-31T17:27:57.116Z</time>
      </trkpt>
      <trkpt lat="43.01077667" lon="-1.19195333">
        <ele>935.0</ele>
        <time>2019-07-31T17:27:58.119Z</time>
      </trkpt>
      <trkpt lat="43.01078333" lon="-1.19199833">
        <ele>934.0</ele>
        <time>2019-07-31T17:27:59.124Z</time>
      </trkpt>
      <trkpt lat="43.01077333" lon="-1.19201833">
        <ele>934.0</ele>
        <time>2019-07-31T17:28:00.131Z</time>
      </trkpt>
      <trkpt lat="43.01076667" lon="-1.19204">
        <ele>935.0</ele>
        <time>2019-07-31T17:28:01.136Z</time>
      </trkpt>
      <trkpt lat="43.01076667" lon="-1.192065">
        <ele>935.0</ele>
        <time>2019-07-31T17:28:02.141Z</time>
      </trkpt>
      <trkpt lat="43.010765" lon="-1.19208667">
        <ele>937.0</ele>
        <time>2019-07-31T17:28:03.147Z</time>
      </trkpt>
      <trkpt lat="43.01076" lon="-1.19210667">
        <ele>937.0</ele>
        <time>2019-07-31T17:28:04.153Z</time>
      </trkpt>
      <trkpt lat="43.01075833" lon="-1.19212833">
        <ele>937.0</ele>
        <time>2019-07-31T17:28:05.156Z</time>
      </trkpt>
      <trkpt lat="43.01076" lon="-1.19215167">
        <ele>937.0</ele>
        <time>2019-07-31T17:28:06.161Z</time>
      </trkpt>
      <trkpt lat="43.01074833" lon="-1.19217">
        <ele>937.0</ele>
        <time>2019-07-31T17:28:07.167Z</time>
      </trkpt>
      <trkpt lat="43.010745" lon="-1.19219">
        <ele>936.0</ele>
        <time>2019-07-31T17:28:08.173Z</time>
      </trkpt>
      <trkpt lat="43.01075167" lon="-1.19221667">
        <ele>936.0</ele>
        <time>2019-07-31T17:28:09.175Z</time>
      </trkpt>
      <trkpt lat="43.01075" lon="-1.19224333">
        <ele>935.0</ele>
        <time>2019-07-31T17:28:10.182Z</time>
      </trkpt>
      <trkpt lat="43.010745" lon="-1.192265">
        <ele>935.0</ele>
        <time>2019-07-31T17:28:11.186Z</time>
      </trkpt>
      <trkpt lat="43.010745" lon="-1.192265">
        <ele>935.0</ele>
        <time>2019-07-31T17:28:12.066Z</time>
      </trkpt>
      <trkpt lat="43.01074333" lon="-1.19228833">
        <ele>934.0</ele>
        <time>2019-07-31T17:28:13.070Z</time>
      </trkpt>
      <trkpt lat="43.01074833" lon="-1.19231667">
        <ele>934.0</ele>
        <time>2019-07-31T17:28:14.076Z</time>
      </trkpt>
      <trkpt lat="43.01075167" lon="-1.19234333">
        <ele>933.0</ele>
        <time>2019-07-31T17:28:15.079Z</time>
      </trkpt>
      <trkpt lat="43.01074833" lon="-1.192365">
        <ele>933.0</ele>
        <time>2019-07-31T17:28:16.086Z</time>
      </trkpt>
      <trkpt lat="43.010745" lon="-1.192385">
        <ele>932.0</ele>
        <time>2019-07-31T17:28:17.091Z</time>
      </trkpt>
      <trkpt lat="43.01075" lon="-1.19240333">
        <ele>931.0</ele>
        <time>2019-07-31T17:28:18.097Z</time>
      </trkpt>
      <trkpt lat="43.01075333" lon="-1.19242667">
        <ele>931.0</ele>
        <time>2019-07-31T17:28:19.103Z</time>
      </trkpt>
      <trkpt lat="43.010745" lon="-1.19247333">
        <ele>930.0</ele>
        <time>2019-07-31T17:28:20.109Z</time>
      </trkpt>
      <trkpt lat="43.010745" lon="-1.19247333">
        <ele>930.0</ele>
        <time>2019-07-31T17:28:21.115Z</time>
      </trkpt>
      <trkpt lat="43.01074667" lon="-1.192495">
        <ele>930.0</ele>
        <time>2019-07-31T17:28:22.120Z</time>
      </trkpt>
      <trkpt lat="43.01074333" lon="-1.192515">
        <ele>930.0</ele>
        <time>2019-07-31T17:28:23.127Z</time>
      </trkpt>
      <trkpt lat="43.01073333" lon="-1.192555">
        <ele>929.0</ele>
        <time>2019-07-31T17:28:24.130Z</time>
      </trkpt>
      <trkpt lat="43.01072667" lon="-1.19257">
        <ele>929.0</ele>
        <time>2019-07-31T17:28:25.137Z</time>
      </trkpt>
      <trkpt lat="43.010725" lon="-1.19259167">
        <ele>929.0</ele>
        <time>2019-07-31T17:28:26.143Z</time>
      </trkpt>
      <trkpt lat="43.01072333" lon="-1.192615">
        <ele>929.0</ele>
        <time>2019-07-31T17:28:27.149Z</time>
      </trkpt>
      <trkpt lat="43.01072" lon="-1.19263667">
        <ele>929.0</ele>
        <time>2019-07-31T17:28:28.155Z</time>
      </trkpt>
      <trkpt lat="43.01072333" lon="-1.19265667">
        <ele>929.0</ele>
        <time>2019-07-31T17:28:29.159Z</time>
      </trkpt>
      <trkpt lat="43.01073" lon="-1.19268333">
        <ele>928.0</ele>
        <time>2019-07-31T17:28:30.161Z</time>
      </trkpt>
      <trkpt lat="43.01073667" lon="-1.19270833">
        <ele>928.0</ele>
        <time>2019-07-31T17:28:31.166Z</time>
      </trkpt>
      <trkpt lat="43.01073833" lon="-1.19272833">
        <ele>928.0</ele>
        <time>2019-07-31T17:28:32.173Z</time>
      </trkpt>
      <trkpt lat="43.01073833" lon="-1.19275333">
        <ele>927.0</ele>
        <time>2019-07-31T17:28:33.178Z</time>
      </trkpt>
      <trkpt lat="43.01073833" lon="-1.192775">
        <ele>927.0</ele>
        <time>2019-07-31T17:28:34.183Z</time>
      </trkpt>
      <trkpt lat="43.01073833" lon="-1.192775">
        <ele>927.0</ele>
        <time>2019-07-31T17:28:35.064Z</time>
      </trkpt>
      <trkpt lat="43.01074167" lon="-1.19279667">
        <ele>927.0</ele>
        <time>2019-07-31T17:28:36.069Z</time>
      </trkpt>
      <trkpt lat="43.01074167" lon="-1.19282">
        <ele>926.0</ele>
        <time>2019-07-31T17:28:37.075Z</time>
      </trkpt>
      <trkpt lat="43.01074167" lon="-1.19283667">
        <ele>926.0</ele>
        <time>2019-07-31T17:28:38.081Z</time>
      </trkpt>
      <trkpt lat="43.01074167" lon="-1.19286">
        <ele>926.0</ele>
        <time>2019-07-31T17:28:39.086Z</time>
      </trkpt>
      <trkpt lat="43.01073833" lon="-1.19288167">
        <ele>925.0</ele>
        <time>2019-07-31T17:28:40.089Z</time>
      </trkpt>
      <trkpt lat="43.01073833" lon="-1.19290333">
        <ele>925.0</ele>
        <time>2019-07-31T17:28:41.094Z</time>
      </trkpt>
      <trkpt lat="43.010735" lon="-1.19292167">
        <ele>924.0</ele>
        <time>2019-07-31T17:28:42.100Z</time>
      </trkpt>
      <trkpt lat="43.010735" lon="-1.192945">
        <ele>924.0</ele>
        <time>2019-07-31T17:28:43.105Z</time>
      </trkpt>
      <trkpt lat="43.01073" lon="-1.192965">
        <ele>924.0</ele>
        <time>2019-07-31T17:28:44.110Z</time>
      </trkpt>
      <trkpt lat="43.01071833" lon="-1.193005">
        <ele>924.0</ele>
        <time>2019-07-31T17:28:45.117Z</time>
      </trkpt>
      <trkpt lat="43.01071833" lon="-1.193005">
        <ele>924.0</ele>
        <time>2019-07-31T17:28:46.123Z</time>
      </trkpt>
      <trkpt lat="43.01071" lon="-1.19301667">
        <ele>924.0</ele>
        <time>2019-07-31T17:28:47.130Z</time>
      </trkpt>
      <trkpt lat="43.01069833" lon="-1.193065">
        <ele>924.0</ele>
        <time>2019-07-31T17:28:48.134Z</time>
      </trkpt>
      <trkpt lat="43.01069333" lon="-1.19308667">
        <ele>923.0</ele>
        <time>2019-07-31T17:28:49.139Z</time>
      </trkpt>
      <trkpt lat="43.01068833" lon="-1.19310833">
        <ele>923.0</ele>
        <time>2019-07-31T17:28:50.146Z</time>
      </trkpt>
      <trkpt lat="43.01068167" lon="-1.19312833">
        <ele>923.0</ele>
        <time>2019-07-31T17:28:51.151Z</time>
      </trkpt>
      <trkpt lat="43.01067667" lon="-1.19314833">
        <ele>923.0</ele>
        <time>2019-07-31T17:28:52.157Z</time>
      </trkpt>
      <trkpt lat="43.01066833" lon="-1.19316333">
        <ele>923.0</ele>
        <time>2019-07-31T17:28:53.162Z</time>
      </trkpt>
      <trkpt lat="43.01065833" lon="-1.193185">
        <ele>924.0</ele>
        <time>2019-07-31T17:28:54.168Z</time>
      </trkpt>
      <trkpt lat="43.01065167" lon="-1.193205">
        <ele>924.0</ele>
        <time>2019-07-31T17:28:55.173Z</time>
      </trkpt>
      <trkpt lat="43.01064667" lon="-1.19322167">
        <ele>924.0</ele>
        <time>2019-07-31T17:28:56.178Z</time>
      </trkpt>
      <trkpt lat="43.01063833" lon="-1.193245">
        <ele>924.0</ele>
        <time>2019-07-31T17:28:57.183Z</time>
      </trkpt>
      <trkpt lat="43.01063833" lon="-1.193245">
        <ele>924.0</ele>
        <time>2019-07-31T17:28:58.063Z</time>
      </trkpt>
      <trkpt lat="43.01063333" lon="-1.19326667">
        <ele>924.0</ele>
        <time>2019-07-31T17:28:59.068Z</time>
      </trkpt>
      <trkpt lat="43.010625" lon="-1.19328667">
        <ele>924.0</ele>
        <time>2019-07-31T17:29:00.072Z</time>
      </trkpt>
      <trkpt lat="43.010615" lon="-1.193305">
        <ele>925.0</ele>
        <time>2019-07-31T17:29:01.078Z</time>
      </trkpt>
      <trkpt lat="43.01060667" lon="-1.19331833">
        <ele>925.0</ele>
        <time>2019-07-31T17:29:02.084Z</time>
      </trkpt>
      <trkpt lat="43.01059333" lon="-1.19333833">
        <ele>925.0</ele>
        <time>2019-07-31T17:29:03.090Z</time>
      </trkpt>
      <trkpt lat="43.01058333" lon="-1.193355">
        <ele>926.0</ele>
        <time>2019-07-31T17:29:04.095Z</time>
      </trkpt>
      <trkpt lat="43.01057167" lon="-1.19337">
        <ele>926.0</ele>
        <time>2019-07-31T17:29:05.101Z</time>
      </trkpt>
      <trkpt lat="43.01056167" lon="-1.19338833">
        <ele>926.0</ele>
        <time>2019-07-31T17:29:06.106Z</time>
      </trkpt>
      <trkpt lat="43.01055" lon="-1.193405">
        <ele>926.0</ele>
        <time>2019-07-31T17:29:07.112Z</time>
      </trkpt>
      <trkpt lat="43.01054" lon="-1.19342333">
        <ele>926.0</ele>
        <time>2019-07-31T17:29:08.117Z</time>
      </trkpt>
      <trkpt lat="43.01053333" lon="-1.19347167">
        <ele>926.0</ele>
        <time>2019-07-31T17:29:09.124Z</time>
      </trkpt>
      <trkpt lat="43.01053" lon="-1.19349">
        <ele>925.0</ele>
        <time>2019-07-31T17:29:10.129Z</time>
      </trkpt>
      <trkpt lat="43.010525" lon="-1.19352">
        <ele>925.0</ele>
        <time>2019-07-31T17:29:11.135Z</time>
      </trkpt>
      <trkpt lat="43.01052" lon="-1.19354333">
        <ele>925.0</ele>
        <time>2019-07-31T17:29:12.140Z</time>
      </trkpt>
      <trkpt lat="43.01051333" lon="-1.19356333">
        <ele>925.0</ele>
        <time>2019-07-31T17:29:13.144Z</time>
      </trkpt>
      <trkpt lat="43.010505" lon="-1.19358333">
        <ele>925.0</ele>
        <time>2019-07-31T17:29:14.149Z</time>
      </trkpt>
      <trkpt lat="43.01049667" lon="-1.19360333">
        <ele>925.0</ele>
        <time>2019-07-31T17:29:15.154Z</time>
      </trkpt>
      <trkpt lat="43.01049167" lon="-1.193625">
        <ele>925.0</ele>
        <time>2019-07-31T17:29:16.160Z</time>
      </trkpt>
      <trkpt lat="43.01048833" lon="-1.19364667">
        <ele>925.0</ele>
        <time>2019-07-31T17:29:17.166Z</time>
      </trkpt>
      <trkpt lat="43.010485" lon="-1.19366333">
        <ele>925.0</ele>
        <time>2019-07-31T17:29:18.172Z</time>
      </trkpt>
      <trkpt lat="43.01048167" lon="-1.19368833">
        <ele>925.0</ele>
        <time>2019-07-31T17:29:19.177Z</time>
      </trkpt>
      <trkpt lat="43.01048" lon="-1.19371">
        <ele>924.0</ele>
        <time>2019-07-31T17:29:20.181Z</time>
      </trkpt>
      <trkpt lat="43.01048" lon="-1.19373167">
        <ele>924.0</ele>
        <time>2019-07-31T17:29:21.186Z</time>
      </trkpt>
      <trkpt lat="43.01048" lon="-1.19373167">
        <ele>924.0</ele>
        <time>2019-07-31T17:29:22.065Z</time>
      </trkpt>
      <trkpt lat="43.01047833" lon="-1.19375333">
        <ele>924.0</ele>
        <time>2019-07-31T17:29:23.070Z</time>
      </trkpt>
      <trkpt lat="43.01047667" lon="-1.193775">
        <ele>924.0</ele>
        <time>2019-07-31T17:29:24.075Z</time>
      </trkpt>
      <trkpt lat="43.01047667" lon="-1.19379667">
        <ele>923.0</ele>
        <time>2019-07-31T17:29:25.077Z</time>
      </trkpt>
      <trkpt lat="43.010475" lon="-1.19381667">
        <ele>923.0</ele>
        <time>2019-07-31T17:29:26.081Z</time>
      </trkpt>
      <trkpt lat="43.01047167" lon="-1.19383833">
        <ele>922.0</ele>
        <time>2019-07-31T17:29:27.087Z</time>
      </trkpt>
      <trkpt lat="43.01046667" lon="-1.19386">
        <ele>923.0</ele>
        <time>2019-07-31T17:29:28.091Z</time>
      </trkpt>
      <trkpt lat="43.01046167" lon="-1.19388">
        <ele>923.0</ele>
        <time>2019-07-31T17:29:29.097Z</time>
      </trkpt>
      <trkpt lat="43.01045833" lon="-1.1939">
        <ele>922.0</ele>
        <time>2019-07-31T17:29:30.098Z</time>
      </trkpt>
      <trkpt lat="43.01045333" lon="-1.19391833">
        <ele>922.0</ele>
        <time>2019-07-31T17:29:31.105Z</time>
      </trkpt>
      <trkpt lat="43.01044833" lon="-1.19393833">
        <ele>922.0</ele>
        <time>2019-07-31T17:29:32.112Z</time>
      </trkpt>
      <trkpt lat="43.01044167" lon="-1.19396">
        <ele>922.0</ele>
        <time>2019-07-31T17:29:33.117Z</time>
      </trkpt>
      <trkpt lat="43.01043" lon="-1.19399667">
        <ele>921.0</ele>
        <time>2019-07-31T17:29:34.122Z</time>
      </trkpt>
      <trkpt lat="43.01042167" lon="-1.19401833">
        <ele>921.0</ele>
        <time>2019-07-31T17:29:35.127Z</time>
      </trkpt>
      <trkpt lat="43.01042167" lon="-1.19401833">
        <ele>921.0</ele>
        <time>2019-07-31T17:29:36.131Z</time>
      </trkpt>
      <trkpt lat="43.01041833" lon="-1.19404">
        <ele>921.0</ele>
        <time>2019-07-31T17:29:37.136Z</time>
      </trkpt>
      <trkpt lat="43.01039667" lon="-1.19407167">
        <ele>921.0</ele>
        <time>2019-07-31T17:29:38.141Z</time>
      </trkpt>
      <trkpt lat="43.01038667" lon="-1.19408667">
        <ele>922.0</ele>
        <time>2019-07-31T17:29:39.148Z</time>
      </trkpt>
      <trkpt lat="43.010375" lon="-1.19410167">
        <ele>923.0</ele>
        <time>2019-07-31T17:29:40.155Z</time>
      </trkpt>
      <trkpt lat="43.01036667" lon="-1.19411833">
        <ele>923.0</ele>
        <time>2019-07-31T17:29:41.160Z</time>
      </trkpt>
      <trkpt lat="43.01036" lon="-1.19413333">
        <ele>924.0</ele>
        <time>2019-07-31T17:29:42.165Z</time>
      </trkpt>
      <trkpt lat="43.010355" lon="-1.19414833">
        <ele>925.0</ele>
        <time>2019-07-31T17:29:43.172Z</time>
      </trkpt>
      <trkpt lat="43.010345" lon="-1.19416167">
        <ele>925.0</ele>
        <time>2019-07-31T17:29:44.176Z</time>
      </trkpt>
      <trkpt lat="43.010335" lon="-1.19417667">
        <ele>925.0</ele>
        <time>2019-07-31T17:29:45.178Z</time>
      </trkpt>
      <trkpt lat="43.01032167" lon="-1.19418833">
        <ele>925.0</ele>
        <time>2019-07-31T17:29:46.182Z</time>
      </trkpt>
      <trkpt lat="43.01031" lon="-1.1942">
        <ele>926.0</ele>
        <time>2019-07-31T17:29:47.185Z</time>
      </trkpt>
      <trkpt lat="43.01031" lon="-1.1942">
        <ele>926.0</ele>
        <time>2019-07-31T17:29:48.064Z</time>
      </trkpt>
      <trkpt lat="43.01029" lon="-1.19420667">
        <ele>927.0</ele>
        <time>2019-07-31T17:29:49.065Z</time>
      </trkpt>
      <trkpt lat="43.010275" lon="-1.19421833">
        <ele>926.0</ele>
        <time>2019-07-31T17:29:50.068Z</time>
      </trkpt>
      <trkpt lat="43.01025833" lon="-1.19422833">
        <ele>926.0</ele>
        <time>2019-07-31T17:29:51.074Z</time>
      </trkpt>
      <trkpt lat="43.01024833" lon="-1.19423833">
        <ele>927.0</ele>
        <time>2019-07-31T17:29:52.082Z</time>
      </trkpt>
      <trkpt lat="43.01023333" lon="-1.19425">
        <ele>927.0</ele>
        <time>2019-07-31T17:29:53.089Z</time>
      </trkpt>
      <trkpt lat="43.01022333" lon="-1.19425833">
        <ele>927.0</ele>
        <time>2019-07-31T17:29:54.093Z</time>
      </trkpt>
      <trkpt lat="43.010205" lon="-1.19426833">
        <ele>926.0</ele>
        <time>2019-07-31T17:29:55.099Z</time>
      </trkpt>
      <trkpt lat="43.01018667" lon="-1.19427333">
        <ele>926.0</ele>
        <time>2019-07-31T17:29:56.104Z</time>
      </trkpt>
      <trkpt lat="43.010165" lon="-1.19427833">
        <ele>926.0</ele>
        <time>2019-07-31T17:29:57.108Z</time>
      </trkpt>
      <trkpt lat="43.01015167" lon="-1.19428833">
        <ele>926.0</ele>
        <time>2019-07-31T17:29:58.112Z</time>
      </trkpt>
      <trkpt lat="43.01012667" lon="-1.19431167">
        <ele>927.0</ele>
        <time>2019-07-31T17:29:59.117Z</time>
      </trkpt>
      <trkpt lat="43.01011167" lon="-1.19432333">
        <ele>927.0</ele>
        <time>2019-07-31T17:30:00.121Z</time>
      </trkpt>
      <trkpt lat="43.01010167" lon="-1.19433833">
        <ele>927.0</ele>
        <time>2019-07-31T17:30:01.127Z</time>
      </trkpt>
      <trkpt lat="43.01009" lon="-1.19435167">
        <ele>927.0</ele>
        <time>2019-07-31T17:30:02.132Z</time>
      </trkpt>
      <trkpt lat="43.01009" lon="-1.19435167">
        <ele>927.0</ele>
        <time>2019-07-31T17:30:03.137Z</time>
      </trkpt>
      <trkpt lat="43.01005" lon="-1.19437333">
        <ele>927.0</ele>
        <time>2019-07-31T17:30:04.140Z</time>
      </trkpt>
      <trkpt lat="43.01003667" lon="-1.194385">
        <ele>927.0</ele>
        <time>2019-07-31T17:30:05.144Z</time>
      </trkpt>
      <trkpt lat="43.01002167" lon="-1.194395">
        <ele>927.0</ele>
        <time>2019-07-31T17:30:06.149Z</time>
      </trkpt>
      <trkpt lat="43.01001333" lon="-1.194405">
        <ele>927.0</ele>
        <time>2019-07-31T17:30:07.153Z</time>
      </trkpt>
      <trkpt lat="43.00999667" lon="-1.19442167">
        <ele>927.0</ele>
        <time>2019-07-31T17:30:08.159Z</time>
      </trkpt>
      <trkpt lat="43.00998833" lon="-1.19443667">
        <ele>927.0</ele>
        <time>2019-07-31T17:30:09.165Z</time>
      </trkpt>
      <trkpt lat="43.00997833" lon="-1.19445333">
        <ele>927.0</ele>
        <time>2019-07-31T17:30:10.169Z</time>
      </trkpt>
      <trkpt lat="43.00996833" lon="-1.19447167">
        <ele>927.0</ele>
        <time>2019-07-31T17:30:11.176Z</time>
      </trkpt>
      <trkpt lat="43.00995667" lon="-1.19449">
        <ele>926.0</ele>
        <time>2019-07-31T17:30:12.182Z</time>
      </trkpt>
      <trkpt lat="43.00995667" lon="-1.19449">
        <ele>926.0</ele>
        <time>2019-07-31T17:30:13.063Z</time>
      </trkpt>
      <trkpt lat="43.009945" lon="-1.194505">
        <ele>926.0</ele>
        <time>2019-07-31T17:30:14.069Z</time>
      </trkpt>
      <trkpt lat="43.009935" lon="-1.19452167">
        <ele>926.0</ele>
        <time>2019-07-31T17:30:15.075Z</time>
      </trkpt>
      <trkpt lat="43.00993167" lon="-1.194545">
        <ele>926.0</ele>
        <time>2019-07-31T17:30:16.081Z</time>
      </trkpt>
      <trkpt lat="43.00993" lon="-1.19457">
        <ele>926.0</ele>
        <time>2019-07-31T17:30:17.085Z</time>
      </trkpt>
      <trkpt lat="43.00993" lon="-1.19459833">
        <ele>925.0</ele>
        <time>2019-07-31T17:30:18.090Z</time>
      </trkpt>
      <trkpt lat="43.00992667" lon="-1.19462167">
        <ele>925.0</ele>
        <time>2019-07-31T17:30:19.095Z</time>
      </trkpt>
      <trkpt lat="43.00992" lon="-1.19464833">
        <ele>926.0</ele>
        <time>2019-07-31T17:30:20.102Z</time>
      </trkpt>
      <trkpt lat="43.00991833" lon="-1.19466833">
        <ele>926.0</ele>
        <time>2019-07-31T17:30:21.108Z</time>
      </trkpt>
      <trkpt lat="43.00990667" lon="-1.19471">
        <ele>926.0</ele>
        <time>2019-07-31T17:30:22.114Z</time>
      </trkpt>
      <trkpt lat="43.00990167" lon="-1.19472833">
        <ele>926.0</ele>
        <time>2019-07-31T17:30:23.119Z</time>
      </trkpt>
      <trkpt lat="43.00989667" lon="-1.194745">
        <ele>926.0</ele>
        <time>2019-07-31T17:30:24.123Z</time>
      </trkpt>
      <trkpt lat="43.00989333" lon="-1.19477">
        <ele>925.0</ele>
        <time>2019-07-31T17:30:25.128Z</time>
      </trkpt>
      <trkpt lat="43.009885" lon="-1.19479">
        <ele>926.0</ele>
        <time>2019-07-31T17:30:26.133Z</time>
      </trkpt>
      <trkpt lat="43.00988" lon="-1.19480667">
        <ele>925.0</ele>
        <time>2019-07-31T17:30:27.137Z</time>
      </trkpt>
      <trkpt lat="43.00987833" lon="-1.19482833">
        <ele>925.0</ele>
        <time>2019-07-31T17:30:28.142Z</time>
      </trkpt>
      <trkpt lat="43.009875" lon="-1.19485167">
        <ele>925.0</ele>
        <time>2019-07-31T17:30:29.146Z</time>
      </trkpt>
      <trkpt lat="43.00987167" lon="-1.19487167">
        <ele>924.0</ele>
        <time>2019-07-31T17:30:30.153Z</time>
      </trkpt>
      <trkpt lat="43.00986167" lon="-1.19489333">
        <ele>924.0</ele>
        <time>2019-07-31T17:30:31.160Z</time>
      </trkpt>
      <trkpt lat="43.00985333" lon="-1.19490833">
        <ele>925.0</ele>
        <time>2019-07-31T17:30:32.166Z</time>
      </trkpt>
      <trkpt lat="43.009845" lon="-1.19492667">
        <ele>925.0</ele>
        <time>2019-07-31T17:30:33.172Z</time>
      </trkpt>
      <trkpt lat="43.00983833" lon="-1.194945">
        <ele>924.0</ele>
        <time>2019-07-31T17:30:34.177Z</time>
      </trkpt>
      <trkpt lat="43.00983833" lon="-1.19496833">
        <ele>924.0</ele>
        <time>2019-07-31T17:30:35.181Z</time>
      </trkpt>
      <trkpt lat="43.00983833" lon="-1.19496833">
        <ele>924.0</ele>
        <time>2019-07-31T17:30:36.061Z</time>
      </trkpt>
      <trkpt lat="43.00983167" lon="-1.19498833">
        <ele>924.0</ele>
        <time>2019-07-31T17:30:37.066Z</time>
      </trkpt>
      <trkpt lat="43.00983333" lon="-1.195015">
        <ele>924.0</ele>
        <time>2019-07-31T17:30:38.072Z</time>
      </trkpt>
      <trkpt lat="43.00983667" lon="-1.19503833">
        <ele>924.0</ele>
        <time>2019-07-31T17:30:39.076Z</time>
      </trkpt>
      <trkpt lat="43.009835" lon="-1.19505667">
        <ele>924.0</ele>
        <time>2019-07-31T17:30:40.083Z</time>
      </trkpt>
      <trkpt lat="43.00983" lon="-1.19508167">
        <ele>923.0</ele>
        <time>2019-07-31T17:30:41.088Z</time>
      </trkpt>
      <trkpt lat="43.009825" lon="-1.19510167">
        <ele>923.0</ele>
        <time>2019-07-31T17:30:42.094Z</time>
      </trkpt>
      <trkpt lat="43.00982167" lon="-1.19512167">
        <ele>923.0</ele>
        <time>2019-07-31T17:30:43.099Z</time>
      </trkpt>
      <trkpt lat="43.00981167" lon="-1.19514">
        <ele>922.0</ele>
        <time>2019-07-31T17:30:44.105Z</time>
      </trkpt>
      <trkpt lat="43.00980167" lon="-1.19517333">
        <ele>923.0</ele>
        <time>2019-07-31T17:30:45.111Z</time>
      </trkpt>
      <trkpt lat="43.00979833" lon="-1.195195">
        <ele>923.0</ele>
        <time>2019-07-31T17:30:46.115Z</time>
      </trkpt>
      <trkpt lat="43.00979167" lon="-1.19521333">
        <ele>923.0</ele>
        <time>2019-07-31T17:30:47.121Z</time>
      </trkpt>
      <trkpt lat="43.00978333" lon="-1.19522833">
        <ele>923.0</ele>
        <time>2019-07-31T17:30:48.126Z</time>
      </trkpt>
      <trkpt lat="43.00977167" lon="-1.19524333">
        <ele>922.0</ele>
        <time>2019-07-31T17:30:49.128Z</time>
      </trkpt>
      <trkpt lat="43.00976167" lon="-1.19526">
        <ele>922.0</ele>
        <time>2019-07-31T17:30:50.132Z</time>
      </trkpt>
      <trkpt lat="43.00975333" lon="-1.19527667">
        <ele>922.0</ele>
        <time>2019-07-31T17:30:51.135Z</time>
      </trkpt>
      <trkpt lat="43.009745" lon="-1.19529333">
        <ele>922.0</ele>
        <time>2019-07-31T17:30:52.142Z</time>
      </trkpt>
      <trkpt lat="43.00973833" lon="-1.19531333">
        <ele>922.0</ele>
        <time>2019-07-31T17:30:53.148Z</time>
      </trkpt>
      <trkpt lat="43.00973" lon="-1.19533167">
        <ele>923.0</ele>
        <time>2019-07-31T17:30:54.155Z</time>
      </trkpt>
      <trkpt lat="43.00972167" lon="-1.19535167">
        <ele>923.0</ele>
        <time>2019-07-31T17:30:55.162Z</time>
      </trkpt>
      <trkpt lat="43.00971833" lon="-1.19537333">
        <ele>922.0</ele>
        <time>2019-07-31T17:30:56.169Z</time>
      </trkpt>
      <trkpt lat="43.00971167" lon="-1.19539333">
        <ele>922.0</ele>
        <time>2019-07-31T17:30:57.175Z</time>
      </trkpt>
      <trkpt lat="43.00971" lon="-1.19541333">
        <ele>921.0</ele>
        <time>2019-07-31T17:30:58.179Z</time>
      </trkpt>
      <trkpt lat="43.00970333" lon="-1.19543333">
        <ele>922.0</ele>
        <time>2019-07-31T17:30:59.185Z</time>
      </trkpt>
      <trkpt lat="43.00970333" lon="-1.19543333">
        <ele>922.0</ele>
        <time>2019-07-31T17:31:00.064Z</time>
      </trkpt>
      <trkpt lat="43.00969667" lon="-1.19545167">
        <ele>921.0</ele>
        <time>2019-07-31T17:31:01.068Z</time>
      </trkpt>
      <trkpt lat="43.00968833" lon="-1.19547">
        <ele>922.0</ele>
        <time>2019-07-31T17:31:02.071Z</time>
      </trkpt>
      <trkpt lat="43.00968333" lon="-1.19548833">
        <ele>922.0</ele>
        <time>2019-07-31T17:31:03.078Z</time>
      </trkpt>
      <trkpt lat="43.00967833" lon="-1.19550833">
        <ele>922.0</ele>
        <time>2019-07-31T17:31:04.083Z</time>
      </trkpt>
      <trkpt lat="43.00967833" lon="-1.19553167">
        <ele>921.0</ele>
        <time>2019-07-31T17:31:05.089Z</time>
      </trkpt>
      <trkpt lat="43.00967167" lon="-1.19555167">
        <ele>921.0</ele>
        <time>2019-07-31T17:31:06.093Z</time>
      </trkpt>
      <trkpt lat="43.00966167" lon="-1.19556667">
        <ele>922.0</ele>
        <time>2019-07-31T17:31:07.099Z</time>
      </trkpt>
      <trkpt lat="43.00964833" lon="-1.19558">
        <ele>923.0</ele>
        <time>2019-07-31T17:31:08.104Z</time>
      </trkpt>
      <trkpt lat="43.00963" lon="-1.19561167">
        <ele>923.0</ele>
        <time>2019-07-31T17:31:09.110Z</time>
      </trkpt>
      <trkpt lat="43.00962833" lon="-1.19563167">
        <ele>923.0</ele>
        <time>2019-07-31T17:31:10.116Z</time>
      </trkpt>
      <trkpt lat="43.00962667" lon="-1.19565167">
        <ele>922.0</ele>
        <time>2019-07-31T17:31:11.121Z</time>
      </trkpt>
      <trkpt lat="43.009625" lon="-1.19567333">
        <ele>921.0</ele>
        <time>2019-07-31T17:31:12.126Z</time>
      </trkpt>
      <trkpt lat="43.00962" lon="-1.19569333">
        <ele>920.0</ele>
        <time>2019-07-31T17:31:13.132Z</time>
      </trkpt>
      <trkpt lat="43.00961833" lon="-1.195715">
        <ele>920.0</ele>
        <time>2019-07-31T17:31:14.137Z</time>
      </trkpt>
      <trkpt lat="43.00961333" lon="-1.195735">
        <ele>919.0</ele>
        <time>2019-07-31T17:31:15.143Z</time>
      </trkpt>
      <trkpt lat="43.009605" lon="-1.19575333">
        <ele>919.0</ele>
        <time>2019-07-31T17:31:16.150Z</time>
      </trkpt>
      <trkpt lat="43.00959667" lon="-1.19577">
        <ele>919.0</ele>
        <time>2019-07-31T17:31:17.156Z</time>
      </trkpt>
      <trkpt lat="43.00958667" lon="-1.195785">
        <ele>920.0</ele>
        <time>2019-07-31T17:31:18.161Z</time>
      </trkpt>
      <trkpt lat="43.00957" lon="-1.19579667">
        <ele>921.0</ele>
        <time>2019-07-31T17:31:19.168Z</time>
      </trkpt>
      <trkpt lat="43.00955667" lon="-1.19581167">
        <ele>921.0</ele>
        <time>2019-07-31T17:31:20.175Z</time>
      </trkpt>
      <trkpt lat="43.00954167" lon="-1.19583">
        <ele>922.0</ele>
        <time>2019-07-31T17:31:21.181Z</time>
      </trkpt>
      <trkpt lat="43.00954167" lon="-1.19583">
        <ele>922.0</ele>
        <time>2019-07-31T17:31:22.062Z</time>
      </trkpt>
      <trkpt lat="43.00953333" lon="-1.19584833">
        <ele>921.0</ele>
        <time>2019-07-31T17:31:23.067Z</time>
      </trkpt>
      <trkpt lat="43.00952667" lon="-1.19586333">
        <ele>922.0</ele>
        <time>2019-07-31T17:31:24.074Z</time>
      </trkpt>
      <trkpt lat="43.00952" lon="-1.19588167">
        <ele>921.0</ele>
        <time>2019-07-31T17:31:25.079Z</time>
      </trkpt>
      <trkpt lat="43.00951167" lon="-1.1959">
        <ele>921.0</ele>
        <time>2019-07-31T17:31:26.084Z</time>
      </trkpt>
      <trkpt lat="43.009505" lon="-1.19591667">
        <ele>920.0</ele>
        <time>2019-07-31T17:31:27.091Z</time>
      </trkpt>
      <trkpt lat="43.00949333" lon="-1.19593333">
        <ele>921.0</ele>
        <time>2019-07-31T17:31:28.097Z</time>
      </trkpt>
      <trkpt lat="43.00949" lon="-1.19595333">
        <ele>921.0</ele>
        <time>2019-07-31T17:31:29.102Z</time>
      </trkpt>
      <trkpt lat="43.00949" lon="-1.19597333">
        <ele>921.0</ele>
        <time>2019-07-31T17:31:30.108Z</time>
      </trkpt>
      <trkpt lat="43.00948167" lon="-1.19601667">
        <ele>920.0</ele>
        <time>2019-07-31T17:31:31.112Z</time>
      </trkpt>
      <trkpt lat="43.00947833" lon="-1.19603667">
        <ele>920.0</ele>
        <time>2019-07-31T17:31:32.118Z</time>
      </trkpt>
      <trkpt lat="43.009475" lon="-1.19605667">
        <ele>919.0</ele>
        <time>2019-07-31T17:31:33.123Z</time>
      </trkpt>
      <trkpt lat="43.00946667" lon="-1.19607667">
        <ele>919.0</ele>
        <time>2019-07-31T17:31:34.129Z</time>
      </trkpt>
      <trkpt lat="43.00946167" lon="-1.19609167">
        <ele>918.0</ele>
        <time>2019-07-31T17:31:35.134Z</time>
      </trkpt>
      <trkpt lat="43.00945833" lon="-1.19611667">
        <ele>918.0</ele>
        <time>2019-07-31T17:31:36.140Z</time>
      </trkpt>
      <trkpt lat="43.00945" lon="-1.19613833">
        <ele>918.0</ele>
        <time>2019-07-31T17:31:37.145Z</time>
      </trkpt>
      <trkpt lat="43.00944333" lon="-1.19615833">
        <ele>918.0</ele>
        <time>2019-07-31T17:31:38.150Z</time>
      </trkpt>
      <trkpt lat="43.00943833" lon="-1.19618">
        <ele>918.0</ele>
        <time>2019-07-31T17:31:39.155Z</time>
      </trkpt>
      <trkpt lat="43.009435" lon="-1.19620167">
        <ele>918.0</ele>
        <time>2019-07-31T17:31:40.160Z</time>
      </trkpt>
      <trkpt lat="43.00943333" lon="-1.196225">
        <ele>918.0</ele>
        <time>2019-07-31T17:31:41.165Z</time>
      </trkpt>
      <trkpt lat="43.00942833" lon="-1.19624333">
        <ele>918.0</ele>
        <time>2019-07-31T17:31:42.169Z</time>
      </trkpt>
      <trkpt lat="43.009425" lon="-1.19626667">
        <ele>917.0</ele>
        <time>2019-07-31T17:31:43.175Z</time>
      </trkpt>
      <trkpt lat="43.00941833" lon="-1.19628667">
        <ele>917.0</ele>
        <time>2019-07-31T17:31:44.180Z</time>
      </trkpt>
      <trkpt lat="43.00941833" lon="-1.19628667">
        <ele>917.0</ele>
        <time>2019-07-31T17:31:45.061Z</time>
      </trkpt>
      <trkpt lat="43.00941833" lon="-1.19630667">
        <ele>917.0</ele>
        <time>2019-07-31T17:31:46.068Z</time>
      </trkpt>
      <trkpt lat="43.009415" lon="-1.19632833">
        <ele>917.0</ele>
        <time>2019-07-31T17:31:47.073Z</time>
      </trkpt>
      <trkpt lat="43.00940833" lon="-1.19635">
        <ele>917.0</ele>
        <time>2019-07-31T17:31:48.077Z</time>
      </trkpt>
      <trkpt lat="43.00940167" lon="-1.19637">
        <ele>917.0</ele>
        <time>2019-07-31T17:31:49.083Z</time>
      </trkpt>
      <trkpt lat="43.00939667" lon="-1.196385">
        <ele>917.0</ele>
        <time>2019-07-31T17:31:50.088Z</time>
      </trkpt>
      <trkpt lat="43.00939333" lon="-1.19640833">
        <ele>918.0</ele>
        <time>2019-07-31T17:31:51.093Z</time>
      </trkpt>
      <trkpt lat="43.00939" lon="-1.19642833">
        <ele>918.0</ele>
        <time>2019-07-31T17:31:52.098Z</time>
      </trkpt>
      <trkpt lat="43.009385" lon="-1.19644833">
        <ele>918.0</ele>
        <time>2019-07-31T17:31:53.104Z</time>
      </trkpt>
      <trkpt lat="43.00938333" lon="-1.19646833">
        <ele>918.0</ele>
        <time>2019-07-31T17:31:54.110Z</time>
      </trkpt>
      <trkpt lat="43.00937667" lon="-1.19648667">
        <ele>918.0</ele>
        <time>2019-07-31T17:31:55.114Z</time>
      </trkpt>
      <trkpt lat="43.00936333" lon="-1.19652167">
        <ele>918.0</ele>
        <time>2019-07-31T17:31:56.120Z</time>
      </trkpt>
      <trkpt lat="43.009355" lon="-1.19654">
        <ele>918.0</ele>
        <time>2019-07-31T17:31:57.126Z</time>
      </trkpt>
      <trkpt lat="43.00934667" lon="-1.19655667">
        <ele>918.0</ele>
        <time>2019-07-31T17:31:58.131Z</time>
      </trkpt>
      <trkpt lat="43.00934167" lon="-1.19657333">
        <ele>917.0</ele>
        <time>2019-07-31T17:31:59.133Z</time>
      </trkpt>
      <trkpt lat="43.00933333" lon="-1.19659">
        <ele>917.0</ele>
        <time>2019-07-31T17:32:00.136Z</time>
      </trkpt>
      <trkpt lat="43.009325" lon="-1.19660833">
        <ele>917.0</ele>
        <time>2019-07-31T17:32:01.142Z</time>
      </trkpt>
      <trkpt lat="43.00931833" lon="-1.19662667">
        <ele>917.0</ele>
        <time>2019-07-31T17:32:02.148Z</time>
      </trkpt>
      <trkpt lat="43.00931" lon="-1.196645">
        <ele>917.0</ele>
        <time>2019-07-31T17:32:03.153Z</time>
      </trkpt>
      <trkpt lat="43.00930833" lon="-1.19666667">
        <ele>917.0</ele>
        <time>2019-07-31T17:32:04.161Z</time>
      </trkpt>
      <trkpt lat="43.00930333" lon="-1.19668833">
        <ele>916.0</ele>
        <time>2019-07-31T17:32:05.166Z</time>
      </trkpt>
      <trkpt lat="43.00929833" lon="-1.19671167">
        <ele>916.0</ele>
        <time>2019-07-31T17:32:06.174Z</time>
      </trkpt>
      <trkpt lat="43.00929167" lon="-1.19673333">
        <ele>915.0</ele>
        <time>2019-07-31T17:32:07.179Z</time>
      </trkpt>
      <trkpt lat="43.009285" lon="-1.19675167">
        <ele>915.0</ele>
        <time>2019-07-31T17:32:08.186Z</time>
      </trkpt>
      <trkpt lat="43.009285" lon="-1.19675167">
        <ele>915.0</ele>
        <time>2019-07-31T17:32:09.064Z</time>
      </trkpt>
      <trkpt lat="43.00927667" lon="-1.19676333">
        <ele>915.0</ele>
        <time>2019-07-31T17:32:10.069Z</time>
      </trkpt>
      <trkpt lat="43.009265" lon="-1.19678333">
        <ele>915.0</ele>
        <time>2019-07-31T17:32:11.075Z</time>
      </trkpt>
      <trkpt lat="43.00925167" lon="-1.19679833">
        <ele>915.0</ele>
        <time>2019-07-31T17:32:12.080Z</time>
      </trkpt>
      <trkpt lat="43.00924167" lon="-1.19681667">
        <ele>915.0</ele>
        <time>2019-07-31T17:32:13.085Z</time>
      </trkpt>
      <trkpt lat="43.00923167" lon="-1.19683333">
        <ele>915.0</ele>
        <time>2019-07-31T17:32:14.088Z</time>
      </trkpt>
      <trkpt lat="43.00922333" lon="-1.19684833">
        <ele>915.0</ele>
        <time>2019-07-31T17:32:15.091Z</time>
      </trkpt>
      <trkpt lat="43.00921333" lon="-1.19686667">
        <ele>915.0</ele>
        <time>2019-07-31T17:32:16.096Z</time>
      </trkpt>
      <trkpt lat="43.00921167" lon="-1.19689">
        <ele>916.0</ele>
        <time>2019-07-31T17:32:17.101Z</time>
      </trkpt>
      <trkpt lat="43.00920833" lon="-1.19691333">
        <ele>916.0</ele>
        <time>2019-07-31T17:32:18.107Z</time>
      </trkpt>
      <trkpt lat="43.00919333" lon="-1.19695667">
        <ele>917.0</ele>
        <time>2019-07-31T17:32:19.114Z</time>
      </trkpt>
      <trkpt lat="43.00918333" lon="-1.19697167">
        <ele>918.0</ele>
        <time>2019-07-31T17:32:20.120Z</time>
      </trkpt>
      <trkpt lat="43.00918" lon="-1.19698667">
        <ele>918.0</ele>
        <time>2019-07-31T17:32:21.126Z</time>
      </trkpt>
      <trkpt lat="43.00917667" lon="-1.197005">
        <ele>918.0</ele>
        <time>2019-07-31T17:32:22.132Z</time>
      </trkpt>
      <trkpt lat="43.009175" lon="-1.19702833">
        <ele>918.0</ele>
        <time>2019-07-31T17:32:23.137Z</time>
      </trkpt>
      <trkpt lat="43.00916833" lon="-1.19705">
        <ele>917.0</ele>
        <time>2019-07-31T17:32:24.143Z</time>
      </trkpt>
      <trkpt lat="43.00916167" lon="-1.19706833">
        <ele>917.0</ele>
        <time>2019-07-31T17:32:25.148Z</time>
      </trkpt>
      <trkpt lat="43.009155" lon="-1.19708333">
        <ele>917.0</ele>
        <time>2019-07-31T17:32:26.153Z</time>
      </trkpt>
      <trkpt lat="43.00914667" lon="-1.19710167">
        <ele>918.0</ele>
        <time>2019-07-31T17:32:27.159Z</time>
      </trkpt>
      <trkpt lat="43.00913833" lon="-1.19712">
        <ele>917.0</ele>
        <time>2019-07-31T17:32:28.164Z</time>
      </trkpt>
      <trkpt lat="43.00912833" lon="-1.19713833">
        <ele>917.0</ele>
        <time>2019-07-31T17:32:29.170Z</time>
      </trkpt>
      <trkpt lat="43.00912" lon="-1.197155">
        <ele>917.0</ele>
        <time>2019-07-31T17:32:30.175Z</time>
      </trkpt>
      <trkpt lat="43.009115" lon="-1.19716667">
        <ele>917.0</ele>
        <time>2019-07-31T17:32:31.179Z</time>
      </trkpt>
      <trkpt lat="43.00910833" lon="-1.19718333">
        <ele>916.0</ele>
        <time>2019-07-31T17:32:32.184Z</time>
      </trkpt>
      <trkpt lat="43.00910833" lon="-1.19718333">
        <ele>916.0</ele>
        <time>2019-07-31T17:32:33.065Z</time>
      </trkpt>
      <trkpt lat="43.009105" lon="-1.197205">
        <ele>917.0</ele>
        <time>2019-07-31T17:32:34.069Z</time>
      </trkpt>
      <trkpt lat="43.00909833" lon="-1.19722">
        <ele>918.0</ele>
        <time>2019-07-31T17:32:35.075Z</time>
      </trkpt>
      <trkpt lat="43.00909333" lon="-1.19723833">
        <ele>918.0</ele>
        <time>2019-07-31T17:32:36.080Z</time>
      </trkpt>
      <trkpt lat="43.009085" lon="-1.19725167">
        <ele>917.0</ele>
        <time>2019-07-31T17:32:37.086Z</time>
      </trkpt>
      <trkpt lat="43.00908167" lon="-1.197275">
        <ele>917.0</ele>
        <time>2019-07-31T17:32:38.091Z</time>
      </trkpt>
      <trkpt lat="43.00907333" lon="-1.197295">
        <ele>917.0</ele>
        <time>2019-07-31T17:32:39.095Z</time>
      </trkpt>
      <trkpt lat="43.00906333" lon="-1.19731167">
        <ele>917.0</ele>
        <time>2019-07-31T17:32:40.100Z</time>
      </trkpt>
      <trkpt lat="43.00905667" lon="-1.19732667">
        <ele>918.0</ele>
        <time>2019-07-31T17:32:41.105Z</time>
      </trkpt>
      <trkpt lat="43.00905" lon="-1.19734">
        <ele>917.0</ele>
        <time>2019-07-31T17:32:42.111Z</time>
      </trkpt>
      <trkpt lat="43.00904333" lon="-1.19738">
        <ele>917.0</ele>
        <time>2019-07-31T17:32:43.115Z</time>
      </trkpt>
      <trkpt lat="43.00903667" lon="-1.19739667">
        <ele>917.0</ele>
        <time>2019-07-31T17:32:44.120Z</time>
      </trkpt>
      <trkpt lat="43.00903333" lon="-1.197415">
        <ele>917.0</ele>
        <time>2019-07-31T17:32:45.125Z</time>
      </trkpt>
      <trkpt lat="43.00903" lon="-1.19743167">
        <ele>917.0</ele>
        <time>2019-07-31T17:32:46.131Z</time>
      </trkpt>
      <trkpt lat="43.00902333" lon="-1.19745">
        <ele>917.0</ele>
        <time>2019-07-31T17:32:47.135Z</time>
      </trkpt>
      <trkpt lat="43.009015" lon="-1.19747167">
        <ele>918.0</ele>
        <time>2019-07-31T17:32:48.142Z</time>
      </trkpt>
      <trkpt lat="43.00900667" lon="-1.19748833">
        <ele>918.0</ele>
        <time>2019-07-31T17:32:49.148Z</time>
      </trkpt>
      <trkpt lat="43.00900167" lon="-1.19750333">
        <ele>918.0</ele>
        <time>2019-07-31T17:32:50.150Z</time>
      </trkpt>
      <trkpt lat="43.00899333" lon="-1.19752167">
        <ele>917.0</ele>
        <time>2019-07-31T17:32:51.155Z</time>
      </trkpt>
      <trkpt lat="43.00898667" lon="-1.19753833">
        <ele>917.0</ele>
        <time>2019-07-31T17:32:52.161Z</time>
      </trkpt>
      <trkpt lat="43.00898167" lon="-1.19756">
        <ele>917.0</ele>
        <time>2019-07-31T17:32:53.166Z</time>
      </trkpt>
      <trkpt lat="43.00897" lon="-1.197575">
        <ele>918.0</ele>
        <time>2019-07-31T17:32:54.173Z</time>
      </trkpt>
      <trkpt lat="43.00896167" lon="-1.19758667">
        <ele>918.0</ele>
        <time>2019-07-31T17:32:55.179Z</time>
      </trkpt>
      <trkpt lat="43.008955" lon="-1.19760333">
        <ele>919.0</ele>
        <time>2019-07-31T17:32:56.183Z</time>
      </trkpt>
      <trkpt lat="43.008955" lon="-1.19760333">
        <ele>919.0</ele>
        <time>2019-07-31T17:32:57.063Z</time>
      </trkpt>
      <trkpt lat="43.008945" lon="-1.19762167">
        <ele>919.0</ele>
        <time>2019-07-31T17:32:58.067Z</time>
      </trkpt>
      <trkpt lat="43.00894" lon="-1.197635">
        <ele>920.0</ele>
        <time>2019-07-31T17:32:59.073Z</time>
      </trkpt>
      <trkpt lat="43.008935" lon="-1.19765333">
        <ele>920.0</ele>
        <time>2019-07-31T17:33:00.078Z</time>
      </trkpt>
      <trkpt lat="43.00893" lon="-1.19767">
        <ele>919.0</ele>
        <time>2019-07-31T17:33:01.082Z</time>
      </trkpt>
      <trkpt lat="43.00892167" lon="-1.19768833">
        <ele>919.0</ele>
        <time>2019-07-31T17:33:02.089Z</time>
      </trkpt>
      <trkpt lat="43.00892" lon="-1.197715">
        <ele>919.0</ele>
        <time>2019-07-31T17:33:03.093Z</time>
      </trkpt>
      <trkpt lat="43.00891833" lon="-1.197735">
        <ele>919.0</ele>
        <time>2019-07-31T17:33:04.097Z</time>
      </trkpt>
      <trkpt lat="43.00891333" lon="-1.19775667">
        <ele>918.0</ele>
        <time>2019-07-31T17:33:05.100Z</time>
      </trkpt>
      <trkpt lat="43.00891" lon="-1.197775">
        <ele>918.0</ele>
        <time>2019-07-31T17:33:06.106Z</time>
      </trkpt>
      <trkpt lat="43.00890833" lon="-1.197795">
        <ele>918.0</ele>
        <time>2019-07-31T17:33:07.111Z</time>
      </trkpt>
      <trkpt lat="43.0089" lon="-1.19783167">
        <ele>919.0</ele>
        <time>2019-07-31T17:33:08.117Z</time>
      </trkpt>
      <trkpt lat="43.0089" lon="-1.19784833">
        <ele>918.0</ele>
        <time>2019-07-31T17:33:09.124Z</time>
      </trkpt>
      <trkpt lat="43.00889833" lon="-1.19786667">
        <ele>918.0</ele>
        <time>2019-07-31T17:33:10.129Z</time>
      </trkpt>
      <trkpt lat="43.00889167" lon="-1.197885">
        <ele>919.0</ele>
        <time>2019-07-31T17:33:11.134Z</time>
      </trkpt>
      <trkpt lat="43.008885" lon="-1.19790167">
        <ele>920.0</ele>
        <time>2019-07-31T17:33:12.140Z</time>
      </trkpt>
      <trkpt lat="43.008875" lon="-1.197915">
        <ele>921.0</ele>
        <time>2019-07-31T17:33:13.145Z</time>
      </trkpt>
      <trkpt lat="43.00886667" lon="-1.19792833">
        <ele>921.0</ele>
        <time>2019-07-31T17:33:14.151Z</time>
      </trkpt>
      <trkpt lat="43.00886167" lon="-1.19794667">
        <ele>920.0</ele>
        <time>2019-07-31T17:33:15.158Z</time>
      </trkpt>
      <trkpt lat="43.008855" lon="-1.197965">
        <ele>921.0</ele>
        <time>2019-07-31T17:33:16.164Z</time>
      </trkpt>
      <trkpt lat="43.00885167" lon="-1.19798333">
        <ele>921.0</ele>
        <time>2019-07-31T17:33:17.169Z</time>
      </trkpt>
      <trkpt lat="43.00884333" lon="-1.198">
        <ele>921.0</ele>
        <time>2019-07-31T17:33:18.174Z</time>
      </trkpt>
      <trkpt lat="43.00884" lon="-1.19801167">
        <ele>921.0</ele>
        <time>2019-07-31T17:33:19.176Z</time>
      </trkpt>
      <trkpt lat="43.00883167" lon="-1.19802833">
        <ele>922.0</ele>
        <time>2019-07-31T17:33:20.182Z</time>
      </trkpt>
      <trkpt lat="43.00883167" lon="-1.19802833">
        <ele>922.0</ele>
        <time>2019-07-31T17:33:21.062Z</time>
      </trkpt>
      <trkpt lat="43.00882167" lon="-1.19804833">
        <ele>923.0</ele>
        <time>2019-07-31T17:33:22.068Z</time>
      </trkpt>
      <trkpt lat="43.008815" lon="-1.19806667">
        <ele>923.0</ele>
        <time>2019-07-31T17:33:23.074Z</time>
      </trkpt>
      <trkpt lat="43.008805" lon="-1.19808167">
        <ele>924.0</ele>
        <time>2019-07-31T17:33:24.079Z</time>
      </trkpt>
      <trkpt lat="43.00879833" lon="-1.1981">
        <ele>925.0</ele>
        <time>2019-07-31T17:33:25.085Z</time>
      </trkpt>
      <trkpt lat="43.00879333" lon="-1.19811833">
        <ele>925.0</ele>
        <time>2019-07-31T17:33:26.090Z</time>
      </trkpt>
      <trkpt lat="43.00878667" lon="-1.19813333">
        <ele>925.0</ele>
        <time>2019-07-31T17:33:27.095Z</time>
      </trkpt>
      <trkpt lat="43.00878333" lon="-1.19815167">
        <ele>925.0</ele>
        <time>2019-07-31T17:33:28.101Z</time>
      </trkpt>
      <trkpt lat="43.00878" lon="-1.19817167">
        <ele>925.0</ele>
        <time>2019-07-31T17:33:29.106Z</time>
      </trkpt>
      <trkpt lat="43.00876167" lon="-1.198215">
        <ele>923.0</ele>
        <time>2019-07-31T17:33:30.113Z</time>
      </trkpt>
      <trkpt lat="43.008755" lon="-1.19823333">
        <ele>923.0</ele>
        <time>2019-07-31T17:33:31.119Z</time>
      </trkpt>
      <trkpt lat="43.00874333" lon="-1.19825167">
        <ele>923.0</ele>
        <time>2019-07-31T17:33:32.125Z</time>
      </trkpt>
      <trkpt lat="43.00873667" lon="-1.19826833">
        <ele>923.0</ele>
        <time>2019-07-31T17:33:33.131Z</time>
      </trkpt>
      <trkpt lat="43.00873167" lon="-1.198295">
        <ele>923.0</ele>
        <time>2019-07-31T17:33:34.135Z</time>
      </trkpt>
      <trkpt lat="43.00872833" lon="-1.19831333">
        <ele>923.0</ele>
        <time>2019-07-31T17:33:35.140Z</time>
      </trkpt>
      <trkpt lat="43.008725" lon="-1.19833667">
        <ele>922.0</ele>
        <time>2019-07-31T17:33:36.145Z</time>
      </trkpt>
      <trkpt lat="43.00872333" lon="-1.19835833">
        <ele>922.0</ele>
        <time>2019-07-31T17:33:37.149Z</time>
      </trkpt>
      <trkpt lat="43.00872" lon="-1.19837833">
        <ele>922.0</ele>
        <time>2019-07-31T17:33:38.155Z</time>
      </trkpt>
      <trkpt lat="43.00872167" lon="-1.1984">
        <ele>922.0</ele>
        <time>2019-07-31T17:33:39.161Z</time>
      </trkpt>
      <trkpt lat="43.00872" lon="-1.19842333">
        <ele>922.0</ele>
        <time>2019-07-31T17:33:40.168Z</time>
      </trkpt>
      <trkpt lat="43.008715" lon="-1.19844167">
        <ele>922.0</ele>
        <time>2019-07-31T17:33:41.173Z</time>
      </trkpt>
      <trkpt lat="43.00871333" lon="-1.19846">
        <ele>922.0</ele>
        <time>2019-07-31T17:33:42.179Z</time>
      </trkpt>
      <trkpt lat="43.00871" lon="-1.19847167">
        <ele>923.0</ele>
        <time>2019-07-31T17:33:43.184Z</time>
      </trkpt>
      <trkpt lat="43.00871" lon="-1.19847167">
        <ele>923.0</ele>
        <time>2019-07-31T17:33:44.065Z</time>
      </trkpt>
      <trkpt lat="43.008705" lon="-1.19849167">
        <ele>923.0</ele>
        <time>2019-07-31T17:33:45.071Z</time>
      </trkpt>
      <trkpt lat="43.00870333" lon="-1.19850833">
        <ele>923.0</ele>
        <time>2019-07-31T17:33:46.077Z</time>
      </trkpt>
      <trkpt lat="43.00870167" lon="-1.19853">
        <ele>923.0</ele>
        <time>2019-07-31T17:33:47.083Z</time>
      </trkpt>
      <trkpt lat="43.0087" lon="-1.198545">
        <ele>923.0</ele>
        <time>2019-07-31T17:33:48.086Z</time>
      </trkpt>
      <trkpt lat="43.00869333" lon="-1.19856333">
        <ele>923.0</ele>
        <time>2019-07-31T17:33:49.091Z</time>
      </trkpt>
      <trkpt lat="43.00869167" lon="-1.19858833">
        <ele>922.0</ele>
        <time>2019-07-31T17:33:50.097Z</time>
      </trkpt>
      <trkpt lat="43.00868333" lon="-1.19860833">
        <ele>921.0</ele>
        <time>2019-07-31T17:33:51.104Z</time>
      </trkpt>
      <trkpt lat="43.00868" lon="-1.19863">
        <ele>920.0</ele>
        <time>2019-07-31T17:33:52.109Z</time>
      </trkpt>
      <trkpt lat="43.00866333" lon="-1.19867">
        <ele>919.0</ele>
        <time>2019-07-31T17:33:53.116Z</time>
      </trkpt>
      <trkpt lat="43.00865333" lon="-1.19869">
        <ele>919.0</ele>
        <time>2019-07-31T17:33:54.121Z</time>
      </trkpt>
      <trkpt lat="43.00865" lon="-1.19870833">
        <ele>919.0</ele>
        <time>2019-07-31T17:33:55.126Z</time>
      </trkpt>
      <trkpt lat="43.00864333" lon="-1.19872333">
        <ele>918.0</ele>
        <time>2019-07-31T17:33:56.130Z</time>
      </trkpt>
      <trkpt lat="43.008645" lon="-1.19874167">
        <ele>918.0</ele>
        <time>2019-07-31T17:33:57.135Z</time>
      </trkpt>
      <trkpt lat="43.00864167" lon="-1.19875167">
        <ele>918.0</ele>
        <time>2019-07-31T17:33:58.140Z</time>
      </trkpt>
      <trkpt lat="43.00863333" lon="-1.19876667">
        <ele>918.0</ele>
        <time>2019-07-31T17:33:59.145Z</time>
      </trkpt>
      <trkpt lat="43.00862333" lon="-1.19877667">
        <ele>919.0</ele>
        <time>2019-07-31T17:34:00.150Z</time>
      </trkpt>
      <trkpt lat="43.008615" lon="-1.19878833">
        <ele>920.0</ele>
        <time>2019-07-31T17:34:01.157Z</time>
      </trkpt>
      <trkpt lat="43.00861" lon="-1.19880167">
        <ele>920.0</ele>
        <time>2019-07-31T17:34:02.164Z</time>
      </trkpt>
      <trkpt lat="43.00860333" lon="-1.19881833">
        <ele>920.0</ele>
        <time>2019-07-31T17:34:03.171Z</time>
      </trkpt>
      <trkpt lat="43.00859333" lon="-1.19883167">
        <ele>920.0</ele>
        <time>2019-07-31T17:34:04.176Z</time>
      </trkpt>
      <trkpt lat="43.00858" lon="-1.19884">
        <ele>921.0</ele>
        <time>2019-07-31T17:34:05.182Z</time>
      </trkpt>
      <trkpt lat="43.00858" lon="-1.19884">
        <ele>921.0</ele>
        <time>2019-07-31T17:34:06.062Z</time>
      </trkpt>
      <trkpt lat="43.00857" lon="-1.19885">
        <ele>921.0</ele>
        <time>2019-07-31T17:34:07.068Z</time>
      </trkpt>
      <trkpt lat="43.00856167" lon="-1.19885833">
        <ele>921.0</ele>
        <time>2019-07-31T17:34:08.073Z</time>
      </trkpt>
      <trkpt lat="43.00855" lon="-1.19886667">
        <ele>921.0</ele>
        <time>2019-07-31T17:34:09.079Z</time>
      </trkpt>
      <trkpt lat="43.00853667" lon="-1.19887667">
        <ele>922.0</ele>
        <time>2019-07-31T17:34:10.085Z</time>
      </trkpt>
      <trkpt lat="43.00852667" lon="-1.19888833">
        <ele>923.0</ele>
        <time>2019-07-31T17:34:11.091Z</time>
      </trkpt>
      <trkpt lat="43.008515" lon="-1.19889333">
        <ele>924.0</ele>
        <time>2019-07-31T17:34:12.096Z</time>
      </trkpt>
      <trkpt lat="43.008505" lon="-1.19890333">
        <ele>924.0</ele>
        <time>2019-07-31T17:34:13.100Z</time>
      </trkpt>
      <trkpt lat="43.00849167" lon="-1.198915">
        <ele>924.0</ele>
        <time>2019-07-31T17:34:14.104Z</time>
      </trkpt>
      <trkpt lat="43.00847833" lon="-1.19892333">
        <ele>924.0</ele>
        <time>2019-07-31T17:34:15.112Z</time>
      </trkpt>
      <trkpt lat="43.008455" lon="-1.198935">
        <ele>925.0</ele>
        <time>2019-07-31T17:34:16.118Z</time>
      </trkpt>
      <trkpt lat="43.00844333" lon="-1.198945">
        <ele>925.0</ele>
        <time>2019-07-31T17:34:17.123Z</time>
      </trkpt>
      <trkpt lat="43.00843167" lon="-1.19895833">
        <ele>925.0</ele>
        <time>2019-07-31T17:34:18.129Z</time>
      </trkpt>
      <trkpt lat="43.00842333" lon="-1.19896833">
        <ele>924.0</ele>
        <time>2019-07-31T17:34:19.133Z</time>
      </trkpt>
      <trkpt lat="43.00842" lon="-1.19897333">
        <ele>923.0</ele>
        <time>2019-07-31T17:34:20.137Z</time>
      </trkpt>
      <trkpt lat="43.00841333" lon="-1.19898">
        <ele>923.0</ele>
        <time>2019-07-31T17:34:21.144Z</time>
      </trkpt>
      <trkpt lat="43.00840333" lon="-1.19898833">
        <ele>922.0</ele>
        <time>2019-07-31T17:34:22.150Z</time>
      </trkpt>
      <trkpt lat="43.00839333" lon="-1.19899">
        <ele>922.0</ele>
        <time>2019-07-31T17:34:23.155Z</time>
      </trkpt>
      <trkpt lat="43.008385" lon="-1.19899167">
        <ele>922.0</ele>
        <time>2019-07-31T17:34:24.162Z</time>
      </trkpt>
      <trkpt lat="43.008375" lon="-1.19899167">
        <ele>922.0</ele>
        <time>2019-07-31T17:34:25.169Z</time>
      </trkpt>
      <trkpt lat="43.00836167" lon="-1.19899333">
        <ele>922.0</ele>
        <time>2019-07-31T17:34:26.174Z</time>
      </trkpt>
      <trkpt lat="43.00834833" lon="-1.198995">
        <ele>922.0</ele>
        <time>2019-07-31T17:34:27.180Z</time>
      </trkpt>
      <trkpt lat="43.00833667" lon="-1.19899833">
        <ele>923.0</ele>
        <time>2019-07-31T17:34:28.186Z</time>
      </trkpt>
      <trkpt lat="43.00833667" lon="-1.19899833">
        <ele>923.0</ele>
        <time>2019-07-31T17:34:29.066Z</time>
      </trkpt>
      <trkpt lat="43.00832167" lon="-1.19900333">
        <ele>923.0</ele>
        <time>2019-07-31T17:34:30.071Z</time>
      </trkpt>
      <trkpt lat="43.00831667" lon="-1.199005">
        <ele>924.0</ele>
        <time>2019-07-31T17:34:31.076Z</time>
      </trkpt>
      <trkpt lat="43.00830333" lon="-1.19900333">
        <ele>924.0</ele>
        <time>2019-07-31T17:34:32.081Z</time>
      </trkpt>
      <trkpt lat="43.008295" lon="-1.199005">
        <ele>925.0</ele>
        <time>2019-07-31T17:34:33.088Z</time>
      </trkpt>
      <trkpt lat="43.00828667" lon="-1.19900667">
        <ele>926.0</ele>
        <time>2019-07-31T17:34:34.090Z</time>
      </trkpt>
      <trkpt lat="43.00827833" lon="-1.19900667">
        <ele>927.0</ele>
        <time>2019-07-31T17:34:35.095Z</time>
      </trkpt>
      <trkpt lat="43.00826667" lon="-1.19900333">
        <ele>927.0</ele>
        <time>2019-07-31T17:34:36.100Z</time>
      </trkpt>
      <trkpt lat="43.00825" lon="-1.19899833">
        <ele>929.0</ele>
        <time>2019-07-31T17:34:37.105Z</time>
      </trkpt>
      <trkpt lat="43.008235" lon="-1.19899333">
        <ele>930.0</ele>
        <time>2019-07-31T17:34:38.110Z</time>
      </trkpt>
      <trkpt lat="43.008195" lon="-1.19898167">
        <ele>933.0</ele>
        <time>2019-07-31T17:34:39.116Z</time>
      </trkpt>
      <trkpt lat="43.00817833" lon="-1.19898167">
        <ele>934.0</ele>
        <time>2019-07-31T17:34:40.120Z</time>
      </trkpt>
      <trkpt lat="43.00816667" lon="-1.19898333">
        <ele>934.0</ele>
        <time>2019-07-31T17:34:41.124Z</time>
      </trkpt>
      <trkpt lat="43.00815333" lon="-1.19899">
        <ele>935.0</ele>
        <time>2019-07-31T17:34:42.130Z</time>
      </trkpt>
      <trkpt lat="43.00813833" lon="-1.19899167">
        <ele>935.0</ele>
        <time>2019-07-31T17:34:43.134Z</time>
      </trkpt>
      <trkpt lat="43.00812667" lon="-1.19899167">
        <ele>936.0</ele>
        <time>2019-07-31T17:34:44.139Z</time>
      </trkpt>
      <trkpt lat="43.00810333" lon="-1.19899333">
        <ele>937.0</ele>
        <time>2019-07-31T17:34:45.143Z</time>
      </trkpt>
      <trkpt lat="43.008085" lon="-1.19899667">
        <ele>937.0</ele>
        <time>2019-07-31T17:34:46.148Z</time>
      </trkpt>
      <trkpt lat="43.00807167" lon="-1.199">
        <ele>937.0</ele>
        <time>2019-07-31T17:34:47.151Z</time>
      </trkpt>
      <trkpt lat="43.00805333" lon="-1.19900167">
        <ele>937.0</ele>
        <time>2019-07-31T17:34:48.155Z</time>
      </trkpt>
      <trkpt lat="43.00803833" lon="-1.199005">
        <ele>937.0</ele>
        <time>2019-07-31T17:34:49.159Z</time>
      </trkpt>
      <trkpt lat="43.00802667" lon="-1.199015">
        <ele>936.0</ele>
        <time>2019-07-31T17:34:50.164Z</time>
      </trkpt>
      <trkpt lat="43.008015" lon="-1.19902667">
        <ele>936.0</ele>
        <time>2019-07-31T17:34:51.170Z</time>
      </trkpt>
      <trkpt lat="43.008005" lon="-1.19903833">
        <ele>936.0</ele>
        <time>2019-07-31T17:34:52.175Z</time>
      </trkpt>
      <trkpt lat="43.00799333" lon="-1.19905167">
        <ele>936.0</ele>
        <time>2019-07-31T17:34:53.182Z</time>
      </trkpt>
      <trkpt lat="43.00799333" lon="-1.19905167">
        <ele>936.0</ele>
        <time>2019-07-31T17:34:54.063Z</time>
      </trkpt>
      <trkpt lat="43.00798167" lon="-1.19906333">
        <ele>936.0</ele>
        <time>2019-07-31T17:34:55.069Z</time>
      </trkpt>
      <trkpt lat="43.00796833" lon="-1.19907333">
        <ele>935.0</ele>
        <time>2019-07-31T17:34:56.075Z</time>
      </trkpt>
      <trkpt lat="43.00795333" lon="-1.19908667">
        <ele>935.0</ele>
        <time>2019-07-31T17:34:57.081Z</time>
      </trkpt>
      <trkpt lat="43.00793667" lon="-1.19909667">
        <ele>935.0</ele>
        <time>2019-07-31T17:34:58.087Z</time>
      </trkpt>
      <trkpt lat="43.00792833" lon="-1.19911167">
        <ele>935.0</ele>
        <time>2019-07-31T17:34:59.092Z</time>
      </trkpt>
      <trkpt lat="43.00792" lon="-1.19913167">
        <ele>935.0</ele>
        <time>2019-07-31T17:35:00.099Z</time>
      </trkpt>
      <trkpt lat="43.00791833" lon="-1.19914667">
        <ele>934.0</ele>
        <time>2019-07-31T17:35:01.105Z</time>
      </trkpt>
      <trkpt lat="43.00791167" lon="-1.199165">
        <ele>933.0</ele>
        <time>2019-07-31T17:35:02.111Z</time>
      </trkpt>
      <trkpt lat="43.007895" lon="-1.19917833">
        <ele>932.0</ele>
        <time>2019-07-31T17:35:03.115Z</time>
      </trkpt>
      <trkpt lat="43.007855" lon="-1.19920667">
        <ele>931.0</ele>
        <time>2019-07-31T17:35:04.123Z</time>
      </trkpt>
      <trkpt lat="43.00784" lon="-1.19922167">
        <ele>930.0</ele>
        <time>2019-07-31T17:35:05.127Z</time>
      </trkpt>
      <trkpt lat="43.00782833" lon="-1.199235">
        <ele>929.0</ele>
        <time>2019-07-31T17:35:06.133Z</time>
      </trkpt>
      <trkpt lat="43.00781833" lon="-1.19925167">
        <ele>928.0</ele>
        <time>2019-07-31T17:35:07.137Z</time>
      </trkpt>
      <trkpt lat="43.00781" lon="-1.19926667">
        <ele>927.0</ele>
        <time>2019-07-31T17:35:08.142Z</time>
      </trkpt>
      <trkpt lat="43.00779333" lon="-1.19928167">
        <ele>926.0</ele>
        <time>2019-07-31T17:35:09.147Z</time>
      </trkpt>
      <trkpt lat="43.00777833" lon="-1.19929">
        <ele>926.0</ele>
        <time>2019-07-31T17:35:10.154Z</time>
      </trkpt>
      <trkpt lat="43.00776333" lon="-1.1993">
        <ele>926.0</ele>
        <time>2019-07-31T17:35:11.159Z</time>
      </trkpt>
      <trkpt lat="43.00775333" lon="-1.19931667">
        <ele>926.0</ele>
        <time>2019-07-31T17:35:12.166Z</time>
      </trkpt>
      <trkpt lat="43.00774333" lon="-1.19933167">
        <ele>926.0</ele>
        <time>2019-07-31T17:35:13.171Z</time>
      </trkpt>
      <trkpt lat="43.007735" lon="-1.199345">
        <ele>925.0</ele>
        <time>2019-07-31T17:35:14.176Z</time>
      </trkpt>
      <trkpt lat="43.00772" lon="-1.19935167">
        <ele>926.0</ele>
        <time>2019-07-31T17:35:15.182Z</time>
      </trkpt>
      <trkpt lat="43.00772" lon="-1.19935167">
        <ele>926.0</ele>
        <time>2019-07-31T17:35:16.063Z</time>
      </trkpt>
      <trkpt lat="43.007705" lon="-1.19936167">
        <ele>926.0</ele>
        <time>2019-07-31T17:35:17.068Z</time>
      </trkpt>
      <trkpt lat="43.00769167" lon="-1.19937">
        <ele>926.0</ele>
        <time>2019-07-31T17:35:18.073Z</time>
      </trkpt>
      <trkpt lat="43.00767667" lon="-1.19938333">
        <ele>927.0</ele>
        <time>2019-07-31T17:35:19.079Z</time>
      </trkpt>
      <trkpt lat="43.00765833" lon="-1.19939">
        <ele>927.0</ele>
        <time>2019-07-31T17:35:20.085Z</time>
      </trkpt>
      <trkpt lat="43.00763833" lon="-1.19939333">
        <ele>926.0</ele>
        <time>2019-07-31T17:35:21.091Z</time>
      </trkpt>
      <trkpt lat="43.00761667" lon="-1.19940167">
        <ele>926.0</ele>
        <time>2019-07-31T17:35:22.095Z</time>
      </trkpt>
      <trkpt lat="43.00759833" lon="-1.19941333">
        <ele>925.0</ele>
        <time>2019-07-31T17:35:23.100Z</time>
      </trkpt>
      <trkpt lat="43.00759" lon="-1.19942167">
        <ele>925.0</ele>
        <time>2019-07-31T17:35:24.102Z</time>
      </trkpt>
      <trkpt lat="43.00758167" lon="-1.19943">
        <ele>924.0</ele>
        <time>2019-07-31T17:35:25.106Z</time>
      </trkpt>
      <trkpt lat="43.00757333" lon="-1.19944">
        <ele>924.0</ele>
        <time>2019-07-31T17:35:26.112Z</time>
      </trkpt>
      <trkpt lat="43.00755333" lon="-1.19945833">
        <ele>925.0</ele>
        <time>2019-07-31T17:35:27.119Z</time>
      </trkpt>
      <trkpt lat="43.00754833" lon="-1.199465">
        <ele>925.0</ele>
        <time>2019-07-31T17:35:28.124Z</time>
      </trkpt>
      <trkpt lat="43.00754" lon="-1.19947333">
        <ele>926.0</ele>
        <time>2019-07-31T17:35:29.128Z</time>
      </trkpt>
      <trkpt lat="43.00752333" lon="-1.19948">
        <ele>927.0</ele>
        <time>2019-07-31T17:35:30.133Z</time>
      </trkpt>
      <trkpt lat="43.00751" lon="-1.19948667">
        <ele>927.0</ele>
        <time>2019-07-31T17:35:31.138Z</time>
      </trkpt>
      <trkpt lat="43.00749833" lon="-1.199495">
        <ele>927.0</ele>
        <time>2019-07-31T17:35:32.142Z</time>
      </trkpt>
      <trkpt lat="43.00748333" lon="-1.19950333">
        <ele>927.0</ele>
        <time>2019-07-31T17:35:33.147Z</time>
      </trkpt>
      <trkpt lat="43.00747167" lon="-1.19951667">
        <ele>927.0</ele>
        <time>2019-07-31T17:35:34.151Z</time>
      </trkpt>
      <trkpt lat="43.00745667" lon="-1.19952667">
        <ele>927.0</ele>
        <time>2019-07-31T17:35:35.156Z</time>
      </trkpt>
      <trkpt lat="43.007445" lon="-1.19953833">
        <ele>927.0</ele>
        <time>2019-07-31T17:35:36.162Z</time>
      </trkpt>
      <trkpt lat="43.007435" lon="-1.19955167">
        <ele>926.0</ele>
        <time>2019-07-31T17:35:37.167Z</time>
      </trkpt>
      <trkpt lat="43.00742333" lon="-1.19956667">
        <ele>925.0</ele>
        <time>2019-07-31T17:35:38.173Z</time>
      </trkpt>
      <trkpt lat="43.007415" lon="-1.19958167">
        <ele>925.0</ele>
        <time>2019-07-31T17:35:39.177Z</time>
      </trkpt>
      <trkpt lat="43.00740333" lon="-1.19959333">
        <ele>924.0</ele>
        <time>2019-07-31T17:35:40.184Z</time>
      </trkpt>
      <trkpt lat="43.00740333" lon="-1.19959333">
        <ele>924.0</ele>
        <time>2019-07-31T17:35:41.064Z</time>
      </trkpt>
      <trkpt lat="43.00739667" lon="-1.19960833">
        <ele>924.0</ele>
        <time>2019-07-31T17:35:42.070Z</time>
      </trkpt>
      <trkpt lat="43.007385" lon="-1.19962">
        <ele>924.0</ele>
        <time>2019-07-31T17:35:43.073Z</time>
      </trkpt>
      <trkpt lat="43.007375" lon="-1.199635">
        <ele>923.0</ele>
        <time>2019-07-31T17:35:44.077Z</time>
      </trkpt>
      <trkpt lat="43.00736833" lon="-1.19965">
        <ele>922.0</ele>
        <time>2019-07-31T17:35:45.082Z</time>
      </trkpt>
      <trkpt lat="43.00735667" lon="-1.19966167">
        <ele>921.0</ele>
        <time>2019-07-31T17:35:46.088Z</time>
      </trkpt>
      <trkpt lat="43.00734667" lon="-1.199675">
        <ele>920.0</ele>
        <time>2019-07-31T17:35:47.093Z</time>
      </trkpt>
      <trkpt lat="43.007335" lon="-1.19969">
        <ele>920.0</ele>
        <time>2019-07-31T17:35:48.095Z</time>
      </trkpt>
      <trkpt lat="43.00731667" lon="-1.19969833">
        <ele>920.0</ele>
        <time>2019-07-31T17:35:49.101Z</time>
      </trkpt>
      <trkpt lat="43.00729833" lon="-1.19970833">
        <ele>919.0</ele>
        <time>2019-07-31T17:35:50.108Z</time>
      </trkpt>
      <trkpt lat="43.00729333" lon="-1.19973">
        <ele>917.0</ele>
        <time>2019-07-31T17:35:51.109Z</time>
      </trkpt>
      <trkpt lat="43.007285" lon="-1.19975333">
        <ele>917.0</ele>
        <time>2019-07-31T17:35:52.110Z</time>
      </trkpt>
      <trkpt lat="43.00727667" lon="-1.199775">
        <ele>915.0</ele>
        <time>2019-07-31T17:35:53.113Z</time>
      </trkpt>
      <trkpt lat="43.00726833" lon="-1.199825">
        <ele>913.0</ele>
        <time>2019-07-31T17:35:54.117Z</time>
      </trkpt>
      <trkpt lat="43.00726" lon="-1.19984333">
        <ele>912.0</ele>
        <time>2019-07-31T17:35:55.118Z</time>
      </trkpt>
      <trkpt lat="43.00725167" lon="-1.199865">
        <ele>911.0</ele>
        <time>2019-07-31T17:35:56.121Z</time>
      </trkpt>
      <trkpt lat="43.00724167" lon="-1.19988333">
        <ele>911.0</ele>
        <time>2019-07-31T17:35:57.125Z</time>
      </trkpt>
      <trkpt lat="43.00723333" lon="-1.19989667">
        <ele>911.0</ele>
        <time>2019-07-31T17:35:58.131Z</time>
      </trkpt>
      <trkpt lat="43.007225" lon="-1.19991">
        <ele>910.0</ele>
        <time>2019-07-31T17:35:59.135Z</time>
      </trkpt>
      <trkpt lat="43.00721833" lon="-1.19992667">
        <ele>909.0</ele>
        <time>2019-07-31T17:36:00.141Z</time>
      </trkpt>
      <trkpt lat="43.00721167" lon="-1.19994667">
        <ele>908.0</ele>
        <time>2019-07-31T17:36:01.146Z</time>
      </trkpt>
      <trkpt lat="43.007205" lon="-1.19996667">
        <ele>907.0</ele>
        <time>2019-07-31T17:36:02.153Z</time>
      </trkpt>
      <trkpt lat="43.00719833" lon="-1.19998667">
        <ele>906.0</ele>
        <time>2019-07-31T17:36:03.157Z</time>
      </trkpt>
      <trkpt lat="43.007195" lon="-1.20000833">
        <ele>906.0</ele>
        <time>2019-07-31T17:36:04.162Z</time>
      </trkpt>
      <trkpt lat="43.00718833" lon="-1.20003167">
        <ele>905.0</ele>
        <time>2019-07-31T17:36:05.167Z</time>
      </trkpt>
      <trkpt lat="43.00718333" lon="-1.20005333">
        <ele>904.0</ele>
        <time>2019-07-31T17:36:06.174Z</time>
      </trkpt>
      <trkpt lat="43.00717833" lon="-1.20007667">
        <ele>903.0</ele>
        <time>2019-07-31T17:36:07.179Z</time>
      </trkpt>
      <trkpt lat="43.007175" lon="-1.20009833">
        <ele>903.0</ele>
        <time>2019-07-31T17:36:08.185Z</time>
      </trkpt>
      <trkpt lat="43.007175" lon="-1.20009833">
        <ele>903.0</ele>
        <time>2019-07-31T17:36:09.066Z</time>
      </trkpt>
      <trkpt lat="43.00716833" lon="-1.20012">
        <ele>902.0</ele>
        <time>2019-07-31T17:36:10.071Z</time>
      </trkpt>
      <trkpt lat="43.00716333" lon="-1.20013833">
        <ele>902.0</ele>
        <time>2019-07-31T17:36:11.077Z</time>
      </trkpt>
      <trkpt lat="43.00716333" lon="-1.20015833">
        <ele>901.0</ele>
        <time>2019-07-31T17:36:12.082Z</time>
      </trkpt>
      <trkpt lat="43.00716167" lon="-1.20017833">
        <ele>901.0</ele>
        <time>2019-07-31T17:36:13.089Z</time>
      </trkpt>
      <trkpt lat="43.00715667" lon="-1.20019833">
        <ele>900.0</ele>
        <time>2019-07-31T17:36:14.092Z</time>
      </trkpt>
      <trkpt lat="43.00715333" lon="-1.20021667">
        <ele>901.0</ele>
        <time>2019-07-31T17:36:15.098Z</time>
      </trkpt>
      <trkpt lat="43.00714667" lon="-1.20023">
        <ele>901.0</ele>
        <time>2019-07-31T17:36:16.103Z</time>
      </trkpt>
      <trkpt lat="43.007145" lon="-1.20024667">
        <ele>901.0</ele>
        <time>2019-07-31T17:36:17.110Z</time>
      </trkpt>
      <trkpt lat="43.00714333" lon="-1.200265">
        <ele>901.0</ele>
        <time>2019-07-31T17:36:18.116Z</time>
      </trkpt>
      <trkpt lat="43.00714333" lon="-1.20031333">
        <ele>902.0</ele>
        <time>2019-07-31T17:36:19.123Z</time>
      </trkpt>
      <trkpt lat="43.00714667" lon="-1.20034">
        <ele>902.0</ele>
        <time>2019-07-31T17:36:20.127Z</time>
      </trkpt>
      <trkpt lat="43.00714667" lon="-1.20036167">
        <ele>902.0</ele>
        <time>2019-07-31T17:36:21.133Z</time>
      </trkpt>
      <trkpt lat="43.007145" lon="-1.20038167">
        <ele>902.0</ele>
        <time>2019-07-31T17:36:22.137Z</time>
      </trkpt>
      <trkpt lat="43.00713833" lon="-1.20039833">
        <ele>902.0</ele>
        <time>2019-07-31T17:36:23.143Z</time>
      </trkpt>
      <trkpt lat="43.00713833" lon="-1.20042">
        <ele>902.0</ele>
        <time>2019-07-31T17:36:24.148Z</time>
      </trkpt>
      <trkpt lat="43.00713833" lon="-1.20044333">
        <ele>902.0</ele>
        <time>2019-07-31T17:36:25.151Z</time>
      </trkpt>
      <trkpt lat="43.00714167" lon="-1.20046833">
        <ele>902.0</ele>
        <time>2019-07-31T17:36:26.157Z</time>
      </trkpt>
      <trkpt lat="43.00714833" lon="-1.20049667">
        <ele>901.0</ele>
        <time>2019-07-31T17:36:27.163Z</time>
      </trkpt>
      <trkpt lat="43.00714667" lon="-1.200515">
        <ele>901.0</ele>
        <time>2019-07-31T17:36:28.169Z</time>
      </trkpt>
      <trkpt lat="43.00714667" lon="-1.20053667">
        <ele>901.0</ele>
        <time>2019-07-31T17:36:29.175Z</time>
      </trkpt>
      <trkpt lat="43.00714833" lon="-1.20055667">
        <ele>901.0</ele>
        <time>2019-07-31T17:36:30.179Z</time>
      </trkpt>
      <trkpt lat="43.00715333" lon="-1.20057833">
        <ele>901.0</ele>
        <time>2019-07-31T17:36:31.186Z</time>
      </trkpt>
      <trkpt lat="43.00715333" lon="-1.20057833">
        <ele>901.0</ele>
        <time>2019-07-31T17:36:32.065Z</time>
      </trkpt>
      <trkpt lat="43.00715333" lon="-1.200595">
        <ele>901.0</ele>
        <time>2019-07-31T17:36:33.070Z</time>
      </trkpt>
      <trkpt lat="43.007155" lon="-1.200615">
        <ele>900.0</ele>
        <time>2019-07-31T17:36:34.075Z</time>
      </trkpt>
      <trkpt lat="43.007155" lon="-1.20063333">
        <ele>900.0</ele>
        <time>2019-07-31T17:36:35.080Z</time>
      </trkpt>
      <trkpt lat="43.00715833" lon="-1.200655">
        <ele>900.0</ele>
        <time>2019-07-31T17:36:36.086Z</time>
      </trkpt>
      <trkpt lat="43.00715667" lon="-1.200675">
        <ele>900.0</ele>
        <time>2019-07-31T17:36:37.092Z</time>
      </trkpt>
      <trkpt lat="43.00716" lon="-1.20069833">
        <ele>900.0</ele>
        <time>2019-07-31T17:36:38.097Z</time>
      </trkpt>
      <trkpt lat="43.007165" lon="-1.20072">
        <ele>900.0</ele>
        <time>2019-07-31T17:36:39.103Z</time>
      </trkpt>
      <trkpt lat="43.00717167" lon="-1.20074333">
        <ele>900.0</ele>
        <time>2019-07-31T17:36:40.109Z</time>
      </trkpt>
      <trkpt lat="43.00717833" lon="-1.200765">
        <ele>900.0</ele>
        <time>2019-07-31T17:36:41.114Z</time>
      </trkpt>
      <trkpt lat="43.00717833" lon="-1.20080667">
        <ele>901.0</ele>
        <time>2019-07-31T17:36:42.119Z</time>
      </trkpt>
      <trkpt lat="43.00718" lon="-1.20082833">
        <ele>900.0</ele>
        <time>2019-07-31T17:36:43.124Z</time>
      </trkpt>
      <trkpt lat="43.00718167" lon="-1.20084833">
        <ele>899.0</ele>
        <time>2019-07-31T17:36:44.129Z</time>
      </trkpt>
      <trkpt lat="43.00718167" lon="-1.200865">
        <ele>899.0</ele>
        <time>2019-07-31T17:36:45.134Z</time>
      </trkpt>
      <trkpt lat="43.007185" lon="-1.20088167">
        <ele>899.0</ele>
        <time>2019-07-31T17:36:46.141Z</time>
      </trkpt>
      <trkpt lat="43.00718833" lon="-1.20090167">
        <ele>899.0</ele>
        <time>2019-07-31T17:36:47.146Z</time>
      </trkpt>
      <trkpt lat="43.00719167" lon="-1.20092">
        <ele>898.0</ele>
        <time>2019-07-31T17:36:48.150Z</time>
      </trkpt>
      <trkpt lat="43.007195" lon="-1.20093833">
        <ele>898.0</ele>
        <time>2019-07-31T17:36:49.155Z</time>
      </trkpt>
      <trkpt lat="43.00719833" lon="-1.20095167">
        <ele>897.0</ele>
        <time>2019-07-31T17:36:50.162Z</time>
      </trkpt>
      <trkpt lat="43.00720333" lon="-1.20096833">
        <ele>897.0</ele>
        <time>2019-07-31T17:36:51.168Z</time>
      </trkpt>
      <trkpt lat="43.00720667" lon="-1.20098833">
        <ele>897.0</ele>
        <time>2019-07-31T17:36:52.174Z</time>
      </trkpt>
      <trkpt lat="43.00720667" lon="-1.201005">
        <ele>897.0</ele>
        <time>2019-07-31T17:36:53.178Z</time>
      </trkpt>
      <trkpt lat="43.00720833" lon="-1.20102167">
        <ele>897.0</ele>
        <time>2019-07-31T17:36:54.180Z</time>
      </trkpt>
      <trkpt lat="43.00721167" lon="-1.20104">
        <ele>896.0</ele>
        <time>2019-07-31T17:36:55.183Z</time>
      </trkpt>
      <trkpt lat="43.00721167" lon="-1.20104">
        <ele>896.0</ele>
        <time>2019-07-31T17:36:56.062Z</time>
      </trkpt>
      <trkpt lat="43.00720833" lon="-1.20105">
        <ele>895.0</ele>
        <time>2019-07-31T17:36:57.066Z</time>
      </trkpt>
      <trkpt lat="43.00720333" lon="-1.201055">
        <ele>895.0</ele>
        <time>2019-07-31T17:36:58.070Z</time>
      </trkpt>
      <trkpt lat="43.00719833" lon="-1.201065">
        <ele>894.0</ele>
        <time>2019-07-31T17:36:59.074Z</time>
      </trkpt>
      <trkpt lat="43.00719167" lon="-1.20108333">
        <ele>894.0</ele>
        <time>2019-07-31T17:37:00.077Z</time>
      </trkpt>
      <trkpt lat="43.00718833" lon="-1.20110167">
        <ele>894.0</ele>
        <time>2019-07-31T17:37:01.083Z</time>
      </trkpt>
      <trkpt lat="43.00718667" lon="-1.20112167">
        <ele>894.0</ele>
        <time>2019-07-31T17:37:02.090Z</time>
      </trkpt>
      <trkpt lat="43.00718667" lon="-1.20114167">
        <ele>893.0</ele>
        <time>2019-07-31T17:37:03.093Z</time>
      </trkpt>
      <trkpt lat="43.00718667" lon="-1.20116333">
        <ele>892.0</ele>
        <time>2019-07-31T17:37:04.096Z</time>
      </trkpt>
      <trkpt lat="43.00718667" lon="-1.20118333">
        <ele>892.0</ele>
        <time>2019-07-31T17:37:05.099Z</time>
      </trkpt>
      <trkpt lat="43.00719333" lon="-1.201215">
        <ele>892.0</ele>
        <time>2019-07-31T17:37:06.104Z</time>
      </trkpt>
      <trkpt lat="43.00719333" lon="-1.20123833">
        <ele>892.0</ele>
        <time>2019-07-31T17:37:07.108Z</time>
      </trkpt>
      <trkpt lat="43.00719333" lon="-1.20126333">
        <ele>892.0</ele>
        <time>2019-07-31T17:37:08.112Z</time>
      </trkpt>
      <trkpt lat="43.00719333" lon="-1.20128167">
        <ele>891.0</ele>
        <time>2019-07-31T17:37:09.115Z</time>
      </trkpt>
      <trkpt lat="43.00719" lon="-1.20132333">
        <ele>891.0</ele>
        <time>2019-07-31T17:37:10.121Z</time>
      </trkpt>
      <trkpt lat="43.00719" lon="-1.20134833">
        <ele>891.0</ele>
        <time>2019-07-31T17:37:11.127Z</time>
      </trkpt>
      <trkpt lat="43.00718833" lon="-1.20136833">
        <ele>890.0</ele>
        <time>2019-07-31T17:37:12.133Z</time>
      </trkpt>
      <trkpt lat="43.00718667" lon="-1.20138667">
        <ele>889.0</ele>
        <time>2019-07-31T17:37:13.136Z</time>
      </trkpt>
      <trkpt lat="43.00718333" lon="-1.20140667">
        <ele>889.0</ele>
        <time>2019-07-31T17:37:14.140Z</time>
      </trkpt>
      <trkpt lat="43.00718167" lon="-1.20142667">
        <ele>888.0</ele>
        <time>2019-07-31T17:37:15.148Z</time>
      </trkpt>
      <trkpt lat="43.00718" lon="-1.20144667">
        <ele>888.0</ele>
        <time>2019-07-31T17:37:16.153Z</time>
      </trkpt>
      <trkpt lat="43.00717667" lon="-1.20146667">
        <ele>888.0</ele>
        <time>2019-07-31T17:37:17.157Z</time>
      </trkpt>
      <trkpt lat="43.00717" lon="-1.201485">
        <ele>888.0</ele>
        <time>2019-07-31T17:37:18.165Z</time>
      </trkpt>
      <trkpt lat="43.00716833" lon="-1.201505">
        <ele>887.0</ele>
        <time>2019-07-31T17:37:19.170Z</time>
      </trkpt>
      <trkpt lat="43.00716167" lon="-1.20152167">
        <ele>888.0</ele>
        <time>2019-07-31T17:37:20.175Z</time>
      </trkpt>
      <trkpt lat="43.007155" lon="-1.20153833">
        <ele>888.0</ele>
        <time>2019-07-31T17:37:21.181Z</time>
      </trkpt>
      <trkpt lat="43.007155" lon="-1.20153833">
        <ele>888.0</ele>
        <time>2019-07-31T17:37:22.063Z</time>
      </trkpt>
      <trkpt lat="43.00714333" lon="-1.201555">
        <ele>889.0</ele>
        <time>2019-07-31T17:37:23.069Z</time>
      </trkpt>
      <trkpt lat="43.00713" lon="-1.20157">
        <ele>891.0</ele>
        <time>2019-07-31T17:37:24.076Z</time>
      </trkpt>
      <trkpt lat="43.00712" lon="-1.201585">
        <ele>891.0</ele>
        <time>2019-07-31T17:37:25.081Z</time>
      </trkpt>
      <trkpt lat="43.00711167" lon="-1.201605">
        <ele>890.0</ele>
        <time>2019-07-31T17:37:26.087Z</time>
      </trkpt>
      <trkpt lat="43.00710167" lon="-1.20162167">
        <ele>891.0</ele>
        <time>2019-07-31T17:37:27.091Z</time>
      </trkpt>
      <trkpt lat="43.00709" lon="-1.20163667">
        <ele>890.0</ele>
        <time>2019-07-31T17:37:28.095Z</time>
      </trkpt>
      <trkpt lat="43.00707833" lon="-1.20165333">
        <ele>890.0</ele>
        <time>2019-07-31T17:37:29.101Z</time>
      </trkpt>
      <trkpt lat="43.00706667" lon="-1.20166833">
        <ele>890.0</ele>
        <time>2019-07-31T17:37:30.106Z</time>
      </trkpt>
      <trkpt lat="43.00706333" lon="-1.20169333">
        <ele>890.0</ele>
        <time>2019-07-31T17:37:31.112Z</time>
      </trkpt>
      <trkpt lat="43.00706" lon="-1.20171833">
        <ele>890.0</ele>
        <time>2019-07-31T17:37:32.119Z</time>
      </trkpt>
      <trkpt lat="43.00704667" lon="-1.20176167">
        <ele>889.0</ele>
        <time>2019-07-31T17:37:33.125Z</time>
      </trkpt>
      <trkpt lat="43.00703833" lon="-1.20178167">
        <ele>889.0</ele>
        <time>2019-07-31T17:37:34.129Z</time>
      </trkpt>
      <trkpt lat="43.00702833" lon="-1.20179667">
        <ele>889.0</ele>
        <time>2019-07-31T17:37:35.133Z</time>
      </trkpt>
      <trkpt lat="43.00701667" lon="-1.20180833">
        <ele>889.0</ele>
        <time>2019-07-31T17:37:36.137Z</time>
      </trkpt>
      <trkpt lat="43.00700833" lon="-1.20182167">
        <ele>890.0</ele>
        <time>2019-07-31T17:37:37.142Z</time>
      </trkpt>
      <trkpt lat="43.007" lon="-1.20183833">
        <ele>890.0</ele>
        <time>2019-07-31T17:37:38.147Z</time>
      </trkpt>
      <trkpt lat="43.00699167" lon="-1.20185333">
        <ele>891.0</ele>
        <time>2019-07-31T17:37:39.153Z</time>
      </trkpt>
      <trkpt lat="43.00698167" lon="-1.20186833">
        <ele>892.0</ele>
        <time>2019-07-31T17:37:40.158Z</time>
      </trkpt>
      <trkpt lat="43.00698167" lon="-1.20188333">
        <ele>891.0</ele>
        <time>2019-07-31T17:37:41.165Z</time>
      </trkpt>
      <trkpt lat="43.00697667" lon="-1.2019">
        <ele>892.0</ele>
        <time>2019-07-31T17:37:42.170Z</time>
      </trkpt>
      <trkpt lat="43.00696667" lon="-1.20191167">
        <ele>892.0</ele>
        <time>2019-07-31T17:37:43.175Z</time>
      </trkpt>
      <trkpt lat="43.00695667" lon="-1.20192833">
        <ele>893.0</ele>
        <time>2019-07-31T17:37:44.180Z</time>
      </trkpt>
      <trkpt lat="43.00695667" lon="-1.20192833">
        <ele>893.0</ele>
        <time>2019-07-31T17:37:45.061Z</time>
      </trkpt>
      <trkpt lat="43.00695" lon="-1.20194833">
        <ele>893.0</ele>
        <time>2019-07-31T17:37:46.065Z</time>
      </trkpt>
      <trkpt lat="43.00695167" lon="-1.20197333">
        <ele>892.0</ele>
        <time>2019-07-31T17:37:47.071Z</time>
      </trkpt>
      <trkpt lat="43.00695" lon="-1.20199167">
        <ele>891.0</ele>
        <time>2019-07-31T17:37:48.077Z</time>
      </trkpt>
      <trkpt lat="43.006945" lon="-1.20201167">
        <ele>891.0</ele>
        <time>2019-07-31T17:37:49.081Z</time>
      </trkpt>
      <trkpt lat="43.00693667" lon="-1.20203167">
        <ele>891.0</ele>
        <time>2019-07-31T17:37:50.087Z</time>
      </trkpt>
      <trkpt lat="43.00693" lon="-1.20205333">
        <ele>890.0</ele>
        <time>2019-07-31T17:37:51.091Z</time>
      </trkpt>
      <trkpt lat="43.00692667" lon="-1.202075">
        <ele>890.0</ele>
        <time>2019-07-31T17:37:52.095Z</time>
      </trkpt>
      <trkpt lat="43.00691667" lon="-1.20209333">
        <ele>890.0</ele>
        <time>2019-07-31T17:37:53.101Z</time>
      </trkpt>
      <trkpt lat="43.00690667" lon="-1.20211">
        <ele>889.0</ele>
        <time>2019-07-31T17:37:54.108Z</time>
      </trkpt>
      <trkpt lat="43.0069" lon="-1.202125">
        <ele>889.0</ele>
        <time>2019-07-31T17:37:55.115Z</time>
      </trkpt>
      <trkpt lat="43.00688" lon="-1.20215833">
        <ele>890.0</ele>
        <time>2019-07-31T17:37:56.121Z</time>
      </trkpt>
      <trkpt lat="43.00687167" lon="-1.20216833">
        <ele>890.0</ele>
        <time>2019-07-31T17:37:57.126Z</time>
      </trkpt>
      <trkpt lat="43.00686333" lon="-1.20218167">
        <ele>890.0</ele>
        <time>2019-07-31T17:37:58.131Z</time>
      </trkpt>
      <trkpt lat="43.00685167" lon="-1.20219167">
        <ele>890.0</ele>
        <time>2019-07-31T17:37:59.136Z</time>
      </trkpt>
      <trkpt lat="43.00683833" lon="-1.2022">
        <ele>890.0</ele>
        <time>2019-07-31T17:38:00.139Z</time>
      </trkpt>
      <trkpt lat="43.00682667" lon="-1.20221">
        <ele>890.0</ele>
        <time>2019-07-31T17:38:01.145Z</time>
      </trkpt>
      <trkpt lat="43.00681833" lon="-1.20222167">
        <ele>890.0</ele>
        <time>2019-07-31T17:38:02.150Z</time>
      </trkpt>
      <trkpt lat="43.00681167" lon="-1.20223333">
        <ele>889.0</ele>
        <time>2019-07-31T17:38:03.155Z</time>
      </trkpt>
      <trkpt lat="43.0068" lon="-1.202245">
        <ele>889.0</ele>
        <time>2019-07-31T17:38:04.161Z</time>
      </trkpt>
      <trkpt lat="43.00678667" lon="-1.20224833">
        <ele>890.0</ele>
        <time>2019-07-31T17:38:05.166Z</time>
      </trkpt>
      <trkpt lat="43.00677333" lon="-1.20225167">
        <ele>891.0</ele>
        <time>2019-07-31T17:38:06.170Z</time>
      </trkpt>
      <trkpt lat="43.00675833" lon="-1.202255">
        <ele>891.0</ele>
        <time>2019-07-31T17:38:07.175Z</time>
      </trkpt>
      <trkpt lat="43.006745" lon="-1.20226167">
        <ele>891.0</ele>
        <time>2019-07-31T17:38:08.181Z</time>
      </trkpt>
      <trkpt lat="43.00673333" lon="-1.20227333">
        <ele>891.0</ele>
        <time>2019-07-31T17:38:09.182Z</time>
      </trkpt>
      <trkpt lat="43.00672667" lon="-1.20228167">
        <ele>890.0</ele>
        <time>2019-07-31T17:38:10.186Z</time>
      </trkpt>
      <trkpt lat="43.00672667" lon="-1.20228167">
        <ele>890.0</ele>
        <time>2019-07-31T17:38:11.066Z</time>
      </trkpt>
      <trkpt lat="43.006725" lon="-1.20229667">
        <ele>888.0</ele>
        <time>2019-07-31T17:38:12.071Z</time>
      </trkpt>
      <trkpt lat="43.00672" lon="-1.20231333">
        <ele>887.0</ele>
        <time>2019-07-31T17:38:13.077Z</time>
      </trkpt>
      <trkpt lat="43.00671333" lon="-1.20233167">
        <ele>886.0</ele>
        <time>2019-07-31T17:38:14.082Z</time>
      </trkpt>
      <trkpt lat="43.006705" lon="-1.202345">
        <ele>887.0</ele>
        <time>2019-07-31T17:38:15.087Z</time>
      </trkpt>
      <trkpt lat="43.00669833" lon="-1.20235833">
        <ele>887.0</ele>
        <time>2019-07-31T17:38:16.092Z</time>
      </trkpt>
      <trkpt lat="43.00669167" lon="-1.20236833">
        <ele>888.0</ele>
        <time>2019-07-31T17:38:17.098Z</time>
      </trkpt>
      <trkpt lat="43.006685" lon="-1.20237667">
        <ele>888.0</ele>
        <time>2019-07-31T17:38:18.104Z</time>
      </trkpt>
      <trkpt lat="43.00667667" lon="-1.20239">
        <ele>887.0</ele>
        <time>2019-07-31T17:38:19.110Z</time>
      </trkpt>
      <trkpt lat="43.00666833" lon="-1.20240333">
        <ele>887.0</ele>
        <time>2019-07-31T17:38:20.113Z</time>
      </trkpt>
      <trkpt lat="43.00664333" lon="-1.20243">
        <ele>887.0</ele>
        <time>2019-07-31T17:38:21.119Z</time>
      </trkpt>
      <trkpt lat="43.00662833" lon="-1.20244167">
        <ele>887.0</ele>
        <time>2019-07-31T17:38:22.122Z</time>
      </trkpt>
      <trkpt lat="43.006615" lon="-1.20245333">
        <ele>887.0</ele>
        <time>2019-07-31T17:38:23.128Z</time>
      </trkpt>
      <trkpt lat="43.00660167" lon="-1.20246333">
        <ele>887.0</ele>
        <time>2019-07-31T17:38:24.133Z</time>
      </trkpt>
      <trkpt lat="43.00659" lon="-1.20247333">
        <ele>887.0</ele>
        <time>2019-07-31T17:38:25.137Z</time>
      </trkpt>
      <trkpt lat="43.00658167" lon="-1.20249">
        <ele>887.0</ele>
        <time>2019-07-31T17:38:26.144Z</time>
      </trkpt>
      <trkpt lat="43.00657333" lon="-1.2025">
        <ele>887.0</ele>
        <time>2019-07-31T17:38:27.149Z</time>
      </trkpt>
      <trkpt lat="43.00656333" lon="-1.20251167">
        <ele>888.0</ele>
        <time>2019-07-31T17:38:28.155Z</time>
      </trkpt>
      <trkpt lat="43.006555" lon="-1.20252833">
        <ele>888.0</ele>
        <time>2019-07-31T17:38:29.157Z</time>
      </trkpt>
      <trkpt lat="43.00655" lon="-1.202545">
        <ele>889.0</ele>
        <time>2019-07-31T17:38:30.163Z</time>
      </trkpt>
      <trkpt lat="43.00654333" lon="-1.202565">
        <ele>889.0</ele>
        <time>2019-07-31T17:38:31.170Z</time>
      </trkpt>
      <trkpt lat="43.00653" lon="-1.20258333">
        <ele>889.0</ele>
        <time>2019-07-31T17:38:32.176Z</time>
      </trkpt>
      <trkpt lat="43.00652" lon="-1.20260333">
        <ele>889.0</ele>
        <time>2019-07-31T17:38:33.182Z</time>
      </trkpt>
      <trkpt lat="43.00652" lon="-1.20260333">
        <ele>889.0</ele>
        <time>2019-07-31T17:38:34.062Z</time>
      </trkpt>
      <trkpt lat="43.00651" lon="-1.20263">
        <ele>889.0</ele>
        <time>2019-07-31T17:38:35.067Z</time>
      </trkpt>
      <trkpt lat="43.00650167" lon="-1.20265">
        <ele>888.0</ele>
        <time>2019-07-31T17:38:36.071Z</time>
      </trkpt>
      <trkpt lat="43.00649167" lon="-1.202665">
        <ele>887.0</ele>
        <time>2019-07-31T17:38:37.077Z</time>
      </trkpt>
      <trkpt lat="43.006485" lon="-1.20268667">
        <ele>886.0</ele>
        <time>2019-07-31T17:38:38.083Z</time>
      </trkpt>
      <trkpt lat="43.00646333" lon="-1.20270167">
        <ele>888.0</ele>
        <time>2019-07-31T17:38:39.088Z</time>
      </trkpt>
      <trkpt lat="43.00646333" lon="-1.202725">
        <ele>887.0</ele>
        <time>2019-07-31T17:38:40.094Z</time>
      </trkpt>
      <trkpt lat="43.00646167" lon="-1.20274333">
        <ele>886.0</ele>
        <time>2019-07-31T17:38:41.101Z</time>
      </trkpt>
      <trkpt lat="43.00646333" lon="-1.202765">
        <ele>884.0</ele>
        <time>2019-07-31T17:38:42.106Z</time>
      </trkpt>
      <trkpt lat="43.00646167" lon="-1.20278667">
        <ele>883.0</ele>
        <time>2019-07-31T17:38:43.111Z</time>
      </trkpt>
      <trkpt lat="43.00645833" lon="-1.20281">
        <ele>881.0</ele>
        <time>2019-07-31T17:38:44.116Z</time>
      </trkpt>
      <trkpt lat="43.00645833" lon="-1.20283667">
        <ele>880.0</ele>
        <time>2019-07-31T17:38:45.122Z</time>
      </trkpt>
      <trkpt lat="43.00645167" lon="-1.20288167">
        <ele>878.0</ele>
        <time>2019-07-31T17:38:46.126Z</time>
      </trkpt>
      <trkpt lat="43.00645167" lon="-1.20290333">
        <ele>878.0</ele>
        <time>2019-07-31T17:38:47.132Z</time>
      </trkpt>
      <trkpt lat="43.00645" lon="-1.20292833">
        <ele>877.0</ele>
        <time>2019-07-31T17:38:48.137Z</time>
      </trkpt>
      <trkpt lat="43.00644" lon="-1.20294833">
        <ele>878.0</ele>
        <time>2019-07-31T17:38:49.143Z</time>
      </trkpt>
      <trkpt lat="43.00642833" lon="-1.20296833">
        <ele>878.0</ele>
        <time>2019-07-31T17:38:50.149Z</time>
      </trkpt>
      <trkpt lat="43.00642333" lon="-1.20299167">
        <ele>878.0</ele>
        <time>2019-07-31T17:38:51.154Z</time>
      </trkpt>
      <trkpt lat="43.00642167" lon="-1.20301667">
        <ele>878.0</ele>
        <time>2019-07-31T17:38:52.158Z</time>
      </trkpt>
      <trkpt lat="43.00642167" lon="-1.20304">
        <ele>878.0</ele>
        <time>2019-07-31T17:38:53.162Z</time>
      </trkpt>
      <trkpt lat="43.00641667" lon="-1.20305667">
        <ele>879.0</ele>
        <time>2019-07-31T17:38:54.166Z</time>
      </trkpt>
      <trkpt lat="43.00641167" lon="-1.203075">
        <ele>880.0</ele>
        <time>2019-07-31T17:38:55.173Z</time>
      </trkpt>
      <trkpt lat="43.00640667" lon="-1.20308833">
        <ele>881.0</ele>
        <time>2019-07-31T17:38:56.179Z</time>
      </trkpt>
      <trkpt lat="43.00640167" lon="-1.20310167">
        <ele>882.0</ele>
        <time>2019-07-31T17:38:57.185Z</time>
      </trkpt>
      <trkpt lat="43.00640167" lon="-1.20310167">
        <ele>882.0</ele>
        <time>2019-07-31T17:38:58.064Z</time>
      </trkpt>
      <trkpt lat="43.00639167" lon="-1.20311333">
        <ele>883.0</ele>
        <time>2019-07-31T17:38:59.069Z</time>
      </trkpt>
      <trkpt lat="43.00638667" lon="-1.203125">
        <ele>883.0</ele>
        <time>2019-07-31T17:39:00.074Z</time>
      </trkpt>
      <trkpt lat="43.00638" lon="-1.20313667">
        <ele>884.0</ele>
        <time>2019-07-31T17:39:01.081Z</time>
      </trkpt>
      <trkpt lat="43.00637" lon="-1.20314833">
        <ele>884.0</ele>
        <time>2019-07-31T17:39:02.086Z</time>
      </trkpt>
      <trkpt lat="43.00636333" lon="-1.20315833">
        <ele>885.0</ele>
        <time>2019-07-31T17:39:03.091Z</time>
      </trkpt>
      <trkpt lat="43.00635667" lon="-1.20316833">
        <ele>885.0</ele>
        <time>2019-07-31T17:39:04.096Z</time>
      </trkpt>
      <trkpt lat="43.00635" lon="-1.20318167">
        <ele>885.0</ele>
        <time>2019-07-31T17:39:05.101Z</time>
      </trkpt>
      <trkpt lat="43.00634" lon="-1.20319333">
        <ele>885.0</ele>
        <time>2019-07-31T17:39:06.106Z</time>
      </trkpt>
      <trkpt lat="43.00633" lon="-1.20320333">
        <ele>885.0</ele>
        <time>2019-07-31T17:39:07.112Z</time>
      </trkpt>
      <trkpt lat="43.00632" lon="-1.20321333">
        <ele>885.0</ele>
        <time>2019-07-31T17:39:08.118Z</time>
      </trkpt>
      <trkpt lat="43.006305" lon="-1.203245">
        <ele>885.0</ele>
        <time>2019-07-31T17:39:09.125Z</time>
      </trkpt>
      <trkpt lat="43.00630333" lon="-1.203265">
        <ele>885.0</ele>
        <time>2019-07-31T17:39:10.130Z</time>
      </trkpt>
      <trkpt lat="43.00629667" lon="-1.20328333">
        <ele>885.0</ele>
        <time>2019-07-31T17:39:11.134Z</time>
      </trkpt>
      <trkpt lat="43.00628833" lon="-1.2033">
        <ele>885.0</ele>
        <time>2019-07-31T17:39:12.140Z</time>
      </trkpt>
      <trkpt lat="43.00627833" lon="-1.203315">
        <ele>885.0</ele>
        <time>2019-07-31T17:39:13.145Z</time>
      </trkpt>
      <trkpt lat="43.00627" lon="-1.20333">
        <ele>884.0</ele>
        <time>2019-07-31T17:39:14.149Z</time>
      </trkpt>
      <trkpt lat="43.006265" lon="-1.20334667">
        <ele>884.0</ele>
        <time>2019-07-31T17:39:15.155Z</time>
      </trkpt>
      <trkpt lat="43.00625833" lon="-1.203365">
        <ele>885.0</ele>
        <time>2019-07-31T17:39:16.162Z</time>
      </trkpt>
      <trkpt lat="43.00625333" lon="-1.203385">
        <ele>885.0</ele>
        <time>2019-07-31T17:39:17.167Z</time>
      </trkpt>
      <trkpt lat="43.00624833" lon="-1.20340667">
        <ele>886.0</ele>
        <time>2019-07-31T17:39:18.174Z</time>
      </trkpt>
      <trkpt lat="43.00623833" lon="-1.20343">
        <ele>886.0</ele>
        <time>2019-07-31T17:39:19.179Z</time>
      </trkpt>
      <trkpt lat="43.00623167" lon="-1.20345167">
        <ele>886.0</ele>
        <time>2019-07-31T17:39:20.186Z</time>
      </trkpt>
      <trkpt lat="43.00623167" lon="-1.20345167">
        <ele>886.0</ele>
        <time>2019-07-31T17:39:21.065Z</time>
      </trkpt>
      <trkpt lat="43.00622333" lon="-1.20347">
        <ele>886.0</ele>
        <time>2019-07-31T17:39:22.071Z</time>
      </trkpt>
      <trkpt lat="43.00621667" lon="-1.20349">
        <ele>886.0</ele>
        <time>2019-07-31T17:39:23.075Z</time>
      </trkpt>
      <trkpt lat="43.00621333" lon="-1.20351333">
        <ele>886.0</ele>
        <time>2019-07-31T17:39:24.080Z</time>
      </trkpt>
      <trkpt lat="43.00621333" lon="-1.203535">
        <ele>885.0</ele>
        <time>2019-07-31T17:39:25.086Z</time>
      </trkpt>
      <trkpt lat="43.00621833" lon="-1.20356667">
        <ele>885.0</ele>
        <time>2019-07-31T17:39:26.091Z</time>
      </trkpt>
      <trkpt lat="43.00621167" lon="-1.203585">
        <ele>885.0</ele>
        <time>2019-07-31T17:39:27.096Z</time>
      </trkpt>
      <trkpt lat="43.00620667" lon="-1.20360667">
        <ele>886.0</ele>
        <time>2019-07-31T17:39:28.102Z</time>
      </trkpt>
      <trkpt lat="43.00620333" lon="-1.20362667">
        <ele>886.0</ele>
        <time>2019-07-31T17:39:29.109Z</time>
      </trkpt>
      <trkpt lat="43.00620167" lon="-1.20364833">
        <ele>885.0</ele>
        <time>2019-07-31T17:39:30.112Z</time>
      </trkpt>
      <trkpt lat="43.0062" lon="-1.20366667">
        <ele>885.0</ele>
        <time>2019-07-31T17:39:31.117Z</time>
      </trkpt>
      <trkpt lat="43.00618333" lon="-1.2037">
        <ele>885.0</ele>
        <time>2019-07-31T17:39:32.121Z</time>
      </trkpt>
      <trkpt lat="43.006175" lon="-1.20371167">
        <ele>885.0</ele>
        <time>2019-07-31T17:39:33.127Z</time>
      </trkpt>
      <trkpt lat="43.00616833" lon="-1.20372667">
        <ele>885.0</ele>
        <time>2019-07-31T17:39:34.132Z</time>
      </trkpt>
      <trkpt lat="43.00616667" lon="-1.20373667">
        <ele>886.0</ele>
        <time>2019-07-31T17:39:35.135Z</time>
      </trkpt>
      <trkpt lat="43.00616" lon="-1.20374667">
        <ele>888.0</ele>
        <time>2019-07-31T17:39:36.139Z</time>
      </trkpt>
      <trkpt lat="43.00615167" lon="-1.203765">
        <ele>889.0</ele>
        <time>2019-07-31T17:39:37.145Z</time>
      </trkpt>
      <trkpt lat="43.00614" lon="-1.20377667">
        <ele>889.0</ele>
        <time>2019-07-31T17:39:38.152Z</time>
      </trkpt>
      <trkpt lat="43.00613833" lon="-1.20379333">
        <ele>888.0</ele>
        <time>2019-07-31T17:39:39.156Z</time>
      </trkpt>
      <trkpt lat="43.00614" lon="-1.203815">
        <ele>887.0</ele>
        <time>2019-07-31T17:39:40.162Z</time>
      </trkpt>
      <trkpt lat="43.00613667" lon="-1.20383167">
        <ele>887.0</ele>
        <time>2019-07-31T17:39:41.166Z</time>
      </trkpt>
      <trkpt lat="43.006135" lon="-1.203845">
        <ele>887.0</ele>
        <time>2019-07-31T17:39:42.172Z</time>
      </trkpt>
      <trkpt lat="43.00613833" lon="-1.20386833">
        <ele>885.0</ele>
        <time>2019-07-31T17:39:43.176Z</time>
      </trkpt>
      <trkpt lat="43.00614167" lon="-1.20389667">
        <ele>883.0</ele>
        <time>2019-07-31T17:39:44.183Z</time>
      </trkpt>
      <trkpt lat="43.00614167" lon="-1.20389667">
        <ele>883.0</ele>
        <time>2019-07-31T17:39:45.065Z</time>
      </trkpt>
      <trkpt lat="43.00614" lon="-1.203925">
        <ele>881.0</ele>
        <time>2019-07-31T17:39:46.072Z</time>
      </trkpt>
      <trkpt lat="43.00613833" lon="-1.20395333">
        <ele>879.0</ele>
        <time>2019-07-31T17:39:47.076Z</time>
      </trkpt>
      <trkpt lat="43.00613167" lon="-1.20397667">
        <ele>878.0</ele>
        <time>2019-07-31T17:39:48.081Z</time>
      </trkpt>
      <trkpt lat="43.00612833" lon="-1.20399833">
        <ele>876.0</ele>
        <time>2019-07-31T17:39:49.086Z</time>
      </trkpt>
      <trkpt lat="43.00612167" lon="-1.20401">
        <ele>877.0</ele>
        <time>2019-07-31T17:39:50.091Z</time>
      </trkpt>
      <trkpt lat="43.006115" lon="-1.20402">
        <ele>877.0</ele>
        <time>2019-07-31T17:39:51.096Z</time>
      </trkpt>
      <trkpt lat="43.00610333" lon="-1.20402833">
        <ele>877.0</ele>
        <time>2019-07-31T17:39:52.103Z</time>
      </trkpt>
      <trkpt lat="43.00609167" lon="-1.20404">
        <ele>878.0</ele>
        <time>2019-07-31T17:39:53.108Z</time>
      </trkpt>
      <trkpt lat="43.00607667" lon="-1.20405167">
        <ele>879.0</ele>
        <time>2019-07-31T17:39:54.112Z</time>
      </trkpt>
      <trkpt lat="43.00607" lon="-1.20406833">
        <ele>879.0</ele>
        <time>2019-07-31T17:39:55.117Z</time>
      </trkpt>
      <trkpt lat="43.00606333" lon="-1.20410333">
        <ele>880.0</ele>
        <time>2019-07-31T17:39:56.123Z</time>
      </trkpt>
      <trkpt lat="43.00605833" lon="-1.20412">
        <ele>880.0</ele>
        <time>2019-07-31T17:39:57.128Z</time>
      </trkpt>
      <trkpt lat="43.00604833" lon="-1.204135">
        <ele>881.0</ele>
        <time>2019-07-31T17:39:58.133Z</time>
      </trkpt>
      <trkpt lat="43.00603667" lon="-1.20414833">
        <ele>882.0</ele>
        <time>2019-07-31T17:39:59.136Z</time>
      </trkpt>
      <trkpt lat="43.00602833" lon="-1.20416">
        <ele>882.0</ele>
        <time>2019-07-31T17:40:00.141Z</time>
      </trkpt>
      <trkpt lat="43.006025" lon="-1.20417167">
        <ele>883.0</ele>
        <time>2019-07-31T17:40:01.145Z</time>
      </trkpt>
      <trkpt lat="43.00602167" lon="-1.20418333">
        <ele>883.0</ele>
        <time>2019-07-31T17:40:02.151Z</time>
      </trkpt>
      <trkpt lat="43.00601833" lon="-1.204205">
        <ele>883.0</ele>
        <time>2019-07-31T17:40:03.155Z</time>
      </trkpt>
      <trkpt lat="43.00601" lon="-1.204225">
        <ele>883.0</ele>
        <time>2019-07-31T17:40:04.160Z</time>
      </trkpt>
      <trkpt lat="43.00600167" lon="-1.20424333">
        <ele>883.0</ele>
        <time>2019-07-31T17:40:05.165Z</time>
      </trkpt>
      <trkpt lat="43.00599833" lon="-1.20426333">
        <ele>881.0</ele>
        <time>2019-07-31T17:40:06.170Z</time>
      </trkpt>
      <trkpt lat="43.005995" lon="-1.20428333">
        <ele>881.0</ele>
        <time>2019-07-31T17:40:07.175Z</time>
      </trkpt>
      <trkpt lat="43.00599" lon="-1.20430167">
        <ele>881.0</ele>
        <time>2019-07-31T17:40:08.180Z</time>
      </trkpt>
      <trkpt lat="43.00598833" lon="-1.204325">
        <ele>881.0</ele>
        <time>2019-07-31T17:40:09.185Z</time>
      </trkpt>
      <trkpt lat="43.00598833" lon="-1.204325">
        <ele>881.0</ele>
        <time>2019-07-31T17:40:10.066Z</time>
      </trkpt>
      <trkpt lat="43.00598667" lon="-1.20435">
        <ele>881.0</ele>
        <time>2019-07-31T17:40:11.072Z</time>
      </trkpt>
      <trkpt lat="43.00598" lon="-1.20436667">
        <ele>882.0</ele>
        <time>2019-07-31T17:40:12.078Z</time>
      </trkpt>
      <trkpt lat="43.00597667" lon="-1.20438333">
        <ele>881.0</ele>
        <time>2019-07-31T17:40:13.084Z</time>
      </trkpt>
      <trkpt lat="43.00596667" lon="-1.2044">
        <ele>881.0</ele>
        <time>2019-07-31T17:40:14.089Z</time>
      </trkpt>
      <trkpt lat="43.00596333" lon="-1.20441833">
        <ele>881.0</ele>
        <time>2019-07-31T17:40:15.095Z</time>
      </trkpt>
      <trkpt lat="43.00595333" lon="-1.20443167">
        <ele>881.0</ele>
        <time>2019-07-31T17:40:16.100Z</time>
      </trkpt>
      <trkpt lat="43.005945" lon="-1.20444833">
        <ele>881.0</ele>
        <time>2019-07-31T17:40:17.106Z</time>
      </trkpt>
      <trkpt lat="43.00593333" lon="-1.204465">
        <ele>881.0</ele>
        <time>2019-07-31T17:40:18.111Z</time>
      </trkpt>
      <trkpt lat="43.00592333" lon="-1.20448">
        <ele>881.0</ele>
        <time>2019-07-31T17:40:19.115Z</time>
      </trkpt>
      <trkpt lat="43.00591167" lon="-1.20449667">
        <ele>881.0</ele>
        <time>2019-07-31T17:40:20.120Z</time>
      </trkpt>
      <trkpt lat="43.00589" lon="-1.20452">
        <ele>882.0</ele>
        <time>2019-07-31T17:40:21.127Z</time>
      </trkpt>
      <trkpt lat="43.00588167" lon="-1.20453333">
        <ele>883.0</ele>
        <time>2019-07-31T17:40:22.130Z</time>
      </trkpt>
      <trkpt lat="43.00587" lon="-1.20454167">
        <ele>885.0</ele>
        <time>2019-07-31T17:40:23.135Z</time>
      </trkpt>
      <trkpt lat="43.005855" lon="-1.204545">
        <ele>887.0</ele>
        <time>2019-07-31T17:40:24.143Z</time>
      </trkpt>
      <trkpt lat="43.00584333" lon="-1.20455167">
        <ele>888.0</ele>
        <time>2019-07-31T17:40:25.148Z</time>
      </trkpt>
      <trkpt lat="43.005835" lon="-1.20456333">
        <ele>888.0</ele>
        <time>2019-07-31T17:40:26.154Z</time>
      </trkpt>
      <trkpt lat="43.00582667" lon="-1.20457667">
        <ele>888.0</ele>
        <time>2019-07-31T17:40:27.159Z</time>
      </trkpt>
      <trkpt lat="43.00581667" lon="-1.20459">
        <ele>888.0</ele>
        <time>2019-07-31T17:40:28.163Z</time>
      </trkpt>
      <trkpt lat="43.005805" lon="-1.20460167">
        <ele>889.0</ele>
        <time>2019-07-31T17:40:29.170Z</time>
      </trkpt>
      <trkpt lat="43.005795" lon="-1.20461833">
        <ele>890.0</ele>
        <time>2019-07-31T17:40:30.175Z</time>
      </trkpt>
      <trkpt lat="43.00578667" lon="-1.20463833">
        <ele>889.0</ele>
        <time>2019-07-31T17:40:31.180Z</time>
      </trkpt>
      <trkpt lat="43.00577833" lon="-1.20465833">
        <ele>890.0</ele>
        <time>2019-07-31T17:40:32.186Z</time>
      </trkpt>
      <trkpt lat="43.00577833" lon="-1.20465833">
        <ele>890.0</ele>
        <time>2019-07-31T17:40:33.065Z</time>
      </trkpt>
      <trkpt lat="43.00576833" lon="-1.20467">
        <ele>890.0</ele>
        <time>2019-07-31T17:40:34.072Z</time>
      </trkpt>
      <trkpt lat="43.00576" lon="-1.20468167">
        <ele>890.0</ele>
        <time>2019-07-31T17:40:35.075Z</time>
      </trkpt>
      <trkpt lat="43.00575" lon="-1.20469167">
        <ele>891.0</ele>
        <time>2019-07-31T17:40:36.079Z</time>
      </trkpt>
      <trkpt lat="43.00574" lon="-1.20470333">
        <ele>892.0</ele>
        <time>2019-07-31T17:40:37.085Z</time>
      </trkpt>
      <trkpt lat="43.00572833" lon="-1.20471333">
        <ele>892.0</ele>
        <time>2019-07-31T17:40:38.090Z</time>
      </trkpt>
      <trkpt lat="43.00571833" lon="-1.20472333">
        <ele>892.0</ele>
        <time>2019-07-31T17:40:39.095Z</time>
      </trkpt>
      <trkpt lat="43.00570833" lon="-1.20473667">
        <ele>893.0</ele>
        <time>2019-07-31T17:40:40.101Z</time>
      </trkpt>
      <trkpt lat="43.00569667" lon="-1.204745">
        <ele>893.0</ele>
        <time>2019-07-31T17:40:41.107Z</time>
      </trkpt>
      <trkpt lat="43.00568667" lon="-1.20475667">
        <ele>893.0</ele>
        <time>2019-07-31T17:40:42.112Z</time>
      </trkpt>
      <trkpt lat="43.005675" lon="-1.20476333">
        <ele>894.0</ele>
        <time>2019-07-31T17:40:43.118Z</time>
      </trkpt>
      <trkpt lat="43.005665" lon="-1.20477333">
        <ele>895.0</ele>
        <time>2019-07-31T17:40:44.124Z</time>
      </trkpt>
      <trkpt lat="43.00564333" lon="-1.20479333">
        <ele>896.0</ele>
        <time>2019-07-31T17:40:45.131Z</time>
      </trkpt>
      <trkpt lat="43.00563" lon="-1.20480667">
        <ele>897.0</ele>
        <time>2019-07-31T17:40:46.137Z</time>
      </trkpt>
      <trkpt lat="43.00562" lon="-1.20481667">
        <ele>897.0</ele>
        <time>2019-07-31T17:40:47.143Z</time>
      </trkpt>
      <trkpt lat="43.00560667" lon="-1.20482833">
        <ele>897.0</ele>
        <time>2019-07-31T17:40:48.148Z</time>
      </trkpt>
      <trkpt lat="43.005595" lon="-1.20484">
        <ele>897.0</ele>
        <time>2019-07-31T17:40:49.154Z</time>
      </trkpt>
      <trkpt lat="43.00558667" lon="-1.20485">
        <ele>897.0</ele>
        <time>2019-07-31T17:40:50.158Z</time>
      </trkpt>
      <trkpt lat="43.00557667" lon="-1.20486333">
        <ele>897.0</ele>
        <time>2019-07-31T17:40:51.165Z</time>
      </trkpt>
      <trkpt lat="43.00557167" lon="-1.20487667">
        <ele>896.0</ele>
        <time>2019-07-31T17:40:52.171Z</time>
      </trkpt>
      <trkpt lat="43.005565" lon="-1.20489">
        <ele>895.0</ele>
        <time>2019-07-31T17:40:53.176Z</time>
      </trkpt>
      <trkpt lat="43.005555" lon="-1.20489667">
        <ele>896.0</ele>
        <time>2019-07-31T17:40:54.183Z</time>
      </trkpt>
      <trkpt lat="43.005555" lon="-1.20489667">
        <ele>896.0</ele>
        <time>2019-07-31T17:40:55.063Z</time>
      </trkpt>
      <trkpt lat="43.00554167" lon="-1.20490167">
        <ele>896.0</ele>
        <time>2019-07-31T17:40:56.068Z</time>
      </trkpt>
      <trkpt lat="43.00552833" lon="-1.20490333">
        <ele>898.0</ele>
        <time>2019-07-31T17:40:57.074Z</time>
      </trkpt>
      <trkpt lat="43.00551333" lon="-1.20491">
        <ele>900.0</ele>
        <time>2019-07-31T17:40:58.079Z</time>
      </trkpt>
      <trkpt lat="43.00549833" lon="-1.20492">
        <ele>900.0</ele>
        <time>2019-07-31T17:40:59.086Z</time>
      </trkpt>
      <trkpt lat="43.00548667" lon="-1.20493167">
        <ele>900.0</ele>
        <time>2019-07-31T17:41:00.091Z</time>
      </trkpt>
      <trkpt lat="43.00547333" lon="-1.20494">
        <ele>900.0</ele>
        <time>2019-07-31T17:41:01.095Z</time>
      </trkpt>
      <trkpt lat="43.00546667" lon="-1.20495167">
        <ele>900.0</ele>
        <time>2019-07-31T17:41:02.099Z</time>
      </trkpt>
      <trkpt lat="43.00545667" lon="-1.20495833">
        <ele>900.0</ele>
        <time>2019-07-31T17:41:03.103Z</time>
      </trkpt>
      <trkpt lat="43.005445" lon="-1.20496167">
        <ele>901.0</ele>
        <time>2019-07-31T17:41:04.107Z</time>
      </trkpt>
      <trkpt lat="43.00543" lon="-1.20497167">
        <ele>902.0</ele>
        <time>2019-07-31T17:41:05.113Z</time>
      </trkpt>
      <trkpt lat="43.005415" lon="-1.20498">
        <ele>903.0</ele>
        <time>2019-07-31T17:41:06.120Z</time>
      </trkpt>
      <trkpt lat="43.00540667" lon="-1.204985">
        <ele>905.0</ele>
        <time>2019-07-31T17:41:07.125Z</time>
      </trkpt>
      <trkpt lat="43.00538833" lon="-1.205">
        <ele>906.0</ele>
        <time>2019-07-31T17:41:08.129Z</time>
      </trkpt>
      <trkpt lat="43.00537667" lon="-1.20500667">
        <ele>907.0</ele>
        <time>2019-07-31T17:41:09.133Z</time>
      </trkpt>
      <trkpt lat="43.00536667" lon="-1.20501333">
        <ele>908.0</ele>
        <time>2019-07-31T17:41:10.138Z</time>
      </trkpt>
      <trkpt lat="43.00536" lon="-1.20502333">
        <ele>909.0</ele>
        <time>2019-07-31T17:41:11.139Z</time>
      </trkpt>
      <trkpt lat="43.00535667" lon="-1.20503333">
        <ele>909.0</ele>
        <time>2019-07-31T17:41:12.144Z</time>
      </trkpt>
      <trkpt lat="43.00535" lon="-1.20504333">
        <ele>910.0</ele>
        <time>2019-07-31T17:41:13.149Z</time>
      </trkpt>
      <trkpt lat="43.00534333" lon="-1.20505667">
        <ele>911.0</ele>
        <time>2019-07-31T17:41:14.152Z</time>
      </trkpt>
      <trkpt lat="43.00533833" lon="-1.20507333">
        <ele>911.0</ele>
        <time>2019-07-31T17:41:15.157Z</time>
      </trkpt>
      <trkpt lat="43.00533" lon="-1.20509">
        <ele>911.0</ele>
        <time>2019-07-31T17:41:16.162Z</time>
      </trkpt>
      <trkpt lat="43.00532167" lon="-1.20510833">
        <ele>911.0</ele>
        <time>2019-07-31T17:41:17.168Z</time>
      </trkpt>
      <trkpt lat="43.00531167" lon="-1.20512167">
        <ele>910.0</ele>
        <time>2019-07-31T17:41:18.172Z</time>
      </trkpt>
      <trkpt lat="43.00530167" lon="-1.205135">
        <ele>910.0</ele>
        <time>2019-07-31T17:41:19.175Z</time>
      </trkpt>
      <trkpt lat="43.00528667" lon="-1.20514833">
        <ele>910.0</ele>
        <time>2019-07-31T17:41:20.183Z</time>
      </trkpt>
      <trkpt lat="43.00528667" lon="-1.20514833">
        <ele>910.0</ele>
        <time>2019-07-31T17:41:21.063Z</time>
      </trkpt>
      <trkpt lat="43.00527667" lon="-1.20516167">
        <ele>909.0</ele>
        <time>2019-07-31T17:41:22.068Z</time>
      </trkpt>
      <trkpt lat="43.00526667" lon="-1.20518167">
        <ele>909.0</ele>
        <time>2019-07-31T17:41:23.073Z</time>
      </trkpt>
      <trkpt lat="43.00526" lon="-1.20520833">
        <ele>907.0</ele>
        <time>2019-07-31T17:41:24.078Z</time>
      </trkpt>
      <trkpt lat="43.00525" lon="-1.20523">
        <ele>906.0</ele>
        <time>2019-07-31T17:41:25.085Z</time>
      </trkpt>
      <trkpt lat="43.00524" lon="-1.20525">
        <ele>906.0</ele>
        <time>2019-07-31T17:41:26.089Z</time>
      </trkpt>
      <trkpt lat="43.00523" lon="-1.20526833">
        <ele>905.0</ele>
        <time>2019-07-31T17:41:27.094Z</time>
      </trkpt>
      <trkpt lat="43.00522" lon="-1.205285">
        <ele>904.0</ele>
        <time>2019-07-31T17:41:28.101Z</time>
      </trkpt>
      <trkpt lat="43.005205" lon="-1.20529667">
        <ele>904.0</ele>
        <time>2019-07-31T17:41:29.106Z</time>
      </trkpt>
      <trkpt lat="43.00519333" lon="-1.20530833">
        <ele>903.0</ele>
        <time>2019-07-31T17:41:30.111Z</time>
      </trkpt>
      <trkpt lat="43.00518167" lon="-1.20532167">
        <ele>903.0</ele>
        <time>2019-07-31T17:41:31.115Z</time>
      </trkpt>
      <trkpt lat="43.00517333" lon="-1.205335">
        <ele>902.0</ele>
        <time>2019-07-31T17:41:32.120Z</time>
      </trkpt>
      <trkpt lat="43.00515667" lon="-1.205345">
        <ele>902.0</ele>
        <time>2019-07-31T17:41:33.124Z</time>
      </trkpt>
      <trkpt lat="43.00513833" lon="-1.20536167">
        <ele>900.0</ele>
        <time>2019-07-31T17:41:34.129Z</time>
      </trkpt>
      <trkpt lat="43.00513" lon="-1.20537333">
        <ele>899.0</ele>
        <time>2019-07-31T17:41:35.133Z</time>
      </trkpt>
      <trkpt lat="43.00512333" lon="-1.20538333">
        <ele>897.0</ele>
        <time>2019-07-31T17:41:36.136Z</time>
      </trkpt>
      <trkpt lat="43.005115" lon="-1.20538667">
        <ele>897.0</ele>
        <time>2019-07-31T17:41:37.141Z</time>
      </trkpt>
      <trkpt lat="43.005105" lon="-1.20539">
        <ele>897.0</ele>
        <time>2019-07-31T17:41:38.145Z</time>
      </trkpt>
      <trkpt lat="43.00509667" lon="-1.20539167">
        <ele>898.0</ele>
        <time>2019-07-31T17:41:39.150Z</time>
      </trkpt>
      <trkpt lat="43.00508833" lon="-1.20539333">
        <ele>898.0</ele>
        <time>2019-07-31T17:41:40.155Z</time>
      </trkpt>
      <trkpt lat="43.00508" lon="-1.20539667">
        <ele>898.0</ele>
        <time>2019-07-31T17:41:41.158Z</time>
      </trkpt>
      <trkpt lat="43.00507667" lon="-1.20539167">
        <ele>898.0</ele>
        <time>2019-07-31T17:41:42.164Z</time>
      </trkpt>
      <trkpt lat="43.00507167" lon="-1.20538167">
        <ele>898.0</ele>
        <time>2019-07-31T17:41:43.170Z</time>
      </trkpt>
      <trkpt lat="43.00506333" lon="-1.205375">
        <ele>898.0</ele>
        <time>2019-07-31T17:41:44.174Z</time>
      </trkpt>
      <trkpt lat="43.00505" lon="-1.20537667">
        <ele>898.0</ele>
        <time>2019-07-31T17:41:45.178Z</time>
      </trkpt>
      <trkpt lat="43.00503833" lon="-1.205375">
        <ele>897.0</ele>
        <time>2019-07-31T17:41:46.182Z</time>
      </trkpt>
      <trkpt lat="43.00503833" lon="-1.205375">
        <ele>897.0</ele>
        <time>2019-07-31T17:41:47.061Z</time>
      </trkpt>
      <trkpt lat="43.00502667" lon="-1.20537833">
        <ele>897.0</ele>
        <time>2019-07-31T17:41:48.066Z</time>
      </trkpt>
      <trkpt lat="43.00501667" lon="-1.205375">
        <ele>897.0</ele>
        <time>2019-07-31T17:41:49.072Z</time>
      </trkpt>
      <trkpt lat="43.00500833" lon="-1.20537333">
        <ele>896.0</ele>
        <time>2019-07-31T17:41:50.081Z</time>
      </trkpt>
      <trkpt lat="43.004995" lon="-1.20537">
        <ele>895.0</ele>
        <time>2019-07-31T17:41:51.087Z</time>
      </trkpt>
      <trkpt lat="43.00498333" lon="-1.20536667">
        <ele>895.0</ele>
        <time>2019-07-31T17:41:52.092Z</time>
      </trkpt>
      <trkpt lat="43.00497167" lon="-1.20536333">
        <ele>896.0</ele>
        <time>2019-07-31T17:41:53.098Z</time>
      </trkpt>
      <trkpt lat="43.00496333" lon="-1.205355">
        <ele>896.0</ele>
        <time>2019-07-31T17:41:54.104Z</time>
      </trkpt>
      <trkpt lat="43.004955" lon="-1.20534833">
        <ele>896.0</ele>
        <time>2019-07-31T17:41:55.109Z</time>
      </trkpt>
      <trkpt lat="43.00494167" lon="-1.20534333">
        <ele>896.0</ele>
        <time>2019-07-31T17:41:56.115Z</time>
      </trkpt>
      <trkpt lat="43.00493" lon="-1.20533833">
        <ele>896.0</ele>
        <time>2019-07-31T17:41:57.121Z</time>
      </trkpt>
      <trkpt lat="43.00492" lon="-1.20533667">
        <ele>896.0</ele>
        <time>2019-07-31T17:41:58.126Z</time>
      </trkpt>
      <trkpt lat="43.00489667" lon="-1.205335">
        <ele>896.0</ele>
        <time>2019-07-31T17:41:59.132Z</time>
      </trkpt>
      <trkpt lat="43.00488667" lon="-1.20533333">
        <ele>896.0</ele>
        <time>2019-07-31T17:42:00.135Z</time>
      </trkpt>
      <trkpt lat="43.004875" lon="-1.20532667">
        <ele>896.0</ele>
        <time>2019-07-31T17:42:01.140Z</time>
      </trkpt>
      <trkpt lat="43.00485833" lon="-1.205325">
        <ele>897.0</ele>
        <time>2019-07-31T17:42:02.145Z</time>
      </trkpt>
      <trkpt lat="43.004845" lon="-1.205325">
        <ele>896.0</ele>
        <time>2019-07-31T17:42:03.150Z</time>
      </trkpt>
      <trkpt lat="43.00483167" lon="-1.20532333">
        <ele>896.0</ele>
        <time>2019-07-31T17:42:04.157Z</time>
      </trkpt>
      <trkpt lat="43.00481833" lon="-1.20532167">
        <ele>895.0</ele>
        <time>2019-07-31T17:42:05.164Z</time>
      </trkpt>
      <trkpt lat="43.00480667" lon="-1.20532167">
        <ele>895.0</ele>
        <time>2019-07-31T17:42:06.169Z</time>
      </trkpt>
      <trkpt lat="43.00479667" lon="-1.20532333">
        <ele>895.0</ele>
        <time>2019-07-31T17:42:07.174Z</time>
      </trkpt>
      <trkpt lat="43.00478333" lon="-1.205325">
        <ele>895.0</ele>
        <time>2019-07-31T17:42:08.177Z</time>
      </trkpt>
      <trkpt lat="43.00476833" lon="-1.20532333">
        <ele>895.0</ele>
        <time>2019-07-31T17:42:09.184Z</time>
      </trkpt>
      <trkpt lat="43.00476833" lon="-1.20532333">
        <ele>895.0</ele>
        <time>2019-07-31T17:42:10.065Z</time>
      </trkpt>
      <trkpt lat="43.00475333" lon="-1.205325">
        <ele>895.0</ele>
        <time>2019-07-31T17:42:11.073Z</time>
      </trkpt>
      <trkpt lat="43.00474167" lon="-1.20532667">
        <ele>894.0</ele>
        <time>2019-07-31T17:42:12.079Z</time>
      </trkpt>
      <trkpt lat="43.00473" lon="-1.20532667">
        <ele>894.0</ele>
        <time>2019-07-31T17:42:13.084Z</time>
      </trkpt>
      <trkpt lat="43.00471167" lon="-1.20532667">
        <ele>894.0</ele>
        <time>2019-07-31T17:42:14.089Z</time>
      </trkpt>
      <trkpt lat="43.00469667" lon="-1.205325">
        <ele>895.0</ele>
        <time>2019-07-31T17:42:15.092Z</time>
      </trkpt>
      <trkpt lat="43.00467667" lon="-1.205325">
        <ele>895.0</ele>
        <time>2019-07-31T17:42:16.097Z</time>
      </trkpt>
      <trkpt lat="43.00465833" lon="-1.20532667">
        <ele>895.0</ele>
        <time>2019-07-31T17:42:17.103Z</time>
      </trkpt>
      <trkpt lat="43.00464167" lon="-1.20532667">
        <ele>896.0</ele>
        <time>2019-07-31T17:42:18.108Z</time>
      </trkpt>
      <trkpt lat="43.00462667" lon="-1.20532333">
        <ele>896.0</ele>
        <time>2019-07-31T17:42:19.111Z</time>
      </trkpt>
      <trkpt lat="43.00460833" lon="-1.20532167">
        <ele>896.0</ele>
        <time>2019-07-31T17:42:20.118Z</time>
      </trkpt>
      <trkpt lat="43.00459167" lon="-1.20531833">
        <ele>896.0</ele>
        <time>2019-07-31T17:42:21.124Z</time>
      </trkpt>
      <trkpt lat="43.00455833" lon="-1.20532">
        <ele>896.0</ele>
        <time>2019-07-31T17:42:22.128Z</time>
      </trkpt>
      <trkpt lat="43.00454167" lon="-1.20532">
        <ele>895.0</ele>
        <time>2019-07-31T17:42:23.133Z</time>
      </trkpt>
      <trkpt lat="43.00452" lon="-1.205315">
        <ele>895.0</ele>
        <time>2019-07-31T17:42:24.138Z</time>
      </trkpt>
      <trkpt lat="43.004505" lon="-1.20531667">
        <ele>895.0</ele>
        <time>2019-07-31T17:42:25.145Z</time>
      </trkpt>
      <trkpt lat="43.00448833" lon="-1.20531667">
        <ele>894.0</ele>
        <time>2019-07-31T17:42:26.150Z</time>
      </trkpt>
      <trkpt lat="43.00447333" lon="-1.20532">
        <ele>894.0</ele>
        <time>2019-07-31T17:42:27.156Z</time>
      </trkpt>
      <trkpt lat="43.00445833" lon="-1.20532">
        <ele>893.0</ele>
        <time>2019-07-31T17:42:28.160Z</time>
      </trkpt>
      <trkpt lat="43.00444" lon="-1.20531667">
        <ele>893.0</ele>
        <time>2019-07-31T17:42:29.166Z</time>
      </trkpt>
      <trkpt lat="43.00442833" lon="-1.20531667">
        <ele>893.0</ele>
        <time>2019-07-31T17:42:30.169Z</time>
      </trkpt>
      <trkpt lat="43.00441333" lon="-1.20531167">
        <ele>893.0</ele>
        <time>2019-07-31T17:42:31.173Z</time>
      </trkpt>
      <trkpt lat="43.0044" lon="-1.20531">
        <ele>892.0</ele>
        <time>2019-07-31T17:42:32.177Z</time>
      </trkpt>
      <trkpt lat="43.00438167" lon="-1.20530333">
        <ele>893.0</ele>
        <time>2019-07-31T17:42:33.184Z</time>
      </trkpt>
      <trkpt lat="43.00438167" lon="-1.20530333">
        <ele>893.0</ele>
        <time>2019-07-31T17:42:34.065Z</time>
      </trkpt>
      <trkpt lat="43.00436333" lon="-1.20529167">
        <ele>894.0</ele>
        <time>2019-07-31T17:42:35.069Z</time>
      </trkpt>
      <trkpt lat="43.00434667" lon="-1.20528">
        <ele>894.0</ele>
        <time>2019-07-31T17:42:36.074Z</time>
      </trkpt>
      <trkpt lat="43.00433167" lon="-1.205275">
        <ele>894.0</ele>
        <time>2019-07-31T17:42:37.079Z</time>
      </trkpt>
      <trkpt lat="43.00431167" lon="-1.20526833">
        <ele>893.0</ele>
        <time>2019-07-31T17:42:38.084Z</time>
      </trkpt>
      <trkpt lat="43.00429667" lon="-1.205265">
        <ele>893.0</ele>
        <time>2019-07-31T17:42:39.090Z</time>
      </trkpt>
      <trkpt lat="43.00429" lon="-1.20526667">
        <ele>891.0</ele>
        <time>2019-07-31T17:42:40.094Z</time>
      </trkpt>
      <trkpt lat="43.00428" lon="-1.20526333">
        <ele>890.0</ele>
        <time>2019-07-31T17:42:41.097Z</time>
      </trkpt>
      <trkpt lat="43.00426333" lon="-1.20525667">
        <ele>890.0</ele>
        <time>2019-07-31T17:42:42.103Z</time>
      </trkpt>
      <trkpt lat="43.004255" lon="-1.20525333">
        <ele>889.0</ele>
        <time>2019-07-31T17:42:43.109Z</time>
      </trkpt>
      <trkpt lat="43.00424333" lon="-1.20525">
        <ele>888.0</ele>
        <time>2019-07-31T17:42:44.116Z</time>
      </trkpt>
      <trkpt lat="43.00423167" lon="-1.20524333">
        <ele>888.0</ele>
        <time>2019-07-31T17:42:45.121Z</time>
      </trkpt>
      <trkpt lat="43.00420833" lon="-1.20523167">
        <ele>887.0</ele>
        <time>2019-07-31T17:42:46.127Z</time>
      </trkpt>
      <trkpt lat="43.00419667" lon="-1.205225">
        <ele>887.0</ele>
        <time>2019-07-31T17:42:47.131Z</time>
      </trkpt>
      <trkpt lat="43.00418333" lon="-1.20522">
        <ele>887.0</ele>
        <time>2019-07-31T17:42:48.136Z</time>
      </trkpt>
      <trkpt lat="43.00416833" lon="-1.20521333">
        <ele>887.0</ele>
        <time>2019-07-31T17:42:49.141Z</time>
      </trkpt>
      <trkpt lat="43.004155" lon="-1.20520333">
        <ele>887.0</ele>
        <time>2019-07-31T17:42:50.146Z</time>
      </trkpt>
      <trkpt lat="43.00414333" lon="-1.20519833">
        <ele>887.0</ele>
        <time>2019-07-31T17:42:51.151Z</time>
      </trkpt>
      <trkpt lat="43.00413167" lon="-1.20519333">
        <ele>887.0</ele>
        <time>2019-07-31T17:42:52.157Z</time>
      </trkpt>
      <trkpt lat="43.00411667" lon="-1.20518833">
        <ele>886.0</ele>
        <time>2019-07-31T17:42:53.163Z</time>
      </trkpt>
      <trkpt lat="43.00410333" lon="-1.20518167">
        <ele>886.0</ele>
        <time>2019-07-31T17:42:54.169Z</time>
      </trkpt>
      <trkpt lat="43.00409167" lon="-1.205175">
        <ele>886.0</ele>
        <time>2019-07-31T17:42:55.175Z</time>
      </trkpt>
      <trkpt lat="43.00408333" lon="-1.20516833">
        <ele>886.0</ele>
        <time>2019-07-31T17:42:56.180Z</time>
      </trkpt>
      <trkpt lat="43.00407" lon="-1.20516167">
        <ele>885.0</ele>
        <time>2019-07-31T17:42:57.186Z</time>
      </trkpt>
      <trkpt lat="43.00407" lon="-1.20516167">
        <ele>885.0</ele>
        <time>2019-07-31T17:42:58.067Z</time>
      </trkpt>
      <trkpt lat="43.00405167" lon="-1.20516">
        <ele>884.0</ele>
        <time>2019-07-31T17:42:59.073Z</time>
      </trkpt>
      <trkpt lat="43.00403833" lon="-1.20516">
        <ele>884.0</ele>
        <time>2019-07-31T17:43:00.079Z</time>
      </trkpt>
      <trkpt lat="43.004025" lon="-1.20516">
        <ele>884.0</ele>
        <time>2019-07-31T17:43:01.083Z</time>
      </trkpt>
      <trkpt lat="43.00401667" lon="-1.20515833">
        <ele>884.0</ele>
        <time>2019-07-31T17:43:02.088Z</time>
      </trkpt>
      <trkpt lat="43.00400167" lon="-1.20515333">
        <ele>884.0</ele>
        <time>2019-07-31T17:43:03.093Z</time>
      </trkpt>
      <trkpt lat="43.00399" lon="-1.20515">
        <ele>884.0</ele>
        <time>2019-07-31T17:43:04.096Z</time>
      </trkpt>
      <trkpt lat="43.00397833" lon="-1.20515167">
        <ele>883.0</ele>
        <time>2019-07-31T17:43:05.099Z</time>
      </trkpt>
      <trkpt lat="43.003965" lon="-1.20514833">
        <ele>883.0</ele>
        <time>2019-07-31T17:43:06.104Z</time>
      </trkpt>
      <trkpt lat="43.00394833" lon="-1.20514833">
        <ele>883.0</ele>
        <time>2019-07-31T17:43:07.109Z</time>
      </trkpt>
      <trkpt lat="43.00393" lon="-1.20514167">
        <ele>883.0</ele>
        <time>2019-07-31T17:43:08.113Z</time>
      </trkpt>
      <trkpt lat="43.00391167" lon="-1.20513833">
        <ele>884.0</ele>
        <time>2019-07-31T17:43:09.116Z</time>
      </trkpt>
      <trkpt lat="43.00389167" lon="-1.205135">
        <ele>884.0</ele>
        <time>2019-07-31T17:43:10.121Z</time>
      </trkpt>
      <trkpt lat="43.00387833" lon="-1.20513667">
        <ele>884.0</ele>
        <time>2019-07-31T17:43:11.127Z</time>
      </trkpt>
      <trkpt lat="43.00385" lon="-1.20513333">
        <ele>884.0</ele>
        <time>2019-07-31T17:43:12.133Z</time>
      </trkpt>
      <trkpt lat="43.00383" lon="-1.20513167">
        <ele>883.0</ele>
        <time>2019-07-31T17:43:13.138Z</time>
      </trkpt>
      <trkpt lat="43.00382" lon="-1.20513833">
        <ele>883.0</ele>
        <time>2019-07-31T17:43:14.143Z</time>
      </trkpt>
      <trkpt lat="43.00380333" lon="-1.20514333">
        <ele>882.0</ele>
        <time>2019-07-31T17:43:15.151Z</time>
      </trkpt>
      <trkpt lat="43.003775" lon="-1.20513833">
        <ele>882.0</ele>
        <time>2019-07-31T17:43:16.155Z</time>
      </trkpt>
      <trkpt lat="43.003755" lon="-1.20513667">
        <ele>882.0</ele>
        <time>2019-07-31T17:43:17.160Z</time>
      </trkpt>
      <trkpt lat="43.00374" lon="-1.20514">
        <ele>881.0</ele>
        <time>2019-07-31T17:43:18.166Z</time>
      </trkpt>
      <trkpt lat="43.00372167" lon="-1.20514167">
        <ele>881.0</ele>
        <time>2019-07-31T17:43:19.174Z</time>
      </trkpt>
      <trkpt lat="43.00370833" lon="-1.20514167">
        <ele>881.0</ele>
        <time>2019-07-31T17:43:20.179Z</time>
      </trkpt>
      <trkpt lat="43.003685" lon="-1.20514167">
        <ele>880.0</ele>
        <time>2019-07-31T17:43:21.185Z</time>
      </trkpt>
      <trkpt lat="43.003685" lon="-1.20514167">
        <ele>880.0</ele>
        <time>2019-07-31T17:43:22.067Z</time>
      </trkpt>
      <trkpt lat="43.00367333" lon="-1.205145">
        <ele>880.0</ele>
        <time>2019-07-31T17:43:23.074Z</time>
      </trkpt>
      <trkpt lat="43.00365833" lon="-1.20514333">
        <ele>879.0</ele>
        <time>2019-07-31T17:43:24.081Z</time>
      </trkpt>
      <trkpt lat="43.00364667" lon="-1.20514333">
        <ele>879.0</ele>
        <time>2019-07-31T17:43:25.089Z</time>
      </trkpt>
      <trkpt lat="43.003635" lon="-1.20514167">
        <ele>879.0</ele>
        <time>2019-07-31T17:43:26.094Z</time>
      </trkpt>
      <trkpt lat="43.00361833" lon="-1.20514">
        <ele>880.0</ele>
        <time>2019-07-31T17:43:27.098Z</time>
      </trkpt>
      <trkpt lat="43.00360833" lon="-1.20513833">
        <ele>880.0</ele>
        <time>2019-07-31T17:43:28.104Z</time>
      </trkpt>
      <trkpt lat="43.0036" lon="-1.20513667">
        <ele>880.0</ele>
        <time>2019-07-31T17:43:29.109Z</time>
      </trkpt>
      <trkpt lat="43.00359167" lon="-1.20513667">
        <ele>880.0</ele>
        <time>2019-07-31T17:43:30.117Z</time>
      </trkpt>
      <trkpt lat="43.00357833" lon="-1.20513833">
        <ele>880.0</ele>
        <time>2019-07-31T17:43:31.123Z</time>
      </trkpt>
      <trkpt lat="43.003565" lon="-1.20513667">
        <ele>880.0</ele>
        <time>2019-07-31T17:43:32.129Z</time>
      </trkpt>
      <trkpt lat="43.00354333" lon="-1.20514">
        <ele>880.0</ele>
        <time>2019-07-31T17:43:33.133Z</time>
      </trkpt>
      <trkpt lat="43.00352667" lon="-1.20514">
        <ele>881.0</ele>
        <time>2019-07-31T17:43:34.137Z</time>
      </trkpt>
      <trkpt lat="43.00350833" lon="-1.20513667">
        <ele>882.0</ele>
        <time>2019-07-31T17:43:35.143Z</time>
      </trkpt>
      <trkpt lat="43.00349333" lon="-1.20514">
        <ele>881.0</ele>
        <time>2019-07-31T17:43:36.148Z</time>
      </trkpt>
      <trkpt lat="43.00347667" lon="-1.20514167">
        <ele>881.0</ele>
        <time>2019-07-31T17:43:37.156Z</time>
      </trkpt>
      <trkpt lat="43.00346" lon="-1.20514">
        <ele>881.0</ele>
        <time>2019-07-31T17:43:38.162Z</time>
      </trkpt>
      <trkpt lat="43.003445" lon="-1.20514">
        <ele>881.0</ele>
        <time>2019-07-31T17:43:39.170Z</time>
      </trkpt>
      <trkpt lat="43.00343167" lon="-1.20514333">
        <ele>880.0</ele>
        <time>2019-07-31T17:43:40.177Z</time>
      </trkpt>
      <trkpt lat="43.003415" lon="-1.20514167">
        <ele>880.0</ele>
        <time>2019-07-31T17:43:41.182Z</time>
      </trkpt>
      <trkpt lat="43.003415" lon="-1.20514167">
        <ele>880.0</ele>
        <time>2019-07-31T17:43:42.063Z</time>
      </trkpt>
      <trkpt lat="43.00339833" lon="-1.20513833">
        <ele>881.0</ele>
        <time>2019-07-31T17:43:43.069Z</time>
      </trkpt>
      <trkpt lat="43.00338667" lon="-1.205135">
        <ele>881.0</ele>
        <time>2019-07-31T17:43:44.075Z</time>
      </trkpt>
      <trkpt lat="43.00337167" lon="-1.20513333">
        <ele>881.0</ele>
        <time>2019-07-31T17:43:45.081Z</time>
      </trkpt>
      <trkpt lat="43.00335667" lon="-1.20513">
        <ele>881.0</ele>
        <time>2019-07-31T17:43:46.086Z</time>
      </trkpt>
      <trkpt lat="43.00334333" lon="-1.20513">
        <ele>881.0</ele>
        <time>2019-07-31T17:43:47.092Z</time>
      </trkpt>
      <trkpt lat="43.003325" lon="-1.20513">
        <ele>881.0</ele>
        <time>2019-07-31T17:43:48.097Z</time>
      </trkpt>
      <trkpt lat="43.00331333" lon="-1.20513167">
        <ele>881.0</ele>
        <time>2019-07-31T17:43:49.102Z</time>
      </trkpt>
      <trkpt lat="43.00329667" lon="-1.20513167">
        <ele>881.0</ele>
        <time>2019-07-31T17:43:50.108Z</time>
      </trkpt>
      <trkpt lat="43.00327667" lon="-1.205125">
        <ele>882.0</ele>
        <time>2019-07-31T17:43:51.114Z</time>
      </trkpt>
      <trkpt lat="43.00326167" lon="-1.20512667">
        <ele>882.0</ele>
        <time>2019-07-31T17:43:52.119Z</time>
      </trkpt>
      <trkpt lat="43.003245" lon="-1.20512667">
        <ele>881.0</ele>
        <time>2019-07-31T17:43:53.123Z</time>
      </trkpt>
      <trkpt lat="43.00323333" lon="-1.20513">
        <ele>881.0</ele>
        <time>2019-07-31T17:43:54.128Z</time>
      </trkpt>
      <trkpt lat="43.00320333" lon="-1.20512667">
        <ele>881.0</ele>
        <time>2019-07-31T17:43:55.133Z</time>
      </trkpt>
      <trkpt lat="43.00318333" lon="-1.20512667">
        <ele>881.0</ele>
        <time>2019-07-31T17:43:56.137Z</time>
      </trkpt>
      <trkpt lat="43.00317" lon="-1.205125">
        <ele>881.0</ele>
        <time>2019-07-31T17:43:57.143Z</time>
      </trkpt>
      <trkpt lat="43.003155" lon="-1.20512">
        <ele>881.0</ele>
        <time>2019-07-31T17:43:58.149Z</time>
      </trkpt>
      <trkpt lat="43.00313833" lon="-1.20512">
        <ele>881.0</ele>
        <time>2019-07-31T17:43:59.151Z</time>
      </trkpt>
      <trkpt lat="43.00312333" lon="-1.20511833">
        <ele>881.0</ele>
        <time>2019-07-31T17:44:00.158Z</time>
      </trkpt>
      <trkpt lat="43.00311" lon="-1.20511833">
        <ele>880.0</ele>
        <time>2019-07-31T17:44:01.164Z</time>
      </trkpt>
      <trkpt lat="43.00309333" lon="-1.20511667">
        <ele>880.0</ele>
        <time>2019-07-31T17:44:02.167Z</time>
      </trkpt>
      <trkpt lat="43.00308333" lon="-1.20512167">
        <ele>879.0</ele>
        <time>2019-07-31T17:44:03.173Z</time>
      </trkpt>
      <trkpt lat="43.00307" lon="-1.20513">
        <ele>879.0</ele>
        <time>2019-07-31T17:44:04.174Z</time>
      </trkpt>
      <trkpt lat="43.003055" lon="-1.20513167">
        <ele>879.0</ele>
        <time>2019-07-31T17:44:05.177Z</time>
      </trkpt>
      <trkpt lat="43.00304" lon="-1.20513167">
        <ele>879.0</ele>
        <time>2019-07-31T17:44:06.183Z</time>
      </trkpt>
      <trkpt lat="43.00304" lon="-1.20513167">
        <ele>879.0</ele>
        <time>2019-07-31T17:44:07.064Z</time>
      </trkpt>
      <trkpt lat="43.00302833" lon="-1.20513">
        <ele>879.0</ele>
        <time>2019-07-31T17:44:08.072Z</time>
      </trkpt>
      <trkpt lat="43.003015" lon="-1.205135">
        <ele>878.0</ele>
        <time>2019-07-31T17:44:09.078Z</time>
      </trkpt>
      <trkpt lat="43.00299667" lon="-1.20513667">
        <ele>878.0</ele>
        <time>2019-07-31T17:44:10.083Z</time>
      </trkpt>
      <trkpt lat="43.002985" lon="-1.20513333">
        <ele>877.0</ele>
        <time>2019-07-31T17:44:11.087Z</time>
      </trkpt>
      <trkpt lat="43.00297" lon="-1.205135">
        <ele>877.0</ele>
        <time>2019-07-31T17:44:12.091Z</time>
      </trkpt>
      <trkpt lat="43.00295667" lon="-1.205135">
        <ele>877.0</ele>
        <time>2019-07-31T17:44:13.095Z</time>
      </trkpt>
      <trkpt lat="43.00294333" lon="-1.20513667">
        <ele>876.0</ele>
        <time>2019-07-31T17:44:14.102Z</time>
      </trkpt>
      <trkpt lat="43.00292333" lon="-1.20513167">
        <ele>876.0</ele>
        <time>2019-07-31T17:44:15.107Z</time>
      </trkpt>
      <trkpt lat="43.00290667" lon="-1.20513">
        <ele>876.0</ele>
        <time>2019-07-31T17:44:16.113Z</time>
      </trkpt>
      <trkpt lat="43.00289167" lon="-1.20512833">
        <ele>876.0</ele>
        <time>2019-07-31T17:44:17.116Z</time>
      </trkpt>
      <trkpt lat="43.00288" lon="-1.20512833">
        <ele>876.0</ele>
        <time>2019-07-31T17:44:18.124Z</time>
      </trkpt>
      <trkpt lat="43.00286333" lon="-1.20513">
        <ele>875.0</ele>
        <time>2019-07-31T17:44:19.129Z</time>
      </trkpt>
      <trkpt lat="43.00283833" lon="-1.20513">
        <ele>875.0</ele>
        <time>2019-07-31T17:44:20.133Z</time>
      </trkpt>
      <trkpt lat="43.00282333" lon="-1.20513167">
        <ele>874.0</ele>
        <time>2019-07-31T17:44:21.136Z</time>
      </trkpt>
      <trkpt lat="43.00281167" lon="-1.20513167">
        <ele>874.0</ele>
        <time>2019-07-31T17:44:22.141Z</time>
      </trkpt>
      <trkpt lat="43.002795" lon="-1.20513">
        <ele>874.0</ele>
        <time>2019-07-31T17:44:23.149Z</time>
      </trkpt>
      <trkpt lat="43.002785" lon="-1.20513">
        <ele>873.0</ele>
        <time>2019-07-31T17:44:24.156Z</time>
      </trkpt>
      <trkpt lat="43.00276667" lon="-1.205125">
        <ele>874.0</ele>
        <time>2019-07-31T17:44:25.163Z</time>
      </trkpt>
      <trkpt lat="43.00275667" lon="-1.205125">
        <ele>873.0</ele>
        <time>2019-07-31T17:44:26.167Z</time>
      </trkpt>
      <trkpt lat="43.002745" lon="-1.20512167">
        <ele>873.0</ele>
        <time>2019-07-31T17:44:27.173Z</time>
      </trkpt>
      <trkpt lat="43.00272833" lon="-1.20512167">
        <ele>872.0</ele>
        <time>2019-07-31T17:44:28.177Z</time>
      </trkpt>
      <trkpt lat="43.002715" lon="-1.20512">
        <ele>872.0</ele>
        <time>2019-07-31T17:44:29.183Z</time>
      </trkpt>
      <trkpt lat="43.002715" lon="-1.20512">
        <ele>872.0</ele>
        <time>2019-07-31T17:44:30.064Z</time>
      </trkpt>
      <trkpt lat="43.002705" lon="-1.20512167">
        <ele>871.0</ele>
        <time>2019-07-31T17:44:31.070Z</time>
      </trkpt>
      <trkpt lat="43.002695" lon="-1.20512167">
        <ele>870.0</ele>
        <time>2019-07-31T17:44:32.076Z</time>
      </trkpt>
      <trkpt lat="43.00268167" lon="-1.20512">
        <ele>870.0</ele>
        <time>2019-07-31T17:44:33.082Z</time>
      </trkpt>
      <trkpt lat="43.00267" lon="-1.20512167">
        <ele>868.0</ele>
        <time>2019-07-31T17:44:34.088Z</time>
      </trkpt>
      <trkpt lat="43.002655" lon="-1.20512">
        <ele>867.0</ele>
        <time>2019-07-31T17:44:35.092Z</time>
      </trkpt>
      <trkpt lat="43.002645" lon="-1.20512">
        <ele>866.0</ele>
        <time>2019-07-31T17:44:36.096Z</time>
      </trkpt>
      <trkpt lat="43.00263167" lon="-1.20511667">
        <ele>866.0</ele>
        <time>2019-07-31T17:44:37.102Z</time>
      </trkpt>
      <trkpt lat="43.00262" lon="-1.20511167">
        <ele>866.0</ele>
        <time>2019-07-31T17:44:38.108Z</time>
      </trkpt>
      <trkpt lat="43.00260833" lon="-1.205105">
        <ele>866.0</ele>
        <time>2019-07-31T17:44:39.114Z</time>
      </trkpt>
      <trkpt lat="43.00259833" lon="-1.20509833">
        <ele>865.0</ele>
        <time>2019-07-31T17:44:40.120Z</time>
      </trkpt>
      <trkpt lat="43.002585" lon="-1.20509167">
        <ele>865.0</ele>
        <time>2019-07-31T17:44:41.126Z</time>
      </trkpt>
      <trkpt lat="43.00256667" lon="-1.20507833">
        <ele>864.0</ele>
        <time>2019-07-31T17:44:42.132Z</time>
      </trkpt>
      <trkpt lat="43.00255667" lon="-1.20507">
        <ele>864.0</ele>
        <time>2019-07-31T17:44:43.135Z</time>
      </trkpt>
      <trkpt lat="43.00254167" lon="-1.20506333">
        <ele>863.0</ele>
        <time>2019-07-31T17:44:44.142Z</time>
      </trkpt>
      <trkpt lat="43.00253" lon="-1.20505833">
        <ele>863.0</ele>
        <time>2019-07-31T17:44:45.149Z</time>
      </trkpt>
      <trkpt lat="43.00251833" lon="-1.20505333">
        <ele>863.0</ele>
        <time>2019-07-31T17:44:46.155Z</time>
      </trkpt>
      <trkpt lat="43.00250333" lon="-1.20505167">
        <ele>862.0</ele>
        <time>2019-07-31T17:44:47.161Z</time>
      </trkpt>
      <trkpt lat="43.00249167" lon="-1.20505167">
        <ele>861.0</ele>
        <time>2019-07-31T17:44:48.164Z</time>
      </trkpt>
      <trkpt lat="43.00248" lon="-1.20505333">
        <ele>860.0</ele>
        <time>2019-07-31T17:44:49.169Z</time>
      </trkpt>
      <trkpt lat="43.00246833" lon="-1.20505333">
        <ele>860.0</ele>
        <time>2019-07-31T17:44:50.174Z</time>
      </trkpt>
      <trkpt lat="43.002455" lon="-1.20505333">
        <ele>859.0</ele>
        <time>2019-07-31T17:44:51.178Z</time>
      </trkpt>
      <trkpt lat="43.00243833" lon="-1.20505333">
        <ele>860.0</ele>
        <time>2019-07-31T17:44:52.184Z</time>
      </trkpt>
      <trkpt lat="43.00243833" lon="-1.20505333">
        <ele>860.0</ele>
        <time>2019-07-31T17:44:53.065Z</time>
      </trkpt>
      <trkpt lat="43.00242667" lon="-1.20505333">
        <ele>859.0</ele>
        <time>2019-07-31T17:44:54.072Z</time>
      </trkpt>
      <trkpt lat="43.002415" lon="-1.20505667">
        <ele>859.0</ele>
        <time>2019-07-31T17:44:55.077Z</time>
      </trkpt>
      <trkpt lat="43.002405" lon="-1.20505833">
        <ele>859.0</ele>
        <time>2019-07-31T17:44:56.083Z</time>
      </trkpt>
      <trkpt lat="43.00239833" lon="-1.20506">
        <ele>858.0</ele>
        <time>2019-07-31T17:44:57.088Z</time>
      </trkpt>
      <trkpt lat="43.00239167" lon="-1.20506">
        <ele>857.0</ele>
        <time>2019-07-31T17:44:58.092Z</time>
      </trkpt>
      <trkpt lat="43.002385" lon="-1.20505833">
        <ele>857.0</ele>
        <time>2019-07-31T17:44:59.096Z</time>
      </trkpt>
      <trkpt lat="43.00238" lon="-1.20505667">
        <ele>857.0</ele>
        <time>2019-07-31T17:45:00.101Z</time>
      </trkpt>
      <trkpt lat="43.00238" lon="-1.205055">
        <ele>857.0</ele>
        <time>2019-07-31T17:45:01.108Z</time>
      </trkpt>
      <trkpt lat="43.00238167" lon="-1.20505667">
        <ele>857.0</ele>
        <time>2019-07-31T17:45:02.112Z</time>
      </trkpt>
      <trkpt lat="43.00238667" lon="-1.20505667">
        <ele>857.0</ele>
        <time>2019-07-31T17:45:03.118Z</time>
      </trkpt>
      <trkpt lat="43.00239" lon="-1.20505667">
        <ele>858.0</ele>
        <time>2019-07-31T17:45:04.123Z</time>
      </trkpt>
      <trkpt lat="43.00239333" lon="-1.20505667">
        <ele>857.0</ele>
        <time>2019-07-31T17:45:05.129Z</time>
      </trkpt>
      <trkpt lat="43.00239667" lon="-1.20505833">
        <ele>858.0</ele>
        <time>2019-07-31T17:45:06.133Z</time>
      </trkpt>
      <trkpt lat="43.00239667" lon="-1.20505667">
        <ele>858.0</ele>
        <time>2019-07-31T17:45:07.137Z</time>
      </trkpt>
      <trkpt lat="43.00239333" lon="-1.20505833">
        <ele>859.0</ele>
        <time>2019-07-31T17:45:08.144Z</time>
      </trkpt>
      <trkpt lat="43.00238667" lon="-1.20505667">
        <ele>860.0</ele>
        <time>2019-07-31T17:45:09.152Z</time>
      </trkpt>
      <trkpt lat="43.00238167" lon="-1.205055">
        <ele>862.0</ele>
        <time>2019-07-31T17:45:10.159Z</time>
      </trkpt>
      <trkpt lat="43.00237833" lon="-1.20505333">
        <ele>863.0</ele>
        <time>2019-07-31T17:45:11.161Z</time>
      </trkpt>
      <trkpt lat="43.00237333" lon="-1.20505167">
        <ele>863.0</ele>
        <time>2019-07-31T17:45:12.168Z</time>
      </trkpt>
      <trkpt lat="43.00237167" lon="-1.20504833">
        <ele>863.0</ele>
        <time>2019-07-31T17:45:13.173Z</time>
      </trkpt>
      <trkpt lat="43.00237" lon="-1.205045">
        <ele>863.0</ele>
        <time>2019-07-31T17:45:14.177Z</time>
      </trkpt>
      <trkpt lat="43.00236667" lon="-1.20504333">
        <ele>863.0</ele>
        <time>2019-07-31T17:45:15.182Z</time>
      </trkpt>
      <trkpt lat="43.00236667" lon="-1.20504333">
        <ele>863.0</ele>
        <time>2019-07-31T17:45:16.063Z</time>
      </trkpt>
      <trkpt lat="43.00236667" lon="-1.20505">
        <ele>863.0</ele>
        <time>2019-07-31T17:45:17.068Z</time>
      </trkpt>
      <trkpt lat="43.00236667" lon="-1.20505667">
        <ele>863.0</ele>
        <time>2019-07-31T17:45:18.074Z</time>
      </trkpt>
      <trkpt lat="43.00237" lon="-1.20506167">
        <ele>863.0</ele>
        <time>2019-07-31T17:45:19.081Z</time>
      </trkpt>
      <trkpt lat="43.002375" lon="-1.20506667">
        <ele>863.0</ele>
        <time>2019-07-31T17:45:20.087Z</time>
      </trkpt>
      <trkpt lat="43.00237833" lon="-1.20507">
        <ele>863.0</ele>
        <time>2019-07-31T17:45:21.091Z</time>
      </trkpt>
      <trkpt lat="43.00237667" lon="-1.20507333">
        <ele>863.0</ele>
        <time>2019-07-31T17:45:22.094Z</time>
      </trkpt>
      <trkpt lat="43.002375" lon="-1.20507667">
        <ele>862.0</ele>
        <time>2019-07-31T17:45:23.099Z</time>
      </trkpt>
      <trkpt lat="43.002375" lon="-1.20508">
        <ele>862.0</ele>
        <time>2019-07-31T17:45:24.103Z</time>
      </trkpt>
      <trkpt lat="43.00237167" lon="-1.20508167">
        <ele>862.0</ele>
        <time>2019-07-31T17:45:25.110Z</time>
      </trkpt>
      <trkpt lat="43.00236333" lon="-1.20508">
        <ele>862.0</ele>
        <time>2019-07-31T17:45:26.114Z</time>
      </trkpt>
      <trkpt lat="43.00235333" lon="-1.20507833">
        <ele>861.0</ele>
        <time>2019-07-31T17:45:27.120Z</time>
      </trkpt>
      <trkpt lat="43.002345" lon="-1.20507667">
        <ele>861.0</ele>
        <time>2019-07-31T17:45:28.125Z</time>
      </trkpt>
      <trkpt lat="43.00232333" lon="-1.205075">
        <ele>861.0</ele>
        <time>2019-07-31T17:45:29.131Z</time>
      </trkpt>
      <trkpt lat="43.00230833" lon="-1.20507667">
        <ele>860.0</ele>
        <time>2019-07-31T17:45:30.135Z</time>
      </trkpt>
      <trkpt lat="43.00229167" lon="-1.205075">
        <ele>861.0</ele>
        <time>2019-07-31T17:45:31.140Z</time>
      </trkpt>
      <trkpt lat="43.00227833" lon="-1.20507333">
        <ele>861.0</ele>
        <time>2019-07-31T17:45:32.146Z</time>
      </trkpt>
      <trkpt lat="43.00226333" lon="-1.205075">
        <ele>862.0</ele>
        <time>2019-07-31T17:45:33.149Z</time>
      </trkpt>
      <trkpt lat="43.00224833" lon="-1.20508333">
        <ele>862.0</ele>
        <time>2019-07-31T17:45:34.154Z</time>
      </trkpt>
      <trkpt lat="43.00223667" lon="-1.20508833">
        <ele>862.0</ele>
        <time>2019-07-31T17:45:35.159Z</time>
      </trkpt>
      <trkpt lat="43.00222333" lon="-1.20509167">
        <ele>862.0</ele>
        <time>2019-07-31T17:45:36.166Z</time>
      </trkpt>
      <trkpt lat="43.00221" lon="-1.205095">
        <ele>862.0</ele>
        <time>2019-07-31T17:45:37.171Z</time>
      </trkpt>
      <trkpt lat="43.00219833" lon="-1.20510167">
        <ele>861.0</ele>
        <time>2019-07-31T17:45:38.176Z</time>
      </trkpt>
      <trkpt lat="43.00218667" lon="-1.205105">
        <ele>861.0</ele>
        <time>2019-07-31T17:45:39.184Z</time>
      </trkpt>
      <trkpt lat="43.00218667" lon="-1.205105">
        <ele>861.0</ele>
        <time>2019-07-31T17:45:40.064Z</time>
      </trkpt>
      <trkpt lat="43.00217333" lon="-1.20511">
        <ele>860.0</ele>
        <time>2019-07-31T17:45:41.069Z</time>
      </trkpt>
      <trkpt lat="43.00216" lon="-1.20511167">
        <ele>859.0</ele>
        <time>2019-07-31T17:45:42.075Z</time>
      </trkpt>
      <trkpt lat="43.00214667" lon="-1.20511167">
        <ele>859.0</ele>
        <time>2019-07-31T17:45:43.079Z</time>
      </trkpt>
      <trkpt lat="43.00213333" lon="-1.20511167">
        <ele>859.0</ele>
        <time>2019-07-31T17:45:44.083Z</time>
      </trkpt>
      <trkpt lat="43.00212" lon="-1.20511167">
        <ele>859.0</ele>
        <time>2019-07-31T17:45:45.086Z</time>
      </trkpt>
      <trkpt lat="43.00210833" lon="-1.20511333">
        <ele>859.0</ele>
        <time>2019-07-31T17:45:46.090Z</time>
      </trkpt>
      <trkpt lat="43.00209667" lon="-1.20511833">
        <ele>858.0</ele>
        <time>2019-07-31T17:45:47.094Z</time>
      </trkpt>
      <trkpt lat="43.00209" lon="-1.20511833">
        <ele>858.0</ele>
        <time>2019-07-31T17:45:48.098Z</time>
      </trkpt>
      <trkpt lat="43.00208667" lon="-1.20512167">
        <ele>858.0</ele>
        <time>2019-07-31T17:45:49.104Z</time>
      </trkpt>
      <trkpt lat="43.00208167" lon="-1.20512167">
        <ele>858.0</ele>
        <time>2019-07-31T17:45:50.110Z</time>
      </trkpt>
      <trkpt lat="43.00208" lon="-1.20512167">
        <ele>859.0</ele>
        <time>2019-07-31T17:45:51.118Z</time>
      </trkpt>
      <trkpt lat="43.00208167" lon="-1.20512167">
        <ele>859.0</ele>
        <time>2019-07-31T17:45:52.123Z</time>
      </trkpt>
      <trkpt lat="43.002085" lon="-1.20512167">
        <ele>859.0</ele>
        <time>2019-07-31T17:45:53.130Z</time>
      </trkpt>
      <trkpt lat="43.00208667" lon="-1.20512167">
        <ele>858.0</ele>
        <time>2019-07-31T17:45:54.133Z</time>
      </trkpt>
      <trkpt lat="43.00208667" lon="-1.20512">
        <ele>858.0</ele>
        <time>2019-07-31T17:45:55.139Z</time>
      </trkpt>
      <trkpt lat="43.00208667" lon="-1.20511833">
        <ele>859.0</ele>
        <time>2019-07-31T17:45:56.144Z</time>
      </trkpt>
      <trkpt lat="43.00208833" lon="-1.20512">
        <ele>858.0</ele>
        <time>2019-07-31T17:45:57.149Z</time>
      </trkpt>
      <trkpt lat="43.00208833" lon="-1.20512167">
        <ele>858.0</ele>
        <time>2019-07-31T17:45:58.155Z</time>
      </trkpt>
      <trkpt lat="43.00209" lon="-1.20512333">
        <ele>858.0</ele>
        <time>2019-07-31T17:45:59.162Z</time>
      </trkpt>
      <trkpt lat="43.00209" lon="-1.20512167">
        <ele>858.0</ele>
        <time>2019-07-31T17:46:00.169Z</time>
      </trkpt>
      <trkpt lat="43.00209" lon="-1.20512167">
        <ele>858.0</ele>
        <time>2019-07-31T17:46:01.175Z</time>
      </trkpt>
      <trkpt lat="43.00209167" lon="-1.20512167">
        <ele>858.0</ele>
        <time>2019-07-31T17:46:02.180Z</time>
      </trkpt>
      <trkpt lat="43.00209167" lon="-1.20512167">
        <ele>858.0</ele>
        <time>2019-07-31T17:46:03.186Z</time>
      </trkpt>
      <trkpt lat="43.00209167" lon="-1.20512167">
        <ele>858.0</ele>
        <time>2019-07-31T17:46:04.066Z</time>
      </trkpt>
      <trkpt lat="43.00209333" lon="-1.20512333">
        <ele>858.0</ele>
        <time>2019-07-31T17:46:05.073Z</time>
      </trkpt>
      <trkpt lat="43.00209333" lon="-1.20512333">
        <ele>857.0</ele>
        <time>2019-07-31T17:46:06.077Z</time>
      </trkpt>
      <trkpt lat="43.002095" lon="-1.205125">
        <ele>857.0</ele>
        <time>2019-07-31T17:46:07.081Z</time>
      </trkpt>
      <trkpt lat="43.002095" lon="-1.205125">
        <ele>857.0</ele>
        <time>2019-07-31T17:46:08.086Z</time>
      </trkpt>
      <trkpt lat="43.002095" lon="-1.20512667">
        <ele>857.0</ele>
        <time>2019-07-31T17:46:09.091Z</time>
      </trkpt>
      <trkpt lat="43.00209667" lon="-1.205125">
        <ele>857.0</ele>
        <time>2019-07-31T17:46:10.096Z</time>
      </trkpt>
      <trkpt lat="43.00209667" lon="-1.205125">
        <ele>857.0</ele>
        <time>2019-07-31T17:46:11.103Z</time>
      </trkpt>
      <trkpt lat="43.00209667" lon="-1.205125">
        <ele>857.0</ele>
        <time>2019-07-31T17:46:12.109Z</time>
      </trkpt>
      <trkpt lat="43.00209833" lon="-1.20512667">
        <ele>856.0</ele>
        <time>2019-07-31T17:46:13.113Z</time>
      </trkpt>
      <trkpt lat="43.0021" lon="-1.20513">
        <ele>856.0</ele>
        <time>2019-07-31T17:46:14.118Z</time>
      </trkpt>
      <trkpt lat="43.0021" lon="-1.20513">
        <ele>856.0</ele>
        <time>2019-07-31T17:46:15.120Z</time>
      </trkpt>
      <trkpt lat="43.0021" lon="-1.20513">
        <ele>856.0</ele>
        <time>2019-07-31T17:46:16.125Z</time>
      </trkpt>
      <trkpt lat="43.00210333" lon="-1.20513333">
        <ele>857.0</ele>
        <time>2019-07-31T17:46:17.131Z</time>
      </trkpt>
      <trkpt lat="43.00210167" lon="-1.205135">
        <ele>857.0</ele>
        <time>2019-07-31T17:46:18.134Z</time>
      </trkpt>
      <trkpt lat="43.00210167" lon="-1.20513333">
        <ele>858.0</ele>
        <time>2019-07-31T17:46:19.141Z</time>
      </trkpt>
      <trkpt lat="43.0021" lon="-1.20513167">
        <ele>858.0</ele>
        <time>2019-07-31T17:46:20.146Z</time>
      </trkpt>
      <trkpt lat="43.00209833" lon="-1.20513">
        <ele>859.0</ele>
        <time>2019-07-31T17:46:21.153Z</time>
      </trkpt>
      <trkpt lat="43.00209667" lon="-1.20512833">
        <ele>859.0</ele>
        <time>2019-07-31T17:46:22.159Z</time>
      </trkpt>
      <trkpt lat="43.002095" lon="-1.20512667">
        <ele>859.0</ele>
        <time>2019-07-31T17:46:23.166Z</time>
      </trkpt>
      <trkpt lat="43.00209333" lon="-1.20512333">
        <ele>860.0</ele>
        <time>2019-07-31T17:46:24.174Z</time>
      </trkpt>
      <trkpt lat="43.00209333" lon="-1.20512333">
        <ele>860.0</ele>
        <time>2019-07-31T17:46:25.179Z</time>
      </trkpt>
      <trkpt lat="43.00209333" lon="-1.20512167">
        <ele>860.0</ele>
        <time>2019-07-31T17:46:26.183Z</time>
      </trkpt>
      <trkpt lat="43.00209333" lon="-1.20512167">
        <ele>860.0</ele>
        <time>2019-07-31T17:46:27.062Z</time>
      </trkpt>
      <trkpt lat="43.00209167" lon="-1.20512167">
        <ele>860.0</ele>
        <time>2019-07-31T17:46:28.068Z</time>
      </trkpt>
      <trkpt lat="43.00209333" lon="-1.20512167">
        <ele>860.0</ele>
        <time>2019-07-31T17:46:29.075Z</time>
      </trkpt>
      <trkpt lat="43.00209667" lon="-1.20512667">
        <ele>860.0</ele>
        <time>2019-07-31T17:46:30.081Z</time>
      </trkpt>
      <trkpt lat="43.002105" lon="-1.20513667">
        <ele>860.0</ele>
        <time>2019-07-31T17:46:31.085Z</time>
      </trkpt>
      <trkpt lat="43.00211333" lon="-1.20515">
        <ele>859.0</ele>
        <time>2019-07-31T17:46:32.089Z</time>
      </trkpt>
      <trkpt lat="43.00212167" lon="-1.20516167">
        <ele>859.0</ele>
        <time>2019-07-31T17:46:33.091Z</time>
      </trkpt>
      <trkpt lat="43.00213" lon="-1.20517167">
        <ele>859.0</ele>
        <time>2019-07-31T17:46:34.095Z</time>
      </trkpt>
      <trkpt lat="43.00213833" lon="-1.20518333">
        <ele>858.0</ele>
        <time>2019-07-31T17:46:35.100Z</time>
      </trkpt>
      <trkpt lat="43.00214333" lon="-1.20519667">
        <ele>858.0</ele>
        <time>2019-07-31T17:46:36.105Z</time>
      </trkpt>
      <trkpt lat="43.00215" lon="-1.20520833">
        <ele>858.0</ele>
        <time>2019-07-31T17:46:37.110Z</time>
      </trkpt>
      <trkpt lat="43.002155" lon="-1.20522333">
        <ele>858.0</ele>
        <time>2019-07-31T17:46:38.113Z</time>
      </trkpt>
      <trkpt lat="43.00215833" lon="-1.20523667">
        <ele>858.0</ele>
        <time>2019-07-31T17:46:39.117Z</time>
      </trkpt>
      <trkpt lat="43.00216167" lon="-1.20524833">
        <ele>858.0</ele>
        <time>2019-07-31T17:46:40.121Z</time>
      </trkpt>
      <trkpt lat="43.002165" lon="-1.20526">
        <ele>857.0</ele>
        <time>2019-07-31T17:46:41.126Z</time>
      </trkpt>
      <trkpt lat="43.00216833" lon="-1.205275">
        <ele>856.0</ele>
        <time>2019-07-31T17:46:42.132Z</time>
      </trkpt>
      <trkpt lat="43.00217667" lon="-1.20530167">
        <ele>856.0</ele>
        <time>2019-07-31T17:46:43.135Z</time>
      </trkpt>
      <trkpt lat="43.00218" lon="-1.20531167">
        <ele>855.0</ele>
        <time>2019-07-31T17:46:44.140Z</time>
      </trkpt>
      <trkpt lat="43.00217667" lon="-1.20531167">
        <ele>855.0</ele>
        <time>2019-07-31T17:46:45.144Z</time>
      </trkpt>
      <trkpt lat="43.00217167" lon="-1.205315">
        <ele>854.0</ele>
        <time>2019-07-31T17:46:46.148Z</time>
      </trkpt>
      <trkpt lat="43.00216833" lon="-1.20532167">
        <ele>853.0</ele>
        <time>2019-07-31T17:46:47.152Z</time>
      </trkpt>
      <trkpt lat="43.00216333" lon="-1.20532167">
        <ele>852.0</ele>
        <time>2019-07-31T17:46:48.158Z</time>
      </trkpt>
      <trkpt lat="43.00215833" lon="-1.205325">
        <ele>851.0</ele>
        <time>2019-07-31T17:46:49.163Z</time>
      </trkpt>
      <trkpt lat="43.00215833" lon="-1.20532167">
        <ele>850.0</ele>
        <time>2019-07-31T17:46:50.168Z</time>
      </trkpt>
      <trkpt lat="43.00215667" lon="-1.20532">
        <ele>849.0</ele>
        <time>2019-07-31T17:46:51.174Z</time>
      </trkpt>
      <trkpt lat="43.00215833" lon="-1.20531833">
        <ele>849.0</ele>
        <time>2019-07-31T17:46:52.178Z</time>
      </trkpt>
      <trkpt lat="43.00216" lon="-1.205315">
        <ele>849.0</ele>
        <time>2019-07-31T17:46:53.184Z</time>
      </trkpt>
      <trkpt lat="43.00216" lon="-1.205315">
        <ele>849.0</ele>
        <time>2019-07-31T17:46:54.064Z</time>
      </trkpt>
      <trkpt lat="43.00216" lon="-1.20531167">
        <ele>849.0</ele>
        <time>2019-07-31T17:46:55.070Z</time>
      </trkpt>
      <trkpt lat="43.00216" lon="-1.20531">
        <ele>849.0</ele>
        <time>2019-07-31T17:46:56.073Z</time>
      </trkpt>
      <trkpt lat="43.00215833" lon="-1.20531">
        <ele>850.0</ele>
        <time>2019-07-31T17:46:57.079Z</time>
      </trkpt>
      <trkpt lat="43.00215833" lon="-1.20531">
        <ele>850.0</ele>
        <time>2019-07-31T17:46:58.083Z</time>
      </trkpt>
      <trkpt lat="43.00215667" lon="-1.20530667">
        <ele>851.0</ele>
        <time>2019-07-31T17:46:59.089Z</time>
      </trkpt>
      <trkpt lat="43.002155" lon="-1.20530333">
        <ele>851.0</ele>
        <time>2019-07-31T17:47:00.092Z</time>
      </trkpt>
      <trkpt lat="43.00216" lon="-1.20530333">
        <ele>851.0</ele>
        <time>2019-07-31T17:47:01.098Z</time>
      </trkpt>
      <trkpt lat="43.00216333" lon="-1.20530167">
        <ele>851.0</ele>
        <time>2019-07-31T17:47:02.104Z</time>
      </trkpt>
      <trkpt lat="43.00216833" lon="-1.205305">
        <ele>851.0</ele>
        <time>2019-07-31T17:47:03.110Z</time>
      </trkpt>
      <trkpt lat="43.00217" lon="-1.205305">
        <ele>851.0</ele>
        <time>2019-07-31T17:47:04.117Z</time>
      </trkpt>
      <trkpt lat="43.00216667" lon="-1.20530667">
        <ele>850.0</ele>
        <time>2019-07-31T17:47:05.122Z</time>
      </trkpt>
      <trkpt lat="43.00216" lon="-1.20531">
        <ele>850.0</ele>
        <time>2019-07-31T17:47:06.128Z</time>
      </trkpt>
      <trkpt lat="43.00215333" lon="-1.20531167">
        <ele>850.0</ele>
        <time>2019-07-31T17:47:07.133Z</time>
      </trkpt>
      <trkpt lat="43.00214333" lon="-1.20531333">
        <ele>849.0</ele>
        <time>2019-07-31T17:47:08.135Z</time>
      </trkpt>
      <trkpt lat="43.00214167" lon="-1.20531167">
        <ele>848.0</ele>
        <time>2019-07-31T17:47:09.138Z</time>
      </trkpt>
      <trkpt lat="43.00214167" lon="-1.20531">
        <ele>848.0</ele>
        <time>2019-07-31T17:47:10.140Z</time>
      </trkpt>
      <trkpt lat="43.002145" lon="-1.20531167">
        <ele>848.0</ele>
        <time>2019-07-31T17:47:11.146Z</time>
      </trkpt>
      <trkpt lat="43.00214833" lon="-1.20531167">
        <ele>848.0</ele>
        <time>2019-07-31T17:47:12.150Z</time>
      </trkpt>
      <trkpt lat="43.00215" lon="-1.205315">
        <ele>847.0</ele>
        <time>2019-07-31T17:47:13.156Z</time>
      </trkpt>
      <trkpt lat="43.00215167" lon="-1.205315">
        <ele>847.0</ele>
        <time>2019-07-31T17:47:14.161Z</time>
      </trkpt>
      <trkpt lat="43.00215167" lon="-1.20531667">
        <ele>847.0</ele>
        <time>2019-07-31T17:47:15.165Z</time>
      </trkpt>
      <trkpt lat="43.00215" lon="-1.20531833">
        <ele>847.0</ele>
        <time>2019-07-31T17:47:16.172Z</time>
      </trkpt>
      <trkpt lat="43.00214833" lon="-1.20531833">
        <ele>847.0</ele>
        <time>2019-07-31T17:47:17.175Z</time>
      </trkpt>
      <trkpt lat="43.00215" lon="-1.20531833">
        <ele>846.0</ele>
        <time>2019-07-31T17:47:18.180Z</time>
      </trkpt>
      <trkpt lat="43.00214667" lon="-1.205315">
        <ele>847.0</ele>
        <time>2019-07-31T17:47:19.184Z</time>
      </trkpt>
      <trkpt lat="43.00214667" lon="-1.205315">
        <ele>847.0</ele>
        <time>2019-07-31T17:47:20.065Z</time>
      </trkpt>
      <trkpt lat="43.002145" lon="-1.20531">
        <ele>846.0</ele>
        <time>2019-07-31T17:47:21.070Z</time>
      </trkpt>
      <trkpt lat="43.00214333" lon="-1.20530667">
        <ele>847.0</ele>
        <time>2019-07-31T17:47:22.076Z</time>
      </trkpt>
      <trkpt lat="43.002145" lon="-1.20530667">
        <ele>847.0</ele>
        <time>2019-07-31T17:47:23.083Z</time>
      </trkpt>
      <trkpt lat="43.00214833" lon="-1.20531">
        <ele>847.0</ele>
        <time>2019-07-31T17:47:24.089Z</time>
      </trkpt>
      <trkpt lat="43.00214667" lon="-1.20530833">
        <ele>847.0</ele>
        <time>2019-07-31T17:47:25.095Z</time>
      </trkpt>
      <trkpt lat="43.002145" lon="-1.20531">
        <ele>847.0</ele>
        <time>2019-07-31T17:47:26.100Z</time>
      </trkpt>
      <trkpt lat="43.002145" lon="-1.20531">
        <ele>846.0</ele>
        <time>2019-07-31T17:47:27.105Z</time>
      </trkpt>
      <trkpt lat="43.00214167" lon="-1.20531333">
        <ele>846.0</ele>
        <time>2019-07-31T17:47:28.112Z</time>
      </trkpt>
      <trkpt lat="43.00214667" lon="-1.205315">
        <ele>846.0</ele>
        <time>2019-07-31T17:47:29.116Z</time>
      </trkpt>
      <trkpt lat="43.00214667" lon="-1.20531333">
        <ele>846.0</ele>
        <time>2019-07-31T17:47:30.123Z</time>
      </trkpt>
      <trkpt lat="43.002145" lon="-1.20531167">
        <ele>846.0</ele>
        <time>2019-07-31T17:47:31.129Z</time>
      </trkpt>
      <trkpt lat="43.002145" lon="-1.20531167">
        <ele>846.0</ele>
        <time>2019-07-31T17:47:32.133Z</time>
      </trkpt>
      <trkpt lat="43.00215" lon="-1.20531">
        <ele>846.0</ele>
        <time>2019-07-31T17:47:33.138Z</time>
      </trkpt>
      <trkpt lat="43.00215333" lon="-1.20531167">
        <ele>846.0</ele>
        <time>2019-07-31T17:47:34.145Z</time>
      </trkpt>
      <trkpt lat="43.00215333" lon="-1.20531167">
        <ele>846.0</ele>
        <time>2019-07-31T17:47:35.152Z</time>
      </trkpt>
      <trkpt lat="43.00215333" lon="-1.20531">
        <ele>846.0</ele>
        <time>2019-07-31T17:47:36.159Z</time>
      </trkpt>
      <trkpt lat="43.002155" lon="-1.20531167">
        <ele>846.0</ele>
        <time>2019-07-31T17:47:37.162Z</time>
      </trkpt>
      <trkpt lat="43.00215333" lon="-1.20531167">
        <ele>846.0</ele>
        <time>2019-07-31T17:47:38.166Z</time>
      </trkpt>
      <trkpt lat="43.00214833" lon="-1.20531">
        <ele>847.0</ele>
        <time>2019-07-31T17:47:39.169Z</time>
      </trkpt>
      <trkpt lat="43.00214667" lon="-1.20531333">
        <ele>848.0</ele>
        <time>2019-07-31T17:47:40.174Z</time>
      </trkpt>
      <trkpt lat="43.00214167" lon="-1.20531167">
        <ele>848.0</ele>
        <time>2019-07-31T17:47:41.180Z</time>
      </trkpt>
      <trkpt lat="43.00214167" lon="-1.20531167">
        <ele>848.0</ele>
        <time>2019-07-31T17:47:42.061Z</time>
      </trkpt>
      <trkpt lat="43.00214333" lon="-1.20530833">
        <ele>849.0</ele>
        <time>2019-07-31T17:47:43.065Z</time>
      </trkpt>
      <trkpt lat="43.002145" lon="-1.20531">
        <ele>850.0</ele>
        <time>2019-07-31T17:47:44.070Z</time>
      </trkpt>
      <trkpt lat="43.00214167" lon="-1.20531667">
        <ele>850.0</ele>
        <time>2019-07-31T17:47:45.075Z</time>
      </trkpt>
      <trkpt lat="43.00213833" lon="-1.20532833">
        <ele>850.0</ele>
        <time>2019-07-31T17:47:46.080Z</time>
      </trkpt>
      <trkpt lat="43.002135" lon="-1.20533833">
        <ele>851.0</ele>
        <time>2019-07-31T17:47:47.087Z</time>
      </trkpt>
      <trkpt lat="43.00213333" lon="-1.20535333">
        <ele>852.0</ele>
        <time>2019-07-31T17:47:48.091Z</time>
      </trkpt>
      <trkpt lat="43.00213333" lon="-1.205365">
        <ele>853.0</ele>
        <time>2019-07-31T17:47:49.097Z</time>
      </trkpt>
      <trkpt lat="43.00213333" lon="-1.20538">
        <ele>853.0</ele>
        <time>2019-07-31T17:47:50.101Z</time>
      </trkpt>
      <trkpt lat="43.00213167" lon="-1.20539167">
        <ele>854.0</ele>
        <time>2019-07-31T17:47:51.108Z</time>
      </trkpt>
      <trkpt lat="43.002125" lon="-1.20540167">
        <ele>854.0</ele>
        <time>2019-07-31T17:47:52.113Z</time>
      </trkpt>
      <trkpt lat="43.00211833" lon="-1.20540833">
        <ele>855.0</ele>
        <time>2019-07-31T17:47:53.119Z</time>
      </trkpt>
      <trkpt lat="43.00211167" lon="-1.20541667">
        <ele>855.0</ele>
        <time>2019-07-31T17:47:54.124Z</time>
      </trkpt>
      <trkpt lat="43.00210167" lon="-1.20542833">
        <ele>855.0</ele>
        <time>2019-07-31T17:47:55.129Z</time>
      </trkpt>
      <trkpt lat="43.00208" lon="-1.20545">
        <ele>855.0</ele>
        <time>2019-07-31T17:47:56.134Z</time>
      </trkpt>
      <trkpt lat="43.00206833" lon="-1.20546167">
        <ele>855.0</ele>
        <time>2019-07-31T17:47:57.140Z</time>
      </trkpt>
      <trkpt lat="43.00205667" lon="-1.205475">
        <ele>855.0</ele>
        <time>2019-07-31T17:47:58.145Z</time>
      </trkpt>
      <trkpt lat="43.002045" lon="-1.20548167">
        <ele>855.0</ele>
        <time>2019-07-31T17:47:59.150Z</time>
      </trkpt>
      <trkpt lat="43.002035" lon="-1.20549167">
        <ele>855.0</ele>
        <time>2019-07-31T17:48:00.154Z</time>
      </trkpt>
      <trkpt lat="43.002025" lon="-1.20550333">
        <ele>855.0</ele>
        <time>2019-07-31T17:48:01.156Z</time>
      </trkpt>
      <trkpt lat="43.002015" lon="-1.20551333">
        <ele>855.0</ele>
        <time>2019-07-31T17:48:02.162Z</time>
      </trkpt>
      <trkpt lat="43.00200667" lon="-1.20552667">
        <ele>855.0</ele>
        <time>2019-07-31T17:48:03.166Z</time>
      </trkpt>
      <trkpt lat="43.00199833" lon="-1.205545">
        <ele>854.0</ele>
        <time>2019-07-31T17:48:04.172Z</time>
      </trkpt>
      <trkpt lat="43.00198833" lon="-1.20555833">
        <ele>854.0</ele>
        <time>2019-07-31T17:48:05.177Z</time>
      </trkpt>
      <trkpt lat="43.00197667" lon="-1.20557333">
        <ele>854.0</ele>
        <time>2019-07-31T17:48:06.186Z</time>
      </trkpt>
      <trkpt lat="43.00197667" lon="-1.20557333">
        <ele>854.0</ele>
        <time>2019-07-31T17:48:07.067Z</time>
      </trkpt>
      <trkpt lat="43.00196333" lon="-1.20558667">
        <ele>854.0</ele>
        <time>2019-07-31T17:48:08.072Z</time>
      </trkpt>
      <trkpt lat="43.00195" lon="-1.20559833">
        <ele>854.0</ele>
        <time>2019-07-31T17:48:09.078Z</time>
      </trkpt>
      <trkpt lat="43.00193833" lon="-1.20560833">
        <ele>854.0</ele>
        <time>2019-07-31T17:48:10.083Z</time>
      </trkpt>
      <trkpt lat="43.00192333" lon="-1.20561667">
        <ele>854.0</ele>
        <time>2019-07-31T17:48:11.088Z</time>
      </trkpt>
      <trkpt lat="43.00191" lon="-1.20562667">
        <ele>854.0</ele>
        <time>2019-07-31T17:48:12.092Z</time>
      </trkpt>
      <trkpt lat="43.001895" lon="-1.20563833">
        <ele>854.0</ele>
        <time>2019-07-31T17:48:13.097Z</time>
      </trkpt>
      <trkpt lat="43.00188333" lon="-1.20565167">
        <ele>854.0</ele>
        <time>2019-07-31T17:48:14.102Z</time>
      </trkpt>
      <trkpt lat="43.00187167" lon="-1.20566833">
        <ele>854.0</ele>
        <time>2019-07-31T17:48:15.106Z</time>
      </trkpt>
      <trkpt lat="43.00186333" lon="-1.20568333">
        <ele>854.0</ele>
        <time>2019-07-31T17:48:16.113Z</time>
      </trkpt>
      <trkpt lat="43.001855" lon="-1.20569833">
        <ele>854.0</ele>
        <time>2019-07-31T17:48:17.119Z</time>
      </trkpt>
      <trkpt lat="43.00184667" lon="-1.20571333">
        <ele>853.0</ele>
        <time>2019-07-31T17:48:18.126Z</time>
      </trkpt>
      <trkpt lat="43.00183667" lon="-1.20572833">
        <ele>853.0</ele>
        <time>2019-07-31T17:48:19.131Z</time>
      </trkpt>
      <trkpt lat="43.00182833" lon="-1.20574667">
        <ele>852.0</ele>
        <time>2019-07-31T17:48:20.135Z</time>
      </trkpt>
      <trkpt lat="43.00180833" lon="-1.20577667">
        <ele>851.0</ele>
        <time>2019-07-31T17:48:21.140Z</time>
      </trkpt>
      <trkpt lat="43.00179833" lon="-1.20579167">
        <ele>851.0</ele>
        <time>2019-07-31T17:48:22.144Z</time>
      </trkpt>
      <trkpt lat="43.00179167" lon="-1.20580667">
        <ele>850.0</ele>
        <time>2019-07-31T17:48:23.150Z</time>
      </trkpt>
      <trkpt lat="43.00178333" lon="-1.20581833">
        <ele>850.0</ele>
        <time>2019-07-31T17:48:24.154Z</time>
      </trkpt>
      <trkpt lat="43.001775" lon="-1.20583167">
        <ele>849.0</ele>
        <time>2019-07-31T17:48:25.161Z</time>
      </trkpt>
      <trkpt lat="43.00176333" lon="-1.20584167">
        <ele>849.0</ele>
        <time>2019-07-31T17:48:26.165Z</time>
      </trkpt>
      <trkpt lat="43.00175167" lon="-1.20585667">
        <ele>849.0</ele>
        <time>2019-07-31T17:48:27.171Z</time>
      </trkpt>
      <trkpt lat="43.00174333" lon="-1.20586667">
        <ele>849.0</ele>
        <time>2019-07-31T17:48:28.177Z</time>
      </trkpt>
      <trkpt lat="43.00173667" lon="-1.20588">
        <ele>848.0</ele>
        <time>2019-07-31T17:48:29.182Z</time>
      </trkpt>
      <trkpt lat="43.00173667" lon="-1.20588">
        <ele>848.0</ele>
        <time>2019-07-31T17:48:30.064Z</time>
      </trkpt>
      <trkpt lat="43.00173" lon="-1.20588833">
        <ele>848.0</ele>
        <time>2019-07-31T17:48:31.070Z</time>
      </trkpt>
      <trkpt lat="43.001725" lon="-1.20589667">
        <ele>848.0</ele>
        <time>2019-07-31T17:48:32.076Z</time>
      </trkpt>
      <trkpt lat="43.00172" lon="-1.205905">
        <ele>847.0</ele>
        <time>2019-07-31T17:48:33.081Z</time>
      </trkpt>
      <trkpt lat="43.00171167" lon="-1.20591667">
        <ele>847.0</ele>
        <time>2019-07-31T17:48:34.085Z</time>
      </trkpt>
      <trkpt lat="43.001705" lon="-1.20593167">
        <ele>847.0</ele>
        <time>2019-07-31T17:48:35.087Z</time>
      </trkpt>
      <trkpt lat="43.00169833" lon="-1.205945">
        <ele>847.0</ele>
        <time>2019-07-31T17:48:36.091Z</time>
      </trkpt>
      <trkpt lat="43.00169167" lon="-1.20596">
        <ele>847.0</ele>
        <time>2019-07-31T17:48:37.094Z</time>
      </trkpt>
      <trkpt lat="43.001685" lon="-1.20597167">
        <ele>846.0</ele>
        <time>2019-07-31T17:48:38.100Z</time>
      </trkpt>
      <trkpt lat="43.00167667" lon="-1.20598833">
        <ele>846.0</ele>
        <time>2019-07-31T17:48:39.105Z</time>
      </trkpt>
      <trkpt lat="43.00166833" lon="-1.206005">
        <ele>846.0</ele>
        <time>2019-07-31T17:48:40.107Z</time>
      </trkpt>
      <trkpt lat="43.00166" lon="-1.20601833">
        <ele>847.0</ele>
        <time>2019-07-31T17:48:41.109Z</time>
      </trkpt>
      <trkpt lat="43.00165167" lon="-1.20603">
        <ele>847.0</ele>
        <time>2019-07-31T17:48:42.111Z</time>
      </trkpt>
      <trkpt lat="43.001645" lon="-1.20604">
        <ele>847.0</ele>
        <time>2019-07-31T17:48:43.113Z</time>
      </trkpt>
      <trkpt lat="43.00163667" lon="-1.206055">
        <ele>848.0</ele>
        <time>2019-07-31T17:48:44.114Z</time>
      </trkpt>
      <trkpt lat="43.001635" lon="-1.20606833">
        <ele>847.0</ele>
        <time>2019-07-31T17:48:45.117Z</time>
      </trkpt>
      <trkpt lat="43.00162667" lon="-1.20608667">
        <ele>847.0</ele>
        <time>2019-07-31T17:48:46.121Z</time>
      </trkpt>
      <trkpt lat="43.00161833" lon="-1.206105">
        <ele>847.0</ele>
        <time>2019-07-31T17:48:47.128Z</time>
      </trkpt>
      <trkpt lat="43.00161" lon="-1.20612333">
        <ele>847.0</ele>
        <time>2019-07-31T17:48:48.133Z</time>
      </trkpt>
      <trkpt lat="43.00160333" lon="-1.20614333">
        <ele>847.0</ele>
        <time>2019-07-31T17:48:49.138Z</time>
      </trkpt>
      <trkpt lat="43.00159333" lon="-1.20617667">
        <ele>847.0</ele>
        <time>2019-07-31T17:48:50.145Z</time>
      </trkpt>
      <trkpt lat="43.00158667" lon="-1.206195">
        <ele>847.0</ele>
        <time>2019-07-31T17:48:51.150Z</time>
      </trkpt>
      <trkpt lat="43.00158" lon="-1.20621167">
        <ele>847.0</ele>
        <time>2019-07-31T17:48:52.154Z</time>
      </trkpt>
      <trkpt lat="43.00157" lon="-1.20622667">
        <ele>848.0</ele>
        <time>2019-07-31T17:48:53.160Z</time>
      </trkpt>
      <trkpt lat="43.00156" lon="-1.20624667">
        <ele>849.0</ele>
        <time>2019-07-31T17:48:54.165Z</time>
      </trkpt>
      <trkpt lat="43.00154833" lon="-1.20626833">
        <ele>850.0</ele>
        <time>2019-07-31T17:48:55.167Z</time>
      </trkpt>
      <trkpt lat="43.00153833" lon="-1.20629">
        <ele>850.0</ele>
        <time>2019-07-31T17:48:56.171Z</time>
      </trkpt>
      <trkpt lat="43.00152833" lon="-1.20631">
        <ele>851.0</ele>
        <time>2019-07-31T17:48:57.176Z</time>
      </trkpt>
      <trkpt lat="43.00152333" lon="-1.20632833">
        <ele>851.0</ele>
        <time>2019-07-31T17:48:58.181Z</time>
      </trkpt>
      <trkpt lat="43.00152333" lon="-1.20632833">
        <ele>851.0</ele>
        <time>2019-07-31T17:48:59.063Z</time>
      </trkpt>
      <trkpt lat="43.00152167" lon="-1.20634667">
        <ele>850.0</ele>
        <time>2019-07-31T17:49:00.066Z</time>
      </trkpt>
      <trkpt lat="43.00151833" lon="-1.20636167">
        <ele>850.0</ele>
        <time>2019-07-31T17:49:01.069Z</time>
      </trkpt>
      <trkpt lat="43.001515" lon="-1.20637833">
        <ele>850.0</ele>
        <time>2019-07-31T17:49:02.073Z</time>
      </trkpt>
      <trkpt lat="43.00151167" lon="-1.20639167">
        <ele>849.0</ele>
        <time>2019-07-31T17:49:03.080Z</time>
      </trkpt>
      <trkpt lat="43.00150833" lon="-1.20639667">
        <ele>849.0</ele>
        <time>2019-07-31T17:49:04.083Z</time>
      </trkpt>
      <trkpt lat="43.00150667" lon="-1.206405">
        <ele>849.0</ele>
        <time>2019-07-31T17:49:05.085Z</time>
      </trkpt>
      <trkpt lat="43.001505" lon="-1.20641">
        <ele>849.0</ele>
        <time>2019-07-31T17:49:06.089Z</time>
      </trkpt>
      <trkpt lat="43.00150167" lon="-1.206415">
        <ele>849.0</ele>
        <time>2019-07-31T17:49:07.093Z</time>
      </trkpt>
      <trkpt lat="43.00149833" lon="-1.20642">
        <ele>850.0</ele>
        <time>2019-07-31T17:49:08.098Z</time>
      </trkpt>
      <trkpt lat="43.00149667" lon="-1.20642167">
        <ele>850.0</ele>
        <time>2019-07-31T17:49:09.103Z</time>
      </trkpt>
      <trkpt lat="43.001495" lon="-1.20642167">
        <ele>851.0</ele>
        <time>2019-07-31T17:49:10.109Z</time>
      </trkpt>
      <trkpt lat="43.00149833" lon="-1.20641833">
        <ele>851.0</ele>
        <time>2019-07-31T17:49:11.116Z</time>
      </trkpt>
      <trkpt lat="43.00150167" lon="-1.20641833">
        <ele>851.0</ele>
        <time>2019-07-31T17:49:12.121Z</time>
      </trkpt>
      <trkpt lat="43.0015" lon="-1.20642167">
        <ele>851.0</ele>
        <time>2019-07-31T17:49:13.127Z</time>
      </trkpt>
      <trkpt lat="43.0015" lon="-1.20642667">
        <ele>851.0</ele>
        <time>2019-07-31T17:49:14.133Z</time>
      </trkpt>
      <trkpt lat="43.001495" lon="-1.206445">
        <ele>850.0</ele>
        <time>2019-07-31T17:49:15.138Z</time>
      </trkpt>
      <trkpt lat="43.00149167" lon="-1.20645833">
        <ele>849.0</ele>
        <time>2019-07-31T17:49:16.144Z</time>
      </trkpt>
      <trkpt lat="43.00148667" lon="-1.20647333">
        <ele>849.0</ele>
        <time>2019-07-31T17:49:17.150Z</time>
      </trkpt>
      <trkpt lat="43.00148" lon="-1.20649">
        <ele>849.0</ele>
        <time>2019-07-31T17:49:18.157Z</time>
      </trkpt>
      <trkpt lat="43.001475" lon="-1.20650667">
        <ele>849.0</ele>
        <time>2019-07-31T17:49:19.162Z</time>
      </trkpt>
      <trkpt lat="43.00147" lon="-1.206525">
        <ele>848.0</ele>
        <time>2019-07-31T17:49:20.167Z</time>
      </trkpt>
      <trkpt lat="43.001465" lon="-1.20654333">
        <ele>848.0</ele>
        <time>2019-07-31T17:49:21.171Z</time>
      </trkpt>
      <trkpt lat="43.00146167" lon="-1.20656167">
        <ele>848.0</ele>
        <time>2019-07-31T17:49:22.176Z</time>
      </trkpt>
      <trkpt lat="43.00145833" lon="-1.20657667">
        <ele>848.0</ele>
        <time>2019-07-31T17:49:23.181Z</time>
      </trkpt>
      <trkpt lat="43.00145667" lon="-1.206595">
        <ele>848.0</ele>
        <time>2019-07-31T17:49:24.185Z</time>
      </trkpt>
      <trkpt lat="43.00145667" lon="-1.206595">
        <ele>848.0</ele>
        <time>2019-07-31T17:49:25.063Z</time>
      </trkpt>
      <trkpt lat="43.00145333" lon="-1.20661">
        <ele>848.0</ele>
        <time>2019-07-31T17:49:26.066Z</time>
      </trkpt>
      <trkpt lat="43.00145" lon="-1.20662667">
        <ele>848.0</ele>
        <time>2019-07-31T17:49:27.071Z</time>
      </trkpt>
      <trkpt lat="43.001445" lon="-1.206645">
        <ele>847.0</ele>
        <time>2019-07-31T17:49:28.076Z</time>
      </trkpt>
      <trkpt lat="43.00144" lon="-1.206665">
        <ele>847.0</ele>
        <time>2019-07-31T17:49:29.081Z</time>
      </trkpt>
      <trkpt lat="43.00143667" lon="-1.206685">
        <ele>847.0</ele>
        <time>2019-07-31T17:49:30.084Z</time>
      </trkpt>
      <trkpt lat="43.001435" lon="-1.20670167">
        <ele>847.0</ele>
        <time>2019-07-31T17:49:31.088Z</time>
      </trkpt>
      <trkpt lat="43.00143333" lon="-1.20672">
        <ele>847.0</ele>
        <time>2019-07-31T17:49:32.093Z</time>
      </trkpt>
      <trkpt lat="43.00143333" lon="-1.20673667">
        <ele>847.0</ele>
        <time>2019-07-31T17:49:33.098Z</time>
      </trkpt>
      <trkpt lat="43.00143" lon="-1.20675">
        <ele>847.0</ele>
        <time>2019-07-31T17:49:34.103Z</time>
      </trkpt>
      <trkpt lat="43.00142667" lon="-1.20676667">
        <ele>847.0</ele>
        <time>2019-07-31T17:49:35.106Z</time>
      </trkpt>
      <trkpt lat="43.00142333" lon="-1.20678167">
        <ele>847.0</ele>
        <time>2019-07-31T17:49:36.109Z</time>
      </trkpt>
      <trkpt lat="43.00142167" lon="-1.2068">
        <ele>847.0</ele>
        <time>2019-07-31T17:49:37.113Z</time>
      </trkpt>
      <trkpt lat="43.00142" lon="-1.206815">
        <ele>847.0</ele>
        <time>2019-07-31T17:49:38.118Z</time>
      </trkpt>
      <trkpt lat="43.00141833" lon="-1.20683167">
        <ele>846.0</ele>
        <time>2019-07-31T17:49:39.123Z</time>
      </trkpt>
      <trkpt lat="43.00141167" lon="-1.20684667">
        <ele>847.0</ele>
        <time>2019-07-31T17:49:40.125Z</time>
      </trkpt>
      <trkpt lat="43.00140333" lon="-1.20685667">
        <ele>847.0</ele>
        <time>2019-07-31T17:49:41.129Z</time>
      </trkpt>
      <trkpt lat="43.0014" lon="-1.20686833">
        <ele>848.0</ele>
        <time>2019-07-31T17:49:42.135Z</time>
      </trkpt>
      <trkpt lat="43.00138833" lon="-1.20688333">
        <ele>850.0</ele>
        <time>2019-07-31T17:49:43.138Z</time>
      </trkpt>
      <trkpt lat="43.00138833" lon="-1.20689333">
        <ele>851.0</ele>
        <time>2019-07-31T17:49:44.141Z</time>
      </trkpt>
      <trkpt lat="43.00138667" lon="-1.20689667">
        <ele>851.0</ele>
        <time>2019-07-31T17:49:45.146Z</time>
      </trkpt>
      <trkpt lat="43.001385" lon="-1.20689833">
        <ele>850.0</ele>
        <time>2019-07-31T17:49:46.153Z</time>
      </trkpt>
      <trkpt lat="43.00138333" lon="-1.20690167">
        <ele>850.0</ele>
        <time>2019-07-31T17:49:47.160Z</time>
      </trkpt>
      <trkpt lat="43.00137833" lon="-1.206905">
        <ele>850.0</ele>
        <time>2019-07-31T17:49:48.166Z</time>
      </trkpt>
      <trkpt lat="43.00137167" lon="-1.20690167">
        <ele>850.0</ele>
        <time>2019-07-31T17:49:49.173Z</time>
      </trkpt>
      <trkpt lat="43.00136667" lon="-1.2069">
        <ele>851.0</ele>
        <time>2019-07-31T17:49:50.177Z</time>
      </trkpt>
      <trkpt lat="43.001365" lon="-1.20689667">
        <ele>852.0</ele>
        <time>2019-07-31T17:49:51.181Z</time>
      </trkpt>
      <trkpt lat="43.001365" lon="-1.20689667">
        <ele>852.0</ele>
        <time>2019-07-31T17:49:52.063Z</time>
      </trkpt>
      <trkpt lat="43.00137167" lon="-1.206895">
        <ele>851.0</ele>
        <time>2019-07-31T17:49:53.069Z</time>
      </trkpt>
      <trkpt lat="43.00138" lon="-1.20688833">
        <ele>851.0</ele>
        <time>2019-07-31T17:49:54.075Z</time>
      </trkpt>
      <trkpt lat="43.00138667" lon="-1.206885">
        <ele>850.0</ele>
        <time>2019-07-31T17:49:55.082Z</time>
      </trkpt>
      <trkpt lat="43.00138833" lon="-1.20688667">
        <ele>850.0</ele>
        <time>2019-07-31T17:49:56.089Z</time>
      </trkpt>
      <trkpt lat="43.00138667" lon="-1.20689667">
        <ele>850.0</ele>
        <time>2019-07-31T17:49:57.093Z</time>
      </trkpt>
      <trkpt lat="43.00138667" lon="-1.20691667">
        <ele>850.0</ele>
        <time>2019-07-31T17:49:58.100Z</time>
      </trkpt>
      <trkpt lat="43.00138667" lon="-1.20693833">
        <ele>849.0</ele>
        <time>2019-07-31T17:49:59.106Z</time>
      </trkpt>
      <trkpt lat="43.001385" lon="-1.20696167">
        <ele>849.0</ele>
        <time>2019-07-31T17:50:00.112Z</time>
      </trkpt>
      <trkpt lat="43.00138167" lon="-1.20698333">
        <ele>849.0</ele>
        <time>2019-07-31T17:50:01.119Z</time>
      </trkpt>
      <trkpt lat="43.00138" lon="-1.20700333">
        <ele>849.0</ele>
        <time>2019-07-31T17:50:02.126Z</time>
      </trkpt>
      <trkpt lat="43.00137833" lon="-1.20702333">
        <ele>849.0</ele>
        <time>2019-07-31T17:50:03.131Z</time>
      </trkpt>
      <trkpt lat="43.00137667" lon="-1.20704333">
        <ele>848.0</ele>
        <time>2019-07-31T17:50:04.134Z</time>
      </trkpt>
      <trkpt lat="43.001375" lon="-1.20707833">
        <ele>847.0</ele>
        <time>2019-07-31T17:50:05.138Z</time>
      </trkpt>
      <trkpt lat="43.00137333" lon="-1.20709667">
        <ele>847.0</ele>
        <time>2019-07-31T17:50:06.143Z</time>
      </trkpt>
      <trkpt lat="43.00137167" lon="-1.20711167">
        <ele>846.0</ele>
        <time>2019-07-31T17:50:07.148Z</time>
      </trkpt>
      <trkpt lat="43.00137" lon="-1.20713167">
        <ele>846.0</ele>
        <time>2019-07-31T17:50:08.153Z</time>
      </trkpt>
      <trkpt lat="43.00136833" lon="-1.20715">
        <ele>846.0</ele>
        <time>2019-07-31T17:50:09.160Z</time>
      </trkpt>
      <trkpt lat="43.00136667" lon="-1.20716167">
        <ele>846.0</ele>
        <time>2019-07-31T17:50:10.166Z</time>
      </trkpt>
      <trkpt lat="43.00136333" lon="-1.207175">
        <ele>846.0</ele>
        <time>2019-07-31T17:50:11.172Z</time>
      </trkpt>
      <trkpt lat="43.00136167" lon="-1.20719167">
        <ele>846.0</ele>
        <time>2019-07-31T17:50:12.177Z</time>
      </trkpt>
      <trkpt lat="43.00136" lon="-1.20720833">
        <ele>846.0</ele>
        <time>2019-07-31T17:50:13.182Z</time>
      </trkpt>
      <trkpt lat="43.00136" lon="-1.20720833">
        <ele>846.0</ele>
        <time>2019-07-31T17:50:14.062Z</time>
      </trkpt>
      <trkpt lat="43.00135667" lon="-1.207225">
        <ele>845.0</ele>
        <time>2019-07-31T17:50:15.069Z</time>
      </trkpt>
      <trkpt lat="43.00135167" lon="-1.20724167">
        <ele>845.0</ele>
        <time>2019-07-31T17:50:16.076Z</time>
      </trkpt>
      <trkpt lat="43.00134833" lon="-1.20726">
        <ele>845.0</ele>
        <time>2019-07-31T17:50:17.083Z</time>
      </trkpt>
      <trkpt lat="43.001345" lon="-1.20727667">
        <ele>845.0</ele>
        <time>2019-07-31T17:50:18.089Z</time>
      </trkpt>
      <trkpt lat="43.00134167" lon="-1.20729667">
        <ele>844.0</ele>
        <time>2019-07-31T17:50:19.095Z</time>
      </trkpt>
      <trkpt lat="43.001335" lon="-1.207315">
        <ele>844.0</ele>
        <time>2019-07-31T17:50:20.099Z</time>
      </trkpt>
      <trkpt lat="43.00133" lon="-1.207335">
        <ele>844.0</ele>
        <time>2019-07-31T17:50:21.105Z</time>
      </trkpt>
      <trkpt lat="43.00132667" lon="-1.20735167">
        <ele>844.0</ele>
        <time>2019-07-31T17:50:22.109Z</time>
      </trkpt>
      <trkpt lat="43.00132667" lon="-1.20736667">
        <ele>844.0</ele>
        <time>2019-07-31T17:50:23.115Z</time>
      </trkpt>
      <trkpt lat="43.001325" lon="-1.20738">
        <ele>843.0</ele>
        <time>2019-07-31T17:50:24.119Z</time>
      </trkpt>
      <trkpt lat="43.00132333" lon="-1.20738667">
        <ele>843.0</ele>
        <time>2019-07-31T17:50:25.124Z</time>
      </trkpt>
      <trkpt lat="43.00132333" lon="-1.20739">
        <ele>842.0</ele>
        <time>2019-07-31T17:50:26.127Z</time>
      </trkpt>
      <trkpt lat="43.00132167" lon="-1.207385">
        <ele>842.0</ele>
        <time>2019-07-31T17:50:27.133Z</time>
      </trkpt>
      <trkpt lat="43.00132" lon="-1.20738333">
        <ele>842.0</ele>
        <time>2019-07-31T17:50:28.136Z</time>
      </trkpt>
      <trkpt lat="43.00131667" lon="-1.20739">
        <ele>841.0</ele>
        <time>2019-07-31T17:50:29.141Z</time>
      </trkpt>
      <trkpt lat="43.00131833" lon="-1.2074">
        <ele>841.0</ele>
        <time>2019-07-31T17:50:30.149Z</time>
      </trkpt>
      <trkpt lat="43.00131833" lon="-1.20740833">
        <ele>841.0</ele>
        <time>2019-07-31T17:50:31.154Z</time>
      </trkpt>
      <trkpt lat="43.00132" lon="-1.20741">
        <ele>842.0</ele>
        <time>2019-07-31T17:50:32.160Z</time>
      </trkpt>
      <trkpt lat="43.00131833" lon="-1.20741667">
        <ele>842.0</ele>
        <time>2019-07-31T17:50:33.166Z</time>
      </trkpt>
      <trkpt lat="43.00131667" lon="-1.20742333">
        <ele>842.0</ele>
        <time>2019-07-31T17:50:34.171Z</time>
      </trkpt>
      <trkpt lat="43.00131833" lon="-1.20743333">
        <ele>842.0</ele>
        <time>2019-07-31T17:50:35.175Z</time>
      </trkpt>
      <trkpt lat="43.00132" lon="-1.20744">
        <ele>842.0</ele>
        <time>2019-07-31T17:50:36.182Z</time>
      </trkpt>
      <trkpt lat="43.00132" lon="-1.20744">
        <ele>842.0</ele>
        <time>2019-07-31T17:50:37.062Z</time>
      </trkpt>
      <trkpt lat="43.00132167" lon="-1.20744">
        <ele>842.0</ele>
        <time>2019-07-31T17:50:38.067Z</time>
      </trkpt>
      <trkpt lat="43.00132167" lon="-1.20744167">
        <ele>841.0</ele>
        <time>2019-07-31T17:50:39.074Z</time>
      </trkpt>
      <trkpt lat="43.00132167" lon="-1.20744">
        <ele>841.0</ele>
        <time>2019-07-31T17:50:40.082Z</time>
      </trkpt>
      <trkpt lat="43.00132333" lon="-1.20744">
        <ele>840.0</ele>
        <time>2019-07-31T17:50:41.088Z</time>
      </trkpt>
      <trkpt lat="43.00132333" lon="-1.20744">
        <ele>840.0</ele>
        <time>2019-07-31T17:50:42.092Z</time>
      </trkpt>
      <trkpt lat="43.00131833" lon="-1.20745">
        <ele>839.0</ele>
        <time>2019-07-31T17:50:43.099Z</time>
      </trkpt>
      <trkpt lat="43.001315" lon="-1.20746333">
        <ele>839.0</ele>
        <time>2019-07-31T17:50:44.104Z</time>
      </trkpt>
      <trkpt lat="43.00131" lon="-1.207475">
        <ele>839.0</ele>
        <time>2019-07-31T17:50:45.110Z</time>
      </trkpt>
      <trkpt lat="43.00130833" lon="-1.20748667">
        <ele>839.0</ele>
        <time>2019-07-31T17:50:46.115Z</time>
      </trkpt>
      <trkpt lat="43.001305" lon="-1.20750167">
        <ele>839.0</ele>
        <time>2019-07-31T17:50:47.120Z</time>
      </trkpt>
      <trkpt lat="43.00130167" lon="-1.20751667">
        <ele>838.0</ele>
        <time>2019-07-31T17:50:48.125Z</time>
      </trkpt>
      <trkpt lat="43.001295" lon="-1.20753333">
        <ele>839.0</ele>
        <time>2019-07-31T17:50:49.129Z</time>
      </trkpt>
      <trkpt lat="43.00129" lon="-1.20754833">
        <ele>839.0</ele>
        <time>2019-07-31T17:50:50.132Z</time>
      </trkpt>
      <trkpt lat="43.00128333" lon="-1.20756667">
        <ele>839.0</ele>
        <time>2019-07-31T17:50:51.136Z</time>
      </trkpt>
      <trkpt lat="43.00127333" lon="-1.207605">
        <ele>839.0</ele>
        <time>2019-07-31T17:50:52.142Z</time>
      </trkpt>
      <trkpt lat="43.001265" lon="-1.20762333">
        <ele>840.0</ele>
        <time>2019-07-31T17:50:53.148Z</time>
      </trkpt>
      <trkpt lat="43.00125833" lon="-1.20763833">
        <ele>840.0</ele>
        <time>2019-07-31T17:50:54.154Z</time>
      </trkpt>
      <trkpt lat="43.00125333" lon="-1.20765167">
        <ele>840.0</ele>
        <time>2019-07-31T17:50:55.158Z</time>
      </trkpt>
      <trkpt lat="43.00124667" lon="-1.20766667">
        <ele>841.0</ele>
        <time>2019-07-31T17:50:56.163Z</time>
      </trkpt>
      <trkpt lat="43.00124" lon="-1.207685">
        <ele>841.0</ele>
        <time>2019-07-31T17:50:57.168Z</time>
      </trkpt>
      <trkpt lat="43.001235" lon="-1.20770333">
        <ele>841.0</ele>
        <time>2019-07-31T17:50:58.172Z</time>
      </trkpt>
      <trkpt lat="43.00122667" lon="-1.20772333">
        <ele>842.0</ele>
        <time>2019-07-31T17:50:59.175Z</time>
      </trkpt>
      <trkpt lat="43.00122" lon="-1.20774">
        <ele>842.0</ele>
        <time>2019-07-31T17:51:00.180Z</time>
      </trkpt>
      <trkpt lat="43.00121167" lon="-1.20776">
        <ele>843.0</ele>
        <time>2019-07-31T17:51:01.183Z</time>
      </trkpt>
      <trkpt lat="43.00121167" lon="-1.20776">
        <ele>843.0</ele>
        <time>2019-07-31T17:51:02.064Z</time>
      </trkpt>
      <trkpt lat="43.00120333" lon="-1.20778">
        <ele>843.0</ele>
        <time>2019-07-31T17:51:03.069Z</time>
      </trkpt>
      <trkpt lat="43.00119667" lon="-1.20780167">
        <ele>844.0</ele>
        <time>2019-07-31T17:51:04.076Z</time>
      </trkpt>
      <trkpt lat="43.00119" lon="-1.20782333">
        <ele>844.0</ele>
        <time>2019-07-31T17:51:05.082Z</time>
      </trkpt>
      <trkpt lat="43.001185" lon="-1.20784667">
        <ele>844.0</ele>
        <time>2019-07-31T17:51:06.088Z</time>
      </trkpt>
      <trkpt lat="43.00118167" lon="-1.20786667">
        <ele>843.0</ele>
        <time>2019-07-31T17:51:07.092Z</time>
      </trkpt>
      <trkpt lat="43.00117833" lon="-1.20788833">
        <ele>843.0</ele>
        <time>2019-07-31T17:51:08.097Z</time>
      </trkpt>
      <trkpt lat="43.00117333" lon="-1.20791167">
        <ele>843.0</ele>
        <time>2019-07-31T17:51:09.102Z</time>
      </trkpt>
      <trkpt lat="43.00116833" lon="-1.20793333">
        <ele>843.0</ele>
        <time>2019-07-31T17:51:10.108Z</time>
      </trkpt>
      <trkpt lat="43.00116167" lon="-1.207955">
        <ele>843.0</ele>
        <time>2019-07-31T17:51:11.114Z</time>
      </trkpt>
      <trkpt lat="43.00115833" lon="-1.207975">
        <ele>843.0</ele>
        <time>2019-07-31T17:51:12.119Z</time>
      </trkpt>
      <trkpt lat="43.00115167" lon="-1.207995">
        <ele>843.0</ele>
        <time>2019-07-31T17:51:13.125Z</time>
      </trkpt>
      <trkpt lat="43.001145" lon="-1.20801833">
        <ele>843.0</ele>
        <time>2019-07-31T17:51:14.131Z</time>
      </trkpt>
      <trkpt lat="43.00113833" lon="-1.20804333">
        <ele>843.0</ele>
        <time>2019-07-31T17:51:15.135Z</time>
      </trkpt>
      <trkpt lat="43.00113167" lon="-1.20806667">
        <ele>844.0</ele>
        <time>2019-07-31T17:51:16.140Z</time>
      </trkpt>
      <trkpt lat="43.00112333" lon="-1.208115">
        <ele>843.0</ele>
        <time>2019-07-31T17:51:17.144Z</time>
      </trkpt>
      <trkpt lat="43.00111833" lon="-1.20813833">
        <ele>843.0</ele>
        <time>2019-07-31T17:51:18.149Z</time>
      </trkpt>
      <trkpt lat="43.00111667" lon="-1.20816167">
        <ele>843.0</ele>
        <time>2019-07-31T17:51:19.154Z</time>
      </trkpt>
      <trkpt lat="43.00111333" lon="-1.208185">
        <ele>843.0</ele>
        <time>2019-07-31T17:51:20.158Z</time>
      </trkpt>
      <trkpt lat="43.00111" lon="-1.20820333">
        <ele>843.0</ele>
        <time>2019-07-31T17:51:21.165Z</time>
      </trkpt>
      <trkpt lat="43.00111333" lon="-1.20822167">
        <ele>842.0</ele>
        <time>2019-07-31T17:51:22.170Z</time>
      </trkpt>
      <trkpt lat="43.001115" lon="-1.20824333">
        <ele>842.0</ele>
        <time>2019-07-31T17:51:23.175Z</time>
      </trkpt>
      <trkpt lat="43.00111667" lon="-1.20826333">
        <ele>842.0</ele>
        <time>2019-07-31T17:51:24.180Z</time>
      </trkpt>
      <trkpt lat="43.00111667" lon="-1.20828667">
        <ele>842.0</ele>
        <time>2019-07-31T17:51:25.183Z</time>
      </trkpt>
      <trkpt lat="43.00111667" lon="-1.20828667">
        <ele>842.0</ele>
        <time>2019-07-31T17:51:26.062Z</time>
      </trkpt>
      <trkpt lat="43.00111667" lon="-1.20830833">
        <ele>842.0</ele>
        <time>2019-07-31T17:51:27.069Z</time>
      </trkpt>
      <trkpt lat="43.00111667" lon="-1.20833">
        <ele>842.0</ele>
        <time>2019-07-31T17:51:28.074Z</time>
      </trkpt>
      <trkpt lat="43.00111833" lon="-1.20835167">
        <ele>842.0</ele>
        <time>2019-07-31T17:51:29.078Z</time>
      </trkpt>
      <trkpt lat="43.00111833" lon="-1.20837333">
        <ele>842.0</ele>
        <time>2019-07-31T17:51:30.082Z</time>
      </trkpt>
      <trkpt lat="43.00111833" lon="-1.208395">
        <ele>843.0</ele>
        <time>2019-07-31T17:51:31.088Z</time>
      </trkpt>
      <trkpt lat="43.00112167" lon="-1.208415">
        <ele>842.0</ele>
        <time>2019-07-31T17:51:32.092Z</time>
      </trkpt>
      <trkpt lat="43.00112167" lon="-1.20843667">
        <ele>842.0</ele>
        <time>2019-07-31T17:51:33.098Z</time>
      </trkpt>
      <trkpt lat="43.00112333" lon="-1.20845833">
        <ele>842.0</ele>
        <time>2019-07-31T17:51:34.103Z</time>
      </trkpt>
      <trkpt lat="43.001125" lon="-1.20848">
        <ele>841.0</ele>
        <time>2019-07-31T17:51:35.110Z</time>
      </trkpt>
      <trkpt lat="43.00112833" lon="-1.20850167">
        <ele>841.0</ele>
        <time>2019-07-31T17:51:36.117Z</time>
      </trkpt>
      <trkpt lat="43.00113" lon="-1.20852">
        <ele>840.0</ele>
        <time>2019-07-31T17:51:37.123Z</time>
      </trkpt>
      <trkpt lat="43.00113333" lon="-1.20854667">
        <ele>840.0</ele>
        <time>2019-07-31T17:51:38.127Z</time>
      </trkpt>
      <trkpt lat="43.00113667" lon="-1.20856667">
        <ele>840.0</ele>
        <time>2019-07-31T17:51:39.132Z</time>
      </trkpt>
      <trkpt lat="43.00114" lon="-1.20858333">
        <ele>839.0</ele>
        <time>2019-07-31T17:51:40.136Z</time>
      </trkpt>
      <trkpt lat="43.00114" lon="-1.20862333">
        <ele>839.0</ele>
        <time>2019-07-31T17:51:41.142Z</time>
      </trkpt>
      <trkpt lat="43.00113833" lon="-1.20864833">
        <ele>838.0</ele>
        <time>2019-07-31T17:51:42.148Z</time>
      </trkpt>
      <trkpt lat="43.00113667" lon="-1.20866667">
        <ele>838.0</ele>
        <time>2019-07-31T17:51:43.152Z</time>
      </trkpt>
      <trkpt lat="43.001135" lon="-1.20868167">
        <ele>838.0</ele>
        <time>2019-07-31T17:51:44.159Z</time>
      </trkpt>
      <trkpt lat="43.00113" lon="-1.20869167">
        <ele>837.0</ele>
        <time>2019-07-31T17:51:45.163Z</time>
      </trkpt>
      <trkpt lat="43.00112333" lon="-1.20870333">
        <ele>837.0</ele>
        <time>2019-07-31T17:51:46.170Z</time>
      </trkpt>
      <trkpt lat="43.001115" lon="-1.20872167">
        <ele>837.0</ele>
        <time>2019-07-31T17:51:47.176Z</time>
      </trkpt>
      <trkpt lat="43.00111333" lon="-1.20873833">
        <ele>836.0</ele>
        <time>2019-07-31T17:51:48.182Z</time>
      </trkpt>
      <trkpt lat="43.00111333" lon="-1.20873833">
        <ele>836.0</ele>
        <time>2019-07-31T17:51:49.061Z</time>
      </trkpt>
      <trkpt lat="43.00111167" lon="-1.208755">
        <ele>836.0</ele>
        <time>2019-07-31T17:51:50.065Z</time>
      </trkpt>
      <trkpt lat="43.00111" lon="-1.20877">
        <ele>836.0</ele>
        <time>2019-07-31T17:51:51.072Z</time>
      </trkpt>
      <trkpt lat="43.00110833" lon="-1.20878333">
        <ele>836.0</ele>
        <time>2019-07-31T17:51:52.076Z</time>
      </trkpt>
      <trkpt lat="43.00110833" lon="-1.20879667">
        <ele>836.0</ele>
        <time>2019-07-31T17:51:53.080Z</time>
      </trkpt>
      <trkpt lat="43.00111" lon="-1.20880333">
        <ele>836.0</ele>
        <time>2019-07-31T17:51:54.086Z</time>
      </trkpt>
      <trkpt lat="43.00111333" lon="-1.20880667">
        <ele>835.0</ele>
        <time>2019-07-31T17:51:55.091Z</time>
      </trkpt>
      <trkpt lat="43.001115" lon="-1.208815">
        <ele>835.0</ele>
        <time>2019-07-31T17:51:56.095Z</time>
      </trkpt>
      <trkpt lat="43.00111667" lon="-1.20882667">
        <ele>835.0</ele>
        <time>2019-07-31T17:51:57.101Z</time>
      </trkpt>
      <trkpt lat="43.00112" lon="-1.20883667">
        <ele>834.0</ele>
        <time>2019-07-31T17:51:58.107Z</time>
      </trkpt>
      <trkpt lat="43.00112" lon="-1.20884833">
        <ele>833.0</ele>
        <time>2019-07-31T17:51:59.112Z</time>
      </trkpt>
      <trkpt lat="43.00111667" lon="-1.20885833">
        <ele>833.0</ele>
        <time>2019-07-31T17:52:00.116Z</time>
      </trkpt>
      <trkpt lat="43.00111167" lon="-1.20886833">
        <ele>833.0</ele>
        <time>2019-07-31T17:52:01.121Z</time>
      </trkpt>
      <trkpt lat="43.00110667" lon="-1.20888">
        <ele>832.0</ele>
        <time>2019-07-31T17:52:02.125Z</time>
      </trkpt>
      <trkpt lat="43.0011" lon="-1.20889667">
        <ele>832.0</ele>
        <time>2019-07-31T17:52:03.130Z</time>
      </trkpt>
      <trkpt lat="43.00109333" lon="-1.20891">
        <ele>832.0</ele>
        <time>2019-07-31T17:52:04.135Z</time>
      </trkpt>
      <trkpt lat="43.001085" lon="-1.20891833">
        <ele>832.0</ele>
        <time>2019-07-31T17:52:05.139Z</time>
      </trkpt>
      <trkpt lat="43.001075" lon="-1.20892167">
        <ele>832.0</ele>
        <time>2019-07-31T17:52:06.145Z</time>
      </trkpt>
      <trkpt lat="43.00105667" lon="-1.20892667">
        <ele>832.0</ele>
        <time>2019-07-31T17:52:07.152Z</time>
      </trkpt>
      <trkpt lat="43.00105333" lon="-1.20892333">
        <ele>832.0</ele>
        <time>2019-07-31T17:52:08.157Z</time>
      </trkpt>
      <trkpt lat="43.00105333" lon="-1.20892167">
        <ele>833.0</ele>
        <time>2019-07-31T17:52:09.162Z</time>
      </trkpt>
      <trkpt lat="43.001055" lon="-1.20891667">
        <ele>833.0</ele>
        <time>2019-07-31T17:52:10.166Z</time>
      </trkpt>
      <trkpt lat="43.001055" lon="-1.20891167">
        <ele>834.0</ele>
        <time>2019-07-31T17:52:11.171Z</time>
      </trkpt>
      <trkpt lat="43.001055" lon="-1.20890333">
        <ele>835.0</ele>
        <time>2019-07-31T17:52:12.176Z</time>
      </trkpt>
      <trkpt lat="43.00105333" lon="-1.20889667">
        <ele>836.0</ele>
        <time>2019-07-31T17:52:13.182Z</time>
      </trkpt>
      <trkpt lat="43.00105333" lon="-1.20889667">
        <ele>836.0</ele>
        <time>2019-07-31T17:52:14.063Z</time>
      </trkpt>
      <trkpt lat="43.00105167" lon="-1.20888833">
        <ele>836.0</ele>
        <time>2019-07-31T17:52:15.069Z</time>
      </trkpt>
      <trkpt lat="43.00105" lon="-1.20888167">
        <ele>837.0</ele>
        <time>2019-07-31T17:52:16.075Z</time>
      </trkpt>
      <trkpt lat="43.00104667" lon="-1.208875">
        <ele>838.0</ele>
        <time>2019-07-31T17:52:17.081Z</time>
      </trkpt>
      <trkpt lat="43.00104667" lon="-1.20886833">
        <ele>838.0</ele>
        <time>2019-07-31T17:52:18.085Z</time>
      </trkpt>
      <trkpt lat="43.00105" lon="-1.20886167">
        <ele>838.0</ele>
        <time>2019-07-31T17:52:19.091Z</time>
      </trkpt>
      <trkpt lat="43.00105167" lon="-1.208855">
        <ele>839.0</ele>
        <time>2019-07-31T17:52:20.097Z</time>
      </trkpt>
      <trkpt lat="43.00105" lon="-1.20885">
        <ele>839.0</ele>
        <time>2019-07-31T17:52:21.102Z</time>
      </trkpt>
      <trkpt lat="43.00104833" lon="-1.20885333">
        <ele>839.0</ele>
        <time>2019-07-31T17:52:22.107Z</time>
      </trkpt>
      <trkpt lat="43.001045" lon="-1.208865">
        <ele>839.0</ele>
        <time>2019-07-31T17:52:23.111Z</time>
      </trkpt>
      <trkpt lat="43.00104" lon="-1.20887833">
        <ele>839.0</ele>
        <time>2019-07-31T17:52:24.115Z</time>
      </trkpt>
      <trkpt lat="43.00103833" lon="-1.20889167">
        <ele>839.0</ele>
        <time>2019-07-31T17:52:25.121Z</time>
      </trkpt>
      <trkpt lat="43.00103667" lon="-1.20891667">
        <ele>838.0</ele>
        <time>2019-07-31T17:52:26.126Z</time>
      </trkpt>
      <trkpt lat="43.00103833" lon="-1.20894">
        <ele>837.0</ele>
        <time>2019-07-31T17:52:27.132Z</time>
      </trkpt>
      <trkpt lat="43.00103667" lon="-1.208955">
        <ele>838.0</ele>
        <time>2019-07-31T17:52:28.133Z</time>
      </trkpt>
      <trkpt lat="43.001035" lon="-1.20897167">
        <ele>838.0</ele>
        <time>2019-07-31T17:52:29.138Z</time>
      </trkpt>
      <trkpt lat="43.00103333" lon="-1.209005">
        <ele>837.0</ele>
        <time>2019-07-31T17:52:30.142Z</time>
      </trkpt>
      <trkpt lat="43.00103167" lon="-1.20901833">
        <ele>837.0</ele>
        <time>2019-07-31T17:52:31.147Z</time>
      </trkpt>
      <trkpt lat="43.00102667" lon="-1.20903167">
        <ele>836.0</ele>
        <time>2019-07-31T17:52:32.152Z</time>
      </trkpt>
      <trkpt lat="43.00102" lon="-1.20904167">
        <ele>835.0</ele>
        <time>2019-07-31T17:52:33.155Z</time>
      </trkpt>
      <trkpt lat="43.00101667" lon="-1.20905333">
        <ele>835.0</ele>
        <time>2019-07-31T17:52:34.160Z</time>
      </trkpt>
      <trkpt lat="43.00102167" lon="-1.20905667">
        <ele>834.0</ele>
        <time>2019-07-31T17:52:35.167Z</time>
      </trkpt>
      <trkpt lat="43.00101833" lon="-1.20905667">
        <ele>835.0</ele>
        <time>2019-07-31T17:52:36.174Z</time>
      </trkpt>
      <trkpt lat="43.00101667" lon="-1.209055">
        <ele>836.0</ele>
        <time>2019-07-31T17:52:37.179Z</time>
      </trkpt>
      <trkpt lat="43.001015" lon="-1.20905333">
        <ele>837.0</ele>
        <time>2019-07-31T17:52:38.185Z</time>
      </trkpt>
      <trkpt lat="43.001015" lon="-1.20905333">
        <ele>837.0</ele>
        <time>2019-07-31T17:52:39.066Z</time>
      </trkpt>
      <trkpt lat="43.00101333" lon="-1.20905">
        <ele>837.0</ele>
        <time>2019-07-31T17:52:40.073Z</time>
      </trkpt>
      <trkpt lat="43.00101333" lon="-1.20904667">
        <ele>838.0</ele>
        <time>2019-07-31T17:52:41.078Z</time>
      </trkpt>
      <trkpt lat="43.00101167" lon="-1.20904333">
        <ele>839.0</ele>
        <time>2019-07-31T17:52:42.085Z</time>
      </trkpt>
      <trkpt lat="43.00101167" lon="-1.20903833">
        <ele>839.0</ele>
        <time>2019-07-31T17:52:43.090Z</time>
      </trkpt>
      <trkpt lat="43.00101333" lon="-1.20903333">
        <ele>840.0</ele>
        <time>2019-07-31T17:52:44.094Z</time>
      </trkpt>
      <trkpt lat="43.00102" lon="-1.20903">
        <ele>840.0</ele>
        <time>2019-07-31T17:52:45.098Z</time>
      </trkpt>
      <trkpt lat="43.001025" lon="-1.20902333">
        <ele>840.0</ele>
        <time>2019-07-31T17:52:46.105Z</time>
      </trkpt>
      <trkpt lat="43.00103" lon="-1.209015">
        <ele>840.0</ele>
        <time>2019-07-31T17:52:47.109Z</time>
      </trkpt>
      <trkpt lat="43.00103167" lon="-1.20900333">
        <ele>840.0</ele>
        <time>2019-07-31T17:52:48.115Z</time>
      </trkpt>
      <trkpt lat="43.00103333" lon="-1.20898667">
        <ele>840.0</ele>
        <time>2019-07-31T17:52:49.121Z</time>
      </trkpt>
      <trkpt lat="43.001035" lon="-1.20896667">
        <ele>840.0</ele>
        <time>2019-07-31T17:52:50.127Z</time>
      </trkpt>
      <trkpt lat="43.001035" lon="-1.20895167">
        <ele>839.0</ele>
        <time>2019-07-31T17:52:51.133Z</time>
      </trkpt>
      <trkpt lat="43.00103667" lon="-1.20893833">
        <ele>838.0</ele>
        <time>2019-07-31T17:52:52.136Z</time>
      </trkpt>
      <trkpt lat="43.00103833" lon="-1.20892667">
        <ele>838.0</ele>
        <time>2019-07-31T17:52:53.140Z</time>
      </trkpt>
      <trkpt lat="43.00104" lon="-1.20889">
        <ele>837.0</ele>
        <time>2019-07-31T17:52:54.143Z</time>
      </trkpt>
      <trkpt lat="43.00103333" lon="-1.208875">
        <ele>836.0</ele>
        <time>2019-07-31T17:52:55.148Z</time>
      </trkpt>
      <trkpt lat="43.00102833" lon="-1.20886833">
        <ele>836.0</ele>
        <time>2019-07-31T17:52:56.154Z</time>
      </trkpt>
      <trkpt lat="43.001025" lon="-1.20885833">
        <ele>835.0</ele>
        <time>2019-07-31T17:52:57.160Z</time>
      </trkpt>
      <trkpt lat="43.00101833" lon="-1.20884667">
        <ele>835.0</ele>
        <time>2019-07-31T17:52:58.166Z</time>
      </trkpt>
      <trkpt lat="43.001015" lon="-1.20884333">
        <ele>835.0</ele>
        <time>2019-07-31T17:52:59.173Z</time>
      </trkpt>
      <trkpt lat="43.00101167" lon="-1.20884333">
        <ele>835.0</ele>
        <time>2019-07-31T17:53:00.179Z</time>
      </trkpt>
      <trkpt lat="43.00101" lon="-1.20883833">
        <ele>836.0</ele>
        <time>2019-07-31T17:53:01.185Z</time>
      </trkpt>
      <trkpt lat="43.00101" lon="-1.20883833">
        <ele>836.0</ele>
        <time>2019-07-31T17:53:02.065Z</time>
      </trkpt>
      <trkpt lat="43.00101167" lon="-1.20883667">
        <ele>836.0</ele>
        <time>2019-07-31T17:53:03.071Z</time>
      </trkpt>
      <trkpt lat="43.00101333" lon="-1.20883333">
        <ele>836.0</ele>
        <time>2019-07-31T17:53:04.076Z</time>
      </trkpt>
      <trkpt lat="43.001015" lon="-1.20883333">
        <ele>837.0</ele>
        <time>2019-07-31T17:53:05.082Z</time>
      </trkpt>
      <trkpt lat="43.00101167" lon="-1.20884167">
        <ele>837.0</ele>
        <time>2019-07-31T17:53:06.089Z</time>
      </trkpt>
      <trkpt lat="43.00100833" lon="-1.20884667">
        <ele>837.0</ele>
        <time>2019-07-31T17:53:07.094Z</time>
      </trkpt>
      <trkpt lat="43.00126" lon="-1.20801167">
        <ele>862.0</ele>
        <time>2019-08-01T05:34:53.992Z</time>
      </trkpt>
      <trkpt lat="43.00119" lon="-1.20788667">
        <ele>839.0</ele>
        <time>2019-08-01T05:34:54.997Z</time>
      </trkpt>
      <trkpt lat="43.00119167" lon="-1.20783833">
        <ele>834.0</ele>
        <time>2019-08-01T05:34:57.008Z</time>
      </trkpt>
      <trkpt lat="43.00119333" lon="-1.20781">
        <ele>832.0</ele>
        <time>2019-08-01T05:34:58.015Z</time>
      </trkpt>
      <trkpt lat="43.00118833" lon="-1.207795">
        <ele>832.0</ele>
        <time>2019-08-01T05:34:59.019Z</time>
      </trkpt>
      <trkpt lat="43.00119333" lon="-1.20779667">
        <ele>831.0</ele>
        <time>2019-08-01T05:35:00.025Z</time>
      </trkpt>
      <trkpt lat="43.00120333" lon="-1.207775">
        <ele>831.0</ele>
        <time>2019-08-01T05:35:01.030Z</time>
      </trkpt>
      <trkpt lat="43.00121667" lon="-1.207755">
        <ele>831.0</ele>
        <time>2019-08-01T05:35:02.033Z</time>
      </trkpt>
      <trkpt lat="43.00122667" lon="-1.207735">
        <ele>831.0</ele>
        <time>2019-08-01T05:35:03.038Z</time>
      </trkpt>
      <trkpt lat="43.001235" lon="-1.20772">
        <ele>831.0</ele>
        <time>2019-08-01T05:35:04.043Z</time>
      </trkpt>
      <trkpt lat="43.00124333" lon="-1.20770333">
        <ele>831.0</ele>
        <time>2019-08-01T05:35:04.924Z</time>
      </trkpt>
      <trkpt lat="43.00124667" lon="-1.20768833">
        <ele>831.0</ele>
        <time>2019-08-01T05:35:05.931Z</time>
      </trkpt>
      <trkpt lat="43.00125167" lon="-1.20766833">
        <ele>831.0</ele>
        <time>2019-08-01T05:35:06.938Z</time>
      </trkpt>
      <trkpt lat="43.00126" lon="-1.20765">
        <ele>831.0</ele>
        <time>2019-08-01T05:35:07.945Z</time>
      </trkpt>
      <trkpt lat="43.00126667" lon="-1.20763333">
        <ele>831.0</ele>
        <time>2019-08-01T05:35:08.951Z</time>
      </trkpt>
      <trkpt lat="43.00126833" lon="-1.207615">
        <ele>831.0</ele>
        <time>2019-08-01T05:35:09.957Z</time>
      </trkpt>
      <trkpt lat="43.00127333" lon="-1.207595">
        <ele>831.0</ele>
        <time>2019-08-01T05:35:10.961Z</time>
      </trkpt>
      <trkpt lat="43.00127833" lon="-1.207575">
        <ele>831.0</ele>
        <time>2019-08-01T05:35:11.969Z</time>
      </trkpt>
      <trkpt lat="43.00128333" lon="-1.20755833">
        <ele>831.0</ele>
        <time>2019-08-01T05:35:12.976Z</time>
      </trkpt>
      <trkpt lat="43.00128333" lon="-1.20754">
        <ele>832.0</ele>
        <time>2019-08-01T05:35:13.981Z</time>
      </trkpt>
      <trkpt lat="43.00128833" lon="-1.20752333">
        <ele>832.0</ele>
        <time>2019-08-01T05:35:14.987Z</time>
      </trkpt>
      <trkpt lat="43.00129167" lon="-1.207505">
        <ele>832.0</ele>
        <time>2019-08-01T05:35:15.992Z</time>
      </trkpt>
      <trkpt lat="43.001295" lon="-1.20748833">
        <ele>832.0</ele>
        <time>2019-08-01T05:35:16.997Z</time>
      </trkpt>
      <trkpt lat="43.00129833" lon="-1.20747">
        <ele>832.0</ele>
        <time>2019-08-01T05:35:18.002Z</time>
      </trkpt>
      <trkpt lat="43.00130333" lon="-1.20745167">
        <ele>832.0</ele>
        <time>2019-08-01T05:35:19.009Z</time>
      </trkpt>
      <trkpt lat="43.00130667" lon="-1.20743333">
        <ele>832.0</ele>
        <time>2019-08-01T05:35:20.015Z</time>
      </trkpt>
      <trkpt lat="43.00131333" lon="-1.20741667">
        <ele>832.0</ele>
        <time>2019-08-01T05:35:21.021Z</time>
      </trkpt>
      <trkpt lat="43.00132" lon="-1.2074">
        <ele>832.0</ele>
        <time>2019-08-01T05:35:22.024Z</time>
      </trkpt>
      <trkpt lat="43.00132833" lon="-1.20738333">
        <ele>832.0</ele>
        <time>2019-08-01T05:35:23.029Z</time>
      </trkpt>
      <trkpt lat="43.001335" lon="-1.20736667">
        <ele>832.0</ele>
        <time>2019-08-01T05:35:24.035Z</time>
      </trkpt>
      <trkpt lat="43.00134167" lon="-1.20734667">
        <ele>832.0</ele>
        <time>2019-08-01T05:35:25.039Z</time>
      </trkpt>
      <trkpt lat="43.00134667" lon="-1.20732833">
        <ele>832.0</ele>
        <time>2019-08-01T05:35:25.918Z</time>
      </trkpt>
      <trkpt lat="43.00134833" lon="-1.20731">
        <ele>832.0</ele>
        <time>2019-08-01T05:35:26.923Z</time>
      </trkpt>
      <trkpt lat="43.00135167" lon="-1.20729167">
        <ele>833.0</ele>
        <time>2019-08-01T05:35:27.929Z</time>
      </trkpt>
      <trkpt lat="43.00135667" lon="-1.20727333">
        <ele>833.0</ele>
        <time>2019-08-01T05:35:28.936Z</time>
      </trkpt>
      <trkpt lat="43.00136" lon="-1.20725333">
        <ele>833.0</ele>
        <time>2019-08-01T05:35:29.941Z</time>
      </trkpt>
      <trkpt lat="43.00136" lon="-1.207235">
        <ele>833.0</ele>
        <time>2019-08-01T05:35:30.946Z</time>
      </trkpt>
      <trkpt lat="43.00136667" lon="-1.20721833">
        <ele>833.0</ele>
        <time>2019-08-01T05:35:31.953Z</time>
      </trkpt>
      <trkpt lat="43.00137" lon="-1.2072">
        <ele>834.0</ele>
        <time>2019-08-01T05:35:32.958Z</time>
      </trkpt>
      <trkpt lat="43.001375" lon="-1.20718333">
        <ele>834.0</ele>
        <time>2019-08-01T05:35:33.963Z</time>
      </trkpt>
      <trkpt lat="43.00138333" lon="-1.207165">
        <ele>834.0</ele>
        <time>2019-08-01T05:35:34.968Z</time>
      </trkpt>
      <trkpt lat="43.00138667" lon="-1.207145">
        <ele>834.0</ele>
        <time>2019-08-01T05:35:35.973Z</time>
      </trkpt>
      <trkpt lat="43.00139" lon="-1.207125">
        <ele>834.0</ele>
        <time>2019-08-01T05:35:36.977Z</time>
      </trkpt>
      <trkpt lat="43.001395" lon="-1.20710833">
        <ele>834.0</ele>
        <time>2019-08-01T05:35:37.985Z</time>
      </trkpt>
      <trkpt lat="43.0014" lon="-1.20709">
        <ele>835.0</ele>
        <time>2019-08-01T05:35:38.991Z</time>
      </trkpt>
      <trkpt lat="43.001405" lon="-1.20707167">
        <ele>835.0</ele>
        <time>2019-08-01T05:35:39.997Z</time>
      </trkpt>
      <trkpt lat="43.00141" lon="-1.20705333">
        <ele>835.0</ele>
        <time>2019-08-01T05:35:41.003Z</time>
      </trkpt>
      <trkpt lat="43.00141" lon="-1.207035">
        <ele>835.0</ele>
        <time>2019-08-01T05:35:42.009Z</time>
      </trkpt>
      <trkpt lat="43.00141667" lon="-1.20701833">
        <ele>835.0</ele>
        <time>2019-08-01T05:35:43.015Z</time>
      </trkpt>
      <trkpt lat="43.00142" lon="-1.20700167">
        <ele>835.0</ele>
        <time>2019-08-01T05:35:44.020Z</time>
      </trkpt>
      <trkpt lat="43.001425" lon="-1.20698333">
        <ele>835.0</ele>
        <time>2019-08-01T05:35:45.025Z</time>
      </trkpt>
      <trkpt lat="43.00142667" lon="-1.20697">
        <ele>836.0</ele>
        <time>2019-08-01T05:35:46.032Z</time>
      </trkpt>
      <trkpt lat="43.00142833" lon="-1.206955">
        <ele>836.0</ele>
        <time>2019-08-01T05:35:47.039Z</time>
      </trkpt>
      <trkpt lat="43.00143167" lon="-1.206935">
        <ele>836.0</ele>
        <time>2019-08-01T05:35:47.919Z</time>
      </trkpt>
      <trkpt lat="43.00143667" lon="-1.20691667">
        <ele>837.0</ele>
        <time>2019-08-01T05:35:48.926Z</time>
      </trkpt>
      <trkpt lat="43.00143833" lon="-1.20689833">
        <ele>837.0</ele>
        <time>2019-08-01T05:35:49.933Z</time>
      </trkpt>
      <trkpt lat="43.00143833" lon="-1.20687833">
        <ele>838.0</ele>
        <time>2019-08-01T05:35:50.938Z</time>
      </trkpt>
      <trkpt lat="43.00143667" lon="-1.20686">
        <ele>838.0</ele>
        <time>2019-08-01T05:35:51.945Z</time>
      </trkpt>
      <trkpt lat="43.001435" lon="-1.20684">
        <ele>838.0</ele>
        <time>2019-08-01T05:35:52.950Z</time>
      </trkpt>
      <trkpt lat="43.001435" lon="-1.20682">
        <ele>838.0</ele>
        <time>2019-08-01T05:35:53.957Z</time>
      </trkpt>
      <trkpt lat="43.00143833" lon="-1.2068">
        <ele>838.0</ele>
        <time>2019-08-01T05:35:54.962Z</time>
      </trkpt>
      <trkpt lat="43.00144167" lon="-1.20678333">
        <ele>838.0</ele>
        <time>2019-08-01T05:35:55.965Z</time>
      </trkpt>
      <trkpt lat="43.00144667" lon="-1.20676333">
        <ele>838.0</ele>
        <time>2019-08-01T05:35:56.971Z</time>
      </trkpt>
      <trkpt lat="43.00145167" lon="-1.206745">
        <ele>838.0</ele>
        <time>2019-08-01T05:35:57.978Z</time>
      </trkpt>
      <trkpt lat="43.00145667" lon="-1.206725">
        <ele>838.0</ele>
        <time>2019-08-01T05:35:58.986Z</time>
      </trkpt>
      <trkpt lat="43.001465" lon="-1.20670833">
        <ele>838.0</ele>
        <time>2019-08-01T05:35:59.992Z</time>
      </trkpt>
      <trkpt lat="43.00147167" lon="-1.20669">
        <ele>839.0</ele>
        <time>2019-08-01T05:36:00.999Z</time>
      </trkpt>
      <trkpt lat="43.001475" lon="-1.20667167">
        <ele>840.0</ele>
        <time>2019-08-01T05:36:02.004Z</time>
      </trkpt>
      <trkpt lat="43.001475" lon="-1.20665167">
        <ele>840.0</ele>
        <time>2019-08-01T05:36:03.010Z</time>
      </trkpt>
      <trkpt lat="43.001475" lon="-1.20663333">
        <ele>841.0</ele>
        <time>2019-08-01T05:36:04.016Z</time>
      </trkpt>
      <trkpt lat="43.00148" lon="-1.206605">
        <ele>840.0</ele>
        <time>2019-08-01T05:36:05.022Z</time>
      </trkpt>
      <trkpt lat="43.00148667" lon="-1.20658667">
        <ele>840.0</ele>
        <time>2019-08-01T05:36:06.029Z</time>
      </trkpt>
      <trkpt lat="43.001495" lon="-1.20657">
        <ele>840.0</ele>
        <time>2019-08-01T05:36:07.034Z</time>
      </trkpt>
      <trkpt lat="43.0015" lon="-1.20655333">
        <ele>840.0</ele>
        <time>2019-08-01T05:36:08.040Z</time>
      </trkpt>
      <trkpt lat="43.00150333" lon="-1.20653833">
        <ele>841.0</ele>
        <time>2019-08-01T05:36:08.920Z</time>
      </trkpt>
      <trkpt lat="43.00151" lon="-1.20651667">
        <ele>841.0</ele>
        <time>2019-08-01T05:36:09.925Z</time>
      </trkpt>
      <trkpt lat="43.00151333" lon="-1.20649667">
        <ele>841.0</ele>
        <time>2019-08-01T05:36:10.931Z</time>
      </trkpt>
      <trkpt lat="43.00151167" lon="-1.20647833">
        <ele>841.0</ele>
        <time>2019-08-01T05:36:11.937Z</time>
      </trkpt>
      <trkpt lat="43.00151333" lon="-1.20646">
        <ele>842.0</ele>
        <time>2019-08-01T05:36:12.943Z</time>
      </trkpt>
      <trkpt lat="43.00151333" lon="-1.20644333">
        <ele>842.0</ele>
        <time>2019-08-01T05:36:13.948Z</time>
      </trkpt>
      <trkpt lat="43.001515" lon="-1.20643167">
        <ele>842.0</ele>
        <time>2019-08-01T05:36:14.953Z</time>
      </trkpt>
      <trkpt lat="43.00151833" lon="-1.20642167">
        <ele>842.0</ele>
        <time>2019-08-01T05:36:15.958Z</time>
      </trkpt>
      <trkpt lat="43.00152" lon="-1.20641333">
        <ele>842.0</ele>
        <time>2019-08-01T05:36:16.961Z</time>
      </trkpt>
      <trkpt lat="43.00152333" lon="-1.206405">
        <ele>842.0</ele>
        <time>2019-08-01T05:36:17.965Z</time>
      </trkpt>
      <trkpt lat="43.00152667" lon="-1.206395">
        <ele>842.0</ele>
        <time>2019-08-01T05:36:18.972Z</time>
      </trkpt>
      <trkpt lat="43.00153167" lon="-1.20638333">
        <ele>842.0</ele>
        <time>2019-08-01T05:36:19.978Z</time>
      </trkpt>
      <trkpt lat="43.001535" lon="-1.20636833">
        <ele>842.0</ele>
        <time>2019-08-01T05:36:20.985Z</time>
      </trkpt>
      <trkpt lat="43.00154333" lon="-1.20635333">
        <ele>842.0</ele>
        <time>2019-08-01T05:36:21.993Z</time>
      </trkpt>
      <trkpt lat="43.00155" lon="-1.20634">
        <ele>843.0</ele>
        <time>2019-08-01T05:36:22.998Z</time>
      </trkpt>
      <trkpt lat="43.00155667" lon="-1.206325">
        <ele>843.0</ele>
        <time>2019-08-01T05:36:24.002Z</time>
      </trkpt>
      <trkpt lat="43.00156333" lon="-1.20631">
        <ele>843.0</ele>
        <time>2019-08-01T05:36:25.007Z</time>
      </trkpt>
      <trkpt lat="43.00156833" lon="-1.20629667">
        <ele>843.0</ele>
        <time>2019-08-01T05:36:26.013Z</time>
      </trkpt>
      <trkpt lat="43.001575" lon="-1.20628167">
        <ele>843.0</ele>
        <time>2019-08-01T05:36:27.018Z</time>
      </trkpt>
      <trkpt lat="43.00158167" lon="-1.206265">
        <ele>844.0</ele>
        <time>2019-08-01T05:36:28.025Z</time>
      </trkpt>
      <trkpt lat="43.00158833" lon="-1.20625">
        <ele>844.0</ele>
        <time>2019-08-01T05:36:29.031Z</time>
      </trkpt>
      <trkpt lat="43.00159667" lon="-1.206235">
        <ele>845.0</ele>
        <time>2019-08-01T05:36:30.037Z</time>
      </trkpt>
      <trkpt lat="43.00160333" lon="-1.20622">
        <ele>845.0</ele>
        <time>2019-08-01T05:36:31.041Z</time>
      </trkpt>
      <trkpt lat="43.00161167" lon="-1.206205">
        <ele>845.0</ele>
        <time>2019-08-01T05:36:31.922Z</time>
      </trkpt>
      <trkpt lat="43.00161833" lon="-1.20618833">
        <ele>846.0</ele>
        <time>2019-08-01T05:36:32.928Z</time>
      </trkpt>
      <trkpt lat="43.001625" lon="-1.20617167">
        <ele>846.0</ele>
        <time>2019-08-01T05:36:33.934Z</time>
      </trkpt>
      <trkpt lat="43.00163167" lon="-1.206155">
        <ele>846.0</ele>
        <time>2019-08-01T05:36:34.940Z</time>
      </trkpt>
      <trkpt lat="43.00164" lon="-1.20614">
        <ele>846.0</ele>
        <time>2019-08-01T05:36:35.945Z</time>
      </trkpt>
      <trkpt lat="43.00164667" lon="-1.20612333">
        <ele>846.0</ele>
        <time>2019-08-01T05:36:36.952Z</time>
      </trkpt>
      <trkpt lat="43.00165333" lon="-1.20610667">
        <ele>846.0</ele>
        <time>2019-08-01T05:36:37.958Z</time>
      </trkpt>
      <trkpt lat="43.00166" lon="-1.20609">
        <ele>846.0</ele>
        <time>2019-08-01T05:36:38.963Z</time>
      </trkpt>
      <trkpt lat="43.001665" lon="-1.20607167">
        <ele>846.0</ele>
        <time>2019-08-01T05:36:39.968Z</time>
      </trkpt>
      <trkpt lat="43.00167167" lon="-1.206055">
        <ele>846.0</ele>
        <time>2019-08-01T05:36:40.974Z</time>
      </trkpt>
      <trkpt lat="43.00167667" lon="-1.20604167">
        <ele>846.0</ele>
        <time>2019-08-01T05:36:41.980Z</time>
      </trkpt>
      <trkpt lat="43.00168667" lon="-1.20602">
        <ele>846.0</ele>
        <time>2019-08-01T05:36:42.987Z</time>
      </trkpt>
      <trkpt lat="43.00169333" lon="-1.20600333">
        <ele>846.0</ele>
        <time>2019-08-01T05:36:43.992Z</time>
      </trkpt>
      <trkpt lat="43.00170167" lon="-1.20598833">
        <ele>846.0</ele>
        <time>2019-08-01T05:36:44.997Z</time>
      </trkpt>
      <trkpt lat="43.00170833" lon="-1.20597333">
        <ele>846.0</ele>
        <time>2019-08-01T05:36:46.002Z</time>
      </trkpt>
      <trkpt lat="43.00171667" lon="-1.205955">
        <ele>846.0</ele>
        <time>2019-08-01T05:36:47.009Z</time>
      </trkpt>
      <trkpt lat="43.00172333" lon="-1.20593833">
        <ele>846.0</ele>
        <time>2019-08-01T05:36:48.015Z</time>
      </trkpt>
      <trkpt lat="43.00173167" lon="-1.20592167">
        <ele>847.0</ele>
        <time>2019-08-01T05:36:49.022Z</time>
      </trkpt>
      <trkpt lat="43.00173833" lon="-1.205905">
        <ele>847.0</ele>
        <time>2019-08-01T05:36:50.028Z</time>
      </trkpt>
      <trkpt lat="43.001745" lon="-1.20589">
        <ele>847.0</ele>
        <time>2019-08-01T05:36:51.033Z</time>
      </trkpt>
      <trkpt lat="43.00175333" lon="-1.20587333">
        <ele>847.0</ele>
        <time>2019-08-01T05:36:52.039Z</time>
      </trkpt>
      <trkpt lat="43.00175833" lon="-1.20585833">
        <ele>847.0</ele>
        <time>2019-08-01T05:36:52.920Z</time>
      </trkpt>
      <trkpt lat="43.00176667" lon="-1.20584">
        <ele>847.0</ele>
        <time>2019-08-01T05:36:53.924Z</time>
      </trkpt>
      <trkpt lat="43.00177833" lon="-1.20582667">
        <ele>847.0</ele>
        <time>2019-08-01T05:36:54.929Z</time>
      </trkpt>
      <trkpt lat="43.00179" lon="-1.20581333">
        <ele>847.0</ele>
        <time>2019-08-01T05:36:55.934Z</time>
      </trkpt>
      <trkpt lat="43.00180333" lon="-1.20579833">
        <ele>847.0</ele>
        <time>2019-08-01T05:36:56.938Z</time>
      </trkpt>
      <trkpt lat="43.001815" lon="-1.205785">
        <ele>847.0</ele>
        <time>2019-08-01T05:36:57.944Z</time>
      </trkpt>
      <trkpt lat="43.00182667" lon="-1.20577333">
        <ele>847.0</ele>
        <time>2019-08-01T05:36:58.950Z</time>
      </trkpt>
      <trkpt lat="43.001835" lon="-1.20576333">
        <ele>847.0</ele>
        <time>2019-08-01T05:36:59.957Z</time>
      </trkpt>
      <trkpt lat="43.00184833" lon="-1.20574833">
        <ele>847.0</ele>
        <time>2019-08-01T05:37:00.962Z</time>
      </trkpt>
      <trkpt lat="43.00186" lon="-1.205735">
        <ele>848.0</ele>
        <time>2019-08-01T05:37:01.970Z</time>
      </trkpt>
      <trkpt lat="43.00186833" lon="-1.20572167">
        <ele>847.0</ele>
        <time>2019-08-01T05:37:02.976Z</time>
      </trkpt>
      <trkpt lat="43.00188" lon="-1.20570667">
        <ele>848.0</ele>
        <time>2019-08-01T05:37:03.981Z</time>
      </trkpt>
      <trkpt lat="43.00188833" lon="-1.20569333">
        <ele>848.0</ele>
        <time>2019-08-01T05:37:04.987Z</time>
      </trkpt>
      <trkpt lat="43.0019" lon="-1.20567833">
        <ele>847.0</ele>
        <time>2019-08-01T05:37:05.991Z</time>
      </trkpt>
      <trkpt lat="43.00191167" lon="-1.20566667">
        <ele>847.0</ele>
        <time>2019-08-01T05:37:06.998Z</time>
      </trkpt>
      <trkpt lat="43.00192333" lon="-1.205655">
        <ele>847.0</ele>
        <time>2019-08-01T05:37:08.004Z</time>
      </trkpt>
      <trkpt lat="43.001935" lon="-1.20564167">
        <ele>848.0</ele>
        <time>2019-08-01T05:37:09.009Z</time>
      </trkpt>
      <trkpt lat="43.00194667" lon="-1.20562833">
        <ele>848.0</ele>
        <time>2019-08-01T05:37:10.014Z</time>
      </trkpt>
      <trkpt lat="43.00195833" lon="-1.20561333">
        <ele>848.0</ele>
        <time>2019-08-01T05:37:11.021Z</time>
      </trkpt>
      <trkpt lat="43.00196667" lon="-1.20559667">
        <ele>848.0</ele>
        <time>2019-08-01T05:37:12.025Z</time>
      </trkpt>
      <trkpt lat="43.00197667" lon="-1.20558167">
        <ele>848.0</ele>
        <time>2019-08-01T05:37:13.030Z</time>
      </trkpt>
      <trkpt lat="43.00198667" lon="-1.205565">
        <ele>848.0</ele>
        <time>2019-08-01T05:37:14.037Z</time>
      </trkpt>
      <trkpt lat="43.00199833" lon="-1.20555">
        <ele>849.0</ele>
        <time>2019-08-01T05:37:15.042Z</time>
      </trkpt>
      <trkpt lat="43.002005" lon="-1.205535">
        <ele>849.0</ele>
        <time>2019-08-01T05:37:15.922Z</time>
      </trkpt>
      <trkpt lat="43.00201333" lon="-1.205515">
        <ele>849.0</ele>
        <time>2019-08-01T05:37:16.928Z</time>
      </trkpt>
      <trkpt lat="43.00202" lon="-1.20550167">
        <ele>850.0</ele>
        <time>2019-08-01T05:37:17.932Z</time>
      </trkpt>
      <trkpt lat="43.00203167" lon="-1.20549">
        <ele>850.0</ele>
        <time>2019-08-01T05:37:18.937Z</time>
      </trkpt>
      <trkpt lat="43.00204167" lon="-1.205475">
        <ele>851.0</ele>
        <time>2019-08-01T05:37:19.943Z</time>
      </trkpt>
      <trkpt lat="43.00205167" lon="-1.20546">
        <ele>851.0</ele>
        <time>2019-08-01T05:37:20.949Z</time>
      </trkpt>
      <trkpt lat="43.00206" lon="-1.20545">
        <ele>851.0</ele>
        <time>2019-08-01T05:37:21.954Z</time>
      </trkpt>
      <trkpt lat="43.00207" lon="-1.20543">
        <ele>851.0</ele>
        <time>2019-08-01T05:37:22.959Z</time>
      </trkpt>
      <trkpt lat="43.00208167" lon="-1.20541333">
        <ele>851.0</ele>
        <time>2019-08-01T05:37:23.966Z</time>
      </trkpt>
      <trkpt lat="43.00209167" lon="-1.205395">
        <ele>851.0</ele>
        <time>2019-08-01T05:37:24.973Z</time>
      </trkpt>
      <trkpt lat="43.00209833" lon="-1.20538333">
        <ele>851.0</ele>
        <time>2019-08-01T05:37:25.980Z</time>
      </trkpt>
      <trkpt lat="43.00210667" lon="-1.20536333">
        <ele>851.0</ele>
        <time>2019-08-01T05:37:26.987Z</time>
      </trkpt>
      <trkpt lat="43.00211333" lon="-1.205345">
        <ele>851.0</ele>
        <time>2019-08-01T05:37:27.993Z</time>
      </trkpt>
      <trkpt lat="43.00212" lon="-1.20532833">
        <ele>851.0</ele>
        <time>2019-08-01T05:37:28.999Z</time>
      </trkpt>
      <trkpt lat="43.00212667" lon="-1.20531">
        <ele>851.0</ele>
        <time>2019-08-01T05:37:30.005Z</time>
      </trkpt>
      <trkpt lat="43.00213167" lon="-1.205295">
        <ele>851.0</ele>
        <time>2019-08-01T05:37:31.011Z</time>
      </trkpt>
      <trkpt lat="43.00213333" lon="-1.20527167">
        <ele>850.0</ele>
        <time>2019-08-01T05:37:32.017Z</time>
      </trkpt>
      <trkpt lat="43.002135" lon="-1.20525167">
        <ele>850.0</ele>
        <time>2019-08-01T05:37:33.024Z</time>
      </trkpt>
      <trkpt lat="43.00213667" lon="-1.20523167">
        <ele>850.0</ele>
        <time>2019-08-01T05:37:34.031Z</time>
      </trkpt>
      <trkpt lat="43.00213833" lon="-1.20521667">
        <ele>850.0</ele>
        <time>2019-08-01T05:37:35.038Z</time>
      </trkpt>
      <trkpt lat="43.00213667" lon="-1.205195">
        <ele>850.0</ele>
        <time>2019-08-01T05:37:35.918Z</time>
      </trkpt>
      <trkpt lat="43.00213167" lon="-1.205175">
        <ele>850.0</ele>
        <time>2019-08-01T05:37:36.923Z</time>
      </trkpt>
      <trkpt lat="43.002125" lon="-1.20515667">
        <ele>850.0</ele>
        <time>2019-08-01T05:37:37.929Z</time>
      </trkpt>
      <trkpt lat="43.00212" lon="-1.20514">
        <ele>850.0</ele>
        <time>2019-08-01T05:37:38.935Z</time>
      </trkpt>
      <trkpt lat="43.002115" lon="-1.20512333">
        <ele>850.0</ele>
        <time>2019-08-01T05:37:39.941Z</time>
      </trkpt>
      <trkpt lat="43.00211167" lon="-1.20511167">
        <ele>850.0</ele>
        <time>2019-08-01T05:37:40.946Z</time>
      </trkpt>
      <trkpt lat="43.00210833" lon="-1.20510167">
        <ele>851.0</ele>
        <time>2019-08-01T05:37:41.952Z</time>
      </trkpt>
      <trkpt lat="43.00210833" lon="-1.20509667">
        <ele>851.0</ele>
        <time>2019-08-01T05:37:42.958Z</time>
      </trkpt>
      <trkpt lat="43.00210667" lon="-1.20509167">
        <ele>851.0</ele>
        <time>2019-08-01T05:37:43.965Z</time>
      </trkpt>
      <trkpt lat="43.00210833" lon="-1.20508833">
        <ele>851.0</ele>
        <time>2019-08-01T05:37:44.970Z</time>
      </trkpt>
      <trkpt lat="43.00210667" lon="-1.20508333">
        <ele>851.0</ele>
        <time>2019-08-01T05:37:45.975Z</time>
      </trkpt>
      <trkpt lat="43.00210333" lon="-1.20507833">
        <ele>850.0</ele>
        <time>2019-08-01T05:37:46.984Z</time>
      </trkpt>
      <trkpt lat="43.00209833" lon="-1.20507333">
        <ele>849.0</ele>
        <time>2019-08-01T05:37:47.990Z</time>
      </trkpt>
      <trkpt lat="43.00210167" lon="-1.20507333">
        <ele>848.0</ele>
        <time>2019-08-01T05:37:48.995Z</time>
      </trkpt>
      <trkpt lat="43.00210667" lon="-1.20506667">
        <ele>848.0</ele>
        <time>2019-08-01T05:37:49.999Z</time>
      </trkpt>
      <trkpt lat="43.00211" lon="-1.20506167">
        <ele>847.0</ele>
        <time>2019-08-01T05:37:51.005Z</time>
      </trkpt>
      <trkpt lat="43.002115" lon="-1.20505833">
        <ele>847.0</ele>
        <time>2019-08-01T05:37:52.009Z</time>
      </trkpt>
      <trkpt lat="43.00212167" lon="-1.20506">
        <ele>847.0</ele>
        <time>2019-08-01T05:37:53.011Z</time>
      </trkpt>
      <trkpt lat="43.00213" lon="-1.20506">
        <ele>847.0</ele>
        <time>2019-08-01T05:37:54.018Z</time>
      </trkpt>
      <trkpt lat="43.00214" lon="-1.205065">
        <ele>847.0</ele>
        <time>2019-08-01T05:37:55.024Z</time>
      </trkpt>
      <trkpt lat="43.00214833" lon="-1.20507167">
        <ele>847.0</ele>
        <time>2019-08-01T05:37:56.027Z</time>
      </trkpt>
      <trkpt lat="43.00215667" lon="-1.20508167">
        <ele>847.0</ele>
        <time>2019-08-01T05:37:57.034Z</time>
      </trkpt>
      <trkpt lat="43.00216667" lon="-1.20509333">
        <ele>848.0</ele>
        <time>2019-08-01T05:37:58.039Z</time>
      </trkpt>
      <trkpt lat="43.002175" lon="-1.20510667">
        <ele>848.0</ele>
        <time>2019-08-01T05:37:58.919Z</time>
      </trkpt>
      <trkpt lat="43.002185" lon="-1.20511833">
        <ele>848.0</ele>
        <time>2019-08-01T05:37:59.925Z</time>
      </trkpt>
      <trkpt lat="43.00219833" lon="-1.20513167">
        <ele>848.0</ele>
        <time>2019-08-01T05:38:00.930Z</time>
      </trkpt>
      <trkpt lat="43.00220833" lon="-1.205145">
        <ele>848.0</ele>
        <time>2019-08-01T05:38:01.936Z</time>
      </trkpt>
      <trkpt lat="43.00222167" lon="-1.20515333">
        <ele>849.0</ele>
        <time>2019-08-01T05:38:02.943Z</time>
      </trkpt>
      <trkpt lat="43.00223167" lon="-1.20515833">
        <ele>849.0</ele>
        <time>2019-08-01T05:38:03.950Z</time>
      </trkpt>
      <trkpt lat="43.00224167" lon="-1.20516333">
        <ele>848.0</ele>
        <time>2019-08-01T05:38:04.954Z</time>
      </trkpt>
      <trkpt lat="43.00225667" lon="-1.20516667">
        <ele>849.0</ele>
        <time>2019-08-01T05:38:05.960Z</time>
      </trkpt>
      <trkpt lat="43.00226833" lon="-1.20516667">
        <ele>849.0</ele>
        <time>2019-08-01T05:38:06.967Z</time>
      </trkpt>
      <trkpt lat="43.00228" lon="-1.20516167">
        <ele>849.0</ele>
        <time>2019-08-01T05:38:07.975Z</time>
      </trkpt>
      <trkpt lat="43.00229333" lon="-1.20515333">
        <ele>849.0</ele>
        <time>2019-08-01T05:38:08.979Z</time>
      </trkpt>
      <trkpt lat="43.00230333" lon="-1.20514333">
        <ele>849.0</ele>
        <time>2019-08-01T05:38:09.985Z</time>
      </trkpt>
      <trkpt lat="43.00231167" lon="-1.20513667">
        <ele>849.0</ele>
        <time>2019-08-01T05:38:10.992Z</time>
      </trkpt>
      <trkpt lat="43.00232167" lon="-1.205125">
        <ele>849.0</ele>
        <time>2019-08-01T05:38:11.995Z</time>
      </trkpt>
      <trkpt lat="43.00233" lon="-1.20511167">
        <ele>849.0</ele>
        <time>2019-08-01T05:38:13.000Z</time>
      </trkpt>
      <trkpt lat="43.00234167" lon="-1.20510167">
        <ele>849.0</ele>
        <time>2019-08-01T05:38:14.007Z</time>
      </trkpt>
      <trkpt lat="43.00234833" lon="-1.20508833">
        <ele>850.0</ele>
        <time>2019-08-01T05:38:15.013Z</time>
      </trkpt>
      <trkpt lat="43.00235333" lon="-1.20507833">
        <ele>850.0</ele>
        <time>2019-08-01T05:38:16.019Z</time>
      </trkpt>
      <trkpt lat="43.002355" lon="-1.20507167">
        <ele>850.0</ele>
        <time>2019-08-01T05:38:17.024Z</time>
      </trkpt>
      <trkpt lat="43.00235667" lon="-1.20507167">
        <ele>850.0</ele>
        <time>2019-08-01T05:38:18.032Z</time>
      </trkpt>
      <trkpt lat="43.002355" lon="-1.20507167">
        <ele>850.0</ele>
        <time>2019-08-01T05:38:19.038Z</time>
      </trkpt>
      <trkpt lat="43.002355" lon="-1.20507167">
        <ele>850.0</ele>
        <time>2019-08-01T05:38:20.042Z</time>
      </trkpt>
      <trkpt lat="43.00235667" lon="-1.20507">
        <ele>850.0</ele>
        <time>2019-08-01T05:38:20.923Z</time>
      </trkpt>
      <trkpt lat="43.00235667" lon="-1.20507">
        <ele>850.0</ele>
        <time>2019-08-01T05:38:21.927Z</time>
      </trkpt>
      <trkpt lat="43.002355" lon="-1.20507">
        <ele>850.0</ele>
        <time>2019-08-01T05:38:22.932Z</time>
      </trkpt>
      <trkpt lat="43.00235167" lon="-1.20507">
        <ele>850.0</ele>
        <time>2019-08-01T05:38:23.936Z</time>
      </trkpt>
      <trkpt lat="43.00235" lon="-1.20507">
        <ele>850.0</ele>
        <time>2019-08-01T05:38:24.939Z</time>
      </trkpt>
      <trkpt lat="43.00234833" lon="-1.20507333">
        <ele>850.0</ele>
        <time>2019-08-01T05:38:25.944Z</time>
      </trkpt>
      <trkpt lat="43.00234667" lon="-1.20507667">
        <ele>849.0</ele>
        <time>2019-08-01T05:38:26.948Z</time>
      </trkpt>
      <trkpt lat="43.00234833" lon="-1.20508">
        <ele>849.0</ele>
        <time>2019-08-01T05:38:27.948Z</time>
      </trkpt>
      <trkpt lat="43.00234833" lon="-1.20508333">
        <ele>849.0</ele>
        <time>2019-08-01T05:38:28.951Z</time>
      </trkpt>
      <trkpt lat="43.00234833" lon="-1.205085">
        <ele>849.0</ele>
        <time>2019-08-01T05:38:29.957Z</time>
      </trkpt>
      <trkpt lat="43.00234667" lon="-1.20508833">
        <ele>850.0</ele>
        <time>2019-08-01T05:38:30.964Z</time>
      </trkpt>
      <trkpt lat="43.00234833" lon="-1.20509167">
        <ele>850.0</ele>
        <time>2019-08-01T05:38:31.970Z</time>
      </trkpt>
      <trkpt lat="43.00235333" lon="-1.20509333">
        <ele>850.0</ele>
        <time>2019-08-01T05:38:32.976Z</time>
      </trkpt>
      <trkpt lat="43.002355" lon="-1.20509833">
        <ele>850.0</ele>
        <time>2019-08-01T05:38:33.983Z</time>
      </trkpt>
      <trkpt lat="43.00235333" lon="-1.2051">
        <ele>850.0</ele>
        <time>2019-08-01T05:38:34.991Z</time>
      </trkpt>
      <trkpt lat="43.00235167" lon="-1.205095">
        <ele>850.0</ele>
        <time>2019-08-01T05:38:35.997Z</time>
      </trkpt>
      <trkpt lat="43.00235" lon="-1.205085">
        <ele>849.0</ele>
        <time>2019-08-01T05:38:37.003Z</time>
      </trkpt>
      <trkpt lat="43.00234667" lon="-1.205075">
        <ele>847.0</ele>
        <time>2019-08-01T05:38:38.010Z</time>
      </trkpt>
      <trkpt lat="43.002345" lon="-1.20507">
        <ele>847.0</ele>
        <time>2019-08-01T05:38:39.016Z</time>
      </trkpt>
      <trkpt lat="43.00234333" lon="-1.20506333">
        <ele>846.0</ele>
        <time>2019-08-01T05:38:40.021Z</time>
      </trkpt>
      <trkpt lat="43.00234" lon="-1.20506167">
        <ele>846.0</ele>
        <time>2019-08-01T05:38:41.028Z</time>
      </trkpt>
      <trkpt lat="43.00233667" lon="-1.205055">
        <ele>845.0</ele>
        <time>2019-08-01T05:38:42.030Z</time>
      </trkpt>
      <trkpt lat="43.00233167" lon="-1.20504667">
        <ele>843.0</ele>
        <time>2019-08-01T05:38:43.034Z</time>
      </trkpt>
      <trkpt lat="43.00232833" lon="-1.20504167">
        <ele>842.0</ele>
        <time>2019-08-01T05:38:44.040Z</time>
      </trkpt>
      <trkpt lat="43.00232667" lon="-1.20503667">
        <ele>841.0</ele>
        <time>2019-08-01T05:38:44.919Z</time>
      </trkpt>
      <trkpt lat="43.00233" lon="-1.20503833">
        <ele>840.0</ele>
        <time>2019-08-01T05:38:45.923Z</time>
      </trkpt>
      <trkpt lat="43.00233333" lon="-1.20504167">
        <ele>840.0</ele>
        <time>2019-08-01T05:38:46.929Z</time>
      </trkpt>
      <trkpt lat="43.00234" lon="-1.20504667">
        <ele>839.0</ele>
        <time>2019-08-01T05:38:47.936Z</time>
      </trkpt>
      <trkpt lat="43.00234333" lon="-1.20504833">
        <ele>839.0</ele>
        <time>2019-08-01T05:38:48.941Z</time>
      </trkpt>
      <trkpt lat="43.002345" lon="-1.20504667">
        <ele>838.0</ele>
        <time>2019-08-01T05:38:49.949Z</time>
      </trkpt>
      <trkpt lat="43.00234333" lon="-1.205045">
        <ele>838.0</ele>
        <time>2019-08-01T05:38:50.956Z</time>
      </trkpt>
      <trkpt lat="43.00234" lon="-1.20504167">
        <ele>837.0</ele>
        <time>2019-08-01T05:38:51.962Z</time>
      </trkpt>
      <trkpt lat="43.002335" lon="-1.20504">
        <ele>837.0</ele>
        <time>2019-08-01T05:38:52.967Z</time>
      </trkpt>
      <trkpt lat="43.00232833" lon="-1.20503167">
        <ele>836.0</ele>
        <time>2019-08-01T05:38:53.973Z</time>
      </trkpt>
      <trkpt lat="43.00232333" lon="-1.20503">
        <ele>836.0</ele>
        <time>2019-08-01T05:38:54.980Z</time>
      </trkpt>
      <trkpt lat="43.00231833" lon="-1.205025">
        <ele>836.0</ele>
        <time>2019-08-01T05:38:55.986Z</time>
      </trkpt>
      <trkpt lat="43.00231833" lon="-1.20502">
        <ele>836.0</ele>
        <time>2019-08-01T05:38:56.992Z</time>
      </trkpt>
      <trkpt lat="43.00231833" lon="-1.205015">
        <ele>836.0</ele>
        <time>2019-08-01T05:38:57.998Z</time>
      </trkpt>
      <trkpt lat="43.002315" lon="-1.20501333">
        <ele>836.0</ele>
        <time>2019-08-01T05:38:59.004Z</time>
      </trkpt>
      <trkpt lat="43.00231833" lon="-1.20501">
        <ele>837.0</ele>
        <time>2019-08-01T05:39:00.011Z</time>
      </trkpt>
      <trkpt lat="43.00231833" lon="-1.20500667">
        <ele>837.0</ele>
        <time>2019-08-01T05:39:01.016Z</time>
      </trkpt>
      <trkpt lat="43.00231833" lon="-1.20500333">
        <ele>837.0</ele>
        <time>2019-08-01T05:39:02.020Z</time>
      </trkpt>
      <trkpt lat="43.00232" lon="-1.20500333">
        <ele>837.0</ele>
        <time>2019-08-01T05:39:03.022Z</time>
      </trkpt>
      <trkpt lat="43.00231667" lon="-1.205">
        <ele>837.0</ele>
        <time>2019-08-01T05:39:04.028Z</time>
      </trkpt>
      <trkpt lat="43.002315" lon="-1.20499833">
        <ele>836.0</ele>
        <time>2019-08-01T05:39:05.034Z</time>
      </trkpt>
      <trkpt lat="43.00231667" lon="-1.20499333">
        <ele>837.0</ele>
        <time>2019-08-01T05:39:06.038Z</time>
      </trkpt>
      <trkpt lat="43.00231667" lon="-1.20498833">
        <ele>838.0</ele>
        <time>2019-08-01T05:39:07.043Z</time>
      </trkpt>
      <trkpt lat="43.00231667" lon="-1.20498833">
        <ele>838.0</ele>
        <time>2019-08-01T05:39:07.924Z</time>
      </trkpt>
      <trkpt lat="43.00232167" lon="-1.20499167">
        <ele>838.0</ele>
        <time>2019-08-01T05:39:08.928Z</time>
      </trkpt>
      <trkpt lat="43.00232333" lon="-1.20499667">
        <ele>838.0</ele>
        <time>2019-08-01T05:39:09.934Z</time>
      </trkpt>
      <trkpt lat="43.00232333" lon="-1.205">
        <ele>838.0</ele>
        <time>2019-08-01T05:39:10.941Z</time>
      </trkpt>
      <trkpt lat="43.00232333" lon="-1.20500333">
        <ele>838.0</ele>
        <time>2019-08-01T05:39:11.944Z</time>
      </trkpt>
      <trkpt lat="43.00232167" lon="-1.205005">
        <ele>838.0</ele>
        <time>2019-08-01T05:39:12.951Z</time>
      </trkpt>
      <trkpt lat="43.00232333" lon="-1.205005">
        <ele>837.0</ele>
        <time>2019-08-01T05:39:13.958Z</time>
      </trkpt>
      <trkpt lat="43.00232667" lon="-1.20500333">
        <ele>838.0</ele>
        <time>2019-08-01T05:39:14.964Z</time>
      </trkpt>
      <trkpt lat="43.00233" lon="-1.20500167">
        <ele>838.0</ele>
        <time>2019-08-01T05:39:15.970Z</time>
      </trkpt>
      <trkpt lat="43.00232833" lon="-1.20500333">
        <ele>839.0</ele>
        <time>2019-08-01T05:39:16.975Z</time>
      </trkpt>
      <trkpt lat="43.002325" lon="-1.20501">
        <ele>840.0</ele>
        <time>2019-08-01T05:39:17.979Z</time>
      </trkpt>
      <trkpt lat="43.002325" lon="-1.20501333">
        <ele>840.0</ele>
        <time>2019-08-01T05:39:18.985Z</time>
      </trkpt>
      <trkpt lat="43.00233" lon="-1.20501333">
        <ele>840.0</ele>
        <time>2019-08-01T05:39:19.992Z</time>
      </trkpt>
      <trkpt lat="43.00233333" lon="-1.20501333">
        <ele>840.0</ele>
        <time>2019-08-01T05:39:20.998Z</time>
      </trkpt>
      <trkpt lat="43.002335" lon="-1.20501333">
        <ele>840.0</ele>
        <time>2019-08-01T05:39:22.002Z</time>
      </trkpt>
      <trkpt lat="43.002335" lon="-1.20501">
        <ele>841.0</ele>
        <time>2019-08-01T05:39:23.008Z</time>
      </trkpt>
      <trkpt lat="43.00233" lon="-1.20500833">
        <ele>840.0</ele>
        <time>2019-08-01T05:39:24.014Z</time>
      </trkpt>
      <trkpt lat="43.002325" lon="-1.20500667">
        <ele>840.0</ele>
        <time>2019-08-01T05:39:25.020Z</time>
      </trkpt>
      <trkpt lat="43.00232333" lon="-1.205005">
        <ele>840.0</ele>
        <time>2019-08-01T05:39:26.027Z</time>
      </trkpt>
      <trkpt lat="43.00232" lon="-1.20500167">
        <ele>840.0</ele>
        <time>2019-08-01T05:39:27.033Z</time>
      </trkpt>
      <trkpt lat="43.00232" lon="-1.20500333">
        <ele>840.0</ele>
        <time>2019-08-01T05:39:28.039Z</time>
      </trkpt>
      <trkpt lat="43.00232167" lon="-1.20500167">
        <ele>840.0</ele>
        <time>2019-08-01T05:39:29.041Z</time>
      </trkpt>
      <trkpt lat="43.00232167" lon="-1.205">
        <ele>841.0</ele>
        <time>2019-08-01T05:39:29.922Z</time>
      </trkpt>
      <trkpt lat="43.00232167" lon="-1.20500167">
        <ele>841.0</ele>
        <time>2019-08-01T05:39:30.926Z</time>
      </trkpt>
      <trkpt lat="43.00232" lon="-1.20500667">
        <ele>840.0</ele>
        <time>2019-08-01T05:39:31.931Z</time>
      </trkpt>
      <trkpt lat="43.00231667" lon="-1.20501">
        <ele>840.0</ele>
        <time>2019-08-01T05:39:32.938Z</time>
      </trkpt>
      <trkpt lat="43.002315" lon="-1.20501167">
        <ele>840.0</ele>
        <time>2019-08-01T05:39:33.944Z</time>
      </trkpt>
      <trkpt lat="43.00231333" lon="-1.20501">
        <ele>840.0</ele>
        <time>2019-08-01T05:39:34.949Z</time>
      </trkpt>
      <trkpt lat="43.00231333" lon="-1.205015">
        <ele>840.0</ele>
        <time>2019-08-01T05:39:35.954Z</time>
      </trkpt>
      <trkpt lat="43.002315" lon="-1.205015">
        <ele>840.0</ele>
        <time>2019-08-01T05:39:36.959Z</time>
      </trkpt>
      <trkpt lat="43.00232" lon="-1.20501667">
        <ele>841.0</ele>
        <time>2019-08-01T05:39:37.963Z</time>
      </trkpt>
      <trkpt lat="43.00232" lon="-1.20501667">
        <ele>841.0</ele>
        <time>2019-08-01T05:39:38.971Z</time>
      </trkpt>
      <trkpt lat="43.00232333" lon="-1.20502167">
        <ele>841.0</ele>
        <time>2019-08-01T05:39:39.976Z</time>
      </trkpt>
      <trkpt lat="43.002325" lon="-1.20502333">
        <ele>842.0</ele>
        <time>2019-08-01T05:39:40.983Z</time>
      </trkpt>
      <trkpt lat="43.002325" lon="-1.20502167">
        <ele>842.0</ele>
        <time>2019-08-01T05:39:41.991Z</time>
      </trkpt>
      <trkpt lat="43.002325" lon="-1.20502167">
        <ele>842.0</ele>
        <time>2019-08-01T05:39:42.998Z</time>
      </trkpt>
      <trkpt lat="43.00232333" lon="-1.20502667">
        <ele>842.0</ele>
        <time>2019-08-01T05:39:44.002Z</time>
      </trkpt>
      <trkpt lat="43.00232333" lon="-1.20503">
        <ele>842.0</ele>
        <time>2019-08-01T05:39:45.009Z</time>
      </trkpt>
      <trkpt lat="43.002325" lon="-1.20502833">
        <ele>843.0</ele>
        <time>2019-08-01T05:39:46.015Z</time>
      </trkpt>
      <trkpt lat="43.00232667" lon="-1.20502667">
        <ele>843.0</ele>
        <time>2019-08-01T05:39:47.021Z</time>
      </trkpt>
      <trkpt lat="43.00232667" lon="-1.205025">
        <ele>843.0</ele>
        <time>2019-08-01T05:39:48.027Z</time>
      </trkpt>
      <trkpt lat="43.002325" lon="-1.20502">
        <ele>844.0</ele>
        <time>2019-08-01T05:39:49.032Z</time>
      </trkpt>
      <trkpt lat="43.00232333" lon="-1.20502333">
        <ele>844.0</ele>
        <time>2019-08-01T05:39:50.039Z</time>
      </trkpt>
      <trkpt lat="43.00232" lon="-1.20502167">
        <ele>844.0</ele>
        <time>2019-08-01T05:39:50.920Z</time>
      </trkpt>
      <trkpt lat="43.00232" lon="-1.20502">
        <ele>844.0</ele>
        <time>2019-08-01T05:39:51.927Z</time>
      </trkpt>
      <trkpt lat="43.00232167" lon="-1.20501833">
        <ele>844.0</ele>
        <time>2019-08-01T05:39:52.934Z</time>
      </trkpt>
      <trkpt lat="43.00232333" lon="-1.20502">
        <ele>845.0</ele>
        <time>2019-08-01T05:39:53.941Z</time>
      </trkpt>
      <trkpt lat="43.002325" lon="-1.20502333">
        <ele>845.0</ele>
        <time>2019-08-01T05:39:54.947Z</time>
      </trkpt>
      <trkpt lat="43.00232833" lon="-1.20502833">
        <ele>845.0</ele>
        <time>2019-08-01T05:39:55.952Z</time>
      </trkpt>
      <trkpt lat="43.00233167" lon="-1.205035">
        <ele>846.0</ele>
        <time>2019-08-01T05:39:56.958Z</time>
      </trkpt>
      <trkpt lat="43.00233333" lon="-1.205045">
        <ele>846.0</ele>
        <time>2019-08-01T05:39:57.962Z</time>
      </trkpt>
      <trkpt lat="43.00233667" lon="-1.20505">
        <ele>847.0</ele>
        <time>2019-08-01T05:39:58.967Z</time>
      </trkpt>
      <trkpt lat="43.00234167" lon="-1.20506">
        <ele>847.0</ele>
        <time>2019-08-01T05:39:59.973Z</time>
      </trkpt>
      <trkpt lat="43.00233667" lon="-1.20506167">
        <ele>847.0</ele>
        <time>2019-08-01T05:40:00.978Z</time>
      </trkpt>
      <trkpt lat="43.00233833" lon="-1.20506667">
        <ele>847.0</ele>
        <time>2019-08-01T05:40:01.984Z</time>
      </trkpt>
      <trkpt lat="43.00233333" lon="-1.205065">
        <ele>847.0</ele>
        <time>2019-08-01T05:40:02.990Z</time>
      </trkpt>
      <trkpt lat="43.00233167" lon="-1.20506667">
        <ele>847.0</ele>
        <time>2019-08-01T05:40:03.997Z</time>
      </trkpt>
      <trkpt lat="43.00233167" lon="-1.20506833">
        <ele>847.0</ele>
        <time>2019-08-01T05:40:05.003Z</time>
      </trkpt>
      <trkpt lat="43.00233833" lon="-1.20506833">
        <ele>847.0</ele>
        <time>2019-08-01T05:40:06.008Z</time>
      </trkpt>
      <trkpt lat="43.002335" lon="-1.20506333">
        <ele>848.0</ele>
        <time>2019-08-01T05:40:07.012Z</time>
      </trkpt>
      <trkpt lat="43.00233333" lon="-1.20506333">
        <ele>847.0</ele>
        <time>2019-08-01T05:40:08.019Z</time>
      </trkpt>
      <trkpt lat="43.00233" lon="-1.20506333">
        <ele>847.0</ele>
        <time>2019-08-01T05:40:09.026Z</time>
      </trkpt>
      <trkpt lat="43.00233" lon="-1.205065">
        <ele>848.0</ele>
        <time>2019-08-01T05:40:10.033Z</time>
      </trkpt>
      <trkpt lat="43.00232667" lon="-1.205065">
        <ele>848.0</ele>
        <time>2019-08-01T05:40:11.038Z</time>
      </trkpt>
      <trkpt lat="43.00232167" lon="-1.205065">
        <ele>848.0</ele>
        <time>2019-08-01T05:40:11.919Z</time>
      </trkpt>
      <trkpt lat="43.00231833" lon="-1.20506333">
        <ele>848.0</ele>
        <time>2019-08-01T05:40:12.923Z</time>
      </trkpt>
      <trkpt lat="43.00231667" lon="-1.20506">
        <ele>848.0</ele>
        <time>2019-08-01T05:40:13.928Z</time>
      </trkpt>
      <trkpt lat="43.00231667" lon="-1.20506">
        <ele>848.0</ele>
        <time>2019-08-01T05:40:14.935Z</time>
      </trkpt>
      <trkpt lat="43.002315" lon="-1.20506167">
        <ele>848.0</ele>
        <time>2019-08-01T05:40:15.939Z</time>
      </trkpt>
      <trkpt lat="43.00231667" lon="-1.20506">
        <ele>848.0</ele>
        <time>2019-08-01T05:40:16.943Z</time>
      </trkpt>
      <trkpt lat="43.00231333" lon="-1.20505667">
        <ele>848.0</ele>
        <time>2019-08-01T05:40:17.946Z</time>
      </trkpt>
      <trkpt lat="43.00231833" lon="-1.20505833">
        <ele>848.0</ele>
        <time>2019-08-01T05:40:18.953Z</time>
      </trkpt>
      <trkpt lat="43.00232333" lon="-1.20506">
        <ele>849.0</ele>
        <time>2019-08-01T05:40:19.958Z</time>
      </trkpt>
      <trkpt lat="43.00232667" lon="-1.20506167">
        <ele>850.0</ele>
        <time>2019-08-01T05:40:20.964Z</time>
      </trkpt>
      <trkpt lat="43.00232833" lon="-1.205065">
        <ele>850.0</ele>
        <time>2019-08-01T05:40:21.971Z</time>
      </trkpt>
      <trkpt lat="43.00233333" lon="-1.20506833">
        <ele>851.0</ele>
        <time>2019-08-01T05:40:22.977Z</time>
      </trkpt>
      <trkpt lat="43.00233333" lon="-1.205075">
        <ele>851.0</ele>
        <time>2019-08-01T05:40:23.983Z</time>
      </trkpt>
      <trkpt lat="43.00233167" lon="-1.20508167">
        <ele>851.0</ele>
        <time>2019-08-01T05:40:24.988Z</time>
      </trkpt>
      <trkpt lat="43.00233167" lon="-1.20508333">
        <ele>851.0</ele>
        <time>2019-08-01T05:40:25.994Z</time>
      </trkpt>
      <trkpt lat="43.00233333" lon="-1.20508333">
        <ele>851.0</ele>
        <time>2019-08-01T05:40:26.999Z</time>
      </trkpt>
      <trkpt lat="43.00233667" lon="-1.20508333">
        <ele>851.0</ele>
        <time>2019-08-01T05:40:28.007Z</time>
      </trkpt>
      <trkpt lat="43.00233667" lon="-1.20508667">
        <ele>852.0</ele>
        <time>2019-08-01T05:40:29.015Z</time>
      </trkpt>
      <trkpt lat="43.00233167" lon="-1.20509333">
        <ele>852.0</ele>
        <time>2019-08-01T05:40:30.021Z</time>
      </trkpt>
      <trkpt lat="43.00233333" lon="-1.2051">
        <ele>852.0</ele>
        <time>2019-08-01T05:40:31.027Z</time>
      </trkpt>
      <trkpt lat="43.00233333" lon="-1.2051">
        <ele>852.0</ele>
        <time>2019-08-01T05:40:32.033Z</time>
      </trkpt>
      <trkpt lat="43.00233833" lon="-1.2051">
        <ele>853.0</ele>
        <time>2019-08-01T05:40:33.039Z</time>
      </trkpt>
      <trkpt lat="43.00234833" lon="-1.20509667">
        <ele>853.0</ele>
        <time>2019-08-01T05:40:33.918Z</time>
      </trkpt>
      <trkpt lat="43.00234167" lon="-1.20509167">
        <ele>853.0</ele>
        <time>2019-08-01T05:40:34.923Z</time>
      </trkpt>
      <trkpt lat="43.00233167" lon="-1.20509167">
        <ele>852.0</ele>
        <time>2019-08-01T05:40:35.930Z</time>
      </trkpt>
      <trkpt lat="43.00232833" lon="-1.20509333">
        <ele>852.0</ele>
        <time>2019-08-01T05:40:36.936Z</time>
      </trkpt>
      <trkpt lat="43.00232333" lon="-1.20509167">
        <ele>852.0</ele>
        <time>2019-08-01T05:40:37.944Z</time>
      </trkpt>
      <trkpt lat="43.00232" lon="-1.20508833">
        <ele>852.0</ele>
        <time>2019-08-01T05:40:38.951Z</time>
      </trkpt>
      <trkpt lat="43.00231667" lon="-1.20508667">
        <ele>853.0</ele>
        <time>2019-08-01T05:40:39.958Z</time>
      </trkpt>
      <trkpt lat="43.00232" lon="-1.20508667">
        <ele>853.0</ele>
        <time>2019-08-01T05:40:40.964Z</time>
      </trkpt>
      <trkpt lat="43.00232" lon="-1.205085">
        <ele>853.0</ele>
        <time>2019-08-01T05:40:41.971Z</time>
      </trkpt>
      <trkpt lat="43.00232" lon="-1.205085">
        <ele>853.0</ele>
        <time>2019-08-01T05:40:42.976Z</time>
      </trkpt>
      <trkpt lat="43.00232" lon="-1.20508833">
        <ele>854.0</ele>
        <time>2019-08-01T05:40:43.980Z</time>
      </trkpt>
      <trkpt lat="43.00232" lon="-1.20509333">
        <ele>854.0</ele>
        <time>2019-08-01T05:40:44.986Z</time>
      </trkpt>
      <trkpt lat="43.002325" lon="-1.20510167">
        <ele>855.0</ele>
        <time>2019-08-01T05:40:45.992Z</time>
      </trkpt>
      <trkpt lat="43.00233" lon="-1.20510333">
        <ele>855.0</ele>
        <time>2019-08-01T05:40:46.999Z</time>
      </trkpt>
      <trkpt lat="43.00233667" lon="-1.20510333">
        <ele>856.0</ele>
        <time>2019-08-01T05:40:48.006Z</time>
      </trkpt>
      <trkpt lat="43.002345" lon="-1.205105">
        <ele>856.0</ele>
        <time>2019-08-01T05:40:49.012Z</time>
      </trkpt>
      <trkpt lat="43.00234833" lon="-1.205105">
        <ele>856.0</ele>
        <time>2019-08-01T05:40:50.019Z</time>
      </trkpt>
      <trkpt lat="43.00235333" lon="-1.20511">
        <ele>856.0</ele>
        <time>2019-08-01T05:40:51.024Z</time>
      </trkpt>
      <trkpt lat="43.002355" lon="-1.20511167">
        <ele>856.0</ele>
        <time>2019-08-01T05:40:52.029Z</time>
      </trkpt>
      <trkpt lat="43.00235667" lon="-1.205115">
        <ele>856.0</ele>
        <time>2019-08-01T05:40:53.034Z</time>
      </trkpt>
      <trkpt lat="43.00235333" lon="-1.20512">
        <ele>857.0</ele>
        <time>2019-08-01T05:40:54.040Z</time>
      </trkpt>
      <trkpt lat="43.00234667" lon="-1.20511667">
        <ele>857.0</ele>
        <time>2019-08-01T05:40:54.919Z</time>
      </trkpt>
      <trkpt lat="43.00234167" lon="-1.20511">
        <ele>857.0</ele>
        <time>2019-08-01T05:40:55.926Z</time>
      </trkpt>
      <trkpt lat="43.00234333" lon="-1.20510667">
        <ele>857.0</ele>
        <time>2019-08-01T05:40:56.932Z</time>
      </trkpt>
      <trkpt lat="43.00234833" lon="-1.20510333">
        <ele>857.0</ele>
        <time>2019-08-01T05:40:57.939Z</time>
      </trkpt>
      <trkpt lat="43.00235" lon="-1.2051">
        <ele>856.0</ele>
        <time>2019-08-01T05:40:58.946Z</time>
      </trkpt>
      <trkpt lat="43.00235333" lon="-1.20509833">
        <ele>856.0</ele>
        <time>2019-08-01T05:40:59.953Z</time>
      </trkpt>
      <trkpt lat="43.00235333" lon="-1.2051">
        <ele>855.0</ele>
        <time>2019-08-01T05:41:00.959Z</time>
      </trkpt>
      <trkpt lat="43.00235833" lon="-1.2051">
        <ele>855.0</ele>
        <time>2019-08-01T05:41:01.963Z</time>
      </trkpt>
      <trkpt lat="43.00236333" lon="-1.2051">
        <ele>855.0</ele>
        <time>2019-08-01T05:41:02.968Z</time>
      </trkpt>
      <trkpt lat="43.002365" lon="-1.20509833">
        <ele>856.0</ele>
        <time>2019-08-01T05:41:03.974Z</time>
      </trkpt>
      <trkpt lat="43.00236333" lon="-1.205095">
        <ele>856.0</ele>
        <time>2019-08-01T05:41:04.980Z</time>
      </trkpt>
      <trkpt lat="43.00236167" lon="-1.205095">
        <ele>856.0</ele>
        <time>2019-08-01T05:41:05.987Z</time>
      </trkpt>
      <trkpt lat="43.00236167" lon="-1.205095">
        <ele>856.0</ele>
        <time>2019-08-01T05:41:06.991Z</time>
      </trkpt>
      <trkpt lat="43.00236" lon="-1.20509333">
        <ele>855.0</ele>
        <time>2019-08-01T05:41:07.997Z</time>
      </trkpt>
      <trkpt lat="43.00236" lon="-1.205095">
        <ele>855.0</ele>
        <time>2019-08-01T05:41:09.000Z</time>
      </trkpt>
      <trkpt lat="43.00235833" lon="-1.205095">
        <ele>855.0</ele>
        <time>2019-08-01T05:41:10.006Z</time>
      </trkpt>
      <trkpt lat="43.00236" lon="-1.20509667">
        <ele>854.0</ele>
        <time>2019-08-01T05:41:11.012Z</time>
      </trkpt>
      <trkpt lat="43.00236" lon="-1.2051">
        <ele>854.0</ele>
        <time>2019-08-01T05:41:12.016Z</time>
      </trkpt>
      <trkpt lat="43.00236333" lon="-1.205105">
        <ele>854.0</ele>
        <time>2019-08-01T05:41:13.020Z</time>
      </trkpt>
      <trkpt lat="43.00236667" lon="-1.205105">
        <ele>854.0</ele>
        <time>2019-08-01T05:41:14.024Z</time>
      </trkpt>
      <trkpt lat="43.00237167" lon="-1.20510667">
        <ele>854.0</ele>
        <time>2019-08-01T05:41:15.030Z</time>
      </trkpt>
      <trkpt lat="43.00237667" lon="-1.20510833">
        <ele>854.0</ele>
        <time>2019-08-01T05:41:16.035Z</time>
      </trkpt>
      <trkpt lat="43.00237833" lon="-1.20511">
        <ele>854.0</ele>
        <time>2019-08-01T05:41:17.038Z</time>
      </trkpt>
      <trkpt lat="43.00237833" lon="-1.20510833">
        <ele>855.0</ele>
        <time>2019-08-01T05:41:18.041Z</time>
      </trkpt>
      <trkpt lat="43.00237333" lon="-1.205105">
        <ele>855.0</ele>
        <time>2019-08-01T05:41:18.923Z</time>
      </trkpt>
      <trkpt lat="43.00237167" lon="-1.2051">
        <ele>855.0</ele>
        <time>2019-08-01T05:41:19.928Z</time>
      </trkpt>
      <trkpt lat="43.00237" lon="-1.20509833">
        <ele>856.0</ele>
        <time>2019-08-01T05:41:20.934Z</time>
      </trkpt>
      <trkpt lat="43.002375" lon="-1.20509667">
        <ele>857.0</ele>
        <time>2019-08-01T05:41:21.937Z</time>
      </trkpt>
      <trkpt lat="43.00238167" lon="-1.20509667">
        <ele>858.0</ele>
        <time>2019-08-01T05:41:22.941Z</time>
      </trkpt>
      <trkpt lat="43.00238333" lon="-1.20510333">
        <ele>858.0</ele>
        <time>2019-08-01T05:41:23.946Z</time>
      </trkpt>
      <trkpt lat="43.002385" lon="-1.20511">
        <ele>858.0</ele>
        <time>2019-08-01T05:41:24.952Z</time>
      </trkpt>
      <trkpt lat="43.00238167" lon="-1.20511667">
        <ele>858.0</ele>
        <time>2019-08-01T05:41:25.957Z</time>
      </trkpt>
      <trkpt lat="43.00238333" lon="-1.20512333">
        <ele>858.0</ele>
        <time>2019-08-01T05:41:26.962Z</time>
      </trkpt>
      <trkpt lat="43.00238333" lon="-1.20512833">
        <ele>858.0</ele>
        <time>2019-08-01T05:41:27.966Z</time>
      </trkpt>
      <trkpt lat="43.00238167" lon="-1.20512833">
        <ele>858.0</ele>
        <time>2019-08-01T05:41:28.973Z</time>
      </trkpt>
      <trkpt lat="43.00238167" lon="-1.20512333">
        <ele>857.0</ele>
        <time>2019-08-01T05:41:29.980Z</time>
      </trkpt>
      <trkpt lat="43.00238333" lon="-1.20512">
        <ele>856.0</ele>
        <time>2019-08-01T05:41:30.986Z</time>
      </trkpt>
      <trkpt lat="43.00238167" lon="-1.20511833">
        <ele>856.0</ele>
        <time>2019-08-01T05:41:31.992Z</time>
      </trkpt>
      <trkpt lat="43.00238" lon="-1.20512">
        <ele>855.0</ele>
        <time>2019-08-01T05:41:32.996Z</time>
      </trkpt>
      <trkpt lat="43.00238" lon="-1.20512">
        <ele>854.0</ele>
        <time>2019-08-01T05:41:34.003Z</time>
      </trkpt>
      <trkpt lat="43.00237833" lon="-1.20512167">
        <ele>854.0</ele>
        <time>2019-08-01T05:41:35.008Z</time>
      </trkpt>
      <trkpt lat="43.00238167" lon="-1.20512167">
        <ele>854.0</ele>
        <time>2019-08-01T05:41:36.015Z</time>
      </trkpt>
      <trkpt lat="43.00238667" lon="-1.20512167">
        <ele>853.0</ele>
        <time>2019-08-01T05:41:37.024Z</time>
      </trkpt>
      <trkpt lat="43.00238833" lon="-1.205125">
        <ele>853.0</ele>
        <time>2019-08-01T05:41:38.031Z</time>
      </trkpt>
      <trkpt lat="43.00238667" lon="-1.205125">
        <ele>854.0</ele>
        <time>2019-08-01T05:41:39.036Z</time>
      </trkpt>
      <trkpt lat="43.00239" lon="-1.20512333">
        <ele>855.0</ele>
        <time>2019-08-01T05:41:40.041Z</time>
      </trkpt>
      <trkpt lat="43.00239167" lon="-1.20512333">
        <ele>855.0</ele>
        <time>2019-08-01T05:41:40.920Z</time>
      </trkpt>
      <trkpt lat="43.00239333" lon="-1.20512333">
        <ele>855.0</ele>
        <time>2019-08-01T05:41:41.925Z</time>
      </trkpt>
      <trkpt lat="43.00239167" lon="-1.20512333">
        <ele>856.0</ele>
        <time>2019-08-01T05:41:42.932Z</time>
      </trkpt>
      <trkpt lat="43.00238833" lon="-1.20512333">
        <ele>856.0</ele>
        <time>2019-08-01T05:41:43.938Z</time>
      </trkpt>
      <trkpt lat="43.00238333" lon="-1.20512167">
        <ele>857.0</ele>
        <time>2019-08-01T05:41:44.944Z</time>
      </trkpt>
      <trkpt lat="43.00237833" lon="-1.20511667">
        <ele>857.0</ele>
        <time>2019-08-01T05:41:45.950Z</time>
      </trkpt>
      <trkpt lat="43.002375" lon="-1.20511333">
        <ele>856.0</ele>
        <time>2019-08-01T05:41:46.956Z</time>
      </trkpt>
      <trkpt lat="43.00237333" lon="-1.20511167">
        <ele>856.0</ele>
        <time>2019-08-01T05:41:47.963Z</time>
      </trkpt>
      <trkpt lat="43.00237333" lon="-1.20511167">
        <ele>855.0</ele>
        <time>2019-08-01T05:41:48.970Z</time>
      </trkpt>
      <trkpt lat="43.00237" lon="-1.20511">
        <ele>854.0</ele>
        <time>2019-08-01T05:41:49.977Z</time>
      </trkpt>
      <trkpt lat="43.00236667" lon="-1.20510667">
        <ele>854.0</ele>
        <time>2019-08-01T05:41:50.983Z</time>
      </trkpt>
      <trkpt lat="43.00236167" lon="-1.205105">
        <ele>853.0</ele>
        <time>2019-08-01T05:41:51.990Z</time>
      </trkpt>
      <trkpt lat="43.00236167" lon="-1.20510333">
        <ele>853.0</ele>
        <time>2019-08-01T05:41:52.996Z</time>
      </trkpt>
      <trkpt lat="43.00236167" lon="-1.2051">
        <ele>853.0</ele>
        <time>2019-08-01T05:41:54.002Z</time>
      </trkpt>
      <trkpt lat="43.002365" lon="-1.205095">
        <ele>853.0</ele>
        <time>2019-08-01T05:41:55.008Z</time>
      </trkpt>
      <trkpt lat="43.002365" lon="-1.20509667">
        <ele>854.0</ele>
        <time>2019-08-01T05:41:56.015Z</time>
      </trkpt>
      <trkpt lat="43.002365" lon="-1.20509833">
        <ele>853.0</ele>
        <time>2019-08-01T05:41:57.021Z</time>
      </trkpt>
      <trkpt lat="43.00236333" lon="-1.20509167">
        <ele>854.0</ele>
        <time>2019-08-01T05:41:58.028Z</time>
      </trkpt>
      <trkpt lat="43.00236" lon="-1.20509167">
        <ele>854.0</ele>
        <time>2019-08-01T05:41:59.035Z</time>
      </trkpt>
      <trkpt lat="43.00236" lon="-1.20509333">
        <ele>855.0</ele>
        <time>2019-08-01T05:42:00.040Z</time>
      </trkpt>
      <trkpt lat="43.00236167" lon="-1.20509667">
        <ele>855.0</ele>
        <time>2019-08-01T05:42:00.918Z</time>
      </trkpt>
      <trkpt lat="43.002365" lon="-1.20510333">
        <ele>855.0</ele>
        <time>2019-08-01T05:42:01.922Z</time>
      </trkpt>
      <trkpt lat="43.00236333" lon="-1.20510833">
        <ele>856.0</ele>
        <time>2019-08-01T05:42:02.929Z</time>
      </trkpt>
      <trkpt lat="43.00236" lon="-1.20511167">
        <ele>856.0</ele>
        <time>2019-08-01T05:42:03.936Z</time>
      </trkpt>
      <trkpt lat="43.00235" lon="-1.20511167">
        <ele>856.0</ele>
        <time>2019-08-01T05:42:04.942Z</time>
      </trkpt>
      <trkpt lat="43.00234167" lon="-1.20510833">
        <ele>856.0</ele>
        <time>2019-08-01T05:42:05.945Z</time>
      </trkpt>
      <trkpt lat="43.00234" lon="-1.20510167">
        <ele>856.0</ele>
        <time>2019-08-01T05:42:06.951Z</time>
      </trkpt>
      <trkpt lat="43.00233667" lon="-1.205095">
        <ele>857.0</ele>
        <time>2019-08-01T05:42:07.957Z</time>
      </trkpt>
      <trkpt lat="43.00233667" lon="-1.205085">
        <ele>857.0</ele>
        <time>2019-08-01T05:42:08.963Z</time>
      </trkpt>
      <trkpt lat="43.00233" lon="-1.20507833">
        <ele>857.0</ele>
        <time>2019-08-01T05:42:09.970Z</time>
      </trkpt>
      <trkpt lat="43.002325" lon="-1.20507667">
        <ele>856.0</ele>
        <time>2019-08-01T05:42:10.974Z</time>
      </trkpt>
      <trkpt lat="43.002325" lon="-1.20507833">
        <ele>856.0</ele>
        <time>2019-08-01T05:42:11.980Z</time>
      </trkpt>
      <trkpt lat="43.00271" lon="-1.20526833">
        <ele>853.0</ele>
        <time>2019-08-01T05:42:13.985Z</time>
      </trkpt>
      <trkpt lat="43.002725" lon="-1.20526833">
        <ele>854.0</ele>
        <time>2019-08-01T05:42:14.991Z</time>
      </trkpt>
      <trkpt lat="43.00273667" lon="-1.20527">
        <ele>854.0</ele>
        <time>2019-08-01T05:42:15.998Z</time>
      </trkpt>
      <trkpt lat="43.00275" lon="-1.20527333">
        <ele>854.0</ele>
        <time>2019-08-01T05:42:17.003Z</time>
      </trkpt>
      <trkpt lat="43.00276167" lon="-1.205275">
        <ele>854.0</ele>
        <time>2019-08-01T05:42:18.009Z</time>
      </trkpt>
      <trkpt lat="43.00277667" lon="-1.20528">
        <ele>854.0</ele>
        <time>2019-08-01T05:42:19.015Z</time>
      </trkpt>
      <trkpt lat="43.00279333" lon="-1.20528333">
        <ele>854.0</ele>
        <time>2019-08-01T05:42:20.023Z</time>
      </trkpt>
      <trkpt lat="43.00280833" lon="-1.20528333">
        <ele>854.0</ele>
        <time>2019-08-01T05:42:21.030Z</time>
      </trkpt>
      <trkpt lat="43.00282333" lon="-1.20528333">
        <ele>854.0</ele>
        <time>2019-08-01T05:42:22.037Z</time>
      </trkpt>
      <trkpt lat="43.00283333" lon="-1.205285">
        <ele>854.0</ele>
        <time>2019-08-01T05:42:22.918Z</time>
      </trkpt>
      <trkpt lat="43.00284667" lon="-1.20528667">
        <ele>854.0</ele>
        <time>2019-08-01T05:42:23.924Z</time>
      </trkpt>
      <trkpt lat="43.00286667" lon="-1.20528667">
        <ele>854.0</ele>
        <time>2019-08-01T05:42:24.930Z</time>
      </trkpt>
      <trkpt lat="43.00288" lon="-1.20529">
        <ele>855.0</ele>
        <time>2019-08-01T05:42:25.934Z</time>
      </trkpt>
      <trkpt lat="43.002895" lon="-1.20529167">
        <ele>856.0</ele>
        <time>2019-08-01T05:42:26.939Z</time>
      </trkpt>
      <trkpt lat="43.00291" lon="-1.205295">
        <ele>857.0</ele>
        <time>2019-08-01T05:42:27.946Z</time>
      </trkpt>
      <trkpt lat="43.002925" lon="-1.20529667">
        <ele>859.0</ele>
        <time>2019-08-01T05:42:28.952Z</time>
      </trkpt>
      <trkpt lat="43.00294" lon="-1.205305">
        <ele>860.0</ele>
        <time>2019-08-01T05:42:29.958Z</time>
      </trkpt>
      <trkpt lat="43.002955" lon="-1.20531167">
        <ele>862.0</ele>
        <time>2019-08-01T05:42:30.962Z</time>
      </trkpt>
      <trkpt lat="43.00296833" lon="-1.205315">
        <ele>863.0</ele>
        <time>2019-08-01T05:42:31.969Z</time>
      </trkpt>
      <trkpt lat="43.00298" lon="-1.20532">
        <ele>864.0</ele>
        <time>2019-08-01T05:42:32.976Z</time>
      </trkpt>
      <trkpt lat="43.00299667" lon="-1.20532167">
        <ele>865.0</ele>
        <time>2019-08-01T05:42:33.982Z</time>
      </trkpt>
      <trkpt lat="43.00301" lon="-1.20532333">
        <ele>865.0</ele>
        <time>2019-08-01T05:42:34.990Z</time>
      </trkpt>
      <trkpt lat="43.003025" lon="-1.205325">
        <ele>865.0</ele>
        <time>2019-08-01T05:42:35.997Z</time>
      </trkpt>
      <trkpt lat="43.00303833" lon="-1.205325">
        <ele>864.0</ele>
        <time>2019-08-01T05:42:37.002Z</time>
      </trkpt>
      <trkpt lat="43.00305167" lon="-1.20532333">
        <ele>864.0</ele>
        <time>2019-08-01T05:42:38.009Z</time>
      </trkpt>
      <trkpt lat="43.00306667" lon="-1.20532167">
        <ele>864.0</ele>
        <time>2019-08-01T05:42:39.016Z</time>
      </trkpt>
      <trkpt lat="43.00308167" lon="-1.20531833">
        <ele>864.0</ele>
        <time>2019-08-01T05:42:40.022Z</time>
      </trkpt>
      <trkpt lat="43.003095" lon="-1.20531667">
        <ele>865.0</ele>
        <time>2019-08-01T05:42:41.027Z</time>
      </trkpt>
      <trkpt lat="43.00310833" lon="-1.205315">
        <ele>866.0</ele>
        <time>2019-08-01T05:42:42.032Z</time>
      </trkpt>
      <trkpt lat="43.00312167" lon="-1.20531333">
        <ele>866.0</ele>
        <time>2019-08-01T05:42:43.039Z</time>
      </trkpt>
      <trkpt lat="43.00313833" lon="-1.20530833">
        <ele>866.0</ele>
        <time>2019-08-01T05:42:43.919Z</time>
      </trkpt>
      <trkpt lat="43.00315167" lon="-1.20530667">
        <ele>866.0</ele>
        <time>2019-08-01T05:42:44.924Z</time>
      </trkpt>
      <trkpt lat="43.00316333" lon="-1.20530667">
        <ele>866.0</ele>
        <time>2019-08-01T05:42:45.929Z</time>
      </trkpt>
      <trkpt lat="43.00317667" lon="-1.20531">
        <ele>867.0</ele>
        <time>2019-08-01T05:42:46.936Z</time>
      </trkpt>
      <trkpt lat="43.00319" lon="-1.20531667">
        <ele>867.0</ele>
        <time>2019-08-01T05:42:47.942Z</time>
      </trkpt>
      <trkpt lat="43.00320333" lon="-1.205325">
        <ele>868.0</ele>
        <time>2019-08-01T05:42:48.948Z</time>
      </trkpt>
      <trkpt lat="43.00321667" lon="-1.20533167">
        <ele>869.0</ele>
        <time>2019-08-01T05:42:49.955Z</time>
      </trkpt>
      <trkpt lat="43.00323167" lon="-1.205335">
        <ele>871.0</ele>
        <time>2019-08-01T05:42:50.961Z</time>
      </trkpt>
      <trkpt lat="43.00324833" lon="-1.20533833">
        <ele>872.0</ele>
        <time>2019-08-01T05:42:51.968Z</time>
      </trkpt>
      <trkpt lat="43.00326333" lon="-1.20533833">
        <ele>872.0</ele>
        <time>2019-08-01T05:42:52.975Z</time>
      </trkpt>
      <trkpt lat="43.00327833" lon="-1.20533833">
        <ele>872.0</ele>
        <time>2019-08-01T05:42:53.980Z</time>
      </trkpt>
      <trkpt lat="43.00329167" lon="-1.205335">
        <ele>871.0</ele>
        <time>2019-08-01T05:42:54.987Z</time>
      </trkpt>
      <trkpt lat="43.00330667" lon="-1.20533167">
        <ele>871.0</ele>
        <time>2019-08-01T05:42:55.993Z</time>
      </trkpt>
      <trkpt lat="43.00332333" lon="-1.20533">
        <ele>871.0</ele>
        <time>2019-08-01T05:42:57.000Z</time>
      </trkpt>
      <trkpt lat="43.00333833" lon="-1.20532667">
        <ele>870.0</ele>
        <time>2019-08-01T05:42:58.006Z</time>
      </trkpt>
      <trkpt lat="43.00335" lon="-1.205325">
        <ele>869.0</ele>
        <time>2019-08-01T05:42:59.013Z</time>
      </trkpt>
      <trkpt lat="43.003365" lon="-1.20532667">
        <ele>869.0</ele>
        <time>2019-08-01T05:43:00.019Z</time>
      </trkpt>
      <trkpt lat="43.00337667" lon="-1.20533167">
        <ele>869.0</ele>
        <time>2019-08-01T05:43:01.025Z</time>
      </trkpt>
      <trkpt lat="43.00338833" lon="-1.20533333">
        <ele>869.0</ele>
        <time>2019-08-01T05:43:02.032Z</time>
      </trkpt>
      <trkpt lat="43.00340667" lon="-1.205335">
        <ele>870.0</ele>
        <time>2019-08-01T05:43:03.039Z</time>
      </trkpt>
      <trkpt lat="43.00342" lon="-1.20533667">
        <ele>872.0</ele>
        <time>2019-08-01T05:43:03.918Z</time>
      </trkpt>
      <trkpt lat="43.00342833" lon="-1.20533333">
        <ele>872.0</ele>
        <time>2019-08-01T05:43:04.923Z</time>
      </trkpt>
      <trkpt lat="43.00344833" lon="-1.205335">
        <ele>873.0</ele>
        <time>2019-08-01T05:43:05.928Z</time>
      </trkpt>
      <trkpt lat="43.00346667" lon="-1.20533833">
        <ele>874.0</ele>
        <time>2019-08-01T05:43:06.936Z</time>
      </trkpt>
      <trkpt lat="43.00348667" lon="-1.20534167">
        <ele>875.0</ele>
        <time>2019-08-01T05:43:07.941Z</time>
      </trkpt>
      <trkpt lat="43.00350333" lon="-1.20534167">
        <ele>875.0</ele>
        <time>2019-08-01T05:43:08.945Z</time>
      </trkpt>
      <trkpt lat="43.00352333" lon="-1.20533667">
        <ele>876.0</ele>
        <time>2019-08-01T05:43:09.952Z</time>
      </trkpt>
      <trkpt lat="43.00354167" lon="-1.205335">
        <ele>877.0</ele>
        <time>2019-08-01T05:43:10.957Z</time>
      </trkpt>
      <trkpt lat="43.00355" lon="-1.20533167">
        <ele>877.0</ele>
        <time>2019-08-01T05:43:11.961Z</time>
      </trkpt>
      <trkpt lat="43.00355833" lon="-1.20532333">
        <ele>877.0</ele>
        <time>2019-08-01T05:43:12.967Z</time>
      </trkpt>
      <trkpt lat="43.00357333" lon="-1.20532167">
        <ele>875.0</ele>
        <time>2019-08-01T05:43:13.975Z</time>
      </trkpt>
      <trkpt lat="43.00359167" lon="-1.20531333">
        <ele>875.0</ele>
        <time>2019-08-01T05:43:14.980Z</time>
      </trkpt>
      <trkpt lat="43.00361167" lon="-1.20530833">
        <ele>874.0</ele>
        <time>2019-08-01T05:43:15.985Z</time>
      </trkpt>
      <trkpt lat="43.00362833" lon="-1.20531">
        <ele>873.0</ele>
        <time>2019-08-01T05:43:16.990Z</time>
      </trkpt>
      <trkpt lat="43.00364667" lon="-1.20531333">
        <ele>873.0</ele>
        <time>2019-08-01T05:43:17.998Z</time>
      </trkpt>
      <trkpt lat="43.00365667" lon="-1.20531667">
        <ele>874.0</ele>
        <time>2019-08-01T05:43:19.003Z</time>
      </trkpt>
      <trkpt lat="43.00367167" lon="-1.20532">
        <ele>874.0</ele>
        <time>2019-08-01T05:43:20.010Z</time>
      </trkpt>
      <trkpt lat="43.00368667" lon="-1.20532167">
        <ele>875.0</ele>
        <time>2019-08-01T05:43:21.017Z</time>
      </trkpt>
      <trkpt lat="43.00370333" lon="-1.20532167">
        <ele>876.0</ele>
        <time>2019-08-01T05:43:22.021Z</time>
      </trkpt>
      <trkpt lat="43.003715" lon="-1.20532333">
        <ele>877.0</ele>
        <time>2019-08-01T05:43:23.028Z</time>
      </trkpt>
      <trkpt lat="43.00373333" lon="-1.20532167">
        <ele>877.0</ele>
        <time>2019-08-01T05:43:24.034Z</time>
      </trkpt>
      <trkpt lat="43.00375167" lon="-1.20531333">
        <ele>876.0</ele>
        <time>2019-08-01T05:43:25.040Z</time>
      </trkpt>
      <trkpt lat="43.00376333" lon="-1.20530333">
        <ele>875.0</ele>
        <time>2019-08-01T05:43:25.920Z</time>
      </trkpt>
      <trkpt lat="43.00378667" lon="-1.20529667">
        <ele>874.0</ele>
        <time>2019-08-01T05:43:26.925Z</time>
      </trkpt>
      <trkpt lat="43.00380833" lon="-1.20529333">
        <ele>875.0</ele>
        <time>2019-08-01T05:43:27.931Z</time>
      </trkpt>
      <trkpt lat="43.003825" lon="-1.20528833">
        <ele>874.0</ele>
        <time>2019-08-01T05:43:28.936Z</time>
      </trkpt>
      <trkpt lat="43.00384333" lon="-1.20527833">
        <ele>874.0</ele>
        <time>2019-08-01T05:43:29.940Z</time>
      </trkpt>
      <trkpt lat="43.00386" lon="-1.205275">
        <ele>873.0</ele>
        <time>2019-08-01T05:43:30.945Z</time>
      </trkpt>
      <trkpt lat="43.00387167" lon="-1.20527667">
        <ele>873.0</ele>
        <time>2019-08-01T05:43:31.949Z</time>
      </trkpt>
      <trkpt lat="43.00389333" lon="-1.20528">
        <ele>875.0</ele>
        <time>2019-08-01T05:43:32.953Z</time>
      </trkpt>
      <trkpt lat="43.00391" lon="-1.20529">
        <ele>877.0</ele>
        <time>2019-08-01T05:43:33.958Z</time>
      </trkpt>
      <trkpt lat="43.00392" lon="-1.20529667">
        <ele>878.0</ele>
        <time>2019-08-01T05:43:34.961Z</time>
      </trkpt>
      <trkpt lat="43.00392167" lon="-1.2053">
        <ele>879.0</ele>
        <time>2019-08-01T05:43:35.966Z</time>
      </trkpt>
      <trkpt lat="43.00392167" lon="-1.20530667">
        <ele>879.0</ele>
        <time>2019-08-01T05:43:36.970Z</time>
      </trkpt>
      <trkpt lat="43.00392833" lon="-1.20531833">
        <ele>880.0</ele>
        <time>2019-08-01T05:43:37.975Z</time>
      </trkpt>
      <trkpt lat="43.00394" lon="-1.205325">
        <ele>879.0</ele>
        <time>2019-08-01T05:43:38.980Z</time>
      </trkpt>
      <trkpt lat="43.00395167" lon="-1.20533">
        <ele>879.0</ele>
        <time>2019-08-01T05:43:39.984Z</time>
      </trkpt>
      <trkpt lat="43.00396333" lon="-1.205335">
        <ele>879.0</ele>
        <time>2019-08-01T05:43:40.988Z</time>
      </trkpt>
      <trkpt lat="43.00397667" lon="-1.20534">
        <ele>879.0</ele>
        <time>2019-08-01T05:43:41.994Z</time>
      </trkpt>
      <trkpt lat="43.00399167" lon="-1.205345">
        <ele>879.0</ele>
        <time>2019-08-01T05:43:42.997Z</time>
      </trkpt>
      <trkpt lat="43.004005" lon="-1.20535">
        <ele>880.0</ele>
        <time>2019-08-01T05:43:44.002Z</time>
      </trkpt>
      <trkpt lat="43.00402167" lon="-1.20535833">
        <ele>881.0</ele>
        <time>2019-08-01T05:43:45.007Z</time>
      </trkpt>
      <trkpt lat="43.00403667" lon="-1.20537">
        <ele>883.0</ele>
        <time>2019-08-01T05:43:46.013Z</time>
      </trkpt>
      <trkpt lat="43.00405167" lon="-1.20538167">
        <ele>883.0</ele>
        <time>2019-08-01T05:43:47.020Z</time>
      </trkpt>
      <trkpt lat="43.004065" lon="-1.20539167">
        <ele>884.0</ele>
        <time>2019-08-01T05:43:48.028Z</time>
      </trkpt>
      <trkpt lat="43.00408" lon="-1.20540167">
        <ele>885.0</ele>
        <time>2019-08-01T05:43:49.034Z</time>
      </trkpt>
      <trkpt lat="43.00409667" lon="-1.20541">
        <ele>886.0</ele>
        <time>2019-08-01T05:43:50.038Z</time>
      </trkpt>
      <trkpt lat="43.00411167" lon="-1.205415">
        <ele>886.0</ele>
        <time>2019-08-01T05:43:50.919Z</time>
      </trkpt>
      <trkpt lat="43.00412667" lon="-1.20541667">
        <ele>886.0</ele>
        <time>2019-08-01T05:43:51.924Z</time>
      </trkpt>
      <trkpt lat="43.00413833" lon="-1.20542">
        <ele>885.0</ele>
        <time>2019-08-01T05:43:52.931Z</time>
      </trkpt>
      <trkpt lat="43.00414667" lon="-1.20542333">
        <ele>885.0</ele>
        <time>2019-08-01T05:43:53.938Z</time>
      </trkpt>
      <trkpt lat="43.00415833" lon="-1.20543">
        <ele>885.0</ele>
        <time>2019-08-01T05:43:54.943Z</time>
      </trkpt>
      <trkpt lat="43.00417167" lon="-1.20543333">
        <ele>885.0</ele>
        <time>2019-08-01T05:43:55.949Z</time>
      </trkpt>
      <trkpt lat="43.00418167" lon="-1.20543667">
        <ele>884.0</ele>
        <time>2019-08-01T05:43:56.953Z</time>
      </trkpt>
      <trkpt lat="43.00418833" lon="-1.20544">
        <ele>884.0</ele>
        <time>2019-08-01T05:43:57.956Z</time>
      </trkpt>
      <trkpt lat="43.004195" lon="-1.20544167">
        <ele>882.0</ele>
        <time>2019-08-01T05:43:58.961Z</time>
      </trkpt>
      <trkpt lat="43.00420333" lon="-1.20545">
        <ele>882.0</ele>
        <time>2019-08-01T05:43:59.967Z</time>
      </trkpt>
      <trkpt lat="43.00421" lon="-1.20546">
        <ele>883.0</ele>
        <time>2019-08-01T05:44:00.972Z</time>
      </trkpt>
      <trkpt lat="43.00422167" lon="-1.20546833">
        <ele>883.0</ele>
        <time>2019-08-01T05:44:01.976Z</time>
      </trkpt>
      <trkpt lat="43.004225" lon="-1.20547833">
        <ele>884.0</ele>
        <time>2019-08-01T05:44:02.978Z</time>
      </trkpt>
      <trkpt lat="43.00424333" lon="-1.20549167">
        <ele>885.0</ele>
        <time>2019-08-01T05:44:03.983Z</time>
      </trkpt>
      <trkpt lat="43.00426" lon="-1.205505">
        <ele>887.0</ele>
        <time>2019-08-01T05:44:04.989Z</time>
      </trkpt>
      <trkpt lat="43.00428167" lon="-1.20552">
        <ele>889.0</ele>
        <time>2019-08-01T05:44:05.994Z</time>
      </trkpt>
      <trkpt lat="43.0043" lon="-1.20552667">
        <ele>889.0</ele>
        <time>2019-08-01T05:44:06.999Z</time>
      </trkpt>
      <trkpt lat="43.00431333" lon="-1.20553333">
        <ele>890.0</ele>
        <time>2019-08-01T05:44:08.005Z</time>
      </trkpt>
      <trkpt lat="43.00434333" lon="-1.20553833">
        <ele>891.0</ele>
        <time>2019-08-01T05:44:09.011Z</time>
      </trkpt>
      <trkpt lat="43.00437333" lon="-1.20553833">
        <ele>892.0</ele>
        <time>2019-08-01T05:44:10.017Z</time>
      </trkpt>
      <trkpt lat="43.004395" lon="-1.20554667">
        <ele>893.0</ele>
        <time>2019-08-01T05:44:11.024Z</time>
      </trkpt>
      <trkpt lat="43.00442333" lon="-1.20555833">
        <ele>892.0</ele>
        <time>2019-08-01T05:44:12.031Z</time>
      </trkpt>
      <trkpt lat="43.00445" lon="-1.20555667">
        <ele>891.0</ele>
        <time>2019-08-01T05:44:13.039Z</time>
      </trkpt>
      <trkpt lat="43.00447167" lon="-1.20554833">
        <ele>890.0</ele>
        <time>2019-08-01T05:44:13.919Z</time>
      </trkpt>
      <trkpt lat="43.00449167" lon="-1.20554667">
        <ele>892.0</ele>
        <time>2019-08-01T05:44:14.925Z</time>
      </trkpt>
      <trkpt lat="43.00450333" lon="-1.20555167">
        <ele>892.0</ele>
        <time>2019-08-01T05:44:15.931Z</time>
      </trkpt>
      <trkpt lat="43.004515" lon="-1.205565">
        <ele>893.0</ele>
        <time>2019-08-01T05:44:16.937Z</time>
      </trkpt>
      <trkpt lat="43.00453167" lon="-1.20558">
        <ele>894.0</ele>
        <time>2019-08-01T05:44:17.945Z</time>
      </trkpt>
      <trkpt lat="43.00455667" lon="-1.205595">
        <ele>895.0</ele>
        <time>2019-08-01T05:44:18.951Z</time>
      </trkpt>
      <trkpt lat="43.004585" lon="-1.20560833">
        <ele>896.0</ele>
        <time>2019-08-01T05:44:19.958Z</time>
      </trkpt>
      <trkpt lat="43.00459833" lon="-1.20561833">
        <ele>896.0</ele>
        <time>2019-08-01T05:44:20.963Z</time>
      </trkpt>
      <trkpt lat="43.00460667" lon="-1.20562833">
        <ele>896.0</ele>
        <time>2019-08-01T05:44:21.969Z</time>
      </trkpt>
      <trkpt lat="43.004625" lon="-1.20563833">
        <ele>897.0</ele>
        <time>2019-08-01T05:44:22.973Z</time>
      </trkpt>
      <trkpt lat="43.004645" lon="-1.205645">
        <ele>898.0</ele>
        <time>2019-08-01T05:44:23.978Z</time>
      </trkpt>
      <trkpt lat="43.00466333" lon="-1.20565">
        <ele>899.0</ele>
        <time>2019-08-01T05:44:24.983Z</time>
      </trkpt>
      <trkpt lat="43.00467833" lon="-1.20565333">
        <ele>901.0</ele>
        <time>2019-08-01T05:44:25.991Z</time>
      </trkpt>
      <trkpt lat="43.00468667" lon="-1.20564667">
        <ele>901.0</ele>
        <time>2019-08-01T05:44:26.996Z</time>
      </trkpt>
      <trkpt lat="43.00469667" lon="-1.205635">
        <ele>900.0</ele>
        <time>2019-08-01T05:44:28.002Z</time>
      </trkpt>
      <trkpt lat="43.00470167" lon="-1.20562333">
        <ele>897.0</ele>
        <time>2019-08-01T05:44:29.005Z</time>
      </trkpt>
      <trkpt lat="43.00471333" lon="-1.20561333">
        <ele>895.0</ele>
        <time>2019-08-01T05:44:30.010Z</time>
      </trkpt>
      <trkpt lat="43.00472667" lon="-1.20561167">
        <ele>895.0</ele>
        <time>2019-08-01T05:44:31.016Z</time>
      </trkpt>
      <trkpt lat="43.00474167" lon="-1.20561167">
        <ele>895.0</ele>
        <time>2019-08-01T05:44:32.021Z</time>
      </trkpt>
      <trkpt lat="43.00475333" lon="-1.20561333">
        <ele>895.0</ele>
        <time>2019-08-01T05:44:33.028Z</time>
      </trkpt>
      <trkpt lat="43.00476667" lon="-1.205615">
        <ele>896.0</ele>
        <time>2019-08-01T05:44:34.035Z</time>
      </trkpt>
      <trkpt lat="43.00478" lon="-1.205615">
        <ele>896.0</ele>
        <time>2019-08-01T05:44:35.041Z</time>
      </trkpt>
      <trkpt lat="43.00479333" lon="-1.205615">
        <ele>897.0</ele>
        <time>2019-08-01T05:44:35.919Z</time>
      </trkpt>
      <trkpt lat="43.00480667" lon="-1.20561333">
        <ele>897.0</ele>
        <time>2019-08-01T05:44:36.926Z</time>
      </trkpt>
      <trkpt lat="43.00482167" lon="-1.20561">
        <ele>897.0</ele>
        <time>2019-08-01T05:44:37.931Z</time>
      </trkpt>
      <trkpt lat="43.00483833" lon="-1.20561">
        <ele>896.0</ele>
        <time>2019-08-01T05:44:38.936Z</time>
      </trkpt>
      <trkpt lat="43.00485667" lon="-1.20561333">
        <ele>896.0</ele>
        <time>2019-08-01T05:44:39.941Z</time>
      </trkpt>
      <trkpt lat="43.00487" lon="-1.20561333">
        <ele>896.0</ele>
        <time>2019-08-01T05:44:40.945Z</time>
      </trkpt>
      <trkpt lat="43.00488667" lon="-1.20561667">
        <ele>895.0</ele>
        <time>2019-08-01T05:44:41.953Z</time>
      </trkpt>
      <trkpt lat="43.00489833" lon="-1.20562167">
        <ele>894.0</ele>
        <time>2019-08-01T05:44:42.961Z</time>
      </trkpt>
      <trkpt lat="43.00491" lon="-1.205625">
        <ele>893.0</ele>
        <time>2019-08-01T05:44:43.963Z</time>
      </trkpt>
      <trkpt lat="43.00492" lon="-1.20563">
        <ele>893.0</ele>
        <time>2019-08-01T05:44:44.970Z</time>
      </trkpt>
      <trkpt lat="43.00493667" lon="-1.20563333">
        <ele>893.0</ele>
        <time>2019-08-01T05:44:45.976Z</time>
      </trkpt>
      <trkpt lat="43.00494833" lon="-1.20564">
        <ele>893.0</ele>
        <time>2019-08-01T05:44:46.983Z</time>
      </trkpt>
      <trkpt lat="43.004965" lon="-1.205645">
        <ele>894.0</ele>
        <time>2019-08-01T05:44:47.988Z</time>
      </trkpt>
      <trkpt lat="43.00498167" lon="-1.20564833">
        <ele>894.0</ele>
        <time>2019-08-01T05:44:48.991Z</time>
      </trkpt>
      <trkpt lat="43.005" lon="-1.20565667">
        <ele>894.0</ele>
        <time>2019-08-01T05:44:49.995Z</time>
      </trkpt>
      <trkpt lat="43.005015" lon="-1.20566333">
        <ele>894.0</ele>
        <time>2019-08-01T05:44:51.000Z</time>
      </trkpt>
      <trkpt lat="43.00503" lon="-1.20566667">
        <ele>893.0</ele>
        <time>2019-08-01T05:44:52.004Z</time>
      </trkpt>
      <trkpt lat="43.00505" lon="-1.205665">
        <ele>893.0</ele>
        <time>2019-08-01T05:44:53.009Z</time>
      </trkpt>
      <trkpt lat="43.00507167" lon="-1.20566667">
        <ele>893.0</ele>
        <time>2019-08-01T05:44:54.012Z</time>
      </trkpt>
      <trkpt lat="43.005095" lon="-1.20567167">
        <ele>895.0</ele>
        <time>2019-08-01T05:44:55.017Z</time>
      </trkpt>
      <trkpt lat="43.00511833" lon="-1.20567333">
        <ele>896.0</ele>
        <time>2019-08-01T05:44:56.022Z</time>
      </trkpt>
      <trkpt lat="43.00513667" lon="-1.20566667">
        <ele>896.0</ele>
        <time>2019-08-01T05:44:57.029Z</time>
      </trkpt>
      <trkpt lat="43.00515333" lon="-1.20566833">
        <ele>897.0</ele>
        <time>2019-08-01T05:44:58.037Z</time>
      </trkpt>
      <trkpt lat="43.00517333" lon="-1.20567833">
        <ele>897.0</ele>
        <time>2019-08-01T05:44:58.918Z</time>
      </trkpt>
      <trkpt lat="43.00519833" lon="-1.205685">
        <ele>897.0</ele>
        <time>2019-08-01T05:44:59.921Z</time>
      </trkpt>
      <trkpt lat="43.005225" lon="-1.20568833">
        <ele>898.0</ele>
        <time>2019-08-01T05:45:00.925Z</time>
      </trkpt>
      <trkpt lat="43.00524667" lon="-1.205685">
        <ele>899.0</ele>
        <time>2019-08-01T05:45:01.930Z</time>
      </trkpt>
      <trkpt lat="43.00526" lon="-1.205685">
        <ele>899.0</ele>
        <time>2019-08-01T05:45:02.937Z</time>
      </trkpt>
      <trkpt lat="43.00528" lon="-1.20567833">
        <ele>900.0</ele>
        <time>2019-08-01T05:45:03.944Z</time>
      </trkpt>
      <trkpt lat="43.00529833" lon="-1.205675">
        <ele>900.0</ele>
        <time>2019-08-01T05:45:04.947Z</time>
      </trkpt>
      <trkpt lat="43.00532" lon="-1.20565833">
        <ele>899.0</ele>
        <time>2019-08-01T05:45:05.952Z</time>
      </trkpt>
      <trkpt lat="43.00534" lon="-1.20564833">
        <ele>898.0</ele>
        <time>2019-08-01T05:45:06.959Z</time>
      </trkpt>
      <trkpt lat="43.00535833" lon="-1.20562667">
        <ele>896.0</ele>
        <time>2019-08-01T05:45:07.963Z</time>
      </trkpt>
      <trkpt lat="43.005375" lon="-1.20561667">
        <ele>896.0</ele>
        <time>2019-08-01T05:45:08.969Z</time>
      </trkpt>
      <trkpt lat="43.00539167" lon="-1.20560833">
        <ele>896.0</ele>
        <time>2019-08-01T05:45:09.976Z</time>
      </trkpt>
      <trkpt lat="43.00541" lon="-1.2056">
        <ele>895.0</ele>
        <time>2019-08-01T05:45:10.981Z</time>
      </trkpt>
      <trkpt lat="43.00542667" lon="-1.20559333">
        <ele>897.0</ele>
        <time>2019-08-01T05:45:11.984Z</time>
      </trkpt>
      <trkpt lat="43.00543667" lon="-1.20558667">
        <ele>898.0</ele>
        <time>2019-08-01T05:45:12.990Z</time>
      </trkpt>
      <trkpt lat="43.00545" lon="-1.20558167">
        <ele>899.0</ele>
        <time>2019-08-01T05:45:13.995Z</time>
      </trkpt>
      <trkpt lat="43.00546333" lon="-1.20557667">
        <ele>901.0</ele>
        <time>2019-08-01T05:45:15.000Z</time>
      </trkpt>
      <trkpt lat="43.00547167" lon="-1.20556667">
        <ele>901.0</ele>
        <time>2019-08-01T05:45:16.006Z</time>
      </trkpt>
      <trkpt lat="43.00548167" lon="-1.20556">
        <ele>902.0</ele>
        <time>2019-08-01T05:45:17.011Z</time>
      </trkpt>
      <trkpt lat="43.00549333" lon="-1.205555">
        <ele>903.0</ele>
        <time>2019-08-01T05:45:18.013Z</time>
      </trkpt>
      <trkpt lat="43.00550333" lon="-1.20555333">
        <ele>903.0</ele>
        <time>2019-08-01T05:45:19.019Z</time>
      </trkpt>
      <trkpt lat="43.00552" lon="-1.205555">
        <ele>904.0</ele>
        <time>2019-08-01T05:45:20.024Z</time>
      </trkpt>
      <trkpt lat="43.00553333" lon="-1.20555667">
        <ele>904.0</ele>
        <time>2019-08-01T05:45:21.028Z</time>
      </trkpt>
      <trkpt lat="43.00554833" lon="-1.205555">
        <ele>904.0</ele>
        <time>2019-08-01T05:45:22.036Z</time>
      </trkpt>
      <trkpt lat="43.00556" lon="-1.20555">
        <ele>903.0</ele>
        <time>2019-08-01T05:45:23.041Z</time>
      </trkpt>
      <trkpt lat="43.00557167" lon="-1.20554">
        <ele>902.0</ele>
        <time>2019-08-01T05:45:23.919Z</time>
      </trkpt>
      <trkpt lat="43.00558167" lon="-1.20553167">
        <ele>901.0</ele>
        <time>2019-08-01T05:45:24.924Z</time>
      </trkpt>
      <trkpt lat="43.00559167" lon="-1.20551833">
        <ele>900.0</ele>
        <time>2019-08-01T05:45:25.930Z</time>
      </trkpt>
      <trkpt lat="43.0056" lon="-1.205505">
        <ele>900.0</ele>
        <time>2019-08-01T05:45:26.935Z</time>
      </trkpt>
      <trkpt lat="43.00560833" lon="-1.20548833">
        <ele>899.0</ele>
        <time>2019-08-01T05:45:27.942Z</time>
      </trkpt>
      <trkpt lat="43.005615" lon="-1.20547">
        <ele>897.0</ele>
        <time>2019-08-01T05:45:28.948Z</time>
      </trkpt>
      <trkpt lat="43.005625" lon="-1.205455">
        <ele>897.0</ele>
        <time>2019-08-01T05:45:29.955Z</time>
      </trkpt>
      <trkpt lat="43.005635" lon="-1.20544167">
        <ele>897.0</ele>
        <time>2019-08-01T05:45:30.961Z</time>
      </trkpt>
      <trkpt lat="43.005645" lon="-1.205425">
        <ele>897.0</ele>
        <time>2019-08-01T05:45:31.967Z</time>
      </trkpt>
      <trkpt lat="43.00565333" lon="-1.20541">
        <ele>896.0</ele>
        <time>2019-08-01T05:45:32.973Z</time>
      </trkpt>
      <trkpt lat="43.00566333" lon="-1.20539833">
        <ele>896.0</ele>
        <time>2019-08-01T05:45:33.978Z</time>
      </trkpt>
      <trkpt lat="43.00567" lon="-1.20538333">
        <ele>895.0</ele>
        <time>2019-08-01T05:45:34.985Z</time>
      </trkpt>
      <trkpt lat="43.00567667" lon="-1.20537">
        <ele>895.0</ele>
        <time>2019-08-01T05:45:35.990Z</time>
      </trkpt>
      <trkpt lat="43.005685" lon="-1.20535667">
        <ele>894.0</ele>
        <time>2019-08-01T05:45:36.997Z</time>
      </trkpt>
      <trkpt lat="43.0057" lon="-1.20534333">
        <ele>895.0</ele>
        <time>2019-08-01T05:45:38.003Z</time>
      </trkpt>
      <trkpt lat="43.005715" lon="-1.20533167">
        <ele>895.0</ele>
        <time>2019-08-01T05:45:39.009Z</time>
      </trkpt>
      <trkpt lat="43.005725" lon="-1.20531667">
        <ele>895.0</ele>
        <time>2019-08-01T05:45:40.016Z</time>
      </trkpt>
      <trkpt lat="43.005735" lon="-1.20529667">
        <ele>895.0</ele>
        <time>2019-08-01T05:45:41.023Z</time>
      </trkpt>
      <trkpt lat="43.00574667" lon="-1.20527667">
        <ele>895.0</ele>
        <time>2019-08-01T05:45:42.026Z</time>
      </trkpt>
      <trkpt lat="43.00576167" lon="-1.20525667">
        <ele>896.0</ele>
        <time>2019-08-01T05:45:43.032Z</time>
      </trkpt>
      <trkpt lat="43.00577833" lon="-1.20524333">
        <ele>896.0</ele>
        <time>2019-08-01T05:45:44.035Z</time>
      </trkpt>
      <trkpt lat="43.00579167" lon="-1.20523333">
        <ele>896.0</ele>
        <time>2019-08-01T05:45:45.040Z</time>
      </trkpt>
      <trkpt lat="43.00579833" lon="-1.20522">
        <ele>897.0</ele>
        <time>2019-08-01T05:45:45.919Z</time>
      </trkpt>
      <trkpt lat="43.00581167" lon="-1.20520833">
        <ele>896.0</ele>
        <time>2019-08-01T05:45:46.924Z</time>
      </trkpt>
      <trkpt lat="43.00581833" lon="-1.20519167">
        <ele>895.0</ele>
        <time>2019-08-01T05:45:47.932Z</time>
      </trkpt>
      <trkpt lat="43.00583167" lon="-1.20518333">
        <ele>894.0</ele>
        <time>2019-08-01T05:45:48.938Z</time>
      </trkpt>
      <trkpt lat="43.005835" lon="-1.20516833">
        <ele>895.0</ele>
        <time>2019-08-01T05:45:49.943Z</time>
      </trkpt>
      <trkpt lat="43.00584333" lon="-1.20514">
        <ele>895.0</ele>
        <time>2019-08-01T05:45:50.950Z</time>
      </trkpt>
      <trkpt lat="43.00585833" lon="-1.20510667">
        <ele>895.0</ele>
        <time>2019-08-01T05:45:51.957Z</time>
      </trkpt>
      <trkpt lat="43.005875" lon="-1.205075">
        <ele>896.0</ele>
        <time>2019-08-01T05:45:52.961Z</time>
      </trkpt>
      <trkpt lat="43.00588" lon="-1.20504667">
        <ele>896.0</ele>
        <time>2019-08-01T05:45:53.966Z</time>
      </trkpt>
      <trkpt lat="43.00589" lon="-1.20501167">
        <ele>894.0</ele>
        <time>2019-08-01T05:45:54.973Z</time>
      </trkpt>
      <trkpt lat="43.00589833" lon="-1.20498">
        <ele>892.0</ele>
        <time>2019-08-01T05:45:55.981Z</time>
      </trkpt>
      <trkpt lat="43.005905" lon="-1.20495833">
        <ele>891.0</ele>
        <time>2019-08-01T05:45:56.985Z</time>
      </trkpt>
      <trkpt lat="43.00591667" lon="-1.20493833">
        <ele>889.0</ele>
        <time>2019-08-01T05:45:57.990Z</time>
      </trkpt>
      <trkpt lat="43.00593167" lon="-1.20491833">
        <ele>888.0</ele>
        <time>2019-08-01T05:45:58.997Z</time>
      </trkpt>
      <trkpt lat="43.00594833" lon="-1.20489833">
        <ele>888.0</ele>
        <time>2019-08-01T05:46:00.002Z</time>
      </trkpt>
      <trkpt lat="43.00596833" lon="-1.204885">
        <ele>889.0</ele>
        <time>2019-08-01T05:46:01.009Z</time>
      </trkpt>
      <trkpt lat="43.00598167" lon="-1.204865">
        <ele>889.0</ele>
        <time>2019-08-01T05:46:02.014Z</time>
      </trkpt>
      <trkpt lat="43.005995" lon="-1.20484">
        <ele>889.0</ele>
        <time>2019-08-01T05:46:03.018Z</time>
      </trkpt>
      <trkpt lat="43.00601167" lon="-1.204825">
        <ele>890.0</ele>
        <time>2019-08-01T05:46:04.023Z</time>
      </trkpt>
      <trkpt lat="43.00602167" lon="-1.20480667">
        <ele>890.0</ele>
        <time>2019-08-01T05:46:05.031Z</time>
      </trkpt>
      <trkpt lat="43.006035" lon="-1.20479167">
        <ele>890.0</ele>
        <time>2019-08-01T05:46:06.037Z</time>
      </trkpt>
      <trkpt lat="43.00604667" lon="-1.20477">
        <ele>889.0</ele>
        <time>2019-08-01T05:46:07.041Z</time>
      </trkpt>
      <trkpt lat="43.00606" lon="-1.20475333">
        <ele>887.0</ele>
        <time>2019-08-01T05:46:07.920Z</time>
      </trkpt>
      <trkpt lat="43.00607667" lon="-1.204735">
        <ele>887.0</ele>
        <time>2019-08-01T05:46:08.926Z</time>
      </trkpt>
      <trkpt lat="43.00608833" lon="-1.20470833">
        <ele>886.0</ele>
        <time>2019-08-01T05:46:09.932Z</time>
      </trkpt>
      <trkpt lat="43.00609833" lon="-1.20467833">
        <ele>885.0</ele>
        <time>2019-08-01T05:46:10.938Z</time>
      </trkpt>
      <trkpt lat="43.00610833" lon="-1.20466833">
        <ele>885.0</ele>
        <time>2019-08-01T05:46:11.944Z</time>
      </trkpt>
      <trkpt lat="43.006115" lon="-1.20465667">
        <ele>884.0</ele>
        <time>2019-08-01T05:46:12.952Z</time>
      </trkpt>
      <trkpt lat="43.00611833" lon="-1.20464833">
        <ele>883.0</ele>
        <time>2019-08-01T05:46:13.957Z</time>
      </trkpt>
      <trkpt lat="43.00612667" lon="-1.20464167">
        <ele>882.0</ele>
        <time>2019-08-01T05:46:14.962Z</time>
      </trkpt>
      <trkpt lat="43.00613667" lon="-1.20463833">
        <ele>883.0</ele>
        <time>2019-08-01T05:46:15.968Z</time>
      </trkpt>
      <trkpt lat="43.00615333" lon="-1.204635">
        <ele>884.0</ele>
        <time>2019-08-01T05:46:16.975Z</time>
      </trkpt>
      <trkpt lat="43.00616167" lon="-1.204625">
        <ele>885.0</ele>
        <time>2019-08-01T05:46:17.981Z</time>
      </trkpt>
      <trkpt lat="43.00616333" lon="-1.20460667">
        <ele>885.0</ele>
        <time>2019-08-01T05:46:18.987Z</time>
      </trkpt>
      <trkpt lat="43.006165" lon="-1.20459167">
        <ele>885.0</ele>
        <time>2019-08-01T05:46:19.993Z</time>
      </trkpt>
      <trkpt lat="43.00616833" lon="-1.20457667">
        <ele>885.0</ele>
        <time>2019-08-01T05:46:20.999Z</time>
      </trkpt>
      <trkpt lat="43.00617" lon="-1.20456167">
        <ele>884.0</ele>
        <time>2019-08-01T05:46:22.002Z</time>
      </trkpt>
      <trkpt lat="43.00617167" lon="-1.20454333">
        <ele>884.0</ele>
        <time>2019-08-01T05:46:23.008Z</time>
      </trkpt>
      <trkpt lat="43.00617333" lon="-1.204525">
        <ele>883.0</ele>
        <time>2019-08-01T05:46:24.015Z</time>
      </trkpt>
      <trkpt lat="43.00617333" lon="-1.20450667">
        <ele>882.0</ele>
        <time>2019-08-01T05:46:25.021Z</time>
      </trkpt>
      <trkpt lat="43.00617667" lon="-1.20448833">
        <ele>881.0</ele>
        <time>2019-08-01T05:46:26.028Z</time>
      </trkpt>
      <trkpt lat="43.00618" lon="-1.20446833">
        <ele>881.0</ele>
        <time>2019-08-01T05:46:27.034Z</time>
      </trkpt>
      <trkpt lat="43.00618333" lon="-1.20444833">
        <ele>880.0</ele>
        <time>2019-08-01T05:46:28.040Z</time>
      </trkpt>
      <trkpt lat="43.006185" lon="-1.20442333">
        <ele>880.0</ele>
        <time>2019-08-01T05:46:28.919Z</time>
      </trkpt>
      <trkpt lat="43.00618833" lon="-1.20440167">
        <ele>879.0</ele>
        <time>2019-08-01T05:46:29.923Z</time>
      </trkpt>
      <trkpt lat="43.00619167" lon="-1.20437833">
        <ele>879.0</ele>
        <time>2019-08-01T05:46:30.929Z</time>
      </trkpt>
      <trkpt lat="43.006195" lon="-1.204355">
        <ele>878.0</ele>
        <time>2019-08-01T05:46:31.936Z</time>
      </trkpt>
      <trkpt lat="43.00620333" lon="-1.20433667">
        <ele>876.0</ele>
        <time>2019-08-01T05:46:32.942Z</time>
      </trkpt>
      <trkpt lat="43.00620833" lon="-1.20431667">
        <ele>875.0</ele>
        <time>2019-08-01T05:46:33.948Z</time>
      </trkpt>
      <trkpt lat="43.00621833" lon="-1.20430167">
        <ele>875.0</ele>
        <time>2019-08-01T05:46:34.953Z</time>
      </trkpt>
      <trkpt lat="43.00622667" lon="-1.20428833">
        <ele>875.0</ele>
        <time>2019-08-01T05:46:35.958Z</time>
      </trkpt>
      <trkpt lat="43.00623667" lon="-1.20427">
        <ele>874.0</ele>
        <time>2019-08-01T05:46:36.962Z</time>
      </trkpt>
      <trkpt lat="43.00624333" lon="-1.20424667">
        <ele>874.0</ele>
        <time>2019-08-01T05:46:37.970Z</time>
      </trkpt>
      <trkpt lat="43.00625167" lon="-1.20422333">
        <ele>872.0</ele>
        <time>2019-08-01T05:46:38.975Z</time>
      </trkpt>
      <trkpt lat="43.00626" lon="-1.20419667">
        <ele>872.0</ele>
        <time>2019-08-01T05:46:39.981Z</time>
      </trkpt>
      <trkpt lat="43.00627167" lon="-1.20417333">
        <ele>872.0</ele>
        <time>2019-08-01T05:46:40.988Z</time>
      </trkpt>
      <trkpt lat="43.00627833" lon="-1.20414333">
        <ele>871.0</ele>
        <time>2019-08-01T05:46:41.995Z</time>
      </trkpt>
      <trkpt lat="43.00628333" lon="-1.204115">
        <ele>871.0</ele>
        <time>2019-08-01T05:46:43.002Z</time>
      </trkpt>
      <trkpt lat="43.00629" lon="-1.20409">
        <ele>871.0</ele>
        <time>2019-08-01T05:46:44.009Z</time>
      </trkpt>
      <trkpt lat="43.00629167" lon="-1.20406">
        <ele>871.0</ele>
        <time>2019-08-01T05:46:45.014Z</time>
      </trkpt>
      <trkpt lat="43.00629833" lon="-1.20403333">
        <ele>871.0</ele>
        <time>2019-08-01T05:46:46.021Z</time>
      </trkpt>
      <trkpt lat="43.00630167" lon="-1.20401">
        <ele>872.0</ele>
        <time>2019-08-01T05:46:47.028Z</time>
      </trkpt>
      <trkpt lat="43.00630667" lon="-1.20399167">
        <ele>873.0</ele>
        <time>2019-08-01T05:46:48.032Z</time>
      </trkpt>
      <trkpt lat="43.00630833" lon="-1.20396167">
        <ele>873.0</ele>
        <time>2019-08-01T05:46:49.038Z</time>
      </trkpt>
      <trkpt lat="43.00631" lon="-1.20393333">
        <ele>873.0</ele>
        <time>2019-08-01T05:46:49.918Z</time>
      </trkpt>
      <trkpt lat="43.00632" lon="-1.20390167">
        <ele>873.0</ele>
        <time>2019-08-01T05:46:50.923Z</time>
      </trkpt>
      <trkpt lat="43.00633" lon="-1.20387833">
        <ele>873.0</ele>
        <time>2019-08-01T05:46:51.928Z</time>
      </trkpt>
      <trkpt lat="43.006345" lon="-1.20386167">
        <ele>874.0</ele>
        <time>2019-08-01T05:46:52.936Z</time>
      </trkpt>
      <trkpt lat="43.00635667" lon="-1.20383833">
        <ele>874.0</ele>
        <time>2019-08-01T05:46:53.943Z</time>
      </trkpt>
      <trkpt lat="43.00636167" lon="-1.20381667">
        <ele>874.0</ele>
        <time>2019-08-01T05:46:54.950Z</time>
      </trkpt>
      <trkpt lat="43.006365" lon="-1.20379333">
        <ele>874.0</ele>
        <time>2019-08-01T05:46:55.954Z</time>
      </trkpt>
      <trkpt lat="43.00637" lon="-1.20377167">
        <ele>873.0</ele>
        <time>2019-08-01T05:46:56.960Z</time>
      </trkpt>
      <trkpt lat="43.006375" lon="-1.20374833">
        <ele>874.0</ele>
        <time>2019-08-01T05:46:57.966Z</time>
      </trkpt>
      <trkpt lat="43.00638833" lon="-1.20372833">
        <ele>874.0</ele>
        <time>2019-08-01T05:46:58.972Z</time>
      </trkpt>
      <trkpt lat="43.00640167" lon="-1.20371167">
        <ele>875.0</ele>
        <time>2019-08-01T05:46:59.978Z</time>
      </trkpt>
      <trkpt lat="43.00640667" lon="-1.20369">
        <ele>875.0</ele>
        <time>2019-08-01T05:47:00.985Z</time>
      </trkpt>
      <trkpt lat="43.00641167" lon="-1.203665">
        <ele>875.0</ele>
        <time>2019-08-01T05:47:01.992Z</time>
      </trkpt>
      <trkpt lat="43.00641667" lon="-1.20363667">
        <ele>874.0</ele>
        <time>2019-08-01T05:47:02.998Z</time>
      </trkpt>
      <trkpt lat="43.00641833" lon="-1.20361167">
        <ele>874.0</ele>
        <time>2019-08-01T05:47:04.002Z</time>
      </trkpt>
      <trkpt lat="43.00642667" lon="-1.20359667">
        <ele>873.0</ele>
        <time>2019-08-01T05:47:05.008Z</time>
      </trkpt>
      <trkpt lat="43.00643333" lon="-1.203575">
        <ele>873.0</ele>
        <time>2019-08-01T05:47:06.014Z</time>
      </trkpt>
      <trkpt lat="43.006445" lon="-1.20355667">
        <ele>873.0</ele>
        <time>2019-08-01T05:47:07.020Z</time>
      </trkpt>
      <trkpt lat="43.00646" lon="-1.203535">
        <ele>872.0</ele>
        <time>2019-08-01T05:47:08.026Z</time>
      </trkpt>
      <trkpt lat="43.00648" lon="-1.20351833">
        <ele>871.0</ele>
        <time>2019-08-01T05:47:09.032Z</time>
      </trkpt>
      <trkpt lat="43.00649667" lon="-1.20350167">
        <ele>871.0</ele>
        <time>2019-08-01T05:47:10.039Z</time>
      </trkpt>
      <trkpt lat="43.00650333" lon="-1.20348167">
        <ele>872.0</ele>
        <time>2019-08-01T05:47:10.918Z</time>
      </trkpt>
      <trkpt lat="43.00648833" lon="-1.20345667">
        <ele>873.0</ele>
        <time>2019-08-01T05:47:11.920Z</time>
      </trkpt>
      <trkpt lat="43.00647667" lon="-1.20343167">
        <ele>874.0</ele>
        <time>2019-08-01T05:47:12.925Z</time>
      </trkpt>
      <trkpt lat="43.006465" lon="-1.203405">
        <ele>874.0</ele>
        <time>2019-08-01T05:47:13.932Z</time>
      </trkpt>
      <trkpt lat="43.00646667" lon="-1.20338333">
        <ele>873.0</ele>
        <time>2019-08-01T05:47:14.940Z</time>
      </trkpt>
      <trkpt lat="43.00646167" lon="-1.20336">
        <ele>874.0</ele>
        <time>2019-08-01T05:47:15.946Z</time>
      </trkpt>
      <trkpt lat="43.00646333" lon="-1.20334333">
        <ele>874.0</ele>
        <time>2019-08-01T05:47:16.952Z</time>
      </trkpt>
      <trkpt lat="43.00646833" lon="-1.20332667">
        <ele>874.0</ele>
        <time>2019-08-01T05:47:17.956Z</time>
      </trkpt>
      <trkpt lat="43.00647333" lon="-1.20330667">
        <ele>874.0</ele>
        <time>2019-08-01T05:47:18.961Z</time>
      </trkpt>
      <trkpt lat="43.00647833" lon="-1.20329">
        <ele>874.0</ele>
        <time>2019-08-01T05:47:19.967Z</time>
      </trkpt>
      <trkpt lat="43.00648333" lon="-1.20326833">
        <ele>874.0</ele>
        <time>2019-08-01T05:47:20.974Z</time>
      </trkpt>
      <trkpt lat="43.00648667" lon="-1.20324833">
        <ele>874.0</ele>
        <time>2019-08-01T05:47:21.981Z</time>
      </trkpt>
      <trkpt lat="43.00649167" lon="-1.20322833">
        <ele>874.0</ele>
        <time>2019-08-01T05:47:22.984Z</time>
      </trkpt>
      <trkpt lat="43.00649667" lon="-1.20321">
        <ele>874.0</ele>
        <time>2019-08-01T05:47:23.986Z</time>
      </trkpt>
      <trkpt lat="43.0065" lon="-1.20319167">
        <ele>874.0</ele>
        <time>2019-08-01T05:47:24.993Z</time>
      </trkpt>
      <trkpt lat="43.006505" lon="-1.20317667">
        <ele>875.0</ele>
        <time>2019-08-01T05:47:25.998Z</time>
      </trkpt>
      <trkpt lat="43.00651167" lon="-1.20316333">
        <ele>875.0</ele>
        <time>2019-08-01T05:47:27.001Z</time>
      </trkpt>
      <trkpt lat="43.00651667" lon="-1.20314833">
        <ele>876.0</ele>
        <time>2019-08-01T05:47:28.006Z</time>
      </trkpt>
      <trkpt lat="43.00652167" lon="-1.20313333">
        <ele>877.0</ele>
        <time>2019-08-01T05:47:29.011Z</time>
      </trkpt>
      <trkpt lat="43.00652833" lon="-1.20311833">
        <ele>878.0</ele>
        <time>2019-08-01T05:47:30.017Z</time>
      </trkpt>
      <trkpt lat="43.006535" lon="-1.203105">
        <ele>879.0</ele>
        <time>2019-08-01T05:47:31.021Z</time>
      </trkpt>
      <trkpt lat="43.00654333" lon="-1.20309">
        <ele>879.0</ele>
        <time>2019-08-01T05:47:32.026Z</time>
      </trkpt>
      <trkpt lat="43.00655167" lon="-1.20307333">
        <ele>879.0</ele>
        <time>2019-08-01T05:47:33.031Z</time>
      </trkpt>
      <trkpt lat="43.00655667" lon="-1.203055">
        <ele>880.0</ele>
        <time>2019-08-01T05:47:34.035Z</time>
      </trkpt>
      <trkpt lat="43.006565" lon="-1.20304">
        <ele>880.0</ele>
        <time>2019-08-01T05:47:35.038Z</time>
      </trkpt>
      <trkpt lat="43.00657" lon="-1.203025">
        <ele>880.0</ele>
        <time>2019-08-01T05:47:36.040Z</time>
      </trkpt>
      <trkpt lat="43.00657833" lon="-1.20301">
        <ele>880.0</ele>
        <time>2019-08-01T05:47:36.918Z</time>
      </trkpt>
      <trkpt lat="43.00658667" lon="-1.20299333">
        <ele>880.0</ele>
        <time>2019-08-01T05:47:37.924Z</time>
      </trkpt>
      <trkpt lat="43.006595" lon="-1.202975">
        <ele>880.0</ele>
        <time>2019-08-01T05:47:38.928Z</time>
      </trkpt>
      <trkpt lat="43.00659833" lon="-1.202955">
        <ele>880.0</ele>
        <time>2019-08-01T05:47:39.932Z</time>
      </trkpt>
      <trkpt lat="43.0066" lon="-1.20293333">
        <ele>881.0</ele>
        <time>2019-08-01T05:47:40.938Z</time>
      </trkpt>
      <trkpt lat="43.00660167" lon="-1.202915">
        <ele>881.0</ele>
        <time>2019-08-01T05:47:41.944Z</time>
      </trkpt>
      <trkpt lat="43.00660667" lon="-1.20289667">
        <ele>881.0</ele>
        <time>2019-08-01T05:47:42.950Z</time>
      </trkpt>
      <trkpt lat="43.00661167" lon="-1.20287833">
        <ele>882.0</ele>
        <time>2019-08-01T05:47:43.954Z</time>
      </trkpt>
      <trkpt lat="43.00661667" lon="-1.20286167">
        <ele>881.0</ele>
        <time>2019-08-01T05:47:44.960Z</time>
      </trkpt>
      <trkpt lat="43.00662333" lon="-1.202845">
        <ele>882.0</ele>
        <time>2019-08-01T05:47:45.964Z</time>
      </trkpt>
      <trkpt lat="43.006635" lon="-1.20283">
        <ele>882.0</ele>
        <time>2019-08-01T05:47:46.969Z</time>
      </trkpt>
      <trkpt lat="43.00664167" lon="-1.20281167">
        <ele>882.0</ele>
        <time>2019-08-01T05:47:47.972Z</time>
      </trkpt>
      <trkpt lat="43.00665" lon="-1.20279167">
        <ele>882.0</ele>
        <time>2019-08-01T05:47:48.977Z</time>
      </trkpt>
      <trkpt lat="43.00666" lon="-1.202775">
        <ele>882.0</ele>
        <time>2019-08-01T05:47:49.983Z</time>
      </trkpt>
      <trkpt lat="43.00666833" lon="-1.20275667">
        <ele>882.0</ele>
        <time>2019-08-01T05:47:50.990Z</time>
      </trkpt>
      <trkpt lat="43.00667333" lon="-1.20273667">
        <ele>882.0</ele>
        <time>2019-08-01T05:47:51.997Z</time>
      </trkpt>
      <trkpt lat="43.00668333" lon="-1.20272">
        <ele>883.0</ele>
        <time>2019-08-01T05:47:53.002Z</time>
      </trkpt>
      <trkpt lat="43.00669167" lon="-1.20270167">
        <ele>883.0</ele>
        <time>2019-08-01T05:47:54.010Z</time>
      </trkpt>
      <trkpt lat="43.0067" lon="-1.20268">
        <ele>883.0</ele>
        <time>2019-08-01T05:47:55.016Z</time>
      </trkpt>
      <trkpt lat="43.00670167" lon="-1.20266167">
        <ele>884.0</ele>
        <time>2019-08-01T05:47:56.023Z</time>
      </trkpt>
      <trkpt lat="43.00670833" lon="-1.20265">
        <ele>884.0</ele>
        <time>2019-08-01T05:47:57.026Z</time>
      </trkpt>
      <trkpt lat="43.00671833" lon="-1.20263833">
        <ele>885.0</ele>
        <time>2019-08-01T05:47:58.031Z</time>
      </trkpt>
      <trkpt lat="43.00672833" lon="-1.20263">
        <ele>886.0</ele>
        <time>2019-08-01T05:47:59.037Z</time>
      </trkpt>
      <trkpt lat="43.00673833" lon="-1.20261667">
        <ele>887.0</ele>
        <time>2019-08-01T05:48:00.042Z</time>
      </trkpt>
      <trkpt lat="43.00674833" lon="-1.20260167">
        <ele>889.0</ele>
        <time>2019-08-01T05:48:00.922Z</time>
      </trkpt>
      <trkpt lat="43.00676" lon="-1.20259">
        <ele>889.0</ele>
        <time>2019-08-01T05:48:01.928Z</time>
      </trkpt>
      <trkpt lat="43.00677333" lon="-1.20257833">
        <ele>890.0</ele>
        <time>2019-08-01T05:48:02.936Z</time>
      </trkpt>
      <trkpt lat="43.00678667" lon="-1.20256833">
        <ele>890.0</ele>
        <time>2019-08-01T05:48:03.941Z</time>
      </trkpt>
      <trkpt lat="43.00679833" lon="-1.20256167">
        <ele>891.0</ele>
        <time>2019-08-01T05:48:04.948Z</time>
      </trkpt>
      <trkpt lat="43.006815" lon="-1.202555">
        <ele>891.0</ele>
        <time>2019-08-01T05:48:05.953Z</time>
      </trkpt>
      <trkpt lat="43.006825" lon="-1.202545">
        <ele>891.0</ele>
        <time>2019-08-01T05:48:06.960Z</time>
      </trkpt>
      <trkpt lat="43.006835" lon="-1.20253667">
        <ele>892.0</ele>
        <time>2019-08-01T05:48:07.964Z</time>
      </trkpt>
      <trkpt lat="43.006845" lon="-1.20252833">
        <ele>892.0</ele>
        <time>2019-08-01T05:48:08.970Z</time>
      </trkpt>
      <trkpt lat="43.00685667" lon="-1.20252167">
        <ele>893.0</ele>
        <time>2019-08-01T05:48:09.975Z</time>
      </trkpt>
      <trkpt lat="43.00686333" lon="-1.20250667">
        <ele>893.0</ele>
        <time>2019-08-01T05:48:10.982Z</time>
      </trkpt>
      <trkpt lat="43.00686833" lon="-1.20249">
        <ele>892.0</ele>
        <time>2019-08-01T05:48:11.987Z</time>
      </trkpt>
      <trkpt lat="43.00687667" lon="-1.20248">
        <ele>892.0</ele>
        <time>2019-08-01T05:48:12.992Z</time>
      </trkpt>
      <trkpt lat="43.006885" lon="-1.20246833">
        <ele>891.0</ele>
        <time>2019-08-01T05:48:13.999Z</time>
      </trkpt>
      <trkpt lat="43.00689167" lon="-1.20245667">
        <ele>890.0</ele>
        <time>2019-08-01T05:48:15.004Z</time>
      </trkpt>
      <trkpt lat="43.0069" lon="-1.20244167">
        <ele>890.0</ele>
        <time>2019-08-01T05:48:16.010Z</time>
      </trkpt>
      <trkpt lat="43.00690833" lon="-1.20242333">
        <ele>889.0</ele>
        <time>2019-08-01T05:48:17.015Z</time>
      </trkpt>
      <trkpt lat="43.00692167" lon="-1.202405">
        <ele>888.0</ele>
        <time>2019-08-01T05:48:18.023Z</time>
      </trkpt>
      <trkpt lat="43.00693167" lon="-1.20238833">
        <ele>887.0</ele>
        <time>2019-08-01T05:48:19.028Z</time>
      </trkpt>
      <trkpt lat="43.00694" lon="-1.20237">
        <ele>886.0</ele>
        <time>2019-08-01T05:48:20.031Z</time>
      </trkpt>
      <trkpt lat="43.00695167" lon="-1.20235333">
        <ele>886.0</ele>
        <time>2019-08-01T05:48:21.038Z</time>
      </trkpt>
      <trkpt lat="43.00696667" lon="-1.202335">
        <ele>885.0</ele>
        <time>2019-08-01T05:48:21.919Z</time>
      </trkpt>
      <trkpt lat="43.006975" lon="-1.20231333">
        <ele>885.0</ele>
        <time>2019-08-01T05:48:22.927Z</time>
      </trkpt>
      <trkpt lat="43.00698333" lon="-1.20229333">
        <ele>884.0</ele>
        <time>2019-08-01T05:48:23.933Z</time>
      </trkpt>
      <trkpt lat="43.006995" lon="-1.20227167">
        <ele>884.0</ele>
        <time>2019-08-01T05:48:24.939Z</time>
      </trkpt>
      <trkpt lat="43.007005" lon="-1.20225">
        <ele>883.0</ele>
        <time>2019-08-01T05:48:25.946Z</time>
      </trkpt>
      <trkpt lat="43.00701667" lon="-1.20222667">
        <ele>882.0</ele>
        <time>2019-08-01T05:48:26.950Z</time>
      </trkpt>
      <trkpt lat="43.00702667" lon="-1.2022">
        <ele>881.0</ele>
        <time>2019-08-01T05:48:27.955Z</time>
      </trkpt>
      <trkpt lat="43.00703333" lon="-1.20217333">
        <ele>880.0</ele>
        <time>2019-08-01T05:48:28.961Z</time>
      </trkpt>
      <trkpt lat="43.00703833" lon="-1.20214667">
        <ele>879.0</ele>
        <time>2019-08-01T05:48:29.966Z</time>
      </trkpt>
      <trkpt lat="43.00704167" lon="-1.20212667">
        <ele>878.0</ele>
        <time>2019-08-01T05:48:30.971Z</time>
      </trkpt>
      <trkpt lat="43.00703833" lon="-1.202105">
        <ele>877.0</ele>
        <time>2019-08-01T05:48:31.978Z</time>
      </trkpt>
      <trkpt lat="43.00705167" lon="-1.20208667">
        <ele>875.0</ele>
        <time>2019-08-01T05:48:32.985Z</time>
      </trkpt>
      <trkpt lat="43.00706167" lon="-1.20206667">
        <ele>875.0</ele>
        <time>2019-08-01T05:48:33.991Z</time>
      </trkpt>
      <trkpt lat="43.00706833" lon="-1.202045">
        <ele>875.0</ele>
        <time>2019-08-01T05:48:34.996Z</time>
      </trkpt>
      <trkpt lat="43.007085" lon="-1.20202">
        <ele>874.0</ele>
        <time>2019-08-01T05:48:36.002Z</time>
      </trkpt>
      <trkpt lat="43.00709833" lon="-1.20199667">
        <ele>873.0</ele>
        <time>2019-08-01T05:48:37.008Z</time>
      </trkpt>
      <trkpt lat="43.00710667" lon="-1.20197167">
        <ele>872.0</ele>
        <time>2019-08-01T05:48:38.015Z</time>
      </trkpt>
      <trkpt lat="43.007125" lon="-1.20195333">
        <ele>872.0</ele>
        <time>2019-08-01T05:48:39.020Z</time>
      </trkpt>
      <trkpt lat="43.00714333" lon="-1.20193833">
        <ele>872.0</ele>
        <time>2019-08-01T05:48:40.026Z</time>
      </trkpt>
      <trkpt lat="43.00715667" lon="-1.20191667">
        <ele>871.0</ele>
        <time>2019-08-01T05:48:41.032Z</time>
      </trkpt>
      <trkpt lat="43.00717667" lon="-1.20190167">
        <ele>871.0</ele>
        <time>2019-08-01T05:48:42.039Z</time>
      </trkpt>
      <trkpt lat="43.00719" lon="-1.20188833">
        <ele>871.0</ele>
        <time>2019-08-01T05:48:42.920Z</time>
      </trkpt>
      <trkpt lat="43.00720833" lon="-1.201875">
        <ele>872.0</ele>
        <time>2019-08-01T05:48:43.925Z</time>
      </trkpt>
      <trkpt lat="43.00722833" lon="-1.201865">
        <ele>873.0</ele>
        <time>2019-08-01T05:48:44.932Z</time>
      </trkpt>
      <trkpt lat="43.00722833" lon="-1.201845">
        <ele>874.0</ele>
        <time>2019-08-01T05:48:45.939Z</time>
      </trkpt>
      <trkpt lat="43.00722167" lon="-1.20182833">
        <ele>875.0</ele>
        <time>2019-08-01T05:48:46.947Z</time>
      </trkpt>
      <trkpt lat="43.00721667" lon="-1.201795">
        <ele>875.0</ele>
        <time>2019-08-01T05:48:47.949Z</time>
      </trkpt>
      <trkpt lat="43.00722" lon="-1.20177833">
        <ele>876.0</ele>
        <time>2019-08-01T05:48:48.954Z</time>
      </trkpt>
      <trkpt lat="43.00722667" lon="-1.20176333">
        <ele>875.0</ele>
        <time>2019-08-01T05:48:49.961Z</time>
      </trkpt>
      <trkpt lat="43.00723333" lon="-1.20175">
        <ele>876.0</ele>
        <time>2019-08-01T05:48:50.965Z</time>
      </trkpt>
      <trkpt lat="43.00724167" lon="-1.201735">
        <ele>876.0</ele>
        <time>2019-08-01T05:48:51.971Z</time>
      </trkpt>
      <trkpt lat="43.00725" lon="-1.20172">
        <ele>877.0</ele>
        <time>2019-08-01T05:48:52.977Z</time>
      </trkpt>
      <trkpt lat="43.00725833" lon="-1.201705">
        <ele>877.0</ele>
        <time>2019-08-01T05:48:53.983Z</time>
      </trkpt>
      <trkpt lat="43.00726167" lon="-1.20168833">
        <ele>878.0</ele>
        <time>2019-08-01T05:48:54.990Z</time>
      </trkpt>
      <trkpt lat="43.007265" lon="-1.20167333">
        <ele>879.0</ele>
        <time>2019-08-01T05:48:55.996Z</time>
      </trkpt>
      <trkpt lat="43.00727167" lon="-1.20166167">
        <ele>880.0</ele>
        <time>2019-08-01T05:48:57.002Z</time>
      </trkpt>
      <trkpt lat="43.00727333" lon="-1.20164667">
        <ele>881.0</ele>
        <time>2019-08-01T05:48:58.008Z</time>
      </trkpt>
      <trkpt lat="43.00727833" lon="-1.20163333">
        <ele>882.0</ele>
        <time>2019-08-01T05:48:59.014Z</time>
      </trkpt>
      <trkpt lat="43.00728167" lon="-1.20161833">
        <ele>884.0</ele>
        <time>2019-08-01T05:49:00.022Z</time>
      </trkpt>
      <trkpt lat="43.00728667" lon="-1.20160667">
        <ele>885.0</ele>
        <time>2019-08-01T05:49:01.027Z</time>
      </trkpt>
      <trkpt lat="43.00729167" lon="-1.201595">
        <ele>886.0</ele>
        <time>2019-08-01T05:49:02.033Z</time>
      </trkpt>
      <trkpt lat="43.0073" lon="-1.20158167">
        <ele>887.0</ele>
        <time>2019-08-01T05:49:03.039Z</time>
      </trkpt>
      <trkpt lat="43.00730333" lon="-1.201565">
        <ele>887.0</ele>
        <time>2019-08-01T05:49:03.919Z</time>
      </trkpt>
      <trkpt lat="43.00730667" lon="-1.20155167">
        <ele>888.0</ele>
        <time>2019-08-01T05:49:04.926Z</time>
      </trkpt>
      <trkpt lat="43.00730833" lon="-1.20153833">
        <ele>889.0</ele>
        <time>2019-08-01T05:49:05.933Z</time>
      </trkpt>
      <trkpt lat="43.00730833" lon="-1.20152">
        <ele>889.0</ele>
        <time>2019-08-01T05:49:06.940Z</time>
      </trkpt>
      <trkpt lat="43.00730833" lon="-1.201505">
        <ele>889.0</ele>
        <time>2019-08-01T05:49:07.942Z</time>
      </trkpt>
      <trkpt lat="43.00731" lon="-1.20148833">
        <ele>889.0</ele>
        <time>2019-08-01T05:49:08.947Z</time>
      </trkpt>
      <trkpt lat="43.007315" lon="-1.201475">
        <ele>889.0</ele>
        <time>2019-08-01T05:49:09.953Z</time>
      </trkpt>
      <trkpt lat="43.00732167" lon="-1.201465">
        <ele>890.0</ele>
        <time>2019-08-01T05:49:10.957Z</time>
      </trkpt>
      <trkpt lat="43.00732833" lon="-1.20145333">
        <ele>890.0</ele>
        <time>2019-08-01T05:49:11.961Z</time>
      </trkpt>
      <trkpt lat="43.00733833" lon="-1.20144333">
        <ele>889.0</ele>
        <time>2019-08-01T05:49:12.965Z</time>
      </trkpt>
      <trkpt lat="43.00734" lon="-1.20142167">
        <ele>888.0</ele>
        <time>2019-08-01T05:49:13.971Z</time>
      </trkpt>
      <trkpt lat="43.00734167" lon="-1.20139333">
        <ele>886.0</ele>
        <time>2019-08-01T05:49:14.977Z</time>
      </trkpt>
      <trkpt lat="43.00734833" lon="-1.20136833">
        <ele>886.0</ele>
        <time>2019-08-01T05:49:15.984Z</time>
      </trkpt>
      <trkpt lat="43.00735333" lon="-1.20134333">
        <ele>887.0</ele>
        <time>2019-08-01T05:49:16.989Z</time>
      </trkpt>
      <trkpt lat="43.00734667" lon="-1.20131833">
        <ele>888.0</ele>
        <time>2019-08-01T05:49:17.995Z</time>
      </trkpt>
      <trkpt lat="43.007345" lon="-1.20129333">
        <ele>890.0</ele>
        <time>2019-08-01T05:49:19.002Z</time>
      </trkpt>
      <trkpt lat="43.00734833" lon="-1.20127667">
        <ele>891.0</ele>
        <time>2019-08-01T05:49:20.009Z</time>
      </trkpt>
      <trkpt lat="43.00735167" lon="-1.20126">
        <ele>892.0</ele>
        <time>2019-08-01T05:49:21.016Z</time>
      </trkpt>
      <trkpt lat="43.00736" lon="-1.20124167">
        <ele>894.0</ele>
        <time>2019-08-01T05:49:22.023Z</time>
      </trkpt>
      <trkpt lat="43.00737167" lon="-1.201225">
        <ele>895.0</ele>
        <time>2019-08-01T05:49:23.028Z</time>
      </trkpt>
      <trkpt lat="43.00736667" lon="-1.20120167">
        <ele>896.0</ele>
        <time>2019-08-01T05:49:24.035Z</time>
      </trkpt>
      <trkpt lat="43.00736667" lon="-1.201175">
        <ele>895.0</ele>
        <time>2019-08-01T05:49:25.042Z</time>
      </trkpt>
      <trkpt lat="43.00737333" lon="-1.20114667">
        <ele>896.0</ele>
        <time>2019-08-01T05:49:25.922Z</time>
      </trkpt>
      <trkpt lat="43.00738333" lon="-1.20111833">
        <ele>896.0</ele>
        <time>2019-08-01T05:49:26.930Z</time>
      </trkpt>
      <trkpt lat="43.00739667" lon="-1.20109667">
        <ele>896.0</ele>
        <time>2019-08-01T05:49:27.935Z</time>
      </trkpt>
      <trkpt lat="43.007405" lon="-1.20107167">
        <ele>896.0</ele>
        <time>2019-08-01T05:49:28.943Z</time>
      </trkpt>
      <trkpt lat="43.00740833" lon="-1.20105">
        <ele>895.0</ele>
        <time>2019-08-01T05:49:29.948Z</time>
      </trkpt>
      <trkpt lat="43.00739167" lon="-1.201025">
        <ele>896.0</ele>
        <time>2019-08-01T05:49:30.954Z</time>
      </trkpt>
      <trkpt lat="43.007375" lon="-1.20099667">
        <ele>896.0</ele>
        <time>2019-08-01T05:49:31.960Z</time>
      </trkpt>
      <trkpt lat="43.00736333" lon="-1.20097167">
        <ele>895.0</ele>
        <time>2019-08-01T05:49:32.966Z</time>
      </trkpt>
      <trkpt lat="43.00735833" lon="-1.20094667">
        <ele>895.0</ele>
        <time>2019-08-01T05:49:33.971Z</time>
      </trkpt>
      <trkpt lat="43.007355" lon="-1.20091833">
        <ele>894.0</ele>
        <time>2019-08-01T05:49:34.978Z</time>
      </trkpt>
      <trkpt lat="43.007345" lon="-1.20088833">
        <ele>893.0</ele>
        <time>2019-08-01T05:49:35.984Z</time>
      </trkpt>
      <trkpt lat="43.007345" lon="-1.20086333">
        <ele>893.0</ele>
        <time>2019-08-01T05:49:36.992Z</time>
      </trkpt>
      <trkpt lat="43.00734833" lon="-1.20083667">
        <ele>892.0</ele>
        <time>2019-08-01T05:49:37.999Z</time>
      </trkpt>
      <trkpt lat="43.007355" lon="-1.20081167">
        <ele>892.0</ele>
        <time>2019-08-01T05:49:39.004Z</time>
      </trkpt>
      <trkpt lat="43.007365" lon="-1.20079667">
        <ele>892.0</ele>
        <time>2019-08-01T05:49:40.011Z</time>
      </trkpt>
      <trkpt lat="43.00737333" lon="-1.200785">
        <ele>894.0</ele>
        <time>2019-08-01T05:49:41.018Z</time>
      </trkpt>
      <trkpt lat="43.00736333" lon="-1.20076">
        <ele>894.0</ele>
        <time>2019-08-01T05:49:42.025Z</time>
      </trkpt>
      <trkpt lat="43.00736333" lon="-1.20073833">
        <ele>894.0</ele>
        <time>2019-08-01T05:49:43.030Z</time>
      </trkpt>
      <trkpt lat="43.00735" lon="-1.20071833">
        <ele>895.0</ele>
        <time>2019-08-01T05:49:44.035Z</time>
      </trkpt>
      <trkpt lat="43.00735" lon="-1.20069833">
        <ele>896.0</ele>
        <time>2019-08-01T05:49:45.042Z</time>
      </trkpt>
      <trkpt lat="43.00735" lon="-1.20068167">
        <ele>897.0</ele>
        <time>2019-08-01T05:49:45.921Z</time>
      </trkpt>
      <trkpt lat="43.00734667" lon="-1.20066167">
        <ele>897.0</ele>
        <time>2019-08-01T05:49:46.927Z</time>
      </trkpt>
      <trkpt lat="43.00734" lon="-1.20063667">
        <ele>897.0</ele>
        <time>2019-08-01T05:49:47.933Z</time>
      </trkpt>
      <trkpt lat="43.00733333" lon="-1.20061667">
        <ele>896.0</ele>
        <time>2019-08-01T05:49:48.938Z</time>
      </trkpt>
      <trkpt lat="43.00733" lon="-1.20059667">
        <ele>897.0</ele>
        <time>2019-08-01T05:49:49.942Z</time>
      </trkpt>
      <trkpt lat="43.00733333" lon="-1.200575">
        <ele>900.0</ele>
        <time>2019-08-01T05:49:50.947Z</time>
      </trkpt>
      <trkpt lat="43.00734" lon="-1.20055833">
        <ele>902.0</ele>
        <time>2019-08-01T05:49:51.951Z</time>
      </trkpt>
      <trkpt lat="43.007345" lon="-1.20053333">
        <ele>903.0</ele>
        <time>2019-08-01T05:49:52.955Z</time>
      </trkpt>
      <trkpt lat="43.00735167" lon="-1.200515">
        <ele>901.0</ele>
        <time>2019-08-01T05:49:53.961Z</time>
      </trkpt>
      <trkpt lat="43.00734833" lon="-1.20049667">
        <ele>901.0</ele>
        <time>2019-08-01T05:49:54.966Z</time>
      </trkpt>
      <trkpt lat="43.00734667" lon="-1.20047833">
        <ele>901.0</ele>
        <time>2019-08-01T05:49:55.973Z</time>
      </trkpt>
      <trkpt lat="43.00734667" lon="-1.20046167">
        <ele>901.0</ele>
        <time>2019-08-01T05:49:56.980Z</time>
      </trkpt>
      <trkpt lat="43.00735" lon="-1.200445">
        <ele>900.0</ele>
        <time>2019-08-01T05:49:57.987Z</time>
      </trkpt>
      <trkpt lat="43.007355" lon="-1.20042833">
        <ele>900.0</ele>
        <time>2019-08-01T05:49:58.993Z</time>
      </trkpt>
      <trkpt lat="43.00736333" lon="-1.20041167">
        <ele>901.0</ele>
        <time>2019-08-01T05:50:00.001Z</time>
      </trkpt>
      <trkpt lat="43.00736833" lon="-1.200395">
        <ele>900.0</ele>
        <time>2019-08-01T05:50:01.006Z</time>
      </trkpt>
      <trkpt lat="43.00737167" lon="-1.20037833">
        <ele>900.0</ele>
        <time>2019-08-01T05:50:02.013Z</time>
      </trkpt>
      <trkpt lat="43.007375" lon="-1.20035833">
        <ele>899.0</ele>
        <time>2019-08-01T05:50:03.019Z</time>
      </trkpt>
      <trkpt lat="43.00737833" lon="-1.20034">
        <ele>898.0</ele>
        <time>2019-08-01T05:50:04.026Z</time>
      </trkpt>
      <trkpt lat="43.007385" lon="-1.200325">
        <ele>898.0</ele>
        <time>2019-08-01T05:50:05.031Z</time>
      </trkpt>
      <trkpt lat="43.00739167" lon="-1.20031">
        <ele>897.0</ele>
        <time>2019-08-01T05:50:06.037Z</time>
      </trkpt>
      <trkpt lat="43.0074" lon="-1.20029667">
        <ele>896.0</ele>
        <time>2019-08-01T05:50:07.042Z</time>
      </trkpt>
      <trkpt lat="43.00740833" lon="-1.20028333">
        <ele>896.0</ele>
        <time>2019-08-01T05:50:07.921Z</time>
      </trkpt>
      <trkpt lat="43.00741333" lon="-1.20027">
        <ele>895.0</ele>
        <time>2019-08-01T05:50:08.929Z</time>
      </trkpt>
      <trkpt lat="43.00742167" lon="-1.20026">
        <ele>896.0</ele>
        <time>2019-08-01T05:50:09.933Z</time>
      </trkpt>
      <trkpt lat="43.00743" lon="-1.20024833">
        <ele>896.0</ele>
        <time>2019-08-01T05:50:10.938Z</time>
      </trkpt>
      <trkpt lat="43.00743833" lon="-1.20024">
        <ele>897.0</ele>
        <time>2019-08-01T05:50:11.944Z</time>
      </trkpt>
      <trkpt lat="43.007445" lon="-1.20022833">
        <ele>898.0</ele>
        <time>2019-08-01T05:50:12.950Z</time>
      </trkpt>
      <trkpt lat="43.00745" lon="-1.20022">
        <ele>899.0</ele>
        <time>2019-08-01T05:50:13.954Z</time>
      </trkpt>
      <trkpt lat="43.00745667" lon="-1.20021">
        <ele>900.0</ele>
        <time>2019-08-01T05:50:14.960Z</time>
      </trkpt>
      <trkpt lat="43.00746333" lon="-1.20020167">
        <ele>900.0</ele>
        <time>2019-08-01T05:50:15.964Z</time>
      </trkpt>
      <trkpt lat="43.00747" lon="-1.20019">
        <ele>900.0</ele>
        <time>2019-08-01T05:50:16.970Z</time>
      </trkpt>
      <trkpt lat="43.00748" lon="-1.20018333">
        <ele>901.0</ele>
        <time>2019-08-01T05:50:17.978Z</time>
      </trkpt>
      <trkpt lat="43.00748833" lon="-1.200175">
        <ele>901.0</ele>
        <time>2019-08-01T05:50:18.984Z</time>
      </trkpt>
      <trkpt lat="43.00749667" lon="-1.20016333">
        <ele>902.0</ele>
        <time>2019-08-01T05:50:19.990Z</time>
      </trkpt>
      <trkpt lat="43.007505" lon="-1.20015167">
        <ele>902.0</ele>
        <time>2019-08-01T05:50:20.994Z</time>
      </trkpt>
      <trkpt lat="43.00751667" lon="-1.20014">
        <ele>902.0</ele>
        <time>2019-08-01T05:50:21.999Z</time>
      </trkpt>
      <trkpt lat="43.00752" lon="-1.20012833">
        <ele>902.0</ele>
        <time>2019-08-01T05:50:23.004Z</time>
      </trkpt>
      <trkpt lat="43.00752833" lon="-1.20011667">
        <ele>902.0</ele>
        <time>2019-08-01T05:50:24.008Z</time>
      </trkpt>
      <trkpt lat="43.00753333" lon="-1.20010333">
        <ele>902.0</ele>
        <time>2019-08-01T05:50:25.015Z</time>
      </trkpt>
      <trkpt lat="43.00754" lon="-1.20009">
        <ele>901.0</ele>
        <time>2019-08-01T05:50:26.020Z</time>
      </trkpt>
      <trkpt lat="43.00755333" lon="-1.20008">
        <ele>901.0</ele>
        <time>2019-08-01T05:50:27.027Z</time>
      </trkpt>
      <trkpt lat="43.007565" lon="-1.20007">
        <ele>902.0</ele>
        <time>2019-08-01T05:50:28.034Z</time>
      </trkpt>
      <trkpt lat="43.00757667" lon="-1.200055">
        <ele>903.0</ele>
        <time>2019-08-01T05:50:29.040Z</time>
      </trkpt>
      <trkpt lat="43.00758667" lon="-1.20003833">
        <ele>903.0</ele>
        <time>2019-08-01T05:50:29.919Z</time>
      </trkpt>
      <trkpt lat="43.00759833" lon="-1.20002">
        <ele>902.0</ele>
        <time>2019-08-01T05:50:30.923Z</time>
      </trkpt>
      <trkpt lat="43.00760333" lon="-1.20000167">
        <ele>902.0</ele>
        <time>2019-08-01T05:50:31.929Z</time>
      </trkpt>
      <trkpt lat="43.00761" lon="-1.199985">
        <ele>902.0</ele>
        <time>2019-08-01T05:50:32.936Z</time>
      </trkpt>
      <trkpt lat="43.00762167" lon="-1.19997333">
        <ele>902.0</ele>
        <time>2019-08-01T05:50:33.941Z</time>
      </trkpt>
      <trkpt lat="43.00763333" lon="-1.19995833">
        <ele>902.0</ele>
        <time>2019-08-01T05:50:34.948Z</time>
      </trkpt>
      <trkpt lat="43.00764" lon="-1.19994333">
        <ele>902.0</ele>
        <time>2019-08-01T05:50:35.953Z</time>
      </trkpt>
      <trkpt lat="43.00764833" lon="-1.19992667">
        <ele>902.0</ele>
        <time>2019-08-01T05:50:36.960Z</time>
      </trkpt>
      <trkpt lat="43.007655" lon="-1.19991167">
        <ele>901.0</ele>
        <time>2019-08-01T05:50:37.961Z</time>
      </trkpt>
      <trkpt lat="43.00766333" lon="-1.19989833">
        <ele>901.0</ele>
        <time>2019-08-01T05:50:38.966Z</time>
      </trkpt>
      <trkpt lat="43.00766833" lon="-1.199885">
        <ele>900.0</ele>
        <time>2019-08-01T05:50:39.973Z</time>
      </trkpt>
      <trkpt lat="43.007675" lon="-1.19987333">
        <ele>900.0</ele>
        <time>2019-08-01T05:50:40.977Z</time>
      </trkpt>
      <trkpt lat="43.00768" lon="-1.199865">
        <ele>898.0</ele>
        <time>2019-08-01T05:50:41.982Z</time>
      </trkpt>
      <trkpt lat="43.00768833" lon="-1.19985167">
        <ele>896.0</ele>
        <time>2019-08-01T05:50:42.985Z</time>
      </trkpt>
      <trkpt lat="43.007695" lon="-1.19983667">
        <ele>895.0</ele>
        <time>2019-08-01T05:50:43.991Z</time>
      </trkpt>
      <trkpt lat="43.00770667" lon="-1.19982167">
        <ele>895.0</ele>
        <time>2019-08-01T05:50:44.999Z</time>
      </trkpt>
      <trkpt lat="43.00771833" lon="-1.199805">
        <ele>895.0</ele>
        <time>2019-08-01T05:50:46.005Z</time>
      </trkpt>
      <trkpt lat="43.007735" lon="-1.19978667">
        <ele>893.0</ele>
        <time>2019-08-01T05:50:47.010Z</time>
      </trkpt>
      <trkpt lat="43.00775" lon="-1.19977">
        <ele>892.0</ele>
        <time>2019-08-01T05:50:48.017Z</time>
      </trkpt>
      <trkpt lat="43.00776333" lon="-1.19974333">
        <ele>891.0</ele>
        <time>2019-08-01T05:50:49.023Z</time>
      </trkpt>
      <trkpt lat="43.00777833" lon="-1.199725">
        <ele>890.0</ele>
        <time>2019-08-01T05:50:50.029Z</time>
      </trkpt>
      <trkpt lat="43.00779333" lon="-1.1997">
        <ele>889.0</ele>
        <time>2019-08-01T05:50:51.033Z</time>
      </trkpt>
      <trkpt lat="43.00780333" lon="-1.19968">
        <ele>890.0</ele>
        <time>2019-08-01T05:50:52.039Z</time>
      </trkpt>
      <trkpt lat="43.00781167" lon="-1.19965833">
        <ele>890.0</ele>
        <time>2019-08-01T05:50:52.919Z</time>
      </trkpt>
      <trkpt lat="43.00782667" lon="-1.19964167">
        <ele>891.0</ele>
        <time>2019-08-01T05:50:53.925Z</time>
      </trkpt>
      <trkpt lat="43.00784167" lon="-1.19963333">
        <ele>894.0</ele>
        <time>2019-08-01T05:50:54.931Z</time>
      </trkpt>
      <trkpt lat="43.007855" lon="-1.19962167">
        <ele>897.0</ele>
        <time>2019-08-01T05:50:55.938Z</time>
      </trkpt>
      <trkpt lat="43.00787" lon="-1.19962">
        <ele>900.0</ele>
        <time>2019-08-01T05:50:56.944Z</time>
      </trkpt>
      <trkpt lat="43.00787667" lon="-1.19961667">
        <ele>902.0</ele>
        <time>2019-08-01T05:50:57.951Z</time>
      </trkpt>
      <trkpt lat="43.007885" lon="-1.19961">
        <ele>905.0</ele>
        <time>2019-08-01T05:50:58.957Z</time>
      </trkpt>
      <trkpt lat="43.00789333" lon="-1.1996">
        <ele>907.0</ele>
        <time>2019-08-01T05:50:59.963Z</time>
      </trkpt>
      <trkpt lat="43.00791167" lon="-1.19959667">
        <ele>908.0</ele>
        <time>2019-08-01T05:51:00.969Z</time>
      </trkpt>
      <trkpt lat="43.00792833" lon="-1.1996">
        <ele>911.0</ele>
        <time>2019-08-01T05:51:01.974Z</time>
      </trkpt>
      <trkpt lat="43.00794" lon="-1.19959667">
        <ele>912.0</ele>
        <time>2019-08-01T05:51:02.982Z</time>
      </trkpt>
      <trkpt lat="43.00795" lon="-1.199595">
        <ele>914.0</ele>
        <time>2019-08-01T05:51:03.987Z</time>
      </trkpt>
      <trkpt lat="43.00796167" lon="-1.19959167">
        <ele>916.0</ele>
        <time>2019-08-01T05:51:04.992Z</time>
      </trkpt>
      <trkpt lat="43.00797" lon="-1.19958667">
        <ele>917.0</ele>
        <time>2019-08-01T05:51:05.999Z</time>
      </trkpt>
      <trkpt lat="43.00797667" lon="-1.19958333">
        <ele>919.0</ele>
        <time>2019-08-01T05:51:07.005Z</time>
      </trkpt>
      <trkpt lat="43.00798333" lon="-1.19958">
        <ele>920.0</ele>
        <time>2019-08-01T05:51:08.010Z</time>
      </trkpt>
      <trkpt lat="43.00799333" lon="-1.19957667">
        <ele>921.0</ele>
        <time>2019-08-01T05:51:09.017Z</time>
      </trkpt>
      <trkpt lat="43.008005" lon="-1.19957167">
        <ele>923.0</ele>
        <time>2019-08-01T05:51:10.023Z</time>
      </trkpt>
      <trkpt lat="43.008015" lon="-1.19956333">
        <ele>923.0</ele>
        <time>2019-08-01T05:51:11.030Z</time>
      </trkpt>
      <trkpt lat="43.00802333" lon="-1.19955333">
        <ele>923.0</ele>
        <time>2019-08-01T05:51:12.036Z</time>
      </trkpt>
      <trkpt lat="43.008035" lon="-1.19954">
        <ele>923.0</ele>
        <time>2019-08-01T05:51:13.042Z</time>
      </trkpt>
      <trkpt lat="43.008045" lon="-1.199525">
        <ele>923.0</ele>
        <time>2019-08-01T05:51:13.921Z</time>
      </trkpt>
      <trkpt lat="43.00805333" lon="-1.19951">
        <ele>922.0</ele>
        <time>2019-08-01T05:51:14.928Z</time>
      </trkpt>
      <trkpt lat="43.00806167" lon="-1.1995">
        <ele>922.0</ele>
        <time>2019-08-01T05:51:15.933Z</time>
      </trkpt>
      <trkpt lat="43.00807333" lon="-1.19948833">
        <ele>922.0</ele>
        <time>2019-08-01T05:51:16.938Z</time>
      </trkpt>
      <trkpt lat="43.00808667" lon="-1.19947833">
        <ele>922.0</ele>
        <time>2019-08-01T05:51:17.945Z</time>
      </trkpt>
      <trkpt lat="43.00809833" lon="-1.19947">
        <ele>922.0</ele>
        <time>2019-08-01T05:51:18.951Z</time>
      </trkpt>
      <trkpt lat="43.008105" lon="-1.19946167">
        <ele>923.0</ele>
        <time>2019-08-01T05:51:19.958Z</time>
      </trkpt>
      <trkpt lat="43.00811833" lon="-1.19945667">
        <ele>923.0</ele>
        <time>2019-08-01T05:51:20.963Z</time>
      </trkpt>
      <trkpt lat="43.00813" lon="-1.19945">
        <ele>923.0</ele>
        <time>2019-08-01T05:51:21.965Z</time>
      </trkpt>
      <trkpt lat="43.00814" lon="-1.19944">
        <ele>922.0</ele>
        <time>2019-08-01T05:51:22.970Z</time>
      </trkpt>
      <trkpt lat="43.00815167" lon="-1.199425">
        <ele>921.0</ele>
        <time>2019-08-01T05:51:23.976Z</time>
      </trkpt>
      <trkpt lat="43.00816333" lon="-1.19941333">
        <ele>921.0</ele>
        <time>2019-08-01T05:51:24.982Z</time>
      </trkpt>
      <trkpt lat="43.00817667" lon="-1.19940167">
        <ele>919.0</ele>
        <time>2019-08-01T05:51:25.989Z</time>
      </trkpt>
      <trkpt lat="43.00819167" lon="-1.199395">
        <ele>918.0</ele>
        <time>2019-08-01T05:51:26.995Z</time>
      </trkpt>
      <trkpt lat="43.00821167" lon="-1.19938833">
        <ele>919.0</ele>
        <time>2019-08-01T05:51:28.000Z</time>
      </trkpt>
      <trkpt lat="43.00822667" lon="-1.19938667">
        <ele>920.0</ele>
        <time>2019-08-01T05:51:29.004Z</time>
      </trkpt>
      <trkpt lat="43.00824" lon="-1.19938667">
        <ele>921.0</ele>
        <time>2019-08-01T05:51:30.009Z</time>
      </trkpt>
      <trkpt lat="43.008255" lon="-1.19938667">
        <ele>922.0</ele>
        <time>2019-08-01T05:51:31.012Z</time>
      </trkpt>
      <trkpt lat="43.00826667" lon="-1.19938167">
        <ele>922.0</ele>
        <time>2019-08-01T05:51:32.018Z</time>
      </trkpt>
      <trkpt lat="43.00828" lon="-1.199375">
        <ele>921.0</ele>
        <time>2019-08-01T05:51:33.024Z</time>
      </trkpt>
      <trkpt lat="43.00829833" lon="-1.19937167">
        <ele>921.0</ele>
        <time>2019-08-01T05:51:34.032Z</time>
      </trkpt>
      <trkpt lat="43.008315" lon="-1.199375">
        <ele>922.0</ele>
        <time>2019-08-01T05:51:35.038Z</time>
      </trkpt>
      <trkpt lat="43.00833333" lon="-1.19937333">
        <ele>924.0</ele>
        <time>2019-08-01T05:51:35.918Z</time>
      </trkpt>
      <trkpt lat="43.008345" lon="-1.19937">
        <ele>925.0</ele>
        <time>2019-08-01T05:51:36.920Z</time>
      </trkpt>
      <trkpt lat="43.00836167" lon="-1.19937333">
        <ele>925.0</ele>
        <time>2019-08-01T05:51:37.923Z</time>
      </trkpt>
      <trkpt lat="43.00837333" lon="-1.19936833">
        <ele>925.0</ele>
        <time>2019-08-01T05:51:38.927Z</time>
      </trkpt>
      <trkpt lat="43.00839" lon="-1.19936667">
        <ele>925.0</ele>
        <time>2019-08-01T05:51:39.931Z</time>
      </trkpt>
      <trkpt lat="43.00839667" lon="-1.19936">
        <ele>924.0</ele>
        <time>2019-08-01T05:51:40.938Z</time>
      </trkpt>
      <trkpt lat="43.00841" lon="-1.19935833">
        <ele>924.0</ele>
        <time>2019-08-01T05:51:41.944Z</time>
      </trkpt>
      <trkpt lat="43.00841833" lon="-1.19935833">
        <ele>925.0</ele>
        <time>2019-08-01T05:51:42.951Z</time>
      </trkpt>
      <trkpt lat="43.00843" lon="-1.19935833">
        <ele>925.0</ele>
        <time>2019-08-01T05:51:43.955Z</time>
      </trkpt>
      <trkpt lat="43.00844333" lon="-1.19935833">
        <ele>926.0</ele>
        <time>2019-08-01T05:51:44.961Z</time>
      </trkpt>
      <trkpt lat="43.00845833" lon="-1.19936">
        <ele>926.0</ele>
        <time>2019-08-01T05:51:45.963Z</time>
      </trkpt>
      <trkpt lat="43.00847" lon="-1.19936167">
        <ele>927.0</ele>
        <time>2019-08-01T05:51:46.968Z</time>
      </trkpt>
      <trkpt lat="43.00848333" lon="-1.19936">
        <ele>927.0</ele>
        <time>2019-08-01T05:51:47.975Z</time>
      </trkpt>
      <trkpt lat="43.00849833" lon="-1.19935667">
        <ele>928.0</ele>
        <time>2019-08-01T05:51:48.978Z</time>
      </trkpt>
      <trkpt lat="43.00851333" lon="-1.19935167">
        <ele>928.0</ele>
        <time>2019-08-01T05:51:49.985Z</time>
      </trkpt>
      <trkpt lat="43.00853" lon="-1.19935">
        <ele>929.0</ele>
        <time>2019-08-01T05:51:50.990Z</time>
      </trkpt>
      <trkpt lat="43.00854333" lon="-1.19935">
        <ele>929.0</ele>
        <time>2019-08-01T05:51:51.996Z</time>
      </trkpt>
      <trkpt lat="43.00855833" lon="-1.199345">
        <ele>930.0</ele>
        <time>2019-08-01T05:51:52.999Z</time>
      </trkpt>
      <trkpt lat="43.008575" lon="-1.19933667">
        <ele>930.0</ele>
        <time>2019-08-01T05:51:54.004Z</time>
      </trkpt>
      <trkpt lat="43.00858833" lon="-1.19932667">
        <ele>931.0</ele>
        <time>2019-08-01T05:51:55.011Z</time>
      </trkpt>
      <trkpt lat="43.00860333" lon="-1.199315">
        <ele>931.0</ele>
        <time>2019-08-01T05:51:56.015Z</time>
      </trkpt>
      <trkpt lat="43.00862167" lon="-1.19930167">
        <ele>931.0</ele>
        <time>2019-08-01T05:51:57.022Z</time>
      </trkpt>
      <trkpt lat="43.00863667" lon="-1.19928333">
        <ele>931.0</ele>
        <time>2019-08-01T05:51:58.026Z</time>
      </trkpt>
      <trkpt lat="43.00865" lon="-1.19926667">
        <ele>931.0</ele>
        <time>2019-08-01T05:51:59.033Z</time>
      </trkpt>
      <trkpt lat="43.00866333" lon="-1.19924833">
        <ele>932.0</ele>
        <time>2019-08-01T05:52:00.038Z</time>
      </trkpt>
      <trkpt lat="43.00867667" lon="-1.199225">
        <ele>931.0</ele>
        <time>2019-08-01T05:52:01.043Z</time>
      </trkpt>
      <trkpt lat="43.00869167" lon="-1.19920167">
        <ele>930.0</ele>
        <time>2019-08-01T05:52:01.923Z</time>
      </trkpt>
      <trkpt lat="43.00870167" lon="-1.19917333">
        <ele>930.0</ele>
        <time>2019-08-01T05:52:02.930Z</time>
      </trkpt>
      <trkpt lat="43.00870833" lon="-1.19914333">
        <ele>928.0</ele>
        <time>2019-08-01T05:52:03.935Z</time>
      </trkpt>
      <trkpt lat="43.00872333" lon="-1.19911833">
        <ele>928.0</ele>
        <time>2019-08-01T05:52:04.941Z</time>
      </trkpt>
      <trkpt lat="43.00873667" lon="-1.19909">
        <ele>926.0</ele>
        <time>2019-08-01T05:52:05.947Z</time>
      </trkpt>
      <trkpt lat="43.00874667" lon="-1.19906">
        <ele>925.0</ele>
        <time>2019-08-01T05:52:06.952Z</time>
      </trkpt>
      <trkpt lat="43.00875333" lon="-1.19903333">
        <ele>924.0</ele>
        <time>2019-08-01T05:52:07.957Z</time>
      </trkpt>
      <trkpt lat="43.00876167" lon="-1.199005">
        <ele>923.0</ele>
        <time>2019-08-01T05:52:08.962Z</time>
      </trkpt>
      <trkpt lat="43.00877167" lon="-1.198975">
        <ele>921.0</ele>
        <time>2019-08-01T05:52:09.969Z</time>
      </trkpt>
      <trkpt lat="43.00878" lon="-1.19894667">
        <ele>920.0</ele>
        <time>2019-08-01T05:52:10.973Z</time>
      </trkpt>
      <trkpt lat="43.008785" lon="-1.198915">
        <ele>917.0</ele>
        <time>2019-08-01T05:52:11.976Z</time>
      </trkpt>
      <trkpt lat="43.00878833" lon="-1.19888833">
        <ele>914.0</ele>
        <time>2019-08-01T05:52:12.983Z</time>
      </trkpt>
      <trkpt lat="43.00879167" lon="-1.19886333">
        <ele>912.0</ele>
        <time>2019-08-01T05:52:13.991Z</time>
      </trkpt>
      <trkpt lat="43.008795" lon="-1.19884">
        <ele>910.0</ele>
        <time>2019-08-01T05:52:14.996Z</time>
      </trkpt>
      <trkpt lat="43.00879333" lon="-1.198815">
        <ele>908.0</ele>
        <time>2019-08-01T05:52:16.001Z</time>
      </trkpt>
      <trkpt lat="43.008795" lon="-1.19878833">
        <ele>906.0</ele>
        <time>2019-08-01T05:52:17.005Z</time>
      </trkpt>
      <trkpt lat="43.00880667" lon="-1.19876667">
        <ele>904.0</ele>
        <time>2019-08-01T05:52:18.008Z</time>
      </trkpt>
      <trkpt lat="43.00881333" lon="-1.19874">
        <ele>902.0</ele>
        <time>2019-08-01T05:52:19.013Z</time>
      </trkpt>
      <trkpt lat="43.008825" lon="-1.198715">
        <ele>903.0</ele>
        <time>2019-08-01T05:52:20.015Z</time>
      </trkpt>
      <trkpt lat="43.00883667" lon="-1.19869">
        <ele>904.0</ele>
        <time>2019-08-01T05:52:21.021Z</time>
      </trkpt>
      <trkpt lat="43.00884333" lon="-1.19866667">
        <ele>905.0</ele>
        <time>2019-08-01T05:52:22.024Z</time>
      </trkpt>
      <trkpt lat="43.00885" lon="-1.198645">
        <ele>906.0</ele>
        <time>2019-08-01T05:52:23.028Z</time>
      </trkpt>
      <trkpt lat="43.008855" lon="-1.19862333">
        <ele>907.0</ele>
        <time>2019-08-01T05:52:24.034Z</time>
      </trkpt>
      <trkpt lat="43.00886333" lon="-1.198605">
        <ele>907.0</ele>
        <time>2019-08-01T05:52:25.038Z</time>
      </trkpt>
      <trkpt lat="43.00887" lon="-1.19858333">
        <ele>907.0</ele>
        <time>2019-08-01T05:52:26.042Z</time>
      </trkpt>
      <trkpt lat="43.00888" lon="-1.19855667">
        <ele>907.0</ele>
        <time>2019-08-01T05:52:26.921Z</time>
      </trkpt>
      <trkpt lat="43.00888667" lon="-1.19853">
        <ele>907.0</ele>
        <time>2019-08-01T05:52:27.928Z</time>
      </trkpt>
      <trkpt lat="43.00889667" lon="-1.19850333">
        <ele>907.0</ele>
        <time>2019-08-01T05:52:28.934Z</time>
      </trkpt>
      <trkpt lat="43.0089" lon="-1.19848167">
        <ele>907.0</ele>
        <time>2019-08-01T05:52:29.940Z</time>
      </trkpt>
      <trkpt lat="43.00890333" lon="-1.19845833">
        <ele>907.0</ele>
        <time>2019-08-01T05:52:30.945Z</time>
      </trkpt>
      <trkpt lat="43.008905" lon="-1.19844">
        <ele>908.0</ele>
        <time>2019-08-01T05:52:31.950Z</time>
      </trkpt>
      <trkpt lat="43.00891333" lon="-1.19842333">
        <ele>910.0</ele>
        <time>2019-08-01T05:52:32.956Z</time>
      </trkpt>
      <trkpt lat="43.00892" lon="-1.198405">
        <ele>911.0</ele>
        <time>2019-08-01T05:52:33.960Z</time>
      </trkpt>
      <trkpt lat="43.00892833" lon="-1.19838833">
        <ele>912.0</ele>
        <time>2019-08-01T05:52:34.964Z</time>
      </trkpt>
      <trkpt lat="43.00893333" lon="-1.19836833">
        <ele>912.0</ele>
        <time>2019-08-01T05:52:35.969Z</time>
      </trkpt>
      <trkpt lat="43.00894" lon="-1.19835">
        <ele>912.0</ele>
        <time>2019-08-01T05:52:36.974Z</time>
      </trkpt>
      <trkpt lat="43.008945" lon="-1.19833">
        <ele>913.0</ele>
        <time>2019-08-01T05:52:37.982Z</time>
      </trkpt>
      <trkpt lat="43.00895167" lon="-1.19831">
        <ele>913.0</ele>
        <time>2019-08-01T05:52:38.989Z</time>
      </trkpt>
      <trkpt lat="43.00895833" lon="-1.19829167">
        <ele>913.0</ele>
        <time>2019-08-01T05:52:39.994Z</time>
      </trkpt>
      <trkpt lat="43.00896333" lon="-1.19827333">
        <ele>914.0</ele>
        <time>2019-08-01T05:52:41.001Z</time>
      </trkpt>
      <trkpt lat="43.00896833" lon="-1.19825333">
        <ele>914.0</ele>
        <time>2019-08-01T05:52:42.007Z</time>
      </trkpt>
      <trkpt lat="43.00897333" lon="-1.198235">
        <ele>914.0</ele>
        <time>2019-08-01T05:52:43.013Z</time>
      </trkpt>
      <trkpt lat="43.00898167" lon="-1.19821667">
        <ele>914.0</ele>
        <time>2019-08-01T05:52:44.020Z</time>
      </trkpt>
      <trkpt lat="43.00899167" lon="-1.19819667">
        <ele>914.0</ele>
        <time>2019-08-01T05:52:45.028Z</time>
      </trkpt>
      <trkpt lat="43.009" lon="-1.19817667">
        <ele>914.0</ele>
        <time>2019-08-01T05:52:46.035Z</time>
      </trkpt>
      <trkpt lat="43.00900667" lon="-1.19815667">
        <ele>913.0</ele>
        <time>2019-08-01T05:52:47.040Z</time>
      </trkpt>
      <trkpt lat="43.00901167" lon="-1.19813833">
        <ele>913.0</ele>
        <time>2019-08-01T05:52:47.920Z</time>
      </trkpt>
      <trkpt lat="43.00901833" lon="-1.19811833">
        <ele>912.0</ele>
        <time>2019-08-01T05:52:48.924Z</time>
      </trkpt>
      <trkpt lat="43.00902167" lon="-1.19809667">
        <ele>912.0</ele>
        <time>2019-08-01T05:52:49.930Z</time>
      </trkpt>
      <trkpt lat="43.00902833" lon="-1.19807667">
        <ele>912.0</ele>
        <time>2019-08-01T05:52:50.936Z</time>
      </trkpt>
      <trkpt lat="43.00903167" lon="-1.198055">
        <ele>912.0</ele>
        <time>2019-08-01T05:52:51.942Z</time>
      </trkpt>
      <trkpt lat="43.009035" lon="-1.19803333">
        <ele>912.0</ele>
        <time>2019-08-01T05:52:52.950Z</time>
      </trkpt>
      <trkpt lat="43.00904167" lon="-1.19801167">
        <ele>912.0</ele>
        <time>2019-08-01T05:52:53.955Z</time>
      </trkpt>
      <trkpt lat="43.00904833" lon="-1.19799167">
        <ele>912.0</ele>
        <time>2019-08-01T05:52:54.961Z</time>
      </trkpt>
      <trkpt lat="43.00905333" lon="-1.19797167">
        <ele>912.0</ele>
        <time>2019-08-01T05:52:55.966Z</time>
      </trkpt>
      <trkpt lat="43.00906" lon="-1.19795">
        <ele>912.0</ele>
        <time>2019-08-01T05:52:56.972Z</time>
      </trkpt>
      <trkpt lat="43.009065" lon="-1.19792667">
        <ele>912.0</ele>
        <time>2019-08-01T05:52:57.979Z</time>
      </trkpt>
      <trkpt lat="43.00907333" lon="-1.19790833">
        <ele>912.0</ele>
        <time>2019-08-01T05:52:58.986Z</time>
      </trkpt>
      <trkpt lat="43.00907833" lon="-1.197885">
        <ele>911.0</ele>
        <time>2019-08-01T05:52:59.993Z</time>
      </trkpt>
      <trkpt lat="43.009085" lon="-1.197865">
        <ele>910.0</ele>
        <time>2019-08-01T05:53:00.999Z</time>
      </trkpt>
      <trkpt lat="43.00909167" lon="-1.19784333">
        <ele>910.0</ele>
        <time>2019-08-01T05:53:02.004Z</time>
      </trkpt>
      <trkpt lat="43.009095" lon="-1.19782167">
        <ele>910.0</ele>
        <time>2019-08-01T05:53:03.011Z</time>
      </trkpt>
      <trkpt lat="43.00909667" lon="-1.1978">
        <ele>909.0</ele>
        <time>2019-08-01T05:53:04.018Z</time>
      </trkpt>
      <trkpt lat="43.00910167" lon="-1.19777833">
        <ele>909.0</ele>
        <time>2019-08-01T05:53:05.025Z</time>
      </trkpt>
      <trkpt lat="43.00910667" lon="-1.197755">
        <ele>909.0</ele>
        <time>2019-08-01T05:53:06.032Z</time>
      </trkpt>
      <trkpt lat="43.00910833" lon="-1.19773167">
        <ele>909.0</ele>
        <time>2019-08-01T05:53:07.038Z</time>
      </trkpt>
      <trkpt lat="43.00911167" lon="-1.19771167">
        <ele>910.0</ele>
        <time>2019-08-01T05:53:07.919Z</time>
      </trkpt>
      <trkpt lat="43.00911833" lon="-1.19768833">
        <ele>911.0</ele>
        <time>2019-08-01T05:53:08.924Z</time>
      </trkpt>
      <trkpt lat="43.00912667" lon="-1.19766667">
        <ele>911.0</ele>
        <time>2019-08-01T05:53:09.931Z</time>
      </trkpt>
      <trkpt lat="43.00913" lon="-1.19764">
        <ele>910.0</ele>
        <time>2019-08-01T05:53:10.936Z</time>
      </trkpt>
      <trkpt lat="43.009125" lon="-1.19761833">
        <ele>909.0</ele>
        <time>2019-08-01T05:53:11.942Z</time>
      </trkpt>
      <trkpt lat="43.00912833" lon="-1.19759667">
        <ele>908.0</ele>
        <time>2019-08-01T05:53:12.949Z</time>
      </trkpt>
      <trkpt lat="43.00913833" lon="-1.19757833">
        <ele>908.0</ele>
        <time>2019-08-01T05:53:13.952Z</time>
      </trkpt>
      <trkpt lat="43.009145" lon="-1.19756">
        <ele>908.0</ele>
        <time>2019-08-01T05:53:14.957Z</time>
      </trkpt>
      <trkpt lat="43.00915" lon="-1.19754167">
        <ele>908.0</ele>
        <time>2019-08-01T05:53:15.962Z</time>
      </trkpt>
      <trkpt lat="43.00915333" lon="-1.19752167">
        <ele>908.0</ele>
        <time>2019-08-01T05:53:16.967Z</time>
      </trkpt>
      <trkpt lat="43.00915667" lon="-1.19750167">
        <ele>908.0</ele>
        <time>2019-08-01T05:53:17.974Z</time>
      </trkpt>
      <trkpt lat="43.00916" lon="-1.19748167">
        <ele>908.0</ele>
        <time>2019-08-01T05:53:18.981Z</time>
      </trkpt>
      <trkpt lat="43.00916333" lon="-1.19746167">
        <ele>908.0</ele>
        <time>2019-08-01T05:53:19.986Z</time>
      </trkpt>
      <trkpt lat="43.00916667" lon="-1.19744">
        <ele>908.0</ele>
        <time>2019-08-01T05:53:20.992Z</time>
      </trkpt>
      <trkpt lat="43.00917167" lon="-1.19742">
        <ele>908.0</ele>
        <time>2019-08-01T05:53:21.999Z</time>
      </trkpt>
      <trkpt lat="43.00917667" lon="-1.19740167">
        <ele>908.0</ele>
        <time>2019-08-01T05:53:23.005Z</time>
      </trkpt>
      <trkpt lat="43.00918333" lon="-1.19738">
        <ele>908.0</ele>
        <time>2019-08-01T05:53:24.011Z</time>
      </trkpt>
      <trkpt lat="43.00919" lon="-1.19735833">
        <ele>908.0</ele>
        <time>2019-08-01T05:53:25.017Z</time>
      </trkpt>
      <trkpt lat="43.00919167" lon="-1.19733667">
        <ele>908.0</ele>
        <time>2019-08-01T05:53:26.023Z</time>
      </trkpt>
      <trkpt lat="43.00919667" lon="-1.19731833">
        <ele>908.0</ele>
        <time>2019-08-01T05:53:27.033Z</time>
      </trkpt>
      <trkpt lat="43.00920167" lon="-1.19729667">
        <ele>908.0</ele>
        <time>2019-08-01T05:53:28.041Z</time>
      </trkpt>
      <trkpt lat="43.00920667" lon="-1.19727667">
        <ele>908.0</ele>
        <time>2019-08-01T05:53:28.920Z</time>
      </trkpt>
      <trkpt lat="43.00921167" lon="-1.19725667">
        <ele>908.0</ele>
        <time>2019-08-01T05:53:29.925Z</time>
      </trkpt>
      <trkpt lat="43.00921833" lon="-1.19723667">
        <ele>909.0</ele>
        <time>2019-08-01T05:53:30.931Z</time>
      </trkpt>
      <trkpt lat="43.009225" lon="-1.19721667">
        <ele>909.0</ele>
        <time>2019-08-01T05:53:31.933Z</time>
      </trkpt>
      <trkpt lat="43.00923" lon="-1.19719833">
        <ele>909.0</ele>
        <time>2019-08-01T05:53:32.940Z</time>
      </trkpt>
      <trkpt lat="43.009235" lon="-1.19718">
        <ele>909.0</ele>
        <time>2019-08-01T05:53:33.948Z</time>
      </trkpt>
      <trkpt lat="43.00923833" lon="-1.19716167">
        <ele>909.0</ele>
        <time>2019-08-01T05:53:34.952Z</time>
      </trkpt>
      <trkpt lat="43.00924333" lon="-1.19714333">
        <ele>908.0</ele>
        <time>2019-08-01T05:53:35.959Z</time>
      </trkpt>
      <trkpt lat="43.00924833" lon="-1.19712333">
        <ele>908.0</ele>
        <time>2019-08-01T05:53:36.963Z</time>
      </trkpt>
      <trkpt lat="43.00925333" lon="-1.197105">
        <ele>908.0</ele>
        <time>2019-08-01T05:53:37.965Z</time>
      </trkpt>
      <trkpt lat="43.00925667" lon="-1.19708833">
        <ele>907.0</ele>
        <time>2019-08-01T05:53:38.969Z</time>
      </trkpt>
      <trkpt lat="43.00926" lon="-1.19707">
        <ele>906.0</ele>
        <time>2019-08-01T05:53:39.973Z</time>
      </trkpt>
      <trkpt lat="43.00926333" lon="-1.19705167">
        <ele>906.0</ele>
        <time>2019-08-01T05:53:40.980Z</time>
      </trkpt>
      <trkpt lat="43.00926833" lon="-1.19703">
        <ele>907.0</ele>
        <time>2019-08-01T05:53:41.984Z</time>
      </trkpt>
      <trkpt lat="43.00927" lon="-1.19700833">
        <ele>907.0</ele>
        <time>2019-08-01T05:53:42.987Z</time>
      </trkpt>
      <trkpt lat="43.00927167" lon="-1.19698667">
        <ele>907.0</ele>
        <time>2019-08-01T05:53:43.991Z</time>
      </trkpt>
      <trkpt lat="43.00927667" lon="-1.19696833">
        <ele>908.0</ele>
        <time>2019-08-01T05:53:44.996Z</time>
      </trkpt>
      <trkpt lat="43.00928667" lon="-1.19695333">
        <ele>909.0</ele>
        <time>2019-08-01T05:53:46.002Z</time>
      </trkpt>
      <trkpt lat="43.009295" lon="-1.196935">
        <ele>909.0</ele>
        <time>2019-08-01T05:53:47.008Z</time>
      </trkpt>
      <trkpt lat="43.00930333" lon="-1.19692">
        <ele>909.0</ele>
        <time>2019-08-01T05:53:48.011Z</time>
      </trkpt>
      <trkpt lat="43.009315" lon="-1.196905">
        <ele>910.0</ele>
        <time>2019-08-01T05:53:49.016Z</time>
      </trkpt>
      <trkpt lat="43.00932333" lon="-1.19689">
        <ele>910.0</ele>
        <time>2019-08-01T05:53:50.023Z</time>
      </trkpt>
      <trkpt lat="43.00933" lon="-1.19687333">
        <ele>911.0</ele>
        <time>2019-08-01T05:53:51.028Z</time>
      </trkpt>
      <trkpt lat="43.00934" lon="-1.19685667">
        <ele>911.0</ele>
        <time>2019-08-01T05:53:52.035Z</time>
      </trkpt>
      <trkpt lat="43.00934833" lon="-1.19683667">
        <ele>912.0</ele>
        <time>2019-08-01T05:53:53.041Z</time>
      </trkpt>
      <trkpt lat="43.00935833" lon="-1.19682">
        <ele>912.0</ele>
        <time>2019-08-01T05:53:53.922Z</time>
      </trkpt>
      <trkpt lat="43.00936833" lon="-1.196805">
        <ele>913.0</ele>
        <time>2019-08-01T05:53:54.928Z</time>
      </trkpt>
      <trkpt lat="43.00937667" lon="-1.19679">
        <ele>913.0</ele>
        <time>2019-08-01T05:53:55.934Z</time>
      </trkpt>
      <trkpt lat="43.00938667" lon="-1.19677167">
        <ele>913.0</ele>
        <time>2019-08-01T05:53:56.940Z</time>
      </trkpt>
      <trkpt lat="43.00939333" lon="-1.19675333">
        <ele>913.0</ele>
        <time>2019-08-01T05:53:57.945Z</time>
      </trkpt>
      <trkpt lat="43.00939667" lon="-1.19673167">
        <ele>913.0</ele>
        <time>2019-08-01T05:53:58.949Z</time>
      </trkpt>
      <trkpt lat="43.00940333" lon="-1.19671167">
        <ele>914.0</ele>
        <time>2019-08-01T05:53:59.955Z</time>
      </trkpt>
      <trkpt lat="43.00940833" lon="-1.19669167">
        <ele>913.0</ele>
        <time>2019-08-01T05:54:00.961Z</time>
      </trkpt>
      <trkpt lat="43.00941667" lon="-1.196675">
        <ele>914.0</ele>
        <time>2019-08-01T05:54:01.964Z</time>
      </trkpt>
      <trkpt lat="43.009425" lon="-1.196655">
        <ele>915.0</ele>
        <time>2019-08-01T05:54:02.967Z</time>
      </trkpt>
      <trkpt lat="43.00943333" lon="-1.196635">
        <ele>914.0</ele>
        <time>2019-08-01T05:54:03.972Z</time>
      </trkpt>
      <trkpt lat="43.00944667" lon="-1.19662167">
        <ele>914.0</ele>
        <time>2019-08-01T05:54:04.977Z</time>
      </trkpt>
      <trkpt lat="43.00945333" lon="-1.19660667">
        <ele>914.0</ele>
        <time>2019-08-01T05:54:05.983Z</time>
      </trkpt>
      <trkpt lat="43.00946167" lon="-1.19659">
        <ele>913.0</ele>
        <time>2019-08-01T05:54:06.989Z</time>
      </trkpt>
      <trkpt lat="43.00946667" lon="-1.19656667">
        <ele>913.0</ele>
        <time>2019-08-01T05:54:07.994Z</time>
      </trkpt>
      <trkpt lat="43.00947333" lon="-1.19654833">
        <ele>912.0</ele>
        <time>2019-08-01T05:54:09.001Z</time>
      </trkpt>
      <trkpt lat="43.00948" lon="-1.19653167">
        <ele>913.0</ele>
        <time>2019-08-01T05:54:10.005Z</time>
      </trkpt>
      <trkpt lat="43.00948667" lon="-1.19651333">
        <ele>913.0</ele>
        <time>2019-08-01T05:54:11.011Z</time>
      </trkpt>
      <trkpt lat="43.009495" lon="-1.19649333">
        <ele>913.0</ele>
        <time>2019-08-01T05:54:12.017Z</time>
      </trkpt>
      <trkpt lat="43.009505" lon="-1.19647833">
        <ele>913.0</ele>
        <time>2019-08-01T05:54:13.023Z</time>
      </trkpt>
      <trkpt lat="43.009515" lon="-1.19646333">
        <ele>914.0</ele>
        <time>2019-08-01T05:54:14.029Z</time>
      </trkpt>
      <trkpt lat="43.00952333" lon="-1.19644667">
        <ele>915.0</ele>
        <time>2019-08-01T05:54:15.037Z</time>
      </trkpt>
      <trkpt lat="43.00953167" lon="-1.19643">
        <ele>915.0</ele>
        <time>2019-08-01T05:54:15.918Z</time>
      </trkpt>
      <trkpt lat="43.00954" lon="-1.19641333">
        <ele>915.0</ele>
        <time>2019-08-01T05:54:16.924Z</time>
      </trkpt>
      <trkpt lat="43.00955" lon="-1.19639667">
        <ele>915.0</ele>
        <time>2019-08-01T05:54:17.929Z</time>
      </trkpt>
      <trkpt lat="43.00955667" lon="-1.19638">
        <ele>915.0</ele>
        <time>2019-08-01T05:54:18.934Z</time>
      </trkpt>
      <trkpt lat="43.00956667" lon="-1.19636333">
        <ele>916.0</ele>
        <time>2019-08-01T05:54:19.939Z</time>
      </trkpt>
      <trkpt lat="43.00957333" lon="-1.196345">
        <ele>916.0</ele>
        <time>2019-08-01T05:54:20.946Z</time>
      </trkpt>
      <trkpt lat="43.00958" lon="-1.19632833">
        <ele>916.0</ele>
        <time>2019-08-01T05:54:21.951Z</time>
      </trkpt>
      <trkpt lat="43.00958667" lon="-1.19631">
        <ele>916.0</ele>
        <time>2019-08-01T05:54:22.956Z</time>
      </trkpt>
      <trkpt lat="43.009595" lon="-1.19629333">
        <ele>916.0</ele>
        <time>2019-08-01T05:54:23.961Z</time>
      </trkpt>
      <trkpt lat="43.00960333" lon="-1.196275">
        <ele>917.0</ele>
        <time>2019-08-01T05:54:24.967Z</time>
      </trkpt>
      <trkpt lat="43.00961" lon="-1.19625667">
        <ele>917.0</ele>
        <time>2019-08-01T05:54:25.972Z</time>
      </trkpt>
      <trkpt lat="43.00961833" lon="-1.19623833">
        <ele>917.0</ele>
        <time>2019-08-01T05:54:26.977Z</time>
      </trkpt>
      <trkpt lat="43.009625" lon="-1.19622">
        <ele>918.0</ele>
        <time>2019-08-01T05:54:27.983Z</time>
      </trkpt>
      <trkpt lat="43.00963167" lon="-1.19620333">
        <ele>918.0</ele>
        <time>2019-08-01T05:54:28.990Z</time>
      </trkpt>
      <trkpt lat="43.009635" lon="-1.19618667">
        <ele>919.0</ele>
        <time>2019-08-01T05:54:29.995Z</time>
      </trkpt>
      <trkpt lat="43.00964167" lon="-1.19616833">
        <ele>920.0</ele>
        <time>2019-08-01T05:54:31.000Z</time>
      </trkpt>
      <trkpt lat="43.00965167" lon="-1.19615333">
        <ele>921.0</ele>
        <time>2019-08-01T05:54:32.002Z</time>
      </trkpt>
      <trkpt lat="43.00966167" lon="-1.196135">
        <ele>922.0</ele>
        <time>2019-08-01T05:54:33.003Z</time>
      </trkpt>
      <trkpt lat="43.00967" lon="-1.19611667">
        <ele>922.0</ele>
        <time>2019-08-01T05:54:34.007Z</time>
      </trkpt>
      <trkpt lat="43.00967667" lon="-1.19609333">
        <ele>922.0</ele>
        <time>2019-08-01T05:54:35.013Z</time>
      </trkpt>
      <trkpt lat="43.009685" lon="-1.19607667">
        <ele>922.0</ele>
        <time>2019-08-01T05:54:36.020Z</time>
      </trkpt>
      <trkpt lat="43.00969333" lon="-1.19606167">
        <ele>923.0</ele>
        <time>2019-08-01T05:54:37.026Z</time>
      </trkpt>
      <trkpt lat="43.0097" lon="-1.196045">
        <ele>923.0</ele>
        <time>2019-08-01T05:54:38.032Z</time>
      </trkpt>
      <trkpt lat="43.009705" lon="-1.19602833">
        <ele>924.0</ele>
        <time>2019-08-01T05:54:39.038Z</time>
      </trkpt>
      <trkpt lat="43.00970667" lon="-1.19600833">
        <ele>924.0</ele>
        <time>2019-08-01T05:54:39.918Z</time>
      </trkpt>
      <trkpt lat="43.00971333" lon="-1.19598833">
        <ele>924.0</ele>
        <time>2019-08-01T05:54:40.924Z</time>
      </trkpt>
      <trkpt lat="43.00972167" lon="-1.19596833">
        <ele>924.0</ele>
        <time>2019-08-01T05:54:41.930Z</time>
      </trkpt>
      <trkpt lat="43.00973" lon="-1.19594833">
        <ele>924.0</ele>
        <time>2019-08-01T05:54:42.938Z</time>
      </trkpt>
      <trkpt lat="43.00973333" lon="-1.19593">
        <ele>923.0</ele>
        <time>2019-08-01T05:54:43.943Z</time>
      </trkpt>
      <trkpt lat="43.00974" lon="-1.19591">
        <ele>922.0</ele>
        <time>2019-08-01T05:54:44.950Z</time>
      </trkpt>
      <trkpt lat="43.00974333" lon="-1.19588667">
        <ele>921.0</ele>
        <time>2019-08-01T05:54:45.956Z</time>
      </trkpt>
      <trkpt lat="43.00974667" lon="-1.19586333">
        <ele>921.0</ele>
        <time>2019-08-01T05:54:46.961Z</time>
      </trkpt>
      <trkpt lat="43.00975333" lon="-1.19584">
        <ele>921.0</ele>
        <time>2019-08-01T05:54:47.966Z</time>
      </trkpt>
      <trkpt lat="43.00975833" lon="-1.19582">
        <ele>920.0</ele>
        <time>2019-08-01T05:54:48.972Z</time>
      </trkpt>
      <trkpt lat="43.00976167" lon="-1.19579833">
        <ele>920.0</ele>
        <time>2019-08-01T05:54:49.978Z</time>
      </trkpt>
      <trkpt lat="43.00976333" lon="-1.19578">
        <ele>919.0</ele>
        <time>2019-08-01T05:54:50.987Z</time>
      </trkpt>
      <trkpt lat="43.00977167" lon="-1.19576167">
        <ele>918.0</ele>
        <time>2019-08-01T05:54:51.993Z</time>
      </trkpt>
      <trkpt lat="43.00978" lon="-1.19574167">
        <ele>917.0</ele>
        <time>2019-08-01T05:54:52.997Z</time>
      </trkpt>
      <trkpt lat="43.00978333" lon="-1.19572">
        <ele>916.0</ele>
        <time>2019-08-01T05:54:54.005Z</time>
      </trkpt>
      <trkpt lat="43.009785" lon="-1.19569667">
        <ele>915.0</ele>
        <time>2019-08-01T05:54:55.011Z</time>
      </trkpt>
      <trkpt lat="43.00979" lon="-1.19567333">
        <ele>914.0</ele>
        <time>2019-08-01T05:54:56.016Z</time>
      </trkpt>
      <trkpt lat="43.00979667" lon="-1.19565167">
        <ele>914.0</ele>
        <time>2019-08-01T05:54:57.021Z</time>
      </trkpt>
      <trkpt lat="43.009805" lon="-1.19562667">
        <ele>914.0</ele>
        <time>2019-08-01T05:54:58.026Z</time>
      </trkpt>
      <trkpt lat="43.00981" lon="-1.19560333">
        <ele>914.0</ele>
        <time>2019-08-01T05:54:59.030Z</time>
      </trkpt>
      <trkpt lat="43.00981833" lon="-1.19558333">
        <ele>914.0</ele>
        <time>2019-08-01T05:55:00.035Z</time>
      </trkpt>
      <trkpt lat="43.00983" lon="-1.19556667">
        <ele>914.0</ele>
        <time>2019-08-01T05:55:01.042Z</time>
      </trkpt>
      <trkpt lat="43.00984" lon="-1.19554833">
        <ele>914.0</ele>
        <time>2019-08-01T05:55:01.920Z</time>
      </trkpt>
      <trkpt lat="43.00984833" lon="-1.19552667">
        <ele>914.0</ele>
        <time>2019-08-01T05:55:02.925Z</time>
      </trkpt>
      <trkpt lat="43.00986" lon="-1.19550833">
        <ele>914.0</ele>
        <time>2019-08-01T05:55:03.930Z</time>
      </trkpt>
      <trkpt lat="43.00986833" lon="-1.19549">
        <ele>914.0</ele>
        <time>2019-08-01T05:55:04.936Z</time>
      </trkpt>
      <trkpt lat="43.00987667" lon="-1.19547">
        <ele>915.0</ele>
        <time>2019-08-01T05:55:05.943Z</time>
      </trkpt>
      <trkpt lat="43.00988167" lon="-1.19545167">
        <ele>916.0</ele>
        <time>2019-08-01T05:55:06.948Z</time>
      </trkpt>
      <trkpt lat="43.00989" lon="-1.19543167">
        <ele>916.0</ele>
        <time>2019-08-01T05:55:07.953Z</time>
      </trkpt>
      <trkpt lat="43.00990167" lon="-1.19541667">
        <ele>917.0</ele>
        <time>2019-08-01T05:55:08.959Z</time>
      </trkpt>
      <trkpt lat="43.009905" lon="-1.19539667">
        <ele>917.0</ele>
        <time>2019-08-01T05:55:09.963Z</time>
      </trkpt>
      <trkpt lat="43.00991" lon="-1.195375">
        <ele>917.0</ele>
        <time>2019-08-01T05:55:10.971Z</time>
      </trkpt>
      <trkpt lat="43.00991667" lon="-1.19535333">
        <ele>917.0</ele>
        <time>2019-08-01T05:55:11.978Z</time>
      </trkpt>
      <trkpt lat="43.00992167" lon="-1.19533167">
        <ele>917.0</ele>
        <time>2019-08-01T05:55:12.983Z</time>
      </trkpt>
      <trkpt lat="43.00992667" lon="-1.19531333">
        <ele>917.0</ele>
        <time>2019-08-01T05:55:13.991Z</time>
      </trkpt>
      <trkpt lat="43.00993167" lon="-1.195295">
        <ele>917.0</ele>
        <time>2019-08-01T05:55:14.998Z</time>
      </trkpt>
      <trkpt lat="43.00993667" lon="-1.19527667">
        <ele>917.0</ele>
        <time>2019-08-01T05:55:16.004Z</time>
      </trkpt>
      <trkpt lat="43.009945" lon="-1.19525667">
        <ele>917.0</ele>
        <time>2019-08-01T05:55:17.011Z</time>
      </trkpt>
      <trkpt lat="43.00995167" lon="-1.19523667">
        <ele>917.0</ele>
        <time>2019-08-01T05:55:18.019Z</time>
      </trkpt>
      <trkpt lat="43.00995667" lon="-1.19521667">
        <ele>917.0</ele>
        <time>2019-08-01T05:55:19.025Z</time>
      </trkpt>
      <trkpt lat="43.00996167" lon="-1.195195">
        <ele>917.0</ele>
        <time>2019-08-01T05:55:20.031Z</time>
      </trkpt>
      <trkpt lat="43.00996667" lon="-1.195175">
        <ele>917.0</ele>
        <time>2019-08-01T05:55:21.037Z</time>
      </trkpt>
      <trkpt lat="43.00997" lon="-1.195155">
        <ele>917.0</ele>
        <time>2019-08-01T05:55:22.040Z</time>
      </trkpt>
      <trkpt lat="43.00997667" lon="-1.195135">
        <ele>917.0</ele>
        <time>2019-08-01T05:55:23.040Z</time>
      </trkpt>
      <trkpt lat="43.00998333" lon="-1.19511667">
        <ele>918.0</ele>
        <time>2019-08-01T05:55:23.918Z</time>
      </trkpt>
      <trkpt lat="43.00998833" lon="-1.19509833">
        <ele>917.0</ele>
        <time>2019-08-01T05:55:24.921Z</time>
      </trkpt>
      <trkpt lat="43.00999333" lon="-1.19508">
        <ele>918.0</ele>
        <time>2019-08-01T05:55:25.924Z</time>
      </trkpt>
      <trkpt lat="43.01" lon="-1.19506">
        <ele>918.0</ele>
        <time>2019-08-01T05:55:26.928Z</time>
      </trkpt>
      <trkpt lat="43.010005" lon="-1.19503833">
        <ele>918.0</ele>
        <time>2019-08-01T05:55:27.932Z</time>
      </trkpt>
      <trkpt lat="43.01001" lon="-1.19502">
        <ele>918.0</ele>
        <time>2019-08-01T05:55:28.938Z</time>
      </trkpt>
      <trkpt lat="43.010015" lon="-1.19500167">
        <ele>919.0</ele>
        <time>2019-08-01T05:55:29.945Z</time>
      </trkpt>
      <trkpt lat="43.01002333" lon="-1.19498333">
        <ele>920.0</ele>
        <time>2019-08-01T05:55:30.950Z</time>
      </trkpt>
      <trkpt lat="43.01003" lon="-1.194965">
        <ele>920.0</ele>
        <time>2019-08-01T05:55:31.956Z</time>
      </trkpt>
      <trkpt lat="43.01003667" lon="-1.194945">
        <ele>921.0</ele>
        <time>2019-08-01T05:55:32.961Z</time>
      </trkpt>
      <trkpt lat="43.01004667" lon="-1.19492333">
        <ele>921.0</ele>
        <time>2019-08-01T05:55:33.967Z</time>
      </trkpt>
      <trkpt lat="43.01005333" lon="-1.194905">
        <ele>921.0</ele>
        <time>2019-08-01T05:55:34.971Z</time>
      </trkpt>
      <trkpt lat="43.01005833" lon="-1.19488667">
        <ele>921.0</ele>
        <time>2019-08-01T05:55:35.978Z</time>
      </trkpt>
      <trkpt lat="43.01006667" lon="-1.19486667">
        <ele>921.0</ele>
        <time>2019-08-01T05:55:36.983Z</time>
      </trkpt>
      <trkpt lat="43.01007167" lon="-1.19484667">
        <ele>921.0</ele>
        <time>2019-08-01T05:55:37.989Z</time>
      </trkpt>
      <trkpt lat="43.01007667" lon="-1.194825">
        <ele>921.0</ele>
        <time>2019-08-01T05:55:38.992Z</time>
      </trkpt>
      <trkpt lat="43.01008167" lon="-1.19480667">
        <ele>921.0</ele>
        <time>2019-08-01T05:55:39.997Z</time>
      </trkpt>
      <trkpt lat="43.01008833" lon="-1.19478833">
        <ele>921.0</ele>
        <time>2019-08-01T05:55:41.002Z</time>
      </trkpt>
      <trkpt lat="43.01009333" lon="-1.194775">
        <ele>921.0</ele>
        <time>2019-08-01T05:55:42.007Z</time>
      </trkpt>
      <trkpt lat="43.010095" lon="-1.19476333">
        <ele>921.0</ele>
        <time>2019-08-01T05:55:43.014Z</time>
      </trkpt>
      <trkpt lat="43.010095" lon="-1.19475">
        <ele>922.0</ele>
        <time>2019-08-01T05:55:44.017Z</time>
      </trkpt>
      <trkpt lat="43.01009667" lon="-1.19473">
        <ele>921.0</ele>
        <time>2019-08-01T05:55:45.023Z</time>
      </trkpt>
      <trkpt lat="43.01010167" lon="-1.19471">
        <ele>920.0</ele>
        <time>2019-08-01T05:55:46.030Z</time>
      </trkpt>
      <trkpt lat="43.01010833" lon="-1.19469">
        <ele>920.0</ele>
        <time>2019-08-01T05:55:47.035Z</time>
      </trkpt>
      <trkpt lat="43.01011667" lon="-1.19467167">
        <ele>920.0</ele>
        <time>2019-08-01T05:55:48.042Z</time>
      </trkpt>
      <trkpt lat="43.010125" lon="-1.19465667">
        <ele>920.0</ele>
        <time>2019-08-01T05:55:48.921Z</time>
      </trkpt>
      <trkpt lat="43.01013333" lon="-1.19464167">
        <ele>920.0</ele>
        <time>2019-08-01T05:55:49.928Z</time>
      </trkpt>
      <trkpt lat="43.01014333" lon="-1.19462833">
        <ele>920.0</ele>
        <time>2019-08-01T05:55:50.934Z</time>
      </trkpt>
      <trkpt lat="43.010155" lon="-1.19461333">
        <ele>921.0</ele>
        <time>2019-08-01T05:55:51.939Z</time>
      </trkpt>
      <trkpt lat="43.01016833" lon="-1.1946">
        <ele>922.0</ele>
        <time>2019-08-01T05:55:52.944Z</time>
      </trkpt>
      <trkpt lat="43.01018" lon="-1.19458833">
        <ele>922.0</ele>
        <time>2019-08-01T05:55:53.951Z</time>
      </trkpt>
      <trkpt lat="43.01018833" lon="-1.194575">
        <ele>922.0</ele>
        <time>2019-08-01T05:55:54.957Z</time>
      </trkpt>
      <trkpt lat="43.0102" lon="-1.19455833">
        <ele>922.0</ele>
        <time>2019-08-01T05:55:55.962Z</time>
      </trkpt>
      <trkpt lat="43.01020833" lon="-1.19454167">
        <ele>922.0</ele>
        <time>2019-08-01T05:55:56.968Z</time>
      </trkpt>
      <trkpt lat="43.01022" lon="-1.19453">
        <ele>922.0</ele>
        <time>2019-08-01T05:55:57.975Z</time>
      </trkpt>
      <trkpt lat="43.01023" lon="-1.19451667">
        <ele>921.0</ele>
        <time>2019-08-01T05:55:58.980Z</time>
      </trkpt>
      <trkpt lat="43.01024333" lon="-1.194505">
        <ele>921.0</ele>
        <time>2019-08-01T05:55:59.985Z</time>
      </trkpt>
      <trkpt lat="43.010255" lon="-1.19449">
        <ele>922.0</ele>
        <time>2019-08-01T05:56:00.992Z</time>
      </trkpt>
      <trkpt lat="43.01026833" lon="-1.19447333">
        <ele>924.0</ele>
        <time>2019-08-01T05:56:01.997Z</time>
      </trkpt>
      <trkpt lat="43.01028667" lon="-1.19445167">
        <ele>925.0</ele>
        <time>2019-08-01T05:56:03.002Z</time>
      </trkpt>
      <trkpt lat="43.01030167" lon="-1.19443333">
        <ele>927.0</ele>
        <time>2019-08-01T05:56:04.008Z</time>
      </trkpt>
      <trkpt lat="43.01031167" lon="-1.19441333">
        <ele>928.0</ele>
        <time>2019-08-01T05:56:05.014Z</time>
      </trkpt>
      <trkpt lat="43.01032167" lon="-1.19439667">
        <ele>928.0</ele>
        <time>2019-08-01T05:56:06.019Z</time>
      </trkpt>
      <trkpt lat="43.01033833" lon="-1.19438167">
        <ele>929.0</ele>
        <time>2019-08-01T05:56:07.026Z</time>
      </trkpt>
      <trkpt lat="43.01035333" lon="-1.19436333">
        <ele>930.0</ele>
        <time>2019-08-01T05:56:08.033Z</time>
      </trkpt>
      <trkpt lat="43.01036833" lon="-1.194345">
        <ele>929.0</ele>
        <time>2019-08-01T05:56:09.037Z</time>
      </trkpt>
      <trkpt lat="43.01038167" lon="-1.19432833">
        <ele>929.0</ele>
        <time>2019-08-01T05:56:09.918Z</time>
      </trkpt>
      <trkpt lat="43.01039667" lon="-1.19431">
        <ele>929.0</ele>
        <time>2019-08-01T05:56:10.924Z</time>
      </trkpt>
      <trkpt lat="43.01041167" lon="-1.19429333">
        <ele>928.0</ele>
        <time>2019-08-01T05:56:11.930Z</time>
      </trkpt>
      <trkpt lat="43.01042833" lon="-1.194275">
        <ele>927.0</ele>
        <time>2019-08-01T05:56:12.936Z</time>
      </trkpt>
      <trkpt lat="43.01044" lon="-1.19425">
        <ele>926.0</ele>
        <time>2019-08-01T05:56:13.941Z</time>
      </trkpt>
      <trkpt lat="43.01045" lon="-1.19423667">
        <ele>925.0</ele>
        <time>2019-08-01T05:56:14.946Z</time>
      </trkpt>
      <trkpt lat="43.01045833" lon="-1.19421333">
        <ele>924.0</ele>
        <time>2019-08-01T05:56:15.951Z</time>
      </trkpt>
      <trkpt lat="43.01046333" lon="-1.19418833">
        <ele>922.0</ele>
        <time>2019-08-01T05:56:16.956Z</time>
      </trkpt>
      <trkpt lat="43.010475" lon="-1.19417167">
        <ele>922.0</ele>
        <time>2019-08-01T05:56:17.960Z</time>
      </trkpt>
      <trkpt lat="43.010475" lon="-1.19416167">
        <ele>922.0</ele>
        <time>2019-08-01T05:56:18.965Z</time>
      </trkpt>
      <trkpt lat="43.010485" lon="-1.19415333">
        <ele>922.0</ele>
        <time>2019-08-01T05:56:19.969Z</time>
      </trkpt>
      <trkpt lat="43.01049667" lon="-1.19413667">
        <ele>922.0</ele>
        <time>2019-08-01T05:56:20.975Z</time>
      </trkpt>
      <trkpt lat="43.01050167" lon="-1.194115">
        <ele>922.0</ele>
        <time>2019-08-01T05:56:21.979Z</time>
      </trkpt>
      <trkpt lat="43.010505" lon="-1.19409">
        <ele>921.0</ele>
        <time>2019-08-01T05:56:22.982Z</time>
      </trkpt>
      <trkpt lat="43.01051167" lon="-1.19407333">
        <ele>920.0</ele>
        <time>2019-08-01T05:56:23.987Z</time>
      </trkpt>
      <trkpt lat="43.01051167" lon="-1.19404833">
        <ele>919.0</ele>
        <time>2019-08-01T05:56:24.993Z</time>
      </trkpt>
      <trkpt lat="43.01051833" lon="-1.19402333">
        <ele>920.0</ele>
        <time>2019-08-01T05:56:26.000Z</time>
      </trkpt>
      <trkpt lat="43.01052333" lon="-1.19400167">
        <ele>921.0</ele>
        <time>2019-08-01T05:56:27.003Z</time>
      </trkpt>
      <trkpt lat="43.01053" lon="-1.19398167">
        <ele>921.0</ele>
        <time>2019-08-01T05:56:28.008Z</time>
      </trkpt>
      <trkpt lat="43.01053333" lon="-1.193965">
        <ele>921.0</ele>
        <time>2019-08-01T05:56:29.015Z</time>
      </trkpt>
      <trkpt lat="43.01053" lon="-1.19394667">
        <ele>922.0</ele>
        <time>2019-08-01T05:56:30.022Z</time>
      </trkpt>
      <trkpt lat="43.01053333" lon="-1.19392833">
        <ele>922.0</ele>
        <time>2019-08-01T05:56:31.029Z</time>
      </trkpt>
      <trkpt lat="43.01053833" lon="-1.193905">
        <ele>922.0</ele>
        <time>2019-08-01T05:56:32.036Z</time>
      </trkpt>
      <trkpt lat="43.010545" lon="-1.19388">
        <ele>922.0</ele>
        <time>2019-08-01T05:56:32.918Z</time>
      </trkpt>
      <trkpt lat="43.010545" lon="-1.19386333">
        <ele>922.0</ele>
        <time>2019-08-01T05:56:33.922Z</time>
      </trkpt>
      <trkpt lat="43.01054333" lon="-1.193845">
        <ele>922.0</ele>
        <time>2019-08-01T05:56:34.928Z</time>
      </trkpt>
      <trkpt lat="43.01054333" lon="-1.19382667">
        <ele>922.0</ele>
        <time>2019-08-01T05:56:35.935Z</time>
      </trkpt>
      <trkpt lat="43.01054667" lon="-1.19380667">
        <ele>922.0</ele>
        <time>2019-08-01T05:56:36.943Z</time>
      </trkpt>
      <trkpt lat="43.01054833" lon="-1.19378833">
        <ele>922.0</ele>
        <time>2019-08-01T05:56:37.949Z</time>
      </trkpt>
      <trkpt lat="43.01054833" lon="-1.19376833">
        <ele>922.0</ele>
        <time>2019-08-01T05:56:38.954Z</time>
      </trkpt>
      <trkpt lat="43.01055" lon="-1.19375">
        <ele>922.0</ele>
        <time>2019-08-01T05:56:39.959Z</time>
      </trkpt>
      <trkpt lat="43.01055167" lon="-1.19373167">
        <ele>922.0</ele>
        <time>2019-08-01T05:56:40.963Z</time>
      </trkpt>
      <trkpt lat="43.01055333" lon="-1.19371167">
        <ele>922.0</ele>
        <time>2019-08-01T05:56:41.969Z</time>
      </trkpt>
      <trkpt lat="43.010555" lon="-1.19369167">
        <ele>922.0</ele>
        <time>2019-08-01T05:56:42.976Z</time>
      </trkpt>
      <trkpt lat="43.01055833" lon="-1.19367167">
        <ele>922.0</ele>
        <time>2019-08-01T05:56:43.979Z</time>
      </trkpt>
      <trkpt lat="43.01056167" lon="-1.193655">
        <ele>921.0</ele>
        <time>2019-08-01T05:56:44.984Z</time>
      </trkpt>
      <trkpt lat="43.01056333" lon="-1.193635">
        <ele>921.0</ele>
        <time>2019-08-01T05:56:45.989Z</time>
      </trkpt>
      <trkpt lat="43.01056667" lon="-1.19361333">
        <ele>921.0</ele>
        <time>2019-08-01T05:56:46.995Z</time>
      </trkpt>
      <trkpt lat="43.01057167" lon="-1.193595">
        <ele>921.0</ele>
        <time>2019-08-01T05:56:48.001Z</time>
      </trkpt>
      <trkpt lat="43.010575" lon="-1.19357167">
        <ele>921.0</ele>
        <time>2019-08-01T05:56:49.006Z</time>
      </trkpt>
      <trkpt lat="43.01057833" lon="-1.19354833">
        <ele>921.0</ele>
        <time>2019-08-01T05:56:50.012Z</time>
      </trkpt>
      <trkpt lat="43.01057833" lon="-1.19353">
        <ele>921.0</ele>
        <time>2019-08-01T05:56:51.018Z</time>
      </trkpt>
      <trkpt lat="43.010585" lon="-1.19351167">
        <ele>922.0</ele>
        <time>2019-08-01T05:56:52.024Z</time>
      </trkpt>
      <trkpt lat="43.01059333" lon="-1.19349667">
        <ele>923.0</ele>
        <time>2019-08-01T05:56:53.031Z</time>
      </trkpt>
      <trkpt lat="43.01060667" lon="-1.19348167">
        <ele>924.0</ele>
        <time>2019-08-01T05:56:54.038Z</time>
      </trkpt>
      <trkpt lat="43.01062167" lon="-1.19346667">
        <ele>924.0</ele>
        <time>2019-08-01T05:56:54.918Z</time>
      </trkpt>
      <trkpt lat="43.01063167" lon="-1.19345">
        <ele>925.0</ele>
        <time>2019-08-01T05:56:55.921Z</time>
      </trkpt>
      <trkpt lat="43.01064333" lon="-1.193435">
        <ele>925.0</ele>
        <time>2019-08-01T05:56:56.928Z</time>
      </trkpt>
      <trkpt lat="43.01065167" lon="-1.19342167">
        <ele>925.0</ele>
        <time>2019-08-01T05:56:57.934Z</time>
      </trkpt>
      <trkpt lat="43.01066" lon="-1.19340667">
        <ele>926.0</ele>
        <time>2019-08-01T05:56:58.939Z</time>
      </trkpt>
      <trkpt lat="43.01067167" lon="-1.19338833">
        <ele>927.0</ele>
        <time>2019-08-01T05:56:59.945Z</time>
      </trkpt>
      <trkpt lat="43.01068167" lon="-1.19337833">
        <ele>929.0</ele>
        <time>2019-08-01T05:57:00.951Z</time>
      </trkpt>
      <trkpt lat="43.01069167" lon="-1.19336667">
        <ele>930.0</ele>
        <time>2019-08-01T05:57:01.954Z</time>
      </trkpt>
      <trkpt lat="43.0107" lon="-1.19335667">
        <ele>931.0</ele>
        <time>2019-08-01T05:57:02.960Z</time>
      </trkpt>
      <trkpt lat="43.010705" lon="-1.19334333">
        <ele>933.0</ele>
        <time>2019-08-01T05:57:03.965Z</time>
      </trkpt>
      <trkpt lat="43.01070833" lon="-1.19332167">
        <ele>934.0</ele>
        <time>2019-08-01T05:57:04.969Z</time>
      </trkpt>
      <trkpt lat="43.01071833" lon="-1.1933">
        <ele>932.0</ele>
        <time>2019-08-01T05:57:05.975Z</time>
      </trkpt>
      <trkpt lat="43.01072333" lon="-1.19328167">
        <ele>932.0</ele>
        <time>2019-08-01T05:57:06.983Z</time>
      </trkpt>
      <trkpt lat="43.01073" lon="-1.19326167">
        <ele>931.0</ele>
        <time>2019-08-01T05:57:07.989Z</time>
      </trkpt>
      <trkpt lat="43.01074" lon="-1.193245">
        <ele>931.0</ele>
        <time>2019-08-01T05:57:08.995Z</time>
      </trkpt>
      <trkpt lat="43.01074667" lon="-1.19322667">
        <ele>930.0</ele>
        <time>2019-08-01T05:57:10.001Z</time>
      </trkpt>
      <trkpt lat="43.01075167" lon="-1.19321">
        <ele>930.0</ele>
        <time>2019-08-01T05:57:11.007Z</time>
      </trkpt>
      <trkpt lat="43.010755" lon="-1.19319167">
        <ele>930.0</ele>
        <time>2019-08-01T05:57:12.013Z</time>
      </trkpt>
      <trkpt lat="43.01076167" lon="-1.19317333">
        <ele>929.0</ele>
        <time>2019-08-01T05:57:13.020Z</time>
      </trkpt>
      <trkpt lat="43.010765" lon="-1.193155">
        <ele>930.0</ele>
        <time>2019-08-01T05:57:14.026Z</time>
      </trkpt>
      <trkpt lat="43.01076667" lon="-1.19313333">
        <ele>930.0</ele>
        <time>2019-08-01T05:57:15.033Z</time>
      </trkpt>
      <trkpt lat="43.01077" lon="-1.19311333">
        <ele>930.0</ele>
        <time>2019-08-01T05:57:16.039Z</time>
      </trkpt>
      <trkpt lat="43.010775" lon="-1.193095">
        <ele>930.0</ele>
        <time>2019-08-01T05:57:16.919Z</time>
      </trkpt>
      <trkpt lat="43.01077667" lon="-1.19307333">
        <ele>931.0</ele>
        <time>2019-08-01T05:57:17.924Z</time>
      </trkpt>
      <trkpt lat="43.01078167" lon="-1.19305">
        <ele>931.0</ele>
        <time>2019-08-01T05:57:18.931Z</time>
      </trkpt>
      <trkpt lat="43.01078667" lon="-1.19302833">
        <ele>931.0</ele>
        <time>2019-08-01T05:57:19.938Z</time>
      </trkpt>
      <trkpt lat="43.01079167" lon="-1.19300833">
        <ele>932.0</ele>
        <time>2019-08-01T05:57:20.941Z</time>
      </trkpt>
      <trkpt lat="43.01079333" lon="-1.19299167">
        <ele>931.0</ele>
        <time>2019-08-01T05:57:21.949Z</time>
      </trkpt>
      <trkpt lat="43.01079667" lon="-1.19297">
        <ele>931.0</ele>
        <time>2019-08-01T05:57:22.955Z</time>
      </trkpt>
      <trkpt lat="43.0108" lon="-1.19294833">
        <ele>931.0</ele>
        <time>2019-08-01T05:57:23.960Z</time>
      </trkpt>
      <trkpt lat="43.01080167" lon="-1.19292667">
        <ele>932.0</ele>
        <time>2019-08-01T05:57:24.965Z</time>
      </trkpt>
      <trkpt lat="43.01080333" lon="-1.19290333">
        <ele>932.0</ele>
        <time>2019-08-01T05:57:25.970Z</time>
      </trkpt>
      <trkpt lat="43.01080333" lon="-1.19288">
        <ele>931.0</ele>
        <time>2019-08-01T05:57:26.976Z</time>
      </trkpt>
      <trkpt lat="43.01080333" lon="-1.19285833">
        <ele>931.0</ele>
        <time>2019-08-01T05:57:27.982Z</time>
      </trkpt>
      <trkpt lat="43.010805" lon="-1.19283833">
        <ele>931.0</ele>
        <time>2019-08-01T05:57:28.988Z</time>
      </trkpt>
      <trkpt lat="43.01081" lon="-1.19281667">
        <ele>932.0</ele>
        <time>2019-08-01T05:57:29.993Z</time>
      </trkpt>
      <trkpt lat="43.01081167" lon="-1.1928">
        <ele>933.0</ele>
        <time>2019-08-01T05:57:30.999Z</time>
      </trkpt>
      <trkpt lat="43.01081333" lon="-1.19278167">
        <ele>933.0</ele>
        <time>2019-08-01T05:57:32.003Z</time>
      </trkpt>
      <trkpt lat="43.01081667" lon="-1.19275667">
        <ele>933.0</ele>
        <time>2019-08-01T05:57:33.010Z</time>
      </trkpt>
      <trkpt lat="43.01082" lon="-1.19272833">
        <ele>933.0</ele>
        <time>2019-08-01T05:57:34.016Z</time>
      </trkpt>
      <trkpt lat="43.01082" lon="-1.19270333">
        <ele>931.0</ele>
        <time>2019-08-01T05:57:35.022Z</time>
      </trkpt>
      <trkpt lat="43.01082" lon="-1.19268">
        <ele>930.0</ele>
        <time>2019-08-01T05:57:36.025Z</time>
      </trkpt>
      <trkpt lat="43.01082333" lon="-1.192655">
        <ele>929.0</ele>
        <time>2019-08-01T05:57:37.031Z</time>
      </trkpt>
      <trkpt lat="43.01082833" lon="-1.19262333">
        <ele>927.0</ele>
        <time>2019-08-01T05:57:38.039Z</time>
      </trkpt>
      <trkpt lat="43.01082667" lon="-1.19259333">
        <ele>927.0</ele>
        <time>2019-08-01T05:57:38.920Z</time>
      </trkpt>
      <trkpt lat="43.01083" lon="-1.19256833">
        <ele>927.0</ele>
        <time>2019-08-01T05:57:39.924Z</time>
      </trkpt>
      <trkpt lat="43.01084333" lon="-1.19253833">
        <ele>927.0</ele>
        <time>2019-08-01T05:57:40.929Z</time>
      </trkpt>
      <trkpt lat="43.01084667" lon="-1.19251333">
        <ele>928.0</ele>
        <time>2019-08-01T05:57:41.932Z</time>
      </trkpt>
      <trkpt lat="43.01085167" lon="-1.19249333">
        <ele>928.0</ele>
        <time>2019-08-01T05:57:42.936Z</time>
      </trkpt>
      <trkpt lat="43.01085667" lon="-1.192475">
        <ele>927.0</ele>
        <time>2019-08-01T05:57:43.940Z</time>
      </trkpt>
      <trkpt lat="43.01085833" lon="-1.19245167">
        <ele>926.0</ele>
        <time>2019-08-01T05:57:44.944Z</time>
      </trkpt>
      <trkpt lat="43.01085833" lon="-1.19243333">
        <ele>925.0</ele>
        <time>2019-08-01T05:57:45.949Z</time>
      </trkpt>
      <trkpt lat="43.01086167" lon="-1.19241333">
        <ele>925.0</ele>
        <time>2019-08-01T05:57:46.955Z</time>
      </trkpt>
      <trkpt lat="43.010865" lon="-1.19239667">
        <ele>925.0</ele>
        <time>2019-08-01T05:57:47.958Z</time>
      </trkpt>
      <trkpt lat="43.01086667" lon="-1.19238">
        <ele>926.0</ele>
        <time>2019-08-01T05:57:48.963Z</time>
      </trkpt>
      <trkpt lat="43.01087" lon="-1.19236333">
        <ele>926.0</ele>
        <time>2019-08-01T05:57:49.971Z</time>
      </trkpt>
      <trkpt lat="43.01087167" lon="-1.192345">
        <ele>926.0</ele>
        <time>2019-08-01T05:57:50.977Z</time>
      </trkpt>
      <trkpt lat="43.010875" lon="-1.19232833">
        <ele>926.0</ele>
        <time>2019-08-01T05:57:51.983Z</time>
      </trkpt>
      <trkpt lat="43.01088" lon="-1.19231167">
        <ele>926.0</ele>
        <time>2019-08-01T05:57:52.990Z</time>
      </trkpt>
      <trkpt lat="43.010885" lon="-1.192295">
        <ele>926.0</ele>
        <time>2019-08-01T05:57:53.996Z</time>
      </trkpt>
      <trkpt lat="43.01088667" lon="-1.192285">
        <ele>926.0</ele>
        <time>2019-08-01T05:57:55.001Z</time>
      </trkpt>
      <trkpt lat="43.01089" lon="-1.19227833">
        <ele>926.0</ele>
        <time>2019-08-01T05:57:56.007Z</time>
      </trkpt>
      <trkpt lat="43.01089167" lon="-1.192275">
        <ele>926.0</ele>
        <time>2019-08-01T05:57:57.014Z</time>
      </trkpt>
      <trkpt lat="43.010895" lon="-1.192275">
        <ele>926.0</ele>
        <time>2019-08-01T05:57:58.021Z</time>
      </trkpt>
      <trkpt lat="43.01089833" lon="-1.19227833">
        <ele>927.0</ele>
        <time>2019-08-01T05:57:59.028Z</time>
      </trkpt>
      <trkpt lat="43.01090167" lon="-1.19228167">
        <ele>927.0</ele>
        <time>2019-08-01T05:58:00.034Z</time>
      </trkpt>
      <trkpt lat="43.01090667" lon="-1.19228667">
        <ele>927.0</ele>
        <time>2019-08-01T05:58:01.040Z</time>
      </trkpt>
      <trkpt lat="43.010915" lon="-1.19229667">
        <ele>928.0</ele>
        <time>2019-08-01T05:58:01.919Z</time>
      </trkpt>
      <trkpt lat="43.01092167" lon="-1.19230667">
        <ele>929.0</ele>
        <time>2019-08-01T05:58:02.925Z</time>
      </trkpt>
      <trkpt lat="43.01093" lon="-1.19232167">
        <ele>929.0</ele>
        <time>2019-08-01T05:58:03.932Z</time>
      </trkpt>
      <trkpt lat="43.01093333" lon="-1.19233333">
        <ele>930.0</ele>
        <time>2019-08-01T05:58:04.936Z</time>
      </trkpt>
      <trkpt lat="43.01093833" lon="-1.192345">
        <ele>930.0</ele>
        <time>2019-08-01T05:58:05.940Z</time>
      </trkpt>
      <trkpt lat="43.01094333" lon="-1.19235667">
        <ele>929.0</ele>
        <time>2019-08-01T05:58:06.944Z</time>
      </trkpt>
      <trkpt lat="43.01095167" lon="-1.19237167">
        <ele>929.0</ele>
        <time>2019-08-01T05:58:07.948Z</time>
      </trkpt>
      <trkpt lat="43.01095667" lon="-1.19238667">
        <ele>930.0</ele>
        <time>2019-08-01T05:58:08.953Z</time>
      </trkpt>
      <trkpt lat="43.010965" lon="-1.192405">
        <ele>930.0</ele>
        <time>2019-08-01T05:58:09.958Z</time>
      </trkpt>
      <trkpt lat="43.01097667" lon="-1.19242">
        <ele>931.0</ele>
        <time>2019-08-01T05:58:10.964Z</time>
      </trkpt>
      <trkpt lat="43.01098333" lon="-1.19243">
        <ele>931.0</ele>
        <time>2019-08-01T05:58:11.969Z</time>
      </trkpt>
      <trkpt lat="43.010995" lon="-1.192445">
        <ele>932.0</ele>
        <time>2019-08-01T05:58:12.974Z</time>
      </trkpt>
      <trkpt lat="43.011" lon="-1.19246">
        <ele>933.0</ele>
        <time>2019-08-01T05:58:13.979Z</time>
      </trkpt>
      <trkpt lat="43.01100667" lon="-1.192475">
        <ele>934.0</ele>
        <time>2019-08-01T05:58:14.983Z</time>
      </trkpt>
      <trkpt lat="43.01101333" lon="-1.19249">
        <ele>935.0</ele>
        <time>2019-08-01T05:58:15.991Z</time>
      </trkpt>
      <trkpt lat="43.01101833" lon="-1.19251">
        <ele>937.0</ele>
        <time>2019-08-01T05:58:16.997Z</time>
      </trkpt>
      <trkpt lat="43.01102833" lon="-1.19253">
        <ele>938.0</ele>
        <time>2019-08-01T05:58:18.003Z</time>
      </trkpt>
      <trkpt lat="43.01103833" lon="-1.192545">
        <ele>939.0</ele>
        <time>2019-08-01T05:58:19.006Z</time>
      </trkpt>
      <trkpt lat="43.01104667" lon="-1.19256333">
        <ele>941.0</ele>
        <time>2019-08-01T05:58:20.014Z</time>
      </trkpt>
      <trkpt lat="43.01106" lon="-1.19258">
        <ele>941.0</ele>
        <time>2019-08-01T05:58:21.019Z</time>
      </trkpt>
      <trkpt lat="43.011075" lon="-1.19259333">
        <ele>943.0</ele>
        <time>2019-08-01T05:58:22.025Z</time>
      </trkpt>
      <trkpt lat="43.01109167" lon="-1.19260667">
        <ele>944.0</ele>
        <time>2019-08-01T05:58:23.031Z</time>
      </trkpt>
      <trkpt lat="43.01110833" lon="-1.19262833">
        <ele>945.0</ele>
        <time>2019-08-01T05:58:24.037Z</time>
      </trkpt>
      <trkpt lat="43.01111" lon="-1.19264333">
        <ele>945.0</ele>
        <time>2019-08-01T05:58:25.043Z</time>
      </trkpt>
      <trkpt lat="43.01111667" lon="-1.19265667">
        <ele>944.0</ele>
        <time>2019-08-01T05:58:25.923Z</time>
      </trkpt>
      <trkpt lat="43.01112833" lon="-1.19267333">
        <ele>943.0</ele>
        <time>2019-08-01T05:58:26.928Z</time>
      </trkpt>
      <trkpt lat="43.011135" lon="-1.19268667">
        <ele>942.0</ele>
        <time>2019-08-01T05:58:27.930Z</time>
      </trkpt>
      <trkpt lat="43.01114167" lon="-1.19270333">
        <ele>941.0</ele>
        <time>2019-08-01T05:58:28.936Z</time>
      </trkpt>
      <trkpt lat="43.01115167" lon="-1.19272333">
        <ele>940.0</ele>
        <time>2019-08-01T05:58:29.940Z</time>
      </trkpt>
      <trkpt lat="43.01115833" lon="-1.192745">
        <ele>942.0</ele>
        <time>2019-08-01T05:58:30.946Z</time>
      </trkpt>
      <trkpt lat="43.01116667" lon="-1.19276167">
        <ele>943.0</ele>
        <time>2019-08-01T05:58:31.953Z</time>
      </trkpt>
      <trkpt lat="43.01117167" lon="-1.19277333">
        <ele>943.0</ele>
        <time>2019-08-01T05:58:32.957Z</time>
      </trkpt>
      <trkpt lat="43.011175" lon="-1.19278667">
        <ele>944.0</ele>
        <time>2019-08-01T05:58:33.961Z</time>
      </trkpt>
      <trkpt lat="43.01118167" lon="-1.19279667">
        <ele>944.0</ele>
        <time>2019-08-01T05:58:34.967Z</time>
      </trkpt>
      <trkpt lat="43.01119167" lon="-1.19280667">
        <ele>944.0</ele>
        <time>2019-08-01T05:58:35.970Z</time>
      </trkpt>
      <trkpt lat="43.0112" lon="-1.19281167">
        <ele>945.0</ele>
        <time>2019-08-01T05:58:36.973Z</time>
      </trkpt>
      <trkpt lat="43.01120833" lon="-1.19282">
        <ele>945.0</ele>
        <time>2019-08-01T05:58:37.979Z</time>
      </trkpt>
      <trkpt lat="43.01121833" lon="-1.19282833">
        <ele>945.0</ele>
        <time>2019-08-01T05:58:38.985Z</time>
      </trkpt>
      <trkpt lat="43.01122667" lon="-1.19283667">
        <ele>945.0</ele>
        <time>2019-08-01T05:58:39.992Z</time>
      </trkpt>
      <trkpt lat="43.01123667" lon="-1.192845">
        <ele>945.0</ele>
        <time>2019-08-01T05:58:40.996Z</time>
      </trkpt>
      <trkpt lat="43.01124667" lon="-1.19285167">
        <ele>945.0</ele>
        <time>2019-08-01T05:58:41.998Z</time>
      </trkpt>
      <trkpt lat="43.011255" lon="-1.19285833">
        <ele>945.0</ele>
        <time>2019-08-01T05:58:43.002Z</time>
      </trkpt>
      <trkpt lat="43.01126667" lon="-1.19286667">
        <ele>945.0</ele>
        <time>2019-08-01T05:58:44.008Z</time>
      </trkpt>
      <trkpt lat="43.01128" lon="-1.192875">
        <ele>946.0</ele>
        <time>2019-08-01T05:58:45.012Z</time>
      </trkpt>
      <trkpt lat="43.01129" lon="-1.19288333">
        <ele>946.0</ele>
        <time>2019-08-01T05:58:46.019Z</time>
      </trkpt>
      <trkpt lat="43.01130167" lon="-1.19288833">
        <ele>945.0</ele>
        <time>2019-08-01T05:58:47.026Z</time>
      </trkpt>
      <trkpt lat="43.01131333" lon="-1.19289333">
        <ele>945.0</ele>
        <time>2019-08-01T05:58:48.031Z</time>
      </trkpt>
      <trkpt lat="43.01132667" lon="-1.19289833">
        <ele>946.0</ele>
        <time>2019-08-01T05:58:49.037Z</time>
      </trkpt>
      <trkpt lat="43.011335" lon="-1.192905">
        <ele>946.0</ele>
        <time>2019-08-01T05:58:50.042Z</time>
      </trkpt>
      <trkpt lat="43.01134167" lon="-1.19291">
        <ele>946.0</ele>
        <time>2019-08-01T05:58:50.921Z</time>
      </trkpt>
      <trkpt lat="43.01135" lon="-1.192915">
        <ele>947.0</ele>
        <time>2019-08-01T05:58:51.928Z</time>
      </trkpt>
      <trkpt lat="43.01136" lon="-1.19291667">
        <ele>948.0</ele>
        <time>2019-08-01T05:58:52.933Z</time>
      </trkpt>
      <trkpt lat="43.01136667" lon="-1.19292">
        <ele>948.0</ele>
        <time>2019-08-01T05:58:53.939Z</time>
      </trkpt>
      <trkpt lat="43.01137667" lon="-1.19292167">
        <ele>948.0</ele>
        <time>2019-08-01T05:58:54.945Z</time>
      </trkpt>
      <trkpt lat="43.01139" lon="-1.192925">
        <ele>949.0</ele>
        <time>2019-08-01T05:58:55.950Z</time>
      </trkpt>
      <trkpt lat="43.01140667" lon="-1.19293">
        <ele>950.0</ele>
        <time>2019-08-01T05:58:56.955Z</time>
      </trkpt>
      <trkpt lat="43.01142333" lon="-1.192935">
        <ele>950.0</ele>
        <time>2019-08-01T05:58:57.960Z</time>
      </trkpt>
      <trkpt lat="43.01144" lon="-1.19294">
        <ele>951.0</ele>
        <time>2019-08-01T05:58:58.965Z</time>
      </trkpt>
      <trkpt lat="43.01145667" lon="-1.19294333">
        <ele>952.0</ele>
        <time>2019-08-01T05:58:59.968Z</time>
      </trkpt>
      <trkpt lat="43.011475" lon="-1.19294333">
        <ele>954.0</ele>
        <time>2019-08-01T05:59:00.973Z</time>
      </trkpt>
      <trkpt lat="43.01149167" lon="-1.19294833">
        <ele>954.0</ele>
        <time>2019-08-01T05:59:01.980Z</time>
      </trkpt>
      <trkpt lat="43.01151" lon="-1.19295167">
        <ele>955.0</ele>
        <time>2019-08-01T05:59:02.985Z</time>
      </trkpt>
      <trkpt lat="43.01152333" lon="-1.192955">
        <ele>955.0</ele>
        <time>2019-08-01T05:59:03.991Z</time>
      </trkpt>
      <trkpt lat="43.01154" lon="-1.19295833">
        <ele>955.0</ele>
        <time>2019-08-01T05:59:04.996Z</time>
      </trkpt>
      <trkpt lat="43.011555" lon="-1.19295833">
        <ele>954.0</ele>
        <time>2019-08-01T05:59:06.001Z</time>
      </trkpt>
      <trkpt lat="43.01157333" lon="-1.19294167">
        <ele>951.0</ele>
        <time>2019-08-01T05:59:07.006Z</time>
      </trkpt>
      <trkpt lat="43.01159" lon="-1.19292">
        <ele>948.0</ele>
        <time>2019-08-01T05:59:08.012Z</time>
      </trkpt>
      <trkpt lat="43.01160333" lon="-1.19290167">
        <ele>947.0</ele>
        <time>2019-08-01T05:59:09.017Z</time>
      </trkpt>
      <trkpt lat="43.01162" lon="-1.19289167">
        <ele>946.0</ele>
        <time>2019-08-01T05:59:10.024Z</time>
      </trkpt>
      <trkpt lat="43.011635" lon="-1.19287833">
        <ele>945.0</ele>
        <time>2019-08-01T05:59:11.029Z</time>
      </trkpt>
      <trkpt lat="43.01165" lon="-1.19286167">
        <ele>943.0</ele>
        <time>2019-08-01T05:59:12.034Z</time>
      </trkpt>
      <trkpt lat="43.011665" lon="-1.19284833">
        <ele>942.0</ele>
        <time>2019-08-01T05:59:13.040Z</time>
      </trkpt>
      <trkpt lat="43.01168" lon="-1.19284333">
        <ele>941.0</ele>
        <time>2019-08-01T05:59:13.919Z</time>
      </trkpt>
      <trkpt lat="43.01169167" lon="-1.19284833">
        <ele>942.0</ele>
        <time>2019-08-01T05:59:14.926Z</time>
      </trkpt>
      <trkpt lat="43.011705" lon="-1.19285667">
        <ele>943.0</ele>
        <time>2019-08-01T05:59:15.934Z</time>
      </trkpt>
      <trkpt lat="43.01172" lon="-1.19286167">
        <ele>944.0</ele>
        <time>2019-08-01T05:59:16.940Z</time>
      </trkpt>
      <trkpt lat="43.011735" lon="-1.19286667">
        <ele>944.0</ele>
        <time>2019-08-01T05:59:17.946Z</time>
      </trkpt>
      <trkpt lat="43.01175" lon="-1.19286667">
        <ele>945.0</ele>
        <time>2019-08-01T05:59:18.950Z</time>
      </trkpt>
      <trkpt lat="43.011765" lon="-1.19286833">
        <ele>945.0</ele>
        <time>2019-08-01T05:59:19.954Z</time>
      </trkpt>
      <trkpt lat="43.01177667" lon="-1.192865">
        <ele>946.0</ele>
        <time>2019-08-01T05:59:20.959Z</time>
      </trkpt>
      <trkpt lat="43.01178833" lon="-1.19286667">
        <ele>947.0</ele>
        <time>2019-08-01T05:59:21.963Z</time>
      </trkpt>
      <trkpt lat="43.01180167" lon="-1.192865">
        <ele>947.0</ele>
        <time>2019-08-01T05:59:22.967Z</time>
      </trkpt>
      <trkpt lat="43.01181167" lon="-1.192865">
        <ele>947.0</ele>
        <time>2019-08-01T05:59:23.972Z</time>
      </trkpt>
      <trkpt lat="43.01182667" lon="-1.192865">
        <ele>948.0</ele>
        <time>2019-08-01T05:59:24.978Z</time>
      </trkpt>
      <trkpt lat="43.01183833" lon="-1.19286833">
        <ele>948.0</ele>
        <time>2019-08-01T05:59:25.982Z</time>
      </trkpt>
      <trkpt lat="43.01185167" lon="-1.192865">
        <ele>949.0</ele>
        <time>2019-08-01T05:59:26.987Z</time>
      </trkpt>
      <trkpt lat="43.01186333" lon="-1.19286167">
        <ele>950.0</ele>
        <time>2019-08-01T05:59:27.993Z</time>
      </trkpt>
      <trkpt lat="43.011875" lon="-1.19285667">
        <ele>951.0</ele>
        <time>2019-08-01T05:59:29.000Z</time>
      </trkpt>
      <trkpt lat="43.011885" lon="-1.19285">
        <ele>951.0</ele>
        <time>2019-08-01T05:59:30.005Z</time>
      </trkpt>
      <trkpt lat="43.01189833" lon="-1.19284333">
        <ele>952.0</ele>
        <time>2019-08-01T05:59:31.012Z</time>
      </trkpt>
      <trkpt lat="43.01190833" lon="-1.19283667">
        <ele>953.0</ele>
        <time>2019-08-01T05:59:32.019Z</time>
      </trkpt>
      <trkpt lat="43.01192" lon="-1.19283">
        <ele>954.0</ele>
        <time>2019-08-01T05:59:33.026Z</time>
      </trkpt>
      <trkpt lat="43.01193" lon="-1.192825">
        <ele>955.0</ele>
        <time>2019-08-01T05:59:34.033Z</time>
      </trkpt>
      <trkpt lat="43.01194" lon="-1.19281667">
        <ele>956.0</ele>
        <time>2019-08-01T05:59:35.039Z</time>
      </trkpt>
      <trkpt lat="43.01195" lon="-1.192805">
        <ele>956.0</ele>
        <time>2019-08-01T05:59:35.919Z</time>
      </trkpt>
      <trkpt lat="43.01196" lon="-1.192795">
        <ele>957.0</ele>
        <time>2019-08-01T05:59:36.926Z</time>
      </trkpt>
      <trkpt lat="43.01196667" lon="-1.19278833">
        <ele>958.0</ele>
        <time>2019-08-01T05:59:37.932Z</time>
      </trkpt>
      <trkpt lat="43.011975" lon="-1.19277667">
        <ele>959.0</ele>
        <time>2019-08-01T05:59:38.938Z</time>
      </trkpt>
      <trkpt lat="43.01198333" lon="-1.19276667">
        <ele>959.0</ele>
        <time>2019-08-01T05:59:39.945Z</time>
      </trkpt>
      <trkpt lat="43.011995" lon="-1.19275833">
        <ele>959.0</ele>
        <time>2019-08-01T05:59:40.951Z</time>
      </trkpt>
      <trkpt lat="43.012005" lon="-1.19275167">
        <ele>960.0</ele>
        <time>2019-08-01T05:59:41.956Z</time>
      </trkpt>
      <trkpt lat="43.012015" lon="-1.192745">
        <ele>960.0</ele>
        <time>2019-08-01T05:59:42.962Z</time>
      </trkpt>
      <trkpt lat="43.01202833" lon="-1.19274">
        <ele>959.0</ele>
        <time>2019-08-01T05:59:43.967Z</time>
      </trkpt>
      <trkpt lat="43.01203833" lon="-1.19273333">
        <ele>959.0</ele>
        <time>2019-08-01T05:59:44.974Z</time>
      </trkpt>
      <trkpt lat="43.01204833" lon="-1.19272667">
        <ele>959.0</ele>
        <time>2019-08-01T05:59:45.978Z</time>
      </trkpt>
      <trkpt lat="43.01205833" lon="-1.192725">
        <ele>959.0</ele>
        <time>2019-08-01T05:59:46.984Z</time>
      </trkpt>
      <trkpt lat="43.01207167" lon="-1.19272167">
        <ele>959.0</ele>
        <time>2019-08-01T05:59:47.992Z</time>
      </trkpt>
      <trkpt lat="43.01208333" lon="-1.19272">
        <ele>959.0</ele>
        <time>2019-08-01T05:59:49.000Z</time>
      </trkpt>
      <trkpt lat="43.01209167" lon="-1.19272167">
        <ele>960.0</ele>
        <time>2019-08-01T05:59:50.002Z</time>
      </trkpt>
      <trkpt lat="43.01210667" lon="-1.19271833">
        <ele>960.0</ele>
        <time>2019-08-01T05:59:51.007Z</time>
      </trkpt>
      <trkpt lat="43.01212" lon="-1.192715">
        <ele>960.0</ele>
        <time>2019-08-01T05:59:52.013Z</time>
      </trkpt>
      <trkpt lat="43.01213333" lon="-1.19271167">
        <ele>960.0</ele>
        <time>2019-08-01T05:59:53.019Z</time>
      </trkpt>
      <trkpt lat="43.012145" lon="-1.19271333">
        <ele>960.0</ele>
        <time>2019-08-01T05:59:54.022Z</time>
      </trkpt>
      <trkpt lat="43.01215667" lon="-1.19271333">
        <ele>960.0</ele>
        <time>2019-08-01T05:59:55.027Z</time>
      </trkpt>
      <trkpt lat="43.01216833" lon="-1.19271333">
        <ele>961.0</ele>
        <time>2019-08-01T05:59:56.033Z</time>
      </trkpt>
      <trkpt lat="43.01217833" lon="-1.19271833">
        <ele>962.0</ele>
        <time>2019-08-01T05:59:57.040Z</time>
      </trkpt>
      <trkpt lat="43.01218833" lon="-1.192725">
        <ele>964.0</ele>
        <time>2019-08-01T05:59:57.920Z</time>
      </trkpt>
      <trkpt lat="43.012195" lon="-1.19273">
        <ele>966.0</ele>
        <time>2019-08-01T05:59:58.927Z</time>
      </trkpt>
      <trkpt lat="43.01220667" lon="-1.19273167">
        <ele>967.0</ele>
        <time>2019-08-01T05:59:59.934Z</time>
      </trkpt>
      <trkpt lat="43.01221667" lon="-1.19273667">
        <ele>968.0</ele>
        <time>2019-08-01T06:00:00.940Z</time>
      </trkpt>
      <trkpt lat="43.01223" lon="-1.19273667">
        <ele>969.0</ele>
        <time>2019-08-01T06:00:01.945Z</time>
      </trkpt>
      <trkpt lat="43.01223833" lon="-1.19274">
        <ele>969.0</ele>
        <time>2019-08-01T06:00:02.951Z</time>
      </trkpt>
      <trkpt lat="43.01225" lon="-1.19274167">
        <ele>969.0</ele>
        <time>2019-08-01T06:00:03.953Z</time>
      </trkpt>
      <trkpt lat="43.01226167" lon="-1.192745">
        <ele>970.0</ele>
        <time>2019-08-01T06:00:04.959Z</time>
      </trkpt>
      <trkpt lat="43.01227333" lon="-1.19275167">
        <ele>970.0</ele>
        <time>2019-08-01T06:00:05.966Z</time>
      </trkpt>
      <trkpt lat="43.01228333" lon="-1.19275667">
        <ele>970.0</ele>
        <time>2019-08-01T06:00:06.972Z</time>
      </trkpt>
      <trkpt lat="43.012295" lon="-1.19275667">
        <ele>970.0</ele>
        <time>2019-08-01T06:00:07.978Z</time>
      </trkpt>
      <trkpt lat="43.01230667" lon="-1.19275667">
        <ele>970.0</ele>
        <time>2019-08-01T06:00:08.982Z</time>
      </trkpt>
      <trkpt lat="43.01232" lon="-1.19275833">
        <ele>970.0</ele>
        <time>2019-08-01T06:00:09.985Z</time>
      </trkpt>
      <trkpt lat="43.01233333" lon="-1.19275833">
        <ele>971.0</ele>
        <time>2019-08-01T06:00:10.986Z</time>
      </trkpt>
      <trkpt lat="43.012345" lon="-1.19275833">
        <ele>972.0</ele>
        <time>2019-08-01T06:00:11.992Z</time>
      </trkpt>
      <trkpt lat="43.01235833" lon="-1.19276">
        <ele>973.0</ele>
        <time>2019-08-01T06:00:12.997Z</time>
      </trkpt>
      <trkpt lat="43.01237" lon="-1.19276">
        <ele>974.0</ele>
        <time>2019-08-01T06:00:14.001Z</time>
      </trkpt>
      <trkpt lat="43.01237833" lon="-1.19276">
        <ele>974.0</ele>
        <time>2019-08-01T06:00:15.004Z</time>
      </trkpt>
      <trkpt lat="43.01239" lon="-1.19276">
        <ele>976.0</ele>
        <time>2019-08-01T06:00:16.009Z</time>
      </trkpt>
      <trkpt lat="43.01239833" lon="-1.19276167">
        <ele>977.0</ele>
        <time>2019-08-01T06:00:17.017Z</time>
      </trkpt>
      <trkpt lat="43.01240833" lon="-1.19276">
        <ele>979.0</ele>
        <time>2019-08-01T06:00:18.023Z</time>
      </trkpt>
      <trkpt lat="43.01241833" lon="-1.19275333">
        <ele>979.0</ele>
        <time>2019-08-01T06:00:19.031Z</time>
      </trkpt>
      <trkpt lat="43.01242833" lon="-1.19274833">
        <ele>979.0</ele>
        <time>2019-08-01T06:00:20.039Z</time>
      </trkpt>
      <trkpt lat="43.01244" lon="-1.19274833">
        <ele>979.0</ele>
        <time>2019-08-01T06:00:20.919Z</time>
      </trkpt>
      <trkpt lat="43.01245" lon="-1.19274667">
        <ele>980.0</ele>
        <time>2019-08-01T06:00:21.923Z</time>
      </trkpt>
      <trkpt lat="43.01246" lon="-1.19274667">
        <ele>981.0</ele>
        <time>2019-08-01T06:00:22.929Z</time>
      </trkpt>
      <trkpt lat="43.01247167" lon="-1.192745">
        <ele>982.0</ele>
        <time>2019-08-01T06:00:23.935Z</time>
      </trkpt>
      <trkpt lat="43.01248333" lon="-1.19274333">
        <ele>983.0</ele>
        <time>2019-08-01T06:00:24.941Z</time>
      </trkpt>
      <trkpt lat="43.01249667" lon="-1.19274">
        <ele>983.0</ele>
        <time>2019-08-01T06:00:25.946Z</time>
      </trkpt>
      <trkpt lat="43.01251" lon="-1.19274">
        <ele>984.0</ele>
        <time>2019-08-01T06:00:26.953Z</time>
      </trkpt>
      <trkpt lat="43.01252167" lon="-1.19274167">
        <ele>985.0</ele>
        <time>2019-08-01T06:00:27.960Z</time>
      </trkpt>
      <trkpt lat="43.01253" lon="-1.19274167">
        <ele>986.0</ele>
        <time>2019-08-01T06:00:28.963Z</time>
      </trkpt>
      <trkpt lat="43.01253667" lon="-1.19274">
        <ele>988.0</ele>
        <time>2019-08-01T06:00:29.970Z</time>
      </trkpt>
      <trkpt lat="43.01254833" lon="-1.19273667">
        <ele>989.0</ele>
        <time>2019-08-01T06:00:30.975Z</time>
      </trkpt>
      <trkpt lat="43.01255333" lon="-1.19273167">
        <ele>989.0</ele>
        <time>2019-08-01T06:00:31.979Z</time>
      </trkpt>
      <trkpt lat="43.01256333" lon="-1.19272833">
        <ele>990.0</ele>
        <time>2019-08-01T06:00:32.982Z</time>
      </trkpt>
      <trkpt lat="43.01257167" lon="-1.19272833">
        <ele>990.0</ele>
        <time>2019-08-01T06:00:33.987Z</time>
      </trkpt>
      <trkpt lat="43.01258" lon="-1.192725">
        <ele>990.0</ele>
        <time>2019-08-01T06:00:34.991Z</time>
      </trkpt>
      <trkpt lat="43.01259167" lon="-1.19272">
        <ele>991.0</ele>
        <time>2019-08-01T06:00:35.998Z</time>
      </trkpt>
      <trkpt lat="43.012605" lon="-1.19271833">
        <ele>991.0</ele>
        <time>2019-08-01T06:00:37.004Z</time>
      </trkpt>
      <trkpt lat="43.012615" lon="-1.19272">
        <ele>993.0</ele>
        <time>2019-08-01T06:00:38.011Z</time>
      </trkpt>
      <trkpt lat="43.01262833" lon="-1.19271833">
        <ele>994.0</ele>
        <time>2019-08-01T06:00:39.015Z</time>
      </trkpt>
      <trkpt lat="43.01264" lon="-1.192715">
        <ele>994.0</ele>
        <time>2019-08-01T06:00:40.023Z</time>
      </trkpt>
      <trkpt lat="43.01265" lon="-1.19271167">
        <ele>994.0</ele>
        <time>2019-08-01T06:00:41.029Z</time>
      </trkpt>
      <trkpt lat="43.01265667" lon="-1.19271167">
        <ele>994.0</ele>
        <time>2019-08-01T06:00:42.034Z</time>
      </trkpt>
      <trkpt lat="43.01266167" lon="-1.19271333">
        <ele>995.0</ele>
        <time>2019-08-01T06:00:43.041Z</time>
      </trkpt>
      <trkpt lat="43.01266667" lon="-1.192715">
        <ele>995.0</ele>
        <time>2019-08-01T06:00:43.919Z</time>
      </trkpt>
      <trkpt lat="43.01267333" lon="-1.192715">
        <ele>996.0</ele>
        <time>2019-08-01T06:00:44.924Z</time>
      </trkpt>
      <trkpt lat="43.01267667" lon="-1.19271833">
        <ele>996.0</ele>
        <time>2019-08-01T06:00:45.930Z</time>
      </trkpt>
      <trkpt lat="43.01267833" lon="-1.19272333">
        <ele>996.0</ele>
        <time>2019-08-01T06:00:46.936Z</time>
      </trkpt>
      <trkpt lat="43.01267833" lon="-1.19272667">
        <ele>996.0</ele>
        <time>2019-08-01T06:00:47.943Z</time>
      </trkpt>
      <trkpt lat="43.01267833" lon="-1.19272667">
        <ele>996.0</ele>
        <time>2019-08-01T06:00:48.948Z</time>
      </trkpt>
      <trkpt lat="43.01268" lon="-1.19272167">
        <ele>996.0</ele>
        <time>2019-08-01T06:00:49.953Z</time>
      </trkpt>
      <trkpt lat="43.012685" lon="-1.19271667">
        <ele>996.0</ele>
        <time>2019-08-01T06:00:50.958Z</time>
      </trkpt>
      <trkpt lat="43.01268833" lon="-1.19271333">
        <ele>997.0</ele>
        <time>2019-08-01T06:00:51.962Z</time>
      </trkpt>
      <trkpt lat="43.01269167" lon="-1.19270833">
        <ele>997.0</ele>
        <time>2019-08-01T06:00:52.970Z</time>
      </trkpt>
      <trkpt lat="43.012695" lon="-1.192705">
        <ele>997.0</ele>
        <time>2019-08-01T06:00:53.973Z</time>
      </trkpt>
      <trkpt lat="43.0127" lon="-1.192705">
        <ele>997.0</ele>
        <time>2019-08-01T06:00:54.979Z</time>
      </trkpt>
      <trkpt lat="43.01270833" lon="-1.19270833">
        <ele>997.0</ele>
        <time>2019-08-01T06:00:55.986Z</time>
      </trkpt>
      <trkpt lat="43.01272" lon="-1.19270667">
        <ele>997.0</ele>
        <time>2019-08-01T06:00:56.991Z</time>
      </trkpt>
      <trkpt lat="43.01272833" lon="-1.192705">
        <ele>996.0</ele>
        <time>2019-08-01T06:00:57.996Z</time>
      </trkpt>
      <trkpt lat="43.01273667" lon="-1.19270333">
        <ele>996.0</ele>
        <time>2019-08-01T06:00:59.000Z</time>
      </trkpt>
      <trkpt lat="43.012745" lon="-1.19270167">
        <ele>996.0</ele>
        <time>2019-08-01T06:01:00.006Z</time>
      </trkpt>
      <trkpt lat="43.012755" lon="-1.19270333">
        <ele>996.0</ele>
        <time>2019-08-01T06:01:01.013Z</time>
      </trkpt>
      <trkpt lat="43.01276" lon="-1.19269667">
        <ele>995.0</ele>
        <time>2019-08-01T06:01:02.019Z</time>
      </trkpt>
      <trkpt lat="43.012765" lon="-1.19269167">
        <ele>994.0</ele>
        <time>2019-08-01T06:01:03.023Z</time>
      </trkpt>
      <trkpt lat="43.01276833" lon="-1.19268833">
        <ele>994.0</ele>
        <time>2019-08-01T06:01:04.027Z</time>
      </trkpt>
      <trkpt lat="43.01277333" lon="-1.19268833">
        <ele>994.0</ele>
        <time>2019-08-01T06:01:05.034Z</time>
      </trkpt>
      <trkpt lat="43.01277667" lon="-1.192685">
        <ele>994.0</ele>
        <time>2019-08-01T06:01:06.039Z</time>
      </trkpt>
      <trkpt lat="43.01278167" lon="-1.19267833">
        <ele>993.0</ele>
        <time>2019-08-01T06:01:06.918Z</time>
      </trkpt>
      <trkpt lat="43.01278833" lon="-1.19267">
        <ele>992.0</ele>
        <time>2019-08-01T06:01:07.924Z</time>
      </trkpt>
      <trkpt lat="43.01279333" lon="-1.19266333">
        <ele>992.0</ele>
        <time>2019-08-01T06:01:08.930Z</time>
      </trkpt>
      <trkpt lat="43.0128" lon="-1.19265833">
        <ele>991.0</ele>
        <time>2019-08-01T06:01:09.935Z</time>
      </trkpt>
      <trkpt lat="43.01280667" lon="-1.19265833">
        <ele>989.0</ele>
        <time>2019-08-01T06:01:10.942Z</time>
      </trkpt>
      <trkpt lat="43.01281667" lon="-1.19265833">
        <ele>988.0</ele>
        <time>2019-08-01T06:01:11.947Z</time>
      </trkpt>
      <trkpt lat="43.012825" lon="-1.19265667">
        <ele>988.0</ele>
        <time>2019-08-01T06:01:12.953Z</time>
      </trkpt>
      <trkpt lat="43.012835" lon="-1.19265">
        <ele>987.0</ele>
        <time>2019-08-01T06:01:13.957Z</time>
      </trkpt>
      <trkpt lat="43.012845" lon="-1.19264833">
        <ele>987.0</ele>
        <time>2019-08-01T06:01:14.961Z</time>
      </trkpt>
      <trkpt lat="43.012855" lon="-1.19264167">
        <ele>986.0</ele>
        <time>2019-08-01T06:01:15.966Z</time>
      </trkpt>
      <trkpt lat="43.01286167" lon="-1.19263333">
        <ele>986.0</ele>
        <time>2019-08-01T06:01:16.971Z</time>
      </trkpt>
      <trkpt lat="43.01287167" lon="-1.19262667">
        <ele>986.0</ele>
        <time>2019-08-01T06:01:17.976Z</time>
      </trkpt>
      <trkpt lat="43.012875" lon="-1.19262333">
        <ele>986.0</ele>
        <time>2019-08-01T06:01:18.982Z</time>
      </trkpt>
      <trkpt lat="43.01288167" lon="-1.19262167">
        <ele>985.0</ele>
        <time>2019-08-01T06:01:19.988Z</time>
      </trkpt>
      <trkpt lat="43.01288667" lon="-1.19261">
        <ele>985.0</ele>
        <time>2019-08-01T06:01:20.992Z</time>
      </trkpt>
      <trkpt lat="43.01289333" lon="-1.19259333">
        <ele>986.0</ele>
        <time>2019-08-01T06:01:21.997Z</time>
      </trkpt>
      <trkpt lat="43.012905" lon="-1.19258833">
        <ele>986.0</ele>
        <time>2019-08-01T06:01:23.004Z</time>
      </trkpt>
      <trkpt lat="43.012915" lon="-1.19257667">
        <ele>986.0</ele>
        <time>2019-08-01T06:01:24.010Z</time>
      </trkpt>
      <trkpt lat="43.01292333" lon="-1.19257333">
        <ele>987.0</ele>
        <time>2019-08-01T06:01:25.018Z</time>
      </trkpt>
      <trkpt lat="43.01293" lon="-1.19256167">
        <ele>988.0</ele>
        <time>2019-08-01T06:01:26.025Z</time>
      </trkpt>
      <trkpt lat="43.01293833" lon="-1.19255833">
        <ele>989.0</ele>
        <time>2019-08-01T06:01:27.032Z</time>
      </trkpt>
      <trkpt lat="43.01294" lon="-1.19256167">
        <ele>989.0</ele>
        <time>2019-08-01T06:01:28.037Z</time>
      </trkpt>
      <trkpt lat="43.01294" lon="-1.19256167">
        <ele>990.0</ele>
        <time>2019-08-01T06:01:29.042Z</time>
      </trkpt>
      <trkpt lat="43.01294333" lon="-1.19256667">
        <ele>991.0</ele>
        <time>2019-08-01T06:01:29.921Z</time>
      </trkpt>
      <trkpt lat="43.01295" lon="-1.19256667">
        <ele>992.0</ele>
        <time>2019-08-01T06:01:30.927Z</time>
      </trkpt>
      <trkpt lat="43.01294833" lon="-1.19256333">
        <ele>992.0</ele>
        <time>2019-08-01T06:01:31.934Z</time>
      </trkpt>
      <trkpt lat="43.01295167" lon="-1.19256167">
        <ele>993.0</ele>
        <time>2019-08-01T06:01:32.937Z</time>
      </trkpt>
      <trkpt lat="43.01295333" lon="-1.19256">
        <ele>993.0</ele>
        <time>2019-08-01T06:01:33.940Z</time>
      </trkpt>
      <trkpt lat="43.01295833" lon="-1.19255833">
        <ele>993.0</ele>
        <time>2019-08-01T06:01:34.944Z</time>
      </trkpt>
      <trkpt lat="43.01296" lon="-1.19255833">
        <ele>993.0</ele>
        <time>2019-08-01T06:01:35.950Z</time>
      </trkpt>
      <trkpt lat="43.01296" lon="-1.19255833">
        <ele>993.0</ele>
        <time>2019-08-01T06:01:36.955Z</time>
      </trkpt>
      <trkpt lat="43.01295833" lon="-1.19255833">
        <ele>994.0</ele>
        <time>2019-08-01T06:01:37.959Z</time>
      </trkpt>
      <trkpt lat="43.01295833" lon="-1.19256167">
        <ele>994.0</ele>
        <time>2019-08-01T06:01:38.962Z</time>
      </trkpt>
      <trkpt lat="43.01295667" lon="-1.19256667">
        <ele>994.0</ele>
        <time>2019-08-01T06:01:39.969Z</time>
      </trkpt>
      <trkpt lat="43.01296" lon="-1.19256833">
        <ele>994.0</ele>
        <time>2019-08-01T06:01:40.974Z</time>
      </trkpt>
      <trkpt lat="43.01295833" lon="-1.19256333">
        <ele>993.0</ele>
        <time>2019-08-01T06:01:41.981Z</time>
      </trkpt>
      <trkpt lat="43.01295833" lon="-1.19256">
        <ele>992.0</ele>
        <time>2019-08-01T06:01:42.989Z</time>
      </trkpt>
      <trkpt lat="43.01295833" lon="-1.19256">
        <ele>993.0</ele>
        <time>2019-08-01T06:01:43.996Z</time>
      </trkpt>
      <trkpt lat="43.012955" lon="-1.19256167">
        <ele>992.0</ele>
        <time>2019-08-01T06:01:45.002Z</time>
      </trkpt>
      <trkpt lat="43.012955" lon="-1.19256">
        <ele>993.0</ele>
        <time>2019-08-01T06:01:46.010Z</time>
      </trkpt>
      <trkpt lat="43.01295" lon="-1.192555">
        <ele>993.0</ele>
        <time>2019-08-01T06:01:47.016Z</time>
      </trkpt>
      <trkpt lat="43.01294167" lon="-1.19254833">
        <ele>993.0</ele>
        <time>2019-08-01T06:01:48.018Z</time>
      </trkpt>
      <trkpt lat="43.012935" lon="-1.19254">
        <ele>992.0</ele>
        <time>2019-08-01T06:01:49.025Z</time>
      </trkpt>
      <trkpt lat="43.01292667" lon="-1.19252833">
        <ele>993.0</ele>
        <time>2019-08-01T06:01:50.028Z</time>
      </trkpt>
      <trkpt lat="43.012925" lon="-1.19252">
        <ele>991.0</ele>
        <time>2019-08-01T06:01:51.032Z</time>
      </trkpt>
      <trkpt lat="43.012925" lon="-1.19251">
        <ele>990.0</ele>
        <time>2019-08-01T06:01:52.038Z</time>
      </trkpt>
      <trkpt lat="43.01292667" lon="-1.19250333">
        <ele>990.0</ele>
        <time>2019-08-01T06:01:52.918Z</time>
      </trkpt>
      <trkpt lat="43.01293333" lon="-1.19249333">
        <ele>990.0</ele>
        <time>2019-08-01T06:01:53.924Z</time>
      </trkpt>
      <trkpt lat="43.01293833" lon="-1.19249">
        <ele>989.0</ele>
        <time>2019-08-01T06:01:54.928Z</time>
      </trkpt>
      <trkpt lat="43.01293167" lon="-1.19248167">
        <ele>988.0</ele>
        <time>2019-08-01T06:01:55.932Z</time>
      </trkpt>
      <trkpt lat="43.01292333" lon="-1.19247667">
        <ele>987.0</ele>
        <time>2019-08-01T06:01:56.943Z</time>
      </trkpt>
      <trkpt lat="43.012915" lon="-1.19247167">
        <ele>986.0</ele>
        <time>2019-08-01T06:01:57.951Z</time>
      </trkpt>
      <trkpt lat="43.01290833" lon="-1.19246833">
        <ele>986.0</ele>
        <time>2019-08-01T06:01:58.957Z</time>
      </trkpt>
      <trkpt lat="43.012905" lon="-1.19247333">
        <ele>985.0</ele>
        <time>2019-08-01T06:01:59.961Z</time>
      </trkpt>
      <trkpt lat="43.01290667" lon="-1.19247333">
        <ele>986.0</ele>
        <time>2019-08-01T06:02:00.967Z</time>
      </trkpt>
      <trkpt lat="43.01291" lon="-1.19247333">
        <ele>986.0</ele>
        <time>2019-08-01T06:02:01.974Z</time>
      </trkpt>
      <trkpt lat="43.01291167" lon="-1.19247667">
        <ele>986.0</ele>
        <time>2019-08-01T06:02:02.982Z</time>
      </trkpt>
      <trkpt lat="43.01290667" lon="-1.19247333">
        <ele>986.0</ele>
        <time>2019-08-01T06:02:03.989Z</time>
      </trkpt>
      <trkpt lat="43.01290167" lon="-1.19247">
        <ele>985.0</ele>
        <time>2019-08-01T06:02:04.997Z</time>
      </trkpt>
      <trkpt lat="43.0129" lon="-1.19246667">
        <ele>985.0</ele>
        <time>2019-08-01T06:02:06.002Z</time>
      </trkpt>
      <trkpt lat="43.01289833" lon="-1.19246333">
        <ele>984.0</ele>
        <time>2019-08-01T06:02:07.007Z</time>
      </trkpt>
      <trkpt lat="43.0129" lon="-1.19245667">
        <ele>984.0</ele>
        <time>2019-08-01T06:02:08.014Z</time>
      </trkpt>
      <trkpt lat="43.01289667" lon="-1.19245">
        <ele>983.0</ele>
        <time>2019-08-01T06:02:09.021Z</time>
      </trkpt>
      <trkpt lat="43.01289667" lon="-1.19244333">
        <ele>983.0</ele>
        <time>2019-08-01T06:02:10.027Z</time>
      </trkpt>
      <trkpt lat="43.01289833" lon="-1.19243333">
        <ele>982.0</ele>
        <time>2019-08-01T06:02:11.033Z</time>
      </trkpt>
      <trkpt lat="43.01290167" lon="-1.19242167">
        <ele>981.0</ele>
        <time>2019-08-01T06:02:12.042Z</time>
      </trkpt>
      <trkpt lat="43.01290167" lon="-1.19241667">
        <ele>981.0</ele>
        <time>2019-08-01T06:02:12.920Z</time>
      </trkpt>
      <trkpt lat="43.01290333" lon="-1.19241667">
        <ele>981.0</ele>
        <time>2019-08-01T06:02:13.928Z</time>
      </trkpt>
      <trkpt lat="43.01290667" lon="-1.19241">
        <ele>981.0</ele>
        <time>2019-08-01T06:02:14.933Z</time>
      </trkpt>
      <trkpt lat="43.01291" lon="-1.19240333">
        <ele>981.0</ele>
        <time>2019-08-01T06:02:15.939Z</time>
      </trkpt>
      <trkpt lat="43.012915" lon="-1.19240167">
        <ele>981.0</ele>
        <time>2019-08-01T06:02:16.944Z</time>
      </trkpt>
      <trkpt lat="43.01292" lon="-1.19239667">
        <ele>982.0</ele>
        <time>2019-08-01T06:02:17.948Z</time>
      </trkpt>
      <trkpt lat="43.01292167" lon="-1.192395">
        <ele>983.0</ele>
        <time>2019-08-01T06:02:18.952Z</time>
      </trkpt>
      <trkpt lat="43.01292" lon="-1.192395">
        <ele>983.0</ele>
        <time>2019-08-01T06:02:19.957Z</time>
      </trkpt>
      <trkpt lat="43.01291833" lon="-1.19239167">
        <ele>983.0</ele>
        <time>2019-08-01T06:02:20.961Z</time>
      </trkpt>
      <trkpt lat="43.01292" lon="-1.19239333">
        <ele>982.0</ele>
        <time>2019-08-01T06:02:21.966Z</time>
      </trkpt>
      <trkpt lat="43.01291833" lon="-1.19239">
        <ele>982.0</ele>
        <time>2019-08-01T06:02:22.970Z</time>
      </trkpt>
      <trkpt lat="43.01291833" lon="-1.19238833">
        <ele>982.0</ele>
        <time>2019-08-01T06:02:23.977Z</time>
      </trkpt>
      <trkpt lat="43.01292167" lon="-1.192385">
        <ele>982.0</ele>
        <time>2019-08-01T06:02:24.983Z</time>
      </trkpt>
      <trkpt lat="43.01292667" lon="-1.19237833">
        <ele>982.0</ele>
        <time>2019-08-01T06:02:25.988Z</time>
      </trkpt>
      <trkpt lat="43.01292667" lon="-1.19237333">
        <ele>982.0</ele>
        <time>2019-08-01T06:02:26.993Z</time>
      </trkpt>
      <trkpt lat="43.012925" lon="-1.19236667">
        <ele>983.0</ele>
        <time>2019-08-01T06:02:28.000Z</time>
      </trkpt>
      <trkpt lat="43.012925" lon="-1.19236333">
        <ele>983.0</ele>
        <time>2019-08-01T06:02:29.006Z</time>
      </trkpt>
      <trkpt lat="43.01292667" lon="-1.192365">
        <ele>984.0</ele>
        <time>2019-08-01T06:02:30.011Z</time>
      </trkpt>
      <trkpt lat="43.01292667" lon="-1.19236333">
        <ele>984.0</ele>
        <time>2019-08-01T06:02:31.016Z</time>
      </trkpt>
      <trkpt lat="43.01292333" lon="-1.19235667">
        <ele>984.0</ele>
        <time>2019-08-01T06:02:32.021Z</time>
      </trkpt>
      <trkpt lat="43.01291833" lon="-1.19235">
        <ele>984.0</ele>
        <time>2019-08-01T06:02:33.029Z</time>
      </trkpt>
      <trkpt lat="43.01291333" lon="-1.192355">
        <ele>984.0</ele>
        <time>2019-08-01T06:02:34.036Z</time>
      </trkpt>
      <trkpt lat="43.01291" lon="-1.19236">
        <ele>984.0</ele>
        <time>2019-08-01T06:02:35.044Z</time>
      </trkpt>
      <trkpt lat="43.01290833" lon="-1.192365">
        <ele>984.0</ele>
        <time>2019-08-01T06:02:35.923Z</time>
      </trkpt>
      <trkpt lat="43.01290667" lon="-1.19236833">
        <ele>984.0</ele>
        <time>2019-08-01T06:02:36.930Z</time>
      </trkpt>
      <trkpt lat="43.01290167" lon="-1.19237333">
        <ele>983.0</ele>
        <time>2019-08-01T06:02:37.936Z</time>
      </trkpt>
      <trkpt lat="43.01290167" lon="-1.19236833">
        <ele>982.0</ele>
        <time>2019-08-01T06:02:38.939Z</time>
      </trkpt>
      <trkpt lat="43.0129" lon="-1.19236333">
        <ele>982.0</ele>
        <time>2019-08-01T06:02:39.943Z</time>
      </trkpt>
      <trkpt lat="43.01289833" lon="-1.192365">
        <ele>982.0</ele>
        <time>2019-08-01T06:02:40.949Z</time>
      </trkpt>
      <trkpt lat="43.01289333" lon="-1.19236667">
        <ele>982.0</ele>
        <time>2019-08-01T06:02:41.955Z</time>
      </trkpt>
      <trkpt lat="43.01289" lon="-1.19238">
        <ele>982.0</ele>
        <time>2019-08-01T06:02:42.961Z</time>
      </trkpt>
      <trkpt lat="43.01288833" lon="-1.19238">
        <ele>982.0</ele>
        <time>2019-08-01T06:02:43.966Z</time>
      </trkpt>
      <trkpt lat="43.01288833" lon="-1.19238167">
        <ele>982.0</ele>
        <time>2019-08-01T06:02:44.971Z</time>
      </trkpt>
      <trkpt lat="43.01289167" lon="-1.192385">
        <ele>982.0</ele>
        <time>2019-08-01T06:02:45.976Z</time>
      </trkpt>
      <trkpt lat="43.01289167" lon="-1.19238833">
        <ele>982.0</ele>
        <time>2019-08-01T06:02:46.983Z</time>
      </trkpt>
      <trkpt lat="43.012895" lon="-1.19239167">
        <ele>982.0</ele>
        <time>2019-08-01T06:02:47.989Z</time>
      </trkpt>
      <trkpt lat="43.012895" lon="-1.192395">
        <ele>982.0</ele>
        <time>2019-08-01T06:02:48.995Z</time>
      </trkpt>
      <trkpt lat="43.01289333" lon="-1.192395">
        <ele>982.0</ele>
        <time>2019-08-01T06:02:50.000Z</time>
      </trkpt>
      <trkpt lat="43.0129" lon="-1.192395">
        <ele>982.0</ele>
        <time>2019-08-01T06:02:51.005Z</time>
      </trkpt>
      <trkpt lat="43.01291" lon="-1.19239833">
        <ele>982.0</ele>
        <time>2019-08-01T06:02:52.010Z</time>
      </trkpt>
      <trkpt lat="43.01291667" lon="-1.19240667">
        <ele>982.0</ele>
        <time>2019-08-01T06:02:53.013Z</time>
      </trkpt>
      <trkpt lat="43.01292167" lon="-1.19241333">
        <ele>983.0</ele>
        <time>2019-08-01T06:02:54.020Z</time>
      </trkpt>
      <trkpt lat="43.01292833" lon="-1.192415">
        <ele>983.0</ele>
        <time>2019-08-01T06:02:55.027Z</time>
      </trkpt>
      <trkpt lat="43.01293" lon="-1.19242">
        <ele>983.0</ele>
        <time>2019-08-01T06:02:56.032Z</time>
      </trkpt>
      <trkpt lat="43.01292833" lon="-1.192435">
        <ele>984.0</ele>
        <time>2019-08-01T06:02:57.037Z</time>
      </trkpt>
      <trkpt lat="43.012925" lon="-1.19245">
        <ele>985.0</ele>
        <time>2019-08-01T06:02:57.918Z</time>
      </trkpt>
      <trkpt lat="43.012925" lon="-1.19245833">
        <ele>986.0</ele>
        <time>2019-08-01T06:02:58.923Z</time>
      </trkpt>
      <trkpt lat="43.012925" lon="-1.19246167">
        <ele>987.0</ele>
        <time>2019-08-01T06:02:59.930Z</time>
      </trkpt>
      <trkpt lat="43.01293333" lon="-1.19246">
        <ele>987.0</ele>
        <time>2019-08-01T06:03:00.936Z</time>
      </trkpt>
      <trkpt lat="43.012945" lon="-1.19245667">
        <ele>987.0</ele>
        <time>2019-08-01T06:03:01.941Z</time>
      </trkpt>
      <trkpt lat="43.01295333" lon="-1.19245">
        <ele>987.0</ele>
        <time>2019-08-01T06:03:02.946Z</time>
      </trkpt>
      <trkpt lat="43.01296167" lon="-1.19244">
        <ele>988.0</ele>
        <time>2019-08-01T06:03:03.953Z</time>
      </trkpt>
      <trkpt lat="43.012965" lon="-1.19242833">
        <ele>989.0</ele>
        <time>2019-08-01T06:03:04.960Z</time>
      </trkpt>
      <trkpt lat="43.01296667" lon="-1.19242667">
        <ele>989.0</ele>
        <time>2019-08-01T06:03:05.966Z</time>
      </trkpt>
      <trkpt lat="43.01296667" lon="-1.19243667">
        <ele>989.0</ele>
        <time>2019-08-01T06:03:06.970Z</time>
      </trkpt>
      <trkpt lat="43.01296667" lon="-1.19244667">
        <ele>988.0</ele>
        <time>2019-08-01T06:03:07.975Z</time>
      </trkpt>
      <trkpt lat="43.01296333" lon="-1.19244833">
        <ele>988.0</ele>
        <time>2019-08-01T06:03:08.980Z</time>
      </trkpt>
      <trkpt lat="43.01296167" lon="-1.192445">
        <ele>988.0</ele>
        <time>2019-08-01T06:03:09.987Z</time>
      </trkpt>
      <trkpt lat="43.01297" lon="-1.19243833">
        <ele>989.0</ele>
        <time>2019-08-01T06:03:10.994Z</time>
      </trkpt>
      <trkpt lat="43.01298333" lon="-1.19243667">
        <ele>989.0</ele>
        <time>2019-08-01T06:03:12.000Z</time>
      </trkpt>
      <trkpt lat="43.01298833" lon="-1.19243833">
        <ele>989.0</ele>
        <time>2019-08-01T06:03:13.003Z</time>
      </trkpt>
      <trkpt lat="43.01299" lon="-1.19243667">
        <ele>989.0</ele>
        <time>2019-08-01T06:03:14.005Z</time>
      </trkpt>
      <trkpt lat="43.01299333" lon="-1.19243667">
        <ele>989.0</ele>
        <time>2019-08-01T06:03:15.013Z</time>
      </trkpt>
      <trkpt lat="43.01299667" lon="-1.192435">
        <ele>988.0</ele>
        <time>2019-08-01T06:03:16.019Z</time>
      </trkpt>
      <trkpt lat="43.013" lon="-1.19243">
        <ele>988.0</ele>
        <time>2019-08-01T06:03:17.025Z</time>
      </trkpt>
      <trkpt lat="43.013005" lon="-1.19242667">
        <ele>987.0</ele>
        <time>2019-08-01T06:03:18.029Z</time>
      </trkpt>
      <trkpt lat="43.01300833" lon="-1.19242167">
        <ele>987.0</ele>
        <time>2019-08-01T06:03:19.036Z</time>
      </trkpt>
      <trkpt lat="43.01300833" lon="-1.19242167">
        <ele>987.0</ele>
        <time>2019-08-01T06:03:20.042Z</time>
      </trkpt>
      <trkpt lat="43.01301167" lon="-1.19242167">
        <ele>987.0</ele>
        <time>2019-08-01T06:03:20.922Z</time>
      </trkpt>
      <trkpt lat="43.01301667" lon="-1.19242333">
        <ele>988.0</ele>
        <time>2019-08-01T06:03:21.929Z</time>
      </trkpt>
      <trkpt lat="43.01302333" lon="-1.19242333">
        <ele>988.0</ele>
        <time>2019-08-01T06:03:22.936Z</time>
      </trkpt>
      <trkpt lat="43.01302667" lon="-1.19241667">
        <ele>987.0</ele>
        <time>2019-08-01T06:03:23.942Z</time>
      </trkpt>
      <trkpt lat="43.01302667" lon="-1.19241833">
        <ele>987.0</ele>
        <time>2019-08-01T06:03:24.950Z</time>
      </trkpt>
      <trkpt lat="43.01303167" lon="-1.19242333">
        <ele>986.0</ele>
        <time>2019-08-01T06:03:25.956Z</time>
      </trkpt>
      <trkpt lat="43.01303833" lon="-1.19243">
        <ele>985.0</ele>
        <time>2019-08-01T06:03:26.960Z</time>
      </trkpt>
      <trkpt lat="43.013045" lon="-1.19243667">
        <ele>985.0</ele>
        <time>2019-08-01T06:03:27.964Z</time>
      </trkpt>
      <trkpt lat="43.01305667" lon="-1.19244333">
        <ele>984.0</ele>
        <time>2019-08-01T06:03:28.970Z</time>
      </trkpt>
      <trkpt lat="43.01306833" lon="-1.19244667">
        <ele>983.0</ele>
        <time>2019-08-01T06:03:29.976Z</time>
      </trkpt>
      <trkpt lat="43.01307667" lon="-1.19245333">
        <ele>982.0</ele>
        <time>2019-08-01T06:03:30.982Z</time>
      </trkpt>
      <trkpt lat="43.01308333" lon="-1.19246167">
        <ele>982.0</ele>
        <time>2019-08-01T06:03:31.988Z</time>
      </trkpt>
      <trkpt lat="43.01309167" lon="-1.19247167">
        <ele>982.0</ele>
        <time>2019-08-01T06:03:32.995Z</time>
      </trkpt>
      <trkpt lat="43.013105" lon="-1.19247833">
        <ele>982.0</ele>
        <time>2019-08-01T06:03:34.001Z</time>
      </trkpt>
      <trkpt lat="43.01311667" lon="-1.19248333">
        <ele>981.0</ele>
        <time>2019-08-01T06:03:35.008Z</time>
      </trkpt>
      <trkpt lat="43.01312667" lon="-1.19248667">
        <ele>980.0</ele>
        <time>2019-08-01T06:03:36.014Z</time>
      </trkpt>
      <trkpt lat="43.01313333" lon="-1.19248667">
        <ele>980.0</ele>
        <time>2019-08-01T06:03:37.020Z</time>
      </trkpt>
      <trkpt lat="43.01314167" lon="-1.19249167">
        <ele>980.0</ele>
        <time>2019-08-01T06:03:38.024Z</time>
      </trkpt>
      <trkpt lat="43.013155" lon="-1.19249333">
        <ele>979.0</ele>
        <time>2019-08-01T06:03:39.028Z</time>
      </trkpt>
      <trkpt lat="43.01316" lon="-1.19249667">
        <ele>977.0</ele>
        <time>2019-08-01T06:03:40.034Z</time>
      </trkpt>
      <trkpt lat="43.01317" lon="-1.19250333">
        <ele>976.0</ele>
        <time>2019-08-01T06:03:41.041Z</time>
      </trkpt>
      <trkpt lat="43.01317667" lon="-1.19251167">
        <ele>976.0</ele>
        <time>2019-08-01T06:03:41.921Z</time>
      </trkpt>
      <trkpt lat="43.01318167" lon="-1.19251167">
        <ele>975.0</ele>
        <time>2019-08-01T06:03:42.928Z</time>
      </trkpt>
      <trkpt lat="43.01318" lon="-1.192505">
        <ele>974.0</ele>
        <time>2019-08-01T06:03:43.934Z</time>
      </trkpt>
      <trkpt lat="43.01318667" lon="-1.1925">
        <ele>974.0</ele>
        <time>2019-08-01T06:03:44.941Z</time>
      </trkpt>
      <trkpt lat="43.01319667" lon="-1.19249833">
        <ele>973.0</ele>
        <time>2019-08-01T06:03:45.947Z</time>
      </trkpt>
      <trkpt lat="43.01321" lon="-1.19249667">
        <ele>973.0</ele>
        <time>2019-08-01T06:03:46.952Z</time>
      </trkpt>
      <trkpt lat="43.01322167" lon="-1.19249667">
        <ele>973.0</ele>
        <time>2019-08-01T06:03:47.957Z</time>
      </trkpt>
      <trkpt lat="43.01322833" lon="-1.19249833">
        <ele>973.0</ele>
        <time>2019-08-01T06:03:48.962Z</time>
      </trkpt>
      <trkpt lat="43.01323833" lon="-1.19250667">
        <ele>973.0</ele>
        <time>2019-08-01T06:03:49.968Z</time>
      </trkpt>
      <trkpt lat="43.01324667" lon="-1.192515">
        <ele>973.0</ele>
        <time>2019-08-01T06:03:50.974Z</time>
      </trkpt>
      <trkpt lat="43.01325667" lon="-1.19252667">
        <ele>973.0</ele>
        <time>2019-08-01T06:03:51.979Z</time>
      </trkpt>
      <trkpt lat="43.01325667" lon="-1.19253333">
        <ele>973.0</ele>
        <time>2019-08-01T06:03:52.985Z</time>
      </trkpt>
      <trkpt lat="43.01326833" lon="-1.19253167">
        <ele>974.0</ele>
        <time>2019-08-01T06:03:53.990Z</time>
      </trkpt>
      <trkpt lat="43.01328" lon="-1.19253">
        <ele>974.0</ele>
        <time>2019-08-01T06:03:54.995Z</time>
      </trkpt>
      <trkpt lat="43.01328333" lon="-1.19253">
        <ele>975.0</ele>
        <time>2019-08-01T06:03:56.001Z</time>
      </trkpt>
      <trkpt lat="43.01328833" lon="-1.19253">
        <ele>974.0</ele>
        <time>2019-08-01T06:03:57.006Z</time>
      </trkpt>
      <trkpt lat="43.01329167" lon="-1.19252833">
        <ele>974.0</ele>
        <time>2019-08-01T06:03:58.014Z</time>
      </trkpt>
      <trkpt lat="43.01329667" lon="-1.192525">
        <ele>974.0</ele>
        <time>2019-08-01T06:03:59.022Z</time>
      </trkpt>
      <trkpt lat="43.01329833" lon="-1.19252167">
        <ele>973.0</ele>
        <time>2019-08-01T06:04:00.028Z</time>
      </trkpt>
      <trkpt lat="43.01330333" lon="-1.19252">
        <ele>973.0</ele>
        <time>2019-08-01T06:04:01.033Z</time>
      </trkpt>
      <trkpt lat="43.01331167" lon="-1.192525">
        <ele>974.0</ele>
        <time>2019-08-01T06:04:02.040Z</time>
      </trkpt>
      <trkpt lat="43.01331833" lon="-1.19252833">
        <ele>974.0</ele>
        <time>2019-08-01T06:04:02.919Z</time>
      </trkpt>
      <trkpt lat="43.01332667" lon="-1.19252833">
        <ele>973.0</ele>
        <time>2019-08-01T06:04:03.922Z</time>
      </trkpt>
      <trkpt lat="43.013335" lon="-1.19253167">
        <ele>973.0</ele>
        <time>2019-08-01T06:04:04.927Z</time>
      </trkpt>
      <trkpt lat="43.01334167" lon="-1.19253333">
        <ele>973.0</ele>
        <time>2019-08-01T06:04:05.932Z</time>
      </trkpt>
      <trkpt lat="43.01334833" lon="-1.19253167">
        <ele>973.0</ele>
        <time>2019-08-01T06:04:06.938Z</time>
      </trkpt>
      <trkpt lat="43.01335667" lon="-1.192535">
        <ele>972.0</ele>
        <time>2019-08-01T06:04:07.942Z</time>
      </trkpt>
      <trkpt lat="43.01336833" lon="-1.19253167">
        <ele>973.0</ele>
        <time>2019-08-01T06:04:08.949Z</time>
      </trkpt>
      <trkpt lat="43.01337833" lon="-1.19253">
        <ele>974.0</ele>
        <time>2019-08-01T06:04:09.955Z</time>
      </trkpt>
      <trkpt lat="43.01339" lon="-1.19253333">
        <ele>974.0</ele>
        <time>2019-08-01T06:04:10.959Z</time>
      </trkpt>
      <trkpt lat="43.01339833" lon="-1.192535">
        <ele>975.0</ele>
        <time>2019-08-01T06:04:11.963Z</time>
      </trkpt>
      <trkpt lat="43.01341167" lon="-1.19253667">
        <ele>975.0</ele>
        <time>2019-08-01T06:04:12.968Z</time>
      </trkpt>
      <trkpt lat="43.01342167" lon="-1.19254">
        <ele>975.0</ele>
        <time>2019-08-01T06:04:13.971Z</time>
      </trkpt>
      <trkpt lat="43.01343" lon="-1.19254333">
        <ele>975.0</ele>
        <time>2019-08-01T06:04:14.977Z</time>
      </trkpt>
      <trkpt lat="43.01343833" lon="-1.19254667">
        <ele>976.0</ele>
        <time>2019-08-01T06:04:15.982Z</time>
      </trkpt>
      <trkpt lat="43.01344667" lon="-1.19255167">
        <ele>977.0</ele>
        <time>2019-08-01T06:04:16.988Z</time>
      </trkpt>
      <trkpt lat="43.01345833" lon="-1.19255333">
        <ele>977.0</ele>
        <time>2019-08-01T06:04:17.993Z</time>
      </trkpt>
      <trkpt lat="43.01346667" lon="-1.19255167">
        <ele>978.0</ele>
        <time>2019-08-01T06:04:18.997Z</time>
      </trkpt>
      <trkpt lat="43.01347333" lon="-1.19254833">
        <ele>978.0</ele>
        <time>2019-08-01T06:04:20.001Z</time>
      </trkpt>
      <trkpt lat="43.01348" lon="-1.19254833">
        <ele>979.0</ele>
        <time>2019-08-01T06:04:21.007Z</time>
      </trkpt>
      <trkpt lat="43.01348833" lon="-1.19255">
        <ele>979.0</ele>
        <time>2019-08-01T06:04:22.013Z</time>
      </trkpt>
      <trkpt lat="43.01350167" lon="-1.19255333">
        <ele>980.0</ele>
        <time>2019-08-01T06:04:23.020Z</time>
      </trkpt>
      <trkpt lat="43.01351167" lon="-1.192555">
        <ele>980.0</ele>
        <time>2019-08-01T06:04:24.026Z</time>
      </trkpt>
      <trkpt lat="43.01352167" lon="-1.192555">
        <ele>981.0</ele>
        <time>2019-08-01T06:04:25.033Z</time>
      </trkpt>
      <trkpt lat="43.01353" lon="-1.19255833">
        <ele>982.0</ele>
        <time>2019-08-01T06:04:26.038Z</time>
      </trkpt>
      <trkpt lat="43.01354333" lon="-1.19256333">
        <ele>983.0</ele>
        <time>2019-08-01T06:04:26.918Z</time>
      </trkpt>
      <trkpt lat="43.013555" lon="-1.19256667">
        <ele>984.0</ele>
        <time>2019-08-01T06:04:27.925Z</time>
      </trkpt>
      <trkpt lat="43.013565" lon="-1.19257333">
        <ele>984.0</ele>
        <time>2019-08-01T06:04:28.931Z</time>
      </trkpt>
      <trkpt lat="43.01356667" lon="-1.19257833">
        <ele>985.0</ele>
        <time>2019-08-01T06:04:29.936Z</time>
      </trkpt>
      <trkpt lat="43.01356167" lon="-1.19258833">
        <ele>985.0</ele>
        <time>2019-08-01T06:04:30.941Z</time>
      </trkpt>
      <trkpt lat="43.01356167" lon="-1.19259167">
        <ele>986.0</ele>
        <time>2019-08-01T06:04:31.946Z</time>
      </trkpt>
      <trkpt lat="43.01356333" lon="-1.19259">
        <ele>986.0</ele>
        <time>2019-08-01T06:04:32.951Z</time>
      </trkpt>
      <trkpt lat="43.013575" lon="-1.19259333">
        <ele>987.0</ele>
        <time>2019-08-01T06:04:33.958Z</time>
      </trkpt>
      <trkpt lat="43.01358" lon="-1.192595">
        <ele>988.0</ele>
        <time>2019-08-01T06:04:34.963Z</time>
      </trkpt>
      <trkpt lat="43.01358" lon="-1.19259667">
        <ele>988.0</ele>
        <time>2019-08-01T06:04:35.968Z</time>
      </trkpt>
      <trkpt lat="43.01358333" lon="-1.19259333">
        <ele>989.0</ele>
        <time>2019-08-01T06:04:36.974Z</time>
      </trkpt>
      <trkpt lat="43.01358833" lon="-1.19259167">
        <ele>989.0</ele>
        <time>2019-08-01T06:04:37.980Z</time>
      </trkpt>
      <trkpt lat="43.01358667" lon="-1.192595">
        <ele>988.0</ele>
        <time>2019-08-01T06:04:38.987Z</time>
      </trkpt>
      <trkpt lat="43.01358833" lon="-1.19260167">
        <ele>988.0</ele>
        <time>2019-08-01T06:04:39.993Z</time>
      </trkpt>
      <trkpt lat="43.01359" lon="-1.19260833">
        <ele>988.0</ele>
        <time>2019-08-01T06:04:40.997Z</time>
      </trkpt>
      <trkpt lat="43.01359333" lon="-1.19261">
        <ele>988.0</ele>
        <time>2019-08-01T06:04:42.002Z</time>
      </trkpt>
      <trkpt lat="43.013595" lon="-1.192615">
        <ele>987.0</ele>
        <time>2019-08-01T06:04:43.010Z</time>
      </trkpt>
      <trkpt lat="43.01359667" lon="-1.19262333">
        <ele>987.0</ele>
        <time>2019-08-01T06:04:44.014Z</time>
      </trkpt>
      <trkpt lat="43.0136" lon="-1.19262833">
        <ele>987.0</ele>
        <time>2019-08-01T06:04:45.020Z</time>
      </trkpt>
      <trkpt lat="43.01360167" lon="-1.19262667">
        <ele>988.0</ele>
        <time>2019-08-01T06:04:46.028Z</time>
      </trkpt>
      <trkpt lat="43.01359833" lon="-1.19262833">
        <ele>988.0</ele>
        <time>2019-08-01T06:04:47.034Z</time>
      </trkpt>
      <trkpt lat="43.01359833" lon="-1.19263333">
        <ele>989.0</ele>
        <time>2019-08-01T06:04:48.039Z</time>
      </trkpt>
      <trkpt lat="43.013595" lon="-1.19263333">
        <ele>989.0</ele>
        <time>2019-08-01T06:04:48.921Z</time>
      </trkpt>
      <trkpt lat="43.01359667" lon="-1.192635">
        <ele>989.0</ele>
        <time>2019-08-01T06:04:49.925Z</time>
      </trkpt>
      <trkpt lat="43.01359333" lon="-1.19263333">
        <ele>990.0</ele>
        <time>2019-08-01T06:04:50.933Z</time>
      </trkpt>
      <trkpt lat="43.01359167" lon="-1.19262833">
        <ele>990.0</ele>
        <time>2019-08-01T06:04:51.939Z</time>
      </trkpt>
      <trkpt lat="43.01359167" lon="-1.192625">
        <ele>989.0</ele>
        <time>2019-08-01T06:04:52.944Z</time>
      </trkpt>
      <trkpt lat="43.013595" lon="-1.19261833">
        <ele>989.0</ele>
        <time>2019-08-01T06:04:53.951Z</time>
      </trkpt>
      <trkpt lat="43.013595" lon="-1.192615">
        <ele>989.0</ele>
        <time>2019-08-01T06:04:54.955Z</time>
      </trkpt>
      <trkpt lat="43.01359667" lon="-1.192615">
        <ele>989.0</ele>
        <time>2019-08-01T06:04:55.960Z</time>
      </trkpt>
      <trkpt lat="43.01359833" lon="-1.19261">
        <ele>989.0</ele>
        <time>2019-08-01T06:04:56.965Z</time>
      </trkpt>
      <trkpt lat="43.01360333" lon="-1.19260667">
        <ele>989.0</ele>
        <time>2019-08-01T06:04:57.972Z</time>
      </trkpt>
      <trkpt lat="43.01360333" lon="-1.19260167">
        <ele>989.0</ele>
        <time>2019-08-01T06:04:58.978Z</time>
      </trkpt>
      <trkpt lat="43.01359833" lon="-1.19259833">
        <ele>989.0</ele>
        <time>2019-08-01T06:04:59.982Z</time>
      </trkpt>
      <trkpt lat="43.01359333" lon="-1.19259667">
        <ele>989.0</ele>
        <time>2019-08-01T06:05:00.990Z</time>
      </trkpt>
      <trkpt lat="43.01359333" lon="-1.19259667">
        <ele>989.0</ele>
        <time>2019-08-01T06:05:01.994Z</time>
      </trkpt>
      <trkpt lat="43.01360167" lon="-1.19259833">
        <ele>990.0</ele>
        <time>2019-08-01T06:05:02.998Z</time>
      </trkpt>
      <trkpt lat="43.01360167" lon="-1.1926">
        <ele>990.0</ele>
        <time>2019-08-01T06:05:04.004Z</time>
      </trkpt>
      <trkpt lat="43.01360333" lon="-1.19260333">
        <ele>991.0</ele>
        <time>2019-08-01T06:05:05.010Z</time>
      </trkpt>
      <trkpt lat="43.01360167" lon="-1.19260667">
        <ele>991.0</ele>
        <time>2019-08-01T06:05:06.017Z</time>
      </trkpt>
      <trkpt lat="43.0136" lon="-1.19260667">
        <ele>992.0</ele>
        <time>2019-08-01T06:05:07.022Z</time>
      </trkpt>
      <trkpt lat="43.01359667" lon="-1.19261">
        <ele>992.0</ele>
        <time>2019-08-01T06:05:08.030Z</time>
      </trkpt>
      <trkpt lat="43.01359833" lon="-1.19261667">
        <ele>993.0</ele>
        <time>2019-08-01T06:05:09.036Z</time>
      </trkpt>
      <trkpt lat="43.0136" lon="-1.19262333">
        <ele>993.0</ele>
        <time>2019-08-01T06:05:09.918Z</time>
      </trkpt>
      <trkpt lat="43.01360333" lon="-1.19262667">
        <ele>992.0</ele>
        <time>2019-08-01T06:05:10.925Z</time>
      </trkpt>
      <trkpt lat="43.01360667" lon="-1.19263333">
        <ele>992.0</ele>
        <time>2019-08-01T06:05:11.932Z</time>
      </trkpt>
      <trkpt lat="43.01360833" lon="-1.19263">
        <ele>991.0</ele>
        <time>2019-08-01T06:05:12.940Z</time>
      </trkpt>
      <trkpt lat="43.01361167" lon="-1.19262667">
        <ele>991.0</ele>
        <time>2019-08-01T06:05:13.946Z</time>
      </trkpt>
      <trkpt lat="43.01361667" lon="-1.192625">
        <ele>991.0</ele>
        <time>2019-08-01T06:05:14.953Z</time>
      </trkpt>
      <trkpt lat="43.013615" lon="-1.19262167">
        <ele>991.0</ele>
        <time>2019-08-01T06:05:15.958Z</time>
      </trkpt>
      <trkpt lat="43.01361167" lon="-1.19262167">
        <ele>992.0</ele>
        <time>2019-08-01T06:05:16.962Z</time>
      </trkpt>
      <trkpt lat="43.01361667" lon="-1.192625">
        <ele>992.0</ele>
        <time>2019-08-01T06:05:17.969Z</time>
      </trkpt>
      <trkpt lat="43.013625" lon="-1.19263">
        <ele>992.0</ele>
        <time>2019-08-01T06:05:18.975Z</time>
      </trkpt>
      <trkpt lat="43.01363667" lon="-1.192635">
        <ele>993.0</ele>
        <time>2019-08-01T06:05:19.979Z</time>
      </trkpt>
      <trkpt lat="43.01365" lon="-1.19264">
        <ele>993.0</ele>
        <time>2019-08-01T06:05:20.983Z</time>
      </trkpt>
      <trkpt lat="43.01366" lon="-1.192645">
        <ele>993.0</ele>
        <time>2019-08-01T06:05:21.989Z</time>
      </trkpt>
      <trkpt lat="43.013675" lon="-1.19265333">
        <ele>993.0</ele>
        <time>2019-08-01T06:05:22.995Z</time>
      </trkpt>
      <trkpt lat="43.01369" lon="-1.19265333">
        <ele>993.0</ele>
        <time>2019-08-01T06:05:24.001Z</time>
      </trkpt>
      <trkpt lat="43.013705" lon="-1.19265167">
        <ele>993.0</ele>
        <time>2019-08-01T06:05:25.004Z</time>
      </trkpt>
      <trkpt lat="43.01371167" lon="-1.19265167">
        <ele>993.0</ele>
        <time>2019-08-01T06:05:26.009Z</time>
      </trkpt>
      <trkpt lat="43.01372333" lon="-1.19265667">
        <ele>993.0</ele>
        <time>2019-08-01T06:05:27.017Z</time>
      </trkpt>
      <trkpt lat="43.01373667" lon="-1.19266667">
        <ele>994.0</ele>
        <time>2019-08-01T06:05:28.024Z</time>
      </trkpt>
      <trkpt lat="43.01375167" lon="-1.19268">
        <ele>995.0</ele>
        <time>2019-08-01T06:05:29.031Z</time>
      </trkpt>
      <trkpt lat="43.01376333" lon="-1.19269">
        <ele>996.0</ele>
        <time>2019-08-01T06:05:30.035Z</time>
      </trkpt>
      <trkpt lat="43.01377667" lon="-1.19269833">
        <ele>997.0</ele>
        <time>2019-08-01T06:05:31.040Z</time>
      </trkpt>
      <trkpt lat="43.01378833" lon="-1.19270333">
        <ele>997.0</ele>
        <time>2019-08-01T06:05:31.919Z</time>
      </trkpt>
      <trkpt lat="43.013795" lon="-1.192705">
        <ele>997.0</ele>
        <time>2019-08-01T06:05:32.924Z</time>
      </trkpt>
      <trkpt lat="43.0138" lon="-1.19271">
        <ele>998.0</ele>
        <time>2019-08-01T06:05:33.930Z</time>
      </trkpt>
      <trkpt lat="43.013805" lon="-1.19271333">
        <ele>999.0</ele>
        <time>2019-08-01T06:05:34.937Z</time>
      </trkpt>
      <trkpt lat="43.01381167" lon="-1.19271667">
        <ele>999.0</ele>
        <time>2019-08-01T06:05:35.943Z</time>
      </trkpt>
      <trkpt lat="43.013815" lon="-1.19272">
        <ele>999.0</ele>
        <time>2019-08-01T06:05:36.949Z</time>
      </trkpt>
      <trkpt lat="43.01382667" lon="-1.19272667">
        <ele>999.0</ele>
        <time>2019-08-01T06:05:37.956Z</time>
      </trkpt>
      <trkpt lat="43.01383333" lon="-1.192735">
        <ele>999.0</ele>
        <time>2019-08-01T06:05:38.962Z</time>
      </trkpt>
      <trkpt lat="43.013845" lon="-1.19274333">
        <ele>1000.0</ele>
        <time>2019-08-01T06:05:39.969Z</time>
      </trkpt>
      <trkpt lat="43.01385667" lon="-1.19275167">
        <ele>1001.0</ele>
        <time>2019-08-01T06:05:40.975Z</time>
      </trkpt>
      <trkpt lat="43.013875" lon="-1.19275167">
        <ele>1001.0</ele>
        <time>2019-08-01T06:05:41.981Z</time>
      </trkpt>
      <trkpt lat="43.01389" lon="-1.192745">
        <ele>1002.0</ele>
        <time>2019-08-01T06:05:42.988Z</time>
      </trkpt>
      <trkpt lat="43.01389833" lon="-1.19274333">
        <ele>1004.0</ele>
        <time>2019-08-01T06:05:43.992Z</time>
      </trkpt>
      <trkpt lat="43.013915" lon="-1.19274167">
        <ele>1006.0</ele>
        <time>2019-08-01T06:05:44.995Z</time>
      </trkpt>
      <trkpt lat="43.01392667" lon="-1.19273667">
        <ele>1007.0</ele>
        <time>2019-08-01T06:05:46.000Z</time>
      </trkpt>
      <trkpt lat="43.01394333" lon="-1.19273667">
        <ele>1009.0</ele>
        <time>2019-08-01T06:05:47.004Z</time>
      </trkpt>
      <trkpt lat="43.01396333" lon="-1.19273333">
        <ele>1009.0</ele>
        <time>2019-08-01T06:05:48.009Z</time>
      </trkpt>
      <trkpt lat="43.01397" lon="-1.192735">
        <ele>1010.0</ele>
        <time>2019-08-01T06:05:49.015Z</time>
      </trkpt>
      <trkpt lat="43.01397333" lon="-1.19273667">
        <ele>1011.0</ele>
        <time>2019-08-01T06:05:50.021Z</time>
      </trkpt>
      <trkpt lat="43.01397333" lon="-1.192735">
        <ele>1011.0</ele>
        <time>2019-08-01T06:05:51.025Z</time>
      </trkpt>
      <trkpt lat="43.01397667" lon="-1.19273">
        <ele>1010.0</ele>
        <time>2019-08-01T06:05:52.029Z</time>
      </trkpt>
      <trkpt lat="43.01398" lon="-1.19273167">
        <ele>1009.0</ele>
        <time>2019-08-01T06:05:53.030Z</time>
      </trkpt>
      <trkpt lat="43.01398667" lon="-1.19273333">
        <ele>1009.0</ele>
        <time>2019-08-01T06:05:54.035Z</time>
      </trkpt>
      <trkpt lat="43.01398833" lon="-1.19273167">
        <ele>1008.0</ele>
        <time>2019-08-01T06:05:55.042Z</time>
      </trkpt>
      <trkpt lat="43.01399167" lon="-1.192735">
        <ele>1008.0</ele>
        <time>2019-08-01T06:05:55.921Z</time>
      </trkpt>
      <trkpt lat="43.01399833" lon="-1.19274167">
        <ele>1007.0</ele>
        <time>2019-08-01T06:05:56.926Z</time>
      </trkpt>
      <trkpt lat="43.01400833" lon="-1.192745">
        <ele>1007.0</ele>
        <time>2019-08-01T06:05:57.930Z</time>
      </trkpt>
      <trkpt lat="43.014015" lon="-1.19274667">
        <ele>1007.0</ele>
        <time>2019-08-01T06:05:58.936Z</time>
      </trkpt>
      <trkpt lat="43.01402333" lon="-1.19274833">
        <ele>1006.0</ele>
        <time>2019-08-01T06:05:59.942Z</time>
      </trkpt>
      <trkpt lat="43.01402833" lon="-1.19274667">
        <ele>1007.0</ele>
        <time>2019-08-01T06:06:00.943Z</time>
      </trkpt>
      <trkpt lat="43.01403333" lon="-1.19274667">
        <ele>1007.0</ele>
        <time>2019-08-01T06:06:01.949Z</time>
      </trkpt>
      <trkpt lat="43.014035" lon="-1.19274833">
        <ele>1007.0</ele>
        <time>2019-08-01T06:06:02.955Z</time>
      </trkpt>
      <trkpt lat="43.014035" lon="-1.19274833">
        <ele>1007.0</ele>
        <time>2019-08-01T06:06:03.961Z</time>
      </trkpt>
      <trkpt lat="43.01404" lon="-1.19274667">
        <ele>1007.0</ele>
        <time>2019-08-01T06:06:04.966Z</time>
      </trkpt>
      <trkpt lat="43.01404667" lon="-1.19275">
        <ele>1006.0</ele>
        <time>2019-08-01T06:06:05.973Z</time>
      </trkpt>
      <trkpt lat="43.01405" lon="-1.19275">
        <ele>1006.0</ele>
        <time>2019-08-01T06:06:06.979Z</time>
      </trkpt>
      <trkpt lat="43.01405333" lon="-1.19275">
        <ele>1006.0</ele>
        <time>2019-08-01T06:06:07.984Z</time>
      </trkpt>
      <trkpt lat="43.014055" lon="-1.19275">
        <ele>1005.0</ele>
        <time>2019-08-01T06:06:08.992Z</time>
      </trkpt>
      <trkpt lat="43.014055" lon="-1.192745">
        <ele>1006.0</ele>
        <time>2019-08-01T06:06:09.998Z</time>
      </trkpt>
      <trkpt lat="43.01405667" lon="-1.19274">
        <ele>1006.0</ele>
        <time>2019-08-01T06:06:11.003Z</time>
      </trkpt>
      <trkpt lat="43.01406167" lon="-1.192735">
        <ele>1007.0</ele>
        <time>2019-08-01T06:06:12.009Z</time>
      </trkpt>
      <trkpt lat="43.01406833" lon="-1.19273333">
        <ele>1007.0</ele>
        <time>2019-08-01T06:06:13.014Z</time>
      </trkpt>
      <trkpt lat="43.01407333" lon="-1.19272833">
        <ele>1007.0</ele>
        <time>2019-08-01T06:06:14.020Z</time>
      </trkpt>
      <trkpt lat="43.01407667" lon="-1.19272333">
        <ele>1007.0</ele>
        <time>2019-08-01T06:06:15.027Z</time>
      </trkpt>
      <trkpt lat="43.01408167" lon="-1.19271833">
        <ele>1007.0</ele>
        <time>2019-08-01T06:06:16.033Z</time>
      </trkpt>
      <trkpt lat="43.01408667" lon="-1.19271833">
        <ele>1006.0</ele>
        <time>2019-08-01T06:06:17.039Z</time>
      </trkpt>
      <trkpt lat="43.014085" lon="-1.19272">
        <ele>1005.0</ele>
        <time>2019-08-01T06:06:18.042Z</time>
      </trkpt>
      <trkpt lat="43.01408333" lon="-1.19271833">
        <ele>1004.0</ele>
        <time>2019-08-01T06:06:18.919Z</time>
      </trkpt>
      <trkpt lat="43.01408333" lon="-1.19272167">
        <ele>1004.0</ele>
        <time>2019-08-01T06:06:19.926Z</time>
      </trkpt>
      <trkpt lat="43.01409167" lon="-1.192725">
        <ele>1003.0</ele>
        <time>2019-08-01T06:06:20.933Z</time>
      </trkpt>
      <trkpt lat="43.01410167" lon="-1.19272833">
        <ele>1004.0</ele>
        <time>2019-08-01T06:06:21.939Z</time>
      </trkpt>
      <trkpt lat="43.01411167" lon="-1.19273167">
        <ele>1004.0</ele>
        <time>2019-08-01T06:06:22.944Z</time>
      </trkpt>
      <trkpt lat="43.01411667" lon="-1.19273667">
        <ele>1004.0</ele>
        <time>2019-08-01T06:06:23.949Z</time>
      </trkpt>
      <trkpt lat="43.01412167" lon="-1.19274167">
        <ele>1004.0</ele>
        <time>2019-08-01T06:06:24.956Z</time>
      </trkpt>
      <trkpt lat="43.01412167" lon="-1.19274333">
        <ele>1003.0</ele>
        <time>2019-08-01T06:06:25.962Z</time>
      </trkpt>
      <trkpt lat="43.01412667" lon="-1.19274333">
        <ele>1003.0</ele>
        <time>2019-08-01T06:06:26.966Z</time>
      </trkpt>
      <trkpt lat="43.01413667" lon="-1.19274167">
        <ele>1003.0</ele>
        <time>2019-08-01T06:06:27.972Z</time>
      </trkpt>
      <trkpt lat="43.01414167" lon="-1.19274">
        <ele>1003.0</ele>
        <time>2019-08-01T06:06:28.978Z</time>
      </trkpt>
      <trkpt lat="43.01414667" lon="-1.192735">
        <ele>1003.0</ele>
        <time>2019-08-01T06:06:29.986Z</time>
      </trkpt>
      <trkpt lat="43.01415333" lon="-1.19273167">
        <ele>1003.0</ele>
        <time>2019-08-01T06:06:30.992Z</time>
      </trkpt>
      <trkpt lat="43.01415667" lon="-1.19272667">
        <ele>1004.0</ele>
        <time>2019-08-01T06:06:31.998Z</time>
      </trkpt>
      <trkpt lat="43.01415833" lon="-1.19272333">
        <ele>1004.0</ele>
        <time>2019-08-01T06:06:33.004Z</time>
      </trkpt>
      <trkpt lat="43.01415833" lon="-1.19271833">
        <ele>1003.0</ele>
        <time>2019-08-01T06:06:34.009Z</time>
      </trkpt>
      <trkpt lat="43.01416167" lon="-1.19271667">
        <ele>1002.0</ele>
        <time>2019-08-01T06:06:35.016Z</time>
      </trkpt>
      <trkpt lat="43.01416167" lon="-1.19271">
        <ele>1002.0</ele>
        <time>2019-08-01T06:06:36.022Z</time>
      </trkpt>
      <trkpt lat="43.01415667" lon="-1.19270333">
        <ele>1002.0</ele>
        <time>2019-08-01T06:06:37.029Z</time>
      </trkpt>
      <trkpt lat="43.014155" lon="-1.19269833">
        <ele>1003.0</ele>
        <time>2019-08-01T06:06:38.037Z</time>
      </trkpt>
      <trkpt lat="43.01415833" lon="-1.19269667">
        <ele>1004.0</ele>
        <time>2019-08-01T06:06:38.919Z</time>
      </trkpt>
      <trkpt lat="43.01415667" lon="-1.192695">
        <ele>1003.0</ele>
        <time>2019-08-01T06:06:39.923Z</time>
      </trkpt>
      <trkpt lat="43.01415833" lon="-1.192695">
        <ele>1004.0</ele>
        <time>2019-08-01T06:06:40.931Z</time>
      </trkpt>
      <trkpt lat="43.01415667" lon="-1.192695">
        <ele>1004.0</ele>
        <time>2019-08-01T06:06:41.937Z</time>
      </trkpt>
      <trkpt lat="43.01415" lon="-1.19269167">
        <ele>1004.0</ele>
        <time>2019-08-01T06:06:42.943Z</time>
      </trkpt>
      <trkpt lat="43.01414833" lon="-1.19268667">
        <ele>1004.0</ele>
        <time>2019-08-01T06:06:43.949Z</time>
      </trkpt>
      <trkpt lat="43.01414833" lon="-1.192685">
        <ele>1004.0</ele>
        <time>2019-08-01T06:06:44.954Z</time>
      </trkpt>
      <trkpt lat="43.01415" lon="-1.19269">
        <ele>1004.0</ele>
        <time>2019-08-01T06:06:45.959Z</time>
      </trkpt>
      <trkpt lat="43.01415667" lon="-1.192695">
        <ele>1004.0</ele>
        <time>2019-08-01T06:06:46.964Z</time>
      </trkpt>
      <trkpt lat="43.014165" lon="-1.1927">
        <ele>1003.0</ele>
        <time>2019-08-01T06:06:47.970Z</time>
      </trkpt>
      <trkpt lat="43.014165" lon="-1.19270167">
        <ele>1003.0</ele>
        <time>2019-08-01T06:06:48.976Z</time>
      </trkpt>
      <trkpt lat="43.014165" lon="-1.1927">
        <ele>1003.0</ele>
        <time>2019-08-01T06:06:49.983Z</time>
      </trkpt>
      <trkpt lat="43.014165" lon="-1.19269833">
        <ele>1002.0</ele>
        <time>2019-08-01T06:06:50.990Z</time>
      </trkpt>
      <trkpt lat="43.01416667" lon="-1.19269667">
        <ele>1002.0</ele>
        <time>2019-08-01T06:06:51.997Z</time>
      </trkpt>
      <trkpt lat="43.01417" lon="-1.192695">
        <ele>1002.0</ele>
        <time>2019-08-01T06:06:53.001Z</time>
      </trkpt>
      <trkpt lat="43.01417333" lon="-1.19269667">
        <ele>1002.0</ele>
        <time>2019-08-01T06:06:54.003Z</time>
      </trkpt>
      <trkpt lat="43.01418333" lon="-1.19269833">
        <ele>1004.0</ele>
        <time>2019-08-01T06:06:55.008Z</time>
      </trkpt>
      <trkpt lat="43.01419" lon="-1.19269667">
        <ele>1004.0</ele>
        <time>2019-08-01T06:06:56.014Z</time>
      </trkpt>
      <trkpt lat="43.01419333" lon="-1.192695">
        <ele>1004.0</ele>
        <time>2019-08-01T06:06:57.019Z</time>
      </trkpt>
      <trkpt lat="43.014195" lon="-1.192695">
        <ele>1004.0</ele>
        <time>2019-08-01T06:06:58.026Z</time>
      </trkpt>
      <trkpt lat="43.01419667" lon="-1.19269667">
        <ele>1004.0</ele>
        <time>2019-08-01T06:06:59.031Z</time>
      </trkpt>
      <trkpt lat="43.01419667" lon="-1.19269667">
        <ele>1004.0</ele>
        <time>2019-08-01T06:07:00.036Z</time>
      </trkpt>
      <trkpt lat="43.01419667" lon="-1.192695">
        <ele>1004.0</ele>
        <time>2019-08-01T06:07:01.042Z</time>
      </trkpt>
      <trkpt lat="43.01419833" lon="-1.19269667">
        <ele>1005.0</ele>
        <time>2019-08-01T06:07:01.922Z</time>
      </trkpt>
      <trkpt lat="43.01419833" lon="-1.19269667">
        <ele>1004.0</ele>
        <time>2019-08-01T06:07:02.929Z</time>
      </trkpt>
      <trkpt lat="43.01419833" lon="-1.192695">
        <ele>1004.0</ele>
        <time>2019-08-01T06:07:03.936Z</time>
      </trkpt>
      <trkpt lat="43.01419833" lon="-1.19269167">
        <ele>1004.0</ele>
        <time>2019-08-01T06:07:04.941Z</time>
      </trkpt>
      <trkpt lat="43.014205" lon="-1.19269167">
        <ele>1004.0</ele>
        <time>2019-08-01T06:07:05.947Z</time>
      </trkpt>
      <trkpt lat="43.01420833" lon="-1.19269333">
        <ele>1005.0</ele>
        <time>2019-08-01T06:07:06.954Z</time>
      </trkpt>
      <trkpt lat="43.01421" lon="-1.19269167">
        <ele>1006.0</ele>
        <time>2019-08-01T06:07:07.960Z</time>
      </trkpt>
      <trkpt lat="43.01421167" lon="-1.19268667">
        <ele>1007.0</ele>
        <time>2019-08-01T06:07:08.965Z</time>
      </trkpt>
      <trkpt lat="43.01421167" lon="-1.19268167">
        <ele>1007.0</ele>
        <time>2019-08-01T06:07:09.971Z</time>
      </trkpt>
      <trkpt lat="43.01421167" lon="-1.19268333">
        <ele>1008.0</ele>
        <time>2019-08-01T06:07:10.977Z</time>
      </trkpt>
      <trkpt lat="43.01421833" lon="-1.19269">
        <ele>1008.0</ele>
        <time>2019-08-01T06:07:11.984Z</time>
      </trkpt>
      <trkpt lat="43.01422167" lon="-1.19269333">
        <ele>1008.0</ele>
        <time>2019-08-01T06:07:12.991Z</time>
      </trkpt>
      <trkpt lat="43.01422667" lon="-1.19269667">
        <ele>1008.0</ele>
        <time>2019-08-01T06:07:13.996Z</time>
      </trkpt>
      <trkpt lat="43.01423" lon="-1.1927">
        <ele>1008.0</ele>
        <time>2019-08-01T06:07:15.001Z</time>
      </trkpt>
      <trkpt lat="43.01423333" lon="-1.19269833">
        <ele>1008.0</ele>
        <time>2019-08-01T06:07:16.007Z</time>
      </trkpt>
      <trkpt lat="43.01423167" lon="-1.19269833">
        <ele>1008.0</ele>
        <time>2019-08-01T06:07:17.013Z</time>
      </trkpt>
      <trkpt lat="43.01423667" lon="-1.19269833">
        <ele>1008.0</ele>
        <time>2019-08-01T06:07:18.017Z</time>
      </trkpt>
      <trkpt lat="43.01424167" lon="-1.19270167">
        <ele>1008.0</ele>
        <time>2019-08-01T06:07:19.019Z</time>
      </trkpt>
      <trkpt lat="43.01424833" lon="-1.19270167">
        <ele>1008.0</ele>
        <time>2019-08-01T06:07:20.024Z</time>
      </trkpt>
      <trkpt lat="43.01425333" lon="-1.192705">
        <ele>1008.0</ele>
        <time>2019-08-01T06:07:21.031Z</time>
      </trkpt>
      <trkpt lat="43.014255" lon="-1.192705">
        <ele>1008.0</ele>
        <time>2019-08-01T06:07:22.036Z</time>
      </trkpt>
      <trkpt lat="43.01426167" lon="-1.19270667">
        <ele>1008.0</ele>
        <time>2019-08-01T06:07:22.919Z</time>
      </trkpt>
      <trkpt lat="43.01426833" lon="-1.19270667">
        <ele>1009.0</ele>
        <time>2019-08-01T06:07:23.925Z</time>
      </trkpt>
      <trkpt lat="43.01427667" lon="-1.19271">
        <ele>1009.0</ele>
        <time>2019-08-01T06:07:24.933Z</time>
      </trkpt>
      <trkpt lat="43.01428333" lon="-1.192715">
        <ele>1010.0</ele>
        <time>2019-08-01T06:07:25.939Z</time>
      </trkpt>
      <trkpt lat="43.01429167" lon="-1.19272">
        <ele>1010.0</ele>
        <time>2019-08-01T06:07:26.945Z</time>
      </trkpt>
      <trkpt lat="43.01429833" lon="-1.19272167">
        <ele>1011.0</ele>
        <time>2019-08-01T06:07:27.952Z</time>
      </trkpt>
      <trkpt lat="43.01431" lon="-1.192725">
        <ele>1012.0</ele>
        <time>2019-08-01T06:07:28.960Z</time>
      </trkpt>
      <trkpt lat="43.01432167" lon="-1.19272667">
        <ele>1013.0</ele>
        <time>2019-08-01T06:07:29.965Z</time>
      </trkpt>
      <trkpt lat="43.01433167" lon="-1.19273333">
        <ele>1013.0</ele>
        <time>2019-08-01T06:07:30.970Z</time>
      </trkpt>
      <trkpt lat="43.01433833" lon="-1.19274">
        <ele>1014.0</ele>
        <time>2019-08-01T06:07:31.976Z</time>
      </trkpt>
      <trkpt lat="43.01434333" lon="-1.19274667">
        <ele>1013.0</ele>
        <time>2019-08-01T06:07:32.984Z</time>
      </trkpt>
      <trkpt lat="43.01435333" lon="-1.19274667">
        <ele>1013.0</ele>
        <time>2019-08-01T06:07:33.991Z</time>
      </trkpt>
      <trkpt lat="43.01436333" lon="-1.19275">
        <ele>1013.0</ele>
        <time>2019-08-01T06:07:34.997Z</time>
      </trkpt>
      <trkpt lat="43.014375" lon="-1.19275667">
        <ele>1013.0</ele>
        <time>2019-08-01T06:07:36.002Z</time>
      </trkpt>
      <trkpt lat="43.014385" lon="-1.19276167">
        <ele>1013.0</ele>
        <time>2019-08-01T06:07:37.008Z</time>
      </trkpt>
      <trkpt lat="43.01439167" lon="-1.19276833">
        <ele>1013.0</ele>
        <time>2019-08-01T06:07:38.016Z</time>
      </trkpt>
      <trkpt lat="43.01439667" lon="-1.192775">
        <ele>1013.0</ele>
        <time>2019-08-01T06:07:39.022Z</time>
      </trkpt>
      <trkpt lat="43.01440167" lon="-1.19278167">
        <ele>1014.0</ele>
        <time>2019-08-01T06:07:40.026Z</time>
      </trkpt>
      <trkpt lat="43.01440667" lon="-1.192785">
        <ele>1014.0</ele>
        <time>2019-08-01T06:07:41.032Z</time>
      </trkpt>
      <trkpt lat="43.01441" lon="-1.19278333">
        <ele>1014.0</ele>
        <time>2019-08-01T06:07:42.040Z</time>
      </trkpt>
      <trkpt lat="43.014415" lon="-1.19278">
        <ele>1013.0</ele>
        <time>2019-08-01T06:07:42.920Z</time>
      </trkpt>
      <trkpt lat="43.01442333" lon="-1.19278167">
        <ele>1012.0</ele>
        <time>2019-08-01T06:07:43.927Z</time>
      </trkpt>
      <trkpt lat="43.014435" lon="-1.192785">
        <ele>1012.0</ele>
        <time>2019-08-01T06:07:44.931Z</time>
      </trkpt>
      <trkpt lat="43.01444667" lon="-1.192785">
        <ele>1013.0</ele>
        <time>2019-08-01T06:07:45.935Z</time>
      </trkpt>
      <trkpt lat="43.01445667" lon="-1.19278833">
        <ele>1013.0</ele>
        <time>2019-08-01T06:07:46.941Z</time>
      </trkpt>
      <trkpt lat="43.014465" lon="-1.19279167">
        <ele>1013.0</ele>
        <time>2019-08-01T06:07:47.947Z</time>
      </trkpt>
      <trkpt lat="43.01447167" lon="-1.19279167">
        <ele>1013.0</ele>
        <time>2019-08-01T06:07:48.954Z</time>
      </trkpt>
      <trkpt lat="43.01448" lon="-1.19279333">
        <ele>1013.0</ele>
        <time>2019-08-01T06:07:49.960Z</time>
      </trkpt>
      <trkpt lat="43.01449167" lon="-1.19279667">
        <ele>1012.0</ele>
        <time>2019-08-01T06:07:50.964Z</time>
      </trkpt>
      <trkpt lat="43.01450167" lon="-1.19279833">
        <ele>1012.0</ele>
        <time>2019-08-01T06:07:51.969Z</time>
      </trkpt>
      <trkpt lat="43.014515" lon="-1.1928">
        <ele>1011.0</ele>
        <time>2019-08-01T06:07:52.975Z</time>
      </trkpt>
      <trkpt lat="43.01452167" lon="-1.1928">
        <ele>1010.0</ele>
        <time>2019-08-01T06:07:53.982Z</time>
      </trkpt>
      <trkpt lat="43.014535" lon="-1.19280333">
        <ele>1010.0</ele>
        <time>2019-08-01T06:07:54.989Z</time>
      </trkpt>
      <trkpt lat="43.01455167" lon="-1.19280667">
        <ele>1009.0</ele>
        <time>2019-08-01T06:07:55.995Z</time>
      </trkpt>
      <trkpt lat="43.01456333" lon="-1.19280667">
        <ele>1009.0</ele>
        <time>2019-08-01T06:07:57.002Z</time>
      </trkpt>
      <trkpt lat="43.01456667" lon="-1.19280333">
        <ele>1009.0</ele>
        <time>2019-08-01T06:07:58.009Z</time>
      </trkpt>
      <trkpt lat="43.01457333" lon="-1.19279833">
        <ele>1008.0</ele>
        <time>2019-08-01T06:07:59.016Z</time>
      </trkpt>
      <trkpt lat="43.01457833" lon="-1.19279333">
        <ele>1007.0</ele>
        <time>2019-08-01T06:08:00.022Z</time>
      </trkpt>
      <trkpt lat="43.014585" lon="-1.19279167">
        <ele>1007.0</ele>
        <time>2019-08-01T06:08:01.030Z</time>
      </trkpt>
      <trkpt lat="43.01459333" lon="-1.19278667">
        <ele>1006.0</ele>
        <time>2019-08-01T06:08:02.035Z</time>
      </trkpt>
      <trkpt lat="43.01460333" lon="-1.19278167">
        <ele>1007.0</ele>
        <time>2019-08-01T06:08:03.039Z</time>
      </trkpt>
      <trkpt lat="43.01461833" lon="-1.19278">
        <ele>1008.0</ele>
        <time>2019-08-01T06:08:03.919Z</time>
      </trkpt>
      <trkpt lat="43.01463833" lon="-1.19277667">
        <ele>1008.0</ele>
        <time>2019-08-01T06:08:04.925Z</time>
      </trkpt>
      <trkpt lat="43.01465" lon="-1.19276667">
        <ele>1007.0</ele>
        <time>2019-08-01T06:08:05.932Z</time>
      </trkpt>
      <trkpt lat="43.01466" lon="-1.19275333">
        <ele>1006.0</ele>
        <time>2019-08-01T06:08:06.939Z</time>
      </trkpt>
      <trkpt lat="43.01467167" lon="-1.19274">
        <ele>1004.0</ele>
        <time>2019-08-01T06:08:07.945Z</time>
      </trkpt>
      <trkpt lat="43.01467833" lon="-1.19272167">
        <ele>1002.0</ele>
        <time>2019-08-01T06:08:08.950Z</time>
      </trkpt>
      <trkpt lat="43.01469167" lon="-1.19271167">
        <ele>1001.0</ele>
        <time>2019-08-01T06:08:09.956Z</time>
      </trkpt>
      <trkpt lat="43.014705" lon="-1.192705">
        <ele>999.0</ele>
        <time>2019-08-01T06:08:10.961Z</time>
      </trkpt>
      <trkpt lat="43.014715" lon="-1.19270667">
        <ele>998.0</ele>
        <time>2019-08-01T06:08:11.965Z</time>
      </trkpt>
      <trkpt lat="43.01473167" lon="-1.19270667">
        <ele>998.0</ele>
        <time>2019-08-01T06:08:12.970Z</time>
      </trkpt>
      <trkpt lat="43.014745" lon="-1.19271167">
        <ele>998.0</ele>
        <time>2019-08-01T06:08:13.978Z</time>
      </trkpt>
      <trkpt lat="43.01475667" lon="-1.19271333">
        <ele>997.0</ele>
        <time>2019-08-01T06:08:14.985Z</time>
      </trkpt>
      <trkpt lat="43.014765" lon="-1.19270667">
        <ele>997.0</ele>
        <time>2019-08-01T06:08:15.992Z</time>
      </trkpt>
      <trkpt lat="43.01477333" lon="-1.19269833">
        <ele>996.0</ele>
        <time>2019-08-01T06:08:16.998Z</time>
      </trkpt>
      <trkpt lat="43.01478" lon="-1.192695">
        <ele>996.0</ele>
        <time>2019-08-01T06:08:18.005Z</time>
      </trkpt>
      <trkpt lat="43.01479333" lon="-1.19269667">
        <ele>996.0</ele>
        <time>2019-08-01T06:08:19.011Z</time>
      </trkpt>
      <trkpt lat="43.01480333" lon="-1.1927">
        <ele>997.0</ele>
        <time>2019-08-01T06:08:20.016Z</time>
      </trkpt>
      <trkpt lat="43.01481167" lon="-1.19270333">
        <ele>997.0</ele>
        <time>2019-08-01T06:08:21.023Z</time>
      </trkpt>
      <trkpt lat="43.01482" lon="-1.19270667">
        <ele>997.0</ele>
        <time>2019-08-01T06:08:22.030Z</time>
      </trkpt>
      <trkpt lat="43.01483167" lon="-1.19269667">
        <ele>997.0</ele>
        <time>2019-08-01T06:08:23.036Z</time>
      </trkpt>
      <trkpt lat="43.01485167" lon="-1.19269667">
        <ele>996.0</ele>
        <time>2019-08-01T06:08:23.918Z</time>
      </trkpt>
      <trkpt lat="43.014865" lon="-1.19270333">
        <ele>995.0</ele>
        <time>2019-08-01T06:08:24.924Z</time>
      </trkpt>
      <trkpt lat="43.01487667" lon="-1.19270333">
        <ele>996.0</ele>
        <time>2019-08-01T06:08:25.931Z</time>
      </trkpt>
      <trkpt lat="43.01487833" lon="-1.19270167">
        <ele>996.0</ele>
        <time>2019-08-01T06:08:26.938Z</time>
      </trkpt>
      <trkpt lat="43.01488833" lon="-1.1927">
        <ele>997.0</ele>
        <time>2019-08-01T06:08:27.942Z</time>
      </trkpt>
      <trkpt lat="43.01489667" lon="-1.192695">
        <ele>998.0</ele>
        <time>2019-08-01T06:08:28.946Z</time>
      </trkpt>
      <trkpt lat="43.01490667" lon="-1.19269">
        <ele>998.0</ele>
        <time>2019-08-01T06:08:29.952Z</time>
      </trkpt>
      <trkpt lat="43.014915" lon="-1.19268333">
        <ele>998.0</ele>
        <time>2019-08-01T06:08:30.959Z</time>
      </trkpt>
      <trkpt lat="43.01492333" lon="-1.19267667">
        <ele>999.0</ele>
        <time>2019-08-01T06:08:31.965Z</time>
      </trkpt>
      <trkpt lat="43.01493167" lon="-1.19267167">
        <ele>999.0</ele>
        <time>2019-08-01T06:08:32.970Z</time>
      </trkpt>
      <trkpt lat="43.014935" lon="-1.19266333">
        <ele>999.0</ele>
        <time>2019-08-01T06:08:33.975Z</time>
      </trkpt>
      <trkpt lat="43.01494333" lon="-1.19265833">
        <ele>999.0</ele>
        <time>2019-08-01T06:08:34.981Z</time>
      </trkpt>
      <trkpt lat="43.01495" lon="-1.19265167">
        <ele>998.0</ele>
        <time>2019-08-01T06:08:35.989Z</time>
      </trkpt>
      <trkpt lat="43.01495833" lon="-1.19264333">
        <ele>999.0</ele>
        <time>2019-08-01T06:08:36.994Z</time>
      </trkpt>
      <trkpt lat="43.01497167" lon="-1.19263667">
        <ele>999.0</ele>
        <time>2019-08-01T06:08:37.999Z</time>
      </trkpt>
      <trkpt lat="43.01498" lon="-1.192625">
        <ele>998.0</ele>
        <time>2019-08-01T06:08:39.004Z</time>
      </trkpt>
      <trkpt lat="43.01498667" lon="-1.192615">
        <ele>997.0</ele>
        <time>2019-08-01T06:08:40.009Z</time>
      </trkpt>
      <trkpt lat="43.01499667" lon="-1.19260333">
        <ele>996.0</ele>
        <time>2019-08-01T06:08:41.014Z</time>
      </trkpt>
      <trkpt lat="43.01500667" lon="-1.192595">
        <ele>995.0</ele>
        <time>2019-08-01T06:08:42.019Z</time>
      </trkpt>
      <trkpt lat="43.01501833" lon="-1.19258833">
        <ele>994.0</ele>
        <time>2019-08-01T06:08:43.025Z</time>
      </trkpt>
      <trkpt lat="43.01502833" lon="-1.19257333">
        <ele>993.0</ele>
        <time>2019-08-01T06:08:44.031Z</time>
      </trkpt>
      <trkpt lat="43.01503667" lon="-1.19255833">
        <ele>993.0</ele>
        <time>2019-08-01T06:08:45.036Z</time>
      </trkpt>
      <trkpt lat="43.01504" lon="-1.192545">
        <ele>993.0</ele>
        <time>2019-08-01T06:08:46.042Z</time>
      </trkpt>
      <trkpt lat="43.01504167" lon="-1.19253167">
        <ele>993.0</ele>
        <time>2019-08-01T06:08:46.920Z</time>
      </trkpt>
      <trkpt lat="43.01504833" lon="-1.19252333">
        <ele>993.0</ele>
        <time>2019-08-01T06:08:47.927Z</time>
      </trkpt>
      <trkpt lat="43.01505833" lon="-1.19251333">
        <ele>993.0</ele>
        <time>2019-08-01T06:08:48.934Z</time>
      </trkpt>
      <trkpt lat="43.01506167" lon="-1.19250333">
        <ele>993.0</ele>
        <time>2019-08-01T06:08:49.940Z</time>
      </trkpt>
      <trkpt lat="43.015065" lon="-1.19249333">
        <ele>992.0</ele>
        <time>2019-08-01T06:08:50.945Z</time>
      </trkpt>
      <trkpt lat="43.01507" lon="-1.19248167">
        <ele>992.0</ele>
        <time>2019-08-01T06:08:51.951Z</time>
      </trkpt>
      <trkpt lat="43.01507667" lon="-1.192475">
        <ele>992.0</ele>
        <time>2019-08-01T06:08:52.957Z</time>
      </trkpt>
      <trkpt lat="43.01509" lon="-1.19247">
        <ele>991.0</ele>
        <time>2019-08-01T06:08:53.963Z</time>
      </trkpt>
      <trkpt lat="43.01510167" lon="-1.19246833">
        <ele>991.0</ele>
        <time>2019-08-01T06:08:54.969Z</time>
      </trkpt>
      <trkpt lat="43.01511167" lon="-1.192465">
        <ele>992.0</ele>
        <time>2019-08-01T06:08:55.975Z</time>
      </trkpt>
      <trkpt lat="43.01511667" lon="-1.19245833">
        <ele>994.0</ele>
        <time>2019-08-01T06:08:56.982Z</time>
      </trkpt>
      <trkpt lat="43.01512" lon="-1.192455">
        <ele>994.0</ele>
        <time>2019-08-01T06:08:57.988Z</time>
      </trkpt>
      <trkpt lat="43.01512667" lon="-1.19245667">
        <ele>993.0</ele>
        <time>2019-08-01T06:08:58.994Z</time>
      </trkpt>
      <trkpt lat="43.01513833" lon="-1.19246167">
        <ele>992.0</ele>
        <time>2019-08-01T06:08:59.997Z</time>
      </trkpt>
      <trkpt lat="43.015145" lon="-1.19246667">
        <ele>991.0</ele>
        <time>2019-08-01T06:09:01.002Z</time>
      </trkpt>
      <trkpt lat="43.015145" lon="-1.19247333">
        <ele>990.0</ele>
        <time>2019-08-01T06:09:02.008Z</time>
      </trkpt>
      <trkpt lat="43.01514333" lon="-1.19246667">
        <ele>989.0</ele>
        <time>2019-08-01T06:09:03.014Z</time>
      </trkpt>
      <trkpt lat="43.01515" lon="-1.19246167">
        <ele>989.0</ele>
        <time>2019-08-01T06:09:04.019Z</time>
      </trkpt>
      <trkpt lat="43.01516" lon="-1.19245833">
        <ele>987.0</ele>
        <time>2019-08-01T06:09:05.026Z</time>
      </trkpt>
      <trkpt lat="43.01516667" lon="-1.19245667">
        <ele>986.0</ele>
        <time>2019-08-01T06:09:06.032Z</time>
      </trkpt>
      <trkpt lat="43.01516833" lon="-1.19245">
        <ele>986.0</ele>
        <time>2019-08-01T06:09:07.038Z</time>
      </trkpt>
      <trkpt lat="43.01517833" lon="-1.19245167">
        <ele>985.0</ele>
        <time>2019-08-01T06:09:07.919Z</time>
      </trkpt>
      <trkpt lat="43.01519" lon="-1.192455">
        <ele>985.0</ele>
        <time>2019-08-01T06:09:08.926Z</time>
      </trkpt>
      <trkpt lat="43.01520167" lon="-1.19245167">
        <ele>986.0</ele>
        <time>2019-08-01T06:09:09.932Z</time>
      </trkpt>
      <trkpt lat="43.01521333" lon="-1.192445">
        <ele>986.0</ele>
        <time>2019-08-01T06:09:10.938Z</time>
      </trkpt>
      <trkpt lat="43.01522167" lon="-1.19242833">
        <ele>985.0</ele>
        <time>2019-08-01T06:09:11.945Z</time>
      </trkpt>
      <trkpt lat="43.01522" lon="-1.19242167">
        <ele>985.0</ele>
        <time>2019-08-01T06:09:12.953Z</time>
      </trkpt>
      <trkpt lat="43.01522333" lon="-1.19242">
        <ele>984.0</ele>
        <time>2019-08-01T06:09:13.960Z</time>
      </trkpt>
      <trkpt lat="43.015225" lon="-1.19241333">
        <ele>983.0</ele>
        <time>2019-08-01T06:09:14.964Z</time>
      </trkpt>
      <trkpt lat="43.01522833" lon="-1.19240667">
        <ele>983.0</ele>
        <time>2019-08-01T06:09:15.970Z</time>
      </trkpt>
      <trkpt lat="43.01523167" lon="-1.1924">
        <ele>983.0</ele>
        <time>2019-08-01T06:09:16.975Z</time>
      </trkpt>
      <trkpt lat="43.01523" lon="-1.19239667">
        <ele>983.0</ele>
        <time>2019-08-01T06:09:17.981Z</time>
      </trkpt>
      <trkpt lat="43.015225" lon="-1.19239333">
        <ele>984.0</ele>
        <time>2019-08-01T06:09:18.988Z</time>
      </trkpt>
      <trkpt lat="43.01522667" lon="-1.19239667">
        <ele>985.0</ele>
        <time>2019-08-01T06:09:19.996Z</time>
      </trkpt>
      <trkpt lat="43.015225" lon="-1.19239667">
        <ele>985.0</ele>
        <time>2019-08-01T06:09:21.002Z</time>
      </trkpt>
      <trkpt lat="43.01522333" lon="-1.192395">
        <ele>985.0</ele>
        <time>2019-08-01T06:09:22.008Z</time>
      </trkpt>
      <trkpt lat="43.01522667" lon="-1.19239667">
        <ele>984.0</ele>
        <time>2019-08-01T06:09:23.013Z</time>
      </trkpt>
      <trkpt lat="43.01522667" lon="-1.19239833">
        <ele>984.0</ele>
        <time>2019-08-01T06:09:24.015Z</time>
      </trkpt>
      <trkpt lat="43.01522667" lon="-1.19240167">
        <ele>984.0</ele>
        <time>2019-08-01T06:09:25.021Z</time>
      </trkpt>
      <trkpt lat="43.01522833" lon="-1.19240333">
        <ele>985.0</ele>
        <time>2019-08-01T06:09:26.027Z</time>
      </trkpt>
      <trkpt lat="43.01523167" lon="-1.19240333">
        <ele>985.0</ele>
        <time>2019-08-01T06:09:27.033Z</time>
      </trkpt>
      <trkpt lat="43.01523333" lon="-1.192405">
        <ele>986.0</ele>
        <time>2019-08-01T06:09:28.037Z</time>
      </trkpt>
      <trkpt lat="43.01523167" lon="-1.192405">
        <ele>986.0</ele>
        <time>2019-08-01T06:09:28.919Z</time>
      </trkpt>
      <trkpt lat="43.01523" lon="-1.19240667">
        <ele>986.0</ele>
        <time>2019-08-01T06:09:29.925Z</time>
      </trkpt>
      <trkpt lat="43.01522833" lon="-1.192405">
        <ele>987.0</ele>
        <time>2019-08-01T06:09:30.932Z</time>
      </trkpt>
      <trkpt lat="43.01522833" lon="-1.19240667">
        <ele>987.0</ele>
        <time>2019-08-01T06:09:31.938Z</time>
      </trkpt>
      <trkpt lat="43.01523167" lon="-1.19241">
        <ele>988.0</ele>
        <time>2019-08-01T06:09:32.945Z</time>
      </trkpt>
      <trkpt lat="43.015235" lon="-1.19241167">
        <ele>988.0</ele>
        <time>2019-08-01T06:09:33.952Z</time>
      </trkpt>
      <trkpt lat="43.01523167" lon="-1.19240667">
        <ele>988.0</ele>
        <time>2019-08-01T06:09:34.958Z</time>
      </trkpt>
      <trkpt lat="43.01522667" lon="-1.192395">
        <ele>987.0</ele>
        <time>2019-08-01T06:09:35.963Z</time>
      </trkpt>
      <trkpt lat="43.01523" lon="-1.19239333">
        <ele>987.0</ele>
        <time>2019-08-01T06:09:36.969Z</time>
      </trkpt>
      <trkpt lat="43.01523333" lon="-1.19239667">
        <ele>987.0</ele>
        <time>2019-08-01T06:09:37.975Z</time>
      </trkpt>
      <trkpt lat="43.01523833" lon="-1.19239833">
        <ele>987.0</ele>
        <time>2019-08-01T06:09:38.981Z</time>
      </trkpt>
      <trkpt lat="43.01524333" lon="-1.1924">
        <ele>987.0</ele>
        <time>2019-08-01T06:09:39.986Z</time>
      </trkpt>
      <trkpt lat="43.01524833" lon="-1.19240333">
        <ele>987.0</ele>
        <time>2019-08-01T06:09:40.993Z</time>
      </trkpt>
      <trkpt lat="43.01525167" lon="-1.19240667">
        <ele>988.0</ele>
        <time>2019-08-01T06:09:41.998Z</time>
      </trkpt>
      <trkpt lat="43.01525833" lon="-1.19241">
        <ele>988.0</ele>
        <time>2019-08-01T06:09:43.003Z</time>
      </trkpt>
      <trkpt lat="43.015265" lon="-1.19241333">
        <ele>988.0</ele>
        <time>2019-08-01T06:09:44.010Z</time>
      </trkpt>
      <trkpt lat="43.01527167" lon="-1.19241333">
        <ele>989.0</ele>
        <time>2019-08-01T06:09:45.015Z</time>
      </trkpt>
      <trkpt lat="43.01527667" lon="-1.19241167">
        <ele>990.0</ele>
        <time>2019-08-01T06:09:46.019Z</time>
      </trkpt>
      <trkpt lat="43.01528167" lon="-1.19241167">
        <ele>991.0</ele>
        <time>2019-08-01T06:09:47.024Z</time>
      </trkpt>
      <trkpt lat="43.015285" lon="-1.19240833">
        <ele>992.0</ele>
        <time>2019-08-01T06:09:48.030Z</time>
      </trkpt>
      <trkpt lat="43.01529" lon="-1.19240667">
        <ele>991.0</ele>
        <time>2019-08-01T06:09:49.037Z</time>
      </trkpt>
      <trkpt lat="43.01529833" lon="-1.19240833">
        <ele>991.0</ele>
        <time>2019-08-01T06:09:49.918Z</time>
      </trkpt>
      <trkpt lat="43.01530167" lon="-1.19240333">
        <ele>991.0</ele>
        <time>2019-08-01T06:09:50.925Z</time>
      </trkpt>
      <trkpt lat="43.01530667" lon="-1.1924">
        <ele>991.0</ele>
        <time>2019-08-01T06:09:51.932Z</time>
      </trkpt>
      <trkpt lat="43.01530833" lon="-1.19239833">
        <ele>991.0</ele>
        <time>2019-08-01T06:09:52.936Z</time>
      </trkpt>
      <trkpt lat="43.015315" lon="-1.19239667">
        <ele>990.0</ele>
        <time>2019-08-01T06:09:53.939Z</time>
      </trkpt>
      <trkpt lat="43.01532167" lon="-1.19239667">
        <ele>989.0</ele>
        <time>2019-08-01T06:09:54.945Z</time>
      </trkpt>
      <trkpt lat="43.015325" lon="-1.19239667">
        <ele>989.0</ele>
        <time>2019-08-01T06:09:55.953Z</time>
      </trkpt>
      <trkpt lat="43.01533" lon="-1.1924">
        <ele>989.0</ele>
        <time>2019-08-01T06:09:56.959Z</time>
      </trkpt>
      <trkpt lat="43.01533833" lon="-1.19239833">
        <ele>990.0</ele>
        <time>2019-08-01T06:09:57.965Z</time>
      </trkpt>
      <trkpt lat="43.01534333" lon="-1.192395">
        <ele>990.0</ele>
        <time>2019-08-01T06:09:58.971Z</time>
      </trkpt>
      <trkpt lat="43.01535" lon="-1.19238833">
        <ele>990.0</ele>
        <time>2019-08-01T06:09:59.978Z</time>
      </trkpt>
      <trkpt lat="43.01535833" lon="-1.19238833">
        <ele>990.0</ele>
        <time>2019-08-01T06:10:00.986Z</time>
      </trkpt>
      <trkpt lat="43.01536667" lon="-1.19239167">
        <ele>991.0</ele>
        <time>2019-08-01T06:10:01.992Z</time>
      </trkpt>
      <trkpt lat="43.01537" lon="-1.19239667">
        <ele>991.0</ele>
        <time>2019-08-01T06:10:02.998Z</time>
      </trkpt>
      <trkpt lat="43.01536833" lon="-1.19239">
        <ele>992.0</ele>
        <time>2019-08-01T06:10:04.004Z</time>
      </trkpt>
      <trkpt lat="43.01537" lon="-1.19237667">
        <ele>991.0</ele>
        <time>2019-08-01T06:10:05.010Z</time>
      </trkpt>
      <trkpt lat="43.01537333" lon="-1.19237167">
        <ele>991.0</ele>
        <time>2019-08-01T06:10:06.017Z</time>
      </trkpt>
      <trkpt lat="43.015375" lon="-1.19237">
        <ele>990.0</ele>
        <time>2019-08-01T06:10:07.025Z</time>
      </trkpt>
      <trkpt lat="43.01537833" lon="-1.19237167">
        <ele>990.0</ele>
        <time>2019-08-01T06:10:08.030Z</time>
      </trkpt>
      <trkpt lat="43.015385" lon="-1.19237167">
        <ele>990.0</ele>
        <time>2019-08-01T06:10:09.038Z</time>
      </trkpt>
      <trkpt lat="43.01539333" lon="-1.19237">
        <ele>990.0</ele>
        <time>2019-08-01T06:10:09.919Z</time>
      </trkpt>
      <trkpt lat="43.0154" lon="-1.19236833">
        <ele>990.0</ele>
        <time>2019-08-01T06:10:10.924Z</time>
      </trkpt>
      <trkpt lat="43.01540833" lon="-1.192365">
        <ele>990.0</ele>
        <time>2019-08-01T06:10:11.930Z</time>
      </trkpt>
      <trkpt lat="43.01541833" lon="-1.19236">
        <ele>991.0</ele>
        <time>2019-08-01T06:10:12.934Z</time>
      </trkpt>
      <trkpt lat="43.01542667" lon="-1.19235333">
        <ele>991.0</ele>
        <time>2019-08-01T06:10:13.939Z</time>
      </trkpt>
      <trkpt lat="43.01543333" lon="-1.19234667">
        <ele>992.0</ele>
        <time>2019-08-01T06:10:14.945Z</time>
      </trkpt>
      <trkpt lat="43.01544" lon="-1.19234167">
        <ele>994.0</ele>
        <time>2019-08-01T06:10:15.952Z</time>
      </trkpt>
      <trkpt lat="43.01544333" lon="-1.19234">
        <ele>995.0</ele>
        <time>2019-08-01T06:10:16.958Z</time>
      </trkpt>
      <trkpt lat="43.01545167" lon="-1.19233833">
        <ele>996.0</ele>
        <time>2019-08-01T06:10:17.961Z</time>
      </trkpt>
      <trkpt lat="43.01546167" lon="-1.192335">
        <ele>997.0</ele>
        <time>2019-08-01T06:10:18.967Z</time>
      </trkpt>
      <trkpt lat="43.01547" lon="-1.192335">
        <ele>997.0</ele>
        <time>2019-08-01T06:10:19.973Z</time>
      </trkpt>
      <trkpt lat="43.015475" lon="-1.19233833">
        <ele>998.0</ele>
        <time>2019-08-01T06:10:20.980Z</time>
      </trkpt>
      <trkpt lat="43.01548333" lon="-1.19233833">
        <ele>998.0</ele>
        <time>2019-08-01T06:10:21.986Z</time>
      </trkpt>
      <trkpt lat="43.01549" lon="-1.19234167">
        <ele>999.0</ele>
        <time>2019-08-01T06:10:22.992Z</time>
      </trkpt>
      <trkpt lat="43.01549333" lon="-1.192345">
        <ele>1000.0</ele>
        <time>2019-08-01T06:10:23.997Z</time>
      </trkpt>
      <trkpt lat="43.015495" lon="-1.19234667">
        <ele>1001.0</ele>
        <time>2019-08-01T06:10:25.002Z</time>
      </trkpt>
      <trkpt lat="43.01549667" lon="-1.19234833">
        <ele>1001.0</ele>
        <time>2019-08-01T06:10:26.008Z</time>
      </trkpt>
      <trkpt lat="43.01549667" lon="-1.19234833">
        <ele>1002.0</ele>
        <time>2019-08-01T06:10:27.013Z</time>
      </trkpt>
      <trkpt lat="43.01549667" lon="-1.19234833">
        <ele>1002.0</ele>
        <time>2019-08-01T06:10:28.019Z</time>
      </trkpt>
      <trkpt lat="43.0155" lon="-1.19234667">
        <ele>1001.0</ele>
        <time>2019-08-01T06:10:29.023Z</time>
      </trkpt>
      <trkpt lat="43.01550333" lon="-1.19234333">
        <ele>1001.0</ele>
        <time>2019-08-01T06:10:30.027Z</time>
      </trkpt>
      <trkpt lat="43.01550833" lon="-1.192345">
        <ele>1001.0</ele>
        <time>2019-08-01T06:10:31.034Z</time>
      </trkpt>
      <trkpt lat="43.01551167" lon="-1.192345">
        <ele>1002.0</ele>
        <time>2019-08-01T06:10:32.039Z</time>
      </trkpt>
      <trkpt lat="43.01550833" lon="-1.19233667">
        <ele>1002.0</ele>
        <time>2019-08-01T06:10:32.919Z</time>
      </trkpt>
      <trkpt lat="43.01551167" lon="-1.19233667">
        <ele>1003.0</ele>
        <time>2019-08-01T06:10:33.926Z</time>
      </trkpt>
      <trkpt lat="43.015515" lon="-1.19233833">
        <ele>1003.0</ele>
        <time>2019-08-01T06:10:34.933Z</time>
      </trkpt>
      <trkpt lat="43.01551833" lon="-1.19234333">
        <ele>1004.0</ele>
        <time>2019-08-01T06:10:35.939Z</time>
      </trkpt>
      <trkpt lat="43.01552167" lon="-1.19234333">
        <ele>1004.0</ele>
        <time>2019-08-01T06:10:36.944Z</time>
      </trkpt>
      <trkpt lat="43.01552" lon="-1.19234">
        <ele>1004.0</ele>
        <time>2019-08-01T06:10:37.949Z</time>
      </trkpt>
      <trkpt lat="43.01552167" lon="-1.19234">
        <ele>1003.0</ele>
        <time>2019-08-01T06:10:38.954Z</time>
      </trkpt>
      <trkpt lat="43.01552667" lon="-1.19233667">
        <ele>1004.0</ele>
        <time>2019-08-01T06:10:39.961Z</time>
      </trkpt>
      <trkpt lat="43.01552833" lon="-1.19233333">
        <ele>1004.0</ele>
        <time>2019-08-01T06:10:40.966Z</time>
      </trkpt>
      <trkpt lat="43.015525" lon="-1.19232667">
        <ele>1005.0</ele>
        <time>2019-08-01T06:10:41.972Z</time>
      </trkpt>
      <trkpt lat="43.01552833" lon="-1.19233">
        <ele>1005.0</ele>
        <time>2019-08-01T06:10:42.978Z</time>
      </trkpt>
      <trkpt lat="43.01553" lon="-1.19232667">
        <ele>1005.0</ele>
        <time>2019-08-01T06:10:43.983Z</time>
      </trkpt>
      <trkpt lat="43.01553167" lon="-1.19232">
        <ele>1005.0</ele>
        <time>2019-08-01T06:10:44.987Z</time>
      </trkpt>
      <trkpt lat="43.01553" lon="-1.192315">
        <ele>1005.0</ele>
        <time>2019-08-01T06:10:45.994Z</time>
      </trkpt>
      <trkpt lat="43.01553167" lon="-1.19230833">
        <ele>1004.0</ele>
        <time>2019-08-01T06:10:47.001Z</time>
      </trkpt>
      <trkpt lat="43.01553167" lon="-1.19230833">
        <ele>1004.0</ele>
        <time>2019-08-01T06:10:48.005Z</time>
      </trkpt>
      <trkpt lat="43.01553167" lon="-1.19231167">
        <ele>1004.0</ele>
        <time>2019-08-01T06:10:49.010Z</time>
      </trkpt>
      <trkpt lat="43.01553" lon="-1.19231333">
        <ele>1006.0</ele>
        <time>2019-08-01T06:10:50.016Z</time>
      </trkpt>
      <trkpt lat="43.01553167" lon="-1.19231667">
        <ele>1007.0</ele>
        <time>2019-08-01T06:10:51.022Z</time>
      </trkpt>
      <trkpt lat="43.01553333" lon="-1.19231833">
        <ele>1008.0</ele>
        <time>2019-08-01T06:10:52.027Z</time>
      </trkpt>
      <trkpt lat="43.01553667" lon="-1.19232">
        <ele>1009.0</ele>
        <time>2019-08-01T06:10:53.035Z</time>
      </trkpt>
      <trkpt lat="43.01554167" lon="-1.19232167">
        <ele>1010.0</ele>
        <time>2019-08-01T06:10:54.041Z</time>
      </trkpt>
      <trkpt lat="43.01554333" lon="-1.19232167">
        <ele>1010.0</ele>
        <time>2019-08-01T06:10:54.921Z</time>
      </trkpt>
      <trkpt lat="43.01555" lon="-1.19232333">
        <ele>1010.0</ele>
        <time>2019-08-01T06:10:55.925Z</time>
      </trkpt>
      <trkpt lat="43.015555" lon="-1.19232333">
        <ele>1010.0</ele>
        <time>2019-08-01T06:10:56.929Z</time>
      </trkpt>
      <trkpt lat="43.01556" lon="-1.19232333">
        <ele>1012.0</ele>
        <time>2019-08-01T06:10:57.936Z</time>
      </trkpt>
      <trkpt lat="43.01556667" lon="-1.19232833">
        <ele>1013.0</ele>
        <time>2019-08-01T06:10:58.942Z</time>
      </trkpt>
      <trkpt lat="43.01557" lon="-1.19233">
        <ele>1013.0</ele>
        <time>2019-08-01T06:10:59.948Z</time>
      </trkpt>
      <trkpt lat="43.015575" lon="-1.19233333">
        <ele>1014.0</ele>
        <time>2019-08-01T06:11:00.953Z</time>
      </trkpt>
      <trkpt lat="43.01558167" lon="-1.192335">
        <ele>1014.0</ele>
        <time>2019-08-01T06:11:01.956Z</time>
      </trkpt>
      <trkpt lat="43.015585" lon="-1.192335">
        <ele>1014.0</ele>
        <time>2019-08-01T06:11:02.962Z</time>
      </trkpt>
      <trkpt lat="43.01558667" lon="-1.19233333">
        <ele>1013.0</ele>
        <time>2019-08-01T06:11:03.969Z</time>
      </trkpt>
      <trkpt lat="43.01559333" lon="-1.19233333">
        <ele>1012.0</ele>
        <time>2019-08-01T06:11:04.973Z</time>
      </trkpt>
      <trkpt lat="43.01559833" lon="-1.19233167">
        <ele>1012.0</ele>
        <time>2019-08-01T06:11:05.980Z</time>
      </trkpt>
      <trkpt lat="43.01560333" lon="-1.19233">
        <ele>1012.0</ele>
        <time>2019-08-01T06:11:06.986Z</time>
      </trkpt>
      <trkpt lat="43.01560667" lon="-1.19233">
        <ele>1012.0</ele>
        <time>2019-08-01T06:11:07.991Z</time>
      </trkpt>
      <trkpt lat="43.015615" lon="-1.19233333">
        <ele>1013.0</ele>
        <time>2019-08-01T06:11:08.995Z</time>
      </trkpt>
      <trkpt lat="43.01562167" lon="-1.19233667">
        <ele>1014.0</ele>
        <time>2019-08-01T06:11:10.001Z</time>
      </trkpt>
      <trkpt lat="43.01562667" lon="-1.19234">
        <ele>1014.0</ele>
        <time>2019-08-01T06:11:11.007Z</time>
      </trkpt>
      <trkpt lat="43.01563" lon="-1.19233833">
        <ele>1014.0</ele>
        <time>2019-08-01T06:11:12.014Z</time>
      </trkpt>
      <trkpt lat="43.01563667" lon="-1.19233167">
        <ele>1014.0</ele>
        <time>2019-08-01T06:11:13.020Z</time>
      </trkpt>
      <trkpt lat="43.01564833" lon="-1.192325">
        <ele>1014.0</ele>
        <time>2019-08-01T06:11:14.027Z</time>
      </trkpt>
      <trkpt lat="43.01566" lon="-1.19232333">
        <ele>1014.0</ele>
        <time>2019-08-01T06:11:15.034Z</time>
      </trkpt>
      <trkpt lat="43.01567167" lon="-1.19232167">
        <ele>1015.0</ele>
        <time>2019-08-01T06:11:16.040Z</time>
      </trkpt>
      <trkpt lat="43.01568" lon="-1.19232167">
        <ele>1015.0</ele>
        <time>2019-08-01T06:11:16.921Z</time>
      </trkpt>
      <trkpt lat="43.01569" lon="-1.19231833">
        <ele>1014.0</ele>
        <time>2019-08-01T06:11:17.925Z</time>
      </trkpt>
      <trkpt lat="43.01569667" lon="-1.192315">
        <ele>1014.0</ele>
        <time>2019-08-01T06:11:18.930Z</time>
      </trkpt>
      <trkpt lat="43.01570333" lon="-1.19231">
        <ele>1013.0</ele>
        <time>2019-08-01T06:11:19.936Z</time>
      </trkpt>
      <trkpt lat="43.01571" lon="-1.192305">
        <ele>1012.0</ele>
        <time>2019-08-01T06:11:20.941Z</time>
      </trkpt>
      <trkpt lat="43.01571167" lon="-1.192295">
        <ele>1012.0</ele>
        <time>2019-08-01T06:11:21.947Z</time>
      </trkpt>
      <trkpt lat="43.015715" lon="-1.19228667">
        <ele>1011.0</ele>
        <time>2019-08-01T06:11:22.952Z</time>
      </trkpt>
      <trkpt lat="43.01572167" lon="-1.19228167">
        <ele>1010.0</ele>
        <time>2019-08-01T06:11:23.957Z</time>
      </trkpt>
      <trkpt lat="43.01572667" lon="-1.19227667">
        <ele>1010.0</ele>
        <time>2019-08-01T06:11:24.963Z</time>
      </trkpt>
      <trkpt lat="43.01573667" lon="-1.19227">
        <ele>1010.0</ele>
        <time>2019-08-01T06:11:25.968Z</time>
      </trkpt>
      <trkpt lat="43.01575" lon="-1.19226333">
        <ele>1010.0</ele>
        <time>2019-08-01T06:11:26.973Z</time>
      </trkpt>
      <trkpt lat="43.01576167" lon="-1.19225333">
        <ele>1010.0</ele>
        <time>2019-08-01T06:11:27.976Z</time>
      </trkpt>
      <trkpt lat="43.01577333" lon="-1.19224667">
        <ele>1010.0</ele>
        <time>2019-08-01T06:11:28.979Z</time>
      </trkpt>
      <trkpt lat="43.01578833" lon="-1.19223667">
        <ele>1010.0</ele>
        <time>2019-08-01T06:11:29.983Z</time>
      </trkpt>
      <trkpt lat="43.01579667" lon="-1.192225">
        <ele>1009.0</ele>
        <time>2019-08-01T06:11:30.988Z</time>
      </trkpt>
      <trkpt lat="43.01580333" lon="-1.19220667">
        <ele>1008.0</ele>
        <time>2019-08-01T06:11:31.993Z</time>
      </trkpt>
      <trkpt lat="43.01580667" lon="-1.19219167">
        <ele>1008.0</ele>
        <time>2019-08-01T06:11:32.999Z</time>
      </trkpt>
      <trkpt lat="43.01581667" lon="-1.19217833">
        <ele>1008.0</ele>
        <time>2019-08-01T06:11:34.004Z</time>
      </trkpt>
      <trkpt lat="43.01582167" lon="-1.192165">
        <ele>1007.0</ele>
        <time>2019-08-01T06:11:35.011Z</time>
      </trkpt>
      <trkpt lat="43.01583" lon="-1.19215333">
        <ele>1006.0</ele>
        <time>2019-08-01T06:11:36.018Z</time>
      </trkpt>
      <trkpt lat="43.01584" lon="-1.19214">
        <ele>1007.0</ele>
        <time>2019-08-01T06:11:37.022Z</time>
      </trkpt>
      <trkpt lat="43.01584333" lon="-1.19212667">
        <ele>1007.0</ele>
        <time>2019-08-01T06:11:38.026Z</time>
      </trkpt>
      <trkpt lat="43.01585" lon="-1.19211">
        <ele>1006.0</ele>
        <time>2019-08-01T06:11:39.030Z</time>
      </trkpt>
      <trkpt lat="43.01585333" lon="-1.1921">
        <ele>1006.0</ele>
        <time>2019-08-01T06:11:40.036Z</time>
      </trkpt>
      <trkpt lat="43.015855" lon="-1.19209333">
        <ele>1005.0</ele>
        <time>2019-08-01T06:11:41.043Z</time>
      </trkpt>
      <trkpt lat="43.01586" lon="-1.19209333">
        <ele>1005.0</ele>
        <time>2019-08-01T06:11:41.922Z</time>
      </trkpt>
      <trkpt lat="43.015855" lon="-1.19209167">
        <ele>1004.0</ele>
        <time>2019-08-01T06:11:42.928Z</time>
      </trkpt>
      <trkpt lat="43.01585667" lon="-1.19209333">
        <ele>1004.0</ele>
        <time>2019-08-01T06:11:43.935Z</time>
      </trkpt>
      <trkpt lat="43.01585667" lon="-1.19209333">
        <ele>1004.0</ele>
        <time>2019-08-01T06:11:44.943Z</time>
      </trkpt>
      <trkpt lat="43.015855" lon="-1.19208667">
        <ele>1003.0</ele>
        <time>2019-08-01T06:11:45.950Z</time>
      </trkpt>
      <trkpt lat="43.01585333" lon="-1.19208667">
        <ele>1003.0</ele>
        <time>2019-08-01T06:11:46.957Z</time>
      </trkpt>
      <trkpt lat="43.01585333" lon="-1.19208667">
        <ele>1003.0</ele>
        <time>2019-08-01T06:11:47.960Z</time>
      </trkpt>
      <trkpt lat="43.015855" lon="-1.19208667">
        <ele>1002.0</ele>
        <time>2019-08-01T06:11:48.964Z</time>
      </trkpt>
      <trkpt lat="43.01585667" lon="-1.19208833">
        <ele>1002.0</ele>
        <time>2019-08-01T06:11:49.969Z</time>
      </trkpt>
      <trkpt lat="43.01585667" lon="-1.19208667">
        <ele>1001.0</ele>
        <time>2019-08-01T06:11:50.975Z</time>
      </trkpt>
      <trkpt lat="43.01585667" lon="-1.19208167">
        <ele>1001.0</ele>
        <time>2019-08-01T06:11:51.981Z</time>
      </trkpt>
      <trkpt lat="43.01585333" lon="-1.19208">
        <ele>1001.0</ele>
        <time>2019-08-01T06:11:52.989Z</time>
      </trkpt>
      <trkpt lat="43.01585167" lon="-1.19207833">
        <ele>1000.0</ele>
        <time>2019-08-01T06:11:53.995Z</time>
      </trkpt>
      <trkpt lat="43.01585" lon="-1.192075">
        <ele>1000.0</ele>
        <time>2019-08-01T06:11:55.000Z</time>
      </trkpt>
      <trkpt lat="43.01585" lon="-1.19207167">
        <ele>1000.0</ele>
        <time>2019-08-01T06:11:56.006Z</time>
      </trkpt>
      <trkpt lat="43.01585167" lon="-1.19207167">
        <ele>1000.0</ele>
        <time>2019-08-01T06:11:57.012Z</time>
      </trkpt>
      <trkpt lat="43.01585167" lon="-1.19207">
        <ele>1000.0</ele>
        <time>2019-08-01T06:11:58.018Z</time>
      </trkpt>
      <trkpt lat="43.01585" lon="-1.19207">
        <ele>1000.0</ele>
        <time>2019-08-01T06:11:59.023Z</time>
      </trkpt>
      <trkpt lat="43.01585167" lon="-1.19206667">
        <ele>1000.0</ele>
        <time>2019-08-01T06:12:00.029Z</time>
      </trkpt>
      <trkpt lat="43.01585333" lon="-1.192065">
        <ele>999.0</ele>
        <time>2019-08-01T06:12:01.037Z</time>
      </trkpt>
      <trkpt lat="43.01585667" lon="-1.19205833">
        <ele>999.0</ele>
        <time>2019-08-01T06:12:02.041Z</time>
      </trkpt>
      <trkpt lat="43.01585667" lon="-1.19205667">
        <ele>998.0</ele>
        <time>2019-08-01T06:12:02.920Z</time>
      </trkpt>
      <trkpt lat="43.01585667" lon="-1.19205667">
        <ele>998.0</ele>
        <time>2019-08-01T06:12:03.926Z</time>
      </trkpt>
      <trkpt lat="43.015855" lon="-1.19205833">
        <ele>998.0</ele>
        <time>2019-08-01T06:12:04.933Z</time>
      </trkpt>
      <trkpt lat="43.015855" lon="-1.19206">
        <ele>998.0</ele>
        <time>2019-08-01T06:12:05.941Z</time>
      </trkpt>
      <trkpt lat="43.01585333" lon="-1.19206">
        <ele>998.0</ele>
        <time>2019-08-01T06:12:06.947Z</time>
      </trkpt>
      <trkpt lat="43.015855" lon="-1.19206">
        <ele>998.0</ele>
        <time>2019-08-01T06:12:07.951Z</time>
      </trkpt>
      <trkpt lat="43.01585333" lon="-1.19206">
        <ele>998.0</ele>
        <time>2019-08-01T06:12:08.956Z</time>
      </trkpt>
      <trkpt lat="43.015855" lon="-1.19206">
        <ele>999.0</ele>
        <time>2019-08-01T06:12:09.962Z</time>
      </trkpt>
      <trkpt lat="43.015855" lon="-1.19206">
        <ele>999.0</ele>
        <time>2019-08-01T06:12:10.968Z</time>
      </trkpt>
      <trkpt lat="43.01585833" lon="-1.19206333">
        <ele>999.0</ele>
        <time>2019-08-01T06:12:11.972Z</time>
      </trkpt>
      <trkpt lat="43.01586667" lon="-1.192065">
        <ele>1000.0</ele>
        <time>2019-08-01T06:12:12.976Z</time>
      </trkpt>
      <trkpt lat="43.01587333" lon="-1.19206333">
        <ele>1001.0</ele>
        <time>2019-08-01T06:12:13.980Z</time>
      </trkpt>
      <trkpt lat="43.01588667" lon="-1.19205833">
        <ele>1001.0</ele>
        <time>2019-08-01T06:12:14.986Z</time>
      </trkpt>
      <trkpt lat="43.015895" lon="-1.192055">
        <ele>1001.0</ele>
        <time>2019-08-01T06:12:15.989Z</time>
      </trkpt>
      <trkpt lat="43.01590667" lon="-1.19204833">
        <ele>1001.0</ele>
        <time>2019-08-01T06:12:16.997Z</time>
      </trkpt>
      <trkpt lat="43.01592" lon="-1.19204167">
        <ele>1002.0</ele>
        <time>2019-08-01T06:12:18.003Z</time>
      </trkpt>
      <trkpt lat="43.01593" lon="-1.19203833">
        <ele>1002.0</ele>
        <time>2019-08-01T06:12:19.010Z</time>
      </trkpt>
      <trkpt lat="43.01594167" lon="-1.19203333">
        <ele>1003.0</ele>
        <time>2019-08-01T06:12:20.016Z</time>
      </trkpt>
      <trkpt lat="43.01595167" lon="-1.19202833">
        <ele>1003.0</ele>
        <time>2019-08-01T06:12:21.022Z</time>
      </trkpt>
      <trkpt lat="43.01596333" lon="-1.19202167">
        <ele>1003.0</ele>
        <time>2019-08-01T06:12:22.027Z</time>
      </trkpt>
      <trkpt lat="43.015975" lon="-1.192015">
        <ele>1004.0</ele>
        <time>2019-08-01T06:12:23.032Z</time>
      </trkpt>
      <trkpt lat="43.01598667" lon="-1.19201167">
        <ele>1004.0</ele>
        <time>2019-08-01T06:12:24.039Z</time>
      </trkpt>
      <trkpt lat="43.016" lon="-1.192005">
        <ele>1005.0</ele>
        <time>2019-08-01T06:12:24.919Z</time>
      </trkpt>
      <trkpt lat="43.01601" lon="-1.19199833">
        <ele>1005.0</ele>
        <time>2019-08-01T06:12:25.924Z</time>
      </trkpt>
      <trkpt lat="43.01602167" lon="-1.19199667">
        <ele>1006.0</ele>
        <time>2019-08-01T06:12:26.932Z</time>
      </trkpt>
      <trkpt lat="43.01603167" lon="-1.19199167">
        <ele>1006.0</ele>
        <time>2019-08-01T06:12:27.939Z</time>
      </trkpt>
      <trkpt lat="43.016045" lon="-1.19198667">
        <ele>1007.0</ele>
        <time>2019-08-01T06:12:28.943Z</time>
      </trkpt>
      <trkpt lat="43.01606" lon="-1.19197833">
        <ele>1006.0</ele>
        <time>2019-08-01T06:12:29.949Z</time>
      </trkpt>
      <trkpt lat="43.01607167" lon="-1.19197167">
        <ele>1006.0</ele>
        <time>2019-08-01T06:12:30.954Z</time>
      </trkpt>
      <trkpt lat="43.01608333" lon="-1.19197">
        <ele>1006.0</ele>
        <time>2019-08-01T06:12:31.959Z</time>
      </trkpt>
      <trkpt lat="43.016095" lon="-1.19196167">
        <ele>1006.0</ele>
        <time>2019-08-01T06:12:32.966Z</time>
      </trkpt>
      <trkpt lat="43.01610167" lon="-1.191955">
        <ele>1006.0</ele>
        <time>2019-08-01T06:12:33.970Z</time>
      </trkpt>
      <trkpt lat="43.01611333" lon="-1.19194667">
        <ele>1006.0</ele>
        <time>2019-08-01T06:12:34.976Z</time>
      </trkpt>
      <trkpt lat="43.01612" lon="-1.191935">
        <ele>1006.0</ele>
        <time>2019-08-01T06:12:35.984Z</time>
      </trkpt>
      <trkpt lat="43.01613167" lon="-1.191925">
        <ele>1006.0</ele>
        <time>2019-08-01T06:12:36.989Z</time>
      </trkpt>
      <trkpt lat="43.01614" lon="-1.19191833">
        <ele>1006.0</ele>
        <time>2019-08-01T06:12:37.996Z</time>
      </trkpt>
      <trkpt lat="43.01615167" lon="-1.19191167">
        <ele>1005.0</ele>
        <time>2019-08-01T06:12:39.002Z</time>
      </trkpt>
      <trkpt lat="43.01616" lon="-1.191905">
        <ele>1005.0</ele>
        <time>2019-08-01T06:12:40.007Z</time>
      </trkpt>
      <trkpt lat="43.01617167" lon="-1.19190167">
        <ele>1005.0</ele>
        <time>2019-08-01T06:12:41.012Z</time>
      </trkpt>
      <trkpt lat="43.01618167" lon="-1.191895">
        <ele>1004.0</ele>
        <time>2019-08-01T06:12:42.017Z</time>
      </trkpt>
      <trkpt lat="43.01619333" lon="-1.19188667">
        <ele>1004.0</ele>
        <time>2019-08-01T06:12:43.025Z</time>
      </trkpt>
      <trkpt lat="43.01620167" lon="-1.19188167">
        <ele>1004.0</ele>
        <time>2019-08-01T06:12:44.031Z</time>
      </trkpt>
      <trkpt lat="43.01621" lon="-1.19187333">
        <ele>1003.0</ele>
        <time>2019-08-01T06:12:45.037Z</time>
      </trkpt>
      <trkpt lat="43.01621667" lon="-1.19186833">
        <ele>1003.0</ele>
        <time>2019-08-01T06:12:46.042Z</time>
      </trkpt>
      <trkpt lat="43.01622333" lon="-1.19185833">
        <ele>1004.0</ele>
        <time>2019-08-01T06:12:46.921Z</time>
      </trkpt>
      <trkpt lat="43.01622333" lon="-1.19184833">
        <ele>1004.0</ele>
        <time>2019-08-01T06:12:47.925Z</time>
      </trkpt>
      <trkpt lat="43.016225" lon="-1.19184167">
        <ele>1004.0</ele>
        <time>2019-08-01T06:12:48.933Z</time>
      </trkpt>
      <trkpt lat="43.01623" lon="-1.19183833">
        <ele>1004.0</ele>
        <time>2019-08-01T06:12:49.939Z</time>
      </trkpt>
      <trkpt lat="43.01623667" lon="-1.19183">
        <ele>1004.0</ele>
        <time>2019-08-01T06:12:50.942Z</time>
      </trkpt>
      <trkpt lat="43.01624333" lon="-1.19182167">
        <ele>1003.0</ele>
        <time>2019-08-01T06:12:51.948Z</time>
      </trkpt>
      <trkpt lat="43.01625" lon="-1.19182">
        <ele>1003.0</ele>
        <time>2019-08-01T06:12:52.955Z</time>
      </trkpt>
      <trkpt lat="43.01625833" lon="-1.19181833">
        <ele>1003.0</ele>
        <time>2019-08-01T06:12:53.961Z</time>
      </trkpt>
      <trkpt lat="43.01626" lon="-1.191815">
        <ele>1004.0</ele>
        <time>2019-08-01T06:12:54.966Z</time>
      </trkpt>
      <trkpt lat="43.01626667" lon="-1.19181333">
        <ele>1004.0</ele>
        <time>2019-08-01T06:12:55.972Z</time>
      </trkpt>
      <trkpt lat="43.01627333" lon="-1.19181333">
        <ele>1004.0</ele>
        <time>2019-08-01T06:12:56.978Z</time>
      </trkpt>
      <trkpt lat="43.01627667" lon="-1.19181167">
        <ele>1005.0</ele>
        <time>2019-08-01T06:12:57.985Z</time>
      </trkpt>
      <trkpt lat="43.01627667" lon="-1.19180833">
        <ele>1005.0</ele>
        <time>2019-08-01T06:12:58.992Z</time>
      </trkpt>
      <trkpt lat="43.01628333" lon="-1.19180667">
        <ele>1004.0</ele>
        <time>2019-08-01T06:12:59.999Z</time>
      </trkpt>
      <trkpt lat="43.01629333" lon="-1.19180833">
        <ele>1003.0</ele>
        <time>2019-08-01T06:13:01.004Z</time>
      </trkpt>
      <trkpt lat="43.0163" lon="-1.19181">
        <ele>1003.0</ele>
        <time>2019-08-01T06:13:02.009Z</time>
      </trkpt>
      <trkpt lat="43.0163" lon="-1.19180667">
        <ele>1002.0</ele>
        <time>2019-08-01T06:13:03.017Z</time>
      </trkpt>
      <trkpt lat="43.016305" lon="-1.191805">
        <ele>1003.0</ele>
        <time>2019-08-01T06:13:04.023Z</time>
      </trkpt>
      <trkpt lat="43.01631" lon="-1.19180333">
        <ele>1003.0</ele>
        <time>2019-08-01T06:13:05.026Z</time>
      </trkpt>
      <trkpt lat="43.016315" lon="-1.19180167">
        <ele>1003.0</ele>
        <time>2019-08-01T06:13:06.032Z</time>
      </trkpt>
      <trkpt lat="43.01632167" lon="-1.19179833">
        <ele>1003.0</ele>
        <time>2019-08-01T06:13:07.037Z</time>
      </trkpt>
      <trkpt lat="43.01633167" lon="-1.19179667">
        <ele>1004.0</ele>
        <time>2019-08-01T06:13:08.039Z</time>
      </trkpt>
      <trkpt lat="43.01633667" lon="-1.191795">
        <ele>1004.0</ele>
        <time>2019-08-01T06:13:08.918Z</time>
      </trkpt>
      <trkpt lat="43.01634167" lon="-1.19179667">
        <ele>1004.0</ele>
        <time>2019-08-01T06:13:09.921Z</time>
      </trkpt>
      <trkpt lat="43.01634833" lon="-1.191795">
        <ele>1004.0</ele>
        <time>2019-08-01T06:13:10.925Z</time>
      </trkpt>
      <trkpt lat="43.01635167" lon="-1.19179">
        <ele>1004.0</ele>
        <time>2019-08-01T06:13:11.931Z</time>
      </trkpt>
      <trkpt lat="43.016355" lon="-1.19178333">
        <ele>1003.0</ele>
        <time>2019-08-01T06:13:12.936Z</time>
      </trkpt>
      <trkpt lat="43.01635833" lon="-1.19178167">
        <ele>1003.0</ele>
        <time>2019-08-01T06:13:13.943Z</time>
      </trkpt>
      <trkpt lat="43.01636" lon="-1.191775">
        <ele>1002.0</ele>
        <time>2019-08-01T06:13:14.950Z</time>
      </trkpt>
      <trkpt lat="43.01636" lon="-1.191775">
        <ele>1003.0</ele>
        <time>2019-08-01T06:13:15.956Z</time>
      </trkpt>
      <trkpt lat="43.016365" lon="-1.19177167">
        <ele>1003.0</ele>
        <time>2019-08-01T06:13:16.963Z</time>
      </trkpt>
      <trkpt lat="43.016365" lon="-1.19176167">
        <ele>1003.0</ele>
        <time>2019-08-01T06:13:17.970Z</time>
      </trkpt>
      <trkpt lat="43.01636833" lon="-1.19175167">
        <ele>1002.0</ele>
        <time>2019-08-01T06:13:18.978Z</time>
      </trkpt>
      <trkpt lat="43.01637167" lon="-1.19174">
        <ele>1002.0</ele>
        <time>2019-08-01T06:13:19.984Z</time>
      </trkpt>
      <trkpt lat="43.01638167" lon="-1.19173167">
        <ele>1001.0</ele>
        <time>2019-08-01T06:13:20.991Z</time>
      </trkpt>
      <trkpt lat="43.01638833" lon="-1.191725">
        <ele>1000.0</ele>
        <time>2019-08-01T06:13:21.995Z</time>
      </trkpt>
      <trkpt lat="43.01639833" lon="-1.19171833">
        <ele>1000.0</ele>
        <time>2019-08-01T06:13:22.998Z</time>
      </trkpt>
      <trkpt lat="43.016405" lon="-1.19171333">
        <ele>1000.0</ele>
        <time>2019-08-01T06:13:24.000Z</time>
      </trkpt>
      <trkpt lat="43.01641167" lon="-1.19171">
        <ele>1000.0</ele>
        <time>2019-08-01T06:13:25.003Z</time>
      </trkpt>
      <trkpt lat="43.01641167" lon="-1.191705">
        <ele>999.0</ele>
        <time>2019-08-01T06:13:26.008Z</time>
      </trkpt>
      <trkpt lat="43.01641333" lon="-1.19169833">
        <ele>998.0</ele>
        <time>2019-08-01T06:13:27.013Z</time>
      </trkpt>
      <trkpt lat="43.01641333" lon="-1.19168833">
        <ele>997.0</ele>
        <time>2019-08-01T06:13:28.019Z</time>
      </trkpt>
      <trkpt lat="43.016425" lon="-1.191685">
        <ele>996.0</ele>
        <time>2019-08-01T06:13:29.027Z</time>
      </trkpt>
      <trkpt lat="43.01643333" lon="-1.19167833">
        <ele>996.0</ele>
        <time>2019-08-01T06:13:30.034Z</time>
      </trkpt>
      <trkpt lat="43.01644167" lon="-1.19167167">
        <ele>997.0</ele>
        <time>2019-08-01T06:13:31.039Z</time>
      </trkpt>
      <trkpt lat="43.01645" lon="-1.19167">
        <ele>996.0</ele>
        <time>2019-08-01T06:13:31.919Z</time>
      </trkpt>
      <trkpt lat="43.01646667" lon="-1.191665">
        <ele>995.0</ele>
        <time>2019-08-01T06:13:32.924Z</time>
      </trkpt>
      <trkpt lat="43.01648" lon="-1.19166333">
        <ele>995.0</ele>
        <time>2019-08-01T06:13:33.931Z</time>
      </trkpt>
      <trkpt lat="43.01648167" lon="-1.19165833">
        <ele>995.0</ele>
        <time>2019-08-01T06:13:34.935Z</time>
      </trkpt>
      <trkpt lat="43.01648667" lon="-1.19165167">
        <ele>995.0</ele>
        <time>2019-08-01T06:13:35.942Z</time>
      </trkpt>
      <trkpt lat="43.0165" lon="-1.19165">
        <ele>994.0</ele>
        <time>2019-08-01T06:13:36.948Z</time>
      </trkpt>
      <trkpt lat="43.016505" lon="-1.19165">
        <ele>993.0</ele>
        <time>2019-08-01T06:13:37.954Z</time>
      </trkpt>
      <trkpt lat="43.01651" lon="-1.19164833">
        <ele>993.0</ele>
        <time>2019-08-01T06:13:38.960Z</time>
      </trkpt>
      <trkpt lat="43.01651667" lon="-1.19165">
        <ele>993.0</ele>
        <time>2019-08-01T06:13:39.967Z</time>
      </trkpt>
      <trkpt lat="43.01652" lon="-1.19165">
        <ele>993.0</ele>
        <time>2019-08-01T06:13:40.972Z</time>
      </trkpt>
      <trkpt lat="43.01652667" lon="-1.19165">
        <ele>994.0</ele>
        <time>2019-08-01T06:13:41.978Z</time>
      </trkpt>
      <trkpt lat="43.01653167" lon="-1.191645">
        <ele>994.0</ele>
        <time>2019-08-01T06:13:42.983Z</time>
      </trkpt>
      <trkpt lat="43.01653333" lon="-1.19164167">
        <ele>994.0</ele>
        <time>2019-08-01T06:13:43.988Z</time>
      </trkpt>
      <trkpt lat="43.01653333" lon="-1.19164167">
        <ele>996.0</ele>
        <time>2019-08-01T06:13:44.996Z</time>
      </trkpt>
      <trkpt lat="43.016535" lon="-1.19164">
        <ele>997.0</ele>
        <time>2019-08-01T06:13:46.002Z</time>
      </trkpt>
      <trkpt lat="43.016535" lon="-1.19163833">
        <ele>998.0</ele>
        <time>2019-08-01T06:13:47.008Z</time>
      </trkpt>
      <trkpt lat="43.016535" lon="-1.191635">
        <ele>997.0</ele>
        <time>2019-08-01T06:13:48.015Z</time>
      </trkpt>
      <trkpt lat="43.01653667" lon="-1.19162833">
        <ele>997.0</ele>
        <time>2019-08-01T06:13:49.021Z</time>
      </trkpt>
      <trkpt lat="43.016535" lon="-1.19162333">
        <ele>997.0</ele>
        <time>2019-08-01T06:13:50.029Z</time>
      </trkpt>
      <trkpt lat="43.01654" lon="-1.19162167">
        <ele>996.0</ele>
        <time>2019-08-01T06:13:51.037Z</time>
      </trkpt>
      <trkpt lat="43.01654167" lon="-1.19161833">
        <ele>997.0</ele>
        <time>2019-08-01T06:13:51.919Z</time>
      </trkpt>
      <trkpt lat="43.01654333" lon="-1.19161333">
        <ele>996.0</ele>
        <time>2019-08-01T06:13:52.925Z</time>
      </trkpt>
      <trkpt lat="43.01653833" lon="-1.19160833">
        <ele>996.0</ele>
        <time>2019-08-01T06:13:53.932Z</time>
      </trkpt>
      <trkpt lat="43.01653333" lon="-1.19160333">
        <ele>996.0</ele>
        <time>2019-08-01T06:13:54.938Z</time>
      </trkpt>
      <trkpt lat="43.01652833" lon="-1.19159667">
        <ele>996.0</ele>
        <time>2019-08-01T06:13:55.942Z</time>
      </trkpt>
      <trkpt lat="43.01652833" lon="-1.191595">
        <ele>997.0</ele>
        <time>2019-08-01T06:13:56.948Z</time>
      </trkpt>
      <trkpt lat="43.01653167" lon="-1.19159167">
        <ele>997.0</ele>
        <time>2019-08-01T06:13:57.954Z</time>
      </trkpt>
      <trkpt lat="43.016535" lon="-1.19159">
        <ele>998.0</ele>
        <time>2019-08-01T06:13:58.960Z</time>
      </trkpt>
      <trkpt lat="43.01653833" lon="-1.19158667">
        <ele>998.0</ele>
        <time>2019-08-01T06:13:59.965Z</time>
      </trkpt>
      <trkpt lat="43.01654" lon="-1.19158167">
        <ele>998.0</ele>
        <time>2019-08-01T06:14:00.970Z</time>
      </trkpt>
      <trkpt lat="43.01654333" lon="-1.19157667">
        <ele>999.0</ele>
        <time>2019-08-01T06:14:01.974Z</time>
      </trkpt>
      <trkpt lat="43.01654667" lon="-1.19157667">
        <ele>999.0</ele>
        <time>2019-08-01T06:14:02.980Z</time>
      </trkpt>
      <trkpt lat="43.01654667" lon="-1.191575">
        <ele>999.0</ele>
        <time>2019-08-01T06:14:03.985Z</time>
      </trkpt>
      <trkpt lat="43.01655" lon="-1.19157833">
        <ele>1000.0</ele>
        <time>2019-08-01T06:14:04.990Z</time>
      </trkpt>
      <trkpt lat="43.01655333" lon="-1.19158">
        <ele>1000.0</ele>
        <time>2019-08-01T06:14:05.998Z</time>
      </trkpt>
      <trkpt lat="43.01655667" lon="-1.19158167">
        <ele>1000.0</ele>
        <time>2019-08-01T06:14:07.002Z</time>
      </trkpt>
      <trkpt lat="43.016555" lon="-1.19158333">
        <ele>1001.0</ele>
        <time>2019-08-01T06:14:08.008Z</time>
      </trkpt>
      <trkpt lat="43.016555" lon="-1.191585">
        <ele>1001.0</ele>
        <time>2019-08-01T06:14:09.014Z</time>
      </trkpt>
      <trkpt lat="43.01655667" lon="-1.191585">
        <ele>1001.0</ele>
        <time>2019-08-01T06:14:10.022Z</time>
      </trkpt>
      <trkpt lat="43.01655667" lon="-1.19158167">
        <ele>1002.0</ele>
        <time>2019-08-01T06:14:11.027Z</time>
      </trkpt>
      <trkpt lat="43.016555" lon="-1.19157667">
        <ele>1002.0</ele>
        <time>2019-08-01T06:14:12.034Z</time>
      </trkpt>
      <trkpt lat="43.01655333" lon="-1.191575">
        <ele>1002.0</ele>
        <time>2019-08-01T06:14:13.039Z</time>
      </trkpt>
      <trkpt lat="43.01655333" lon="-1.19157333">
        <ele>1003.0</ele>
        <time>2019-08-01T06:14:13.919Z</time>
      </trkpt>
      <trkpt lat="43.01655333" lon="-1.19157">
        <ele>1002.0</ele>
        <time>2019-08-01T06:14:14.923Z</time>
      </trkpt>
      <trkpt lat="43.01655833" lon="-1.19156667">
        <ele>1002.0</ele>
        <time>2019-08-01T06:14:15.929Z</time>
      </trkpt>
      <trkpt lat="43.01656333" lon="-1.19156333">
        <ele>1002.0</ele>
        <time>2019-08-01T06:14:16.936Z</time>
      </trkpt>
      <trkpt lat="43.016565" lon="-1.19155833">
        <ele>1002.0</ele>
        <time>2019-08-01T06:14:17.943Z</time>
      </trkpt>
      <trkpt lat="43.01656833" lon="-1.19155667">
        <ele>1002.0</ele>
        <time>2019-08-01T06:14:18.950Z</time>
      </trkpt>
      <trkpt lat="43.01656667" lon="-1.19155167">
        <ele>1002.0</ele>
        <time>2019-08-01T06:14:19.956Z</time>
      </trkpt>
      <trkpt lat="43.016565" lon="-1.19154833">
        <ele>1003.0</ele>
        <time>2019-08-01T06:14:20.961Z</time>
      </trkpt>
      <trkpt lat="43.01656667" lon="-1.19154667">
        <ele>1003.0</ele>
        <time>2019-08-01T06:14:21.966Z</time>
      </trkpt>
      <trkpt lat="43.01657" lon="-1.19154167">
        <ele>1003.0</ele>
        <time>2019-08-01T06:14:22.972Z</time>
      </trkpt>
      <trkpt lat="43.01657333" lon="-1.19154">
        <ele>1004.0</ele>
        <time>2019-08-01T06:14:23.978Z</time>
      </trkpt>
      <trkpt lat="43.01658" lon="-1.19154167">
        <ele>1004.0</ele>
        <time>2019-08-01T06:14:24.984Z</time>
      </trkpt>
      <trkpt lat="43.01658333" lon="-1.19154333">
        <ele>1003.0</ele>
        <time>2019-08-01T06:14:25.991Z</time>
      </trkpt>
      <trkpt lat="43.01658667" lon="-1.191545">
        <ele>1003.0</ele>
        <time>2019-08-01T06:14:26.999Z</time>
      </trkpt>
      <trkpt lat="43.01658833" lon="-1.19154333">
        <ele>1003.0</ele>
        <time>2019-08-01T06:14:28.004Z</time>
      </trkpt>
      <trkpt lat="43.01658833" lon="-1.19153833">
        <ele>1003.0</ele>
        <time>2019-08-01T06:14:29.012Z</time>
      </trkpt>
      <trkpt lat="43.01659" lon="-1.19153">
        <ele>1003.0</ele>
        <time>2019-08-01T06:14:30.019Z</time>
      </trkpt>
      <trkpt lat="43.016595" lon="-1.191525">
        <ele>1003.0</ele>
        <time>2019-08-01T06:14:31.025Z</time>
      </trkpt>
      <trkpt lat="43.01660167" lon="-1.19152333">
        <ele>1002.0</ele>
        <time>2019-08-01T06:14:32.031Z</time>
      </trkpt>
      <trkpt lat="43.01660667" lon="-1.19152333">
        <ele>1002.0</ele>
        <time>2019-08-01T06:14:33.038Z</time>
      </trkpt>
      <trkpt lat="43.01661" lon="-1.19152333">
        <ele>1003.0</ele>
        <time>2019-08-01T06:14:33.918Z</time>
      </trkpt>
      <trkpt lat="43.01661333" lon="-1.19152333">
        <ele>1003.0</ele>
        <time>2019-08-01T06:14:34.925Z</time>
      </trkpt>
      <trkpt lat="43.01661667" lon="-1.19151833">
        <ele>1004.0</ele>
        <time>2019-08-01T06:14:35.929Z</time>
      </trkpt>
      <trkpt lat="43.01662333" lon="-1.19152">
        <ele>1004.0</ele>
        <time>2019-08-01T06:14:36.935Z</time>
      </trkpt>
      <trkpt lat="43.01663" lon="-1.19152333">
        <ele>1004.0</ele>
        <time>2019-08-01T06:14:37.943Z</time>
      </trkpt>
      <trkpt lat="43.01663833" lon="-1.19151667">
        <ele>1005.0</ele>
        <time>2019-08-01T06:14:38.951Z</time>
      </trkpt>
      <trkpt lat="43.01664833" lon="-1.19151167">
        <ele>1005.0</ele>
        <time>2019-08-01T06:14:39.956Z</time>
      </trkpt>
      <trkpt lat="43.01666" lon="-1.19151">
        <ele>1006.0</ele>
        <time>2019-08-01T06:14:40.962Z</time>
      </trkpt>
      <trkpt lat="43.01667167" lon="-1.19151333">
        <ele>1006.0</ele>
        <time>2019-08-01T06:14:41.967Z</time>
      </trkpt>
      <trkpt lat="43.016685" lon="-1.191515">
        <ele>1007.0</ele>
        <time>2019-08-01T06:14:42.972Z</time>
      </trkpt>
      <trkpt lat="43.01669667" lon="-1.191515">
        <ele>1007.0</ele>
        <time>2019-08-01T06:14:43.978Z</time>
      </trkpt>
      <trkpt lat="43.01671167" lon="-1.19152">
        <ele>1007.0</ele>
        <time>2019-08-01T06:14:44.985Z</time>
      </trkpt>
      <trkpt lat="43.01672333" lon="-1.19152333">
        <ele>1007.0</ele>
        <time>2019-08-01T06:14:45.991Z</time>
      </trkpt>
      <trkpt lat="43.01673333" lon="-1.191515">
        <ele>1008.0</ele>
        <time>2019-08-01T06:14:46.998Z</time>
      </trkpt>
      <trkpt lat="43.01674167" lon="-1.1915">
        <ele>1008.0</ele>
        <time>2019-08-01T06:14:48.003Z</time>
      </trkpt>
      <trkpt lat="43.01675" lon="-1.19148167">
        <ele>1008.0</ele>
        <time>2019-08-01T06:14:49.008Z</time>
      </trkpt>
      <trkpt lat="43.016755" lon="-1.19146">
        <ele>1008.0</ele>
        <time>2019-08-01T06:14:50.014Z</time>
      </trkpt>
      <trkpt lat="43.01676167" lon="-1.191445">
        <ele>1007.0</ele>
        <time>2019-08-01T06:14:51.019Z</time>
      </trkpt>
      <trkpt lat="43.01677" lon="-1.19142667">
        <ele>1007.0</ele>
        <time>2019-08-01T06:14:52.026Z</time>
      </trkpt>
      <trkpt lat="43.01677667" lon="-1.19141">
        <ele>1007.0</ele>
        <time>2019-08-01T06:14:53.032Z</time>
      </trkpt>
      <trkpt lat="43.01678167" lon="-1.19139">
        <ele>1006.0</ele>
        <time>2019-08-01T06:14:54.039Z</time>
      </trkpt>
      <trkpt lat="43.016785" lon="-1.19137333">
        <ele>1005.0</ele>
        <time>2019-08-01T06:14:54.919Z</time>
      </trkpt>
      <trkpt lat="43.01678667" lon="-1.19135833">
        <ele>1005.0</ele>
        <time>2019-08-01T06:14:55.926Z</time>
      </trkpt>
      <trkpt lat="43.01678667" lon="-1.19135">
        <ele>1005.0</ele>
        <time>2019-08-01T06:14:56.931Z</time>
      </trkpt>
      <trkpt lat="43.01678833" lon="-1.19133833">
        <ele>1005.0</ele>
        <time>2019-08-01T06:14:57.937Z</time>
      </trkpt>
      <trkpt lat="43.01678833" lon="-1.19132333">
        <ele>1006.0</ele>
        <time>2019-08-01T06:14:58.942Z</time>
      </trkpt>
      <trkpt lat="43.01678667" lon="-1.19131167">
        <ele>1007.0</ele>
        <time>2019-08-01T06:14:59.947Z</time>
      </trkpt>
      <trkpt lat="43.016785" lon="-1.19129667">
        <ele>1007.0</ele>
        <time>2019-08-01T06:15:00.954Z</time>
      </trkpt>
      <trkpt lat="43.01678167" lon="-1.19128333">
        <ele>1006.0</ele>
        <time>2019-08-01T06:15:01.960Z</time>
      </trkpt>
      <trkpt lat="43.01677833" lon="-1.19126833">
        <ele>1006.0</ele>
        <time>2019-08-01T06:15:02.967Z</time>
      </trkpt>
      <trkpt lat="43.01677" lon="-1.19125667">
        <ele>1005.0</ele>
        <time>2019-08-01T06:15:03.975Z</time>
      </trkpt>
      <trkpt lat="43.01676667" lon="-1.191245">
        <ele>1006.0</ele>
        <time>2019-08-01T06:15:04.979Z</time>
      </trkpt>
      <trkpt lat="43.016765" lon="-1.19123333">
        <ele>1006.0</ele>
        <time>2019-08-01T06:15:05.985Z</time>
      </trkpt>
      <trkpt lat="43.016765" lon="-1.19122833">
        <ele>1006.0</ele>
        <time>2019-08-01T06:15:06.992Z</time>
      </trkpt>
      <trkpt lat="43.01676667" lon="-1.191225">
        <ele>1006.0</ele>
        <time>2019-08-01T06:15:07.995Z</time>
      </trkpt>
      <trkpt lat="43.01676667" lon="-1.19121833">
        <ele>1007.0</ele>
        <time>2019-08-01T06:15:09.002Z</time>
      </trkpt>
      <trkpt lat="43.01677333" lon="-1.191215">
        <ele>1005.0</ele>
        <time>2019-08-01T06:15:10.006Z</time>
      </trkpt>
      <trkpt lat="43.01678167" lon="-1.19120833">
        <ele>1004.0</ele>
        <time>2019-08-01T06:15:11.011Z</time>
      </trkpt>
      <trkpt lat="43.01678667" lon="-1.191205">
        <ele>1004.0</ele>
        <time>2019-08-01T06:15:12.016Z</time>
      </trkpt>
      <trkpt lat="43.01679167" lon="-1.1912">
        <ele>1003.0</ele>
        <time>2019-08-01T06:15:13.021Z</time>
      </trkpt>
      <trkpt lat="43.01679333" lon="-1.191195">
        <ele>1003.0</ele>
        <time>2019-08-01T06:15:14.029Z</time>
      </trkpt>
      <trkpt lat="43.01679667" lon="-1.19119167">
        <ele>1003.0</ele>
        <time>2019-08-01T06:15:15.034Z</time>
      </trkpt>
      <trkpt lat="43.0168" lon="-1.19118333">
        <ele>1003.0</ele>
        <time>2019-08-01T06:15:16.038Z</time>
      </trkpt>
      <trkpt lat="43.01679667" lon="-1.19117667">
        <ele>1003.0</ele>
        <time>2019-08-01T06:15:16.919Z</time>
      </trkpt>
      <trkpt lat="43.01679333" lon="-1.19117167">
        <ele>1004.0</ele>
        <time>2019-08-01T06:15:17.926Z</time>
      </trkpt>
      <trkpt lat="43.01678667" lon="-1.19116333">
        <ele>1004.0</ele>
        <time>2019-08-01T06:15:18.932Z</time>
      </trkpt>
      <trkpt lat="43.016775" lon="-1.19115">
        <ele>1004.0</ele>
        <time>2019-08-01T06:15:19.939Z</time>
      </trkpt>
      <trkpt lat="43.01676833" lon="-1.19114">
        <ele>1005.0</ele>
        <time>2019-08-01T06:15:20.945Z</time>
      </trkpt>
      <trkpt lat="43.01676167" lon="-1.19113">
        <ele>1005.0</ele>
        <time>2019-08-01T06:15:21.952Z</time>
      </trkpt>
      <trkpt lat="43.016755" lon="-1.19112">
        <ele>1006.0</ele>
        <time>2019-08-01T06:15:22.956Z</time>
      </trkpt>
      <trkpt lat="43.01674833" lon="-1.19111167">
        <ele>1007.0</ele>
        <time>2019-08-01T06:15:23.963Z</time>
      </trkpt>
      <trkpt lat="43.01673667" lon="-1.191105">
        <ele>1007.0</ele>
        <time>2019-08-01T06:15:24.970Z</time>
      </trkpt>
      <trkpt lat="43.01673167" lon="-1.19109833">
        <ele>1007.0</ele>
        <time>2019-08-01T06:15:25.975Z</time>
      </trkpt>
      <trkpt lat="43.01671833" lon="-1.19109">
        <ele>1008.0</ele>
        <time>2019-08-01T06:15:26.983Z</time>
      </trkpt>
      <trkpt lat="43.01670833" lon="-1.19108667">
        <ele>1008.0</ele>
        <time>2019-08-01T06:15:27.988Z</time>
      </trkpt>
      <trkpt lat="43.01669667" lon="-1.19108">
        <ele>1008.0</ele>
        <time>2019-08-01T06:15:28.993Z</time>
      </trkpt>
      <trkpt lat="43.01668667" lon="-1.19107333">
        <ele>1008.0</ele>
        <time>2019-08-01T06:15:29.997Z</time>
      </trkpt>
      <trkpt lat="43.01667167" lon="-1.19106167">
        <ele>1008.0</ele>
        <time>2019-08-01T06:15:31.002Z</time>
      </trkpt>
      <trkpt lat="43.01666333" lon="-1.19106">
        <ele>1009.0</ele>
        <time>2019-08-01T06:15:32.007Z</time>
      </trkpt>
      <trkpt lat="43.01666333" lon="-1.19106">
        <ele>1009.0</ele>
        <time>2019-08-01T06:15:33.014Z</time>
      </trkpt>
      <trkpt lat="43.01666667" lon="-1.19106167">
        <ele>1008.0</ele>
        <time>2019-08-01T06:15:34.020Z</time>
      </trkpt>
      <trkpt lat="43.016665" lon="-1.19105833">
        <ele>1008.0</ele>
        <time>2019-08-01T06:15:35.028Z</time>
      </trkpt>
      <trkpt lat="43.01666333" lon="-1.19105667">
        <ele>1008.0</ele>
        <time>2019-08-01T06:15:36.035Z</time>
      </trkpt>
      <trkpt lat="43.01665833" lon="-1.19105167">
        <ele>1008.0</ele>
        <time>2019-08-01T06:15:37.042Z</time>
      </trkpt>
      <trkpt lat="43.01665667" lon="-1.19104833">
        <ele>1007.0</ele>
        <time>2019-08-01T06:15:37.923Z</time>
      </trkpt>
      <trkpt lat="43.01665833" lon="-1.19105167">
        <ele>1007.0</ele>
        <time>2019-08-01T06:15:38.928Z</time>
      </trkpt>
      <trkpt lat="43.01666667" lon="-1.19105333">
        <ele>1007.0</ele>
        <time>2019-08-01T06:15:39.935Z</time>
      </trkpt>
      <trkpt lat="43.01667167" lon="-1.19105667">
        <ele>1008.0</ele>
        <time>2019-08-01T06:15:40.940Z</time>
      </trkpt>
      <trkpt lat="43.01667833" lon="-1.19106167">
        <ele>1007.0</ele>
        <time>2019-08-01T06:15:41.947Z</time>
      </trkpt>
      <trkpt lat="43.01668167" lon="-1.19106333">
        <ele>1007.0</ele>
        <time>2019-08-01T06:15:42.955Z</time>
      </trkpt>
      <trkpt lat="43.01668167" lon="-1.19106333">
        <ele>1007.0</ele>
        <time>2019-08-01T06:15:43.960Z</time>
      </trkpt>
      <trkpt lat="43.01668" lon="-1.19106167">
        <ele>1007.0</ele>
        <time>2019-08-01T06:15:44.966Z</time>
      </trkpt>
      <trkpt lat="43.01667833" lon="-1.19106">
        <ele>1007.0</ele>
        <time>2019-08-01T06:15:45.971Z</time>
      </trkpt>
      <trkpt lat="43.016675" lon="-1.19105833">
        <ele>1007.0</ele>
        <time>2019-08-01T06:15:46.977Z</time>
      </trkpt>
      <trkpt lat="43.016675" lon="-1.191055">
        <ele>1007.0</ele>
        <time>2019-08-01T06:15:47.981Z</time>
      </trkpt>
      <trkpt lat="43.016675" lon="-1.191055">
        <ele>1007.0</ele>
        <time>2019-08-01T06:15:48.985Z</time>
      </trkpt>
      <trkpt lat="43.01667667" lon="-1.19105667">
        <ele>1007.0</ele>
        <time>2019-08-01T06:15:49.991Z</time>
      </trkpt>
      <trkpt lat="43.01667833" lon="-1.19105833">
        <ele>1007.0</ele>
        <time>2019-08-01T06:15:50.997Z</time>
      </trkpt>
      <trkpt lat="43.01668" lon="-1.19105833">
        <ele>1007.0</ele>
        <time>2019-08-01T06:15:52.003Z</time>
      </trkpt>
      <trkpt lat="43.01668333" lon="-1.19106">
        <ele>1008.0</ele>
        <time>2019-08-01T06:15:53.010Z</time>
      </trkpt>
      <trkpt lat="43.01668333" lon="-1.19106167">
        <ele>1008.0</ele>
        <time>2019-08-01T06:15:54.017Z</time>
      </trkpt>
      <trkpt lat="43.01668333" lon="-1.19106333">
        <ele>1007.0</ele>
        <time>2019-08-01T06:15:55.024Z</time>
      </trkpt>
      <trkpt lat="43.01668333" lon="-1.19106167">
        <ele>1007.0</ele>
        <time>2019-08-01T06:15:56.030Z</time>
      </trkpt>
      <trkpt lat="43.01668167" lon="-1.191065">
        <ele>1007.0</ele>
        <time>2019-08-01T06:15:57.036Z</time>
      </trkpt>
      <trkpt lat="43.01668" lon="-1.191065">
        <ele>1007.0</ele>
        <time>2019-08-01T06:15:57.918Z</time>
      </trkpt>
      <trkpt lat="43.01667667" lon="-1.191065">
        <ele>1006.0</ele>
        <time>2019-08-01T06:15:58.925Z</time>
      </trkpt>
      <trkpt lat="43.01667" lon="-1.19106167">
        <ele>1007.0</ele>
        <time>2019-08-01T06:15:59.931Z</time>
      </trkpt>
      <trkpt lat="43.016665" lon="-1.191055">
        <ele>1008.0</ele>
        <time>2019-08-01T06:16:00.936Z</time>
      </trkpt>
      <trkpt lat="43.016655" lon="-1.19104833">
        <ele>1008.0</ele>
        <time>2019-08-01T06:16:01.941Z</time>
      </trkpt>
      <trkpt lat="43.01664167" lon="-1.19104333">
        <ele>1008.0</ele>
        <time>2019-08-01T06:16:02.946Z</time>
      </trkpt>
      <trkpt lat="43.01663667" lon="-1.19104">
        <ele>1008.0</ele>
        <time>2019-08-01T06:16:03.949Z</time>
      </trkpt>
      <trkpt lat="43.01663333" lon="-1.19103333">
        <ele>1009.0</ele>
        <time>2019-08-01T06:16:04.953Z</time>
      </trkpt>
      <trkpt lat="43.01662833" lon="-1.19103333">
        <ele>1009.0</ele>
        <time>2019-08-01T06:16:05.958Z</time>
      </trkpt>
      <trkpt lat="43.01663" lon="-1.19102667">
        <ele>1010.0</ele>
        <time>2019-08-01T06:16:06.964Z</time>
      </trkpt>
      <trkpt lat="43.016635" lon="-1.191025">
        <ele>1009.0</ele>
        <time>2019-08-01T06:16:07.971Z</time>
      </trkpt>
      <trkpt lat="43.01664167" lon="-1.19102167">
        <ele>1009.0</ele>
        <time>2019-08-01T06:16:08.978Z</time>
      </trkpt>
      <trkpt lat="43.01665" lon="-1.19102">
        <ele>1009.0</ele>
        <time>2019-08-01T06:16:09.981Z</time>
      </trkpt>
      <trkpt lat="43.01665833" lon="-1.19101833">
        <ele>1009.0</ele>
        <time>2019-08-01T06:16:10.988Z</time>
      </trkpt>
      <trkpt lat="43.01666833" lon="-1.19101833">
        <ele>1010.0</ele>
        <time>2019-08-01T06:16:11.994Z</time>
      </trkpt>
      <trkpt lat="43.01668" lon="-1.19101667">
        <ele>1010.0</ele>
        <time>2019-08-01T06:16:13.002Z</time>
      </trkpt>
      <trkpt lat="43.01669167" lon="-1.19101333">
        <ele>1011.0</ele>
        <time>2019-08-01T06:16:14.007Z</time>
      </trkpt>
      <trkpt lat="43.0167" lon="-1.19101">
        <ele>1010.0</ele>
        <time>2019-08-01T06:16:15.012Z</time>
      </trkpt>
      <trkpt lat="43.01671" lon="-1.19100667">
        <ele>1010.0</ele>
        <time>2019-08-01T06:16:16.019Z</time>
      </trkpt>
      <trkpt lat="43.01672167" lon="-1.19100333">
        <ele>1010.0</ele>
        <time>2019-08-01T06:16:17.026Z</time>
      </trkpt>
      <trkpt lat="43.016735" lon="-1.19099667">
        <ele>1010.0</ele>
        <time>2019-08-01T06:16:18.032Z</time>
      </trkpt>
      <trkpt lat="43.01674667" lon="-1.190985">
        <ele>1010.0</ele>
        <time>2019-08-01T06:16:19.039Z</time>
      </trkpt>
      <trkpt lat="43.01675333" lon="-1.190975">
        <ele>1009.0</ele>
        <time>2019-08-01T06:16:19.919Z</time>
      </trkpt>
      <trkpt lat="43.01675833" lon="-1.190965">
        <ele>1009.0</ele>
        <time>2019-08-01T06:16:20.924Z</time>
      </trkpt>
      <trkpt lat="43.01676" lon="-1.19095667">
        <ele>1009.0</ele>
        <time>2019-08-01T06:16:21.929Z</time>
      </trkpt>
      <trkpt lat="43.01676167" lon="-1.19095333">
        <ele>1009.0</ele>
        <time>2019-08-01T06:16:22.935Z</time>
      </trkpt>
      <trkpt lat="43.01676" lon="-1.19095">
        <ele>1009.0</ele>
        <time>2019-08-01T06:16:23.943Z</time>
      </trkpt>
      <trkpt lat="43.01676" lon="-1.19094667">
        <ele>1009.0</ele>
        <time>2019-08-01T06:16:24.949Z</time>
      </trkpt>
      <trkpt lat="43.01676" lon="-1.19094333">
        <ele>1010.0</ele>
        <time>2019-08-01T06:16:25.955Z</time>
      </trkpt>
      <trkpt lat="43.01675833" lon="-1.19094">
        <ele>1010.0</ele>
        <time>2019-08-01T06:16:26.961Z</time>
      </trkpt>
      <trkpt lat="43.01675833" lon="-1.19093667">
        <ele>1010.0</ele>
        <time>2019-08-01T06:16:27.966Z</time>
      </trkpt>
      <trkpt lat="43.01675667" lon="-1.19093667">
        <ele>1010.0</ele>
        <time>2019-08-01T06:16:28.972Z</time>
      </trkpt>
      <trkpt lat="43.01675667" lon="-1.19093833">
        <ele>1010.0</ele>
        <time>2019-08-01T06:16:29.979Z</time>
      </trkpt>
      <trkpt lat="43.01675333" lon="-1.190935">
        <ele>1010.0</ele>
        <time>2019-08-01T06:16:30.984Z</time>
      </trkpt>
      <trkpt lat="43.01675333" lon="-1.19093">
        <ele>1010.0</ele>
        <time>2019-08-01T06:16:31.990Z</time>
      </trkpt>
      <trkpt lat="43.016755" lon="-1.190925">
        <ele>1010.0</ele>
        <time>2019-08-01T06:16:32.997Z</time>
      </trkpt>
      <trkpt lat="43.016755" lon="-1.19092167">
        <ele>1010.0</ele>
        <time>2019-08-01T06:16:34.001Z</time>
      </trkpt>
      <trkpt lat="43.016755" lon="-1.19092167">
        <ele>1010.0</ele>
        <time>2019-08-01T06:16:35.003Z</time>
      </trkpt>
      <trkpt lat="43.016755" lon="-1.190925">
        <ele>1010.0</ele>
        <time>2019-08-01T06:16:36.008Z</time>
      </trkpt>
      <trkpt lat="43.016755" lon="-1.19092333">
        <ele>1009.0</ele>
        <time>2019-08-01T06:16:37.015Z</time>
      </trkpt>
      <trkpt lat="43.01675333" lon="-1.19092167">
        <ele>1009.0</ele>
        <time>2019-08-01T06:16:38.022Z</time>
      </trkpt>
      <trkpt lat="43.01674833" lon="-1.19092333">
        <ele>1009.0</ele>
        <time>2019-08-01T06:16:39.027Z</time>
      </trkpt>
      <trkpt lat="43.01674833" lon="-1.190925">
        <ele>1009.0</ele>
        <time>2019-08-01T06:16:40.034Z</time>
      </trkpt>
      <trkpt lat="43.01675" lon="-1.19092833">
        <ele>1009.0</ele>
        <time>2019-08-01T06:16:41.038Z</time>
      </trkpt>
      <trkpt lat="43.01675167" lon="-1.19093">
        <ele>1010.0</ele>
        <time>2019-08-01T06:16:41.919Z</time>
      </trkpt>
      <trkpt lat="43.01675167" lon="-1.19093">
        <ele>1010.0</ele>
        <time>2019-08-01T06:16:42.924Z</time>
      </trkpt>
      <trkpt lat="43.01675" lon="-1.19092833">
        <ele>1010.0</ele>
        <time>2019-08-01T06:16:43.929Z</time>
      </trkpt>
      <trkpt lat="43.01675" lon="-1.19092667">
        <ele>1010.0</ele>
        <time>2019-08-01T06:16:44.936Z</time>
      </trkpt>
      <trkpt lat="43.01674667" lon="-1.19092833">
        <ele>1010.0</ele>
        <time>2019-08-01T06:16:45.944Z</time>
      </trkpt>
      <trkpt lat="43.01674833" lon="-1.19092667">
        <ele>1010.0</ele>
        <time>2019-08-01T06:16:46.950Z</time>
      </trkpt>
      <trkpt lat="43.01674833" lon="-1.19092333">
        <ele>1010.0</ele>
        <time>2019-08-01T06:16:47.955Z</time>
      </trkpt>
      <trkpt lat="43.01674667" lon="-1.19091833">
        <ele>1009.0</ele>
        <time>2019-08-01T06:16:48.961Z</time>
      </trkpt>
      <trkpt lat="43.01674667" lon="-1.19091667">
        <ele>1010.0</ele>
        <time>2019-08-01T06:16:49.966Z</time>
      </trkpt>
      <trkpt lat="43.01674667" lon="-1.19091333">
        <ele>1010.0</ele>
        <time>2019-08-01T06:16:50.973Z</time>
      </trkpt>
      <trkpt lat="43.01674667" lon="-1.19091167">
        <ele>1010.0</ele>
        <time>2019-08-01T06:16:51.981Z</time>
      </trkpt>
      <trkpt lat="43.01674833" lon="-1.19091167">
        <ele>1010.0</ele>
        <time>2019-08-01T06:16:52.986Z</time>
      </trkpt>
      <trkpt lat="43.016745" lon="-1.19091">
        <ele>1011.0</ele>
        <time>2019-08-01T06:16:53.990Z</time>
      </trkpt>
      <trkpt lat="43.016745" lon="-1.19090833">
        <ele>1011.0</ele>
        <time>2019-08-01T06:16:54.992Z</time>
      </trkpt>
      <trkpt lat="43.01674833" lon="-1.19090833">
        <ele>1011.0</ele>
        <time>2019-08-01T06:16:55.998Z</time>
      </trkpt>
      <trkpt lat="43.01674667" lon="-1.19091167">
        <ele>1011.0</ele>
        <time>2019-08-01T06:16:57.003Z</time>
      </trkpt>
      <trkpt lat="43.016745" lon="-1.19091167">
        <ele>1011.0</ele>
        <time>2019-08-01T06:16:58.010Z</time>
      </trkpt>
      <trkpt lat="43.01674167" lon="-1.19091">
        <ele>1011.0</ele>
        <time>2019-08-01T06:16:59.016Z</time>
      </trkpt>
      <trkpt lat="43.01674167" lon="-1.19091167">
        <ele>1011.0</ele>
        <time>2019-08-01T06:17:00.022Z</time>
      </trkpt>
      <trkpt lat="43.01674333" lon="-1.19091333">
        <ele>1011.0</ele>
        <time>2019-08-01T06:17:01.029Z</time>
      </trkpt>
      <trkpt lat="43.016745" lon="-1.190915">
        <ele>1011.0</ele>
        <time>2019-08-01T06:17:02.035Z</time>
      </trkpt>
      <trkpt lat="43.01674667" lon="-1.19091167">
        <ele>1011.0</ele>
        <time>2019-08-01T06:17:03.040Z</time>
      </trkpt>
      <trkpt lat="43.01674833" lon="-1.19090833">
        <ele>1011.0</ele>
        <time>2019-08-01T06:17:03.921Z</time>
      </trkpt>
      <trkpt lat="43.01674833" lon="-1.19090833">
        <ele>1011.0</ele>
        <time>2019-08-01T06:17:04.928Z</time>
      </trkpt>
      <trkpt lat="43.016745" lon="-1.19090667">
        <ele>1011.0</ele>
        <time>2019-08-01T06:17:05.935Z</time>
      </trkpt>
      <trkpt lat="43.01674167" lon="-1.19090333">
        <ele>1012.0</ele>
        <time>2019-08-01T06:17:06.941Z</time>
      </trkpt>
      <trkpt lat="43.01673833" lon="-1.19090333">
        <ele>1011.0</ele>
        <time>2019-08-01T06:17:07.947Z</time>
      </trkpt>
      <trkpt lat="43.01673667" lon="-1.19090167">
        <ele>1011.0</ele>
        <time>2019-08-01T06:17:08.952Z</time>
      </trkpt>
      <trkpt lat="43.01673833" lon="-1.19090167">
        <ele>1012.0</ele>
        <time>2019-08-01T06:17:09.958Z</time>
      </trkpt>
      <trkpt lat="43.01674" lon="-1.19090167">
        <ele>1012.0</ele>
        <time>2019-08-01T06:17:10.963Z</time>
      </trkpt>
      <trkpt lat="43.016745" lon="-1.19090333">
        <ele>1012.0</ele>
        <time>2019-08-01T06:17:11.970Z</time>
      </trkpt>
      <trkpt lat="43.01674667" lon="-1.190905">
        <ele>1012.0</ele>
        <time>2019-08-01T06:17:12.975Z</time>
      </trkpt>
      <trkpt lat="43.01674667" lon="-1.19090667">
        <ele>1012.0</ele>
        <time>2019-08-01T06:17:13.982Z</time>
      </trkpt>
      <trkpt lat="43.01674833" lon="-1.19090833">
        <ele>1011.0</ele>
        <time>2019-08-01T06:17:14.988Z</time>
      </trkpt>
      <trkpt lat="43.01675167" lon="-1.19091167">
        <ele>1011.0</ele>
        <time>2019-08-01T06:17:15.994Z</time>
      </trkpt>
      <trkpt lat="43.01675167" lon="-1.19091167">
        <ele>1011.0</ele>
        <time>2019-08-01T06:17:17.000Z</time>
      </trkpt>
      <trkpt lat="43.01675" lon="-1.19091333">
        <ele>1011.0</ele>
        <time>2019-08-01T06:17:18.005Z</time>
      </trkpt>
      <trkpt lat="43.01674833" lon="-1.190915">
        <ele>1011.0</ele>
        <time>2019-08-01T06:17:19.011Z</time>
      </trkpt>
      <trkpt lat="43.01675" lon="-1.19091833">
        <ele>1010.0</ele>
        <time>2019-08-01T06:17:20.015Z</time>
      </trkpt>
      <trkpt lat="43.01675333" lon="-1.190925">
        <ele>1010.0</ele>
        <time>2019-08-01T06:17:21.021Z</time>
      </trkpt>
      <trkpt lat="43.016755" lon="-1.19093">
        <ele>1010.0</ele>
        <time>2019-08-01T06:17:22.028Z</time>
      </trkpt>
      <trkpt lat="43.016755" lon="-1.19093333">
        <ele>1010.0</ele>
        <time>2019-08-01T06:17:23.032Z</time>
      </trkpt>
      <trkpt lat="43.01676167" lon="-1.19093667">
        <ele>1010.0</ele>
        <time>2019-08-01T06:17:24.034Z</time>
      </trkpt>
      <trkpt lat="43.016765" lon="-1.19094167">
        <ele>1010.0</ele>
        <time>2019-08-01T06:17:25.040Z</time>
      </trkpt>
      <trkpt lat="43.01676833" lon="-1.190945">
        <ele>1010.0</ele>
        <time>2019-08-01T06:17:25.919Z</time>
      </trkpt>
      <trkpt lat="43.01676833" lon="-1.19094667">
        <ele>1010.0</ele>
        <time>2019-08-01T06:17:26.925Z</time>
      </trkpt>
      <trkpt lat="43.01676833" lon="-1.19094667">
        <ele>1010.0</ele>
        <time>2019-08-01T06:17:27.930Z</time>
      </trkpt>
      <trkpt lat="43.01676667" lon="-1.190945">
        <ele>1009.0</ele>
        <time>2019-08-01T06:17:28.937Z</time>
      </trkpt>
      <trkpt lat="43.016765" lon="-1.190945">
        <ele>1009.0</ele>
        <time>2019-08-01T06:17:29.943Z</time>
      </trkpt>
      <trkpt lat="43.01676167" lon="-1.190945">
        <ele>1009.0</ele>
        <time>2019-08-01T06:17:30.950Z</time>
      </trkpt>
      <trkpt lat="43.01676333" lon="-1.190945">
        <ele>1009.0</ele>
        <time>2019-08-01T06:17:31.957Z</time>
      </trkpt>
      <trkpt lat="43.01676333" lon="-1.19094333">
        <ele>1009.0</ele>
        <time>2019-08-01T06:17:32.962Z</time>
      </trkpt>
      <trkpt lat="43.016765" lon="-1.19094167">
        <ele>1009.0</ele>
        <time>2019-08-01T06:17:33.968Z</time>
      </trkpt>
      <trkpt lat="43.01676667" lon="-1.19094167">
        <ele>1009.0</ele>
        <time>2019-08-01T06:17:34.975Z</time>
      </trkpt>
      <trkpt lat="43.01676667" lon="-1.19094">
        <ele>1009.0</ele>
        <time>2019-08-01T06:17:35.982Z</time>
      </trkpt>
      <trkpt lat="43.01676667" lon="-1.19094">
        <ele>1009.0</ele>
        <time>2019-08-01T06:17:36.989Z</time>
      </trkpt>
      <trkpt lat="43.01676333" lon="-1.19094">
        <ele>1009.0</ele>
        <time>2019-08-01T06:17:37.994Z</time>
      </trkpt>
      <trkpt lat="43.01676167" lon="-1.19094167">
        <ele>1008.0</ele>
        <time>2019-08-01T06:17:38.998Z</time>
      </trkpt>
      <trkpt lat="43.01675833" lon="-1.19093833">
        <ele>1009.0</ele>
        <time>2019-08-01T06:17:40.003Z</time>
      </trkpt>
      <trkpt lat="43.01675667" lon="-1.19093667">
        <ele>1008.0</ele>
        <time>2019-08-01T06:17:41.010Z</time>
      </trkpt>
      <trkpt lat="43.01675667" lon="-1.19093667">
        <ele>1008.0</ele>
        <time>2019-08-01T06:17:42.017Z</time>
      </trkpt>
      <trkpt lat="43.016755" lon="-1.190935">
        <ele>1009.0</ele>
        <time>2019-08-01T06:17:43.023Z</time>
      </trkpt>
      <trkpt lat="43.016755" lon="-1.190935">
        <ele>1009.0</ele>
        <time>2019-08-01T06:17:44.027Z</time>
      </trkpt>
      <trkpt lat="43.01675333" lon="-1.190935">
        <ele>1009.0</ele>
        <time>2019-08-01T06:17:45.033Z</time>
      </trkpt>
      <trkpt lat="43.016755" lon="-1.19093333">
        <ele>1009.0</ele>
        <time>2019-08-01T06:17:46.039Z</time>
      </trkpt>
      <trkpt lat="43.016755" lon="-1.19093167">
        <ele>1009.0</ele>
        <time>2019-08-01T06:17:46.919Z</time>
      </trkpt>
      <trkpt lat="43.016755" lon="-1.19093333">
        <ele>1009.0</ele>
        <time>2019-08-01T06:17:47.925Z</time>
      </trkpt>
      <trkpt lat="43.016755" lon="-1.19093333">
        <ele>1009.0</ele>
        <time>2019-08-01T06:17:48.932Z</time>
      </trkpt>
      <trkpt lat="43.016755" lon="-1.19093333">
        <ele>1009.0</ele>
        <time>2019-08-01T06:17:49.940Z</time>
      </trkpt>
      <trkpt lat="43.01675333" lon="-1.19092667">
        <ele>1010.0</ele>
        <time>2019-08-01T06:17:50.946Z</time>
      </trkpt>
      <trkpt lat="43.01675167" lon="-1.19092167">
        <ele>1010.0</ele>
        <time>2019-08-01T06:17:51.952Z</time>
      </trkpt>
      <trkpt lat="43.01675" lon="-1.19092167">
        <ele>1010.0</ele>
        <time>2019-08-01T06:17:52.957Z</time>
      </trkpt>
      <trkpt lat="43.01674833" lon="-1.19092333">
        <ele>1009.0</ele>
        <time>2019-08-01T06:17:53.962Z</time>
      </trkpt>
      <trkpt lat="43.01675167" lon="-1.19092167">
        <ele>1009.0</ele>
        <time>2019-08-01T06:17:54.968Z</time>
      </trkpt>
      <trkpt lat="43.01675333" lon="-1.19092333">
        <ele>1009.0</ele>
        <time>2019-08-01T06:17:55.973Z</time>
      </trkpt>
      <trkpt lat="43.016755" lon="-1.19092833">
        <ele>1009.0</ele>
        <time>2019-08-01T06:17:56.980Z</time>
      </trkpt>
      <trkpt lat="43.016755" lon="-1.19093167">
        <ele>1009.0</ele>
        <time>2019-08-01T06:17:57.987Z</time>
      </trkpt>
      <trkpt lat="43.016755" lon="-1.190935">
        <ele>1008.0</ele>
        <time>2019-08-01T06:17:58.993Z</time>
      </trkpt>
      <trkpt lat="43.016755" lon="-1.190935">
        <ele>1008.0</ele>
        <time>2019-08-01T06:17:59.999Z</time>
      </trkpt>
      <trkpt lat="43.01675333" lon="-1.190935">
        <ele>1008.0</ele>
        <time>2019-08-01T06:18:01.004Z</time>
      </trkpt>
      <trkpt lat="43.016755" lon="-1.190935">
        <ele>1008.0</ele>
        <time>2019-08-01T06:18:02.010Z</time>
      </trkpt>
      <trkpt lat="43.016755" lon="-1.19093667">
        <ele>1008.0</ele>
        <time>2019-08-01T06:18:03.015Z</time>
      </trkpt>
      <trkpt lat="43.016755" lon="-1.19094">
        <ele>1008.0</ele>
        <time>2019-08-01T06:18:04.021Z</time>
      </trkpt>
      <trkpt lat="43.016755" lon="-1.19094167">
        <ele>1008.0</ele>
        <time>2019-08-01T06:18:05.026Z</time>
      </trkpt>
      <trkpt lat="43.01675667" lon="-1.19094333">
        <ele>1007.0</ele>
        <time>2019-08-01T06:18:06.032Z</time>
      </trkpt>
      <trkpt lat="43.016755" lon="-1.19094167">
        <ele>1006.0</ele>
        <time>2019-08-01T06:18:07.037Z</time>
      </trkpt>
      <trkpt lat="43.01675333" lon="-1.19093833">
        <ele>1006.0</ele>
        <time>2019-08-01T06:18:07.919Z</time>
      </trkpt>
      <trkpt lat="43.016755" lon="-1.19094167">
        <ele>1007.0</ele>
        <time>2019-08-01T06:18:08.924Z</time>
      </trkpt>
      <trkpt lat="43.016755" lon="-1.19094167">
        <ele>1008.0</ele>
        <time>2019-08-01T06:18:09.931Z</time>
      </trkpt>
      <trkpt lat="43.01675333" lon="-1.19094333">
        <ele>1008.0</ele>
        <time>2019-08-01T06:18:10.937Z</time>
      </trkpt>
      <trkpt lat="43.01674833" lon="-1.19094">
        <ele>1008.0</ele>
        <time>2019-08-01T06:18:11.943Z</time>
      </trkpt>
      <trkpt lat="43.016745" lon="-1.190935">
        <ele>1008.0</ele>
        <time>2019-08-01T06:18:12.949Z</time>
      </trkpt>
      <trkpt lat="43.01674" lon="-1.19093333">
        <ele>1008.0</ele>
        <time>2019-08-01T06:18:13.953Z</time>
      </trkpt>
      <trkpt lat="43.01673667" lon="-1.190935">
        <ele>1008.0</ele>
        <time>2019-08-01T06:18:14.959Z</time>
      </trkpt>
      <trkpt lat="43.016735" lon="-1.190935">
        <ele>1009.0</ele>
        <time>2019-08-01T06:18:15.964Z</time>
      </trkpt>
      <trkpt lat="43.01673667" lon="-1.190935">
        <ele>1009.0</ele>
        <time>2019-08-01T06:18:16.970Z</time>
      </trkpt>
      <trkpt lat="43.01674167" lon="-1.19093667">
        <ele>1010.0</ele>
        <time>2019-08-01T06:18:17.976Z</time>
      </trkpt>
      <trkpt lat="43.01674" lon="-1.19093833">
        <ele>1010.0</ele>
        <time>2019-08-01T06:18:18.981Z</time>
      </trkpt>
      <trkpt lat="43.01673667" lon="-1.19093833">
        <ele>1010.0</ele>
        <time>2019-08-01T06:18:19.986Z</time>
      </trkpt>
      <trkpt lat="43.01673167" lon="-1.19093667">
        <ele>1010.0</ele>
        <time>2019-08-01T06:18:20.992Z</time>
      </trkpt>
      <trkpt lat="43.01673" lon="-1.19094333">
        <ele>1010.0</ele>
        <time>2019-08-01T06:18:21.999Z</time>
      </trkpt>
      <trkpt lat="43.01673" lon="-1.190945">
        <ele>1010.0</ele>
        <time>2019-08-01T06:18:23.004Z</time>
      </trkpt>
      <trkpt lat="43.016725" lon="-1.19094">
        <ele>1010.0</ele>
        <time>2019-08-01T06:18:24.010Z</time>
      </trkpt>
      <trkpt lat="43.01672167" lon="-1.19093833">
        <ele>1011.0</ele>
        <time>2019-08-01T06:18:25.016Z</time>
      </trkpt>
      <trkpt lat="43.01671667" lon="-1.19093333">
        <ele>1011.0</ele>
        <time>2019-08-01T06:18:26.022Z</time>
      </trkpt>
      <trkpt lat="43.01671667" lon="-1.19092667">
        <ele>1010.0</ele>
        <time>2019-08-01T06:18:27.027Z</time>
      </trkpt>
      <trkpt lat="43.016715" lon="-1.190925">
        <ele>1011.0</ele>
        <time>2019-08-01T06:18:28.035Z</time>
      </trkpt>
      <trkpt lat="43.01672" lon="-1.19093667">
        <ele>1012.0</ele>
        <time>2019-08-01T06:18:29.041Z</time>
      </trkpt>
      <trkpt lat="43.01672333" lon="-1.19095">
        <ele>1012.0</ele>
        <time>2019-08-01T06:18:29.919Z</time>
      </trkpt>
      <trkpt lat="43.01672333" lon="-1.19095667">
        <ele>1012.0</ele>
        <time>2019-08-01T06:18:30.925Z</time>
      </trkpt>
      <trkpt lat="43.01672667" lon="-1.19095667">
        <ele>1011.0</ele>
        <time>2019-08-01T06:18:31.931Z</time>
      </trkpt>
      <trkpt lat="43.01673" lon="-1.19095667">
        <ele>1011.0</ele>
        <time>2019-08-01T06:18:32.936Z</time>
      </trkpt>
      <trkpt lat="43.01673" lon="-1.19095167">
        <ele>1012.0</ele>
        <time>2019-08-01T06:18:33.943Z</time>
      </trkpt>
      <trkpt lat="43.01673" lon="-1.19095">
        <ele>1013.0</ele>
        <time>2019-08-01T06:18:34.951Z</time>
      </trkpt>
      <trkpt lat="43.01673167" lon="-1.19095167">
        <ele>1012.0</ele>
        <time>2019-08-01T06:18:35.955Z</time>
      </trkpt>
      <trkpt lat="43.01673" lon="-1.19095167">
        <ele>1012.0</ele>
        <time>2019-08-01T06:18:36.960Z</time>
      </trkpt>
      <trkpt lat="43.01672833" lon="-1.19095333">
        <ele>1012.0</ele>
        <time>2019-08-01T06:18:37.966Z</time>
      </trkpt>
      <trkpt lat="43.01673333" lon="-1.19095333">
        <ele>1012.0</ele>
        <time>2019-08-01T06:18:38.970Z</time>
      </trkpt>
      <trkpt lat="43.01673667" lon="-1.190955">
        <ele>1012.0</ele>
        <time>2019-08-01T06:18:39.977Z</time>
      </trkpt>
      <trkpt lat="43.016735" lon="-1.19095667">
        <ele>1012.0</ele>
        <time>2019-08-01T06:18:40.984Z</time>
      </trkpt>
      <trkpt lat="43.01673167" lon="-1.19095333">
        <ele>1012.0</ele>
        <time>2019-08-01T06:18:41.989Z</time>
      </trkpt>
      <trkpt lat="43.01672833" lon="-1.19095">
        <ele>1012.0</ele>
        <time>2019-08-01T06:18:42.994Z</time>
      </trkpt>
      <trkpt lat="43.01672667" lon="-1.19094833">
        <ele>1012.0</ele>
        <time>2019-08-01T06:18:44.000Z</time>
      </trkpt>
      <trkpt lat="43.01672167" lon="-1.19094667">
        <ele>1012.0</ele>
        <time>2019-08-01T06:18:45.006Z</time>
      </trkpt>
      <trkpt lat="43.01671833" lon="-1.190945">
        <ele>1011.0</ele>
        <time>2019-08-01T06:18:46.013Z</time>
      </trkpt>
      <trkpt lat="43.01671833" lon="-1.190945">
        <ele>1011.0</ele>
        <time>2019-08-01T06:18:47.019Z</time>
      </trkpt>
      <trkpt lat="43.01672" lon="-1.19094333">
        <ele>1011.0</ele>
        <time>2019-08-01T06:18:48.024Z</time>
      </trkpt>
      <trkpt lat="43.01672333" lon="-1.19093833">
        <ele>1011.0</ele>
        <time>2019-08-01T06:18:49.030Z</time>
      </trkpt>
      <trkpt lat="43.01673167" lon="-1.190935">
        <ele>1011.0</ele>
        <time>2019-08-01T06:18:50.036Z</time>
      </trkpt>
      <trkpt lat="43.01674" lon="-1.19093167">
        <ele>1011.0</ele>
        <time>2019-08-01T06:18:51.043Z</time>
      </trkpt>
      <trkpt lat="43.01675" lon="-1.19092833">
        <ele>1011.0</ele>
        <time>2019-08-01T06:18:51.921Z</time>
      </trkpt>
      <trkpt lat="43.01676167" lon="-1.19092667">
        <ele>1010.0</ele>
        <time>2019-08-01T06:18:52.927Z</time>
      </trkpt>
      <trkpt lat="43.01677333" lon="-1.19092667">
        <ele>1010.0</ele>
        <time>2019-08-01T06:18:53.932Z</time>
      </trkpt>
      <trkpt lat="43.01678167" lon="-1.19092833">
        <ele>1011.0</ele>
        <time>2019-08-01T06:18:54.938Z</time>
      </trkpt>
      <trkpt lat="43.01679333" lon="-1.19093">
        <ele>1011.0</ele>
        <time>2019-08-01T06:18:55.944Z</time>
      </trkpt>
      <trkpt lat="43.01680167" lon="-1.19093">
        <ele>1012.0</ele>
        <time>2019-08-01T06:18:56.950Z</time>
      </trkpt>
      <trkpt lat="43.01681167" lon="-1.19093333">
        <ele>1012.0</ele>
        <time>2019-08-01T06:18:57.955Z</time>
      </trkpt>
      <trkpt lat="43.01682167" lon="-1.19093667">
        <ele>1012.0</ele>
        <time>2019-08-01T06:18:58.961Z</time>
      </trkpt>
      <trkpt lat="43.01683167" lon="-1.19093167">
        <ele>1012.0</ele>
        <time>2019-08-01T06:18:59.966Z</time>
      </trkpt>
      <trkpt lat="43.01683667" lon="-1.19092667">
        <ele>1013.0</ele>
        <time>2019-08-01T06:19:00.971Z</time>
      </trkpt>
      <trkpt lat="43.01684167" lon="-1.19091333">
        <ele>1014.0</ele>
        <time>2019-08-01T06:19:01.978Z</time>
      </trkpt>
      <trkpt lat="43.01684667" lon="-1.19089833">
        <ele>1015.0</ele>
        <time>2019-08-01T06:19:02.983Z</time>
      </trkpt>
      <trkpt lat="43.01685167" lon="-1.19088833">
        <ele>1015.0</ele>
        <time>2019-08-01T06:19:03.991Z</time>
      </trkpt>
      <trkpt lat="43.01685167" lon="-1.19088">
        <ele>1015.0</ele>
        <time>2019-08-01T06:19:04.997Z</time>
      </trkpt>
      <trkpt lat="43.016855" lon="-1.190875">
        <ele>1016.0</ele>
        <time>2019-08-01T06:19:06.003Z</time>
      </trkpt>
      <trkpt lat="43.01685833" lon="-1.19087667">
        <ele>1016.0</ele>
        <time>2019-08-01T06:19:07.010Z</time>
      </trkpt>
      <trkpt lat="43.01686333" lon="-1.19088167">
        <ele>1017.0</ele>
        <time>2019-08-01T06:19:08.017Z</time>
      </trkpt>
      <trkpt lat="43.01686833" lon="-1.19088667">
        <ele>1019.0</ele>
        <time>2019-08-01T06:19:09.020Z</time>
      </trkpt>
      <trkpt lat="43.01688" lon="-1.19089167">
        <ele>1019.0</ele>
        <time>2019-08-01T06:19:10.025Z</time>
      </trkpt>
      <trkpt lat="43.01688833" lon="-1.190885">
        <ele>1020.0</ele>
        <time>2019-08-01T06:19:11.032Z</time>
      </trkpt>
      <trkpt lat="43.01689333" lon="-1.19087333">
        <ele>1020.0</ele>
        <time>2019-08-01T06:19:12.037Z</time>
      </trkpt>
      <trkpt lat="43.01690167" lon="-1.19086">
        <ele>1020.0</ele>
        <time>2019-08-01T06:19:12.918Z</time>
      </trkpt>
      <trkpt lat="43.01690833" lon="-1.19084167">
        <ele>1020.0</ele>
        <time>2019-08-01T06:19:13.924Z</time>
      </trkpt>
      <trkpt lat="43.01691" lon="-1.19082667">
        <ele>1019.0</ele>
        <time>2019-08-01T06:19:14.929Z</time>
      </trkpt>
      <trkpt lat="43.016915" lon="-1.190815">
        <ele>1019.0</ele>
        <time>2019-08-01T06:19:15.935Z</time>
      </trkpt>
      <trkpt lat="43.01691833" lon="-1.19080667">
        <ele>1019.0</ele>
        <time>2019-08-01T06:19:16.941Z</time>
      </trkpt>
      <trkpt lat="43.01692333" lon="-1.19079667">
        <ele>1020.0</ele>
        <time>2019-08-01T06:19:17.947Z</time>
      </trkpt>
      <trkpt lat="43.01693333" lon="-1.19079333">
        <ele>1019.0</ele>
        <time>2019-08-01T06:19:18.953Z</time>
      </trkpt>
      <trkpt lat="43.01693667" lon="-1.190795">
        <ele>1019.0</ele>
        <time>2019-08-01T06:19:19.958Z</time>
      </trkpt>
      <trkpt lat="43.01694667" lon="-1.19079667">
        <ele>1019.0</ele>
        <time>2019-08-01T06:19:20.963Z</time>
      </trkpt>
      <trkpt lat="43.01696" lon="-1.19080167">
        <ele>1019.0</ele>
        <time>2019-08-01T06:19:21.969Z</time>
      </trkpt>
      <trkpt lat="43.01697333" lon="-1.19080333">
        <ele>1019.0</ele>
        <time>2019-08-01T06:19:22.974Z</time>
      </trkpt>
      <trkpt lat="43.016985" lon="-1.190805">
        <ele>1020.0</ele>
        <time>2019-08-01T06:19:23.980Z</time>
      </trkpt>
      <trkpt lat="43.016995" lon="-1.19080667">
        <ele>1020.0</ele>
        <time>2019-08-01T06:19:24.985Z</time>
      </trkpt>
      <trkpt lat="43.017005" lon="-1.19080667">
        <ele>1020.0</ele>
        <time>2019-08-01T06:19:25.991Z</time>
      </trkpt>
      <trkpt lat="43.01701" lon="-1.19080333">
        <ele>1020.0</ele>
        <time>2019-08-01T06:19:26.997Z</time>
      </trkpt>
      <trkpt lat="43.01701833" lon="-1.19079833">
        <ele>1020.0</ele>
        <time>2019-08-01T06:19:28.002Z</time>
      </trkpt>
      <trkpt lat="43.01702667" lon="-1.19079167">
        <ele>1020.0</ele>
        <time>2019-08-01T06:19:29.008Z</time>
      </trkpt>
      <trkpt lat="43.01703833" lon="-1.19079167">
        <ele>1020.0</ele>
        <time>2019-08-01T06:19:30.012Z</time>
      </trkpt>
      <trkpt lat="43.01704833" lon="-1.19079167">
        <ele>1019.0</ele>
        <time>2019-08-01T06:19:31.019Z</time>
      </trkpt>
      <trkpt lat="43.01705333" lon="-1.19079167">
        <ele>1019.0</ele>
        <time>2019-08-01T06:19:32.025Z</time>
      </trkpt>
      <trkpt lat="43.017065" lon="-1.1908">
        <ele>1019.0</ele>
        <time>2019-08-01T06:19:33.032Z</time>
      </trkpt>
      <trkpt lat="43.017075" lon="-1.19080667">
        <ele>1019.0</ele>
        <time>2019-08-01T06:19:34.035Z</time>
      </trkpt>
      <trkpt lat="43.01708167" lon="-1.19081">
        <ele>1019.0</ele>
        <time>2019-08-01T06:19:35.041Z</time>
      </trkpt>
      <trkpt lat="43.01709" lon="-1.190815">
        <ele>1019.0</ele>
        <time>2019-08-01T06:19:35.921Z</time>
      </trkpt>
      <trkpt lat="43.01709833" lon="-1.19081833">
        <ele>1019.0</ele>
        <time>2019-08-01T06:19:36.929Z</time>
      </trkpt>
      <trkpt lat="43.01711" lon="-1.19082333">
        <ele>1019.0</ele>
        <time>2019-08-01T06:19:37.934Z</time>
      </trkpt>
      <trkpt lat="43.01712" lon="-1.19082167">
        <ele>1019.0</ele>
        <time>2019-08-01T06:19:38.937Z</time>
      </trkpt>
      <trkpt lat="43.01712833" lon="-1.19081167">
        <ele>1018.0</ele>
        <time>2019-08-01T06:19:39.942Z</time>
      </trkpt>
      <trkpt lat="43.01713833" lon="-1.190805">
        <ele>1018.0</ele>
        <time>2019-08-01T06:19:40.948Z</time>
      </trkpt>
      <trkpt lat="43.01714167" lon="-1.19080167">
        <ele>1018.0</ele>
        <time>2019-08-01T06:19:41.953Z</time>
      </trkpt>
      <trkpt lat="43.01714833" lon="-1.19079833">
        <ele>1017.0</ele>
        <time>2019-08-01T06:19:42.961Z</time>
      </trkpt>
      <trkpt lat="43.01715833" lon="-1.19079">
        <ele>1017.0</ele>
        <time>2019-08-01T06:19:43.968Z</time>
      </trkpt>
      <trkpt lat="43.017165" lon="-1.19078333">
        <ele>1017.0</ele>
        <time>2019-08-01T06:19:44.975Z</time>
      </trkpt>
      <trkpt lat="43.01717333" lon="-1.19077833">
        <ele>1016.0</ele>
        <time>2019-08-01T06:19:45.981Z</time>
      </trkpt>
      <trkpt lat="43.01718333" lon="-1.19077">
        <ele>1016.0</ele>
        <time>2019-08-01T06:19:46.987Z</time>
      </trkpt>
      <trkpt lat="43.017195" lon="-1.19076333">
        <ele>1016.0</ele>
        <time>2019-08-01T06:19:47.993Z</time>
      </trkpt>
      <trkpt lat="43.01720167" lon="-1.19076">
        <ele>1015.0</ele>
        <time>2019-08-01T06:19:48.998Z</time>
      </trkpt>
      <trkpt lat="43.01721" lon="-1.19076">
        <ele>1015.0</ele>
        <time>2019-08-01T06:19:50.003Z</time>
      </trkpt>
      <trkpt lat="43.01721667" lon="-1.19076667">
        <ele>1015.0</ele>
        <time>2019-08-01T06:19:51.008Z</time>
      </trkpt>
      <trkpt lat="43.01722" lon="-1.19077167">
        <ele>1015.0</ele>
        <time>2019-08-01T06:19:52.013Z</time>
      </trkpt>
      <trkpt lat="43.01722167" lon="-1.19077833">
        <ele>1015.0</ele>
        <time>2019-08-01T06:19:53.019Z</time>
      </trkpt>
      <trkpt lat="43.01722167" lon="-1.19078167">
        <ele>1015.0</ele>
        <time>2019-08-01T06:19:54.026Z</time>
      </trkpt>
      <trkpt lat="43.01722" lon="-1.19078333">
        <ele>1015.0</ele>
        <time>2019-08-01T06:19:55.032Z</time>
      </trkpt>
      <trkpt lat="43.01721667" lon="-1.19078667">
        <ele>1014.0</ele>
        <time>2019-08-01T06:19:56.037Z</time>
      </trkpt>
      <trkpt lat="43.01721333" lon="-1.19079167">
        <ele>1014.0</ele>
        <time>2019-08-01T06:19:56.918Z</time>
      </trkpt>
      <trkpt lat="43.01721" lon="-1.19079833">
        <ele>1014.0</ele>
        <time>2019-08-01T06:19:57.924Z</time>
      </trkpt>
      <trkpt lat="43.01720833" lon="-1.190805">
        <ele>1014.0</ele>
        <time>2019-08-01T06:19:58.928Z</time>
      </trkpt>
      <trkpt lat="43.01721333" lon="-1.19081167">
        <ele>1013.0</ele>
        <time>2019-08-01T06:19:59.935Z</time>
      </trkpt>
      <trkpt lat="43.017215" lon="-1.19081833">
        <ele>1013.0</ele>
        <time>2019-08-01T06:20:00.942Z</time>
      </trkpt>
      <trkpt lat="43.01721833" lon="-1.19082333">
        <ele>1013.0</ele>
        <time>2019-08-01T06:20:01.947Z</time>
      </trkpt>
      <trkpt lat="43.01721833" lon="-1.190825">
        <ele>1013.0</ele>
        <time>2019-08-01T06:20:02.954Z</time>
      </trkpt>
      <trkpt lat="43.01722167" lon="-1.19082667">
        <ele>1012.0</ele>
        <time>2019-08-01T06:20:03.955Z</time>
      </trkpt>
      <trkpt lat="43.01722667" lon="-1.19082333">
        <ele>1012.0</ele>
        <time>2019-08-01T06:20:04.960Z</time>
      </trkpt>
      <trkpt lat="43.01723" lon="-1.190825">
        <ele>1012.0</ele>
        <time>2019-08-01T06:20:05.964Z</time>
      </trkpt>
      <trkpt lat="43.01723167" lon="-1.19082833">
        <ele>1012.0</ele>
        <time>2019-08-01T06:20:06.970Z</time>
      </trkpt>
      <trkpt lat="43.01723333" lon="-1.19083167">
        <ele>1012.0</ele>
        <time>2019-08-01T06:20:07.975Z</time>
      </trkpt>
      <trkpt lat="43.01723833" lon="-1.19083833">
        <ele>1012.0</ele>
        <time>2019-08-01T06:20:08.980Z</time>
      </trkpt>
      <trkpt lat="43.01724167" lon="-1.19084333">
        <ele>1013.0</ele>
        <time>2019-08-01T06:20:09.987Z</time>
      </trkpt>
      <trkpt lat="43.01724833" lon="-1.19084333">
        <ele>1012.0</ele>
        <time>2019-08-01T06:20:10.992Z</time>
      </trkpt>
      <trkpt lat="43.01725667" lon="-1.19084">
        <ele>1012.0</ele>
        <time>2019-08-01T06:20:11.996Z</time>
      </trkpt>
      <trkpt lat="43.017265" lon="-1.19084">
        <ele>1012.0</ele>
        <time>2019-08-01T06:20:13.000Z</time>
      </trkpt>
      <trkpt lat="43.01727333" lon="-1.19083833">
        <ele>1012.0</ele>
        <time>2019-08-01T06:20:14.007Z</time>
      </trkpt>
      <trkpt lat="43.01728333" lon="-1.19083833">
        <ele>1012.0</ele>
        <time>2019-08-01T06:20:15.013Z</time>
      </trkpt>
      <trkpt lat="43.01729333" lon="-1.19084">
        <ele>1013.0</ele>
        <time>2019-08-01T06:20:16.019Z</time>
      </trkpt>
      <trkpt lat="43.0173" lon="-1.19083833">
        <ele>1013.0</ele>
        <time>2019-08-01T06:20:17.026Z</time>
      </trkpt>
      <trkpt lat="43.01730833" lon="-1.19084">
        <ele>1013.0</ele>
        <time>2019-08-01T06:20:18.031Z</time>
      </trkpt>
      <trkpt lat="43.01731833" lon="-1.19084">
        <ele>1013.0</ele>
        <time>2019-08-01T06:20:19.034Z</time>
      </trkpt>
      <trkpt lat="43.01732833" lon="-1.190835">
        <ele>1013.0</ele>
        <time>2019-08-01T06:20:20.039Z</time>
      </trkpt>
      <trkpt lat="43.01733833" lon="-1.19083167">
        <ele>1012.0</ele>
        <time>2019-08-01T06:20:20.919Z</time>
      </trkpt>
      <trkpt lat="43.01734667" lon="-1.19082667">
        <ele>1012.0</ele>
        <time>2019-08-01T06:20:21.924Z</time>
      </trkpt>
      <trkpt lat="43.017355" lon="-1.190825">
        <ele>1012.0</ele>
        <time>2019-08-01T06:20:22.928Z</time>
      </trkpt>
      <trkpt lat="43.01736333" lon="-1.19082167">
        <ele>1011.0</ele>
        <time>2019-08-01T06:20:23.934Z</time>
      </trkpt>
      <trkpt lat="43.01737167" lon="-1.19082">
        <ele>1011.0</ele>
        <time>2019-08-01T06:20:24.939Z</time>
      </trkpt>
      <trkpt lat="43.01738167" lon="-1.19082167">
        <ele>1011.0</ele>
        <time>2019-08-01T06:20:25.945Z</time>
      </trkpt>
      <trkpt lat="43.01739167" lon="-1.19082333">
        <ele>1011.0</ele>
        <time>2019-08-01T06:20:26.949Z</time>
      </trkpt>
      <trkpt lat="43.0174" lon="-1.19082167">
        <ele>1010.0</ele>
        <time>2019-08-01T06:20:27.957Z</time>
      </trkpt>
      <trkpt lat="43.01741" lon="-1.19082167">
        <ele>1010.0</ele>
        <time>2019-08-01T06:20:28.961Z</time>
      </trkpt>
      <trkpt lat="43.01741833" lon="-1.19082">
        <ele>1010.0</ele>
        <time>2019-08-01T06:20:29.968Z</time>
      </trkpt>
      <trkpt lat="43.01742667" lon="-1.190815">
        <ele>1010.0</ele>
        <time>2019-08-01T06:20:30.975Z</time>
      </trkpt>
      <trkpt lat="43.017435" lon="-1.19081167">
        <ele>1010.0</ele>
        <time>2019-08-01T06:20:31.981Z</time>
      </trkpt>
      <trkpt lat="43.01744333" lon="-1.19080833">
        <ele>1011.0</ele>
        <time>2019-08-01T06:20:32.988Z</time>
      </trkpt>
      <trkpt lat="43.01745333" lon="-1.190805">
        <ele>1011.0</ele>
        <time>2019-08-01T06:20:33.994Z</time>
      </trkpt>
      <trkpt lat="43.01746333" lon="-1.19080167">
        <ele>1011.0</ele>
        <time>2019-08-01T06:20:35.001Z</time>
      </trkpt>
      <trkpt lat="43.01747333" lon="-1.19079667">
        <ele>1011.0</ele>
        <time>2019-08-01T06:20:36.004Z</time>
      </trkpt>
      <trkpt lat="43.01748333" lon="-1.190795">
        <ele>1011.0</ele>
        <time>2019-08-01T06:20:37.010Z</time>
      </trkpt>
      <trkpt lat="43.01749333" lon="-1.19079167">
        <ele>1010.0</ele>
        <time>2019-08-01T06:20:38.015Z</time>
      </trkpt>
      <trkpt lat="43.0175" lon="-1.19079">
        <ele>1010.0</ele>
        <time>2019-08-01T06:20:39.023Z</time>
      </trkpt>
      <trkpt lat="43.01750833" lon="-1.19078833">
        <ele>1010.0</ele>
        <time>2019-08-01T06:20:40.029Z</time>
      </trkpt>
      <trkpt lat="43.01751333" lon="-1.19078833">
        <ele>1010.0</ele>
        <time>2019-08-01T06:20:41.036Z</time>
      </trkpt>
      <trkpt lat="43.01751667" lon="-1.19078833">
        <ele>1010.0</ele>
        <time>2019-08-01T06:20:42.042Z</time>
      </trkpt>
      <trkpt lat="43.01752333" lon="-1.19078667">
        <ele>1009.0</ele>
        <time>2019-08-01T06:20:42.921Z</time>
      </trkpt>
      <trkpt lat="43.01752667" lon="-1.19078333">
        <ele>1009.0</ele>
        <time>2019-08-01T06:20:43.924Z</time>
      </trkpt>
      <trkpt lat="43.01753167" lon="-1.19078">
        <ele>1008.0</ele>
        <time>2019-08-01T06:20:44.931Z</time>
      </trkpt>
      <trkpt lat="43.01753833" lon="-1.19077833">
        <ele>1008.0</ele>
        <time>2019-08-01T06:20:45.939Z</time>
      </trkpt>
      <trkpt lat="43.01754667" lon="-1.19077667">
        <ele>1008.0</ele>
        <time>2019-08-01T06:20:46.947Z</time>
      </trkpt>
      <trkpt lat="43.017555" lon="-1.190775">
        <ele>1008.0</ele>
        <time>2019-08-01T06:20:47.955Z</time>
      </trkpt>
      <trkpt lat="43.01756667" lon="-1.19077167">
        <ele>1008.0</ele>
        <time>2019-08-01T06:20:48.960Z</time>
      </trkpt>
      <trkpt lat="43.01757333" lon="-1.190765">
        <ele>1008.0</ele>
        <time>2019-08-01T06:20:49.965Z</time>
      </trkpt>
      <trkpt lat="43.01758167" lon="-1.19075833">
        <ele>1008.0</ele>
        <time>2019-08-01T06:20:50.970Z</time>
      </trkpt>
      <trkpt lat="43.01759333" lon="-1.19075">
        <ele>1008.0</ele>
        <time>2019-08-01T06:20:51.975Z</time>
      </trkpt>
      <trkpt lat="43.0176" lon="-1.19074833">
        <ele>1008.0</ele>
        <time>2019-08-01T06:20:52.981Z</time>
      </trkpt>
      <trkpt lat="43.01761333" lon="-1.190745">
        <ele>1008.0</ele>
        <time>2019-08-01T06:20:53.987Z</time>
      </trkpt>
      <trkpt lat="43.01762167" lon="-1.19074333">
        <ele>1007.0</ele>
        <time>2019-08-01T06:20:54.992Z</time>
      </trkpt>
      <trkpt lat="43.01763167" lon="-1.19074167">
        <ele>1007.0</ele>
        <time>2019-08-01T06:20:55.999Z</time>
      </trkpt>
      <trkpt lat="43.01764333" lon="-1.19073833">
        <ele>1007.0</ele>
        <time>2019-08-01T06:20:57.005Z</time>
      </trkpt>
      <trkpt lat="43.01765667" lon="-1.19073333">
        <ele>1007.0</ele>
        <time>2019-08-01T06:20:58.009Z</time>
      </trkpt>
      <trkpt lat="43.01766333" lon="-1.19072833">
        <ele>1007.0</ele>
        <time>2019-08-01T06:20:59.012Z</time>
      </trkpt>
      <trkpt lat="43.01767333" lon="-1.190725">
        <ele>1007.0</ele>
        <time>2019-08-01T06:21:00.017Z</time>
      </trkpt>
      <trkpt lat="43.017685" lon="-1.19072">
        <ele>1007.0</ele>
        <time>2019-08-01T06:21:01.023Z</time>
      </trkpt>
      <trkpt lat="43.01769667" lon="-1.19071333">
        <ele>1007.0</ele>
        <time>2019-08-01T06:21:02.028Z</time>
      </trkpt>
      <trkpt lat="43.01770833" lon="-1.19070333">
        <ele>1006.0</ele>
        <time>2019-08-01T06:21:03.032Z</time>
      </trkpt>
      <trkpt lat="43.01771667" lon="-1.190695">
        <ele>1006.0</ele>
        <time>2019-08-01T06:21:04.036Z</time>
      </trkpt>
      <trkpt lat="43.017725" lon="-1.190685">
        <ele>1006.0</ele>
        <time>2019-08-01T06:21:05.039Z</time>
      </trkpt>
      <trkpt lat="43.01773333" lon="-1.19067667">
        <ele>1005.0</ele>
        <time>2019-08-01T06:21:06.043Z</time>
      </trkpt>
      <trkpt lat="43.01774333" lon="-1.19067">
        <ele>1005.0</ele>
        <time>2019-08-01T06:21:06.923Z</time>
      </trkpt>
      <trkpt lat="43.01775" lon="-1.19066167">
        <ele>1005.0</ele>
        <time>2019-08-01T06:21:07.931Z</time>
      </trkpt>
      <trkpt lat="43.01776" lon="-1.19065333">
        <ele>1005.0</ele>
        <time>2019-08-01T06:21:08.938Z</time>
      </trkpt>
      <trkpt lat="43.01776833" lon="-1.190645">
        <ele>1005.0</ele>
        <time>2019-08-01T06:21:09.945Z</time>
      </trkpt>
      <trkpt lat="43.01777667" lon="-1.19064">
        <ele>1005.0</ele>
        <time>2019-08-01T06:21:10.953Z</time>
      </trkpt>
      <trkpt lat="43.017785" lon="-1.190635">
        <ele>1004.0</ele>
        <time>2019-08-01T06:21:11.959Z</time>
      </trkpt>
      <trkpt lat="43.01779" lon="-1.19062833">
        <ele>1005.0</ele>
        <time>2019-08-01T06:21:12.964Z</time>
      </trkpt>
      <trkpt lat="43.01779667" lon="-1.19062167">
        <ele>1005.0</ele>
        <time>2019-08-01T06:21:13.971Z</time>
      </trkpt>
      <trkpt lat="43.01780333" lon="-1.190615">
        <ele>1005.0</ele>
        <time>2019-08-01T06:21:14.974Z</time>
      </trkpt>
      <trkpt lat="43.01781167" lon="-1.19060833">
        <ele>1005.0</ele>
        <time>2019-08-01T06:21:15.978Z</time>
      </trkpt>
      <trkpt lat="43.01782167" lon="-1.190605">
        <ele>1005.0</ele>
        <time>2019-08-01T06:21:16.984Z</time>
      </trkpt>
      <trkpt lat="43.01783167" lon="-1.19059833">
        <ele>1005.0</ele>
        <time>2019-08-01T06:21:17.990Z</time>
      </trkpt>
      <trkpt lat="43.01783833" lon="-1.19059167">
        <ele>1005.0</ele>
        <time>2019-08-01T06:21:18.996Z</time>
      </trkpt>
      <trkpt lat="43.01784667" lon="-1.19058333">
        <ele>1005.0</ele>
        <time>2019-08-01T06:21:20.002Z</time>
      </trkpt>
      <trkpt lat="43.017855" lon="-1.19057833">
        <ele>1004.0</ele>
        <time>2019-08-01T06:21:21.008Z</time>
      </trkpt>
      <trkpt lat="43.017865" lon="-1.190575">
        <ele>1005.0</ele>
        <time>2019-08-01T06:21:22.015Z</time>
      </trkpt>
      <trkpt lat="43.017875" lon="-1.19057833">
        <ele>1005.0</ele>
        <time>2019-08-01T06:21:23.019Z</time>
      </trkpt>
      <trkpt lat="43.017885" lon="-1.19058">
        <ele>1005.0</ele>
        <time>2019-08-01T06:21:24.024Z</time>
      </trkpt>
      <trkpt lat="43.01789667" lon="-1.19058">
        <ele>1005.0</ele>
        <time>2019-08-01T06:21:25.029Z</time>
      </trkpt>
      <trkpt lat="43.01790667" lon="-1.19057833">
        <ele>1004.0</ele>
        <time>2019-08-01T06:21:26.032Z</time>
      </trkpt>
      <trkpt lat="43.017915" lon="-1.19057833">
        <ele>1004.0</ele>
        <time>2019-08-01T06:21:27.038Z</time>
      </trkpt>
      <trkpt lat="43.01792167" lon="-1.19057167">
        <ele>1004.0</ele>
        <time>2019-08-01T06:21:27.918Z</time>
      </trkpt>
      <trkpt lat="43.017925" lon="-1.19056833">
        <ele>1004.0</ele>
        <time>2019-08-01T06:21:28.924Z</time>
      </trkpt>
      <trkpt lat="43.01793333" lon="-1.19056833">
        <ele>1005.0</ele>
        <time>2019-08-01T06:21:29.930Z</time>
      </trkpt>
      <trkpt lat="43.01794" lon="-1.19056667">
        <ele>1005.0</ele>
        <time>2019-08-01T06:21:30.936Z</time>
      </trkpt>
      <trkpt lat="43.01794833" lon="-1.190565">
        <ele>1005.0</ele>
        <time>2019-08-01T06:21:31.943Z</time>
      </trkpt>
      <trkpt lat="43.01795667" lon="-1.19056167">
        <ele>1004.0</ele>
        <time>2019-08-01T06:21:32.949Z</time>
      </trkpt>
      <trkpt lat="43.017965" lon="-1.19055833">
        <ele>1004.0</ele>
        <time>2019-08-01T06:21:33.955Z</time>
      </trkpt>
      <trkpt lat="43.01797333" lon="-1.19055667">
        <ele>1004.0</ele>
        <time>2019-08-01T06:21:34.962Z</time>
      </trkpt>
      <trkpt lat="43.01798333" lon="-1.19055333">
        <ele>1004.0</ele>
        <time>2019-08-01T06:21:35.965Z</time>
      </trkpt>
      <trkpt lat="43.01799167" lon="-1.19055167">
        <ele>1004.0</ele>
        <time>2019-08-01T06:21:36.972Z</time>
      </trkpt>
      <trkpt lat="43.01800167" lon="-1.19054833">
        <ele>1004.0</ele>
        <time>2019-08-01T06:21:37.979Z</time>
      </trkpt>
      <trkpt lat="43.01801167" lon="-1.19054833">
        <ele>1004.0</ele>
        <time>2019-08-01T06:21:38.985Z</time>
      </trkpt>
      <trkpt lat="43.01802" lon="-1.19054667">
        <ele>1004.0</ele>
        <time>2019-08-01T06:21:39.990Z</time>
      </trkpt>
      <trkpt lat="43.01802833" lon="-1.19054">
        <ele>1004.0</ele>
        <time>2019-08-01T06:21:40.996Z</time>
      </trkpt>
      <trkpt lat="43.01803667" lon="-1.19053333">
        <ele>1005.0</ele>
        <time>2019-08-01T06:21:42.001Z</time>
      </trkpt>
      <trkpt lat="43.01804833" lon="-1.19052667">
        <ele>1005.0</ele>
        <time>2019-08-01T06:21:43.005Z</time>
      </trkpt>
      <trkpt lat="43.018055" lon="-1.19052667">
        <ele>1005.0</ele>
        <time>2019-08-01T06:21:44.008Z</time>
      </trkpt>
      <trkpt lat="43.018065" lon="-1.19052333">
        <ele>1004.0</ele>
        <time>2019-08-01T06:21:45.012Z</time>
      </trkpt>
      <trkpt lat="43.018075" lon="-1.19052333">
        <ele>1005.0</ele>
        <time>2019-08-01T06:21:46.017Z</time>
      </trkpt>
      <trkpt lat="43.01808667" lon="-1.19052167">
        <ele>1005.0</ele>
        <time>2019-08-01T06:21:47.023Z</time>
      </trkpt>
      <trkpt lat="43.018095" lon="-1.19051667">
        <ele>1005.0</ele>
        <time>2019-08-01T06:21:48.027Z</time>
      </trkpt>
      <trkpt lat="43.01810667" lon="-1.19051167">
        <ele>1005.0</ele>
        <time>2019-08-01T06:21:49.030Z</time>
      </trkpt>
      <trkpt lat="43.01811667" lon="-1.19050667">
        <ele>1005.0</ele>
        <time>2019-08-01T06:21:50.037Z</time>
      </trkpt>
      <trkpt lat="43.01812667" lon="-1.19050333">
        <ele>1005.0</ele>
        <time>2019-08-01T06:21:51.041Z</time>
      </trkpt>
      <trkpt lat="43.01814167" lon="-1.19049667">
        <ele>1005.0</ele>
        <time>2019-08-01T06:21:51.921Z</time>
      </trkpt>
      <trkpt lat="43.01815" lon="-1.19049333">
        <ele>1004.0</ele>
        <time>2019-08-01T06:21:52.928Z</time>
      </trkpt>
      <trkpt lat="43.01816" lon="-1.19048667">
        <ele>1004.0</ele>
        <time>2019-08-01T06:21:53.934Z</time>
      </trkpt>
      <trkpt lat="43.01817167" lon="-1.190485">
        <ele>1004.0</ele>
        <time>2019-08-01T06:21:54.941Z</time>
      </trkpt>
      <trkpt lat="43.01818167" lon="-1.19048333">
        <ele>1004.0</ele>
        <time>2019-08-01T06:21:55.948Z</time>
      </trkpt>
      <trkpt lat="43.01819" lon="-1.19047833">
        <ele>1005.0</ele>
        <time>2019-08-01T06:21:56.953Z</time>
      </trkpt>
      <trkpt lat="43.01820333" lon="-1.190475">
        <ele>1005.0</ele>
        <time>2019-08-01T06:21:57.959Z</time>
      </trkpt>
      <trkpt lat="43.01821167" lon="-1.19047333">
        <ele>1005.0</ele>
        <time>2019-08-01T06:21:58.962Z</time>
      </trkpt>
      <trkpt lat="43.01822333" lon="-1.19047">
        <ele>1005.0</ele>
        <time>2019-08-01T06:21:59.968Z</time>
      </trkpt>
      <trkpt lat="43.018235" lon="-1.190465">
        <ele>1004.0</ele>
        <time>2019-08-01T06:22:00.973Z</time>
      </trkpt>
      <trkpt lat="43.018245" lon="-1.19046167">
        <ele>1004.0</ele>
        <time>2019-08-01T06:22:01.979Z</time>
      </trkpt>
      <trkpt lat="43.018255" lon="-1.19045833">
        <ele>1004.0</ele>
        <time>2019-08-01T06:22:02.983Z</time>
      </trkpt>
      <trkpt lat="43.01826667" lon="-1.19045333">
        <ele>1004.0</ele>
        <time>2019-08-01T06:22:03.989Z</time>
      </trkpt>
      <trkpt lat="43.01827667" lon="-1.19045">
        <ele>1004.0</ele>
        <time>2019-08-01T06:22:04.996Z</time>
      </trkpt>
      <trkpt lat="43.01828833" lon="-1.190445">
        <ele>1003.0</ele>
        <time>2019-08-01T06:22:06.002Z</time>
      </trkpt>
      <trkpt lat="43.01829833" lon="-1.19044167">
        <ele>1004.0</ele>
        <time>2019-08-01T06:22:07.007Z</time>
      </trkpt>
      <trkpt lat="43.01830833" lon="-1.19043667">
        <ele>1004.0</ele>
        <time>2019-08-01T06:22:08.012Z</time>
      </trkpt>
      <trkpt lat="43.01831667" lon="-1.19043333">
        <ele>1004.0</ele>
        <time>2019-08-01T06:22:09.019Z</time>
      </trkpt>
      <trkpt lat="43.018325" lon="-1.190435">
        <ele>1004.0</ele>
        <time>2019-08-01T06:22:10.024Z</time>
      </trkpt>
      <trkpt lat="43.01833333" lon="-1.19043667">
        <ele>1004.0</ele>
        <time>2019-08-01T06:22:11.030Z</time>
      </trkpt>
      <trkpt lat="43.01834167" lon="-1.19044">
        <ele>1004.0</ele>
        <time>2019-08-01T06:22:12.036Z</time>
      </trkpt>
      <trkpt lat="43.01835" lon="-1.19044333">
        <ele>1004.0</ele>
        <time>2019-08-01T06:22:13.043Z</time>
      </trkpt>
      <trkpt lat="43.01835833" lon="-1.19044667">
        <ele>1004.0</ele>
        <time>2019-08-01T06:22:13.922Z</time>
      </trkpt>
      <trkpt lat="43.018365" lon="-1.19044833">
        <ele>1005.0</ele>
        <time>2019-08-01T06:22:14.928Z</time>
      </trkpt>
      <trkpt lat="43.01837333" lon="-1.19045">
        <ele>1005.0</ele>
        <time>2019-08-01T06:22:15.935Z</time>
      </trkpt>
      <trkpt lat="43.01838167" lon="-1.19045333">
        <ele>1005.0</ele>
        <time>2019-08-01T06:22:16.943Z</time>
      </trkpt>
      <trkpt lat="43.01839167" lon="-1.19045667">
        <ele>1005.0</ele>
        <time>2019-08-01T06:22:17.946Z</time>
      </trkpt>
      <trkpt lat="43.0184" lon="-1.19046167">
        <ele>1005.0</ele>
        <time>2019-08-01T06:22:18.953Z</time>
      </trkpt>
      <trkpt lat="43.01840667" lon="-1.190465">
        <ele>1005.0</ele>
        <time>2019-08-01T06:22:19.960Z</time>
      </trkpt>
      <trkpt lat="43.01841333" lon="-1.19046833">
        <ele>1006.0</ele>
        <time>2019-08-01T06:22:20.966Z</time>
      </trkpt>
      <trkpt lat="43.01841833" lon="-1.190475">
        <ele>1006.0</ele>
        <time>2019-08-01T06:22:21.971Z</time>
      </trkpt>
      <trkpt lat="43.018425" lon="-1.19048">
        <ele>1006.0</ele>
        <time>2019-08-01T06:22:22.977Z</time>
      </trkpt>
      <trkpt lat="43.018435" lon="-1.19048667">
        <ele>1005.0</ele>
        <time>2019-08-01T06:22:23.980Z</time>
      </trkpt>
      <trkpt lat="43.01844167" lon="-1.19049">
        <ele>1006.0</ele>
        <time>2019-08-01T06:22:24.985Z</time>
      </trkpt>
      <trkpt lat="43.01845333" lon="-1.19049667">
        <ele>1006.0</ele>
        <time>2019-08-01T06:22:25.990Z</time>
      </trkpt>
      <trkpt lat="43.01846" lon="-1.19049833">
        <ele>1007.0</ele>
        <time>2019-08-01T06:22:26.996Z</time>
      </trkpt>
      <trkpt lat="43.01846833" lon="-1.190505">
        <ele>1007.0</ele>
        <time>2019-08-01T06:22:28.002Z</time>
      </trkpt>
      <trkpt lat="43.01847333" lon="-1.19050833">
        <ele>1007.0</ele>
        <time>2019-08-01T06:22:29.007Z</time>
      </trkpt>
      <trkpt lat="43.01848" lon="-1.19051333">
        <ele>1008.0</ele>
        <time>2019-08-01T06:22:30.013Z</time>
      </trkpt>
      <trkpt lat="43.01849" lon="-1.19052">
        <ele>1008.0</ele>
        <time>2019-08-01T06:22:31.020Z</time>
      </trkpt>
      <trkpt lat="43.0185" lon="-1.19052833">
        <ele>1008.0</ele>
        <time>2019-08-01T06:22:32.025Z</time>
      </trkpt>
      <trkpt lat="43.01850833" lon="-1.19053">
        <ele>1008.0</ele>
        <time>2019-08-01T06:22:33.032Z</time>
      </trkpt>
      <trkpt lat="43.01851833" lon="-1.19053333">
        <ele>1009.0</ele>
        <time>2019-08-01T06:22:34.038Z</time>
      </trkpt>
      <trkpt lat="43.01852833" lon="-1.190535">
        <ele>1009.0</ele>
        <time>2019-08-01T06:22:35.042Z</time>
      </trkpt>
      <trkpt lat="43.01853667" lon="-1.19053833">
        <ele>1009.0</ele>
        <time>2019-08-01T06:22:35.922Z</time>
      </trkpt>
      <trkpt lat="43.01854333" lon="-1.19054333">
        <ele>1009.0</ele>
        <time>2019-08-01T06:22:36.927Z</time>
      </trkpt>
      <trkpt lat="43.01855" lon="-1.19054667">
        <ele>1009.0</ele>
        <time>2019-08-01T06:22:37.933Z</time>
      </trkpt>
      <trkpt lat="43.01855833" lon="-1.19055">
        <ele>1009.0</ele>
        <time>2019-08-01T06:22:38.939Z</time>
      </trkpt>
      <trkpt lat="43.018565" lon="-1.19055667">
        <ele>1009.0</ele>
        <time>2019-08-01T06:22:39.945Z</time>
      </trkpt>
      <trkpt lat="43.01857333" lon="-1.19056333">
        <ele>1009.0</ele>
        <time>2019-08-01T06:22:40.951Z</time>
      </trkpt>
      <trkpt lat="43.01858167" lon="-1.19056667">
        <ele>1009.0</ele>
        <time>2019-08-01T06:22:41.958Z</time>
      </trkpt>
      <trkpt lat="43.01859167" lon="-1.19057167">
        <ele>1008.0</ele>
        <time>2019-08-01T06:22:42.963Z</time>
      </trkpt>
      <trkpt lat="43.0186" lon="-1.190575">
        <ele>1009.0</ele>
        <time>2019-08-01T06:22:43.969Z</time>
      </trkpt>
      <trkpt lat="43.01861" lon="-1.19057667">
        <ele>1009.0</ele>
        <time>2019-08-01T06:22:44.975Z</time>
      </trkpt>
      <trkpt lat="43.01862" lon="-1.19058">
        <ele>1009.0</ele>
        <time>2019-08-01T06:22:45.981Z</time>
      </trkpt>
      <trkpt lat="43.01863333" lon="-1.19058167">
        <ele>1009.0</ele>
        <time>2019-08-01T06:22:46.988Z</time>
      </trkpt>
      <trkpt lat="43.01864167" lon="-1.19058333">
        <ele>1009.0</ele>
        <time>2019-08-01T06:22:47.992Z</time>
      </trkpt>
      <trkpt lat="43.01864833" lon="-1.19058667">
        <ele>1009.0</ele>
        <time>2019-08-01T06:22:48.996Z</time>
      </trkpt>
      <trkpt lat="43.01865667" lon="-1.19058833">
        <ele>1010.0</ele>
        <time>2019-08-01T06:22:50.000Z</time>
      </trkpt>
      <trkpt lat="43.01866167" lon="-1.19058833">
        <ele>1010.0</ele>
        <time>2019-08-01T06:22:51.005Z</time>
      </trkpt>
      <trkpt lat="43.01866833" lon="-1.19059">
        <ele>1010.0</ele>
        <time>2019-08-01T06:22:52.011Z</time>
      </trkpt>
      <trkpt lat="43.01867667" lon="-1.19059">
        <ele>1010.0</ele>
        <time>2019-08-01T06:22:53.016Z</time>
      </trkpt>
      <trkpt lat="43.018685" lon="-1.19058833">
        <ele>1010.0</ele>
        <time>2019-08-01T06:22:54.023Z</time>
      </trkpt>
      <trkpt lat="43.01869333" lon="-1.19058833">
        <ele>1010.0</ele>
        <time>2019-08-01T06:22:55.029Z</time>
      </trkpt>
      <trkpt lat="43.01870333" lon="-1.19059167">
        <ele>1010.0</ele>
        <time>2019-08-01T06:22:56.036Z</time>
      </trkpt>
      <trkpt lat="43.01871" lon="-1.19059">
        <ele>1010.0</ele>
        <time>2019-08-01T06:22:57.043Z</time>
      </trkpt>
      <trkpt lat="43.01871833" lon="-1.19058833">
        <ele>1011.0</ele>
        <time>2019-08-01T06:22:57.922Z</time>
      </trkpt>
      <trkpt lat="43.01872667" lon="-1.19059">
        <ele>1011.0</ele>
        <time>2019-08-01T06:22:58.930Z</time>
      </trkpt>
      <trkpt lat="43.018735" lon="-1.19058833">
        <ele>1011.0</ele>
        <time>2019-08-01T06:22:59.937Z</time>
      </trkpt>
      <trkpt lat="43.01874333" lon="-1.19058833">
        <ele>1011.0</ele>
        <time>2019-08-01T06:23:00.942Z</time>
      </trkpt>
      <trkpt lat="43.01875167" lon="-1.19058833">
        <ele>1011.0</ele>
        <time>2019-08-01T06:23:01.950Z</time>
      </trkpt>
      <trkpt lat="43.01876167" lon="-1.19058833">
        <ele>1011.0</ele>
        <time>2019-08-01T06:23:02.957Z</time>
      </trkpt>
      <trkpt lat="43.01877" lon="-1.19058667">
        <ele>1011.0</ele>
        <time>2019-08-01T06:23:03.963Z</time>
      </trkpt>
      <trkpt lat="43.01878" lon="-1.19058667">
        <ele>1011.0</ele>
        <time>2019-08-01T06:23:04.968Z</time>
      </trkpt>
      <trkpt lat="43.01878833" lon="-1.190585">
        <ele>1011.0</ele>
        <time>2019-08-01T06:23:05.974Z</time>
      </trkpt>
      <trkpt lat="43.01879667" lon="-1.19058333">
        <ele>1011.0</ele>
        <time>2019-08-01T06:23:06.980Z</time>
      </trkpt>
      <trkpt lat="43.01880667" lon="-1.190585">
        <ele>1011.0</ele>
        <time>2019-08-01T06:23:07.985Z</time>
      </trkpt>
      <trkpt lat="43.01881167" lon="-1.190585">
        <ele>1012.0</ele>
        <time>2019-08-01T06:23:08.991Z</time>
      </trkpt>
      <trkpt lat="43.01881667" lon="-1.19058667">
        <ele>1012.0</ele>
        <time>2019-08-01T06:23:09.997Z</time>
      </trkpt>
      <trkpt lat="43.01882333" lon="-1.19058833">
        <ele>1012.0</ele>
        <time>2019-08-01T06:23:11.002Z</time>
      </trkpt>
      <trkpt lat="43.01883" lon="-1.19059">
        <ele>1012.0</ele>
        <time>2019-08-01T06:23:12.007Z</time>
      </trkpt>
      <trkpt lat="43.01883667" lon="-1.19059167">
        <ele>1012.0</ele>
        <time>2019-08-01T06:23:13.012Z</time>
      </trkpt>
      <trkpt lat="43.018845" lon="-1.19059167">
        <ele>1012.0</ele>
        <time>2019-08-01T06:23:14.016Z</time>
      </trkpt>
      <trkpt lat="43.01885" lon="-1.19059">
        <ele>1012.0</ele>
        <time>2019-08-01T06:23:15.020Z</time>
      </trkpt>
      <trkpt lat="43.01885833" lon="-1.19059167">
        <ele>1013.0</ele>
        <time>2019-08-01T06:23:16.025Z</time>
      </trkpt>
      <trkpt lat="43.01886667" lon="-1.19059333">
        <ele>1012.0</ele>
        <time>2019-08-01T06:23:17.031Z</time>
      </trkpt>
      <trkpt lat="43.018875" lon="-1.190595">
        <ele>1013.0</ele>
        <time>2019-08-01T06:23:18.038Z</time>
      </trkpt>
      <trkpt lat="43.01888167" lon="-1.19059833">
        <ele>1013.0</ele>
        <time>2019-08-01T06:23:19.043Z</time>
      </trkpt>
      <trkpt lat="43.01889167" lon="-1.19059667">
        <ele>1014.0</ele>
        <time>2019-08-01T06:23:19.919Z</time>
      </trkpt>
      <trkpt lat="43.0189" lon="-1.19059667">
        <ele>1014.0</ele>
        <time>2019-08-01T06:23:20.926Z</time>
      </trkpt>
      <trkpt lat="43.01890833" lon="-1.19059667">
        <ele>1014.0</ele>
        <time>2019-08-01T06:23:21.930Z</time>
      </trkpt>
      <trkpt lat="43.01891667" lon="-1.19059667">
        <ele>1014.0</ele>
        <time>2019-08-01T06:23:22.937Z</time>
      </trkpt>
      <trkpt lat="43.018925" lon="-1.19059833">
        <ele>1015.0</ele>
        <time>2019-08-01T06:23:23.944Z</time>
      </trkpt>
      <trkpt lat="43.01893333" lon="-1.19060167">
        <ele>1015.0</ele>
        <time>2019-08-01T06:23:24.953Z</time>
      </trkpt>
      <trkpt lat="43.01894167" lon="-1.190605">
        <ele>1015.0</ele>
        <time>2019-08-01T06:23:25.960Z</time>
      </trkpt>
      <trkpt lat="43.01895333" lon="-1.19060833">
        <ele>1016.0</ele>
        <time>2019-08-01T06:23:26.966Z</time>
      </trkpt>
      <trkpt lat="43.01896333" lon="-1.19060833">
        <ele>1016.0</ele>
        <time>2019-08-01T06:23:27.972Z</time>
      </trkpt>
      <trkpt lat="43.01897333" lon="-1.19061">
        <ele>1016.0</ele>
        <time>2019-08-01T06:23:28.980Z</time>
      </trkpt>
      <trkpt lat="43.01898333" lon="-1.19061">
        <ele>1016.0</ele>
        <time>2019-08-01T06:23:29.988Z</time>
      </trkpt>
      <trkpt lat="43.01899333" lon="-1.19061333">
        <ele>1016.0</ele>
        <time>2019-08-01T06:23:30.993Z</time>
      </trkpt>
      <trkpt lat="43.01900333" lon="-1.19061667">
        <ele>1016.0</ele>
        <time>2019-08-01T06:23:31.998Z</time>
      </trkpt>
      <trkpt lat="43.01901333" lon="-1.19062">
        <ele>1016.0</ele>
        <time>2019-08-01T06:23:33.003Z</time>
      </trkpt>
      <trkpt lat="43.01902333" lon="-1.190625">
        <ele>1016.0</ele>
        <time>2019-08-01T06:23:34.010Z</time>
      </trkpt>
      <trkpt lat="43.019035" lon="-1.19063">
        <ele>1017.0</ele>
        <time>2019-08-01T06:23:35.016Z</time>
      </trkpt>
      <trkpt lat="43.019045" lon="-1.19063167">
        <ele>1017.0</ele>
        <time>2019-08-01T06:23:36.018Z</time>
      </trkpt>
      <trkpt lat="43.01905167" lon="-1.19063333">
        <ele>1017.0</ele>
        <time>2019-08-01T06:23:37.023Z</time>
      </trkpt>
      <trkpt lat="43.01906167" lon="-1.19063667">
        <ele>1017.0</ele>
        <time>2019-08-01T06:23:38.028Z</time>
      </trkpt>
      <trkpt lat="43.01906833" lon="-1.19064">
        <ele>1017.0</ele>
        <time>2019-08-01T06:23:39.035Z</time>
      </trkpt>
      <trkpt lat="43.019075" lon="-1.19064333">
        <ele>1017.0</ele>
        <time>2019-08-01T06:23:40.037Z</time>
      </trkpt>
      <trkpt lat="43.01908333" lon="-1.19064833">
        <ele>1018.0</ele>
        <time>2019-08-01T06:23:40.918Z</time>
      </trkpt>
      <trkpt lat="43.01909" lon="-1.19065">
        <ele>1018.0</ele>
        <time>2019-08-01T06:23:41.922Z</time>
      </trkpt>
      <trkpt lat="43.01909667" lon="-1.19065167">
        <ele>1018.0</ele>
        <time>2019-08-01T06:23:42.927Z</time>
      </trkpt>
      <trkpt lat="43.019105" lon="-1.190655">
        <ele>1018.0</ele>
        <time>2019-08-01T06:23:43.933Z</time>
      </trkpt>
      <trkpt lat="43.01911167" lon="-1.19065833">
        <ele>1019.0</ele>
        <time>2019-08-01T06:23:44.941Z</time>
      </trkpt>
      <trkpt lat="43.01912" lon="-1.19066">
        <ele>1019.0</ele>
        <time>2019-08-01T06:23:45.949Z</time>
      </trkpt>
      <trkpt lat="43.01913" lon="-1.19066333">
        <ele>1019.0</ele>
        <time>2019-08-01T06:23:46.956Z</time>
      </trkpt>
      <trkpt lat="43.01914" lon="-1.19066667">
        <ele>1019.0</ele>
        <time>2019-08-01T06:23:47.961Z</time>
      </trkpt>
      <trkpt lat="43.01914667" lon="-1.19067">
        <ele>1019.0</ele>
        <time>2019-08-01T06:23:48.966Z</time>
      </trkpt>
      <trkpt lat="43.01915833" lon="-1.19067167">
        <ele>1019.0</ele>
        <time>2019-08-01T06:23:49.971Z</time>
      </trkpt>
      <trkpt lat="43.01916833" lon="-1.190675">
        <ele>1019.0</ele>
        <time>2019-08-01T06:23:50.978Z</time>
      </trkpt>
      <trkpt lat="43.01917833" lon="-1.19067667">
        <ele>1019.0</ele>
        <time>2019-08-01T06:23:51.983Z</time>
      </trkpt>
      <trkpt lat="43.01918667" lon="-1.190675">
        <ele>1019.0</ele>
        <time>2019-08-01T06:23:52.990Z</time>
      </trkpt>
      <trkpt lat="43.01919667" lon="-1.190675">
        <ele>1019.0</ele>
        <time>2019-08-01T06:23:53.993Z</time>
      </trkpt>
      <trkpt lat="43.019205" lon="-1.19066833">
        <ele>1019.0</ele>
        <time>2019-08-01T06:23:55.000Z</time>
      </trkpt>
      <trkpt lat="43.019215" lon="-1.19066833">
        <ele>1019.0</ele>
        <time>2019-08-01T06:23:56.005Z</time>
      </trkpt>
      <trkpt lat="43.01922667" lon="-1.19067">
        <ele>1019.0</ele>
        <time>2019-08-01T06:23:57.010Z</time>
      </trkpt>
      <trkpt lat="43.019235" lon="-1.19067167">
        <ele>1020.0</ele>
        <time>2019-08-01T06:23:58.015Z</time>
      </trkpt>
      <trkpt lat="43.01924667" lon="-1.19067333">
        <ele>1020.0</ele>
        <time>2019-08-01T06:23:59.022Z</time>
      </trkpt>
      <trkpt lat="43.01925667" lon="-1.19067833">
        <ele>1020.0</ele>
        <time>2019-08-01T06:24:00.028Z</time>
      </trkpt>
      <trkpt lat="43.019265" lon="-1.19068167">
        <ele>1020.0</ele>
        <time>2019-08-01T06:24:01.035Z</time>
      </trkpt>
      <trkpt lat="43.019275" lon="-1.190685">
        <ele>1020.0</ele>
        <time>2019-08-01T06:24:02.038Z</time>
      </trkpt>
      <trkpt lat="43.019285" lon="-1.19069167">
        <ele>1020.0</ele>
        <time>2019-08-01T06:24:02.918Z</time>
      </trkpt>
      <trkpt lat="43.01929167" lon="-1.190695">
        <ele>1021.0</ele>
        <time>2019-08-01T06:24:03.924Z</time>
      </trkpt>
      <trkpt lat="43.01929833" lon="-1.19069833">
        <ele>1022.0</ele>
        <time>2019-08-01T06:24:04.929Z</time>
      </trkpt>
      <trkpt lat="43.01930333" lon="-1.19070167">
        <ele>1022.0</ele>
        <time>2019-08-01T06:24:05.936Z</time>
      </trkpt>
      <trkpt lat="43.01931167" lon="-1.19070167">
        <ele>1023.0</ele>
        <time>2019-08-01T06:24:06.942Z</time>
      </trkpt>
      <trkpt lat="43.01932167" lon="-1.19070333">
        <ele>1023.0</ele>
        <time>2019-08-01T06:24:07.949Z</time>
      </trkpt>
      <trkpt lat="43.01932833" lon="-1.19070667">
        <ele>1023.0</ele>
        <time>2019-08-01T06:24:08.958Z</time>
      </trkpt>
      <trkpt lat="43.01933667" lon="-1.19071">
        <ele>1023.0</ele>
        <time>2019-08-01T06:24:09.963Z</time>
      </trkpt>
      <trkpt lat="43.019345" lon="-1.190715">
        <ele>1023.0</ele>
        <time>2019-08-01T06:24:10.969Z</time>
      </trkpt>
      <trkpt lat="43.01935667" lon="-1.19072">
        <ele>1023.0</ele>
        <time>2019-08-01T06:24:11.976Z</time>
      </trkpt>
      <trkpt lat="43.01936167" lon="-1.190725">
        <ele>1024.0</ele>
        <time>2019-08-01T06:24:12.982Z</time>
      </trkpt>
      <trkpt lat="43.01937" lon="-1.19073">
        <ele>1024.0</ele>
        <time>2019-08-01T06:24:13.989Z</time>
      </trkpt>
      <trkpt lat="43.019375" lon="-1.19073333">
        <ele>1024.0</ele>
        <time>2019-08-01T06:24:14.994Z</time>
      </trkpt>
      <trkpt lat="43.01938333" lon="-1.19073833">
        <ele>1024.0</ele>
        <time>2019-08-01T06:24:16.001Z</time>
      </trkpt>
      <trkpt lat="43.01939333" lon="-1.19074">
        <ele>1024.0</ele>
        <time>2019-08-01T06:24:17.005Z</time>
      </trkpt>
      <trkpt lat="43.01940167" lon="-1.19074333">
        <ele>1024.0</ele>
        <time>2019-08-01T06:24:18.011Z</time>
      </trkpt>
      <trkpt lat="43.01941167" lon="-1.19074833">
        <ele>1024.0</ele>
        <time>2019-08-01T06:24:19.017Z</time>
      </trkpt>
      <trkpt lat="43.01941833" lon="-1.19075333">
        <ele>1025.0</ele>
        <time>2019-08-01T06:24:20.023Z</time>
      </trkpt>
      <trkpt lat="43.01943" lon="-1.19076">
        <ele>1025.0</ele>
        <time>2019-08-01T06:24:21.029Z</time>
      </trkpt>
      <trkpt lat="43.01943667" lon="-1.19076333">
        <ele>1026.0</ele>
        <time>2019-08-01T06:24:22.036Z</time>
      </trkpt>
      <trkpt lat="43.019445" lon="-1.19076833">
        <ele>1026.0</ele>
        <time>2019-08-01T06:24:23.039Z</time>
      </trkpt>
      <trkpt lat="43.01945" lon="-1.190775">
        <ele>1026.0</ele>
        <time>2019-08-01T06:24:23.919Z</time>
      </trkpt>
      <trkpt lat="43.01945667" lon="-1.190785">
        <ele>1026.0</ele>
        <time>2019-08-01T06:24:24.926Z</time>
      </trkpt>
      <trkpt lat="43.01946167" lon="-1.19079333">
        <ele>1027.0</ele>
        <time>2019-08-01T06:24:25.931Z</time>
      </trkpt>
      <trkpt lat="43.01947" lon="-1.19079833">
        <ele>1027.0</ele>
        <time>2019-08-01T06:24:26.937Z</time>
      </trkpt>
      <trkpt lat="43.01947667" lon="-1.1908">
        <ele>1027.0</ele>
        <time>2019-08-01T06:24:27.944Z</time>
      </trkpt>
      <trkpt lat="43.01948667" lon="-1.19080167">
        <ele>1026.0</ele>
        <time>2019-08-01T06:24:28.952Z</time>
      </trkpt>
      <trkpt lat="43.01949667" lon="-1.19080333">
        <ele>1026.0</ele>
        <time>2019-08-01T06:24:29.958Z</time>
      </trkpt>
      <trkpt lat="43.019505" lon="-1.190805">
        <ele>1026.0</ele>
        <time>2019-08-01T06:24:30.963Z</time>
      </trkpt>
      <trkpt lat="43.01951333" lon="-1.190805">
        <ele>1026.0</ele>
        <time>2019-08-01T06:24:31.969Z</time>
      </trkpt>
      <trkpt lat="43.01952667" lon="-1.19080667">
        <ele>1026.0</ele>
        <time>2019-08-01T06:24:32.975Z</time>
      </trkpt>
      <trkpt lat="43.01953333" lon="-1.19080667">
        <ele>1026.0</ele>
        <time>2019-08-01T06:24:33.982Z</time>
      </trkpt>
      <trkpt lat="43.01954167" lon="-1.19080667">
        <ele>1026.0</ele>
        <time>2019-08-01T06:24:34.988Z</time>
      </trkpt>
      <trkpt lat="43.01955" lon="-1.19080833">
        <ele>1026.0</ele>
        <time>2019-08-01T06:24:35.994Z</time>
      </trkpt>
      <trkpt lat="43.019555" lon="-1.19081167">
        <ele>1026.0</ele>
        <time>2019-08-01T06:24:37.001Z</time>
      </trkpt>
      <trkpt lat="43.01956" lon="-1.190815">
        <ele>1027.0</ele>
        <time>2019-08-01T06:24:38.007Z</time>
      </trkpt>
      <trkpt lat="43.01956333" lon="-1.19081667">
        <ele>1027.0</ele>
        <time>2019-08-01T06:24:39.015Z</time>
      </trkpt>
      <trkpt lat="43.01956333" lon="-1.190815">
        <ele>1027.0</ele>
        <time>2019-08-01T06:24:40.021Z</time>
      </trkpt>
      <trkpt lat="43.019565" lon="-1.19081333">
        <ele>1027.0</ele>
        <time>2019-08-01T06:24:41.027Z</time>
      </trkpt>
      <trkpt lat="43.01956333" lon="-1.19081167">
        <ele>1027.0</ele>
        <time>2019-08-01T06:24:42.034Z</time>
      </trkpt>
      <trkpt lat="43.01956333" lon="-1.19081167">
        <ele>1027.0</ele>
        <time>2019-08-01T06:24:43.041Z</time>
      </trkpt>
      <trkpt lat="43.019565" lon="-1.19081333">
        <ele>1027.0</ele>
        <time>2019-08-01T06:24:43.922Z</time>
      </trkpt>
      <trkpt lat="43.01956667" lon="-1.19082167">
        <ele>1027.0</ele>
        <time>2019-08-01T06:24:44.927Z</time>
      </trkpt>
      <trkpt lat="43.01956833" lon="-1.190825">
        <ele>1027.0</ele>
        <time>2019-08-01T06:24:45.932Z</time>
      </trkpt>
      <trkpt lat="43.01957" lon="-1.19082333">
        <ele>1027.0</ele>
        <time>2019-08-01T06:24:46.937Z</time>
      </trkpt>
      <trkpt lat="43.01957" lon="-1.19082">
        <ele>1028.0</ele>
        <time>2019-08-01T06:24:47.945Z</time>
      </trkpt>
      <trkpt lat="43.01957" lon="-1.19081833">
        <ele>1028.0</ele>
        <time>2019-08-01T06:24:48.953Z</time>
      </trkpt>
      <trkpt lat="43.01957" lon="-1.19081667">
        <ele>1028.0</ele>
        <time>2019-08-01T06:24:49.960Z</time>
      </trkpt>
      <trkpt lat="43.019565" lon="-1.19081333">
        <ele>1029.0</ele>
        <time>2019-08-01T06:24:50.964Z</time>
      </trkpt>
      <trkpt lat="43.01956333" lon="-1.19081">
        <ele>1029.0</ele>
        <time>2019-08-01T06:24:51.967Z</time>
      </trkpt>
      <trkpt lat="43.01956" lon="-1.19080667">
        <ele>1029.0</ele>
        <time>2019-08-01T06:24:52.973Z</time>
      </trkpt>
      <trkpt lat="43.01956" lon="-1.19080333">
        <ele>1029.0</ele>
        <time>2019-08-01T06:24:53.980Z</time>
      </trkpt>
      <trkpt lat="43.01956167" lon="-1.19080167">
        <ele>1029.0</ele>
        <time>2019-08-01T06:24:54.985Z</time>
      </trkpt>
      <trkpt lat="43.01956333" lon="-1.1908">
        <ele>1030.0</ele>
        <time>2019-08-01T06:24:55.990Z</time>
      </trkpt>
      <trkpt lat="43.01956167" lon="-1.1908">
        <ele>1030.0</ele>
        <time>2019-08-01T06:24:56.996Z</time>
      </trkpt>
      <trkpt lat="43.01956" lon="-1.1908">
        <ele>1029.0</ele>
        <time>2019-08-01T06:24:58.002Z</time>
      </trkpt>
      <trkpt lat="43.01955833" lon="-1.1908">
        <ele>1029.0</ele>
        <time>2019-08-01T06:24:59.007Z</time>
      </trkpt>
      <trkpt lat="43.01955667" lon="-1.1908">
        <ele>1029.0</ele>
        <time>2019-08-01T06:25:00.013Z</time>
      </trkpt>
      <trkpt lat="43.01955333" lon="-1.1908">
        <ele>1028.0</ele>
        <time>2019-08-01T06:25:01.020Z</time>
      </trkpt>
      <trkpt lat="43.01955167" lon="-1.1908">
        <ele>1028.0</ele>
        <time>2019-08-01T06:25:02.027Z</time>
      </trkpt>
      <trkpt lat="43.01955" lon="-1.19080167">
        <ele>1028.0</ele>
        <time>2019-08-01T06:25:03.033Z</time>
      </trkpt>
      <trkpt lat="43.01954667" lon="-1.19080167">
        <ele>1028.0</ele>
        <time>2019-08-01T06:25:04.037Z</time>
      </trkpt>
      <trkpt lat="43.01954833" lon="-1.19080333">
        <ele>1027.0</ele>
        <time>2019-08-01T06:25:05.040Z</time>
      </trkpt>
      <trkpt lat="43.01954833" lon="-1.19080167">
        <ele>1027.0</ele>
        <time>2019-08-01T06:25:05.919Z</time>
      </trkpt>
      <trkpt lat="43.01954667" lon="-1.19080167">
        <ele>1027.0</ele>
        <time>2019-08-01T06:25:06.923Z</time>
      </trkpt>
      <trkpt lat="43.01954833" lon="-1.19080333">
        <ele>1027.0</ele>
        <time>2019-08-01T06:25:07.929Z</time>
      </trkpt>
      <trkpt lat="43.01955" lon="-1.19080333">
        <ele>1027.0</ele>
        <time>2019-08-01T06:25:08.936Z</time>
      </trkpt>
      <trkpt lat="43.01955167" lon="-1.19080333">
        <ele>1026.0</ele>
        <time>2019-08-01T06:25:09.943Z</time>
      </trkpt>
      <trkpt lat="43.019555" lon="-1.190805">
        <ele>1026.0</ele>
        <time>2019-08-01T06:25:10.949Z</time>
      </trkpt>
      <trkpt lat="43.019555" lon="-1.19080167">
        <ele>1026.0</ele>
        <time>2019-08-01T06:25:11.956Z</time>
      </trkpt>
      <trkpt lat="43.019555" lon="-1.1908">
        <ele>1027.0</ele>
        <time>2019-08-01T06:25:12.961Z</time>
      </trkpt>
      <trkpt lat="43.01955667" lon="-1.1908">
        <ele>1027.0</ele>
        <time>2019-08-01T06:25:13.968Z</time>
      </trkpt>
      <trkpt lat="43.019555" lon="-1.19080167">
        <ele>1027.0</ele>
        <time>2019-08-01T06:25:14.975Z</time>
      </trkpt>
      <trkpt lat="43.019555" lon="-1.1908">
        <ele>1027.0</ele>
        <time>2019-08-01T06:25:15.981Z</time>
      </trkpt>
      <trkpt lat="43.01955667" lon="-1.1908">
        <ele>1026.0</ele>
        <time>2019-08-01T06:25:16.986Z</time>
      </trkpt>
      <trkpt lat="43.01955667" lon="-1.1908">
        <ele>1026.0</ele>
        <time>2019-08-01T06:25:17.991Z</time>
      </trkpt>
      <trkpt lat="43.019555" lon="-1.19079833">
        <ele>1026.0</ele>
        <time>2019-08-01T06:25:18.998Z</time>
      </trkpt>
      <trkpt lat="43.01955667" lon="-1.19079833">
        <ele>1026.0</ele>
        <time>2019-08-01T06:25:20.004Z</time>
      </trkpt>
      <trkpt lat="43.01955667" lon="-1.1908">
        <ele>1026.0</ele>
        <time>2019-08-01T06:25:21.011Z</time>
      </trkpt>
      <trkpt lat="43.019555" lon="-1.19079667">
        <ele>1026.0</ele>
        <time>2019-08-01T06:25:22.019Z</time>
      </trkpt>
      <trkpt lat="43.019555" lon="-1.19079667">
        <ele>1027.0</ele>
        <time>2019-08-01T06:25:23.025Z</time>
      </trkpt>
      <trkpt lat="43.019555" lon="-1.19079667">
        <ele>1027.0</ele>
        <time>2019-08-01T06:25:24.033Z</time>
      </trkpt>
      <trkpt lat="43.019555" lon="-1.19079833">
        <ele>1027.0</ele>
        <time>2019-08-01T06:25:25.040Z</time>
      </trkpt>
      <trkpt lat="43.01955667" lon="-1.19079833">
        <ele>1027.0</ele>
        <time>2019-08-01T06:25:25.920Z</time>
      </trkpt>
      <trkpt lat="43.01955667" lon="-1.19079667">
        <ele>1027.0</ele>
        <time>2019-08-01T06:25:26.925Z</time>
      </trkpt>
      <trkpt lat="43.01955833" lon="-1.190795">
        <ele>1027.0</ele>
        <time>2019-08-01T06:25:27.933Z</time>
      </trkpt>
      <trkpt lat="43.01956" lon="-1.190795">
        <ele>1027.0</ele>
        <time>2019-08-01T06:25:28.940Z</time>
      </trkpt>
      <trkpt lat="43.01956" lon="-1.19079333">
        <ele>1027.0</ele>
        <time>2019-08-01T06:25:29.947Z</time>
      </trkpt>
      <trkpt lat="43.01956" lon="-1.190795">
        <ele>1027.0</ele>
        <time>2019-08-01T06:25:30.954Z</time>
      </trkpt>
      <trkpt lat="43.01955833" lon="-1.19079333">
        <ele>1027.0</ele>
        <time>2019-08-01T06:25:31.959Z</time>
      </trkpt>
      <trkpt lat="43.01955833" lon="-1.19079667">
        <ele>1027.0</ele>
        <time>2019-08-01T06:25:32.963Z</time>
      </trkpt>
      <trkpt lat="43.01956" lon="-1.19079667">
        <ele>1027.0</ele>
        <time>2019-08-01T06:25:33.971Z</time>
      </trkpt>
      <trkpt lat="43.01955833" lon="-1.19079667">
        <ele>1026.0</ele>
        <time>2019-08-01T06:25:34.978Z</time>
      </trkpt>
      <trkpt lat="43.01955833" lon="-1.19079667">
        <ele>1026.0</ele>
        <time>2019-08-01T06:25:35.984Z</time>
      </trkpt>
      <trkpt lat="43.01955833" lon="-1.19079667">
        <ele>1026.0</ele>
        <time>2019-08-01T06:25:36.990Z</time>
      </trkpt>
      <trkpt lat="43.01955833" lon="-1.19079667">
        <ele>1026.0</ele>
        <time>2019-08-01T06:25:37.997Z</time>
      </trkpt>
      <trkpt lat="43.01955833" lon="-1.19079667">
        <ele>1026.0</ele>
        <time>2019-08-01T06:25:39.002Z</time>
      </trkpt>
      <trkpt lat="43.01955833" lon="-1.19079833">
        <ele>1026.0</ele>
        <time>2019-08-01T06:25:40.009Z</time>
      </trkpt>
      <trkpt lat="43.01956" lon="-1.1908">
        <ele>1027.0</ele>
        <time>2019-08-01T06:25:41.016Z</time>
      </trkpt>
      <trkpt lat="43.01956" lon="-1.19079833">
        <ele>1027.0</ele>
        <time>2019-08-01T06:25:42.022Z</time>
      </trkpt>
      <trkpt lat="43.01956" lon="-1.19079833">
        <ele>1027.0</ele>
        <time>2019-08-01T06:25:43.028Z</time>
      </trkpt>
      <trkpt lat="43.01955833" lon="-1.19079833">
        <ele>1027.0</ele>
        <time>2019-08-01T06:25:44.033Z</time>
      </trkpt>
      <trkpt lat="43.01955833" lon="-1.19079833">
        <ele>1027.0</ele>
        <time>2019-08-01T06:25:45.037Z</time>
      </trkpt>
      <trkpt lat="43.01956" lon="-1.19079833">
        <ele>1027.0</ele>
        <time>2019-08-01T06:25:45.918Z</time>
      </trkpt>
      <trkpt lat="43.01956167" lon="-1.1908">
        <ele>1028.0</ele>
        <time>2019-08-01T06:25:46.924Z</time>
      </trkpt>
      <trkpt lat="43.01956167" lon="-1.19080167">
        <ele>1027.0</ele>
        <time>2019-08-01T06:25:47.929Z</time>
      </trkpt>
      <trkpt lat="43.01956167" lon="-1.19080333">
        <ele>1027.0</ele>
        <time>2019-08-01T06:25:48.936Z</time>
      </trkpt>
      <trkpt lat="43.01956167" lon="-1.19080167">
        <ele>1028.0</ele>
        <time>2019-08-01T06:25:49.943Z</time>
      </trkpt>
      <trkpt lat="43.01956167" lon="-1.1908">
        <ele>1028.0</ele>
        <time>2019-08-01T06:25:50.950Z</time>
      </trkpt>
      <trkpt lat="43.01956333" lon="-1.1908">
        <ele>1029.0</ele>
        <time>2019-08-01T06:25:51.957Z</time>
      </trkpt>
      <trkpt lat="43.01956333" lon="-1.1908">
        <ele>1029.0</ele>
        <time>2019-08-01T06:25:52.964Z</time>
      </trkpt>
      <trkpt lat="43.01956333" lon="-1.1908">
        <ele>1029.0</ele>
        <time>2019-08-01T06:25:53.970Z</time>
      </trkpt>
      <trkpt lat="43.01956333" lon="-1.19080167">
        <ele>1029.0</ele>
        <time>2019-08-01T06:25:54.975Z</time>
      </trkpt>
      <trkpt lat="43.019565" lon="-1.19080167">
        <ele>1029.0</ele>
        <time>2019-08-01T06:25:55.981Z</time>
      </trkpt>
      <trkpt lat="43.01956333" lon="-1.19080333">
        <ele>1029.0</ele>
        <time>2019-08-01T06:25:56.987Z</time>
      </trkpt>
      <trkpt lat="43.019565" lon="-1.19080333">
        <ele>1029.0</ele>
        <time>2019-08-01T06:25:57.993Z</time>
      </trkpt>
      <trkpt lat="43.019565" lon="-1.19080167">
        <ele>1029.0</ele>
        <time>2019-08-01T06:25:59.000Z</time>
      </trkpt>
      <trkpt lat="43.019565" lon="-1.19080333">
        <ele>1029.0</ele>
        <time>2019-08-01T06:26:00.006Z</time>
      </trkpt>
      <trkpt lat="43.019565" lon="-1.19080333">
        <ele>1029.0</ele>
        <time>2019-08-01T06:26:01.012Z</time>
      </trkpt>
      <trkpt lat="43.01955833" lon="-1.19080167">
        <ele>1028.0</ele>
        <time>2019-08-01T06:26:02.020Z</time>
      </trkpt>
      <trkpt lat="43.019555" lon="-1.19080167">
        <ele>1028.0</ele>
        <time>2019-08-01T06:26:03.025Z</time>
      </trkpt>
      <trkpt lat="43.01955167" lon="-1.19080167">
        <ele>1028.0</ele>
        <time>2019-08-01T06:26:04.029Z</time>
      </trkpt>
      <trkpt lat="43.01955167" lon="-1.1908">
        <ele>1028.0</ele>
        <time>2019-08-01T06:26:05.033Z</time>
      </trkpt>
      <trkpt lat="43.01955333" lon="-1.19079667">
        <ele>1028.0</ele>
        <time>2019-08-01T06:26:06.040Z</time>
      </trkpt>
      <trkpt lat="43.01955167" lon="-1.19079">
        <ele>1028.0</ele>
        <time>2019-08-01T06:26:06.919Z</time>
      </trkpt>
      <trkpt lat="43.01955167" lon="-1.19079">
        <ele>1028.0</ele>
        <time>2019-08-01T06:26:07.924Z</time>
      </trkpt>
      <trkpt lat="43.01955167" lon="-1.19079">
        <ele>1028.0</ele>
        <time>2019-08-01T06:26:08.928Z</time>
      </trkpt>
      <trkpt lat="43.01955333" lon="-1.19079167">
        <ele>1028.0</ele>
        <time>2019-08-01T06:26:09.934Z</time>
      </trkpt>
      <trkpt lat="43.01955333" lon="-1.19079333">
        <ele>1028.0</ele>
        <time>2019-08-01T06:26:10.940Z</time>
      </trkpt>
      <trkpt lat="43.019555" lon="-1.190795">
        <ele>1027.0</ele>
        <time>2019-08-01T06:26:11.947Z</time>
      </trkpt>
      <trkpt lat="43.019555" lon="-1.19079667">
        <ele>1027.0</ele>
        <time>2019-08-01T06:26:12.954Z</time>
      </trkpt>
      <trkpt lat="43.019555" lon="-1.1908">
        <ele>1027.0</ele>
        <time>2019-08-01T06:26:13.958Z</time>
      </trkpt>
      <trkpt lat="43.01955833" lon="-1.19080333">
        <ele>1026.0</ele>
        <time>2019-08-01T06:26:14.960Z</time>
      </trkpt>
      <trkpt lat="43.01955833" lon="-1.190805">
        <ele>1026.0</ele>
        <time>2019-08-01T06:26:15.967Z</time>
      </trkpt>
      <trkpt lat="43.01955833" lon="-1.190805">
        <ele>1026.0</ele>
        <time>2019-08-01T06:26:16.974Z</time>
      </trkpt>
      <trkpt lat="43.01955667" lon="-1.19080333">
        <ele>1026.0</ele>
        <time>2019-08-01T06:26:17.981Z</time>
      </trkpt>
      <trkpt lat="43.019555" lon="-1.19080167">
        <ele>1026.0</ele>
        <time>2019-08-01T06:26:18.987Z</time>
      </trkpt>
      <trkpt lat="43.01955333" lon="-1.19080167">
        <ele>1026.0</ele>
        <time>2019-08-01T06:26:19.994Z</time>
      </trkpt>
      <trkpt lat="43.01955667" lon="-1.1908">
        <ele>1026.0</ele>
        <time>2019-08-01T06:26:20.999Z</time>
      </trkpt>
      <trkpt lat="43.01955833" lon="-1.1908">
        <ele>1025.0</ele>
        <time>2019-08-01T06:26:22.004Z</time>
      </trkpt>
      <trkpt lat="43.01955667" lon="-1.1908">
        <ele>1025.0</ele>
        <time>2019-08-01T06:26:23.009Z</time>
      </trkpt>
      <trkpt lat="43.01955667" lon="-1.19079833">
        <ele>1025.0</ele>
        <time>2019-08-01T06:26:24.013Z</time>
      </trkpt>
      <trkpt lat="43.01955833" lon="-1.19079833">
        <ele>1026.0</ele>
        <time>2019-08-01T06:26:25.018Z</time>
      </trkpt>
      <trkpt lat="43.01955667" lon="-1.19079833">
        <ele>1026.0</ele>
        <time>2019-08-01T06:26:26.024Z</time>
      </trkpt>
      <trkpt lat="43.01955833" lon="-1.19079833">
        <ele>1026.0</ele>
        <time>2019-08-01T06:26:27.031Z</time>
      </trkpt>
      <trkpt lat="43.01955833" lon="-1.19079833">
        <ele>1026.0</ele>
        <time>2019-08-01T06:26:28.037Z</time>
      </trkpt>
      <trkpt lat="43.01956" lon="-1.19079667">
        <ele>1026.0</ele>
        <time>2019-08-01T06:26:29.044Z</time>
      </trkpt>
      <trkpt lat="43.01955667" lon="-1.19079833">
        <ele>1026.0</ele>
        <time>2019-08-01T06:26:29.924Z</time>
      </trkpt>
      <trkpt lat="43.01955333" lon="-1.19079833">
        <ele>1025.0</ele>
        <time>2019-08-01T06:26:30.930Z</time>
      </trkpt>
      <trkpt lat="43.01955167" lon="-1.19079833">
        <ele>1026.0</ele>
        <time>2019-08-01T06:26:31.935Z</time>
      </trkpt>
      <trkpt lat="43.01955333" lon="-1.19079833">
        <ele>1025.0</ele>
        <time>2019-08-01T06:26:32.941Z</time>
      </trkpt>
      <trkpt lat="43.019555" lon="-1.1908">
        <ele>1025.0</ele>
        <time>2019-08-01T06:26:33.949Z</time>
      </trkpt>
      <trkpt lat="43.01955667" lon="-1.1908">
        <ele>1025.0</ele>
        <time>2019-08-01T06:26:34.953Z</time>
      </trkpt>
      <trkpt lat="43.01955667" lon="-1.1908">
        <ele>1025.0</ele>
        <time>2019-08-01T06:26:35.957Z</time>
      </trkpt>
      <trkpt lat="43.01955333" lon="-1.19080167">
        <ele>1025.0</ele>
        <time>2019-08-01T06:26:36.963Z</time>
      </trkpt>
      <trkpt lat="43.01955333" lon="-1.19080333">
        <ele>1025.0</ele>
        <time>2019-08-01T06:26:37.969Z</time>
      </trkpt>
      <trkpt lat="43.01955333" lon="-1.190805">
        <ele>1026.0</ele>
        <time>2019-08-01T06:26:38.976Z</time>
      </trkpt>
      <trkpt lat="43.019555" lon="-1.19080667">
        <ele>1025.0</ele>
        <time>2019-08-01T06:26:39.982Z</time>
      </trkpt>
      <trkpt lat="43.019555" lon="-1.19080833">
        <ele>1025.0</ele>
        <time>2019-08-01T06:26:40.988Z</time>
      </trkpt>
      <trkpt lat="43.01955333" lon="-1.190805">
        <ele>1025.0</ele>
        <time>2019-08-01T06:26:41.994Z</time>
      </trkpt>
      <trkpt lat="43.01967" lon="-1.19088">
        <ele>1029.0</ele>
        <time>2019-08-01T06:26:44.002Z</time>
      </trkpt>
      <trkpt lat="43.01967833" lon="-1.190885">
        <ele>1029.0</ele>
        <time>2019-08-01T06:26:45.007Z</time>
      </trkpt>
      <trkpt lat="43.019685" lon="-1.19088667">
        <ele>1029.0</ele>
        <time>2019-08-01T06:26:46.014Z</time>
      </trkpt>
      <trkpt lat="43.01969167" lon="-1.19088667">
        <ele>1029.0</ele>
        <time>2019-08-01T06:26:47.020Z</time>
      </trkpt>
      <trkpt lat="43.01969833" lon="-1.19088833">
        <ele>1029.0</ele>
        <time>2019-08-01T06:26:48.026Z</time>
      </trkpt>
      <trkpt lat="43.01970667" lon="-1.19089167">
        <ele>1029.0</ele>
        <time>2019-08-01T06:26:49.031Z</time>
      </trkpt>
      <trkpt lat="43.019715" lon="-1.19089167">
        <ele>1029.0</ele>
        <time>2019-08-01T06:26:50.037Z</time>
      </trkpt>
      <trkpt lat="43.01972167" lon="-1.190895">
        <ele>1029.0</ele>
        <time>2019-08-01T06:26:50.918Z</time>
      </trkpt>
      <trkpt lat="43.01972667" lon="-1.19089667">
        <ele>1029.0</ele>
        <time>2019-08-01T06:26:51.925Z</time>
      </trkpt>
      <trkpt lat="43.019735" lon="-1.19090167">
        <ele>1029.0</ele>
        <time>2019-08-01T06:26:52.931Z</time>
      </trkpt>
      <trkpt lat="43.01974667" lon="-1.19091167">
        <ele>1029.0</ele>
        <time>2019-08-01T06:26:53.937Z</time>
      </trkpt>
      <trkpt lat="43.019755" lon="-1.19091667">
        <ele>1029.0</ele>
        <time>2019-08-01T06:26:54.941Z</time>
      </trkpt>
      <trkpt lat="43.01976167" lon="-1.19092167">
        <ele>1028.0</ele>
        <time>2019-08-01T06:26:55.946Z</time>
      </trkpt>
      <trkpt lat="43.01977167" lon="-1.19093">
        <ele>1029.0</ele>
        <time>2019-08-01T06:26:56.952Z</time>
      </trkpt>
      <trkpt lat="43.01978" lon="-1.19093667">
        <ele>1029.0</ele>
        <time>2019-08-01T06:26:57.956Z</time>
      </trkpt>
      <trkpt lat="43.019785" lon="-1.19094333">
        <ele>1029.0</ele>
        <time>2019-08-01T06:26:58.963Z</time>
      </trkpt>
      <trkpt lat="43.01979167" lon="-1.19094667">
        <ele>1029.0</ele>
        <time>2019-08-01T06:26:59.970Z</time>
      </trkpt>
      <trkpt lat="43.01979833" lon="-1.190955">
        <ele>1030.0</ele>
        <time>2019-08-01T06:27:00.976Z</time>
      </trkpt>
      <trkpt lat="43.01980333" lon="-1.19096333">
        <ele>1030.0</ele>
        <time>2019-08-01T06:27:01.982Z</time>
      </trkpt>
      <trkpt lat="43.01981" lon="-1.19097">
        <ele>1030.0</ele>
        <time>2019-08-01T06:27:02.989Z</time>
      </trkpt>
      <trkpt lat="43.01981833" lon="-1.19097667">
        <ele>1030.0</ele>
        <time>2019-08-01T06:27:03.995Z</time>
      </trkpt>
      <trkpt lat="43.019825" lon="-1.19098333">
        <ele>1030.0</ele>
        <time>2019-08-01T06:27:04.998Z</time>
      </trkpt>
      <trkpt lat="43.01983333" lon="-1.19099">
        <ele>1030.0</ele>
        <time>2019-08-01T06:27:06.005Z</time>
      </trkpt>
      <trkpt lat="43.01984333" lon="-1.19099833">
        <ele>1030.0</ele>
        <time>2019-08-01T06:27:07.008Z</time>
      </trkpt>
      <trkpt lat="43.01985167" lon="-1.19100667">
        <ele>1030.0</ele>
        <time>2019-08-01T06:27:08.013Z</time>
      </trkpt>
      <trkpt lat="43.01985667" lon="-1.19101333">
        <ele>1031.0</ele>
        <time>2019-08-01T06:27:09.019Z</time>
      </trkpt>
      <trkpt lat="43.01986167" lon="-1.19102">
        <ele>1031.0</ele>
        <time>2019-08-01T06:27:10.024Z</time>
      </trkpt>
      <trkpt lat="43.01986667" lon="-1.19102667">
        <ele>1031.0</ele>
        <time>2019-08-01T06:27:11.029Z</time>
      </trkpt>
      <trkpt lat="43.01987167" lon="-1.19103167">
        <ele>1032.0</ele>
        <time>2019-08-01T06:27:12.035Z</time>
      </trkpt>
      <trkpt lat="43.019875" lon="-1.19104">
        <ele>1032.0</ele>
        <time>2019-08-01T06:27:13.040Z</time>
      </trkpt>
      <trkpt lat="43.01988" lon="-1.19104667">
        <ele>1032.0</ele>
        <time>2019-08-01T06:27:13.919Z</time>
      </trkpt>
      <trkpt lat="43.01988333" lon="-1.19105333">
        <ele>1032.0</ele>
        <time>2019-08-01T06:27:14.925Z</time>
      </trkpt>
      <trkpt lat="43.01988833" lon="-1.19106">
        <ele>1032.0</ele>
        <time>2019-08-01T06:27:15.929Z</time>
      </trkpt>
      <trkpt lat="43.01989167" lon="-1.19107167">
        <ele>1033.0</ele>
        <time>2019-08-01T06:27:16.937Z</time>
      </trkpt>
      <trkpt lat="43.01989833" lon="-1.19108">
        <ele>1033.0</ele>
        <time>2019-08-01T06:27:17.945Z</time>
      </trkpt>
      <trkpt lat="43.019905" lon="-1.19108833">
        <ele>1033.0</ele>
        <time>2019-08-01T06:27:18.951Z</time>
      </trkpt>
      <trkpt lat="43.01991" lon="-1.19109667">
        <ele>1033.0</ele>
        <time>2019-08-01T06:27:19.958Z</time>
      </trkpt>
      <trkpt lat="43.01991667" lon="-1.19110667">
        <ele>1033.0</ele>
        <time>2019-08-01T06:27:20.965Z</time>
      </trkpt>
      <trkpt lat="43.01992333" lon="-1.191115">
        <ele>1033.0</ele>
        <time>2019-08-01T06:27:21.972Z</time>
      </trkpt>
      <trkpt lat="43.01993167" lon="-1.191125">
        <ele>1033.0</ele>
        <time>2019-08-01T06:27:22.976Z</time>
      </trkpt>
      <trkpt lat="43.01993833" lon="-1.19113333">
        <ele>1034.0</ele>
        <time>2019-08-01T06:27:23.981Z</time>
      </trkpt>
      <trkpt lat="43.019945" lon="-1.19114167">
        <ele>1034.0</ele>
        <time>2019-08-01T06:27:24.988Z</time>
      </trkpt>
      <trkpt lat="43.01995333" lon="-1.19114833">
        <ele>1034.0</ele>
        <time>2019-08-01T06:27:25.993Z</time>
      </trkpt>
      <trkpt lat="43.01996333" lon="-1.19115833">
        <ele>1034.0</ele>
        <time>2019-08-01T06:27:26.999Z</time>
      </trkpt>
      <trkpt lat="43.01997167" lon="-1.19116667">
        <ele>1035.0</ele>
        <time>2019-08-01T06:27:28.005Z</time>
      </trkpt>
      <trkpt lat="43.01998" lon="-1.19117167">
        <ele>1034.0</ele>
        <time>2019-08-01T06:27:29.010Z</time>
      </trkpt>
      <trkpt lat="43.01999167" lon="-1.19118">
        <ele>1034.0</ele>
        <time>2019-08-01T06:27:30.015Z</time>
      </trkpt>
      <trkpt lat="43.01999833" lon="-1.191185">
        <ele>1034.0</ele>
        <time>2019-08-01T06:27:31.022Z</time>
      </trkpt>
      <trkpt lat="43.02001" lon="-1.19119333">
        <ele>1034.0</ele>
        <time>2019-08-01T06:27:32.030Z</time>
      </trkpt>
      <trkpt lat="43.02002167" lon="-1.19120167">
        <ele>1033.0</ele>
        <time>2019-08-01T06:27:33.036Z</time>
      </trkpt>
      <trkpt lat="43.02003" lon="-1.19121167">
        <ele>1033.0</ele>
        <time>2019-08-01T06:27:34.039Z</time>
      </trkpt>
      <trkpt lat="43.02004" lon="-1.19121833">
        <ele>1034.0</ele>
        <time>2019-08-01T06:27:34.919Z</time>
      </trkpt>
      <trkpt lat="43.02004833" lon="-1.191225">
        <ele>1034.0</ele>
        <time>2019-08-01T06:27:35.926Z</time>
      </trkpt>
      <trkpt lat="43.02005667" lon="-1.19123167">
        <ele>1033.0</ele>
        <time>2019-08-01T06:27:36.934Z</time>
      </trkpt>
      <trkpt lat="43.020065" lon="-1.191235">
        <ele>1033.0</ele>
        <time>2019-08-01T06:27:37.940Z</time>
      </trkpt>
      <trkpt lat="43.02007167" lon="-1.19124">
        <ele>1033.0</ele>
        <time>2019-08-01T06:27:38.947Z</time>
      </trkpt>
      <trkpt lat="43.02007833" lon="-1.19124667">
        <ele>1033.0</ele>
        <time>2019-08-01T06:27:39.954Z</time>
      </trkpt>
      <trkpt lat="43.02008833" lon="-1.19125167">
        <ele>1033.0</ele>
        <time>2019-08-01T06:27:40.959Z</time>
      </trkpt>
      <trkpt lat="43.0201" lon="-1.19125667">
        <ele>1033.0</ele>
        <time>2019-08-01T06:27:41.966Z</time>
      </trkpt>
      <trkpt lat="43.02010833" lon="-1.19126167">
        <ele>1033.0</ele>
        <time>2019-08-01T06:27:42.973Z</time>
      </trkpt>
      <trkpt lat="43.02011833" lon="-1.19126667">
        <ele>1033.0</ele>
        <time>2019-08-01T06:27:43.979Z</time>
      </trkpt>
      <trkpt lat="43.02012667" lon="-1.19127">
        <ele>1033.0</ele>
        <time>2019-08-01T06:27:44.985Z</time>
      </trkpt>
      <trkpt lat="43.02013667" lon="-1.191275">
        <ele>1033.0</ele>
        <time>2019-08-01T06:27:45.992Z</time>
      </trkpt>
      <trkpt lat="43.020145" lon="-1.19127833">
        <ele>1033.0</ele>
        <time>2019-08-01T06:27:46.999Z</time>
      </trkpt>
      <trkpt lat="43.020155" lon="-1.191285">
        <ele>1033.0</ele>
        <time>2019-08-01T06:27:48.003Z</time>
      </trkpt>
      <trkpt lat="43.02016167" lon="-1.19129">
        <ele>1033.0</ele>
        <time>2019-08-01T06:27:49.009Z</time>
      </trkpt>
      <trkpt lat="43.02016833" lon="-1.19129667">
        <ele>1033.0</ele>
        <time>2019-08-01T06:27:50.014Z</time>
      </trkpt>
      <trkpt lat="43.02017667" lon="-1.191305">
        <ele>1034.0</ele>
        <time>2019-08-01T06:27:51.019Z</time>
      </trkpt>
      <trkpt lat="43.02018333" lon="-1.19131333">
        <ele>1034.0</ele>
        <time>2019-08-01T06:27:52.026Z</time>
      </trkpt>
      <trkpt lat="43.02019167" lon="-1.19132">
        <ele>1034.0</ele>
        <time>2019-08-01T06:27:53.031Z</time>
      </trkpt>
      <trkpt lat="43.0202" lon="-1.19132833">
        <ele>1034.0</ele>
        <time>2019-08-01T06:27:54.036Z</time>
      </trkpt>
      <trkpt lat="43.02021" lon="-1.19133833">
        <ele>1034.0</ele>
        <time>2019-08-01T06:27:55.042Z</time>
      </trkpt>
      <trkpt lat="43.020215" lon="-1.19134333">
        <ele>1034.0</ele>
        <time>2019-08-01T06:27:55.923Z</time>
      </trkpt>
      <trkpt lat="43.02022333" lon="-1.19135">
        <ele>1034.0</ele>
        <time>2019-08-01T06:27:56.930Z</time>
      </trkpt>
      <trkpt lat="43.02023167" lon="-1.19135667">
        <ele>1034.0</ele>
        <time>2019-08-01T06:27:57.936Z</time>
      </trkpt>
      <trkpt lat="43.02023833" lon="-1.19136167">
        <ele>1034.0</ele>
        <time>2019-08-01T06:27:58.944Z</time>
      </trkpt>
      <trkpt lat="43.02024667" lon="-1.19136667">
        <ele>1034.0</ele>
        <time>2019-08-01T06:27:59.949Z</time>
      </trkpt>
      <trkpt lat="43.020255" lon="-1.191375">
        <ele>1034.0</ele>
        <time>2019-08-01T06:28:00.956Z</time>
      </trkpt>
      <trkpt lat="43.02026333" lon="-1.191385">
        <ele>1034.0</ele>
        <time>2019-08-01T06:28:01.963Z</time>
      </trkpt>
      <trkpt lat="43.02027167" lon="-1.19139167">
        <ele>1034.0</ele>
        <time>2019-08-01T06:28:02.971Z</time>
      </trkpt>
      <trkpt lat="43.02028" lon="-1.1914">
        <ele>1035.0</ele>
        <time>2019-08-01T06:28:03.975Z</time>
      </trkpt>
      <trkpt lat="43.02028833" lon="-1.19140833">
        <ele>1035.0</ele>
        <time>2019-08-01T06:28:04.981Z</time>
      </trkpt>
      <trkpt lat="43.02029667" lon="-1.19141">
        <ele>1035.0</ele>
        <time>2019-08-01T06:28:05.988Z</time>
      </trkpt>
      <trkpt lat="43.020305" lon="-1.19141333">
        <ele>1035.0</ele>
        <time>2019-08-01T06:28:06.996Z</time>
      </trkpt>
      <trkpt lat="43.020315" lon="-1.19141667">
        <ele>1036.0</ele>
        <time>2019-08-01T06:28:08.001Z</time>
      </trkpt>
      <trkpt lat="43.02032333" lon="-1.19141667">
        <ele>1036.0</ele>
        <time>2019-08-01T06:28:09.006Z</time>
      </trkpt>
      <trkpt lat="43.02033333" lon="-1.191415">
        <ele>1036.0</ele>
        <time>2019-08-01T06:28:10.013Z</time>
      </trkpt>
      <trkpt lat="43.02034167" lon="-1.19141">
        <ele>1035.0</ele>
        <time>2019-08-01T06:28:11.015Z</time>
      </trkpt>
      <trkpt lat="43.02034833" lon="-1.19140667">
        <ele>1036.0</ele>
        <time>2019-08-01T06:28:12.021Z</time>
      </trkpt>
      <trkpt lat="43.02035667" lon="-1.1914">
        <ele>1035.0</ele>
        <time>2019-08-01T06:28:13.025Z</time>
      </trkpt>
      <trkpt lat="43.02036667" lon="-1.19139667">
        <ele>1035.0</ele>
        <time>2019-08-01T06:28:14.031Z</time>
      </trkpt>
      <trkpt lat="43.02037667" lon="-1.191395">
        <ele>1035.0</ele>
        <time>2019-08-01T06:28:15.038Z</time>
      </trkpt>
      <trkpt lat="43.020385" lon="-1.19139167">
        <ele>1035.0</ele>
        <time>2019-08-01T06:28:16.040Z</time>
      </trkpt>
      <trkpt lat="43.02039333" lon="-1.19139167">
        <ele>1035.0</ele>
        <time>2019-08-01T06:28:16.919Z</time>
      </trkpt>
      <trkpt lat="43.02040667" lon="-1.19139333">
        <ele>1035.0</ele>
        <time>2019-08-01T06:28:17.926Z</time>
      </trkpt>
      <trkpt lat="43.020415" lon="-1.191395">
        <ele>1035.0</ele>
        <time>2019-08-01T06:28:18.932Z</time>
      </trkpt>
      <trkpt lat="43.02042333" lon="-1.19139833">
        <ele>1035.0</ele>
        <time>2019-08-01T06:28:19.938Z</time>
      </trkpt>
      <trkpt lat="43.02043167" lon="-1.19140333">
        <ele>1035.0</ele>
        <time>2019-08-01T06:28:20.944Z</time>
      </trkpt>
      <trkpt lat="43.02044" lon="-1.191405">
        <ele>1035.0</ele>
        <time>2019-08-01T06:28:21.948Z</time>
      </trkpt>
      <trkpt lat="43.02044833" lon="-1.19140833">
        <ele>1036.0</ele>
        <time>2019-08-01T06:28:22.954Z</time>
      </trkpt>
      <trkpt lat="43.02045667" lon="-1.19141167">
        <ele>1036.0</ele>
        <time>2019-08-01T06:28:23.959Z</time>
      </trkpt>
      <trkpt lat="43.02046667" lon="-1.19141167">
        <ele>1036.0</ele>
        <time>2019-08-01T06:28:24.964Z</time>
      </trkpt>
      <trkpt lat="43.02047667" lon="-1.19141333">
        <ele>1037.0</ele>
        <time>2019-08-01T06:28:25.970Z</time>
      </trkpt>
      <trkpt lat="43.020485" lon="-1.19141667">
        <ele>1037.0</ele>
        <time>2019-08-01T06:28:26.976Z</time>
      </trkpt>
      <trkpt lat="43.02049333" lon="-1.19141833">
        <ele>1037.0</ele>
        <time>2019-08-01T06:28:27.982Z</time>
      </trkpt>
      <trkpt lat="43.02050167" lon="-1.19142167">
        <ele>1037.0</ele>
        <time>2019-08-01T06:28:28.988Z</time>
      </trkpt>
      <trkpt lat="43.02051" lon="-1.19142333">
        <ele>1037.0</ele>
        <time>2019-08-01T06:28:29.994Z</time>
      </trkpt>
      <trkpt lat="43.02051833" lon="-1.191425">
        <ele>1037.0</ele>
        <time>2019-08-01T06:28:30.999Z</time>
      </trkpt>
      <trkpt lat="43.02052667" lon="-1.19142333">
        <ele>1038.0</ele>
        <time>2019-08-01T06:28:32.004Z</time>
      </trkpt>
      <trkpt lat="43.02053667" lon="-1.191425">
        <ele>1038.0</ele>
        <time>2019-08-01T06:28:33.011Z</time>
      </trkpt>
      <trkpt lat="43.020545" lon="-1.19142833">
        <ele>1038.0</ele>
        <time>2019-08-01T06:28:34.015Z</time>
      </trkpt>
      <trkpt lat="43.02055167" lon="-1.19143">
        <ele>1038.0</ele>
        <time>2019-08-01T06:28:35.021Z</time>
      </trkpt>
      <trkpt lat="43.02055667" lon="-1.191435">
        <ele>1038.0</ele>
        <time>2019-08-01T06:28:36.027Z</time>
      </trkpt>
      <trkpt lat="43.02056333" lon="-1.19144">
        <ele>1039.0</ele>
        <time>2019-08-01T06:28:37.034Z</time>
      </trkpt>
      <trkpt lat="43.02057" lon="-1.19145">
        <ele>1039.0</ele>
        <time>2019-08-01T06:28:38.038Z</time>
      </trkpt>
      <trkpt lat="43.02057667" lon="-1.19145833">
        <ele>1040.0</ele>
        <time>2019-08-01T06:28:38.918Z</time>
      </trkpt>
      <trkpt lat="43.02058167" lon="-1.19146667">
        <ele>1040.0</ele>
        <time>2019-08-01T06:28:39.923Z</time>
      </trkpt>
      <trkpt lat="43.02058833" lon="-1.19147333">
        <ele>1040.0</ele>
        <time>2019-08-01T06:28:40.930Z</time>
      </trkpt>
      <trkpt lat="43.020595" lon="-1.19147833">
        <ele>1040.0</ele>
        <time>2019-08-01T06:28:41.935Z</time>
      </trkpt>
      <trkpt lat="43.0206" lon="-1.19148333">
        <ele>1040.0</ele>
        <time>2019-08-01T06:28:42.943Z</time>
      </trkpt>
      <trkpt lat="43.020605" lon="-1.191485">
        <ele>1041.0</ele>
        <time>2019-08-01T06:28:43.950Z</time>
      </trkpt>
      <trkpt lat="43.020615" lon="-1.19148833">
        <ele>1041.0</ele>
        <time>2019-08-01T06:28:44.955Z</time>
      </trkpt>
      <trkpt lat="43.02062333" lon="-1.19149">
        <ele>1041.0</ele>
        <time>2019-08-01T06:28:45.959Z</time>
      </trkpt>
      <trkpt lat="43.02063333" lon="-1.19149167">
        <ele>1041.0</ele>
        <time>2019-08-01T06:28:46.964Z</time>
      </trkpt>
      <trkpt lat="43.02064333" lon="-1.19149333">
        <ele>1041.0</ele>
        <time>2019-08-01T06:28:47.971Z</time>
      </trkpt>
      <trkpt lat="43.02065167" lon="-1.19149333">
        <ele>1041.0</ele>
        <time>2019-08-01T06:28:48.976Z</time>
      </trkpt>
      <trkpt lat="43.02066167" lon="-1.19149333">
        <ele>1041.0</ele>
        <time>2019-08-01T06:28:49.982Z</time>
      </trkpt>
      <trkpt lat="43.02066833" lon="-1.19149167">
        <ele>1041.0</ele>
        <time>2019-08-01T06:28:50.987Z</time>
      </trkpt>
      <trkpt lat="43.02067333" lon="-1.19149">
        <ele>1041.0</ele>
        <time>2019-08-01T06:28:51.992Z</time>
      </trkpt>
      <trkpt lat="43.02067667" lon="-1.19148833">
        <ele>1041.0</ele>
        <time>2019-08-01T06:28:52.997Z</time>
      </trkpt>
      <trkpt lat="43.02068" lon="-1.191485">
        <ele>1041.0</ele>
        <time>2019-08-01T06:28:54.003Z</time>
      </trkpt>
      <trkpt lat="43.020685" lon="-1.19148">
        <ele>1040.0</ele>
        <time>2019-08-01T06:28:55.010Z</time>
      </trkpt>
      <trkpt lat="43.02068833" lon="-1.19147333">
        <ele>1040.0</ele>
        <time>2019-08-01T06:28:56.015Z</time>
      </trkpt>
      <trkpt lat="43.02069333" lon="-1.191465">
        <ele>1040.0</ele>
        <time>2019-08-01T06:28:57.020Z</time>
      </trkpt>
      <trkpt lat="43.02069667" lon="-1.19145833">
        <ele>1039.0</ele>
        <time>2019-08-01T06:28:58.025Z</time>
      </trkpt>
      <trkpt lat="43.02070333" lon="-1.19145167">
        <ele>1040.0</ele>
        <time>2019-08-01T06:28:59.031Z</time>
      </trkpt>
      <trkpt lat="43.02070833" lon="-1.191445">
        <ele>1040.0</ele>
        <time>2019-08-01T06:29:00.037Z</time>
      </trkpt>
      <trkpt lat="43.02071333" lon="-1.19144">
        <ele>1040.0</ele>
        <time>2019-08-01T06:29:01.042Z</time>
      </trkpt>
      <trkpt lat="43.02071667" lon="-1.19143333">
        <ele>1040.0</ele>
        <time>2019-08-01T06:29:01.923Z</time>
      </trkpt>
      <trkpt lat="43.02072" lon="-1.19142833">
        <ele>1041.0</ele>
        <time>2019-08-01T06:29:02.929Z</time>
      </trkpt>
      <trkpt lat="43.02072333" lon="-1.191425">
        <ele>1040.0</ele>
        <time>2019-08-01T06:29:03.936Z</time>
      </trkpt>
      <trkpt lat="43.02072833" lon="-1.19142333">
        <ele>1040.0</ele>
        <time>2019-08-01T06:29:04.943Z</time>
      </trkpt>
      <trkpt lat="43.02073167" lon="-1.19142">
        <ele>1041.0</ele>
        <time>2019-08-01T06:29:05.949Z</time>
      </trkpt>
      <trkpt lat="43.02073667" lon="-1.19141833">
        <ele>1040.0</ele>
        <time>2019-08-01T06:29:06.956Z</time>
      </trkpt>
      <trkpt lat="43.02074167" lon="-1.19141333">
        <ele>1040.0</ele>
        <time>2019-08-01T06:29:07.962Z</time>
      </trkpt>
      <trkpt lat="43.02074333" lon="-1.19140667">
        <ele>1040.0</ele>
        <time>2019-08-01T06:29:08.968Z</time>
      </trkpt>
      <trkpt lat="43.02075" lon="-1.1914">
        <ele>1040.0</ele>
        <time>2019-08-01T06:29:09.973Z</time>
      </trkpt>
      <trkpt lat="43.020755" lon="-1.19139333">
        <ele>1040.0</ele>
        <time>2019-08-01T06:29:10.976Z</time>
      </trkpt>
      <trkpt lat="43.02076167" lon="-1.19138667">
        <ele>1041.0</ele>
        <time>2019-08-01T06:29:11.980Z</time>
      </trkpt>
      <trkpt lat="43.02076667" lon="-1.19138">
        <ele>1042.0</ele>
        <time>2019-08-01T06:29:12.986Z</time>
      </trkpt>
      <trkpt lat="43.02077333" lon="-1.191375">
        <ele>1042.0</ele>
        <time>2019-08-01T06:29:13.993Z</time>
      </trkpt>
      <trkpt lat="43.02078167" lon="-1.19137333">
        <ele>1042.0</ele>
        <time>2019-08-01T06:29:14.998Z</time>
      </trkpt>
      <trkpt lat="43.02078833" lon="-1.19137">
        <ele>1042.0</ele>
        <time>2019-08-01T06:29:16.005Z</time>
      </trkpt>
      <trkpt lat="43.020795" lon="-1.19137">
        <ele>1042.0</ele>
        <time>2019-08-01T06:29:17.011Z</time>
      </trkpt>
      <trkpt lat="43.0208" lon="-1.19137333">
        <ele>1043.0</ele>
        <time>2019-08-01T06:29:18.017Z</time>
      </trkpt>
      <trkpt lat="43.02080333" lon="-1.191375">
        <ele>1043.0</ele>
        <time>2019-08-01T06:29:19.021Z</time>
      </trkpt>
      <trkpt lat="43.02080667" lon="-1.19137667">
        <ele>1043.0</ele>
        <time>2019-08-01T06:29:20.028Z</time>
      </trkpt>
      <trkpt lat="43.02080833" lon="-1.19138">
        <ele>1043.0</ele>
        <time>2019-08-01T06:29:21.034Z</time>
      </trkpt>
      <trkpt lat="43.02081167" lon="-1.19138333">
        <ele>1043.0</ele>
        <time>2019-08-01T06:29:22.039Z</time>
      </trkpt>
      <trkpt lat="43.020815" lon="-1.19139167">
        <ele>1043.0</ele>
        <time>2019-08-01T06:29:22.920Z</time>
      </trkpt>
      <trkpt lat="43.020815" lon="-1.19139833">
        <ele>1043.0</ele>
        <time>2019-08-01T06:29:23.927Z</time>
      </trkpt>
      <trkpt lat="43.02081667" lon="-1.1914">
        <ele>1043.0</ele>
        <time>2019-08-01T06:29:24.933Z</time>
      </trkpt>
      <trkpt lat="43.02081833" lon="-1.19140833">
        <ele>1043.0</ele>
        <time>2019-08-01T06:29:25.939Z</time>
      </trkpt>
      <trkpt lat="43.02081667" lon="-1.19141167">
        <ele>1043.0</ele>
        <time>2019-08-01T06:29:26.946Z</time>
      </trkpt>
      <trkpt lat="43.02082" lon="-1.19141833">
        <ele>1044.0</ele>
        <time>2019-08-01T06:29:27.950Z</time>
      </trkpt>
      <trkpt lat="43.02082333" lon="-1.19142333">
        <ele>1044.0</ele>
        <time>2019-08-01T06:29:28.955Z</time>
      </trkpt>
      <trkpt lat="43.02082833" lon="-1.19143167">
        <ele>1044.0</ele>
        <time>2019-08-01T06:29:29.961Z</time>
      </trkpt>
      <trkpt lat="43.02083167" lon="-1.19143833">
        <ele>1045.0</ele>
        <time>2019-08-01T06:29:30.967Z</time>
      </trkpt>
      <trkpt lat="43.020835" lon="-1.191445">
        <ele>1045.0</ele>
        <time>2019-08-01T06:29:31.972Z</time>
      </trkpt>
      <trkpt lat="43.02084" lon="-1.19145167">
        <ele>1045.0</ele>
        <time>2019-08-01T06:29:32.978Z</time>
      </trkpt>
      <trkpt lat="43.02084167" lon="-1.19145667">
        <ele>1046.0</ele>
        <time>2019-08-01T06:29:33.982Z</time>
      </trkpt>
      <trkpt lat="43.020845" lon="-1.19146333">
        <ele>1046.0</ele>
        <time>2019-08-01T06:29:34.988Z</time>
      </trkpt>
      <trkpt lat="43.02084833" lon="-1.19147">
        <ele>1046.0</ele>
        <time>2019-08-01T06:29:35.994Z</time>
      </trkpt>
      <trkpt lat="43.02085" lon="-1.191475">
        <ele>1047.0</ele>
        <time>2019-08-01T06:29:37.000Z</time>
      </trkpt>
      <trkpt lat="43.02085167" lon="-1.19148333">
        <ele>1047.0</ele>
        <time>2019-08-01T06:29:38.005Z</time>
      </trkpt>
      <trkpt lat="43.02085333" lon="-1.19149167">
        <ele>1047.0</ele>
        <time>2019-08-01T06:29:39.011Z</time>
      </trkpt>
      <trkpt lat="43.02085833" lon="-1.1915">
        <ele>1047.0</ele>
        <time>2019-08-01T06:29:40.017Z</time>
      </trkpt>
      <trkpt lat="43.020865" lon="-1.191505">
        <ele>1047.0</ele>
        <time>2019-08-01T06:29:41.024Z</time>
      </trkpt>
      <trkpt lat="43.02087" lon="-1.19151167">
        <ele>1047.0</ele>
        <time>2019-08-01T06:29:42.030Z</time>
      </trkpt>
      <trkpt lat="43.02087333" lon="-1.191515">
        <ele>1047.0</ele>
        <time>2019-08-01T06:29:43.038Z</time>
      </trkpt>
      <trkpt lat="43.020875" lon="-1.19152333">
        <ele>1048.0</ele>
        <time>2019-08-01T06:29:44.043Z</time>
      </trkpt>
      <trkpt lat="43.02087667" lon="-1.19152833">
        <ele>1047.0</ele>
        <time>2019-08-01T06:29:44.924Z</time>
      </trkpt>
      <trkpt lat="43.02087833" lon="-1.19153333">
        <ele>1048.0</ele>
        <time>2019-08-01T06:29:45.929Z</time>
      </trkpt>
      <trkpt lat="43.02088" lon="-1.19153833">
        <ele>1048.0</ele>
        <time>2019-08-01T06:29:46.933Z</time>
      </trkpt>
      <trkpt lat="43.02088333" lon="-1.191545">
        <ele>1048.0</ele>
        <time>2019-08-01T06:29:47.939Z</time>
      </trkpt>
      <trkpt lat="43.020885" lon="-1.19155">
        <ele>1048.0</ele>
        <time>2019-08-01T06:29:48.946Z</time>
      </trkpt>
      <trkpt lat="43.02088833" lon="-1.191555">
        <ele>1049.0</ele>
        <time>2019-08-01T06:29:49.953Z</time>
      </trkpt>
      <trkpt lat="43.02089333" lon="-1.19156167">
        <ele>1049.0</ele>
        <time>2019-08-01T06:29:50.957Z</time>
      </trkpt>
      <trkpt lat="43.02090167" lon="-1.19156667">
        <ele>1049.0</ele>
        <time>2019-08-01T06:29:51.962Z</time>
      </trkpt>
      <trkpt lat="43.020905" lon="-1.19157">
        <ele>1049.0</ele>
        <time>2019-08-01T06:29:52.967Z</time>
      </trkpt>
      <trkpt lat="43.02090833" lon="-1.191575">
        <ele>1050.0</ele>
        <time>2019-08-01T06:29:53.972Z</time>
      </trkpt>
      <trkpt lat="43.02091167" lon="-1.19158">
        <ele>1050.0</ele>
        <time>2019-08-01T06:29:54.977Z</time>
      </trkpt>
      <trkpt lat="43.02091167" lon="-1.191585">
        <ele>1051.0</ele>
        <time>2019-08-01T06:29:55.982Z</time>
      </trkpt>
      <trkpt lat="43.020915" lon="-1.19159333">
        <ele>1051.0</ele>
        <time>2019-08-01T06:29:56.989Z</time>
      </trkpt>
      <trkpt lat="43.02092" lon="-1.19159833">
        <ele>1051.0</ele>
        <time>2019-08-01T06:29:57.995Z</time>
      </trkpt>
      <trkpt lat="43.02092667" lon="-1.19160333">
        <ele>1051.0</ele>
        <time>2019-08-01T06:29:59.001Z</time>
      </trkpt>
      <trkpt lat="43.020935" lon="-1.19161">
        <ele>1050.0</ele>
        <time>2019-08-01T06:30:00.007Z</time>
      </trkpt>
      <trkpt lat="43.020945" lon="-1.191615">
        <ele>1050.0</ele>
        <time>2019-08-01T06:30:01.011Z</time>
      </trkpt>
      <trkpt lat="43.02095333" lon="-1.19161667">
        <ele>1050.0</ele>
        <time>2019-08-01T06:30:02.015Z</time>
      </trkpt>
      <trkpt lat="43.02096167" lon="-1.19161833">
        <ele>1050.0</ele>
        <time>2019-08-01T06:30:03.020Z</time>
      </trkpt>
      <trkpt lat="43.02097" lon="-1.19162333">
        <ele>1050.0</ele>
        <time>2019-08-01T06:30:04.027Z</time>
      </trkpt>
      <trkpt lat="43.02097833" lon="-1.19162833">
        <ele>1050.0</ele>
        <time>2019-08-01T06:30:05.032Z</time>
      </trkpt>
      <trkpt lat="43.02098667" lon="-1.19163333">
        <ele>1050.0</ele>
        <time>2019-08-01T06:30:06.036Z</time>
      </trkpt>
      <trkpt lat="43.02099667" lon="-1.19164">
        <ele>1050.0</ele>
        <time>2019-08-01T06:30:07.041Z</time>
      </trkpt>
      <trkpt lat="43.021005" lon="-1.19164667">
        <ele>1050.0</ele>
        <time>2019-08-01T06:30:07.920Z</time>
      </trkpt>
      <trkpt lat="43.02101" lon="-1.191655">
        <ele>1050.0</ele>
        <time>2019-08-01T06:30:08.926Z</time>
      </trkpt>
      <trkpt lat="43.021015" lon="-1.191665">
        <ele>1050.0</ele>
        <time>2019-08-01T06:30:09.933Z</time>
      </trkpt>
      <trkpt lat="43.02102" lon="-1.19167333">
        <ele>1050.0</ele>
        <time>2019-08-01T06:30:10.940Z</time>
      </trkpt>
      <trkpt lat="43.02102667" lon="-1.19168167">
        <ele>1050.0</ele>
        <time>2019-08-01T06:30:11.944Z</time>
      </trkpt>
      <trkpt lat="43.02103333" lon="-1.19169">
        <ele>1050.0</ele>
        <time>2019-08-01T06:30:12.951Z</time>
      </trkpt>
      <trkpt lat="43.02103833" lon="-1.19169667">
        <ele>1051.0</ele>
        <time>2019-08-01T06:30:13.958Z</time>
      </trkpt>
      <trkpt lat="43.02104333" lon="-1.19170333">
        <ele>1051.0</ele>
        <time>2019-08-01T06:30:14.964Z</time>
      </trkpt>
      <trkpt lat="43.02105" lon="-1.191715">
        <ele>1051.0</ele>
        <time>2019-08-01T06:30:15.972Z</time>
      </trkpt>
      <trkpt lat="43.02105" lon="-1.19171833">
        <ele>1050.0</ele>
        <time>2019-08-01T06:30:16.979Z</time>
      </trkpt>
      <trkpt lat="43.02105667" lon="-1.19172833">
        <ele>1050.0</ele>
        <time>2019-08-01T06:30:17.985Z</time>
      </trkpt>
      <trkpt lat="43.02106" lon="-1.191735">
        <ele>1051.0</ele>
        <time>2019-08-01T06:30:18.989Z</time>
      </trkpt>
      <trkpt lat="43.02106833" lon="-1.19174333">
        <ele>1051.0</ele>
        <time>2019-08-01T06:30:19.994Z</time>
      </trkpt>
      <trkpt lat="43.021075" lon="-1.19175">
        <ele>1051.0</ele>
        <time>2019-08-01T06:30:20.997Z</time>
      </trkpt>
      <trkpt lat="43.02108" lon="-1.19175333">
        <ele>1051.0</ele>
        <time>2019-08-01T06:30:22.002Z</time>
      </trkpt>
      <trkpt lat="43.02108667" lon="-1.19176">
        <ele>1051.0</ele>
        <time>2019-08-01T06:30:23.008Z</time>
      </trkpt>
      <trkpt lat="43.02109333" lon="-1.19176833">
        <ele>1051.0</ele>
        <time>2019-08-01T06:30:24.014Z</time>
      </trkpt>
      <trkpt lat="43.0211" lon="-1.19177667">
        <ele>1051.0</ele>
        <time>2019-08-01T06:30:25.020Z</time>
      </trkpt>
      <trkpt lat="43.021105" lon="-1.19178667">
        <ele>1051.0</ele>
        <time>2019-08-01T06:30:26.023Z</time>
      </trkpt>
      <trkpt lat="43.02111" lon="-1.191795">
        <ele>1052.0</ele>
        <time>2019-08-01T06:30:27.030Z</time>
      </trkpt>
      <trkpt lat="43.02111667" lon="-1.19180167">
        <ele>1052.0</ele>
        <time>2019-08-01T06:30:28.035Z</time>
      </trkpt>
      <trkpt lat="43.021125" lon="-1.19181">
        <ele>1052.0</ele>
        <time>2019-08-01T06:30:29.040Z</time>
      </trkpt>
      <trkpt lat="43.02113167" lon="-1.191815">
        <ele>1052.0</ele>
        <time>2019-08-01T06:30:29.920Z</time>
      </trkpt>
      <trkpt lat="43.02114" lon="-1.19182167">
        <ele>1052.0</ele>
        <time>2019-08-01T06:30:30.924Z</time>
      </trkpt>
      <trkpt lat="43.02114667" lon="-1.191825">
        <ele>1052.0</ele>
        <time>2019-08-01T06:30:31.928Z</time>
      </trkpt>
      <trkpt lat="43.02115333" lon="-1.191835">
        <ele>1052.0</ele>
        <time>2019-08-01T06:30:32.933Z</time>
      </trkpt>
      <trkpt lat="43.02116" lon="-1.19184167">
        <ele>1053.0</ele>
        <time>2019-08-01T06:30:33.939Z</time>
      </trkpt>
      <trkpt lat="43.02116667" lon="-1.19184833">
        <ele>1053.0</ele>
        <time>2019-08-01T06:30:34.944Z</time>
      </trkpt>
      <trkpt lat="43.02117167" lon="-1.19185333">
        <ele>1053.0</ele>
        <time>2019-08-01T06:30:35.950Z</time>
      </trkpt>
      <trkpt lat="43.02117667" lon="-1.19185833">
        <ele>1053.0</ele>
        <time>2019-08-01T06:30:36.956Z</time>
      </trkpt>
      <trkpt lat="43.02118333" lon="-1.19186333">
        <ele>1053.0</ele>
        <time>2019-08-01T06:30:37.963Z</time>
      </trkpt>
      <trkpt lat="43.02118667" lon="-1.19186833">
        <ele>1054.0</ele>
        <time>2019-08-01T06:30:38.969Z</time>
      </trkpt>
      <trkpt lat="43.02119167" lon="-1.19187833">
        <ele>1054.0</ele>
        <time>2019-08-01T06:30:39.975Z</time>
      </trkpt>
      <trkpt lat="43.02119833" lon="-1.19188">
        <ele>1054.0</ele>
        <time>2019-08-01T06:30:40.981Z</time>
      </trkpt>
      <trkpt lat="43.02120333" lon="-1.19188">
        <ele>1054.0</ele>
        <time>2019-08-01T06:30:41.987Z</time>
      </trkpt>
      <trkpt lat="43.02121" lon="-1.19188333">
        <ele>1054.0</ele>
        <time>2019-08-01T06:30:42.992Z</time>
      </trkpt>
      <trkpt lat="43.021215" lon="-1.19188667">
        <ele>1054.0</ele>
        <time>2019-08-01T06:30:43.997Z</time>
      </trkpt>
      <trkpt lat="43.02122333" lon="-1.191895">
        <ele>1054.0</ele>
        <time>2019-08-01T06:30:45.004Z</time>
      </trkpt>
      <trkpt lat="43.02123167" lon="-1.19190167">
        <ele>1054.0</ele>
        <time>2019-08-01T06:30:46.007Z</time>
      </trkpt>
      <trkpt lat="43.02123667" lon="-1.19190667">
        <ele>1054.0</ele>
        <time>2019-08-01T06:30:47.011Z</time>
      </trkpt>
      <trkpt lat="43.02124667" lon="-1.19191167">
        <ele>1054.0</ele>
        <time>2019-08-01T06:30:48.018Z</time>
      </trkpt>
      <trkpt lat="43.02125333" lon="-1.19191333">
        <ele>1054.0</ele>
        <time>2019-08-01T06:30:49.025Z</time>
      </trkpt>
      <trkpt lat="43.02125833" lon="-1.191915">
        <ele>1054.0</ele>
        <time>2019-08-01T06:30:50.031Z</time>
      </trkpt>
      <trkpt lat="43.02126" lon="-1.19191833">
        <ele>1054.0</ele>
        <time>2019-08-01T06:30:51.037Z</time>
      </trkpt>
      <trkpt lat="43.02126" lon="-1.19192167">
        <ele>1055.0</ele>
        <time>2019-08-01T06:30:52.043Z</time>
      </trkpt>
      <trkpt lat="43.021265" lon="-1.19193">
        <ele>1055.0</ele>
        <time>2019-08-01T06:30:52.923Z</time>
      </trkpt>
      <trkpt lat="43.02127" lon="-1.19193667">
        <ele>1055.0</ele>
        <time>2019-08-01T06:30:53.928Z</time>
      </trkpt>
      <trkpt lat="43.02127667" lon="-1.19194667">
        <ele>1055.0</ele>
        <time>2019-08-01T06:30:54.935Z</time>
      </trkpt>
      <trkpt lat="43.02128333" lon="-1.19195833">
        <ele>1056.0</ele>
        <time>2019-08-01T06:30:55.940Z</time>
      </trkpt>
      <trkpt lat="43.02129" lon="-1.19196667">
        <ele>1056.0</ele>
        <time>2019-08-01T06:30:56.944Z</time>
      </trkpt>
      <trkpt lat="43.02130333" lon="-1.19197833">
        <ele>1056.0</ele>
        <time>2019-08-01T06:30:57.950Z</time>
      </trkpt>
      <trkpt lat="43.02131333" lon="-1.191985">
        <ele>1056.0</ele>
        <time>2019-08-01T06:30:58.955Z</time>
      </trkpt>
      <trkpt lat="43.02132333" lon="-1.19199">
        <ele>1056.0</ele>
        <time>2019-08-01T06:30:59.960Z</time>
      </trkpt>
      <trkpt lat="43.02133333" lon="-1.191995">
        <ele>1056.0</ele>
        <time>2019-08-01T06:31:00.968Z</time>
      </trkpt>
      <trkpt lat="43.02134167" lon="-1.19199667">
        <ele>1056.0</ele>
        <time>2019-08-01T06:31:01.973Z</time>
      </trkpt>
      <trkpt lat="43.02135167" lon="-1.19200167">
        <ele>1057.0</ele>
        <time>2019-08-01T06:31:02.977Z</time>
      </trkpt>
      <trkpt lat="43.02136" lon="-1.19200833">
        <ele>1057.0</ele>
        <time>2019-08-01T06:31:03.982Z</time>
      </trkpt>
      <trkpt lat="43.02137" lon="-1.19201333">
        <ele>1057.0</ele>
        <time>2019-08-01T06:31:04.988Z</time>
      </trkpt>
      <trkpt lat="43.02138" lon="-1.19202">
        <ele>1057.0</ele>
        <time>2019-08-01T06:31:05.994Z</time>
      </trkpt>
      <trkpt lat="43.02138833" lon="-1.192025">
        <ele>1057.0</ele>
        <time>2019-08-01T06:31:07.000Z</time>
      </trkpt>
      <trkpt lat="43.02139833" lon="-1.19203">
        <ele>1056.0</ele>
        <time>2019-08-01T06:31:08.005Z</time>
      </trkpt>
      <trkpt lat="43.02141" lon="-1.19203667">
        <ele>1057.0</ele>
        <time>2019-08-01T06:31:09.013Z</time>
      </trkpt>
      <trkpt lat="43.02141833" lon="-1.19204">
        <ele>1057.0</ele>
        <time>2019-08-01T06:31:10.018Z</time>
      </trkpt>
      <trkpt lat="43.02143333" lon="-1.19204333">
        <ele>1057.0</ele>
        <time>2019-08-01T06:31:11.021Z</time>
      </trkpt>
      <trkpt lat="43.02144333" lon="-1.19204667">
        <ele>1057.0</ele>
        <time>2019-08-01T06:31:12.025Z</time>
      </trkpt>
      <trkpt lat="43.02145333" lon="-1.19205167">
        <ele>1057.0</ele>
        <time>2019-08-01T06:31:13.029Z</time>
      </trkpt>
      <trkpt lat="43.02146" lon="-1.19205667">
        <ele>1057.0</ele>
        <time>2019-08-01T06:31:14.031Z</time>
      </trkpt>
      <trkpt lat="43.02147333" lon="-1.192065">
        <ele>1057.0</ele>
        <time>2019-08-01T06:31:15.035Z</time>
      </trkpt>
      <trkpt lat="43.02148" lon="-1.19206667">
        <ele>1057.0</ele>
        <time>2019-08-01T06:31:16.039Z</time>
      </trkpt>
      <trkpt lat="43.02149167" lon="-1.19207333">
        <ele>1057.0</ele>
        <time>2019-08-01T06:31:16.919Z</time>
      </trkpt>
      <trkpt lat="43.02150333" lon="-1.19207833">
        <ele>1057.0</ele>
        <time>2019-08-01T06:31:17.924Z</time>
      </trkpt>
      <trkpt lat="43.021515" lon="-1.19208333">
        <ele>1057.0</ele>
        <time>2019-08-01T06:31:18.931Z</time>
      </trkpt>
      <trkpt lat="43.02152667" lon="-1.19209333">
        <ele>1058.0</ele>
        <time>2019-08-01T06:31:19.937Z</time>
      </trkpt>
      <trkpt lat="43.02153833" lon="-1.1921">
        <ele>1057.0</ele>
        <time>2019-08-01T06:31:20.942Z</time>
      </trkpt>
      <trkpt lat="43.02154833" lon="-1.19211167">
        <ele>1057.0</ele>
        <time>2019-08-01T06:31:21.950Z</time>
      </trkpt>
      <trkpt lat="43.02155833" lon="-1.19212">
        <ele>1058.0</ele>
        <time>2019-08-01T06:31:22.955Z</time>
      </trkpt>
      <trkpt lat="43.02157" lon="-1.19212667">
        <ele>1058.0</ele>
        <time>2019-08-01T06:31:23.958Z</time>
      </trkpt>
      <trkpt lat="43.02157667" lon="-1.19213">
        <ele>1057.0</ele>
        <time>2019-08-01T06:31:24.964Z</time>
      </trkpt>
      <trkpt lat="43.02158833" lon="-1.19213667">
        <ele>1057.0</ele>
        <time>2019-08-01T06:31:25.971Z</time>
      </trkpt>
      <trkpt lat="43.02159833" lon="-1.19214833">
        <ele>1057.0</ele>
        <time>2019-08-01T06:31:26.978Z</time>
      </trkpt>
      <trkpt lat="43.02160833" lon="-1.19215667">
        <ele>1057.0</ele>
        <time>2019-08-01T06:31:27.982Z</time>
      </trkpt>
      <trkpt lat="43.021615" lon="-1.19216167">
        <ele>1058.0</ele>
        <time>2019-08-01T06:31:28.988Z</time>
      </trkpt>
      <trkpt lat="43.02162667" lon="-1.19217167">
        <ele>1058.0</ele>
        <time>2019-08-01T06:31:29.995Z</time>
      </trkpt>
      <trkpt lat="43.02163667" lon="-1.19218167">
        <ele>1058.0</ele>
        <time>2019-08-01T06:31:31.000Z</time>
      </trkpt>
      <trkpt lat="43.02164667" lon="-1.19219167">
        <ele>1058.0</ele>
        <time>2019-08-01T06:31:32.005Z</time>
      </trkpt>
      <trkpt lat="43.02165667" lon="-1.19220333">
        <ele>1059.0</ele>
        <time>2019-08-01T06:31:33.011Z</time>
      </trkpt>
      <trkpt lat="43.021665" lon="-1.192215">
        <ele>1059.0</ele>
        <time>2019-08-01T06:31:34.017Z</time>
      </trkpt>
      <trkpt lat="43.02167833" lon="-1.192225">
        <ele>1059.0</ele>
        <time>2019-08-01T06:31:35.023Z</time>
      </trkpt>
      <trkpt lat="43.02169" lon="-1.19223333">
        <ele>1059.0</ele>
        <time>2019-08-01T06:31:36.027Z</time>
      </trkpt>
      <trkpt lat="43.0217" lon="-1.192245">
        <ele>1059.0</ele>
        <time>2019-08-01T06:31:37.027Z</time>
      </trkpt>
      <trkpt lat="43.02170833" lon="-1.192255">
        <ele>1059.0</ele>
        <time>2019-08-01T06:31:38.032Z</time>
      </trkpt>
      <trkpt lat="43.02171667" lon="-1.19226833">
        <ele>1060.0</ele>
        <time>2019-08-01T06:31:39.037Z</time>
      </trkpt>
      <trkpt lat="43.021725" lon="-1.19228167">
        <ele>1060.0</ele>
        <time>2019-08-01T06:31:40.043Z</time>
      </trkpt>
      <trkpt lat="43.02173333" lon="-1.19229167">
        <ele>1060.0</ele>
        <time>2019-08-01T06:31:40.922Z</time>
      </trkpt>
      <trkpt lat="43.02174333" lon="-1.19230167">
        <ele>1061.0</ele>
        <time>2019-08-01T06:31:41.926Z</time>
      </trkpt>
      <trkpt lat="43.02175167" lon="-1.19231">
        <ele>1061.0</ele>
        <time>2019-08-01T06:31:42.929Z</time>
      </trkpt>
      <trkpt lat="43.02176333" lon="-1.19232">
        <ele>1061.0</ele>
        <time>2019-08-01T06:31:43.936Z</time>
      </trkpt>
      <trkpt lat="43.02177167" lon="-1.19233333">
        <ele>1061.0</ele>
        <time>2019-08-01T06:31:44.942Z</time>
      </trkpt>
      <trkpt lat="43.02178" lon="-1.19234667">
        <ele>1060.0</ele>
        <time>2019-08-01T06:31:45.948Z</time>
      </trkpt>
      <trkpt lat="43.02179" lon="-1.19235833">
        <ele>1060.0</ele>
        <time>2019-08-01T06:31:46.955Z</time>
      </trkpt>
      <trkpt lat="43.0218" lon="-1.19237167">
        <ele>1060.0</ele>
        <time>2019-08-01T06:31:47.959Z</time>
      </trkpt>
      <trkpt lat="43.02181" lon="-1.19238">
        <ele>1060.0</ele>
        <time>2019-08-01T06:31:48.964Z</time>
      </trkpt>
      <trkpt lat="43.02181833" lon="-1.19239">
        <ele>1060.0</ele>
        <time>2019-08-01T06:31:49.971Z</time>
      </trkpt>
      <trkpt lat="43.02182833" lon="-1.19240167">
        <ele>1061.0</ele>
        <time>2019-08-01T06:31:50.978Z</time>
      </trkpt>
      <trkpt lat="43.02183667" lon="-1.19241167">
        <ele>1061.0</ele>
        <time>2019-08-01T06:31:51.984Z</time>
      </trkpt>
      <trkpt lat="43.02184667" lon="-1.19242333">
        <ele>1061.0</ele>
        <time>2019-08-01T06:31:52.991Z</time>
      </trkpt>
      <trkpt lat="43.021855" lon="-1.19243167">
        <ele>1061.0</ele>
        <time>2019-08-01T06:31:53.996Z</time>
      </trkpt>
      <trkpt lat="43.021865" lon="-1.19244333">
        <ele>1060.0</ele>
        <time>2019-08-01T06:31:55.001Z</time>
      </trkpt>
      <trkpt lat="43.021875" lon="-1.19245167">
        <ele>1060.0</ele>
        <time>2019-08-01T06:31:56.005Z</time>
      </trkpt>
      <trkpt lat="43.021885" lon="-1.19246167">
        <ele>1060.0</ele>
        <time>2019-08-01T06:31:57.012Z</time>
      </trkpt>
      <trkpt lat="43.02189333" lon="-1.19247333">
        <ele>1061.0</ele>
        <time>2019-08-01T06:31:58.017Z</time>
      </trkpt>
      <trkpt lat="43.021905" lon="-1.192485">
        <ele>1061.0</ele>
        <time>2019-08-01T06:31:59.024Z</time>
      </trkpt>
      <trkpt lat="43.02191" lon="-1.19249333">
        <ele>1062.0</ele>
        <time>2019-08-01T06:32:00.029Z</time>
      </trkpt>
      <trkpt lat="43.02192" lon="-1.192505">
        <ele>1062.0</ele>
        <time>2019-08-01T06:32:01.034Z</time>
      </trkpt>
      <trkpt lat="43.02193167" lon="-1.19251667">
        <ele>1062.0</ele>
        <time>2019-08-01T06:32:02.041Z</time>
      </trkpt>
      <trkpt lat="43.02194" lon="-1.192525">
        <ele>1062.0</ele>
        <time>2019-08-01T06:32:02.922Z</time>
      </trkpt>
      <trkpt lat="43.02195" lon="-1.192535">
        <ele>1062.0</ele>
        <time>2019-08-01T06:32:03.928Z</time>
      </trkpt>
      <trkpt lat="43.02196" lon="-1.192545">
        <ele>1062.0</ele>
        <time>2019-08-01T06:32:04.933Z</time>
      </trkpt>
      <trkpt lat="43.02197167" lon="-1.19255833">
        <ele>1062.0</ele>
        <time>2019-08-01T06:32:05.938Z</time>
      </trkpt>
      <trkpt lat="43.02198333" lon="-1.19257">
        <ele>1062.0</ele>
        <time>2019-08-01T06:32:06.942Z</time>
      </trkpt>
      <trkpt lat="43.021995" lon="-1.19258167">
        <ele>1062.0</ele>
        <time>2019-08-01T06:32:07.946Z</time>
      </trkpt>
      <trkpt lat="43.022005" lon="-1.19258833">
        <ele>1062.0</ele>
        <time>2019-08-01T06:32:08.951Z</time>
      </trkpt>
      <trkpt lat="43.02201333" lon="-1.192595">
        <ele>1063.0</ele>
        <time>2019-08-01T06:32:09.955Z</time>
      </trkpt>
      <trkpt lat="43.02202333" lon="-1.19260333">
        <ele>1063.0</ele>
        <time>2019-08-01T06:32:10.958Z</time>
      </trkpt>
      <trkpt lat="43.02203667" lon="-1.19261333">
        <ele>1063.0</ele>
        <time>2019-08-01T06:32:11.965Z</time>
      </trkpt>
      <trkpt lat="43.02204667" lon="-1.19262167">
        <ele>1063.0</ele>
        <time>2019-08-01T06:32:12.972Z</time>
      </trkpt>
      <trkpt lat="43.02205667" lon="-1.19263333">
        <ele>1063.0</ele>
        <time>2019-08-01T06:32:13.979Z</time>
      </trkpt>
      <trkpt lat="43.022065" lon="-1.19264333">
        <ele>1063.0</ele>
        <time>2019-08-01T06:32:14.985Z</time>
      </trkpt>
      <trkpt lat="43.022075" lon="-1.19265167">
        <ele>1063.0</ele>
        <time>2019-08-01T06:32:15.992Z</time>
      </trkpt>
      <trkpt lat="43.022085" lon="-1.19266333">
        <ele>1063.0</ele>
        <time>2019-08-01T06:32:16.997Z</time>
      </trkpt>
      <trkpt lat="43.022095" lon="-1.192675">
        <ele>1063.0</ele>
        <time>2019-08-01T06:32:18.004Z</time>
      </trkpt>
      <trkpt lat="43.022105" lon="-1.192685">
        <ele>1063.0</ele>
        <time>2019-08-01T06:32:19.010Z</time>
      </trkpt>
      <trkpt lat="43.022115" lon="-1.19269333">
        <ele>1063.0</ele>
        <time>2019-08-01T06:32:20.016Z</time>
      </trkpt>
      <trkpt lat="43.02212333" lon="-1.19270333">
        <ele>1063.0</ele>
        <time>2019-08-01T06:32:21.020Z</time>
      </trkpt>
      <trkpt lat="43.02213167" lon="-1.19271333">
        <ele>1063.0</ele>
        <time>2019-08-01T06:32:22.027Z</time>
      </trkpt>
      <trkpt lat="43.022145" lon="-1.19272333">
        <ele>1063.0</ele>
        <time>2019-08-01T06:32:23.033Z</time>
      </trkpt>
      <trkpt lat="43.022155" lon="-1.19272833">
        <ele>1064.0</ele>
        <time>2019-08-01T06:32:24.039Z</time>
      </trkpt>
      <trkpt lat="43.02216833" lon="-1.19273833">
        <ele>1063.0</ele>
        <time>2019-08-01T06:32:24.919Z</time>
      </trkpt>
      <trkpt lat="43.02217833" lon="-1.192745">
        <ele>1063.0</ele>
        <time>2019-08-01T06:32:25.925Z</time>
      </trkpt>
      <trkpt lat="43.02218833" lon="-1.19275167">
        <ele>1063.0</ele>
        <time>2019-08-01T06:32:26.930Z</time>
      </trkpt>
      <trkpt lat="43.02219667" lon="-1.19276333">
        <ele>1063.0</ele>
        <time>2019-08-01T06:32:27.938Z</time>
      </trkpt>
      <trkpt lat="43.02220833" lon="-1.19277333">
        <ele>1063.0</ele>
        <time>2019-08-01T06:32:28.946Z</time>
      </trkpt>
      <trkpt lat="43.02222167" lon="-1.19278167">
        <ele>1063.0</ele>
        <time>2019-08-01T06:32:29.950Z</time>
      </trkpt>
      <trkpt lat="43.02223333" lon="-1.19278833">
        <ele>1064.0</ele>
        <time>2019-08-01T06:32:30.954Z</time>
      </trkpt>
      <trkpt lat="43.022245" lon="-1.19279833">
        <ele>1064.0</ele>
        <time>2019-08-01T06:32:31.957Z</time>
      </trkpt>
      <trkpt lat="43.022255" lon="-1.192805">
        <ele>1064.0</ele>
        <time>2019-08-01T06:32:32.962Z</time>
      </trkpt>
      <trkpt lat="43.02226667" lon="-1.19281167">
        <ele>1064.0</ele>
        <time>2019-08-01T06:32:33.968Z</time>
      </trkpt>
      <trkpt lat="43.02227667" lon="-1.19282">
        <ele>1064.0</ele>
        <time>2019-08-01T06:32:34.974Z</time>
      </trkpt>
      <trkpt lat="43.02228833" lon="-1.19282667">
        <ele>1064.0</ele>
        <time>2019-08-01T06:32:35.979Z</time>
      </trkpt>
      <trkpt lat="43.0223" lon="-1.192835">
        <ele>1064.0</ele>
        <time>2019-08-01T06:32:36.985Z</time>
      </trkpt>
      <trkpt lat="43.02231" lon="-1.19284">
        <ele>1064.0</ele>
        <time>2019-08-01T06:32:37.990Z</time>
      </trkpt>
      <trkpt lat="43.02232167" lon="-1.19284833">
        <ele>1065.0</ele>
        <time>2019-08-01T06:32:38.994Z</time>
      </trkpt>
      <trkpt lat="43.02233167" lon="-1.192855">
        <ele>1065.0</ele>
        <time>2019-08-01T06:32:40.000Z</time>
      </trkpt>
      <trkpt lat="43.022345" lon="-1.19286">
        <ele>1065.0</ele>
        <time>2019-08-01T06:32:41.004Z</time>
      </trkpt>
      <trkpt lat="43.02235667" lon="-1.19286667">
        <ele>1065.0</ele>
        <time>2019-08-01T06:32:42.010Z</time>
      </trkpt>
      <trkpt lat="43.02236833" lon="-1.19287333">
        <ele>1065.0</ele>
        <time>2019-08-01T06:32:43.018Z</time>
      </trkpt>
      <trkpt lat="43.02238167" lon="-1.19288167">
        <ele>1065.0</ele>
        <time>2019-08-01T06:32:44.023Z</time>
      </trkpt>
      <trkpt lat="43.02239333" lon="-1.19289">
        <ele>1065.0</ele>
        <time>2019-08-01T06:32:45.028Z</time>
      </trkpt>
      <trkpt lat="43.022405" lon="-1.19289167">
        <ele>1066.0</ele>
        <time>2019-08-01T06:32:46.035Z</time>
      </trkpt>
      <trkpt lat="43.022415" lon="-1.19288833">
        <ele>1066.0</ele>
        <time>2019-08-01T06:32:47.039Z</time>
      </trkpt>
      <trkpt lat="43.02242833" lon="-1.19288667">
        <ele>1066.0</ele>
        <time>2019-08-01T06:32:47.921Z</time>
      </trkpt>
      <trkpt lat="43.02244167" lon="-1.19288667">
        <ele>1066.0</ele>
        <time>2019-08-01T06:32:48.926Z</time>
      </trkpt>
      <trkpt lat="43.022455" lon="-1.192885">
        <ele>1065.0</ele>
        <time>2019-08-01T06:32:49.933Z</time>
      </trkpt>
      <trkpt lat="43.022465" lon="-1.19288333">
        <ele>1065.0</ele>
        <time>2019-08-01T06:32:50.939Z</time>
      </trkpt>
      <trkpt lat="43.02248" lon="-1.19288333">
        <ele>1065.0</ele>
        <time>2019-08-01T06:32:51.946Z</time>
      </trkpt>
      <trkpt lat="43.02249167" lon="-1.19288">
        <ele>1065.0</ele>
        <time>2019-08-01T06:32:52.951Z</time>
      </trkpt>
      <trkpt lat="43.02250333" lon="-1.19288">
        <ele>1065.0</ele>
        <time>2019-08-01T06:32:53.958Z</time>
      </trkpt>
      <trkpt lat="43.022515" lon="-1.19287833">
        <ele>1066.0</ele>
        <time>2019-08-01T06:32:54.966Z</time>
      </trkpt>
      <trkpt lat="43.022525" lon="-1.19287833">
        <ele>1066.0</ele>
        <time>2019-08-01T06:32:55.969Z</time>
      </trkpt>
      <trkpt lat="43.02253833" lon="-1.19287667">
        <ele>1066.0</ele>
        <time>2019-08-01T06:32:56.974Z</time>
      </trkpt>
      <trkpt lat="43.02255167" lon="-1.192875">
        <ele>1066.0</ele>
        <time>2019-08-01T06:32:57.979Z</time>
      </trkpt>
      <trkpt lat="43.02256167" lon="-1.19287167">
        <ele>1066.0</ele>
        <time>2019-08-01T06:32:58.986Z</time>
      </trkpt>
      <trkpt lat="43.02257333" lon="-1.19286667">
        <ele>1066.0</ele>
        <time>2019-08-01T06:32:59.993Z</time>
      </trkpt>
      <trkpt lat="43.022585" lon="-1.19286">
        <ele>1066.0</ele>
        <time>2019-08-01T06:33:00.996Z</time>
      </trkpt>
      <trkpt lat="43.02259667" lon="-1.19285833">
        <ele>1066.0</ele>
        <time>2019-08-01T06:33:02.001Z</time>
      </trkpt>
      <trkpt lat="43.02260833" lon="-1.19285333">
        <ele>1066.0</ele>
        <time>2019-08-01T06:33:03.004Z</time>
      </trkpt>
      <trkpt lat="43.02262167" lon="-1.19285">
        <ele>1065.0</ele>
        <time>2019-08-01T06:33:04.010Z</time>
      </trkpt>
      <trkpt lat="43.02263333" lon="-1.19284667">
        <ele>1066.0</ele>
        <time>2019-08-01T06:33:05.016Z</time>
      </trkpt>
      <trkpt lat="43.02265" lon="-1.19284833">
        <ele>1066.0</ele>
        <time>2019-08-01T06:33:06.020Z</time>
      </trkpt>
      <trkpt lat="43.02266333" lon="-1.19284833">
        <ele>1066.0</ele>
        <time>2019-08-01T06:33:07.024Z</time>
      </trkpt>
      <trkpt lat="43.02267667" lon="-1.19284833">
        <ele>1065.0</ele>
        <time>2019-08-01T06:33:08.028Z</time>
      </trkpt>
      <trkpt lat="43.02268833" lon="-1.19284667">
        <ele>1065.0</ele>
        <time>2019-08-01T06:33:09.033Z</time>
      </trkpt>
      <trkpt lat="43.02270167" lon="-1.19284833">
        <ele>1065.0</ele>
        <time>2019-08-01T06:33:10.038Z</time>
      </trkpt>
      <trkpt lat="43.02271667" lon="-1.19285">
        <ele>1064.0</ele>
        <time>2019-08-01T06:33:11.043Z</time>
      </trkpt>
      <trkpt lat="43.02272833" lon="-1.19284833">
        <ele>1064.0</ele>
        <time>2019-08-01T06:33:11.923Z</time>
      </trkpt>
      <trkpt lat="43.022745" lon="-1.19284833">
        <ele>1064.0</ele>
        <time>2019-08-01T06:33:12.929Z</time>
      </trkpt>
      <trkpt lat="43.022755" lon="-1.192845">
        <ele>1064.0</ele>
        <time>2019-08-01T06:33:13.936Z</time>
      </trkpt>
      <trkpt lat="43.02276667" lon="-1.19284333">
        <ele>1064.0</ele>
        <time>2019-08-01T06:33:14.944Z</time>
      </trkpt>
      <trkpt lat="43.02277833" lon="-1.192845">
        <ele>1065.0</ele>
        <time>2019-08-01T06:33:15.949Z</time>
      </trkpt>
      <trkpt lat="43.02279167" lon="-1.192845">
        <ele>1065.0</ele>
        <time>2019-08-01T06:33:16.955Z</time>
      </trkpt>
      <trkpt lat="43.022805" lon="-1.19284667">
        <ele>1066.0</ele>
        <time>2019-08-01T06:33:17.961Z</time>
      </trkpt>
      <trkpt lat="43.02281833" lon="-1.19285">
        <ele>1066.0</ele>
        <time>2019-08-01T06:33:18.967Z</time>
      </trkpt>
      <trkpt lat="43.02283167" lon="-1.19285167">
        <ele>1066.0</ele>
        <time>2019-08-01T06:33:19.972Z</time>
      </trkpt>
      <trkpt lat="43.02284667" lon="-1.19285333">
        <ele>1067.0</ele>
        <time>2019-08-01T06:33:20.976Z</time>
      </trkpt>
      <trkpt lat="43.02286167" lon="-1.19285333">
        <ele>1067.0</ele>
        <time>2019-08-01T06:33:21.980Z</time>
      </trkpt>
      <trkpt lat="43.02287333" lon="-1.19285333">
        <ele>1067.0</ele>
        <time>2019-08-01T06:33:22.985Z</time>
      </trkpt>
      <trkpt lat="43.022885" lon="-1.19285333">
        <ele>1067.0</ele>
        <time>2019-08-01T06:33:23.990Z</time>
      </trkpt>
      <trkpt lat="43.02289833" lon="-1.19285167">
        <ele>1067.0</ele>
        <time>2019-08-01T06:33:24.995Z</time>
      </trkpt>
      <trkpt lat="43.02291167" lon="-1.19285">
        <ele>1068.0</ele>
        <time>2019-08-01T06:33:25.998Z</time>
      </trkpt>
      <trkpt lat="43.022925" lon="-1.19284833">
        <ele>1068.0</ele>
        <time>2019-08-01T06:33:27.004Z</time>
      </trkpt>
      <trkpt lat="43.02293833" lon="-1.192845">
        <ele>1068.0</ele>
        <time>2019-08-01T06:33:28.012Z</time>
      </trkpt>
      <trkpt lat="43.02295" lon="-1.19284167">
        <ele>1068.0</ele>
        <time>2019-08-01T06:33:29.017Z</time>
      </trkpt>
      <trkpt lat="43.02296167" lon="-1.19284167">
        <ele>1067.0</ele>
        <time>2019-08-01T06:33:30.023Z</time>
      </trkpt>
      <trkpt lat="43.02297167" lon="-1.19283833">
        <ele>1067.0</ele>
        <time>2019-08-01T06:33:31.026Z</time>
      </trkpt>
      <trkpt lat="43.022985" lon="-1.19283833">
        <ele>1067.0</ele>
        <time>2019-08-01T06:33:32.031Z</time>
      </trkpt>
      <trkpt lat="43.022995" lon="-1.19283833">
        <ele>1067.0</ele>
        <time>2019-08-01T06:33:33.037Z</time>
      </trkpt>
      <trkpt lat="43.023005" lon="-1.19283667">
        <ele>1067.0</ele>
        <time>2019-08-01T06:33:34.042Z</time>
      </trkpt>
      <trkpt lat="43.02301333" lon="-1.19283333">
        <ele>1067.0</ele>
        <time>2019-08-01T06:33:34.921Z</time>
      </trkpt>
      <trkpt lat="43.02302333" lon="-1.19283167">
        <ele>1067.0</ele>
        <time>2019-08-01T06:33:35.927Z</time>
      </trkpt>
      <trkpt lat="43.023035" lon="-1.19283">
        <ele>1067.0</ele>
        <time>2019-08-01T06:33:36.934Z</time>
      </trkpt>
      <trkpt lat="43.02304333" lon="-1.19282833">
        <ele>1068.0</ele>
        <time>2019-08-01T06:33:37.941Z</time>
      </trkpt>
      <trkpt lat="43.02305667" lon="-1.19282833">
        <ele>1068.0</ele>
        <time>2019-08-01T06:33:38.949Z</time>
      </trkpt>
      <trkpt lat="43.02307" lon="-1.19282833">
        <ele>1068.0</ele>
        <time>2019-08-01T06:33:39.956Z</time>
      </trkpt>
      <trkpt lat="43.023085" lon="-1.192825">
        <ele>1068.0</ele>
        <time>2019-08-01T06:33:40.962Z</time>
      </trkpt>
      <trkpt lat="43.023095" lon="-1.19282167">
        <ele>1068.0</ele>
        <time>2019-08-01T06:33:41.968Z</time>
      </trkpt>
      <trkpt lat="43.023105" lon="-1.19281667">
        <ele>1068.0</ele>
        <time>2019-08-01T06:33:42.972Z</time>
      </trkpt>
      <trkpt lat="43.02311667" lon="-1.19281167">
        <ele>1068.0</ele>
        <time>2019-08-01T06:33:43.978Z</time>
      </trkpt>
      <trkpt lat="43.02312667" lon="-1.19281">
        <ele>1068.0</ele>
        <time>2019-08-01T06:33:44.984Z</time>
      </trkpt>
      <trkpt lat="43.02313833" lon="-1.19280833">
        <ele>1068.0</ele>
        <time>2019-08-01T06:33:45.987Z</time>
      </trkpt>
      <trkpt lat="43.02314667" lon="-1.192805">
        <ele>1067.0</ele>
        <time>2019-08-01T06:33:46.992Z</time>
      </trkpt>
      <trkpt lat="43.02316167" lon="-1.19280333">
        <ele>1067.0</ele>
        <time>2019-08-01T06:33:47.999Z</time>
      </trkpt>
      <trkpt lat="43.02317167" lon="-1.19280333">
        <ele>1067.0</ele>
        <time>2019-08-01T06:33:49.006Z</time>
      </trkpt>
      <trkpt lat="43.02317833" lon="-1.1928">
        <ele>1067.0</ele>
        <time>2019-08-01T06:33:50.013Z</time>
      </trkpt>
      <trkpt lat="43.02318833" lon="-1.19279667">
        <ele>1067.0</ele>
        <time>2019-08-01T06:33:51.018Z</time>
      </trkpt>
      <trkpt lat="43.02319833" lon="-1.19279167">
        <ele>1067.0</ele>
        <time>2019-08-01T06:33:52.021Z</time>
      </trkpt>
      <trkpt lat="43.02321167" lon="-1.19279">
        <ele>1066.0</ele>
        <time>2019-08-01T06:33:53.025Z</time>
      </trkpt>
      <trkpt lat="43.02322333" lon="-1.19279">
        <ele>1066.0</ele>
        <time>2019-08-01T06:33:54.031Z</time>
      </trkpt>
      <trkpt lat="43.023235" lon="-1.19279333">
        <ele>1066.0</ele>
        <time>2019-08-01T06:33:55.034Z</time>
      </trkpt>
      <trkpt lat="43.02324667" lon="-1.19279667">
        <ele>1066.0</ele>
        <time>2019-08-01T06:33:56.038Z</time>
      </trkpt>
      <trkpt lat="43.02325833" lon="-1.1928">
        <ele>1066.0</ele>
        <time>2019-08-01T06:33:56.919Z</time>
      </trkpt>
      <trkpt lat="43.02326833" lon="-1.19280833">
        <ele>1066.0</ele>
        <time>2019-08-01T06:33:57.924Z</time>
      </trkpt>
      <trkpt lat="43.02328" lon="-1.19281333">
        <ele>1066.0</ele>
        <time>2019-08-01T06:33:58.930Z</time>
      </trkpt>
      <trkpt lat="43.02329167" lon="-1.19282167">
        <ele>1066.0</ele>
        <time>2019-08-01T06:33:59.934Z</time>
      </trkpt>
      <trkpt lat="43.023305" lon="-1.19283167">
        <ele>1065.0</ele>
        <time>2019-08-01T06:34:00.939Z</time>
      </trkpt>
      <trkpt lat="43.02331667" lon="-1.19284167">
        <ele>1065.0</ele>
        <time>2019-08-01T06:34:01.945Z</time>
      </trkpt>
      <trkpt lat="43.02333" lon="-1.192855">
        <ele>1065.0</ele>
        <time>2019-08-01T06:34:02.951Z</time>
      </trkpt>
      <trkpt lat="43.02334333" lon="-1.19286833">
        <ele>1065.0</ele>
        <time>2019-08-01T06:34:03.955Z</time>
      </trkpt>
      <trkpt lat="43.02335667" lon="-1.19288167">
        <ele>1065.0</ele>
        <time>2019-08-01T06:34:04.958Z</time>
      </trkpt>
      <trkpt lat="43.02337167" lon="-1.19289333">
        <ele>1065.0</ele>
        <time>2019-08-01T06:34:05.966Z</time>
      </trkpt>
      <trkpt lat="43.023385" lon="-1.19290333">
        <ele>1065.0</ele>
        <time>2019-08-01T06:34:06.971Z</time>
      </trkpt>
      <trkpt lat="43.0234" lon="-1.19291333">
        <ele>1064.0</ele>
        <time>2019-08-01T06:34:07.977Z</time>
      </trkpt>
      <trkpt lat="43.02341333" lon="-1.19292667">
        <ele>1064.0</ele>
        <time>2019-08-01T06:34:08.984Z</time>
      </trkpt>
      <trkpt lat="43.02342833" lon="-1.192935">
        <ele>1063.0</ele>
        <time>2019-08-01T06:34:09.990Z</time>
      </trkpt>
      <trkpt lat="43.02344167" lon="-1.19294333">
        <ele>1064.0</ele>
        <time>2019-08-01T06:34:10.995Z</time>
      </trkpt>
      <trkpt lat="43.02345667" lon="-1.19295">
        <ele>1063.0</ele>
        <time>2019-08-01T06:34:11.999Z</time>
      </trkpt>
      <trkpt lat="43.02347167" lon="-1.19295833">
        <ele>1063.0</ele>
        <time>2019-08-01T06:34:13.006Z</time>
      </trkpt>
      <trkpt lat="43.02348667" lon="-1.192965">
        <ele>1063.0</ele>
        <time>2019-08-01T06:34:14.012Z</time>
      </trkpt>
      <trkpt lat="43.02349833" lon="-1.19297333">
        <ele>1063.0</ele>
        <time>2019-08-01T06:34:15.018Z</time>
      </trkpt>
      <trkpt lat="43.02351167" lon="-1.192985">
        <ele>1063.0</ele>
        <time>2019-08-01T06:34:16.024Z</time>
      </trkpt>
      <trkpt lat="43.02352167" lon="-1.19299833">
        <ele>1063.0</ele>
        <time>2019-08-01T06:34:17.031Z</time>
      </trkpt>
      <trkpt lat="43.02353" lon="-1.19300667">
        <ele>1063.0</ele>
        <time>2019-08-01T06:34:18.037Z</time>
      </trkpt>
      <trkpt lat="43.02354167" lon="-1.19301">
        <ele>1063.0</ele>
        <time>2019-08-01T06:34:19.042Z</time>
      </trkpt>
      <trkpt lat="43.023555" lon="-1.19301667">
        <ele>1063.0</ele>
        <time>2019-08-01T06:34:19.922Z</time>
      </trkpt>
      <trkpt lat="43.02356667" lon="-1.193025">
        <ele>1064.0</ele>
        <time>2019-08-01T06:34:20.928Z</time>
      </trkpt>
      <trkpt lat="43.02357833" lon="-1.19303333">
        <ele>1064.0</ele>
        <time>2019-08-01T06:34:21.935Z</time>
      </trkpt>
      <trkpt lat="43.02359" lon="-1.19304">
        <ele>1064.0</ele>
        <time>2019-08-01T06:34:22.942Z</time>
      </trkpt>
      <trkpt lat="43.02360167" lon="-1.19304667">
        <ele>1064.0</ele>
        <time>2019-08-01T06:34:23.947Z</time>
      </trkpt>
      <trkpt lat="43.02361167" lon="-1.19305">
        <ele>1063.0</ele>
        <time>2019-08-01T06:34:24.954Z</time>
      </trkpt>
      <trkpt lat="43.02362667" lon="-1.19305833">
        <ele>1063.0</ele>
        <time>2019-08-01T06:34:25.960Z</time>
      </trkpt>
      <trkpt lat="43.02363833" lon="-1.19306833">
        <ele>1063.0</ele>
        <time>2019-08-01T06:34:26.967Z</time>
      </trkpt>
      <trkpt lat="43.02365" lon="-1.19307833">
        <ele>1063.0</ele>
        <time>2019-08-01T06:34:27.974Z</time>
      </trkpt>
      <trkpt lat="43.02365833" lon="-1.19309">
        <ele>1062.0</ele>
        <time>2019-08-01T06:34:28.980Z</time>
      </trkpt>
      <trkpt lat="43.02367" lon="-1.19310167">
        <ele>1062.0</ele>
        <time>2019-08-01T06:34:29.986Z</time>
      </trkpt>
      <trkpt lat="43.02367667" lon="-1.19310833">
        <ele>1062.0</ele>
        <time>2019-08-01T06:34:30.992Z</time>
      </trkpt>
      <trkpt lat="43.02368167" lon="-1.19311667">
        <ele>1062.0</ele>
        <time>2019-08-01T06:34:31.998Z</time>
      </trkpt>
      <trkpt lat="43.023685" lon="-1.19312667">
        <ele>1062.0</ele>
        <time>2019-08-01T06:34:33.003Z</time>
      </trkpt>
      <trkpt lat="43.02369167" lon="-1.19314167">
        <ele>1062.0</ele>
        <time>2019-08-01T06:34:34.008Z</time>
      </trkpt>
      <trkpt lat="43.02370167" lon="-1.19316">
        <ele>1063.0</ele>
        <time>2019-08-01T06:34:35.014Z</time>
      </trkpt>
      <trkpt lat="43.02370833" lon="-1.19317833">
        <ele>1063.0</ele>
        <time>2019-08-01T06:34:36.020Z</time>
      </trkpt>
      <trkpt lat="43.02371667" lon="-1.193195">
        <ele>1064.0</ele>
        <time>2019-08-01T06:34:37.026Z</time>
      </trkpt>
      <trkpt lat="43.023725" lon="-1.19320833">
        <ele>1064.0</ele>
        <time>2019-08-01T06:34:38.030Z</time>
      </trkpt>
      <trkpt lat="43.02373333" lon="-1.19322">
        <ele>1064.0</ele>
        <time>2019-08-01T06:34:39.035Z</time>
      </trkpt>
      <trkpt lat="43.02374167" lon="-1.19323333">
        <ele>1064.0</ele>
        <time>2019-08-01T06:34:40.041Z</time>
      </trkpt>
      <trkpt lat="43.02375" lon="-1.19324833">
        <ele>1064.0</ele>
        <time>2019-08-01T06:34:40.922Z</time>
      </trkpt>
      <trkpt lat="43.02375833" lon="-1.19325833">
        <ele>1065.0</ele>
        <time>2019-08-01T06:34:41.928Z</time>
      </trkpt>
      <trkpt lat="43.02377" lon="-1.19327">
        <ele>1065.0</ele>
        <time>2019-08-01T06:34:42.936Z</time>
      </trkpt>
      <trkpt lat="43.02378" lon="-1.19328333">
        <ele>1064.0</ele>
        <time>2019-08-01T06:34:43.942Z</time>
      </trkpt>
      <trkpt lat="43.023795" lon="-1.19329667">
        <ele>1064.0</ele>
        <time>2019-08-01T06:34:44.947Z</time>
      </trkpt>
      <trkpt lat="43.02380667" lon="-1.19330833">
        <ele>1064.0</ele>
        <time>2019-08-01T06:34:45.955Z</time>
      </trkpt>
      <trkpt lat="43.02381833" lon="-1.19332">
        <ele>1063.0</ele>
        <time>2019-08-01T06:34:46.960Z</time>
      </trkpt>
      <trkpt lat="43.02382833" lon="-1.19332833">
        <ele>1063.0</ele>
        <time>2019-08-01T06:34:47.967Z</time>
      </trkpt>
      <trkpt lat="43.02383833" lon="-1.19333833">
        <ele>1063.0</ele>
        <time>2019-08-01T06:34:48.974Z</time>
      </trkpt>
      <trkpt lat="43.02384833" lon="-1.193345">
        <ele>1063.0</ele>
        <time>2019-08-01T06:34:49.979Z</time>
      </trkpt>
      <trkpt lat="43.02386167" lon="-1.19335833">
        <ele>1063.0</ele>
        <time>2019-08-01T06:34:50.984Z</time>
      </trkpt>
      <trkpt lat="43.023875" lon="-1.19337167">
        <ele>1063.0</ele>
        <time>2019-08-01T06:34:51.989Z</time>
      </trkpt>
      <trkpt lat="43.02388667" lon="-1.19338667">
        <ele>1063.0</ele>
        <time>2019-08-01T06:34:52.994Z</time>
      </trkpt>
      <trkpt lat="43.02389833" lon="-1.19339833">
        <ele>1062.0</ele>
        <time>2019-08-01T06:34:54.000Z</time>
      </trkpt>
      <trkpt lat="43.02391167" lon="-1.19340833">
        <ele>1062.0</ele>
        <time>2019-08-01T06:34:55.005Z</time>
      </trkpt>
      <trkpt lat="43.023925" lon="-1.19342">
        <ele>1061.0</ele>
        <time>2019-08-01T06:34:56.010Z</time>
      </trkpt>
      <trkpt lat="43.02394" lon="-1.19343">
        <ele>1061.0</ele>
        <time>2019-08-01T06:34:57.016Z</time>
      </trkpt>
      <trkpt lat="43.02395333" lon="-1.19344">
        <ele>1061.0</ele>
        <time>2019-08-01T06:34:58.022Z</time>
      </trkpt>
      <trkpt lat="43.02396333" lon="-1.19344833">
        <ele>1061.0</ele>
        <time>2019-08-01T06:34:59.028Z</time>
      </trkpt>
      <trkpt lat="43.02397667" lon="-1.19346167">
        <ele>1061.0</ele>
        <time>2019-08-01T06:35:00.035Z</time>
      </trkpt>
      <trkpt lat="43.02399" lon="-1.19347333">
        <ele>1061.0</ele>
        <time>2019-08-01T06:35:01.041Z</time>
      </trkpt>
      <trkpt lat="43.02400167" lon="-1.193485">
        <ele>1061.0</ele>
        <time>2019-08-01T06:35:01.920Z</time>
      </trkpt>
      <trkpt lat="43.02401333" lon="-1.193495">
        <ele>1061.0</ele>
        <time>2019-08-01T06:35:02.926Z</time>
      </trkpt>
      <trkpt lat="43.02402667" lon="-1.193505">
        <ele>1060.0</ele>
        <time>2019-08-01T06:35:03.933Z</time>
      </trkpt>
      <trkpt lat="43.02403833" lon="-1.193515">
        <ele>1061.0</ele>
        <time>2019-08-01T06:35:04.938Z</time>
      </trkpt>
      <trkpt lat="43.02405333" lon="-1.19352833">
        <ele>1061.0</ele>
        <time>2019-08-01T06:35:05.944Z</time>
      </trkpt>
      <trkpt lat="43.02406167" lon="-1.19353667">
        <ele>1060.0</ele>
        <time>2019-08-01T06:35:06.951Z</time>
      </trkpt>
      <trkpt lat="43.024075" lon="-1.19354333">
        <ele>1060.0</ele>
        <time>2019-08-01T06:35:07.955Z</time>
      </trkpt>
      <trkpt lat="43.02408833" lon="-1.19355">
        <ele>1059.0</ele>
        <time>2019-08-01T06:35:08.958Z</time>
      </trkpt>
      <trkpt lat="43.02410167" lon="-1.19356167">
        <ele>1059.0</ele>
        <time>2019-08-01T06:35:09.962Z</time>
      </trkpt>
      <trkpt lat="43.02411667" lon="-1.19357167">
        <ele>1060.0</ele>
        <time>2019-08-01T06:35:10.969Z</time>
      </trkpt>
      <trkpt lat="43.02413" lon="-1.19358167">
        <ele>1060.0</ele>
        <time>2019-08-01T06:35:11.976Z</time>
      </trkpt>
      <trkpt lat="43.02414333" lon="-1.19359167">
        <ele>1060.0</ele>
        <time>2019-08-01T06:35:12.981Z</time>
      </trkpt>
      <trkpt lat="43.02415667" lon="-1.1936">
        <ele>1060.0</ele>
        <time>2019-08-01T06:35:13.988Z</time>
      </trkpt>
      <trkpt lat="43.02417" lon="-1.19361">
        <ele>1060.0</ele>
        <time>2019-08-01T06:35:14.993Z</time>
      </trkpt>
      <trkpt lat="43.02417833" lon="-1.19361667">
        <ele>1060.0</ele>
        <time>2019-08-01T06:35:15.999Z</time>
      </trkpt>
      <trkpt lat="43.02419167" lon="-1.19362667">
        <ele>1059.0</ele>
        <time>2019-08-01T06:35:17.004Z</time>
      </trkpt>
      <trkpt lat="43.024205" lon="-1.19363833">
        <ele>1060.0</ele>
        <time>2019-08-01T06:35:18.011Z</time>
      </trkpt>
      <trkpt lat="43.02422" lon="-1.19365">
        <ele>1060.0</ele>
        <time>2019-08-01T06:35:19.016Z</time>
      </trkpt>
      <trkpt lat="43.02423333" lon="-1.19366">
        <ele>1060.0</ele>
        <time>2019-08-01T06:35:20.022Z</time>
      </trkpt>
      <trkpt lat="43.024245" lon="-1.19366667">
        <ele>1060.0</ele>
        <time>2019-08-01T06:35:21.027Z</time>
      </trkpt>
      <trkpt lat="43.02425667" lon="-1.193675">
        <ele>1060.0</ele>
        <time>2019-08-01T06:35:22.033Z</time>
      </trkpt>
      <trkpt lat="43.02426833" lon="-1.19368333">
        <ele>1060.0</ele>
        <time>2019-08-01T06:35:23.039Z</time>
      </trkpt>
      <trkpt lat="43.02428167" lon="-1.19369333">
        <ele>1060.0</ele>
        <time>2019-08-01T06:35:23.919Z</time>
      </trkpt>
      <trkpt lat="43.02429333" lon="-1.19369833">
        <ele>1059.0</ele>
        <time>2019-08-01T06:35:24.924Z</time>
      </trkpt>
      <trkpt lat="43.02430333" lon="-1.19370667">
        <ele>1059.0</ele>
        <time>2019-08-01T06:35:25.928Z</time>
      </trkpt>
      <trkpt lat="43.024315" lon="-1.19371333">
        <ele>1059.0</ele>
        <time>2019-08-01T06:35:26.930Z</time>
      </trkpt>
      <trkpt lat="43.02432667" lon="-1.19372167">
        <ele>1059.0</ele>
        <time>2019-08-01T06:35:27.936Z</time>
      </trkpt>
      <trkpt lat="43.02434" lon="-1.19373167">
        <ele>1059.0</ele>
        <time>2019-08-01T06:35:28.944Z</time>
      </trkpt>
      <trkpt lat="43.02435167" lon="-1.19373667">
        <ele>1059.0</ele>
        <time>2019-08-01T06:35:29.951Z</time>
      </trkpt>
      <trkpt lat="43.024365" lon="-1.19374167">
        <ele>1059.0</ele>
        <time>2019-08-01T06:35:30.957Z</time>
      </trkpt>
      <trkpt lat="43.02437833" lon="-1.19374833">
        <ele>1059.0</ele>
        <time>2019-08-01T06:35:31.964Z</time>
      </trkpt>
      <trkpt lat="43.02439167" lon="-1.19375333">
        <ele>1059.0</ele>
        <time>2019-08-01T06:35:32.971Z</time>
      </trkpt>
      <trkpt lat="43.02440167" lon="-1.19375833">
        <ele>1060.0</ele>
        <time>2019-08-01T06:35:33.978Z</time>
      </trkpt>
      <trkpt lat="43.02441333" lon="-1.193765">
        <ele>1060.0</ele>
        <time>2019-08-01T06:35:34.985Z</time>
      </trkpt>
      <trkpt lat="43.024425" lon="-1.19377167">
        <ele>1060.0</ele>
        <time>2019-08-01T06:35:35.990Z</time>
      </trkpt>
      <trkpt lat="43.02443833" lon="-1.19378">
        <ele>1060.0</ele>
        <time>2019-08-01T06:35:36.992Z</time>
      </trkpt>
      <trkpt lat="43.02445167" lon="-1.19378833">
        <ele>1059.0</ele>
        <time>2019-08-01T06:35:37.996Z</time>
      </trkpt>
      <trkpt lat="43.02446333" lon="-1.19379667">
        <ele>1059.0</ele>
        <time>2019-08-01T06:35:39.001Z</time>
      </trkpt>
      <trkpt lat="43.024475" lon="-1.193805">
        <ele>1059.0</ele>
        <time>2019-08-01T06:35:40.007Z</time>
      </trkpt>
      <trkpt lat="43.02448833" lon="-1.193815">
        <ele>1059.0</ele>
        <time>2019-08-01T06:35:41.012Z</time>
      </trkpt>
      <trkpt lat="43.02450333" lon="-1.193825">
        <ele>1059.0</ele>
        <time>2019-08-01T06:35:42.018Z</time>
      </trkpt>
      <trkpt lat="43.02451667" lon="-1.19383167">
        <ele>1058.0</ele>
        <time>2019-08-01T06:35:43.025Z</time>
      </trkpt>
      <trkpt lat="43.02453" lon="-1.19384167">
        <ele>1058.0</ele>
        <time>2019-08-01T06:35:44.032Z</time>
      </trkpt>
      <trkpt lat="43.02454333" lon="-1.19384833">
        <ele>1059.0</ele>
        <time>2019-08-01T06:35:45.037Z</time>
      </trkpt>
      <trkpt lat="43.024555" lon="-1.19385333">
        <ele>1059.0</ele>
        <time>2019-08-01T06:35:46.041Z</time>
      </trkpt>
      <trkpt lat="43.02457" lon="-1.19386167">
        <ele>1060.0</ele>
        <time>2019-08-01T06:35:46.922Z</time>
      </trkpt>
      <trkpt lat="43.02458167" lon="-1.19386667">
        <ele>1060.0</ele>
        <time>2019-08-01T06:35:47.929Z</time>
      </trkpt>
      <trkpt lat="43.02459667" lon="-1.19387167">
        <ele>1059.0</ele>
        <time>2019-08-01T06:35:48.937Z</time>
      </trkpt>
      <trkpt lat="43.02461" lon="-1.19387833">
        <ele>1059.0</ele>
        <time>2019-08-01T06:35:49.945Z</time>
      </trkpt>
      <trkpt lat="43.02462333" lon="-1.19388667">
        <ele>1059.0</ele>
        <time>2019-08-01T06:35:50.949Z</time>
      </trkpt>
      <trkpt lat="43.02463833" lon="-1.19389333">
        <ele>1059.0</ele>
        <time>2019-08-01T06:35:51.953Z</time>
      </trkpt>
      <trkpt lat="43.024655" lon="-1.19390167">
        <ele>1059.0</ele>
        <time>2019-08-01T06:35:52.958Z</time>
      </trkpt>
      <trkpt lat="43.02467" lon="-1.19391">
        <ele>1059.0</ele>
        <time>2019-08-01T06:35:53.965Z</time>
      </trkpt>
      <trkpt lat="43.02468167" lon="-1.19391667">
        <ele>1059.0</ele>
        <time>2019-08-01T06:35:54.971Z</time>
      </trkpt>
      <trkpt lat="43.02469333" lon="-1.19392167">
        <ele>1059.0</ele>
        <time>2019-08-01T06:35:55.979Z</time>
      </trkpt>
      <trkpt lat="43.02470667" lon="-1.193925">
        <ele>1059.0</ele>
        <time>2019-08-01T06:35:56.982Z</time>
      </trkpt>
      <trkpt lat="43.02471833" lon="-1.19393167">
        <ele>1059.0</ele>
        <time>2019-08-01T06:35:57.986Z</time>
      </trkpt>
      <trkpt lat="43.02473" lon="-1.19394">
        <ele>1058.0</ele>
        <time>2019-08-01T06:35:58.993Z</time>
      </trkpt>
      <trkpt lat="43.02474333" lon="-1.19394667">
        <ele>1058.0</ele>
        <time>2019-08-01T06:35:59.997Z</time>
      </trkpt>
      <trkpt lat="43.02475833" lon="-1.19395667">
        <ele>1058.0</ele>
        <time>2019-08-01T06:36:01.003Z</time>
      </trkpt>
      <trkpt lat="43.024775" lon="-1.19396167">
        <ele>1058.0</ele>
        <time>2019-08-01T06:36:02.009Z</time>
      </trkpt>
      <trkpt lat="43.02478667" lon="-1.19396833">
        <ele>1058.0</ele>
        <time>2019-08-01T06:36:03.014Z</time>
      </trkpt>
      <trkpt lat="43.0248" lon="-1.19397333">
        <ele>1058.0</ele>
        <time>2019-08-01T06:36:04.020Z</time>
      </trkpt>
      <trkpt lat="43.02481333" lon="-1.19397833">
        <ele>1058.0</ele>
        <time>2019-08-01T06:36:05.026Z</time>
      </trkpt>
      <trkpt lat="43.024825" lon="-1.19398333">
        <ele>1058.0</ele>
        <time>2019-08-01T06:36:06.030Z</time>
      </trkpt>
      <trkpt lat="43.02483833" lon="-1.19398833">
        <ele>1058.0</ele>
        <time>2019-08-01T06:36:07.036Z</time>
      </trkpt>
      <trkpt lat="43.02485" lon="-1.19399833">
        <ele>1058.0</ele>
        <time>2019-08-01T06:36:08.040Z</time>
      </trkpt>
      <trkpt lat="43.02486167" lon="-1.194005">
        <ele>1058.0</ele>
        <time>2019-08-01T06:36:08.919Z</time>
      </trkpt>
      <trkpt lat="43.02487667" lon="-1.19401167">
        <ele>1058.0</ele>
        <time>2019-08-01T06:36:09.925Z</time>
      </trkpt>
      <trkpt lat="43.02489167" lon="-1.19401667">
        <ele>1058.0</ele>
        <time>2019-08-01T06:36:10.932Z</time>
      </trkpt>
      <trkpt lat="43.024905" lon="-1.19402333">
        <ele>1058.0</ele>
        <time>2019-08-01T06:36:11.939Z</time>
      </trkpt>
      <trkpt lat="43.02491833" lon="-1.19403">
        <ele>1059.0</ele>
        <time>2019-08-01T06:36:12.947Z</time>
      </trkpt>
      <trkpt lat="43.02493" lon="-1.19403833">
        <ele>1059.0</ele>
        <time>2019-08-01T06:36:13.954Z</time>
      </trkpt>
      <trkpt lat="43.02494333" lon="-1.19404667">
        <ele>1059.0</ele>
        <time>2019-08-01T06:36:14.960Z</time>
      </trkpt>
      <trkpt lat="43.02496" lon="-1.19405333">
        <ele>1059.0</ele>
        <time>2019-08-01T06:36:15.965Z</time>
      </trkpt>
      <trkpt lat="43.02497167" lon="-1.19406">
        <ele>1059.0</ele>
        <time>2019-08-01T06:36:16.971Z</time>
      </trkpt>
      <trkpt lat="43.024985" lon="-1.19406667">
        <ele>1059.0</ele>
        <time>2019-08-01T06:36:17.974Z</time>
      </trkpt>
      <trkpt lat="43.02499833" lon="-1.194075">
        <ele>1060.0</ele>
        <time>2019-08-01T06:36:18.980Z</time>
      </trkpt>
      <trkpt lat="43.02501167" lon="-1.194085">
        <ele>1060.0</ele>
        <time>2019-08-01T06:36:19.986Z</time>
      </trkpt>
      <trkpt lat="43.02502333" lon="-1.19409333">
        <ele>1060.0</ele>
        <time>2019-08-01T06:36:20.996Z</time>
      </trkpt>
      <trkpt lat="43.02503667" lon="-1.1941">
        <ele>1060.0</ele>
        <time>2019-08-01T06:36:22.002Z</time>
      </trkpt>
      <trkpt lat="43.02505" lon="-1.19410833">
        <ele>1060.0</ele>
        <time>2019-08-01T06:36:23.008Z</time>
      </trkpt>
      <trkpt lat="43.02506167" lon="-1.19411667">
        <ele>1060.0</ele>
        <time>2019-08-01T06:36:24.013Z</time>
      </trkpt>
      <trkpt lat="43.02507667" lon="-1.194125">
        <ele>1060.0</ele>
        <time>2019-08-01T06:36:25.018Z</time>
      </trkpt>
      <trkpt lat="43.02508833" lon="-1.19413">
        <ele>1060.0</ele>
        <time>2019-08-01T06:36:26.023Z</time>
      </trkpt>
      <trkpt lat="43.0251" lon="-1.194135">
        <ele>1060.0</ele>
        <time>2019-08-01T06:36:27.026Z</time>
      </trkpt>
      <trkpt lat="43.02511167" lon="-1.194145">
        <ele>1060.0</ele>
        <time>2019-08-01T06:36:28.030Z</time>
      </trkpt>
      <trkpt lat="43.02512167" lon="-1.19414833">
        <ele>1060.0</ele>
        <time>2019-08-01T06:36:29.037Z</time>
      </trkpt>
      <trkpt lat="43.02513333" lon="-1.19415833">
        <ele>1060.0</ele>
        <time>2019-08-01T06:36:30.043Z</time>
      </trkpt>
      <trkpt lat="43.025145" lon="-1.194165">
        <ele>1059.0</ele>
        <time>2019-08-01T06:36:30.924Z</time>
      </trkpt>
      <trkpt lat="43.02515833" lon="-1.194175">
        <ele>1059.0</ele>
        <time>2019-08-01T06:36:31.931Z</time>
      </trkpt>
      <trkpt lat="43.02517167" lon="-1.19418833">
        <ele>1059.0</ele>
        <time>2019-08-01T06:36:32.936Z</time>
      </trkpt>
      <trkpt lat="43.02518667" lon="-1.19420167">
        <ele>1060.0</ele>
        <time>2019-08-01T06:36:33.943Z</time>
      </trkpt>
      <trkpt lat="43.02520167" lon="-1.194215">
        <ele>1060.0</ele>
        <time>2019-08-01T06:36:34.950Z</time>
      </trkpt>
      <trkpt lat="43.02521" lon="-1.194225">
        <ele>1060.0</ele>
        <time>2019-08-01T06:36:35.955Z</time>
      </trkpt>
      <trkpt lat="43.02522167" lon="-1.194235">
        <ele>1060.0</ele>
        <time>2019-08-01T06:36:36.962Z</time>
      </trkpt>
      <trkpt lat="43.02523333" lon="-1.194245">
        <ele>1060.0</ele>
        <time>2019-08-01T06:36:37.969Z</time>
      </trkpt>
      <trkpt lat="43.02524667" lon="-1.19425333">
        <ele>1060.0</ele>
        <time>2019-08-01T06:36:38.976Z</time>
      </trkpt>
      <trkpt lat="43.02526" lon="-1.19426333">
        <ele>1059.0</ele>
        <time>2019-08-01T06:36:39.981Z</time>
      </trkpt>
      <trkpt lat="43.02527167" lon="-1.19427">
        <ele>1059.0</ele>
        <time>2019-08-01T06:36:40.989Z</time>
      </trkpt>
      <trkpt lat="43.02528167" lon="-1.194275">
        <ele>1059.0</ele>
        <time>2019-08-01T06:36:41.993Z</time>
      </trkpt>
      <trkpt lat="43.02529333" lon="-1.19428167">
        <ele>1059.0</ele>
        <time>2019-08-01T06:36:42.997Z</time>
      </trkpt>
      <trkpt lat="43.02530333" lon="-1.19428833">
        <ele>1059.0</ele>
        <time>2019-08-01T06:36:44.002Z</time>
      </trkpt>
      <trkpt lat="43.02531333" lon="-1.194295">
        <ele>1059.0</ele>
        <time>2019-08-01T06:36:45.007Z</time>
      </trkpt>
      <trkpt lat="43.02532833" lon="-1.194305">
        <ele>1058.0</ele>
        <time>2019-08-01T06:36:46.014Z</time>
      </trkpt>
      <trkpt lat="43.02534167" lon="-1.19431167">
        <ele>1058.0</ele>
        <time>2019-08-01T06:36:47.021Z</time>
      </trkpt>
      <trkpt lat="43.025355" lon="-1.19432">
        <ele>1058.0</ele>
        <time>2019-08-01T06:36:48.024Z</time>
      </trkpt>
      <trkpt lat="43.025365" lon="-1.19432833">
        <ele>1058.0</ele>
        <time>2019-08-01T06:36:49.028Z</time>
      </trkpt>
      <trkpt lat="43.02537667" lon="-1.19433667">
        <ele>1058.0</ele>
        <time>2019-08-01T06:36:50.034Z</time>
      </trkpt>
      <trkpt lat="43.02539" lon="-1.194345">
        <ele>1058.0</ele>
        <time>2019-08-01T06:36:51.038Z</time>
      </trkpt>
      <trkpt lat="43.02540333" lon="-1.19435167">
        <ele>1058.0</ele>
        <time>2019-08-01T06:36:51.918Z</time>
      </trkpt>
      <trkpt lat="43.025415" lon="-1.19436">
        <ele>1058.0</ele>
        <time>2019-08-01T06:36:52.923Z</time>
      </trkpt>
      <trkpt lat="43.02542667" lon="-1.19437">
        <ele>1058.0</ele>
        <time>2019-08-01T06:36:53.929Z</time>
      </trkpt>
      <trkpt lat="43.02544167" lon="-1.19437833">
        <ele>1058.0</ele>
        <time>2019-08-01T06:36:54.935Z</time>
      </trkpt>
      <trkpt lat="43.025455" lon="-1.19438667">
        <ele>1057.0</ele>
        <time>2019-08-01T06:36:55.942Z</time>
      </trkpt>
      <trkpt lat="43.02547" lon="-1.194395">
        <ele>1057.0</ele>
        <time>2019-08-01T06:36:56.949Z</time>
      </trkpt>
      <trkpt lat="43.02548167" lon="-1.19440333">
        <ele>1056.0</ele>
        <time>2019-08-01T06:36:57.956Z</time>
      </trkpt>
      <trkpt lat="43.02549333" lon="-1.19441">
        <ele>1056.0</ele>
        <time>2019-08-01T06:36:58.964Z</time>
      </trkpt>
      <trkpt lat="43.02550667" lon="-1.19442">
        <ele>1056.0</ele>
        <time>2019-08-01T06:36:59.970Z</time>
      </trkpt>
      <trkpt lat="43.02552" lon="-1.19443167">
        <ele>1057.0</ele>
        <time>2019-08-01T06:37:00.972Z</time>
      </trkpt>
      <trkpt lat="43.02553333" lon="-1.19444167">
        <ele>1056.0</ele>
        <time>2019-08-01T06:37:01.979Z</time>
      </trkpt>
      <trkpt lat="43.025545" lon="-1.19445167">
        <ele>1056.0</ele>
        <time>2019-08-01T06:37:02.985Z</time>
      </trkpt>
      <trkpt lat="43.02555667" lon="-1.19446">
        <ele>1056.0</ele>
        <time>2019-08-01T06:37:03.989Z</time>
      </trkpt>
      <trkpt lat="43.02556833" lon="-1.19446667">
        <ele>1056.0</ele>
        <time>2019-08-01T06:37:04.995Z</time>
      </trkpt>
      <trkpt lat="43.02558167" lon="-1.19447333">
        <ele>1056.0</ele>
        <time>2019-08-01T06:37:05.999Z</time>
      </trkpt>
      <trkpt lat="43.025595" lon="-1.19448333">
        <ele>1055.0</ele>
        <time>2019-08-01T06:37:07.002Z</time>
      </trkpt>
      <trkpt lat="43.025605" lon="-1.19449">
        <ele>1056.0</ele>
        <time>2019-08-01T06:37:08.007Z</time>
      </trkpt>
      <trkpt lat="43.02561833" lon="-1.1945">
        <ele>1056.0</ele>
        <time>2019-08-01T06:37:09.013Z</time>
      </trkpt>
      <trkpt lat="43.02563333" lon="-1.19450833">
        <ele>1056.0</ele>
        <time>2019-08-01T06:37:10.018Z</time>
      </trkpt>
      <trkpt lat="43.02564833" lon="-1.19451833">
        <ele>1056.0</ele>
        <time>2019-08-01T06:37:11.023Z</time>
      </trkpt>
      <trkpt lat="43.02566" lon="-1.19452667">
        <ele>1056.0</ele>
        <time>2019-08-01T06:37:12.030Z</time>
      </trkpt>
      <trkpt lat="43.02567" lon="-1.19453333">
        <ele>1056.0</ele>
        <time>2019-08-01T06:37:13.036Z</time>
      </trkpt>
      <trkpt lat="43.02568167" lon="-1.19454">
        <ele>1055.0</ele>
        <time>2019-08-01T06:37:14.040Z</time>
      </trkpt>
      <trkpt lat="43.025695" lon="-1.19454833">
        <ele>1055.0</ele>
        <time>2019-08-01T06:37:14.919Z</time>
      </trkpt>
      <trkpt lat="43.02570667" lon="-1.19455333">
        <ele>1055.0</ele>
        <time>2019-08-01T06:37:15.923Z</time>
      </trkpt>
      <trkpt lat="43.02571833" lon="-1.19455833">
        <ele>1055.0</ele>
        <time>2019-08-01T06:37:16.926Z</time>
      </trkpt>
      <trkpt lat="43.02573333" lon="-1.19456667">
        <ele>1055.0</ele>
        <time>2019-08-01T06:37:17.933Z</time>
      </trkpt>
      <trkpt lat="43.02574667" lon="-1.194575">
        <ele>1055.0</ele>
        <time>2019-08-01T06:37:18.939Z</time>
      </trkpt>
      <trkpt lat="43.02576" lon="-1.19458">
        <ele>1055.0</ele>
        <time>2019-08-01T06:37:19.944Z</time>
      </trkpt>
      <trkpt lat="43.02577167" lon="-1.19458667">
        <ele>1055.0</ele>
        <time>2019-08-01T06:37:20.949Z</time>
      </trkpt>
      <trkpt lat="43.02578333" lon="-1.19459333">
        <ele>1055.0</ele>
        <time>2019-08-01T06:37:21.955Z</time>
      </trkpt>
      <trkpt lat="43.02579667" lon="-1.1946">
        <ele>1055.0</ele>
        <time>2019-08-01T06:37:22.960Z</time>
      </trkpt>
      <trkpt lat="43.02581" lon="-1.19461">
        <ele>1055.0</ele>
        <time>2019-08-01T06:37:23.967Z</time>
      </trkpt>
      <trkpt lat="43.02582333" lon="-1.19461667">
        <ele>1055.0</ele>
        <time>2019-08-01T06:37:24.974Z</time>
      </trkpt>
      <trkpt lat="43.02583667" lon="-1.19462667">
        <ele>1055.0</ele>
        <time>2019-08-01T06:37:25.981Z</time>
      </trkpt>
      <trkpt lat="43.02584833" lon="-1.19463667">
        <ele>1055.0</ele>
        <time>2019-08-01T06:37:26.988Z</time>
      </trkpt>
      <trkpt lat="43.02586333" lon="-1.194645">
        <ele>1056.0</ele>
        <time>2019-08-01T06:37:27.994Z</time>
      </trkpt>
      <trkpt lat="43.025875" lon="-1.194655">
        <ele>1056.0</ele>
        <time>2019-08-01T06:37:29.000Z</time>
      </trkpt>
      <trkpt lat="43.025885" lon="-1.19466167">
        <ele>1056.0</ele>
        <time>2019-08-01T06:37:30.005Z</time>
      </trkpt>
      <trkpt lat="43.0259" lon="-1.19467">
        <ele>1056.0</ele>
        <time>2019-08-01T06:37:31.009Z</time>
      </trkpt>
      <trkpt lat="43.02591333" lon="-1.19467833">
        <ele>1056.0</ele>
        <time>2019-08-01T06:37:32.011Z</time>
      </trkpt>
      <trkpt lat="43.02592833" lon="-1.19468833">
        <ele>1056.0</ele>
        <time>2019-08-01T06:37:33.015Z</time>
      </trkpt>
      <trkpt lat="43.02593833" lon="-1.19469667">
        <ele>1056.0</ele>
        <time>2019-08-01T06:37:34.022Z</time>
      </trkpt>
      <trkpt lat="43.02595" lon="-1.19470833">
        <ele>1056.0</ele>
        <time>2019-08-01T06:37:35.029Z</time>
      </trkpt>
      <trkpt lat="43.02596167" lon="-1.19472">
        <ele>1056.0</ele>
        <time>2019-08-01T06:37:36.034Z</time>
      </trkpt>
      <trkpt lat="43.02597167" lon="-1.19473167">
        <ele>1056.0</ele>
        <time>2019-08-01T06:37:37.041Z</time>
      </trkpt>
      <trkpt lat="43.02599" lon="-1.194745">
        <ele>1057.0</ele>
        <time>2019-08-01T06:37:37.920Z</time>
      </trkpt>
      <trkpt lat="43.02600167" lon="-1.194755">
        <ele>1057.0</ele>
        <time>2019-08-01T06:37:38.925Z</time>
      </trkpt>
      <trkpt lat="43.02601333" lon="-1.194765">
        <ele>1057.0</ele>
        <time>2019-08-01T06:37:39.930Z</time>
      </trkpt>
      <trkpt lat="43.026025" lon="-1.19477667">
        <ele>1057.0</ele>
        <time>2019-08-01T06:37:40.937Z</time>
      </trkpt>
      <trkpt lat="43.026035" lon="-1.19478667">
        <ele>1057.0</ele>
        <time>2019-08-01T06:37:41.942Z</time>
      </trkpt>
      <trkpt lat="43.02604833" lon="-1.1948">
        <ele>1057.0</ele>
        <time>2019-08-01T06:37:42.948Z</time>
      </trkpt>
      <trkpt lat="43.02606" lon="-1.19481167">
        <ele>1056.0</ele>
        <time>2019-08-01T06:37:43.953Z</time>
      </trkpt>
      <trkpt lat="43.02607333" lon="-1.19482167">
        <ele>1056.0</ele>
        <time>2019-08-01T06:37:44.957Z</time>
      </trkpt>
      <trkpt lat="43.02608667" lon="-1.194835">
        <ele>1056.0</ele>
        <time>2019-08-01T06:37:45.963Z</time>
      </trkpt>
      <trkpt lat="43.0261" lon="-1.194845">
        <ele>1056.0</ele>
        <time>2019-08-01T06:37:46.970Z</time>
      </trkpt>
      <trkpt lat="43.026115" lon="-1.19485667">
        <ele>1056.0</ele>
        <time>2019-08-01T06:37:47.977Z</time>
      </trkpt>
      <trkpt lat="43.02612667" lon="-1.19486667">
        <ele>1056.0</ele>
        <time>2019-08-01T06:37:48.983Z</time>
      </trkpt>
      <trkpt lat="43.02613833" lon="-1.19487833">
        <ele>1055.0</ele>
        <time>2019-08-01T06:37:49.989Z</time>
      </trkpt>
      <trkpt lat="43.02614667" lon="-1.19489">
        <ele>1055.0</ele>
        <time>2019-08-01T06:37:50.996Z</time>
      </trkpt>
      <trkpt lat="43.02616167" lon="-1.19490167">
        <ele>1054.0</ele>
        <time>2019-08-01T06:37:51.999Z</time>
      </trkpt>
      <trkpt lat="43.02617167" lon="-1.19491167">
        <ele>1054.0</ele>
        <time>2019-08-01T06:37:53.005Z</time>
      </trkpt>
      <trkpt lat="43.02618167" lon="-1.19491833">
        <ele>1054.0</ele>
        <time>2019-08-01T06:37:54.013Z</time>
      </trkpt>
      <trkpt lat="43.02619333" lon="-1.19492833">
        <ele>1054.0</ele>
        <time>2019-08-01T06:37:55.018Z</time>
      </trkpt>
      <trkpt lat="43.02620333" lon="-1.19493833">
        <ele>1053.0</ele>
        <time>2019-08-01T06:37:56.025Z</time>
      </trkpt>
      <trkpt lat="43.02621667" lon="-1.19494833">
        <ele>1053.0</ele>
        <time>2019-08-01T06:37:57.029Z</time>
      </trkpt>
      <trkpt lat="43.02623" lon="-1.19495833">
        <ele>1052.0</ele>
        <time>2019-08-01T06:37:58.035Z</time>
      </trkpt>
      <trkpt lat="43.02624333" lon="-1.19496833">
        <ele>1052.0</ele>
        <time>2019-08-01T06:37:59.040Z</time>
      </trkpt>
      <trkpt lat="43.02625667" lon="-1.19498">
        <ele>1052.0</ele>
        <time>2019-08-01T06:37:59.921Z</time>
      </trkpt>
      <trkpt lat="43.02626833" lon="-1.19499333">
        <ele>1052.0</ele>
        <time>2019-08-01T06:38:00.927Z</time>
      </trkpt>
      <trkpt lat="43.02628" lon="-1.195005">
        <ele>1052.0</ele>
        <time>2019-08-01T06:38:01.934Z</time>
      </trkpt>
      <trkpt lat="43.02629333" lon="-1.19501833">
        <ele>1052.0</ele>
        <time>2019-08-01T06:38:02.941Z</time>
      </trkpt>
      <trkpt lat="43.02630667" lon="-1.19502667">
        <ele>1052.0</ele>
        <time>2019-08-01T06:38:03.945Z</time>
      </trkpt>
      <trkpt lat="43.02631833" lon="-1.19503667">
        <ele>1052.0</ele>
        <time>2019-08-01T06:38:04.951Z</time>
      </trkpt>
      <trkpt lat="43.02633" lon="-1.19504333">
        <ele>1052.0</ele>
        <time>2019-08-01T06:38:05.955Z</time>
      </trkpt>
      <trkpt lat="43.02634333" lon="-1.19505">
        <ele>1052.0</ele>
        <time>2019-08-01T06:38:06.960Z</time>
      </trkpt>
      <trkpt lat="43.026355" lon="-1.19505833">
        <ele>1052.0</ele>
        <time>2019-08-01T06:38:07.964Z</time>
      </trkpt>
      <trkpt lat="43.02636667" lon="-1.19506333">
        <ele>1052.0</ele>
        <time>2019-08-01T06:38:08.970Z</time>
      </trkpt>
      <trkpt lat="43.02638" lon="-1.19507">
        <ele>1052.0</ele>
        <time>2019-08-01T06:38:09.976Z</time>
      </trkpt>
      <trkpt lat="43.02639167" lon="-1.19507833">
        <ele>1052.0</ele>
        <time>2019-08-01T06:38:10.983Z</time>
      </trkpt>
      <trkpt lat="43.02640667" lon="-1.19508667">
        <ele>1053.0</ele>
        <time>2019-08-01T06:38:11.989Z</time>
      </trkpt>
      <trkpt lat="43.02641833" lon="-1.19509333">
        <ele>1053.0</ele>
        <time>2019-08-01T06:38:12.993Z</time>
      </trkpt>
      <trkpt lat="43.02643167" lon="-1.19510333">
        <ele>1052.0</ele>
        <time>2019-08-01T06:38:13.996Z</time>
      </trkpt>
      <trkpt lat="43.02644667" lon="-1.195115">
        <ele>1052.0</ele>
        <time>2019-08-01T06:38:15.001Z</time>
      </trkpt>
      <trkpt lat="43.02645833" lon="-1.19512333">
        <ele>1053.0</ele>
        <time>2019-08-01T06:38:16.009Z</time>
      </trkpt>
      <trkpt lat="43.02647" lon="-1.19513">
        <ele>1052.0</ele>
        <time>2019-08-01T06:38:17.015Z</time>
      </trkpt>
      <trkpt lat="43.02648333" lon="-1.19514">
        <ele>1052.0</ele>
        <time>2019-08-01T06:38:18.020Z</time>
      </trkpt>
      <trkpt lat="43.026495" lon="-1.19514667">
        <ele>1052.0</ele>
        <time>2019-08-01T06:38:19.027Z</time>
      </trkpt>
      <trkpt lat="43.026505" lon="-1.195155">
        <ele>1052.0</ele>
        <time>2019-08-01T06:38:20.034Z</time>
      </trkpt>
      <trkpt lat="43.02651667" lon="-1.19516333">
        <ele>1053.0</ele>
        <time>2019-08-01T06:38:21.039Z</time>
      </trkpt>
      <trkpt lat="43.02653" lon="-1.19517333">
        <ele>1053.0</ele>
        <time>2019-08-01T06:38:21.919Z</time>
      </trkpt>
      <trkpt lat="43.026545" lon="-1.19518167">
        <ele>1052.0</ele>
        <time>2019-08-01T06:38:22.924Z</time>
      </trkpt>
      <trkpt lat="43.02656" lon="-1.19519167">
        <ele>1052.0</ele>
        <time>2019-08-01T06:38:23.930Z</time>
      </trkpt>
      <trkpt lat="43.02657167" lon="-1.19520167">
        <ele>1052.0</ele>
        <time>2019-08-01T06:38:24.936Z</time>
      </trkpt>
      <trkpt lat="43.02658667" lon="-1.19520667">
        <ele>1052.0</ele>
        <time>2019-08-01T06:38:25.945Z</time>
      </trkpt>
      <trkpt lat="43.0266" lon="-1.19521167">
        <ele>1051.0</ele>
        <time>2019-08-01T06:38:26.951Z</time>
      </trkpt>
      <trkpt lat="43.02661333" lon="-1.19521667">
        <ele>1051.0</ele>
        <time>2019-08-01T06:38:27.957Z</time>
      </trkpt>
      <trkpt lat="43.02662833" lon="-1.195225">
        <ele>1051.0</ele>
        <time>2019-08-01T06:38:28.960Z</time>
      </trkpt>
      <trkpt lat="43.02664167" lon="-1.19523167">
        <ele>1051.0</ele>
        <time>2019-08-01T06:38:29.968Z</time>
      </trkpt>
      <trkpt lat="43.02665667" lon="-1.19524167">
        <ele>1052.0</ele>
        <time>2019-08-01T06:38:30.976Z</time>
      </trkpt>
      <trkpt lat="43.02667" lon="-1.19525333">
        <ele>1052.0</ele>
        <time>2019-08-01T06:38:31.982Z</time>
      </trkpt>
      <trkpt lat="43.02668" lon="-1.19526333">
        <ele>1052.0</ele>
        <time>2019-08-01T06:38:32.988Z</time>
      </trkpt>
      <trkpt lat="43.02669333" lon="-1.19527333">
        <ele>1052.0</ele>
        <time>2019-08-01T06:38:33.994Z</time>
      </trkpt>
      <trkpt lat="43.02670833" lon="-1.19528333">
        <ele>1052.0</ele>
        <time>2019-08-01T06:38:35.001Z</time>
      </trkpt>
      <trkpt lat="43.02672" lon="-1.195295">
        <ele>1052.0</ele>
        <time>2019-08-01T06:38:36.005Z</time>
      </trkpt>
      <trkpt lat="43.02673167" lon="-1.19530333">
        <ele>1052.0</ele>
        <time>2019-08-01T06:38:37.009Z</time>
      </trkpt>
      <trkpt lat="43.02674333" lon="-1.19531333">
        <ele>1052.0</ele>
        <time>2019-08-01T06:38:38.017Z</time>
      </trkpt>
      <trkpt lat="43.026755" lon="-1.19532167">
        <ele>1052.0</ele>
        <time>2019-08-01T06:38:39.023Z</time>
      </trkpt>
      <trkpt lat="43.02676667" lon="-1.19533">
        <ele>1053.0</ele>
        <time>2019-08-01T06:38:40.030Z</time>
      </trkpt>
      <trkpt lat="43.02677833" lon="-1.19533833">
        <ele>1053.0</ele>
        <time>2019-08-01T06:38:41.037Z</time>
      </trkpt>
      <trkpt lat="43.02679167" lon="-1.19534833">
        <ele>1053.0</ele>
        <time>2019-08-01T06:38:42.042Z</time>
      </trkpt>
      <trkpt lat="43.02680667" lon="-1.19535667">
        <ele>1053.0</ele>
        <time>2019-08-01T06:38:42.921Z</time>
      </trkpt>
      <trkpt lat="43.02682" lon="-1.195365">
        <ele>1053.0</ele>
        <time>2019-08-01T06:38:43.926Z</time>
      </trkpt>
      <trkpt lat="43.02683333" lon="-1.19537">
        <ele>1053.0</ele>
        <time>2019-08-01T06:38:44.932Z</time>
      </trkpt>
      <trkpt lat="43.026845" lon="-1.19537833">
        <ele>1052.0</ele>
        <time>2019-08-01T06:38:45.937Z</time>
      </trkpt>
      <trkpt lat="43.02685833" lon="-1.195385">
        <ele>1052.0</ele>
        <time>2019-08-01T06:38:46.942Z</time>
      </trkpt>
      <trkpt lat="43.02687167" lon="-1.19539333">
        <ele>1051.0</ele>
        <time>2019-08-01T06:38:47.944Z</time>
      </trkpt>
      <trkpt lat="43.026885" lon="-1.19540167">
        <ele>1051.0</ele>
        <time>2019-08-01T06:38:48.951Z</time>
      </trkpt>
      <trkpt lat="43.02689833" lon="-1.19541333">
        <ele>1051.0</ele>
        <time>2019-08-01T06:38:49.956Z</time>
      </trkpt>
      <trkpt lat="43.02690833" lon="-1.19542667">
        <ele>1051.0</ele>
        <time>2019-08-01T06:38:50.962Z</time>
      </trkpt>
      <trkpt lat="43.02691667" lon="-1.19544333">
        <ele>1051.0</ele>
        <time>2019-08-01T06:38:51.964Z</time>
      </trkpt>
      <trkpt lat="43.02693" lon="-1.19545667">
        <ele>1051.0</ele>
        <time>2019-08-01T06:38:52.969Z</time>
      </trkpt>
      <trkpt lat="43.02694167" lon="-1.19546833">
        <ele>1051.0</ele>
        <time>2019-08-01T06:38:53.975Z</time>
      </trkpt>
      <trkpt lat="43.02695333" lon="-1.19547833">
        <ele>1051.0</ele>
        <time>2019-08-01T06:38:54.977Z</time>
      </trkpt>
      <trkpt lat="43.02696667" lon="-1.19549">
        <ele>1052.0</ele>
        <time>2019-08-01T06:38:55.984Z</time>
      </trkpt>
      <trkpt lat="43.02698167" lon="-1.1955">
        <ele>1052.0</ele>
        <time>2019-08-01T06:38:56.990Z</time>
      </trkpt>
      <trkpt lat="43.026995" lon="-1.19550833">
        <ele>1052.0</ele>
        <time>2019-08-01T06:38:57.995Z</time>
      </trkpt>
      <trkpt lat="43.02700833" lon="-1.19551667">
        <ele>1051.0</ele>
        <time>2019-08-01T06:38:58.997Z</time>
      </trkpt>
      <trkpt lat="43.02702333" lon="-1.19552667">
        <ele>1051.0</ele>
        <time>2019-08-01T06:39:00.001Z</time>
      </trkpt>
      <trkpt lat="43.02703667" lon="-1.19553667">
        <ele>1052.0</ele>
        <time>2019-08-01T06:39:01.006Z</time>
      </trkpt>
      <trkpt lat="43.02705" lon="-1.19554667">
        <ele>1052.0</ele>
        <time>2019-08-01T06:39:02.012Z</time>
      </trkpt>
      <trkpt lat="43.02706333" lon="-1.195555">
        <ele>1052.0</ele>
        <time>2019-08-01T06:39:03.019Z</time>
      </trkpt>
      <trkpt lat="43.02707667" lon="-1.19556333">
        <ele>1052.0</ele>
        <time>2019-08-01T06:39:04.024Z</time>
      </trkpt>
      <trkpt lat="43.02708833" lon="-1.19557167">
        <ele>1052.0</ele>
        <time>2019-08-01T06:39:05.027Z</time>
      </trkpt>
      <trkpt lat="43.0271" lon="-1.19558">
        <ele>1051.0</ele>
        <time>2019-08-01T06:39:06.032Z</time>
      </trkpt>
      <trkpt lat="43.02711167" lon="-1.19559">
        <ele>1051.0</ele>
        <time>2019-08-01T06:39:07.037Z</time>
      </trkpt>
      <trkpt lat="43.02712333" lon="-1.19559833">
        <ele>1051.0</ele>
        <time>2019-08-01T06:39:08.042Z</time>
      </trkpt>
      <trkpt lat="43.02713667" lon="-1.19561167">
        <ele>1051.0</ele>
        <time>2019-08-01T06:39:08.922Z</time>
      </trkpt>
      <trkpt lat="43.02715167" lon="-1.19562167">
        <ele>1051.0</ele>
        <time>2019-08-01T06:39:09.929Z</time>
      </trkpt>
      <trkpt lat="43.02716667" lon="-1.19563167">
        <ele>1050.0</ele>
        <time>2019-08-01T06:39:10.936Z</time>
      </trkpt>
      <trkpt lat="43.02718167" lon="-1.19564333">
        <ele>1051.0</ele>
        <time>2019-08-01T06:39:11.943Z</time>
      </trkpt>
      <trkpt lat="43.027195" lon="-1.19565167">
        <ele>1051.0</ele>
        <time>2019-08-01T06:39:12.951Z</time>
      </trkpt>
      <trkpt lat="43.02720667" lon="-1.195665">
        <ele>1052.0</ele>
        <time>2019-08-01T06:39:13.956Z</time>
      </trkpt>
      <trkpt lat="43.02721833" lon="-1.195675">
        <ele>1052.0</ele>
        <time>2019-08-01T06:39:14.962Z</time>
      </trkpt>
      <trkpt lat="43.02723167" lon="-1.195685">
        <ele>1051.0</ele>
        <time>2019-08-01T06:39:15.969Z</time>
      </trkpt>
      <trkpt lat="43.02724333" lon="-1.19569667">
        <ele>1051.0</ele>
        <time>2019-08-01T06:39:16.976Z</time>
      </trkpt>
      <trkpt lat="43.02725833" lon="-1.19570833">
        <ele>1051.0</ele>
        <time>2019-08-01T06:39:17.982Z</time>
      </trkpt>
      <trkpt lat="43.02727167" lon="-1.19572">
        <ele>1050.0</ele>
        <time>2019-08-01T06:39:18.989Z</time>
      </trkpt>
      <trkpt lat="43.02728333" lon="-1.19573333">
        <ele>1050.0</ele>
        <time>2019-08-01T06:39:19.995Z</time>
      </trkpt>
      <trkpt lat="43.02729667" lon="-1.195745">
        <ele>1051.0</ele>
        <time>2019-08-01T06:39:21.001Z</time>
      </trkpt>
      <trkpt lat="43.02730667" lon="-1.19575333">
        <ele>1051.0</ele>
        <time>2019-08-01T06:39:22.008Z</time>
      </trkpt>
      <trkpt lat="43.02731667" lon="-1.195765">
        <ele>1051.0</ele>
        <time>2019-08-01T06:39:23.014Z</time>
      </trkpt>
      <trkpt lat="43.02732667" lon="-1.19577833">
        <ele>1051.0</ele>
        <time>2019-08-01T06:39:24.015Z</time>
      </trkpt>
      <trkpt lat="43.02733833" lon="-1.19579">
        <ele>1051.0</ele>
        <time>2019-08-01T06:39:25.017Z</time>
      </trkpt>
      <trkpt lat="43.02735167" lon="-1.19580167">
        <ele>1051.0</ele>
        <time>2019-08-01T06:39:26.020Z</time>
      </trkpt>
      <trkpt lat="43.027365" lon="-1.19581333">
        <ele>1052.0</ele>
        <time>2019-08-01T06:39:27.023Z</time>
      </trkpt>
      <trkpt lat="43.02738" lon="-1.19582833">
        <ele>1052.0</ele>
        <time>2019-08-01T06:39:28.027Z</time>
      </trkpt>
      <trkpt lat="43.027395" lon="-1.19584">
        <ele>1052.0</ele>
        <time>2019-08-01T06:39:29.033Z</time>
      </trkpt>
      <trkpt lat="43.02740833" lon="-1.19585333">
        <ele>1052.0</ele>
        <time>2019-08-01T06:39:30.038Z</time>
      </trkpt>
      <trkpt lat="43.02742167" lon="-1.195865">
        <ele>1052.0</ele>
        <time>2019-08-01T06:39:30.918Z</time>
      </trkpt>
      <trkpt lat="43.02743333" lon="-1.19587667">
        <ele>1052.0</ele>
        <time>2019-08-01T06:39:31.922Z</time>
      </trkpt>
      <trkpt lat="43.02744667" lon="-1.19588667">
        <ele>1052.0</ele>
        <time>2019-08-01T06:39:32.926Z</time>
      </trkpt>
      <trkpt lat="43.02746" lon="-1.19589667">
        <ele>1052.0</ele>
        <time>2019-08-01T06:39:33.934Z</time>
      </trkpt>
      <trkpt lat="43.02747167" lon="-1.19590833">
        <ele>1052.0</ele>
        <time>2019-08-01T06:39:34.941Z</time>
      </trkpt>
      <trkpt lat="43.027485" lon="-1.19591667">
        <ele>1052.0</ele>
        <time>2019-08-01T06:39:35.947Z</time>
      </trkpt>
      <trkpt lat="43.0275" lon="-1.19592667">
        <ele>1052.0</ele>
        <time>2019-08-01T06:39:36.951Z</time>
      </trkpt>
      <trkpt lat="43.02751333" lon="-1.195935">
        <ele>1052.0</ele>
        <time>2019-08-01T06:39:37.956Z</time>
      </trkpt>
      <trkpt lat="43.02752833" lon="-1.19594167">
        <ele>1052.0</ele>
        <time>2019-08-01T06:39:38.962Z</time>
      </trkpt>
      <trkpt lat="43.02754333" lon="-1.19595167">
        <ele>1052.0</ele>
        <time>2019-08-01T06:39:39.968Z</time>
      </trkpt>
      <trkpt lat="43.02755833" lon="-1.19596333">
        <ele>1052.0</ele>
        <time>2019-08-01T06:39:40.974Z</time>
      </trkpt>
      <trkpt lat="43.02757167" lon="-1.195975">
        <ele>1051.0</ele>
        <time>2019-08-01T06:39:41.976Z</time>
      </trkpt>
      <trkpt lat="43.02758833" lon="-1.19598333">
        <ele>1052.0</ele>
        <time>2019-08-01T06:39:42.982Z</time>
      </trkpt>
      <trkpt lat="43.0276" lon="-1.19599">
        <ele>1052.0</ele>
        <time>2019-08-01T06:39:43.990Z</time>
      </trkpt>
      <trkpt lat="43.02761" lon="-1.19599">
        <ele>1051.0</ele>
        <time>2019-08-01T06:39:44.996Z</time>
      </trkpt>
      <trkpt lat="43.02762167" lon="-1.19599333">
        <ele>1052.0</ele>
        <time>2019-08-01T06:39:46.002Z</time>
      </trkpt>
      <trkpt lat="43.02763833" lon="-1.19599667">
        <ele>1051.0</ele>
        <time>2019-08-01T06:39:47.006Z</time>
      </trkpt>
      <trkpt lat="43.02765333" lon="-1.19600167">
        <ele>1051.0</ele>
        <time>2019-08-01T06:39:48.013Z</time>
      </trkpt>
      <trkpt lat="43.02766667" lon="-1.19600667">
        <ele>1051.0</ele>
        <time>2019-08-01T06:39:49.019Z</time>
      </trkpt>
      <trkpt lat="43.02768167" lon="-1.19601167">
        <ele>1051.0</ele>
        <time>2019-08-01T06:39:50.023Z</time>
      </trkpt>
      <trkpt lat="43.02769667" lon="-1.19601667">
        <ele>1051.0</ele>
        <time>2019-08-01T06:39:51.029Z</time>
      </trkpt>
      <trkpt lat="43.02771" lon="-1.19602">
        <ele>1051.0</ele>
        <time>2019-08-01T06:39:52.035Z</time>
      </trkpt>
      <trkpt lat="43.02772667" lon="-1.19602333">
        <ele>1051.0</ele>
        <time>2019-08-01T06:39:53.039Z</time>
      </trkpt>
      <trkpt lat="43.02774167" lon="-1.19602833">
        <ele>1050.0</ele>
        <time>2019-08-01T06:39:53.919Z</time>
      </trkpt>
      <trkpt lat="43.02775667" lon="-1.19603333">
        <ele>1050.0</ele>
        <time>2019-08-01T06:39:54.925Z</time>
      </trkpt>
      <trkpt lat="43.02777167" lon="-1.19603833">
        <ele>1050.0</ele>
        <time>2019-08-01T06:39:55.931Z</time>
      </trkpt>
      <trkpt lat="43.02778667" lon="-1.19604333">
        <ele>1050.0</ele>
        <time>2019-08-01T06:39:56.935Z</time>
      </trkpt>
      <trkpt lat="43.02780167" lon="-1.19604667">
        <ele>1050.0</ele>
        <time>2019-08-01T06:39:57.942Z</time>
      </trkpt>
      <trkpt lat="43.02781667" lon="-1.19605">
        <ele>1050.0</ele>
        <time>2019-08-01T06:39:58.947Z</time>
      </trkpt>
      <trkpt lat="43.02783167" lon="-1.196055">
        <ele>1050.0</ele>
        <time>2019-08-01T06:39:59.952Z</time>
      </trkpt>
      <trkpt lat="43.02784667" lon="-1.19605833">
        <ele>1050.0</ele>
        <time>2019-08-01T06:40:00.957Z</time>
      </trkpt>
      <trkpt lat="43.02785833" lon="-1.19606167">
        <ele>1050.0</ele>
        <time>2019-08-01T06:40:01.964Z</time>
      </trkpt>
      <trkpt lat="43.02787" lon="-1.19606667">
        <ele>1050.0</ele>
        <time>2019-08-01T06:40:02.971Z</time>
      </trkpt>
      <trkpt lat="43.02788333" lon="-1.19607">
        <ele>1050.0</ele>
        <time>2019-08-01T06:40:03.978Z</time>
      </trkpt>
      <trkpt lat="43.02789667" lon="-1.19607333">
        <ele>1050.0</ele>
        <time>2019-08-01T06:40:04.986Z</time>
      </trkpt>
      <trkpt lat="43.02791" lon="-1.19607667">
        <ele>1050.0</ele>
        <time>2019-08-01T06:40:05.993Z</time>
      </trkpt>
      <trkpt lat="43.027925" lon="-1.19607667">
        <ele>1050.0</ele>
        <time>2019-08-01T06:40:06.998Z</time>
      </trkpt>
      <trkpt lat="43.02794" lon="-1.19607667">
        <ele>1050.0</ele>
        <time>2019-08-01T06:40:08.002Z</time>
      </trkpt>
      <trkpt lat="43.02795167" lon="-1.19607167">
        <ele>1049.0</ele>
        <time>2019-08-01T06:40:09.006Z</time>
      </trkpt>
      <trkpt lat="43.02796667" lon="-1.19607167">
        <ele>1049.0</ele>
        <time>2019-08-01T06:40:10.011Z</time>
      </trkpt>
      <trkpt lat="43.02798333" lon="-1.19607">
        <ele>1049.0</ele>
        <time>2019-08-01T06:40:11.019Z</time>
      </trkpt>
      <trkpt lat="43.02799833" lon="-1.19606833">
        <ele>1049.0</ele>
        <time>2019-08-01T06:40:12.026Z</time>
      </trkpt>
      <trkpt lat="43.02801333" lon="-1.19607333">
        <ele>1050.0</ele>
        <time>2019-08-01T06:40:13.034Z</time>
      </trkpt>
      <trkpt lat="43.02802667" lon="-1.196075">
        <ele>1049.0</ele>
        <time>2019-08-01T06:40:14.040Z</time>
      </trkpt>
      <trkpt lat="43.02804" lon="-1.19607667">
        <ele>1050.0</ele>
        <time>2019-08-01T06:40:14.921Z</time>
      </trkpt>
      <trkpt lat="43.02805333" lon="-1.19608">
        <ele>1050.0</ele>
        <time>2019-08-01T06:40:15.928Z</time>
      </trkpt>
      <trkpt lat="43.02807" lon="-1.196085">
        <ele>1050.0</ele>
        <time>2019-08-01T06:40:16.935Z</time>
      </trkpt>
      <trkpt lat="43.028085" lon="-1.19608833">
        <ele>1050.0</ele>
        <time>2019-08-01T06:40:17.940Z</time>
      </trkpt>
      <trkpt lat="43.02809833" lon="-1.19609">
        <ele>1050.0</ele>
        <time>2019-08-01T06:40:18.946Z</time>
      </trkpt>
      <trkpt lat="43.028115" lon="-1.19609167">
        <ele>1050.0</ele>
        <time>2019-08-01T06:40:19.951Z</time>
      </trkpt>
      <trkpt lat="43.02813" lon="-1.19609333">
        <ele>1050.0</ele>
        <time>2019-08-01T06:40:20.955Z</time>
      </trkpt>
      <trkpt lat="43.02814333" lon="-1.196095">
        <ele>1050.0</ele>
        <time>2019-08-01T06:40:21.962Z</time>
      </trkpt>
      <trkpt lat="43.02815667" lon="-1.19609667">
        <ele>1050.0</ele>
        <time>2019-08-01T06:40:22.970Z</time>
      </trkpt>
      <trkpt lat="43.02817333" lon="-1.19609667">
        <ele>1049.0</ele>
        <time>2019-08-01T06:40:23.977Z</time>
      </trkpt>
      <trkpt lat="43.02818833" lon="-1.19609833">
        <ele>1049.0</ele>
        <time>2019-08-01T06:40:24.984Z</time>
      </trkpt>
      <trkpt lat="43.02820333" lon="-1.19610167">
        <ele>1049.0</ele>
        <time>2019-08-01T06:40:25.989Z</time>
      </trkpt>
      <trkpt lat="43.02821667" lon="-1.196105">
        <ele>1049.0</ele>
        <time>2019-08-01T06:40:26.995Z</time>
      </trkpt>
      <trkpt lat="43.02823167" lon="-1.19610667">
        <ele>1049.0</ele>
        <time>2019-08-01T06:40:28.000Z</time>
      </trkpt>
      <trkpt lat="43.02824667" lon="-1.19610833">
        <ele>1049.0</ele>
        <time>2019-08-01T06:40:29.006Z</time>
      </trkpt>
      <trkpt lat="43.02826" lon="-1.19611">
        <ele>1049.0</ele>
        <time>2019-08-01T06:40:30.011Z</time>
      </trkpt>
      <trkpt lat="43.02827333" lon="-1.19610833">
        <ele>1048.0</ele>
        <time>2019-08-01T06:40:31.015Z</time>
      </trkpt>
      <trkpt lat="43.02829" lon="-1.19611">
        <ele>1048.0</ele>
        <time>2019-08-01T06:40:32.021Z</time>
      </trkpt>
      <trkpt lat="43.02830167" lon="-1.19611333">
        <ele>1048.0</ele>
        <time>2019-08-01T06:40:33.028Z</time>
      </trkpt>
      <trkpt lat="43.02831667" lon="-1.19611333">
        <ele>1048.0</ele>
        <time>2019-08-01T06:40:34.035Z</time>
      </trkpt>
      <trkpt lat="43.02833" lon="-1.19611667">
        <ele>1048.0</ele>
        <time>2019-08-01T06:40:35.041Z</time>
      </trkpt>
      <trkpt lat="43.02834833" lon="-1.19611833">
        <ele>1048.0</ele>
        <time>2019-08-01T06:40:35.922Z</time>
      </trkpt>
      <trkpt lat="43.02836" lon="-1.19612">
        <ele>1048.0</ele>
        <time>2019-08-01T06:40:36.929Z</time>
      </trkpt>
      <trkpt lat="43.02837667" lon="-1.19612">
        <ele>1048.0</ele>
        <time>2019-08-01T06:40:37.935Z</time>
      </trkpt>
      <trkpt lat="43.02839167" lon="-1.19611833">
        <ele>1048.0</ele>
        <time>2019-08-01T06:40:38.942Z</time>
      </trkpt>
      <trkpt lat="43.02840667" lon="-1.19612">
        <ele>1048.0</ele>
        <time>2019-08-01T06:40:39.948Z</time>
      </trkpt>
      <trkpt lat="43.02842167" lon="-1.19612167">
        <ele>1048.0</ele>
        <time>2019-08-01T06:40:40.953Z</time>
      </trkpt>
      <trkpt lat="43.02843333" lon="-1.19612167">
        <ele>1047.0</ele>
        <time>2019-08-01T06:40:41.957Z</time>
      </trkpt>
      <trkpt lat="43.02844667" lon="-1.19612333">
        <ele>1048.0</ele>
        <time>2019-08-01T06:40:42.964Z</time>
      </trkpt>
      <trkpt lat="43.02846167" lon="-1.19612333">
        <ele>1048.0</ele>
        <time>2019-08-01T06:40:43.970Z</time>
      </trkpt>
      <trkpt lat="43.02847333" lon="-1.19612167">
        <ele>1048.0</ele>
        <time>2019-08-01T06:40:44.976Z</time>
      </trkpt>
      <trkpt lat="43.02848833" lon="-1.19611833">
        <ele>1047.0</ele>
        <time>2019-08-01T06:40:45.982Z</time>
      </trkpt>
      <trkpt lat="43.02850333" lon="-1.196115">
        <ele>1047.0</ele>
        <time>2019-08-01T06:40:46.987Z</time>
      </trkpt>
      <trkpt lat="43.028515" lon="-1.19611333">
        <ele>1047.0</ele>
        <time>2019-08-01T06:40:47.993Z</time>
      </trkpt>
      <trkpt lat="43.02853" lon="-1.196115">
        <ele>1046.0</ele>
        <time>2019-08-01T06:40:48.998Z</time>
      </trkpt>
      <trkpt lat="43.02854333" lon="-1.19611833">
        <ele>1046.0</ele>
        <time>2019-08-01T06:40:50.005Z</time>
      </trkpt>
      <trkpt lat="43.02855667" lon="-1.19611667">
        <ele>1046.0</ele>
        <time>2019-08-01T06:40:51.009Z</time>
      </trkpt>
      <trkpt lat="43.02857" lon="-1.196115">
        <ele>1046.0</ele>
        <time>2019-08-01T06:40:52.016Z</time>
      </trkpt>
      <trkpt lat="43.028585" lon="-1.19611667">
        <ele>1046.0</ele>
        <time>2019-08-01T06:40:53.022Z</time>
      </trkpt>
      <trkpt lat="43.02860167" lon="-1.19612">
        <ele>1046.0</ele>
        <time>2019-08-01T06:40:54.027Z</time>
      </trkpt>
      <trkpt lat="43.02861667" lon="-1.19611833">
        <ele>1046.0</ele>
        <time>2019-08-01T06:40:55.033Z</time>
      </trkpt>
      <trkpt lat="43.02863" lon="-1.19611667">
        <ele>1046.0</ele>
        <time>2019-08-01T06:40:56.039Z</time>
      </trkpt>
      <trkpt lat="43.028645" lon="-1.19611333">
        <ele>1045.0</ele>
        <time>2019-08-01T06:40:56.919Z</time>
      </trkpt>
      <trkpt lat="43.02866" lon="-1.19611167">
        <ele>1045.0</ele>
        <time>2019-08-01T06:40:57.926Z</time>
      </trkpt>
      <trkpt lat="43.028675" lon="-1.19611">
        <ele>1045.0</ele>
        <time>2019-08-01T06:40:58.930Z</time>
      </trkpt>
      <trkpt lat="43.02868667" lon="-1.19611167">
        <ele>1045.0</ele>
        <time>2019-08-01T06:40:59.937Z</time>
      </trkpt>
      <trkpt lat="43.02870167" lon="-1.19611167">
        <ele>1045.0</ele>
        <time>2019-08-01T06:41:00.942Z</time>
      </trkpt>
      <trkpt lat="43.028715" lon="-1.19611">
        <ele>1045.0</ele>
        <time>2019-08-01T06:41:01.948Z</time>
      </trkpt>
      <trkpt lat="43.02872833" lon="-1.196105">
        <ele>1045.0</ele>
        <time>2019-08-01T06:41:02.955Z</time>
      </trkpt>
      <trkpt lat="43.02874167" lon="-1.19610667">
        <ele>1045.0</ele>
        <time>2019-08-01T06:41:03.960Z</time>
      </trkpt>
      <trkpt lat="43.02875667" lon="-1.19610833">
        <ele>1045.0</ele>
        <time>2019-08-01T06:41:04.966Z</time>
      </trkpt>
      <trkpt lat="43.02877" lon="-1.19610667">
        <ele>1045.0</ele>
        <time>2019-08-01T06:41:05.974Z</time>
      </trkpt>
      <trkpt lat="43.028785" lon="-1.19610833">
        <ele>1045.0</ele>
        <time>2019-08-01T06:41:06.982Z</time>
      </trkpt>
      <trkpt lat="43.0288" lon="-1.19610833">
        <ele>1045.0</ele>
        <time>2019-08-01T06:41:07.989Z</time>
      </trkpt>
      <trkpt lat="43.02881667" lon="-1.19611">
        <ele>1045.0</ele>
        <time>2019-08-01T06:41:08.995Z</time>
      </trkpt>
      <trkpt lat="43.02883167" lon="-1.19611167">
        <ele>1045.0</ele>
        <time>2019-08-01T06:41:10.000Z</time>
      </trkpt>
      <trkpt lat="43.02884667" lon="-1.196115">
        <ele>1045.0</ele>
        <time>2019-08-01T06:41:11.006Z</time>
      </trkpt>
      <trkpt lat="43.02886167" lon="-1.19611667">
        <ele>1044.0</ele>
        <time>2019-08-01T06:41:12.012Z</time>
      </trkpt>
      <trkpt lat="43.02888" lon="-1.19611833">
        <ele>1044.0</ele>
        <time>2019-08-01T06:41:13.017Z</time>
      </trkpt>
      <trkpt lat="43.02889667" lon="-1.19611833">
        <ele>1044.0</ele>
        <time>2019-08-01T06:41:14.024Z</time>
      </trkpt>
      <trkpt lat="43.02891" lon="-1.19611667">
        <ele>1045.0</ele>
        <time>2019-08-01T06:41:15.031Z</time>
      </trkpt>
      <trkpt lat="43.028925" lon="-1.19611167">
        <ele>1045.0</ele>
        <time>2019-08-01T06:41:16.036Z</time>
      </trkpt>
      <trkpt lat="43.02893833" lon="-1.19610667">
        <ele>1044.0</ele>
        <time>2019-08-01T06:41:17.041Z</time>
      </trkpt>
      <trkpt lat="43.02895" lon="-1.19609833">
        <ele>1044.0</ele>
        <time>2019-08-01T06:41:17.922Z</time>
      </trkpt>
      <trkpt lat="43.02896167" lon="-1.19609167">
        <ele>1044.0</ele>
        <time>2019-08-01T06:41:18.926Z</time>
      </trkpt>
      <trkpt lat="43.028975" lon="-1.19608333">
        <ele>1044.0</ele>
        <time>2019-08-01T06:41:19.932Z</time>
      </trkpt>
      <trkpt lat="43.02898833" lon="-1.19607667">
        <ele>1044.0</ele>
        <time>2019-08-01T06:41:20.937Z</time>
      </trkpt>
      <trkpt lat="43.02900333" lon="-1.19606833">
        <ele>1044.0</ele>
        <time>2019-08-01T06:41:21.940Z</time>
      </trkpt>
      <trkpt lat="43.02901333" lon="-1.196055">
        <ele>1044.0</ele>
        <time>2019-08-01T06:41:22.943Z</time>
      </trkpt>
      <trkpt lat="43.029025" lon="-1.19604167">
        <ele>1044.0</ele>
        <time>2019-08-01T06:41:23.947Z</time>
      </trkpt>
      <trkpt lat="43.02903667" lon="-1.19602667">
        <ele>1044.0</ele>
        <time>2019-08-01T06:41:24.951Z</time>
      </trkpt>
      <trkpt lat="43.02904333" lon="-1.19601167">
        <ele>1044.0</ele>
        <time>2019-08-01T06:41:25.956Z</time>
      </trkpt>
      <trkpt lat="43.02905333" lon="-1.19599667">
        <ele>1043.0</ele>
        <time>2019-08-01T06:41:26.962Z</time>
      </trkpt>
      <trkpt lat="43.02906333" lon="-1.19598">
        <ele>1043.0</ele>
        <time>2019-08-01T06:41:27.969Z</time>
      </trkpt>
      <trkpt lat="43.029075" lon="-1.19596333">
        <ele>1043.0</ele>
        <time>2019-08-01T06:41:28.976Z</time>
      </trkpt>
      <trkpt lat="43.02908333" lon="-1.19594833">
        <ele>1043.0</ele>
        <time>2019-08-01T06:41:29.983Z</time>
      </trkpt>
      <trkpt lat="43.029095" lon="-1.19593333">
        <ele>1043.0</ele>
        <time>2019-08-01T06:41:30.988Z</time>
      </trkpt>
      <trkpt lat="43.02910167" lon="-1.19591667">
        <ele>1043.0</ele>
        <time>2019-08-01T06:41:31.995Z</time>
      </trkpt>
      <trkpt lat="43.02911" lon="-1.1959">
        <ele>1043.0</ele>
        <time>2019-08-01T06:41:32.999Z</time>
      </trkpt>
      <trkpt lat="43.02911667" lon="-1.195885">
        <ele>1043.0</ele>
        <time>2019-08-01T06:41:34.005Z</time>
      </trkpt>
      <trkpt lat="43.02912333" lon="-1.19586833">
        <ele>1043.0</ele>
        <time>2019-08-01T06:41:35.012Z</time>
      </trkpt>
      <trkpt lat="43.02913" lon="-1.19585167">
        <ele>1043.0</ele>
        <time>2019-08-01T06:41:36.017Z</time>
      </trkpt>
      <trkpt lat="43.02914167" lon="-1.19583667">
        <ele>1044.0</ele>
        <time>2019-08-01T06:41:37.024Z</time>
      </trkpt>
      <trkpt lat="43.029155" lon="-1.19581667">
        <ele>1044.0</ele>
        <time>2019-08-01T06:41:38.030Z</time>
      </trkpt>
      <trkpt lat="43.029165" lon="-1.19580333">
        <ele>1044.0</ele>
        <time>2019-08-01T06:41:39.037Z</time>
      </trkpt>
      <trkpt lat="43.02917333" lon="-1.19578833">
        <ele>1044.0</ele>
        <time>2019-08-01T06:41:40.042Z</time>
      </trkpt>
      <trkpt lat="43.029185" lon="-1.19577">
        <ele>1044.0</ele>
        <time>2019-08-01T06:41:40.921Z</time>
      </trkpt>
      <trkpt lat="43.02919" lon="-1.195755">
        <ele>1044.0</ele>
        <time>2019-08-01T06:41:41.924Z</time>
      </trkpt>
      <trkpt lat="43.029195" lon="-1.19574">
        <ele>1043.0</ele>
        <time>2019-08-01T06:41:42.927Z</time>
      </trkpt>
      <trkpt lat="43.02920167" lon="-1.195725">
        <ele>1043.0</ele>
        <time>2019-08-01T06:41:43.930Z</time>
      </trkpt>
      <trkpt lat="43.02920833" lon="-1.19570833">
        <ele>1043.0</ele>
        <time>2019-08-01T06:41:44.936Z</time>
      </trkpt>
      <trkpt lat="43.02921833" lon="-1.19569167">
        <ele>1043.0</ele>
        <time>2019-08-01T06:41:45.941Z</time>
      </trkpt>
      <trkpt lat="43.02922333" lon="-1.195675">
        <ele>1043.0</ele>
        <time>2019-08-01T06:41:46.948Z</time>
      </trkpt>
      <trkpt lat="43.029235" lon="-1.19565833">
        <ele>1043.0</ele>
        <time>2019-08-01T06:41:47.954Z</time>
      </trkpt>
      <trkpt lat="43.029245" lon="-1.19564167">
        <ele>1043.0</ele>
        <time>2019-08-01T06:41:48.959Z</time>
      </trkpt>
      <trkpt lat="43.029255" lon="-1.19562667">
        <ele>1043.0</ele>
        <time>2019-08-01T06:41:49.966Z</time>
      </trkpt>
      <trkpt lat="43.029265" lon="-1.19561333">
        <ele>1043.0</ele>
        <time>2019-08-01T06:41:50.972Z</time>
      </trkpt>
      <trkpt lat="43.02927167" lon="-1.19559667">
        <ele>1042.0</ele>
        <time>2019-08-01T06:41:51.978Z</time>
      </trkpt>
      <trkpt lat="43.02928" lon="-1.19558">
        <ele>1042.0</ele>
        <time>2019-08-01T06:41:52.983Z</time>
      </trkpt>
      <trkpt lat="43.02928833" lon="-1.19556333">
        <ele>1042.0</ele>
        <time>2019-08-01T06:41:53.990Z</time>
      </trkpt>
      <trkpt lat="43.02929833" lon="-1.19554833">
        <ele>1042.0</ele>
        <time>2019-08-01T06:41:54.993Z</time>
      </trkpt>
      <trkpt lat="43.02930667" lon="-1.195535">
        <ele>1042.0</ele>
        <time>2019-08-01T06:41:55.999Z</time>
      </trkpt>
      <trkpt lat="43.02931833" lon="-1.19552167">
        <ele>1042.0</ele>
        <time>2019-08-01T06:41:57.007Z</time>
      </trkpt>
      <trkpt lat="43.02932833" lon="-1.19550667">
        <ele>1042.0</ele>
        <time>2019-08-01T06:41:58.011Z</time>
      </trkpt>
      <trkpt lat="43.02933833" lon="-1.19549">
        <ele>1042.0</ele>
        <time>2019-08-01T06:41:59.016Z</time>
      </trkpt>
      <trkpt lat="43.02934833" lon="-1.19547667">
        <ele>1042.0</ele>
        <time>2019-08-01T06:42:00.023Z</time>
      </trkpt>
      <trkpt lat="43.02935833" lon="-1.19546167">
        <ele>1041.0</ele>
        <time>2019-08-01T06:42:01.028Z</time>
      </trkpt>
      <trkpt lat="43.02937" lon="-1.19544833">
        <ele>1042.0</ele>
        <time>2019-08-01T06:42:02.034Z</time>
      </trkpt>
      <trkpt lat="43.02938" lon="-1.19543333">
        <ele>1042.0</ele>
        <time>2019-08-01T06:42:03.038Z</time>
      </trkpt>
      <trkpt lat="43.02939" lon="-1.19541667">
        <ele>1041.0</ele>
        <time>2019-08-01T06:42:03.918Z</time>
      </trkpt>
      <trkpt lat="43.0294" lon="-1.19540167">
        <ele>1042.0</ele>
        <time>2019-08-01T06:42:04.922Z</time>
      </trkpt>
      <trkpt lat="43.02941167" lon="-1.19538833">
        <ele>1042.0</ele>
        <time>2019-08-01T06:42:05.928Z</time>
      </trkpt>
      <trkpt lat="43.02942333" lon="-1.195375">
        <ele>1042.0</ele>
        <time>2019-08-01T06:42:06.936Z</time>
      </trkpt>
      <trkpt lat="43.02943667" lon="-1.19536167">
        <ele>1042.0</ele>
        <time>2019-08-01T06:42:07.941Z</time>
      </trkpt>
      <trkpt lat="43.02944667" lon="-1.19534833">
        <ele>1042.0</ele>
        <time>2019-08-01T06:42:08.947Z</time>
      </trkpt>
      <trkpt lat="43.02945333" lon="-1.195335">
        <ele>1041.0</ele>
        <time>2019-08-01T06:42:09.952Z</time>
      </trkpt>
      <trkpt lat="43.02946167" lon="-1.19532167">
        <ele>1041.0</ele>
        <time>2019-08-01T06:42:10.957Z</time>
      </trkpt>
      <trkpt lat="43.02947167" lon="-1.19530833">
        <ele>1041.0</ele>
        <time>2019-08-01T06:42:11.964Z</time>
      </trkpt>
      <trkpt lat="43.02948" lon="-1.19529667">
        <ele>1042.0</ele>
        <time>2019-08-01T06:42:12.970Z</time>
      </trkpt>
      <trkpt lat="43.02948333" lon="-1.195285">
        <ele>1041.0</ele>
        <time>2019-08-01T06:42:13.977Z</time>
      </trkpt>
      <trkpt lat="43.02949167" lon="-1.19527333">
        <ele>1041.0</ele>
        <time>2019-08-01T06:42:14.980Z</time>
      </trkpt>
      <trkpt lat="43.0295" lon="-1.19526167">
        <ele>1041.0</ele>
        <time>2019-08-01T06:42:15.985Z</time>
      </trkpt>
      <trkpt lat="43.02950833" lon="-1.19524667">
        <ele>1041.0</ele>
        <time>2019-08-01T06:42:16.991Z</time>
      </trkpt>
      <trkpt lat="43.02951667" lon="-1.19523167">
        <ele>1041.0</ele>
        <time>2019-08-01T06:42:17.997Z</time>
      </trkpt>
      <trkpt lat="43.029525" lon="-1.19521833">
        <ele>1042.0</ele>
        <time>2019-08-01T06:42:19.003Z</time>
      </trkpt>
      <trkpt lat="43.02953167" lon="-1.19520167">
        <ele>1042.0</ele>
        <time>2019-08-01T06:42:20.008Z</time>
      </trkpt>
      <trkpt lat="43.02954" lon="-1.19518333">
        <ele>1042.0</ele>
        <time>2019-08-01T06:42:21.014Z</time>
      </trkpt>
      <trkpt lat="43.02955" lon="-1.19516833">
        <ele>1042.0</ele>
        <time>2019-08-01T06:42:22.020Z</time>
      </trkpt>
      <trkpt lat="43.029555" lon="-1.19514833">
        <ele>1042.0</ele>
        <time>2019-08-01T06:42:23.025Z</time>
      </trkpt>
      <trkpt lat="43.02956" lon="-1.19513167">
        <ele>1042.0</ele>
        <time>2019-08-01T06:42:24.030Z</time>
      </trkpt>
      <trkpt lat="43.02956667" lon="-1.19511333">
        <ele>1042.0</ele>
        <time>2019-08-01T06:42:25.035Z</time>
      </trkpt>
      <trkpt lat="43.02957333" lon="-1.19509667">
        <ele>1042.0</ele>
        <time>2019-08-01T06:42:26.039Z</time>
      </trkpt>
      <trkpt lat="43.02957667" lon="-1.19507833">
        <ele>1042.0</ele>
        <time>2019-08-01T06:42:26.919Z</time>
      </trkpt>
      <trkpt lat="43.02958" lon="-1.19506167">
        <ele>1042.0</ele>
        <time>2019-08-01T06:42:27.923Z</time>
      </trkpt>
      <trkpt lat="43.02958667" lon="-1.19504333">
        <ele>1042.0</ele>
        <time>2019-08-01T06:42:28.931Z</time>
      </trkpt>
      <trkpt lat="43.02959333" lon="-1.19502333">
        <ele>1042.0</ele>
        <time>2019-08-01T06:42:29.937Z</time>
      </trkpt>
      <trkpt lat="43.02959833" lon="-1.19500667">
        <ele>1041.0</ele>
        <time>2019-08-01T06:42:30.943Z</time>
      </trkpt>
      <trkpt lat="43.02960667" lon="-1.19499">
        <ele>1041.0</ele>
        <time>2019-08-01T06:42:31.948Z</time>
      </trkpt>
      <trkpt lat="43.02961333" lon="-1.194975">
        <ele>1041.0</ele>
        <time>2019-08-01T06:42:32.955Z</time>
      </trkpt>
      <trkpt lat="43.02962" lon="-1.19495833">
        <ele>1041.0</ele>
        <time>2019-08-01T06:42:33.961Z</time>
      </trkpt>
      <trkpt lat="43.02962833" lon="-1.19494167">
        <ele>1041.0</ele>
        <time>2019-08-01T06:42:34.967Z</time>
      </trkpt>
      <trkpt lat="43.029635" lon="-1.194925">
        <ele>1041.0</ele>
        <time>2019-08-01T06:42:35.973Z</time>
      </trkpt>
      <trkpt lat="43.02964167" lon="-1.19490667">
        <ele>1041.0</ele>
        <time>2019-08-01T06:42:36.980Z</time>
      </trkpt>
      <trkpt lat="43.02964667" lon="-1.19489167">
        <ele>1041.0</ele>
        <time>2019-08-01T06:42:37.987Z</time>
      </trkpt>
      <trkpt lat="43.029655" lon="-1.194875">
        <ele>1041.0</ele>
        <time>2019-08-01T06:42:38.993Z</time>
      </trkpt>
      <trkpt lat="43.029665" lon="-1.19485667">
        <ele>1042.0</ele>
        <time>2019-08-01T06:42:39.997Z</time>
      </trkpt>
      <trkpt lat="43.02967333" lon="-1.19484333">
        <ele>1042.0</ele>
        <time>2019-08-01T06:42:41.003Z</time>
      </trkpt>
      <trkpt lat="43.02968333" lon="-1.19483">
        <ele>1042.0</ele>
        <time>2019-08-01T06:42:42.010Z</time>
      </trkpt>
      <trkpt lat="43.02969333" lon="-1.194815">
        <ele>1042.0</ele>
        <time>2019-08-01T06:42:43.015Z</time>
      </trkpt>
      <trkpt lat="43.0297" lon="-1.19479833">
        <ele>1042.0</ele>
        <time>2019-08-01T06:42:44.021Z</time>
      </trkpt>
      <trkpt lat="43.02970667" lon="-1.194785">
        <ele>1042.0</ele>
        <time>2019-08-01T06:42:45.026Z</time>
      </trkpt>
      <trkpt lat="43.029715" lon="-1.19477333">
        <ele>1042.0</ele>
        <time>2019-08-01T06:42:46.033Z</time>
      </trkpt>
      <trkpt lat="43.02972333" lon="-1.19476">
        <ele>1042.0</ele>
        <time>2019-08-01T06:42:47.038Z</time>
      </trkpt>
      <trkpt lat="43.02973667" lon="-1.19475">
        <ele>1042.0</ele>
        <time>2019-08-01T06:42:48.042Z</time>
      </trkpt>
      <trkpt lat="43.02975" lon="-1.19473667">
        <ele>1041.0</ele>
        <time>2019-08-01T06:42:48.923Z</time>
      </trkpt>
      <trkpt lat="43.02976167" lon="-1.19472667">
        <ele>1041.0</ele>
        <time>2019-08-01T06:42:49.930Z</time>
      </trkpt>
      <trkpt lat="43.02977333" lon="-1.19472">
        <ele>1041.0</ele>
        <time>2019-08-01T06:42:50.936Z</time>
      </trkpt>
      <trkpt lat="43.029785" lon="-1.19471333">
        <ele>1041.0</ele>
        <time>2019-08-01T06:42:51.943Z</time>
      </trkpt>
      <trkpt lat="43.02979833" lon="-1.19471167">
        <ele>1041.0</ele>
        <time>2019-08-01T06:42:52.948Z</time>
      </trkpt>
      <trkpt lat="43.02981333" lon="-1.19471">
        <ele>1041.0</ele>
        <time>2019-08-01T06:42:53.953Z</time>
      </trkpt>
      <trkpt lat="43.029825" lon="-1.19470667">
        <ele>1041.0</ele>
        <time>2019-08-01T06:42:54.957Z</time>
      </trkpt>
      <trkpt lat="43.02984" lon="-1.19470667">
        <ele>1041.0</ele>
        <time>2019-08-01T06:42:55.964Z</time>
      </trkpt>
      <trkpt lat="43.02985667" lon="-1.194705">
        <ele>1041.0</ele>
        <time>2019-08-01T06:42:56.970Z</time>
      </trkpt>
      <trkpt lat="43.02987" lon="-1.19470167">
        <ele>1041.0</ele>
        <time>2019-08-01T06:42:57.977Z</time>
      </trkpt>
      <trkpt lat="43.02988333" lon="-1.19469833">
        <ele>1041.0</ele>
        <time>2019-08-01T06:42:58.981Z</time>
      </trkpt>
      <trkpt lat="43.02989833" lon="-1.19469167">
        <ele>1041.0</ele>
        <time>2019-08-01T06:42:59.988Z</time>
      </trkpt>
      <trkpt lat="43.02991167" lon="-1.194685">
        <ele>1041.0</ele>
        <time>2019-08-01T06:43:00.995Z</time>
      </trkpt>
      <trkpt lat="43.02992833" lon="-1.19467667">
        <ele>1041.0</ele>
        <time>2019-08-01T06:43:01.998Z</time>
      </trkpt>
      <trkpt lat="43.02994167" lon="-1.19467167">
        <ele>1041.0</ele>
        <time>2019-08-01T06:43:03.005Z</time>
      </trkpt>
      <trkpt lat="43.029955" lon="-1.19466167">
        <ele>1041.0</ele>
        <time>2019-08-01T06:43:04.010Z</time>
      </trkpt>
      <trkpt lat="43.02997" lon="-1.19465667">
        <ele>1041.0</ele>
        <time>2019-08-01T06:43:05.016Z</time>
      </trkpt>
      <trkpt lat="43.02998667" lon="-1.19464833">
        <ele>1041.0</ele>
        <time>2019-08-01T06:43:06.020Z</time>
      </trkpt>
      <trkpt lat="43.03000333" lon="-1.19464167">
        <ele>1041.0</ele>
        <time>2019-08-01T06:43:07.025Z</time>
      </trkpt>
      <trkpt lat="43.03001667" lon="-1.194635">
        <ele>1040.0</ele>
        <time>2019-08-01T06:43:08.030Z</time>
      </trkpt>
      <trkpt lat="43.03003" lon="-1.19463167">
        <ele>1040.0</ele>
        <time>2019-08-01T06:43:09.035Z</time>
      </trkpt>
      <trkpt lat="43.03004167" lon="-1.19462667">
        <ele>1040.0</ele>
        <time>2019-08-01T06:43:10.041Z</time>
      </trkpt>
      <trkpt lat="43.03005833" lon="-1.19462">
        <ele>1040.0</ele>
        <time>2019-08-01T06:43:10.924Z</time>
      </trkpt>
      <trkpt lat="43.03007167" lon="-1.19461667">
        <ele>1040.0</ele>
        <time>2019-08-01T06:43:11.928Z</time>
      </trkpt>
      <trkpt lat="43.03008333" lon="-1.194615">
        <ele>1040.0</ele>
        <time>2019-08-01T06:43:12.931Z</time>
      </trkpt>
      <trkpt lat="43.030095" lon="-1.19461">
        <ele>1041.0</ele>
        <time>2019-08-01T06:43:13.938Z</time>
      </trkpt>
      <trkpt lat="43.03011" lon="-1.19460667">
        <ele>1041.0</ele>
        <time>2019-08-01T06:43:14.943Z</time>
      </trkpt>
      <trkpt lat="43.030125" lon="-1.194605">
        <ele>1041.0</ele>
        <time>2019-08-01T06:43:15.947Z</time>
      </trkpt>
      <trkpt lat="43.03013833" lon="-1.19460333">
        <ele>1041.0</ele>
        <time>2019-08-01T06:43:16.953Z</time>
      </trkpt>
      <trkpt lat="43.03015167" lon="-1.19460333">
        <ele>1041.0</ele>
        <time>2019-08-01T06:43:17.955Z</time>
      </trkpt>
      <trkpt lat="43.03016667" lon="-1.194605">
        <ele>1041.0</ele>
        <time>2019-08-01T06:43:18.959Z</time>
      </trkpt>
      <trkpt lat="43.03018167" lon="-1.19460833">
        <ele>1042.0</ele>
        <time>2019-08-01T06:43:19.965Z</time>
      </trkpt>
      <trkpt lat="43.030195" lon="-1.19461167">
        <ele>1042.0</ele>
        <time>2019-08-01T06:43:20.970Z</time>
      </trkpt>
      <trkpt lat="43.03021167" lon="-1.194615">
        <ele>1042.0</ele>
        <time>2019-08-01T06:43:21.977Z</time>
      </trkpt>
      <trkpt lat="43.03022667" lon="-1.19461833">
        <ele>1042.0</ele>
        <time>2019-08-01T06:43:22.985Z</time>
      </trkpt>
      <trkpt lat="43.03024167" lon="-1.19462">
        <ele>1041.0</ele>
        <time>2019-08-01T06:43:23.989Z</time>
      </trkpt>
      <trkpt lat="43.03025667" lon="-1.19462">
        <ele>1041.0</ele>
        <time>2019-08-01T06:43:24.993Z</time>
      </trkpt>
      <trkpt lat="43.03027167" lon="-1.19462">
        <ele>1041.0</ele>
        <time>2019-08-01T06:43:25.998Z</time>
      </trkpt>
      <trkpt lat="43.03028667" lon="-1.19462333">
        <ele>1041.0</ele>
        <time>2019-08-01T06:43:27.002Z</time>
      </trkpt>
      <trkpt lat="43.03030167" lon="-1.19462333">
        <ele>1041.0</ele>
        <time>2019-08-01T06:43:28.008Z</time>
      </trkpt>
      <trkpt lat="43.03031667" lon="-1.194625">
        <ele>1041.0</ele>
        <time>2019-08-01T06:43:29.015Z</time>
      </trkpt>
      <trkpt lat="43.03033167" lon="-1.19463">
        <ele>1042.0</ele>
        <time>2019-08-01T06:43:30.018Z</time>
      </trkpt>
      <trkpt lat="43.03034833" lon="-1.19463333">
        <ele>1042.0</ele>
        <time>2019-08-01T06:43:31.023Z</time>
      </trkpt>
      <trkpt lat="43.03036167" lon="-1.19463667">
        <ele>1042.0</ele>
        <time>2019-08-01T06:43:32.028Z</time>
      </trkpt>
      <trkpt lat="43.03037667" lon="-1.19463667">
        <ele>1042.0</ele>
        <time>2019-08-01T06:43:33.035Z</time>
      </trkpt>
      <trkpt lat="43.03039167" lon="-1.19463833">
        <ele>1042.0</ele>
        <time>2019-08-01T06:43:34.041Z</time>
      </trkpt>
      <trkpt lat="43.03040667" lon="-1.19463833">
        <ele>1042.0</ele>
        <time>2019-08-01T06:43:34.921Z</time>
      </trkpt>
      <trkpt lat="43.03042167" lon="-1.194635">
        <ele>1042.0</ele>
        <time>2019-08-01T06:43:35.927Z</time>
      </trkpt>
      <trkpt lat="43.03043667" lon="-1.194635">
        <ele>1042.0</ele>
        <time>2019-08-01T06:43:36.932Z</time>
      </trkpt>
      <trkpt lat="43.03045" lon="-1.19463333">
        <ele>1042.0</ele>
        <time>2019-08-01T06:43:37.939Z</time>
      </trkpt>
      <trkpt lat="43.030465" lon="-1.19463333">
        <ele>1042.0</ele>
        <time>2019-08-01T06:43:38.944Z</time>
      </trkpt>
      <trkpt lat="43.03048" lon="-1.19463167">
        <ele>1042.0</ele>
        <time>2019-08-01T06:43:39.950Z</time>
      </trkpt>
      <trkpt lat="43.030495" lon="-1.19463167">
        <ele>1042.0</ele>
        <time>2019-08-01T06:43:40.955Z</time>
      </trkpt>
      <trkpt lat="43.03050833" lon="-1.19463333">
        <ele>1042.0</ele>
        <time>2019-08-01T06:43:41.959Z</time>
      </trkpt>
      <trkpt lat="43.03052333" lon="-1.19463667">
        <ele>1042.0</ele>
        <time>2019-08-01T06:43:42.964Z</time>
      </trkpt>
      <trkpt lat="43.03053833" lon="-1.19463667">
        <ele>1042.0</ele>
        <time>2019-08-01T06:43:43.969Z</time>
      </trkpt>
      <trkpt lat="43.03055333" lon="-1.19464">
        <ele>1042.0</ele>
        <time>2019-08-01T06:43:44.976Z</time>
      </trkpt>
      <trkpt lat="43.03057" lon="-1.19464">
        <ele>1042.0</ele>
        <time>2019-08-01T06:43:45.983Z</time>
      </trkpt>
      <trkpt lat="43.030585" lon="-1.19464167">
        <ele>1041.0</ele>
        <time>2019-08-01T06:43:46.987Z</time>
      </trkpt>
      <trkpt lat="43.03059833" lon="-1.194645">
        <ele>1041.0</ele>
        <time>2019-08-01T06:43:47.990Z</time>
      </trkpt>
      <trkpt lat="43.03061333" lon="-1.19464667">
        <ele>1041.0</ele>
        <time>2019-08-01T06:43:48.996Z</time>
      </trkpt>
      <trkpt lat="43.03062667" lon="-1.19465">
        <ele>1041.0</ele>
        <time>2019-08-01T06:43:50.002Z</time>
      </trkpt>
      <trkpt lat="43.03064167" lon="-1.194655">
        <ele>1041.0</ele>
        <time>2019-08-01T06:43:51.008Z</time>
      </trkpt>
      <trkpt lat="43.03065667" lon="-1.19466167">
        <ele>1040.0</ele>
        <time>2019-08-01T06:43:52.013Z</time>
      </trkpt>
      <trkpt lat="43.03067167" lon="-1.19466667">
        <ele>1040.0</ele>
        <time>2019-08-01T06:43:53.018Z</time>
      </trkpt>
      <trkpt lat="43.030685" lon="-1.19467">
        <ele>1040.0</ele>
        <time>2019-08-01T06:43:54.025Z</time>
      </trkpt>
      <trkpt lat="43.03069833" lon="-1.19467667">
        <ele>1040.0</ele>
        <time>2019-08-01T06:43:55.031Z</time>
      </trkpt>
      <trkpt lat="43.03071333" lon="-1.194685">
        <ele>1040.0</ele>
        <time>2019-08-01T06:43:56.037Z</time>
      </trkpt>
      <trkpt lat="43.030725" lon="-1.19469333">
        <ele>1040.0</ele>
        <time>2019-08-01T06:43:57.039Z</time>
      </trkpt>
      <trkpt lat="43.03073833" lon="-1.19470333">
        <ele>1040.0</ele>
        <time>2019-08-01T06:43:57.920Z</time>
      </trkpt>
      <trkpt lat="43.03075167" lon="-1.19471333">
        <ele>1040.0</ele>
        <time>2019-08-01T06:43:58.925Z</time>
      </trkpt>
      <trkpt lat="43.030765" lon="-1.19472">
        <ele>1040.0</ele>
        <time>2019-08-01T06:43:59.931Z</time>
      </trkpt>
      <trkpt lat="43.03077667" lon="-1.19472833">
        <ele>1040.0</ele>
        <time>2019-08-01T06:44:00.936Z</time>
      </trkpt>
      <trkpt lat="43.03078667" lon="-1.19473833">
        <ele>1040.0</ele>
        <time>2019-08-01T06:44:01.938Z</time>
      </trkpt>
      <trkpt lat="43.03079667" lon="-1.19474833">
        <ele>1040.0</ele>
        <time>2019-08-01T06:44:02.943Z</time>
      </trkpt>
      <trkpt lat="43.03081167" lon="-1.19476">
        <ele>1040.0</ele>
        <time>2019-08-01T06:44:03.951Z</time>
      </trkpt>
      <trkpt lat="43.03082667" lon="-1.19477167">
        <ele>1040.0</ele>
        <time>2019-08-01T06:44:04.956Z</time>
      </trkpt>
      <trkpt lat="43.03083833" lon="-1.19478333">
        <ele>1040.0</ele>
        <time>2019-08-01T06:44:05.960Z</time>
      </trkpt>
      <trkpt lat="43.03085333" lon="-1.19479333">
        <ele>1040.0</ele>
        <time>2019-08-01T06:44:06.966Z</time>
      </trkpt>
      <trkpt lat="43.03086333" lon="-1.194805">
        <ele>1040.0</ele>
        <time>2019-08-01T06:44:07.972Z</time>
      </trkpt>
      <trkpt lat="43.03087333" lon="-1.19481833">
        <ele>1040.0</ele>
        <time>2019-08-01T06:44:08.977Z</time>
      </trkpt>
      <trkpt lat="43.030885" lon="-1.194835">
        <ele>1041.0</ele>
        <time>2019-08-01T06:44:09.983Z</time>
      </trkpt>
      <trkpt lat="43.030895" lon="-1.19485">
        <ele>1041.0</ele>
        <time>2019-08-01T06:44:10.989Z</time>
      </trkpt>
      <trkpt lat="43.030905" lon="-1.194865">
        <ele>1041.0</ele>
        <time>2019-08-01T06:44:11.995Z</time>
      </trkpt>
      <trkpt lat="43.030915" lon="-1.19488167">
        <ele>1041.0</ele>
        <time>2019-08-01T06:44:13.000Z</time>
      </trkpt>
      <trkpt lat="43.030925" lon="-1.19489667">
        <ele>1041.0</ele>
        <time>2019-08-01T06:44:14.007Z</time>
      </trkpt>
      <trkpt lat="43.030935" lon="-1.19491">
        <ele>1041.0</ele>
        <time>2019-08-01T06:44:15.011Z</time>
      </trkpt>
      <trkpt lat="43.030945" lon="-1.19492333">
        <ele>1041.0</ele>
        <time>2019-08-01T06:44:16.017Z</time>
      </trkpt>
      <trkpt lat="43.030955" lon="-1.19493833">
        <ele>1040.0</ele>
        <time>2019-08-01T06:44:17.023Z</time>
      </trkpt>
      <trkpt lat="43.03096333" lon="-1.19495167">
        <ele>1040.0</ele>
        <time>2019-08-01T06:44:18.028Z</time>
      </trkpt>
      <trkpt lat="43.03097167" lon="-1.194965">
        <ele>1040.0</ele>
        <time>2019-08-01T06:44:19.034Z</time>
      </trkpt>
      <trkpt lat="43.03098" lon="-1.19497833">
        <ele>1040.0</ele>
        <time>2019-08-01T06:44:20.039Z</time>
      </trkpt>
      <trkpt lat="43.03099" lon="-1.19499167">
        <ele>1040.0</ele>
        <time>2019-08-01T06:44:20.918Z</time>
      </trkpt>
      <trkpt lat="43.031" lon="-1.19500667">
        <ele>1040.0</ele>
        <time>2019-08-01T06:44:21.924Z</time>
      </trkpt>
      <trkpt lat="43.03101" lon="-1.19502167">
        <ele>1040.0</ele>
        <time>2019-08-01T06:44:22.927Z</time>
      </trkpt>
      <trkpt lat="43.03101833" lon="-1.19503667">
        <ele>1040.0</ele>
        <time>2019-08-01T06:44:23.935Z</time>
      </trkpt>
      <trkpt lat="43.03102833" lon="-1.19505333">
        <ele>1040.0</ele>
        <time>2019-08-01T06:44:24.941Z</time>
      </trkpt>
      <trkpt lat="43.03103833" lon="-1.19506667">
        <ele>1040.0</ele>
        <time>2019-08-01T06:44:25.948Z</time>
      </trkpt>
      <trkpt lat="43.03104833" lon="-1.19508333">
        <ele>1040.0</ele>
        <time>2019-08-01T06:44:26.953Z</time>
      </trkpt>
      <trkpt lat="43.03105667" lon="-1.19509833">
        <ele>1040.0</ele>
        <time>2019-08-01T06:44:27.956Z</time>
      </trkpt>
      <trkpt lat="43.03106667" lon="-1.19511167">
        <ele>1040.0</ele>
        <time>2019-08-01T06:44:28.963Z</time>
      </trkpt>
      <trkpt lat="43.031075" lon="-1.195125">
        <ele>1040.0</ele>
        <time>2019-08-01T06:44:29.969Z</time>
      </trkpt>
      <trkpt lat="43.03108667" lon="-1.19514167">
        <ele>1040.0</ele>
        <time>2019-08-01T06:44:30.975Z</time>
      </trkpt>
      <trkpt lat="43.03109833" lon="-1.19515667">
        <ele>1041.0</ele>
        <time>2019-08-01T06:44:31.982Z</time>
      </trkpt>
      <trkpt lat="43.03110667" lon="-1.19517333">
        <ele>1041.0</ele>
        <time>2019-08-01T06:44:32.989Z</time>
      </trkpt>
      <trkpt lat="43.03111667" lon="-1.19518667">
        <ele>1042.0</ele>
        <time>2019-08-01T06:44:33.995Z</time>
      </trkpt>
      <trkpt lat="43.031125" lon="-1.1952">
        <ele>1042.0</ele>
        <time>2019-08-01T06:44:35.000Z</time>
      </trkpt>
      <trkpt lat="43.03113333" lon="-1.19521167">
        <ele>1042.0</ele>
        <time>2019-08-01T06:44:36.006Z</time>
      </trkpt>
      <trkpt lat="43.03114667" lon="-1.195225">
        <ele>1042.0</ele>
        <time>2019-08-01T06:44:37.011Z</time>
      </trkpt>
      <trkpt lat="43.03115833" lon="-1.19524">
        <ele>1042.0</ele>
        <time>2019-08-01T06:44:38.017Z</time>
      </trkpt>
      <trkpt lat="43.03117" lon="-1.19525167">
        <ele>1041.0</ele>
        <time>2019-08-01T06:44:39.024Z</time>
      </trkpt>
      <trkpt lat="43.03118167" lon="-1.19526833">
        <ele>1041.0</ele>
        <time>2019-08-01T06:44:40.028Z</time>
      </trkpt>
      <trkpt lat="43.03118833" lon="-1.19528167">
        <ele>1041.0</ele>
        <time>2019-08-01T06:44:41.033Z</time>
      </trkpt>
      <trkpt lat="43.0312" lon="-1.19529833">
        <ele>1040.0</ele>
        <time>2019-08-01T06:44:42.038Z</time>
      </trkpt>
      <trkpt lat="43.03120833" lon="-1.19531667">
        <ele>1040.0</ele>
        <time>2019-08-01T06:44:43.041Z</time>
      </trkpt>
      <trkpt lat="43.03121833" lon="-1.19533333">
        <ele>1041.0</ele>
        <time>2019-08-01T06:44:43.922Z</time>
      </trkpt>
      <trkpt lat="43.03123" lon="-1.19534667">
        <ele>1041.0</ele>
        <time>2019-08-01T06:44:44.928Z</time>
      </trkpt>
      <trkpt lat="43.03123833" lon="-1.19536167">
        <ele>1041.0</ele>
        <time>2019-08-01T06:44:45.935Z</time>
      </trkpt>
      <trkpt lat="43.031245" lon="-1.19537667">
        <ele>1041.0</ele>
        <time>2019-08-01T06:44:46.943Z</time>
      </trkpt>
      <trkpt lat="43.031255" lon="-1.19539167">
        <ele>1041.0</ele>
        <time>2019-08-01T06:44:47.948Z</time>
      </trkpt>
      <trkpt lat="43.03126333" lon="-1.19540333">
        <ele>1041.0</ele>
        <time>2019-08-01T06:44:48.955Z</time>
      </trkpt>
      <trkpt lat="43.03127333" lon="-1.19541833">
        <ele>1041.0</ele>
        <time>2019-08-01T06:44:49.963Z</time>
      </trkpt>
      <trkpt lat="43.031285" lon="-1.19543333">
        <ele>1042.0</ele>
        <time>2019-08-01T06:44:50.970Z</time>
      </trkpt>
      <trkpt lat="43.03129667" lon="-1.19544667">
        <ele>1041.0</ele>
        <time>2019-08-01T06:44:51.974Z</time>
      </trkpt>
      <trkpt lat="43.031305" lon="-1.19546167">
        <ele>1042.0</ele>
        <time>2019-08-01T06:44:52.980Z</time>
      </trkpt>
      <trkpt lat="43.031315" lon="-1.19547333">
        <ele>1041.0</ele>
        <time>2019-08-01T06:44:53.986Z</time>
      </trkpt>
      <trkpt lat="43.031325" lon="-1.19548667">
        <ele>1042.0</ele>
        <time>2019-08-01T06:44:54.993Z</time>
      </trkpt>
      <trkpt lat="43.03133333" lon="-1.1955">
        <ele>1042.0</ele>
        <time>2019-08-01T06:44:55.997Z</time>
      </trkpt>
      <trkpt lat="43.03134667" lon="-1.195515">
        <ele>1042.0</ele>
        <time>2019-08-01T06:44:57.004Z</time>
      </trkpt>
      <trkpt lat="43.03135833" lon="-1.19552667">
        <ele>1042.0</ele>
        <time>2019-08-01T06:44:58.007Z</time>
      </trkpt>
      <trkpt lat="43.03137167" lon="-1.19554">
        <ele>1042.0</ele>
        <time>2019-08-01T06:44:59.014Z</time>
      </trkpt>
      <trkpt lat="43.03138333" lon="-1.19555167">
        <ele>1042.0</ele>
        <time>2019-08-01T06:45:00.019Z</time>
      </trkpt>
      <trkpt lat="43.031395" lon="-1.19556167">
        <ele>1042.0</ele>
        <time>2019-08-01T06:45:01.025Z</time>
      </trkpt>
      <trkpt lat="43.03140833" lon="-1.19557667">
        <ele>1042.0</ele>
        <time>2019-08-01T06:45:02.029Z</time>
      </trkpt>
      <trkpt lat="43.03142" lon="-1.19558833">
        <ele>1043.0</ele>
        <time>2019-08-01T06:45:03.034Z</time>
      </trkpt>
      <trkpt lat="43.03143167" lon="-1.1956">
        <ele>1043.0</ele>
        <time>2019-08-01T06:45:04.038Z</time>
      </trkpt>
      <trkpt lat="43.03144167" lon="-1.19561">
        <ele>1043.0</ele>
        <time>2019-08-01T06:45:04.918Z</time>
      </trkpt>
      <trkpt lat="43.03145333" lon="-1.19561833">
        <ele>1042.0</ele>
        <time>2019-08-01T06:45:05.925Z</time>
      </trkpt>
      <trkpt lat="43.03147" lon="-1.19563">
        <ele>1042.0</ele>
        <time>2019-08-01T06:45:06.932Z</time>
      </trkpt>
      <trkpt lat="43.03148667" lon="-1.19564">
        <ele>1042.0</ele>
        <time>2019-08-01T06:45:07.936Z</time>
      </trkpt>
      <trkpt lat="43.03150167" lon="-1.19564833">
        <ele>1042.0</ele>
        <time>2019-08-01T06:45:08.942Z</time>
      </trkpt>
      <trkpt lat="43.031515" lon="-1.19565833">
        <ele>1041.0</ele>
        <time>2019-08-01T06:45:09.948Z</time>
      </trkpt>
      <trkpt lat="43.03153" lon="-1.19566833">
        <ele>1041.0</ele>
        <time>2019-08-01T06:45:10.953Z</time>
      </trkpt>
      <trkpt lat="43.03154167" lon="-1.195675">
        <ele>1041.0</ele>
        <time>2019-08-01T06:45:11.960Z</time>
      </trkpt>
      <trkpt lat="43.03155333" lon="-1.19568167">
        <ele>1041.0</ele>
        <time>2019-08-01T06:45:12.967Z</time>
      </trkpt>
      <trkpt lat="43.03156833" lon="-1.19568833">
        <ele>1041.0</ele>
        <time>2019-08-01T06:45:13.973Z</time>
      </trkpt>
      <trkpt lat="43.03158167" lon="-1.195695">
        <ele>1041.0</ele>
        <time>2019-08-01T06:45:14.980Z</time>
      </trkpt>
      <trkpt lat="43.03159333" lon="-1.195705">
        <ele>1041.0</ele>
        <time>2019-08-01T06:45:15.987Z</time>
      </trkpt>
      <trkpt lat="43.031605" lon="-1.195715">
        <ele>1041.0</ele>
        <time>2019-08-01T06:45:16.993Z</time>
      </trkpt>
      <trkpt lat="43.031615" lon="-1.19572167">
        <ele>1041.0</ele>
        <time>2019-08-01T06:45:17.999Z</time>
      </trkpt>
      <trkpt lat="43.03162833" lon="-1.19573167">
        <ele>1041.0</ele>
        <time>2019-08-01T06:45:19.004Z</time>
      </trkpt>
      <trkpt lat="43.03164333" lon="-1.19574">
        <ele>1040.0</ele>
        <time>2019-08-01T06:45:20.011Z</time>
      </trkpt>
      <trkpt lat="43.03165667" lon="-1.19575">
        <ele>1040.0</ele>
        <time>2019-08-01T06:45:21.016Z</time>
      </trkpt>
      <trkpt lat="43.03167" lon="-1.19576167">
        <ele>1040.0</ele>
        <time>2019-08-01T06:45:22.022Z</time>
      </trkpt>
      <trkpt lat="43.03168333" lon="-1.19577167">
        <ele>1040.0</ele>
        <time>2019-08-01T06:45:23.029Z</time>
      </trkpt>
      <trkpt lat="43.03169667" lon="-1.19578167">
        <ele>1040.0</ele>
        <time>2019-08-01T06:45:24.034Z</time>
      </trkpt>
      <trkpt lat="43.03170833" lon="-1.19579">
        <ele>1040.0</ele>
        <time>2019-08-01T06:45:25.038Z</time>
      </trkpt>
      <trkpt lat="43.03172167" lon="-1.19580167">
        <ele>1040.0</ele>
        <time>2019-08-01T06:45:25.919Z</time>
      </trkpt>
      <trkpt lat="43.03173333" lon="-1.19581">
        <ele>1039.0</ele>
        <time>2019-08-01T06:45:26.924Z</time>
      </trkpt>
      <trkpt lat="43.03174667" lon="-1.19581833">
        <ele>1039.0</ele>
        <time>2019-08-01T06:45:27.929Z</time>
      </trkpt>
      <trkpt lat="43.03176" lon="-1.19582833">
        <ele>1039.0</ele>
        <time>2019-08-01T06:45:28.936Z</time>
      </trkpt>
      <trkpt lat="43.03177" lon="-1.19584">
        <ele>1039.0</ele>
        <time>2019-08-01T06:45:29.941Z</time>
      </trkpt>
      <trkpt lat="43.03178167" lon="-1.19585">
        <ele>1039.0</ele>
        <time>2019-08-01T06:45:30.948Z</time>
      </trkpt>
      <trkpt lat="43.03179667" lon="-1.19586167">
        <ele>1039.0</ele>
        <time>2019-08-01T06:45:31.954Z</time>
      </trkpt>
      <trkpt lat="43.03181" lon="-1.19587333">
        <ele>1039.0</ele>
        <time>2019-08-01T06:45:32.956Z</time>
      </trkpt>
      <trkpt lat="43.031825" lon="-1.195885">
        <ele>1039.0</ele>
        <time>2019-08-01T06:45:33.962Z</time>
      </trkpt>
      <trkpt lat="43.03183667" lon="-1.195895">
        <ele>1039.0</ele>
        <time>2019-08-01T06:45:34.968Z</time>
      </trkpt>
      <trkpt lat="43.03184833" lon="-1.195905">
        <ele>1040.0</ele>
        <time>2019-08-01T06:45:35.973Z</time>
      </trkpt>
      <trkpt lat="43.03186" lon="-1.19591167">
        <ele>1040.0</ele>
        <time>2019-08-01T06:45:36.980Z</time>
      </trkpt>
      <trkpt lat="43.03187333" lon="-1.19592167">
        <ele>1039.0</ele>
        <time>2019-08-01T06:45:37.985Z</time>
      </trkpt>
      <trkpt lat="43.03188833" lon="-1.19592833">
        <ele>1039.0</ele>
        <time>2019-08-01T06:45:38.993Z</time>
      </trkpt>
      <trkpt lat="43.0319" lon="-1.195935">
        <ele>1039.0</ele>
        <time>2019-08-01T06:45:39.998Z</time>
      </trkpt>
      <trkpt lat="43.03191333" lon="-1.19594167">
        <ele>1039.0</ele>
        <time>2019-08-01T06:45:41.006Z</time>
      </trkpt>
      <trkpt lat="43.03192667" lon="-1.19594833">
        <ele>1039.0</ele>
        <time>2019-08-01T06:45:42.012Z</time>
      </trkpt>
      <trkpt lat="43.03193833" lon="-1.19595667">
        <ele>1039.0</ele>
        <time>2019-08-01T06:45:43.017Z</time>
      </trkpt>
      <trkpt lat="43.03195" lon="-1.19596333">
        <ele>1039.0</ele>
        <time>2019-08-01T06:45:44.023Z</time>
      </trkpt>
      <trkpt lat="43.03196333" lon="-1.19597">
        <ele>1039.0</ele>
        <time>2019-08-01T06:45:45.027Z</time>
      </trkpt>
      <trkpt lat="43.03197833" lon="-1.19597333">
        <ele>1038.0</ele>
        <time>2019-08-01T06:45:46.032Z</time>
      </trkpt>
      <trkpt lat="43.03199167" lon="-1.19598167">
        <ele>1038.0</ele>
        <time>2019-08-01T06:45:47.038Z</time>
      </trkpt>
      <trkpt lat="43.032005" lon="-1.19599167">
        <ele>1038.0</ele>
        <time>2019-08-01T06:45:47.918Z</time>
      </trkpt>
      <trkpt lat="43.03201833" lon="-1.19600333">
        <ele>1039.0</ele>
        <time>2019-08-01T06:45:48.923Z</time>
      </trkpt>
      <trkpt lat="43.03203167" lon="-1.196015">
        <ele>1039.0</ele>
        <time>2019-08-01T06:45:49.929Z</time>
      </trkpt>
      <trkpt lat="43.032045" lon="-1.196025">
        <ele>1039.0</ele>
        <time>2019-08-01T06:45:50.936Z</time>
      </trkpt>
      <trkpt lat="43.03205667" lon="-1.19603667">
        <ele>1039.0</ele>
        <time>2019-08-01T06:45:51.940Z</time>
      </trkpt>
      <trkpt lat="43.03207" lon="-1.196045">
        <ele>1039.0</ele>
        <time>2019-08-01T06:45:52.947Z</time>
      </trkpt>
      <trkpt lat="43.032085" lon="-1.19605667">
        <ele>1039.0</ele>
        <time>2019-08-01T06:45:53.954Z</time>
      </trkpt>
      <trkpt lat="43.03209833" lon="-1.196065">
        <ele>1039.0</ele>
        <time>2019-08-01T06:45:54.959Z</time>
      </trkpt>
      <trkpt lat="43.03211167" lon="-1.196075">
        <ele>1039.0</ele>
        <time>2019-08-01T06:45:55.963Z</time>
      </trkpt>
      <trkpt lat="43.032125" lon="-1.19608167">
        <ele>1039.0</ele>
        <time>2019-08-01T06:45:56.968Z</time>
      </trkpt>
      <trkpt lat="43.03213833" lon="-1.19609">
        <ele>1039.0</ele>
        <time>2019-08-01T06:45:57.974Z</time>
      </trkpt>
      <trkpt lat="43.03215333" lon="-1.19610167">
        <ele>1039.0</ele>
        <time>2019-08-01T06:45:58.980Z</time>
      </trkpt>
      <trkpt lat="43.03216833" lon="-1.19611333">
        <ele>1039.0</ele>
        <time>2019-08-01T06:45:59.987Z</time>
      </trkpt>
      <trkpt lat="43.03218" lon="-1.19612333">
        <ele>1039.0</ele>
        <time>2019-08-01T06:46:00.992Z</time>
      </trkpt>
      <trkpt lat="43.03219333" lon="-1.19613167">
        <ele>1039.0</ele>
        <time>2019-08-01T06:46:01.997Z</time>
      </trkpt>
      <trkpt lat="43.03220667" lon="-1.19614167">
        <ele>1039.0</ele>
        <time>2019-08-01T06:46:03.003Z</time>
      </trkpt>
      <trkpt lat="43.03222167" lon="-1.19615">
        <ele>1039.0</ele>
        <time>2019-08-01T06:46:04.009Z</time>
      </trkpt>
      <trkpt lat="43.032235" lon="-1.19616">
        <ele>1039.0</ele>
        <time>2019-08-01T06:46:05.015Z</time>
      </trkpt>
      <trkpt lat="43.03224833" lon="-1.19617">
        <ele>1038.0</ele>
        <time>2019-08-01T06:46:06.021Z</time>
      </trkpt>
      <trkpt lat="43.03226333" lon="-1.19617833">
        <ele>1038.0</ele>
        <time>2019-08-01T06:46:07.025Z</time>
      </trkpt>
      <trkpt lat="43.032275" lon="-1.196185">
        <ele>1038.0</ele>
        <time>2019-08-01T06:46:08.028Z</time>
      </trkpt>
      <trkpt lat="43.03229" lon="-1.19619333">
        <ele>1037.0</ele>
        <time>2019-08-01T06:46:09.031Z</time>
      </trkpt>
      <trkpt lat="43.03230333" lon="-1.1962">
        <ele>1037.0</ele>
        <time>2019-08-01T06:46:10.036Z</time>
      </trkpt>
      <trkpt lat="43.03231833" lon="-1.19620667">
        <ele>1037.0</ele>
        <time>2019-08-01T06:46:11.040Z</time>
      </trkpt>
      <trkpt lat="43.03233167" lon="-1.19621">
        <ele>1037.0</ele>
        <time>2019-08-01T06:46:11.921Z</time>
      </trkpt>
      <trkpt lat="43.032345" lon="-1.19621333">
        <ele>1036.0</ele>
        <time>2019-08-01T06:46:12.928Z</time>
      </trkpt>
      <trkpt lat="43.03235833" lon="-1.19621667">
        <ele>1036.0</ele>
        <time>2019-08-01T06:46:13.935Z</time>
      </trkpt>
      <trkpt lat="43.03237333" lon="-1.19622167">
        <ele>1036.0</ele>
        <time>2019-08-01T06:46:14.939Z</time>
      </trkpt>
      <trkpt lat="43.03238833" lon="-1.196225">
        <ele>1037.0</ele>
        <time>2019-08-01T06:46:15.943Z</time>
      </trkpt>
      <trkpt lat="43.03240167" lon="-1.19622833">
        <ele>1037.0</ele>
        <time>2019-08-01T06:46:16.951Z</time>
      </trkpt>
      <trkpt lat="43.03241667" lon="-1.19622833">
        <ele>1037.0</ele>
        <time>2019-08-01T06:46:17.955Z</time>
      </trkpt>
      <trkpt lat="43.03243167" lon="-1.19622833">
        <ele>1037.0</ele>
        <time>2019-08-01T06:46:18.961Z</time>
      </trkpt>
      <trkpt lat="43.032445" lon="-1.19623167">
        <ele>1037.0</ele>
        <time>2019-08-01T06:46:19.967Z</time>
      </trkpt>
      <trkpt lat="43.03245667" lon="-1.19623167">
        <ele>1037.0</ele>
        <time>2019-08-01T06:46:20.972Z</time>
      </trkpt>
      <trkpt lat="43.03247" lon="-1.19623167">
        <ele>1037.0</ele>
        <time>2019-08-01T06:46:21.979Z</time>
      </trkpt>
      <trkpt lat="43.032485" lon="-1.19623167">
        <ele>1036.0</ele>
        <time>2019-08-01T06:46:22.986Z</time>
      </trkpt>
      <trkpt lat="43.03249667" lon="-1.19623">
        <ele>1036.0</ele>
        <time>2019-08-01T06:46:23.993Z</time>
      </trkpt>
      <trkpt lat="43.03251167" lon="-1.19622833">
        <ele>1036.0</ele>
        <time>2019-08-01T06:46:24.999Z</time>
      </trkpt>
      <trkpt lat="43.03252833" lon="-1.19622833">
        <ele>1036.0</ele>
        <time>2019-08-01T06:46:26.005Z</time>
      </trkpt>
      <trkpt lat="43.03254167" lon="-1.19622833">
        <ele>1036.0</ele>
        <time>2019-08-01T06:46:27.008Z</time>
      </trkpt>
      <trkpt lat="43.032555" lon="-1.19622667">
        <ele>1036.0</ele>
        <time>2019-08-01T06:46:28.010Z</time>
      </trkpt>
      <trkpt lat="43.03257167" lon="-1.19622833">
        <ele>1036.0</ele>
        <time>2019-08-01T06:46:29.016Z</time>
      </trkpt>
      <trkpt lat="43.03258667" lon="-1.19623">
        <ele>1036.0</ele>
        <time>2019-08-01T06:46:30.023Z</time>
      </trkpt>
      <trkpt lat="43.03260167" lon="-1.19623667">
        <ele>1036.0</ele>
        <time>2019-08-01T06:46:31.029Z</time>
      </trkpt>
      <trkpt lat="43.03261833" lon="-1.19624167">
        <ele>1036.0</ele>
        <time>2019-08-01T06:46:32.036Z</time>
      </trkpt>
      <trkpt lat="43.03263167" lon="-1.19624167">
        <ele>1036.0</ele>
        <time>2019-08-01T06:46:33.042Z</time>
      </trkpt>
      <trkpt lat="43.03264667" lon="-1.19624333">
        <ele>1036.0</ele>
        <time>2019-08-01T06:46:33.920Z</time>
      </trkpt>
      <trkpt lat="43.03266167" lon="-1.19624833">
        <ele>1036.0</ele>
        <time>2019-08-01T06:46:34.926Z</time>
      </trkpt>
      <trkpt lat="43.03267667" lon="-1.19625333">
        <ele>1036.0</ele>
        <time>2019-08-01T06:46:35.930Z</time>
      </trkpt>
      <trkpt lat="43.03269167" lon="-1.19625667">
        <ele>1036.0</ele>
        <time>2019-08-01T06:46:36.933Z</time>
      </trkpt>
      <trkpt lat="43.03271" lon="-1.19626333">
        <ele>1036.0</ele>
        <time>2019-08-01T06:46:37.940Z</time>
      </trkpt>
      <trkpt lat="43.03272667" lon="-1.19627167">
        <ele>1036.0</ele>
        <time>2019-08-01T06:46:38.945Z</time>
      </trkpt>
      <trkpt lat="43.03274" lon="-1.19627667">
        <ele>1036.0</ele>
        <time>2019-08-01T06:46:39.952Z</time>
      </trkpt>
      <trkpt lat="43.03275333" lon="-1.19628333">
        <ele>1036.0</ele>
        <time>2019-08-01T06:46:40.957Z</time>
      </trkpt>
      <trkpt lat="43.03276667" lon="-1.196295">
        <ele>1036.0</ele>
        <time>2019-08-01T06:46:41.963Z</time>
      </trkpt>
      <trkpt lat="43.03277667" lon="-1.19630667">
        <ele>1036.0</ele>
        <time>2019-08-01T06:46:42.969Z</time>
      </trkpt>
      <trkpt lat="43.03278667" lon="-1.19632">
        <ele>1036.0</ele>
        <time>2019-08-01T06:46:43.976Z</time>
      </trkpt>
      <trkpt lat="43.03279833" lon="-1.19633333">
        <ele>1036.0</ele>
        <time>2019-08-01T06:46:44.980Z</time>
      </trkpt>
      <trkpt lat="43.03281" lon="-1.19634667">
        <ele>1036.0</ele>
        <time>2019-08-01T06:46:45.987Z</time>
      </trkpt>
      <trkpt lat="43.03282" lon="-1.19636">
        <ele>1036.0</ele>
        <time>2019-08-01T06:46:46.992Z</time>
      </trkpt>
      <trkpt lat="43.03283" lon="-1.19636833">
        <ele>1036.0</ele>
        <time>2019-08-01T06:46:47.997Z</time>
      </trkpt>
      <trkpt lat="43.03284" lon="-1.19637833">
        <ele>1035.0</ele>
        <time>2019-08-01T06:46:49.001Z</time>
      </trkpt>
      <trkpt lat="43.03285" lon="-1.19639333">
        <ele>1035.0</ele>
        <time>2019-08-01T06:46:50.008Z</time>
      </trkpt>
      <trkpt lat="43.03286" lon="-1.19640833">
        <ele>1035.0</ele>
        <time>2019-08-01T06:46:51.014Z</time>
      </trkpt>
      <trkpt lat="43.03287167" lon="-1.19642333">
        <ele>1035.0</ele>
        <time>2019-08-01T06:46:52.018Z</time>
      </trkpt>
      <trkpt lat="43.03288167" lon="-1.19643667">
        <ele>1035.0</ele>
        <time>2019-08-01T06:46:53.026Z</time>
      </trkpt>
      <trkpt lat="43.03289167" lon="-1.19645167">
        <ele>1035.0</ele>
        <time>2019-08-01T06:46:54.033Z</time>
      </trkpt>
      <trkpt lat="43.0329" lon="-1.19646333">
        <ele>1035.0</ele>
        <time>2019-08-01T06:46:55.038Z</time>
      </trkpt>
      <trkpt lat="43.03290833" lon="-1.19647667">
        <ele>1035.0</ele>
        <time>2019-08-01T06:46:55.919Z</time>
      </trkpt>
      <trkpt lat="43.03292" lon="-1.19649">
        <ele>1035.0</ele>
        <time>2019-08-01T06:46:56.926Z</time>
      </trkpt>
      <trkpt lat="43.03292833" lon="-1.19650333">
        <ele>1035.0</ele>
        <time>2019-08-01T06:46:57.931Z</time>
      </trkpt>
      <trkpt lat="43.03293833" lon="-1.19651833">
        <ele>1035.0</ele>
        <time>2019-08-01T06:46:58.936Z</time>
      </trkpt>
      <trkpt lat="43.03295" lon="-1.19653333">
        <ele>1036.0</ele>
        <time>2019-08-01T06:46:59.942Z</time>
      </trkpt>
      <trkpt lat="43.03296167" lon="-1.19654833">
        <ele>1036.0</ele>
        <time>2019-08-01T06:47:00.951Z</time>
      </trkpt>
      <trkpt lat="43.03297167" lon="-1.196565">
        <ele>1036.0</ele>
        <time>2019-08-01T06:47:01.957Z</time>
      </trkpt>
      <trkpt lat="43.03298167" lon="-1.19658167">
        <ele>1036.0</ele>
        <time>2019-08-01T06:47:02.962Z</time>
      </trkpt>
      <trkpt lat="43.03299167" lon="-1.19659333">
        <ele>1036.0</ele>
        <time>2019-08-01T06:47:03.966Z</time>
      </trkpt>
      <trkpt lat="43.03300333" lon="-1.19660667">
        <ele>1036.0</ele>
        <time>2019-08-01T06:47:04.973Z</time>
      </trkpt>
      <trkpt lat="43.03301667" lon="-1.19662">
        <ele>1036.0</ele>
        <time>2019-08-01T06:47:05.980Z</time>
      </trkpt>
      <trkpt lat="43.03303" lon="-1.19663167">
        <ele>1035.0</ele>
        <time>2019-08-01T06:47:06.987Z</time>
      </trkpt>
      <trkpt lat="43.03304167" lon="-1.196645">
        <ele>1035.0</ele>
        <time>2019-08-01T06:47:07.994Z</time>
      </trkpt>
      <trkpt lat="43.03305167" lon="-1.19665833">
        <ele>1035.0</ele>
        <time>2019-08-01T06:47:08.998Z</time>
      </trkpt>
      <trkpt lat="43.03306333" lon="-1.19667167">
        <ele>1035.0</ele>
        <time>2019-08-01T06:47:10.003Z</time>
      </trkpt>
      <trkpt lat="43.033075" lon="-1.19668333">
        <ele>1035.0</ele>
        <time>2019-08-01T06:47:11.010Z</time>
      </trkpt>
      <trkpt lat="43.03308667" lon="-1.196695">
        <ele>1035.0</ele>
        <time>2019-08-01T06:47:12.015Z</time>
      </trkpt>
      <trkpt lat="43.0331" lon="-1.19670833">
        <ele>1035.0</ele>
        <time>2019-08-01T06:47:13.019Z</time>
      </trkpt>
      <trkpt lat="43.03311167" lon="-1.19672167">
        <ele>1035.0</ele>
        <time>2019-08-01T06:47:14.024Z</time>
      </trkpt>
      <trkpt lat="43.033125" lon="-1.196735">
        <ele>1035.0</ele>
        <time>2019-08-01T06:47:15.029Z</time>
      </trkpt>
      <trkpt lat="43.03313333" lon="-1.19674833">
        <ele>1035.0</ele>
        <time>2019-08-01T06:47:16.034Z</time>
      </trkpt>
      <trkpt lat="43.03314667" lon="-1.19676">
        <ele>1035.0</ele>
        <time>2019-08-01T06:47:17.040Z</time>
      </trkpt>
      <trkpt lat="43.03316" lon="-1.196775">
        <ele>1035.0</ele>
        <time>2019-08-01T06:47:17.921Z</time>
      </trkpt>
      <trkpt lat="43.03317167" lon="-1.19679">
        <ele>1036.0</ele>
        <time>2019-08-01T06:47:18.928Z</time>
      </trkpt>
      <trkpt lat="43.03318333" lon="-1.19680333">
        <ele>1036.0</ele>
        <time>2019-08-01T06:47:19.933Z</time>
      </trkpt>
      <trkpt lat="43.03319333" lon="-1.19681167">
        <ele>1036.0</ele>
        <time>2019-08-01T06:47:20.940Z</time>
      </trkpt>
      <trkpt lat="43.033205" lon="-1.19682333">
        <ele>1036.0</ele>
        <time>2019-08-01T06:47:21.943Z</time>
      </trkpt>
      <trkpt lat="43.033215" lon="-1.19683667">
        <ele>1036.0</ele>
        <time>2019-08-01T06:47:22.948Z</time>
      </trkpt>
      <trkpt lat="43.03322667" lon="-1.19684833">
        <ele>1035.0</ele>
        <time>2019-08-01T06:47:23.955Z</time>
      </trkpt>
      <trkpt lat="43.03323667" lon="-1.19686167">
        <ele>1035.0</ele>
        <time>2019-08-01T06:47:24.960Z</time>
      </trkpt>
      <trkpt lat="43.03324667" lon="-1.196875">
        <ele>1036.0</ele>
        <time>2019-08-01T06:47:25.967Z</time>
      </trkpt>
      <trkpt lat="43.03326" lon="-1.19688833">
        <ele>1035.0</ele>
        <time>2019-08-01T06:47:26.975Z</time>
      </trkpt>
      <trkpt lat="43.03327333" lon="-1.1969">
        <ele>1035.0</ele>
        <time>2019-08-01T06:47:27.981Z</time>
      </trkpt>
      <trkpt lat="43.03328667" lon="-1.19691167">
        <ele>1035.0</ele>
        <time>2019-08-01T06:47:28.987Z</time>
      </trkpt>
      <trkpt lat="43.03329667" lon="-1.19692167">
        <ele>1035.0</ele>
        <time>2019-08-01T06:47:29.992Z</time>
      </trkpt>
      <trkpt lat="43.03330833" lon="-1.19693333">
        <ele>1035.0</ele>
        <time>2019-08-01T06:47:30.996Z</time>
      </trkpt>
      <trkpt lat="43.03332" lon="-1.19694667">
        <ele>1035.0</ele>
        <time>2019-08-01T06:47:32.003Z</time>
      </trkpt>
      <trkpt lat="43.03333" lon="-1.19695833">
        <ele>1035.0</ele>
        <time>2019-08-01T06:47:33.009Z</time>
      </trkpt>
      <trkpt lat="43.03334167" lon="-1.19697167">
        <ele>1035.0</ele>
        <time>2019-08-01T06:47:34.014Z</time>
      </trkpt>
      <trkpt lat="43.03335333" lon="-1.196985">
        <ele>1035.0</ele>
        <time>2019-08-01T06:47:35.019Z</time>
      </trkpt>
      <trkpt lat="43.033365" lon="-1.19699833">
        <ele>1035.0</ele>
        <time>2019-08-01T06:47:36.026Z</time>
      </trkpt>
      <trkpt lat="43.03337667" lon="-1.19701167">
        <ele>1035.0</ele>
        <time>2019-08-01T06:47:37.033Z</time>
      </trkpt>
      <trkpt lat="43.03338833" lon="-1.197025">
        <ele>1035.0</ele>
        <time>2019-08-01T06:47:38.039Z</time>
      </trkpt>
      <trkpt lat="43.03340167" lon="-1.19703667">
        <ele>1035.0</ele>
        <time>2019-08-01T06:47:39.043Z</time>
      </trkpt>
      <trkpt lat="43.03341333" lon="-1.19705">
        <ele>1036.0</ele>
        <time>2019-08-01T06:47:39.924Z</time>
      </trkpt>
      <trkpt lat="43.033425" lon="-1.197065">
        <ele>1035.0</ele>
        <time>2019-08-01T06:47:40.929Z</time>
      </trkpt>
      <trkpt lat="43.033435" lon="-1.19708">
        <ele>1036.0</ele>
        <time>2019-08-01T06:47:41.933Z</time>
      </trkpt>
      <trkpt lat="43.033445" lon="-1.19709333">
        <ele>1036.0</ele>
        <time>2019-08-01T06:47:42.940Z</time>
      </trkpt>
      <trkpt lat="43.033455" lon="-1.19711">
        <ele>1036.0</ele>
        <time>2019-08-01T06:47:43.945Z</time>
      </trkpt>
      <trkpt lat="43.033465" lon="-1.19712333">
        <ele>1036.0</ele>
        <time>2019-08-01T06:47:44.952Z</time>
      </trkpt>
      <trkpt lat="43.033475" lon="-1.19713833">
        <ele>1036.0</ele>
        <time>2019-08-01T06:47:45.957Z</time>
      </trkpt>
      <trkpt lat="43.03348833" lon="-1.197155">
        <ele>1036.0</ele>
        <time>2019-08-01T06:47:46.962Z</time>
      </trkpt>
      <trkpt lat="43.03349833" lon="-1.19716667">
        <ele>1036.0</ele>
        <time>2019-08-01T06:47:47.969Z</time>
      </trkpt>
      <trkpt lat="43.03351167" lon="-1.19718">
        <ele>1036.0</ele>
        <time>2019-08-01T06:47:48.977Z</time>
      </trkpt>
      <trkpt lat="43.033525" lon="-1.197195">
        <ele>1036.0</ele>
        <time>2019-08-01T06:47:49.982Z</time>
      </trkpt>
      <trkpt lat="43.03353667" lon="-1.197205">
        <ele>1036.0</ele>
        <time>2019-08-01T06:47:50.987Z</time>
      </trkpt>
      <trkpt lat="43.03354667" lon="-1.197215">
        <ele>1035.0</ele>
        <time>2019-08-01T06:47:51.993Z</time>
      </trkpt>
      <trkpt lat="43.03355833" lon="-1.19722333">
        <ele>1035.0</ele>
        <time>2019-08-01T06:47:52.998Z</time>
      </trkpt>
      <trkpt lat="43.03357" lon="-1.19723667">
        <ele>1035.0</ele>
        <time>2019-08-01T06:47:54.003Z</time>
      </trkpt>
      <trkpt lat="43.03358333" lon="-1.19724833">
        <ele>1035.0</ele>
        <time>2019-08-01T06:47:55.010Z</time>
      </trkpt>
      <trkpt lat="43.03359333" lon="-1.19726167">
        <ele>1035.0</ele>
        <time>2019-08-01T06:47:56.015Z</time>
      </trkpt>
      <trkpt lat="43.033605" lon="-1.19727333">
        <ele>1035.0</ele>
        <time>2019-08-01T06:47:57.022Z</time>
      </trkpt>
      <trkpt lat="43.03361833" lon="-1.19728667">
        <ele>1035.0</ele>
        <time>2019-08-01T06:47:58.027Z</time>
      </trkpt>
      <trkpt lat="43.03363" lon="-1.19729833">
        <ele>1035.0</ele>
        <time>2019-08-01T06:47:59.034Z</time>
      </trkpt>
      <trkpt lat="43.03364333" lon="-1.19730833">
        <ele>1036.0</ele>
        <time>2019-08-01T06:48:00.038Z</time>
      </trkpt>
      <trkpt lat="43.03365333" lon="-1.197315">
        <ele>1035.0</ele>
        <time>2019-08-01T06:48:01.043Z</time>
      </trkpt>
      <trkpt lat="43.033665" lon="-1.197325">
        <ele>1035.0</ele>
        <time>2019-08-01T06:48:01.923Z</time>
      </trkpt>
      <trkpt lat="43.033675" lon="-1.19733833">
        <ele>1035.0</ele>
        <time>2019-08-01T06:48:02.928Z</time>
      </trkpt>
      <trkpt lat="43.033685" lon="-1.19735167">
        <ele>1035.0</ele>
        <time>2019-08-01T06:48:03.935Z</time>
      </trkpt>
      <trkpt lat="43.03369333" lon="-1.19736667">
        <ele>1035.0</ele>
        <time>2019-08-01T06:48:04.943Z</time>
      </trkpt>
      <trkpt lat="43.03370333" lon="-1.19738167">
        <ele>1035.0</ele>
        <time>2019-08-01T06:48:05.951Z</time>
      </trkpt>
      <trkpt lat="43.033715" lon="-1.197395">
        <ele>1035.0</ele>
        <time>2019-08-01T06:48:06.957Z</time>
      </trkpt>
      <trkpt lat="43.03372333" lon="-1.19741">
        <ele>1035.0</ele>
        <time>2019-08-01T06:48:07.963Z</time>
      </trkpt>
      <trkpt lat="43.03372833" lon="-1.19742333">
        <ele>1035.0</ele>
        <time>2019-08-01T06:48:08.971Z</time>
      </trkpt>
      <trkpt lat="43.03373667" lon="-1.19743667">
        <ele>1035.0</ele>
        <time>2019-08-01T06:48:09.977Z</time>
      </trkpt>
      <trkpt lat="43.033745" lon="-1.19745167">
        <ele>1035.0</ele>
        <time>2019-08-01T06:48:10.986Z</time>
      </trkpt>
      <trkpt lat="43.03375333" lon="-1.19747">
        <ele>1036.0</ele>
        <time>2019-08-01T06:48:11.993Z</time>
      </trkpt>
      <trkpt lat="43.03376167" lon="-1.19749">
        <ele>1036.0</ele>
        <time>2019-08-01T06:48:12.996Z</time>
      </trkpt>
      <trkpt lat="43.03376667" lon="-1.19750667">
        <ele>1036.0</ele>
        <time>2019-08-01T06:48:14.001Z</time>
      </trkpt>
      <trkpt lat="43.03377" lon="-1.19752">
        <ele>1036.0</ele>
        <time>2019-08-01T06:48:15.008Z</time>
      </trkpt>
      <trkpt lat="43.033775" lon="-1.19753833">
        <ele>1036.0</ele>
        <time>2019-08-01T06:48:16.013Z</time>
      </trkpt>
      <trkpt lat="43.033775" lon="-1.19755667">
        <ele>1037.0</ele>
        <time>2019-08-01T06:48:17.016Z</time>
      </trkpt>
      <trkpt lat="43.03377667" lon="-1.19757333">
        <ele>1037.0</ele>
        <time>2019-08-01T06:48:18.020Z</time>
      </trkpt>
      <trkpt lat="43.03378" lon="-1.19759167">
        <ele>1037.0</ele>
        <time>2019-08-01T06:48:19.026Z</time>
      </trkpt>
      <trkpt lat="43.03378167" lon="-1.19761">
        <ele>1037.0</ele>
        <time>2019-08-01T06:48:20.031Z</time>
      </trkpt>
      <trkpt lat="43.033785" lon="-1.19763167">
        <ele>1037.0</ele>
        <time>2019-08-01T06:48:21.034Z</time>
      </trkpt>
      <trkpt lat="43.03379" lon="-1.19765167">
        <ele>1037.0</ele>
        <time>2019-08-01T06:48:22.036Z</time>
      </trkpt>
      <trkpt lat="43.03378833" lon="-1.19767167">
        <ele>1037.0</ele>
        <time>2019-08-01T06:48:23.039Z</time>
      </trkpt>
      <trkpt lat="43.03379" lon="-1.19769167">
        <ele>1036.0</ele>
        <time>2019-08-01T06:48:23.919Z</time>
      </trkpt>
      <trkpt lat="43.03379167" lon="-1.19771">
        <ele>1036.0</ele>
        <time>2019-08-01T06:48:24.925Z</time>
      </trkpt>
      <trkpt lat="43.033795" lon="-1.19772833">
        <ele>1036.0</ele>
        <time>2019-08-01T06:48:25.932Z</time>
      </trkpt>
      <trkpt lat="43.03379833" lon="-1.19774833">
        <ele>1035.0</ele>
        <time>2019-08-01T06:48:26.940Z</time>
      </trkpt>
      <trkpt lat="43.0338" lon="-1.19776667">
        <ele>1035.0</ele>
        <time>2019-08-01T06:48:27.948Z</time>
      </trkpt>
      <trkpt lat="43.0338" lon="-1.197785">
        <ele>1035.0</ele>
        <time>2019-08-01T06:48:28.955Z</time>
      </trkpt>
      <trkpt lat="43.0338" lon="-1.19780667">
        <ele>1035.0</ele>
        <time>2019-08-01T06:48:29.960Z</time>
      </trkpt>
      <trkpt lat="43.0338" lon="-1.19782333">
        <ele>1035.0</ele>
        <time>2019-08-01T06:48:30.966Z</time>
      </trkpt>
      <trkpt lat="43.03379833" lon="-1.19784167">
        <ele>1035.0</ele>
        <time>2019-08-01T06:48:31.972Z</time>
      </trkpt>
      <trkpt lat="43.03379667" lon="-1.19786167">
        <ele>1035.0</ele>
        <time>2019-08-01T06:48:32.977Z</time>
      </trkpt>
      <trkpt lat="43.03379667" lon="-1.19788167">
        <ele>1035.0</ele>
        <time>2019-08-01T06:48:33.982Z</time>
      </trkpt>
      <trkpt lat="43.033795" lon="-1.19790333">
        <ele>1035.0</ele>
        <time>2019-08-01T06:48:34.989Z</time>
      </trkpt>
      <trkpt lat="43.03379667" lon="-1.19792333">
        <ele>1035.0</ele>
        <time>2019-08-01T06:48:35.996Z</time>
      </trkpt>
      <trkpt lat="43.03379667" lon="-1.197945">
        <ele>1035.0</ele>
        <time>2019-08-01T06:48:37.003Z</time>
      </trkpt>
      <trkpt lat="43.033795" lon="-1.197965">
        <ele>1035.0</ele>
        <time>2019-08-01T06:48:38.009Z</time>
      </trkpt>
      <trkpt lat="43.03379333" lon="-1.197985">
        <ele>1035.0</ele>
        <time>2019-08-01T06:48:39.015Z</time>
      </trkpt>
      <trkpt lat="43.03379" lon="-1.19800667">
        <ele>1035.0</ele>
        <time>2019-08-01T06:48:40.019Z</time>
      </trkpt>
      <trkpt lat="43.03379" lon="-1.19802333">
        <ele>1035.0</ele>
        <time>2019-08-01T06:48:41.025Z</time>
      </trkpt>
      <trkpt lat="43.03378833" lon="-1.19804167">
        <ele>1036.0</ele>
        <time>2019-08-01T06:48:42.032Z</time>
      </trkpt>
      <trkpt lat="43.03378833" lon="-1.19806167">
        <ele>1036.0</ele>
        <time>2019-08-01T06:48:43.038Z</time>
      </trkpt>
      <trkpt lat="43.03378833" lon="-1.19808333">
        <ele>1036.0</ele>
        <time>2019-08-01T06:48:44.041Z</time>
      </trkpt>
      <trkpt lat="43.03379" lon="-1.19810167">
        <ele>1036.0</ele>
        <time>2019-08-01T06:48:44.921Z</time>
      </trkpt>
      <trkpt lat="43.03379" lon="-1.19812">
        <ele>1035.0</ele>
        <time>2019-08-01T06:48:45.925Z</time>
      </trkpt>
      <trkpt lat="43.03379167" lon="-1.19813833">
        <ele>1035.0</ele>
        <time>2019-08-01T06:48:46.931Z</time>
      </trkpt>
      <trkpt lat="43.033795" lon="-1.19816167">
        <ele>1035.0</ele>
        <time>2019-08-01T06:48:47.936Z</time>
      </trkpt>
      <trkpt lat="43.0338" lon="-1.19817833">
        <ele>1034.0</ele>
        <time>2019-08-01T06:48:48.943Z</time>
      </trkpt>
      <trkpt lat="43.033805" lon="-1.1982">
        <ele>1034.0</ele>
        <time>2019-08-01T06:48:49.949Z</time>
      </trkpt>
      <trkpt lat="43.03380833" lon="-1.19821833">
        <ele>1034.0</ele>
        <time>2019-08-01T06:48:50.955Z</time>
      </trkpt>
      <trkpt lat="43.03381333" lon="-1.19823667">
        <ele>1034.0</ele>
        <time>2019-08-01T06:48:51.959Z</time>
      </trkpt>
      <trkpt lat="43.03381833" lon="-1.19825833">
        <ele>1035.0</ele>
        <time>2019-08-01T06:48:52.965Z</time>
      </trkpt>
      <trkpt lat="43.03382333" lon="-1.19827667">
        <ele>1035.0</ele>
        <time>2019-08-01T06:48:53.971Z</time>
      </trkpt>
      <trkpt lat="43.03382833" lon="-1.19829167">
        <ele>1034.0</ele>
        <time>2019-08-01T06:48:54.976Z</time>
      </trkpt>
      <trkpt lat="43.03383167" lon="-1.19830833">
        <ele>1034.0</ele>
        <time>2019-08-01T06:48:55.982Z</time>
      </trkpt>
      <trkpt lat="43.03383667" lon="-1.19832667">
        <ele>1035.0</ele>
        <time>2019-08-01T06:48:56.990Z</time>
      </trkpt>
      <trkpt lat="43.03384" lon="-1.198345">
        <ele>1034.0</ele>
        <time>2019-08-01T06:48:57.996Z</time>
      </trkpt>
      <trkpt lat="43.03384167" lon="-1.19836167">
        <ele>1034.0</ele>
        <time>2019-08-01T06:48:59.003Z</time>
      </trkpt>
      <trkpt lat="43.033845" lon="-1.19838">
        <ele>1034.0</ele>
        <time>2019-08-01T06:49:00.007Z</time>
      </trkpt>
      <trkpt lat="43.033845" lon="-1.19840167">
        <ele>1034.0</ele>
        <time>2019-08-01T06:49:01.014Z</time>
      </trkpt>
      <trkpt lat="43.03384333" lon="-1.19842">
        <ele>1035.0</ele>
        <time>2019-08-01T06:49:02.019Z</time>
      </trkpt>
      <trkpt lat="43.033845" lon="-1.198435">
        <ele>1035.0</ele>
        <time>2019-08-01T06:49:03.025Z</time>
      </trkpt>
      <trkpt lat="43.03384667" lon="-1.19845167">
        <ele>1035.0</ele>
        <time>2019-08-01T06:49:04.030Z</time>
      </trkpt>
      <trkpt lat="43.03384833" lon="-1.198465">
        <ele>1035.0</ele>
        <time>2019-08-01T06:49:05.036Z</time>
      </trkpt>
      <trkpt lat="43.033845" lon="-1.19848167">
        <ele>1035.0</ele>
        <time>2019-08-01T06:49:06.041Z</time>
      </trkpt>
      <trkpt lat="43.03384333" lon="-1.19849833">
        <ele>1035.0</ele>
        <time>2019-08-01T06:49:06.919Z</time>
      </trkpt>
      <trkpt lat="43.03384167" lon="-1.198515">
        <ele>1035.0</ele>
        <time>2019-08-01T06:49:07.925Z</time>
      </trkpt>
      <trkpt lat="43.03383833" lon="-1.19853333">
        <ele>1035.0</ele>
        <time>2019-08-01T06:49:08.930Z</time>
      </trkpt>
      <trkpt lat="43.033835" lon="-1.19855333">
        <ele>1035.0</ele>
        <time>2019-08-01T06:49:09.933Z</time>
      </trkpt>
      <trkpt lat="43.03383167" lon="-1.198575">
        <ele>1035.0</ele>
        <time>2019-08-01T06:49:10.940Z</time>
      </trkpt>
      <trkpt lat="43.03383" lon="-1.19859333">
        <ele>1035.0</ele>
        <time>2019-08-01T06:49:11.947Z</time>
      </trkpt>
      <trkpt lat="43.03382833" lon="-1.198615">
        <ele>1035.0</ele>
        <time>2019-08-01T06:49:12.951Z</time>
      </trkpt>
      <trkpt lat="43.03382667" lon="-1.19863333">
        <ele>1034.0</ele>
        <time>2019-08-01T06:49:13.953Z</time>
      </trkpt>
      <trkpt lat="43.03382333" lon="-1.19865">
        <ele>1034.0</ele>
        <time>2019-08-01T06:49:14.958Z</time>
      </trkpt>
      <trkpt lat="43.03381833" lon="-1.19866833">
        <ele>1034.0</ele>
        <time>2019-08-01T06:49:15.961Z</time>
      </trkpt>
      <trkpt lat="43.033815" lon="-1.19869">
        <ele>1033.0</ele>
        <time>2019-08-01T06:49:16.966Z</time>
      </trkpt>
      <trkpt lat="43.03381167" lon="-1.19871">
        <ele>1033.0</ele>
        <time>2019-08-01T06:49:17.973Z</time>
      </trkpt>
      <trkpt lat="43.03380833" lon="-1.19873333">
        <ele>1033.0</ele>
        <time>2019-08-01T06:49:18.978Z</time>
      </trkpt>
      <trkpt lat="43.03380667" lon="-1.19875167">
        <ele>1033.0</ele>
        <time>2019-08-01T06:49:19.982Z</time>
      </trkpt>
      <trkpt lat="43.0338" lon="-1.19876833">
        <ele>1032.0</ele>
        <time>2019-08-01T06:49:20.989Z</time>
      </trkpt>
      <trkpt lat="43.033795" lon="-1.19878667">
        <ele>1032.0</ele>
        <time>2019-08-01T06:49:21.992Z</time>
      </trkpt>
      <trkpt lat="43.03379" lon="-1.198805">
        <ele>1032.0</ele>
        <time>2019-08-01T06:49:22.998Z</time>
      </trkpt>
      <trkpt lat="43.03378667" lon="-1.19882">
        <ele>1033.0</ele>
        <time>2019-08-01T06:49:24.004Z</time>
      </trkpt>
      <trkpt lat="43.03378333" lon="-1.19884">
        <ele>1033.0</ele>
        <time>2019-08-01T06:49:25.011Z</time>
      </trkpt>
      <trkpt lat="43.03378" lon="-1.19886">
        <ele>1032.0</ele>
        <time>2019-08-01T06:49:26.018Z</time>
      </trkpt>
      <trkpt lat="43.03377667" lon="-1.19888">
        <ele>1032.0</ele>
        <time>2019-08-01T06:49:27.024Z</time>
      </trkpt>
      <trkpt lat="43.03377" lon="-1.19890333">
        <ele>1032.0</ele>
        <time>2019-08-01T06:49:28.030Z</time>
      </trkpt>
      <trkpt lat="43.03376333" lon="-1.19892167">
        <ele>1032.0</ele>
        <time>2019-08-01T06:49:29.036Z</time>
      </trkpt>
      <trkpt lat="43.03375833" lon="-1.19894">
        <ele>1033.0</ele>
        <time>2019-08-01T06:49:30.040Z</time>
      </trkpt>
      <trkpt lat="43.03375167" lon="-1.19895833">
        <ele>1033.0</ele>
        <time>2019-08-01T06:49:30.919Z</time>
      </trkpt>
      <trkpt lat="43.03374667" lon="-1.198975">
        <ele>1033.0</ele>
        <time>2019-08-01T06:49:31.925Z</time>
      </trkpt>
      <trkpt lat="43.03374" lon="-1.198995">
        <ele>1033.0</ele>
        <time>2019-08-01T06:49:32.931Z</time>
      </trkpt>
      <trkpt lat="43.03373333" lon="-1.19901333">
        <ele>1034.0</ele>
        <time>2019-08-01T06:49:33.937Z</time>
      </trkpt>
      <trkpt lat="43.03372833" lon="-1.19902833">
        <ele>1034.0</ele>
        <time>2019-08-01T06:49:34.943Z</time>
      </trkpt>
      <trkpt lat="43.03372167" lon="-1.199045">
        <ele>1034.0</ele>
        <time>2019-08-01T06:49:35.949Z</time>
      </trkpt>
      <trkpt lat="43.03371833" lon="-1.19906167">
        <ele>1034.0</ele>
        <time>2019-08-01T06:49:36.955Z</time>
      </trkpt>
      <trkpt lat="43.033715" lon="-1.19907833">
        <ele>1033.0</ele>
        <time>2019-08-01T06:49:37.960Z</time>
      </trkpt>
      <trkpt lat="43.03370833" lon="-1.199095">
        <ele>1034.0</ele>
        <time>2019-08-01T06:49:38.966Z</time>
      </trkpt>
      <trkpt lat="43.03370167" lon="-1.19911333">
        <ele>1034.0</ele>
        <time>2019-08-01T06:49:39.973Z</time>
      </trkpt>
      <trkpt lat="43.033695" lon="-1.19913167">
        <ele>1034.0</ele>
        <time>2019-08-01T06:49:40.980Z</time>
      </trkpt>
      <trkpt lat="43.03368833" lon="-1.19914833">
        <ele>1034.0</ele>
        <time>2019-08-01T06:49:41.987Z</time>
      </trkpt>
      <trkpt lat="43.033685" lon="-1.19916667">
        <ele>1034.0</ele>
        <time>2019-08-01T06:49:42.995Z</time>
      </trkpt>
      <trkpt lat="43.03367833" lon="-1.19918167">
        <ele>1033.0</ele>
        <time>2019-08-01T06:49:43.998Z</time>
      </trkpt>
      <trkpt lat="43.03367333" lon="-1.19919833">
        <ele>1033.0</ele>
        <time>2019-08-01T06:49:45.005Z</time>
      </trkpt>
      <trkpt lat="43.033665" lon="-1.199215">
        <ele>1033.0</ele>
        <time>2019-08-01T06:49:46.010Z</time>
      </trkpt>
      <trkpt lat="43.03365833" lon="-1.19923333">
        <ele>1032.0</ele>
        <time>2019-08-01T06:49:47.016Z</time>
      </trkpt>
      <trkpt lat="43.033655" lon="-1.19924833">
        <ele>1032.0</ele>
        <time>2019-08-01T06:49:48.023Z</time>
      </trkpt>
      <trkpt lat="43.03364667" lon="-1.19926667">
        <ele>1032.0</ele>
        <time>2019-08-01T06:49:49.031Z</time>
      </trkpt>
      <trkpt lat="43.03364167" lon="-1.19928667">
        <ele>1032.0</ele>
        <time>2019-08-01T06:49:50.037Z</time>
      </trkpt>
      <trkpt lat="43.03363667" lon="-1.19930333">
        <ele>1031.0</ele>
        <time>2019-08-01T06:49:51.043Z</time>
      </trkpt>
      <trkpt lat="43.03362833" lon="-1.19932167">
        <ele>1032.0</ele>
        <time>2019-08-01T06:49:51.924Z</time>
      </trkpt>
      <trkpt lat="43.03362" lon="-1.19934">
        <ele>1032.0</ele>
        <time>2019-08-01T06:49:52.930Z</time>
      </trkpt>
      <trkpt lat="43.03361167" lon="-1.199355">
        <ele>1032.0</ele>
        <time>2019-08-01T06:49:53.936Z</time>
      </trkpt>
      <trkpt lat="43.033605" lon="-1.19937">
        <ele>1032.0</ele>
        <time>2019-08-01T06:49:54.943Z</time>
      </trkpt>
      <trkpt lat="43.03359833" lon="-1.199385">
        <ele>1033.0</ele>
        <time>2019-08-01T06:49:55.949Z</time>
      </trkpt>
      <trkpt lat="43.03359" lon="-1.19939833">
        <ele>1033.0</ele>
        <time>2019-08-01T06:49:56.956Z</time>
      </trkpt>
      <trkpt lat="43.03358167" lon="-1.19941333">
        <ele>1033.0</ele>
        <time>2019-08-01T06:49:57.961Z</time>
      </trkpt>
      <trkpt lat="43.033575" lon="-1.19943">
        <ele>1033.0</ele>
        <time>2019-08-01T06:49:58.967Z</time>
      </trkpt>
      <trkpt lat="43.03356833" lon="-1.19944167">
        <ele>1033.0</ele>
        <time>2019-08-01T06:49:59.974Z</time>
      </trkpt>
      <trkpt lat="43.03356333" lon="-1.19945">
        <ele>1032.0</ele>
        <time>2019-08-01T06:50:00.980Z</time>
      </trkpt>
      <trkpt lat="43.03356" lon="-1.19945333">
        <ele>1032.0</ele>
        <time>2019-08-01T06:50:01.987Z</time>
      </trkpt>
      <trkpt lat="43.03355667" lon="-1.199455">
        <ele>1032.0</ele>
        <time>2019-08-01T06:50:02.994Z</time>
      </trkpt>
      <trkpt lat="43.03355333" lon="-1.19945333">
        <ele>1033.0</ele>
        <time>2019-08-01T06:50:03.999Z</time>
      </trkpt>
      <trkpt lat="43.03355167" lon="-1.19944833">
        <ele>1033.0</ele>
        <time>2019-08-01T06:50:05.005Z</time>
      </trkpt>
      <trkpt lat="43.03354667" lon="-1.199445">
        <ele>1033.0</ele>
        <time>2019-08-01T06:50:06.012Z</time>
      </trkpt>
      <trkpt lat="43.03354333" lon="-1.19944">
        <ele>1033.0</ele>
        <time>2019-08-01T06:50:07.016Z</time>
      </trkpt>
      <trkpt lat="43.03354" lon="-1.19943667">
        <ele>1033.0</ele>
        <time>2019-08-01T06:50:08.021Z</time>
      </trkpt>
      <trkpt lat="43.03354" lon="-1.19943333">
        <ele>1034.0</ele>
        <time>2019-08-01T06:50:09.029Z</time>
      </trkpt>
      <trkpt lat="43.03354333" lon="-1.19943">
        <ele>1034.0</ele>
        <time>2019-08-01T06:50:10.036Z</time>
      </trkpt>
      <trkpt lat="43.03355167" lon="-1.199425">
        <ele>1034.0</ele>
        <time>2019-08-01T06:50:11.041Z</time>
      </trkpt>
      <trkpt lat="43.03355833" lon="-1.19941833">
        <ele>1034.0</ele>
        <time>2019-08-01T06:50:11.921Z</time>
      </trkpt>
      <trkpt lat="43.03356333" lon="-1.19941333">
        <ele>1033.0</ele>
        <time>2019-08-01T06:50:12.926Z</time>
      </trkpt>
      <trkpt lat="43.033565" lon="-1.19940667">
        <ele>1033.0</ele>
        <time>2019-08-01T06:50:13.932Z</time>
      </trkpt>
      <trkpt lat="43.033565" lon="-1.19940167">
        <ele>1033.0</ele>
        <time>2019-08-01T06:50:14.939Z</time>
      </trkpt>
      <trkpt lat="43.033565" lon="-1.199395">
        <ele>1032.0</ele>
        <time>2019-08-01T06:50:15.944Z</time>
      </trkpt>
      <trkpt lat="43.033565" lon="-1.19939167">
        <ele>1033.0</ele>
        <time>2019-08-01T06:50:16.951Z</time>
      </trkpt>
      <trkpt lat="43.03356333" lon="-1.19938833">
        <ele>1032.0</ele>
        <time>2019-08-01T06:50:17.958Z</time>
      </trkpt>
      <trkpt lat="43.03356" lon="-1.19938333">
        <ele>1032.0</ele>
        <time>2019-08-01T06:50:18.963Z</time>
      </trkpt>
      <trkpt lat="43.03355667" lon="-1.19937667">
        <ele>1033.0</ele>
        <time>2019-08-01T06:50:19.969Z</time>
      </trkpt>
      <trkpt lat="43.033555" lon="-1.19937667">
        <ele>1033.0</ele>
        <time>2019-08-01T06:50:20.976Z</time>
      </trkpt>
      <trkpt lat="43.03355167" lon="-1.19937667">
        <ele>1033.0</ele>
        <time>2019-08-01T06:50:21.980Z</time>
      </trkpt>
      <trkpt lat="43.03355" lon="-1.199375">
        <ele>1033.0</ele>
        <time>2019-08-01T06:50:22.987Z</time>
      </trkpt>
      <trkpt lat="43.03355" lon="-1.199375">
        <ele>1032.0</ele>
        <time>2019-08-01T06:50:23.993Z</time>
      </trkpt>
      <trkpt lat="43.03355" lon="-1.19937167">
        <ele>1032.0</ele>
        <time>2019-08-01T06:50:24.997Z</time>
      </trkpt>
      <trkpt lat="43.03354833" lon="-1.19937">
        <ele>1032.0</ele>
        <time>2019-08-01T06:50:26.002Z</time>
      </trkpt>
      <trkpt lat="43.03354667" lon="-1.19937167">
        <ele>1032.0</ele>
        <time>2019-08-01T06:50:27.008Z</time>
      </trkpt>
      <trkpt lat="43.03354667" lon="-1.19937">
        <ele>1032.0</ele>
        <time>2019-08-01T06:50:28.015Z</time>
      </trkpt>
      <trkpt lat="43.03354333" lon="-1.19936667">
        <ele>1032.0</ele>
        <time>2019-08-01T06:50:29.020Z</time>
      </trkpt>
      <trkpt lat="43.03354167" lon="-1.19936833">
        <ele>1032.0</ele>
        <time>2019-08-01T06:50:30.026Z</time>
      </trkpt>
      <trkpt lat="43.03354" lon="-1.19936667">
        <ele>1032.0</ele>
        <time>2019-08-01T06:50:31.032Z</time>
      </trkpt>
      <trkpt lat="43.03353833" lon="-1.199365">
        <ele>1033.0</ele>
        <time>2019-08-01T06:50:32.038Z</time>
      </trkpt>
      <trkpt lat="43.03353667" lon="-1.19936333">
        <ele>1033.0</ele>
        <time>2019-08-01T06:50:33.041Z</time>
      </trkpt>
      <trkpt lat="43.03353333" lon="-1.19936333">
        <ele>1033.0</ele>
        <time>2019-08-01T06:50:33.921Z</time>
      </trkpt>
      <trkpt lat="43.03353167" lon="-1.19936333">
        <ele>1033.0</ele>
        <time>2019-08-01T06:50:34.929Z</time>
      </trkpt>
      <trkpt lat="43.03353333" lon="-1.199365">
        <ele>1033.0</ele>
        <time>2019-08-01T06:50:35.936Z</time>
      </trkpt>
      <trkpt lat="43.033535" lon="-1.199365">
        <ele>1033.0</ele>
        <time>2019-08-01T06:50:36.943Z</time>
      </trkpt>
      <trkpt lat="43.03353333" lon="-1.19936333">
        <ele>1032.0</ele>
        <time>2019-08-01T06:50:37.947Z</time>
      </trkpt>
      <trkpt lat="43.03353167" lon="-1.19936167">
        <ele>1032.0</ele>
        <time>2019-08-01T06:50:38.953Z</time>
      </trkpt>
      <trkpt lat="43.03353" lon="-1.19936167">
        <ele>1032.0</ele>
        <time>2019-08-01T06:50:39.958Z</time>
      </trkpt>
      <trkpt lat="43.03352833" lon="-1.19936333">
        <ele>1032.0</ele>
        <time>2019-08-01T06:50:40.965Z</time>
      </trkpt>
      <trkpt lat="43.03352833" lon="-1.19936">
        <ele>1033.0</ele>
        <time>2019-08-01T06:50:41.973Z</time>
      </trkpt>
      <trkpt lat="43.03352833" lon="-1.19936">
        <ele>1033.0</ele>
        <time>2019-08-01T06:50:42.978Z</time>
      </trkpt>
      <trkpt lat="43.03352667" lon="-1.19936167">
        <ele>1033.0</ele>
        <time>2019-08-01T06:50:43.984Z</time>
      </trkpt>
      <trkpt lat="43.03352667" lon="-1.19935833">
        <ele>1033.0</ele>
        <time>2019-08-01T06:50:44.990Z</time>
      </trkpt>
      <trkpt lat="43.033525" lon="-1.19935833">
        <ele>1032.0</ele>
        <time>2019-08-01T06:50:45.996Z</time>
      </trkpt>
      <trkpt lat="43.033525" lon="-1.19935833">
        <ele>1032.0</ele>
        <time>2019-08-01T06:50:47.000Z</time>
      </trkpt>
      <trkpt lat="43.03352167" lon="-1.19935833">
        <ele>1032.0</ele>
        <time>2019-08-01T06:50:48.003Z</time>
      </trkpt>
      <trkpt lat="43.03352" lon="-1.19935667">
        <ele>1032.0</ele>
        <time>2019-08-01T06:50:49.009Z</time>
      </trkpt>
      <trkpt lat="43.03352" lon="-1.199355">
        <ele>1032.0</ele>
        <time>2019-08-01T06:50:50.015Z</time>
      </trkpt>
      <trkpt lat="43.03352" lon="-1.19935333">
        <ele>1031.0</ele>
        <time>2019-08-01T06:50:51.020Z</time>
      </trkpt>
      <trkpt lat="43.03351667" lon="-1.19935167">
        <ele>1031.0</ele>
        <time>2019-08-01T06:50:52.027Z</time>
      </trkpt>
      <trkpt lat="43.033515" lon="-1.19935">
        <ele>1031.0</ele>
        <time>2019-08-01T06:50:53.034Z</time>
      </trkpt>
      <trkpt lat="43.03350833" lon="-1.19935167">
        <ele>1031.0</ele>
        <time>2019-08-01T06:50:54.039Z</time>
      </trkpt>
      <trkpt lat="43.033505" lon="-1.199355">
        <ele>1032.0</ele>
        <time>2019-08-01T06:50:54.918Z</time>
      </trkpt>
      <trkpt lat="43.03350167" lon="-1.19935833">
        <ele>1032.0</ele>
        <time>2019-08-01T06:50:55.924Z</time>
      </trkpt>
      <trkpt lat="43.0335" lon="-1.19936333">
        <ele>1031.0</ele>
        <time>2019-08-01T06:50:56.929Z</time>
      </trkpt>
      <trkpt lat="43.03349833" lon="-1.19937">
        <ele>1031.0</ele>
        <time>2019-08-01T06:50:57.936Z</time>
      </trkpt>
      <trkpt lat="43.03349667" lon="-1.19937">
        <ele>1032.0</ele>
        <time>2019-08-01T06:50:58.943Z</time>
      </trkpt>
      <trkpt lat="43.03349667" lon="-1.19937167">
        <ele>1032.0</ele>
        <time>2019-08-01T06:50:59.950Z</time>
      </trkpt>
      <trkpt lat="43.03349667" lon="-1.19937167">
        <ele>1032.0</ele>
        <time>2019-08-01T06:51:00.956Z</time>
      </trkpt>
      <trkpt lat="43.03349667" lon="-1.19937167">
        <ele>1032.0</ele>
        <time>2019-08-01T06:51:01.962Z</time>
      </trkpt>
      <trkpt lat="43.03349667" lon="-1.19937">
        <ele>1033.0</ele>
        <time>2019-08-01T06:51:02.969Z</time>
      </trkpt>
      <trkpt lat="43.03349667" lon="-1.19937">
        <ele>1033.0</ele>
        <time>2019-08-01T06:51:03.976Z</time>
      </trkpt>
      <trkpt lat="43.03349833" lon="-1.19937">
        <ele>1033.0</ele>
        <time>2019-08-01T06:51:04.980Z</time>
      </trkpt>
      <trkpt lat="43.03349833" lon="-1.19936833">
        <ele>1033.0</ele>
        <time>2019-08-01T06:51:05.987Z</time>
      </trkpt>
      <trkpt lat="43.0335" lon="-1.199365">
        <ele>1032.0</ele>
        <time>2019-08-01T06:51:06.995Z</time>
      </trkpt>
      <trkpt lat="43.03350167" lon="-1.199365">
        <ele>1032.0</ele>
        <time>2019-08-01T06:51:08.000Z</time>
      </trkpt>
      <trkpt lat="43.03350167" lon="-1.19936333">
        <ele>1032.0</ele>
        <time>2019-08-01T06:51:09.004Z</time>
      </trkpt>
      <trkpt lat="43.0335" lon="-1.19936167">
        <ele>1032.0</ele>
        <time>2019-08-01T06:51:10.009Z</time>
      </trkpt>
      <trkpt lat="43.0335" lon="-1.19936167">
        <ele>1031.0</ele>
        <time>2019-08-01T06:51:11.015Z</time>
      </trkpt>
      <trkpt lat="43.03350167" lon="-1.19936333">
        <ele>1031.0</ele>
        <time>2019-08-01T06:51:12.022Z</time>
      </trkpt>
      <trkpt lat="43.0335" lon="-1.199365">
        <ele>1031.0</ele>
        <time>2019-08-01T06:51:13.028Z</time>
      </trkpt>
      <trkpt lat="43.0335" lon="-1.19936833">
        <ele>1032.0</ele>
        <time>2019-08-01T06:51:14.031Z</time>
      </trkpt>
      <trkpt lat="43.0335" lon="-1.19937167">
        <ele>1032.0</ele>
        <time>2019-08-01T06:51:15.035Z</time>
      </trkpt>
      <trkpt lat="43.03349833" lon="-1.199375">
        <ele>1033.0</ele>
        <time>2019-08-01T06:51:16.039Z</time>
      </trkpt>
      <trkpt lat="43.0335" lon="-1.19937833">
        <ele>1033.0</ele>
        <time>2019-08-01T06:51:16.920Z</time>
      </trkpt>
      <trkpt lat="43.0335" lon="-1.19937833">
        <ele>1032.0</ele>
        <time>2019-08-01T06:51:17.926Z</time>
      </trkpt>
      <trkpt lat="43.03350167" lon="-1.19938333">
        <ele>1032.0</ele>
        <time>2019-08-01T06:51:18.932Z</time>
      </trkpt>
      <trkpt lat="43.03350167" lon="-1.19938667">
        <ele>1032.0</ele>
        <time>2019-08-01T06:51:19.938Z</time>
      </trkpt>
      <trkpt lat="43.033505" lon="-1.199385">
        <ele>1032.0</ele>
        <time>2019-08-01T06:51:20.943Z</time>
      </trkpt>
      <trkpt lat="43.03350333" lon="-1.199385">
        <ele>1032.0</ele>
        <time>2019-08-01T06:51:21.951Z</time>
      </trkpt>
      <trkpt lat="43.03350333" lon="-1.19938333">
        <ele>1033.0</ele>
        <time>2019-08-01T06:51:22.956Z</time>
      </trkpt>
      <trkpt lat="43.03350667" lon="-1.19938333">
        <ele>1033.0</ele>
        <time>2019-08-01T06:51:23.963Z</time>
      </trkpt>
      <trkpt lat="43.03350833" lon="-1.19938167">
        <ele>1032.0</ele>
        <time>2019-08-01T06:51:24.971Z</time>
      </trkpt>
      <trkpt lat="43.03351167" lon="-1.19938167">
        <ele>1032.0</ele>
        <time>2019-08-01T06:51:25.975Z</time>
      </trkpt>
      <trkpt lat="43.03351167" lon="-1.19938333">
        <ele>1032.0</ele>
        <time>2019-08-01T06:51:26.981Z</time>
      </trkpt>
      <trkpt lat="43.03351167" lon="-1.19938167">
        <ele>1032.0</ele>
        <time>2019-08-01T06:51:27.987Z</time>
      </trkpt>
      <trkpt lat="43.03351" lon="-1.19938">
        <ele>1032.0</ele>
        <time>2019-08-01T06:51:28.995Z</time>
      </trkpt>
      <trkpt lat="43.03350833" lon="-1.19938">
        <ele>1032.0</ele>
        <time>2019-08-01T06:51:29.999Z</time>
      </trkpt>
      <trkpt lat="43.03350333" lon="-1.19937667">
        <ele>1032.0</ele>
        <time>2019-08-01T06:51:31.005Z</time>
      </trkpt>
      <trkpt lat="43.0335" lon="-1.19937333">
        <ele>1033.0</ele>
        <time>2019-08-01T06:51:32.010Z</time>
      </trkpt>
      <trkpt lat="43.03349833" lon="-1.19937167">
        <ele>1033.0</ele>
        <time>2019-08-01T06:51:33.016Z</time>
      </trkpt>
      <trkpt lat="43.03349833" lon="-1.19937">
        <ele>1033.0</ele>
        <time>2019-08-01T06:51:34.022Z</time>
      </trkpt>
      <trkpt lat="43.03349667" lon="-1.19937167">
        <ele>1033.0</ele>
        <time>2019-08-01T06:51:35.028Z</time>
      </trkpt>
      <trkpt lat="43.03349667" lon="-1.19937167">
        <ele>1033.0</ele>
        <time>2019-08-01T06:51:36.033Z</time>
      </trkpt>
      <trkpt lat="43.03349833" lon="-1.19937167">
        <ele>1032.0</ele>
        <time>2019-08-01T06:51:37.038Z</time>
      </trkpt>
      <trkpt lat="43.03349833" lon="-1.19937167">
        <ele>1032.0</ele>
        <time>2019-08-01T06:51:38.043Z</time>
      </trkpt>
      <trkpt lat="43.0335" lon="-1.19937167">
        <ele>1031.0</ele>
        <time>2019-08-01T06:51:38.923Z</time>
      </trkpt>
      <trkpt lat="43.0335" lon="-1.19937167">
        <ele>1031.0</ele>
        <time>2019-08-01T06:51:39.928Z</time>
      </trkpt>
      <trkpt lat="43.0335" lon="-1.19937333">
        <ele>1030.0</ele>
        <time>2019-08-01T06:51:40.934Z</time>
      </trkpt>
      <trkpt lat="43.03350333" lon="-1.19937667">
        <ele>1030.0</ele>
        <time>2019-08-01T06:51:41.940Z</time>
      </trkpt>
      <trkpt lat="43.033505" lon="-1.19937833">
        <ele>1029.0</ele>
        <time>2019-08-01T06:51:42.947Z</time>
      </trkpt>
      <trkpt lat="43.03350833" lon="-1.19937833">
        <ele>1028.0</ele>
        <time>2019-08-01T06:51:43.953Z</time>
      </trkpt>
      <trkpt lat="43.03350833" lon="-1.19937667">
        <ele>1028.0</ele>
        <time>2019-08-01T06:51:44.959Z</time>
      </trkpt>
      <trkpt lat="43.03351" lon="-1.19937833">
        <ele>1027.0</ele>
        <time>2019-08-01T06:51:45.965Z</time>
      </trkpt>
      <trkpt lat="43.03351167" lon="-1.19938">
        <ele>1027.0</ele>
        <time>2019-08-01T06:51:46.972Z</time>
      </trkpt>
      <trkpt lat="43.03351333" lon="-1.19938333">
        <ele>1027.0</ele>
        <time>2019-08-01T06:51:47.979Z</time>
      </trkpt>
      <trkpt lat="43.03351167" lon="-1.19938333">
        <ele>1027.0</ele>
        <time>2019-08-01T06:51:48.987Z</time>
      </trkpt>
      <trkpt lat="43.03351167" lon="-1.19938667">
        <ele>1027.0</ele>
        <time>2019-08-01T06:51:49.995Z</time>
      </trkpt>
      <trkpt lat="43.03351333" lon="-1.19938833">
        <ele>1026.0</ele>
        <time>2019-08-01T06:51:51.001Z</time>
      </trkpt>
      <trkpt lat="43.033515" lon="-1.199395">
        <ele>1026.0</ele>
        <time>2019-08-01T06:51:52.006Z</time>
      </trkpt>
      <trkpt lat="43.03351667" lon="-1.199395">
        <ele>1026.0</ele>
        <time>2019-08-01T06:51:53.012Z</time>
      </trkpt>
      <trkpt lat="43.03351833" lon="-1.19939667">
        <ele>1026.0</ele>
        <time>2019-08-01T06:51:54.015Z</time>
      </trkpt>
      <trkpt lat="43.03352167" lon="-1.19939667">
        <ele>1026.0</ele>
        <time>2019-08-01T06:51:55.022Z</time>
      </trkpt>
      <trkpt lat="43.03351833" lon="-1.19939333">
        <ele>1026.0</ele>
        <time>2019-08-01T06:51:56.029Z</time>
      </trkpt>
      <trkpt lat="43.03351833" lon="-1.19939333">
        <ele>1026.0</ele>
        <time>2019-08-01T06:51:57.035Z</time>
      </trkpt>
      <trkpt lat="43.03351833" lon="-1.19939333">
        <ele>1026.0</ele>
        <time>2019-08-01T06:51:58.039Z</time>
      </trkpt>
      <trkpt lat="43.03352" lon="-1.19939333">
        <ele>1026.0</ele>
        <time>2019-08-01T06:51:59.042Z</time>
      </trkpt>
      <trkpt lat="43.03351833" lon="-1.19939333">
        <ele>1026.0</ele>
        <time>2019-08-01T06:51:59.921Z</time>
      </trkpt>
      <trkpt lat="43.03351833" lon="-1.19939333">
        <ele>1026.0</ele>
        <time>2019-08-01T06:52:00.927Z</time>
      </trkpt>
      <trkpt lat="43.03351833" lon="-1.19939333">
        <ele>1026.0</ele>
        <time>2019-08-01T06:52:01.934Z</time>
      </trkpt>
      <trkpt lat="43.03352" lon="-1.19939">
        <ele>1026.0</ele>
        <time>2019-08-01T06:52:02.941Z</time>
      </trkpt>
      <trkpt lat="43.03352167" lon="-1.19938833">
        <ele>1026.0</ele>
        <time>2019-08-01T06:52:03.947Z</time>
      </trkpt>
      <trkpt lat="43.03352" lon="-1.199385">
        <ele>1027.0</ele>
        <time>2019-08-01T06:52:04.953Z</time>
      </trkpt>
      <trkpt lat="43.03352" lon="-1.19938333">
        <ele>1027.0</ele>
        <time>2019-08-01T06:52:05.957Z</time>
      </trkpt>
      <trkpt lat="43.03352167" lon="-1.19938333">
        <ele>1027.0</ele>
        <time>2019-08-01T06:52:06.966Z</time>
      </trkpt>
      <trkpt lat="43.03352333" lon="-1.19938167">
        <ele>1027.0</ele>
        <time>2019-08-01T06:52:07.972Z</time>
      </trkpt>
      <trkpt lat="43.03352" lon="-1.19938">
        <ele>1027.0</ele>
        <time>2019-08-01T06:52:08.979Z</time>
      </trkpt>
      <trkpt lat="43.03352" lon="-1.19938167">
        <ele>1028.0</ele>
        <time>2019-08-01T06:52:09.985Z</time>
      </trkpt>
      <trkpt lat="43.03351833" lon="-1.199385">
        <ele>1028.0</ele>
        <time>2019-08-01T06:52:10.991Z</time>
      </trkpt>
      <trkpt lat="43.03351833" lon="-1.19938667">
        <ele>1028.0</ele>
        <time>2019-08-01T06:52:11.997Z</time>
      </trkpt>
      <trkpt lat="43.03351833" lon="-1.19938833">
        <ele>1028.0</ele>
        <time>2019-08-01T06:52:13.004Z</time>
      </trkpt>
      <trkpt lat="43.03351667" lon="-1.19939">
        <ele>1029.0</ele>
        <time>2019-08-01T06:52:14.010Z</time>
      </trkpt>
      <trkpt lat="43.03351833" lon="-1.19939167">
        <ele>1028.0</ele>
        <time>2019-08-01T06:52:15.016Z</time>
      </trkpt>
      <trkpt lat="43.03351667" lon="-1.19939333">
        <ele>1029.0</ele>
        <time>2019-08-01T06:52:16.024Z</time>
      </trkpt>
      <trkpt lat="43.03351833" lon="-1.19939333">
        <ele>1029.0</ele>
        <time>2019-08-01T06:52:17.027Z</time>
      </trkpt>
      <trkpt lat="43.03351833" lon="-1.19939167">
        <ele>1029.0</ele>
        <time>2019-08-01T06:52:18.033Z</time>
      </trkpt>
      <trkpt lat="43.03352" lon="-1.19939167">
        <ele>1029.0</ele>
        <time>2019-08-01T06:52:19.038Z</time>
      </trkpt>
      <trkpt lat="43.03352" lon="-1.19939">
        <ele>1029.0</ele>
        <time>2019-08-01T06:52:20.043Z</time>
      </trkpt>
      <trkpt lat="43.03352167" lon="-1.19939333">
        <ele>1029.0</ele>
        <time>2019-08-01T06:52:20.922Z</time>
      </trkpt>
      <trkpt lat="43.03352333" lon="-1.19939667">
        <ele>1029.0</ele>
        <time>2019-08-01T06:52:21.929Z</time>
      </trkpt>
      <trkpt lat="43.03352167" lon="-1.19939833">
        <ele>1030.0</ele>
        <time>2019-08-01T06:52:22.936Z</time>
      </trkpt>
      <trkpt lat="43.03352333" lon="-1.19939667">
        <ele>1029.0</ele>
        <time>2019-08-01T06:52:23.942Z</time>
      </trkpt>
      <trkpt lat="43.033525" lon="-1.19939167">
        <ele>1029.0</ele>
        <time>2019-08-01T06:52:24.948Z</time>
      </trkpt>
      <trkpt lat="43.033525" lon="-1.199385">
        <ele>1029.0</ele>
        <time>2019-08-01T06:52:25.953Z</time>
      </trkpt>
      <trkpt lat="43.03352333" lon="-1.19938167">
        <ele>1029.0</ele>
        <time>2019-08-01T06:52:26.958Z</time>
      </trkpt>
      <trkpt lat="43.03352333" lon="-1.19938167">
        <ele>1029.0</ele>
        <time>2019-08-01T06:52:27.966Z</time>
      </trkpt>
      <trkpt lat="43.03352167" lon="-1.19938">
        <ele>1030.0</ele>
        <time>2019-08-01T06:52:28.973Z</time>
      </trkpt>
      <trkpt lat="43.03352" lon="-1.19937833">
        <ele>1030.0</ele>
        <time>2019-08-01T06:52:29.979Z</time>
      </trkpt>
      <trkpt lat="43.03352" lon="-1.19937833">
        <ele>1030.0</ele>
        <time>2019-08-01T06:52:30.986Z</time>
      </trkpt>
      <trkpt lat="43.03351833" lon="-1.19937833">
        <ele>1031.0</ele>
        <time>2019-08-01T06:52:31.992Z</time>
      </trkpt>
      <trkpt lat="43.033515" lon="-1.19938">
        <ele>1031.0</ele>
        <time>2019-08-01T06:52:32.999Z</time>
      </trkpt>
      <trkpt lat="43.03351333" lon="-1.19938">
        <ele>1031.0</ele>
        <time>2019-08-01T06:52:34.004Z</time>
      </trkpt>
      <trkpt lat="43.033515" lon="-1.19938">
        <ele>1031.0</ele>
        <time>2019-08-01T06:52:35.011Z</time>
      </trkpt>
      <trkpt lat="43.03351333" lon="-1.19938">
        <ele>1031.0</ele>
        <time>2019-08-01T06:52:36.017Z</time>
      </trkpt>
      <trkpt lat="43.03351667" lon="-1.19938">
        <ele>1030.0</ele>
        <time>2019-08-01T06:52:37.025Z</time>
      </trkpt>
      <trkpt lat="43.03351833" lon="-1.19938">
        <ele>1030.0</ele>
        <time>2019-08-01T06:52:38.031Z</time>
      </trkpt>
      <trkpt lat="43.03352" lon="-1.19937833">
        <ele>1030.0</ele>
        <time>2019-08-01T06:52:39.036Z</time>
      </trkpt>
      <trkpt lat="43.03352" lon="-1.19938">
        <ele>1030.0</ele>
        <time>2019-08-01T06:52:40.041Z</time>
      </trkpt>
      <trkpt lat="43.03352167" lon="-1.19937833">
        <ele>1029.0</ele>
        <time>2019-08-01T06:52:40.921Z</time>
      </trkpt>
      <trkpt lat="43.03352333" lon="-1.19937833">
        <ele>1029.0</ele>
        <time>2019-08-01T06:52:41.923Z</time>
      </trkpt>
      <trkpt lat="43.033525" lon="-1.19937833">
        <ele>1029.0</ele>
        <time>2019-08-01T06:52:42.926Z</time>
      </trkpt>
      <trkpt lat="43.033525" lon="-1.19937667">
        <ele>1029.0</ele>
        <time>2019-08-01T06:52:43.933Z</time>
      </trkpt>
      <trkpt lat="43.033525" lon="-1.19937667">
        <ele>1029.0</ele>
        <time>2019-08-01T06:52:44.940Z</time>
      </trkpt>
      <trkpt lat="43.033525" lon="-1.19937833">
        <ele>1029.0</ele>
        <time>2019-08-01T06:52:45.945Z</time>
      </trkpt>
      <trkpt lat="43.03352333" lon="-1.19937833">
        <ele>1029.0</ele>
        <time>2019-08-01T06:52:46.952Z</time>
      </trkpt>
      <trkpt lat="43.033525" lon="-1.19937833">
        <ele>1028.0</ele>
        <time>2019-08-01T06:52:47.958Z</time>
      </trkpt>
      <trkpt lat="43.033525" lon="-1.19937833">
        <ele>1028.0</ele>
        <time>2019-08-01T06:52:48.963Z</time>
      </trkpt>
      <trkpt lat="43.033525" lon="-1.19937833">
        <ele>1028.0</ele>
        <time>2019-08-01T06:52:49.970Z</time>
      </trkpt>
      <trkpt lat="43.03352333" lon="-1.19937667">
        <ele>1028.0</ele>
        <time>2019-08-01T06:52:50.975Z</time>
      </trkpt>
      <trkpt lat="43.03352333" lon="-1.19937833">
        <ele>1028.0</ele>
        <time>2019-08-01T06:52:51.982Z</time>
      </trkpt>
      <trkpt lat="43.033525" lon="-1.19937667">
        <ele>1028.0</ele>
        <time>2019-08-01T06:52:52.990Z</time>
      </trkpt>
      <trkpt lat="43.03352667" lon="-1.199375">
        <ele>1028.0</ele>
        <time>2019-08-01T06:52:53.996Z</time>
      </trkpt>
      <trkpt lat="43.03353" lon="-1.19937167">
        <ele>1028.0</ele>
        <time>2019-08-01T06:52:55.004Z</time>
      </trkpt>
      <trkpt lat="43.03353" lon="-1.19936833">
        <ele>1028.0</ele>
        <time>2019-08-01T06:52:56.009Z</time>
      </trkpt>
      <trkpt lat="43.03352833" lon="-1.19936833">
        <ele>1028.0</ele>
        <time>2019-08-01T06:52:57.016Z</time>
      </trkpt>
      <trkpt lat="43.03352833" lon="-1.19937">
        <ele>1028.0</ele>
        <time>2019-08-01T06:52:58.021Z</time>
      </trkpt>
      <trkpt lat="43.03352833" lon="-1.19936833">
        <ele>1029.0</ele>
        <time>2019-08-01T06:52:59.026Z</time>
      </trkpt>
      <trkpt lat="43.03352667" lon="-1.19937">
        <ele>1029.0</ele>
        <time>2019-08-01T06:53:00.030Z</time>
      </trkpt>
      <trkpt lat="43.03352667" lon="-1.19937167">
        <ele>1030.0</ele>
        <time>2019-08-01T06:53:01.036Z</time>
      </trkpt>
      <trkpt lat="43.03352833" lon="-1.19937333">
        <ele>1030.0</ele>
        <time>2019-08-01T06:53:02.041Z</time>
      </trkpt>
      <trkpt lat="43.03352667" lon="-1.19937333">
        <ele>1030.0</ele>
        <time>2019-08-01T06:53:02.922Z</time>
      </trkpt>
      <trkpt lat="43.03352333" lon="-1.199375">
        <ele>1030.0</ele>
        <time>2019-08-01T06:53:03.927Z</time>
      </trkpt>
      <trkpt lat="43.03352333" lon="-1.19937167">
        <ele>1030.0</ele>
        <time>2019-08-01T06:53:04.934Z</time>
      </trkpt>
      <trkpt lat="43.03352167" lon="-1.19936833">
        <ele>1030.0</ele>
        <time>2019-08-01T06:53:05.940Z</time>
      </trkpt>
      <trkpt lat="43.03352167" lon="-1.19936667">
        <ele>1030.0</ele>
        <time>2019-08-01T06:53:06.941Z</time>
      </trkpt>
      <trkpt lat="43.03352333" lon="-1.19936333">
        <ele>1029.0</ele>
        <time>2019-08-01T06:53:07.945Z</time>
      </trkpt>
      <trkpt lat="43.03352167" lon="-1.19936333">
        <ele>1029.0</ele>
        <time>2019-08-01T06:53:08.952Z</time>
      </trkpt>
      <trkpt lat="43.03352167" lon="-1.19936333">
        <ele>1030.0</ele>
        <time>2019-08-01T06:53:09.954Z</time>
      </trkpt>
      <trkpt lat="43.03352167" lon="-1.199365">
        <ele>1029.0</ele>
        <time>2019-08-01T06:53:10.959Z</time>
      </trkpt>
      <trkpt lat="43.03352167" lon="-1.19936667">
        <ele>1029.0</ele>
        <time>2019-08-01T06:53:11.966Z</time>
      </trkpt>
      <trkpt lat="43.03352333" lon="-1.19937">
        <ele>1029.0</ele>
        <time>2019-08-01T06:53:12.972Z</time>
      </trkpt>
      <trkpt lat="43.033525" lon="-1.19937">
        <ele>1029.0</ele>
        <time>2019-08-01T06:53:13.977Z</time>
      </trkpt>
      <trkpt lat="43.03352667" lon="-1.19937167">
        <ele>1029.0</ele>
        <time>2019-08-01T06:53:14.983Z</time>
      </trkpt>
      <trkpt lat="43.033525" lon="-1.19937167">
        <ele>1029.0</ele>
        <time>2019-08-01T06:53:15.989Z</time>
      </trkpt>
      <trkpt lat="43.03352833" lon="-1.19937">
        <ele>1029.0</ele>
        <time>2019-08-01T06:53:16.996Z</time>
      </trkpt>
      <trkpt lat="43.03352833" lon="-1.19937333">
        <ele>1029.0</ele>
        <time>2019-08-01T06:53:18.001Z</time>
      </trkpt>
      <trkpt lat="43.03352667" lon="-1.19937667">
        <ele>1029.0</ele>
        <time>2019-08-01T06:53:19.007Z</time>
      </trkpt>
      <trkpt lat="43.03352667" lon="-1.19937667">
        <ele>1029.0</ele>
        <time>2019-08-01T06:53:20.013Z</time>
      </trkpt>
      <trkpt lat="43.03352667" lon="-1.19950667">
        <ele>1035.0</ele>
        <time>2019-08-01T06:53:22.021Z</time>
      </trkpt>
      <trkpt lat="43.033525" lon="-1.19951167">
        <ele>1035.0</ele>
        <time>2019-08-01T06:53:23.026Z</time>
      </trkpt>
      <trkpt lat="43.033525" lon="-1.19952167">
        <ele>1035.0</ele>
        <time>2019-08-01T06:53:24.028Z</time>
      </trkpt>
      <trkpt lat="43.03352333" lon="-1.19953">
        <ele>1035.0</ele>
        <time>2019-08-01T06:53:25.032Z</time>
      </trkpt>
      <trkpt lat="43.03352333" lon="-1.19954333">
        <ele>1034.0</ele>
        <time>2019-08-01T06:53:26.039Z</time>
      </trkpt>
      <trkpt lat="43.03352333" lon="-1.19954333">
        <ele>1034.0</ele>
        <time>2019-08-01T06:53:26.918Z</time>
      </trkpt>
      <trkpt lat="43.03352167" lon="-1.19955333">
        <ele>1034.0</ele>
        <time>2019-08-01T06:53:27.924Z</time>
      </trkpt>
      <trkpt lat="43.03352167" lon="-1.19956">
        <ele>1034.0</ele>
        <time>2019-08-01T06:53:28.930Z</time>
      </trkpt>
      <trkpt lat="43.03352" lon="-1.199565">
        <ele>1034.0</ele>
        <time>2019-08-01T06:53:29.937Z</time>
      </trkpt>
      <trkpt lat="43.03352167" lon="-1.199565">
        <ele>1035.0</ele>
        <time>2019-08-01T06:53:30.942Z</time>
      </trkpt>
      <trkpt lat="43.03352" lon="-1.19956667">
        <ele>1035.0</ele>
        <time>2019-08-01T06:53:31.949Z</time>
      </trkpt>
      <trkpt lat="43.033515" lon="-1.19956333">
        <ele>1035.0</ele>
        <time>2019-08-01T06:53:32.955Z</time>
      </trkpt>
      <trkpt lat="43.03351667" lon="-1.19956667">
        <ele>1035.0</ele>
        <time>2019-08-01T06:53:33.961Z</time>
      </trkpt>
      <trkpt lat="43.033515" lon="-1.19957">
        <ele>1034.0</ele>
        <time>2019-08-01T06:53:34.966Z</time>
      </trkpt>
      <trkpt lat="43.03352" lon="-1.19957833">
        <ele>1033.0</ele>
        <time>2019-08-01T06:53:35.972Z</time>
      </trkpt>
      <trkpt lat="43.03352333" lon="-1.19958833">
        <ele>1032.0</ele>
        <time>2019-08-01T06:53:36.977Z</time>
      </trkpt>
      <trkpt lat="43.03352667" lon="-1.19959333">
        <ele>1032.0</ele>
        <time>2019-08-01T06:53:37.983Z</time>
      </trkpt>
      <trkpt lat="43.03352667" lon="-1.19959833">
        <ele>1031.0</ele>
        <time>2019-08-01T06:53:38.989Z</time>
      </trkpt>
      <trkpt lat="43.03352667" lon="-1.1996">
        <ele>1031.0</ele>
        <time>2019-08-01T06:53:39.998Z</time>
      </trkpt>
      <trkpt lat="43.03352667" lon="-1.19960167">
        <ele>1031.0</ele>
        <time>2019-08-01T06:53:41.003Z</time>
      </trkpt>
      <trkpt lat="43.03352333" lon="-1.19960667">
        <ele>1031.0</ele>
        <time>2019-08-01T06:53:42.009Z</time>
      </trkpt>
      <trkpt lat="43.03352333" lon="-1.19961">
        <ele>1031.0</ele>
        <time>2019-08-01T06:53:43.016Z</time>
      </trkpt>
      <trkpt lat="43.03352167" lon="-1.19961333">
        <ele>1030.0</ele>
        <time>2019-08-01T06:53:44.022Z</time>
      </trkpt>
      <trkpt lat="43.03352167" lon="-1.19962167">
        <ele>1030.0</ele>
        <time>2019-08-01T06:53:45.027Z</time>
      </trkpt>
      <trkpt lat="43.03352" lon="-1.19963167">
        <ele>1030.0</ele>
        <time>2019-08-01T06:53:46.031Z</time>
      </trkpt>
      <trkpt lat="43.03351667" lon="-1.19964333">
        <ele>1031.0</ele>
        <time>2019-08-01T06:53:47.038Z</time>
      </trkpt>
      <trkpt lat="43.03351667" lon="-1.19964333">
        <ele>1031.0</ele>
        <time>2019-08-01T06:53:47.918Z</time>
      </trkpt>
      <trkpt lat="43.033515" lon="-1.19965667">
        <ele>1031.0</ele>
        <time>2019-08-01T06:53:48.921Z</time>
      </trkpt>
      <trkpt lat="43.03351333" lon="-1.19967167">
        <ele>1031.0</ele>
        <time>2019-08-01T06:53:49.927Z</time>
      </trkpt>
      <trkpt lat="43.03351333" lon="-1.199685">
        <ele>1031.0</ele>
        <time>2019-08-01T06:53:50.934Z</time>
      </trkpt>
      <trkpt lat="43.03351167" lon="-1.19969833">
        <ele>1031.0</ele>
        <time>2019-08-01T06:53:51.938Z</time>
      </trkpt>
      <trkpt lat="43.03351" lon="-1.19971333">
        <ele>1030.0</ele>
        <time>2019-08-01T06:53:52.944Z</time>
      </trkpt>
      <trkpt lat="43.03351" lon="-1.19974333">
        <ele>1030.0</ele>
        <time>2019-08-01T06:53:53.949Z</time>
      </trkpt>
      <trkpt lat="43.03351" lon="-1.19976">
        <ele>1030.0</ele>
        <time>2019-08-01T06:53:54.957Z</time>
      </trkpt>
      <trkpt lat="43.03351" lon="-1.199775">
        <ele>1029.0</ele>
        <time>2019-08-01T06:53:55.963Z</time>
      </trkpt>
      <trkpt lat="43.03351167" lon="-1.19979667">
        <ele>1029.0</ele>
        <time>2019-08-01T06:53:56.971Z</time>
      </trkpt>
      <trkpt lat="43.03351333" lon="-1.199815">
        <ele>1030.0</ele>
        <time>2019-08-01T06:53:57.976Z</time>
      </trkpt>
      <trkpt lat="43.03351667" lon="-1.19983333">
        <ele>1029.0</ele>
        <time>2019-08-01T06:53:58.980Z</time>
      </trkpt>
      <trkpt lat="43.033515" lon="-1.19984667">
        <ele>1029.0</ele>
        <time>2019-08-01T06:53:59.985Z</time>
      </trkpt>
      <trkpt lat="43.03351333" lon="-1.19986667">
        <ele>1029.0</ele>
        <time>2019-08-01T06:54:00.990Z</time>
      </trkpt>
      <trkpt lat="43.033515" lon="-1.19988333">
        <ele>1030.0</ele>
        <time>2019-08-01T06:54:01.997Z</time>
      </trkpt>
      <trkpt lat="43.033515" lon="-1.19989833">
        <ele>1029.0</ele>
        <time>2019-08-01T06:54:03.003Z</time>
      </trkpt>
      <trkpt lat="43.03351833" lon="-1.19991">
        <ele>1029.0</ele>
        <time>2019-08-01T06:54:04.009Z</time>
      </trkpt>
      <trkpt lat="43.03352167" lon="-1.19992333">
        <ele>1029.0</ele>
        <time>2019-08-01T06:54:05.015Z</time>
      </trkpt>
      <trkpt lat="43.03352167" lon="-1.19994333">
        <ele>1029.0</ele>
        <time>2019-08-01T06:54:06.023Z</time>
      </trkpt>
      <trkpt lat="43.03352333" lon="-1.199955">
        <ele>1030.0</ele>
        <time>2019-08-01T06:54:07.028Z</time>
      </trkpt>
      <trkpt lat="43.03352333" lon="-1.19996167">
        <ele>1030.0</ele>
        <time>2019-08-01T06:54:08.034Z</time>
      </trkpt>
      <trkpt lat="43.03352333" lon="-1.19996667">
        <ele>1031.0</ele>
        <time>2019-08-01T06:54:09.039Z</time>
      </trkpt>
      <trkpt lat="43.03349833" lon="-1.20002">
        <ele>1043.0</ele>
        <time>2019-08-01T06:54:10.920Z</time>
      </trkpt>
      <trkpt lat="43.03350167" lon="-1.20002833">
        <ele>1042.0</ele>
        <time>2019-08-01T06:54:11.922Z</time>
      </trkpt>
      <trkpt lat="43.03350667" lon="-1.20005333">
        <ele>1041.0</ele>
        <time>2019-08-01T06:54:12.928Z</time>
      </trkpt>
      <trkpt lat="43.03350667" lon="-1.20005333">
        <ele>1041.0</ele>
        <time>2019-08-01T06:54:13.934Z</time>
      </trkpt>
      <trkpt lat="43.03351" lon="-1.20006833">
        <ele>1041.0</ele>
        <time>2019-08-01T06:54:14.940Z</time>
      </trkpt>
      <trkpt lat="43.03351667" lon="-1.20008667">
        <ele>1041.0</ele>
        <time>2019-08-01T06:54:15.944Z</time>
      </trkpt>
      <trkpt lat="43.03352167" lon="-1.20011833">
        <ele>1041.0</ele>
        <time>2019-08-01T06:54:16.952Z</time>
      </trkpt>
      <trkpt lat="43.03352667" lon="-1.20013667">
        <ele>1040.0</ele>
        <time>2019-08-01T06:54:17.959Z</time>
      </trkpt>
      <trkpt lat="43.03352833" lon="-1.20015333">
        <ele>1040.0</ele>
        <time>2019-08-01T06:54:18.964Z</time>
      </trkpt>
      <trkpt lat="43.03353167" lon="-1.20017333">
        <ele>1040.0</ele>
        <time>2019-08-01T06:54:19.969Z</time>
      </trkpt>
      <trkpt lat="43.03353333" lon="-1.20019667">
        <ele>1040.0</ele>
        <time>2019-08-01T06:54:20.976Z</time>
      </trkpt>
      <trkpt lat="43.033535" lon="-1.20021833">
        <ele>1040.0</ele>
        <time>2019-08-01T06:54:21.982Z</time>
      </trkpt>
      <trkpt lat="43.03353833" lon="-1.20024">
        <ele>1039.0</ele>
        <time>2019-08-01T06:54:22.990Z</time>
      </trkpt>
      <trkpt lat="43.03354167" lon="-1.20025667">
        <ele>1039.0</ele>
        <time>2019-08-01T06:54:23.997Z</time>
      </trkpt>
      <trkpt lat="43.03354333" lon="-1.20027833">
        <ele>1039.0</ele>
        <time>2019-08-01T06:54:25.002Z</time>
      </trkpt>
      <trkpt lat="43.033545" lon="-1.2003">
        <ele>1038.0</ele>
        <time>2019-08-01T06:54:26.009Z</time>
      </trkpt>
      <trkpt lat="43.03354667" lon="-1.20032">
        <ele>1038.0</ele>
        <time>2019-08-01T06:54:27.015Z</time>
      </trkpt>
      <trkpt lat="43.03354833" lon="-1.20033833">
        <ele>1039.0</ele>
        <time>2019-08-01T06:54:28.021Z</time>
      </trkpt>
      <trkpt lat="43.03355" lon="-1.200355">
        <ele>1039.0</ele>
        <time>2019-08-01T06:54:29.027Z</time>
      </trkpt>
      <trkpt lat="43.03355333" lon="-1.20037833">
        <ele>1039.0</ele>
        <time>2019-08-01T06:54:30.031Z</time>
      </trkpt>
      <trkpt lat="43.033555" lon="-1.20039833">
        <ele>1038.0</ele>
        <time>2019-08-01T06:54:31.037Z</time>
      </trkpt>
      <trkpt lat="43.033555" lon="-1.200415">
        <ele>1038.0</ele>
        <time>2019-08-01T06:54:32.041Z</time>
      </trkpt>
      <trkpt lat="43.03355667" lon="-1.200435">
        <ele>1037.0</ele>
        <time>2019-08-01T06:54:32.922Z</time>
      </trkpt>
      <trkpt lat="43.03355667" lon="-1.200435">
        <ele>1037.0</ele>
        <time>2019-08-01T06:54:33.927Z</time>
      </trkpt>
      <trkpt lat="43.03355833" lon="-1.20045167">
        <ele>1037.0</ele>
        <time>2019-08-01T06:54:34.931Z</time>
      </trkpt>
      <trkpt lat="43.03355833" lon="-1.20047333">
        <ele>1037.0</ele>
        <time>2019-08-01T06:54:35.936Z</time>
      </trkpt>
      <trkpt lat="43.03356" lon="-1.20050833">
        <ele>1037.0</ele>
        <time>2019-08-01T06:54:36.942Z</time>
      </trkpt>
      <trkpt lat="43.03356333" lon="-1.200525">
        <ele>1037.0</ele>
        <time>2019-08-01T06:54:37.947Z</time>
      </trkpt>
      <trkpt lat="43.03356667" lon="-1.20054667">
        <ele>1037.0</ele>
        <time>2019-08-01T06:54:38.953Z</time>
      </trkpt>
      <trkpt lat="43.03356833" lon="-1.20056667">
        <ele>1037.0</ele>
        <time>2019-08-01T06:54:39.959Z</time>
      </trkpt>
      <trkpt lat="43.03357167" lon="-1.20058">
        <ele>1036.0</ele>
        <time>2019-08-01T06:54:40.967Z</time>
      </trkpt>
      <trkpt lat="43.03357333" lon="-1.2006">
        <ele>1036.0</ele>
        <time>2019-08-01T06:54:41.974Z</time>
      </trkpt>
      <trkpt lat="43.033575" lon="-1.20062167">
        <ele>1036.0</ele>
        <time>2019-08-01T06:54:42.980Z</time>
      </trkpt>
      <trkpt lat="43.03357833" lon="-1.20064">
        <ele>1036.0</ele>
        <time>2019-08-01T06:54:43.985Z</time>
      </trkpt>
      <trkpt lat="43.03358167" lon="-1.20065833">
        <ele>1036.0</ele>
        <time>2019-08-01T06:54:44.992Z</time>
      </trkpt>
      <trkpt lat="43.033585" lon="-1.20067333">
        <ele>1035.0</ele>
        <time>2019-08-01T06:54:45.996Z</time>
      </trkpt>
      <trkpt lat="43.03359" lon="-1.20069">
        <ele>1035.0</ele>
        <time>2019-08-01T06:54:47.002Z</time>
      </trkpt>
      <trkpt lat="43.03359833" lon="-1.20071">
        <ele>1035.0</ele>
        <time>2019-08-01T06:54:48.008Z</time>
      </trkpt>
      <trkpt lat="43.03360333" lon="-1.20073">
        <ele>1035.0</ele>
        <time>2019-08-01T06:54:49.011Z</time>
      </trkpt>
      <trkpt lat="43.03361" lon="-1.20074833">
        <ele>1035.0</ele>
        <time>2019-08-01T06:54:50.018Z</time>
      </trkpt>
      <trkpt lat="43.03361333" lon="-1.20076667">
        <ele>1035.0</ele>
        <time>2019-08-01T06:54:51.024Z</time>
      </trkpt>
      <trkpt lat="43.03361667" lon="-1.200785">
        <ele>1035.0</ele>
        <time>2019-08-01T06:54:52.029Z</time>
      </trkpt>
      <trkpt lat="43.03362" lon="-1.20080333">
        <ele>1036.0</ele>
        <time>2019-08-01T06:54:53.035Z</time>
      </trkpt>
      <trkpt lat="43.033625" lon="-1.20081833">
        <ele>1036.0</ele>
        <time>2019-08-01T06:54:54.041Z</time>
      </trkpt>
      <trkpt lat="43.033625" lon="-1.20081833">
        <ele>1036.0</ele>
        <time>2019-08-01T06:54:54.923Z</time>
      </trkpt>
      <trkpt lat="43.03363167" lon="-1.20083">
        <ele>1036.0</ele>
        <time>2019-08-01T06:54:55.928Z</time>
      </trkpt>
      <trkpt lat="43.03363833" lon="-1.20086833">
        <ele>1035.0</ele>
        <time>2019-08-01T06:54:56.934Z</time>
      </trkpt>
      <trkpt lat="43.03364" lon="-1.20088667">
        <ele>1035.0</ele>
        <time>2019-08-01T06:54:57.938Z</time>
      </trkpt>
      <trkpt lat="43.03364333" lon="-1.2009">
        <ele>1035.0</ele>
        <time>2019-08-01T06:54:58.944Z</time>
      </trkpt>
      <trkpt lat="43.03364667" lon="-1.20091667">
        <ele>1035.0</ele>
        <time>2019-08-01T06:54:59.950Z</time>
      </trkpt>
      <trkpt lat="43.03364667" lon="-1.20091667">
        <ele>1035.0</ele>
        <time>2019-08-01T06:55:00.954Z</time>
      </trkpt>
      <trkpt lat="43.03365833" lon="-1.20095333">
        <ele>1035.0</ele>
        <time>2019-08-01T06:55:01.961Z</time>
      </trkpt>
      <trkpt lat="43.033665" lon="-1.20096833">
        <ele>1035.0</ele>
        <time>2019-08-01T06:55:02.969Z</time>
      </trkpt>
      <trkpt lat="43.03367167" lon="-1.20098667">
        <ele>1035.0</ele>
        <time>2019-08-01T06:55:03.974Z</time>
      </trkpt>
      <trkpt lat="43.03367833" lon="-1.20100833">
        <ele>1035.0</ele>
        <time>2019-08-01T06:55:04.981Z</time>
      </trkpt>
      <trkpt lat="43.033685" lon="-1.20102333">
        <ele>1036.0</ele>
        <time>2019-08-01T06:55:05.987Z</time>
      </trkpt>
      <trkpt lat="43.03369167" lon="-1.20103833">
        <ele>1036.0</ele>
        <time>2019-08-01T06:55:06.993Z</time>
      </trkpt>
      <trkpt lat="43.03369833" lon="-1.20105167">
        <ele>1036.0</ele>
        <time>2019-08-01T06:55:07.999Z</time>
      </trkpt>
      <trkpt lat="43.03370333" lon="-1.20107167">
        <ele>1036.0</ele>
        <time>2019-08-01T06:55:09.005Z</time>
      </trkpt>
      <trkpt lat="43.03370833" lon="-1.20109333">
        <ele>1037.0</ele>
        <time>2019-08-01T06:55:10.010Z</time>
      </trkpt>
      <trkpt lat="43.03371667" lon="-1.20111167">
        <ele>1037.0</ele>
        <time>2019-08-01T06:55:11.016Z</time>
      </trkpt>
      <trkpt lat="43.03372333" lon="-1.20112833">
        <ele>1037.0</ele>
        <time>2019-08-01T06:55:12.022Z</time>
      </trkpt>
      <trkpt lat="43.03372833" lon="-1.20114167">
        <ele>1037.0</ele>
        <time>2019-08-01T06:55:13.027Z</time>
      </trkpt>
      <trkpt lat="43.03373667" lon="-1.20116167">
        <ele>1037.0</ele>
        <time>2019-08-01T06:55:14.034Z</time>
      </trkpt>
      <trkpt lat="43.03374667" lon="-1.20117833">
        <ele>1037.0</ele>
        <time>2019-08-01T06:55:15.039Z</time>
      </trkpt>
      <trkpt lat="43.03374667" lon="-1.20117833">
        <ele>1037.0</ele>
        <time>2019-08-01T06:55:15.920Z</time>
      </trkpt>
      <trkpt lat="43.03376333" lon="-1.20121167">
        <ele>1036.0</ele>
        <time>2019-08-01T06:55:16.923Z</time>
      </trkpt>
      <trkpt lat="43.03377" lon="-1.20122833">
        <ele>1036.0</ele>
        <time>2019-08-01T06:55:17.928Z</time>
      </trkpt>
      <trkpt lat="43.03377" lon="-1.20122833">
        <ele>1036.0</ele>
        <time>2019-08-01T06:55:18.933Z</time>
      </trkpt>
      <trkpt lat="43.03377833" lon="-1.201245">
        <ele>1036.0</ele>
        <time>2019-08-01T06:55:19.938Z</time>
      </trkpt>
      <trkpt lat="43.03378667" lon="-1.20126">
        <ele>1036.0</ele>
        <time>2019-08-01T06:55:20.944Z</time>
      </trkpt>
      <trkpt lat="43.03379833" lon="-1.20129167">
        <ele>1037.0</ele>
        <time>2019-08-01T06:55:21.951Z</time>
      </trkpt>
      <trkpt lat="43.03380667" lon="-1.20130833">
        <ele>1037.0</ele>
        <time>2019-08-01T06:55:22.958Z</time>
      </trkpt>
      <trkpt lat="43.03381333" lon="-1.201325">
        <ele>1037.0</ele>
        <time>2019-08-01T06:55:23.964Z</time>
      </trkpt>
      <trkpt lat="43.03382" lon="-1.20134">
        <ele>1037.0</ele>
        <time>2019-08-01T06:55:24.970Z</time>
      </trkpt>
      <trkpt lat="43.03382833" lon="-1.201355">
        <ele>1037.0</ele>
        <time>2019-08-01T06:55:25.977Z</time>
      </trkpt>
      <trkpt lat="43.03383667" lon="-1.201375">
        <ele>1037.0</ele>
        <time>2019-08-01T06:55:26.984Z</time>
      </trkpt>
      <trkpt lat="43.033845" lon="-1.20139333">
        <ele>1037.0</ele>
        <time>2019-08-01T06:55:27.989Z</time>
      </trkpt>
      <trkpt lat="43.03385167" lon="-1.20141">
        <ele>1037.0</ele>
        <time>2019-08-01T06:55:28.996Z</time>
      </trkpt>
      <trkpt lat="43.03386" lon="-1.20142833">
        <ele>1037.0</ele>
        <time>2019-08-01T06:55:30.003Z</time>
      </trkpt>
      <trkpt lat="43.03386833" lon="-1.201445">
        <ele>1037.0</ele>
        <time>2019-08-01T06:55:31.007Z</time>
      </trkpt>
      <trkpt lat="43.03387667" lon="-1.20146">
        <ele>1037.0</ele>
        <time>2019-08-01T06:55:32.013Z</time>
      </trkpt>
      <trkpt lat="43.03388333" lon="-1.201475">
        <ele>1037.0</ele>
        <time>2019-08-01T06:55:33.019Z</time>
      </trkpt>
      <trkpt lat="43.03389" lon="-1.20148833">
        <ele>1037.0</ele>
        <time>2019-08-01T06:55:34.024Z</time>
      </trkpt>
      <trkpt lat="43.03389833" lon="-1.20150333">
        <ele>1037.0</ele>
        <time>2019-08-01T06:55:35.029Z</time>
      </trkpt>
      <trkpt lat="43.03390667" lon="-1.20152167">
        <ele>1037.0</ele>
        <time>2019-08-01T06:55:36.035Z</time>
      </trkpt>
      <trkpt lat="43.03391333" lon="-1.20153667">
        <ele>1037.0</ele>
        <time>2019-08-01T06:55:37.040Z</time>
      </trkpt>
      <trkpt lat="43.03391333" lon="-1.20153667">
        <ele>1037.0</ele>
        <time>2019-08-01T06:55:37.919Z</time>
      </trkpt>
      <trkpt lat="43.03392167" lon="-1.20155333">
        <ele>1037.0</ele>
        <time>2019-08-01T06:55:38.925Z</time>
      </trkpt>
      <trkpt lat="43.03393" lon="-1.20156833">
        <ele>1037.0</ele>
        <time>2019-08-01T06:55:39.931Z</time>
      </trkpt>
      <trkpt lat="43.03393833" lon="-1.20158667">
        <ele>1037.0</ele>
        <time>2019-08-01T06:55:40.936Z</time>
      </trkpt>
      <trkpt lat="43.03396167" lon="-1.201615">
        <ele>1037.0</ele>
        <time>2019-08-01T06:55:41.940Z</time>
      </trkpt>
      <trkpt lat="43.03397333" lon="-1.20162833">
        <ele>1037.0</ele>
        <time>2019-08-01T06:55:42.947Z</time>
      </trkpt>
      <trkpt lat="43.03398333" lon="-1.20164333">
        <ele>1037.0</ele>
        <time>2019-08-01T06:55:43.952Z</time>
      </trkpt>
      <trkpt lat="43.033995" lon="-1.20165667">
        <ele>1036.0</ele>
        <time>2019-08-01T06:55:44.958Z</time>
      </trkpt>
      <trkpt lat="43.03400333" lon="-1.20167167">
        <ele>1037.0</ele>
        <time>2019-08-01T06:55:45.963Z</time>
      </trkpt>
      <trkpt lat="43.03400833" lon="-1.20168667">
        <ele>1037.0</ele>
        <time>2019-08-01T06:55:46.968Z</time>
      </trkpt>
      <trkpt lat="43.03401833" lon="-1.20170167">
        <ele>1037.0</ele>
        <time>2019-08-01T06:55:47.968Z</time>
      </trkpt>
      <trkpt lat="43.03402833" lon="-1.20171833">
        <ele>1037.0</ele>
        <time>2019-08-01T06:55:48.971Z</time>
      </trkpt>
      <trkpt lat="43.03403667" lon="-1.201735">
        <ele>1037.0</ele>
        <time>2019-08-01T06:55:49.978Z</time>
      </trkpt>
      <trkpt lat="43.034045" lon="-1.20175">
        <ele>1037.0</ele>
        <time>2019-08-01T06:55:50.984Z</time>
      </trkpt>
      <trkpt lat="43.03405333" lon="-1.20176167">
        <ele>1037.0</ele>
        <time>2019-08-01T06:55:51.990Z</time>
      </trkpt>
      <trkpt lat="43.03406333" lon="-1.20178">
        <ele>1037.0</ele>
        <time>2019-08-01T06:55:52.998Z</time>
      </trkpt>
      <trkpt lat="43.03407333" lon="-1.201795">
        <ele>1037.0</ele>
        <time>2019-08-01T06:55:54.004Z</time>
      </trkpt>
      <trkpt lat="43.03408333" lon="-1.20180833">
        <ele>1037.0</ele>
        <time>2019-08-01T06:55:55.009Z</time>
      </trkpt>
      <trkpt lat="43.034095" lon="-1.20182167">
        <ele>1037.0</ele>
        <time>2019-08-01T06:55:56.012Z</time>
      </trkpt>
      <trkpt lat="43.03410167" lon="-1.20183333">
        <ele>1037.0</ele>
        <time>2019-08-01T06:55:57.018Z</time>
      </trkpt>
      <trkpt lat="43.03411167" lon="-1.20185167">
        <ele>1037.0</ele>
        <time>2019-08-01T06:55:58.023Z</time>
      </trkpt>
      <trkpt lat="43.03411833" lon="-1.20186667">
        <ele>1038.0</ele>
        <time>2019-08-01T06:55:59.029Z</time>
      </trkpt>
      <trkpt lat="43.03412667" lon="-1.20188167">
        <ele>1038.0</ele>
        <time>2019-08-01T06:56:00.035Z</time>
      </trkpt>
      <trkpt lat="43.034135" lon="-1.2019">
        <ele>1038.0</ele>
        <time>2019-08-01T06:56:01.042Z</time>
      </trkpt>
      <trkpt lat="43.034135" lon="-1.2019">
        <ele>1038.0</ele>
        <time>2019-08-01T06:56:01.923Z</time>
      </trkpt>
      <trkpt lat="43.03414667" lon="-1.20191833">
        <ele>1039.0</ele>
        <time>2019-08-01T06:56:02.928Z</time>
      </trkpt>
      <trkpt lat="43.03416" lon="-1.20193">
        <ele>1038.0</ele>
        <time>2019-08-01T06:56:03.934Z</time>
      </trkpt>
      <trkpt lat="43.03418" lon="-1.20195167">
        <ele>1038.0</ele>
        <time>2019-08-01T06:56:04.940Z</time>
      </trkpt>
      <trkpt lat="43.03419333" lon="-1.20196833">
        <ele>1038.0</ele>
        <time>2019-08-01T06:56:05.946Z</time>
      </trkpt>
      <trkpt lat="43.03420333" lon="-1.20197667">
        <ele>1038.0</ele>
        <time>2019-08-01T06:56:06.949Z</time>
      </trkpt>
      <trkpt lat="43.034215" lon="-1.20199167">
        <ele>1038.0</ele>
        <time>2019-08-01T06:56:07.954Z</time>
      </trkpt>
      <trkpt lat="43.03422667" lon="-1.20200667">
        <ele>1037.0</ele>
        <time>2019-08-01T06:56:08.960Z</time>
      </trkpt>
      <trkpt lat="43.03424167" lon="-1.20202333">
        <ele>1037.0</ele>
        <time>2019-08-01T06:56:09.966Z</time>
      </trkpt>
      <trkpt lat="43.03425333" lon="-1.202035">
        <ele>1037.0</ele>
        <time>2019-08-01T06:56:10.970Z</time>
      </trkpt>
      <trkpt lat="43.03426333" lon="-1.20205">
        <ele>1037.0</ele>
        <time>2019-08-01T06:56:11.976Z</time>
      </trkpt>
      <trkpt lat="43.034275" lon="-1.20206167">
        <ele>1037.0</ele>
        <time>2019-08-01T06:56:12.982Z</time>
      </trkpt>
      <trkpt lat="43.03428333" lon="-1.20207167">
        <ele>1038.0</ele>
        <time>2019-08-01T06:56:13.989Z</time>
      </trkpt>
      <trkpt lat="43.03429667" lon="-1.20208833">
        <ele>1038.0</ele>
        <time>2019-08-01T06:56:14.996Z</time>
      </trkpt>
      <trkpt lat="43.03430833" lon="-1.20210333">
        <ele>1038.0</ele>
        <time>2019-08-01T06:56:16.003Z</time>
      </trkpt>
      <trkpt lat="43.03431833" lon="-1.20211667">
        <ele>1038.0</ele>
        <time>2019-08-01T06:56:17.007Z</time>
      </trkpt>
      <trkpt lat="43.03433" lon="-1.20213167">
        <ele>1038.0</ele>
        <time>2019-08-01T06:56:18.014Z</time>
      </trkpt>
      <trkpt lat="43.03434167" lon="-1.20214167">
        <ele>1037.0</ele>
        <time>2019-08-01T06:56:19.019Z</time>
      </trkpt>
      <trkpt lat="43.03435167" lon="-1.20215">
        <ele>1037.0</ele>
        <time>2019-08-01T06:56:20.023Z</time>
      </trkpt>
      <trkpt lat="43.03436333" lon="-1.20216333">
        <ele>1037.0</ele>
        <time>2019-08-01T06:56:21.029Z</time>
      </trkpt>
      <trkpt lat="43.034375" lon="-1.20217833">
        <ele>1037.0</ele>
        <time>2019-08-01T06:56:22.034Z</time>
      </trkpt>
      <trkpt lat="43.03438333" lon="-1.20218833">
        <ele>1037.0</ele>
        <time>2019-08-01T06:56:23.042Z</time>
      </trkpt>
      <trkpt lat="43.03439667" lon="-1.20220333">
        <ele>1037.0</ele>
        <time>2019-08-01T06:56:23.921Z</time>
      </trkpt>
      <trkpt lat="43.03440667" lon="-1.20221833">
        <ele>1037.0</ele>
        <time>2019-08-01T06:56:24.927Z</time>
      </trkpt>
      <trkpt lat="43.03441167" lon="-1.20222833">
        <ele>1038.0</ele>
        <time>2019-08-01T06:56:25.930Z</time>
      </trkpt>
      <trkpt lat="43.03442333" lon="-1.20224167">
        <ele>1037.0</ele>
        <time>2019-08-01T06:56:26.939Z</time>
      </trkpt>
      <trkpt lat="43.03443333" lon="-1.202255">
        <ele>1037.0</ele>
        <time>2019-08-01T06:56:27.947Z</time>
      </trkpt>
      <trkpt lat="43.034445" lon="-1.20226833">
        <ele>1037.0</ele>
        <time>2019-08-01T06:56:28.953Z</time>
      </trkpt>
      <trkpt lat="43.034455" lon="-1.20228167">
        <ele>1037.0</ele>
        <time>2019-08-01T06:56:29.960Z</time>
      </trkpt>
      <trkpt lat="43.034465" lon="-1.202295">
        <ele>1037.0</ele>
        <time>2019-08-01T06:56:30.964Z</time>
      </trkpt>
      <trkpt lat="43.034475" lon="-1.20230833">
        <ele>1037.0</ele>
        <time>2019-08-01T06:56:31.969Z</time>
      </trkpt>
      <trkpt lat="43.034485" lon="-1.20232333">
        <ele>1037.0</ele>
        <time>2019-08-01T06:56:32.975Z</time>
      </trkpt>
      <trkpt lat="43.03449167" lon="-1.20233667">
        <ele>1037.0</ele>
        <time>2019-08-01T06:56:33.979Z</time>
      </trkpt>
      <trkpt lat="43.03450167" lon="-1.20235333">
        <ele>1037.0</ele>
        <time>2019-08-01T06:56:34.985Z</time>
      </trkpt>
      <trkpt lat="43.03451333" lon="-1.20236333">
        <ele>1037.0</ele>
        <time>2019-08-01T06:56:35.992Z</time>
      </trkpt>
      <trkpt lat="43.03452667" lon="-1.20237667">
        <ele>1037.0</ele>
        <time>2019-08-01T06:56:36.996Z</time>
      </trkpt>
      <trkpt lat="43.03454" lon="-1.20238667">
        <ele>1036.0</ele>
        <time>2019-08-01T06:56:38.002Z</time>
      </trkpt>
      <trkpt lat="43.03455" lon="-1.202395">
        <ele>1036.0</ele>
        <time>2019-08-01T06:56:39.009Z</time>
      </trkpt>
      <trkpt lat="43.03455833" lon="-1.20240667">
        <ele>1036.0</ele>
        <time>2019-08-01T06:56:40.014Z</time>
      </trkpt>
      <trkpt lat="43.03457" lon="-1.20242333">
        <ele>1036.0</ele>
        <time>2019-08-01T06:56:41.021Z</time>
      </trkpt>
      <trkpt lat="43.03458" lon="-1.202435">
        <ele>1036.0</ele>
        <time>2019-08-01T06:56:42.027Z</time>
      </trkpt>
      <trkpt lat="43.03459" lon="-1.20245">
        <ele>1036.0</ele>
        <time>2019-08-01T06:56:43.034Z</time>
      </trkpt>
      <trkpt lat="43.03459833" lon="-1.20246167">
        <ele>1036.0</ele>
        <time>2019-08-01T06:56:44.038Z</time>
      </trkpt>
      <trkpt lat="43.03461" lon="-1.202475">
        <ele>1036.0</ele>
        <time>2019-08-01T06:56:45.043Z</time>
      </trkpt>
      <trkpt lat="43.03461" lon="-1.202475">
        <ele>1036.0</ele>
        <time>2019-08-01T06:56:45.924Z</time>
      </trkpt>
      <trkpt lat="43.03462167" lon="-1.20249167">
        <ele>1036.0</ele>
        <time>2019-08-01T06:56:46.929Z</time>
      </trkpt>
      <trkpt lat="43.034645" lon="-1.20251667">
        <ele>1035.0</ele>
        <time>2019-08-01T06:56:47.934Z</time>
      </trkpt>
      <trkpt lat="43.034655" lon="-1.202535">
        <ele>1036.0</ele>
        <time>2019-08-01T06:56:48.941Z</time>
      </trkpt>
      <trkpt lat="43.03466833" lon="-1.20255167">
        <ele>1036.0</ele>
        <time>2019-08-01T06:56:49.947Z</time>
      </trkpt>
      <trkpt lat="43.03467833" lon="-1.20256167">
        <ele>1035.0</ele>
        <time>2019-08-01T06:56:50.952Z</time>
      </trkpt>
      <trkpt lat="43.03469167" lon="-1.20257833">
        <ele>1036.0</ele>
        <time>2019-08-01T06:56:51.956Z</time>
      </trkpt>
      <trkpt lat="43.03470167" lon="-1.20258833">
        <ele>1036.0</ele>
        <time>2019-08-01T06:56:52.960Z</time>
      </trkpt>
      <trkpt lat="43.034715" lon="-1.2026">
        <ele>1036.0</ele>
        <time>2019-08-01T06:56:53.966Z</time>
      </trkpt>
      <trkpt lat="43.03473" lon="-1.202615">
        <ele>1036.0</ele>
        <time>2019-08-01T06:56:54.970Z</time>
      </trkpt>
      <trkpt lat="43.03474167" lon="-1.20262833">
        <ele>1036.0</ele>
        <time>2019-08-01T06:56:55.976Z</time>
      </trkpt>
      <trkpt lat="43.03475167" lon="-1.20264167">
        <ele>1036.0</ele>
        <time>2019-08-01T06:56:56.980Z</time>
      </trkpt>
      <trkpt lat="43.03476" lon="-1.20265333">
        <ele>1036.0</ele>
        <time>2019-08-01T06:56:57.984Z</time>
      </trkpt>
      <trkpt lat="43.03477167" lon="-1.202665">
        <ele>1036.0</ele>
        <time>2019-08-01T06:56:58.992Z</time>
      </trkpt>
      <trkpt lat="43.034785" lon="-1.20267667">
        <ele>1036.0</ele>
        <time>2019-08-01T06:56:59.998Z</time>
      </trkpt>
      <trkpt lat="43.03479667" lon="-1.20269167">
        <ele>1037.0</ele>
        <time>2019-08-01T06:57:01.004Z</time>
      </trkpt>
      <trkpt lat="43.03480833" lon="-1.20270167">
        <ele>1037.0</ele>
        <time>2019-08-01T06:57:02.008Z</time>
      </trkpt>
      <trkpt lat="43.03482167" lon="-1.20271667">
        <ele>1037.0</ele>
        <time>2019-08-01T06:57:03.012Z</time>
      </trkpt>
      <trkpt lat="43.03483333" lon="-1.20272833">
        <ele>1037.0</ele>
        <time>2019-08-01T06:57:04.017Z</time>
      </trkpt>
      <trkpt lat="43.03484167" lon="-1.20273833">
        <ele>1037.0</ele>
        <time>2019-08-01T06:57:05.022Z</time>
      </trkpt>
      <trkpt lat="43.034855" lon="-1.20275">
        <ele>1037.0</ele>
        <time>2019-08-01T06:57:06.026Z</time>
      </trkpt>
      <trkpt lat="43.03487" lon="-1.20276333">
        <ele>1037.0</ele>
        <time>2019-08-01T06:57:07.032Z</time>
      </trkpt>
      <trkpt lat="43.03488333" lon="-1.20277333">
        <ele>1036.0</ele>
        <time>2019-08-01T06:57:08.039Z</time>
      </trkpt>
      <trkpt lat="43.03488333" lon="-1.20277333">
        <ele>1036.0</ele>
        <time>2019-08-01T06:57:08.919Z</time>
      </trkpt>
      <trkpt lat="43.03489667" lon="-1.20278333">
        <ele>1036.0</ele>
        <time>2019-08-01T06:57:09.926Z</time>
      </trkpt>
      <trkpt lat="43.03492" lon="-1.20280167">
        <ele>1036.0</ele>
        <time>2019-08-01T06:57:10.931Z</time>
      </trkpt>
      <trkpt lat="43.03493" lon="-1.20281333">
        <ele>1036.0</ele>
        <time>2019-08-01T06:57:11.933Z</time>
      </trkpt>
      <trkpt lat="43.03494" lon="-1.202825">
        <ele>1036.0</ele>
        <time>2019-08-01T06:57:12.936Z</time>
      </trkpt>
      <trkpt lat="43.03495333" lon="-1.202835">
        <ele>1036.0</ele>
        <time>2019-08-01T06:57:13.942Z</time>
      </trkpt>
      <trkpt lat="43.034965" lon="-1.20284667">
        <ele>1036.0</ele>
        <time>2019-08-01T06:57:14.947Z</time>
      </trkpt>
      <trkpt lat="43.03497667" lon="-1.20285833">
        <ele>1036.0</ele>
        <time>2019-08-01T06:57:15.954Z</time>
      </trkpt>
      <trkpt lat="43.03499" lon="-1.20286667">
        <ele>1036.0</ele>
        <time>2019-08-01T06:57:16.958Z</time>
      </trkpt>
      <trkpt lat="43.035005" lon="-1.20288">
        <ele>1036.0</ele>
        <time>2019-08-01T06:57:17.962Z</time>
      </trkpt>
      <trkpt lat="43.035015" lon="-1.20288833">
        <ele>1036.0</ele>
        <time>2019-08-01T06:57:18.968Z</time>
      </trkpt>
      <trkpt lat="43.03502667" lon="-1.2029">
        <ele>1036.0</ele>
        <time>2019-08-01T06:57:19.973Z</time>
      </trkpt>
      <trkpt lat="43.03504167" lon="-1.20291167">
        <ele>1036.0</ele>
        <time>2019-08-01T06:57:20.980Z</time>
      </trkpt>
      <trkpt lat="43.03505167" lon="-1.20292167">
        <ele>1037.0</ele>
        <time>2019-08-01T06:57:21.987Z</time>
      </trkpt>
      <trkpt lat="43.03506167" lon="-1.20293">
        <ele>1037.0</ele>
        <time>2019-08-01T06:57:22.994Z</time>
      </trkpt>
      <trkpt lat="43.03507333" lon="-1.20294167">
        <ele>1037.0</ele>
        <time>2019-08-01T06:57:24.000Z</time>
      </trkpt>
      <trkpt lat="43.03508667" lon="-1.20295333">
        <ele>1037.0</ele>
        <time>2019-08-01T06:57:25.006Z</time>
      </trkpt>
      <trkpt lat="43.03509667" lon="-1.20296">
        <ele>1037.0</ele>
        <time>2019-08-01T06:57:26.012Z</time>
      </trkpt>
      <trkpt lat="43.03511" lon="-1.20297333">
        <ele>1037.0</ele>
        <time>2019-08-01T06:57:27.015Z</time>
      </trkpt>
      <trkpt lat="43.03512" lon="-1.20297833">
        <ele>1037.0</ele>
        <time>2019-08-01T06:57:28.019Z</time>
      </trkpt>
      <trkpt lat="43.03513333" lon="-1.20298833">
        <ele>1037.0</ele>
        <time>2019-08-01T06:57:29.024Z</time>
      </trkpt>
      <trkpt lat="43.03514833" lon="-1.203">
        <ele>1037.0</ele>
        <time>2019-08-01T06:57:30.029Z</time>
      </trkpt>
      <trkpt lat="43.03516" lon="-1.20300667">
        <ele>1037.0</ele>
        <time>2019-08-01T06:57:31.036Z</time>
      </trkpt>
      <trkpt lat="43.03517333" lon="-1.203015">
        <ele>1037.0</ele>
        <time>2019-08-01T06:57:32.041Z</time>
      </trkpt>
      <trkpt lat="43.03517333" lon="-1.203015">
        <ele>1037.0</ele>
        <time>2019-08-01T06:57:32.921Z</time>
      </trkpt>
      <trkpt lat="43.03519667" lon="-1.20303">
        <ele>1037.0</ele>
        <time>2019-08-01T06:57:33.926Z</time>
      </trkpt>
      <trkpt lat="43.03521" lon="-1.20303667">
        <ele>1036.0</ele>
        <time>2019-08-01T06:57:34.930Z</time>
      </trkpt>
      <trkpt lat="43.03522333" lon="-1.203045">
        <ele>1037.0</ele>
        <time>2019-08-01T06:57:35.936Z</time>
      </trkpt>
      <trkpt lat="43.03522667" lon="-1.20304833">
        <ele>1037.0</ele>
        <time>2019-08-01T06:57:36.941Z</time>
      </trkpt>
      <trkpt lat="43.03523" lon="-1.20305333">
        <ele>1037.0</ele>
        <time>2019-08-01T06:57:37.947Z</time>
      </trkpt>
      <trkpt lat="43.03523333" lon="-1.203055">
        <ele>1036.0</ele>
        <time>2019-08-01T06:57:38.953Z</time>
      </trkpt>
      <trkpt lat="43.03523167" lon="-1.20305667">
        <ele>1036.0</ele>
        <time>2019-08-01T06:57:39.959Z</time>
      </trkpt>
      <trkpt lat="43.035235" lon="-1.20305833">
        <ele>1036.0</ele>
        <time>2019-08-01T06:57:40.965Z</time>
      </trkpt>
      <trkpt lat="43.03523833" lon="-1.20305833">
        <ele>1036.0</ele>
        <time>2019-08-01T06:57:41.969Z</time>
      </trkpt>
      <trkpt lat="43.03524333" lon="-1.20306167">
        <ele>1036.0</ele>
        <time>2019-08-01T06:57:42.974Z</time>
      </trkpt>
      <trkpt lat="43.03525167" lon="-1.20306833">
        <ele>1036.0</ele>
        <time>2019-08-01T06:57:43.981Z</time>
      </trkpt>
      <trkpt lat="43.03526" lon="-1.20307333">
        <ele>1036.0</ele>
        <time>2019-08-01T06:57:44.987Z</time>
      </trkpt>
      <trkpt lat="43.03527167" lon="-1.20307833">
        <ele>1036.0</ele>
        <time>2019-08-01T06:57:45.992Z</time>
      </trkpt>
      <trkpt lat="43.03528333" lon="-1.20308667">
        <ele>1037.0</ele>
        <time>2019-08-01T06:57:46.996Z</time>
      </trkpt>
      <trkpt lat="43.03529833" lon="-1.2031">
        <ele>1036.0</ele>
        <time>2019-08-01T06:57:48.002Z</time>
      </trkpt>
      <trkpt lat="43.03530833" lon="-1.20311167">
        <ele>1036.0</ele>
        <time>2019-08-01T06:57:49.007Z</time>
      </trkpt>
      <trkpt lat="43.03531667" lon="-1.20312333">
        <ele>1037.0</ele>
        <time>2019-08-01T06:57:50.011Z</time>
      </trkpt>
      <trkpt lat="43.03532833" lon="-1.20313833">
        <ele>1037.0</ele>
        <time>2019-08-01T06:57:51.016Z</time>
      </trkpt>
      <trkpt lat="43.03534167" lon="-1.20315333">
        <ele>1037.0</ele>
        <time>2019-08-01T06:57:52.021Z</time>
      </trkpt>
      <trkpt lat="43.03535167" lon="-1.20316667">
        <ele>1036.0</ele>
        <time>2019-08-01T06:57:53.026Z</time>
      </trkpt>
      <trkpt lat="43.03535833" lon="-1.20317667">
        <ele>1036.0</ele>
        <time>2019-08-01T06:57:54.031Z</time>
      </trkpt>
      <trkpt lat="43.03536833" lon="-1.20319167">
        <ele>1036.0</ele>
        <time>2019-08-01T06:57:55.037Z</time>
      </trkpt>
      <trkpt lat="43.03536833" lon="-1.20319167">
        <ele>1036.0</ele>
        <time>2019-08-01T06:57:55.919Z</time>
      </trkpt>
      <trkpt lat="43.03537833" lon="-1.203205">
        <ele>1036.0</ele>
        <time>2019-08-01T06:57:56.923Z</time>
      </trkpt>
      <trkpt lat="43.03539167" lon="-1.20323167">
        <ele>1036.0</ele>
        <time>2019-08-01T06:57:57.928Z</time>
      </trkpt>
      <trkpt lat="43.0354" lon="-1.20324833">
        <ele>1036.0</ele>
        <time>2019-08-01T06:57:58.934Z</time>
      </trkpt>
      <trkpt lat="43.03540667" lon="-1.203265">
        <ele>1036.0</ele>
        <time>2019-08-01T06:57:59.940Z</time>
      </trkpt>
      <trkpt lat="43.03541667" lon="-1.20328167">
        <ele>1036.0</ele>
        <time>2019-08-01T06:58:00.946Z</time>
      </trkpt>
      <trkpt lat="43.03542667" lon="-1.20329833">
        <ele>1036.0</ele>
        <time>2019-08-01T06:58:01.952Z</time>
      </trkpt>
      <trkpt lat="43.03543667" lon="-1.20331333">
        <ele>1036.0</ele>
        <time>2019-08-01T06:58:02.958Z</time>
      </trkpt>
      <trkpt lat="43.035445" lon="-1.20333">
        <ele>1035.0</ele>
        <time>2019-08-01T06:58:03.963Z</time>
      </trkpt>
      <trkpt lat="43.03545667" lon="-1.20334">
        <ele>1035.0</ele>
        <time>2019-08-01T06:58:04.970Z</time>
      </trkpt>
      <trkpt lat="43.03546667" lon="-1.20335">
        <ele>1034.0</ele>
        <time>2019-08-01T06:58:05.975Z</time>
      </trkpt>
      <trkpt lat="43.03548" lon="-1.20336667">
        <ele>1034.0</ele>
        <time>2019-08-01T06:58:06.983Z</time>
      </trkpt>
      <trkpt lat="43.03548833" lon="-1.20337667">
        <ele>1033.0</ele>
        <time>2019-08-01T06:58:07.990Z</time>
      </trkpt>
      <trkpt lat="43.03549833" lon="-1.20339167">
        <ele>1033.0</ele>
        <time>2019-08-01T06:58:08.994Z</time>
      </trkpt>
      <trkpt lat="43.03551167" lon="-1.20340833">
        <ele>1033.0</ele>
        <time>2019-08-01T06:58:10.000Z</time>
      </trkpt>
      <trkpt lat="43.03552" lon="-1.20342333">
        <ele>1033.0</ele>
        <time>2019-08-01T06:58:11.006Z</time>
      </trkpt>
      <trkpt lat="43.03552833" lon="-1.20343667">
        <ele>1033.0</ele>
        <time>2019-08-01T06:58:12.009Z</time>
      </trkpt>
      <trkpt lat="43.03553667" lon="-1.20345">
        <ele>1033.0</ele>
        <time>2019-08-01T06:58:13.012Z</time>
      </trkpt>
      <trkpt lat="43.03554" lon="-1.20346333">
        <ele>1033.0</ele>
        <time>2019-08-01T06:58:14.014Z</time>
      </trkpt>
      <trkpt lat="43.03554833" lon="-1.20348167">
        <ele>1033.0</ele>
        <time>2019-08-01T06:58:15.020Z</time>
      </trkpt>
      <trkpt lat="43.03555667" lon="-1.20349833">
        <ele>1034.0</ele>
        <time>2019-08-01T06:58:16.026Z</time>
      </trkpt>
      <trkpt lat="43.03556333" lon="-1.20351167">
        <ele>1034.0</ele>
        <time>2019-08-01T06:58:17.032Z</time>
      </trkpt>
      <trkpt lat="43.03557167" lon="-1.203525">
        <ele>1034.0</ele>
        <time>2019-08-01T06:58:18.037Z</time>
      </trkpt>
      <trkpt lat="43.03558167" lon="-1.20354167">
        <ele>1034.0</ele>
        <time>2019-08-01T06:58:19.041Z</time>
      </trkpt>
      <trkpt lat="43.03558167" lon="-1.20354167">
        <ele>1034.0</ele>
        <time>2019-08-01T06:58:19.921Z</time>
      </trkpt>
      <trkpt lat="43.035595" lon="-1.20357">
        <ele>1033.0</ele>
        <time>2019-08-01T06:58:20.926Z</time>
      </trkpt>
      <trkpt lat="43.03560167" lon="-1.20358333">
        <ele>1034.0</ele>
        <time>2019-08-01T06:58:21.931Z</time>
      </trkpt>
      <trkpt lat="43.03561167" lon="-1.20359833">
        <ele>1034.0</ele>
        <time>2019-08-01T06:58:22.936Z</time>
      </trkpt>
      <trkpt lat="43.03562" lon="-1.20361333">
        <ele>1034.0</ele>
        <time>2019-08-01T06:58:23.942Z</time>
      </trkpt>
      <trkpt lat="43.03562667" lon="-1.20362667">
        <ele>1034.0</ele>
        <time>2019-08-01T06:58:24.950Z</time>
      </trkpt>
      <trkpt lat="43.035635" lon="-1.203645">
        <ele>1034.0</ele>
        <time>2019-08-01T06:58:25.957Z</time>
      </trkpt>
      <trkpt lat="43.035645" lon="-1.203665">
        <ele>1034.0</ele>
        <time>2019-08-01T06:58:26.964Z</time>
      </trkpt>
      <trkpt lat="43.03565333" lon="-1.20368167">
        <ele>1034.0</ele>
        <time>2019-08-01T06:58:27.969Z</time>
      </trkpt>
      <trkpt lat="43.03566167" lon="-1.20369833">
        <ele>1035.0</ele>
        <time>2019-08-01T06:58:28.976Z</time>
      </trkpt>
      <trkpt lat="43.03567" lon="-1.20371">
        <ele>1035.0</ele>
        <time>2019-08-01T06:58:29.982Z</time>
      </trkpt>
      <trkpt lat="43.03567667" lon="-1.203725">
        <ele>1035.0</ele>
        <time>2019-08-01T06:58:30.989Z</time>
      </trkpt>
      <trkpt lat="43.03568833" lon="-1.20374333">
        <ele>1035.0</ele>
        <time>2019-08-01T06:58:31.993Z</time>
      </trkpt>
      <trkpt lat="43.035695" lon="-1.20375833">
        <ele>1035.0</ele>
        <time>2019-08-01T06:58:33.001Z</time>
      </trkpt>
      <trkpt lat="43.03570333" lon="-1.203775">
        <ele>1035.0</ele>
        <time>2019-08-01T06:58:34.006Z</time>
      </trkpt>
      <trkpt lat="43.03570833" lon="-1.20378833">
        <ele>1036.0</ele>
        <time>2019-08-01T06:58:35.013Z</time>
      </trkpt>
      <trkpt lat="43.03572" lon="-1.20380333">
        <ele>1036.0</ele>
        <time>2019-08-01T06:58:36.020Z</time>
      </trkpt>
      <trkpt lat="43.03572667" lon="-1.20382">
        <ele>1036.0</ele>
        <time>2019-08-01T06:58:37.027Z</time>
      </trkpt>
      <trkpt lat="43.03573333" lon="-1.20383667">
        <ele>1036.0</ele>
        <time>2019-08-01T06:58:38.035Z</time>
      </trkpt>
      <trkpt lat="43.03574167" lon="-1.20385">
        <ele>1036.0</ele>
        <time>2019-08-01T06:58:39.041Z</time>
      </trkpt>
      <trkpt lat="43.03574167" lon="-1.20385">
        <ele>1036.0</ele>
        <time>2019-08-01T06:58:39.922Z</time>
      </trkpt>
      <trkpt lat="43.035755" lon="-1.20388833">
        <ele>1037.0</ele>
        <time>2019-08-01T06:58:40.927Z</time>
      </trkpt>
      <trkpt lat="43.03576167" lon="-1.203905">
        <ele>1037.0</ele>
        <time>2019-08-01T06:58:41.933Z</time>
      </trkpt>
      <trkpt lat="43.03576833" lon="-1.20391667">
        <ele>1037.0</ele>
        <time>2019-08-01T06:58:42.940Z</time>
      </trkpt>
      <trkpt lat="43.035775" lon="-1.20393">
        <ele>1037.0</ele>
        <time>2019-08-01T06:58:43.948Z</time>
      </trkpt>
      <trkpt lat="43.035785" lon="-1.20394833">
        <ele>1036.0</ele>
        <time>2019-08-01T06:58:44.955Z</time>
      </trkpt>
      <trkpt lat="43.03579167" lon="-1.20396333">
        <ele>1037.0</ele>
        <time>2019-08-01T06:58:45.962Z</time>
      </trkpt>
      <trkpt lat="43.03579833" lon="-1.20398">
        <ele>1037.0</ele>
        <time>2019-08-01T06:58:46.969Z</time>
      </trkpt>
      <trkpt lat="43.03580333" lon="-1.20399333">
        <ele>1037.0</ele>
        <time>2019-08-01T06:58:47.977Z</time>
      </trkpt>
      <trkpt lat="43.03580833" lon="-1.20400833">
        <ele>1037.0</ele>
        <time>2019-08-01T06:58:48.983Z</time>
      </trkpt>
      <trkpt lat="43.03581667" lon="-1.20403">
        <ele>1037.0</ele>
        <time>2019-08-01T06:58:49.989Z</time>
      </trkpt>
      <trkpt lat="43.03582167" lon="-1.20404667">
        <ele>1038.0</ele>
        <time>2019-08-01T06:58:50.995Z</time>
      </trkpt>
      <trkpt lat="43.03582667" lon="-1.20406167">
        <ele>1038.0</ele>
        <time>2019-08-01T06:58:52.000Z</time>
      </trkpt>
      <trkpt lat="43.035835" lon="-1.20408333">
        <ele>1037.0</ele>
        <time>2019-08-01T06:58:53.005Z</time>
      </trkpt>
      <trkpt lat="43.03584167" lon="-1.2041">
        <ele>1037.0</ele>
        <time>2019-08-01T06:58:54.011Z</time>
      </trkpt>
      <trkpt lat="43.03584833" lon="-1.204115">
        <ele>1037.0</ele>
        <time>2019-08-01T06:58:55.016Z</time>
      </trkpt>
      <trkpt lat="43.03585167" lon="-1.20412667">
        <ele>1037.0</ele>
        <time>2019-08-01T06:58:56.022Z</time>
      </trkpt>
      <trkpt lat="43.03585833" lon="-1.20414167">
        <ele>1037.0</ele>
        <time>2019-08-01T06:58:57.029Z</time>
      </trkpt>
      <trkpt lat="43.035865" lon="-1.20416167">
        <ele>1037.0</ele>
        <time>2019-08-01T06:58:58.032Z</time>
      </trkpt>
      <trkpt lat="43.035875" lon="-1.20417833">
        <ele>1037.0</ele>
        <time>2019-08-01T06:58:59.036Z</time>
      </trkpt>
      <trkpt lat="43.03588333" lon="-1.20419333">
        <ele>1037.0</ele>
        <time>2019-08-01T06:59:00.042Z</time>
      </trkpt>
      <trkpt lat="43.03588333" lon="-1.20419333">
        <ele>1037.0</ele>
        <time>2019-08-01T06:59:00.922Z</time>
      </trkpt>
      <trkpt lat="43.03589" lon="-1.20421167">
        <ele>1036.0</ele>
        <time>2019-08-01T06:59:01.928Z</time>
      </trkpt>
      <trkpt lat="43.03590333" lon="-1.20425">
        <ele>1036.0</ele>
        <time>2019-08-01T06:59:02.933Z</time>
      </trkpt>
      <trkpt lat="43.03590833" lon="-1.20427">
        <ele>1036.0</ele>
        <time>2019-08-01T06:59:03.939Z</time>
      </trkpt>
      <trkpt lat="43.03591167" lon="-1.20428833">
        <ele>1036.0</ele>
        <time>2019-08-01T06:59:04.945Z</time>
      </trkpt>
      <trkpt lat="43.03591833" lon="-1.20430667">
        <ele>1036.0</ele>
        <time>2019-08-01T06:59:05.951Z</time>
      </trkpt>
      <trkpt lat="43.03592667" lon="-1.20432833">
        <ele>1035.0</ele>
        <time>2019-08-01T06:59:06.957Z</time>
      </trkpt>
      <trkpt lat="43.03593167" lon="-1.20434333">
        <ele>1035.0</ele>
        <time>2019-08-01T06:59:07.965Z</time>
      </trkpt>
      <trkpt lat="43.03593833" lon="-1.20436333">
        <ele>1035.0</ele>
        <time>2019-08-01T06:59:08.970Z</time>
      </trkpt>
      <trkpt lat="43.03594333" lon="-1.20438167">
        <ele>1035.0</ele>
        <time>2019-08-01T06:59:09.975Z</time>
      </trkpt>
      <trkpt lat="43.03594833" lon="-1.20440167">
        <ele>1036.0</ele>
        <time>2019-08-01T06:59:10.982Z</time>
      </trkpt>
      <trkpt lat="43.03595333" lon="-1.20442167">
        <ele>1036.0</ele>
        <time>2019-08-01T06:59:11.985Z</time>
      </trkpt>
      <trkpt lat="43.03596" lon="-1.20444">
        <ele>1036.0</ele>
        <time>2019-08-01T06:59:12.993Z</time>
      </trkpt>
      <trkpt lat="43.035965" lon="-1.204455">
        <ele>1037.0</ele>
        <time>2019-08-01T06:59:14.000Z</time>
      </trkpt>
      <trkpt lat="43.03597167" lon="-1.20447167">
        <ele>1037.0</ele>
        <time>2019-08-01T06:59:15.006Z</time>
      </trkpt>
      <trkpt lat="43.03598167" lon="-1.20449">
        <ele>1037.0</ele>
        <time>2019-08-01T06:59:16.010Z</time>
      </trkpt>
      <trkpt lat="43.03599" lon="-1.20450833">
        <ele>1037.0</ele>
        <time>2019-08-01T06:59:17.017Z</time>
      </trkpt>
      <trkpt lat="43.03599833" lon="-1.20452333">
        <ele>1037.0</ele>
        <time>2019-08-01T06:59:18.024Z</time>
      </trkpt>
      <trkpt lat="43.036005" lon="-1.20453167">
        <ele>1037.0</ele>
        <time>2019-08-01T06:59:19.030Z</time>
      </trkpt>
      <trkpt lat="43.036015" lon="-1.20455167">
        <ele>1037.0</ele>
        <time>2019-08-01T06:59:20.036Z</time>
      </trkpt>
      <trkpt lat="43.036025" lon="-1.20456833">
        <ele>1037.0</ele>
        <time>2019-08-01T06:59:21.043Z</time>
      </trkpt>
      <trkpt lat="43.036025" lon="-1.20456833">
        <ele>1037.0</ele>
        <time>2019-08-01T06:59:21.924Z</time>
      </trkpt>
      <trkpt lat="43.03604667" lon="-1.2046">
        <ele>1037.0</ele>
        <time>2019-08-01T06:59:22.930Z</time>
      </trkpt>
      <trkpt lat="43.03605667" lon="-1.20461833">
        <ele>1037.0</ele>
        <time>2019-08-01T06:59:23.936Z</time>
      </trkpt>
      <trkpt lat="43.03606667" lon="-1.204635">
        <ele>1037.0</ele>
        <time>2019-08-01T06:59:24.943Z</time>
      </trkpt>
      <trkpt lat="43.03607833" lon="-1.20465167">
        <ele>1037.0</ele>
        <time>2019-08-01T06:59:25.949Z</time>
      </trkpt>
      <trkpt lat="43.036085" lon="-1.204665">
        <ele>1037.0</ele>
        <time>2019-08-01T06:59:26.955Z</time>
      </trkpt>
      <trkpt lat="43.036095" lon="-1.20468">
        <ele>1037.0</ele>
        <time>2019-08-01T06:59:27.963Z</time>
      </trkpt>
      <trkpt lat="43.03610667" lon="-1.20469667">
        <ele>1037.0</ele>
        <time>2019-08-01T06:59:28.970Z</time>
      </trkpt>
      <trkpt lat="43.036115" lon="-1.20471167">
        <ele>1037.0</ele>
        <time>2019-08-01T06:59:29.976Z</time>
      </trkpt>
      <trkpt lat="43.03612667" lon="-1.204725">
        <ele>1037.0</ele>
        <time>2019-08-01T06:59:30.983Z</time>
      </trkpt>
      <trkpt lat="43.036135" lon="-1.20474">
        <ele>1036.0</ele>
        <time>2019-08-01T06:59:31.984Z</time>
      </trkpt>
      <trkpt lat="43.03614833" lon="-1.204755">
        <ele>1036.0</ele>
        <time>2019-08-01T06:59:32.987Z</time>
      </trkpt>
      <trkpt lat="43.03616" lon="-1.20477">
        <ele>1037.0</ele>
        <time>2019-08-01T06:59:33.993Z</time>
      </trkpt>
      <trkpt lat="43.03617" lon="-1.20478333">
        <ele>1037.0</ele>
        <time>2019-08-01T06:59:35.001Z</time>
      </trkpt>
      <trkpt lat="43.03617667" lon="-1.20479333">
        <ele>1036.0</ele>
        <time>2019-08-01T06:59:36.007Z</time>
      </trkpt>
      <trkpt lat="43.03618667" lon="-1.20481">
        <ele>1036.0</ele>
        <time>2019-08-01T06:59:37.011Z</time>
      </trkpt>
      <trkpt lat="43.0362" lon="-1.20482833">
        <ele>1037.0</ele>
        <time>2019-08-01T06:59:38.017Z</time>
      </trkpt>
      <trkpt lat="43.03621167" lon="-1.20484333">
        <ele>1037.0</ele>
        <time>2019-08-01T06:59:39.022Z</time>
      </trkpt>
      <trkpt lat="43.03622333" lon="-1.204855">
        <ele>1037.0</ele>
        <time>2019-08-01T06:59:40.028Z</time>
      </trkpt>
      <trkpt lat="43.03623333" lon="-1.20486833">
        <ele>1037.0</ele>
        <time>2019-08-01T06:59:41.033Z</time>
      </trkpt>
      <trkpt lat="43.036245" lon="-1.20488833">
        <ele>1037.0</ele>
        <time>2019-08-01T06:59:42.037Z</time>
      </trkpt>
      <trkpt lat="43.03625333" lon="-1.2049">
        <ele>1037.0</ele>
        <time>2019-08-01T06:59:43.042Z</time>
      </trkpt>
      <trkpt lat="43.03625333" lon="-1.2049">
        <ele>1037.0</ele>
        <time>2019-08-01T06:59:43.922Z</time>
      </trkpt>
      <trkpt lat="43.036275" lon="-1.20493167">
        <ele>1037.0</ele>
        <time>2019-08-01T06:59:44.928Z</time>
      </trkpt>
      <trkpt lat="43.03628667" lon="-1.20494833">
        <ele>1038.0</ele>
        <time>2019-08-01T06:59:45.934Z</time>
      </trkpt>
      <trkpt lat="43.03629667" lon="-1.20495833">
        <ele>1038.0</ele>
        <time>2019-08-01T06:59:46.940Z</time>
      </trkpt>
      <trkpt lat="43.03631" lon="-1.204975">
        <ele>1039.0</ele>
        <time>2019-08-01T06:59:47.946Z</time>
      </trkpt>
      <trkpt lat="43.03631667" lon="-1.204985">
        <ele>1039.0</ele>
        <time>2019-08-01T06:59:48.952Z</time>
      </trkpt>
      <trkpt lat="43.03632833" lon="-1.205">
        <ele>1039.0</ele>
        <time>2019-08-01T06:59:49.958Z</time>
      </trkpt>
      <trkpt lat="43.03634333" lon="-1.20501667">
        <ele>1039.0</ele>
        <time>2019-08-01T06:59:50.963Z</time>
      </trkpt>
      <trkpt lat="43.03635833" lon="-1.20502833">
        <ele>1039.0</ele>
        <time>2019-08-01T06:59:51.967Z</time>
      </trkpt>
      <trkpt lat="43.03637" lon="-1.20504333">
        <ele>1038.0</ele>
        <time>2019-08-01T06:59:52.972Z</time>
      </trkpt>
      <trkpt lat="43.03637833" lon="-1.20505667">
        <ele>1038.0</ele>
        <time>2019-08-01T06:59:53.978Z</time>
      </trkpt>
      <trkpt lat="43.03639167" lon="-1.20507667">
        <ele>1038.0</ele>
        <time>2019-08-01T06:59:54.985Z</time>
      </trkpt>
      <trkpt lat="43.03640333" lon="-1.20508833">
        <ele>1038.0</ele>
        <time>2019-08-01T06:59:55.992Z</time>
      </trkpt>
      <trkpt lat="43.03641667" lon="-1.20510167">
        <ele>1038.0</ele>
        <time>2019-08-01T06:59:56.995Z</time>
      </trkpt>
      <trkpt lat="43.03642667" lon="-1.20511667">
        <ele>1038.0</ele>
        <time>2019-08-01T06:59:57.998Z</time>
      </trkpt>
      <trkpt lat="43.03643667" lon="-1.20512833">
        <ele>1038.0</ele>
        <time>2019-08-01T06:59:59.005Z</time>
      </trkpt>
      <trkpt lat="43.03645" lon="-1.205145">
        <ele>1037.0</ele>
        <time>2019-08-01T07:00:00.011Z</time>
      </trkpt>
      <trkpt lat="43.03646333" lon="-1.20516">
        <ele>1037.0</ele>
        <time>2019-08-01T07:00:01.017Z</time>
      </trkpt>
      <trkpt lat="43.036475" lon="-1.20517333">
        <ele>1037.0</ele>
        <time>2019-08-01T07:00:02.026Z</time>
      </trkpt>
      <trkpt lat="43.03648833" lon="-1.20518333">
        <ele>1037.0</ele>
        <time>2019-08-01T07:00:03.031Z</time>
      </trkpt>
      <trkpt lat="43.03649833" lon="-1.205195">
        <ele>1037.0</ele>
        <time>2019-08-01T07:00:04.035Z</time>
      </trkpt>
      <trkpt lat="43.03651167" lon="-1.205205">
        <ele>1038.0</ele>
        <time>2019-08-01T07:00:05.042Z</time>
      </trkpt>
      <trkpt lat="43.03651167" lon="-1.205205">
        <ele>1038.0</ele>
        <time>2019-08-01T07:00:05.922Z</time>
      </trkpt>
      <trkpt lat="43.03652667" lon="-1.20522">
        <ele>1038.0</ele>
        <time>2019-08-01T07:00:06.928Z</time>
      </trkpt>
      <trkpt lat="43.03654833" lon="-1.205245">
        <ele>1038.0</ele>
        <time>2019-08-01T07:00:07.929Z</time>
      </trkpt>
      <trkpt lat="43.03656167" lon="-1.20526">
        <ele>1038.0</ele>
        <time>2019-08-01T07:00:08.935Z</time>
      </trkpt>
      <trkpt lat="43.03657167" lon="-1.205275">
        <ele>1038.0</ele>
        <time>2019-08-01T07:00:09.941Z</time>
      </trkpt>
      <trkpt lat="43.03658167" lon="-1.205285">
        <ele>1038.0</ele>
        <time>2019-08-01T07:00:10.947Z</time>
      </trkpt>
      <trkpt lat="43.03659" lon="-1.20529667">
        <ele>1038.0</ele>
        <time>2019-08-01T07:00:11.947Z</time>
      </trkpt>
      <trkpt lat="43.03660167" lon="-1.20531333">
        <ele>1038.0</ele>
        <time>2019-08-01T07:00:12.954Z</time>
      </trkpt>
      <trkpt lat="43.03661333" lon="-1.20533">
        <ele>1038.0</ele>
        <time>2019-08-01T07:00:13.960Z</time>
      </trkpt>
      <trkpt lat="43.036625" lon="-1.20534333">
        <ele>1038.0</ele>
        <time>2019-08-01T07:00:14.965Z</time>
      </trkpt>
      <trkpt lat="43.036635" lon="-1.20535333">
        <ele>1038.0</ele>
        <time>2019-08-01T07:00:15.970Z</time>
      </trkpt>
      <trkpt lat="43.03664667" lon="-1.20536667">
        <ele>1038.0</ele>
        <time>2019-08-01T07:00:16.975Z</time>
      </trkpt>
      <trkpt lat="43.03665833" lon="-1.20538333">
        <ele>1039.0</ele>
        <time>2019-08-01T07:00:17.979Z</time>
      </trkpt>
      <trkpt lat="43.03666833" lon="-1.20539833">
        <ele>1039.0</ele>
        <time>2019-08-01T07:00:18.984Z</time>
      </trkpt>
      <trkpt lat="43.03668" lon="-1.205415">
        <ele>1039.0</ele>
        <time>2019-08-01T07:00:19.992Z</time>
      </trkpt>
      <trkpt lat="43.03669" lon="-1.205425">
        <ele>1038.0</ele>
        <time>2019-08-01T07:00:20.997Z</time>
      </trkpt>
      <trkpt lat="43.03670167" lon="-1.20544167">
        <ele>1038.0</ele>
        <time>2019-08-01T07:00:22.001Z</time>
      </trkpt>
      <trkpt lat="43.03671333" lon="-1.20545667">
        <ele>1038.0</ele>
        <time>2019-08-01T07:00:23.005Z</time>
      </trkpt>
      <trkpt lat="43.03672333" lon="-1.20547333">
        <ele>1038.0</ele>
        <time>2019-08-01T07:00:24.011Z</time>
      </trkpt>
      <trkpt lat="43.036735" lon="-1.20548667">
        <ele>1038.0</ele>
        <time>2019-08-01T07:00:25.017Z</time>
      </trkpt>
      <trkpt lat="43.03674333" lon="-1.20549833">
        <ele>1038.0</ele>
        <time>2019-08-01T07:00:26.023Z</time>
      </trkpt>
      <trkpt lat="43.036755" lon="-1.20551333">
        <ele>1038.0</ele>
        <time>2019-08-01T07:00:27.030Z</time>
      </trkpt>
      <trkpt lat="43.03676667" lon="-1.20553">
        <ele>1039.0</ele>
        <time>2019-08-01T07:00:28.035Z</time>
      </trkpt>
      <trkpt lat="43.03677667" lon="-1.20554333">
        <ele>1039.0</ele>
        <time>2019-08-01T07:00:29.040Z</time>
      </trkpt>
      <trkpt lat="43.03677667" lon="-1.20554333">
        <ele>1039.0</ele>
        <time>2019-08-01T07:00:29.918Z</time>
      </trkpt>
      <trkpt lat="43.03678667" lon="-1.20555667">
        <ele>1039.0</ele>
        <time>2019-08-01T07:00:30.924Z</time>
      </trkpt>
      <trkpt lat="43.03679833" lon="-1.205575">
        <ele>1039.0</ele>
        <time>2019-08-01T07:00:31.928Z</time>
      </trkpt>
      <trkpt lat="43.03681667" lon="-1.205605">
        <ele>1040.0</ele>
        <time>2019-08-01T07:00:32.932Z</time>
      </trkpt>
      <trkpt lat="43.036825" lon="-1.20561667">
        <ele>1040.0</ele>
        <time>2019-08-01T07:00:33.939Z</time>
      </trkpt>
      <trkpt lat="43.03684" lon="-1.20563167">
        <ele>1040.0</ele>
        <time>2019-08-01T07:00:34.945Z</time>
      </trkpt>
      <trkpt lat="43.03685" lon="-1.205645">
        <ele>1040.0</ele>
        <time>2019-08-01T07:00:35.951Z</time>
      </trkpt>
      <trkpt lat="43.03686167" lon="-1.20566167">
        <ele>1040.0</ele>
        <time>2019-08-01T07:00:36.957Z</time>
      </trkpt>
      <trkpt lat="43.03687333" lon="-1.205675">
        <ele>1040.0</ele>
        <time>2019-08-01T07:00:37.961Z</time>
      </trkpt>
      <trkpt lat="43.03688333" lon="-1.20568667">
        <ele>1040.0</ele>
        <time>2019-08-01T07:00:38.968Z</time>
      </trkpt>
      <trkpt lat="43.0369" lon="-1.20570167">
        <ele>1040.0</ele>
        <time>2019-08-01T07:00:39.973Z</time>
      </trkpt>
      <trkpt lat="43.03691167" lon="-1.20571667">
        <ele>1040.0</ele>
        <time>2019-08-01T07:00:40.980Z</time>
      </trkpt>
      <trkpt lat="43.03692333" lon="-1.20573167">
        <ele>1039.0</ele>
        <time>2019-08-01T07:00:41.985Z</time>
      </trkpt>
      <trkpt lat="43.036935" lon="-1.20574667">
        <ele>1039.0</ele>
        <time>2019-08-01T07:00:42.990Z</time>
      </trkpt>
      <trkpt lat="43.03694667" lon="-1.20576">
        <ele>1039.0</ele>
        <time>2019-08-01T07:00:43.997Z</time>
      </trkpt>
      <trkpt lat="43.036955" lon="-1.20577667">
        <ele>1039.0</ele>
        <time>2019-08-01T07:00:45.003Z</time>
      </trkpt>
      <trkpt lat="43.036965" lon="-1.20579167">
        <ele>1039.0</ele>
        <time>2019-08-01T07:00:46.007Z</time>
      </trkpt>
      <trkpt lat="43.036975" lon="-1.2058">
        <ele>1039.0</ele>
        <time>2019-08-01T07:00:47.013Z</time>
      </trkpt>
      <trkpt lat="43.03698833" lon="-1.205815">
        <ele>1039.0</ele>
        <time>2019-08-01T07:00:48.018Z</time>
      </trkpt>
      <trkpt lat="43.03700167" lon="-1.20583">
        <ele>1039.0</ele>
        <time>2019-08-01T07:00:49.023Z</time>
      </trkpt>
      <trkpt lat="43.03701" lon="-1.20584">
        <ele>1039.0</ele>
        <time>2019-08-01T07:00:50.028Z</time>
      </trkpt>
      <trkpt lat="43.03702333" lon="-1.20585167">
        <ele>1039.0</ele>
        <time>2019-08-01T07:00:51.035Z</time>
      </trkpt>
      <trkpt lat="43.03703" lon="-1.205865">
        <ele>1039.0</ele>
        <time>2019-08-01T07:00:52.043Z</time>
      </trkpt>
      <trkpt lat="43.03703" lon="-1.205865">
        <ele>1039.0</ele>
        <time>2019-08-01T07:00:52.922Z</time>
      </trkpt>
      <trkpt lat="43.03704167" lon="-1.205885">
        <ele>1039.0</ele>
        <time>2019-08-01T07:00:53.928Z</time>
      </trkpt>
      <trkpt lat="43.03706167" lon="-1.205915">
        <ele>1040.0</ele>
        <time>2019-08-01T07:00:54.933Z</time>
      </trkpt>
      <trkpt lat="43.03707333" lon="-1.20593">
        <ele>1040.0</ele>
        <time>2019-08-01T07:00:55.937Z</time>
      </trkpt>
      <trkpt lat="43.03708333" lon="-1.20594167">
        <ele>1040.0</ele>
        <time>2019-08-01T07:00:56.941Z</time>
      </trkpt>
      <trkpt lat="43.03709667" lon="-1.20595667">
        <ele>1040.0</ele>
        <time>2019-08-01T07:00:57.945Z</time>
      </trkpt>
      <trkpt lat="43.03710667" lon="-1.20597">
        <ele>1039.0</ele>
        <time>2019-08-01T07:00:58.952Z</time>
      </trkpt>
      <trkpt lat="43.03712" lon="-1.205985">
        <ele>1039.0</ele>
        <time>2019-08-01T07:00:59.958Z</time>
      </trkpt>
      <trkpt lat="43.03713333" lon="-1.20599833">
        <ele>1038.0</ele>
        <time>2019-08-01T07:01:00.964Z</time>
      </trkpt>
      <trkpt lat="43.03714667" lon="-1.20601167">
        <ele>1038.0</ele>
        <time>2019-08-01T07:01:01.969Z</time>
      </trkpt>
      <trkpt lat="43.03715833" lon="-1.206025">
        <ele>1038.0</ele>
        <time>2019-08-01T07:01:02.973Z</time>
      </trkpt>
      <trkpt lat="43.03716833" lon="-1.20603667">
        <ele>1037.0</ele>
        <time>2019-08-01T07:01:03.979Z</time>
      </trkpt>
      <trkpt lat="43.03717833" lon="-1.20605">
        <ele>1037.0</ele>
        <time>2019-08-01T07:01:04.985Z</time>
      </trkpt>
      <trkpt lat="43.03719" lon="-1.20606333">
        <ele>1037.0</ele>
        <time>2019-08-01T07:01:05.990Z</time>
      </trkpt>
      <trkpt lat="43.03720167" lon="-1.20607667">
        <ele>1037.0</ele>
        <time>2019-08-01T07:01:06.997Z</time>
      </trkpt>
      <trkpt lat="43.03721667" lon="-1.20609">
        <ele>1037.0</ele>
        <time>2019-08-01T07:01:08.004Z</time>
      </trkpt>
      <trkpt lat="43.03723" lon="-1.20610333">
        <ele>1037.0</ele>
        <time>2019-08-01T07:01:09.010Z</time>
      </trkpt>
      <trkpt lat="43.03724333" lon="-1.20611333">
        <ele>1037.0</ele>
        <time>2019-08-01T07:01:10.015Z</time>
      </trkpt>
      <trkpt lat="43.03725667" lon="-1.20612667">
        <ele>1037.0</ele>
        <time>2019-08-01T07:01:11.020Z</time>
      </trkpt>
      <trkpt lat="43.03727167" lon="-1.20614">
        <ele>1036.0</ele>
        <time>2019-08-01T07:01:12.028Z</time>
      </trkpt>
      <trkpt lat="43.037285" lon="-1.20615">
        <ele>1036.0</ele>
        <time>2019-08-01T07:01:13.034Z</time>
      </trkpt>
      <trkpt lat="43.037295" lon="-1.20616167">
        <ele>1035.0</ele>
        <time>2019-08-01T07:01:14.040Z</time>
      </trkpt>
      <trkpt lat="43.037295" lon="-1.20616167">
        <ele>1035.0</ele>
        <time>2019-08-01T07:01:14.920Z</time>
      </trkpt>
      <trkpt lat="43.03730833" lon="-1.206175">
        <ele>1035.0</ele>
        <time>2019-08-01T07:01:15.925Z</time>
      </trkpt>
      <trkpt lat="43.03732167" lon="-1.20618667">
        <ele>1035.0</ele>
        <time>2019-08-01T07:01:16.929Z</time>
      </trkpt>
      <trkpt lat="43.03735" lon="-1.20620833">
        <ele>1034.0</ele>
        <time>2019-08-01T07:01:17.931Z</time>
      </trkpt>
      <trkpt lat="43.03735" lon="-1.20620833">
        <ele>1034.0</ele>
        <time>2019-08-01T07:01:18.937Z</time>
      </trkpt>
      <trkpt lat="43.03737833" lon="-1.20623167">
        <ele>1034.0</ele>
        <time>2019-08-01T07:01:19.942Z</time>
      </trkpt>
      <trkpt lat="43.03738833" lon="-1.20624667">
        <ele>1034.0</ele>
        <time>2019-08-01T07:01:20.949Z</time>
      </trkpt>
      <trkpt lat="43.0374" lon="-1.20626167">
        <ele>1034.0</ele>
        <time>2019-08-01T07:01:21.955Z</time>
      </trkpt>
      <trkpt lat="43.03741" lon="-1.20627833">
        <ele>1034.0</ele>
        <time>2019-08-01T07:01:22.961Z</time>
      </trkpt>
      <trkpt lat="43.03742167" lon="-1.20629">
        <ele>1034.0</ele>
        <time>2019-08-01T07:01:23.968Z</time>
      </trkpt>
      <trkpt lat="43.03743333" lon="-1.20630333">
        <ele>1034.0</ele>
        <time>2019-08-01T07:01:24.973Z</time>
      </trkpt>
      <trkpt lat="43.03744667" lon="-1.20631667">
        <ele>1033.0</ele>
        <time>2019-08-01T07:01:25.978Z</time>
      </trkpt>
      <trkpt lat="43.03746167" lon="-1.20632833">
        <ele>1033.0</ele>
        <time>2019-08-01T07:01:26.984Z</time>
      </trkpt>
      <trkpt lat="43.03747667" lon="-1.20633833">
        <ele>1033.0</ele>
        <time>2019-08-01T07:01:27.991Z</time>
      </trkpt>
      <trkpt lat="43.03749" lon="-1.20635333">
        <ele>1033.0</ele>
        <time>2019-08-01T07:01:28.997Z</time>
      </trkpt>
      <trkpt lat="43.037505" lon="-1.20636">
        <ele>1033.0</ele>
        <time>2019-08-01T07:01:30.001Z</time>
      </trkpt>
      <trkpt lat="43.03752" lon="-1.20637">
        <ele>1033.0</ele>
        <time>2019-08-01T07:01:31.007Z</time>
      </trkpt>
      <trkpt lat="43.03753333" lon="-1.20637833">
        <ele>1033.0</ele>
        <time>2019-08-01T07:01:32.013Z</time>
      </trkpt>
      <trkpt lat="43.037545" lon="-1.20638833">
        <ele>1033.0</ele>
        <time>2019-08-01T07:01:33.019Z</time>
      </trkpt>
      <trkpt lat="43.03755833" lon="-1.2064">
        <ele>1033.0</ele>
        <time>2019-08-01T07:01:34.025Z</time>
      </trkpt>
      <trkpt lat="43.03757" lon="-1.20641">
        <ele>1033.0</ele>
        <time>2019-08-01T07:01:35.033Z</time>
      </trkpt>
      <trkpt lat="43.037585" lon="-1.20642333">
        <ele>1033.0</ele>
        <time>2019-08-01T07:01:36.037Z</time>
      </trkpt>
      <trkpt lat="43.037595" lon="-1.206435">
        <ele>1032.0</ele>
        <time>2019-08-01T07:01:37.042Z</time>
      </trkpt>
      <trkpt lat="43.037595" lon="-1.206435">
        <ele>1032.0</ele>
        <time>2019-08-01T07:01:37.920Z</time>
      </trkpt>
      <trkpt lat="43.03760667" lon="-1.20644833">
        <ele>1032.0</ele>
        <time>2019-08-01T07:01:38.924Z</time>
      </trkpt>
      <trkpt lat="43.03762167" lon="-1.20645667">
        <ele>1032.0</ele>
        <time>2019-08-01T07:01:39.929Z</time>
      </trkpt>
      <trkpt lat="43.03765" lon="-1.20647833">
        <ele>1031.0</ele>
        <time>2019-08-01T07:01:40.933Z</time>
      </trkpt>
      <trkpt lat="43.03766333" lon="-1.20649">
        <ele>1031.0</ele>
        <time>2019-08-01T07:01:41.936Z</time>
      </trkpt>
      <trkpt lat="43.037675" lon="-1.2065">
        <ele>1032.0</ele>
        <time>2019-08-01T07:01:42.938Z</time>
      </trkpt>
      <trkpt lat="43.03769" lon="-1.20651167">
        <ele>1032.0</ele>
        <time>2019-08-01T07:01:43.944Z</time>
      </trkpt>
      <trkpt lat="43.03770333" lon="-1.206525">
        <ele>1032.0</ele>
        <time>2019-08-01T07:01:44.950Z</time>
      </trkpt>
      <trkpt lat="43.03771833" lon="-1.20653333">
        <ele>1032.0</ele>
        <time>2019-08-01T07:01:45.957Z</time>
      </trkpt>
      <trkpt lat="43.03773" lon="-1.20654333">
        <ele>1032.0</ele>
        <time>2019-08-01T07:01:46.964Z</time>
      </trkpt>
      <trkpt lat="43.03774333" lon="-1.206555">
        <ele>1031.0</ele>
        <time>2019-08-01T07:01:47.969Z</time>
      </trkpt>
      <trkpt lat="43.03775667" lon="-1.206565">
        <ele>1031.0</ele>
        <time>2019-08-01T07:01:48.975Z</time>
      </trkpt>
      <trkpt lat="43.03777" lon="-1.20657667">
        <ele>1031.0</ele>
        <time>2019-08-01T07:01:49.982Z</time>
      </trkpt>
      <trkpt lat="43.03778333" lon="-1.20658667">
        <ele>1030.0</ele>
        <time>2019-08-01T07:01:50.987Z</time>
      </trkpt>
      <trkpt lat="43.03779667" lon="-1.206595">
        <ele>1030.0</ele>
        <time>2019-08-01T07:01:51.993Z</time>
      </trkpt>
      <trkpt lat="43.03781167" lon="-1.20660667">
        <ele>1030.0</ele>
        <time>2019-08-01T07:01:52.998Z</time>
      </trkpt>
      <trkpt lat="43.03783167" lon="-1.20661667">
        <ele>1029.0</ele>
        <time>2019-08-01T07:01:54.004Z</time>
      </trkpt>
      <trkpt lat="43.037845" lon="-1.20663">
        <ele>1029.0</ele>
        <time>2019-08-01T07:01:55.010Z</time>
      </trkpt>
      <trkpt lat="43.03785667" lon="-1.20664">
        <ele>1029.0</ele>
        <time>2019-08-01T07:01:56.015Z</time>
      </trkpt>
      <trkpt lat="43.03787167" lon="-1.20665">
        <ele>1029.0</ele>
        <time>2019-08-01T07:01:57.022Z</time>
      </trkpt>
      <trkpt lat="43.037885" lon="-1.20666167">
        <ele>1029.0</ele>
        <time>2019-08-01T07:01:58.027Z</time>
      </trkpt>
      <trkpt lat="43.0379" lon="-1.20667333">
        <ele>1029.0</ele>
        <time>2019-08-01T07:01:59.032Z</time>
      </trkpt>
      <trkpt lat="43.03791333" lon="-1.20668167">
        <ele>1030.0</ele>
        <time>2019-08-01T07:02:00.038Z</time>
      </trkpt>
      <trkpt lat="43.03791333" lon="-1.20668167">
        <ele>1030.0</ele>
        <time>2019-08-01T07:02:00.918Z</time>
      </trkpt>
      <trkpt lat="43.03792167" lon="-1.20668833">
        <ele>1030.0</ele>
        <time>2019-08-01T07:02:01.925Z</time>
      </trkpt>
      <trkpt lat="43.03792833" lon="-1.20669">
        <ele>1030.0</ele>
        <time>2019-08-01T07:02:02.931Z</time>
      </trkpt>
      <trkpt lat="43.03793" lon="-1.20669333">
        <ele>1030.0</ele>
        <time>2019-08-01T07:02:03.937Z</time>
      </trkpt>
      <trkpt lat="43.03793" lon="-1.20669333">
        <ele>1029.0</ele>
        <time>2019-08-01T07:02:04.943Z</time>
      </trkpt>
      <trkpt lat="43.03793" lon="-1.20669167">
        <ele>1030.0</ele>
        <time>2019-08-01T07:02:05.948Z</time>
      </trkpt>
      <trkpt lat="43.03793" lon="-1.20669167">
        <ele>1029.0</ele>
        <time>2019-08-01T07:02:06.953Z</time>
      </trkpt>
      <trkpt lat="43.03793" lon="-1.20669">
        <ele>1029.0</ele>
        <time>2019-08-01T07:02:07.957Z</time>
      </trkpt>
      <trkpt lat="43.03793167" lon="-1.206695">
        <ele>1029.0</ele>
        <time>2019-08-01T07:02:08.962Z</time>
      </trkpt>
      <trkpt lat="43.03794" lon="-1.20669667">
        <ele>1029.0</ele>
        <time>2019-08-01T07:02:09.967Z</time>
      </trkpt>
      <trkpt lat="43.03794833" lon="-1.20670167">
        <ele>1030.0</ele>
        <time>2019-08-01T07:02:10.972Z</time>
      </trkpt>
      <trkpt lat="43.03795833" lon="-1.20670833">
        <ele>1029.0</ele>
        <time>2019-08-01T07:02:11.976Z</time>
      </trkpt>
      <trkpt lat="43.03796833" lon="-1.20671833">
        <ele>1030.0</ele>
        <time>2019-08-01T07:02:12.983Z</time>
      </trkpt>
      <trkpt lat="43.03798" lon="-1.20672833">
        <ele>1030.0</ele>
        <time>2019-08-01T07:02:13.987Z</time>
      </trkpt>
      <trkpt lat="43.03799167" lon="-1.20673833">
        <ele>1030.0</ele>
        <time>2019-08-01T07:02:14.994Z</time>
      </trkpt>
      <trkpt lat="43.038005" lon="-1.20674833">
        <ele>1030.0</ele>
        <time>2019-08-01T07:02:15.999Z</time>
      </trkpt>
      <trkpt lat="43.03801833" lon="-1.20675667">
        <ele>1030.0</ele>
        <time>2019-08-01T07:02:17.006Z</time>
      </trkpt>
      <trkpt lat="43.03803333" lon="-1.20676833">
        <ele>1030.0</ele>
        <time>2019-08-01T07:02:18.011Z</time>
      </trkpt>
      <trkpt lat="43.03804833" lon="-1.20677167">
        <ele>1029.0</ele>
        <time>2019-08-01T07:02:19.016Z</time>
      </trkpt>
      <trkpt lat="43.03806167" lon="-1.20677667">
        <ele>1029.0</ele>
        <time>2019-08-01T07:02:20.021Z</time>
      </trkpt>
      <trkpt lat="43.03807667" lon="-1.206785">
        <ele>1029.0</ele>
        <time>2019-08-01T07:02:21.026Z</time>
      </trkpt>
      <trkpt lat="43.03809167" lon="-1.20679167">
        <ele>1029.0</ele>
        <time>2019-08-01T07:02:22.033Z</time>
      </trkpt>
      <trkpt lat="43.03810667" lon="-1.2068">
        <ele>1029.0</ele>
        <time>2019-08-01T07:02:23.038Z</time>
      </trkpt>
      <trkpt lat="43.03810667" lon="-1.2068">
        <ele>1029.0</ele>
        <time>2019-08-01T07:02:23.918Z</time>
      </trkpt>
      <trkpt lat="43.03812167" lon="-1.20680833">
        <ele>1029.0</ele>
        <time>2019-08-01T07:02:24.924Z</time>
      </trkpt>
      <trkpt lat="43.03813333" lon="-1.20681667">
        <ele>1028.0</ele>
        <time>2019-08-01T07:02:25.930Z</time>
      </trkpt>
      <trkpt lat="43.03815833" lon="-1.20683667">
        <ele>1028.0</ele>
        <time>2019-08-01T07:02:26.936Z</time>
      </trkpt>
      <trkpt lat="43.038175" lon="-1.20684833">
        <ele>1028.0</ele>
        <time>2019-08-01T07:02:27.943Z</time>
      </trkpt>
      <trkpt lat="43.03819" lon="-1.20686">
        <ele>1027.0</ele>
        <time>2019-08-01T07:02:28.949Z</time>
      </trkpt>
      <trkpt lat="43.038205" lon="-1.20687">
        <ele>1027.0</ele>
        <time>2019-08-01T07:02:29.954Z</time>
      </trkpt>
      <trkpt lat="43.03821833" lon="-1.20687667">
        <ele>1027.0</ele>
        <time>2019-08-01T07:02:30.959Z</time>
      </trkpt>
      <trkpt lat="43.038235" lon="-1.20687833">
        <ele>1026.0</ele>
        <time>2019-08-01T07:02:31.966Z</time>
      </trkpt>
      <trkpt lat="43.03825" lon="-1.20688167">
        <ele>1026.0</ele>
        <time>2019-08-01T07:02:32.971Z</time>
      </trkpt>
      <trkpt lat="43.03826333" lon="-1.20689167">
        <ele>1026.0</ele>
        <time>2019-08-01T07:02:33.979Z</time>
      </trkpt>
      <trkpt lat="43.03827833" lon="-1.2069">
        <ele>1026.0</ele>
        <time>2019-08-01T07:02:34.987Z</time>
      </trkpt>
      <trkpt lat="43.038295" lon="-1.20690667">
        <ele>1026.0</ele>
        <time>2019-08-01T07:02:35.992Z</time>
      </trkpt>
      <trkpt lat="43.03830833" lon="-1.206915">
        <ele>1027.0</ele>
        <time>2019-08-01T07:02:36.998Z</time>
      </trkpt>
      <trkpt lat="43.03832167" lon="-1.20692">
        <ele>1027.0</ele>
        <time>2019-08-01T07:02:38.004Z</time>
      </trkpt>
      <trkpt lat="43.03833833" lon="-1.206925">
        <ele>1026.0</ele>
        <time>2019-08-01T07:02:39.009Z</time>
      </trkpt>
      <trkpt lat="43.03835333" lon="-1.20693333">
        <ele>1026.0</ele>
        <time>2019-08-01T07:02:40.012Z</time>
      </trkpt>
      <trkpt lat="43.03836833" lon="-1.20694333">
        <ele>1026.0</ele>
        <time>2019-08-01T07:02:41.018Z</time>
      </trkpt>
      <trkpt lat="43.038385" lon="-1.20695167">
        <ele>1026.0</ele>
        <time>2019-08-01T07:02:42.025Z</time>
      </trkpt>
      <trkpt lat="43.0384" lon="-1.20695833">
        <ele>1026.0</ele>
        <time>2019-08-01T07:02:43.031Z</time>
      </trkpt>
      <trkpt lat="43.03841333" lon="-1.20696833">
        <ele>1026.0</ele>
        <time>2019-08-01T07:02:44.037Z</time>
      </trkpt>
      <trkpt lat="43.03843167" lon="-1.20698">
        <ele>1027.0</ele>
        <time>2019-08-01T07:02:45.042Z</time>
      </trkpt>
      <trkpt lat="43.03843167" lon="-1.20698">
        <ele>1027.0</ele>
        <time>2019-08-01T07:02:45.921Z</time>
      </trkpt>
      <trkpt lat="43.03844833" lon="-1.20698833">
        <ele>1027.0</ele>
        <time>2019-08-01T07:02:46.927Z</time>
      </trkpt>
      <trkpt lat="43.03846167" lon="-1.20699833">
        <ele>1026.0</ele>
        <time>2019-08-01T07:02:47.930Z</time>
      </trkpt>
      <trkpt lat="43.03848667" lon="-1.20701833">
        <ele>1027.0</ele>
        <time>2019-08-01T07:02:48.936Z</time>
      </trkpt>
      <trkpt lat="43.0385" lon="-1.20702333">
        <ele>1027.0</ele>
        <time>2019-08-01T07:02:49.941Z</time>
      </trkpt>
      <trkpt lat="43.03851667" lon="-1.20703167">
        <ele>1027.0</ele>
        <time>2019-08-01T07:02:50.946Z</time>
      </trkpt>
      <trkpt lat="43.03852833" lon="-1.20704333">
        <ele>1027.0</ele>
        <time>2019-08-01T07:02:51.951Z</time>
      </trkpt>
      <trkpt lat="43.03854167" lon="-1.20705333">
        <ele>1027.0</ele>
        <time>2019-08-01T07:02:52.955Z</time>
      </trkpt>
      <trkpt lat="43.03855833" lon="-1.20706667">
        <ele>1027.0</ele>
        <time>2019-08-01T07:02:53.962Z</time>
      </trkpt>
      <trkpt lat="43.03857167" lon="-1.20707167">
        <ele>1026.0</ele>
        <time>2019-08-01T07:02:54.969Z</time>
      </trkpt>
      <trkpt lat="43.03858833" lon="-1.20707833">
        <ele>1026.0</ele>
        <time>2019-08-01T07:02:55.976Z</time>
      </trkpt>
      <trkpt lat="43.03860167" lon="-1.20708833">
        <ele>1026.0</ele>
        <time>2019-08-01T07:02:56.983Z</time>
      </trkpt>
      <trkpt lat="43.03861667" lon="-1.20709667">
        <ele>1026.0</ele>
        <time>2019-08-01T07:02:57.990Z</time>
      </trkpt>
      <trkpt lat="43.03863333" lon="-1.20710167">
        <ele>1025.0</ele>
        <time>2019-08-01T07:02:58.997Z</time>
      </trkpt>
      <trkpt lat="43.03864833" lon="-1.20711">
        <ele>1025.0</ele>
        <time>2019-08-01T07:03:00.002Z</time>
      </trkpt>
      <trkpt lat="43.03866333" lon="-1.20711667">
        <ele>1025.0</ele>
        <time>2019-08-01T07:03:01.006Z</time>
      </trkpt>
      <trkpt lat="43.03867833" lon="-1.207125">
        <ele>1025.0</ele>
        <time>2019-08-01T07:03:02.011Z</time>
      </trkpt>
      <trkpt lat="43.03869333" lon="-1.20713333">
        <ele>1024.0</ele>
        <time>2019-08-01T07:03:03.016Z</time>
      </trkpt>
      <trkpt lat="43.03870833" lon="-1.20714333">
        <ele>1024.0</ele>
        <time>2019-08-01T07:03:04.021Z</time>
      </trkpt>
      <trkpt lat="43.03872333" lon="-1.20715333">
        <ele>1025.0</ele>
        <time>2019-08-01T07:03:05.027Z</time>
      </trkpt>
      <trkpt lat="43.03873833" lon="-1.20716">
        <ele>1025.0</ele>
        <time>2019-08-01T07:03:06.033Z</time>
      </trkpt>
      <trkpt lat="43.03875" lon="-1.20717">
        <ele>1025.0</ele>
        <time>2019-08-01T07:03:07.034Z</time>
      </trkpt>
      <trkpt lat="43.03876167" lon="-1.20718">
        <ele>1025.0</ele>
        <time>2019-08-01T07:03:08.038Z</time>
      </trkpt>
      <trkpt lat="43.03876167" lon="-1.20718">
        <ele>1025.0</ele>
        <time>2019-08-01T07:03:08.918Z</time>
      </trkpt>
      <trkpt lat="43.03877333" lon="-1.20719">
        <ele>1026.0</ele>
        <time>2019-08-01T07:03:09.924Z</time>
      </trkpt>
      <trkpt lat="43.03878667" lon="-1.20719833">
        <ele>1026.0</ele>
        <time>2019-08-01T07:03:10.928Z</time>
      </trkpt>
      <trkpt lat="43.03881667" lon="-1.20721">
        <ele>1026.0</ele>
        <time>2019-08-01T07:03:11.934Z</time>
      </trkpt>
      <trkpt lat="43.03882833" lon="-1.20722">
        <ele>1026.0</ele>
        <time>2019-08-01T07:03:12.940Z</time>
      </trkpt>
      <trkpt lat="43.03884167" lon="-1.20722667">
        <ele>1026.0</ele>
        <time>2019-08-01T07:03:13.945Z</time>
      </trkpt>
      <trkpt lat="43.03885833" lon="-1.20723167">
        <ele>1026.0</ele>
        <time>2019-08-01T07:03:14.951Z</time>
      </trkpt>
      <trkpt lat="43.03887333" lon="-1.20723667">
        <ele>1027.0</ele>
        <time>2019-08-01T07:03:15.958Z</time>
      </trkpt>
      <trkpt lat="43.03888833" lon="-1.20724">
        <ele>1027.0</ele>
        <time>2019-08-01T07:03:16.965Z</time>
      </trkpt>
      <trkpt lat="43.03890333" lon="-1.207245">
        <ele>1027.0</ele>
        <time>2019-08-01T07:03:17.969Z</time>
      </trkpt>
      <trkpt lat="43.03892" lon="-1.20724833">
        <ele>1027.0</ele>
        <time>2019-08-01T07:03:18.975Z</time>
      </trkpt>
      <trkpt lat="43.038935" lon="-1.20725">
        <ele>1027.0</ele>
        <time>2019-08-01T07:03:19.982Z</time>
      </trkpt>
      <trkpt lat="43.03895" lon="-1.20725333">
        <ele>1027.0</ele>
        <time>2019-08-01T07:03:20.988Z</time>
      </trkpt>
      <trkpt lat="43.03896833" lon="-1.20725667">
        <ele>1027.0</ele>
        <time>2019-08-01T07:03:21.991Z</time>
      </trkpt>
      <trkpt lat="43.03898167" lon="-1.20725667">
        <ele>1026.0</ele>
        <time>2019-08-01T07:03:22.994Z</time>
      </trkpt>
      <trkpt lat="43.038995" lon="-1.20725833">
        <ele>1025.0</ele>
        <time>2019-08-01T07:03:24.001Z</time>
      </trkpt>
      <trkpt lat="43.03900667" lon="-1.20726167">
        <ele>1025.0</ele>
        <time>2019-08-01T07:03:25.006Z</time>
      </trkpt>
      <trkpt lat="43.03902167" lon="-1.20726833">
        <ele>1025.0</ele>
        <time>2019-08-01T07:03:26.011Z</time>
      </trkpt>
      <trkpt lat="43.03904" lon="-1.20727667">
        <ele>1024.0</ele>
        <time>2019-08-01T07:03:27.017Z</time>
      </trkpt>
      <trkpt lat="43.039055" lon="-1.20728167">
        <ele>1024.0</ele>
        <time>2019-08-01T07:03:28.021Z</time>
      </trkpt>
      <trkpt lat="43.03907" lon="-1.20728667">
        <ele>1024.0</ele>
        <time>2019-08-01T07:03:29.027Z</time>
      </trkpt>
      <trkpt lat="43.03908333" lon="-1.20729333">
        <ele>1023.0</ele>
        <time>2019-08-01T07:03:30.034Z</time>
      </trkpt>
      <trkpt lat="43.03910167" lon="-1.20729667">
        <ele>1023.0</ele>
        <time>2019-08-01T07:03:31.040Z</time>
      </trkpt>
      <trkpt lat="43.03910167" lon="-1.20729667">
        <ele>1023.0</ele>
        <time>2019-08-01T07:03:31.920Z</time>
      </trkpt>
      <trkpt lat="43.03911833" lon="-1.20730333">
        <ele>1023.0</ele>
        <time>2019-08-01T07:03:32.926Z</time>
      </trkpt>
      <trkpt lat="43.03913333" lon="-1.20731167">
        <ele>1023.0</ele>
        <time>2019-08-01T07:03:33.930Z</time>
      </trkpt>
      <trkpt lat="43.03916167" lon="-1.20732833">
        <ele>1022.0</ele>
        <time>2019-08-01T07:03:34.933Z</time>
      </trkpt>
      <trkpt lat="43.03917833" lon="-1.20733833">
        <ele>1023.0</ele>
        <time>2019-08-01T07:03:35.938Z</time>
      </trkpt>
      <trkpt lat="43.03919333" lon="-1.207345">
        <ele>1023.0</ele>
        <time>2019-08-01T07:03:36.945Z</time>
      </trkpt>
      <trkpt lat="43.03920667" lon="-1.20735">
        <ele>1023.0</ele>
        <time>2019-08-01T07:03:37.950Z</time>
      </trkpt>
      <trkpt lat="43.03922167" lon="-1.20736">
        <ele>1022.0</ele>
        <time>2019-08-01T07:03:38.956Z</time>
      </trkpt>
      <trkpt lat="43.03923333" lon="-1.20737">
        <ele>1022.0</ele>
        <time>2019-08-01T07:03:39.963Z</time>
      </trkpt>
      <trkpt lat="43.03925333" lon="-1.20737667">
        <ele>1022.0</ele>
        <time>2019-08-01T07:03:40.969Z</time>
      </trkpt>
      <trkpt lat="43.03926833" lon="-1.20738167">
        <ele>1022.0</ele>
        <time>2019-08-01T07:03:41.974Z</time>
      </trkpt>
      <trkpt lat="43.03928333" lon="-1.20738333">
        <ele>1022.0</ele>
        <time>2019-08-01T07:03:42.980Z</time>
      </trkpt>
      <trkpt lat="43.0393" lon="-1.20739">
        <ele>1022.0</ele>
        <time>2019-08-01T07:03:43.988Z</time>
      </trkpt>
      <trkpt lat="43.03931333" lon="-1.207395">
        <ele>1023.0</ele>
        <time>2019-08-01T07:03:44.994Z</time>
      </trkpt>
      <trkpt lat="43.03932667" lon="-1.20740167">
        <ele>1023.0</ele>
        <time>2019-08-01T07:03:45.999Z</time>
      </trkpt>
      <trkpt lat="43.03934167" lon="-1.20741">
        <ele>1023.0</ele>
        <time>2019-08-01T07:03:47.005Z</time>
      </trkpt>
      <trkpt lat="43.03935333" lon="-1.20742333">
        <ele>1023.0</ele>
        <time>2019-08-01T07:03:48.011Z</time>
      </trkpt>
      <trkpt lat="43.03936667" lon="-1.207435">
        <ele>1023.0</ele>
        <time>2019-08-01T07:03:49.019Z</time>
      </trkpt>
      <trkpt lat="43.03938167" lon="-1.20744333">
        <ele>1023.0</ele>
        <time>2019-08-01T07:03:50.026Z</time>
      </trkpt>
      <trkpt lat="43.03939333" lon="-1.207455">
        <ele>1023.0</ele>
        <time>2019-08-01T07:03:51.032Z</time>
      </trkpt>
      <trkpt lat="43.03940833" lon="-1.20746833">
        <ele>1023.0</ele>
        <time>2019-08-01T07:03:52.040Z</time>
      </trkpt>
      <trkpt lat="43.03940833" lon="-1.20746833">
        <ele>1023.0</ele>
        <time>2019-08-01T07:03:52.919Z</time>
      </trkpt>
      <trkpt lat="43.03942" lon="-1.20747833">
        <ele>1023.0</ele>
        <time>2019-08-01T07:03:53.924Z</time>
      </trkpt>
      <trkpt lat="43.039435" lon="-1.20748667">
        <ele>1023.0</ele>
        <time>2019-08-01T07:03:54.929Z</time>
      </trkpt>
      <trkpt lat="43.03946833" lon="-1.2075">
        <ele>1023.0</ele>
        <time>2019-08-01T07:03:55.934Z</time>
      </trkpt>
      <trkpt lat="43.03948" lon="-1.207505">
        <ele>1023.0</ele>
        <time>2019-08-01T07:03:56.940Z</time>
      </trkpt>
      <trkpt lat="43.03949333" lon="-1.20751167">
        <ele>1023.0</ele>
        <time>2019-08-01T07:03:57.947Z</time>
      </trkpt>
      <trkpt lat="43.039505" lon="-1.20751833">
        <ele>1023.0</ele>
        <time>2019-08-01T07:03:58.954Z</time>
      </trkpt>
      <trkpt lat="43.03951667" lon="-1.20753">
        <ele>1023.0</ele>
        <time>2019-08-01T07:03:59.960Z</time>
      </trkpt>
      <trkpt lat="43.03953167" lon="-1.20753833">
        <ele>1023.0</ele>
        <time>2019-08-01T07:04:00.965Z</time>
      </trkpt>
      <trkpt lat="43.03954667" lon="-1.20754667">
        <ele>1022.0</ele>
        <time>2019-08-01T07:04:01.967Z</time>
      </trkpt>
      <trkpt lat="43.03956" lon="-1.20755333">
        <ele>1022.0</ele>
        <time>2019-08-01T07:04:02.969Z</time>
      </trkpt>
      <trkpt lat="43.03957833" lon="-1.20756167">
        <ele>1022.0</ele>
        <time>2019-08-01T07:04:03.975Z</time>
      </trkpt>
      <trkpt lat="43.03959" lon="-1.20757">
        <ele>1022.0</ele>
        <time>2019-08-01T07:04:04.982Z</time>
      </trkpt>
      <trkpt lat="43.03960333" lon="-1.20757833">
        <ele>1021.0</ele>
        <time>2019-08-01T07:04:05.986Z</time>
      </trkpt>
      <trkpt lat="43.039615" lon="-1.20758667">
        <ele>1021.0</ele>
        <time>2019-08-01T07:04:06.993Z</time>
      </trkpt>
      <trkpt lat="43.03962833" lon="-1.207595">
        <ele>1021.0</ele>
        <time>2019-08-01T07:04:07.998Z</time>
      </trkpt>
      <trkpt lat="43.03964" lon="-1.207605">
        <ele>1021.0</ele>
        <time>2019-08-01T07:04:09.003Z</time>
      </trkpt>
      <trkpt lat="43.039655" lon="-1.207615">
        <ele>1020.0</ele>
        <time>2019-08-01T07:04:10.009Z</time>
      </trkpt>
      <trkpt lat="43.03966667" lon="-1.20761833">
        <ele>1020.0</ele>
        <time>2019-08-01T07:04:11.015Z</time>
      </trkpt>
      <trkpt lat="43.03968" lon="-1.20762667">
        <ele>1020.0</ele>
        <time>2019-08-01T07:04:12.021Z</time>
      </trkpt>
      <trkpt lat="43.03969667" lon="-1.20763667">
        <ele>1020.0</ele>
        <time>2019-08-01T07:04:13.025Z</time>
      </trkpt>
      <trkpt lat="43.03970833" lon="-1.20764167">
        <ele>1020.0</ele>
        <time>2019-08-01T07:04:14.031Z</time>
      </trkpt>
      <trkpt lat="43.03972167" lon="-1.20765">
        <ele>1020.0</ele>
        <time>2019-08-01T07:04:15.039Z</time>
      </trkpt>
      <trkpt lat="43.03972167" lon="-1.20765">
        <ele>1020.0</ele>
        <time>2019-08-01T07:04:15.919Z</time>
      </trkpt>
      <trkpt lat="43.03973833" lon="-1.20765833">
        <ele>1020.0</ele>
        <time>2019-08-01T07:04:16.924Z</time>
      </trkpt>
      <trkpt lat="43.03975167" lon="-1.20766667">
        <ele>1020.0</ele>
        <time>2019-08-01T07:04:17.930Z</time>
      </trkpt>
      <trkpt lat="43.03978167" lon="-1.20768167">
        <ele>1020.0</ele>
        <time>2019-08-01T07:04:18.935Z</time>
      </trkpt>
      <trkpt lat="43.039795" lon="-1.20768833">
        <ele>1020.0</ele>
        <time>2019-08-01T07:04:19.942Z</time>
      </trkpt>
      <trkpt lat="43.039795" lon="-1.20768833">
        <ele>1020.0</ele>
        <time>2019-08-01T07:04:20.948Z</time>
      </trkpt>
      <trkpt lat="43.03982333" lon="-1.20771">
        <ele>1020.0</ele>
        <time>2019-08-01T07:04:21.955Z</time>
      </trkpt>
      <trkpt lat="43.039835" lon="-1.20771833">
        <ele>1019.0</ele>
        <time>2019-08-01T07:04:22.958Z</time>
      </trkpt>
      <trkpt lat="43.03984667" lon="-1.20773167">
        <ele>1019.0</ele>
        <time>2019-08-01T07:04:23.963Z</time>
      </trkpt>
      <trkpt lat="43.03986" lon="-1.207745">
        <ele>1019.0</ele>
        <time>2019-08-01T07:04:24.968Z</time>
      </trkpt>
      <trkpt lat="43.039875" lon="-1.20775667">
        <ele>1019.0</ele>
        <time>2019-08-01T07:04:25.972Z</time>
      </trkpt>
      <trkpt lat="43.03989333" lon="-1.20776667">
        <ele>1019.0</ele>
        <time>2019-08-01T07:04:26.979Z</time>
      </trkpt>
      <trkpt lat="43.03990667" lon="-1.20777333">
        <ele>1019.0</ele>
        <time>2019-08-01T07:04:27.986Z</time>
      </trkpt>
      <trkpt lat="43.03991833" lon="-1.20778333">
        <ele>1018.0</ele>
        <time>2019-08-01T07:04:28.992Z</time>
      </trkpt>
      <trkpt lat="43.03993167" lon="-1.20779333">
        <ele>1018.0</ele>
        <time>2019-08-01T07:04:29.999Z</time>
      </trkpt>
      <trkpt lat="43.039945" lon="-1.20780333">
        <ele>1018.0</ele>
        <time>2019-08-01T07:04:31.004Z</time>
      </trkpt>
      <trkpt lat="43.03996" lon="-1.20781333">
        <ele>1018.0</ele>
        <time>2019-08-01T07:04:32.011Z</time>
      </trkpt>
      <trkpt lat="43.03997333" lon="-1.20782167">
        <ele>1018.0</ele>
        <time>2019-08-01T07:04:33.017Z</time>
      </trkpt>
      <trkpt lat="43.03998833" lon="-1.20783333">
        <ele>1018.0</ele>
        <time>2019-08-01T07:04:34.021Z</time>
      </trkpt>
      <trkpt lat="43.04" lon="-1.20784667">
        <ele>1019.0</ele>
        <time>2019-08-01T07:04:35.028Z</time>
      </trkpt>
      <trkpt lat="43.040015" lon="-1.20785667">
        <ele>1019.0</ele>
        <time>2019-08-01T07:04:36.035Z</time>
      </trkpt>
      <trkpt lat="43.04002667" lon="-1.20786833">
        <ele>1019.0</ele>
        <time>2019-08-01T07:04:37.041Z</time>
      </trkpt>
      <trkpt lat="43.04002667" lon="-1.20786833">
        <ele>1019.0</ele>
        <time>2019-08-01T07:04:37.921Z</time>
      </trkpt>
      <trkpt lat="43.04004167" lon="-1.20787833">
        <ele>1019.0</ele>
        <time>2019-08-01T07:04:38.926Z</time>
      </trkpt>
      <trkpt lat="43.04005167" lon="-1.20788167">
        <ele>1019.0</ele>
        <time>2019-08-01T07:04:39.930Z</time>
      </trkpt>
      <trkpt lat="43.04008167" lon="-1.20789167">
        <ele>1019.0</ele>
        <time>2019-08-01T07:04:40.936Z</time>
      </trkpt>
      <trkpt lat="43.04009833" lon="-1.207895">
        <ele>1019.0</ele>
        <time>2019-08-01T07:04:41.941Z</time>
      </trkpt>
      <trkpt lat="43.04011333" lon="-1.2079">
        <ele>1019.0</ele>
        <time>2019-08-01T07:04:42.945Z</time>
      </trkpt>
      <trkpt lat="43.04012833" lon="-1.20790667">
        <ele>1019.0</ele>
        <time>2019-08-01T07:04:43.951Z</time>
      </trkpt>
      <trkpt lat="43.04014167" lon="-1.207915">
        <ele>1019.0</ele>
        <time>2019-08-01T07:04:44.958Z</time>
      </trkpt>
      <trkpt lat="43.04015667" lon="-1.20792333">
        <ele>1019.0</ele>
        <time>2019-08-01T07:04:45.966Z</time>
      </trkpt>
      <trkpt lat="43.04017" lon="-1.20792833">
        <ele>1019.0</ele>
        <time>2019-08-01T07:04:46.972Z</time>
      </trkpt>
      <trkpt lat="43.04018167" lon="-1.20793">
        <ele>1019.0</ele>
        <time>2019-08-01T07:04:47.977Z</time>
      </trkpt>
      <trkpt lat="43.04019667" lon="-1.20793333">
        <ele>1019.0</ele>
        <time>2019-08-01T07:04:48.983Z</time>
      </trkpt>
      <trkpt lat="43.04021333" lon="-1.207935">
        <ele>1019.0</ele>
        <time>2019-08-01T07:04:49.990Z</time>
      </trkpt>
      <trkpt lat="43.04023" lon="-1.20793667">
        <ele>1019.0</ele>
        <time>2019-08-01T07:04:50.997Z</time>
      </trkpt>
      <trkpt lat="43.04025" lon="-1.20793833">
        <ele>1019.0</ele>
        <time>2019-08-01T07:04:52.002Z</time>
      </trkpt>
      <trkpt lat="43.04026333" lon="-1.20794333">
        <ele>1019.0</ele>
        <time>2019-08-01T07:04:53.009Z</time>
      </trkpt>
      <trkpt lat="43.04027833" lon="-1.20795167">
        <ele>1019.0</ele>
        <time>2019-08-01T07:04:54.015Z</time>
      </trkpt>
      <trkpt lat="43.040295" lon="-1.20796333">
        <ele>1019.0</ele>
        <time>2019-08-01T07:04:55.018Z</time>
      </trkpt>
      <trkpt lat="43.04031167" lon="-1.20797">
        <ele>1019.0</ele>
        <time>2019-08-01T07:04:56.021Z</time>
      </trkpt>
      <trkpt lat="43.04032333" lon="-1.20797667">
        <ele>1019.0</ele>
        <time>2019-08-01T07:04:57.028Z</time>
      </trkpt>
      <trkpt lat="43.04033667" lon="-1.20798167">
        <ele>1019.0</ele>
        <time>2019-08-01T07:04:58.034Z</time>
      </trkpt>
      <trkpt lat="43.04035167" lon="-1.20799">
        <ele>1020.0</ele>
        <time>2019-08-01T07:04:59.040Z</time>
      </trkpt>
      <trkpt lat="43.04035167" lon="-1.20799">
        <ele>1020.0</ele>
        <time>2019-08-01T07:04:59.919Z</time>
      </trkpt>
      <trkpt lat="43.04037" lon="-1.20799833">
        <ele>1021.0</ele>
        <time>2019-08-01T07:05:00.924Z</time>
      </trkpt>
      <trkpt lat="43.040385" lon="-1.208005">
        <ele>1021.0</ele>
        <time>2019-08-01T07:05:01.929Z</time>
      </trkpt>
      <trkpt lat="43.04039667" lon="-1.20800833">
        <ele>1021.0</ele>
        <time>2019-08-01T07:05:02.933Z</time>
      </trkpt>
      <trkpt lat="43.04042667" lon="-1.208015">
        <ele>1021.0</ele>
        <time>2019-08-01T07:05:03.937Z</time>
      </trkpt>
      <trkpt lat="43.04044667" lon="-1.20801667">
        <ele>1021.0</ele>
        <time>2019-08-01T07:05:04.943Z</time>
      </trkpt>
      <trkpt lat="43.04046" lon="-1.20801833">
        <ele>1021.0</ele>
        <time>2019-08-01T07:05:05.948Z</time>
      </trkpt>
      <trkpt lat="43.04047667" lon="-1.20802">
        <ele>1021.0</ele>
        <time>2019-08-01T07:05:06.955Z</time>
      </trkpt>
      <trkpt lat="43.040495" lon="-1.20802333">
        <ele>1021.0</ele>
        <time>2019-08-01T07:05:07.959Z</time>
      </trkpt>
      <trkpt lat="43.04050667" lon="-1.208025">
        <ele>1021.0</ele>
        <time>2019-08-01T07:05:08.964Z</time>
      </trkpt>
      <trkpt lat="43.040525" lon="-1.20802333">
        <ele>1021.0</ele>
        <time>2019-08-01T07:05:09.969Z</time>
      </trkpt>
      <trkpt lat="43.04054167" lon="-1.20802167">
        <ele>1022.0</ele>
        <time>2019-08-01T07:05:10.975Z</time>
      </trkpt>
      <trkpt lat="43.04055833" lon="-1.20802333">
        <ele>1022.0</ele>
        <time>2019-08-01T07:05:11.982Z</time>
      </trkpt>
      <trkpt lat="43.040575" lon="-1.208025">
        <ele>1022.0</ele>
        <time>2019-08-01T07:05:12.988Z</time>
      </trkpt>
      <trkpt lat="43.040595" lon="-1.20802667">
        <ele>1023.0</ele>
        <time>2019-08-01T07:05:13.993Z</time>
      </trkpt>
      <trkpt lat="43.04060833" lon="-1.20803167">
        <ele>1023.0</ele>
        <time>2019-08-01T07:05:14.999Z</time>
      </trkpt>
      <trkpt lat="43.04062" lon="-1.20803333">
        <ele>1023.0</ele>
        <time>2019-08-01T07:05:16.006Z</time>
      </trkpt>
      <trkpt lat="43.04063333" lon="-1.20803167">
        <ele>1023.0</ele>
        <time>2019-08-01T07:05:17.009Z</time>
      </trkpt>
      <trkpt lat="43.04064667" lon="-1.20803333">
        <ele>1023.0</ele>
        <time>2019-08-01T07:05:18.015Z</time>
      </trkpt>
      <trkpt lat="43.04066333" lon="-1.20803167">
        <ele>1023.0</ele>
        <time>2019-08-01T07:05:19.022Z</time>
      </trkpt>
      <trkpt lat="43.04067833" lon="-1.20803333">
        <ele>1024.0</ele>
        <time>2019-08-01T07:05:20.027Z</time>
      </trkpt>
      <trkpt lat="43.04069" lon="-1.20803333">
        <ele>1024.0</ele>
        <time>2019-08-01T07:05:21.032Z</time>
      </trkpt>
      <trkpt lat="43.04071" lon="-1.208035">
        <ele>1024.0</ele>
        <time>2019-08-01T07:05:22.038Z</time>
      </trkpt>
      <trkpt lat="43.04071" lon="-1.208035">
        <ele>1024.0</ele>
        <time>2019-08-01T07:05:22.918Z</time>
      </trkpt>
      <trkpt lat="43.04072167" lon="-1.208035">
        <ele>1023.0</ele>
        <time>2019-08-01T07:05:23.924Z</time>
      </trkpt>
      <trkpt lat="43.04074" lon="-1.20803333">
        <ele>1023.0</ele>
        <time>2019-08-01T07:05:24.930Z</time>
      </trkpt>
      <trkpt lat="43.04075833" lon="-1.20803167">
        <ele>1023.0</ele>
        <time>2019-08-01T07:05:25.936Z</time>
      </trkpt>
      <trkpt lat="43.04078833" lon="-1.20804">
        <ele>1023.0</ele>
        <time>2019-08-01T07:05:26.942Z</time>
      </trkpt>
      <trkpt lat="43.04080333" lon="-1.20804">
        <ele>1023.0</ele>
        <time>2019-08-01T07:05:27.949Z</time>
      </trkpt>
      <trkpt lat="43.04082" lon="-1.20804167">
        <ele>1023.0</ele>
        <time>2019-08-01T07:05:28.956Z</time>
      </trkpt>
      <trkpt lat="43.04083333" lon="-1.20805">
        <ele>1023.0</ele>
        <time>2019-08-01T07:05:29.962Z</time>
      </trkpt>
      <trkpt lat="43.04084833" lon="-1.20805667">
        <ele>1023.0</ele>
        <time>2019-08-01T07:05:30.969Z</time>
      </trkpt>
      <trkpt lat="43.040865" lon="-1.20806333">
        <ele>1023.0</ele>
        <time>2019-08-01T07:05:31.974Z</time>
      </trkpt>
      <trkpt lat="43.04087833" lon="-1.20807">
        <ele>1023.0</ele>
        <time>2019-08-01T07:05:32.978Z</time>
      </trkpt>
      <trkpt lat="43.04089" lon="-1.208075">
        <ele>1022.0</ele>
        <time>2019-08-01T07:05:33.983Z</time>
      </trkpt>
      <trkpt lat="43.04090333" lon="-1.20807667">
        <ele>1022.0</ele>
        <time>2019-08-01T07:05:34.989Z</time>
      </trkpt>
      <trkpt lat="43.04091833" lon="-1.20808333">
        <ele>1022.0</ele>
        <time>2019-08-01T07:05:35.996Z</time>
      </trkpt>
      <trkpt lat="43.04092833" lon="-1.20809">
        <ele>1021.0</ele>
        <time>2019-08-01T07:05:37.001Z</time>
      </trkpt>
      <trkpt lat="43.04094333" lon="-1.20809667">
        <ele>1021.0</ele>
        <time>2019-08-01T07:05:38.010Z</time>
      </trkpt>
      <trkpt lat="43.04096" lon="-1.20810333">
        <ele>1021.0</ele>
        <time>2019-08-01T07:05:39.015Z</time>
      </trkpt>
      <trkpt lat="43.04097167" lon="-1.20811333">
        <ele>1021.0</ele>
        <time>2019-08-01T07:05:40.021Z</time>
      </trkpt>
      <trkpt lat="43.040985" lon="-1.208125">
        <ele>1020.0</ele>
        <time>2019-08-01T07:05:41.025Z</time>
      </trkpt>
      <trkpt lat="43.04099833" lon="-1.20813667">
        <ele>1020.0</ele>
        <time>2019-08-01T07:05:42.030Z</time>
      </trkpt>
      <trkpt lat="43.04101" lon="-1.20814833">
        <ele>1020.0</ele>
        <time>2019-08-01T07:05:43.034Z</time>
      </trkpt>
      <trkpt lat="43.041025" lon="-1.20816167">
        <ele>1020.0</ele>
        <time>2019-08-01T07:05:44.040Z</time>
      </trkpt>
      <trkpt lat="43.041025" lon="-1.20816167">
        <ele>1020.0</ele>
        <time>2019-08-01T07:05:44.919Z</time>
      </trkpt>
      <trkpt lat="43.04103333" lon="-1.20817333">
        <ele>1021.0</ele>
        <time>2019-08-01T07:05:45.924Z</time>
      </trkpt>
      <trkpt lat="43.041045" lon="-1.20819167">
        <ele>1021.0</ele>
        <time>2019-08-01T07:05:46.929Z</time>
      </trkpt>
      <trkpt lat="43.04105833" lon="-1.20820833">
        <ele>1021.0</ele>
        <time>2019-08-01T07:05:47.934Z</time>
      </trkpt>
      <trkpt lat="43.04107833" lon="-1.208235">
        <ele>1021.0</ele>
        <time>2019-08-01T07:05:48.941Z</time>
      </trkpt>
      <trkpt lat="43.04108667" lon="-1.20825167">
        <ele>1022.0</ele>
        <time>2019-08-01T07:05:49.947Z</time>
      </trkpt>
      <trkpt lat="43.04109667" lon="-1.208265">
        <ele>1022.0</ele>
        <time>2019-08-01T07:05:50.952Z</time>
      </trkpt>
      <trkpt lat="43.041105" lon="-1.20828167">
        <ele>1022.0</ele>
        <time>2019-08-01T07:05:51.958Z</time>
      </trkpt>
      <trkpt lat="43.04111333" lon="-1.2083">
        <ele>1023.0</ele>
        <time>2019-08-01T07:05:52.964Z</time>
      </trkpt>
      <trkpt lat="43.04112333" lon="-1.20831833">
        <ele>1023.0</ele>
        <time>2019-08-01T07:05:53.969Z</time>
      </trkpt>
      <trkpt lat="43.04113333" lon="-1.208335">
        <ele>1023.0</ele>
        <time>2019-08-01T07:05:54.973Z</time>
      </trkpt>
      <trkpt lat="43.041145" lon="-1.20835333">
        <ele>1023.0</ele>
        <time>2019-08-01T07:05:55.980Z</time>
      </trkpt>
      <trkpt lat="43.04115167" lon="-1.20836333">
        <ele>1023.0</ele>
        <time>2019-08-01T07:05:56.987Z</time>
      </trkpt>
      <trkpt lat="43.04116167" lon="-1.20837667">
        <ele>1023.0</ele>
        <time>2019-08-01T07:05:57.992Z</time>
      </trkpt>
      <trkpt lat="43.041175" lon="-1.20839333">
        <ele>1023.0</ele>
        <time>2019-08-01T07:05:58.999Z</time>
      </trkpt>
      <trkpt lat="43.04118667" lon="-1.20841167">
        <ele>1023.0</ele>
        <time>2019-08-01T07:06:00.006Z</time>
      </trkpt>
      <trkpt lat="43.041195" lon="-1.20842333">
        <ele>1022.0</ele>
        <time>2019-08-01T07:06:01.012Z</time>
      </trkpt>
      <trkpt lat="43.041205" lon="-1.20844167">
        <ele>1022.0</ele>
        <time>2019-08-01T07:06:02.019Z</time>
      </trkpt>
      <trkpt lat="43.041215" lon="-1.20845833">
        <ele>1023.0</ele>
        <time>2019-08-01T07:06:03.024Z</time>
      </trkpt>
      <trkpt lat="43.041225" lon="-1.20847333">
        <ele>1023.0</ele>
        <time>2019-08-01T07:06:04.029Z</time>
      </trkpt>
      <trkpt lat="43.04123667" lon="-1.20848667">
        <ele>1023.0</ele>
        <time>2019-08-01T07:06:05.035Z</time>
      </trkpt>
      <trkpt lat="43.04124833" lon="-1.2085">
        <ele>1023.0</ele>
        <time>2019-08-01T07:06:06.041Z</time>
      </trkpt>
      <trkpt lat="43.04124833" lon="-1.2085">
        <ele>1023.0</ele>
        <time>2019-08-01T07:06:06.921Z</time>
      </trkpt>
      <trkpt lat="43.04126" lon="-1.20851333">
        <ele>1023.0</ele>
        <time>2019-08-01T07:06:07.926Z</time>
      </trkpt>
      <trkpt lat="43.04127" lon="-1.20852667">
        <ele>1023.0</ele>
        <time>2019-08-01T07:06:08.930Z</time>
      </trkpt>
      <trkpt lat="43.04128167" lon="-1.20853833">
        <ele>1023.0</ele>
        <time>2019-08-01T07:06:09.935Z</time>
      </trkpt>
      <trkpt lat="43.04129833" lon="-1.20856833">
        <ele>1023.0</ele>
        <time>2019-08-01T07:06:10.940Z</time>
      </trkpt>
      <trkpt lat="43.04131" lon="-1.20858667">
        <ele>1023.0</ele>
        <time>2019-08-01T07:06:11.944Z</time>
      </trkpt>
      <trkpt lat="43.04132" lon="-1.208605">
        <ele>1023.0</ele>
        <time>2019-08-01T07:06:12.950Z</time>
      </trkpt>
      <trkpt lat="43.04133" lon="-1.20862">
        <ele>1023.0</ele>
        <time>2019-08-01T07:06:13.956Z</time>
      </trkpt>
      <trkpt lat="43.04134167" lon="-1.208635">
        <ele>1023.0</ele>
        <time>2019-08-01T07:06:14.962Z</time>
      </trkpt>
      <trkpt lat="43.04135167" lon="-1.20864833">
        <ele>1023.0</ele>
        <time>2019-08-01T07:06:15.967Z</time>
      </trkpt>
      <trkpt lat="43.04135833" lon="-1.20866">
        <ele>1023.0</ele>
        <time>2019-08-01T07:06:16.970Z</time>
      </trkpt>
      <trkpt lat="43.04136333" lon="-1.20867167">
        <ele>1023.0</ele>
        <time>2019-08-01T07:06:17.979Z</time>
      </trkpt>
      <trkpt lat="43.04136667" lon="-1.20867833">
        <ele>1023.0</ele>
        <time>2019-08-01T07:06:18.986Z</time>
      </trkpt>
      <trkpt lat="43.04136833" lon="-1.20868167">
        <ele>1023.0</ele>
        <time>2019-08-01T07:06:19.993Z</time>
      </trkpt>
      <trkpt lat="43.04137167" lon="-1.20868667">
        <ele>1022.0</ele>
        <time>2019-08-01T07:06:21.000Z</time>
      </trkpt>
      <trkpt lat="43.041375" lon="-1.2087">
        <ele>1022.0</ele>
        <time>2019-08-01T07:06:22.009Z</time>
      </trkpt>
      <trkpt lat="43.04138333" lon="-1.20871">
        <ele>1022.0</ele>
        <time>2019-08-01T07:06:23.014Z</time>
      </trkpt>
      <trkpt lat="43.04139167" lon="-1.20872333">
        <ele>1022.0</ele>
        <time>2019-08-01T07:06:24.020Z</time>
      </trkpt>
      <trkpt lat="43.04140167" lon="-1.20873333">
        <ele>1022.0</ele>
        <time>2019-08-01T07:06:25.026Z</time>
      </trkpt>
      <trkpt lat="43.04141333" lon="-1.20874667">
        <ele>1022.0</ele>
        <time>2019-08-01T07:06:26.031Z</time>
      </trkpt>
      <trkpt lat="43.04142333" lon="-1.20876333">
        <ele>1022.0</ele>
        <time>2019-08-01T07:06:27.036Z</time>
      </trkpt>
      <trkpt lat="43.04142333" lon="-1.20876333">
        <ele>1022.0</ele>
        <time>2019-08-01T07:06:27.918Z</time>
      </trkpt>
      <trkpt lat="43.041435" lon="-1.20877833">
        <ele>1022.0</ele>
        <time>2019-08-01T07:06:28.925Z</time>
      </trkpt>
      <trkpt lat="43.041445" lon="-1.20879333">
        <ele>1022.0</ele>
        <time>2019-08-01T07:06:29.928Z</time>
      </trkpt>
      <trkpt lat="43.041455" lon="-1.20881167">
        <ele>1022.0</ele>
        <time>2019-08-01T07:06:30.934Z</time>
      </trkpt>
      <trkpt lat="43.041465" lon="-1.208825">
        <ele>1022.0</ele>
        <time>2019-08-01T07:06:31.937Z</time>
      </trkpt>
      <trkpt lat="43.041475" lon="-1.20884">
        <ele>1022.0</ele>
        <time>2019-08-01T07:06:32.941Z</time>
      </trkpt>
      <trkpt lat="43.04149667" lon="-1.20886667">
        <ele>1023.0</ele>
        <time>2019-08-01T07:06:33.945Z</time>
      </trkpt>
      <trkpt lat="43.041505" lon="-1.20888167">
        <ele>1023.0</ele>
        <time>2019-08-01T07:06:34.952Z</time>
      </trkpt>
      <trkpt lat="43.04151833" lon="-1.20889667">
        <ele>1023.0</ele>
        <time>2019-08-01T07:06:35.957Z</time>
      </trkpt>
      <trkpt lat="43.04152833" lon="-1.20891">
        <ele>1023.0</ele>
        <time>2019-08-01T07:06:36.962Z</time>
      </trkpt>
      <trkpt lat="43.04154" lon="-1.20892333">
        <ele>1023.0</ele>
        <time>2019-08-01T07:06:37.965Z</time>
      </trkpt>
      <trkpt lat="43.04155167" lon="-1.20893833">
        <ele>1023.0</ele>
        <time>2019-08-01T07:06:38.969Z</time>
      </trkpt>
      <trkpt lat="43.04156333" lon="-1.20894833">
        <ele>1023.0</ele>
        <time>2019-08-01T07:06:39.977Z</time>
      </trkpt>
      <trkpt lat="43.041575" lon="-1.20896167">
        <ele>1023.0</ele>
        <time>2019-08-01T07:06:40.984Z</time>
      </trkpt>
      <trkpt lat="43.041585" lon="-1.208975">
        <ele>1023.0</ele>
        <time>2019-08-01T07:06:41.991Z</time>
      </trkpt>
      <trkpt lat="43.04159833" lon="-1.20898833">
        <ele>1023.0</ele>
        <time>2019-08-01T07:06:42.994Z</time>
      </trkpt>
      <trkpt lat="43.04160833" lon="-1.20900167">
        <ele>1022.0</ele>
        <time>2019-08-01T07:06:44.002Z</time>
      </trkpt>
      <trkpt lat="43.04162167" lon="-1.20901667">
        <ele>1022.0</ele>
        <time>2019-08-01T07:06:45.008Z</time>
      </trkpt>
      <trkpt lat="43.041635" lon="-1.20903167">
        <ele>1022.0</ele>
        <time>2019-08-01T07:06:46.013Z</time>
      </trkpt>
      <trkpt lat="43.04164667" lon="-1.20904333">
        <ele>1022.0</ele>
        <time>2019-08-01T07:06:47.020Z</time>
      </trkpt>
      <trkpt lat="43.04166167" lon="-1.20905333">
        <ele>1021.0</ele>
        <time>2019-08-01T07:06:48.027Z</time>
      </trkpt>
      <trkpt lat="43.04167333" lon="-1.20906667">
        <ele>1021.0</ele>
        <time>2019-08-01T07:06:49.033Z</time>
      </trkpt>
      <trkpt lat="43.04168667" lon="-1.209075">
        <ele>1022.0</ele>
        <time>2019-08-01T07:06:50.039Z</time>
      </trkpt>
      <trkpt lat="43.04168667" lon="-1.209075">
        <ele>1022.0</ele>
        <time>2019-08-01T07:06:50.920Z</time>
      </trkpt>
      <trkpt lat="43.04169833" lon="-1.20908333">
        <ele>1022.0</ele>
        <time>2019-08-01T07:06:51.923Z</time>
      </trkpt>
      <trkpt lat="43.04171167" lon="-1.20909333">
        <ele>1021.0</ele>
        <time>2019-08-01T07:06:52.926Z</time>
      </trkpt>
      <trkpt lat="43.04172333" lon="-1.20910333">
        <ele>1022.0</ele>
        <time>2019-08-01T07:06:53.930Z</time>
      </trkpt>
      <trkpt lat="43.041735" lon="-1.20911667">
        <ele>1022.0</ele>
        <time>2019-08-01T07:06:54.938Z</time>
      </trkpt>
      <trkpt lat="43.04176" lon="-1.20914167">
        <ele>1021.0</ele>
        <time>2019-08-01T07:06:55.944Z</time>
      </trkpt>
      <trkpt lat="43.04177167" lon="-1.209155">
        <ele>1021.0</ele>
        <time>2019-08-01T07:06:56.949Z</time>
      </trkpt>
      <trkpt lat="43.04178667" lon="-1.20916833">
        <ele>1020.0</ele>
        <time>2019-08-01T07:06:57.954Z</time>
      </trkpt>
      <trkpt lat="43.0418" lon="-1.20917833">
        <ele>1020.0</ele>
        <time>2019-08-01T07:06:58.959Z</time>
      </trkpt>
      <trkpt lat="43.04181167" lon="-1.20918833">
        <ele>1020.0</ele>
        <time>2019-08-01T07:06:59.965Z</time>
      </trkpt>
      <trkpt lat="43.04182667" lon="-1.20919833">
        <ele>1019.0</ele>
        <time>2019-08-01T07:07:00.970Z</time>
      </trkpt>
      <trkpt lat="43.04184" lon="-1.20920833">
        <ele>1019.0</ele>
        <time>2019-08-01T07:07:01.976Z</time>
      </trkpt>
      <trkpt lat="43.04185167" lon="-1.20922167">
        <ele>1019.0</ele>
        <time>2019-08-01T07:07:02.982Z</time>
      </trkpt>
      <trkpt lat="43.04186333" lon="-1.209235">
        <ele>1020.0</ele>
        <time>2019-08-01T07:07:03.988Z</time>
      </trkpt>
      <trkpt lat="43.041875" lon="-1.20925167">
        <ele>1019.0</ele>
        <time>2019-08-01T07:07:04.996Z</time>
      </trkpt>
      <trkpt lat="43.04188833" lon="-1.20926167">
        <ele>1019.0</ele>
        <time>2019-08-01T07:07:06.002Z</time>
      </trkpt>
      <trkpt lat="43.04190167" lon="-1.20927833">
        <ele>1019.0</ele>
        <time>2019-08-01T07:07:07.009Z</time>
      </trkpt>
      <trkpt lat="43.041915" lon="-1.20929167">
        <ele>1019.0</ele>
        <time>2019-08-01T07:07:08.014Z</time>
      </trkpt>
      <trkpt lat="43.04192667" lon="-1.20930833">
        <ele>1019.0</ele>
        <time>2019-08-01T07:07:09.020Z</time>
      </trkpt>
      <trkpt lat="43.04194333" lon="-1.20932167">
        <ele>1019.0</ele>
        <time>2019-08-01T07:07:10.026Z</time>
      </trkpt>
      <trkpt lat="43.041955" lon="-1.209335">
        <ele>1019.0</ele>
        <time>2019-08-01T07:07:11.033Z</time>
      </trkpt>
      <trkpt lat="43.04196667" lon="-1.20934333">
        <ele>1019.0</ele>
        <time>2019-08-01T07:07:12.039Z</time>
      </trkpt>
      <trkpt lat="43.04196667" lon="-1.20934333">
        <ele>1019.0</ele>
        <time>2019-08-01T07:07:12.919Z</time>
      </trkpt>
      <trkpt lat="43.04198" lon="-1.20935167">
        <ele>1018.0</ele>
        <time>2019-08-01T07:07:13.926Z</time>
      </trkpt>
      <trkpt lat="43.041995" lon="-1.20936167">
        <ele>1018.0</ele>
        <time>2019-08-01T07:07:14.929Z</time>
      </trkpt>
      <trkpt lat="43.04201" lon="-1.20937">
        <ele>1017.0</ele>
        <time>2019-08-01T07:07:15.935Z</time>
      </trkpt>
      <trkpt lat="43.04202333" lon="-1.20938167">
        <ele>1017.0</ele>
        <time>2019-08-01T07:07:16.940Z</time>
      </trkpt>
      <trkpt lat="43.04204667" lon="-1.209405">
        <ele>1017.0</ele>
        <time>2019-08-01T07:07:17.946Z</time>
      </trkpt>
      <trkpt lat="43.04206" lon="-1.20941667">
        <ele>1017.0</ele>
        <time>2019-08-01T07:07:18.952Z</time>
      </trkpt>
      <trkpt lat="43.04207167" lon="-1.20942667">
        <ele>1018.0</ele>
        <time>2019-08-01T07:07:19.959Z</time>
      </trkpt>
      <trkpt lat="43.04208333" lon="-1.20943833">
        <ele>1018.0</ele>
        <time>2019-08-01T07:07:20.962Z</time>
      </trkpt>
      <trkpt lat="43.042095" lon="-1.20945167">
        <ele>1018.0</ele>
        <time>2019-08-01T07:07:21.968Z</time>
      </trkpt>
      <trkpt lat="43.04210667" lon="-1.20946167">
        <ele>1018.0</ele>
        <time>2019-08-01T07:07:22.972Z</time>
      </trkpt>
      <trkpt lat="43.04211833" lon="-1.20947167">
        <ele>1018.0</ele>
        <time>2019-08-01T07:07:23.977Z</time>
      </trkpt>
      <trkpt lat="43.04213" lon="-1.20948">
        <ele>1018.0</ele>
        <time>2019-08-01T07:07:24.982Z</time>
      </trkpt>
      <trkpt lat="43.04214167" lon="-1.20949">
        <ele>1018.0</ele>
        <time>2019-08-01T07:07:25.989Z</time>
      </trkpt>
      <trkpt lat="43.04215333" lon="-1.20950167">
        <ele>1018.0</ele>
        <time>2019-08-01T07:07:26.994Z</time>
      </trkpt>
      <trkpt lat="43.042165" lon="-1.209515">
        <ele>1018.0</ele>
        <time>2019-08-01T07:07:28.002Z</time>
      </trkpt>
      <trkpt lat="43.04217667" lon="-1.209525">
        <ele>1017.0</ele>
        <time>2019-08-01T07:07:29.010Z</time>
      </trkpt>
      <trkpt lat="43.04218833" lon="-1.20953667">
        <ele>1017.0</ele>
        <time>2019-08-01T07:07:30.016Z</time>
      </trkpt>
      <trkpt lat="43.0422" lon="-1.20955">
        <ele>1017.0</ele>
        <time>2019-08-01T07:07:31.023Z</time>
      </trkpt>
      <trkpt lat="43.04221167" lon="-1.20955833">
        <ele>1016.0</ele>
        <time>2019-08-01T07:07:32.029Z</time>
      </trkpt>
      <trkpt lat="43.042225" lon="-1.20957">
        <ele>1016.0</ele>
        <time>2019-08-01T07:07:33.036Z</time>
      </trkpt>
      <trkpt lat="43.042235" lon="-1.20958167">
        <ele>1016.0</ele>
        <time>2019-08-01T07:07:34.042Z</time>
      </trkpt>
      <trkpt lat="43.042235" lon="-1.20958167">
        <ele>1016.0</ele>
        <time>2019-08-01T07:07:34.922Z</time>
      </trkpt>
      <trkpt lat="43.042245" lon="-1.20959333">
        <ele>1015.0</ele>
        <time>2019-08-01T07:07:35.927Z</time>
      </trkpt>
      <trkpt lat="43.04225833" lon="-1.20960333">
        <ele>1015.0</ele>
        <time>2019-08-01T07:07:36.933Z</time>
      </trkpt>
      <trkpt lat="43.04227333" lon="-1.20961167">
        <ele>1015.0</ele>
        <time>2019-08-01T07:07:37.940Z</time>
      </trkpt>
      <trkpt lat="43.0423" lon="-1.209635">
        <ele>1015.0</ele>
        <time>2019-08-01T07:07:38.946Z</time>
      </trkpt>
      <trkpt lat="43.04231167" lon="-1.20965">
        <ele>1015.0</ele>
        <time>2019-08-01T07:07:39.953Z</time>
      </trkpt>
      <trkpt lat="43.042325" lon="-1.20966167">
        <ele>1015.0</ele>
        <time>2019-08-01T07:07:40.959Z</time>
      </trkpt>
      <trkpt lat="43.04233833" lon="-1.20967333">
        <ele>1015.0</ele>
        <time>2019-08-01T07:07:41.963Z</time>
      </trkpt>
      <trkpt lat="43.04235" lon="-1.20968833">
        <ele>1015.0</ele>
        <time>2019-08-01T07:07:42.967Z</time>
      </trkpt>
      <trkpt lat="43.04236167" lon="-1.20969667">
        <ele>1015.0</ele>
        <time>2019-08-01T07:07:43.973Z</time>
      </trkpt>
      <trkpt lat="43.04237667" lon="-1.20970833">
        <ele>1015.0</ele>
        <time>2019-08-01T07:07:44.978Z</time>
      </trkpt>
      <trkpt lat="43.04239167" lon="-1.20972">
        <ele>1015.0</ele>
        <time>2019-08-01T07:07:45.982Z</time>
      </trkpt>
      <trkpt lat="43.04240667" lon="-1.20973">
        <ele>1015.0</ele>
        <time>2019-08-01T07:07:46.987Z</time>
      </trkpt>
      <trkpt lat="43.04241833" lon="-1.20974167">
        <ele>1015.0</ele>
        <time>2019-08-01T07:07:47.992Z</time>
      </trkpt>
      <trkpt lat="43.04243333" lon="-1.20975333">
        <ele>1015.0</ele>
        <time>2019-08-01T07:07:48.999Z</time>
      </trkpt>
      <trkpt lat="43.042445" lon="-1.20976667">
        <ele>1015.0</ele>
        <time>2019-08-01T07:07:50.004Z</time>
      </trkpt>
      <trkpt lat="43.04245833" lon="-1.20977833">
        <ele>1015.0</ele>
        <time>2019-08-01T07:07:51.011Z</time>
      </trkpt>
      <trkpt lat="43.04247167" lon="-1.20979167">
        <ele>1015.0</ele>
        <time>2019-08-01T07:07:52.013Z</time>
      </trkpt>
      <trkpt lat="43.04248667" lon="-1.20980333">
        <ele>1015.0</ele>
        <time>2019-08-01T07:07:53.018Z</time>
      </trkpt>
      <trkpt lat="43.0425" lon="-1.20981333">
        <ele>1015.0</ele>
        <time>2019-08-01T07:07:54.023Z</time>
      </trkpt>
      <trkpt lat="43.042515" lon="-1.20982167">
        <ele>1015.0</ele>
        <time>2019-08-01T07:07:55.029Z</time>
      </trkpt>
      <trkpt lat="43.04253" lon="-1.20983">
        <ele>1015.0</ele>
        <time>2019-08-01T07:07:56.036Z</time>
      </trkpt>
      <trkpt lat="43.042545" lon="-1.20984">
        <ele>1015.0</ele>
        <time>2019-08-01T07:07:57.043Z</time>
      </trkpt>
      <trkpt lat="43.042545" lon="-1.20984">
        <ele>1015.0</ele>
        <time>2019-08-01T07:07:57.922Z</time>
      </trkpt>
      <trkpt lat="43.04255833" lon="-1.20985">
        <ele>1015.0</ele>
        <time>2019-08-01T07:07:58.926Z</time>
      </trkpt>
      <trkpt lat="43.04257167" lon="-1.20985833">
        <ele>1015.0</ele>
        <time>2019-08-01T07:07:59.930Z</time>
      </trkpt>
      <trkpt lat="43.04258333" lon="-1.20986833">
        <ele>1015.0</ele>
        <time>2019-08-01T07:08:00.937Z</time>
      </trkpt>
      <trkpt lat="43.04259667" lon="-1.20987667">
        <ele>1015.0</ele>
        <time>2019-08-01T07:08:01.941Z</time>
      </trkpt>
      <trkpt lat="43.04262667" lon="-1.209895">
        <ele>1014.0</ele>
        <time>2019-08-01T07:08:02.946Z</time>
      </trkpt>
      <trkpt lat="43.04264333" lon="-1.20990333">
        <ele>1014.0</ele>
        <time>2019-08-01T07:08:03.953Z</time>
      </trkpt>
      <trkpt lat="43.04265833" lon="-1.209915">
        <ele>1014.0</ele>
        <time>2019-08-01T07:08:04.959Z</time>
      </trkpt>
      <trkpt lat="43.04267" lon="-1.20993">
        <ele>1014.0</ele>
        <time>2019-08-01T07:08:05.964Z</time>
      </trkpt>
      <trkpt lat="43.04268333" lon="-1.20994333">
        <ele>1014.0</ele>
        <time>2019-08-01T07:08:06.969Z</time>
      </trkpt>
      <trkpt lat="43.04269833" lon="-1.209955">
        <ele>1015.0</ele>
        <time>2019-08-01T07:08:07.975Z</time>
      </trkpt>
      <trkpt lat="43.04271" lon="-1.20996667">
        <ele>1015.0</ele>
        <time>2019-08-01T07:08:08.980Z</time>
      </trkpt>
      <trkpt lat="43.04272333" lon="-1.20997833">
        <ele>1015.0</ele>
        <time>2019-08-01T07:08:09.987Z</time>
      </trkpt>
      <trkpt lat="43.04273667" lon="-1.20999167">
        <ele>1015.0</ele>
        <time>2019-08-01T07:08:10.993Z</time>
      </trkpt>
      <trkpt lat="43.04275" lon="-1.210005">
        <ele>1016.0</ele>
        <time>2019-08-01T07:08:12.002Z</time>
      </trkpt>
      <trkpt lat="43.04276167" lon="-1.21001333">
        <ele>1015.0</ele>
        <time>2019-08-01T07:08:13.010Z</time>
      </trkpt>
      <trkpt lat="43.04277833" lon="-1.21002167">
        <ele>1016.0</ele>
        <time>2019-08-01T07:08:14.014Z</time>
      </trkpt>
      <trkpt lat="43.04279333" lon="-1.21003">
        <ele>1016.0</ele>
        <time>2019-08-01T07:08:15.018Z</time>
      </trkpt>
      <trkpt lat="43.04280667" lon="-1.21003833">
        <ele>1015.0</ele>
        <time>2019-08-01T07:08:16.023Z</time>
      </trkpt>
      <trkpt lat="43.04282167" lon="-1.21004667">
        <ele>1015.0</ele>
        <time>2019-08-01T07:08:17.027Z</time>
      </trkpt>
      <trkpt lat="43.04283667" lon="-1.21006">
        <ele>1015.0</ele>
        <time>2019-08-01T07:08:18.031Z</time>
      </trkpt>
      <trkpt lat="43.04285167" lon="-1.21006833">
        <ele>1016.0</ele>
        <time>2019-08-01T07:08:19.037Z</time>
      </trkpt>
      <trkpt lat="43.042865" lon="-1.21007833">
        <ele>1016.0</ele>
        <time>2019-08-01T07:08:20.043Z</time>
      </trkpt>
      <trkpt lat="43.042865" lon="-1.21007833">
        <ele>1016.0</ele>
        <time>2019-08-01T07:08:20.924Z</time>
      </trkpt>
      <trkpt lat="43.04288167" lon="-1.21009">
        <ele>1016.0</ele>
        <time>2019-08-01T07:08:21.927Z</time>
      </trkpt>
      <trkpt lat="43.04289667" lon="-1.2101">
        <ele>1015.0</ele>
        <time>2019-08-01T07:08:22.930Z</time>
      </trkpt>
      <trkpt lat="43.04291167" lon="-1.21011333">
        <ele>1015.0</ele>
        <time>2019-08-01T07:08:23.937Z</time>
      </trkpt>
      <trkpt lat="43.04292667" lon="-1.210125">
        <ele>1015.0</ele>
        <time>2019-08-01T07:08:24.943Z</time>
      </trkpt>
      <trkpt lat="43.04295833" lon="-1.21014167">
        <ele>1015.0</ele>
        <time>2019-08-01T07:08:25.949Z</time>
      </trkpt>
      <trkpt lat="43.04297333" lon="-1.21015167">
        <ele>1014.0</ele>
        <time>2019-08-01T07:08:26.953Z</time>
      </trkpt>
      <trkpt lat="43.04298667" lon="-1.21016167">
        <ele>1014.0</ele>
        <time>2019-08-01T07:08:27.957Z</time>
      </trkpt>
      <trkpt lat="43.04300167" lon="-1.21017167">
        <ele>1014.0</ele>
        <time>2019-08-01T07:08:28.962Z</time>
      </trkpt>
      <trkpt lat="43.043015" lon="-1.21018333">
        <ele>1014.0</ele>
        <time>2019-08-01T07:08:29.969Z</time>
      </trkpt>
      <trkpt lat="43.04303" lon="-1.21019333">
        <ele>1014.0</ele>
        <time>2019-08-01T07:08:30.976Z</time>
      </trkpt>
      <trkpt lat="43.043045" lon="-1.21020167">
        <ele>1015.0</ele>
        <time>2019-08-01T07:08:31.984Z</time>
      </trkpt>
      <trkpt lat="43.04305833" lon="-1.21021333">
        <ele>1015.0</ele>
        <time>2019-08-01T07:08:32.988Z</time>
      </trkpt>
      <trkpt lat="43.04307333" lon="-1.21022167">
        <ele>1014.0</ele>
        <time>2019-08-01T07:08:33.995Z</time>
      </trkpt>
      <trkpt lat="43.04308667" lon="-1.21023">
        <ele>1014.0</ele>
        <time>2019-08-01T07:08:35.002Z</time>
      </trkpt>
      <trkpt lat="43.04309833" lon="-1.21024167">
        <ele>1014.0</ele>
        <time>2019-08-01T07:08:36.009Z</time>
      </trkpt>
      <trkpt lat="43.04311" lon="-1.210255">
        <ele>1015.0</ele>
        <time>2019-08-01T07:08:37.015Z</time>
      </trkpt>
      <trkpt lat="43.04312333" lon="-1.210265">
        <ele>1015.0</ele>
        <time>2019-08-01T07:08:38.021Z</time>
      </trkpt>
      <trkpt lat="43.04313667" lon="-1.21027833">
        <ele>1015.0</ele>
        <time>2019-08-01T07:08:39.029Z</time>
      </trkpt>
      <trkpt lat="43.04314833" lon="-1.21029">
        <ele>1014.0</ele>
        <time>2019-08-01T07:08:40.036Z</time>
      </trkpt>
      <trkpt lat="43.04316167" lon="-1.2103">
        <ele>1014.0</ele>
        <time>2019-08-01T07:08:41.041Z</time>
      </trkpt>
      <trkpt lat="43.04316167" lon="-1.2103">
        <ele>1014.0</ele>
        <time>2019-08-01T07:08:41.920Z</time>
      </trkpt>
      <trkpt lat="43.043175" lon="-1.21031333">
        <ele>1014.0</ele>
        <time>2019-08-01T07:08:42.925Z</time>
      </trkpt>
      <trkpt lat="43.04318667" lon="-1.21032667">
        <ele>1013.0</ele>
        <time>2019-08-01T07:08:43.928Z</time>
      </trkpt>
      <trkpt lat="43.04319833" lon="-1.21034167">
        <ele>1014.0</ele>
        <time>2019-08-01T07:08:44.935Z</time>
      </trkpt>
      <trkpt lat="43.04321" lon="-1.21035833">
        <ele>1014.0</ele>
        <time>2019-08-01T07:08:45.942Z</time>
      </trkpt>
      <trkpt lat="43.04323167" lon="-1.21039167">
        <ele>1014.0</ele>
        <time>2019-08-01T07:08:46.947Z</time>
      </trkpt>
      <trkpt lat="43.04324333" lon="-1.21040667">
        <ele>1014.0</ele>
        <time>2019-08-01T07:08:47.954Z</time>
      </trkpt>
      <trkpt lat="43.04325" lon="-1.21042667">
        <ele>1014.0</ele>
        <time>2019-08-01T07:08:48.960Z</time>
      </trkpt>
      <trkpt lat="43.04325833" lon="-1.21045">
        <ele>1014.0</ele>
        <time>2019-08-01T07:08:49.967Z</time>
      </trkpt>
      <trkpt lat="43.04326667" lon="-1.21047167">
        <ele>1013.0</ele>
        <time>2019-08-01T07:08:50.972Z</time>
      </trkpt>
      <trkpt lat="43.043275" lon="-1.21049">
        <ele>1014.0</ele>
        <time>2019-08-01T07:08:51.977Z</time>
      </trkpt>
      <trkpt lat="43.04328167" lon="-1.21050833">
        <ele>1013.0</ele>
        <time>2019-08-01T07:08:52.984Z</time>
      </trkpt>
      <trkpt lat="43.04328833" lon="-1.21052667">
        <ele>1013.0</ele>
        <time>2019-08-01T07:08:53.991Z</time>
      </trkpt>
      <trkpt lat="43.04329667" lon="-1.210545">
        <ele>1013.0</ele>
        <time>2019-08-01T07:08:54.997Z</time>
      </trkpt>
      <trkpt lat="43.043305" lon="-1.21056333">
        <ele>1013.0</ele>
        <time>2019-08-01T07:08:56.002Z</time>
      </trkpt>
      <trkpt lat="43.04331167" lon="-1.21058333">
        <ele>1013.0</ele>
        <time>2019-08-01T07:08:57.010Z</time>
      </trkpt>
      <trkpt lat="43.04332" lon="-1.2106">
        <ele>1013.0</ele>
        <time>2019-08-01T07:08:58.015Z</time>
      </trkpt>
      <trkpt lat="43.04332667" lon="-1.21061667">
        <ele>1013.0</ele>
        <time>2019-08-01T07:08:59.021Z</time>
      </trkpt>
      <trkpt lat="43.04333167" lon="-1.21063333">
        <ele>1013.0</ele>
        <time>2019-08-01T07:09:00.028Z</time>
      </trkpt>
      <trkpt lat="43.04333833" lon="-1.21065167">
        <ele>1013.0</ele>
        <time>2019-08-01T07:09:01.034Z</time>
      </trkpt>
      <trkpt lat="43.04334667" lon="-1.21067167">
        <ele>1013.0</ele>
        <time>2019-08-01T07:09:02.040Z</time>
      </trkpt>
      <trkpt lat="43.04334667" lon="-1.21067167">
        <ele>1013.0</ele>
        <time>2019-08-01T07:09:02.921Z</time>
      </trkpt>
      <trkpt lat="43.04335167" lon="-1.21069">
        <ele>1013.0</ele>
        <time>2019-08-01T07:09:03.928Z</time>
      </trkpt>
      <trkpt lat="43.04336" lon="-1.21071">
        <ele>1013.0</ele>
        <time>2019-08-01T07:09:04.934Z</time>
      </trkpt>
      <trkpt lat="43.04336667" lon="-1.21072667">
        <ele>1013.0</ele>
        <time>2019-08-01T07:09:05.940Z</time>
      </trkpt>
      <trkpt lat="43.04337333" lon="-1.210745">
        <ele>1013.0</ele>
        <time>2019-08-01T07:09:06.945Z</time>
      </trkpt>
      <trkpt lat="43.043385" lon="-1.21078333">
        <ele>1014.0</ele>
        <time>2019-08-01T07:09:07.951Z</time>
      </trkpt>
      <trkpt lat="43.04339" lon="-1.21080333">
        <ele>1014.0</ele>
        <time>2019-08-01T07:09:08.958Z</time>
      </trkpt>
      <trkpt lat="43.043395" lon="-1.21082167">
        <ele>1014.0</ele>
        <time>2019-08-01T07:09:09.963Z</time>
      </trkpt>
      <trkpt lat="43.04340333" lon="-1.21084167">
        <ele>1014.0</ele>
        <time>2019-08-01T07:09:10.969Z</time>
      </trkpt>
      <trkpt lat="43.04341" lon="-1.21086167">
        <ele>1014.0</ele>
        <time>2019-08-01T07:09:11.975Z</time>
      </trkpt>
      <trkpt lat="43.04341667" lon="-1.21088167">
        <ele>1014.0</ele>
        <time>2019-08-01T07:09:12.982Z</time>
      </trkpt>
      <trkpt lat="43.043425" lon="-1.2109">
        <ele>1014.0</ele>
        <time>2019-08-01T07:09:13.988Z</time>
      </trkpt>
      <trkpt lat="43.04343167" lon="-1.21092167">
        <ele>1014.0</ele>
        <time>2019-08-01T07:09:14.995Z</time>
      </trkpt>
      <trkpt lat="43.04343833" lon="-1.21094">
        <ele>1014.0</ele>
        <time>2019-08-01T07:09:15.999Z</time>
      </trkpt>
      <trkpt lat="43.043445" lon="-1.21096">
        <ele>1014.0</ele>
        <time>2019-08-01T07:09:17.007Z</time>
      </trkpt>
      <trkpt lat="43.04345333" lon="-1.21097667">
        <ele>1014.0</ele>
        <time>2019-08-01T07:09:18.012Z</time>
      </trkpt>
      <trkpt lat="43.04346333" lon="-1.21099167">
        <ele>1014.0</ele>
        <time>2019-08-01T07:09:19.019Z</time>
      </trkpt>
      <trkpt lat="43.04347333" lon="-1.21100667">
        <ele>1015.0</ele>
        <time>2019-08-01T07:09:20.026Z</time>
      </trkpt>
      <trkpt lat="43.04348333" lon="-1.21102333">
        <ele>1015.0</ele>
        <time>2019-08-01T07:09:21.033Z</time>
      </trkpt>
      <trkpt lat="43.04349333" lon="-1.21104">
        <ele>1014.0</ele>
        <time>2019-08-01T07:09:22.040Z</time>
      </trkpt>
      <trkpt lat="43.04349333" lon="-1.21104">
        <ele>1014.0</ele>
        <time>2019-08-01T07:09:22.921Z</time>
      </trkpt>
      <trkpt lat="43.04350333" lon="-1.21105667">
        <ele>1014.0</ele>
        <time>2019-08-01T07:09:23.925Z</time>
      </trkpt>
      <trkpt lat="43.043515" lon="-1.21107167">
        <ele>1014.0</ele>
        <time>2019-08-01T07:09:24.931Z</time>
      </trkpt>
      <trkpt lat="43.04352833" lon="-1.211085">
        <ele>1014.0</ele>
        <time>2019-08-01T07:09:25.935Z</time>
      </trkpt>
      <trkpt lat="43.04354167" lon="-1.2111">
        <ele>1015.0</ele>
        <time>2019-08-01T07:09:26.940Z</time>
      </trkpt>
      <trkpt lat="43.04355167" lon="-1.21111667">
        <ele>1014.0</ele>
        <time>2019-08-01T07:09:27.942Z</time>
      </trkpt>
      <trkpt lat="43.04357667" lon="-1.21114667">
        <ele>1014.0</ele>
        <time>2019-08-01T07:09:28.947Z</time>
      </trkpt>
      <trkpt lat="43.04359" lon="-1.21116167">
        <ele>1014.0</ele>
        <time>2019-08-01T07:09:29.953Z</time>
      </trkpt>
      <trkpt lat="43.04360167" lon="-1.211175">
        <ele>1013.0</ele>
        <time>2019-08-01T07:09:30.958Z</time>
      </trkpt>
      <trkpt lat="43.04361167" lon="-1.21118833">
        <ele>1012.0</ele>
        <time>2019-08-01T07:09:31.964Z</time>
      </trkpt>
      <trkpt lat="43.04362333" lon="-1.21120333">
        <ele>1012.0</ele>
        <time>2019-08-01T07:09:32.970Z</time>
      </trkpt>
      <trkpt lat="43.043635" lon="-1.21122">
        <ele>1011.0</ele>
        <time>2019-08-01T07:09:33.977Z</time>
      </trkpt>
      <trkpt lat="43.04364667" lon="-1.21123333">
        <ele>1011.0</ele>
        <time>2019-08-01T07:09:34.984Z</time>
      </trkpt>
      <trkpt lat="43.04365667" lon="-1.211245">
        <ele>1010.0</ele>
        <time>2019-08-01T07:09:35.988Z</time>
      </trkpt>
      <trkpt lat="43.04367" lon="-1.21126">
        <ele>1009.0</ele>
        <time>2019-08-01T07:09:36.993Z</time>
      </trkpt>
      <trkpt lat="43.04368167" lon="-1.211275">
        <ele>1009.0</ele>
        <time>2019-08-01T07:09:38.000Z</time>
      </trkpt>
      <trkpt lat="43.04369333" lon="-1.21129">
        <ele>1008.0</ele>
        <time>2019-08-01T07:09:39.007Z</time>
      </trkpt>
      <trkpt lat="43.043705" lon="-1.211305">
        <ele>1008.0</ele>
        <time>2019-08-01T07:09:40.012Z</time>
      </trkpt>
      <trkpt lat="43.04372" lon="-1.21131667">
        <ele>1007.0</ele>
        <time>2019-08-01T07:09:41.019Z</time>
      </trkpt>
      <trkpt lat="43.04373167" lon="-1.21132833">
        <ele>1006.0</ele>
        <time>2019-08-01T07:09:42.024Z</time>
      </trkpt>
      <trkpt lat="43.04374333" lon="-1.211345">
        <ele>1006.0</ele>
        <time>2019-08-01T07:09:43.030Z</time>
      </trkpt>
      <trkpt lat="43.04375833" lon="-1.21136">
        <ele>1005.0</ele>
        <time>2019-08-01T07:09:44.035Z</time>
      </trkpt>
      <trkpt lat="43.04376833" lon="-1.21137667">
        <ele>1005.0</ele>
        <time>2019-08-01T07:09:45.041Z</time>
      </trkpt>
      <trkpt lat="43.04376833" lon="-1.21137667">
        <ele>1005.0</ele>
        <time>2019-08-01T07:09:45.921Z</time>
      </trkpt>
      <trkpt lat="43.04377833" lon="-1.21139167">
        <ele>1005.0</ele>
        <time>2019-08-01T07:09:46.926Z</time>
      </trkpt>
      <trkpt lat="43.04378833" lon="-1.21140667">
        <ele>1004.0</ele>
        <time>2019-08-01T07:09:47.928Z</time>
      </trkpt>
      <trkpt lat="43.04379833" lon="-1.21142333">
        <ele>1004.0</ele>
        <time>2019-08-01T07:09:48.933Z</time>
      </trkpt>
      <trkpt lat="43.04380833" lon="-1.21144">
        <ele>1004.0</ele>
        <time>2019-08-01T07:09:49.941Z</time>
      </trkpt>
      <trkpt lat="43.04382" lon="-1.211455">
        <ele>1004.0</ele>
        <time>2019-08-01T07:09:50.946Z</time>
      </trkpt>
      <trkpt lat="43.04384" lon="-1.211485">
        <ele>1003.0</ele>
        <time>2019-08-01T07:09:51.953Z</time>
      </trkpt>
      <trkpt lat="43.04384833" lon="-1.21150333">
        <ele>1003.0</ele>
        <time>2019-08-01T07:09:52.958Z</time>
      </trkpt>
      <trkpt lat="43.04385667" lon="-1.21152167">
        <ele>1003.0</ele>
        <time>2019-08-01T07:09:53.964Z</time>
      </trkpt>
      <trkpt lat="43.04386167" lon="-1.21154167">
        <ele>1002.0</ele>
        <time>2019-08-01T07:09:54.969Z</time>
      </trkpt>
      <trkpt lat="43.04387" lon="-1.21156167">
        <ele>1002.0</ele>
        <time>2019-08-01T07:09:55.974Z</time>
      </trkpt>
      <trkpt lat="43.04387833" lon="-1.21157833">
        <ele>1002.0</ele>
        <time>2019-08-01T07:09:56.980Z</time>
      </trkpt>
      <trkpt lat="43.043885" lon="-1.211595">
        <ele>1001.0</ele>
        <time>2019-08-01T07:09:57.987Z</time>
      </trkpt>
      <trkpt lat="43.04389167" lon="-1.21161333">
        <ele>1001.0</ele>
        <time>2019-08-01T07:09:58.994Z</time>
      </trkpt>
      <trkpt lat="43.04389667" lon="-1.21163333">
        <ele>1001.0</ele>
        <time>2019-08-01T07:10:00.000Z</time>
      </trkpt>
      <trkpt lat="43.04390167" lon="-1.21165333">
        <ele>1001.0</ele>
        <time>2019-08-01T07:10:01.006Z</time>
      </trkpt>
      <trkpt lat="43.04390667" lon="-1.21167">
        <ele>1001.0</ele>
        <time>2019-08-01T07:10:02.011Z</time>
      </trkpt>
      <trkpt lat="43.04390833" lon="-1.21169">
        <ele>1002.0</ele>
        <time>2019-08-01T07:10:03.018Z</time>
      </trkpt>
      <trkpt lat="43.04391333" lon="-1.21170667">
        <ele>1002.0</ele>
        <time>2019-08-01T07:10:04.024Z</time>
      </trkpt>
      <trkpt lat="43.04391333" lon="-1.21172167">
        <ele>1002.0</ele>
        <time>2019-08-01T07:10:05.030Z</time>
      </trkpt>
      <trkpt lat="43.04391333" lon="-1.21174167">
        <ele>1002.0</ele>
        <time>2019-08-01T07:10:06.034Z</time>
      </trkpt>
      <trkpt lat="43.04391167" lon="-1.21176333">
        <ele>1002.0</ele>
        <time>2019-08-01T07:10:07.039Z</time>
      </trkpt>
      <trkpt lat="43.04391167" lon="-1.21176333">
        <ele>1002.0</ele>
        <time>2019-08-01T07:10:07.919Z</time>
      </trkpt>
      <trkpt lat="43.04391" lon="-1.21178333">
        <ele>1001.0</ele>
        <time>2019-08-01T07:10:08.927Z</time>
      </trkpt>
      <trkpt lat="43.04391" lon="-1.21180333">
        <ele>1001.0</ele>
        <time>2019-08-01T07:10:09.933Z</time>
      </trkpt>
      <trkpt lat="43.04390833" lon="-1.21182">
        <ele>1001.0</ele>
        <time>2019-08-01T07:10:10.940Z</time>
      </trkpt>
      <trkpt lat="43.04390833" lon="-1.21183667">
        <ele>1001.0</ele>
        <time>2019-08-01T07:10:11.944Z</time>
      </trkpt>
      <trkpt lat="43.04390833" lon="-1.21185167">
        <ele>1001.0</ele>
        <time>2019-08-01T07:10:12.947Z</time>
      </trkpt>
      <trkpt lat="43.04390167" lon="-1.21189">
        <ele>1001.0</ele>
        <time>2019-08-01T07:10:13.951Z</time>
      </trkpt>
      <trkpt lat="43.04389333" lon="-1.21191">
        <ele>1001.0</ele>
        <time>2019-08-01T07:10:14.957Z</time>
      </trkpt>
      <trkpt lat="43.04388667" lon="-1.21192833">
        <ele>1002.0</ele>
        <time>2019-08-01T07:10:15.962Z</time>
      </trkpt>
      <trkpt lat="43.04387833" lon="-1.21194833">
        <ele>1001.0</ele>
        <time>2019-08-01T07:10:16.969Z</time>
      </trkpt>
      <trkpt lat="43.04387167" lon="-1.21196333">
        <ele>1001.0</ele>
        <time>2019-08-01T07:10:17.976Z</time>
      </trkpt>
      <trkpt lat="43.04386667" lon="-1.21198">
        <ele>1001.0</ele>
        <time>2019-08-01T07:10:18.983Z</time>
      </trkpt>
      <trkpt lat="43.04385833" lon="-1.21199667">
        <ele>1001.0</ele>
        <time>2019-08-01T07:10:19.990Z</time>
      </trkpt>
      <trkpt lat="43.04385333" lon="-1.212015">
        <ele>1001.0</ele>
        <time>2019-08-01T07:10:20.996Z</time>
      </trkpt>
      <trkpt lat="43.043845" lon="-1.21203333">
        <ele>1000.0</ele>
        <time>2019-08-01T07:10:22.001Z</time>
      </trkpt>
      <trkpt lat="43.04384" lon="-1.21205167">
        <ele>1000.0</ele>
        <time>2019-08-01T07:10:23.007Z</time>
      </trkpt>
      <trkpt lat="43.04383167" lon="-1.21207">
        <ele>1000.0</ele>
        <time>2019-08-01T07:10:24.011Z</time>
      </trkpt>
      <trkpt lat="43.04382667" lon="-1.21208667">
        <ele>1000.0</ele>
        <time>2019-08-01T07:10:25.015Z</time>
      </trkpt>
      <trkpt lat="43.04382167" lon="-1.21210167">
        <ele>1000.0</ele>
        <time>2019-08-01T07:10:26.018Z</time>
      </trkpt>
      <trkpt lat="43.043815" lon="-1.21212167">
        <ele>1000.0</ele>
        <time>2019-08-01T07:10:27.023Z</time>
      </trkpt>
      <trkpt lat="43.04381" lon="-1.21214">
        <ele>1000.0</ele>
        <time>2019-08-01T07:10:28.029Z</time>
      </trkpt>
      <trkpt lat="43.04380333" lon="-1.21215833">
        <ele>999.0</ele>
        <time>2019-08-01T07:10:29.036Z</time>
      </trkpt>
      <trkpt lat="43.04379667" lon="-1.212175">
        <ele>999.0</ele>
        <time>2019-08-01T07:10:30.042Z</time>
      </trkpt>
      <trkpt lat="43.04379667" lon="-1.212175">
        <ele>999.0</ele>
        <time>2019-08-01T07:10:30.923Z</time>
      </trkpt>
      <trkpt lat="43.04379167" lon="-1.21219167">
        <ele>1000.0</ele>
        <time>2019-08-01T07:10:31.928Z</time>
      </trkpt>
      <trkpt lat="43.04378667" lon="-1.212215">
        <ele>999.0</ele>
        <time>2019-08-01T07:10:32.933Z</time>
      </trkpt>
      <trkpt lat="43.04378167" lon="-1.21223667">
        <ele>999.0</ele>
        <time>2019-08-01T07:10:33.939Z</time>
      </trkpt>
      <trkpt lat="43.04377833" lon="-1.21225667">
        <ele>999.0</ele>
        <time>2019-08-01T07:10:34.944Z</time>
      </trkpt>
      <trkpt lat="43.04378" lon="-1.21229667">
        <ele>998.0</ele>
        <time>2019-08-01T07:10:35.951Z</time>
      </trkpt>
      <trkpt lat="43.04378" lon="-1.21231667">
        <ele>997.0</ele>
        <time>2019-08-01T07:10:36.958Z</time>
      </trkpt>
      <trkpt lat="43.04378167" lon="-1.21233667">
        <ele>997.0</ele>
        <time>2019-08-01T07:10:37.964Z</time>
      </trkpt>
      <trkpt lat="43.04378167" lon="-1.212355">
        <ele>998.0</ele>
        <time>2019-08-01T07:10:38.969Z</time>
      </trkpt>
      <trkpt lat="43.04378333" lon="-1.212375">
        <ele>997.0</ele>
        <time>2019-08-01T07:10:39.976Z</time>
      </trkpt>
      <trkpt lat="43.043785" lon="-1.21239333">
        <ele>997.0</ele>
        <time>2019-08-01T07:10:40.982Z</time>
      </trkpt>
      <trkpt lat="43.04379333" lon="-1.21240167">
        <ele>997.0</ele>
        <time>2019-08-01T07:10:41.988Z</time>
      </trkpt>
      <trkpt lat="43.043795" lon="-1.21242">
        <ele>996.0</ele>
        <time>2019-08-01T07:10:42.994Z</time>
      </trkpt>
      <trkpt lat="43.04379667" lon="-1.21243667">
        <ele>996.0</ele>
        <time>2019-08-01T07:10:44.001Z</time>
      </trkpt>
      <trkpt lat="43.04380167" lon="-1.21244833">
        <ele>995.0</ele>
        <time>2019-08-01T07:10:45.008Z</time>
      </trkpt>
      <trkpt lat="43.04380833" lon="-1.21246167">
        <ele>994.0</ele>
        <time>2019-08-01T07:10:46.014Z</time>
      </trkpt>
      <trkpt lat="43.04381167" lon="-1.21248">
        <ele>994.0</ele>
        <time>2019-08-01T07:10:47.020Z</time>
      </trkpt>
      <trkpt lat="43.04381833" lon="-1.2125">
        <ele>994.0</ele>
        <time>2019-08-01T07:10:48.027Z</time>
      </trkpt>
      <trkpt lat="43.04382167" lon="-1.21252">
        <ele>994.0</ele>
        <time>2019-08-01T07:10:49.033Z</time>
      </trkpt>
      <trkpt lat="43.04382667" lon="-1.21254167">
        <ele>993.0</ele>
        <time>2019-08-01T07:10:50.041Z</time>
      </trkpt>
      <trkpt lat="43.04382667" lon="-1.21254167">
        <ele>993.0</ele>
        <time>2019-08-01T07:10:50.922Z</time>
      </trkpt>
      <trkpt lat="43.04383167" lon="-1.21256">
        <ele>992.0</ele>
        <time>2019-08-01T07:10:51.927Z</time>
      </trkpt>
      <trkpt lat="43.04383833" lon="-1.21257833">
        <ele>992.0</ele>
        <time>2019-08-01T07:10:52.932Z</time>
      </trkpt>
      <trkpt lat="43.043845" lon="-1.21259667">
        <ele>991.0</ele>
        <time>2019-08-01T07:10:53.939Z</time>
      </trkpt>
      <trkpt lat="43.04385" lon="-1.21261667">
        <ele>991.0</ele>
        <time>2019-08-01T07:10:54.944Z</time>
      </trkpt>
      <trkpt lat="43.04385667" lon="-1.21266333">
        <ele>989.0</ele>
        <time>2019-08-01T07:10:55.950Z</time>
      </trkpt>
      <trkpt lat="43.043865" lon="-1.21268167">
        <ele>989.0</ele>
        <time>2019-08-01T07:10:56.955Z</time>
      </trkpt>
      <trkpt lat="43.04387" lon="-1.21270333">
        <ele>988.0</ele>
        <time>2019-08-01T07:10:57.959Z</time>
      </trkpt>
      <trkpt lat="43.04387667" lon="-1.21272333">
        <ele>988.0</ele>
        <time>2019-08-01T07:10:58.963Z</time>
      </trkpt>
      <trkpt lat="43.04388333" lon="-1.21274167">
        <ele>988.0</ele>
        <time>2019-08-01T07:10:59.969Z</time>
      </trkpt>
      <trkpt lat="43.04389167" lon="-1.21276667">
        <ele>987.0</ele>
        <time>2019-08-01T07:11:00.975Z</time>
      </trkpt>
      <trkpt lat="43.043895" lon="-1.21279167">
        <ele>988.0</ele>
        <time>2019-08-01T07:11:01.981Z</time>
      </trkpt>
      <trkpt lat="43.04389833" lon="-1.21281833">
        <ele>988.0</ele>
        <time>2019-08-01T07:11:02.984Z</time>
      </trkpt>
      <trkpt lat="43.0439" lon="-1.212845">
        <ele>989.0</ele>
        <time>2019-08-01T07:11:03.986Z</time>
      </trkpt>
      <trkpt lat="43.043905" lon="-1.21286833">
        <ele>989.0</ele>
        <time>2019-08-01T07:11:04.990Z</time>
      </trkpt>
      <trkpt lat="43.043905" lon="-1.21289333">
        <ele>989.0</ele>
        <time>2019-08-01T07:11:05.997Z</time>
      </trkpt>
      <trkpt lat="43.04390667" lon="-1.212925">
        <ele>990.0</ele>
        <time>2019-08-01T07:11:07.006Z</time>
      </trkpt>
      <trkpt lat="43.04390667" lon="-1.21294667">
        <ele>990.0</ele>
        <time>2019-08-01T07:11:08.011Z</time>
      </trkpt>
      <trkpt lat="43.04391" lon="-1.21296333">
        <ele>990.0</ele>
        <time>2019-08-01T07:11:09.015Z</time>
      </trkpt>
      <trkpt lat="43.04390667" lon="-1.21298167">
        <ele>991.0</ele>
        <time>2019-08-01T07:11:10.020Z</time>
      </trkpt>
      <trkpt lat="43.04390333" lon="-1.212995">
        <ele>991.0</ele>
        <time>2019-08-01T07:11:11.027Z</time>
      </trkpt>
      <trkpt lat="43.04389833" lon="-1.21300333">
        <ele>992.0</ele>
        <time>2019-08-01T07:11:12.033Z</time>
      </trkpt>
      <trkpt lat="43.04389333" lon="-1.21300667">
        <ele>993.0</ele>
        <time>2019-08-01T07:11:13.037Z</time>
      </trkpt>
      <trkpt lat="43.04389333" lon="-1.21300667">
        <ele>993.0</ele>
        <time>2019-08-01T07:11:13.918Z</time>
      </trkpt>
      <trkpt lat="43.04389" lon="-1.21301833">
        <ele>993.0</ele>
        <time>2019-08-01T07:11:14.925Z</time>
      </trkpt>
      <trkpt lat="43.04388667" lon="-1.213035">
        <ele>993.0</ele>
        <time>2019-08-01T07:11:15.931Z</time>
      </trkpt>
      <trkpt lat="43.04388667" lon="-1.21305167">
        <ele>993.0</ele>
        <time>2019-08-01T07:11:16.936Z</time>
      </trkpt>
      <trkpt lat="43.04388833" lon="-1.21307">
        <ele>993.0</ele>
        <time>2019-08-01T07:11:17.943Z</time>
      </trkpt>
      <trkpt lat="43.04389167" lon="-1.21309">
        <ele>993.0</ele>
        <time>2019-08-01T07:11:18.951Z</time>
      </trkpt>
      <trkpt lat="43.04389833" lon="-1.21313167">
        <ele>994.0</ele>
        <time>2019-08-01T07:11:19.957Z</time>
      </trkpt>
      <trkpt lat="43.0439" lon="-1.21315333">
        <ele>994.0</ele>
        <time>2019-08-01T07:11:20.964Z</time>
      </trkpt>
      <trkpt lat="43.04390167" lon="-1.21316833">
        <ele>994.0</ele>
        <time>2019-08-01T07:11:21.969Z</time>
      </trkpt>
      <trkpt lat="43.0439" lon="-1.213185">
        <ele>994.0</ele>
        <time>2019-08-01T07:11:22.974Z</time>
      </trkpt>
      <trkpt lat="43.04389833" lon="-1.213205">
        <ele>995.0</ele>
        <time>2019-08-01T07:11:23.979Z</time>
      </trkpt>
      <trkpt lat="43.04389333" lon="-1.21322667">
        <ele>995.0</ele>
        <time>2019-08-01T07:11:24.986Z</time>
      </trkpt>
      <trkpt lat="43.04389167" lon="-1.21324833">
        <ele>995.0</ele>
        <time>2019-08-01T07:11:25.993Z</time>
      </trkpt>
      <trkpt lat="43.04389" lon="-1.213265">
        <ele>995.0</ele>
        <time>2019-08-01T07:11:27.000Z</time>
      </trkpt>
      <trkpt lat="43.04388833" lon="-1.21327833">
        <ele>995.0</ele>
        <time>2019-08-01T07:11:28.008Z</time>
      </trkpt>
      <trkpt lat="43.04388833" lon="-1.21329833">
        <ele>995.0</ele>
        <time>2019-08-01T07:11:29.013Z</time>
      </trkpt>
      <trkpt lat="43.04388667" lon="-1.21332">
        <ele>995.0</ele>
        <time>2019-08-01T07:11:30.018Z</time>
      </trkpt>
      <trkpt lat="43.043885" lon="-1.21333833">
        <ele>995.0</ele>
        <time>2019-08-01T07:11:31.022Z</time>
      </trkpt>
      <trkpt lat="43.043885" lon="-1.21336">
        <ele>995.0</ele>
        <time>2019-08-01T07:11:32.028Z</time>
      </trkpt>
      <trkpt lat="43.04388333" lon="-1.213385">
        <ele>995.0</ele>
        <time>2019-08-01T07:11:33.034Z</time>
      </trkpt>
      <trkpt lat="43.04388333" lon="-1.21340833">
        <ele>995.0</ele>
        <time>2019-08-01T07:11:34.038Z</time>
      </trkpt>
      <trkpt lat="43.043885" lon="-1.21342833">
        <ele>995.0</ele>
        <time>2019-08-01T07:11:35.038Z</time>
      </trkpt>
      <trkpt lat="43.04388667" lon="-1.21344667">
        <ele>994.0</ele>
        <time>2019-08-01T07:11:36.040Z</time>
      </trkpt>
      <trkpt lat="43.043885" lon="-1.21346667">
        <ele>994.0</ele>
        <time>2019-08-01T07:11:37.042Z</time>
      </trkpt>
      <trkpt lat="43.043885" lon="-1.21346667">
        <ele>994.0</ele>
        <time>2019-08-01T07:11:37.920Z</time>
      </trkpt>
      <trkpt lat="43.04388333" lon="-1.213485">
        <ele>994.0</ele>
        <time>2019-08-01T07:11:38.921Z</time>
      </trkpt>
      <trkpt lat="43.043885" lon="-1.21350833">
        <ele>993.0</ele>
        <time>2019-08-01T07:11:39.928Z</time>
      </trkpt>
      <trkpt lat="43.043885" lon="-1.21352833">
        <ele>993.0</ele>
        <time>2019-08-01T07:11:40.933Z</time>
      </trkpt>
      <trkpt lat="43.04388333" lon="-1.21354833">
        <ele>993.0</ele>
        <time>2019-08-01T07:11:41.938Z</time>
      </trkpt>
      <trkpt lat="43.04388333" lon="-1.21356667">
        <ele>993.0</ele>
        <time>2019-08-01T07:11:42.945Z</time>
      </trkpt>
      <trkpt lat="43.04388167" lon="-1.213605">
        <ele>992.0</ele>
        <time>2019-08-01T07:11:43.952Z</time>
      </trkpt>
      <trkpt lat="43.04388167" lon="-1.21362333">
        <ele>992.0</ele>
        <time>2019-08-01T07:11:44.958Z</time>
      </trkpt>
      <trkpt lat="43.04388" lon="-1.21364333">
        <ele>992.0</ele>
        <time>2019-08-01T07:11:45.964Z</time>
      </trkpt>
      <trkpt lat="43.04388" lon="-1.21366167">
        <ele>992.0</ele>
        <time>2019-08-01T07:11:46.971Z</time>
      </trkpt>
      <trkpt lat="43.04387833" lon="-1.21368">
        <ele>992.0</ele>
        <time>2019-08-01T07:11:47.978Z</time>
      </trkpt>
      <trkpt lat="43.04387667" lon="-1.21369667">
        <ele>992.0</ele>
        <time>2019-08-01T07:11:48.984Z</time>
      </trkpt>
      <trkpt lat="43.04387667" lon="-1.213705">
        <ele>992.0</ele>
        <time>2019-08-01T07:11:49.990Z</time>
      </trkpt>
      <trkpt lat="43.04387667" lon="-1.21370667">
        <ele>991.0</ele>
        <time>2019-08-01T07:11:50.998Z</time>
      </trkpt>
      <trkpt lat="43.04387667" lon="-1.21371333">
        <ele>991.0</ele>
        <time>2019-08-01T07:11:52.005Z</time>
      </trkpt>
      <trkpt lat="43.043875" lon="-1.213725">
        <ele>991.0</ele>
        <time>2019-08-01T07:11:53.010Z</time>
      </trkpt>
      <trkpt lat="43.043875" lon="-1.21374">
        <ele>991.0</ele>
        <time>2019-08-01T07:11:54.016Z</time>
      </trkpt>
      <trkpt lat="43.04387333" lon="-1.21375667">
        <ele>991.0</ele>
        <time>2019-08-01T07:11:55.023Z</time>
      </trkpt>
      <trkpt lat="43.04387" lon="-1.21377667">
        <ele>991.0</ele>
        <time>2019-08-01T07:11:56.031Z</time>
      </trkpt>
      <trkpt lat="43.04386833" lon="-1.21379667">
        <ele>991.0</ele>
        <time>2019-08-01T07:11:57.038Z</time>
      </trkpt>
      <trkpt lat="43.04386833" lon="-1.21379667">
        <ele>991.0</ele>
        <time>2019-08-01T07:11:57.918Z</time>
      </trkpt>
      <trkpt lat="43.043865" lon="-1.213815">
        <ele>991.0</ele>
        <time>2019-08-01T07:11:58.923Z</time>
      </trkpt>
      <trkpt lat="43.04386167" lon="-1.21383667">
        <ele>991.0</ele>
        <time>2019-08-01T07:11:59.929Z</time>
      </trkpt>
      <trkpt lat="43.04385833" lon="-1.213855">
        <ele>990.0</ele>
        <time>2019-08-01T07:12:00.933Z</time>
      </trkpt>
      <trkpt lat="43.043855" lon="-1.21387833">
        <ele>990.0</ele>
        <time>2019-08-01T07:12:01.937Z</time>
      </trkpt>
      <trkpt lat="43.04385167" lon="-1.21390167">
        <ele>989.0</ele>
        <time>2019-08-01T07:12:02.941Z</time>
      </trkpt>
      <trkpt lat="43.04384667" lon="-1.21392167">
        <ele>989.0</ele>
        <time>2019-08-01T07:12:03.948Z</time>
      </trkpt>
      <trkpt lat="43.04383833" lon="-1.21396833">
        <ele>989.0</ele>
        <time>2019-08-01T07:12:04.954Z</time>
      </trkpt>
      <trkpt lat="43.043835" lon="-1.21399">
        <ele>988.0</ele>
        <time>2019-08-01T07:12:05.959Z</time>
      </trkpt>
      <trkpt lat="43.04383167" lon="-1.21400833">
        <ele>987.0</ele>
        <time>2019-08-01T07:12:06.964Z</time>
      </trkpt>
      <trkpt lat="43.04383" lon="-1.21403">
        <ele>986.0</ele>
        <time>2019-08-01T07:12:07.970Z</time>
      </trkpt>
      <trkpt lat="43.04382833" lon="-1.21405">
        <ele>986.0</ele>
        <time>2019-08-01T07:12:08.977Z</time>
      </trkpt>
      <trkpt lat="43.043825" lon="-1.21407167">
        <ele>986.0</ele>
        <time>2019-08-01T07:12:09.983Z</time>
      </trkpt>
      <trkpt lat="43.04382167" lon="-1.21409333">
        <ele>985.0</ele>
        <time>2019-08-01T07:12:10.989Z</time>
      </trkpt>
      <trkpt lat="43.04382" lon="-1.21411333">
        <ele>984.0</ele>
        <time>2019-08-01T07:12:11.996Z</time>
      </trkpt>
      <trkpt lat="43.04381667" lon="-1.21413">
        <ele>984.0</ele>
        <time>2019-08-01T07:12:13.002Z</time>
      </trkpt>
      <trkpt lat="43.04381" lon="-1.214145">
        <ele>984.0</ele>
        <time>2019-08-01T07:12:14.009Z</time>
      </trkpt>
      <trkpt lat="43.04380167" lon="-1.21416667">
        <ele>984.0</ele>
        <time>2019-08-01T07:12:15.015Z</time>
      </trkpt>
      <trkpt lat="43.04379833" lon="-1.21418667">
        <ele>985.0</ele>
        <time>2019-08-01T07:12:16.021Z</time>
      </trkpt>
      <trkpt lat="43.043795" lon="-1.21420667">
        <ele>984.0</ele>
        <time>2019-08-01T07:12:17.027Z</time>
      </trkpt>
      <trkpt lat="43.04379" lon="-1.21422833">
        <ele>985.0</ele>
        <time>2019-08-01T07:12:18.035Z</time>
      </trkpt>
      <trkpt lat="43.04378667" lon="-1.21425">
        <ele>985.0</ele>
        <time>2019-08-01T07:12:19.042Z</time>
      </trkpt>
      <trkpt lat="43.04378667" lon="-1.21425">
        <ele>985.0</ele>
        <time>2019-08-01T07:12:19.922Z</time>
      </trkpt>
      <trkpt lat="43.04378167" lon="-1.21427333">
        <ele>985.0</ele>
        <time>2019-08-01T07:12:20.928Z</time>
      </trkpt>
      <trkpt lat="43.04377833" lon="-1.214295">
        <ele>984.0</ele>
        <time>2019-08-01T07:12:21.933Z</time>
      </trkpt>
      <trkpt lat="43.04377667" lon="-1.21431667">
        <ele>984.0</ele>
        <time>2019-08-01T07:12:22.939Z</time>
      </trkpt>
      <trkpt lat="43.04377333" lon="-1.21433833">
        <ele>983.0</ele>
        <time>2019-08-01T07:12:23.943Z</time>
      </trkpt>
      <trkpt lat="43.04376667" lon="-1.21438167">
        <ele>983.0</ele>
        <time>2019-08-01T07:12:24.949Z</time>
      </trkpt>
      <trkpt lat="43.04376333" lon="-1.21440333">
        <ele>983.0</ele>
        <time>2019-08-01T07:12:25.955Z</time>
      </trkpt>
      <trkpt lat="43.04376" lon="-1.214425">
        <ele>983.0</ele>
        <time>2019-08-01T07:12:26.960Z</time>
      </trkpt>
      <trkpt lat="43.043755" lon="-1.21444667">
        <ele>983.0</ele>
        <time>2019-08-01T07:12:27.965Z</time>
      </trkpt>
      <trkpt lat="43.04375333" lon="-1.21446667">
        <ele>983.0</ele>
        <time>2019-08-01T07:12:28.969Z</time>
      </trkpt>
      <trkpt lat="43.04374833" lon="-1.21448833">
        <ele>982.0</ele>
        <time>2019-08-01T07:12:29.974Z</time>
      </trkpt>
      <trkpt lat="43.04374333" lon="-1.21451">
        <ele>982.0</ele>
        <time>2019-08-01T07:12:30.980Z</time>
      </trkpt>
      <trkpt lat="43.04373833" lon="-1.21453">
        <ele>983.0</ele>
        <time>2019-08-01T07:12:31.987Z</time>
      </trkpt>
      <trkpt lat="43.04373333" lon="-1.21455167">
        <ele>983.0</ele>
        <time>2019-08-01T07:12:32.994Z</time>
      </trkpt>
      <trkpt lat="43.043725" lon="-1.21457167">
        <ele>983.0</ele>
        <time>2019-08-01T07:12:33.999Z</time>
      </trkpt>
      <trkpt lat="43.04372" lon="-1.21459">
        <ele>983.0</ele>
        <time>2019-08-01T07:12:35.007Z</time>
      </trkpt>
      <trkpt lat="43.04371833" lon="-1.21460833">
        <ele>982.0</ele>
        <time>2019-08-01T07:12:36.012Z</time>
      </trkpt>
      <trkpt lat="43.04371167" lon="-1.21462833">
        <ele>982.0</ele>
        <time>2019-08-01T07:12:37.018Z</time>
      </trkpt>
      <trkpt lat="43.043705" lon="-1.21464833">
        <ele>983.0</ele>
        <time>2019-08-01T07:12:38.025Z</time>
      </trkpt>
      <trkpt lat="43.0437" lon="-1.21466667">
        <ele>983.0</ele>
        <time>2019-08-01T07:12:39.033Z</time>
      </trkpt>
      <trkpt lat="43.043695" lon="-1.21468333">
        <ele>982.0</ele>
        <time>2019-08-01T07:12:40.040Z</time>
      </trkpt>
      <trkpt lat="43.043695" lon="-1.21468333">
        <ele>982.0</ele>
        <time>2019-08-01T07:12:40.920Z</time>
      </trkpt>
      <trkpt lat="43.04369" lon="-1.2147">
        <ele>982.0</ele>
        <time>2019-08-01T07:12:41.926Z</time>
      </trkpt>
      <trkpt lat="43.043685" lon="-1.21471833">
        <ele>982.0</ele>
        <time>2019-08-01T07:12:42.928Z</time>
      </trkpt>
      <trkpt lat="43.04367833" lon="-1.21474">
        <ele>983.0</ele>
        <time>2019-08-01T07:12:43.930Z</time>
      </trkpt>
      <trkpt lat="43.04367167" lon="-1.21476333">
        <ele>983.0</ele>
        <time>2019-08-01T07:12:44.936Z</time>
      </trkpt>
      <trkpt lat="43.04366667" lon="-1.21478167">
        <ele>983.0</ele>
        <time>2019-08-01T07:12:45.942Z</time>
      </trkpt>
      <trkpt lat="43.04365333" lon="-1.21482333">
        <ele>983.0</ele>
        <time>2019-08-01T07:12:46.951Z</time>
      </trkpt>
      <trkpt lat="43.04365333" lon="-1.214845">
        <ele>984.0</ele>
        <time>2019-08-01T07:12:47.951Z</time>
      </trkpt>
      <trkpt lat="43.04365167" lon="-1.21486833">
        <ele>984.0</ele>
        <time>2019-08-01T07:12:48.955Z</time>
      </trkpt>
      <trkpt lat="43.04364833" lon="-1.21489">
        <ele>984.0</ele>
        <time>2019-08-01T07:12:49.961Z</time>
      </trkpt>
      <trkpt lat="43.04364833" lon="-1.21491">
        <ele>984.0</ele>
        <time>2019-08-01T07:12:50.966Z</time>
      </trkpt>
      <trkpt lat="43.04364833" lon="-1.21492667">
        <ele>984.0</ele>
        <time>2019-08-01T07:12:51.969Z</time>
      </trkpt>
      <trkpt lat="43.04364833" lon="-1.21494333">
        <ele>983.0</ele>
        <time>2019-08-01T07:12:52.971Z</time>
      </trkpt>
      <trkpt lat="43.04364667" lon="-1.21496">
        <ele>983.0</ele>
        <time>2019-08-01T07:12:53.975Z</time>
      </trkpt>
      <trkpt lat="43.04364333" lon="-1.21498">
        <ele>983.0</ele>
        <time>2019-08-01T07:12:54.981Z</time>
      </trkpt>
      <trkpt lat="43.04364" lon="-1.21499833">
        <ele>983.0</ele>
        <time>2019-08-01T07:12:55.985Z</time>
      </trkpt>
      <trkpt lat="43.043635" lon="-1.21501667">
        <ele>982.0</ele>
        <time>2019-08-01T07:12:56.991Z</time>
      </trkpt>
      <trkpt lat="43.04363167" lon="-1.21504">
        <ele>983.0</ele>
        <time>2019-08-01T07:12:57.995Z</time>
      </trkpt>
      <trkpt lat="43.04363333" lon="-1.21505667">
        <ele>982.0</ele>
        <time>2019-08-01T07:12:59.000Z</time>
      </trkpt>
      <trkpt lat="43.043635" lon="-1.21507167">
        <ele>982.0</ele>
        <time>2019-08-01T07:13:00.007Z</time>
      </trkpt>
      <trkpt lat="43.04363667" lon="-1.21508833">
        <ele>983.0</ele>
        <time>2019-08-01T07:13:01.013Z</time>
      </trkpt>
      <trkpt lat="43.043635" lon="-1.21510667">
        <ele>983.0</ele>
        <time>2019-08-01T07:13:02.019Z</time>
      </trkpt>
      <trkpt lat="43.04363333" lon="-1.215125">
        <ele>983.0</ele>
        <time>2019-08-01T07:13:03.026Z</time>
      </trkpt>
      <trkpt lat="43.04363167" lon="-1.21514667">
        <ele>983.0</ele>
        <time>2019-08-01T07:13:04.033Z</time>
      </trkpt>
      <trkpt lat="43.04363" lon="-1.215165">
        <ele>982.0</ele>
        <time>2019-08-01T07:13:05.038Z</time>
      </trkpt>
      <trkpt lat="43.04363" lon="-1.215165">
        <ele>982.0</ele>
        <time>2019-08-01T07:13:05.918Z</time>
      </trkpt>
      <trkpt lat="43.04362667" lon="-1.21518167">
        <ele>983.0</ele>
        <time>2019-08-01T07:13:06.924Z</time>
      </trkpt>
      <trkpt lat="43.04362" lon="-1.21520333">
        <ele>983.0</ele>
        <time>2019-08-01T07:13:07.930Z</time>
      </trkpt>
      <trkpt lat="43.04361667" lon="-1.21522">
        <ele>983.0</ele>
        <time>2019-08-01T07:13:08.936Z</time>
      </trkpt>
      <trkpt lat="43.04361333" lon="-1.215235">
        <ele>983.0</ele>
        <time>2019-08-01T07:13:09.943Z</time>
      </trkpt>
      <trkpt lat="43.043605" lon="-1.21525833">
        <ele>983.0</ele>
        <time>2019-08-01T07:13:10.949Z</time>
      </trkpt>
      <trkpt lat="43.043605" lon="-1.21525833">
        <ele>983.0</ele>
        <time>2019-08-01T07:13:11.953Z</time>
      </trkpt>
      <trkpt lat="43.0436" lon="-1.21528333">
        <ele>983.0</ele>
        <time>2019-08-01T07:13:12.955Z</time>
      </trkpt>
      <trkpt lat="43.04359833" lon="-1.215295">
        <ele>983.0</ele>
        <time>2019-08-01T07:13:13.959Z</time>
      </trkpt>
      <trkpt lat="43.04359833" lon="-1.21531167">
        <ele>984.0</ele>
        <time>2019-08-01T07:13:14.965Z</time>
      </trkpt>
      <trkpt lat="43.043595" lon="-1.21532667">
        <ele>984.0</ele>
        <time>2019-08-01T07:13:15.969Z</time>
      </trkpt>
      <trkpt lat="43.04358833" lon="-1.21534333">
        <ele>984.0</ele>
        <time>2019-08-01T07:13:16.972Z</time>
      </trkpt>
      <trkpt lat="43.043585" lon="-1.21536667">
        <ele>985.0</ele>
        <time>2019-08-01T07:13:17.980Z</time>
      </trkpt>
      <trkpt lat="43.04358167" lon="-1.21538">
        <ele>985.0</ele>
        <time>2019-08-01T07:13:18.986Z</time>
      </trkpt>
      <trkpt lat="43.04357833" lon="-1.21539667">
        <ele>986.0</ele>
        <time>2019-08-01T07:13:19.991Z</time>
      </trkpt>
      <trkpt lat="43.04357667" lon="-1.21541333">
        <ele>986.0</ele>
        <time>2019-08-01T07:13:20.997Z</time>
      </trkpt>
      <trkpt lat="43.04357333" lon="-1.21543">
        <ele>986.0</ele>
        <time>2019-08-01T07:13:22.002Z</time>
      </trkpt>
      <trkpt lat="43.04357" lon="-1.21545167">
        <ele>986.0</ele>
        <time>2019-08-01T07:13:23.008Z</time>
      </trkpt>
      <trkpt lat="43.04356667" lon="-1.21546667">
        <ele>985.0</ele>
        <time>2019-08-01T07:13:24.014Z</time>
      </trkpt>
      <trkpt lat="43.04356167" lon="-1.215485">
        <ele>985.0</ele>
        <time>2019-08-01T07:13:25.021Z</time>
      </trkpt>
      <trkpt lat="43.04355833" lon="-1.21550333">
        <ele>985.0</ele>
        <time>2019-08-01T07:13:26.026Z</time>
      </trkpt>
      <trkpt lat="43.04355667" lon="-1.21552">
        <ele>984.0</ele>
        <time>2019-08-01T07:13:27.034Z</time>
      </trkpt>
      <trkpt lat="43.04355333" lon="-1.21553833">
        <ele>984.0</ele>
        <time>2019-08-01T07:13:28.039Z</time>
      </trkpt>
      <trkpt lat="43.04355333" lon="-1.21553833">
        <ele>984.0</ele>
        <time>2019-08-01T07:13:28.922Z</time>
      </trkpt>
      <trkpt lat="43.04355" lon="-1.215555">
        <ele>984.0</ele>
        <time>2019-08-01T07:13:29.928Z</time>
      </trkpt>
      <trkpt lat="43.043545" lon="-1.21557333">
        <ele>985.0</ele>
        <time>2019-08-01T07:13:30.933Z</time>
      </trkpt>
      <trkpt lat="43.04354" lon="-1.21559">
        <ele>984.0</ele>
        <time>2019-08-01T07:13:31.939Z</time>
      </trkpt>
      <trkpt lat="43.04353333" lon="-1.21560667">
        <ele>984.0</ele>
        <time>2019-08-01T07:13:32.943Z</time>
      </trkpt>
      <trkpt lat="43.04352333" lon="-1.21562667">
        <ele>984.0</ele>
        <time>2019-08-01T07:13:33.950Z</time>
      </trkpt>
      <trkpt lat="43.043505" lon="-1.21565833">
        <ele>984.0</ele>
        <time>2019-08-01T07:13:34.956Z</time>
      </trkpt>
      <trkpt lat="43.04349667" lon="-1.21567167">
        <ele>985.0</ele>
        <time>2019-08-01T07:13:35.962Z</time>
      </trkpt>
      <trkpt lat="43.043485" lon="-1.21568833">
        <ele>985.0</ele>
        <time>2019-08-01T07:13:36.967Z</time>
      </trkpt>
      <trkpt lat="43.043475" lon="-1.21570167">
        <ele>985.0</ele>
        <time>2019-08-01T07:13:37.971Z</time>
      </trkpt>
      <trkpt lat="43.043465" lon="-1.215715">
        <ele>985.0</ele>
        <time>2019-08-01T07:13:38.977Z</time>
      </trkpt>
      <trkpt lat="43.04345667" lon="-1.21572833">
        <ele>985.0</ele>
        <time>2019-08-01T07:13:39.983Z</time>
      </trkpt>
      <trkpt lat="43.04344667" lon="-1.21574167">
        <ele>985.0</ele>
        <time>2019-08-01T07:13:40.987Z</time>
      </trkpt>
      <trkpt lat="43.043435" lon="-1.215755">
        <ele>985.0</ele>
        <time>2019-08-01T07:13:41.993Z</time>
      </trkpt>
      <trkpt lat="43.043425" lon="-1.21577333">
        <ele>985.0</ele>
        <time>2019-08-01T07:13:42.996Z</time>
      </trkpt>
      <trkpt lat="43.04341667" lon="-1.21579167">
        <ele>985.0</ele>
        <time>2019-08-01T07:13:44.001Z</time>
      </trkpt>
      <trkpt lat="43.04340667" lon="-1.21581">
        <ele>985.0</ele>
        <time>2019-08-01T07:13:45.005Z</time>
      </trkpt>
      <trkpt lat="43.04339833" lon="-1.21582833">
        <ele>985.0</ele>
        <time>2019-08-01T07:13:46.010Z</time>
      </trkpt>
      <trkpt lat="43.04339167" lon="-1.21584">
        <ele>986.0</ele>
        <time>2019-08-01T07:13:47.015Z</time>
      </trkpt>
      <trkpt lat="43.04338667" lon="-1.215855">
        <ele>986.0</ele>
        <time>2019-08-01T07:13:48.019Z</time>
      </trkpt>
      <trkpt lat="43.04338167" lon="-1.21587">
        <ele>987.0</ele>
        <time>2019-08-01T07:13:49.024Z</time>
      </trkpt>
      <trkpt lat="43.04337167" lon="-1.21588667">
        <ele>987.0</ele>
        <time>2019-08-01T07:13:50.030Z</time>
      </trkpt>
      <trkpt lat="43.04336167" lon="-1.2159">
        <ele>988.0</ele>
        <time>2019-08-01T07:13:51.036Z</time>
      </trkpt>
      <trkpt lat="43.04335167" lon="-1.21591333">
        <ele>988.0</ele>
        <time>2019-08-01T07:13:52.042Z</time>
      </trkpt>
      <trkpt lat="43.04335167" lon="-1.21591333">
        <ele>988.0</ele>
        <time>2019-08-01T07:13:52.924Z</time>
      </trkpt>
      <trkpt lat="43.04334167" lon="-1.215925">
        <ele>988.0</ele>
        <time>2019-08-01T07:13:53.928Z</time>
      </trkpt>
      <trkpt lat="43.04333167" lon="-1.215935">
        <ele>988.0</ele>
        <time>2019-08-01T07:13:54.934Z</time>
      </trkpt>
      <trkpt lat="43.04332167" lon="-1.21594333">
        <ele>989.0</ele>
        <time>2019-08-01T07:13:55.938Z</time>
      </trkpt>
      <trkpt lat="43.04330667" lon="-1.21595333">
        <ele>989.0</ele>
        <time>2019-08-01T07:13:56.943Z</time>
      </trkpt>
      <trkpt lat="43.043295" lon="-1.215965">
        <ele>989.0</ele>
        <time>2019-08-01T07:13:57.952Z</time>
      </trkpt>
      <trkpt lat="43.04328333" lon="-1.21597833">
        <ele>990.0</ele>
        <time>2019-08-01T07:13:58.957Z</time>
      </trkpt>
      <trkpt lat="43.04325833" lon="-1.21599667">
        <ele>990.0</ele>
        <time>2019-08-01T07:13:59.964Z</time>
      </trkpt>
      <trkpt lat="43.04324333" lon="-1.216005">
        <ele>990.0</ele>
        <time>2019-08-01T07:14:00.969Z</time>
      </trkpt>
      <trkpt lat="43.04323" lon="-1.216015">
        <ele>991.0</ele>
        <time>2019-08-01T07:14:01.976Z</time>
      </trkpt>
      <trkpt lat="43.043215" lon="-1.21602333">
        <ele>991.0</ele>
        <time>2019-08-01T07:14:02.982Z</time>
      </trkpt>
      <trkpt lat="43.0432" lon="-1.21602833">
        <ele>991.0</ele>
        <time>2019-08-01T07:14:03.987Z</time>
      </trkpt>
      <trkpt lat="43.04318667" lon="-1.21603667">
        <ele>992.0</ele>
        <time>2019-08-01T07:14:04.992Z</time>
      </trkpt>
      <trkpt lat="43.04317" lon="-1.216045">
        <ele>992.0</ele>
        <time>2019-08-01T07:14:05.996Z</time>
      </trkpt>
      <trkpt lat="43.04315667" lon="-1.21605333">
        <ele>992.0</ele>
        <time>2019-08-01T07:14:07.002Z</time>
      </trkpt>
      <trkpt lat="43.04314167" lon="-1.21606">
        <ele>993.0</ele>
        <time>2019-08-01T07:14:08.010Z</time>
      </trkpt>
      <trkpt lat="43.04312667" lon="-1.21607">
        <ele>993.0</ele>
        <time>2019-08-01T07:14:09.015Z</time>
      </trkpt>
      <trkpt lat="43.04311167" lon="-1.21608167">
        <ele>993.0</ele>
        <time>2019-08-01T07:14:10.020Z</time>
      </trkpt>
      <trkpt lat="43.04309833" lon="-1.21609333">
        <ele>993.0</ele>
        <time>2019-08-01T07:14:11.026Z</time>
      </trkpt>
      <trkpt lat="43.043085" lon="-1.216105">
        <ele>993.0</ele>
        <time>2019-08-01T07:14:12.032Z</time>
      </trkpt>
      <trkpt lat="43.04307333" lon="-1.21611667">
        <ele>993.0</ele>
        <time>2019-08-01T07:14:13.039Z</time>
      </trkpt>
      <trkpt lat="43.04307333" lon="-1.21611667">
        <ele>993.0</ele>
        <time>2019-08-01T07:14:13.919Z</time>
      </trkpt>
      <trkpt lat="43.04305833" lon="-1.216125">
        <ele>993.0</ele>
        <time>2019-08-01T07:14:14.925Z</time>
      </trkpt>
      <trkpt lat="43.04304667" lon="-1.21613667">
        <ele>993.0</ele>
        <time>2019-08-01T07:14:15.930Z</time>
      </trkpt>
      <trkpt lat="43.04303333" lon="-1.216145">
        <ele>993.0</ele>
        <time>2019-08-01T07:14:16.938Z</time>
      </trkpt>
      <trkpt lat="43.04302" lon="-1.21615667">
        <ele>993.0</ele>
        <time>2019-08-01T07:14:17.943Z</time>
      </trkpt>
      <trkpt lat="43.04300667" lon="-1.21616667">
        <ele>993.0</ele>
        <time>2019-08-01T07:14:18.951Z</time>
      </trkpt>
      <trkpt lat="43.04298333" lon="-1.21618333">
        <ele>993.0</ele>
        <time>2019-08-01T07:14:19.955Z</time>
      </trkpt>
      <trkpt lat="43.04296833" lon="-1.21619">
        <ele>994.0</ele>
        <time>2019-08-01T07:14:20.960Z</time>
      </trkpt>
      <trkpt lat="43.042955" lon="-1.216195">
        <ele>994.0</ele>
        <time>2019-08-01T07:14:21.967Z</time>
      </trkpt>
      <trkpt lat="43.04294" lon="-1.21620167">
        <ele>995.0</ele>
        <time>2019-08-01T07:14:22.973Z</time>
      </trkpt>
      <trkpt lat="43.042925" lon="-1.21620667">
        <ele>996.0</ele>
        <time>2019-08-01T07:14:23.978Z</time>
      </trkpt>
      <trkpt lat="43.04291" lon="-1.21621">
        <ele>996.0</ele>
        <time>2019-08-01T07:14:24.983Z</time>
      </trkpt>
      <trkpt lat="43.04289333" lon="-1.21621">
        <ele>997.0</ele>
        <time>2019-08-01T07:14:25.990Z</time>
      </trkpt>
      <trkpt lat="43.04287667" lon="-1.21621">
        <ele>997.0</ele>
        <time>2019-08-01T07:14:26.996Z</time>
      </trkpt>
      <trkpt lat="43.04285833" lon="-1.21621">
        <ele>998.0</ele>
        <time>2019-08-01T07:14:27.999Z</time>
      </trkpt>
      <trkpt lat="43.04283833" lon="-1.21621">
        <ele>999.0</ele>
        <time>2019-08-01T07:14:29.003Z</time>
      </trkpt>
      <trkpt lat="43.04282" lon="-1.21621167">
        <ele>999.0</ele>
        <time>2019-08-01T07:14:30.009Z</time>
      </trkpt>
      <trkpt lat="43.04280333" lon="-1.21621833">
        <ele>1000.0</ele>
        <time>2019-08-01T07:14:31.015Z</time>
      </trkpt>
      <trkpt lat="43.04278667" lon="-1.216225">
        <ele>1000.0</ele>
        <time>2019-08-01T07:14:32.024Z</time>
      </trkpt>
      <trkpt lat="43.04277" lon="-1.21623333">
        <ele>1000.0</ele>
        <time>2019-08-01T07:14:33.030Z</time>
      </trkpt>
      <trkpt lat="43.042755" lon="-1.21624333">
        <ele>1000.0</ele>
        <time>2019-08-01T07:14:34.036Z</time>
      </trkpt>
      <trkpt lat="43.04274167" lon="-1.21625333">
        <ele>1000.0</ele>
        <time>2019-08-01T07:14:35.042Z</time>
      </trkpt>
      <trkpt lat="43.04274167" lon="-1.21625333">
        <ele>1000.0</ele>
        <time>2019-08-01T07:14:35.922Z</time>
      </trkpt>
      <trkpt lat="43.04272833" lon="-1.21626">
        <ele>1000.0</ele>
        <time>2019-08-01T07:14:36.926Z</time>
      </trkpt>
      <trkpt lat="43.04271333" lon="-1.21626667">
        <ele>999.0</ele>
        <time>2019-08-01T07:14:37.932Z</time>
      </trkpt>
      <trkpt lat="43.04270167" lon="-1.216275">
        <ele>999.0</ele>
        <time>2019-08-01T07:14:38.938Z</time>
      </trkpt>
      <trkpt lat="43.04268833" lon="-1.21628">
        <ele>998.0</ele>
        <time>2019-08-01T07:14:39.943Z</time>
      </trkpt>
      <trkpt lat="43.042675" lon="-1.21628833">
        <ele>999.0</ele>
        <time>2019-08-01T07:14:40.950Z</time>
      </trkpt>
      <trkpt lat="43.04264667" lon="-1.21630833">
        <ele>1000.0</ele>
        <time>2019-08-01T07:14:41.956Z</time>
      </trkpt>
      <trkpt lat="43.042635" lon="-1.21631667">
        <ele>1000.0</ele>
        <time>2019-08-01T07:14:42.963Z</time>
      </trkpt>
      <trkpt lat="43.04262167" lon="-1.21632833">
        <ele>1000.0</ele>
        <time>2019-08-01T07:14:43.969Z</time>
      </trkpt>
      <trkpt lat="43.04260833" lon="-1.21633833">
        <ele>1000.0</ele>
        <time>2019-08-01T07:14:44.975Z</time>
      </trkpt>
      <trkpt lat="43.04259333" lon="-1.21634833">
        <ele>1000.0</ele>
        <time>2019-08-01T07:14:45.982Z</time>
      </trkpt>
      <trkpt lat="43.04258" lon="-1.21636">
        <ele>1000.0</ele>
        <time>2019-08-01T07:14:46.987Z</time>
      </trkpt>
      <trkpt lat="43.04256833" lon="-1.21637167">
        <ele>1000.0</ele>
        <time>2019-08-01T07:14:47.993Z</time>
      </trkpt>
      <trkpt lat="43.04255833" lon="-1.216385">
        <ele>999.0</ele>
        <time>2019-08-01T07:14:48.999Z</time>
      </trkpt>
      <trkpt lat="43.04254667" lon="-1.21640333">
        <ele>999.0</ele>
        <time>2019-08-01T07:14:50.007Z</time>
      </trkpt>
      <trkpt lat="43.04253833" lon="-1.21641833">
        <ele>998.0</ele>
        <time>2019-08-01T07:14:51.011Z</time>
      </trkpt>
      <trkpt lat="43.04252667" lon="-1.21643167">
        <ele>998.0</ele>
        <time>2019-08-01T07:14:52.016Z</time>
      </trkpt>
      <trkpt lat="43.04251667" lon="-1.21644667">
        <ele>998.0</ele>
        <time>2019-08-01T07:14:53.019Z</time>
      </trkpt>
      <trkpt lat="43.042505" lon="-1.21646333">
        <ele>998.0</ele>
        <time>2019-08-01T07:14:54.025Z</time>
      </trkpt>
      <trkpt lat="43.042495" lon="-1.21648167">
        <ele>998.0</ele>
        <time>2019-08-01T07:14:55.031Z</time>
      </trkpt>
      <trkpt lat="43.042485" lon="-1.216495">
        <ele>998.0</ele>
        <time>2019-08-01T07:14:56.036Z</time>
      </trkpt>
      <trkpt lat="43.04247333" lon="-1.21650833">
        <ele>998.0</ele>
        <time>2019-08-01T07:14:57.042Z</time>
      </trkpt>
      <trkpt lat="43.04247333" lon="-1.21650833">
        <ele>998.0</ele>
        <time>2019-08-01T07:14:57.921Z</time>
      </trkpt>
      <trkpt lat="43.04246" lon="-1.21652167">
        <ele>998.0</ele>
        <time>2019-08-01T07:14:58.928Z</time>
      </trkpt>
      <trkpt lat="43.04244833" lon="-1.21654">
        <ele>998.0</ele>
        <time>2019-08-01T07:14:59.931Z</time>
      </trkpt>
      <trkpt lat="43.04243833" lon="-1.21655667">
        <ele>999.0</ele>
        <time>2019-08-01T07:15:00.936Z</time>
      </trkpt>
      <trkpt lat="43.04243" lon="-1.21657333">
        <ele>999.0</ele>
        <time>2019-08-01T07:15:01.942Z</time>
      </trkpt>
      <trkpt lat="43.04242" lon="-1.21659167">
        <ele>998.0</ele>
        <time>2019-08-01T07:15:02.949Z</time>
      </trkpt>
      <trkpt lat="43.04240333" lon="-1.21663">
        <ele>998.0</ele>
        <time>2019-08-01T07:15:03.956Z</time>
      </trkpt>
      <trkpt lat="43.04239333" lon="-1.21664667">
        <ele>998.0</ele>
        <time>2019-08-01T07:15:04.961Z</time>
      </trkpt>
      <trkpt lat="43.042385" lon="-1.216665">
        <ele>998.0</ele>
        <time>2019-08-01T07:15:05.966Z</time>
      </trkpt>
      <trkpt lat="43.04237667" lon="-1.21668167">
        <ele>998.0</ele>
        <time>2019-08-01T07:15:06.970Z</time>
      </trkpt>
      <trkpt lat="43.04237" lon="-1.2167">
        <ele>998.0</ele>
        <time>2019-08-01T07:15:07.976Z</time>
      </trkpt>
      <trkpt lat="43.04236" lon="-1.21671667">
        <ele>999.0</ele>
        <time>2019-08-01T07:15:08.983Z</time>
      </trkpt>
      <trkpt lat="43.04235" lon="-1.21673167">
        <ele>999.0</ele>
        <time>2019-08-01T07:15:09.989Z</time>
      </trkpt>
      <trkpt lat="43.04234167" lon="-1.21674833">
        <ele>998.0</ele>
        <time>2019-08-01T07:15:10.995Z</time>
      </trkpt>
      <trkpt lat="43.042335" lon="-1.21676667">
        <ele>998.0</ele>
        <time>2019-08-01T07:15:12.002Z</time>
      </trkpt>
      <trkpt lat="43.04232667" lon="-1.21678333">
        <ele>998.0</ele>
        <time>2019-08-01T07:15:13.008Z</time>
      </trkpt>
      <trkpt lat="43.04232" lon="-1.21680167">
        <ele>998.0</ele>
        <time>2019-08-01T07:15:14.011Z</time>
      </trkpt>
      <trkpt lat="43.042315" lon="-1.21681833">
        <ele>998.0</ele>
        <time>2019-08-01T07:15:15.016Z</time>
      </trkpt>
      <trkpt lat="43.04230667" lon="-1.216835">
        <ele>998.0</ele>
        <time>2019-08-01T07:15:16.022Z</time>
      </trkpt>
      <trkpt lat="43.0423" lon="-1.21685">
        <ele>998.0</ele>
        <time>2019-08-01T07:15:17.030Z</time>
      </trkpt>
      <trkpt lat="43.04229" lon="-1.21686667">
        <ele>998.0</ele>
        <time>2019-08-01T07:15:18.033Z</time>
      </trkpt>
      <trkpt lat="43.04228" lon="-1.21688">
        <ele>998.0</ele>
        <time>2019-08-01T07:15:19.035Z</time>
      </trkpt>
      <trkpt lat="43.04227167" lon="-1.21689333">
        <ele>998.0</ele>
        <time>2019-08-01T07:15:20.040Z</time>
      </trkpt>
      <trkpt lat="43.04227167" lon="-1.21689333">
        <ele>998.0</ele>
        <time>2019-08-01T07:15:20.920Z</time>
      </trkpt>
      <trkpt lat="43.04226333" lon="-1.21691167">
        <ele>998.0</ele>
        <time>2019-08-01T07:15:21.925Z</time>
      </trkpt>
      <trkpt lat="43.04225333" lon="-1.21693">
        <ele>998.0</ele>
        <time>2019-08-01T07:15:22.928Z</time>
      </trkpt>
      <trkpt lat="43.04224333" lon="-1.216945">
        <ele>998.0</ele>
        <time>2019-08-01T07:15:23.933Z</time>
      </trkpt>
      <trkpt lat="43.04223167" lon="-1.21696">
        <ele>998.0</ele>
        <time>2019-08-01T07:15:24.939Z</time>
      </trkpt>
      <trkpt lat="43.04222333" lon="-1.216975">
        <ele>998.0</ele>
        <time>2019-08-01T07:15:25.945Z</time>
      </trkpt>
      <trkpt lat="43.04221333" lon="-1.21699">
        <ele>999.0</ele>
        <time>2019-08-01T07:15:26.951Z</time>
      </trkpt>
      <trkpt lat="43.042195" lon="-1.21702667">
        <ele>998.0</ele>
        <time>2019-08-01T07:15:27.958Z</time>
      </trkpt>
      <trkpt lat="43.04218333" lon="-1.21704167">
        <ele>998.0</ele>
        <time>2019-08-01T07:15:28.962Z</time>
      </trkpt>
      <trkpt lat="43.04217167" lon="-1.217055">
        <ele>998.0</ele>
        <time>2019-08-01T07:15:29.967Z</time>
      </trkpt>
      <trkpt lat="43.04216" lon="-1.21706667">
        <ele>997.0</ele>
        <time>2019-08-01T07:15:30.971Z</time>
      </trkpt>
      <trkpt lat="43.04214667" lon="-1.21707833">
        <ele>998.0</ele>
        <time>2019-08-01T07:15:31.976Z</time>
      </trkpt>
      <trkpt lat="43.04213333" lon="-1.21709167">
        <ele>998.0</ele>
        <time>2019-08-01T07:15:32.982Z</time>
      </trkpt>
      <trkpt lat="43.04211833" lon="-1.21710333">
        <ele>998.0</ele>
        <time>2019-08-01T07:15:33.988Z</time>
      </trkpt>
      <trkpt lat="43.04210667" lon="-1.21711667">
        <ele>998.0</ele>
        <time>2019-08-01T07:15:34.993Z</time>
      </trkpt>
      <trkpt lat="43.04209833" lon="-1.21713167">
        <ele>998.0</ele>
        <time>2019-08-01T07:15:35.997Z</time>
      </trkpt>
      <trkpt lat="43.04208833" lon="-1.21714833">
        <ele>998.0</ele>
        <time>2019-08-01T07:15:37.005Z</time>
      </trkpt>
      <trkpt lat="43.04207833" lon="-1.21716333">
        <ele>999.0</ele>
        <time>2019-08-01T07:15:38.011Z</time>
      </trkpt>
      <trkpt lat="43.04206667" lon="-1.21718">
        <ele>999.0</ele>
        <time>2019-08-01T07:15:39.017Z</time>
      </trkpt>
      <trkpt lat="43.04205667" lon="-1.217195">
        <ele>999.0</ele>
        <time>2019-08-01T07:15:40.024Z</time>
      </trkpt>
      <trkpt lat="43.042045" lon="-1.21720667">
        <ele>999.0</ele>
        <time>2019-08-01T07:15:41.029Z</time>
      </trkpt>
      <trkpt lat="43.04203333" lon="-1.21721667">
        <ele>999.0</ele>
        <time>2019-08-01T07:15:42.031Z</time>
      </trkpt>
      <trkpt lat="43.04202167" lon="-1.21723167">
        <ele>1000.0</ele>
        <time>2019-08-01T07:15:43.037Z</time>
      </trkpt>
      <trkpt lat="43.04202167" lon="-1.21723167">
        <ele>1000.0</ele>
        <time>2019-08-01T07:15:43.918Z</time>
      </trkpt>
      <trkpt lat="43.04201" lon="-1.21724333">
        <ele>1000.0</ele>
        <time>2019-08-01T07:15:44.924Z</time>
      </trkpt>
      <trkpt lat="43.04200167" lon="-1.21725667">
        <ele>1001.0</ele>
        <time>2019-08-01T07:15:45.930Z</time>
      </trkpt>
      <trkpt lat="43.04199333" lon="-1.21727333">
        <ele>1001.0</ele>
        <time>2019-08-01T07:15:46.935Z</time>
      </trkpt>
      <trkpt lat="43.04198333" lon="-1.21728833">
        <ele>1002.0</ele>
        <time>2019-08-01T07:15:47.942Z</time>
      </trkpt>
      <trkpt lat="43.04197" lon="-1.2173">
        <ele>1002.0</ele>
        <time>2019-08-01T07:15:48.948Z</time>
      </trkpt>
      <trkpt lat="43.04195833" lon="-1.21731333">
        <ele>1003.0</ele>
        <time>2019-08-01T07:15:49.953Z</time>
      </trkpt>
      <trkpt lat="43.04193667" lon="-1.21734">
        <ele>1004.0</ele>
        <time>2019-08-01T07:15:50.957Z</time>
      </trkpt>
      <trkpt lat="43.04193167" lon="-1.21735833">
        <ele>1004.0</ele>
        <time>2019-08-01T07:15:51.962Z</time>
      </trkpt>
      <trkpt lat="43.04192833" lon="-1.21737833">
        <ele>1004.0</ele>
        <time>2019-08-01T07:15:52.969Z</time>
      </trkpt>
      <trkpt lat="43.04192333" lon="-1.21740167">
        <ele>1004.0</ele>
        <time>2019-08-01T07:15:53.976Z</time>
      </trkpt>
      <trkpt lat="43.04192" lon="-1.21742167">
        <ele>1004.0</ele>
        <time>2019-08-01T07:15:54.982Z</time>
      </trkpt>
      <trkpt lat="43.04192" lon="-1.21743833">
        <ele>1005.0</ele>
        <time>2019-08-01T07:15:55.989Z</time>
      </trkpt>
      <trkpt lat="43.041925" lon="-1.217455">
        <ele>1004.0</ele>
        <time>2019-08-01T07:15:56.996Z</time>
      </trkpt>
      <trkpt lat="43.04193167" lon="-1.21747167">
        <ele>1004.0</ele>
        <time>2019-08-01T07:15:57.999Z</time>
      </trkpt>
      <trkpt lat="43.04193833" lon="-1.21749167">
        <ele>1004.0</ele>
        <time>2019-08-01T07:15:59.003Z</time>
      </trkpt>
      <trkpt lat="43.04194" lon="-1.21751167">
        <ele>1005.0</ele>
        <time>2019-08-01T07:16:00.010Z</time>
      </trkpt>
      <trkpt lat="43.04194167" lon="-1.21753167">
        <ele>1005.0</ele>
        <time>2019-08-01T07:16:01.015Z</time>
      </trkpt>
      <trkpt lat="43.04193833" lon="-1.217545">
        <ele>1006.0</ele>
        <time>2019-08-01T07:16:02.023Z</time>
      </trkpt>
      <trkpt lat="43.04193667" lon="-1.21756167">
        <ele>1006.0</ele>
        <time>2019-08-01T07:16:03.028Z</time>
      </trkpt>
      <trkpt lat="43.04193333" lon="-1.21757667">
        <ele>1006.0</ele>
        <time>2019-08-01T07:16:04.033Z</time>
      </trkpt>
      <trkpt lat="43.04193333" lon="-1.21759167">
        <ele>1006.0</ele>
        <time>2019-08-01T07:16:05.040Z</time>
      </trkpt>
      <trkpt lat="43.04193333" lon="-1.21759167">
        <ele>1006.0</ele>
        <time>2019-08-01T07:16:05.920Z</time>
      </trkpt>
      <trkpt lat="43.04193333" lon="-1.21760667">
        <ele>1006.0</ele>
        <time>2019-08-01T07:16:06.927Z</time>
      </trkpt>
      <trkpt lat="43.04193667" lon="-1.21762167">
        <ele>1006.0</ele>
        <time>2019-08-01T07:16:07.931Z</time>
      </trkpt>
      <trkpt lat="43.04193667" lon="-1.21763333">
        <ele>1006.0</ele>
        <time>2019-08-01T07:16:08.935Z</time>
      </trkpt>
      <trkpt lat="43.041935" lon="-1.21764667">
        <ele>1006.0</ele>
        <time>2019-08-01T07:16:09.941Z</time>
      </trkpt>
      <trkpt lat="43.04192833" lon="-1.21766">
        <ele>1006.0</ele>
        <time>2019-08-01T07:16:10.946Z</time>
      </trkpt>
      <trkpt lat="43.04192667" lon="-1.21767833">
        <ele>1006.0</ele>
        <time>2019-08-01T07:16:11.953Z</time>
      </trkpt>
      <trkpt lat="43.041915" lon="-1.217715">
        <ele>1005.0</ele>
        <time>2019-08-01T07:16:12.959Z</time>
      </trkpt>
      <trkpt lat="43.04191333" lon="-1.21772667">
        <ele>1005.0</ele>
        <time>2019-08-01T07:16:13.967Z</time>
      </trkpt>
      <trkpt lat="43.04191333" lon="-1.21774333">
        <ele>1005.0</ele>
        <time>2019-08-01T07:16:14.973Z</time>
      </trkpt>
      <trkpt lat="43.04191667" lon="-1.21776">
        <ele>1005.0</ele>
        <time>2019-08-01T07:16:15.978Z</time>
      </trkpt>
      <trkpt lat="43.04191667" lon="-1.21777833">
        <ele>1004.0</ele>
        <time>2019-08-01T07:16:16.984Z</time>
      </trkpt>
      <trkpt lat="43.04191833" lon="-1.21779833">
        <ele>1004.0</ele>
        <time>2019-08-01T07:16:17.990Z</time>
      </trkpt>
      <trkpt lat="43.04191833" lon="-1.21781667">
        <ele>1004.0</ele>
        <time>2019-08-01T07:16:18.997Z</time>
      </trkpt>
      <trkpt lat="43.04192" lon="-1.21783667">
        <ele>1004.0</ele>
        <time>2019-08-01T07:16:20.003Z</time>
      </trkpt>
      <trkpt lat="43.04191833" lon="-1.21785167">
        <ele>1004.0</ele>
        <time>2019-08-01T07:16:21.009Z</time>
      </trkpt>
      <trkpt lat="43.04191667" lon="-1.21786667">
        <ele>1003.0</ele>
        <time>2019-08-01T07:16:22.013Z</time>
      </trkpt>
      <trkpt lat="43.041905" lon="-1.217885">
        <ele>1003.0</ele>
        <time>2019-08-01T07:16:23.019Z</time>
      </trkpt>
      <trkpt lat="43.04189333" lon="-1.21790167">
        <ele>1002.0</ele>
        <time>2019-08-01T07:16:24.026Z</time>
      </trkpt>
      <trkpt lat="43.04188833" lon="-1.21791833">
        <ele>1001.0</ele>
        <time>2019-08-01T07:16:25.030Z</time>
      </trkpt>
      <trkpt lat="43.041885" lon="-1.21793667">
        <ele>1000.0</ele>
        <time>2019-08-01T07:16:26.036Z</time>
      </trkpt>
      <trkpt lat="43.04188333" lon="-1.21795">
        <ele>1000.0</ele>
        <time>2019-08-01T07:16:27.043Z</time>
      </trkpt>
      <trkpt lat="43.04188333" lon="-1.21795">
        <ele>1000.0</ele>
        <time>2019-08-01T07:16:27.924Z</time>
      </trkpt>
      <trkpt lat="43.04188167" lon="-1.217965">
        <ele>999.0</ele>
        <time>2019-08-01T07:16:28.930Z</time>
      </trkpt>
      <trkpt lat="43.04187833" lon="-1.21798167">
        <ele>999.0</ele>
        <time>2019-08-01T07:16:29.936Z</time>
      </trkpt>
      <trkpt lat="43.04187667" lon="-1.21799833">
        <ele>999.0</ele>
        <time>2019-08-01T07:16:30.943Z</time>
      </trkpt>
      <trkpt lat="43.04187333" lon="-1.218015">
        <ele>999.0</ele>
        <time>2019-08-01T07:16:31.949Z</time>
      </trkpt>
      <trkpt lat="43.04186833" lon="-1.21803167">
        <ele>999.0</ele>
        <time>2019-08-01T07:16:32.955Z</time>
      </trkpt>
      <trkpt lat="43.04185333" lon="-1.21805833">
        <ele>1001.0</ele>
        <time>2019-08-01T07:16:33.960Z</time>
      </trkpt>
      <trkpt lat="43.04184667" lon="-1.21807833">
        <ele>1001.0</ele>
        <time>2019-08-01T07:16:34.966Z</time>
      </trkpt>
      <trkpt lat="43.04183667" lon="-1.21810167">
        <ele>1002.0</ele>
        <time>2019-08-01T07:16:35.971Z</time>
      </trkpt>
      <trkpt lat="43.04182667" lon="-1.21812333">
        <ele>1001.0</ele>
        <time>2019-08-01T07:16:36.978Z</time>
      </trkpt>
      <trkpt lat="43.04181167" lon="-1.21814">
        <ele>1001.0</ele>
        <time>2019-08-01T07:16:37.981Z</time>
      </trkpt>
      <trkpt lat="43.04179667" lon="-1.218155">
        <ele>1001.0</ele>
        <time>2019-08-01T07:16:38.984Z</time>
      </trkpt>
      <trkpt lat="43.04178" lon="-1.21816833">
        <ele>1001.0</ele>
        <time>2019-08-01T07:16:39.990Z</time>
      </trkpt>
      <trkpt lat="43.04176667" lon="-1.21817833">
        <ele>1001.0</ele>
        <time>2019-08-01T07:16:40.995Z</time>
      </trkpt>
      <trkpt lat="43.04175333" lon="-1.218185">
        <ele>1001.0</ele>
        <time>2019-08-01T07:16:42.000Z</time>
      </trkpt>
      <trkpt lat="43.04174167" lon="-1.21819">
        <ele>1001.0</ele>
        <time>2019-08-01T07:16:43.006Z</time>
      </trkpt>
      <trkpt lat="43.04172667" lon="-1.21819">
        <ele>1000.0</ele>
        <time>2019-08-01T07:16:44.008Z</time>
      </trkpt>
      <trkpt lat="43.04170667" lon="-1.21819333">
        <ele>1001.0</ele>
        <time>2019-08-01T07:16:45.012Z</time>
      </trkpt>
      <trkpt lat="43.04168833" lon="-1.21819333">
        <ele>1001.0</ele>
        <time>2019-08-01T07:16:46.019Z</time>
      </trkpt>
      <trkpt lat="43.04167" lon="-1.21819167">
        <ele>1002.0</ele>
        <time>2019-08-01T07:16:47.024Z</time>
      </trkpt>
      <trkpt lat="43.041655" lon="-1.21818667">
        <ele>1002.0</ele>
        <time>2019-08-01T07:16:48.030Z</time>
      </trkpt>
      <trkpt lat="43.04164" lon="-1.21818167">
        <ele>1003.0</ele>
        <time>2019-08-01T07:16:49.037Z</time>
      </trkpt>
      <trkpt lat="43.04164" lon="-1.21818167">
        <ele>1003.0</ele>
        <time>2019-08-01T07:16:49.919Z</time>
      </trkpt>
      <trkpt lat="43.04162667" lon="-1.21818167">
        <ele>1003.0</ele>
        <time>2019-08-01T07:16:50.926Z</time>
      </trkpt>
      <trkpt lat="43.041615" lon="-1.21818667">
        <ele>1002.0</ele>
        <time>2019-08-01T07:16:51.931Z</time>
      </trkpt>
      <trkpt lat="43.04161" lon="-1.21819833">
        <ele>1001.0</ele>
        <time>2019-08-01T07:16:52.935Z</time>
      </trkpt>
      <trkpt lat="43.0416" lon="-1.2182">
        <ele>1000.0</ele>
        <time>2019-08-01T07:16:53.941Z</time>
      </trkpt>
      <trkpt lat="43.04158667" lon="-1.218205">
        <ele>1000.0</ele>
        <time>2019-08-01T07:16:54.947Z</time>
      </trkpt>
      <trkpt lat="43.04156833" lon="-1.21820833">
        <ele>1001.0</ele>
        <time>2019-08-01T07:16:55.952Z</time>
      </trkpt>
      <trkpt lat="43.04155167" lon="-1.21820833">
        <ele>1001.0</ele>
        <time>2019-08-01T07:16:56.957Z</time>
      </trkpt>
      <trkpt lat="43.04152167" lon="-1.21821167">
        <ele>1000.0</ele>
        <time>2019-08-01T07:16:57.963Z</time>
      </trkpt>
      <trkpt lat="43.04150833" lon="-1.21821333">
        <ele>999.0</ele>
        <time>2019-08-01T07:16:58.969Z</time>
      </trkpt>
      <trkpt lat="43.04149833" lon="-1.21821833">
        <ele>999.0</ele>
        <time>2019-08-01T07:16:59.974Z</time>
      </trkpt>
      <trkpt lat="43.04148833" lon="-1.218225">
        <ele>1000.0</ele>
        <time>2019-08-01T07:17:00.980Z</time>
      </trkpt>
      <trkpt lat="43.04147667" lon="-1.218235">
        <ele>1000.0</ele>
        <time>2019-08-01T07:17:01.985Z</time>
      </trkpt>
      <trkpt lat="43.04146667" lon="-1.21824333">
        <ele>1000.0</ele>
        <time>2019-08-01T07:17:02.990Z</time>
      </trkpt>
      <trkpt lat="43.041455" lon="-1.21825333">
        <ele>1001.0</ele>
        <time>2019-08-01T07:17:03.994Z</time>
      </trkpt>
      <trkpt lat="43.04144167" lon="-1.21826">
        <ele>1001.0</ele>
        <time>2019-08-01T07:17:05.000Z</time>
      </trkpt>
      <trkpt lat="43.04143167" lon="-1.218265">
        <ele>1001.0</ele>
        <time>2019-08-01T07:17:06.006Z</time>
      </trkpt>
      <trkpt lat="43.04142" lon="-1.21827">
        <ele>1000.0</ele>
        <time>2019-08-01T07:17:07.011Z</time>
      </trkpt>
      <trkpt lat="43.04141167" lon="-1.21827167">
        <ele>1000.0</ele>
        <time>2019-08-01T07:17:08.019Z</time>
      </trkpt>
      <trkpt lat="43.04140167" lon="-1.21827333">
        <ele>999.0</ele>
        <time>2019-08-01T07:17:09.025Z</time>
      </trkpt>
      <trkpt lat="43.04139" lon="-1.21827833">
        <ele>998.0</ele>
        <time>2019-08-01T07:17:10.030Z</time>
      </trkpt>
      <trkpt lat="43.04137833" lon="-1.21828167">
        <ele>998.0</ele>
        <time>2019-08-01T07:17:11.032Z</time>
      </trkpt>
      <trkpt lat="43.04136667" lon="-1.21829">
        <ele>998.0</ele>
        <time>2019-08-01T07:17:12.038Z</time>
      </trkpt>
      <trkpt lat="43.04136667" lon="-1.21829">
        <ele>998.0</ele>
        <time>2019-08-01T07:17:12.918Z</time>
      </trkpt>
      <trkpt lat="43.04135667" lon="-1.218295">
        <ele>998.0</ele>
        <time>2019-08-01T07:17:13.923Z</time>
      </trkpt>
      <trkpt lat="43.041345" lon="-1.2183">
        <ele>998.0</ele>
        <time>2019-08-01T07:17:14.929Z</time>
      </trkpt>
      <trkpt lat="43.04133333" lon="-1.21830833">
        <ele>998.0</ele>
        <time>2019-08-01T07:17:15.935Z</time>
      </trkpt>
      <trkpt lat="43.04132167" lon="-1.218315">
        <ele>997.0</ele>
        <time>2019-08-01T07:17:16.939Z</time>
      </trkpt>
      <trkpt lat="43.04131" lon="-1.21832">
        <ele>997.0</ele>
        <time>2019-08-01T07:17:17.945Z</time>
      </trkpt>
      <trkpt lat="43.04129833" lon="-1.21832667">
        <ele>996.0</ele>
        <time>2019-08-01T07:17:18.951Z</time>
      </trkpt>
      <trkpt lat="43.04127" lon="-1.21833833">
        <ele>995.0</ele>
        <time>2019-08-01T07:17:19.958Z</time>
      </trkpt>
      <trkpt lat="43.04125333" lon="-1.21834333">
        <ele>995.0</ele>
        <time>2019-08-01T07:17:20.964Z</time>
      </trkpt>
      <trkpt lat="43.04123833" lon="-1.218345">
        <ele>995.0</ele>
        <time>2019-08-01T07:17:21.969Z</time>
      </trkpt>
      <trkpt lat="43.04121833" lon="-1.21835">
        <ele>995.0</ele>
        <time>2019-08-01T07:17:22.973Z</time>
      </trkpt>
      <trkpt lat="43.04120333" lon="-1.21835333">
        <ele>995.0</ele>
        <time>2019-08-01T07:17:23.980Z</time>
      </trkpt>
      <trkpt lat="43.041185" lon="-1.21836167">
        <ele>994.0</ele>
        <time>2019-08-01T07:17:24.987Z</time>
      </trkpt>
      <trkpt lat="43.04117167" lon="-1.21836833">
        <ele>994.0</ele>
        <time>2019-08-01T07:17:25.992Z</time>
      </trkpt>
      <trkpt lat="43.04116167" lon="-1.218375">
        <ele>994.0</ele>
        <time>2019-08-01T07:17:26.997Z</time>
      </trkpt>
      <trkpt lat="43.04115167" lon="-1.21838833">
        <ele>994.0</ele>
        <time>2019-08-01T07:17:28.004Z</time>
      </trkpt>
      <trkpt lat="43.04114167" lon="-1.21839833">
        <ele>994.0</ele>
        <time>2019-08-01T07:17:29.009Z</time>
      </trkpt>
      <trkpt lat="43.04112833" lon="-1.21841">
        <ele>994.0</ele>
        <time>2019-08-01T07:17:30.012Z</time>
      </trkpt>
      <trkpt lat="43.04111667" lon="-1.21842">
        <ele>994.0</ele>
        <time>2019-08-01T07:17:31.018Z</time>
      </trkpt>
      <trkpt lat="43.041105" lon="-1.21843167">
        <ele>994.0</ele>
        <time>2019-08-01T07:17:32.026Z</time>
      </trkpt>
      <trkpt lat="43.041095" lon="-1.21845">
        <ele>995.0</ele>
        <time>2019-08-01T07:17:33.029Z</time>
      </trkpt>
      <trkpt lat="43.04108333" lon="-1.21846333">
        <ele>995.0</ele>
        <time>2019-08-01T07:17:34.036Z</time>
      </trkpt>
      <trkpt lat="43.04107" lon="-1.21847667">
        <ele>995.0</ele>
        <time>2019-08-01T07:17:35.042Z</time>
      </trkpt>
      <trkpt lat="43.04107" lon="-1.21847667">
        <ele>995.0</ele>
        <time>2019-08-01T07:17:35.922Z</time>
      </trkpt>
      <trkpt lat="43.041055" lon="-1.21848667">
        <ele>995.0</ele>
        <time>2019-08-01T07:17:36.927Z</time>
      </trkpt>
      <trkpt lat="43.04104167" lon="-1.21849833">
        <ele>995.0</ele>
        <time>2019-08-01T07:17:37.933Z</time>
      </trkpt>
      <trkpt lat="43.041025" lon="-1.21850667">
        <ele>995.0</ele>
        <time>2019-08-01T07:17:38.939Z</time>
      </trkpt>
      <trkpt lat="43.04101" lon="-1.21851667">
        <ele>996.0</ele>
        <time>2019-08-01T07:17:39.945Z</time>
      </trkpt>
      <trkpt lat="43.040975" lon="-1.21854">
        <ele>996.0</ele>
        <time>2019-08-01T07:17:40.951Z</time>
      </trkpt>
      <trkpt lat="43.04096167" lon="-1.21854667">
        <ele>996.0</ele>
        <time>2019-08-01T07:17:41.955Z</time>
      </trkpt>
      <trkpt lat="43.04095" lon="-1.21855333">
        <ele>996.0</ele>
        <time>2019-08-01T07:17:42.961Z</time>
      </trkpt>
      <trkpt lat="43.040935" lon="-1.21856333">
        <ele>996.0</ele>
        <time>2019-08-01T07:17:43.967Z</time>
      </trkpt>
      <trkpt lat="43.040925" lon="-1.21857167">
        <ele>995.0</ele>
        <time>2019-08-01T07:17:44.972Z</time>
      </trkpt>
      <trkpt lat="43.040915" lon="-1.21858333">
        <ele>995.0</ele>
        <time>2019-08-01T07:17:45.977Z</time>
      </trkpt>
      <trkpt lat="43.04090167" lon="-1.21859333">
        <ele>995.0</ele>
        <time>2019-08-01T07:17:46.985Z</time>
      </trkpt>
      <trkpt lat="43.04089" lon="-1.21859833">
        <ele>994.0</ele>
        <time>2019-08-01T07:17:47.987Z</time>
      </trkpt>
      <trkpt lat="43.040875" lon="-1.218605">
        <ele>994.0</ele>
        <time>2019-08-01T07:17:48.994Z</time>
      </trkpt>
      <trkpt lat="43.04086" lon="-1.21861">
        <ele>994.0</ele>
        <time>2019-08-01T07:17:50.002Z</time>
      </trkpt>
      <trkpt lat="43.04084667" lon="-1.21861333">
        <ele>994.0</ele>
        <time>2019-08-01T07:17:51.008Z</time>
      </trkpt>
      <trkpt lat="43.04083167" lon="-1.21862167">
        <ele>995.0</ele>
        <time>2019-08-01T07:17:52.014Z</time>
      </trkpt>
      <trkpt lat="43.040815" lon="-1.21862667">
        <ele>996.0</ele>
        <time>2019-08-01T07:17:53.019Z</time>
      </trkpt>
      <trkpt lat="43.04079667" lon="-1.21863">
        <ele>996.0</ele>
        <time>2019-08-01T07:17:54.026Z</time>
      </trkpt>
      <trkpt lat="43.04078" lon="-1.21863167">
        <ele>997.0</ele>
        <time>2019-08-01T07:17:55.032Z</time>
      </trkpt>
      <trkpt lat="43.04076333" lon="-1.21864">
        <ele>998.0</ele>
        <time>2019-08-01T07:17:56.034Z</time>
      </trkpt>
      <trkpt lat="43.04074333" lon="-1.21865167">
        <ele>999.0</ele>
        <time>2019-08-01T07:17:57.039Z</time>
      </trkpt>
      <trkpt lat="43.04072833" lon="-1.21866167">
        <ele>998.0</ele>
        <time>2019-08-01T07:17:58.043Z</time>
      </trkpt>
      <trkpt lat="43.04072833" lon="-1.21866167">
        <ele>998.0</ele>
        <time>2019-08-01T07:17:58.922Z</time>
      </trkpt>
      <trkpt lat="43.040715" lon="-1.218675">
        <ele>998.0</ele>
        <time>2019-08-01T07:17:59.928Z</time>
      </trkpt>
      <trkpt lat="43.04069833" lon="-1.21868333">
        <ele>998.0</ele>
        <time>2019-08-01T07:18:00.932Z</time>
      </trkpt>
      <trkpt lat="43.04068667" lon="-1.21868667">
        <ele>999.0</ele>
        <time>2019-08-01T07:18:01.934Z</time>
      </trkpt>
      <trkpt lat="43.04067" lon="-1.21869667">
        <ele>999.0</ele>
        <time>2019-08-01T07:18:02.941Z</time>
      </trkpt>
      <trkpt lat="43.04065667" lon="-1.21870333">
        <ele>1000.0</ele>
        <time>2019-08-01T07:18:03.948Z</time>
      </trkpt>
      <trkpt lat="43.04064333" lon="-1.21871">
        <ele>1001.0</ele>
        <time>2019-08-01T07:18:04.952Z</time>
      </trkpt>
      <trkpt lat="43.04063167" lon="-1.21871667">
        <ele>1002.0</ele>
        <time>2019-08-01T07:18:05.955Z</time>
      </trkpt>
      <trkpt lat="43.04060333" lon="-1.21875167">
        <ele>1001.0</ele>
        <time>2019-08-01T07:18:06.961Z</time>
      </trkpt>
      <trkpt lat="43.04059667" lon="-1.218765">
        <ele>1001.0</ele>
        <time>2019-08-01T07:18:07.966Z</time>
      </trkpt>
      <trkpt lat="43.04058333" lon="-1.21878">
        <ele>1001.0</ele>
        <time>2019-08-01T07:18:08.969Z</time>
      </trkpt>
      <trkpt lat="43.04057333" lon="-1.21878833">
        <ele>1001.0</ele>
        <time>2019-08-01T07:18:09.974Z</time>
      </trkpt>
      <trkpt lat="43.04056" lon="-1.21880167">
        <ele>1002.0</ele>
        <time>2019-08-01T07:18:10.982Z</time>
      </trkpt>
      <trkpt lat="43.04054667" lon="-1.21881">
        <ele>1002.0</ele>
        <time>2019-08-01T07:18:11.989Z</time>
      </trkpt>
      <trkpt lat="43.04053333" lon="-1.21882167">
        <ele>1002.0</ele>
        <time>2019-08-01T07:18:12.996Z</time>
      </trkpt>
      <trkpt lat="43.04052" lon="-1.21883167">
        <ele>1003.0</ele>
        <time>2019-08-01T07:18:14.004Z</time>
      </trkpt>
      <trkpt lat="43.04051" lon="-1.21884">
        <ele>1003.0</ele>
        <time>2019-08-01T07:18:15.008Z</time>
      </trkpt>
      <trkpt lat="43.04049667" lon="-1.21885167">
        <ele>1004.0</ele>
        <time>2019-08-01T07:18:16.014Z</time>
      </trkpt>
      <trkpt lat="43.04048167" lon="-1.21886667">
        <ele>1004.0</ele>
        <time>2019-08-01T07:18:17.019Z</time>
      </trkpt>
      <trkpt lat="43.04047" lon="-1.21887833">
        <ele>1005.0</ele>
        <time>2019-08-01T07:18:18.026Z</time>
      </trkpt>
      <trkpt lat="43.04045833" lon="-1.21889167">
        <ele>1005.0</ele>
        <time>2019-08-01T07:18:19.031Z</time>
      </trkpt>
      <trkpt lat="43.04044833" lon="-1.21890333">
        <ele>1005.0</ele>
        <time>2019-08-01T07:18:20.037Z</time>
      </trkpt>
      <trkpt lat="43.04044833" lon="-1.21890333">
        <ele>1005.0</ele>
        <time>2019-08-01T07:18:20.919Z</time>
      </trkpt>
      <trkpt lat="43.04043667" lon="-1.21891667">
        <ele>1005.0</ele>
        <time>2019-08-01T07:18:21.924Z</time>
      </trkpt>
      <trkpt lat="43.04042333" lon="-1.21892833">
        <ele>1005.0</ele>
        <time>2019-08-01T07:18:22.928Z</time>
      </trkpt>
      <trkpt lat="43.04041167" lon="-1.21893667">
        <ele>1005.0</ele>
        <time>2019-08-01T07:18:23.935Z</time>
      </trkpt>
      <trkpt lat="43.0404" lon="-1.218945">
        <ele>1005.0</ele>
        <time>2019-08-01T07:18:24.941Z</time>
      </trkpt>
      <trkpt lat="43.04038833" lon="-1.21895167">
        <ele>1006.0</ele>
        <time>2019-08-01T07:18:25.945Z</time>
      </trkpt>
      <trkpt lat="43.04037167" lon="-1.21896167">
        <ele>1006.0</ele>
        <time>2019-08-01T07:18:26.950Z</time>
      </trkpt>
      <trkpt lat="43.04035167" lon="-1.21897667">
        <ele>1006.0</ele>
        <time>2019-08-01T07:18:27.957Z</time>
      </trkpt>
      <trkpt lat="43.04033833" lon="-1.21898167">
        <ele>1006.0</ele>
        <time>2019-08-01T07:18:28.963Z</time>
      </trkpt>
      <trkpt lat="43.04032333" lon="-1.21898833">
        <ele>1007.0</ele>
        <time>2019-08-01T07:18:29.968Z</time>
      </trkpt>
      <trkpt lat="43.04031" lon="-1.21899">
        <ele>1007.0</ele>
        <time>2019-08-01T07:18:30.971Z</time>
      </trkpt>
      <trkpt lat="43.040295" lon="-1.21899333">
        <ele>1008.0</ele>
        <time>2019-08-01T07:18:31.976Z</time>
      </trkpt>
      <trkpt lat="43.04028167" lon="-1.21899667">
        <ele>1008.0</ele>
        <time>2019-08-01T07:18:32.983Z</time>
      </trkpt>
      <trkpt lat="43.04026833" lon="-1.218995">
        <ele>1009.0</ele>
        <time>2019-08-01T07:18:33.991Z</time>
      </trkpt>
      <trkpt lat="43.04025333" lon="-1.21900333">
        <ele>1009.0</ele>
        <time>2019-08-01T07:18:34.998Z</time>
      </trkpt>
      <trkpt lat="43.04024333" lon="-1.21901167">
        <ele>1008.0</ele>
        <time>2019-08-01T07:18:36.004Z</time>
      </trkpt>
      <trkpt lat="43.04023" lon="-1.21901833">
        <ele>1008.0</ele>
        <time>2019-08-01T07:18:37.010Z</time>
      </trkpt>
      <trkpt lat="43.04021333" lon="-1.21902333">
        <ele>1009.0</ele>
        <time>2019-08-01T07:18:38.016Z</time>
      </trkpt>
      <trkpt lat="43.040205" lon="-1.21902667">
        <ele>1009.0</ele>
        <time>2019-08-01T07:18:39.022Z</time>
      </trkpt>
      <trkpt lat="43.04018833" lon="-1.21903">
        <ele>1009.0</ele>
        <time>2019-08-01T07:18:40.029Z</time>
      </trkpt>
      <trkpt lat="43.04017667" lon="-1.21903167">
        <ele>1009.0</ele>
        <time>2019-08-01T07:18:41.036Z</time>
      </trkpt>
      <trkpt lat="43.04016833" lon="-1.21903167">
        <ele>1009.0</ele>
        <time>2019-08-01T07:18:42.041Z</time>
      </trkpt>
      <trkpt lat="43.04016833" lon="-1.21903167">
        <ele>1009.0</ele>
        <time>2019-08-01T07:18:42.919Z</time>
      </trkpt>
      <trkpt lat="43.04016" lon="-1.21903667">
        <ele>1009.0</ele>
        <time>2019-08-01T07:18:43.923Z</time>
      </trkpt>
      <trkpt lat="43.04014333" lon="-1.21904167">
        <ele>1009.0</ele>
        <time>2019-08-01T07:18:44.928Z</time>
      </trkpt>
      <trkpt lat="43.04012833" lon="-1.219045">
        <ele>1010.0</ele>
        <time>2019-08-01T07:18:45.932Z</time>
      </trkpt>
      <trkpt lat="43.04011333" lon="-1.21904667">
        <ele>1010.0</ele>
        <time>2019-08-01T07:18:46.937Z</time>
      </trkpt>
      <trkpt lat="43.04009667" lon="-1.21904833">
        <ele>1011.0</ele>
        <time>2019-08-01T07:18:47.944Z</time>
      </trkpt>
      <trkpt lat="43.040085" lon="-1.21904833">
        <ele>1012.0</ele>
        <time>2019-08-01T07:18:48.950Z</time>
      </trkpt>
      <trkpt lat="43.04005167" lon="-1.21905">
        <ele>1013.0</ele>
        <time>2019-08-01T07:18:49.956Z</time>
      </trkpt>
      <trkpt lat="43.04003833" lon="-1.21905167">
        <ele>1014.0</ele>
        <time>2019-08-01T07:18:50.962Z</time>
      </trkpt>
      <trkpt lat="43.04002667" lon="-1.21905">
        <ele>1014.0</ele>
        <time>2019-08-01T07:18:51.968Z</time>
      </trkpt>
      <trkpt lat="43.04001" lon="-1.21905333">
        <ele>1015.0</ele>
        <time>2019-08-01T07:18:52.972Z</time>
      </trkpt>
      <trkpt lat="43.03999667" lon="-1.219055">
        <ele>1014.0</ele>
        <time>2019-08-01T07:18:53.979Z</time>
      </trkpt>
      <trkpt lat="43.03998167" lon="-1.21905833">
        <ele>1014.0</ele>
        <time>2019-08-01T07:18:54.985Z</time>
      </trkpt>
      <trkpt lat="43.03996667" lon="-1.21906">
        <ele>1014.0</ele>
        <time>2019-08-01T07:18:55.992Z</time>
      </trkpt>
      <trkpt lat="43.039955" lon="-1.21906">
        <ele>1013.0</ele>
        <time>2019-08-01T07:18:56.997Z</time>
      </trkpt>
      <trkpt lat="43.03994" lon="-1.21906167">
        <ele>1013.0</ele>
        <time>2019-08-01T07:18:58.001Z</time>
      </trkpt>
      <trkpt lat="43.039925" lon="-1.21906333">
        <ele>1013.0</ele>
        <time>2019-08-01T07:18:59.008Z</time>
      </trkpt>
      <trkpt lat="43.03991167" lon="-1.21906833">
        <ele>1013.0</ele>
        <time>2019-08-01T07:19:00.013Z</time>
      </trkpt>
      <trkpt lat="43.03989833" lon="-1.21907">
        <ele>1013.0</ele>
        <time>2019-08-01T07:19:01.019Z</time>
      </trkpt>
      <trkpt lat="43.03988333" lon="-1.21907">
        <ele>1014.0</ele>
        <time>2019-08-01T07:19:02.026Z</time>
      </trkpt>
      <trkpt lat="43.03986833" lon="-1.21906833">
        <ele>1014.0</ele>
        <time>2019-08-01T07:19:03.033Z</time>
      </trkpt>
      <trkpt lat="43.03985167" lon="-1.21906667">
        <ele>1014.0</ele>
        <time>2019-08-01T07:19:04.038Z</time>
      </trkpt>
      <trkpt lat="43.03985167" lon="-1.21906667">
        <ele>1014.0</ele>
        <time>2019-08-01T07:19:04.920Z</time>
      </trkpt>
      <trkpt lat="43.03983667" lon="-1.21906667">
        <ele>1015.0</ele>
        <time>2019-08-01T07:19:05.928Z</time>
      </trkpt>
      <trkpt lat="43.03982167" lon="-1.21906333">
        <ele>1015.0</ele>
        <time>2019-08-01T07:19:06.933Z</time>
      </trkpt>
      <trkpt lat="43.03981" lon="-1.21906167">
        <ele>1015.0</ele>
        <time>2019-08-01T07:19:07.938Z</time>
      </trkpt>
      <trkpt lat="43.03980167" lon="-1.21906">
        <ele>1015.0</ele>
        <time>2019-08-01T07:19:08.941Z</time>
      </trkpt>
      <trkpt lat="43.03978833" lon="-1.21905833">
        <ele>1015.0</ele>
        <time>2019-08-01T07:19:09.946Z</time>
      </trkpt>
      <trkpt lat="43.039775" lon="-1.219055">
        <ele>1016.0</ele>
        <time>2019-08-01T07:19:10.952Z</time>
      </trkpt>
      <trkpt lat="43.03974833" lon="-1.21904667">
        <ele>1016.0</ele>
        <time>2019-08-01T07:19:11.958Z</time>
      </trkpt>
      <trkpt lat="43.03973333" lon="-1.21904167">
        <ele>1017.0</ele>
        <time>2019-08-01T07:19:12.965Z</time>
      </trkpt>
      <trkpt lat="43.03972" lon="-1.21903833">
        <ele>1017.0</ele>
        <time>2019-08-01T07:19:13.969Z</time>
      </trkpt>
      <trkpt lat="43.03970667" lon="-1.21903167">
        <ele>1018.0</ele>
        <time>2019-08-01T07:19:14.974Z</time>
      </trkpt>
      <trkpt lat="43.039695" lon="-1.219035">
        <ele>1017.0</ele>
        <time>2019-08-01T07:19:15.981Z</time>
      </trkpt>
      <trkpt lat="43.03968" lon="-1.21903833">
        <ele>1016.0</ele>
        <time>2019-08-01T07:19:16.986Z</time>
      </trkpt>
      <trkpt lat="43.03966833" lon="-1.21904">
        <ele>1015.0</ele>
        <time>2019-08-01T07:19:17.992Z</time>
      </trkpt>
      <trkpt lat="43.03966167" lon="-1.21904167">
        <ele>1013.0</ele>
        <time>2019-08-01T07:19:18.998Z</time>
      </trkpt>
      <trkpt lat="43.03965" lon="-1.21903833">
        <ele>1012.0</ele>
        <time>2019-08-01T07:19:20.002Z</time>
      </trkpt>
      <trkpt lat="43.03963667" lon="-1.21903667">
        <ele>1012.0</ele>
        <time>2019-08-01T07:19:21.008Z</time>
      </trkpt>
      <trkpt lat="43.039625" lon="-1.21903667">
        <ele>1011.0</ele>
        <time>2019-08-01T07:19:22.013Z</time>
      </trkpt>
      <trkpt lat="43.03961" lon="-1.21903833">
        <ele>1011.0</ele>
        <time>2019-08-01T07:19:23.019Z</time>
      </trkpt>
      <trkpt lat="43.03959333" lon="-1.21903667">
        <ele>1011.0</ele>
        <time>2019-08-01T07:19:24.027Z</time>
      </trkpt>
      <trkpt lat="43.03958" lon="-1.21903667">
        <ele>1011.0</ele>
        <time>2019-08-01T07:19:25.034Z</time>
      </trkpt>
      <trkpt lat="43.03956667" lon="-1.21904">
        <ele>1011.0</ele>
        <time>2019-08-01T07:19:26.040Z</time>
      </trkpt>
      <trkpt lat="43.03956667" lon="-1.21904">
        <ele>1011.0</ele>
        <time>2019-08-01T07:19:26.921Z</time>
      </trkpt>
      <trkpt lat="43.03955333" lon="-1.21904167">
        <ele>1011.0</ele>
        <time>2019-08-01T07:19:27.927Z</time>
      </trkpt>
      <trkpt lat="43.03953833" lon="-1.21904">
        <ele>1011.0</ele>
        <time>2019-08-01T07:19:28.933Z</time>
      </trkpt>
      <trkpt lat="43.03952333" lon="-1.21904333">
        <ele>1011.0</ele>
        <time>2019-08-01T07:19:29.938Z</time>
      </trkpt>
      <trkpt lat="43.03951" lon="-1.21904667">
        <ele>1011.0</ele>
        <time>2019-08-01T07:19:30.944Z</time>
      </trkpt>
      <trkpt lat="43.039495" lon="-1.21904833">
        <ele>1010.0</ele>
        <time>2019-08-01T07:19:31.950Z</time>
      </trkpt>
      <trkpt lat="43.039465" lon="-1.21905">
        <ele>1010.0</ele>
        <time>2019-08-01T07:19:32.955Z</time>
      </trkpt>
      <trkpt lat="43.03945333" lon="-1.21905167">
        <ele>1010.0</ele>
        <time>2019-08-01T07:19:33.960Z</time>
      </trkpt>
      <trkpt lat="43.03944" lon="-1.219055">
        <ele>1010.0</ele>
        <time>2019-08-01T07:19:34.965Z</time>
      </trkpt>
      <trkpt lat="43.03942833" lon="-1.21905833">
        <ele>1010.0</ele>
        <time>2019-08-01T07:19:35.971Z</time>
      </trkpt>
      <trkpt lat="43.03941333" lon="-1.21906167">
        <ele>1009.0</ele>
        <time>2019-08-01T07:19:36.977Z</time>
      </trkpt>
      <trkpt lat="43.03940167" lon="-1.219065">
        <ele>1009.0</ele>
        <time>2019-08-01T07:19:37.985Z</time>
      </trkpt>
      <trkpt lat="43.03939" lon="-1.21907167">
        <ele>1009.0</ele>
        <time>2019-08-01T07:19:38.991Z</time>
      </trkpt>
      <trkpt lat="43.03937667" lon="-1.219075">
        <ele>1008.0</ele>
        <time>2019-08-01T07:19:39.997Z</time>
      </trkpt>
      <trkpt lat="43.039365" lon="-1.21908167">
        <ele>1008.0</ele>
        <time>2019-08-01T07:19:41.001Z</time>
      </trkpt>
      <trkpt lat="43.03935333" lon="-1.21908833">
        <ele>1008.0</ele>
        <time>2019-08-01T07:19:42.008Z</time>
      </trkpt>
      <trkpt lat="43.03934" lon="-1.21909">
        <ele>1008.0</ele>
        <time>2019-08-01T07:19:43.012Z</time>
      </trkpt>
      <trkpt lat="43.03932833" lon="-1.21909333">
        <ele>1008.0</ele>
        <time>2019-08-01T07:19:44.020Z</time>
      </trkpt>
      <trkpt lat="43.039315" lon="-1.2191">
        <ele>1008.0</ele>
        <time>2019-08-01T07:19:45.027Z</time>
      </trkpt>
      <trkpt lat="43.0393" lon="-1.21910333">
        <ele>1008.0</ele>
        <time>2019-08-01T07:19:46.033Z</time>
      </trkpt>
      <trkpt lat="43.03928833" lon="-1.21911">
        <ele>1008.0</ele>
        <time>2019-08-01T07:19:47.039Z</time>
      </trkpt>
      <trkpt lat="43.039275" lon="-1.219115">
        <ele>1008.0</ele>
        <time>2019-08-01T07:19:48.042Z</time>
      </trkpt>
      <trkpt lat="43.039275" lon="-1.219115">
        <ele>1008.0</ele>
        <time>2019-08-01T07:19:48.920Z</time>
      </trkpt>
      <trkpt lat="43.03926167" lon="-1.21912167">
        <ele>1008.0</ele>
        <time>2019-08-01T07:19:49.923Z</time>
      </trkpt>
      <trkpt lat="43.03925167" lon="-1.21912667">
        <ele>1007.0</ele>
        <time>2019-08-01T07:19:50.927Z</time>
      </trkpt>
      <trkpt lat="43.03924167" lon="-1.21913">
        <ele>1007.0</ele>
        <time>2019-08-01T07:19:51.930Z</time>
      </trkpt>
      <trkpt lat="43.03922833" lon="-1.21912833">
        <ele>1007.0</ele>
        <time>2019-08-01T07:19:52.936Z</time>
      </trkpt>
      <trkpt lat="43.039215" lon="-1.21913">
        <ele>1007.0</ele>
        <time>2019-08-01T07:19:53.941Z</time>
      </trkpt>
      <trkpt lat="43.03920167" lon="-1.21913333">
        <ele>1007.0</ele>
        <time>2019-08-01T07:19:54.947Z</time>
      </trkpt>
      <trkpt lat="43.03918833" lon="-1.21913667">
        <ele>1007.0</ele>
        <time>2019-08-01T07:19:55.954Z</time>
      </trkpt>
      <trkpt lat="43.039165" lon="-1.21914833">
        <ele>1007.0</ele>
        <time>2019-08-01T07:19:56.961Z</time>
      </trkpt>
      <trkpt lat="43.03915167" lon="-1.21914833">
        <ele>1007.0</ele>
        <time>2019-08-01T07:19:57.966Z</time>
      </trkpt>
      <trkpt lat="43.03913667" lon="-1.21915">
        <ele>1007.0</ele>
        <time>2019-08-01T07:19:58.969Z</time>
      </trkpt>
      <trkpt lat="43.03912" lon="-1.21915167">
        <ele>1007.0</ele>
        <time>2019-08-01T07:19:59.975Z</time>
      </trkpt>
      <trkpt lat="43.03910333" lon="-1.21915833">
        <ele>1006.0</ele>
        <time>2019-08-01T07:20:00.980Z</time>
      </trkpt>
      <trkpt lat="43.03909167" lon="-1.219165">
        <ele>1006.0</ele>
        <time>2019-08-01T07:20:01.986Z</time>
      </trkpt>
      <trkpt lat="43.03907833" lon="-1.21917167">
        <ele>1006.0</ele>
        <time>2019-08-01T07:20:02.993Z</time>
      </trkpt>
      <trkpt lat="43.03906333" lon="-1.219175">
        <ele>1005.0</ele>
        <time>2019-08-01T07:20:03.998Z</time>
      </trkpt>
      <trkpt lat="43.03905" lon="-1.21918167">
        <ele>1005.0</ele>
        <time>2019-08-01T07:20:05.002Z</time>
      </trkpt>
      <trkpt lat="43.039035" lon="-1.21918833">
        <ele>1005.0</ele>
        <time>2019-08-01T07:20:06.009Z</time>
      </trkpt>
      <trkpt lat="43.03902167" lon="-1.21919333">
        <ele>1004.0</ele>
        <time>2019-08-01T07:20:07.014Z</time>
      </trkpt>
      <trkpt lat="43.03901" lon="-1.21919667">
        <ele>1004.0</ele>
        <time>2019-08-01T07:20:08.022Z</time>
      </trkpt>
      <trkpt lat="43.03899833" lon="-1.21920167">
        <ele>1004.0</ele>
        <time>2019-08-01T07:20:09.030Z</time>
      </trkpt>
      <trkpt lat="43.03898833" lon="-1.21920333">
        <ele>1003.0</ele>
        <time>2019-08-01T07:20:10.036Z</time>
      </trkpt>
      <trkpt lat="43.038975" lon="-1.21920833">
        <ele>1003.0</ele>
        <time>2019-08-01T07:20:11.044Z</time>
      </trkpt>
      <trkpt lat="43.038975" lon="-1.21920833">
        <ele>1003.0</ele>
        <time>2019-08-01T07:20:11.922Z</time>
      </trkpt>
      <trkpt lat="43.03896333" lon="-1.21921333">
        <ele>1002.0</ele>
        <time>2019-08-01T07:20:12.925Z</time>
      </trkpt>
      <trkpt lat="43.03895167" lon="-1.21921333">
        <ele>1001.0</ele>
        <time>2019-08-01T07:20:13.930Z</time>
      </trkpt>
      <trkpt lat="43.03893833" lon="-1.21921833">
        <ele>1000.0</ele>
        <time>2019-08-01T07:20:14.937Z</time>
      </trkpt>
      <trkpt lat="43.038925" lon="-1.21922">
        <ele>1000.0</ele>
        <time>2019-08-01T07:20:15.942Z</time>
      </trkpt>
      <trkpt lat="43.03891333" lon="-1.21922333">
        <ele>1000.0</ele>
        <time>2019-08-01T07:20:16.949Z</time>
      </trkpt>
      <trkpt lat="43.03889167" lon="-1.21923">
        <ele>1000.0</ele>
        <time>2019-08-01T07:20:17.956Z</time>
      </trkpt>
      <trkpt lat="43.03887833" lon="-1.219235">
        <ele>1000.0</ele>
        <time>2019-08-01T07:20:18.957Z</time>
      </trkpt>
      <trkpt lat="43.038865" lon="-1.21923667">
        <ele>1001.0</ele>
        <time>2019-08-01T07:20:19.960Z</time>
      </trkpt>
      <trkpt lat="43.038855" lon="-1.21923667">
        <ele>1001.0</ele>
        <time>2019-08-01T07:20:20.967Z</time>
      </trkpt>
      <trkpt lat="43.03884333" lon="-1.219235">
        <ele>1001.0</ele>
        <time>2019-08-01T07:20:21.973Z</time>
      </trkpt>
      <trkpt lat="43.03882833" lon="-1.21923833">
        <ele>1002.0</ele>
        <time>2019-08-01T07:20:22.977Z</time>
      </trkpt>
      <trkpt lat="43.038815" lon="-1.219245">
        <ele>1002.0</ele>
        <time>2019-08-01T07:20:23.982Z</time>
      </trkpt>
      <trkpt lat="43.03880167" lon="-1.21924833">
        <ele>1002.0</ele>
        <time>2019-08-01T07:20:24.989Z</time>
      </trkpt>
      <trkpt lat="43.03878833" lon="-1.21925">
        <ele>1002.0</ele>
        <time>2019-08-01T07:20:25.995Z</time>
      </trkpt>
      <trkpt lat="43.03877167" lon="-1.21925333">
        <ele>1002.0</ele>
        <time>2019-08-01T07:20:27.001Z</time>
      </trkpt>
      <trkpt lat="43.03875667" lon="-1.21925667">
        <ele>1003.0</ele>
        <time>2019-08-01T07:20:28.010Z</time>
      </trkpt>
      <trkpt lat="43.03874167" lon="-1.21925667">
        <ele>1003.0</ele>
        <time>2019-08-01T07:20:29.014Z</time>
      </trkpt>
      <trkpt lat="43.03872833" lon="-1.21926167">
        <ele>1004.0</ele>
        <time>2019-08-01T07:20:30.019Z</time>
      </trkpt>
      <trkpt lat="43.03871667" lon="-1.219265">
        <ele>1005.0</ele>
        <time>2019-08-01T07:20:31.024Z</time>
      </trkpt>
      <trkpt lat="43.03870167" lon="-1.21927167">
        <ele>1005.0</ele>
        <time>2019-08-01T07:20:32.030Z</time>
      </trkpt>
      <trkpt lat="43.03869" lon="-1.21927667">
        <ele>1005.0</ele>
        <time>2019-08-01T07:20:33.038Z</time>
      </trkpt>
      <trkpt lat="43.03869" lon="-1.21927667">
        <ele>1005.0</ele>
        <time>2019-08-01T07:20:33.919Z</time>
      </trkpt>
      <trkpt lat="43.03868" lon="-1.21927833">
        <ele>1005.0</ele>
        <time>2019-08-01T07:20:34.925Z</time>
      </trkpt>
      <trkpt lat="43.03866667" lon="-1.21928">
        <ele>1005.0</ele>
        <time>2019-08-01T07:20:35.930Z</time>
      </trkpt>
      <trkpt lat="43.03865667" lon="-1.21929">
        <ele>1006.0</ele>
        <time>2019-08-01T07:20:36.935Z</time>
      </trkpt>
      <trkpt lat="43.03864333" lon="-1.219295">
        <ele>1006.0</ele>
        <time>2019-08-01T07:20:37.942Z</time>
      </trkpt>
      <trkpt lat="43.03862833" lon="-1.219295">
        <ele>1007.0</ele>
        <time>2019-08-01T07:20:38.947Z</time>
      </trkpt>
      <trkpt lat="43.03861333" lon="-1.21929333">
        <ele>1007.0</ele>
        <time>2019-08-01T07:20:39.952Z</time>
      </trkpt>
      <trkpt lat="43.03859667" lon="-1.21929333">
        <ele>1008.0</ele>
        <time>2019-08-01T07:20:40.959Z</time>
      </trkpt>
      <trkpt lat="43.03857833" lon="-1.21929167">
        <ele>1008.0</ele>
        <time>2019-08-01T07:20:41.965Z</time>
      </trkpt>
      <trkpt lat="43.03854833" lon="-1.21928833">
        <ele>1009.0</ele>
        <time>2019-08-01T07:20:42.971Z</time>
      </trkpt>
      <trkpt lat="43.038535" lon="-1.21928667">
        <ele>1009.0</ele>
        <time>2019-08-01T07:20:43.975Z</time>
      </trkpt>
      <trkpt lat="43.03852" lon="-1.21929">
        <ele>1010.0</ele>
        <time>2019-08-01T07:20:44.980Z</time>
      </trkpt>
      <trkpt lat="43.03851" lon="-1.21929167">
        <ele>1010.0</ele>
        <time>2019-08-01T07:20:45.988Z</time>
      </trkpt>
      <trkpt lat="43.03849167" lon="-1.21929333">
        <ele>1011.0</ele>
        <time>2019-08-01T07:20:46.992Z</time>
      </trkpt>
      <trkpt lat="43.03847833" lon="-1.21929167">
        <ele>1011.0</ele>
        <time>2019-08-01T07:20:47.998Z</time>
      </trkpt>
      <trkpt lat="43.03846667" lon="-1.21929167">
        <ele>1012.0</ele>
        <time>2019-08-01T07:20:49.006Z</time>
      </trkpt>
      <trkpt lat="43.03845333" lon="-1.21929333">
        <ele>1012.0</ele>
        <time>2019-08-01T07:20:50.012Z</time>
      </trkpt>
      <trkpt lat="43.03844333" lon="-1.21929333">
        <ele>1013.0</ele>
        <time>2019-08-01T07:20:51.018Z</time>
      </trkpt>
      <trkpt lat="43.03843333" lon="-1.21929167">
        <ele>1013.0</ele>
        <time>2019-08-01T07:20:52.023Z</time>
      </trkpt>
      <trkpt lat="43.038425" lon="-1.21929167">
        <ele>1013.0</ele>
        <time>2019-08-01T07:20:53.026Z</time>
      </trkpt>
      <trkpt lat="43.038415" lon="-1.21929167">
        <ele>1013.0</ele>
        <time>2019-08-01T07:20:54.030Z</time>
      </trkpt>
      <trkpt lat="43.03839833" lon="-1.21929333">
        <ele>1014.0</ele>
        <time>2019-08-01T07:20:55.035Z</time>
      </trkpt>
      <trkpt lat="43.03838667" lon="-1.21929">
        <ele>1014.0</ele>
        <time>2019-08-01T07:20:56.041Z</time>
      </trkpt>
      <trkpt lat="43.03838667" lon="-1.21929">
        <ele>1014.0</ele>
        <time>2019-08-01T07:20:56.922Z</time>
      </trkpt>
      <trkpt lat="43.03837667" lon="-1.21929167">
        <ele>1014.0</ele>
        <time>2019-08-01T07:20:57.923Z</time>
      </trkpt>
      <trkpt lat="43.038365" lon="-1.21929167">
        <ele>1014.0</ele>
        <time>2019-08-01T07:20:58.929Z</time>
      </trkpt>
      <trkpt lat="43.038355" lon="-1.21929333">
        <ele>1013.0</ele>
        <time>2019-08-01T07:20:59.935Z</time>
      </trkpt>
      <trkpt lat="43.03834" lon="-1.21929333">
        <ele>1013.0</ele>
        <time>2019-08-01T07:21:00.939Z</time>
      </trkpt>
      <trkpt lat="43.03832333" lon="-1.219295">
        <ele>1014.0</ele>
        <time>2019-08-01T07:21:01.943Z</time>
      </trkpt>
      <trkpt lat="43.03831167" lon="-1.21929167">
        <ele>1014.0</ele>
        <time>2019-08-01T07:21:02.951Z</time>
      </trkpt>
      <trkpt lat="43.038285" lon="-1.21929333">
        <ele>1015.0</ele>
        <time>2019-08-01T07:21:03.959Z</time>
      </trkpt>
      <trkpt lat="43.038285" lon="-1.21929333">
        <ele>1015.0</ele>
        <time>2019-08-01T07:21:04.963Z</time>
      </trkpt>
      <trkpt lat="43.038275" lon="-1.219295">
        <ele>1015.0</ele>
        <time>2019-08-01T07:21:05.969Z</time>
      </trkpt>
      <trkpt lat="43.038265" lon="-1.21929667">
        <ele>1015.0</ele>
        <time>2019-08-01T07:21:06.975Z</time>
      </trkpt>
      <trkpt lat="43.03824167" lon="-1.21930167">
        <ele>1013.0</ele>
        <time>2019-08-01T07:21:07.981Z</time>
      </trkpt>
      <trkpt lat="43.03823" lon="-1.21930333">
        <ele>1013.0</ele>
        <time>2019-08-01T07:21:08.987Z</time>
      </trkpt>
      <trkpt lat="43.03821667" lon="-1.21930167">
        <ele>1012.0</ele>
        <time>2019-08-01T07:21:09.994Z</time>
      </trkpt>
      <trkpt lat="43.03820333" lon="-1.2193">
        <ele>1012.0</ele>
        <time>2019-08-01T07:21:11.000Z</time>
      </trkpt>
      <trkpt lat="43.03818833" lon="-1.21929833">
        <ele>1011.0</ele>
        <time>2019-08-01T07:21:12.005Z</time>
      </trkpt>
      <trkpt lat="43.03817833" lon="-1.21929667">
        <ele>1011.0</ele>
        <time>2019-08-01T07:21:13.011Z</time>
      </trkpt>
      <trkpt lat="43.03816" lon="-1.21929667">
        <ele>1011.0</ele>
        <time>2019-08-01T07:21:14.016Z</time>
      </trkpt>
      <trkpt lat="43.03814667" lon="-1.2193">
        <ele>1011.0</ele>
        <time>2019-08-01T07:21:15.023Z</time>
      </trkpt>
      <trkpt lat="43.038135" lon="-1.2193">
        <ele>1011.0</ele>
        <time>2019-08-01T07:21:16.028Z</time>
      </trkpt>
      <trkpt lat="43.03812333" lon="-1.2193">
        <ele>1011.0</ele>
        <time>2019-08-01T07:21:17.034Z</time>
      </trkpt>
      <trkpt lat="43.03811167" lon="-1.2193">
        <ele>1011.0</ele>
        <time>2019-08-01T07:21:18.040Z</time>
      </trkpt>
      <trkpt lat="43.03811167" lon="-1.2193">
        <ele>1011.0</ele>
        <time>2019-08-01T07:21:18.921Z</time>
      </trkpt>
      <trkpt lat="43.03809667" lon="-1.2193">
        <ele>1011.0</ele>
        <time>2019-08-01T07:21:19.926Z</time>
      </trkpt>
      <trkpt lat="43.03808333" lon="-1.2193">
        <ele>1010.0</ele>
        <time>2019-08-01T07:21:20.930Z</time>
      </trkpt>
      <trkpt lat="43.03806833" lon="-1.219295">
        <ele>1010.0</ele>
        <time>2019-08-01T07:21:21.936Z</time>
      </trkpt>
      <trkpt lat="43.038055" lon="-1.21929167">
        <ele>1010.0</ele>
        <time>2019-08-01T07:21:22.940Z</time>
      </trkpt>
      <trkpt lat="43.03804333" lon="-1.21929667">
        <ele>1010.0</ele>
        <time>2019-08-01T07:21:23.944Z</time>
      </trkpt>
      <trkpt lat="43.03803" lon="-1.2193">
        <ele>1010.0</ele>
        <time>2019-08-01T07:21:24.951Z</time>
      </trkpt>
      <trkpt lat="43.038015" lon="-1.21929833">
        <ele>1009.0</ele>
        <time>2019-08-01T07:21:25.957Z</time>
      </trkpt>
      <trkpt lat="43.03800167" lon="-1.21929833">
        <ele>1009.0</ele>
        <time>2019-08-01T07:21:26.963Z</time>
      </trkpt>
      <trkpt lat="43.03797167" lon="-1.21929833">
        <ele>1010.0</ele>
        <time>2019-08-01T07:21:27.969Z</time>
      </trkpt>
      <trkpt lat="43.03795833" lon="-1.21929833">
        <ele>1010.0</ele>
        <time>2019-08-01T07:21:28.975Z</time>
      </trkpt>
      <trkpt lat="43.03794" lon="-1.21929667">
        <ele>1010.0</ele>
        <time>2019-08-01T07:21:29.980Z</time>
      </trkpt>
      <trkpt lat="43.03792833" lon="-1.219295">
        <ele>1010.0</ele>
        <time>2019-08-01T07:21:30.986Z</time>
      </trkpt>
      <trkpt lat="43.037915" lon="-1.21929667">
        <ele>1010.0</ele>
        <time>2019-08-01T07:21:31.993Z</time>
      </trkpt>
      <trkpt lat="43.03790667" lon="-1.219295">
        <ele>1010.0</ele>
        <time>2019-08-01T07:21:32.998Z</time>
      </trkpt>
      <trkpt lat="43.03789833" lon="-1.219295">
        <ele>1010.0</ele>
        <time>2019-08-01T07:21:34.005Z</time>
      </trkpt>
      <trkpt lat="43.03788833" lon="-1.219295">
        <ele>1010.0</ele>
        <time>2019-08-01T07:21:35.011Z</time>
      </trkpt>
      <trkpt lat="43.03787833" lon="-1.21929333">
        <ele>1010.0</ele>
        <time>2019-08-01T07:21:36.014Z</time>
      </trkpt>
      <trkpt lat="43.03786" lon="-1.21929333">
        <ele>1011.0</ele>
        <time>2019-08-01T07:21:37.020Z</time>
      </trkpt>
      <trkpt lat="43.037845" lon="-1.21929">
        <ele>1011.0</ele>
        <time>2019-08-01T07:21:38.028Z</time>
      </trkpt>
      <trkpt lat="43.03783167" lon="-1.21928667">
        <ele>1011.0</ele>
        <time>2019-08-01T07:21:39.036Z</time>
      </trkpt>
      <trkpt lat="43.037815" lon="-1.21928833">
        <ele>1012.0</ele>
        <time>2019-08-01T07:21:40.042Z</time>
      </trkpt>
      <trkpt lat="43.037815" lon="-1.21928833">
        <ele>1012.0</ele>
        <time>2019-08-01T07:21:40.924Z</time>
      </trkpt>
      <trkpt lat="43.03780333" lon="-1.21928333">
        <ele>1012.0</ele>
        <time>2019-08-01T07:21:41.929Z</time>
      </trkpt>
      <trkpt lat="43.03778667" lon="-1.21928">
        <ele>1012.0</ele>
        <time>2019-08-01T07:21:42.936Z</time>
      </trkpt>
      <trkpt lat="43.03777" lon="-1.21927667">
        <ele>1012.0</ele>
        <time>2019-08-01T07:21:43.942Z</time>
      </trkpt>
      <trkpt lat="43.03775667" lon="-1.21927333">
        <ele>1013.0</ele>
        <time>2019-08-01T07:21:44.947Z</time>
      </trkpt>
      <trkpt lat="43.037745" lon="-1.21927333">
        <ele>1013.0</ele>
        <time>2019-08-01T07:21:45.953Z</time>
      </trkpt>
      <trkpt lat="43.03773333" lon="-1.21927167">
        <ele>1014.0</ele>
        <time>2019-08-01T07:21:46.957Z</time>
      </trkpt>
      <trkpt lat="43.03770833" lon="-1.21926167">
        <ele>1014.0</ele>
        <time>2019-08-01T07:21:47.962Z</time>
      </trkpt>
      <trkpt lat="43.03769667" lon="-1.21925833">
        <ele>1014.0</ele>
        <time>2019-08-01T07:21:48.968Z</time>
      </trkpt>
      <trkpt lat="43.03769667" lon="-1.21925833">
        <ele>1014.0</ele>
        <time>2019-08-01T07:21:49.973Z</time>
      </trkpt>
      <trkpt lat="43.03768167" lon="-1.21925333">
        <ele>1014.0</ele>
        <time>2019-08-01T07:21:50.979Z</time>
      </trkpt>
      <trkpt lat="43.03765333" lon="-1.21925">
        <ele>1015.0</ele>
        <time>2019-08-01T07:21:51.986Z</time>
      </trkpt>
      <trkpt lat="43.03764167" lon="-1.21925">
        <ele>1015.0</ele>
        <time>2019-08-01T07:21:52.993Z</time>
      </trkpt>
      <trkpt lat="43.03763167" lon="-1.21925167">
        <ele>1015.0</ele>
        <time>2019-08-01T07:21:53.999Z</time>
      </trkpt>
      <trkpt lat="43.03762" lon="-1.21925333">
        <ele>1014.0</ele>
        <time>2019-08-01T07:21:55.006Z</time>
      </trkpt>
      <trkpt lat="43.03761" lon="-1.21925333">
        <ele>1014.0</ele>
        <time>2019-08-01T07:21:56.012Z</time>
      </trkpt>
      <trkpt lat="43.03759667" lon="-1.21925">
        <ele>1013.0</ele>
        <time>2019-08-01T07:21:57.019Z</time>
      </trkpt>
      <trkpt lat="43.03758167" lon="-1.219245">
        <ele>1013.0</ele>
        <time>2019-08-01T07:21:58.025Z</time>
      </trkpt>
      <trkpt lat="43.03756833" lon="-1.21924333">
        <ele>1013.0</ele>
        <time>2019-08-01T07:21:59.032Z</time>
      </trkpt>
      <trkpt lat="43.03755667" lon="-1.21923833">
        <ele>1013.0</ele>
        <time>2019-08-01T07:22:00.038Z</time>
      </trkpt>
      <trkpt lat="43.03755667" lon="-1.21923833">
        <ele>1013.0</ele>
        <time>2019-08-01T07:22:00.918Z</time>
      </trkpt>
      <trkpt lat="43.03754333" lon="-1.21923667">
        <ele>1013.0</ele>
        <time>2019-08-01T07:22:01.924Z</time>
      </trkpt>
      <trkpt lat="43.03753167" lon="-1.21923167">
        <ele>1013.0</ele>
        <time>2019-08-01T07:22:02.928Z</time>
      </trkpt>
      <trkpt lat="43.03751667" lon="-1.21922667">
        <ele>1013.0</ele>
        <time>2019-08-01T07:22:03.930Z</time>
      </trkpt>
      <trkpt lat="43.03750667" lon="-1.21922333">
        <ele>1013.0</ele>
        <time>2019-08-01T07:22:04.935Z</time>
      </trkpt>
      <trkpt lat="43.03749" lon="-1.219225">
        <ele>1012.0</ele>
        <time>2019-08-01T07:22:05.941Z</time>
      </trkpt>
      <trkpt lat="43.03747667" lon="-1.219225">
        <ele>1012.0</ele>
        <time>2019-08-01T07:22:06.946Z</time>
      </trkpt>
      <trkpt lat="43.03746167" lon="-1.21922167">
        <ele>1012.0</ele>
        <time>2019-08-01T07:22:07.950Z</time>
      </trkpt>
      <trkpt lat="43.03743167" lon="-1.21921333">
        <ele>1013.0</ele>
        <time>2019-08-01T07:22:08.956Z</time>
      </trkpt>
      <trkpt lat="43.03743167" lon="-1.21921333">
        <ele>1013.0</ele>
        <time>2019-08-01T07:22:09.962Z</time>
      </trkpt>
      <trkpt lat="43.03741833" lon="-1.21921167">
        <ele>1013.0</ele>
        <time>2019-08-01T07:22:10.968Z</time>
      </trkpt>
      <trkpt lat="43.03740333" lon="-1.21921">
        <ele>1013.0</ele>
        <time>2019-08-01T07:22:11.973Z</time>
      </trkpt>
      <trkpt lat="43.03737333" lon="-1.21921167">
        <ele>1014.0</ele>
        <time>2019-08-01T07:22:12.978Z</time>
      </trkpt>
      <trkpt lat="43.03735833" lon="-1.21921167">
        <ele>1014.0</ele>
        <time>2019-08-01T07:22:13.985Z</time>
      </trkpt>
      <trkpt lat="43.03734667" lon="-1.21921">
        <ele>1014.0</ele>
        <time>2019-08-01T07:22:14.990Z</time>
      </trkpt>
      <trkpt lat="43.03733167" lon="-1.21920833">
        <ele>1015.0</ele>
        <time>2019-08-01T07:22:15.997Z</time>
      </trkpt>
      <trkpt lat="43.03732167" lon="-1.219205">
        <ele>1015.0</ele>
        <time>2019-08-01T07:22:17.003Z</time>
      </trkpt>
      <trkpt lat="43.037305" lon="-1.21920333">
        <ele>1015.0</ele>
        <time>2019-08-01T07:22:18.010Z</time>
      </trkpt>
      <trkpt lat="43.03728833" lon="-1.2192">
        <ele>1016.0</ele>
        <time>2019-08-01T07:22:19.017Z</time>
      </trkpt>
      <trkpt lat="43.03727167" lon="-1.21919333">
        <ele>1016.0</ele>
        <time>2019-08-01T07:22:20.024Z</time>
      </trkpt>
      <trkpt lat="43.03725667" lon="-1.21919333">
        <ele>1016.0</ele>
        <time>2019-08-01T07:22:21.030Z</time>
      </trkpt>
      <trkpt lat="43.03724667" lon="-1.21919167">
        <ele>1016.0</ele>
        <time>2019-08-01T07:22:22.034Z</time>
      </trkpt>
      <trkpt lat="43.03723167" lon="-1.21919">
        <ele>1016.0</ele>
        <time>2019-08-01T07:22:23.041Z</time>
      </trkpt>
      <trkpt lat="43.03723167" lon="-1.21919">
        <ele>1016.0</ele>
        <time>2019-08-01T07:22:23.921Z</time>
      </trkpt>
      <trkpt lat="43.03722167" lon="-1.21918667">
        <ele>1016.0</ele>
        <time>2019-08-01T07:22:24.927Z</time>
      </trkpt>
      <trkpt lat="43.03721" lon="-1.21918333">
        <ele>1016.0</ele>
        <time>2019-08-01T07:22:25.931Z</time>
      </trkpt>
      <trkpt lat="43.03719833" lon="-1.21918167">
        <ele>1016.0</ele>
        <time>2019-08-01T07:22:26.936Z</time>
      </trkpt>
      <trkpt lat="43.03718833" lon="-1.21917833">
        <ele>1016.0</ele>
        <time>2019-08-01T07:22:27.942Z</time>
      </trkpt>
      <trkpt lat="43.03717333" lon="-1.21917667">
        <ele>1016.0</ele>
        <time>2019-08-01T07:22:28.946Z</time>
      </trkpt>
      <trkpt lat="43.03715833" lon="-1.21917667">
        <ele>1016.0</ele>
        <time>2019-08-01T07:22:29.953Z</time>
      </trkpt>
      <trkpt lat="43.037145" lon="-1.219175">
        <ele>1017.0</ele>
        <time>2019-08-01T07:22:30.961Z</time>
      </trkpt>
      <trkpt lat="43.03713333" lon="-1.219175">
        <ele>1017.0</ele>
        <time>2019-08-01T07:22:31.967Z</time>
      </trkpt>
      <trkpt lat="43.03710333" lon="-1.21916833">
        <ele>1018.0</ele>
        <time>2019-08-01T07:22:32.972Z</time>
      </trkpt>
      <trkpt lat="43.03709" lon="-1.219165">
        <ele>1018.0</ele>
        <time>2019-08-01T07:22:33.977Z</time>
      </trkpt>
      <trkpt lat="43.03707833" lon="-1.21916167">
        <ele>1017.0</ele>
        <time>2019-08-01T07:22:34.983Z</time>
      </trkpt>
      <trkpt lat="43.03707833" lon="-1.21916167">
        <ele>1017.0</ele>
        <time>2019-08-01T07:22:35.989Z</time>
      </trkpt>
      <trkpt lat="43.03705333" lon="-1.219155">
        <ele>1017.0</ele>
        <time>2019-08-01T07:22:36.996Z</time>
      </trkpt>
      <trkpt lat="43.03704333" lon="-1.21915">
        <ele>1017.0</ele>
        <time>2019-08-01T07:22:38.004Z</time>
      </trkpt>
      <trkpt lat="43.03703333" lon="-1.219145">
        <ele>1017.0</ele>
        <time>2019-08-01T07:22:39.011Z</time>
      </trkpt>
      <trkpt lat="43.037025" lon="-1.21914833">
        <ele>1016.0</ele>
        <time>2019-08-01T07:22:40.016Z</time>
      </trkpt>
      <trkpt lat="43.03701167" lon="-1.21915">
        <ele>1016.0</ele>
        <time>2019-08-01T07:22:41.021Z</time>
      </trkpt>
      <trkpt lat="43.03699833" lon="-1.21915">
        <ele>1016.0</ele>
        <time>2019-08-01T07:22:42.028Z</time>
      </trkpt>
      <trkpt lat="43.03698333" lon="-1.219145">
        <ele>1015.0</ele>
        <time>2019-08-01T07:22:43.032Z</time>
      </trkpt>
      <trkpt lat="43.03697167" lon="-1.21914167">
        <ele>1015.0</ele>
        <time>2019-08-01T07:22:44.038Z</time>
      </trkpt>
      <trkpt lat="43.03695833" lon="-1.21913833">
        <ele>1015.0</ele>
        <time>2019-08-01T07:22:45.042Z</time>
      </trkpt>
      <trkpt lat="43.03695833" lon="-1.21913833">
        <ele>1015.0</ele>
        <time>2019-08-01T07:22:45.922Z</time>
      </trkpt>
      <trkpt lat="43.03694833" lon="-1.21913833">
        <ele>1015.0</ele>
        <time>2019-08-01T07:22:46.925Z</time>
      </trkpt>
      <trkpt lat="43.03693167" lon="-1.21913667">
        <ele>1016.0</ele>
        <time>2019-08-01T07:22:47.930Z</time>
      </trkpt>
      <trkpt lat="43.03691833" lon="-1.219135">
        <ele>1016.0</ele>
        <time>2019-08-01T07:22:48.936Z</time>
      </trkpt>
      <trkpt lat="43.03690667" lon="-1.21913333">
        <ele>1016.0</ele>
        <time>2019-08-01T07:22:49.940Z</time>
      </trkpt>
      <trkpt lat="43.03688833" lon="-1.219135">
        <ele>1016.0</ele>
        <time>2019-08-01T07:22:50.945Z</time>
      </trkpt>
      <trkpt lat="43.036875" lon="-1.21913667">
        <ele>1016.0</ele>
        <time>2019-08-01T07:22:51.951Z</time>
      </trkpt>
      <trkpt lat="43.03686" lon="-1.219135">
        <ele>1016.0</ele>
        <time>2019-08-01T07:22:52.957Z</time>
      </trkpt>
      <trkpt lat="43.03682667" lon="-1.21913">
        <ele>1016.0</ele>
        <time>2019-08-01T07:22:53.962Z</time>
      </trkpt>
      <trkpt lat="43.03682667" lon="-1.21913">
        <ele>1016.0</ele>
        <time>2019-08-01T07:22:54.969Z</time>
      </trkpt>
      <trkpt lat="43.036815" lon="-1.21912833">
        <ele>1016.0</ele>
        <time>2019-08-01T07:22:55.975Z</time>
      </trkpt>
      <trkpt lat="43.03679833" lon="-1.21912167">
        <ele>1017.0</ele>
        <time>2019-08-01T07:22:56.981Z</time>
      </trkpt>
      <trkpt lat="43.03676833" lon="-1.21911333">
        <ele>1018.0</ele>
        <time>2019-08-01T07:22:57.989Z</time>
      </trkpt>
      <trkpt lat="43.03675333" lon="-1.21911167">
        <ele>1018.0</ele>
        <time>2019-08-01T07:22:58.996Z</time>
      </trkpt>
      <trkpt lat="43.03674167" lon="-1.21910833">
        <ele>1018.0</ele>
        <time>2019-08-01T07:23:00.001Z</time>
      </trkpt>
      <trkpt lat="43.03672833" lon="-1.21911167">
        <ele>1017.0</ele>
        <time>2019-08-01T07:23:01.008Z</time>
      </trkpt>
      <trkpt lat="43.036715" lon="-1.21911333">
        <ele>1017.0</ele>
        <time>2019-08-01T07:23:02.012Z</time>
      </trkpt>
      <trkpt lat="43.03670333" lon="-1.219115">
        <ele>1017.0</ele>
        <time>2019-08-01T07:23:03.017Z</time>
      </trkpt>
      <trkpt lat="43.03669167" lon="-1.21911333">
        <ele>1017.0</ele>
        <time>2019-08-01T07:23:04.021Z</time>
      </trkpt>
      <trkpt lat="43.03667667" lon="-1.21911167">
        <ele>1017.0</ele>
        <time>2019-08-01T07:23:05.029Z</time>
      </trkpt>
      <trkpt lat="43.03666167" lon="-1.21911">
        <ele>1017.0</ele>
        <time>2019-08-01T07:23:06.033Z</time>
      </trkpt>
      <trkpt lat="43.03664667" lon="-1.21911">
        <ele>1018.0</ele>
        <time>2019-08-01T07:23:07.040Z</time>
      </trkpt>
      <trkpt lat="43.03664667" lon="-1.21911">
        <ele>1018.0</ele>
        <time>2019-08-01T07:23:07.920Z</time>
      </trkpt>
      <trkpt lat="43.036635" lon="-1.21911167">
        <ele>1017.0</ele>
        <time>2019-08-01T07:23:08.924Z</time>
      </trkpt>
      <trkpt lat="43.03662333" lon="-1.21911333">
        <ele>1017.0</ele>
        <time>2019-08-01T07:23:09.929Z</time>
      </trkpt>
      <trkpt lat="43.03660833" lon="-1.21911667">
        <ele>1016.0</ele>
        <time>2019-08-01T07:23:10.934Z</time>
      </trkpt>
      <trkpt lat="43.03659833" lon="-1.219115">
        <ele>1016.0</ele>
        <time>2019-08-01T07:23:11.941Z</time>
      </trkpt>
      <trkpt lat="43.03658667" lon="-1.21911167">
        <ele>1015.0</ele>
        <time>2019-08-01T07:23:12.948Z</time>
      </trkpt>
      <trkpt lat="43.036575" lon="-1.21911">
        <ele>1015.0</ele>
        <time>2019-08-01T07:23:13.954Z</time>
      </trkpt>
      <trkpt lat="43.03656333" lon="-1.219105">
        <ele>1015.0</ele>
        <time>2019-08-01T07:23:14.959Z</time>
      </trkpt>
      <trkpt lat="43.03655333" lon="-1.2191">
        <ele>1015.0</ele>
        <time>2019-08-01T07:23:15.965Z</time>
      </trkpt>
      <trkpt lat="43.03653833" lon="-1.21909833">
        <ele>1015.0</ele>
        <time>2019-08-01T07:23:16.971Z</time>
      </trkpt>
      <trkpt lat="43.03651333" lon="-1.21909333">
        <ele>1015.0</ele>
        <time>2019-08-01T07:23:17.978Z</time>
      </trkpt>
      <trkpt lat="43.03650167" lon="-1.21909">
        <ele>1015.0</ele>
        <time>2019-08-01T07:23:18.985Z</time>
      </trkpt>
      <trkpt lat="43.03649" lon="-1.21908667">
        <ele>1016.0</ele>
        <time>2019-08-01T07:23:19.990Z</time>
      </trkpt>
      <trkpt lat="43.03647667" lon="-1.21908167">
        <ele>1016.0</ele>
        <time>2019-08-01T07:23:20.996Z</time>
      </trkpt>
      <trkpt lat="43.036465" lon="-1.21908">
        <ele>1016.0</ele>
        <time>2019-08-01T07:23:22.002Z</time>
      </trkpt>
      <trkpt lat="43.03645" lon="-1.21907667">
        <ele>1016.0</ele>
        <time>2019-08-01T07:23:23.009Z</time>
      </trkpt>
      <trkpt lat="43.03643667" lon="-1.21907333">
        <ele>1016.0</ele>
        <time>2019-08-01T07:23:24.014Z</time>
      </trkpt>
      <trkpt lat="43.03642333" lon="-1.21907167">
        <ele>1017.0</ele>
        <time>2019-08-01T07:23:25.020Z</time>
      </trkpt>
      <trkpt lat="43.03641333" lon="-1.21907167">
        <ele>1017.0</ele>
        <time>2019-08-01T07:23:26.027Z</time>
      </trkpt>
      <trkpt lat="43.0364" lon="-1.21906667">
        <ele>1018.0</ele>
        <time>2019-08-01T07:23:27.035Z</time>
      </trkpt>
      <trkpt lat="43.036385" lon="-1.21906167">
        <ele>1018.0</ele>
        <time>2019-08-01T07:23:28.041Z</time>
      </trkpt>
      <trkpt lat="43.036385" lon="-1.21906167">
        <ele>1018.0</ele>
        <time>2019-08-01T07:23:28.919Z</time>
      </trkpt>
      <trkpt lat="43.03637167" lon="-1.21906167">
        <ele>1018.0</ele>
        <time>2019-08-01T07:23:29.925Z</time>
      </trkpt>
      <trkpt lat="43.03635667" lon="-1.21906">
        <ele>1019.0</ele>
        <time>2019-08-01T07:23:30.931Z</time>
      </trkpt>
      <trkpt lat="43.036345" lon="-1.21905667">
        <ele>1020.0</ele>
        <time>2019-08-01T07:23:31.935Z</time>
      </trkpt>
      <trkpt lat="43.03633333" lon="-1.21905167">
        <ele>1020.0</ele>
        <time>2019-08-01T07:23:32.943Z</time>
      </trkpt>
      <trkpt lat="43.03632" lon="-1.219045">
        <ele>1021.0</ele>
        <time>2019-08-01T07:23:33.950Z</time>
      </trkpt>
      <trkpt lat="43.03630833" lon="-1.21903833">
        <ele>1021.0</ele>
        <time>2019-08-01T07:23:34.957Z</time>
      </trkpt>
      <trkpt lat="43.03629833" lon="-1.21903167">
        <ele>1021.0</ele>
        <time>2019-08-01T07:23:35.962Z</time>
      </trkpt>
      <trkpt lat="43.03628667" lon="-1.21903">
        <ele>1021.0</ele>
        <time>2019-08-01T07:23:36.969Z</time>
      </trkpt>
      <trkpt lat="43.03625833" lon="-1.21903333">
        <ele>1021.0</ele>
        <time>2019-08-01T07:23:37.973Z</time>
      </trkpt>
      <trkpt lat="43.036245" lon="-1.21903333">
        <ele>1021.0</ele>
        <time>2019-08-01T07:23:38.980Z</time>
      </trkpt>
      <trkpt lat="43.03623667" lon="-1.21903333">
        <ele>1020.0</ele>
        <time>2019-08-01T07:23:39.986Z</time>
      </trkpt>
      <trkpt lat="43.03622167" lon="-1.21902833">
        <ele>1020.0</ele>
        <time>2019-08-01T07:23:40.989Z</time>
      </trkpt>
      <trkpt lat="43.03621" lon="-1.21902667">
        <ele>1020.0</ele>
        <time>2019-08-01T07:23:41.994Z</time>
      </trkpt>
      <trkpt lat="43.03619833" lon="-1.219025">
        <ele>1021.0</ele>
        <time>2019-08-01T07:23:42.998Z</time>
      </trkpt>
      <trkpt lat="43.03618667" lon="-1.21902167">
        <ele>1021.0</ele>
        <time>2019-08-01T07:23:44.002Z</time>
      </trkpt>
      <trkpt lat="43.036175" lon="-1.21901667">
        <ele>1022.0</ele>
        <time>2019-08-01T07:23:45.008Z</time>
      </trkpt>
      <trkpt lat="43.036165" lon="-1.21901167">
        <ele>1022.0</ele>
        <time>2019-08-01T07:23:46.013Z</time>
      </trkpt>
      <trkpt lat="43.03615333" lon="-1.21900833">
        <ele>1022.0</ele>
        <time>2019-08-01T07:23:47.019Z</time>
      </trkpt>
      <trkpt lat="43.03613667" lon="-1.21901">
        <ele>1022.0</ele>
        <time>2019-08-01T07:23:48.022Z</time>
      </trkpt>
      <trkpt lat="43.03612333" lon="-1.21901">
        <ele>1022.0</ele>
        <time>2019-08-01T07:23:49.029Z</time>
      </trkpt>
      <trkpt lat="43.03611333" lon="-1.21901">
        <ele>1022.0</ele>
        <time>2019-08-01T07:23:50.035Z</time>
      </trkpt>
      <trkpt lat="43.03610167" lon="-1.21900833">
        <ele>1022.0</ele>
        <time>2019-08-01T07:23:51.040Z</time>
      </trkpt>
      <trkpt lat="43.03610167" lon="-1.21900833">
        <ele>1022.0</ele>
        <time>2019-08-01T07:23:51.919Z</time>
      </trkpt>
      <trkpt lat="43.03609" lon="-1.219005">
        <ele>1023.0</ele>
        <time>2019-08-01T07:23:52.926Z</time>
      </trkpt>
      <trkpt lat="43.03607333" lon="-1.219005">
        <ele>1023.0</ele>
        <time>2019-08-01T07:23:53.928Z</time>
      </trkpt>
      <trkpt lat="43.03606167" lon="-1.21900333">
        <ele>1024.0</ele>
        <time>2019-08-01T07:23:54.933Z</time>
      </trkpt>
      <trkpt lat="43.03604667" lon="-1.21900667">
        <ele>1025.0</ele>
        <time>2019-08-01T07:23:55.937Z</time>
      </trkpt>
      <trkpt lat="43.03603667" lon="-1.21901">
        <ele>1025.0</ele>
        <time>2019-08-01T07:23:56.941Z</time>
      </trkpt>
      <trkpt lat="43.03602667" lon="-1.21901667">
        <ele>1026.0</ele>
        <time>2019-08-01T07:23:57.942Z</time>
      </trkpt>
      <trkpt lat="43.03601833" lon="-1.21902833">
        <ele>1026.0</ele>
        <time>2019-08-01T07:23:58.944Z</time>
      </trkpt>
      <trkpt lat="43.03600833" lon="-1.21904333">
        <ele>1026.0</ele>
        <time>2019-08-01T07:23:59.949Z</time>
      </trkpt>
      <trkpt lat="43.036" lon="-1.21905833">
        <ele>1025.0</ele>
        <time>2019-08-01T07:24:00.952Z</time>
      </trkpt>
      <trkpt lat="43.035995" lon="-1.219075">
        <ele>1025.0</ele>
        <time>2019-08-01T07:24:01.956Z</time>
      </trkpt>
      <trkpt lat="43.03599" lon="-1.21911">
        <ele>1025.0</ele>
        <time>2019-08-01T07:24:02.963Z</time>
      </trkpt>
      <trkpt lat="43.03599167" lon="-1.21913167">
        <ele>1025.0</ele>
        <time>2019-08-01T07:24:03.967Z</time>
      </trkpt>
      <trkpt lat="43.03599667" lon="-1.21915333">
        <ele>1025.0</ele>
        <time>2019-08-01T07:24:04.972Z</time>
      </trkpt>
      <trkpt lat="43.036005" lon="-1.21917167">
        <ele>1025.0</ele>
        <time>2019-08-01T07:24:05.977Z</time>
      </trkpt>
      <trkpt lat="43.03601167" lon="-1.219185">
        <ele>1025.0</ele>
        <time>2019-08-01T07:24:06.982Z</time>
      </trkpt>
      <trkpt lat="43.03602" lon="-1.219205">
        <ele>1025.0</ele>
        <time>2019-08-01T07:24:07.986Z</time>
      </trkpt>
      <trkpt lat="43.03602833" lon="-1.21921667">
        <ele>1025.0</ele>
        <time>2019-08-01T07:24:08.992Z</time>
      </trkpt>
      <trkpt lat="43.03603833" lon="-1.21923167">
        <ele>1026.0</ele>
        <time>2019-08-01T07:24:09.999Z</time>
      </trkpt>
      <trkpt lat="43.03604833" lon="-1.219245">
        <ele>1026.0</ele>
        <time>2019-08-01T07:24:11.003Z</time>
      </trkpt>
      <trkpt lat="43.03606167" lon="-1.21926">
        <ele>1027.0</ele>
        <time>2019-08-01T07:24:12.009Z</time>
      </trkpt>
      <trkpt lat="43.036075" lon="-1.21927167">
        <ele>1026.0</ele>
        <time>2019-08-01T07:24:13.015Z</time>
      </trkpt>
      <trkpt lat="43.03608667" lon="-1.219285">
        <ele>1026.0</ele>
        <time>2019-08-01T07:24:14.023Z</time>
      </trkpt>
      <trkpt lat="43.03610167" lon="-1.21929667">
        <ele>1026.0</ele>
        <time>2019-08-01T07:24:15.030Z</time>
      </trkpt>
      <trkpt lat="43.03611167" lon="-1.219305">
        <ele>1026.0</ele>
        <time>2019-08-01T07:24:16.036Z</time>
      </trkpt>
      <trkpt lat="43.03612667" lon="-1.21931667">
        <ele>1026.0</ele>
        <time>2019-08-01T07:24:17.043Z</time>
      </trkpt>
      <trkpt lat="43.03612667" lon="-1.21931667">
        <ele>1026.0</ele>
        <time>2019-08-01T07:24:17.923Z</time>
      </trkpt>
      <trkpt lat="43.03613833" lon="-1.21932667">
        <ele>1026.0</ele>
        <time>2019-08-01T07:24:18.928Z</time>
      </trkpt>
      <trkpt lat="43.03615333" lon="-1.21933667">
        <ele>1026.0</ele>
        <time>2019-08-01T07:24:19.932Z</time>
      </trkpt>
      <trkpt lat="43.03616667" lon="-1.21934333">
        <ele>1027.0</ele>
        <time>2019-08-01T07:24:20.935Z</time>
      </trkpt>
      <trkpt lat="43.03617667" lon="-1.21935167">
        <ele>1026.0</ele>
        <time>2019-08-01T07:24:21.941Z</time>
      </trkpt>
      <trkpt lat="43.03619333" lon="-1.21936333">
        <ele>1026.0</ele>
        <time>2019-08-01T07:24:22.946Z</time>
      </trkpt>
      <trkpt lat="43.03620333" lon="-1.21937">
        <ele>1026.0</ele>
        <time>2019-08-01T07:24:23.950Z</time>
      </trkpt>
      <trkpt lat="43.03621667" lon="-1.21938">
        <ele>1026.0</ele>
        <time>2019-08-01T07:24:24.953Z</time>
      </trkpt>
      <trkpt lat="43.03624167" lon="-1.21939833">
        <ele>1026.0</ele>
        <time>2019-08-01T07:24:25.960Z</time>
      </trkpt>
      <trkpt lat="43.036255" lon="-1.21940667">
        <ele>1026.0</ele>
        <time>2019-08-01T07:24:26.966Z</time>
      </trkpt>
      <trkpt lat="43.03626833" lon="-1.21941667">
        <ele>1026.0</ele>
        <time>2019-08-01T07:24:27.973Z</time>
      </trkpt>
      <trkpt lat="43.03628167" lon="-1.219425">
        <ele>1026.0</ele>
        <time>2019-08-01T07:24:28.979Z</time>
      </trkpt>
      <trkpt lat="43.03629667" lon="-1.219435">
        <ele>1025.0</ele>
        <time>2019-08-01T07:24:29.984Z</time>
      </trkpt>
      <trkpt lat="43.03630833" lon="-1.219445">
        <ele>1025.0</ele>
        <time>2019-08-01T07:24:30.990Z</time>
      </trkpt>
      <trkpt lat="43.03632167" lon="-1.21945667">
        <ele>1025.0</ele>
        <time>2019-08-01T07:24:31.994Z</time>
      </trkpt>
      <trkpt lat="43.03633667" lon="-1.21946833">
        <ele>1025.0</ele>
        <time>2019-08-01T07:24:32.997Z</time>
      </trkpt>
      <trkpt lat="43.03635" lon="-1.21947833">
        <ele>1025.0</ele>
        <time>2019-08-01T07:24:34.000Z</time>
      </trkpt>
      <trkpt lat="43.03635833" lon="-1.21948833">
        <ele>1025.0</ele>
        <time>2019-08-01T07:24:35.006Z</time>
      </trkpt>
      <trkpt lat="43.03637333" lon="-1.2195">
        <ele>1025.0</ele>
        <time>2019-08-01T07:24:36.011Z</time>
      </trkpt>
      <trkpt lat="43.036385" lon="-1.21951167">
        <ele>1025.0</ele>
        <time>2019-08-01T07:24:37.017Z</time>
      </trkpt>
      <trkpt lat="43.03639667" lon="-1.21952333">
        <ele>1025.0</ele>
        <time>2019-08-01T07:24:38.025Z</time>
      </trkpt>
      <trkpt lat="43.03641" lon="-1.219535">
        <ele>1025.0</ele>
        <time>2019-08-01T07:24:39.031Z</time>
      </trkpt>
      <trkpt lat="43.03642" lon="-1.21954667">
        <ele>1025.0</ele>
        <time>2019-08-01T07:24:40.038Z</time>
      </trkpt>
      <trkpt lat="43.03642" lon="-1.21954667">
        <ele>1025.0</ele>
        <time>2019-08-01T07:24:40.919Z</time>
      </trkpt>
      <trkpt lat="43.03643333" lon="-1.21955833">
        <ele>1025.0</ele>
        <time>2019-08-01T07:24:41.923Z</time>
      </trkpt>
      <trkpt lat="43.036445" lon="-1.21957">
        <ele>1025.0</ele>
        <time>2019-08-01T07:24:42.929Z</time>
      </trkpt>
      <trkpt lat="43.036455" lon="-1.21958167">
        <ele>1024.0</ele>
        <time>2019-08-01T07:24:43.935Z</time>
      </trkpt>
      <trkpt lat="43.03646667" lon="-1.21959667">
        <ele>1024.0</ele>
        <time>2019-08-01T07:24:44.941Z</time>
      </trkpt>
      <trkpt lat="43.03647667" lon="-1.21960833">
        <ele>1024.0</ele>
        <time>2019-08-01T07:24:45.946Z</time>
      </trkpt>
      <trkpt lat="43.03648667" lon="-1.21962">
        <ele>1024.0</ele>
        <time>2019-08-01T07:24:46.952Z</time>
      </trkpt>
      <trkpt lat="43.03650167" lon="-1.21963333">
        <ele>1024.0</ele>
        <time>2019-08-01T07:24:47.957Z</time>
      </trkpt>
      <trkpt lat="43.03652667" lon="-1.21965167">
        <ele>1025.0</ele>
        <time>2019-08-01T07:24:48.962Z</time>
      </trkpt>
      <trkpt lat="43.03654" lon="-1.21966">
        <ele>1025.0</ele>
        <time>2019-08-01T07:24:49.968Z</time>
      </trkpt>
      <trkpt lat="43.03655167" lon="-1.21967">
        <ele>1025.0</ele>
        <time>2019-08-01T07:24:50.974Z</time>
      </trkpt>
      <trkpt lat="43.03656167" lon="-1.21968">
        <ele>1026.0</ele>
        <time>2019-08-01T07:24:51.982Z</time>
      </trkpt>
      <trkpt lat="43.036575" lon="-1.21968833">
        <ele>1026.0</ele>
        <time>2019-08-01T07:24:52.986Z</time>
      </trkpt>
      <trkpt lat="43.03658833" lon="-1.21969833">
        <ele>1026.0</ele>
        <time>2019-08-01T07:24:53.993Z</time>
      </trkpt>
      <trkpt lat="43.0366" lon="-1.21970667">
        <ele>1026.0</ele>
        <time>2019-08-01T07:24:54.999Z</time>
      </trkpt>
      <trkpt lat="43.03661333" lon="-1.21971667">
        <ele>1026.0</ele>
        <time>2019-08-01T07:24:56.005Z</time>
      </trkpt>
      <trkpt lat="43.036625" lon="-1.219725">
        <ele>1027.0</ele>
        <time>2019-08-01T07:24:57.011Z</time>
      </trkpt>
      <trkpt lat="43.03663667" lon="-1.219735">
        <ele>1027.0</ele>
        <time>2019-08-01T07:24:58.015Z</time>
      </trkpt>
      <trkpt lat="43.03664833" lon="-1.21974333">
        <ele>1027.0</ele>
        <time>2019-08-01T07:24:59.023Z</time>
      </trkpt>
      <trkpt lat="43.03666" lon="-1.21975">
        <ele>1027.0</ele>
        <time>2019-08-01T07:25:00.030Z</time>
      </trkpt>
      <trkpt lat="43.03667333" lon="-1.21976">
        <ele>1027.0</ele>
        <time>2019-08-01T07:25:01.036Z</time>
      </trkpt>
      <trkpt lat="43.03668333" lon="-1.21977">
        <ele>1027.0</ele>
        <time>2019-08-01T07:25:02.042Z</time>
      </trkpt>
      <trkpt lat="43.03668333" lon="-1.21977">
        <ele>1027.0</ele>
        <time>2019-08-01T07:25:02.924Z</time>
      </trkpt>
      <trkpt lat="43.03669333" lon="-1.21978333">
        <ele>1027.0</ele>
        <time>2019-08-01T07:25:03.930Z</time>
      </trkpt>
      <trkpt lat="43.036705" lon="-1.21979667">
        <ele>1027.0</ele>
        <time>2019-08-01T07:25:04.936Z</time>
      </trkpt>
      <trkpt lat="43.036715" lon="-1.21981">
        <ele>1026.0</ele>
        <time>2019-08-01T07:25:05.941Z</time>
      </trkpt>
      <trkpt lat="43.03672667" lon="-1.21982167">
        <ele>1026.0</ele>
        <time>2019-08-01T07:25:06.948Z</time>
      </trkpt>
      <trkpt lat="43.03674" lon="-1.21982833">
        <ele>1026.0</ele>
        <time>2019-08-01T07:25:07.953Z</time>
      </trkpt>
      <trkpt lat="43.03675167" lon="-1.21983667">
        <ele>1026.0</ele>
        <time>2019-08-01T07:25:08.959Z</time>
      </trkpt>
      <trkpt lat="43.036775" lon="-1.21985667">
        <ele>1025.0</ele>
        <time>2019-08-01T07:25:09.965Z</time>
      </trkpt>
      <trkpt lat="43.03678833" lon="-1.21986833">
        <ele>1025.0</ele>
        <time>2019-08-01T07:25:10.970Z</time>
      </trkpt>
      <trkpt lat="43.0368" lon="-1.21987833">
        <ele>1026.0</ele>
        <time>2019-08-01T07:25:11.976Z</time>
      </trkpt>
      <trkpt lat="43.03681" lon="-1.21989">
        <ele>1026.0</ele>
        <time>2019-08-01T07:25:12.981Z</time>
      </trkpt>
      <trkpt lat="43.03682167" lon="-1.21990167">
        <ele>1026.0</ele>
        <time>2019-08-01T07:25:13.985Z</time>
      </trkpt>
      <trkpt lat="43.03683167" lon="-1.21991333">
        <ele>1026.0</ele>
        <time>2019-08-01T07:25:14.991Z</time>
      </trkpt>
      <trkpt lat="43.03684333" lon="-1.219925">
        <ele>1027.0</ele>
        <time>2019-08-01T07:25:15.994Z</time>
      </trkpt>
      <trkpt lat="43.036855" lon="-1.219935">
        <ele>1027.0</ele>
        <time>2019-08-01T07:25:16.999Z</time>
      </trkpt>
      <trkpt lat="43.036865" lon="-1.21994667">
        <ele>1027.0</ele>
        <time>2019-08-01T07:25:18.004Z</time>
      </trkpt>
      <trkpt lat="43.036875" lon="-1.21995667">
        <ele>1028.0</ele>
        <time>2019-08-01T07:25:19.009Z</time>
      </trkpt>
      <trkpt lat="43.036885" lon="-1.21996833">
        <ele>1028.0</ele>
        <time>2019-08-01T07:25:20.015Z</time>
      </trkpt>
      <trkpt lat="43.036895" lon="-1.21998333">
        <ele>1028.0</ele>
        <time>2019-08-01T07:25:21.021Z</time>
      </trkpt>
      <trkpt lat="43.036905" lon="-1.21999333">
        <ele>1028.0</ele>
        <time>2019-08-01T07:25:22.027Z</time>
      </trkpt>
      <trkpt lat="43.03691667" lon="-1.220005">
        <ele>1028.0</ele>
        <time>2019-08-01T07:25:23.034Z</time>
      </trkpt>
      <trkpt lat="43.03693" lon="-1.22001333">
        <ele>1028.0</ele>
        <time>2019-08-01T07:25:24.041Z</time>
      </trkpt>
      <trkpt lat="43.03693" lon="-1.22001333">
        <ele>1028.0</ele>
        <time>2019-08-01T07:25:24.921Z</time>
      </trkpt>
      <trkpt lat="43.03694" lon="-1.22002167">
        <ele>1028.0</ele>
        <time>2019-08-01T07:25:25.928Z</time>
      </trkpt>
      <trkpt lat="43.03695167" lon="-1.22002833">
        <ele>1028.0</ele>
        <time>2019-08-01T07:25:26.934Z</time>
      </trkpt>
      <trkpt lat="43.036965" lon="-1.22003667">
        <ele>1028.0</ele>
        <time>2019-08-01T07:25:27.941Z</time>
      </trkpt>
      <trkpt lat="43.03697667" lon="-1.220045">
        <ele>1028.0</ele>
        <time>2019-08-01T07:25:28.948Z</time>
      </trkpt>
      <trkpt lat="43.03698833" lon="-1.22005333">
        <ele>1028.0</ele>
        <time>2019-08-01T07:25:29.954Z</time>
      </trkpt>
      <trkpt lat="43.03700167" lon="-1.220065">
        <ele>1029.0</ele>
        <time>2019-08-01T07:25:30.958Z</time>
      </trkpt>
      <trkpt lat="43.03702333" lon="-1.22008">
        <ele>1029.0</ele>
        <time>2019-08-01T07:25:31.964Z</time>
      </trkpt>
      <trkpt lat="43.03703333" lon="-1.22008833">
        <ele>1029.0</ele>
        <time>2019-08-01T07:25:32.968Z</time>
      </trkpt>
      <trkpt lat="43.037045" lon="-1.22009833">
        <ele>1029.0</ele>
        <time>2019-08-01T07:25:33.971Z</time>
      </trkpt>
      <trkpt lat="43.037055" lon="-1.22011167">
        <ele>1030.0</ele>
        <time>2019-08-01T07:25:34.977Z</time>
      </trkpt>
      <trkpt lat="43.03706833" lon="-1.22012333">
        <ele>1030.0</ele>
        <time>2019-08-01T07:25:35.982Z</time>
      </trkpt>
      <trkpt lat="43.03707833" lon="-1.220135">
        <ele>1029.0</ele>
        <time>2019-08-01T07:25:36.986Z</time>
      </trkpt>
      <trkpt lat="43.03709167" lon="-1.220145">
        <ele>1030.0</ele>
        <time>2019-08-01T07:25:37.993Z</time>
      </trkpt>
      <trkpt lat="43.037105" lon="-1.22015167">
        <ele>1030.0</ele>
        <time>2019-08-01T07:25:38.998Z</time>
      </trkpt>
      <trkpt lat="43.03711833" lon="-1.220155">
        <ele>1030.0</ele>
        <time>2019-08-01T07:25:40.006Z</time>
      </trkpt>
      <trkpt lat="43.03713167" lon="-1.22016333">
        <ele>1030.0</ele>
        <time>2019-08-01T07:25:41.011Z</time>
      </trkpt>
      <trkpt lat="43.037145" lon="-1.22017333">
        <ele>1030.0</ele>
        <time>2019-08-01T07:25:42.016Z</time>
      </trkpt>
      <trkpt lat="43.03715833" lon="-1.22018333">
        <ele>1031.0</ele>
        <time>2019-08-01T07:25:43.024Z</time>
      </trkpt>
      <trkpt lat="43.03717167" lon="-1.22019167">
        <ele>1031.0</ele>
        <time>2019-08-01T07:25:44.031Z</time>
      </trkpt>
      <trkpt lat="43.037185" lon="-1.220195">
        <ele>1030.0</ele>
        <time>2019-08-01T07:25:45.037Z</time>
      </trkpt>
      <trkpt lat="43.0372" lon="-1.2202">
        <ele>1030.0</ele>
        <time>2019-08-01T07:25:46.041Z</time>
      </trkpt>
      <trkpt lat="43.0372" lon="-1.2202">
        <ele>1030.0</ele>
        <time>2019-08-01T07:25:46.922Z</time>
      </trkpt>
      <trkpt lat="43.03721333" lon="-1.22020667">
        <ele>1030.0</ele>
        <time>2019-08-01T07:25:47.928Z</time>
      </trkpt>
      <trkpt lat="43.037225" lon="-1.22021167">
        <ele>1030.0</ele>
        <time>2019-08-01T07:25:48.934Z</time>
      </trkpt>
      <trkpt lat="43.03723833" lon="-1.22022167">
        <ele>1030.0</ele>
        <time>2019-08-01T07:25:49.939Z</time>
      </trkpt>
      <trkpt lat="43.03725" lon="-1.22023333">
        <ele>1030.0</ele>
        <time>2019-08-01T07:25:50.943Z</time>
      </trkpt>
      <trkpt lat="43.03726333" lon="-1.22024167">
        <ele>1030.0</ele>
        <time>2019-08-01T07:25:51.949Z</time>
      </trkpt>
      <trkpt lat="43.03727667" lon="-1.22024833">
        <ele>1030.0</ele>
        <time>2019-08-01T07:25:52.957Z</time>
      </trkpt>
      <trkpt lat="43.0373" lon="-1.22026833">
        <ele>1030.0</ele>
        <time>2019-08-01T07:25:53.964Z</time>
      </trkpt>
      <trkpt lat="43.0373" lon="-1.22026833">
        <ele>1030.0</ele>
        <time>2019-08-01T07:25:54.968Z</time>
      </trkpt>
      <trkpt lat="43.03732333" lon="-1.22028833">
        <ele>1030.0</ele>
        <time>2019-08-01T07:25:55.974Z</time>
      </trkpt>
      <trkpt lat="43.03733333" lon="-1.22029667">
        <ele>1031.0</ele>
        <time>2019-08-01T07:25:56.980Z</time>
      </trkpt>
      <trkpt lat="43.03734833" lon="-1.220305">
        <ele>1031.0</ele>
        <time>2019-08-01T07:25:57.986Z</time>
      </trkpt>
      <trkpt lat="43.03736" lon="-1.220315">
        <ele>1031.0</ele>
        <time>2019-08-01T07:25:58.992Z</time>
      </trkpt>
      <trkpt lat="43.03737333" lon="-1.22032333">
        <ele>1031.0</ele>
        <time>2019-08-01T07:25:59.997Z</time>
      </trkpt>
      <trkpt lat="43.037385" lon="-1.22032667">
        <ele>1031.0</ele>
        <time>2019-08-01T07:26:01.004Z</time>
      </trkpt>
      <trkpt lat="43.03739667" lon="-1.22033167">
        <ele>1031.0</ele>
        <time>2019-08-01T07:26:02.009Z</time>
      </trkpt>
      <trkpt lat="43.03741167" lon="-1.22034167">
        <ele>1031.0</ele>
        <time>2019-08-01T07:26:03.015Z</time>
      </trkpt>
      <trkpt lat="43.03742333" lon="-1.22035167">
        <ele>1031.0</ele>
        <time>2019-08-01T07:26:04.021Z</time>
      </trkpt>
      <trkpt lat="43.03743667" lon="-1.22036">
        <ele>1031.0</ele>
        <time>2019-08-01T07:26:05.029Z</time>
      </trkpt>
      <trkpt lat="43.03744833" lon="-1.220365">
        <ele>1031.0</ele>
        <time>2019-08-01T07:26:06.034Z</time>
      </trkpt>
      <trkpt lat="43.03745667" lon="-1.22037167">
        <ele>1031.0</ele>
        <time>2019-08-01T07:26:07.039Z</time>
      </trkpt>
      <trkpt lat="43.03746833" lon="-1.22038">
        <ele>1031.0</ele>
        <time>2019-08-01T07:26:08.043Z</time>
      </trkpt>
      <trkpt lat="43.03746833" lon="-1.22038">
        <ele>1031.0</ele>
        <time>2019-08-01T07:26:08.922Z</time>
      </trkpt>
      <trkpt lat="43.03747833" lon="-1.22038667">
        <ele>1032.0</ele>
        <time>2019-08-01T07:26:09.927Z</time>
      </trkpt>
      <trkpt lat="43.03749333" lon="-1.22039667">
        <ele>1032.0</ele>
        <time>2019-08-01T07:26:10.933Z</time>
      </trkpt>
      <trkpt lat="43.037505" lon="-1.22040333">
        <ele>1032.0</ele>
        <time>2019-08-01T07:26:11.938Z</time>
      </trkpt>
      <trkpt lat="43.03751833" lon="-1.22041167">
        <ele>1032.0</ele>
        <time>2019-08-01T07:26:12.945Z</time>
      </trkpt>
      <trkpt lat="43.03752833" lon="-1.22042">
        <ele>1033.0</ele>
        <time>2019-08-01T07:26:13.951Z</time>
      </trkpt>
      <trkpt lat="43.03753833" lon="-1.22043">
        <ele>1033.0</ele>
        <time>2019-08-01T07:26:14.957Z</time>
      </trkpt>
      <trkpt lat="43.03755" lon="-1.22044167">
        <ele>1033.0</ele>
        <time>2019-08-01T07:26:15.963Z</time>
      </trkpt>
      <trkpt lat="43.03757833" lon="-1.22046">
        <ele>1033.0</ele>
        <time>2019-08-01T07:26:16.967Z</time>
      </trkpt>
      <trkpt lat="43.03758667" lon="-1.22046667">
        <ele>1033.0</ele>
        <time>2019-08-01T07:26:17.972Z</time>
      </trkpt>
      <trkpt lat="43.03759833" lon="-1.22047833">
        <ele>1034.0</ele>
        <time>2019-08-01T07:26:18.979Z</time>
      </trkpt>
      <trkpt lat="43.03761167" lon="-1.22049">
        <ele>1034.0</ele>
        <time>2019-08-01T07:26:19.984Z</time>
      </trkpt>
      <trkpt lat="43.03762333" lon="-1.22050167">
        <ele>1035.0</ele>
        <time>2019-08-01T07:26:20.991Z</time>
      </trkpt>
      <trkpt lat="43.03763167" lon="-1.22050833">
        <ele>1035.0</ele>
        <time>2019-08-01T07:26:21.996Z</time>
      </trkpt>
      <trkpt lat="43.037645" lon="-1.22051833">
        <ele>1035.0</ele>
        <time>2019-08-01T07:26:23.001Z</time>
      </trkpt>
      <trkpt lat="43.037655" lon="-1.22052667">
        <ele>1035.0</ele>
        <time>2019-08-01T07:26:24.009Z</time>
      </trkpt>
      <trkpt lat="43.03766333" lon="-1.22053333">
        <ele>1035.0</ele>
        <time>2019-08-01T07:26:25.014Z</time>
      </trkpt>
      <trkpt lat="43.037675" lon="-1.22054">
        <ele>1035.0</ele>
        <time>2019-08-01T07:26:26.020Z</time>
      </trkpt>
      <trkpt lat="43.03768833" lon="-1.22054833">
        <ele>1036.0</ele>
        <time>2019-08-01T07:26:27.024Z</time>
      </trkpt>
      <trkpt lat="43.03770167" lon="-1.22055333">
        <ele>1036.0</ele>
        <time>2019-08-01T07:26:28.029Z</time>
      </trkpt>
      <trkpt lat="43.03771667" lon="-1.22056333">
        <ele>1036.0</ele>
        <time>2019-08-01T07:26:29.033Z</time>
      </trkpt>
      <trkpt lat="43.03772833" lon="-1.220575">
        <ele>1037.0</ele>
        <time>2019-08-01T07:26:30.039Z</time>
      </trkpt>
      <trkpt lat="43.03772833" lon="-1.220575">
        <ele>1037.0</ele>
        <time>2019-08-01T07:26:30.918Z</time>
      </trkpt>
      <trkpt lat="43.03774" lon="-1.220585">
        <ele>1037.0</ele>
        <time>2019-08-01T07:26:31.924Z</time>
      </trkpt>
      <trkpt lat="43.03775167" lon="-1.22059">
        <ele>1037.0</ele>
        <time>2019-08-01T07:26:32.928Z</time>
      </trkpt>
      <trkpt lat="43.03776333" lon="-1.22059667">
        <ele>1037.0</ele>
        <time>2019-08-01T07:26:33.935Z</time>
      </trkpt>
      <trkpt lat="43.03778" lon="-1.22060167">
        <ele>1037.0</ele>
        <time>2019-08-01T07:26:34.941Z</time>
      </trkpt>
      <trkpt lat="43.03779167" lon="-1.22060833">
        <ele>1037.0</ele>
        <time>2019-08-01T07:26:35.948Z</time>
      </trkpt>
      <trkpt lat="43.03780167" lon="-1.22061333">
        <ele>1038.0</ele>
        <time>2019-08-01T07:26:36.952Z</time>
      </trkpt>
      <trkpt lat="43.03781167" lon="-1.22062333">
        <ele>1038.0</ele>
        <time>2019-08-01T07:26:37.957Z</time>
      </trkpt>
      <trkpt lat="43.03782333" lon="-1.22063333">
        <ele>1037.0</ele>
        <time>2019-08-01T07:26:38.963Z</time>
      </trkpt>
      <trkpt lat="43.03785" lon="-1.22065167">
        <ele>1038.0</ele>
        <time>2019-08-01T07:26:39.968Z</time>
      </trkpt>
      <trkpt lat="43.03786333" lon="-1.22065833">
        <ele>1037.0</ele>
        <time>2019-08-01T07:26:40.973Z</time>
      </trkpt>
      <trkpt lat="43.03787333" lon="-1.220665">
        <ele>1037.0</ele>
        <time>2019-08-01T07:26:41.978Z</time>
      </trkpt>
      <trkpt lat="43.037885" lon="-1.22067333">
        <ele>1037.0</ele>
        <time>2019-08-01T07:26:42.985Z</time>
      </trkpt>
      <trkpt lat="43.0379" lon="-1.220685">
        <ele>1037.0</ele>
        <time>2019-08-01T07:26:43.992Z</time>
      </trkpt>
      <trkpt lat="43.03791" lon="-1.22069333">
        <ele>1038.0</ele>
        <time>2019-08-01T07:26:44.999Z</time>
      </trkpt>
      <trkpt lat="43.037925" lon="-1.22070167">
        <ele>1038.0</ele>
        <time>2019-08-01T07:26:46.004Z</time>
      </trkpt>
      <trkpt lat="43.03793833" lon="-1.22071167">
        <ele>1038.0</ele>
        <time>2019-08-01T07:26:47.009Z</time>
      </trkpt>
      <trkpt lat="43.03794833" lon="-1.22071833">
        <ele>1038.0</ele>
        <time>2019-08-01T07:26:48.013Z</time>
      </trkpt>
      <trkpt lat="43.03796167" lon="-1.22072833">
        <ele>1038.0</ele>
        <time>2019-08-01T07:26:49.017Z</time>
      </trkpt>
      <trkpt lat="43.03797333" lon="-1.22074167">
        <ele>1038.0</ele>
        <time>2019-08-01T07:26:50.023Z</time>
      </trkpt>
      <trkpt lat="43.03798" lon="-1.22075167">
        <ele>1038.0</ele>
        <time>2019-08-01T07:26:51.030Z</time>
      </trkpt>
      <trkpt lat="43.03799333" lon="-1.220765">
        <ele>1038.0</ele>
        <time>2019-08-01T07:26:52.036Z</time>
      </trkpt>
      <trkpt lat="43.038005" lon="-1.22077333">
        <ele>1038.0</ele>
        <time>2019-08-01T07:26:53.042Z</time>
      </trkpt>
      <trkpt lat="43.038005" lon="-1.22077333">
        <ele>1038.0</ele>
        <time>2019-08-01T07:26:53.920Z</time>
      </trkpt>
      <trkpt lat="43.03801667" lon="-1.220785">
        <ele>1038.0</ele>
        <time>2019-08-01T07:26:54.926Z</time>
      </trkpt>
      <trkpt lat="43.03803" lon="-1.22079667">
        <ele>1038.0</ele>
        <time>2019-08-01T07:26:55.931Z</time>
      </trkpt>
      <trkpt lat="43.03804167" lon="-1.22080833">
        <ele>1038.0</ele>
        <time>2019-08-01T07:26:56.935Z</time>
      </trkpt>
      <trkpt lat="43.038055" lon="-1.22082">
        <ele>1039.0</ele>
        <time>2019-08-01T07:26:57.942Z</time>
      </trkpt>
      <trkpt lat="43.03806333" lon="-1.22082833">
        <ele>1039.0</ele>
        <time>2019-08-01T07:26:58.948Z</time>
      </trkpt>
      <trkpt lat="43.03807833" lon="-1.22084333">
        <ele>1039.0</ele>
        <time>2019-08-01T07:26:59.954Z</time>
      </trkpt>
      <trkpt lat="43.03809" lon="-1.22085333">
        <ele>1039.0</ele>
        <time>2019-08-01T07:27:00.960Z</time>
      </trkpt>
      <trkpt lat="43.03809833" lon="-1.22086167">
        <ele>1039.0</ele>
        <time>2019-08-01T07:27:01.966Z</time>
      </trkpt>
      <trkpt lat="43.03812667" lon="-1.22087833">
        <ele>1039.0</ele>
        <time>2019-08-01T07:27:02.970Z</time>
      </trkpt>
      <trkpt lat="43.03813667" lon="-1.22088167">
        <ele>1039.0</ele>
        <time>2019-08-01T07:27:03.975Z</time>
      </trkpt>
      <trkpt lat="43.03815333" lon="-1.22089167">
        <ele>1038.0</ele>
        <time>2019-08-01T07:27:04.982Z</time>
      </trkpt>
      <trkpt lat="43.038165" lon="-1.22089833">
        <ele>1038.0</ele>
        <time>2019-08-01T07:27:05.988Z</time>
      </trkpt>
      <trkpt lat="43.03817667" lon="-1.220905">
        <ele>1038.0</ele>
        <time>2019-08-01T07:27:06.993Z</time>
      </trkpt>
      <trkpt lat="43.03818833" lon="-1.220915">
        <ele>1037.0</ele>
        <time>2019-08-01T07:27:07.995Z</time>
      </trkpt>
      <trkpt lat="43.0382" lon="-1.22092333">
        <ele>1037.0</ele>
        <time>2019-08-01T07:27:09.000Z</time>
      </trkpt>
      <trkpt lat="43.03821333" lon="-1.22093">
        <ele>1037.0</ele>
        <time>2019-08-01T07:27:10.004Z</time>
      </trkpt>
      <trkpt lat="43.03822167" lon="-1.220945">
        <ele>1037.0</ele>
        <time>2019-08-01T07:27:11.011Z</time>
      </trkpt>
      <trkpt lat="43.03823167" lon="-1.22096">
        <ele>1037.0</ele>
        <time>2019-08-01T07:27:12.017Z</time>
      </trkpt>
      <trkpt lat="43.03823833" lon="-1.22098">
        <ele>1037.0</ele>
        <time>2019-08-01T07:27:13.025Z</time>
      </trkpt>
      <trkpt lat="43.03824667" lon="-1.220995">
        <ele>1037.0</ele>
        <time>2019-08-01T07:27:14.031Z</time>
      </trkpt>
      <trkpt lat="43.03825833" lon="-1.22100833">
        <ele>1037.0</ele>
        <time>2019-08-01T07:27:15.037Z</time>
      </trkpt>
      <trkpt lat="43.03825833" lon="-1.22100833">
        <ele>1037.0</ele>
        <time>2019-08-01T07:27:15.918Z</time>
      </trkpt>
      <trkpt lat="43.03827" lon="-1.22102167">
        <ele>1037.0</ele>
        <time>2019-08-01T07:27:16.924Z</time>
      </trkpt>
      <trkpt lat="43.03828333" lon="-1.22103333">
        <ele>1037.0</ele>
        <time>2019-08-01T07:27:17.926Z</time>
      </trkpt>
      <trkpt lat="43.03829667" lon="-1.221045">
        <ele>1037.0</ele>
        <time>2019-08-01T07:27:18.930Z</time>
      </trkpt>
      <trkpt lat="43.03830833" lon="-1.22105667">
        <ele>1037.0</ele>
        <time>2019-08-01T07:27:19.937Z</time>
      </trkpt>
      <trkpt lat="43.03831667" lon="-1.22106333">
        <ele>1037.0</ele>
        <time>2019-08-01T07:27:20.943Z</time>
      </trkpt>
      <trkpt lat="43.03833167" lon="-1.221075">
        <ele>1037.0</ele>
        <time>2019-08-01T07:27:21.948Z</time>
      </trkpt>
      <trkpt lat="43.03834167" lon="-1.221085">
        <ele>1036.0</ele>
        <time>2019-08-01T07:27:22.951Z</time>
      </trkpt>
      <trkpt lat="43.03835667" lon="-1.221095">
        <ele>1036.0</ele>
        <time>2019-08-01T07:27:23.958Z</time>
      </trkpt>
      <trkpt lat="43.03837" lon="-1.22110333">
        <ele>1036.0</ele>
        <time>2019-08-01T07:27:24.966Z</time>
      </trkpt>
      <trkpt lat="43.038385" lon="-1.22111167">
        <ele>1036.0</ele>
        <time>2019-08-01T07:27:25.970Z</time>
      </trkpt>
      <trkpt lat="43.03841167" lon="-1.22113">
        <ele>1037.0</ele>
        <time>2019-08-01T07:27:26.976Z</time>
      </trkpt>
      <trkpt lat="43.03842167" lon="-1.22114167">
        <ele>1037.0</ele>
        <time>2019-08-01T07:27:27.982Z</time>
      </trkpt>
      <trkpt lat="43.03843333" lon="-1.221155">
        <ele>1037.0</ele>
        <time>2019-08-01T07:27:28.988Z</time>
      </trkpt>
      <trkpt lat="43.03844333" lon="-1.22116667">
        <ele>1037.0</ele>
        <time>2019-08-01T07:27:29.995Z</time>
      </trkpt>
      <trkpt lat="43.03845667" lon="-1.221175">
        <ele>1038.0</ele>
        <time>2019-08-01T07:27:31.001Z</time>
      </trkpt>
      <trkpt lat="43.03846833" lon="-1.22118667">
        <ele>1038.0</ele>
        <time>2019-08-01T07:27:32.008Z</time>
      </trkpt>
      <trkpt lat="43.03848" lon="-1.221195">
        <ele>1038.0</ele>
        <time>2019-08-01T07:27:33.012Z</time>
      </trkpt>
      <trkpt lat="43.03849" lon="-1.2212">
        <ele>1038.0</ele>
        <time>2019-08-01T07:27:34.019Z</time>
      </trkpt>
      <trkpt lat="43.03850333" lon="-1.22120833">
        <ele>1038.0</ele>
        <time>2019-08-01T07:27:35.025Z</time>
      </trkpt>
      <trkpt lat="43.038515" lon="-1.22121667">
        <ele>1038.0</ele>
        <time>2019-08-01T07:27:36.032Z</time>
      </trkpt>
      <trkpt lat="43.038525" lon="-1.22122667">
        <ele>1039.0</ele>
        <time>2019-08-01T07:27:37.037Z</time>
      </trkpt>
      <trkpt lat="43.038525" lon="-1.22122667">
        <ele>1039.0</ele>
        <time>2019-08-01T07:27:37.918Z</time>
      </trkpt>
      <trkpt lat="43.03853667" lon="-1.22123833">
        <ele>1039.0</ele>
        <time>2019-08-01T07:27:38.924Z</time>
      </trkpt>
      <trkpt lat="43.03855" lon="-1.22125167">
        <ele>1039.0</ele>
        <time>2019-08-01T07:27:39.929Z</time>
      </trkpt>
      <trkpt lat="43.03856167" lon="-1.221265">
        <ele>1039.0</ele>
        <time>2019-08-01T07:27:40.934Z</time>
      </trkpt>
      <trkpt lat="43.03857167" lon="-1.22127667">
        <ele>1039.0</ele>
        <time>2019-08-01T07:27:41.940Z</time>
      </trkpt>
      <trkpt lat="43.03858333" lon="-1.22129">
        <ele>1038.0</ele>
        <time>2019-08-01T07:27:42.944Z</time>
      </trkpt>
      <trkpt lat="43.038595" lon="-1.2213">
        <ele>1038.0</ele>
        <time>2019-08-01T07:27:43.951Z</time>
      </trkpt>
      <trkpt lat="43.03860833" lon="-1.22131">
        <ele>1039.0</ele>
        <time>2019-08-01T07:27:44.959Z</time>
      </trkpt>
      <trkpt lat="43.03863167" lon="-1.221335">
        <ele>1040.0</ele>
        <time>2019-08-01T07:27:45.966Z</time>
      </trkpt>
      <trkpt lat="43.03864167" lon="-1.22134667">
        <ele>1040.0</ele>
        <time>2019-08-01T07:27:46.971Z</time>
      </trkpt>
      <trkpt lat="43.03865333" lon="-1.22135833">
        <ele>1040.0</ele>
        <time>2019-08-01T07:27:47.977Z</time>
      </trkpt>
      <trkpt lat="43.038665" lon="-1.22137">
        <ele>1040.0</ele>
        <time>2019-08-01T07:27:48.984Z</time>
      </trkpt>
      <trkpt lat="43.03867667" lon="-1.22138">
        <ele>1040.0</ele>
        <time>2019-08-01T07:27:49.989Z</time>
      </trkpt>
      <trkpt lat="43.03868833" lon="-1.221395">
        <ele>1040.0</ele>
        <time>2019-08-01T07:27:50.995Z</time>
      </trkpt>
      <trkpt lat="43.03869833" lon="-1.22140833">
        <ele>1039.0</ele>
        <time>2019-08-01T07:27:52.002Z</time>
      </trkpt>
      <trkpt lat="43.03870833" lon="-1.22142333">
        <ele>1039.0</ele>
        <time>2019-08-01T07:27:53.008Z</time>
      </trkpt>
      <trkpt lat="43.03871833" lon="-1.22143667">
        <ele>1038.0</ele>
        <time>2019-08-01T07:27:54.013Z</time>
      </trkpt>
      <trkpt lat="43.03872833" lon="-1.22145167">
        <ele>1038.0</ele>
        <time>2019-08-01T07:27:55.020Z</time>
      </trkpt>
      <trkpt lat="43.03873667" lon="-1.221465">
        <ele>1038.0</ele>
        <time>2019-08-01T07:27:56.025Z</time>
      </trkpt>
      <trkpt lat="43.03874833" lon="-1.22148">
        <ele>1038.0</ele>
        <time>2019-08-01T07:27:57.031Z</time>
      </trkpt>
      <trkpt lat="43.03875833" lon="-1.22149667">
        <ele>1038.0</ele>
        <time>2019-08-01T07:27:58.038Z</time>
      </trkpt>
      <trkpt lat="43.03875833" lon="-1.22149667">
        <ele>1038.0</ele>
        <time>2019-08-01T07:27:58.919Z</time>
      </trkpt>
      <trkpt lat="43.03876667" lon="-1.22151333">
        <ele>1038.0</ele>
        <time>2019-08-01T07:27:59.923Z</time>
      </trkpt>
      <trkpt lat="43.03877167" lon="-1.22152833">
        <ele>1039.0</ele>
        <time>2019-08-01T07:28:00.928Z</time>
      </trkpt>
      <trkpt lat="43.03877833" lon="-1.221545">
        <ele>1039.0</ele>
        <time>2019-08-01T07:28:01.934Z</time>
      </trkpt>
      <trkpt lat="43.03878333" lon="-1.22156167">
        <ele>1039.0</ele>
        <time>2019-08-01T07:28:02.939Z</time>
      </trkpt>
      <trkpt lat="43.03878833" lon="-1.22157667">
        <ele>1039.0</ele>
        <time>2019-08-01T07:28:03.942Z</time>
      </trkpt>
      <trkpt lat="43.03879167" lon="-1.221595">
        <ele>1039.0</ele>
        <time>2019-08-01T07:28:04.947Z</time>
      </trkpt>
      <trkpt lat="43.03879333" lon="-1.22160833">
        <ele>1040.0</ele>
        <time>2019-08-01T07:28:05.952Z</time>
      </trkpt>
      <trkpt lat="43.03879333" lon="-1.221625">
        <ele>1040.0</ele>
        <time>2019-08-01T07:28:06.958Z</time>
      </trkpt>
      <trkpt lat="43.03879333" lon="-1.221645">
        <ele>1040.0</ele>
        <time>2019-08-01T07:28:07.964Z</time>
      </trkpt>
      <trkpt lat="43.03878667" lon="-1.22167833">
        <ele>1040.0</ele>
        <time>2019-08-01T07:28:08.969Z</time>
      </trkpt>
      <trkpt lat="43.03878333" lon="-1.22169667">
        <ele>1041.0</ele>
        <time>2019-08-01T07:28:09.974Z</time>
      </trkpt>
      <trkpt lat="43.03878" lon="-1.22171167">
        <ele>1041.0</ele>
        <time>2019-08-01T07:28:10.980Z</time>
      </trkpt>
      <trkpt lat="43.038775" lon="-1.22173">
        <ele>1042.0</ele>
        <time>2019-08-01T07:28:11.985Z</time>
      </trkpt>
      <trkpt lat="43.03876833" lon="-1.22174167">
        <ele>1042.0</ele>
        <time>2019-08-01T07:28:12.991Z</time>
      </trkpt>
      <trkpt lat="43.03876" lon="-1.22175667">
        <ele>1042.0</ele>
        <time>2019-08-01T07:28:13.997Z</time>
      </trkpt>
      <trkpt lat="43.03875167" lon="-1.22177167">
        <ele>1042.0</ele>
        <time>2019-08-01T07:28:15.002Z</time>
      </trkpt>
      <trkpt lat="43.03874167" lon="-1.22178833">
        <ele>1043.0</ele>
        <time>2019-08-01T07:28:16.009Z</time>
      </trkpt>
      <trkpt lat="43.03873333" lon="-1.22180667">
        <ele>1043.0</ele>
        <time>2019-08-01T07:28:17.014Z</time>
      </trkpt>
      <trkpt lat="43.03872333" lon="-1.22182333">
        <ele>1043.0</ele>
        <time>2019-08-01T07:28:18.020Z</time>
      </trkpt>
      <trkpt lat="43.038715" lon="-1.22183667">
        <ele>1043.0</ele>
        <time>2019-08-01T07:28:19.027Z</time>
      </trkpt>
      <trkpt lat="43.03870333" lon="-1.22185333">
        <ele>1044.0</ele>
        <time>2019-08-01T07:28:20.035Z</time>
      </trkpt>
      <trkpt lat="43.038695" lon="-1.22186833">
        <ele>1044.0</ele>
        <time>2019-08-01T07:28:21.042Z</time>
      </trkpt>
      <trkpt lat="43.038695" lon="-1.22186833">
        <ele>1044.0</ele>
        <time>2019-08-01T07:28:21.923Z</time>
      </trkpt>
      <trkpt lat="43.03868833" lon="-1.22188333">
        <ele>1044.0</ele>
        <time>2019-08-01T07:28:22.927Z</time>
      </trkpt>
      <trkpt lat="43.03868167" lon="-1.221895">
        <ele>1044.0</ele>
        <time>2019-08-01T07:28:23.933Z</time>
      </trkpt>
      <trkpt lat="43.038675" lon="-1.22191">
        <ele>1044.0</ele>
        <time>2019-08-01T07:28:24.937Z</time>
      </trkpt>
      <trkpt lat="43.038665" lon="-1.221925">
        <ele>1044.0</ele>
        <time>2019-08-01T07:28:25.943Z</time>
      </trkpt>
      <trkpt lat="43.038655" lon="-1.22194333">
        <ele>1044.0</ele>
        <time>2019-08-01T07:28:26.948Z</time>
      </trkpt>
      <trkpt lat="43.03864667" lon="-1.22196">
        <ele>1044.0</ele>
        <time>2019-08-01T07:28:27.955Z</time>
      </trkpt>
      <trkpt lat="43.03864" lon="-1.22197333">
        <ele>1045.0</ele>
        <time>2019-08-01T07:28:28.961Z</time>
      </trkpt>
      <trkpt lat="43.03861833" lon="-1.222005">
        <ele>1046.0</ele>
        <time>2019-08-01T07:28:29.968Z</time>
      </trkpt>
      <trkpt lat="43.03861167" lon="-1.22201667">
        <ele>1046.0</ele>
        <time>2019-08-01T07:28:30.973Z</time>
      </trkpt>
      <trkpt lat="43.03860333" lon="-1.222035">
        <ele>1046.0</ele>
        <time>2019-08-01T07:28:31.980Z</time>
      </trkpt>
      <trkpt lat="43.03859333" lon="-1.222055">
        <ele>1046.0</ele>
        <time>2019-08-01T07:28:32.986Z</time>
      </trkpt>
      <trkpt lat="43.03858833" lon="-1.22207">
        <ele>1046.0</ele>
        <time>2019-08-01T07:28:33.993Z</time>
      </trkpt>
      <trkpt lat="43.03858" lon="-1.22209">
        <ele>1045.0</ele>
        <time>2019-08-01T07:28:34.999Z</time>
      </trkpt>
      <trkpt lat="43.03857667" lon="-1.22210333">
        <ele>1045.0</ele>
        <time>2019-08-01T07:28:36.006Z</time>
      </trkpt>
      <trkpt lat="43.03857" lon="-1.22212167">
        <ele>1045.0</ele>
        <time>2019-08-01T07:28:37.011Z</time>
      </trkpt>
      <trkpt lat="43.03856167" lon="-1.22214333">
        <ele>1045.0</ele>
        <time>2019-08-01T07:28:38.015Z</time>
      </trkpt>
      <trkpt lat="43.038555" lon="-1.22216167">
        <ele>1046.0</ele>
        <time>2019-08-01T07:28:39.021Z</time>
      </trkpt>
      <trkpt lat="43.03854833" lon="-1.222175">
        <ele>1046.0</ele>
        <time>2019-08-01T07:28:40.028Z</time>
      </trkpt>
      <trkpt lat="43.03854" lon="-1.22219167">
        <ele>1046.0</ele>
        <time>2019-08-01T07:28:41.034Z</time>
      </trkpt>
      <trkpt lat="43.03853" lon="-1.22221167">
        <ele>1046.0</ele>
        <time>2019-08-01T07:28:42.041Z</time>
      </trkpt>
      <trkpt lat="43.03853" lon="-1.22221167">
        <ele>1046.0</ele>
        <time>2019-08-01T07:28:42.921Z</time>
      </trkpt>
      <trkpt lat="43.038525" lon="-1.22222667">
        <ele>1046.0</ele>
        <time>2019-08-01T07:28:43.927Z</time>
      </trkpt>
      <trkpt lat="43.038515" lon="-1.22225">
        <ele>1046.0</ele>
        <time>2019-08-01T07:28:44.931Z</time>
      </trkpt>
      <trkpt lat="43.03851" lon="-1.22226333">
        <ele>1046.0</ele>
        <time>2019-08-01T07:28:45.937Z</time>
      </trkpt>
      <trkpt lat="43.03850333" lon="-1.22228">
        <ele>1046.0</ele>
        <time>2019-08-01T07:28:46.941Z</time>
      </trkpt>
      <trkpt lat="43.03849333" lon="-1.22230333">
        <ele>1047.0</ele>
        <time>2019-08-01T07:28:47.947Z</time>
      </trkpt>
      <trkpt lat="43.03848833" lon="-1.22232333">
        <ele>1047.0</ele>
        <time>2019-08-01T07:28:48.955Z</time>
      </trkpt>
      <trkpt lat="43.03848333" lon="-1.22233667">
        <ele>1047.0</ele>
        <time>2019-08-01T07:28:49.960Z</time>
      </trkpt>
      <trkpt lat="43.03847667" lon="-1.22235333">
        <ele>1046.0</ele>
        <time>2019-08-01T07:28:50.966Z</time>
      </trkpt>
      <trkpt lat="43.03846333" lon="-1.22238833">
        <ele>1046.0</ele>
        <time>2019-08-01T07:28:51.971Z</time>
      </trkpt>
      <trkpt lat="43.03845667" lon="-1.22241">
        <ele>1046.0</ele>
        <time>2019-08-01T07:28:52.976Z</time>
      </trkpt>
      <trkpt lat="43.03845167" lon="-1.22242333">
        <ele>1046.0</ele>
        <time>2019-08-01T07:28:53.982Z</time>
      </trkpt>
      <trkpt lat="43.03844667" lon="-1.22244167">
        <ele>1046.0</ele>
        <time>2019-08-01T07:28:54.988Z</time>
      </trkpt>
      <trkpt lat="43.03843667" lon="-1.22246333">
        <ele>1047.0</ele>
        <time>2019-08-01T07:28:55.994Z</time>
      </trkpt>
      <trkpt lat="43.03843" lon="-1.222475">
        <ele>1048.0</ele>
        <time>2019-08-01T07:28:56.998Z</time>
      </trkpt>
      <trkpt lat="43.038425" lon="-1.22249167">
        <ele>1048.0</ele>
        <time>2019-08-01T07:28:58.003Z</time>
      </trkpt>
      <trkpt lat="43.03841833" lon="-1.22250667">
        <ele>1049.0</ele>
        <time>2019-08-01T07:28:59.009Z</time>
      </trkpt>
      <trkpt lat="43.03841167" lon="-1.22252667">
        <ele>1049.0</ele>
        <time>2019-08-01T07:29:00.015Z</time>
      </trkpt>
      <trkpt lat="43.03840667" lon="-1.22254333">
        <ele>1049.0</ele>
        <time>2019-08-01T07:29:01.022Z</time>
      </trkpt>
      <trkpt lat="43.0384" lon="-1.22256333">
        <ele>1049.0</ele>
        <time>2019-08-01T07:29:02.028Z</time>
      </trkpt>
      <trkpt lat="43.038395" lon="-1.22257833">
        <ele>1049.0</ele>
        <time>2019-08-01T07:29:03.032Z</time>
      </trkpt>
      <trkpt lat="43.03838833" lon="-1.222595">
        <ele>1049.0</ele>
        <time>2019-08-01T07:29:04.038Z</time>
      </trkpt>
      <trkpt lat="43.03838833" lon="-1.222595">
        <ele>1049.0</ele>
        <time>2019-08-01T07:29:04.919Z</time>
      </trkpt>
      <trkpt lat="43.03837833" lon="-1.22261833">
        <ele>1049.0</ele>
        <time>2019-08-01T07:29:05.925Z</time>
      </trkpt>
      <trkpt lat="43.03837167" lon="-1.22263667">
        <ele>1049.0</ele>
        <time>2019-08-01T07:29:06.929Z</time>
      </trkpt>
      <trkpt lat="43.038365" lon="-1.22264667">
        <ele>1050.0</ele>
        <time>2019-08-01T07:29:07.934Z</time>
      </trkpt>
      <trkpt lat="43.03835833" lon="-1.22266333">
        <ele>1050.0</ele>
        <time>2019-08-01T07:29:08.940Z</time>
      </trkpt>
      <trkpt lat="43.03835" lon="-1.22268333">
        <ele>1051.0</ele>
        <time>2019-08-01T07:29:09.946Z</time>
      </trkpt>
      <trkpt lat="43.038345" lon="-1.22269833">
        <ele>1051.0</ele>
        <time>2019-08-01T07:29:10.951Z</time>
      </trkpt>
      <trkpt lat="43.03834" lon="-1.22271167">
        <ele>1052.0</ele>
        <time>2019-08-01T07:29:11.957Z</time>
      </trkpt>
      <trkpt lat="43.03833667" lon="-1.22272667">
        <ele>1052.0</ele>
        <time>2019-08-01T07:29:12.964Z</time>
      </trkpt>
      <trkpt lat="43.038325" lon="-1.222765">
        <ele>1053.0</ele>
        <time>2019-08-01T07:29:13.970Z</time>
      </trkpt>
      <trkpt lat="43.03832167" lon="-1.22278167">
        <ele>1053.0</ele>
        <time>2019-08-01T07:29:14.977Z</time>
      </trkpt>
      <trkpt lat="43.03831667" lon="-1.22279833">
        <ele>1053.0</ele>
        <time>2019-08-01T07:29:15.982Z</time>
      </trkpt>
      <trkpt lat="43.03831167" lon="-1.222815">
        <ele>1053.0</ele>
        <time>2019-08-01T07:29:16.987Z</time>
      </trkpt>
      <trkpt lat="43.03830667" lon="-1.22283667">
        <ele>1053.0</ele>
        <time>2019-08-01T07:29:17.992Z</time>
      </trkpt>
      <trkpt lat="43.03830333" lon="-1.222855">
        <ele>1053.0</ele>
        <time>2019-08-01T07:29:18.999Z</time>
      </trkpt>
      <trkpt lat="43.03829833" lon="-1.222875">
        <ele>1053.0</ele>
        <time>2019-08-01T07:29:20.005Z</time>
      </trkpt>
      <trkpt lat="43.038295" lon="-1.22289">
        <ele>1054.0</ele>
        <time>2019-08-01T07:29:21.010Z</time>
      </trkpt>
      <trkpt lat="43.03829167" lon="-1.22291167">
        <ele>1053.0</ele>
        <time>2019-08-01T07:29:22.016Z</time>
      </trkpt>
      <trkpt lat="43.03828667" lon="-1.22293">
        <ele>1053.0</ele>
        <time>2019-08-01T07:29:23.021Z</time>
      </trkpt>
      <trkpt lat="43.03828333" lon="-1.22295">
        <ele>1053.0</ele>
        <time>2019-08-01T07:29:24.028Z</time>
      </trkpt>
      <trkpt lat="43.03828167" lon="-1.222965">
        <ele>1053.0</ele>
        <time>2019-08-01T07:29:25.035Z</time>
      </trkpt>
      <trkpt lat="43.03827833" lon="-1.22298167">
        <ele>1054.0</ele>
        <time>2019-08-01T07:29:26.039Z</time>
      </trkpt>
      <trkpt lat="43.03827833" lon="-1.22298167">
        <ele>1054.0</ele>
        <time>2019-08-01T07:29:26.920Z</time>
      </trkpt>
      <trkpt lat="43.03827333" lon="-1.22300167">
        <ele>1054.0</ele>
        <time>2019-08-01T07:29:27.922Z</time>
      </trkpt>
      <trkpt lat="43.03827167" lon="-1.22301667">
        <ele>1054.0</ele>
        <time>2019-08-01T07:29:28.928Z</time>
      </trkpt>
      <trkpt lat="43.03826833" lon="-1.223035">
        <ele>1054.0</ele>
        <time>2019-08-01T07:29:29.934Z</time>
      </trkpt>
      <trkpt lat="43.038265" lon="-1.223055">
        <ele>1054.0</ele>
        <time>2019-08-01T07:29:30.939Z</time>
      </trkpt>
      <trkpt lat="43.03825833" lon="-1.22307333">
        <ele>1054.0</ele>
        <time>2019-08-01T07:29:31.945Z</time>
      </trkpt>
      <trkpt lat="43.03825167" lon="-1.22308667">
        <ele>1054.0</ele>
        <time>2019-08-01T07:29:32.949Z</time>
      </trkpt>
      <trkpt lat="43.038245" lon="-1.223105">
        <ele>1054.0</ele>
        <time>2019-08-01T07:29:33.956Z</time>
      </trkpt>
      <trkpt lat="43.03824167" lon="-1.22311833">
        <ele>1055.0</ele>
        <time>2019-08-01T07:29:34.962Z</time>
      </trkpt>
      <trkpt lat="43.03823833" lon="-1.22313833">
        <ele>1055.0</ele>
        <time>2019-08-01T07:29:35.968Z</time>
      </trkpt>
      <trkpt lat="43.03822833" lon="-1.22317833">
        <ele>1055.0</ele>
        <time>2019-08-01T07:29:36.973Z</time>
      </trkpt>
      <trkpt lat="43.03822333" lon="-1.22319167">
        <ele>1056.0</ele>
        <time>2019-08-01T07:29:37.978Z</time>
      </trkpt>
      <trkpt lat="43.03822" lon="-1.22320667">
        <ele>1056.0</ele>
        <time>2019-08-01T07:29:38.983Z</time>
      </trkpt>
      <trkpt lat="43.038215" lon="-1.223225">
        <ele>1056.0</ele>
        <time>2019-08-01T07:29:39.990Z</time>
      </trkpt>
      <trkpt lat="43.03821167" lon="-1.22324333">
        <ele>1057.0</ele>
        <time>2019-08-01T07:29:40.996Z</time>
      </trkpt>
      <trkpt lat="43.03820833" lon="-1.22325833">
        <ele>1057.0</ele>
        <time>2019-08-01T07:29:42.002Z</time>
      </trkpt>
      <trkpt lat="43.03820667" lon="-1.22327167">
        <ele>1057.0</ele>
        <time>2019-08-01T07:29:43.007Z</time>
      </trkpt>
      <trkpt lat="43.03820333" lon="-1.22329167">
        <ele>1058.0</ele>
        <time>2019-08-01T07:29:44.013Z</time>
      </trkpt>
      <trkpt lat="43.03819833" lon="-1.22330833">
        <ele>1058.0</ele>
        <time>2019-08-01T07:29:45.019Z</time>
      </trkpt>
      <trkpt lat="43.038195" lon="-1.22332333">
        <ele>1059.0</ele>
        <time>2019-08-01T07:29:46.026Z</time>
      </trkpt>
      <trkpt lat="43.03819167" lon="-1.223335">
        <ele>1059.0</ele>
        <time>2019-08-01T07:29:47.031Z</time>
      </trkpt>
      <trkpt lat="43.03818833" lon="-1.22335333">
        <ele>1059.0</ele>
        <time>2019-08-01T07:29:48.034Z</time>
      </trkpt>
      <trkpt lat="43.03818333" lon="-1.22337167">
        <ele>1059.0</ele>
        <time>2019-08-01T07:29:49.038Z</time>
      </trkpt>
      <trkpt lat="43.03818333" lon="-1.22337167">
        <ele>1059.0</ele>
        <time>2019-08-01T07:29:49.918Z</time>
      </trkpt>
      <trkpt lat="43.03817833" lon="-1.22339">
        <ele>1059.0</ele>
        <time>2019-08-01T07:29:50.924Z</time>
      </trkpt>
      <trkpt lat="43.038175" lon="-1.22340667">
        <ele>1059.0</ele>
        <time>2019-08-01T07:29:51.929Z</time>
      </trkpt>
      <trkpt lat="43.03817" lon="-1.223425">
        <ele>1059.0</ele>
        <time>2019-08-01T07:29:52.936Z</time>
      </trkpt>
      <trkpt lat="43.03816667" lon="-1.22344833">
        <ele>1059.0</ele>
        <time>2019-08-01T07:29:53.943Z</time>
      </trkpt>
      <trkpt lat="43.03816167" lon="-1.22346667">
        <ele>1059.0</ele>
        <time>2019-08-01T07:29:54.950Z</time>
      </trkpt>
      <trkpt lat="43.03815667" lon="-1.223485">
        <ele>1058.0</ele>
        <time>2019-08-01T07:29:55.956Z</time>
      </trkpt>
      <trkpt lat="43.03815333" lon="-1.22349833">
        <ele>1058.0</ele>
        <time>2019-08-01T07:29:56.962Z</time>
      </trkpt>
      <trkpt lat="43.03815" lon="-1.22351833">
        <ele>1058.0</ele>
        <time>2019-08-01T07:29:57.968Z</time>
      </trkpt>
      <trkpt lat="43.03814" lon="-1.22355833">
        <ele>1057.0</ele>
        <time>2019-08-01T07:29:58.973Z</time>
      </trkpt>
      <trkpt lat="43.03813333" lon="-1.223575">
        <ele>1057.0</ele>
        <time>2019-08-01T07:29:59.979Z</time>
      </trkpt>
      <trkpt lat="43.03812833" lon="-1.22358833">
        <ele>1057.0</ele>
        <time>2019-08-01T07:30:00.986Z</time>
      </trkpt>
      <trkpt lat="43.03811833" lon="-1.223605">
        <ele>1057.0</ele>
        <time>2019-08-01T07:30:01.993Z</time>
      </trkpt>
      <trkpt lat="43.03810833" lon="-1.22361833">
        <ele>1057.0</ele>
        <time>2019-08-01T07:30:03.000Z</time>
      </trkpt>
      <trkpt lat="43.03809833" lon="-1.22363">
        <ele>1058.0</ele>
        <time>2019-08-01T07:30:04.006Z</time>
      </trkpt>
      <trkpt lat="43.03809" lon="-1.22364167">
        <ele>1057.0</ele>
        <time>2019-08-01T07:30:05.012Z</time>
      </trkpt>
      <trkpt lat="43.03807667" lon="-1.223655">
        <ele>1058.0</ele>
        <time>2019-08-01T07:30:06.018Z</time>
      </trkpt>
      <trkpt lat="43.03807" lon="-1.22366333">
        <ele>1058.0</ele>
        <time>2019-08-01T07:30:07.025Z</time>
      </trkpt>
      <trkpt lat="43.03805667" lon="-1.223675">
        <ele>1058.0</ele>
        <time>2019-08-01T07:30:08.033Z</time>
      </trkpt>
      <trkpt lat="43.03804833" lon="-1.22368333">
        <ele>1059.0</ele>
        <time>2019-08-01T07:30:09.041Z</time>
      </trkpt>
      <trkpt lat="43.03804833" lon="-1.22368333">
        <ele>1059.0</ele>
        <time>2019-08-01T07:30:09.922Z</time>
      </trkpt>
      <trkpt lat="43.03803667" lon="-1.22369167">
        <ele>1060.0</ele>
        <time>2019-08-01T07:30:10.927Z</time>
      </trkpt>
      <trkpt lat="43.038025" lon="-1.2237">
        <ele>1060.0</ele>
        <time>2019-08-01T07:30:11.933Z</time>
      </trkpt>
      <trkpt lat="43.03801333" lon="-1.22370667">
        <ele>1060.0</ele>
        <time>2019-08-01T07:30:12.940Z</time>
      </trkpt>
      <trkpt lat="43.038" lon="-1.223715">
        <ele>1060.0</ele>
        <time>2019-08-01T07:30:13.946Z</time>
      </trkpt>
      <trkpt lat="43.03798833" lon="-1.22371833">
        <ele>1061.0</ele>
        <time>2019-08-01T07:30:14.952Z</time>
      </trkpt>
      <trkpt lat="43.037975" lon="-1.22372167">
        <ele>1061.0</ele>
        <time>2019-08-01T07:30:15.957Z</time>
      </trkpt>
      <trkpt lat="43.03796" lon="-1.223725">
        <ele>1062.0</ele>
        <time>2019-08-01T07:30:16.963Z</time>
      </trkpt>
      <trkpt lat="43.037935" lon="-1.22373167">
        <ele>1062.0</ele>
        <time>2019-08-01T07:30:17.969Z</time>
      </trkpt>
      <trkpt lat="43.03792167" lon="-1.22373333">
        <ele>1062.0</ele>
        <time>2019-08-01T07:30:18.974Z</time>
      </trkpt>
      <trkpt lat="43.03790333" lon="-1.22373667">
        <ele>1062.0</ele>
        <time>2019-08-01T07:30:19.979Z</time>
      </trkpt>
      <trkpt lat="43.03788833" lon="-1.22373833">
        <ele>1063.0</ele>
        <time>2019-08-01T07:30:20.984Z</time>
      </trkpt>
      <trkpt lat="43.03787333" lon="-1.22373667">
        <ele>1063.0</ele>
        <time>2019-08-01T07:30:21.991Z</time>
      </trkpt>
      <trkpt lat="43.03786" lon="-1.22373667">
        <ele>1063.0</ele>
        <time>2019-08-01T07:30:22.997Z</time>
      </trkpt>
      <trkpt lat="43.037845" lon="-1.22373833">
        <ele>1062.0</ele>
        <time>2019-08-01T07:30:24.001Z</time>
      </trkpt>
      <trkpt lat="43.03783167" lon="-1.22373833">
        <ele>1061.0</ele>
        <time>2019-08-01T07:30:25.006Z</time>
      </trkpt>
      <trkpt lat="43.03782" lon="-1.22373833">
        <ele>1060.0</ele>
        <time>2019-08-01T07:30:26.012Z</time>
      </trkpt>
      <trkpt lat="43.03781167" lon="-1.22373833">
        <ele>1060.0</ele>
        <time>2019-08-01T07:30:27.019Z</time>
      </trkpt>
      <trkpt lat="43.0378" lon="-1.22373833">
        <ele>1059.0</ele>
        <time>2019-08-01T07:30:28.025Z</time>
      </trkpt>
      <trkpt lat="43.03778667" lon="-1.22373833">
        <ele>1059.0</ele>
        <time>2019-08-01T07:30:29.029Z</time>
      </trkpt>
      <trkpt lat="43.03777333" lon="-1.22373833">
        <ele>1059.0</ele>
        <time>2019-08-01T07:30:30.035Z</time>
      </trkpt>
      <trkpt lat="43.03776167" lon="-1.223735">
        <ele>1058.0</ele>
        <time>2019-08-01T07:30:31.039Z</time>
      </trkpt>
      <trkpt lat="43.03776167" lon="-1.223735">
        <ele>1058.0</ele>
        <time>2019-08-01T07:30:31.919Z</time>
      </trkpt>
      <trkpt lat="43.03775167" lon="-1.22373167">
        <ele>1058.0</ele>
        <time>2019-08-01T07:30:32.923Z</time>
      </trkpt>
      <trkpt lat="43.03774333" lon="-1.22372667">
        <ele>1058.0</ele>
        <time>2019-08-01T07:30:33.926Z</time>
      </trkpt>
      <trkpt lat="43.03773333" lon="-1.22372167">
        <ele>1058.0</ele>
        <time>2019-08-01T07:30:34.930Z</time>
      </trkpt>
      <trkpt lat="43.03772167" lon="-1.223715">
        <ele>1057.0</ele>
        <time>2019-08-01T07:30:35.936Z</time>
      </trkpt>
      <trkpt lat="43.03771" lon="-1.22371">
        <ele>1057.0</ele>
        <time>2019-08-01T07:30:36.942Z</time>
      </trkpt>
      <trkpt lat="43.03769667" lon="-1.22371">
        <ele>1056.0</ele>
        <time>2019-08-01T07:30:37.944Z</time>
      </trkpt>
      <trkpt lat="43.03768667" lon="-1.22370667">
        <ele>1055.0</ele>
        <time>2019-08-01T07:30:38.951Z</time>
      </trkpt>
      <trkpt lat="43.037675" lon="-1.223705">
        <ele>1055.0</ele>
        <time>2019-08-01T07:30:39.958Z</time>
      </trkpt>
      <trkpt lat="43.03766333" lon="-1.2237">
        <ele>1054.0</ele>
        <time>2019-08-01T07:30:40.961Z</time>
      </trkpt>
      <trkpt lat="43.03764167" lon="-1.223695">
        <ele>1054.0</ele>
        <time>2019-08-01T07:30:41.967Z</time>
      </trkpt>
      <trkpt lat="43.03763" lon="-1.22369333">
        <ele>1053.0</ele>
        <time>2019-08-01T07:30:42.973Z</time>
      </trkpt>
      <trkpt lat="43.03762" lon="-1.22369167">
        <ele>1052.0</ele>
        <time>2019-08-01T07:30:43.980Z</time>
      </trkpt>
      <trkpt lat="43.03761" lon="-1.22368833">
        <ele>1051.0</ele>
        <time>2019-08-01T07:30:44.986Z</time>
      </trkpt>
      <trkpt lat="43.0376" lon="-1.22368333">
        <ele>1051.0</ele>
        <time>2019-08-01T07:30:45.994Z</time>
      </trkpt>
      <trkpt lat="43.03758833" lon="-1.22367833">
        <ele>1051.0</ele>
        <time>2019-08-01T07:30:47.000Z</time>
      </trkpt>
      <trkpt lat="43.03757667" lon="-1.22367333">
        <ele>1050.0</ele>
        <time>2019-08-01T07:30:48.005Z</time>
      </trkpt>
      <trkpt lat="43.03756667" lon="-1.22367">
        <ele>1050.0</ele>
        <time>2019-08-01T07:30:49.011Z</time>
      </trkpt>
      <trkpt lat="43.037555" lon="-1.22366667">
        <ele>1050.0</ele>
        <time>2019-08-01T07:30:50.015Z</time>
      </trkpt>
      <trkpt lat="43.03754167" lon="-1.223665">
        <ele>1051.0</ele>
        <time>2019-08-01T07:30:51.019Z</time>
      </trkpt>
      <trkpt lat="43.03753" lon="-1.22366">
        <ele>1051.0</ele>
        <time>2019-08-01T07:30:52.027Z</time>
      </trkpt>
      <trkpt lat="43.03751833" lon="-1.223655">
        <ele>1051.0</ele>
        <time>2019-08-01T07:30:53.034Z</time>
      </trkpt>
      <trkpt lat="43.03750667" lon="-1.22365333">
        <ele>1051.0</ele>
        <time>2019-08-01T07:30:54.040Z</time>
      </trkpt>
      <trkpt lat="43.03750667" lon="-1.22365333">
        <ele>1051.0</ele>
        <time>2019-08-01T07:30:54.921Z</time>
      </trkpt>
      <trkpt lat="43.037495" lon="-1.22365">
        <ele>1051.0</ele>
        <time>2019-08-01T07:30:55.927Z</time>
      </trkpt>
      <trkpt lat="43.037485" lon="-1.22364833">
        <ele>1050.0</ele>
        <time>2019-08-01T07:30:56.932Z</time>
      </trkpt>
      <trkpt lat="43.037475" lon="-1.223645">
        <ele>1049.0</ele>
        <time>2019-08-01T07:30:57.938Z</time>
      </trkpt>
      <trkpt lat="43.037465" lon="-1.22364">
        <ele>1049.0</ele>
        <time>2019-08-01T07:30:58.945Z</time>
      </trkpt>
      <trkpt lat="43.037455" lon="-1.22363667">
        <ele>1048.0</ele>
        <time>2019-08-01T07:30:59.950Z</time>
      </trkpt>
      <trkpt lat="43.03744333" lon="-1.22363167">
        <ele>1048.0</ele>
        <time>2019-08-01T07:31:00.954Z</time>
      </trkpt>
      <trkpt lat="43.03743167" lon="-1.22362667">
        <ele>1049.0</ele>
        <time>2019-08-01T07:31:01.960Z</time>
      </trkpt>
      <trkpt lat="43.03742167" lon="-1.22362">
        <ele>1049.0</ele>
        <time>2019-08-01T07:31:02.962Z</time>
      </trkpt>
      <trkpt lat="43.03741" lon="-1.22361667">
        <ele>1049.0</ele>
        <time>2019-08-01T07:31:03.966Z</time>
      </trkpt>
      <trkpt lat="43.03738833" lon="-1.22361167">
        <ele>1047.0</ele>
        <time>2019-08-01T07:31:04.971Z</time>
      </trkpt>
      <trkpt lat="43.03737833" lon="-1.22360667">
        <ele>1047.0</ele>
        <time>2019-08-01T07:31:05.977Z</time>
      </trkpt>
      <trkpt lat="43.03737" lon="-1.22360167">
        <ele>1046.0</ele>
        <time>2019-08-01T07:31:06.983Z</time>
      </trkpt>
      <trkpt lat="43.03736" lon="-1.22359667">
        <ele>1046.0</ele>
        <time>2019-08-01T07:31:07.989Z</time>
      </trkpt>
      <trkpt lat="43.03734833" lon="-1.22359333">
        <ele>1046.0</ele>
        <time>2019-08-01T07:31:08.996Z</time>
      </trkpt>
      <trkpt lat="43.037335" lon="-1.22358833">
        <ele>1046.0</ele>
        <time>2019-08-01T07:31:10.005Z</time>
      </trkpt>
      <trkpt lat="43.03732333" lon="-1.22358667">
        <ele>1045.0</ele>
        <time>2019-08-01T07:31:11.011Z</time>
      </trkpt>
      <trkpt lat="43.03731167" lon="-1.22358167">
        <ele>1045.0</ele>
        <time>2019-08-01T07:31:12.018Z</time>
      </trkpt>
      <trkpt lat="43.03730167" lon="-1.22357667">
        <ele>1044.0</ele>
        <time>2019-08-01T07:31:13.025Z</time>
      </trkpt>
      <trkpt lat="43.03729" lon="-1.22357167">
        <ele>1044.0</ele>
        <time>2019-08-01T07:31:14.030Z</time>
      </trkpt>
      <trkpt lat="43.03727833" lon="-1.22356667">
        <ele>1044.0</ele>
        <time>2019-08-01T07:31:15.035Z</time>
      </trkpt>
      <trkpt lat="43.03726667" lon="-1.22356333">
        <ele>1043.0</ele>
        <time>2019-08-01T07:31:16.042Z</time>
      </trkpt>
      <trkpt lat="43.03726667" lon="-1.22356333">
        <ele>1043.0</ele>
        <time>2019-08-01T07:31:16.923Z</time>
      </trkpt>
      <trkpt lat="43.03725833" lon="-1.22355667">
        <ele>1043.0</ele>
        <time>2019-08-01T07:31:17.927Z</time>
      </trkpt>
      <trkpt lat="43.03724833" lon="-1.22355167">
        <ele>1043.0</ele>
        <time>2019-08-01T07:31:18.932Z</time>
      </trkpt>
      <trkpt lat="43.03723833" lon="-1.22355">
        <ele>1042.0</ele>
        <time>2019-08-01T07:31:19.939Z</time>
      </trkpt>
      <trkpt lat="43.03722833" lon="-1.22354667">
        <ele>1041.0</ele>
        <time>2019-08-01T07:31:20.946Z</time>
      </trkpt>
      <trkpt lat="43.03721667" lon="-1.22354333">
        <ele>1041.0</ele>
        <time>2019-08-01T07:31:21.951Z</time>
      </trkpt>
      <trkpt lat="43.03720333" lon="-1.22354">
        <ele>1041.0</ele>
        <time>2019-08-01T07:31:22.954Z</time>
      </trkpt>
      <trkpt lat="43.03719167" lon="-1.22353667">
        <ele>1041.0</ele>
        <time>2019-08-01T07:31:23.962Z</time>
      </trkpt>
      <trkpt lat="43.03717167" lon="-1.22352833">
        <ele>1041.0</ele>
        <time>2019-08-01T07:31:24.968Z</time>
      </trkpt>
      <trkpt lat="43.03715833" lon="-1.22352167">
        <ele>1041.0</ele>
        <time>2019-08-01T07:31:25.972Z</time>
      </trkpt>
      <trkpt lat="43.03714667" lon="-1.22351333">
        <ele>1041.0</ele>
        <time>2019-08-01T07:31:26.978Z</time>
      </trkpt>
      <trkpt lat="43.03713333" lon="-1.22350833">
        <ele>1041.0</ele>
        <time>2019-08-01T07:31:27.984Z</time>
      </trkpt>
      <trkpt lat="43.03712" lon="-1.22350167">
        <ele>1041.0</ele>
        <time>2019-08-01T07:31:28.991Z</time>
      </trkpt>
      <trkpt lat="43.03710833" lon="-1.22349833">
        <ele>1041.0</ele>
        <time>2019-08-01T07:31:29.998Z</time>
      </trkpt>
      <trkpt lat="43.03709667" lon="-1.22349667">
        <ele>1041.0</ele>
        <time>2019-08-01T07:31:31.005Z</time>
      </trkpt>
      <trkpt lat="43.037085" lon="-1.22349167">
        <ele>1041.0</ele>
        <time>2019-08-01T07:31:32.011Z</time>
      </trkpt>
      <trkpt lat="43.03707333" lon="-1.22348667">
        <ele>1041.0</ele>
        <time>2019-08-01T07:31:33.015Z</time>
      </trkpt>
      <trkpt lat="43.03706333" lon="-1.22348167">
        <ele>1041.0</ele>
        <time>2019-08-01T07:31:34.022Z</time>
      </trkpt>
      <trkpt lat="43.03705167" lon="-1.22347667">
        <ele>1041.0</ele>
        <time>2019-08-01T07:31:35.028Z</time>
      </trkpt>
      <trkpt lat="43.03703833" lon="-1.22347167">
        <ele>1041.0</ele>
        <time>2019-08-01T07:31:36.036Z</time>
      </trkpt>
      <trkpt lat="43.03702833" lon="-1.223465">
        <ele>1041.0</ele>
        <time>2019-08-01T07:31:37.043Z</time>
      </trkpt>
      <trkpt lat="43.03702833" lon="-1.223465">
        <ele>1041.0</ele>
        <time>2019-08-01T07:31:37.924Z</time>
      </trkpt>
      <trkpt lat="43.03701667" lon="-1.22346">
        <ele>1041.0</ele>
        <time>2019-08-01T07:31:38.928Z</time>
      </trkpt>
      <trkpt lat="43.03700667" lon="-1.22345667">
        <ele>1041.0</ele>
        <time>2019-08-01T07:31:39.935Z</time>
      </trkpt>
      <trkpt lat="43.03699667" lon="-1.22345167">
        <ele>1041.0</ele>
        <time>2019-08-01T07:31:40.941Z</time>
      </trkpt>
      <trkpt lat="43.03698667" lon="-1.22344833">
        <ele>1040.0</ele>
        <time>2019-08-01T07:31:41.948Z</time>
      </trkpt>
      <trkpt lat="43.036975" lon="-1.223445">
        <ele>1040.0</ele>
        <time>2019-08-01T07:31:42.954Z</time>
      </trkpt>
      <trkpt lat="43.03696333" lon="-1.22344167">
        <ele>1039.0</ele>
        <time>2019-08-01T07:31:43.959Z</time>
      </trkpt>
      <trkpt lat="43.03694833" lon="-1.223435">
        <ele>1039.0</ele>
        <time>2019-08-01T07:31:44.965Z</time>
      </trkpt>
      <trkpt lat="43.03692667" lon="-1.22341833">
        <ele>1039.0</ele>
        <time>2019-08-01T07:31:45.969Z</time>
      </trkpt>
      <trkpt lat="43.03691667" lon="-1.22341167">
        <ele>1038.0</ele>
        <time>2019-08-01T07:31:46.974Z</time>
      </trkpt>
      <trkpt lat="43.03690833" lon="-1.223405">
        <ele>1038.0</ele>
        <time>2019-08-01T07:31:47.979Z</time>
      </trkpt>
      <trkpt lat="43.0369" lon="-1.22339833">
        <ele>1038.0</ele>
        <time>2019-08-01T07:31:48.986Z</time>
      </trkpt>
      <trkpt lat="43.03689" lon="-1.22339167">
        <ele>1038.0</ele>
        <time>2019-08-01T07:31:49.994Z</time>
      </trkpt>
      <trkpt lat="43.03687833" lon="-1.22338333">
        <ele>1038.0</ele>
        <time>2019-08-01T07:31:51.000Z</time>
      </trkpt>
      <trkpt lat="43.03686667" lon="-1.223375">
        <ele>1038.0</ele>
        <time>2019-08-01T07:31:52.008Z</time>
      </trkpt>
      <trkpt lat="43.03685667" lon="-1.22336667">
        <ele>1037.0</ele>
        <time>2019-08-01T07:31:53.011Z</time>
      </trkpt>
      <trkpt lat="43.03684833" lon="-1.22336">
        <ele>1037.0</ele>
        <time>2019-08-01T07:31:54.014Z</time>
      </trkpt>
      <trkpt lat="43.03684" lon="-1.22335167">
        <ele>1037.0</ele>
        <time>2019-08-01T07:31:55.021Z</time>
      </trkpt>
      <trkpt lat="43.03683" lon="-1.223345">
        <ele>1036.0</ele>
        <time>2019-08-01T07:31:56.028Z</time>
      </trkpt>
      <trkpt lat="43.03682167" lon="-1.223335">
        <ele>1036.0</ele>
        <time>2019-08-01T07:31:57.035Z</time>
      </trkpt>
      <trkpt lat="43.03681333" lon="-1.22332667">
        <ele>1036.0</ele>
        <time>2019-08-01T07:31:58.041Z</time>
      </trkpt>
      <trkpt lat="43.03681333" lon="-1.22332667">
        <ele>1036.0</ele>
        <time>2019-08-01T07:31:58.923Z</time>
      </trkpt>
      <trkpt lat="43.03680167" lon="-1.22331333">
        <ele>1036.0</ele>
        <time>2019-08-01T07:31:59.928Z</time>
      </trkpt>
      <trkpt lat="43.03679" lon="-1.223305">
        <ele>1036.0</ele>
        <time>2019-08-01T07:32:00.934Z</time>
      </trkpt>
      <trkpt lat="43.03678" lon="-1.22329667">
        <ele>1036.0</ele>
        <time>2019-08-01T07:32:01.939Z</time>
      </trkpt>
      <trkpt lat="43.03676833" lon="-1.22328667">
        <ele>1036.0</ele>
        <time>2019-08-01T07:32:02.945Z</time>
      </trkpt>
      <trkpt lat="43.03675833" lon="-1.22327833">
        <ele>1035.0</ele>
        <time>2019-08-01T07:32:03.946Z</time>
      </trkpt>
      <trkpt lat="43.03675" lon="-1.22327333">
        <ele>1035.0</ele>
        <time>2019-08-01T07:32:04.947Z</time>
      </trkpt>
      <trkpt lat="43.03673833" lon="-1.22326333">
        <ele>1035.0</ele>
        <time>2019-08-01T07:32:05.951Z</time>
      </trkpt>
      <trkpt lat="43.03673" lon="-1.22325667">
        <ele>1035.0</ele>
        <time>2019-08-01T07:32:06.955Z</time>
      </trkpt>
      <trkpt lat="43.03672" lon="-1.22324833">
        <ele>1035.0</ele>
        <time>2019-08-01T07:32:07.958Z</time>
      </trkpt>
      <trkpt lat="43.03670833" lon="-1.22323833">
        <ele>1035.0</ele>
        <time>2019-08-01T07:32:08.962Z</time>
      </trkpt>
      <trkpt lat="43.03669833" lon="-1.22323167">
        <ele>1035.0</ele>
        <time>2019-08-01T07:32:09.967Z</time>
      </trkpt>
      <trkpt lat="43.036675" lon="-1.22321667">
        <ele>1035.0</ele>
        <time>2019-08-01T07:32:10.972Z</time>
      </trkpt>
      <trkpt lat="43.03666333" lon="-1.22321333">
        <ele>1035.0</ele>
        <time>2019-08-01T07:32:11.979Z</time>
      </trkpt>
      <trkpt lat="43.03665167" lon="-1.22320833">
        <ele>1035.0</ele>
        <time>2019-08-01T07:32:12.983Z</time>
      </trkpt>
      <trkpt lat="43.03663833" lon="-1.223205">
        <ele>1035.0</ele>
        <time>2019-08-01T07:32:13.988Z</time>
      </trkpt>
      <trkpt lat="43.03662667" lon="-1.22319833">
        <ele>1035.0</ele>
        <time>2019-08-01T07:32:14.994Z</time>
      </trkpt>
      <trkpt lat="43.036615" lon="-1.22319333">
        <ele>1035.0</ele>
        <time>2019-08-01T07:32:16.000Z</time>
      </trkpt>
      <trkpt lat="43.036605" lon="-1.22318833">
        <ele>1035.0</ele>
        <time>2019-08-01T07:32:17.004Z</time>
      </trkpt>
      <trkpt lat="43.03659167" lon="-1.22318333">
        <ele>1035.0</ele>
        <time>2019-08-01T07:32:18.011Z</time>
      </trkpt>
      <trkpt lat="43.03658" lon="-1.22317833">
        <ele>1035.0</ele>
        <time>2019-08-01T07:32:19.016Z</time>
      </trkpt>
      <trkpt lat="43.03657" lon="-1.223175">
        <ele>1035.0</ele>
        <time>2019-08-01T07:32:20.021Z</time>
      </trkpt>
      <trkpt lat="43.036555" lon="-1.22317167">
        <ele>1035.0</ele>
        <time>2019-08-01T07:32:21.028Z</time>
      </trkpt>
      <trkpt lat="43.03654333" lon="-1.22317">
        <ele>1035.0</ele>
        <time>2019-08-01T07:32:22.034Z</time>
      </trkpt>
      <trkpt lat="43.03653" lon="-1.22317">
        <ele>1034.0</ele>
        <time>2019-08-01T07:32:23.041Z</time>
      </trkpt>
      <trkpt lat="43.03653" lon="-1.22317">
        <ele>1034.0</ele>
        <time>2019-08-01T07:32:23.921Z</time>
      </trkpt>
      <trkpt lat="43.03651833" lon="-1.22317">
        <ele>1034.0</ele>
        <time>2019-08-01T07:32:24.925Z</time>
      </trkpt>
      <trkpt lat="43.03650667" lon="-1.22317">
        <ele>1034.0</ele>
        <time>2019-08-01T07:32:25.931Z</time>
      </trkpt>
      <trkpt lat="43.036495" lon="-1.22317167">
        <ele>1034.0</ele>
        <time>2019-08-01T07:32:26.937Z</time>
      </trkpt>
      <trkpt lat="43.03648167" lon="-1.22317">
        <ele>1034.0</ele>
        <time>2019-08-01T07:32:27.946Z</time>
      </trkpt>
      <trkpt lat="43.03647" lon="-1.22317">
        <ele>1035.0</ele>
        <time>2019-08-01T07:32:28.953Z</time>
      </trkpt>
      <trkpt lat="43.03645833" lon="-1.22317333">
        <ele>1035.0</ele>
        <time>2019-08-01T07:32:29.959Z</time>
      </trkpt>
      <trkpt lat="43.036445" lon="-1.223175">
        <ele>1035.0</ele>
        <time>2019-08-01T07:32:30.965Z</time>
      </trkpt>
      <trkpt lat="43.03642167" lon="-1.22318833">
        <ele>1035.0</ele>
        <time>2019-08-01T07:32:31.970Z</time>
      </trkpt>
      <trkpt lat="43.03641" lon="-1.22319167">
        <ele>1034.0</ele>
        <time>2019-08-01T07:32:32.975Z</time>
      </trkpt>
      <trkpt lat="43.0364" lon="-1.22319667">
        <ele>1034.0</ele>
        <time>2019-08-01T07:32:33.981Z</time>
      </trkpt>
      <trkpt lat="43.03639167" lon="-1.223205">
        <ele>1033.0</ele>
        <time>2019-08-01T07:32:34.986Z</time>
      </trkpt>
      <trkpt lat="43.036385" lon="-1.22321">
        <ele>1034.0</ele>
        <time>2019-08-01T07:32:35.991Z</time>
      </trkpt>
      <trkpt lat="43.03637833" lon="-1.223215">
        <ele>1034.0</ele>
        <time>2019-08-01T07:32:36.996Z</time>
      </trkpt>
      <trkpt lat="43.03637" lon="-1.22322333">
        <ele>1033.0</ele>
        <time>2019-08-01T07:32:38.003Z</time>
      </trkpt>
      <trkpt lat="43.03636" lon="-1.22323167">
        <ele>1033.0</ele>
        <time>2019-08-01T07:32:39.008Z</time>
      </trkpt>
      <trkpt lat="43.03635167" lon="-1.22324">
        <ele>1033.0</ele>
        <time>2019-08-01T07:32:40.013Z</time>
      </trkpt>
      <trkpt lat="43.03634333" lon="-1.22325167">
        <ele>1033.0</ele>
        <time>2019-08-01T07:32:41.019Z</time>
      </trkpt>
      <trkpt lat="43.036335" lon="-1.22326167">
        <ele>1033.0</ele>
        <time>2019-08-01T07:32:42.025Z</time>
      </trkpt>
      <trkpt lat="43.03632833" lon="-1.22327333">
        <ele>1033.0</ele>
        <time>2019-08-01T07:32:43.031Z</time>
      </trkpt>
      <trkpt lat="43.03632" lon="-1.22328667">
        <ele>1033.0</ele>
        <time>2019-08-01T07:32:44.036Z</time>
      </trkpt>
      <trkpt lat="43.03632" lon="-1.22328667">
        <ele>1033.0</ele>
        <time>2019-08-01T07:32:44.918Z</time>
      </trkpt>
      <trkpt lat="43.03631333" lon="-1.22330167">
        <ele>1033.0</ele>
        <time>2019-08-01T07:32:45.923Z</time>
      </trkpt>
      <trkpt lat="43.03630667" lon="-1.22331333">
        <ele>1033.0</ele>
        <time>2019-08-01T07:32:46.929Z</time>
      </trkpt>
      <trkpt lat="43.03630167" lon="-1.223325">
        <ele>1033.0</ele>
        <time>2019-08-01T07:32:47.935Z</time>
      </trkpt>
      <trkpt lat="43.036295" lon="-1.22333833">
        <ele>1032.0</ele>
        <time>2019-08-01T07:32:48.938Z</time>
      </trkpt>
      <trkpt lat="43.03628667" lon="-1.22335167">
        <ele>1032.0</ele>
        <time>2019-08-01T07:32:49.942Z</time>
      </trkpt>
      <trkpt lat="43.03628" lon="-1.223365">
        <ele>1032.0</ele>
        <time>2019-08-01T07:32:50.948Z</time>
      </trkpt>
      <trkpt lat="43.03627667" lon="-1.22338167">
        <ele>1032.0</ele>
        <time>2019-08-01T07:32:51.952Z</time>
      </trkpt>
      <trkpt lat="43.03627167" lon="-1.22339833">
        <ele>1033.0</ele>
        <time>2019-08-01T07:32:52.955Z</time>
      </trkpt>
      <trkpt lat="43.03626833" lon="-1.22341167">
        <ele>1033.0</ele>
        <time>2019-08-01T07:32:53.960Z</time>
      </trkpt>
      <trkpt lat="43.03626167" lon="-1.22342667">
        <ele>1033.0</ele>
        <time>2019-08-01T07:32:54.966Z</time>
      </trkpt>
      <trkpt lat="43.03624833" lon="-1.22346167">
        <ele>1033.0</ele>
        <time>2019-08-01T07:32:55.969Z</time>
      </trkpt>
      <trkpt lat="43.03624167" lon="-1.22347833">
        <ele>1033.0</ele>
        <time>2019-08-01T07:32:56.975Z</time>
      </trkpt>
      <trkpt lat="43.036235" lon="-1.22349333">
        <ele>1033.0</ele>
        <time>2019-08-01T07:32:57.980Z</time>
      </trkpt>
      <trkpt lat="43.03622833" lon="-1.223505">
        <ele>1033.0</ele>
        <time>2019-08-01T07:32:58.986Z</time>
      </trkpt>
      <trkpt lat="43.03622167" lon="-1.22352167">
        <ele>1033.0</ele>
        <time>2019-08-01T07:32:59.993Z</time>
      </trkpt>
      <trkpt lat="43.03621667" lon="-1.223535">
        <ele>1032.0</ele>
        <time>2019-08-01T07:33:01.000Z</time>
      </trkpt>
      <trkpt lat="43.03621167" lon="-1.22355">
        <ele>1032.0</ele>
        <time>2019-08-01T07:33:02.006Z</time>
      </trkpt>
      <trkpt lat="43.036205" lon="-1.22356833">
        <ele>1032.0</ele>
        <time>2019-08-01T07:33:03.012Z</time>
      </trkpt>
      <trkpt lat="43.0362" lon="-1.22358167">
        <ele>1031.0</ele>
        <time>2019-08-01T07:33:04.014Z</time>
      </trkpt>
      <trkpt lat="43.03619667" lon="-1.22359667">
        <ele>1030.0</ele>
        <time>2019-08-01T07:33:05.017Z</time>
      </trkpt>
      <trkpt lat="43.03619" lon="-1.22361167">
        <ele>1030.0</ele>
        <time>2019-08-01T07:33:06.021Z</time>
      </trkpt>
      <trkpt lat="43.03618333" lon="-1.223625">
        <ele>1030.0</ele>
        <time>2019-08-01T07:33:07.026Z</time>
      </trkpt>
      <trkpt lat="43.03617833" lon="-1.22363667">
        <ele>1029.0</ele>
        <time>2019-08-01T07:33:08.031Z</time>
      </trkpt>
      <trkpt lat="43.036175" lon="-1.22364667">
        <ele>1028.0</ele>
        <time>2019-08-01T07:33:09.038Z</time>
      </trkpt>
      <trkpt lat="43.036175" lon="-1.22364667">
        <ele>1028.0</ele>
        <time>2019-08-01T07:33:09.919Z</time>
      </trkpt>
      <trkpt lat="43.03617" lon="-1.22365833">
        <ele>1028.0</ele>
        <time>2019-08-01T07:33:10.923Z</time>
      </trkpt>
      <trkpt lat="43.03616667" lon="-1.22367">
        <ele>1028.0</ele>
        <time>2019-08-01T07:33:11.927Z</time>
      </trkpt>
      <trkpt lat="43.03616333" lon="-1.22368667">
        <ele>1028.0</ele>
        <time>2019-08-01T07:33:12.930Z</time>
      </trkpt>
      <trkpt lat="43.03616" lon="-1.22369833">
        <ele>1028.0</ele>
        <time>2019-08-01T07:33:13.936Z</time>
      </trkpt>
      <trkpt lat="43.036155" lon="-1.22371">
        <ele>1027.0</ele>
        <time>2019-08-01T07:33:14.943Z</time>
      </trkpt>
      <trkpt lat="43.03615" lon="-1.22372333">
        <ele>1027.0</ele>
        <time>2019-08-01T07:33:15.948Z</time>
      </trkpt>
      <trkpt lat="43.03614667" lon="-1.22373667">
        <ele>1027.0</ele>
        <time>2019-08-01T07:33:16.952Z</time>
      </trkpt>
      <trkpt lat="43.03614167" lon="-1.22375167">
        <ele>1027.0</ele>
        <time>2019-08-01T07:33:17.959Z</time>
      </trkpt>
      <trkpt lat="43.036135" lon="-1.22376667">
        <ele>1027.0</ele>
        <time>2019-08-01T07:33:18.963Z</time>
      </trkpt>
      <trkpt lat="43.03612833" lon="-1.22378333">
        <ele>1026.0</ele>
        <time>2019-08-01T07:33:19.968Z</time>
      </trkpt>
      <trkpt lat="43.03611833" lon="-1.22381333">
        <ele>1025.0</ele>
        <time>2019-08-01T07:33:20.974Z</time>
      </trkpt>
      <trkpt lat="43.03611167" lon="-1.22382833">
        <ele>1025.0</ele>
        <time>2019-08-01T07:33:21.980Z</time>
      </trkpt>
      <trkpt lat="43.03610667" lon="-1.22384167">
        <ele>1025.0</ele>
        <time>2019-08-01T07:33:22.985Z</time>
      </trkpt>
      <trkpt lat="43.03610333" lon="-1.22385667">
        <ele>1024.0</ele>
        <time>2019-08-01T07:33:23.992Z</time>
      </trkpt>
      <trkpt lat="43.03610333" lon="-1.22387">
        <ele>1024.0</ele>
        <time>2019-08-01T07:33:24.998Z</time>
      </trkpt>
      <trkpt lat="43.03610167" lon="-1.223885">
        <ele>1024.0</ele>
        <time>2019-08-01T07:33:26.006Z</time>
      </trkpt>
      <trkpt lat="43.03609833" lon="-1.22390333">
        <ele>1023.0</ele>
        <time>2019-08-01T07:33:27.012Z</time>
      </trkpt>
      <trkpt lat="43.03609667" lon="-1.22392333">
        <ele>1023.0</ele>
        <time>2019-08-01T07:33:28.016Z</time>
      </trkpt>
      <trkpt lat="43.03609167" lon="-1.22393833">
        <ele>1023.0</ele>
        <time>2019-08-01T07:33:29.020Z</time>
      </trkpt>
      <trkpt lat="43.03608833" lon="-1.22395">
        <ele>1022.0</ele>
        <time>2019-08-01T07:33:30.027Z</time>
      </trkpt>
      <trkpt lat="43.03608833" lon="-1.22396333">
        <ele>1022.0</ele>
        <time>2019-08-01T07:33:31.033Z</time>
      </trkpt>
      <trkpt lat="43.036085" lon="-1.22398167">
        <ele>1022.0</ele>
        <time>2019-08-01T07:33:32.040Z</time>
      </trkpt>
      <trkpt lat="43.036085" lon="-1.22398167">
        <ele>1022.0</ele>
        <time>2019-08-01T07:33:32.919Z</time>
      </trkpt>
      <trkpt lat="43.03608333" lon="-1.22399833">
        <ele>1021.0</ele>
        <time>2019-08-01T07:33:33.927Z</time>
      </trkpt>
      <trkpt lat="43.03608" lon="-1.224015">
        <ele>1021.0</ele>
        <time>2019-08-01T07:33:34.932Z</time>
      </trkpt>
      <trkpt lat="43.03607833" lon="-1.22403167">
        <ele>1021.0</ele>
        <time>2019-08-01T07:33:35.938Z</time>
      </trkpt>
      <trkpt lat="43.03607667" lon="-1.22404667">
        <ele>1020.0</ele>
        <time>2019-08-01T07:33:36.944Z</time>
      </trkpt>
      <trkpt lat="43.03607667" lon="-1.22406">
        <ele>1020.0</ele>
        <time>2019-08-01T07:33:37.950Z</time>
      </trkpt>
      <trkpt lat="43.036075" lon="-1.224075">
        <ele>1020.0</ele>
        <time>2019-08-01T07:33:38.958Z</time>
      </trkpt>
      <trkpt lat="43.03607167" lon="-1.22409167">
        <ele>1020.0</ele>
        <time>2019-08-01T07:33:39.962Z</time>
      </trkpt>
      <trkpt lat="43.03607" lon="-1.22411">
        <ele>1020.0</ele>
        <time>2019-08-01T07:33:40.967Z</time>
      </trkpt>
      <trkpt lat="43.03606667" lon="-1.224145">
        <ele>1019.0</ele>
        <time>2019-08-01T07:33:41.974Z</time>
      </trkpt>
      <trkpt lat="43.03606667" lon="-1.22416">
        <ele>1019.0</ele>
        <time>2019-08-01T07:33:42.982Z</time>
      </trkpt>
      <trkpt lat="43.03606833" lon="-1.224175">
        <ele>1019.0</ele>
        <time>2019-08-01T07:33:43.990Z</time>
      </trkpt>
      <trkpt lat="43.03606667" lon="-1.22419167">
        <ele>1019.0</ele>
        <time>2019-08-01T07:33:44.996Z</time>
      </trkpt>
      <trkpt lat="43.03606333" lon="-1.22420667">
        <ele>1020.0</ele>
        <time>2019-08-01T07:33:46.003Z</time>
      </trkpt>
      <trkpt lat="43.03606" lon="-1.22422333">
        <ele>1020.0</ele>
        <time>2019-08-01T07:33:47.009Z</time>
      </trkpt>
      <trkpt lat="43.03605833" lon="-1.22424">
        <ele>1021.0</ele>
        <time>2019-08-01T07:33:48.015Z</time>
      </trkpt>
      <trkpt lat="43.036055" lon="-1.22425667">
        <ele>1021.0</ele>
        <time>2019-08-01T07:33:49.021Z</time>
      </trkpt>
      <trkpt lat="43.03605" lon="-1.22427333">
        <ele>1021.0</ele>
        <time>2019-08-01T07:33:50.026Z</time>
      </trkpt>
      <trkpt lat="43.03604833" lon="-1.22428667">
        <ele>1021.0</ele>
        <time>2019-08-01T07:33:51.032Z</time>
      </trkpt>
      <trkpt lat="43.03604667" lon="-1.22430167">
        <ele>1021.0</ele>
        <time>2019-08-01T07:33:52.038Z</time>
      </trkpt>
      <trkpt lat="43.03604667" lon="-1.22430167">
        <ele>1021.0</ele>
        <time>2019-08-01T07:33:52.919Z</time>
      </trkpt>
      <trkpt lat="43.036045" lon="-1.22431667">
        <ele>1021.0</ele>
        <time>2019-08-01T07:33:53.926Z</time>
      </trkpt>
      <trkpt lat="43.03604333" lon="-1.22433667">
        <ele>1021.0</ele>
        <time>2019-08-01T07:33:54.930Z</time>
      </trkpt>
      <trkpt lat="43.03604167" lon="-1.22435333">
        <ele>1021.0</ele>
        <time>2019-08-01T07:33:55.936Z</time>
      </trkpt>
      <trkpt lat="43.03604" lon="-1.22437">
        <ele>1021.0</ele>
        <time>2019-08-01T07:33:56.943Z</time>
      </trkpt>
      <trkpt lat="43.03603667" lon="-1.22438333">
        <ele>1021.0</ele>
        <time>2019-08-01T07:33:57.948Z</time>
      </trkpt>
      <trkpt lat="43.03603333" lon="-1.22440167">
        <ele>1021.0</ele>
        <time>2019-08-01T07:33:58.955Z</time>
      </trkpt>
      <trkpt lat="43.03603333" lon="-1.22441833">
        <ele>1021.0</ele>
        <time>2019-08-01T07:33:59.960Z</time>
      </trkpt>
      <trkpt lat="43.03603333" lon="-1.22443333">
        <ele>1021.0</ele>
        <time>2019-08-01T07:34:00.965Z</time>
      </trkpt>
      <trkpt lat="43.03603167" lon="-1.22444667">
        <ele>1022.0</ele>
        <time>2019-08-01T07:34:01.969Z</time>
      </trkpt>
      <trkpt lat="43.036035" lon="-1.22445667">
        <ele>1022.0</ele>
        <time>2019-08-01T07:34:02.973Z</time>
      </trkpt>
      <trkpt lat="43.036035" lon="-1.22446">
        <ele>1023.0</ele>
        <time>2019-08-01T07:34:03.980Z</time>
      </trkpt>
      <trkpt lat="43.036035" lon="-1.22446">
        <ele>1023.0</ele>
        <time>2019-08-01T07:34:04.986Z</time>
      </trkpt>
      <trkpt lat="43.036035" lon="-1.22445667">
        <ele>1024.0</ele>
        <time>2019-08-01T07:34:05.991Z</time>
      </trkpt>
      <trkpt lat="43.03603667" lon="-1.22445667">
        <ele>1024.0</ele>
        <time>2019-08-01T07:34:06.999Z</time>
      </trkpt>
      <trkpt lat="43.036035" lon="-1.22445167">
        <ele>1024.0</ele>
        <time>2019-08-01T07:34:08.005Z</time>
      </trkpt>
      <trkpt lat="43.03603167" lon="-1.22445">
        <ele>1024.0</ele>
        <time>2019-08-01T07:34:09.011Z</time>
      </trkpt>
      <trkpt lat="43.03602667" lon="-1.22445">
        <ele>1024.0</ele>
        <time>2019-08-01T07:34:10.017Z</time>
      </trkpt>
      <trkpt lat="43.03601833" lon="-1.224455">
        <ele>1024.0</ele>
        <time>2019-08-01T07:34:11.024Z</time>
      </trkpt>
      <trkpt lat="43.03601333" lon="-1.22446167">
        <ele>1023.0</ele>
        <time>2019-08-01T07:34:12.031Z</time>
      </trkpt>
      <trkpt lat="43.03600667" lon="-1.22447167">
        <ele>1023.0</ele>
        <time>2019-08-01T07:34:13.039Z</time>
      </trkpt>
      <trkpt lat="43.03600667" lon="-1.22447167">
        <ele>1023.0</ele>
        <time>2019-08-01T07:34:13.920Z</time>
      </trkpt>
      <trkpt lat="43.03600333" lon="-1.22447833">
        <ele>1024.0</ele>
        <time>2019-08-01T07:34:14.927Z</time>
      </trkpt>
      <trkpt lat="43.03600167" lon="-1.22448167">
        <ele>1024.0</ele>
        <time>2019-08-01T07:34:15.932Z</time>
      </trkpt>
      <trkpt lat="43.036" lon="-1.22448167">
        <ele>1024.0</ele>
        <time>2019-08-01T07:34:16.939Z</time>
      </trkpt>
      <trkpt lat="43.03599833" lon="-1.22448333">
        <ele>1024.0</ele>
        <time>2019-08-01T07:34:17.948Z</time>
      </trkpt>
      <trkpt lat="43.03599667" lon="-1.224485">
        <ele>1024.0</ele>
        <time>2019-08-01T07:34:18.952Z</time>
      </trkpt>
      <trkpt lat="43.035995" lon="-1.224485">
        <ele>1024.0</ele>
        <time>2019-08-01T07:34:19.956Z</time>
      </trkpt>
      <trkpt lat="43.03599167" lon="-1.22448167">
        <ele>1025.0</ele>
        <time>2019-08-01T07:34:20.961Z</time>
      </trkpt>
      <trkpt lat="43.03598833" lon="-1.22448167">
        <ele>1025.0</ele>
        <time>2019-08-01T07:34:21.967Z</time>
      </trkpt>
      <trkpt lat="43.035985" lon="-1.22448333">
        <ele>1025.0</ele>
        <time>2019-08-01T07:34:22.970Z</time>
      </trkpt>
      <trkpt lat="43.03598333" lon="-1.22448">
        <ele>1024.0</ele>
        <time>2019-08-01T07:34:23.977Z</time>
      </trkpt>
      <trkpt lat="43.035985" lon="-1.22447833">
        <ele>1024.0</ele>
        <time>2019-08-01T07:34:24.983Z</time>
      </trkpt>
      <trkpt lat="43.035985" lon="-1.22447833">
        <ele>1024.0</ele>
        <time>2019-08-01T07:34:25.989Z</time>
      </trkpt>
      <trkpt lat="43.03598833" lon="-1.22447833">
        <ele>1024.0</ele>
        <time>2019-08-01T07:34:26.995Z</time>
      </trkpt>
      <trkpt lat="43.03599167" lon="-1.22448167">
        <ele>1024.0</ele>
        <time>2019-08-01T07:34:28.003Z</time>
      </trkpt>
      <trkpt lat="43.03599167" lon="-1.22448333">
        <ele>1023.0</ele>
        <time>2019-08-01T07:34:29.011Z</time>
      </trkpt>
      <trkpt lat="43.03599167" lon="-1.22448333">
        <ele>1023.0</ele>
        <time>2019-08-01T07:34:30.016Z</time>
      </trkpt>
      <trkpt lat="43.03599333" lon="-1.22448333">
        <ele>1023.0</ele>
        <time>2019-08-01T07:34:31.021Z</time>
      </trkpt>
      <trkpt lat="43.03599333" lon="-1.22448167">
        <ele>1023.0</ele>
        <time>2019-08-01T07:34:32.027Z</time>
      </trkpt>
      <trkpt lat="43.03599833" lon="-1.22447667">
        <ele>1024.0</ele>
        <time>2019-08-01T07:34:33.034Z</time>
      </trkpt>
      <trkpt lat="43.03599833" lon="-1.224475">
        <ele>1024.0</ele>
        <time>2019-08-01T07:34:34.042Z</time>
      </trkpt>
      <trkpt lat="43.03599833" lon="-1.224475">
        <ele>1024.0</ele>
        <time>2019-08-01T07:34:34.922Z</time>
      </trkpt>
      <trkpt lat="43.03600167" lon="-1.22447333">
        <ele>1024.0</ele>
        <time>2019-08-01T07:34:35.928Z</time>
      </trkpt>
      <trkpt lat="43.03600167" lon="-1.22447167">
        <ele>1024.0</ele>
        <time>2019-08-01T07:34:36.932Z</time>
      </trkpt>
      <trkpt lat="43.03599833" lon="-1.22447">
        <ele>1024.0</ele>
        <time>2019-08-01T07:34:37.937Z</time>
      </trkpt>
      <trkpt lat="43.03599667" lon="-1.22447">
        <ele>1024.0</ele>
        <time>2019-08-01T07:34:38.942Z</time>
      </trkpt>
      <trkpt lat="43.03599167" lon="-1.22447">
        <ele>1024.0</ele>
        <time>2019-08-01T07:34:39.948Z</time>
      </trkpt>
      <trkpt lat="43.03598833" lon="-1.22447167">
        <ele>1024.0</ele>
        <time>2019-08-01T07:34:40.954Z</time>
      </trkpt>
      <trkpt lat="43.03598667" lon="-1.22447167">
        <ele>1024.0</ele>
        <time>2019-08-01T07:34:41.962Z</time>
      </trkpt>
      <trkpt lat="43.03598833" lon="-1.22447167">
        <ele>1024.0</ele>
        <time>2019-08-01T07:34:42.968Z</time>
      </trkpt>
      <trkpt lat="43.03598667" lon="-1.22447333">
        <ele>1025.0</ele>
        <time>2019-08-01T07:34:43.975Z</time>
      </trkpt>
      <trkpt lat="43.035985" lon="-1.224475">
        <ele>1025.0</ele>
        <time>2019-08-01T07:34:44.980Z</time>
      </trkpt>
      <trkpt lat="43.03598333" lon="-1.22447833">
        <ele>1025.0</ele>
        <time>2019-08-01T07:34:45.987Z</time>
      </trkpt>
      <trkpt lat="43.03598333" lon="-1.22448">
        <ele>1025.0</ele>
        <time>2019-08-01T07:34:46.993Z</time>
      </trkpt>
      <trkpt lat="43.03598167" lon="-1.22448667">
        <ele>1025.0</ele>
        <time>2019-08-01T07:34:47.997Z</time>
      </trkpt>
      <trkpt lat="43.03598" lon="-1.22449167">
        <ele>1026.0</ele>
        <time>2019-08-01T07:34:49.006Z</time>
      </trkpt>
      <trkpt lat="43.03598333" lon="-1.22449">
        <ele>1026.0</ele>
        <time>2019-08-01T07:34:50.012Z</time>
      </trkpt>
      <trkpt lat="43.03598667" lon="-1.22448833">
        <ele>1026.0</ele>
        <time>2019-08-01T07:34:51.019Z</time>
      </trkpt>
      <trkpt lat="43.03599" lon="-1.22448333">
        <ele>1026.0</ele>
        <time>2019-08-01T07:34:52.025Z</time>
      </trkpt>
      <trkpt lat="43.03599167" lon="-1.22448">
        <ele>1026.0</ele>
        <time>2019-08-01T07:34:53.031Z</time>
      </trkpt>
      <trkpt lat="43.03599333" lon="-1.22447667">
        <ele>1026.0</ele>
        <time>2019-08-01T07:34:54.037Z</time>
      </trkpt>
      <trkpt lat="43.03599333" lon="-1.22447667">
        <ele>1026.0</ele>
        <time>2019-08-01T07:34:54.918Z</time>
      </trkpt>
      <trkpt lat="43.03599167" lon="-1.224475">
        <ele>1026.0</ele>
        <time>2019-08-01T07:34:55.924Z</time>
      </trkpt>
      <trkpt lat="43.03599167" lon="-1.22447167">
        <ele>1026.0</ele>
        <time>2019-08-01T07:34:56.929Z</time>
      </trkpt>
      <trkpt lat="43.035995" lon="-1.22447167">
        <ele>1026.0</ele>
        <time>2019-08-01T07:34:57.933Z</time>
      </trkpt>
      <trkpt lat="43.03599667" lon="-1.22447167">
        <ele>1026.0</ele>
        <time>2019-08-01T07:34:58.940Z</time>
      </trkpt>
      <trkpt lat="43.035995" lon="-1.22447333">
        <ele>1027.0</ele>
        <time>2019-08-01T07:34:59.946Z</time>
      </trkpt>
      <trkpt lat="43.035995" lon="-1.22447667">
        <ele>1027.0</ele>
        <time>2019-08-01T07:35:00.951Z</time>
      </trkpt>
      <trkpt lat="43.035995" lon="-1.22447333">
        <ele>1028.0</ele>
        <time>2019-08-01T07:35:01.958Z</time>
      </trkpt>
      <trkpt lat="43.03599333" lon="-1.224475">
        <ele>1028.0</ele>
        <time>2019-08-01T07:35:02.961Z</time>
      </trkpt>
      <trkpt lat="43.03599333" lon="-1.22447333">
        <ele>1029.0</ele>
        <time>2019-08-01T07:35:03.964Z</time>
      </trkpt>
      <trkpt lat="43.03599" lon="-1.22447167">
        <ele>1029.0</ele>
        <time>2019-08-01T07:35:04.968Z</time>
      </trkpt>
      <trkpt lat="43.03598833" lon="-1.22447">
        <ele>1028.0</ele>
        <time>2019-08-01T07:35:05.972Z</time>
      </trkpt>
      <trkpt lat="43.035985" lon="-1.22447">
        <ele>1027.0</ele>
        <time>2019-08-01T07:35:06.979Z</time>
      </trkpt>
      <trkpt lat="43.03598667" lon="-1.22447167">
        <ele>1026.0</ele>
        <time>2019-08-01T07:35:07.983Z</time>
      </trkpt>
      <trkpt lat="43.03598667" lon="-1.22447333">
        <ele>1025.0</ele>
        <time>2019-08-01T07:35:08.988Z</time>
      </trkpt>
      <trkpt lat="43.03598833" lon="-1.22447167">
        <ele>1025.0</ele>
        <time>2019-08-01T07:35:09.995Z</time>
      </trkpt>
      <trkpt lat="43.03599" lon="-1.22447">
        <ele>1025.0</ele>
        <time>2019-08-01T07:35:11.002Z</time>
      </trkpt>
      <trkpt lat="43.03599" lon="-1.22447167">
        <ele>1025.0</ele>
        <time>2019-08-01T07:35:12.008Z</time>
      </trkpt>
      <trkpt lat="43.03599" lon="-1.22447167">
        <ele>1025.0</ele>
        <time>2019-08-01T07:35:13.013Z</time>
      </trkpt>
      <trkpt lat="43.03598833" lon="-1.22447167">
        <ele>1025.0</ele>
        <time>2019-08-01T07:35:14.019Z</time>
      </trkpt>
      <trkpt lat="43.035985" lon="-1.22447">
        <ele>1025.0</ele>
        <time>2019-08-01T07:35:15.025Z</time>
      </trkpt>
      <trkpt lat="43.03598333" lon="-1.22446833">
        <ele>1025.0</ele>
        <time>2019-08-01T07:35:16.032Z</time>
      </trkpt>
      <trkpt lat="43.03598333" lon="-1.224465">
        <ele>1024.0</ele>
        <time>2019-08-01T07:35:17.038Z</time>
      </trkpt>
      <trkpt lat="43.03598333" lon="-1.224465">
        <ele>1024.0</ele>
        <time>2019-08-01T07:35:17.919Z</time>
      </trkpt>
      <trkpt lat="43.035985" lon="-1.22446333">
        <ele>1024.0</ele>
        <time>2019-08-01T07:35:18.925Z</time>
      </trkpt>
      <trkpt lat="43.035985" lon="-1.22446333">
        <ele>1023.0</ele>
        <time>2019-08-01T07:35:19.930Z</time>
      </trkpt>
      <trkpt lat="43.03598833" lon="-1.22446167">
        <ele>1023.0</ele>
        <time>2019-08-01T07:35:20.935Z</time>
      </trkpt>
      <trkpt lat="43.03599" lon="-1.22445833">
        <ele>1023.0</ele>
        <time>2019-08-01T07:35:21.942Z</time>
      </trkpt>
      <trkpt lat="43.03598833" lon="-1.22445833">
        <ele>1024.0</ele>
        <time>2019-08-01T07:35:22.948Z</time>
      </trkpt>
      <trkpt lat="43.03598667" lon="-1.22445833">
        <ele>1024.0</ele>
        <time>2019-08-01T07:35:23.955Z</time>
      </trkpt>
      <trkpt lat="43.03598667" lon="-1.22446167">
        <ele>1023.0</ele>
        <time>2019-08-01T07:35:24.960Z</time>
      </trkpt>
      <trkpt lat="43.035985" lon="-1.22446333">
        <ele>1023.0</ele>
        <time>2019-08-01T07:35:25.967Z</time>
      </trkpt>
      <trkpt lat="43.03598667" lon="-1.22446833">
        <ele>1023.0</ele>
        <time>2019-08-01T07:35:26.972Z</time>
      </trkpt>
      <trkpt lat="43.03598667" lon="-1.22447">
        <ele>1023.0</ele>
        <time>2019-08-01T07:35:27.978Z</time>
      </trkpt>
      <trkpt lat="43.03598833" lon="-1.22447333">
        <ele>1023.0</ele>
        <time>2019-08-01T07:35:28.984Z</time>
      </trkpt>
      <trkpt lat="43.03598833" lon="-1.224475">
        <ele>1023.0</ele>
        <time>2019-08-01T07:35:29.990Z</time>
      </trkpt>
      <trkpt lat="43.03599" lon="-1.22447833">
        <ele>1023.0</ele>
        <time>2019-08-01T07:35:30.997Z</time>
      </trkpt>
      <trkpt lat="43.03599" lon="-1.22447833">
        <ele>1022.0</ele>
        <time>2019-08-01T07:35:32.001Z</time>
      </trkpt>
      <trkpt lat="43.03599" lon="-1.22447833">
        <ele>1022.0</ele>
        <time>2019-08-01T07:35:33.008Z</time>
      </trkpt>
      <trkpt lat="43.03599333" lon="-1.224475">
        <ele>1023.0</ele>
        <time>2019-08-01T07:35:34.014Z</time>
      </trkpt>
      <trkpt lat="43.035995" lon="-1.22447333">
        <ele>1023.0</ele>
        <time>2019-08-01T07:35:35.021Z</time>
      </trkpt>
      <trkpt lat="43.035995" lon="-1.22447333">
        <ele>1023.0</ele>
        <time>2019-08-01T07:35:36.025Z</time>
      </trkpt>
      <trkpt lat="43.03599333" lon="-1.224475">
        <ele>1022.0</ele>
        <time>2019-08-01T07:35:37.032Z</time>
      </trkpt>
      <trkpt lat="43.03599333" lon="-1.22447333">
        <ele>1022.0</ele>
        <time>2019-08-01T07:35:38.038Z</time>
      </trkpt>
      <trkpt lat="43.03599333" lon="-1.22447333">
        <ele>1022.0</ele>
        <time>2019-08-01T07:35:38.919Z</time>
      </trkpt>
      <trkpt lat="43.035995" lon="-1.22447167">
        <ele>1021.0</ele>
        <time>2019-08-01T07:35:39.926Z</time>
      </trkpt>
      <trkpt lat="43.03599333" lon="-1.22447333">
        <ele>1021.0</ele>
        <time>2019-08-01T07:35:40.930Z</time>
      </trkpt>
      <trkpt lat="43.03599333" lon="-1.224475">
        <ele>1021.0</ele>
        <time>2019-08-01T07:35:41.936Z</time>
      </trkpt>
      <trkpt lat="43.03599333" lon="-1.224475">
        <ele>1020.0</ele>
        <time>2019-08-01T07:35:42.942Z</time>
      </trkpt>
      <trkpt lat="43.035995" lon="-1.22447667">
        <ele>1020.0</ele>
        <time>2019-08-01T07:35:43.947Z</time>
      </trkpt>
      <trkpt lat="43.035995" lon="-1.22447833">
        <ele>1020.0</ele>
        <time>2019-08-01T07:35:44.952Z</time>
      </trkpt>
      <trkpt lat="43.03599667" lon="-1.22448333">
        <ele>1020.0</ele>
        <time>2019-08-01T07:35:45.959Z</time>
      </trkpt>
      <trkpt lat="43.03599667" lon="-1.22448333">
        <ele>1020.0</ele>
        <time>2019-08-01T07:35:46.965Z</time>
      </trkpt>
      <trkpt lat="43.03600167" lon="-1.22448333">
        <ele>1020.0</ele>
        <time>2019-08-01T07:35:47.970Z</time>
      </trkpt>
      <trkpt lat="43.036" lon="-1.224485">
        <ele>1020.0</ele>
        <time>2019-08-01T07:35:48.974Z</time>
      </trkpt>
      <trkpt lat="43.03599833" lon="-1.22448667">
        <ele>1020.0</ele>
        <time>2019-08-01T07:35:49.981Z</time>
      </trkpt>
      <trkpt lat="43.03599833" lon="-1.224485">
        <ele>1020.0</ele>
        <time>2019-08-01T07:35:50.988Z</time>
      </trkpt>
      <trkpt lat="43.03599833" lon="-1.22448167">
        <ele>1020.0</ele>
        <time>2019-08-01T07:35:51.995Z</time>
      </trkpt>
      <trkpt lat="43.03599833" lon="-1.22448">
        <ele>1019.0</ele>
        <time>2019-08-01T07:35:52.999Z</time>
      </trkpt>
      <trkpt lat="43.03599667" lon="-1.22448167">
        <ele>1019.0</ele>
        <time>2019-08-01T07:35:54.003Z</time>
      </trkpt>
      <trkpt lat="43.03599833" lon="-1.22448167">
        <ele>1020.0</ele>
        <time>2019-08-01T07:35:55.008Z</time>
      </trkpt>
      <trkpt lat="43.03599833" lon="-1.22448333">
        <ele>1020.0</ele>
        <time>2019-08-01T07:35:56.012Z</time>
      </trkpt>
      <trkpt lat="43.03599667" lon="-1.22448333">
        <ele>1020.0</ele>
        <time>2019-08-01T07:35:57.018Z</time>
      </trkpt>
      <trkpt lat="43.03599833" lon="-1.224485">
        <ele>1021.0</ele>
        <time>2019-08-01T07:35:58.026Z</time>
      </trkpt>
      <trkpt lat="43.036" lon="-1.22448833">
        <ele>1021.0</ele>
        <time>2019-08-01T07:35:59.031Z</time>
      </trkpt>
      <trkpt lat="43.036" lon="-1.22449">
        <ele>1022.0</ele>
        <time>2019-08-01T07:36:00.036Z</time>
      </trkpt>
      <trkpt lat="43.03600167" lon="-1.22449167">
        <ele>1022.0</ele>
        <time>2019-08-01T07:36:01.042Z</time>
      </trkpt>
      <trkpt lat="43.03600167" lon="-1.22449167">
        <ele>1022.0</ele>
        <time>2019-08-01T07:36:01.924Z</time>
      </trkpt>
      <trkpt lat="43.03600167" lon="-1.22449167">
        <ele>1022.0</ele>
        <time>2019-08-01T07:36:02.927Z</time>
      </trkpt>
      <trkpt lat="43.036" lon="-1.22449167">
        <ele>1023.0</ele>
        <time>2019-08-01T07:36:03.932Z</time>
      </trkpt>
      <trkpt lat="43.036" lon="-1.22449333">
        <ele>1024.0</ele>
        <time>2019-08-01T07:36:04.939Z</time>
      </trkpt>
      <trkpt lat="43.036" lon="-1.22449333">
        <ele>1025.0</ele>
        <time>2019-08-01T07:36:05.945Z</time>
      </trkpt>
      <trkpt lat="43.03599833" lon="-1.22449667">
        <ele>1025.0</ele>
        <time>2019-08-01T07:36:06.950Z</time>
      </trkpt>
      <trkpt lat="43.03599833" lon="-1.22449833">
        <ele>1025.0</ele>
        <time>2019-08-01T07:36:07.957Z</time>
      </trkpt>
      <trkpt lat="43.03599667" lon="-1.22450167">
        <ele>1025.0</ele>
        <time>2019-08-01T07:36:08.964Z</time>
      </trkpt>
      <trkpt lat="43.035995" lon="-1.22449833">
        <ele>1025.0</ele>
        <time>2019-08-01T07:36:09.971Z</time>
      </trkpt>
      <trkpt lat="43.03599333" lon="-1.22450167">
        <ele>1023.0</ele>
        <time>2019-08-01T07:36:10.979Z</time>
      </trkpt>
      <trkpt lat="43.03599333" lon="-1.22450333">
        <ele>1023.0</ele>
        <time>2019-08-01T07:36:11.983Z</time>
      </trkpt>
      <trkpt lat="43.03599167" lon="-1.22450333">
        <ele>1023.0</ele>
        <time>2019-08-01T07:36:12.990Z</time>
      </trkpt>
      <trkpt lat="43.03599167" lon="-1.22450833">
        <ele>1022.0</ele>
        <time>2019-08-01T07:36:13.996Z</time>
      </trkpt>
      <trkpt lat="43.03599333" lon="-1.22451">
        <ele>1022.0</ele>
        <time>2019-08-01T07:36:15.000Z</time>
      </trkpt>
      <trkpt lat="43.035995" lon="-1.22451">
        <ele>1022.0</ele>
        <time>2019-08-01T07:36:16.006Z</time>
      </trkpt>
      <trkpt lat="43.03599667" lon="-1.22450667">
        <ele>1022.0</ele>
        <time>2019-08-01T07:36:17.012Z</time>
      </trkpt>
      <trkpt lat="43.03599667" lon="-1.22450667">
        <ele>1021.0</ele>
        <time>2019-08-01T07:36:18.017Z</time>
      </trkpt>
      <trkpt lat="43.036" lon="-1.224505">
        <ele>1021.0</ele>
        <time>2019-08-01T07:36:19.023Z</time>
      </trkpt>
      <trkpt lat="43.03600167" lon="-1.2245">
        <ele>1021.0</ele>
        <time>2019-08-01T07:36:20.032Z</time>
      </trkpt>
      <trkpt lat="43.03600167" lon="-1.22449667">
        <ele>1021.0</ele>
        <time>2019-08-01T07:36:21.038Z</time>
      </trkpt>
      <trkpt lat="43.03600167" lon="-1.22449667">
        <ele>1021.0</ele>
        <time>2019-08-01T07:36:21.918Z</time>
      </trkpt>
      <trkpt lat="43.03600333" lon="-1.224495">
        <ele>1021.0</ele>
        <time>2019-08-01T07:36:22.924Z</time>
      </trkpt>
      <trkpt lat="43.03600333" lon="-1.224495">
        <ele>1021.0</ele>
        <time>2019-08-01T07:36:23.928Z</time>
      </trkpt>
      <trkpt lat="43.03599833" lon="-1.22449833">
        <ele>1022.0</ele>
        <time>2019-08-01T07:36:24.933Z</time>
      </trkpt>
      <trkpt lat="43.03599667" lon="-1.22450167">
        <ele>1022.0</ele>
        <time>2019-08-01T07:36:25.940Z</time>
      </trkpt>
      <trkpt lat="43.03599667" lon="-1.22450667">
        <ele>1022.0</ele>
        <time>2019-08-01T07:36:26.946Z</time>
      </trkpt>
      <trkpt lat="43.03599333" lon="-1.22451">
        <ele>1022.0</ele>
        <time>2019-08-01T07:36:27.952Z</time>
      </trkpt>
      <trkpt lat="43.03599167" lon="-1.22451">
        <ele>1022.0</ele>
        <time>2019-08-01T07:36:28.957Z</time>
      </trkpt>
      <trkpt lat="43.03599" lon="-1.22450833">
        <ele>1022.0</ele>
        <time>2019-08-01T07:36:29.963Z</time>
      </trkpt>
      <trkpt lat="43.03598833" lon="-1.22450667">
        <ele>1022.0</ele>
        <time>2019-08-01T07:36:30.969Z</time>
      </trkpt>
      <trkpt lat="43.03599" lon="-1.22450333">
        <ele>1023.0</ele>
        <time>2019-08-01T07:36:31.974Z</time>
      </trkpt>
      <trkpt lat="43.03599333" lon="-1.22450333">
        <ele>1024.0</ele>
        <time>2019-08-01T07:36:32.980Z</time>
      </trkpt>
      <trkpt lat="43.035995" lon="-1.22450667">
        <ele>1024.0</ele>
        <time>2019-08-01T07:36:33.984Z</time>
      </trkpt>
      <trkpt lat="43.03599833" lon="-1.22450667">
        <ele>1023.0</ele>
        <time>2019-08-01T07:36:34.990Z</time>
      </trkpt>
      <trkpt lat="43.03599667" lon="-1.22450667">
        <ele>1023.0</ele>
        <time>2019-08-01T07:36:35.998Z</time>
      </trkpt>
      <trkpt lat="43.03599667" lon="-1.22450333">
        <ele>1023.0</ele>
        <time>2019-08-01T07:36:37.005Z</time>
      </trkpt>
      <trkpt lat="43.03599667" lon="-1.2245">
        <ele>1023.0</ele>
        <time>2019-08-01T07:36:38.010Z</time>
      </trkpt>
      <trkpt lat="43.035995" lon="-1.22449833">
        <ele>1023.0</ele>
        <time>2019-08-01T07:36:39.013Z</time>
      </trkpt>
      <trkpt lat="43.03599333" lon="-1.22449667">
        <ele>1023.0</ele>
        <time>2019-08-01T07:36:40.018Z</time>
      </trkpt>
      <trkpt lat="43.03599167" lon="-1.22449">
        <ele>1024.0</ele>
        <time>2019-08-01T07:36:41.025Z</time>
      </trkpt>
      <trkpt lat="43.03599" lon="-1.22448833">
        <ele>1024.0</ele>
        <time>2019-08-01T07:36:42.031Z</time>
      </trkpt>
      <trkpt lat="43.03598833" lon="-1.224485">
        <ele>1023.0</ele>
        <time>2019-08-01T07:36:43.037Z</time>
      </trkpt>
      <trkpt lat="43.03598833" lon="-1.22448167">
        <ele>1023.0</ele>
        <time>2019-08-01T07:36:44.042Z</time>
      </trkpt>
      <trkpt lat="43.03598833" lon="-1.22448167">
        <ele>1023.0</ele>
        <time>2019-08-01T07:36:44.922Z</time>
      </trkpt>
      <trkpt lat="43.03599" lon="-1.22448">
        <ele>1023.0</ele>
        <time>2019-08-01T07:36:45.928Z</time>
      </trkpt>
      <trkpt lat="43.03599" lon="-1.22447333">
        <ele>1022.0</ele>
        <time>2019-08-01T07:36:46.934Z</time>
      </trkpt>
      <trkpt lat="43.03599167" lon="-1.224475">
        <ele>1021.0</ele>
        <time>2019-08-01T07:36:47.938Z</time>
      </trkpt>
      <trkpt lat="43.03599333" lon="-1.22447667">
        <ele>1020.0</ele>
        <time>2019-08-01T07:36:48.940Z</time>
      </trkpt>
      <trkpt lat="43.03599167" lon="-1.22447667">
        <ele>1020.0</ele>
        <time>2019-08-01T07:36:49.943Z</time>
      </trkpt>
      <trkpt lat="43.03599167" lon="-1.224475">
        <ele>1019.0</ele>
        <time>2019-08-01T07:36:50.948Z</time>
      </trkpt>
      <trkpt lat="43.03599167" lon="-1.224475">
        <ele>1019.0</ele>
        <time>2019-08-01T07:36:51.954Z</time>
      </trkpt>
      <trkpt lat="43.03599167" lon="-1.224475">
        <ele>1020.0</ele>
        <time>2019-08-01T07:36:52.957Z</time>
      </trkpt>
      <trkpt lat="43.03599167" lon="-1.224475">
        <ele>1020.0</ele>
        <time>2019-08-01T07:36:53.964Z</time>
      </trkpt>
      <trkpt lat="43.03599167" lon="-1.224475">
        <ele>1020.0</ele>
        <time>2019-08-01T07:36:54.969Z</time>
      </trkpt>
      <trkpt lat="43.03598833" lon="-1.22448">
        <ele>1021.0</ele>
        <time>2019-08-01T07:36:55.977Z</time>
      </trkpt>
      <trkpt lat="43.03598667" lon="-1.22448333">
        <ele>1021.0</ele>
        <time>2019-08-01T07:36:56.983Z</time>
      </trkpt>
      <trkpt lat="43.03598667" lon="-1.224485">
        <ele>1021.0</ele>
        <time>2019-08-01T07:36:57.990Z</time>
      </trkpt>
      <trkpt lat="43.03598833" lon="-1.224485">
        <ele>1021.0</ele>
        <time>2019-08-01T07:36:58.994Z</time>
      </trkpt>
      <trkpt lat="43.03599" lon="-1.224485">
        <ele>1022.0</ele>
        <time>2019-08-01T07:36:59.998Z</time>
      </trkpt>
      <trkpt lat="43.03599167" lon="-1.22448667">
        <ele>1022.0</ele>
        <time>2019-08-01T07:37:01.004Z</time>
      </trkpt>
      <trkpt lat="43.03599333" lon="-1.22449">
        <ele>1023.0</ele>
        <time>2019-08-01T07:37:02.011Z</time>
      </trkpt>
      <trkpt lat="43.035995" lon="-1.22449167">
        <ele>1023.0</ele>
        <time>2019-08-01T07:37:03.016Z</time>
      </trkpt>
      <trkpt lat="43.036" lon="-1.22449167">
        <ele>1023.0</ele>
        <time>2019-08-01T07:37:04.023Z</time>
      </trkpt>
      <trkpt lat="43.036" lon="-1.224495">
        <ele>1023.0</ele>
        <time>2019-08-01T07:37:05.029Z</time>
      </trkpt>
      <trkpt lat="43.03600167" lon="-1.22449667">
        <ele>1022.0</ele>
        <time>2019-08-01T07:37:06.036Z</time>
      </trkpt>
      <trkpt lat="43.03600333" lon="-1.224495">
        <ele>1022.0</ele>
        <time>2019-08-01T07:37:07.043Z</time>
      </trkpt>
      <trkpt lat="43.03600333" lon="-1.224495">
        <ele>1022.0</ele>
        <time>2019-08-01T07:37:07.922Z</time>
      </trkpt>
      <trkpt lat="43.03600667" lon="-1.22449333">
        <ele>1022.0</ele>
        <time>2019-08-01T07:37:08.929Z</time>
      </trkpt>
      <trkpt lat="43.036005" lon="-1.224495">
        <ele>1022.0</ele>
        <time>2019-08-01T07:37:09.935Z</time>
      </trkpt>
      <trkpt lat="43.03600667" lon="-1.2245">
        <ele>1022.0</ele>
        <time>2019-08-01T07:37:10.942Z</time>
      </trkpt>
      <trkpt lat="43.036005" lon="-1.22450333">
        <ele>1023.0</ele>
        <time>2019-08-01T07:37:11.948Z</time>
      </trkpt>
      <trkpt lat="43.03600333" lon="-1.22450167">
        <ele>1023.0</ele>
        <time>2019-08-01T07:37:12.951Z</time>
      </trkpt>
      <trkpt lat="43.036" lon="-1.22450167">
        <ele>1023.0</ele>
        <time>2019-08-01T07:37:13.956Z</time>
      </trkpt>
      <trkpt lat="43.03599833" lon="-1.22450167">
        <ele>1023.0</ele>
        <time>2019-08-01T07:37:14.960Z</time>
      </trkpt>
      <trkpt lat="43.036" lon="-1.2245">
        <ele>1024.0</ele>
        <time>2019-08-01T07:37:15.965Z</time>
      </trkpt>
      <trkpt lat="43.03600167" lon="-1.22450333">
        <ele>1024.0</ele>
        <time>2019-08-01T07:37:16.969Z</time>
      </trkpt>
      <trkpt lat="43.03600333" lon="-1.22450667">
        <ele>1024.0</ele>
        <time>2019-08-01T07:37:17.974Z</time>
      </trkpt>
      <trkpt lat="43.036" lon="-1.22451167">
        <ele>1023.0</ele>
        <time>2019-08-01T07:37:18.978Z</time>
      </trkpt>
      <trkpt lat="43.036" lon="-1.22451333">
        <ele>1023.0</ele>
        <time>2019-08-01T07:37:19.982Z</time>
      </trkpt>
      <trkpt lat="43.03599833" lon="-1.224515">
        <ele>1023.0</ele>
        <time>2019-08-01T07:37:20.988Z</time>
      </trkpt>
      <trkpt lat="43.03599667" lon="-1.224515">
        <ele>1023.0</ele>
        <time>2019-08-01T07:37:21.994Z</time>
      </trkpt>
      <trkpt lat="43.03599667" lon="-1.224515">
        <ele>1023.0</ele>
        <time>2019-08-01T07:37:23.002Z</time>
      </trkpt>
      <trkpt lat="43.03599667" lon="-1.224515">
        <ele>1023.0</ele>
        <time>2019-08-01T07:37:24.008Z</time>
      </trkpt>
      <trkpt lat="43.03599833" lon="-1.22451167">
        <ele>1023.0</ele>
        <time>2019-08-01T07:37:25.014Z</time>
      </trkpt>
      <trkpt lat="43.036" lon="-1.22451">
        <ele>1023.0</ele>
        <time>2019-08-01T07:37:26.020Z</time>
      </trkpt>
      <trkpt lat="43.036005" lon="-1.22450833">
        <ele>1023.0</ele>
        <time>2019-08-01T07:37:27.027Z</time>
      </trkpt>
      <trkpt lat="43.03600667" lon="-1.22450833">
        <ele>1023.0</ele>
        <time>2019-08-01T07:37:28.034Z</time>
      </trkpt>
      <trkpt lat="43.03601" lon="-1.22450667">
        <ele>1024.0</ele>
        <time>2019-08-01T07:37:29.039Z</time>
      </trkpt>
      <trkpt lat="43.03601" lon="-1.22450667">
        <ele>1024.0</ele>
        <time>2019-08-01T07:37:29.921Z</time>
      </trkpt>
      <trkpt lat="43.03601" lon="-1.22450667">
        <ele>1024.0</ele>
        <time>2019-08-01T07:37:30.928Z</time>
      </trkpt>
      <trkpt lat="43.03601167" lon="-1.22450667">
        <ele>1024.0</ele>
        <time>2019-08-01T07:37:31.934Z</time>
      </trkpt>
      <trkpt lat="43.03601333" lon="-1.22451">
        <ele>1024.0</ele>
        <time>2019-08-01T07:37:32.939Z</time>
      </trkpt>
      <trkpt lat="43.03601667" lon="-1.22451167">
        <ele>1024.0</ele>
        <time>2019-08-01T07:37:33.945Z</time>
      </trkpt>
      <trkpt lat="43.03601667" lon="-1.224515">
        <ele>1024.0</ele>
        <time>2019-08-01T07:37:34.952Z</time>
      </trkpt>
      <trkpt lat="43.036015" lon="-1.22451667">
        <ele>1024.0</ele>
        <time>2019-08-01T07:37:35.958Z</time>
      </trkpt>
      <trkpt lat="43.03601333" lon="-1.22451333">
        <ele>1023.0</ele>
        <time>2019-08-01T07:37:36.964Z</time>
      </trkpt>
      <trkpt lat="43.03601333" lon="-1.22450833">
        <ele>1023.0</ele>
        <time>2019-08-01T07:37:37.969Z</time>
      </trkpt>
      <trkpt lat="43.03601333" lon="-1.22450667">
        <ele>1022.0</ele>
        <time>2019-08-01T07:37:38.973Z</time>
      </trkpt>
      <trkpt lat="43.03601" lon="-1.22450333">
        <ele>1022.0</ele>
        <time>2019-08-01T07:37:39.979Z</time>
      </trkpt>
      <trkpt lat="43.03601" lon="-1.224505">
        <ele>1022.0</ele>
        <time>2019-08-01T07:37:40.985Z</time>
      </trkpt>
      <trkpt lat="43.03600833" lon="-1.224505">
        <ele>1022.0</ele>
        <time>2019-08-01T07:37:41.991Z</time>
      </trkpt>
      <trkpt lat="43.036005" lon="-1.22450333">
        <ele>1022.0</ele>
        <time>2019-08-01T07:37:42.997Z</time>
      </trkpt>
      <trkpt lat="43.03600333" lon="-1.22450333">
        <ele>1022.0</ele>
        <time>2019-08-01T07:37:44.000Z</time>
      </trkpt>
      <trkpt lat="43.03600667" lon="-1.22450167">
        <ele>1023.0</ele>
        <time>2019-08-01T07:37:45.007Z</time>
      </trkpt>
      <trkpt lat="43.03600667" lon="-1.22450167">
        <ele>1023.0</ele>
        <time>2019-08-01T07:37:46.012Z</time>
      </trkpt>
      <trkpt lat="43.03600833" lon="-1.22449833">
        <ele>1023.0</ele>
        <time>2019-08-01T07:37:47.019Z</time>
      </trkpt>
      <trkpt lat="43.03600833" lon="-1.224495">
        <ele>1022.0</ele>
        <time>2019-08-01T07:37:48.025Z</time>
      </trkpt>
      <trkpt lat="43.03600667" lon="-1.22449333">
        <ele>1022.0</ele>
        <time>2019-08-01T07:37:49.033Z</time>
      </trkpt>
      <trkpt lat="43.036005" lon="-1.22449167">
        <ele>1022.0</ele>
        <time>2019-08-01T07:37:50.039Z</time>
      </trkpt>
      <trkpt lat="43.036005" lon="-1.22449167">
        <ele>1022.0</ele>
        <time>2019-08-01T07:37:50.920Z</time>
      </trkpt>
      <trkpt lat="43.036005" lon="-1.22449333">
        <ele>1022.0</ele>
        <time>2019-08-01T07:37:51.927Z</time>
      </trkpt>
      <trkpt lat="43.03600333" lon="-1.224495">
        <ele>1022.0</ele>
        <time>2019-08-01T07:37:52.932Z</time>
      </trkpt>
      <trkpt lat="43.03600333" lon="-1.224495">
        <ele>1022.0</ele>
        <time>2019-08-01T07:37:53.940Z</time>
      </trkpt>
      <trkpt lat="43.036005" lon="-1.22449167">
        <ele>1022.0</ele>
        <time>2019-08-01T07:37:54.946Z</time>
      </trkpt>
      <trkpt lat="43.03600667" lon="-1.22449167">
        <ele>1022.0</ele>
        <time>2019-08-01T07:37:55.951Z</time>
      </trkpt>
      <trkpt lat="43.03600667" lon="-1.22449">
        <ele>1022.0</ele>
        <time>2019-08-01T07:37:56.957Z</time>
      </trkpt>
      <trkpt lat="43.03600833" lon="-1.22449167">
        <ele>1022.0</ele>
        <time>2019-08-01T07:37:57.962Z</time>
      </trkpt>
      <trkpt lat="43.03600833" lon="-1.22449">
        <ele>1023.0</ele>
        <time>2019-08-01T07:37:58.966Z</time>
      </trkpt>
      <trkpt lat="43.03600667" lon="-1.22449">
        <ele>1023.0</ele>
        <time>2019-08-01T07:37:59.970Z</time>
      </trkpt>
      <trkpt lat="43.03600667" lon="-1.22448833">
        <ele>1024.0</ele>
        <time>2019-08-01T07:38:00.976Z</time>
      </trkpt>
      <trkpt lat="43.036005" lon="-1.22448833">
        <ele>1024.0</ele>
        <time>2019-08-01T07:38:01.983Z</time>
      </trkpt>
      <trkpt lat="43.03600167" lon="-1.22449">
        <ele>1024.0</ele>
        <time>2019-08-01T07:38:02.989Z</time>
      </trkpt>
      <trkpt lat="43.036" lon="-1.22449333">
        <ele>1024.0</ele>
        <time>2019-08-01T07:38:03.996Z</time>
      </trkpt>
      <trkpt lat="43.036" lon="-1.224495">
        <ele>1024.0</ele>
        <time>2019-08-01T07:38:05.002Z</time>
      </trkpt>
      <trkpt lat="43.03600167" lon="-1.22449667">
        <ele>1024.0</ele>
        <time>2019-08-01T07:38:06.006Z</time>
      </trkpt>
      <trkpt lat="43.03600167" lon="-1.22449667">
        <ele>1024.0</ele>
        <time>2019-08-01T07:38:07.011Z</time>
      </trkpt>
      <trkpt lat="43.03600167" lon="-1.22449833">
        <ele>1025.0</ele>
        <time>2019-08-01T07:38:08.016Z</time>
      </trkpt>
      <trkpt lat="43.03600167" lon="-1.22449833">
        <ele>1025.0</ele>
        <time>2019-08-01T07:38:09.022Z</time>
      </trkpt>
      <trkpt lat="43.03600167" lon="-1.22449833">
        <ele>1025.0</ele>
        <time>2019-08-01T07:38:10.028Z</time>
      </trkpt>
      <trkpt lat="43.036" lon="-1.22449667">
        <ele>1025.0</ele>
        <time>2019-08-01T07:38:11.034Z</time>
      </trkpt>
      <trkpt lat="43.03600167" lon="-1.22449667">
        <ele>1024.0</ele>
        <time>2019-08-01T07:38:12.039Z</time>
      </trkpt>
      <trkpt lat="43.03600167" lon="-1.22449667">
        <ele>1024.0</ele>
        <time>2019-08-01T07:38:12.921Z</time>
      </trkpt>
      <trkpt lat="43.03599833" lon="-1.22449667">
        <ele>1024.0</ele>
        <time>2019-08-01T07:38:13.928Z</time>
      </trkpt>
      <trkpt lat="43.03599667" lon="-1.224495">
        <ele>1024.0</ele>
        <time>2019-08-01T07:38:14.933Z</time>
      </trkpt>
      <trkpt lat="43.03599333" lon="-1.224495">
        <ele>1024.0</ele>
        <time>2019-08-01T07:38:15.939Z</time>
      </trkpt>
      <trkpt lat="43.03599333" lon="-1.22449667">
        <ele>1024.0</ele>
        <time>2019-08-01T07:38:16.946Z</time>
      </trkpt>
      <trkpt lat="43.03599333" lon="-1.224495">
        <ele>1024.0</ele>
        <time>2019-08-01T07:38:17.950Z</time>
      </trkpt>
      <trkpt lat="43.035995" lon="-1.22449333">
        <ele>1024.0</ele>
        <time>2019-08-01T07:38:18.956Z</time>
      </trkpt>
      <trkpt lat="43.03599667" lon="-1.22449">
        <ele>1024.0</ele>
        <time>2019-08-01T07:38:19.964Z</time>
      </trkpt>
      <trkpt lat="43.036" lon="-1.22449">
        <ele>1023.0</ele>
        <time>2019-08-01T07:38:20.970Z</time>
      </trkpt>
      <trkpt lat="43.036" lon="-1.22449">
        <ele>1023.0</ele>
        <time>2019-08-01T07:38:21.976Z</time>
      </trkpt>
      <trkpt lat="43.036" lon="-1.22449">
        <ele>1023.0</ele>
        <time>2019-08-01T07:38:22.981Z</time>
      </trkpt>
      <trkpt lat="43.036" lon="-1.22448833">
        <ele>1023.0</ele>
        <time>2019-08-01T07:38:23.985Z</time>
      </trkpt>
      <trkpt lat="43.036" lon="-1.22448667">
        <ele>1023.0</ele>
        <time>2019-08-01T07:38:24.993Z</time>
      </trkpt>
      <trkpt lat="43.03599833" lon="-1.22449">
        <ele>1024.0</ele>
        <time>2019-08-01T07:38:26.000Z</time>
      </trkpt>
      <trkpt lat="43.036" lon="-1.22449333">
        <ele>1025.0</ele>
        <time>2019-08-01T07:38:27.006Z</time>
      </trkpt>
      <trkpt lat="43.03600167" lon="-1.22449833">
        <ele>1026.0</ele>
        <time>2019-08-01T07:38:28.011Z</time>
      </trkpt>
      <trkpt lat="43.03600333" lon="-1.22449667">
        <ele>1026.0</ele>
        <time>2019-08-01T07:38:29.016Z</time>
      </trkpt>
      <trkpt lat="43.03600333" lon="-1.22449833">
        <ele>1026.0</ele>
        <time>2019-08-01T07:38:30.021Z</time>
      </trkpt>
      <trkpt lat="43.036005" lon="-1.22449667">
        <ele>1026.0</ele>
        <time>2019-08-01T07:38:31.028Z</time>
      </trkpt>
      <trkpt lat="43.03600333" lon="-1.22449833">
        <ele>1026.0</ele>
        <time>2019-08-01T07:38:32.032Z</time>
      </trkpt>
      <trkpt lat="43.03600333" lon="-1.224495">
        <ele>1026.0</ele>
        <time>2019-08-01T07:38:33.038Z</time>
      </trkpt>
      <trkpt lat="43.03600333" lon="-1.224495">
        <ele>1026.0</ele>
        <time>2019-08-01T07:38:33.921Z</time>
      </trkpt>
      <trkpt lat="43.03600167" lon="-1.224495">
        <ele>1025.0</ele>
        <time>2019-08-01T07:38:34.928Z</time>
      </trkpt>
      <trkpt lat="43.03600333" lon="-1.224495">
        <ele>1025.0</ele>
        <time>2019-08-01T07:38:35.932Z</time>
      </trkpt>
      <trkpt lat="43.03600333" lon="-1.22449167">
        <ele>1025.0</ele>
        <time>2019-08-01T07:38:36.937Z</time>
      </trkpt>
      <trkpt lat="43.03600333" lon="-1.22448833">
        <ele>1025.0</ele>
        <time>2019-08-01T07:38:37.943Z</time>
      </trkpt>
      <trkpt lat="43.03599833" lon="-1.22449">
        <ele>1025.0</ele>
        <time>2019-08-01T07:38:38.948Z</time>
      </trkpt>
      <trkpt lat="43.03599667" lon="-1.22449167">
        <ele>1026.0</ele>
        <time>2019-08-01T07:38:39.955Z</time>
      </trkpt>
      <trkpt lat="43.035995" lon="-1.22449667">
        <ele>1026.0</ele>
        <time>2019-08-01T07:38:40.962Z</time>
      </trkpt>
      <trkpt lat="43.035995" lon="-1.22449667">
        <ele>1027.0</ele>
        <time>2019-08-01T07:38:41.969Z</time>
      </trkpt>
      <trkpt lat="43.035995" lon="-1.224495">
        <ele>1026.0</ele>
        <time>2019-08-01T07:38:42.976Z</time>
      </trkpt>
      <trkpt lat="43.035995" lon="-1.22449167">
        <ele>1026.0</ele>
        <time>2019-08-01T07:38:43.982Z</time>
      </trkpt>
      <trkpt lat="43.03599667" lon="-1.22449167">
        <ele>1026.0</ele>
        <time>2019-08-01T07:38:44.988Z</time>
      </trkpt>
      <trkpt lat="43.03599667" lon="-1.22449">
        <ele>1026.0</ele>
        <time>2019-08-01T07:38:45.994Z</time>
      </trkpt>
      <trkpt lat="43.03599167" lon="-1.22448833">
        <ele>1026.0</ele>
        <time>2019-08-01T07:38:47.000Z</time>
      </trkpt>
      <trkpt lat="43.03599" lon="-1.22449">
        <ele>1026.0</ele>
        <time>2019-08-01T07:38:48.004Z</time>
      </trkpt>
      <trkpt lat="43.03598833" lon="-1.22449">
        <ele>1026.0</ele>
        <time>2019-08-01T07:38:49.011Z</time>
      </trkpt>
      <trkpt lat="43.03599" lon="-1.22449">
        <ele>1027.0</ele>
        <time>2019-08-01T07:38:50.014Z</time>
      </trkpt>
      <trkpt lat="43.03599167" lon="-1.22449">
        <ele>1027.0</ele>
        <time>2019-08-01T07:38:51.022Z</time>
      </trkpt>
      <trkpt lat="43.03599333" lon="-1.22448667">
        <ele>1027.0</ele>
        <time>2019-08-01T07:38:52.029Z</time>
      </trkpt>
      <trkpt lat="43.035995" lon="-1.224485">
        <ele>1027.0</ele>
        <time>2019-08-01T07:38:53.036Z</time>
      </trkpt>
      <trkpt lat="43.03599" lon="-1.22448667">
        <ele>1026.0</ele>
        <time>2019-08-01T07:38:54.043Z</time>
      </trkpt>
      <trkpt lat="43.03599" lon="-1.22448667">
        <ele>1026.0</ele>
        <time>2019-08-01T07:38:54.924Z</time>
      </trkpt>
      <trkpt lat="43.03598667" lon="-1.22448833">
        <ele>1026.0</ele>
        <time>2019-08-01T07:38:55.931Z</time>
      </trkpt>
      <trkpt lat="43.03598667" lon="-1.22449">
        <ele>1026.0</ele>
        <time>2019-08-01T07:38:56.936Z</time>
      </trkpt>
      <trkpt lat="43.03598833" lon="-1.22449">
        <ele>1026.0</ele>
        <time>2019-08-01T07:38:57.941Z</time>
      </trkpt>
      <trkpt lat="43.03598833" lon="-1.22449">
        <ele>1027.0</ele>
        <time>2019-08-01T07:38:58.947Z</time>
      </trkpt>
      <trkpt lat="43.03598833" lon="-1.22449167">
        <ele>1027.0</ele>
        <time>2019-08-01T07:38:59.953Z</time>
      </trkpt>
      <trkpt lat="43.03598833" lon="-1.22449167">
        <ele>1027.0</ele>
        <time>2019-08-01T07:39:00.960Z</time>
      </trkpt>
      <trkpt lat="43.03598667" lon="-1.22449333">
        <ele>1027.0</ele>
        <time>2019-08-01T07:39:01.965Z</time>
      </trkpt>
      <trkpt lat="43.035985" lon="-1.22449333">
        <ele>1026.0</ele>
        <time>2019-08-01T07:39:02.971Z</time>
      </trkpt>
      <trkpt lat="43.03598167" lon="-1.22449667">
        <ele>1026.0</ele>
        <time>2019-08-01T07:39:03.979Z</time>
      </trkpt>
      <trkpt lat="43.03598" lon="-1.22449833">
        <ele>1026.0</ele>
        <time>2019-08-01T07:39:04.985Z</time>
      </trkpt>
      <trkpt lat="43.03598" lon="-1.22449833">
        <ele>1026.0</ele>
        <time>2019-08-01T07:39:05.990Z</time>
      </trkpt>
      <trkpt lat="43.03598167" lon="-1.2245">
        <ele>1026.0</ele>
        <time>2019-08-01T07:39:06.998Z</time>
      </trkpt>
      <trkpt lat="43.03598333" lon="-1.22450167">
        <ele>1026.0</ele>
        <time>2019-08-01T07:39:08.005Z</time>
      </trkpt>
      <trkpt lat="43.035985" lon="-1.22449833">
        <ele>1026.0</ele>
        <time>2019-08-01T07:39:09.010Z</time>
      </trkpt>
      <trkpt lat="43.035985" lon="-1.224495">
        <ele>1026.0</ele>
        <time>2019-08-01T07:39:10.014Z</time>
      </trkpt>
      <trkpt lat="43.03598667" lon="-1.22449333">
        <ele>1027.0</ele>
        <time>2019-08-01T07:39:11.021Z</time>
      </trkpt>
      <trkpt lat="43.03598833" lon="-1.22449333">
        <ele>1027.0</ele>
        <time>2019-08-01T07:39:12.029Z</time>
      </trkpt>
      <trkpt lat="43.03599" lon="-1.22449167">
        <ele>1027.0</ele>
        <time>2019-08-01T07:39:13.037Z</time>
      </trkpt>
      <trkpt lat="43.03599" lon="-1.22449">
        <ele>1027.0</ele>
        <time>2019-08-01T07:39:14.042Z</time>
      </trkpt>
      <trkpt lat="43.03599" lon="-1.22449">
        <ele>1027.0</ele>
        <time>2019-08-01T07:39:14.922Z</time>
      </trkpt>
      <trkpt lat="43.03598833" lon="-1.22449">
        <ele>1027.0</ele>
        <time>2019-08-01T07:39:15.928Z</time>
      </trkpt>
      <trkpt lat="43.03599" lon="-1.22448833">
        <ele>1027.0</ele>
        <time>2019-08-01T07:39:16.933Z</time>
      </trkpt>
      <trkpt lat="43.03599" lon="-1.22448833">
        <ele>1027.0</ele>
        <time>2019-08-01T07:39:17.940Z</time>
      </trkpt>
      <trkpt lat="43.03599167" lon="-1.22448833">
        <ele>1027.0</ele>
        <time>2019-08-01T07:39:18.945Z</time>
      </trkpt>
      <trkpt lat="43.03599333" lon="-1.22449167">
        <ele>1027.0</ele>
        <time>2019-08-01T07:39:19.950Z</time>
      </trkpt>
      <trkpt lat="43.035995" lon="-1.22449333">
        <ele>1027.0</ele>
        <time>2019-08-01T07:39:20.953Z</time>
      </trkpt>
      <trkpt lat="43.03599833" lon="-1.22449167">
        <ele>1026.0</ele>
        <time>2019-08-01T07:39:21.958Z</time>
      </trkpt>
      <trkpt lat="43.03600167" lon="-1.22448833">
        <ele>1026.0</ele>
        <time>2019-08-01T07:39:22.964Z</time>
      </trkpt>
      <trkpt lat="43.036" lon="-1.22448833">
        <ele>1026.0</ele>
        <time>2019-08-01T07:39:23.968Z</time>
      </trkpt>
      <trkpt lat="43.03600167" lon="-1.22448833">
        <ele>1026.0</ele>
        <time>2019-08-01T07:39:24.974Z</time>
      </trkpt>
      <trkpt lat="43.03600333" lon="-1.22449333">
        <ele>1026.0</ele>
        <time>2019-08-01T07:39:25.981Z</time>
      </trkpt>
      <trkpt lat="43.03600333" lon="-1.22449333">
        <ele>1027.0</ele>
        <time>2019-08-01T07:39:26.987Z</time>
      </trkpt>
      <trkpt lat="43.03600333" lon="-1.22449333">
        <ele>1027.0</ele>
        <time>2019-08-01T07:39:27.992Z</time>
      </trkpt>
      <trkpt lat="43.036" lon="-1.22449333">
        <ele>1027.0</ele>
        <time>2019-08-01T07:39:28.997Z</time>
      </trkpt>
      <trkpt lat="43.03599833" lon="-1.22449333">
        <ele>1026.0</ele>
        <time>2019-08-01T07:39:30.004Z</time>
      </trkpt>
      <trkpt lat="43.036" lon="-1.22449167">
        <ele>1026.0</ele>
        <time>2019-08-01T07:39:31.009Z</time>
      </trkpt>
      <trkpt lat="43.036" lon="-1.22449167">
        <ele>1026.0</ele>
        <time>2019-08-01T07:39:32.014Z</time>
      </trkpt>
      <trkpt lat="43.03599833" lon="-1.22449167">
        <ele>1026.0</ele>
        <time>2019-08-01T07:39:33.020Z</time>
      </trkpt>
      <trkpt lat="43.03599833" lon="-1.22449167">
        <ele>1026.0</ele>
        <time>2019-08-01T07:39:34.026Z</time>
      </trkpt>
      <trkpt lat="43.03599833" lon="-1.22449167">
        <ele>1026.0</ele>
        <time>2019-08-01T07:39:35.029Z</time>
      </trkpt>
      <trkpt lat="43.03599667" lon="-1.22449333">
        <ele>1026.0</ele>
        <time>2019-08-01T07:39:36.036Z</time>
      </trkpt>
      <trkpt lat="43.03599333" lon="-1.224495">
        <ele>1026.0</ele>
        <time>2019-08-01T07:39:37.043Z</time>
      </trkpt>
      <trkpt lat="43.03599333" lon="-1.224495">
        <ele>1026.0</ele>
        <time>2019-08-01T07:39:37.924Z</time>
      </trkpt>
      <trkpt lat="43.03599333" lon="-1.22449333">
        <ele>1025.0</ele>
        <time>2019-08-01T07:39:38.930Z</time>
      </trkpt>
      <trkpt lat="43.035995" lon="-1.22449167">
        <ele>1025.0</ele>
        <time>2019-08-01T07:39:39.934Z</time>
      </trkpt>
      <trkpt lat="43.03599667" lon="-1.22449">
        <ele>1025.0</ele>
        <time>2019-08-01T07:39:40.941Z</time>
      </trkpt>
      <trkpt lat="43.03599667" lon="-1.22449167">
        <ele>1025.0</ele>
        <time>2019-08-01T07:39:41.945Z</time>
      </trkpt>
      <trkpt lat="43.03599667" lon="-1.22449">
        <ele>1025.0</ele>
        <time>2019-08-01T07:39:42.949Z</time>
      </trkpt>
      <trkpt lat="43.03599667" lon="-1.22449">
        <ele>1024.0</ele>
        <time>2019-08-01T07:39:43.953Z</time>
      </trkpt>
      <trkpt lat="43.03599667" lon="-1.22449">
        <ele>1025.0</ele>
        <time>2019-08-01T07:39:44.959Z</time>
      </trkpt>
      <trkpt lat="43.03599833" lon="-1.22449">
        <ele>1025.0</ele>
        <time>2019-08-01T07:39:45.965Z</time>
      </trkpt>
      <trkpt lat="43.03600167" lon="-1.22448667">
        <ele>1025.0</ele>
        <time>2019-08-01T07:39:46.969Z</time>
      </trkpt>
      <trkpt lat="43.03600333" lon="-1.22448333">
        <ele>1025.0</ele>
        <time>2019-08-01T07:39:47.974Z</time>
      </trkpt>
      <trkpt lat="43.03600333" lon="-1.22448">
        <ele>1025.0</ele>
        <time>2019-08-01T07:39:48.981Z</time>
      </trkpt>
      <trkpt lat="43.03600667" lon="-1.22448">
        <ele>1026.0</ele>
        <time>2019-08-01T07:39:49.986Z</time>
      </trkpt>
      <trkpt lat="43.03600667" lon="-1.22447833">
        <ele>1025.0</ele>
        <time>2019-08-01T07:39:50.993Z</time>
      </trkpt>
      <trkpt lat="43.03600667" lon="-1.22448">
        <ele>1026.0</ele>
        <time>2019-08-01T07:39:51.999Z</time>
      </trkpt>
      <trkpt lat="43.03600333" lon="-1.22447833">
        <ele>1026.0</ele>
        <time>2019-08-01T07:39:53.005Z</time>
      </trkpt>
      <trkpt lat="43.03600167" lon="-1.224475">
        <ele>1026.0</ele>
        <time>2019-08-01T07:39:54.008Z</time>
      </trkpt>
      <trkpt lat="43.03600167" lon="-1.22447333">
        <ele>1026.0</ele>
        <time>2019-08-01T07:39:55.012Z</time>
      </trkpt>
      <trkpt lat="43.03600167" lon="-1.22447667">
        <ele>1026.0</ele>
        <time>2019-08-01T07:39:56.020Z</time>
      </trkpt>
      <trkpt lat="43.036" lon="-1.22447667">
        <ele>1027.0</ele>
        <time>2019-08-01T07:39:57.027Z</time>
      </trkpt>
      <trkpt lat="43.03599833" lon="-1.22447667">
        <ele>1027.0</ele>
        <time>2019-08-01T07:39:58.034Z</time>
      </trkpt>
      <trkpt lat="43.036" lon="-1.22448">
        <ele>1028.0</ele>
        <time>2019-08-01T07:39:59.042Z</time>
      </trkpt>
      <trkpt lat="43.036" lon="-1.22448">
        <ele>1028.0</ele>
        <time>2019-08-01T07:39:59.921Z</time>
      </trkpt>
      <trkpt lat="43.03600167" lon="-1.22448167">
        <ele>1028.0</ele>
        <time>2019-08-01T07:40:00.928Z</time>
      </trkpt>
      <trkpt lat="43.03600333" lon="-1.224485">
        <ele>1028.0</ele>
        <time>2019-08-01T07:40:01.934Z</time>
      </trkpt>
      <trkpt lat="43.03600333" lon="-1.224485">
        <ele>1028.0</ele>
        <time>2019-08-01T07:40:02.938Z</time>
      </trkpt>
      <trkpt lat="43.03600167" lon="-1.224485">
        <ele>1028.0</ele>
        <time>2019-08-01T07:40:03.945Z</time>
      </trkpt>
      <trkpt lat="43.03600333" lon="-1.224485">
        <ele>1028.0</ele>
        <time>2019-08-01T07:40:04.950Z</time>
      </trkpt>
      <trkpt lat="43.03600167" lon="-1.22448333">
        <ele>1028.0</ele>
        <time>2019-08-01T07:40:05.955Z</time>
      </trkpt>
      <trkpt lat="43.03600333" lon="-1.22448667">
        <ele>1028.0</ele>
        <time>2019-08-01T07:40:06.960Z</time>
      </trkpt>
      <trkpt lat="43.036005" lon="-1.224485">
        <ele>1028.0</ele>
        <time>2019-08-01T07:40:07.964Z</time>
      </trkpt>
      <trkpt lat="43.036005" lon="-1.22448833">
        <ele>1027.0</ele>
        <time>2019-08-01T07:40:08.969Z</time>
      </trkpt>
      <trkpt lat="43.036005" lon="-1.22448833">
        <ele>1027.0</ele>
        <time>2019-08-01T07:40:09.976Z</time>
      </trkpt>
      <trkpt lat="43.03600167" lon="-1.224495">
        <ele>1027.0</ele>
        <time>2019-08-01T07:40:10.984Z</time>
      </trkpt>
      <trkpt lat="43.036" lon="-1.22449833">
        <ele>1028.0</ele>
        <time>2019-08-01T07:40:11.990Z</time>
      </trkpt>
      <trkpt lat="43.03600167" lon="-1.22449833">
        <ele>1028.0</ele>
        <time>2019-08-01T07:40:12.995Z</time>
      </trkpt>
      <trkpt lat="43.03600333" lon="-1.22449833">
        <ele>1029.0</ele>
        <time>2019-08-01T07:40:14.002Z</time>
      </trkpt>
      <trkpt lat="43.03600333" lon="-1.22449667">
        <ele>1029.0</ele>
        <time>2019-08-01T07:40:15.010Z</time>
      </trkpt>
      <trkpt lat="43.03600333" lon="-1.22449833">
        <ele>1029.0</ele>
        <time>2019-08-01T07:40:16.016Z</time>
      </trkpt>
      <trkpt lat="43.036005" lon="-1.22449667">
        <ele>1028.0</ele>
        <time>2019-08-01T07:40:17.023Z</time>
      </trkpt>
      <trkpt lat="43.03600667" lon="-1.224495">
        <ele>1028.0</ele>
        <time>2019-08-01T07:40:18.030Z</time>
      </trkpt>
      <trkpt lat="43.03601167" lon="-1.22449">
        <ele>1028.0</ele>
        <time>2019-08-01T07:40:19.035Z</time>
      </trkpt>
      <trkpt lat="43.036015" lon="-1.22449">
        <ele>1028.0</ele>
        <time>2019-08-01T07:40:20.042Z</time>
      </trkpt>
      <trkpt lat="43.036015" lon="-1.22449">
        <ele>1028.0</ele>
        <time>2019-08-01T07:40:20.923Z</time>
      </trkpt>
      <trkpt lat="43.03602" lon="-1.22449">
        <ele>1028.0</ele>
        <time>2019-08-01T07:40:21.928Z</time>
      </trkpt>
      <trkpt lat="43.03602167" lon="-1.22448833">
        <ele>1028.0</ele>
        <time>2019-08-01T07:40:22.934Z</time>
      </trkpt>
      <trkpt lat="43.03602167" lon="-1.22449">
        <ele>1028.0</ele>
        <time>2019-08-01T07:40:23.939Z</time>
      </trkpt>
      <trkpt lat="43.03602167" lon="-1.22449167">
        <ele>1028.0</ele>
        <time>2019-08-01T07:40:24.942Z</time>
      </trkpt>
      <trkpt lat="43.03601833" lon="-1.224495">
        <ele>1028.0</ele>
        <time>2019-08-01T07:40:25.947Z</time>
      </trkpt>
      <trkpt lat="43.03601833" lon="-1.22449833">
        <ele>1027.0</ele>
        <time>2019-08-01T07:40:26.954Z</time>
      </trkpt>
      <trkpt lat="43.036015" lon="-1.22450833">
        <ele>1029.0</ele>
        <time>2019-08-01T07:40:27.962Z</time>
      </trkpt>
      <trkpt lat="43.03601167" lon="-1.22451167">
        <ele>1030.0</ele>
        <time>2019-08-01T07:40:28.969Z</time>
      </trkpt>
      <trkpt lat="43.03600833" lon="-1.22451">
        <ele>1029.0</ele>
        <time>2019-08-01T07:40:29.971Z</time>
      </trkpt>
      <trkpt lat="43.03600833" lon="-1.22451">
        <ele>1029.0</ele>
        <time>2019-08-01T07:40:30.977Z</time>
      </trkpt>
      <trkpt lat="43.036005" lon="-1.22450833">
        <ele>1029.0</ele>
        <time>2019-08-01T07:40:31.982Z</time>
      </trkpt>
      <trkpt lat="43.036" lon="-1.22450667">
        <ele>1029.0</ele>
        <time>2019-08-01T07:40:32.987Z</time>
      </trkpt>
      <trkpt lat="43.03599667" lon="-1.22450667">
        <ele>1029.0</ele>
        <time>2019-08-01T07:40:33.990Z</time>
      </trkpt>
      <trkpt lat="43.03599333" lon="-1.22450667">
        <ele>1029.0</ele>
        <time>2019-08-01T07:40:34.994Z</time>
      </trkpt>
      <trkpt lat="43.03599333" lon="-1.22451">
        <ele>1029.0</ele>
        <time>2019-08-01T07:40:36.002Z</time>
      </trkpt>
      <trkpt lat="43.03599333" lon="-1.22451">
        <ele>1029.0</ele>
        <time>2019-08-01T07:40:37.008Z</time>
      </trkpt>
      <trkpt lat="43.03599167" lon="-1.22451167">
        <ele>1029.0</ele>
        <time>2019-08-01T07:40:38.011Z</time>
      </trkpt>
      <trkpt lat="43.03599333" lon="-1.22451">
        <ele>1029.0</ele>
        <time>2019-08-01T07:40:39.016Z</time>
      </trkpt>
      <trkpt lat="43.03599333" lon="-1.22451">
        <ele>1030.0</ele>
        <time>2019-08-01T07:40:40.023Z</time>
      </trkpt>
      <trkpt lat="43.03599333" lon="-1.22451">
        <ele>1030.0</ele>
        <time>2019-08-01T07:40:41.029Z</time>
      </trkpt>
      <trkpt lat="43.03599333" lon="-1.22451167">
        <ele>1029.0</ele>
        <time>2019-08-01T07:40:42.034Z</time>
      </trkpt>
      <trkpt lat="43.035995" lon="-1.22451">
        <ele>1029.0</ele>
        <time>2019-08-01T07:40:43.040Z</time>
      </trkpt>
      <trkpt lat="43.035995" lon="-1.22451">
        <ele>1029.0</ele>
        <time>2019-08-01T07:40:43.918Z</time>
      </trkpt>
      <trkpt lat="43.035995" lon="-1.22450833">
        <ele>1029.0</ele>
        <time>2019-08-01T07:40:44.925Z</time>
      </trkpt>
      <trkpt lat="43.03599167" lon="-1.22450667">
        <ele>1028.0</ele>
        <time>2019-08-01T07:40:45.930Z</time>
      </trkpt>
      <trkpt lat="43.03598667" lon="-1.22450333">
        <ele>1028.0</ele>
        <time>2019-08-01T07:40:46.936Z</time>
      </trkpt>
      <trkpt lat="43.035985" lon="-1.224505">
        <ele>1028.0</ele>
        <time>2019-08-01T07:40:47.942Z</time>
      </trkpt>
      <trkpt lat="43.03598333" lon="-1.224505">
        <ele>1027.0</ele>
        <time>2019-08-01T07:40:48.949Z</time>
      </trkpt>
      <trkpt lat="43.03598333" lon="-1.22450667">
        <ele>1027.0</ele>
        <time>2019-08-01T07:40:49.954Z</time>
      </trkpt>
      <trkpt lat="43.03598333" lon="-1.224505">
        <ele>1027.0</ele>
        <time>2019-08-01T07:40:50.959Z</time>
      </trkpt>
      <trkpt lat="43.03598333" lon="-1.224505">
        <ele>1027.0</ele>
        <time>2019-08-01T07:40:51.965Z</time>
      </trkpt>
      <trkpt lat="43.03598333" lon="-1.224505">
        <ele>1027.0</ele>
        <time>2019-08-01T07:40:52.970Z</time>
      </trkpt>
      <trkpt lat="43.03598333" lon="-1.224505">
        <ele>1027.0</ele>
        <time>2019-08-01T07:40:53.975Z</time>
      </trkpt>
      <trkpt lat="43.035985" lon="-1.224505">
        <ele>1027.0</ele>
        <time>2019-08-01T07:40:54.979Z</time>
      </trkpt>
      <trkpt lat="43.035985" lon="-1.224505">
        <ele>1026.0</ele>
        <time>2019-08-01T07:40:55.984Z</time>
      </trkpt>
      <trkpt lat="43.03598667" lon="-1.22450833">
        <ele>1026.0</ele>
        <time>2019-08-01T07:40:56.991Z</time>
      </trkpt>
      <trkpt lat="43.035985" lon="-1.22450833">
        <ele>1026.0</ele>
        <time>2019-08-01T07:40:57.997Z</time>
      </trkpt>
      <trkpt lat="43.035985" lon="-1.22451">
        <ele>1026.0</ele>
        <time>2019-08-01T07:40:59.000Z</time>
      </trkpt>
      <trkpt lat="43.035985" lon="-1.22451">
        <ele>1025.0</ele>
        <time>2019-08-01T07:41:00.004Z</time>
      </trkpt>
      <trkpt lat="43.03598667" lon="-1.22450333">
        <ele>1025.0</ele>
        <time>2019-08-01T07:41:01.011Z</time>
      </trkpt>
      <trkpt lat="43.03598667" lon="-1.22449667">
        <ele>1025.0</ele>
        <time>2019-08-01T07:41:02.016Z</time>
      </trkpt>
      <trkpt lat="43.035985" lon="-1.22449">
        <ele>1025.0</ele>
        <time>2019-08-01T07:41:03.022Z</time>
      </trkpt>
      <trkpt lat="43.03598167" lon="-1.22448667">
        <ele>1025.0</ele>
        <time>2019-08-01T07:41:04.026Z</time>
      </trkpt>
      <trkpt lat="43.03598167" lon="-1.22448333">
        <ele>1025.0</ele>
        <time>2019-08-01T07:41:05.030Z</time>
      </trkpt>
      <trkpt lat="43.03598" lon="-1.22447667">
        <ele>1025.0</ele>
        <time>2019-08-01T07:41:06.036Z</time>
      </trkpt>
      <trkpt lat="43.03598" lon="-1.22447667">
        <ele>1025.0</ele>
        <time>2019-08-01T07:41:06.918Z</time>
      </trkpt>
      <trkpt lat="43.03598" lon="-1.22447167">
        <ele>1025.0</ele>
        <time>2019-08-01T07:41:07.922Z</time>
      </trkpt>
      <trkpt lat="43.03598" lon="-1.22446833">
        <ele>1026.0</ele>
        <time>2019-08-01T07:41:08.928Z</time>
      </trkpt>
      <trkpt lat="43.03598" lon="-1.22446333">
        <ele>1026.0</ele>
        <time>2019-08-01T07:41:09.935Z</time>
      </trkpt>
      <trkpt lat="43.03598" lon="-1.22446167">
        <ele>1026.0</ele>
        <time>2019-08-01T07:41:10.941Z</time>
      </trkpt>
      <trkpt lat="43.03598167" lon="-1.22446333">
        <ele>1026.0</ele>
        <time>2019-08-01T07:41:11.947Z</time>
      </trkpt>
      <trkpt lat="43.03598333" lon="-1.22446167">
        <ele>1026.0</ele>
        <time>2019-08-01T07:41:12.952Z</time>
      </trkpt>
      <trkpt lat="43.03598333" lon="-1.22446">
        <ele>1026.0</ele>
        <time>2019-08-01T07:41:13.955Z</time>
      </trkpt>
      <trkpt lat="43.03598333" lon="-1.22445667">
        <ele>1027.0</ele>
        <time>2019-08-01T07:41:14.961Z</time>
      </trkpt>
      <trkpt lat="43.035985" lon="-1.22445333">
        <ele>1027.0</ele>
        <time>2019-08-01T07:41:15.967Z</time>
      </trkpt>
      <trkpt lat="43.03598333" lon="-1.22444833">
        <ele>1027.0</ele>
        <time>2019-08-01T07:41:16.972Z</time>
      </trkpt>
      <trkpt lat="43.03598333" lon="-1.22444333">
        <ele>1027.0</ele>
        <time>2019-08-01T07:41:17.978Z</time>
      </trkpt>
      <trkpt lat="43.035985" lon="-1.22444">
        <ele>1027.0</ele>
        <time>2019-08-01T07:41:18.982Z</time>
      </trkpt>
      <trkpt lat="43.03598667" lon="-1.22444333">
        <ele>1024.0</ele>
        <time>2019-08-01T07:41:19.985Z</time>
      </trkpt>
      <trkpt lat="43.03598667" lon="-1.224445">
        <ele>1023.0</ele>
        <time>2019-08-01T07:41:20.991Z</time>
      </trkpt>
      <trkpt lat="43.03598833" lon="-1.224445">
        <ele>1023.0</ele>
        <time>2019-08-01T07:41:21.996Z</time>
      </trkpt>
      <trkpt lat="43.03598833" lon="-1.224445">
        <ele>1023.0</ele>
        <time>2019-08-01T07:41:23.002Z</time>
      </trkpt>
      <trkpt lat="43.03598833" lon="-1.22444667">
        <ele>1023.0</ele>
        <time>2019-08-01T07:41:24.010Z</time>
      </trkpt>
      <trkpt lat="43.03598833" lon="-1.22444833">
        <ele>1023.0</ele>
        <time>2019-08-01T07:41:25.016Z</time>
      </trkpt>
      <trkpt lat="43.03599" lon="-1.22445">
        <ele>1023.0</ele>
        <time>2019-08-01T07:41:26.022Z</time>
      </trkpt>
      <trkpt lat="43.03599167" lon="-1.22445">
        <ele>1023.0</ele>
        <time>2019-08-01T07:41:27.027Z</time>
      </trkpt>
      <trkpt lat="43.03599167" lon="-1.22445167">
        <ele>1024.0</ele>
        <time>2019-08-01T07:41:28.033Z</time>
      </trkpt>
      <trkpt lat="43.03599167" lon="-1.22445">
        <ele>1024.0</ele>
        <time>2019-08-01T07:41:29.038Z</time>
      </trkpt>
      <trkpt lat="43.03599167" lon="-1.22445">
        <ele>1024.0</ele>
        <time>2019-08-01T07:41:29.918Z</time>
      </trkpt>
      <trkpt lat="43.03599167" lon="-1.22444667">
        <ele>1024.0</ele>
        <time>2019-08-01T07:41:30.926Z</time>
      </trkpt>
      <trkpt lat="43.03599" lon="-1.22444333">
        <ele>1024.0</ele>
        <time>2019-08-01T07:41:31.931Z</time>
      </trkpt>
      <trkpt lat="43.035985" lon="-1.22444">
        <ele>1024.0</ele>
        <time>2019-08-01T07:41:32.937Z</time>
      </trkpt>
      <trkpt lat="43.03598" lon="-1.22443333">
        <ele>1024.0</ele>
        <time>2019-08-01T07:41:33.940Z</time>
      </trkpt>
      <trkpt lat="43.03597333" lon="-1.22442667">
        <ele>1024.0</ele>
        <time>2019-08-01T07:41:34.944Z</time>
      </trkpt>
      <trkpt lat="43.035965" lon="-1.22441667">
        <ele>1024.0</ele>
        <time>2019-08-01T07:41:35.950Z</time>
      </trkpt>
      <trkpt lat="43.03595833" lon="-1.22440333">
        <ele>1024.0</ele>
        <time>2019-08-01T07:41:36.956Z</time>
      </trkpt>
      <trkpt lat="43.03595" lon="-1.22439">
        <ele>1024.0</ele>
        <time>2019-08-01T07:41:37.963Z</time>
      </trkpt>
      <trkpt lat="43.03594333" lon="-1.22437833">
        <ele>1024.0</ele>
        <time>2019-08-01T07:41:38.969Z</time>
      </trkpt>
      <trkpt lat="43.03593333" lon="-1.22437">
        <ele>1024.0</ele>
        <time>2019-08-01T07:41:39.973Z</time>
      </trkpt>
      <trkpt lat="43.035925" lon="-1.22436333">
        <ele>1024.0</ele>
        <time>2019-08-01T07:41:40.979Z</time>
      </trkpt>
      <trkpt lat="43.03590333" lon="-1.22434667">
        <ele>1024.0</ele>
        <time>2019-08-01T07:41:41.987Z</time>
      </trkpt>
      <trkpt lat="43.035895" lon="-1.22433833">
        <ele>1024.0</ele>
        <time>2019-08-01T07:41:42.993Z</time>
      </trkpt>
      <trkpt lat="43.03588333" lon="-1.22433167">
        <ele>1024.0</ele>
        <time>2019-08-01T07:41:44.000Z</time>
      </trkpt>
      <trkpt lat="43.03587167" lon="-1.224325">
        <ele>1023.0</ele>
        <time>2019-08-01T07:41:45.005Z</time>
      </trkpt>
      <trkpt lat="43.03586" lon="-1.22431667">
        <ele>1023.0</ele>
        <time>2019-08-01T07:41:46.009Z</time>
      </trkpt>
      <trkpt lat="43.03585" lon="-1.22430667">
        <ele>1023.0</ele>
        <time>2019-08-01T07:41:47.014Z</time>
      </trkpt>
      <trkpt lat="43.03584" lon="-1.22429333">
        <ele>1022.0</ele>
        <time>2019-08-01T07:41:48.021Z</time>
      </trkpt>
      <trkpt lat="43.03583167" lon="-1.22428">
        <ele>1022.0</ele>
        <time>2019-08-01T07:41:49.028Z</time>
      </trkpt>
      <trkpt lat="43.03582333" lon="-1.22426667">
        <ele>1022.0</ele>
        <time>2019-08-01T07:41:50.034Z</time>
      </trkpt>
      <trkpt lat="43.035815" lon="-1.22425333">
        <ele>1022.0</ele>
        <time>2019-08-01T07:41:51.040Z</time>
      </trkpt>
      <trkpt lat="43.035815" lon="-1.22425333">
        <ele>1022.0</ele>
        <time>2019-08-01T07:41:51.920Z</time>
      </trkpt>
      <trkpt lat="43.03580667" lon="-1.22424">
        <ele>1022.0</ele>
        <time>2019-08-01T07:41:52.927Z</time>
      </trkpt>
      <trkpt lat="43.0358" lon="-1.224225">
        <ele>1021.0</ele>
        <time>2019-08-01T07:41:53.932Z</time>
      </trkpt>
      <trkpt lat="43.03579333" lon="-1.22421">
        <ele>1020.0</ele>
        <time>2019-08-01T07:41:54.939Z</time>
      </trkpt>
      <trkpt lat="43.03578667" lon="-1.22419333">
        <ele>1019.0</ele>
        <time>2019-08-01T07:41:55.943Z</time>
      </trkpt>
      <trkpt lat="43.03578333" lon="-1.22417667">
        <ele>1019.0</ele>
        <time>2019-08-01T07:41:56.949Z</time>
      </trkpt>
      <trkpt lat="43.03578167" lon="-1.22416">
        <ele>1018.0</ele>
        <time>2019-08-01T07:41:57.954Z</time>
      </trkpt>
      <trkpt lat="43.03578167" lon="-1.22414667">
        <ele>1018.0</ele>
        <time>2019-08-01T07:41:58.959Z</time>
      </trkpt>
      <trkpt lat="43.03577833" lon="-1.22413333">
        <ele>1017.0</ele>
        <time>2019-08-01T07:41:59.966Z</time>
      </trkpt>
      <trkpt lat="43.03577167" lon="-1.22411833">
        <ele>1017.0</ele>
        <time>2019-08-01T07:42:00.972Z</time>
      </trkpt>
      <trkpt lat="43.03576833" lon="-1.224105">
        <ele>1017.0</ele>
        <time>2019-08-01T07:42:01.978Z</time>
      </trkpt>
      <trkpt lat="43.03575667" lon="-1.22407333">
        <ele>1016.0</ele>
        <time>2019-08-01T07:42:02.984Z</time>
      </trkpt>
      <trkpt lat="43.03575167" lon="-1.22405667">
        <ele>1016.0</ele>
        <time>2019-08-01T07:42:03.989Z</time>
      </trkpt>
      <trkpt lat="43.035745" lon="-1.22404167">
        <ele>1016.0</ele>
        <time>2019-08-01T07:42:04.994Z</time>
      </trkpt>
      <trkpt lat="43.03573833" lon="-1.224025">
        <ele>1016.0</ele>
        <time>2019-08-01T07:42:06.001Z</time>
      </trkpt>
      <trkpt lat="43.03573167" lon="-1.22400833">
        <ele>1015.0</ele>
        <time>2019-08-01T07:42:07.006Z</time>
      </trkpt>
      <trkpt lat="43.035725" lon="-1.22399167">
        <ele>1015.0</ele>
        <time>2019-08-01T07:42:08.011Z</time>
      </trkpt>
      <trkpt lat="43.03571833" lon="-1.22397">
        <ele>1015.0</ele>
        <time>2019-08-01T07:42:09.016Z</time>
      </trkpt>
      <trkpt lat="43.035715" lon="-1.22395833">
        <ele>1015.0</ele>
        <time>2019-08-01T07:42:10.020Z</time>
      </trkpt>
      <trkpt lat="43.03570833" lon="-1.22394167">
        <ele>1015.0</ele>
        <time>2019-08-01T07:42:11.025Z</time>
      </trkpt>
      <trkpt lat="43.03570167" lon="-1.223925">
        <ele>1016.0</ele>
        <time>2019-08-01T07:42:12.031Z</time>
      </trkpt>
      <trkpt lat="43.035695" lon="-1.22391">
        <ele>1016.0</ele>
        <time>2019-08-01T07:42:13.039Z</time>
      </trkpt>
      <trkpt lat="43.035695" lon="-1.22391">
        <ele>1016.0</ele>
        <time>2019-08-01T07:42:13.921Z</time>
      </trkpt>
      <trkpt lat="43.035685" lon="-1.22389">
        <ele>1016.0</ele>
        <time>2019-08-01T07:42:14.928Z</time>
      </trkpt>
      <trkpt lat="43.03567667" lon="-1.22387833">
        <ele>1016.0</ele>
        <time>2019-08-01T07:42:15.935Z</time>
      </trkpt>
      <trkpt lat="43.03567" lon="-1.22386">
        <ele>1016.0</ele>
        <time>2019-08-01T07:42:16.940Z</time>
      </trkpt>
      <trkpt lat="43.035665" lon="-1.22383833">
        <ele>1016.0</ele>
        <time>2019-08-01T07:42:17.946Z</time>
      </trkpt>
      <trkpt lat="43.03566167" lon="-1.223825">
        <ele>1016.0</ele>
        <time>2019-08-01T07:42:18.950Z</time>
      </trkpt>
      <trkpt lat="43.035655" lon="-1.22380833">
        <ele>1016.0</ele>
        <time>2019-08-01T07:42:19.954Z</time>
      </trkpt>
      <trkpt lat="43.035645" lon="-1.22379333">
        <ele>1016.0</ele>
        <time>2019-08-01T07:42:20.960Z</time>
      </trkpt>
      <trkpt lat="43.03563667" lon="-1.223775">
        <ele>1016.0</ele>
        <time>2019-08-01T07:42:21.966Z</time>
      </trkpt>
      <trkpt lat="43.03562833" lon="-1.22375667">
        <ele>1016.0</ele>
        <time>2019-08-01T07:42:22.972Z</time>
      </trkpt>
      <trkpt lat="43.03562" lon="-1.22374167">
        <ele>1015.0</ele>
        <time>2019-08-01T07:42:23.974Z</time>
      </trkpt>
      <trkpt lat="43.035605" lon="-1.22372667">
        <ele>1015.0</ele>
        <time>2019-08-01T07:42:24.980Z</time>
      </trkpt>
      <trkpt lat="43.03558167" lon="-1.22370667">
        <ele>1016.0</ele>
        <time>2019-08-01T07:42:25.985Z</time>
      </trkpt>
      <trkpt lat="43.03557167" lon="-1.2237">
        <ele>1016.0</ele>
        <time>2019-08-01T07:42:26.991Z</time>
      </trkpt>
      <trkpt lat="43.03556167" lon="-1.22369667">
        <ele>1015.0</ele>
        <time>2019-08-01T07:42:27.998Z</time>
      </trkpt>
      <trkpt lat="43.03554833" lon="-1.22369">
        <ele>1016.0</ele>
        <time>2019-08-01T07:42:29.004Z</time>
      </trkpt>
      <trkpt lat="43.035535" lon="-1.223685">
        <ele>1016.0</ele>
        <time>2019-08-01T07:42:30.010Z</time>
      </trkpt>
      <trkpt lat="43.03552167" lon="-1.22368">
        <ele>1016.0</ele>
        <time>2019-08-01T07:42:31.016Z</time>
      </trkpt>
      <trkpt lat="43.03550833" lon="-1.22367667">
        <ele>1015.0</ele>
        <time>2019-08-01T07:42:32.023Z</time>
      </trkpt>
      <trkpt lat="43.03549833" lon="-1.22367333">
        <ele>1015.0</ele>
        <time>2019-08-01T07:42:33.030Z</time>
      </trkpt>
      <trkpt lat="43.03548333" lon="-1.22367333">
        <ele>1015.0</ele>
        <time>2019-08-01T07:42:34.037Z</time>
      </trkpt>
      <trkpt lat="43.03548333" lon="-1.22367333">
        <ele>1015.0</ele>
        <time>2019-08-01T07:42:34.918Z</time>
      </trkpt>
      <trkpt lat="43.03546667" lon="-1.22367333">
        <ele>1014.0</ele>
        <time>2019-08-01T07:42:35.923Z</time>
      </trkpt>
      <trkpt lat="43.035455" lon="-1.22367333">
        <ele>1014.0</ele>
        <time>2019-08-01T07:42:36.930Z</time>
      </trkpt>
      <trkpt lat="43.03544" lon="-1.223675">
        <ele>1014.0</ele>
        <time>2019-08-01T07:42:37.936Z</time>
      </trkpt>
      <trkpt lat="43.03542667" lon="-1.22367333">
        <ele>1014.0</ele>
        <time>2019-08-01T07:42:38.941Z</time>
      </trkpt>
      <trkpt lat="43.03541167" lon="-1.22367333">
        <ele>1014.0</ele>
        <time>2019-08-01T07:42:39.946Z</time>
      </trkpt>
      <trkpt lat="43.03539667" lon="-1.22367333">
        <ele>1013.0</ele>
        <time>2019-08-01T07:42:40.953Z</time>
      </trkpt>
      <trkpt lat="43.03538167" lon="-1.22367833">
        <ele>1013.0</ele>
        <time>2019-08-01T07:42:41.958Z</time>
      </trkpt>
      <trkpt lat="43.03536667" lon="-1.22368167">
        <ele>1013.0</ele>
        <time>2019-08-01T07:42:42.965Z</time>
      </trkpt>
      <trkpt lat="43.03535333" lon="-1.22368667">
        <ele>1012.0</ele>
        <time>2019-08-01T07:42:43.971Z</time>
      </trkpt>
      <trkpt lat="43.03533667" lon="-1.22369333">
        <ele>1012.0</ele>
        <time>2019-08-01T07:42:44.977Z</time>
      </trkpt>
      <trkpt lat="43.03532" lon="-1.22369667">
        <ele>1012.0</ele>
        <time>2019-08-01T07:42:45.981Z</time>
      </trkpt>
      <trkpt lat="43.03529167" lon="-1.22370333">
        <ele>1013.0</ele>
        <time>2019-08-01T07:42:46.987Z</time>
      </trkpt>
      <trkpt lat="43.035275" lon="-1.223705">
        <ele>1013.0</ele>
        <time>2019-08-01T07:42:47.993Z</time>
      </trkpt>
      <trkpt lat="43.03526" lon="-1.22371167">
        <ele>1013.0</ele>
        <time>2019-08-01T07:42:49.000Z</time>
      </trkpt>
      <trkpt lat="43.03524167" lon="-1.22372">
        <ele>1013.0</ele>
        <time>2019-08-01T07:42:50.000Z</time>
      </trkpt>
      <trkpt lat="43.03523" lon="-1.223725">
        <ele>1014.0</ele>
        <time>2019-08-01T07:42:51.005Z</time>
      </trkpt>
      <trkpt lat="43.03521667" lon="-1.22373333">
        <ele>1013.0</ele>
        <time>2019-08-01T07:42:52.011Z</time>
      </trkpt>
      <trkpt lat="43.03520333" lon="-1.22374333">
        <ele>1013.0</ele>
        <time>2019-08-01T07:42:53.016Z</time>
      </trkpt>
      <trkpt lat="43.03519167" lon="-1.22375167">
        <ele>1013.0</ele>
        <time>2019-08-01T07:42:54.020Z</time>
      </trkpt>
      <trkpt lat="43.03517833" lon="-1.22375667">
        <ele>1014.0</ele>
        <time>2019-08-01T07:42:55.026Z</time>
      </trkpt>
      <trkpt lat="43.03516333" lon="-1.22376333">
        <ele>1014.0</ele>
        <time>2019-08-01T07:42:56.032Z</time>
      </trkpt>
      <trkpt lat="43.03514667" lon="-1.22377333">
        <ele>1014.0</ele>
        <time>2019-08-01T07:42:57.037Z</time>
      </trkpt>
      <trkpt lat="43.03514667" lon="-1.22377333">
        <ele>1014.0</ele>
        <time>2019-08-01T07:42:57.919Z</time>
      </trkpt>
      <trkpt lat="43.035135" lon="-1.22377833">
        <ele>1013.0</ele>
        <time>2019-08-01T07:42:58.921Z</time>
      </trkpt>
      <trkpt lat="43.03512" lon="-1.22379">
        <ele>1013.0</ele>
        <time>2019-08-01T07:42:59.926Z</time>
      </trkpt>
      <trkpt lat="43.03511" lon="-1.22379667">
        <ele>1012.0</ele>
        <time>2019-08-01T07:43:00.932Z</time>
      </trkpt>
      <trkpt lat="43.03510167" lon="-1.22380833">
        <ele>1011.0</ele>
        <time>2019-08-01T07:43:01.938Z</time>
      </trkpt>
      <trkpt lat="43.03509167" lon="-1.22382167">
        <ele>1011.0</ele>
        <time>2019-08-01T07:43:02.944Z</time>
      </trkpt>
      <trkpt lat="43.03508667" lon="-1.22382667">
        <ele>1010.0</ele>
        <time>2019-08-01T07:43:03.951Z</time>
      </trkpt>
      <trkpt lat="43.03508" lon="-1.22382833">
        <ele>1010.0</ele>
        <time>2019-08-01T07:43:04.956Z</time>
      </trkpt>
      <trkpt lat="43.03507167" lon="-1.22383">
        <ele>1010.0</ele>
        <time>2019-08-01T07:43:05.963Z</time>
      </trkpt>
      <trkpt lat="43.03506" lon="-1.22383333">
        <ele>1010.0</ele>
        <time>2019-08-01T07:43:06.967Z</time>
      </trkpt>
      <trkpt lat="43.03504833" lon="-1.22383833">
        <ele>1009.0</ele>
        <time>2019-08-01T07:43:07.971Z</time>
      </trkpt>
      <trkpt lat="43.03504" lon="-1.22384333">
        <ele>1009.0</ele>
        <time>2019-08-01T07:43:08.974Z</time>
      </trkpt>
      <trkpt lat="43.03502833" lon="-1.22385167">
        <ele>1009.0</ele>
        <time>2019-08-01T07:43:09.981Z</time>
      </trkpt>
      <trkpt lat="43.03500667" lon="-1.22386667">
        <ele>1009.0</ele>
        <time>2019-08-01T07:43:10.986Z</time>
      </trkpt>
      <trkpt lat="43.034995" lon="-1.22387333">
        <ele>1010.0</ele>
        <time>2019-08-01T07:43:11.992Z</time>
      </trkpt>
      <trkpt lat="43.03498667" lon="-1.223875">
        <ele>1010.0</ele>
        <time>2019-08-01T07:43:12.997Z</time>
      </trkpt>
      <trkpt lat="43.034975" lon="-1.22388">
        <ele>1010.0</ele>
        <time>2019-08-01T07:43:13.999Z</time>
      </trkpt>
      <trkpt lat="43.03496333" lon="-1.22388667">
        <ele>1010.0</ele>
        <time>2019-08-01T07:43:15.003Z</time>
      </trkpt>
      <trkpt lat="43.03495" lon="-1.223895">
        <ele>1010.0</ele>
        <time>2019-08-01T07:43:16.008Z</time>
      </trkpt>
      <trkpt lat="43.03493333" lon="-1.223905">
        <ele>1010.0</ele>
        <time>2019-08-01T07:43:17.013Z</time>
      </trkpt>
      <trkpt lat="43.03492" lon="-1.22391333">
        <ele>1009.0</ele>
        <time>2019-08-01T07:43:18.020Z</time>
      </trkpt>
      <trkpt lat="43.03491167" lon="-1.22392">
        <ele>1009.0</ele>
        <time>2019-08-01T07:43:19.026Z</time>
      </trkpt>
      <trkpt lat="43.03489833" lon="-1.22393167">
        <ele>1009.0</ele>
        <time>2019-08-01T07:43:20.031Z</time>
      </trkpt>
      <trkpt lat="43.034885" lon="-1.22393833">
        <ele>1009.0</ele>
        <time>2019-08-01T07:43:21.035Z</time>
      </trkpt>
      <trkpt lat="43.034875" lon="-1.22394333">
        <ele>1009.0</ele>
        <time>2019-08-01T07:43:22.042Z</time>
      </trkpt>
      <trkpt lat="43.034875" lon="-1.22394333">
        <ele>1009.0</ele>
        <time>2019-08-01T07:43:22.922Z</time>
      </trkpt>
      <trkpt lat="43.03486167" lon="-1.22395167">
        <ele>1009.0</ele>
        <time>2019-08-01T07:43:23.926Z</time>
      </trkpt>
      <trkpt lat="43.03484667" lon="-1.22396167">
        <ele>1009.0</ele>
        <time>2019-08-01T07:43:24.933Z</time>
      </trkpt>
      <trkpt lat="43.03483667" lon="-1.22396833">
        <ele>1009.0</ele>
        <time>2019-08-01T07:43:25.940Z</time>
      </trkpt>
      <trkpt lat="43.03482333" lon="-1.223975">
        <ele>1009.0</ele>
        <time>2019-08-01T07:43:26.947Z</time>
      </trkpt>
      <trkpt lat="43.03481" lon="-1.22398333">
        <ele>1009.0</ele>
        <time>2019-08-01T07:43:27.953Z</time>
      </trkpt>
      <trkpt lat="43.034795" lon="-1.22399">
        <ele>1009.0</ele>
        <time>2019-08-01T07:43:28.958Z</time>
      </trkpt>
      <trkpt lat="43.03478167" lon="-1.22399667">
        <ele>1008.0</ele>
        <time>2019-08-01T07:43:29.960Z</time>
      </trkpt>
      <trkpt lat="43.03476667" lon="-1.22400667">
        <ele>1008.0</ele>
        <time>2019-08-01T07:43:30.965Z</time>
      </trkpt>
      <trkpt lat="43.03475167" lon="-1.224015">
        <ele>1008.0</ele>
        <time>2019-08-01T07:43:31.971Z</time>
      </trkpt>
      <trkpt lat="43.03474167" lon="-1.22402167">
        <ele>1008.0</ele>
        <time>2019-08-01T07:43:32.977Z</time>
      </trkpt>
      <trkpt lat="43.034725" lon="-1.22402833">
        <ele>1007.0</ele>
        <time>2019-08-01T07:43:33.984Z</time>
      </trkpt>
      <trkpt lat="43.0347" lon="-1.22404">
        <ele>1007.0</ele>
        <time>2019-08-01T07:43:34.991Z</time>
      </trkpt>
      <trkpt lat="43.03469167" lon="-1.224045">
        <ele>1006.0</ele>
        <time>2019-08-01T07:43:35.997Z</time>
      </trkpt>
      <trkpt lat="43.03467833" lon="-1.22405167">
        <ele>1006.0</ele>
        <time>2019-08-01T07:43:37.003Z</time>
      </trkpt>
      <trkpt lat="43.03466333" lon="-1.22405833">
        <ele>1006.0</ele>
        <time>2019-08-01T07:43:38.008Z</time>
      </trkpt>
      <trkpt lat="43.03465167" lon="-1.224065">
        <ele>1006.0</ele>
        <time>2019-08-01T07:43:39.014Z</time>
      </trkpt>
      <trkpt lat="43.03463833" lon="-1.22407">
        <ele>1005.0</ele>
        <time>2019-08-01T07:43:40.018Z</time>
      </trkpt>
      <trkpt lat="43.034625" lon="-1.22407833">
        <ele>1005.0</ele>
        <time>2019-08-01T07:43:41.025Z</time>
      </trkpt>
      <trkpt lat="43.03461" lon="-1.22408833">
        <ele>1004.0</ele>
        <time>2019-08-01T07:43:42.032Z</time>
      </trkpt>
      <trkpt lat="43.03460333" lon="-1.224095">
        <ele>1004.0</ele>
        <time>2019-08-01T07:43:43.039Z</time>
      </trkpt>
      <trkpt lat="43.03460333" lon="-1.224095">
        <ele>1004.0</ele>
        <time>2019-08-01T07:43:43.920Z</time>
      </trkpt>
      <trkpt lat="43.03458833" lon="-1.224105">
        <ele>1004.0</ele>
        <time>2019-08-01T07:43:44.927Z</time>
      </trkpt>
      <trkpt lat="43.03458" lon="-1.22411167">
        <ele>1004.0</ele>
        <time>2019-08-01T07:43:45.933Z</time>
      </trkpt>
      <trkpt lat="43.03456833" lon="-1.22412167">
        <ele>1004.0</ele>
        <time>2019-08-01T07:43:46.940Z</time>
      </trkpt>
      <trkpt lat="43.03455833" lon="-1.22412833">
        <ele>1004.0</ele>
        <time>2019-08-01T07:43:47.948Z</time>
      </trkpt>
      <trkpt lat="43.03454667" lon="-1.22413667">
        <ele>1004.0</ele>
        <time>2019-08-01T07:43:48.955Z</time>
      </trkpt>
      <trkpt lat="43.03453333" lon="-1.22414333">
        <ele>1004.0</ele>
        <time>2019-08-01T07:43:49.959Z</time>
      </trkpt>
      <trkpt lat="43.03452167" lon="-1.22415167">
        <ele>1003.0</ele>
        <time>2019-08-01T07:43:50.966Z</time>
      </trkpt>
      <trkpt lat="43.03450833" lon="-1.22416167">
        <ele>1002.0</ele>
        <time>2019-08-01T07:43:51.972Z</time>
      </trkpt>
      <trkpt lat="43.03449667" lon="-1.22417167">
        <ele>1001.0</ele>
        <time>2019-08-01T07:43:52.978Z</time>
      </trkpt>
      <trkpt lat="43.034475" lon="-1.22419">
        <ele>1001.0</ele>
        <time>2019-08-01T07:43:53.983Z</time>
      </trkpt>
      <trkpt lat="43.03446333" lon="-1.22419667">
        <ele>1001.0</ele>
        <time>2019-08-01T07:43:54.988Z</time>
      </trkpt>
      <trkpt lat="43.03445167" lon="-1.22420667">
        <ele>1001.0</ele>
        <time>2019-08-01T07:43:55.993Z</time>
      </trkpt>
      <trkpt lat="43.03443833" lon="-1.224215">
        <ele>1001.0</ele>
        <time>2019-08-01T07:43:56.998Z</time>
      </trkpt>
      <trkpt lat="43.03442667" lon="-1.22421833">
        <ele>1001.0</ele>
        <time>2019-08-01T07:43:58.003Z</time>
      </trkpt>
      <trkpt lat="43.03441333" lon="-1.22422667">
        <ele>1001.0</ele>
        <time>2019-08-01T07:43:59.010Z</time>
      </trkpt>
      <trkpt lat="43.03440333" lon="-1.22423333">
        <ele>1001.0</ele>
        <time>2019-08-01T07:44:00.016Z</time>
      </trkpt>
      <trkpt lat="43.03439" lon="-1.22424167">
        <ele>1002.0</ele>
        <time>2019-08-01T07:44:01.019Z</time>
      </trkpt>
      <trkpt lat="43.03437833" lon="-1.22424833">
        <ele>1002.0</ele>
        <time>2019-08-01T07:44:02.024Z</time>
      </trkpt>
      <trkpt lat="43.03436333" lon="-1.22426">
        <ele>1002.0</ele>
        <time>2019-08-01T07:44:03.028Z</time>
      </trkpt>
      <trkpt lat="43.03435333" lon="-1.22426333">
        <ele>1001.0</ele>
        <time>2019-08-01T07:44:04.033Z</time>
      </trkpt>
      <trkpt lat="43.03434" lon="-1.22427">
        <ele>1001.0</ele>
        <time>2019-08-01T07:44:05.039Z</time>
      </trkpt>
      <trkpt lat="43.03434" lon="-1.22427">
        <ele>1001.0</ele>
        <time>2019-08-01T07:44:05.920Z</time>
      </trkpt>
      <trkpt lat="43.03433" lon="-1.22427667">
        <ele>1000.0</ele>
        <time>2019-08-01T07:44:06.926Z</time>
      </trkpt>
      <trkpt lat="43.03432" lon="-1.224285">
        <ele>1000.0</ele>
        <time>2019-08-01T07:44:07.933Z</time>
      </trkpt>
      <trkpt lat="43.03430833" lon="-1.224295">
        <ele>1000.0</ele>
        <time>2019-08-01T07:44:08.940Z</time>
      </trkpt>
      <trkpt lat="43.03429667" lon="-1.224305">
        <ele>1000.0</ele>
        <time>2019-08-01T07:44:09.945Z</time>
      </trkpt>
      <trkpt lat="43.034285" lon="-1.22431333">
        <ele>999.0</ele>
        <time>2019-08-01T07:44:10.950Z</time>
      </trkpt>
      <trkpt lat="43.03427" lon="-1.22432167">
        <ele>999.0</ele>
        <time>2019-08-01T07:44:11.957Z</time>
      </trkpt>
      <trkpt lat="43.034255" lon="-1.22433">
        <ele>999.0</ele>
        <time>2019-08-01T07:44:12.964Z</time>
      </trkpt>
      <trkpt lat="43.034245" lon="-1.22434">
        <ele>998.0</ele>
        <time>2019-08-01T07:44:13.970Z</time>
      </trkpt>
      <trkpt lat="43.03423333" lon="-1.22434833">
        <ele>998.0</ele>
        <time>2019-08-01T07:44:14.976Z</time>
      </trkpt>
      <trkpt lat="43.03422" lon="-1.22436">
        <ele>998.0</ele>
        <time>2019-08-01T07:44:15.983Z</time>
      </trkpt>
      <trkpt lat="43.03419667" lon="-1.224375">
        <ele>998.0</ele>
        <time>2019-08-01T07:44:16.988Z</time>
      </trkpt>
      <trkpt lat="43.03418667" lon="-1.22438333">
        <ele>999.0</ele>
        <time>2019-08-01T07:44:17.993Z</time>
      </trkpt>
      <trkpt lat="43.03417" lon="-1.22439">
        <ele>999.0</ele>
        <time>2019-08-01T07:44:18.996Z</time>
      </trkpt>
      <trkpt lat="43.03416" lon="-1.22439167">
        <ele>999.0</ele>
        <time>2019-08-01T07:44:20.003Z</time>
      </trkpt>
      <trkpt lat="43.03414833" lon="-1.224395">
        <ele>999.0</ele>
        <time>2019-08-01T07:44:21.010Z</time>
      </trkpt>
      <trkpt lat="43.03413833" lon="-1.22440333">
        <ele>999.0</ele>
        <time>2019-08-01T07:44:22.013Z</time>
      </trkpt>
      <trkpt lat="43.03412667" lon="-1.22441167">
        <ele>999.0</ele>
        <time>2019-08-01T07:44:23.021Z</time>
      </trkpt>
      <trkpt lat="43.03411333" lon="-1.22441667">
        <ele>999.0</ele>
        <time>2019-08-01T07:44:24.025Z</time>
      </trkpt>
      <trkpt lat="43.03409833" lon="-1.224425">
        <ele>999.0</ele>
        <time>2019-08-01T07:44:25.033Z</time>
      </trkpt>
      <trkpt lat="43.03408833" lon="-1.22443">
        <ele>998.0</ele>
        <time>2019-08-01T07:44:26.040Z</time>
      </trkpt>
      <trkpt lat="43.03408833" lon="-1.22443">
        <ele>998.0</ele>
        <time>2019-08-01T07:44:26.919Z</time>
      </trkpt>
      <trkpt lat="43.03407333" lon="-1.22444">
        <ele>998.0</ele>
        <time>2019-08-01T07:44:27.925Z</time>
      </trkpt>
      <trkpt lat="43.03406167" lon="-1.22444833">
        <ele>998.0</ele>
        <time>2019-08-01T07:44:28.933Z</time>
      </trkpt>
      <trkpt lat="43.03404833" lon="-1.22446">
        <ele>998.0</ele>
        <time>2019-08-01T07:44:29.937Z</time>
      </trkpt>
      <trkpt lat="43.03403667" lon="-1.22446833">
        <ele>998.0</ele>
        <time>2019-08-01T07:44:30.943Z</time>
      </trkpt>
      <trkpt lat="43.034025" lon="-1.22448">
        <ele>997.0</ele>
        <time>2019-08-01T07:44:31.949Z</time>
      </trkpt>
      <trkpt lat="43.03401333" lon="-1.22449">
        <ele>997.0</ele>
        <time>2019-08-01T07:44:32.954Z</time>
      </trkpt>
      <trkpt lat="43.03400167" lon="-1.22449833">
        <ele>996.0</ele>
        <time>2019-08-01T07:44:33.961Z</time>
      </trkpt>
      <trkpt lat="43.03399" lon="-1.22450833">
        <ele>996.0</ele>
        <time>2019-08-01T07:44:34.968Z</time>
      </trkpt>
      <trkpt lat="43.033975" lon="-1.22451833">
        <ele>996.0</ele>
        <time>2019-08-01T07:44:35.971Z</time>
      </trkpt>
      <trkpt lat="43.03396167" lon="-1.22452667">
        <ele>996.0</ele>
        <time>2019-08-01T07:44:36.977Z</time>
      </trkpt>
      <trkpt lat="43.03394833" lon="-1.224535">
        <ele>995.0</ele>
        <time>2019-08-01T07:44:37.983Z</time>
      </trkpt>
      <trkpt lat="43.03391833" lon="-1.22455667">
        <ele>995.0</ele>
        <time>2019-08-01T07:44:38.990Z</time>
      </trkpt>
      <trkpt lat="43.03390667" lon="-1.22457">
        <ele>994.0</ele>
        <time>2019-08-01T07:44:39.997Z</time>
      </trkpt>
      <trkpt lat="43.033895" lon="-1.224585">
        <ele>993.0</ele>
        <time>2019-08-01T07:44:41.003Z</time>
      </trkpt>
      <trkpt lat="43.03388333" lon="-1.22459833">
        <ele>993.0</ele>
        <time>2019-08-01T07:44:42.008Z</time>
      </trkpt>
      <trkpt lat="43.03387333" lon="-1.22461167">
        <ele>994.0</ele>
        <time>2019-08-01T07:44:43.013Z</time>
      </trkpt>
      <trkpt lat="43.03386333" lon="-1.22462333">
        <ele>994.0</ele>
        <time>2019-08-01T07:44:44.017Z</time>
      </trkpt>
      <trkpt lat="43.033855" lon="-1.22463667">
        <ele>994.0</ele>
        <time>2019-08-01T07:44:45.020Z</time>
      </trkpt>
      <trkpt lat="43.033845" lon="-1.22465333">
        <ele>994.0</ele>
        <time>2019-08-01T07:44:46.026Z</time>
      </trkpt>
      <trkpt lat="43.03383333" lon="-1.22466833">
        <ele>994.0</ele>
        <time>2019-08-01T07:44:47.031Z</time>
      </trkpt>
      <trkpt lat="43.03382" lon="-1.224685">
        <ele>994.0</ele>
        <time>2019-08-01T07:44:48.036Z</time>
      </trkpt>
      <trkpt lat="43.03381" lon="-1.22470167">
        <ele>994.0</ele>
        <time>2019-08-01T07:44:49.043Z</time>
      </trkpt>
      <trkpt lat="43.03381" lon="-1.22470167">
        <ele>994.0</ele>
        <time>2019-08-01T07:44:49.923Z</time>
      </trkpt>
      <trkpt lat="43.03380167" lon="-1.22471667">
        <ele>994.0</ele>
        <time>2019-08-01T07:44:50.923Z</time>
      </trkpt>
      <trkpt lat="43.03379167" lon="-1.22473167">
        <ele>995.0</ele>
        <time>2019-08-01T07:44:51.925Z</time>
      </trkpt>
      <trkpt lat="43.03378333" lon="-1.224745">
        <ele>995.0</ele>
        <time>2019-08-01T07:44:52.928Z</time>
      </trkpt>
      <trkpt lat="43.03377333" lon="-1.22476">
        <ele>995.0</ele>
        <time>2019-08-01T07:44:53.930Z</time>
      </trkpt>
      <trkpt lat="43.03376333" lon="-1.22477333">
        <ele>995.0</ele>
        <time>2019-08-01T07:44:54.934Z</time>
      </trkpt>
      <trkpt lat="43.03375167" lon="-1.22478833">
        <ele>995.0</ele>
        <time>2019-08-01T07:44:55.940Z</time>
      </trkpt>
      <trkpt lat="43.03373833" lon="-1.22480333">
        <ele>994.0</ele>
        <time>2019-08-01T07:44:56.944Z</time>
      </trkpt>
      <trkpt lat="43.03373" lon="-1.22481333">
        <ele>994.0</ele>
        <time>2019-08-01T07:44:57.949Z</time>
      </trkpt>
      <trkpt lat="43.03372167" lon="-1.22482833">
        <ele>994.0</ele>
        <time>2019-08-01T07:44:58.956Z</time>
      </trkpt>
      <trkpt lat="43.033715" lon="-1.22484333">
        <ele>994.0</ele>
        <time>2019-08-01T07:44:59.960Z</time>
      </trkpt>
      <trkpt lat="43.03370667" lon="-1.22485667">
        <ele>994.0</ele>
        <time>2019-08-01T07:45:00.966Z</time>
      </trkpt>
      <trkpt lat="43.03369833" lon="-1.22487">
        <ele>994.0</ele>
        <time>2019-08-01T07:45:01.972Z</time>
      </trkpt>
      <trkpt lat="43.03369" lon="-1.22488333">
        <ele>993.0</ele>
        <time>2019-08-01T07:45:02.975Z</time>
      </trkpt>
      <trkpt lat="43.03367833" lon="-1.22489667">
        <ele>993.0</ele>
        <time>2019-08-01T07:45:03.980Z</time>
      </trkpt>
      <trkpt lat="43.03366667" lon="-1.22491">
        <ele>993.0</ele>
        <time>2019-08-01T07:45:04.985Z</time>
      </trkpt>
      <trkpt lat="43.03364833" lon="-1.22493667">
        <ele>993.0</ele>
        <time>2019-08-01T07:45:05.992Z</time>
      </trkpt>
      <trkpt lat="43.03364" lon="-1.22495333">
        <ele>993.0</ele>
        <time>2019-08-01T07:45:06.997Z</time>
      </trkpt>
      <trkpt lat="43.03363" lon="-1.22496833">
        <ele>992.0</ele>
        <time>2019-08-01T07:45:08.003Z</time>
      </trkpt>
      <trkpt lat="43.03361833" lon="-1.22498333">
        <ele>992.0</ele>
        <time>2019-08-01T07:45:09.011Z</time>
      </trkpt>
      <trkpt lat="43.033605" lon="-1.22500167">
        <ele>992.0</ele>
        <time>2019-08-01T07:45:10.014Z</time>
      </trkpt>
      <trkpt lat="43.03359667" lon="-1.22501667">
        <ele>992.0</ele>
        <time>2019-08-01T07:45:11.019Z</time>
      </trkpt>
      <trkpt lat="43.033585" lon="-1.22503">
        <ele>991.0</ele>
        <time>2019-08-01T07:45:12.025Z</time>
      </trkpt>
      <trkpt lat="43.03357333" lon="-1.225045">
        <ele>991.0</ele>
        <time>2019-08-01T07:45:13.029Z</time>
      </trkpt>
      <trkpt lat="43.03356333" lon="-1.22505833">
        <ele>991.0</ele>
        <time>2019-08-01T07:45:14.037Z</time>
      </trkpt>
      <trkpt lat="43.03355333" lon="-1.22507167">
        <ele>990.0</ele>
        <time>2019-08-01T07:45:15.042Z</time>
      </trkpt>
      <trkpt lat="43.03355333" lon="-1.22507167">
        <ele>990.0</ele>
        <time>2019-08-01T07:45:15.921Z</time>
      </trkpt>
      <trkpt lat="43.03354667" lon="-1.22508667">
        <ele>990.0</ele>
        <time>2019-08-01T07:45:16.928Z</time>
      </trkpt>
      <trkpt lat="43.033535" lon="-1.2251">
        <ele>989.0</ele>
        <time>2019-08-01T07:45:17.934Z</time>
      </trkpt>
      <trkpt lat="43.033525" lon="-1.22511333">
        <ele>989.0</ele>
        <time>2019-08-01T07:45:18.941Z</time>
      </trkpt>
      <trkpt lat="43.033515" lon="-1.22512833">
        <ele>989.0</ele>
        <time>2019-08-01T07:45:19.947Z</time>
      </trkpt>
      <trkpt lat="43.03350833" lon="-1.22514">
        <ele>989.0</ele>
        <time>2019-08-01T07:45:20.951Z</time>
      </trkpt>
      <trkpt lat="43.03350167" lon="-1.22514833">
        <ele>990.0</ele>
        <time>2019-08-01T07:45:21.956Z</time>
      </trkpt>
      <trkpt lat="43.033495" lon="-1.22516">
        <ele>990.0</ele>
        <time>2019-08-01T07:45:22.963Z</time>
      </trkpt>
      <trkpt lat="43.03348667" lon="-1.22517">
        <ele>991.0</ele>
        <time>2019-08-01T07:45:23.969Z</time>
      </trkpt>
      <trkpt lat="43.03347667" lon="-1.22517833">
        <ele>991.0</ele>
        <time>2019-08-01T07:45:24.975Z</time>
      </trkpt>
      <trkpt lat="43.03346833" lon="-1.22519167">
        <ele>991.0</ele>
        <time>2019-08-01T07:45:25.981Z</time>
      </trkpt>
      <trkpt lat="43.03346" lon="-1.225205">
        <ele>991.0</ele>
        <time>2019-08-01T07:45:26.987Z</time>
      </trkpt>
      <trkpt lat="43.03343833" lon="-1.22523167">
        <ele>991.0</ele>
        <time>2019-08-01T07:45:27.991Z</time>
      </trkpt>
      <trkpt lat="43.033425" lon="-1.22524833">
        <ele>990.0</ele>
        <time>2019-08-01T07:45:28.997Z</time>
      </trkpt>
      <trkpt lat="43.03341667" lon="-1.22526">
        <ele>990.0</ele>
        <time>2019-08-01T07:45:30.002Z</time>
      </trkpt>
      <trkpt lat="43.03340667" lon="-1.225275">
        <ele>990.0</ele>
        <time>2019-08-01T07:45:31.009Z</time>
      </trkpt>
      <trkpt lat="43.03339667" lon="-1.22528667">
        <ele>990.0</ele>
        <time>2019-08-01T07:45:32.016Z</time>
      </trkpt>
      <trkpt lat="43.03338833" lon="-1.22529667">
        <ele>990.0</ele>
        <time>2019-08-01T07:45:33.024Z</time>
      </trkpt>
      <trkpt lat="43.03337667" lon="-1.22531">
        <ele>991.0</ele>
        <time>2019-08-01T07:45:34.031Z</time>
      </trkpt>
      <trkpt lat="43.033365" lon="-1.22532333">
        <ele>990.0</ele>
        <time>2019-08-01T07:45:35.038Z</time>
      </trkpt>
      <trkpt lat="43.033365" lon="-1.22532333">
        <ele>990.0</ele>
        <time>2019-08-01T07:45:35.919Z</time>
      </trkpt>
      <trkpt lat="43.033355" lon="-1.22533667">
        <ele>990.0</ele>
        <time>2019-08-01T07:45:36.927Z</time>
      </trkpt>
      <trkpt lat="43.033345" lon="-1.22535333">
        <ele>990.0</ele>
        <time>2019-08-01T07:45:37.933Z</time>
      </trkpt>
      <trkpt lat="43.033335" lon="-1.22536667">
        <ele>989.0</ele>
        <time>2019-08-01T07:45:38.935Z</time>
      </trkpt>
      <trkpt lat="43.03332333" lon="-1.22538">
        <ele>989.0</ele>
        <time>2019-08-01T07:45:39.940Z</time>
      </trkpt>
      <trkpt lat="43.03331167" lon="-1.22539333">
        <ele>989.0</ele>
        <time>2019-08-01T07:45:40.946Z</time>
      </trkpt>
      <trkpt lat="43.03330167" lon="-1.225405">
        <ele>990.0</ele>
        <time>2019-08-01T07:45:41.951Z</time>
      </trkpt>
      <trkpt lat="43.03329" lon="-1.22541833">
        <ele>990.0</ele>
        <time>2019-08-01T07:45:42.957Z</time>
      </trkpt>
      <trkpt lat="43.03327833" lon="-1.22543">
        <ele>990.0</ele>
        <time>2019-08-01T07:45:43.963Z</time>
      </trkpt>
      <trkpt lat="43.03326833" lon="-1.22544167">
        <ele>989.0</ele>
        <time>2019-08-01T07:45:44.969Z</time>
      </trkpt>
      <trkpt lat="43.03325667" lon="-1.22545167">
        <ele>989.0</ele>
        <time>2019-08-01T07:45:45.975Z</time>
      </trkpt>
      <trkpt lat="43.033245" lon="-1.225465">
        <ele>989.0</ele>
        <time>2019-08-01T07:45:46.983Z</time>
      </trkpt>
      <trkpt lat="43.03322333" lon="-1.22548833">
        <ele>989.0</ele>
        <time>2019-08-01T07:45:47.988Z</time>
      </trkpt>
      <trkpt lat="43.03321333" lon="-1.22550167">
        <ele>988.0</ele>
        <time>2019-08-01T07:45:48.991Z</time>
      </trkpt>
      <trkpt lat="43.03320167" lon="-1.225515">
        <ele>987.0</ele>
        <time>2019-08-01T07:45:49.997Z</time>
      </trkpt>
      <trkpt lat="43.03319167" lon="-1.225525">
        <ele>987.0</ele>
        <time>2019-08-01T07:45:51.003Z</time>
      </trkpt>
      <trkpt lat="43.03318333" lon="-1.22553667">
        <ele>987.0</ele>
        <time>2019-08-01T07:45:52.010Z</time>
      </trkpt>
      <trkpt lat="43.03317667" lon="-1.22555">
        <ele>987.0</ele>
        <time>2019-08-01T07:45:53.015Z</time>
      </trkpt>
      <trkpt lat="43.03316833" lon="-1.22556333">
        <ele>986.0</ele>
        <time>2019-08-01T07:45:54.019Z</time>
      </trkpt>
      <trkpt lat="43.03315667" lon="-1.22557667">
        <ele>986.0</ele>
        <time>2019-08-01T07:45:55.026Z</time>
      </trkpt>
      <trkpt lat="43.03314167" lon="-1.22558667">
        <ele>985.0</ele>
        <time>2019-08-01T07:45:56.032Z</time>
      </trkpt>
      <trkpt lat="43.03313" lon="-1.225595">
        <ele>985.0</ele>
        <time>2019-08-01T07:45:57.037Z</time>
      </trkpt>
      <trkpt lat="43.03313" lon="-1.225595">
        <ele>985.0</ele>
        <time>2019-08-01T07:45:57.918Z</time>
      </trkpt>
      <trkpt lat="43.03311833" lon="-1.225605">
        <ele>985.0</ele>
        <time>2019-08-01T07:45:58.923Z</time>
      </trkpt>
      <trkpt lat="43.03311" lon="-1.22561167">
        <ele>985.0</ele>
        <time>2019-08-01T07:45:59.927Z</time>
      </trkpt>
      <trkpt lat="43.0331" lon="-1.22562667">
        <ele>985.0</ele>
        <time>2019-08-01T07:46:00.933Z</time>
      </trkpt>
      <trkpt lat="43.03309" lon="-1.22564333">
        <ele>985.0</ele>
        <time>2019-08-01T07:46:01.942Z</time>
      </trkpt>
      <trkpt lat="43.03307833" lon="-1.22565833">
        <ele>985.0</ele>
        <time>2019-08-01T07:46:02.946Z</time>
      </trkpt>
      <trkpt lat="43.03307" lon="-1.225675">
        <ele>985.0</ele>
        <time>2019-08-01T07:46:03.950Z</time>
      </trkpt>
      <trkpt lat="43.033065" lon="-1.225695">
        <ele>985.0</ele>
        <time>2019-08-01T07:46:04.955Z</time>
      </trkpt>
      <trkpt lat="43.03306" lon="-1.22571333">
        <ele>986.0</ele>
        <time>2019-08-01T07:46:05.959Z</time>
      </trkpt>
      <trkpt lat="43.03305167" lon="-1.22573167">
        <ele>987.0</ele>
        <time>2019-08-01T07:46:06.965Z</time>
      </trkpt>
      <trkpt lat="43.03304167" lon="-1.22575">
        <ele>987.0</ele>
        <time>2019-08-01T07:46:07.972Z</time>
      </trkpt>
      <trkpt lat="43.03303167" lon="-1.22576333">
        <ele>986.0</ele>
        <time>2019-08-01T07:46:08.978Z</time>
      </trkpt>
      <trkpt lat="43.03302333" lon="-1.225775">
        <ele>986.0</ele>
        <time>2019-08-01T07:46:09.984Z</time>
      </trkpt>
      <trkpt lat="43.03301" lon="-1.22579833">
        <ele>985.0</ele>
        <time>2019-08-01T07:46:10.990Z</time>
      </trkpt>
      <trkpt lat="43.03300333" lon="-1.22581167">
        <ele>985.0</ele>
        <time>2019-08-01T07:46:11.998Z</time>
      </trkpt>
      <trkpt lat="43.03299667" lon="-1.22583">
        <ele>985.0</ele>
        <time>2019-08-01T07:46:13.002Z</time>
      </trkpt>
      <trkpt lat="43.03299" lon="-1.22584833">
        <ele>985.0</ele>
        <time>2019-08-01T07:46:14.009Z</time>
      </trkpt>
      <trkpt lat="43.03298333" lon="-1.225865">
        <ele>984.0</ele>
        <time>2019-08-01T07:46:15.014Z</time>
      </trkpt>
      <trkpt lat="43.032975" lon="-1.22588167">
        <ele>984.0</ele>
        <time>2019-08-01T07:46:16.020Z</time>
      </trkpt>
      <trkpt lat="43.03296667" lon="-1.22589667">
        <ele>983.0</ele>
        <time>2019-08-01T07:46:17.026Z</time>
      </trkpt>
      <trkpt lat="43.03295833" lon="-1.22591">
        <ele>983.0</ele>
        <time>2019-08-01T07:46:18.031Z</time>
      </trkpt>
      <trkpt lat="43.03295" lon="-1.22592333">
        <ele>983.0</ele>
        <time>2019-08-01T07:46:19.038Z</time>
      </trkpt>
      <trkpt lat="43.03295" lon="-1.22592333">
        <ele>983.0</ele>
        <time>2019-08-01T07:46:19.919Z</time>
      </trkpt>
      <trkpt lat="43.03293833" lon="-1.22593833">
        <ele>983.0</ele>
        <time>2019-08-01T07:46:20.925Z</time>
      </trkpt>
      <trkpt lat="43.03293" lon="-1.22595167">
        <ele>983.0</ele>
        <time>2019-08-01T07:46:21.930Z</time>
      </trkpt>
      <trkpt lat="43.03292167" lon="-1.22596833">
        <ele>982.0</ele>
        <time>2019-08-01T07:46:22.937Z</time>
      </trkpt>
      <trkpt lat="43.03291167" lon="-1.225985">
        <ele>982.0</ele>
        <time>2019-08-01T07:46:23.944Z</time>
      </trkpt>
      <trkpt lat="43.032905" lon="-1.22600167">
        <ele>982.0</ele>
        <time>2019-08-01T07:46:24.952Z</time>
      </trkpt>
      <trkpt lat="43.032895" lon="-1.22601833">
        <ele>981.0</ele>
        <time>2019-08-01T07:46:25.956Z</time>
      </trkpt>
      <trkpt lat="43.03288667" lon="-1.22603167">
        <ele>980.0</ele>
        <time>2019-08-01T07:46:26.963Z</time>
      </trkpt>
      <trkpt lat="43.03288" lon="-1.22604167">
        <ele>980.0</ele>
        <time>2019-08-01T07:46:27.967Z</time>
      </trkpt>
      <trkpt lat="43.03287" lon="-1.226055">
        <ele>979.0</ele>
        <time>2019-08-01T07:46:28.972Z</time>
      </trkpt>
      <trkpt lat="43.03286" lon="-1.22607">
        <ele>979.0</ele>
        <time>2019-08-01T07:46:29.977Z</time>
      </trkpt>
      <trkpt lat="43.03285167" lon="-1.22608167">
        <ele>978.0</ele>
        <time>2019-08-01T07:46:30.982Z</time>
      </trkpt>
      <trkpt lat="43.03284333" lon="-1.2261">
        <ele>979.0</ele>
        <time>2019-08-01T07:46:31.987Z</time>
      </trkpt>
      <trkpt lat="43.03282333" lon="-1.226125">
        <ele>979.0</ele>
        <time>2019-08-01T07:46:32.991Z</time>
      </trkpt>
      <trkpt lat="43.03281" lon="-1.22613667">
        <ele>979.0</ele>
        <time>2019-08-01T07:46:33.998Z</time>
      </trkpt>
      <trkpt lat="43.03279667" lon="-1.22615167">
        <ele>978.0</ele>
        <time>2019-08-01T07:46:35.001Z</time>
      </trkpt>
      <trkpt lat="43.03278333" lon="-1.22616167">
        <ele>978.0</ele>
        <time>2019-08-01T07:46:36.007Z</time>
      </trkpt>
      <trkpt lat="43.03277167" lon="-1.22617">
        <ele>978.0</ele>
        <time>2019-08-01T07:46:37.012Z</time>
      </trkpt>
      <trkpt lat="43.03276167" lon="-1.22618167">
        <ele>977.0</ele>
        <time>2019-08-01T07:46:38.017Z</time>
      </trkpt>
      <trkpt lat="43.03275" lon="-1.226195">
        <ele>977.0</ele>
        <time>2019-08-01T07:46:39.020Z</time>
      </trkpt>
      <trkpt lat="43.03273833" lon="-1.22621">
        <ele>977.0</ele>
        <time>2019-08-01T07:46:40.024Z</time>
      </trkpt>
      <trkpt lat="43.03273" lon="-1.22622167">
        <ele>977.0</ele>
        <time>2019-08-01T07:46:41.029Z</time>
      </trkpt>
      <trkpt lat="43.03272167" lon="-1.22623333">
        <ele>977.0</ele>
        <time>2019-08-01T07:46:42.034Z</time>
      </trkpt>
      <trkpt lat="43.03271333" lon="-1.22624333">
        <ele>977.0</ele>
        <time>2019-08-01T07:46:43.041Z</time>
      </trkpt>
      <trkpt lat="43.03271333" lon="-1.22624333">
        <ele>977.0</ele>
        <time>2019-08-01T07:46:43.920Z</time>
      </trkpt>
      <trkpt lat="43.032705" lon="-1.226255">
        <ele>977.0</ele>
        <time>2019-08-01T07:46:44.927Z</time>
      </trkpt>
      <trkpt lat="43.032695" lon="-1.22626833">
        <ele>978.0</ele>
        <time>2019-08-01T07:46:45.933Z</time>
      </trkpt>
      <trkpt lat="43.03268333" lon="-1.226285">
        <ele>977.0</ele>
        <time>2019-08-01T07:46:46.940Z</time>
      </trkpt>
      <trkpt lat="43.032675" lon="-1.22630167">
        <ele>977.0</ele>
        <time>2019-08-01T07:46:47.946Z</time>
      </trkpt>
      <trkpt lat="43.032665" lon="-1.22631667">
        <ele>977.0</ele>
        <time>2019-08-01T07:46:48.951Z</time>
      </trkpt>
      <trkpt lat="43.03265333" lon="-1.22632833">
        <ele>977.0</ele>
        <time>2019-08-01T07:46:49.959Z</time>
      </trkpt>
      <trkpt lat="43.03264" lon="-1.22634">
        <ele>977.0</ele>
        <time>2019-08-01T07:46:50.965Z</time>
      </trkpt>
      <trkpt lat="43.03262833" lon="-1.22635">
        <ele>977.0</ele>
        <time>2019-08-01T07:46:51.971Z</time>
      </trkpt>
      <trkpt lat="43.03262" lon="-1.22636">
        <ele>978.0</ele>
        <time>2019-08-01T07:46:52.978Z</time>
      </trkpt>
      <trkpt lat="43.03261167" lon="-1.22637333">
        <ele>979.0</ele>
        <time>2019-08-01T07:46:53.984Z</time>
      </trkpt>
      <trkpt lat="43.03259167" lon="-1.226395">
        <ele>979.0</ele>
        <time>2019-08-01T07:46:54.990Z</time>
      </trkpt>
      <trkpt lat="43.03258167" lon="-1.22640667">
        <ele>979.0</ele>
        <time>2019-08-01T07:46:55.996Z</time>
      </trkpt>
      <trkpt lat="43.03257167" lon="-1.22642167">
        <ele>979.0</ele>
        <time>2019-08-01T07:46:57.001Z</time>
      </trkpt>
      <trkpt lat="43.03256167" lon="-1.22643667">
        <ele>979.0</ele>
        <time>2019-08-01T07:46:58.007Z</time>
      </trkpt>
      <trkpt lat="43.03255167" lon="-1.22644833">
        <ele>979.0</ele>
        <time>2019-08-01T07:46:59.013Z</time>
      </trkpt>
      <trkpt lat="43.03254167" lon="-1.22646333">
        <ele>978.0</ele>
        <time>2019-08-01T07:47:00.019Z</time>
      </trkpt>
      <trkpt lat="43.03253" lon="-1.226475">
        <ele>978.0</ele>
        <time>2019-08-01T07:47:01.027Z</time>
      </trkpt>
      <trkpt lat="43.03252" lon="-1.22648833">
        <ele>977.0</ele>
        <time>2019-08-01T07:47:02.035Z</time>
      </trkpt>
      <trkpt lat="43.03251167" lon="-1.22650167">
        <ele>977.0</ele>
        <time>2019-08-01T07:47:03.040Z</time>
      </trkpt>
      <trkpt lat="43.03251167" lon="-1.22650167">
        <ele>977.0</ele>
        <time>2019-08-01T07:47:03.922Z</time>
      </trkpt>
      <trkpt lat="43.03250333" lon="-1.22651833">
        <ele>977.0</ele>
        <time>2019-08-01T07:47:04.927Z</time>
      </trkpt>
      <trkpt lat="43.032495" lon="-1.226535">
        <ele>977.0</ele>
        <time>2019-08-01T07:47:05.932Z</time>
      </trkpt>
      <trkpt lat="43.03248833" lon="-1.22654833">
        <ele>976.0</ele>
        <time>2019-08-01T07:47:06.939Z</time>
      </trkpt>
      <trkpt lat="43.03248333" lon="-1.226565">
        <ele>975.0</ele>
        <time>2019-08-01T07:47:07.944Z</time>
      </trkpt>
      <trkpt lat="43.032475" lon="-1.22657833">
        <ele>975.0</ele>
        <time>2019-08-01T07:47:08.945Z</time>
      </trkpt>
      <trkpt lat="43.03246667" lon="-1.226595">
        <ele>974.0</ele>
        <time>2019-08-01T07:47:09.950Z</time>
      </trkpt>
      <trkpt lat="43.03245667" lon="-1.22661167">
        <ele>973.0</ele>
        <time>2019-08-01T07:47:10.957Z</time>
      </trkpt>
      <trkpt lat="43.03244667" lon="-1.22663167">
        <ele>972.0</ele>
        <time>2019-08-01T07:47:11.964Z</time>
      </trkpt>
      <trkpt lat="43.03243833" lon="-1.22664667">
        <ele>972.0</ele>
        <time>2019-08-01T07:47:12.969Z</time>
      </trkpt>
      <trkpt lat="43.03243" lon="-1.22666167">
        <ele>972.0</ele>
        <time>2019-08-01T07:47:13.970Z</time>
      </trkpt>
      <trkpt lat="43.03242167" lon="-1.22667667">
        <ele>972.0</ele>
        <time>2019-08-01T07:47:14.971Z</time>
      </trkpt>
      <trkpt lat="43.03241167" lon="-1.22669167">
        <ele>971.0</ele>
        <time>2019-08-01T07:47:15.978Z</time>
      </trkpt>
      <trkpt lat="43.03240167" lon="-1.226705">
        <ele>971.0</ele>
        <time>2019-08-01T07:47:16.985Z</time>
      </trkpt>
      <trkpt lat="43.03239167" lon="-1.22671667">
        <ele>970.0</ele>
        <time>2019-08-01T07:47:17.991Z</time>
      </trkpt>
      <trkpt lat="43.03237333" lon="-1.22675333">
        <ele>971.0</ele>
        <time>2019-08-01T07:47:18.995Z</time>
      </trkpt>
      <trkpt lat="43.03236333" lon="-1.22677">
        <ele>971.0</ele>
        <time>2019-08-01T07:47:19.997Z</time>
      </trkpt>
      <trkpt lat="43.032355" lon="-1.22678667">
        <ele>972.0</ele>
        <time>2019-08-01T07:47:21.003Z</time>
      </trkpt>
      <trkpt lat="43.03234667" lon="-1.22679833">
        <ele>973.0</ele>
        <time>2019-08-01T07:47:22.009Z</time>
      </trkpt>
      <trkpt lat="43.03233833" lon="-1.22681167">
        <ele>973.0</ele>
        <time>2019-08-01T07:47:23.013Z</time>
      </trkpt>
      <trkpt lat="43.03233" lon="-1.22683167">
        <ele>973.0</ele>
        <time>2019-08-01T07:47:24.020Z</time>
      </trkpt>
      <trkpt lat="43.03232" lon="-1.226845">
        <ele>974.0</ele>
        <time>2019-08-01T07:47:25.028Z</time>
      </trkpt>
      <trkpt lat="43.03231167" lon="-1.22686167">
        <ele>974.0</ele>
        <time>2019-08-01T07:47:26.034Z</time>
      </trkpt>
      <trkpt lat="43.032305" lon="-1.22687833">
        <ele>974.0</ele>
        <time>2019-08-01T07:47:27.040Z</time>
      </trkpt>
      <trkpt lat="43.032305" lon="-1.22687833">
        <ele>974.0</ele>
        <time>2019-08-01T07:47:27.920Z</time>
      </trkpt>
      <trkpt lat="43.03229833" lon="-1.22689333">
        <ele>975.0</ele>
        <time>2019-08-01T07:47:28.927Z</time>
      </trkpt>
      <trkpt lat="43.03229167" lon="-1.22690667">
        <ele>975.0</ele>
        <time>2019-08-01T07:47:29.930Z</time>
      </trkpt>
      <trkpt lat="43.03228333" lon="-1.22692">
        <ele>976.0</ele>
        <time>2019-08-01T07:47:30.936Z</time>
      </trkpt>
      <trkpt lat="43.032275" lon="-1.226935">
        <ele>975.0</ele>
        <time>2019-08-01T07:47:31.942Z</time>
      </trkpt>
      <trkpt lat="43.03226667" lon="-1.22694833">
        <ele>975.0</ele>
        <time>2019-08-01T07:47:32.948Z</time>
      </trkpt>
      <trkpt lat="43.03225833" lon="-1.22695833">
        <ele>975.0</ele>
        <time>2019-08-01T07:47:33.955Z</time>
      </trkpt>
      <trkpt lat="43.03225333" lon="-1.22697">
        <ele>975.0</ele>
        <time>2019-08-01T07:47:34.962Z</time>
      </trkpt>
      <trkpt lat="43.03224833" lon="-1.22698167">
        <ele>975.0</ele>
        <time>2019-08-01T07:47:35.969Z</time>
      </trkpt>
      <trkpt lat="43.03224167" lon="-1.22699167">
        <ele>976.0</ele>
        <time>2019-08-01T07:47:36.975Z</time>
      </trkpt>
      <trkpt lat="43.03223833" lon="-1.227005">
        <ele>976.0</ele>
        <time>2019-08-01T07:47:37.981Z</time>
      </trkpt>
      <trkpt lat="43.03223167" lon="-1.22701333">
        <ele>976.0</ele>
        <time>2019-08-01T07:47:38.986Z</time>
      </trkpt>
      <trkpt lat="43.03222" lon="-1.227035">
        <ele>977.0</ele>
        <time>2019-08-01T07:47:39.991Z</time>
      </trkpt>
      <trkpt lat="43.03221333" lon="-1.22704833">
        <ele>978.0</ele>
        <time>2019-08-01T07:47:40.996Z</time>
      </trkpt>
      <trkpt lat="43.03220667" lon="-1.22706333">
        <ele>978.0</ele>
        <time>2019-08-01T07:47:42.002Z</time>
      </trkpt>
      <trkpt lat="43.03219833" lon="-1.22707333">
        <ele>978.0</ele>
        <time>2019-08-01T07:47:43.009Z</time>
      </trkpt>
      <trkpt lat="43.03218833" lon="-1.227085">
        <ele>979.0</ele>
        <time>2019-08-01T07:47:44.016Z</time>
      </trkpt>
      <trkpt lat="43.03217667" lon="-1.22709833">
        <ele>979.0</ele>
        <time>2019-08-01T07:47:45.020Z</time>
      </trkpt>
      <trkpt lat="43.032165" lon="-1.22711">
        <ele>980.0</ele>
        <time>2019-08-01T07:47:46.027Z</time>
      </trkpt>
      <trkpt lat="43.032155" lon="-1.22712167">
        <ele>980.0</ele>
        <time>2019-08-01T07:47:47.034Z</time>
      </trkpt>
      <trkpt lat="43.032145" lon="-1.22713167">
        <ele>980.0</ele>
        <time>2019-08-01T07:47:48.040Z</time>
      </trkpt>
      <trkpt lat="43.032145" lon="-1.22713167">
        <ele>980.0</ele>
        <time>2019-08-01T07:47:48.921Z</time>
      </trkpt>
      <trkpt lat="43.03213167" lon="-1.22714333">
        <ele>980.0</ele>
        <time>2019-08-01T07:47:49.928Z</time>
      </trkpt>
      <trkpt lat="43.03212" lon="-1.22715333">
        <ele>980.0</ele>
        <time>2019-08-01T07:47:50.933Z</time>
      </trkpt>
      <trkpt lat="43.03210667" lon="-1.22715833">
        <ele>981.0</ele>
        <time>2019-08-01T07:47:51.940Z</time>
      </trkpt>
      <trkpt lat="43.032095" lon="-1.22716333">
        <ele>981.0</ele>
        <time>2019-08-01T07:47:52.946Z</time>
      </trkpt>
      <trkpt lat="43.03208167" lon="-1.22717167">
        <ele>981.0</ele>
        <time>2019-08-01T07:47:53.952Z</time>
      </trkpt>
      <trkpt lat="43.03206833" lon="-1.22717833">
        <ele>981.0</ele>
        <time>2019-08-01T07:47:54.958Z</time>
      </trkpt>
      <trkpt lat="43.03205333" lon="-1.22718333">
        <ele>981.0</ele>
        <time>2019-08-01T07:47:55.964Z</time>
      </trkpt>
      <trkpt lat="43.03204167" lon="-1.22718833">
        <ele>981.0</ele>
        <time>2019-08-01T07:47:56.969Z</time>
      </trkpt>
      <trkpt lat="43.03202833" lon="-1.22719333">
        <ele>980.0</ele>
        <time>2019-08-01T07:47:57.976Z</time>
      </trkpt>
      <trkpt lat="43.032015" lon="-1.22719667">
        <ele>980.0</ele>
        <time>2019-08-01T07:47:58.981Z</time>
      </trkpt>
      <trkpt lat="43.03200333" lon="-1.22720333">
        <ele>980.0</ele>
        <time>2019-08-01T07:47:59.987Z</time>
      </trkpt>
      <trkpt lat="43.031975" lon="-1.227215">
        <ele>981.0</ele>
        <time>2019-08-01T07:48:00.993Z</time>
      </trkpt>
      <trkpt lat="43.03196167" lon="-1.22722">
        <ele>981.0</ele>
        <time>2019-08-01T07:48:01.998Z</time>
      </trkpt>
      <trkpt lat="43.03195" lon="-1.227225">
        <ele>981.0</ele>
        <time>2019-08-01T07:48:03.003Z</time>
      </trkpt>
      <trkpt lat="43.03193667" lon="-1.22722833">
        <ele>982.0</ele>
        <time>2019-08-01T07:48:04.010Z</time>
      </trkpt>
      <trkpt lat="43.031925" lon="-1.22723167">
        <ele>981.0</ele>
        <time>2019-08-01T07:48:05.016Z</time>
      </trkpt>
      <trkpt lat="43.03191167" lon="-1.22723333">
        <ele>982.0</ele>
        <time>2019-08-01T07:48:06.024Z</time>
      </trkpt>
      <trkpt lat="43.0319" lon="-1.22723833">
        <ele>982.0</ele>
        <time>2019-08-01T07:48:07.031Z</time>
      </trkpt>
      <trkpt lat="43.03188667" lon="-1.22724333">
        <ele>982.0</ele>
        <time>2019-08-01T07:48:08.039Z</time>
      </trkpt>
      <trkpt lat="43.03187333" lon="-1.22724833">
        <ele>982.0</ele>
        <time>2019-08-01T07:48:09.043Z</time>
      </trkpt>
      <trkpt lat="43.03187333" lon="-1.22724833">
        <ele>982.0</ele>
        <time>2019-08-01T07:48:09.921Z</time>
      </trkpt>
      <trkpt lat="43.03186" lon="-1.22725167">
        <ele>982.0</ele>
        <time>2019-08-01T07:48:10.928Z</time>
      </trkpt>
      <trkpt lat="43.03184667" lon="-1.22725333">
        <ele>982.0</ele>
        <time>2019-08-01T07:48:11.932Z</time>
      </trkpt>
      <trkpt lat="43.03183333" lon="-1.22725333">
        <ele>982.0</ele>
        <time>2019-08-01T07:48:12.939Z</time>
      </trkpt>
      <trkpt lat="43.03181667" lon="-1.22725833">
        <ele>983.0</ele>
        <time>2019-08-01T07:48:13.944Z</time>
      </trkpt>
      <trkpt lat="43.03180333" lon="-1.22726">
        <ele>984.0</ele>
        <time>2019-08-01T07:48:14.951Z</time>
      </trkpt>
      <trkpt lat="43.03178833" lon="-1.22726167">
        <ele>984.0</ele>
        <time>2019-08-01T07:48:15.957Z</time>
      </trkpt>
      <trkpt lat="43.03177667" lon="-1.22726333">
        <ele>985.0</ele>
        <time>2019-08-01T07:48:16.964Z</time>
      </trkpt>
      <trkpt lat="43.031765" lon="-1.22727">
        <ele>985.0</ele>
        <time>2019-08-01T07:48:17.969Z</time>
      </trkpt>
      <trkpt lat="43.03175167" lon="-1.22727167">
        <ele>986.0</ele>
        <time>2019-08-01T07:48:18.974Z</time>
      </trkpt>
      <trkpt lat="43.03173833" lon="-1.22727667">
        <ele>987.0</ele>
        <time>2019-08-01T07:48:19.982Z</time>
      </trkpt>
      <trkpt lat="43.031725" lon="-1.22727667">
        <ele>987.0</ele>
        <time>2019-08-01T07:48:20.984Z</time>
      </trkpt>
      <trkpt lat="43.03171333" lon="-1.22727667">
        <ele>988.0</ele>
        <time>2019-08-01T07:48:21.990Z</time>
      </trkpt>
      <trkpt lat="43.03169833" lon="-1.22727167">
        <ele>988.0</ele>
        <time>2019-08-01T07:48:22.995Z</time>
      </trkpt>
      <trkpt lat="43.03167" lon="-1.22726833">
        <ele>989.0</ele>
        <time>2019-08-01T07:48:24.001Z</time>
      </trkpt>
      <trkpt lat="43.03165667" lon="-1.22727333">
        <ele>989.0</ele>
        <time>2019-08-01T07:48:25.010Z</time>
      </trkpt>
      <trkpt lat="43.03164333" lon="-1.22727">
        <ele>990.0</ele>
        <time>2019-08-01T07:48:26.014Z</time>
      </trkpt>
      <trkpt lat="43.03163" lon="-1.227265">
        <ele>991.0</ele>
        <time>2019-08-01T07:48:27.021Z</time>
      </trkpt>
      <trkpt lat="43.03161667" lon="-1.22726167">
        <ele>991.0</ele>
        <time>2019-08-01T07:48:28.025Z</time>
      </trkpt>
      <trkpt lat="43.031605" lon="-1.22726167">
        <ele>992.0</ele>
        <time>2019-08-01T07:48:29.032Z</time>
      </trkpt>
      <trkpt lat="43.03159333" lon="-1.22726333">
        <ele>992.0</ele>
        <time>2019-08-01T07:48:30.039Z</time>
      </trkpt>
      <trkpt lat="43.03159333" lon="-1.22726333">
        <ele>992.0</ele>
        <time>2019-08-01T07:48:30.921Z</time>
      </trkpt>
      <trkpt lat="43.03158333" lon="-1.22727">
        <ele>992.0</ele>
        <time>2019-08-01T07:48:31.927Z</time>
      </trkpt>
      <trkpt lat="43.03157" lon="-1.22726833">
        <ele>992.0</ele>
        <time>2019-08-01T07:48:32.933Z</time>
      </trkpt>
      <trkpt lat="43.03155667" lon="-1.22727">
        <ele>992.0</ele>
        <time>2019-08-01T07:48:33.941Z</time>
      </trkpt>
      <trkpt lat="43.031545" lon="-1.22727">
        <ele>992.0</ele>
        <time>2019-08-01T07:48:34.948Z</time>
      </trkpt>
      <trkpt lat="43.03153167" lon="-1.227275">
        <ele>992.0</ele>
        <time>2019-08-01T07:48:35.954Z</time>
      </trkpt>
      <trkpt lat="43.03151833" lon="-1.22727333">
        <ele>992.0</ele>
        <time>2019-08-01T07:48:36.960Z</time>
      </trkpt>
      <trkpt lat="43.031505" lon="-1.22727833">
        <ele>992.0</ele>
        <time>2019-08-01T07:48:37.965Z</time>
      </trkpt>
      <trkpt lat="43.031495" lon="-1.22728167">
        <ele>992.0</ele>
        <time>2019-08-01T07:48:38.970Z</time>
      </trkpt>
      <trkpt lat="43.031485" lon="-1.227285">
        <ele>991.0</ele>
        <time>2019-08-01T07:48:39.976Z</time>
      </trkpt>
      <trkpt lat="43.031475" lon="-1.22728667">
        <ele>991.0</ele>
        <time>2019-08-01T07:48:40.981Z</time>
      </trkpt>
      <trkpt lat="43.03146333" lon="-1.22729">
        <ele>991.0</ele>
        <time>2019-08-01T07:48:41.987Z</time>
      </trkpt>
      <trkpt lat="43.03145167" lon="-1.22729333">
        <ele>991.0</ele>
        <time>2019-08-01T07:48:42.992Z</time>
      </trkpt>
      <trkpt lat="43.03142833" lon="-1.22729167">
        <ele>990.0</ele>
        <time>2019-08-01T07:48:43.998Z</time>
      </trkpt>
      <trkpt lat="43.03141667" lon="-1.22729">
        <ele>990.0</ele>
        <time>2019-08-01T07:48:45.003Z</time>
      </trkpt>
      <trkpt lat="43.03140667" lon="-1.227295">
        <ele>990.0</ele>
        <time>2019-08-01T07:48:46.010Z</time>
      </trkpt>
      <trkpt lat="43.03140667" lon="-1.227295">
        <ele>990.0</ele>
        <time>2019-08-01T07:48:47.015Z</time>
      </trkpt>
      <trkpt lat="43.03138333" lon="-1.22729667">
        <ele>990.0</ele>
        <time>2019-08-01T07:48:48.022Z</time>
      </trkpt>
      <trkpt lat="43.03137" lon="-1.22729667">
        <ele>989.0</ele>
        <time>2019-08-01T07:48:49.027Z</time>
      </trkpt>
      <trkpt lat="43.03135667" lon="-1.22729667">
        <ele>989.0</ele>
        <time>2019-08-01T07:48:50.033Z</time>
      </trkpt>
      <trkpt lat="43.03134333" lon="-1.22729833">
        <ele>990.0</ele>
        <time>2019-08-01T07:48:51.038Z</time>
      </trkpt>
      <trkpt lat="43.03132833" lon="-1.22729833">
        <ele>989.0</ele>
        <time>2019-08-01T07:48:52.042Z</time>
      </trkpt>
      <trkpt lat="43.03132833" lon="-1.22729833">
        <ele>989.0</ele>
        <time>2019-08-01T07:48:52.923Z</time>
      </trkpt>
      <trkpt lat="43.031315" lon="-1.22729833">
        <ele>989.0</ele>
        <time>2019-08-01T07:48:53.928Z</time>
      </trkpt>
      <trkpt lat="43.03130667" lon="-1.22730167">
        <ele>990.0</ele>
        <time>2019-08-01T07:48:54.935Z</time>
      </trkpt>
      <trkpt lat="43.03129333" lon="-1.22730167">
        <ele>989.0</ele>
        <time>2019-08-01T07:48:55.941Z</time>
      </trkpt>
      <trkpt lat="43.03128167" lon="-1.22729833">
        <ele>988.0</ele>
        <time>2019-08-01T07:48:56.947Z</time>
      </trkpt>
      <trkpt lat="43.03127" lon="-1.22729667">
        <ele>987.0</ele>
        <time>2019-08-01T07:48:57.952Z</time>
      </trkpt>
      <trkpt lat="43.03125833" lon="-1.22729833">
        <ele>987.0</ele>
        <time>2019-08-01T07:48:58.956Z</time>
      </trkpt>
      <trkpt lat="43.031245" lon="-1.22729833">
        <ele>986.0</ele>
        <time>2019-08-01T07:48:59.960Z</time>
      </trkpt>
      <trkpt lat="43.031235" lon="-1.22730167">
        <ele>985.0</ele>
        <time>2019-08-01T07:49:00.965Z</time>
      </trkpt>
      <trkpt lat="43.03122167" lon="-1.22730333">
        <ele>985.0</ele>
        <time>2019-08-01T07:49:01.970Z</time>
      </trkpt>
      <trkpt lat="43.03120667" lon="-1.22731">
        <ele>984.0</ele>
        <time>2019-08-01T07:49:02.975Z</time>
      </trkpt>
      <trkpt lat="43.03119333" lon="-1.22731">
        <ele>984.0</ele>
        <time>2019-08-01T07:49:03.979Z</time>
      </trkpt>
      <trkpt lat="43.03118167" lon="-1.22731333">
        <ele>984.0</ele>
        <time>2019-08-01T07:49:04.981Z</time>
      </trkpt>
      <trkpt lat="43.03116833" lon="-1.22731667">
        <ele>984.0</ele>
        <time>2019-08-01T07:49:05.987Z</time>
      </trkpt>
      <trkpt lat="43.03115833" lon="-1.22732167">
        <ele>984.0</ele>
        <time>2019-08-01T07:49:06.993Z</time>
      </trkpt>
      <trkpt lat="43.03114833" lon="-1.227325">
        <ele>984.0</ele>
        <time>2019-08-01T07:49:08.000Z</time>
      </trkpt>
      <trkpt lat="43.03112667" lon="-1.22733">
        <ele>985.0</ele>
        <time>2019-08-01T07:49:09.007Z</time>
      </trkpt>
      <trkpt lat="43.03111333" lon="-1.22733333">
        <ele>985.0</ele>
        <time>2019-08-01T07:49:10.011Z</time>
      </trkpt>
      <trkpt lat="43.03111333" lon="-1.22733333">
        <ele>985.0</ele>
        <time>2019-08-01T07:49:11.018Z</time>
      </trkpt>
      <trkpt lat="43.03108833" lon="-1.22734833">
        <ele>986.0</ele>
        <time>2019-08-01T07:49:12.024Z</time>
      </trkpt>
      <trkpt lat="43.03107667" lon="-1.227345">
        <ele>986.0</ele>
        <time>2019-08-01T07:49:13.030Z</time>
      </trkpt>
      <trkpt lat="43.03106667" lon="-1.22734333">
        <ele>986.0</ele>
        <time>2019-08-01T07:49:14.036Z</time>
      </trkpt>
      <trkpt lat="43.03105667" lon="-1.22734333">
        <ele>985.0</ele>
        <time>2019-08-01T07:49:15.040Z</time>
      </trkpt>
      <trkpt lat="43.03105667" lon="-1.22734333">
        <ele>985.0</ele>
        <time>2019-08-01T07:49:15.921Z</time>
      </trkpt>
      <trkpt lat="43.03104167" lon="-1.227345">
        <ele>985.0</ele>
        <time>2019-08-01T07:49:16.927Z</time>
      </trkpt>
      <trkpt lat="43.03103" lon="-1.22734667">
        <ele>985.0</ele>
        <time>2019-08-01T07:49:17.933Z</time>
      </trkpt>
      <trkpt lat="43.03101667" lon="-1.22734667">
        <ele>986.0</ele>
        <time>2019-08-01T07:49:18.938Z</time>
      </trkpt>
      <trkpt lat="43.03100667" lon="-1.22734667">
        <ele>986.0</ele>
        <time>2019-08-01T07:49:19.945Z</time>
      </trkpt>
      <trkpt lat="43.03099167" lon="-1.22734333">
        <ele>986.0</ele>
        <time>2019-08-01T07:49:20.952Z</time>
      </trkpt>
      <trkpt lat="43.03098167" lon="-1.22734167">
        <ele>986.0</ele>
        <time>2019-08-01T07:49:21.959Z</time>
      </trkpt>
      <trkpt lat="43.03096333" lon="-1.22734333">
        <ele>985.0</ele>
        <time>2019-08-01T07:49:22.964Z</time>
      </trkpt>
      <trkpt lat="43.03095" lon="-1.22734667">
        <ele>985.0</ele>
        <time>2019-08-01T07:49:23.969Z</time>
      </trkpt>
      <trkpt lat="43.03093667" lon="-1.22735167">
        <ele>984.0</ele>
        <time>2019-08-01T07:49:24.977Z</time>
      </trkpt>
      <trkpt lat="43.03092" lon="-1.227355">
        <ele>984.0</ele>
        <time>2019-08-01T07:49:25.985Z</time>
      </trkpt>
      <trkpt lat="43.03090667" lon="-1.22735667">
        <ele>982.0</ele>
        <time>2019-08-01T07:49:26.992Z</time>
      </trkpt>
      <trkpt lat="43.030895" lon="-1.22736">
        <ele>982.0</ele>
        <time>2019-08-01T07:49:27.997Z</time>
      </trkpt>
      <trkpt lat="43.03087333" lon="-1.22736667">
        <ele>981.0</ele>
        <time>2019-08-01T07:49:29.002Z</time>
      </trkpt>
      <trkpt lat="43.03085833" lon="-1.22737333">
        <ele>980.0</ele>
        <time>2019-08-01T07:49:30.008Z</time>
      </trkpt>
      <trkpt lat="43.03084333" lon="-1.22738">
        <ele>979.0</ele>
        <time>2019-08-01T07:49:31.015Z</time>
      </trkpt>
      <trkpt lat="43.03084333" lon="-1.22738">
        <ele>979.0</ele>
        <time>2019-08-01T07:49:32.018Z</time>
      </trkpt>
      <trkpt lat="43.030815" lon="-1.22739">
        <ele>978.0</ele>
        <time>2019-08-01T07:49:33.024Z</time>
      </trkpt>
      <trkpt lat="43.03079833" lon="-1.22739667">
        <ele>978.0</ele>
        <time>2019-08-01T07:49:34.032Z</time>
      </trkpt>
      <trkpt lat="43.030785" lon="-1.22740333">
        <ele>977.0</ele>
        <time>2019-08-01T07:49:35.038Z</time>
      </trkpt>
      <trkpt lat="43.030785" lon="-1.22740333">
        <ele>977.0</ele>
        <time>2019-08-01T07:49:35.919Z</time>
      </trkpt>
      <trkpt lat="43.03077" lon="-1.22741333">
        <ele>977.0</ele>
        <time>2019-08-01T07:49:36.925Z</time>
      </trkpt>
      <trkpt lat="43.03075833" lon="-1.22742">
        <ele>976.0</ele>
        <time>2019-08-01T07:49:37.930Z</time>
      </trkpt>
      <trkpt lat="43.030745" lon="-1.22742333">
        <ele>975.0</ele>
        <time>2019-08-01T07:49:38.938Z</time>
      </trkpt>
      <trkpt lat="43.03073167" lon="-1.22743">
        <ele>975.0</ele>
        <time>2019-08-01T07:49:39.942Z</time>
      </trkpt>
      <trkpt lat="43.03071833" lon="-1.22743667">
        <ele>974.0</ele>
        <time>2019-08-01T07:49:40.949Z</time>
      </trkpt>
      <trkpt lat="43.03071" lon="-1.22743667">
        <ele>974.0</ele>
        <time>2019-08-01T07:49:41.954Z</time>
      </trkpt>
      <trkpt lat="43.03070167" lon="-1.227435">
        <ele>974.0</ele>
        <time>2019-08-01T07:49:42.961Z</time>
      </trkpt>
      <trkpt lat="43.03068833" lon="-1.227435">
        <ele>974.0</ele>
        <time>2019-08-01T07:49:43.968Z</time>
      </trkpt>
      <trkpt lat="43.03067833" lon="-1.227435">
        <ele>974.0</ele>
        <time>2019-08-01T07:49:44.972Z</time>
      </trkpt>
      <trkpt lat="43.030665" lon="-1.22743667">
        <ele>974.0</ele>
        <time>2019-08-01T07:49:45.977Z</time>
      </trkpt>
      <trkpt lat="43.03065" lon="-1.22743833">
        <ele>974.0</ele>
        <time>2019-08-01T07:49:46.981Z</time>
      </trkpt>
      <trkpt lat="43.030635" lon="-1.22743667">
        <ele>975.0</ele>
        <time>2019-08-01T07:49:47.985Z</time>
      </trkpt>
      <trkpt lat="43.03061833" lon="-1.22743833">
        <ele>975.0</ele>
        <time>2019-08-01T07:49:48.989Z</time>
      </trkpt>
      <trkpt lat="43.03058667" lon="-1.22744333">
        <ele>975.0</ele>
        <time>2019-08-01T07:49:49.994Z</time>
      </trkpt>
      <trkpt lat="43.03058667" lon="-1.22744333">
        <ele>975.0</ele>
        <time>2019-08-01T07:49:51.000Z</time>
      </trkpt>
      <trkpt lat="43.03057167" lon="-1.22744833">
        <ele>974.0</ele>
        <time>2019-08-01T07:49:52.006Z</time>
      </trkpt>
      <trkpt lat="43.030555" lon="-1.22745">
        <ele>974.0</ele>
        <time>2019-08-01T07:49:53.012Z</time>
      </trkpt>
      <trkpt lat="43.03052167" lon="-1.22746">
        <ele>973.0</ele>
        <time>2019-08-01T07:49:54.020Z</time>
      </trkpt>
      <trkpt lat="43.03050833" lon="-1.22746833">
        <ele>972.0</ele>
        <time>2019-08-01T07:49:55.026Z</time>
      </trkpt>
      <trkpt lat="43.030495" lon="-1.227475">
        <ele>972.0</ele>
        <time>2019-08-01T07:49:56.031Z</time>
      </trkpt>
      <trkpt lat="43.03048167" lon="-1.22748167">
        <ele>971.0</ele>
        <time>2019-08-01T07:49:57.036Z</time>
      </trkpt>
      <trkpt lat="43.03046833" lon="-1.22748833">
        <ele>971.0</ele>
        <time>2019-08-01T07:49:58.041Z</time>
      </trkpt>
      <trkpt lat="43.03046833" lon="-1.22748833">
        <ele>971.0</ele>
        <time>2019-08-01T07:49:58.919Z</time>
      </trkpt>
      <trkpt lat="43.030455" lon="-1.22748833">
        <ele>971.0</ele>
        <time>2019-08-01T07:49:59.925Z</time>
      </trkpt>
      <trkpt lat="43.03044" lon="-1.22749333">
        <ele>971.0</ele>
        <time>2019-08-01T07:50:00.929Z</time>
      </trkpt>
      <trkpt lat="43.03042667" lon="-1.22749667">
        <ele>971.0</ele>
        <time>2019-08-01T07:50:01.934Z</time>
      </trkpt>
      <trkpt lat="43.03041667" lon="-1.22750333">
        <ele>971.0</ele>
        <time>2019-08-01T07:50:02.941Z</time>
      </trkpt>
      <trkpt lat="43.03041" lon="-1.22750333">
        <ele>970.0</ele>
        <time>2019-08-01T07:50:03.946Z</time>
      </trkpt>
      <trkpt lat="43.03039667" lon="-1.2275">
        <ele>971.0</ele>
        <time>2019-08-01T07:50:04.950Z</time>
      </trkpt>
      <trkpt lat="43.030385" lon="-1.227495">
        <ele>972.0</ele>
        <time>2019-08-01T07:50:05.957Z</time>
      </trkpt>
      <trkpt lat="43.03036833" lon="-1.22749167">
        <ele>973.0</ele>
        <time>2019-08-01T07:50:06.962Z</time>
      </trkpt>
      <trkpt lat="43.03035667" lon="-1.22749333">
        <ele>973.0</ele>
        <time>2019-08-01T07:50:07.967Z</time>
      </trkpt>
      <trkpt lat="43.030345" lon="-1.227495">
        <ele>973.0</ele>
        <time>2019-08-01T07:50:08.973Z</time>
      </trkpt>
      <trkpt lat="43.03033333" lon="-1.2275">
        <ele>973.0</ele>
        <time>2019-08-01T07:50:09.979Z</time>
      </trkpt>
      <trkpt lat="43.03031667" lon="-1.227505">
        <ele>973.0</ele>
        <time>2019-08-01T07:50:10.985Z</time>
      </trkpt>
      <trkpt lat="43.03030333" lon="-1.22751">
        <ele>972.0</ele>
        <time>2019-08-01T07:50:11.991Z</time>
      </trkpt>
      <trkpt lat="43.03029167" lon="-1.227515">
        <ele>972.0</ele>
        <time>2019-08-01T07:50:12.997Z</time>
      </trkpt>
      <trkpt lat="43.030265" lon="-1.22752833">
        <ele>971.0</ele>
        <time>2019-08-01T07:50:14.002Z</time>
      </trkpt>
      <trkpt lat="43.03025" lon="-1.22753667">
        <ele>970.0</ele>
        <time>2019-08-01T07:50:15.006Z</time>
      </trkpt>
      <trkpt lat="43.03025" lon="-1.22753667">
        <ele>970.0</ele>
        <time>2019-08-01T07:50:16.011Z</time>
      </trkpt>
      <trkpt lat="43.03023667" lon="-1.22754">
        <ele>971.0</ele>
        <time>2019-08-01T07:50:17.017Z</time>
      </trkpt>
      <trkpt lat="43.03022333" lon="-1.227545">
        <ele>970.0</ele>
        <time>2019-08-01T07:50:18.024Z</time>
      </trkpt>
      <trkpt lat="43.0302" lon="-1.22755833">
        <ele>969.0</ele>
        <time>2019-08-01T07:50:19.032Z</time>
      </trkpt>
      <trkpt lat="43.03018833" lon="-1.227565">
        <ele>968.0</ele>
        <time>2019-08-01T07:50:20.038Z</time>
      </trkpt>
      <trkpt lat="43.03018833" lon="-1.227565">
        <ele>968.0</ele>
        <time>2019-08-01T07:50:20.918Z</time>
      </trkpt>
      <trkpt lat="43.03017333" lon="-1.227575">
        <ele>968.0</ele>
        <time>2019-08-01T07:50:21.925Z</time>
      </trkpt>
      <trkpt lat="43.03016167" lon="-1.22758333">
        <ele>967.0</ele>
        <time>2019-08-01T07:50:22.929Z</time>
      </trkpt>
      <trkpt lat="43.03015" lon="-1.22758667">
        <ele>967.0</ele>
        <time>2019-08-01T07:50:23.936Z</time>
      </trkpt>
      <trkpt lat="43.03013667" lon="-1.22759167">
        <ele>967.0</ele>
        <time>2019-08-01T07:50:24.944Z</time>
      </trkpt>
      <trkpt lat="43.030125" lon="-1.22759667">
        <ele>966.0</ele>
        <time>2019-08-01T07:50:25.951Z</time>
      </trkpt>
      <trkpt lat="43.03011" lon="-1.227605">
        <ele>965.0</ele>
        <time>2019-08-01T07:50:26.957Z</time>
      </trkpt>
      <trkpt lat="43.0301" lon="-1.227615">
        <ele>964.0</ele>
        <time>2019-08-01T07:50:27.965Z</time>
      </trkpt>
      <trkpt lat="43.030085" lon="-1.22762333">
        <ele>964.0</ele>
        <time>2019-08-01T07:50:28.969Z</time>
      </trkpt>
      <trkpt lat="43.03007333" lon="-1.22762667">
        <ele>963.0</ele>
        <time>2019-08-01T07:50:29.974Z</time>
      </trkpt>
      <trkpt lat="43.03005833" lon="-1.22762833">
        <ele>963.0</ele>
        <time>2019-08-01T07:50:30.979Z</time>
      </trkpt>
      <trkpt lat="43.03004833" lon="-1.22763333">
        <ele>963.0</ele>
        <time>2019-08-01T07:50:31.986Z</time>
      </trkpt>
      <trkpt lat="43.030035" lon="-1.22763667">
        <ele>962.0</ele>
        <time>2019-08-01T07:50:32.991Z</time>
      </trkpt>
      <trkpt lat="43.03000833" lon="-1.22764667">
        <ele>961.0</ele>
        <time>2019-08-01T07:50:33.998Z</time>
      </trkpt>
      <trkpt lat="43.029995" lon="-1.227655">
        <ele>959.0</ele>
        <time>2019-08-01T07:50:35.005Z</time>
      </trkpt>
      <trkpt lat="43.029995" lon="-1.227655">
        <ele>959.0</ele>
        <time>2019-08-01T07:50:36.011Z</time>
      </trkpt>
      <trkpt lat="43.029985" lon="-1.22766167">
        <ele>959.0</ele>
        <time>2019-08-01T07:50:37.014Z</time>
      </trkpt>
      <trkpt lat="43.02997167" lon="-1.22766833">
        <ele>958.0</ele>
        <time>2019-08-01T07:50:38.019Z</time>
      </trkpt>
      <trkpt lat="43.029945" lon="-1.22767833">
        <ele>956.0</ele>
        <time>2019-08-01T07:50:39.026Z</time>
      </trkpt>
      <trkpt lat="43.02993167" lon="-1.22767833">
        <ele>956.0</ele>
        <time>2019-08-01T07:50:40.033Z</time>
      </trkpt>
      <trkpt lat="43.02992" lon="-1.22768">
        <ele>955.0</ele>
        <time>2019-08-01T07:50:41.040Z</time>
      </trkpt>
      <trkpt lat="43.02992" lon="-1.22768">
        <ele>955.0</ele>
        <time>2019-08-01T07:50:41.921Z</time>
      </trkpt>
      <trkpt lat="43.02990833" lon="-1.22768">
        <ele>955.0</ele>
        <time>2019-08-01T07:50:42.928Z</time>
      </trkpt>
      <trkpt lat="43.02989667" lon="-1.22768">
        <ele>954.0</ele>
        <time>2019-08-01T07:50:43.933Z</time>
      </trkpt>
      <trkpt lat="43.02988167" lon="-1.22768167">
        <ele>954.0</ele>
        <time>2019-08-01T07:50:44.939Z</time>
      </trkpt>
      <trkpt lat="43.02987167" lon="-1.22768">
        <ele>953.0</ele>
        <time>2019-08-01T07:50:45.947Z</time>
      </trkpt>
      <trkpt lat="43.02986167" lon="-1.22767667">
        <ele>954.0</ele>
        <time>2019-08-01T07:50:46.953Z</time>
      </trkpt>
      <trkpt lat="43.02985" lon="-1.227675">
        <ele>954.0</ele>
        <time>2019-08-01T07:50:47.960Z</time>
      </trkpt>
      <trkpt lat="43.029835" lon="-1.22767333">
        <ele>954.0</ele>
        <time>2019-08-01T07:50:48.965Z</time>
      </trkpt>
      <trkpt lat="43.02982167" lon="-1.22767167">
        <ele>954.0</ele>
        <time>2019-08-01T07:50:49.971Z</time>
      </trkpt>
      <trkpt lat="43.02980833" lon="-1.22767">
        <ele>954.0</ele>
        <time>2019-08-01T07:50:50.976Z</time>
      </trkpt>
      <trkpt lat="43.029795" lon="-1.22766833">
        <ele>954.0</ele>
        <time>2019-08-01T07:50:51.981Z</time>
      </trkpt>
      <trkpt lat="43.02978667" lon="-1.22766667">
        <ele>953.0</ele>
        <time>2019-08-01T07:50:52.988Z</time>
      </trkpt>
      <trkpt lat="43.02976333" lon="-1.227665">
        <ele>952.0</ele>
        <time>2019-08-01T07:50:53.994Z</time>
      </trkpt>
      <trkpt lat="43.02975167" lon="-1.22766333">
        <ele>951.0</ele>
        <time>2019-08-01T07:50:55.000Z</time>
      </trkpt>
      <trkpt lat="43.02975167" lon="-1.22766333">
        <ele>951.0</ele>
        <time>2019-08-01T07:50:56.006Z</time>
      </trkpt>
      <trkpt lat="43.02973667" lon="-1.22766333">
        <ele>950.0</ele>
        <time>2019-08-01T07:50:57.011Z</time>
      </trkpt>
      <trkpt lat="43.02972667" lon="-1.22765833">
        <ele>949.0</ele>
        <time>2019-08-01T07:50:58.014Z</time>
      </trkpt>
      <trkpt lat="43.02970833" lon="-1.227655">
        <ele>949.0</ele>
        <time>2019-08-01T07:50:59.019Z</time>
      </trkpt>
      <trkpt lat="43.029695" lon="-1.22765333">
        <ele>949.0</ele>
        <time>2019-08-01T07:51:00.024Z</time>
      </trkpt>
      <trkpt lat="43.02968167" lon="-1.22764833">
        <ele>949.0</ele>
        <time>2019-08-01T07:51:01.030Z</time>
      </trkpt>
      <trkpt lat="43.02967" lon="-1.227645">
        <ele>948.0</ele>
        <time>2019-08-01T07:51:02.035Z</time>
      </trkpt>
      <trkpt lat="43.02965833" lon="-1.22764">
        <ele>948.0</ele>
        <time>2019-08-01T07:51:03.041Z</time>
      </trkpt>
      <trkpt lat="43.02965833" lon="-1.22764">
        <ele>948.0</ele>
        <time>2019-08-01T07:51:03.922Z</time>
      </trkpt>
      <trkpt lat="43.02964833" lon="-1.227635">
        <ele>948.0</ele>
        <time>2019-08-01T07:51:04.928Z</time>
      </trkpt>
      <trkpt lat="43.029635" lon="-1.22763167">
        <ele>947.0</ele>
        <time>2019-08-01T07:51:05.935Z</time>
      </trkpt>
      <trkpt lat="43.029625" lon="-1.22762667">
        <ele>948.0</ele>
        <time>2019-08-01T07:51:06.941Z</time>
      </trkpt>
      <trkpt lat="43.02961333" lon="-1.22762167">
        <ele>948.0</ele>
        <time>2019-08-01T07:51:07.948Z</time>
      </trkpt>
      <trkpt lat="43.02960333" lon="-1.22761667">
        <ele>947.0</ele>
        <time>2019-08-01T07:51:08.955Z</time>
      </trkpt>
      <trkpt lat="43.02958833" lon="-1.22761">
        <ele>947.0</ele>
        <time>2019-08-01T07:51:09.961Z</time>
      </trkpt>
      <trkpt lat="43.02957667" lon="-1.22760667">
        <ele>947.0</ele>
        <time>2019-08-01T07:51:10.965Z</time>
      </trkpt>
      <trkpt lat="43.02956333" lon="-1.2276">
        <ele>948.0</ele>
        <time>2019-08-01T07:51:11.969Z</time>
      </trkpt>
      <trkpt lat="43.02955333" lon="-1.227595">
        <ele>948.0</ele>
        <time>2019-08-01T07:51:12.974Z</time>
      </trkpt>
      <trkpt lat="43.02954167" lon="-1.22759">
        <ele>948.0</ele>
        <time>2019-08-01T07:51:13.980Z</time>
      </trkpt>
      <trkpt lat="43.02952833" lon="-1.22758667">
        <ele>948.0</ele>
        <time>2019-08-01T07:51:14.984Z</time>
      </trkpt>
      <trkpt lat="43.02951833" lon="-1.227585">
        <ele>948.0</ele>
        <time>2019-08-01T07:51:15.989Z</time>
      </trkpt>
      <trkpt lat="43.02950833" lon="-1.22758333">
        <ele>948.0</ele>
        <time>2019-08-01T07:51:16.995Z</time>
      </trkpt>
      <trkpt lat="43.02950167" lon="-1.22758333">
        <ele>948.0</ele>
        <time>2019-08-01T07:51:18.002Z</time>
      </trkpt>
      <trkpt lat="43.02947833" lon="-1.22758">
        <ele>948.0</ele>
        <time>2019-08-01T07:51:19.009Z</time>
      </trkpt>
      <trkpt lat="43.02946667" lon="-1.22758">
        <ele>947.0</ele>
        <time>2019-08-01T07:51:20.014Z</time>
      </trkpt>
      <trkpt lat="43.02946667" lon="-1.22758">
        <ele>947.0</ele>
        <time>2019-08-01T07:51:21.019Z</time>
      </trkpt>
      <trkpt lat="43.02944" lon="-1.22758">
        <ele>947.0</ele>
        <time>2019-08-01T07:51:22.025Z</time>
      </trkpt>
      <trkpt lat="43.02942667" lon="-1.22758">
        <ele>948.0</ele>
        <time>2019-08-01T07:51:23.030Z</time>
      </trkpt>
      <trkpt lat="43.02941" lon="-1.227585">
        <ele>948.0</ele>
        <time>2019-08-01T07:51:24.036Z</time>
      </trkpt>
      <trkpt lat="43.02939667" lon="-1.22759167">
        <ele>947.0</ele>
        <time>2019-08-01T07:51:25.037Z</time>
      </trkpt>
      <trkpt lat="43.02938667" lon="-1.2276">
        <ele>947.0</ele>
        <time>2019-08-01T07:51:26.040Z</time>
      </trkpt>
      <trkpt lat="43.029375" lon="-1.22760667">
        <ele>947.0</ele>
        <time>2019-08-01T07:51:27.042Z</time>
      </trkpt>
      <trkpt lat="43.029375" lon="-1.22760667">
        <ele>947.0</ele>
        <time>2019-08-01T07:51:27.921Z</time>
      </trkpt>
      <trkpt lat="43.02936333" lon="-1.22761167">
        <ele>947.0</ele>
        <time>2019-08-01T07:51:28.926Z</time>
      </trkpt>
      <trkpt lat="43.02935" lon="-1.22762">
        <ele>947.0</ele>
        <time>2019-08-01T07:51:29.930Z</time>
      </trkpt>
      <trkpt lat="43.02933667" lon="-1.227625">
        <ele>947.0</ele>
        <time>2019-08-01T07:51:30.937Z</time>
      </trkpt>
      <trkpt lat="43.02932667" lon="-1.22763">
        <ele>947.0</ele>
        <time>2019-08-01T07:51:31.943Z</time>
      </trkpt>
      <trkpt lat="43.02931333" lon="-1.22763667">
        <ele>947.0</ele>
        <time>2019-08-01T07:51:32.949Z</time>
      </trkpt>
      <trkpt lat="43.0293" lon="-1.22764667">
        <ele>947.0</ele>
        <time>2019-08-01T07:51:33.955Z</time>
      </trkpt>
      <trkpt lat="43.029295" lon="-1.22766">
        <ele>947.0</ele>
        <time>2019-08-01T07:51:34.961Z</time>
      </trkpt>
      <trkpt lat="43.029285" lon="-1.22767667">
        <ele>947.0</ele>
        <time>2019-08-01T07:51:35.967Z</time>
      </trkpt>
      <trkpt lat="43.029275" lon="-1.22768833">
        <ele>947.0</ele>
        <time>2019-08-01T07:51:36.972Z</time>
      </trkpt>
      <trkpt lat="43.02926167" lon="-1.22769667">
        <ele>947.0</ele>
        <time>2019-08-01T07:51:37.978Z</time>
      </trkpt>
      <trkpt lat="43.02924833" lon="-1.22770667">
        <ele>947.0</ele>
        <time>2019-08-01T07:51:38.980Z</time>
      </trkpt>
      <trkpt lat="43.02923333" lon="-1.227715">
        <ele>947.0</ele>
        <time>2019-08-01T07:51:39.982Z</time>
      </trkpt>
      <trkpt lat="43.029225" lon="-1.22771833">
        <ele>947.0</ele>
        <time>2019-08-01T07:51:40.988Z</time>
      </trkpt>
      <trkpt lat="43.02920833" lon="-1.22772333">
        <ele>947.0</ele>
        <time>2019-08-01T07:51:41.993Z</time>
      </trkpt>
      <trkpt lat="43.02919333" lon="-1.22772833">
        <ele>947.0</ele>
        <time>2019-08-01T07:51:42.999Z</time>
      </trkpt>
      <trkpt lat="43.02916667" lon="-1.22773333">
        <ele>947.0</ele>
        <time>2019-08-01T07:51:44.006Z</time>
      </trkpt>
      <trkpt lat="43.02915167" lon="-1.22773667">
        <ele>947.0</ele>
        <time>2019-08-01T07:51:45.012Z</time>
      </trkpt>
      <trkpt lat="43.02915167" lon="-1.22773667">
        <ele>947.0</ele>
        <time>2019-08-01T07:51:46.017Z</time>
      </trkpt>
      <trkpt lat="43.02914" lon="-1.227745">
        <ele>947.0</ele>
        <time>2019-08-01T07:51:47.023Z</time>
      </trkpt>
      <trkpt lat="43.02913" lon="-1.22776167">
        <ele>946.0</ele>
        <time>2019-08-01T07:51:48.030Z</time>
      </trkpt>
      <trkpt lat="43.02911" lon="-1.22777833">
        <ele>945.0</ele>
        <time>2019-08-01T07:51:49.036Z</time>
      </trkpt>
      <trkpt lat="43.02909667" lon="-1.22778333">
        <ele>945.0</ele>
        <time>2019-08-01T07:51:50.041Z</time>
      </trkpt>
      <trkpt lat="43.02909667" lon="-1.22778333">
        <ele>945.0</ele>
        <time>2019-08-01T07:51:50.922Z</time>
      </trkpt>
      <trkpt lat="43.02908167" lon="-1.22778833">
        <ele>945.0</ele>
        <time>2019-08-01T07:51:51.928Z</time>
      </trkpt>
      <trkpt lat="43.02907167" lon="-1.22779167">
        <ele>945.0</ele>
        <time>2019-08-01T07:51:52.932Z</time>
      </trkpt>
      <trkpt lat="43.02905833" lon="-1.22779667">
        <ele>945.0</ele>
        <time>2019-08-01T07:51:53.935Z</time>
      </trkpt>
      <trkpt lat="43.029045" lon="-1.22780167">
        <ele>944.0</ele>
        <time>2019-08-01T07:51:54.942Z</time>
      </trkpt>
      <trkpt lat="43.02903333" lon="-1.22781">
        <ele>944.0</ele>
        <time>2019-08-01T07:51:55.948Z</time>
      </trkpt>
      <trkpt lat="43.02902167" lon="-1.22781333">
        <ele>944.0</ele>
        <time>2019-08-01T07:51:56.954Z</time>
      </trkpt>
      <trkpt lat="43.02901" lon="-1.22781667">
        <ele>943.0</ele>
        <time>2019-08-01T07:51:57.960Z</time>
      </trkpt>
      <trkpt lat="43.02900167" lon="-1.22782167">
        <ele>942.0</ele>
        <time>2019-08-01T07:51:58.966Z</time>
      </trkpt>
      <trkpt lat="43.02898833" lon="-1.22782833">
        <ele>941.0</ele>
        <time>2019-08-01T07:51:59.971Z</time>
      </trkpt>
      <trkpt lat="43.028975" lon="-1.22783333">
        <ele>939.0</ele>
        <time>2019-08-01T07:52:00.977Z</time>
      </trkpt>
      <trkpt lat="43.02895833" lon="-1.22784333">
        <ele>938.0</ele>
        <time>2019-08-01T07:52:01.983Z</time>
      </trkpt>
      <trkpt lat="43.028945" lon="-1.22785167">
        <ele>937.0</ele>
        <time>2019-08-01T07:52:02.988Z</time>
      </trkpt>
      <trkpt lat="43.028935" lon="-1.22785667">
        <ele>937.0</ele>
        <time>2019-08-01T07:52:03.992Z</time>
      </trkpt>
      <trkpt lat="43.02890833" lon="-1.22786833">
        <ele>936.0</ele>
        <time>2019-08-01T07:52:04.998Z</time>
      </trkpt>
      <trkpt lat="43.02889833" lon="-1.22787333">
        <ele>935.0</ele>
        <time>2019-08-01T07:52:06.004Z</time>
      </trkpt>
      <trkpt lat="43.028885" lon="-1.22787833">
        <ele>935.0</ele>
        <time>2019-08-01T07:52:07.010Z</time>
      </trkpt>
      <trkpt lat="43.028875" lon="-1.22788167">
        <ele>935.0</ele>
        <time>2019-08-01T07:52:08.017Z</time>
      </trkpt>
      <trkpt lat="43.02886" lon="-1.22788833">
        <ele>935.0</ele>
        <time>2019-08-01T07:52:09.024Z</time>
      </trkpt>
      <trkpt lat="43.02884833" lon="-1.227895">
        <ele>936.0</ele>
        <time>2019-08-01T07:52:10.029Z</time>
      </trkpt>
      <trkpt lat="43.02884" lon="-1.22790167">
        <ele>936.0</ele>
        <time>2019-08-01T07:52:11.034Z</time>
      </trkpt>
      <trkpt lat="43.02883333" lon="-1.22790667">
        <ele>937.0</ele>
        <time>2019-08-01T07:52:12.041Z</time>
      </trkpt>
      <trkpt lat="43.02883333" lon="-1.22790667">
        <ele>937.0</ele>
        <time>2019-08-01T07:52:12.922Z</time>
      </trkpt>
      <trkpt lat="43.02882" lon="-1.22791">
        <ele>937.0</ele>
        <time>2019-08-01T07:52:13.928Z</time>
      </trkpt>
      <trkpt lat="43.02880833" lon="-1.22791167">
        <ele>937.0</ele>
        <time>2019-08-01T07:52:14.934Z</time>
      </trkpt>
      <trkpt lat="43.02879833" lon="-1.22791167">
        <ele>937.0</ele>
        <time>2019-08-01T07:52:15.942Z</time>
      </trkpt>
      <trkpt lat="43.02878833" lon="-1.22791">
        <ele>937.0</ele>
        <time>2019-08-01T07:52:16.949Z</time>
      </trkpt>
      <trkpt lat="43.028775" lon="-1.22790833">
        <ele>937.0</ele>
        <time>2019-08-01T07:52:17.954Z</time>
      </trkpt>
      <trkpt lat="43.02876333" lon="-1.22790833">
        <ele>938.0</ele>
        <time>2019-08-01T07:52:18.959Z</time>
      </trkpt>
      <trkpt lat="43.02875" lon="-1.22790833">
        <ele>938.0</ele>
        <time>2019-08-01T07:52:19.965Z</time>
      </trkpt>
      <trkpt lat="43.02873833" lon="-1.227905">
        <ele>938.0</ele>
        <time>2019-08-01T07:52:20.970Z</time>
      </trkpt>
      <trkpt lat="43.028725" lon="-1.22790333">
        <ele>938.0</ele>
        <time>2019-08-01T07:52:21.975Z</time>
      </trkpt>
      <trkpt lat="43.02871167" lon="-1.22790167">
        <ele>938.0</ele>
        <time>2019-08-01T07:52:22.982Z</time>
      </trkpt>
      <trkpt lat="43.02870167" lon="-1.2279">
        <ele>938.0</ele>
        <time>2019-08-01T07:52:23.987Z</time>
      </trkpt>
      <trkpt lat="43.02869167" lon="-1.22789667">
        <ele>938.0</ele>
        <time>2019-08-01T07:52:24.993Z</time>
      </trkpt>
      <trkpt lat="43.02867167" lon="-1.22789167">
        <ele>938.0</ele>
        <time>2019-08-01T07:52:25.998Z</time>
      </trkpt>
      <trkpt lat="43.02865833" lon="-1.22789">
        <ele>938.0</ele>
        <time>2019-08-01T07:52:27.005Z</time>
      </trkpt>
      <trkpt lat="43.02864667" lon="-1.22789">
        <ele>939.0</ele>
        <time>2019-08-01T07:52:28.010Z</time>
      </trkpt>
      <trkpt lat="43.02863167" lon="-1.22788667">
        <ele>939.0</ele>
        <time>2019-08-01T07:52:29.016Z</time>
      </trkpt>
      <trkpt lat="43.02862167" lon="-1.22788167">
        <ele>939.0</ele>
        <time>2019-08-01T07:52:30.021Z</time>
      </trkpt>
      <trkpt lat="43.02860833" lon="-1.22787167">
        <ele>939.0</ele>
        <time>2019-08-01T07:52:31.026Z</time>
      </trkpt>
      <trkpt lat="43.028595" lon="-1.22786333">
        <ele>939.0</ele>
        <time>2019-08-01T07:52:32.032Z</time>
      </trkpt>
      <trkpt lat="43.02857667" lon="-1.22786">
        <ele>938.0</ele>
        <time>2019-08-01T07:52:33.037Z</time>
      </trkpt>
      <trkpt lat="43.02857667" lon="-1.22786">
        <ele>938.0</ele>
        <time>2019-08-01T07:52:33.919Z</time>
      </trkpt>
      <trkpt lat="43.028565" lon="-1.22784833">
        <ele>938.0</ele>
        <time>2019-08-01T07:52:34.926Z</time>
      </trkpt>
      <trkpt lat="43.02854833" lon="-1.22784167">
        <ele>937.0</ele>
        <time>2019-08-01T07:52:35.930Z</time>
      </trkpt>
      <trkpt lat="43.02853333" lon="-1.22784167">
        <ele>937.0</ele>
        <time>2019-08-01T07:52:36.936Z</time>
      </trkpt>
      <trkpt lat="43.02852" lon="-1.22784167">
        <ele>938.0</ele>
        <time>2019-08-01T07:52:37.942Z</time>
      </trkpt>
      <trkpt lat="43.02850833" lon="-1.227845">
        <ele>938.0</ele>
        <time>2019-08-01T07:52:38.949Z</time>
      </trkpt>
      <trkpt lat="43.028495" lon="-1.227845">
        <ele>937.0</ele>
        <time>2019-08-01T07:52:39.954Z</time>
      </trkpt>
      <trkpt lat="43.02848167" lon="-1.22784833">
        <ele>936.0</ele>
        <time>2019-08-01T07:52:40.959Z</time>
      </trkpt>
      <trkpt lat="43.02846667" lon="-1.22785333">
        <ele>936.0</ele>
        <time>2019-08-01T07:52:41.966Z</time>
      </trkpt>
      <trkpt lat="43.02845333" lon="-1.22786">
        <ele>936.0</ele>
        <time>2019-08-01T07:52:42.971Z</time>
      </trkpt>
      <trkpt lat="43.028435" lon="-1.22786667">
        <ele>936.0</ele>
        <time>2019-08-01T07:52:43.979Z</time>
      </trkpt>
      <trkpt lat="43.028425" lon="-1.22787167">
        <ele>937.0</ele>
        <time>2019-08-01T07:52:44.986Z</time>
      </trkpt>
      <trkpt lat="43.02841" lon="-1.22788167">
        <ele>937.0</ele>
        <time>2019-08-01T07:52:45.991Z</time>
      </trkpt>
      <trkpt lat="43.02839667" lon="-1.22789">
        <ele>937.0</ele>
        <time>2019-08-01T07:52:46.998Z</time>
      </trkpt>
      <trkpt lat="43.02836667" lon="-1.22789833">
        <ele>938.0</ele>
        <time>2019-08-01T07:52:48.003Z</time>
      </trkpt>
      <trkpt lat="43.028355" lon="-1.22789667">
        <ele>938.0</ele>
        <time>2019-08-01T07:52:49.008Z</time>
      </trkpt>
      <trkpt lat="43.02834667" lon="-1.2279">
        <ele>938.0</ele>
        <time>2019-08-01T07:52:50.013Z</time>
      </trkpt>
      <trkpt lat="43.02833333" lon="-1.2279">
        <ele>938.0</ele>
        <time>2019-08-01T07:52:51.019Z</time>
      </trkpt>
      <trkpt lat="43.02831833" lon="-1.22789667">
        <ele>938.0</ele>
        <time>2019-08-01T07:52:52.026Z</time>
      </trkpt>
      <trkpt lat="43.02830667" lon="-1.22789167">
        <ele>938.0</ele>
        <time>2019-08-01T07:52:53.031Z</time>
      </trkpt>
      <trkpt lat="43.02829" lon="-1.22789167">
        <ele>938.0</ele>
        <time>2019-08-01T07:52:54.034Z</time>
      </trkpt>
      <trkpt lat="43.02827667" lon="-1.227905">
        <ele>938.0</ele>
        <time>2019-08-01T07:52:55.038Z</time>
      </trkpt>
      <trkpt lat="43.02827667" lon="-1.227905">
        <ele>938.0</ele>
        <time>2019-08-01T07:52:55.919Z</time>
      </trkpt>
      <trkpt lat="43.02826667" lon="-1.22791">
        <ele>938.0</ele>
        <time>2019-08-01T07:52:56.925Z</time>
      </trkpt>
      <trkpt lat="43.02825" lon="-1.227915">
        <ele>937.0</ele>
        <time>2019-08-01T07:52:57.929Z</time>
      </trkpt>
      <trkpt lat="43.02823667" lon="-1.22792">
        <ele>937.0</ele>
        <time>2019-08-01T07:52:58.933Z</time>
      </trkpt>
      <trkpt lat="43.02822333" lon="-1.22792833">
        <ele>937.0</ele>
        <time>2019-08-01T07:52:59.941Z</time>
      </trkpt>
      <trkpt lat="43.02821333" lon="-1.22793667">
        <ele>936.0</ele>
        <time>2019-08-01T07:53:00.947Z</time>
      </trkpt>
      <trkpt lat="43.02820167" lon="-1.22794333">
        <ele>936.0</ele>
        <time>2019-08-01T07:53:01.955Z</time>
      </trkpt>
      <trkpt lat="43.02819167" lon="-1.22795167">
        <ele>936.0</ele>
        <time>2019-08-01T07:53:02.962Z</time>
      </trkpt>
      <trkpt lat="43.02818" lon="-1.22795833">
        <ele>936.0</ele>
        <time>2019-08-01T07:53:03.967Z</time>
      </trkpt>
      <trkpt lat="43.02816833" lon="-1.22796833">
        <ele>936.0</ele>
        <time>2019-08-01T07:53:04.973Z</time>
      </trkpt>
      <trkpt lat="43.02815333" lon="-1.227975">
        <ele>936.0</ele>
        <time>2019-08-01T07:53:05.979Z</time>
      </trkpt>
      <trkpt lat="43.02814333" lon="-1.22797833">
        <ele>936.0</ele>
        <time>2019-08-01T07:53:06.985Z</time>
      </trkpt>
      <trkpt lat="43.02813167" lon="-1.22798667">
        <ele>935.0</ele>
        <time>2019-08-01T07:53:07.992Z</time>
      </trkpt>
      <trkpt lat="43.02811833" lon="-1.227995">
        <ele>935.0</ele>
        <time>2019-08-01T07:53:08.997Z</time>
      </trkpt>
      <trkpt lat="43.02809333" lon="-1.22801167">
        <ele>935.0</ele>
        <time>2019-08-01T07:53:10.002Z</time>
      </trkpt>
      <trkpt lat="43.02808167" lon="-1.22801833">
        <ele>935.0</ele>
        <time>2019-08-01T07:53:11.009Z</time>
      </trkpt>
      <trkpt lat="43.02807167" lon="-1.22803">
        <ele>934.0</ele>
        <time>2019-08-01T07:53:12.015Z</time>
      </trkpt>
      <trkpt lat="43.02806" lon="-1.22804">
        <ele>933.0</ele>
        <time>2019-08-01T07:53:13.020Z</time>
      </trkpt>
      <trkpt lat="43.02805" lon="-1.22804833">
        <ele>933.0</ele>
        <time>2019-08-01T07:53:14.026Z</time>
      </trkpt>
      <trkpt lat="43.02803833" lon="-1.228055">
        <ele>932.0</ele>
        <time>2019-08-01T07:53:15.030Z</time>
      </trkpt>
      <trkpt lat="43.02803" lon="-1.22806167">
        <ele>932.0</ele>
        <time>2019-08-01T07:53:16.035Z</time>
      </trkpt>
      <trkpt lat="43.02801833" lon="-1.22807333">
        <ele>932.0</ele>
        <time>2019-08-01T07:53:17.040Z</time>
      </trkpt>
      <trkpt lat="43.02801833" lon="-1.22807333">
        <ele>932.0</ele>
        <time>2019-08-01T07:53:17.922Z</time>
      </trkpt>
      <trkpt lat="43.02801" lon="-1.22808333">
        <ele>932.0</ele>
        <time>2019-08-01T07:53:18.928Z</time>
      </trkpt>
      <trkpt lat="43.028" lon="-1.22809667">
        <ele>931.0</ele>
        <time>2019-08-01T07:53:19.932Z</time>
      </trkpt>
      <trkpt lat="43.02798833" lon="-1.22810667">
        <ele>930.0</ele>
        <time>2019-08-01T07:53:20.940Z</time>
      </trkpt>
      <trkpt lat="43.027975" lon="-1.22812167">
        <ele>930.0</ele>
        <time>2019-08-01T07:53:21.945Z</time>
      </trkpt>
      <trkpt lat="43.02796333" lon="-1.22813167">
        <ele>929.0</ele>
        <time>2019-08-01T07:53:22.950Z</time>
      </trkpt>
      <trkpt lat="43.02795167" lon="-1.22813833">
        <ele>929.0</ele>
        <time>2019-08-01T07:53:23.954Z</time>
      </trkpt>
      <trkpt lat="43.02794167" lon="-1.22814">
        <ele>929.0</ele>
        <time>2019-08-01T07:53:24.960Z</time>
      </trkpt>
      <trkpt lat="43.02793" lon="-1.22814667">
        <ele>929.0</ele>
        <time>2019-08-01T07:53:25.967Z</time>
      </trkpt>
      <trkpt lat="43.02791333" lon="-1.22815833">
        <ele>928.0</ele>
        <time>2019-08-01T07:53:26.972Z</time>
      </trkpt>
      <trkpt lat="43.02790167" lon="-1.22816833">
        <ele>928.0</ele>
        <time>2019-08-01T07:53:27.980Z</time>
      </trkpt>
      <trkpt lat="43.02789" lon="-1.22817333">
        <ele>928.0</ele>
        <time>2019-08-01T07:53:28.985Z</time>
      </trkpt>
      <trkpt lat="43.02788" lon="-1.228185">
        <ele>928.0</ele>
        <time>2019-08-01T07:53:29.991Z</time>
      </trkpt>
      <trkpt lat="43.027855" lon="-1.228205">
        <ele>929.0</ele>
        <time>2019-08-01T07:53:30.998Z</time>
      </trkpt>
      <trkpt lat="43.02784" lon="-1.228215">
        <ele>929.0</ele>
        <time>2019-08-01T07:53:32.004Z</time>
      </trkpt>
      <trkpt lat="43.02782833" lon="-1.22822333">
        <ele>930.0</ele>
        <time>2019-08-01T07:53:33.010Z</time>
      </trkpt>
      <trkpt lat="43.02781833" lon="-1.22823">
        <ele>929.0</ele>
        <time>2019-08-01T07:53:34.016Z</time>
      </trkpt>
      <trkpt lat="43.02780333" lon="-1.22823833">
        <ele>930.0</ele>
        <time>2019-08-01T07:53:35.021Z</time>
      </trkpt>
      <trkpt lat="43.02779333" lon="-1.22825333">
        <ele>930.0</ele>
        <time>2019-08-01T07:53:36.025Z</time>
      </trkpt>
      <trkpt lat="43.02778167" lon="-1.22826333">
        <ele>930.0</ele>
        <time>2019-08-01T07:53:37.031Z</time>
      </trkpt>
      <trkpt lat="43.02777167" lon="-1.22827167">
        <ele>930.0</ele>
        <time>2019-08-01T07:53:38.037Z</time>
      </trkpt>
      <trkpt lat="43.02777167" lon="-1.22827167">
        <ele>930.0</ele>
        <time>2019-08-01T07:53:38.918Z</time>
      </trkpt>
      <trkpt lat="43.02775833" lon="-1.22827667">
        <ele>930.0</ele>
        <time>2019-08-01T07:53:39.924Z</time>
      </trkpt>
      <trkpt lat="43.02774667" lon="-1.22828333">
        <ele>931.0</ele>
        <time>2019-08-01T07:53:40.931Z</time>
      </trkpt>
      <trkpt lat="43.02773333" lon="-1.22829333">
        <ele>931.0</ele>
        <time>2019-08-01T07:53:41.937Z</time>
      </trkpt>
      <trkpt lat="43.02772167" lon="-1.228305">
        <ele>931.0</ele>
        <time>2019-08-01T07:53:42.943Z</time>
      </trkpt>
      <trkpt lat="43.02771333" lon="-1.22831667">
        <ele>931.0</ele>
        <time>2019-08-01T07:53:43.945Z</time>
      </trkpt>
      <trkpt lat="43.02770333" lon="-1.22833167">
        <ele>931.0</ele>
        <time>2019-08-01T07:53:44.951Z</time>
      </trkpt>
      <trkpt lat="43.02769667" lon="-1.228345">
        <ele>930.0</ele>
        <time>2019-08-01T07:53:45.956Z</time>
      </trkpt>
      <trkpt lat="43.02768667" lon="-1.22836">
        <ele>930.0</ele>
        <time>2019-08-01T07:53:46.961Z</time>
      </trkpt>
      <trkpt lat="43.02767833" lon="-1.22837167">
        <ele>929.0</ele>
        <time>2019-08-01T07:53:47.969Z</time>
      </trkpt>
      <trkpt lat="43.02767" lon="-1.22838333">
        <ele>929.0</ele>
        <time>2019-08-01T07:53:48.971Z</time>
      </trkpt>
      <trkpt lat="43.02766" lon="-1.22839333">
        <ele>930.0</ele>
        <time>2019-08-01T07:53:49.975Z</time>
      </trkpt>
      <trkpt lat="43.02765" lon="-1.22840333">
        <ele>930.0</ele>
        <time>2019-08-01T07:53:50.982Z</time>
      </trkpt>
      <trkpt lat="43.02764333" lon="-1.22841833">
        <ele>930.0</ele>
        <time>2019-08-01T07:53:51.988Z</time>
      </trkpt>
      <trkpt lat="43.02763167" lon="-1.22843167">
        <ele>929.0</ele>
        <time>2019-08-01T07:53:52.995Z</time>
      </trkpt>
      <trkpt lat="43.02762333" lon="-1.22844333">
        <ele>929.0</ele>
        <time>2019-08-01T07:53:54.000Z</time>
      </trkpt>
      <trkpt lat="43.02760333" lon="-1.22847833">
        <ele>927.0</ele>
        <time>2019-08-01T07:53:55.004Z</time>
      </trkpt>
      <trkpt lat="43.02759667" lon="-1.2285">
        <ele>927.0</ele>
        <time>2019-08-01T07:53:56.007Z</time>
      </trkpt>
      <trkpt lat="43.02759167" lon="-1.22852">
        <ele>926.0</ele>
        <time>2019-08-01T07:53:57.013Z</time>
      </trkpt>
      <trkpt lat="43.027585" lon="-1.22854167">
        <ele>926.0</ele>
        <time>2019-08-01T07:53:58.018Z</time>
      </trkpt>
      <trkpt lat="43.02757667" lon="-1.22856167">
        <ele>926.0</ele>
        <time>2019-08-01T07:53:59.022Z</time>
      </trkpt>
      <trkpt lat="43.02757" lon="-1.22858">
        <ele>926.0</ele>
        <time>2019-08-01T07:54:00.024Z</time>
      </trkpt>
      <trkpt lat="43.02756167" lon="-1.228595">
        <ele>926.0</ele>
        <time>2019-08-01T07:54:01.030Z</time>
      </trkpt>
      <trkpt lat="43.02755167" lon="-1.22861333">
        <ele>924.0</ele>
        <time>2019-08-01T07:54:02.036Z</time>
      </trkpt>
      <trkpt lat="43.02754167" lon="-1.22862667">
        <ele>924.0</ele>
        <time>2019-08-01T07:54:03.042Z</time>
      </trkpt>
      <trkpt lat="43.02754167" lon="-1.22862667">
        <ele>924.0</ele>
        <time>2019-08-01T07:54:03.923Z</time>
      </trkpt>
      <trkpt lat="43.02753333" lon="-1.22864">
        <ele>923.0</ele>
        <time>2019-08-01T07:54:04.930Z</time>
      </trkpt>
      <trkpt lat="43.02752667" lon="-1.228655">
        <ele>923.0</ele>
        <time>2019-08-01T07:54:05.937Z</time>
      </trkpt>
      <trkpt lat="43.02752" lon="-1.22867333">
        <ele>923.0</ele>
        <time>2019-08-01T07:54:06.944Z</time>
      </trkpt>
      <trkpt lat="43.02751167" lon="-1.22868667">
        <ele>923.0</ele>
        <time>2019-08-01T07:54:07.950Z</time>
      </trkpt>
      <trkpt lat="43.02750167" lon="-1.22870333">
        <ele>922.0</ele>
        <time>2019-08-01T07:54:08.955Z</time>
      </trkpt>
      <trkpt lat="43.02749" lon="-1.22872667">
        <ele>922.0</ele>
        <time>2019-08-01T07:54:09.963Z</time>
      </trkpt>
      <trkpt lat="43.02748167" lon="-1.22874167">
        <ele>922.0</ele>
        <time>2019-08-01T07:54:10.969Z</time>
      </trkpt>
      <trkpt lat="43.02747167" lon="-1.22875667">
        <ele>922.0</ele>
        <time>2019-08-01T07:54:11.974Z</time>
      </trkpt>
      <trkpt lat="43.02746333" lon="-1.22876667">
        <ele>922.0</ele>
        <time>2019-08-01T07:54:12.979Z</time>
      </trkpt>
      <trkpt lat="43.02745" lon="-1.22877833">
        <ele>923.0</ele>
        <time>2019-08-01T07:54:13.985Z</time>
      </trkpt>
      <trkpt lat="43.02744" lon="-1.228785">
        <ele>923.0</ele>
        <time>2019-08-01T07:54:14.990Z</time>
      </trkpt>
      <trkpt lat="43.02742833" lon="-1.228795">
        <ele>923.0</ele>
        <time>2019-08-01T07:54:15.996Z</time>
      </trkpt>
      <trkpt lat="43.02741" lon="-1.22881833">
        <ele>924.0</ele>
        <time>2019-08-01T07:54:17.001Z</time>
      </trkpt>
      <trkpt lat="43.02739667" lon="-1.22883167">
        <ele>925.0</ele>
        <time>2019-08-01T07:54:18.006Z</time>
      </trkpt>
      <trkpt lat="43.027385" lon="-1.22884667">
        <ele>926.0</ele>
        <time>2019-08-01T07:54:19.011Z</time>
      </trkpt>
      <trkpt lat="43.02737167" lon="-1.22886167">
        <ele>927.0</ele>
        <time>2019-08-01T07:54:20.015Z</time>
      </trkpt>
      <trkpt lat="43.02735667" lon="-1.22886667">
        <ele>927.0</ele>
        <time>2019-08-01T07:54:21.020Z</time>
      </trkpt>
      <trkpt lat="43.02734333" lon="-1.228875">
        <ele>926.0</ele>
        <time>2019-08-01T07:54:22.027Z</time>
      </trkpt>
      <trkpt lat="43.02733333" lon="-1.228885">
        <ele>926.0</ele>
        <time>2019-08-01T07:54:23.033Z</time>
      </trkpt>
      <trkpt lat="43.02732667" lon="-1.228895">
        <ele>926.0</ele>
        <time>2019-08-01T07:54:24.041Z</time>
      </trkpt>
      <trkpt lat="43.02732667" lon="-1.228895">
        <ele>926.0</ele>
        <time>2019-08-01T07:54:24.922Z</time>
      </trkpt>
      <trkpt lat="43.02731833" lon="-1.228905">
        <ele>926.0</ele>
        <time>2019-08-01T07:54:25.928Z</time>
      </trkpt>
      <trkpt lat="43.02730667" lon="-1.22891833">
        <ele>926.0</ele>
        <time>2019-08-01T07:54:26.936Z</time>
      </trkpt>
      <trkpt lat="43.027295" lon="-1.22893">
        <ele>925.0</ele>
        <time>2019-08-01T07:54:27.943Z</time>
      </trkpt>
      <trkpt lat="43.02728667" lon="-1.22894">
        <ele>925.0</ele>
        <time>2019-08-01T07:54:28.949Z</time>
      </trkpt>
      <trkpt lat="43.02727167" lon="-1.22895333">
        <ele>925.0</ele>
        <time>2019-08-01T07:54:29.954Z</time>
      </trkpt>
      <trkpt lat="43.02726" lon="-1.22896833">
        <ele>924.0</ele>
        <time>2019-08-01T07:54:30.960Z</time>
      </trkpt>
      <trkpt lat="43.02724833" lon="-1.22897833">
        <ele>923.0</ele>
        <time>2019-08-01T07:54:31.964Z</time>
      </trkpt>
      <trkpt lat="43.02723667" lon="-1.22898667">
        <ele>923.0</ele>
        <time>2019-08-01T07:54:32.969Z</time>
      </trkpt>
      <trkpt lat="43.02722333" lon="-1.22899333">
        <ele>923.0</ele>
        <time>2019-08-01T07:54:33.974Z</time>
      </trkpt>
      <trkpt lat="43.02720833" lon="-1.229005">
        <ele>922.0</ele>
        <time>2019-08-01T07:54:34.980Z</time>
      </trkpt>
      <trkpt lat="43.02719667" lon="-1.22901667">
        <ele>921.0</ele>
        <time>2019-08-01T07:54:35.984Z</time>
      </trkpt>
      <trkpt lat="43.02718167" lon="-1.229025">
        <ele>919.0</ele>
        <time>2019-08-01T07:54:36.992Z</time>
      </trkpt>
      <trkpt lat="43.02716833" lon="-1.22903667">
        <ele>918.0</ele>
        <time>2019-08-01T07:54:37.999Z</time>
      </trkpt>
      <trkpt lat="43.02713833" lon="-1.229055">
        <ele>916.0</ele>
        <time>2019-08-01T07:54:39.003Z</time>
      </trkpt>
      <trkpt lat="43.027125" lon="-1.22906333">
        <ele>916.0</ele>
        <time>2019-08-01T07:54:40.009Z</time>
      </trkpt>
      <trkpt lat="43.02711" lon="-1.22907167">
        <ele>915.0</ele>
        <time>2019-08-01T07:54:41.014Z</time>
      </trkpt>
      <trkpt lat="43.02709667" lon="-1.22908167">
        <ele>915.0</ele>
        <time>2019-08-01T07:54:42.019Z</time>
      </trkpt>
      <trkpt lat="43.02708167" lon="-1.22909167">
        <ele>915.0</ele>
        <time>2019-08-01T07:54:43.026Z</time>
      </trkpt>
      <trkpt lat="43.02707" lon="-1.22910333">
        <ele>914.0</ele>
        <time>2019-08-01T07:54:44.027Z</time>
      </trkpt>
      <trkpt lat="43.02705833" lon="-1.229115">
        <ele>914.0</ele>
        <time>2019-08-01T07:54:45.033Z</time>
      </trkpt>
      <trkpt lat="43.02704667" lon="-1.22912667">
        <ele>914.0</ele>
        <time>2019-08-01T07:54:46.039Z</time>
      </trkpt>
      <trkpt lat="43.02704667" lon="-1.22912667">
        <ele>914.0</ele>
        <time>2019-08-01T07:54:46.920Z</time>
      </trkpt>
      <trkpt lat="43.02703333" lon="-1.22914">
        <ele>914.0</ele>
        <time>2019-08-01T07:54:47.928Z</time>
      </trkpt>
      <trkpt lat="43.02702167" lon="-1.22915167">
        <ele>913.0</ele>
        <time>2019-08-01T07:54:48.936Z</time>
      </trkpt>
      <trkpt lat="43.02701" lon="-1.22916667">
        <ele>913.0</ele>
        <time>2019-08-01T07:54:49.942Z</time>
      </trkpt>
      <trkpt lat="43.027" lon="-1.22917833">
        <ele>913.0</ele>
        <time>2019-08-01T07:54:50.947Z</time>
      </trkpt>
      <trkpt lat="43.02698833" lon="-1.22919">
        <ele>913.0</ele>
        <time>2019-08-01T07:54:51.953Z</time>
      </trkpt>
      <trkpt lat="43.02697833" lon="-1.22919833">
        <ele>914.0</ele>
        <time>2019-08-01T07:54:52.958Z</time>
      </trkpt>
      <trkpt lat="43.02696667" lon="-1.22920833">
        <ele>914.0</ele>
        <time>2019-08-01T07:54:53.963Z</time>
      </trkpt>
      <trkpt lat="43.02695667" lon="-1.22921833">
        <ele>914.0</ele>
        <time>2019-08-01T07:54:54.969Z</time>
      </trkpt>
      <trkpt lat="43.02694667" lon="-1.22922667">
        <ele>914.0</ele>
        <time>2019-08-01T07:54:55.974Z</time>
      </trkpt>
      <trkpt lat="43.026935" lon="-1.22923667">
        <ele>914.0</ele>
        <time>2019-08-01T07:54:56.980Z</time>
      </trkpt>
      <trkpt lat="43.02692333" lon="-1.22924667">
        <ele>914.0</ele>
        <time>2019-08-01T07:54:57.987Z</time>
      </trkpt>
      <trkpt lat="43.02691" lon="-1.22926">
        <ele>914.0</ele>
        <time>2019-08-01T07:54:58.993Z</time>
      </trkpt>
      <trkpt lat="43.026895" lon="-1.22927">
        <ele>914.0</ele>
        <time>2019-08-01T07:55:00.000Z</time>
      </trkpt>
      <trkpt lat="43.02687667" lon="-1.22929">
        <ele>914.0</ele>
        <time>2019-08-01T07:55:01.005Z</time>
      </trkpt>
      <trkpt lat="43.02687667" lon="-1.22929">
        <ele>914.0</ele>
        <time>2019-08-01T07:55:02.011Z</time>
      </trkpt>
      <trkpt lat="43.02685167" lon="-1.22931833">
        <ele>914.0</ele>
        <time>2019-08-01T07:55:03.014Z</time>
      </trkpt>
      <trkpt lat="43.02684167" lon="-1.22933333">
        <ele>914.0</ele>
        <time>2019-08-01T07:55:04.020Z</time>
      </trkpt>
      <trkpt lat="43.02682667" lon="-1.22934833">
        <ele>913.0</ele>
        <time>2019-08-01T07:55:05.026Z</time>
      </trkpt>
      <trkpt lat="43.026815" lon="-1.22935833">
        <ele>913.0</ele>
        <time>2019-08-01T07:55:06.032Z</time>
      </trkpt>
      <trkpt lat="43.02680333" lon="-1.22936667">
        <ele>913.0</ele>
        <time>2019-08-01T07:55:07.036Z</time>
      </trkpt>
      <trkpt lat="43.02680333" lon="-1.22936667">
        <ele>913.0</ele>
        <time>2019-08-01T07:55:07.918Z</time>
      </trkpt>
      <trkpt lat="43.02679" lon="-1.22938">
        <ele>914.0</ele>
        <time>2019-08-01T07:55:08.923Z</time>
      </trkpt>
      <trkpt lat="43.02677833" lon="-1.22938833">
        <ele>914.0</ele>
        <time>2019-08-01T07:55:09.931Z</time>
      </trkpt>
      <trkpt lat="43.02676667" lon="-1.22940167">
        <ele>914.0</ele>
        <time>2019-08-01T07:55:10.937Z</time>
      </trkpt>
      <trkpt lat="43.02675667" lon="-1.229415">
        <ele>915.0</ele>
        <time>2019-08-01T07:55:11.942Z</time>
      </trkpt>
      <trkpt lat="43.026745" lon="-1.22942833">
        <ele>915.0</ele>
        <time>2019-08-01T07:55:12.947Z</time>
      </trkpt>
      <trkpt lat="43.02673333" lon="-1.22943833">
        <ele>916.0</ele>
        <time>2019-08-01T07:55:13.953Z</time>
      </trkpt>
      <trkpt lat="43.02672" lon="-1.22944667">
        <ele>916.0</ele>
        <time>2019-08-01T07:55:14.957Z</time>
      </trkpt>
      <trkpt lat="43.02670833" lon="-1.22945667">
        <ele>917.0</ele>
        <time>2019-08-01T07:55:15.964Z</time>
      </trkpt>
      <trkpt lat="43.02669667" lon="-1.229465">
        <ele>918.0</ele>
        <time>2019-08-01T07:55:16.969Z</time>
      </trkpt>
      <trkpt lat="43.02668333" lon="-1.22947333">
        <ele>918.0</ele>
        <time>2019-08-01T07:55:17.975Z</time>
      </trkpt>
      <trkpt lat="43.02667" lon="-1.22948333">
        <ele>918.0</ele>
        <time>2019-08-01T07:55:18.981Z</time>
      </trkpt>
      <trkpt lat="43.02665667" lon="-1.22949333">
        <ele>918.0</ele>
        <time>2019-08-01T07:55:19.987Z</time>
      </trkpt>
      <trkpt lat="43.02664167" lon="-1.229505">
        <ele>918.0</ele>
        <time>2019-08-01T07:55:20.994Z</time>
      </trkpt>
      <trkpt lat="43.02662667" lon="-1.22951333">
        <ele>918.0</ele>
        <time>2019-08-01T07:55:21.998Z</time>
      </trkpt>
      <trkpt lat="43.0266" lon="-1.22951667">
        <ele>919.0</ele>
        <time>2019-08-01T07:55:23.005Z</time>
      </trkpt>
      <trkpt lat="43.026585" lon="-1.22951833">
        <ele>919.0</ele>
        <time>2019-08-01T07:55:24.011Z</time>
      </trkpt>
      <trkpt lat="43.026585" lon="-1.22951833">
        <ele>919.0</ele>
        <time>2019-08-01T07:55:25.015Z</time>
      </trkpt>
      <trkpt lat="43.02655333" lon="-1.22951667">
        <ele>920.0</ele>
        <time>2019-08-01T07:55:26.020Z</time>
      </trkpt>
      <trkpt lat="43.02653833" lon="-1.22951333">
        <ele>921.0</ele>
        <time>2019-08-01T07:55:27.024Z</time>
      </trkpt>
      <trkpt lat="43.02652" lon="-1.22951167">
        <ele>922.0</ele>
        <time>2019-08-01T07:55:28.029Z</time>
      </trkpt>
      <trkpt lat="43.02650333" lon="-1.22950667">
        <ele>922.0</ele>
        <time>2019-08-01T07:55:29.032Z</time>
      </trkpt>
      <trkpt lat="43.02648833" lon="-1.22950167">
        <ele>923.0</ele>
        <time>2019-08-01T07:55:30.039Z</time>
      </trkpt>
      <trkpt lat="43.02648833" lon="-1.22950167">
        <ele>923.0</ele>
        <time>2019-08-01T07:55:30.919Z</time>
      </trkpt>
      <trkpt lat="43.02647" lon="-1.22949167">
        <ele>923.0</ele>
        <time>2019-08-01T07:55:31.926Z</time>
      </trkpt>
      <trkpt lat="43.02645667" lon="-1.22948333">
        <ele>924.0</ele>
        <time>2019-08-01T07:55:32.932Z</time>
      </trkpt>
      <trkpt lat="43.02644333" lon="-1.22947667">
        <ele>924.0</ele>
        <time>2019-08-01T07:55:33.937Z</time>
      </trkpt>
      <trkpt lat="43.02643167" lon="-1.22946667">
        <ele>925.0</ele>
        <time>2019-08-01T07:55:34.945Z</time>
      </trkpt>
      <trkpt lat="43.026425" lon="-1.22946167">
        <ele>926.0</ele>
        <time>2019-08-01T07:55:35.952Z</time>
      </trkpt>
      <trkpt lat="43.02641667" lon="-1.229455">
        <ele>927.0</ele>
        <time>2019-08-01T07:55:36.957Z</time>
      </trkpt>
      <trkpt lat="43.02641" lon="-1.22945">
        <ele>927.0</ele>
        <time>2019-08-01T07:55:37.962Z</time>
      </trkpt>
      <trkpt lat="43.02640667" lon="-1.229445">
        <ele>927.0</ele>
        <time>2019-08-01T07:55:38.966Z</time>
      </trkpt>
      <trkpt lat="43.02640167" lon="-1.229435">
        <ele>926.0</ele>
        <time>2019-08-01T07:55:39.972Z</time>
      </trkpt>
      <trkpt lat="43.02639333" lon="-1.22942333">
        <ele>924.0</ele>
        <time>2019-08-01T07:55:40.979Z</time>
      </trkpt>
      <trkpt lat="43.02638" lon="-1.22940833">
        <ele>922.0</ele>
        <time>2019-08-01T07:55:41.983Z</time>
      </trkpt>
      <trkpt lat="43.02637167" lon="-1.22939833">
        <ele>921.0</ele>
        <time>2019-08-01T07:55:42.988Z</time>
      </trkpt>
      <trkpt lat="43.02636167" lon="-1.22938667">
        <ele>920.0</ele>
        <time>2019-08-01T07:55:43.991Z</time>
      </trkpt>
      <trkpt lat="43.02636" lon="-1.22937833">
        <ele>918.0</ele>
        <time>2019-08-01T07:55:44.994Z</time>
      </trkpt>
      <trkpt lat="43.02635667" lon="-1.22936667">
        <ele>916.0</ele>
        <time>2019-08-01T07:55:46.001Z</time>
      </trkpt>
      <trkpt lat="43.02634333" lon="-1.22935167">
        <ele>912.0</ele>
        <time>2019-08-01T07:55:47.007Z</time>
      </trkpt>
      <trkpt lat="43.026335" lon="-1.22934167">
        <ele>910.0</ele>
        <time>2019-08-01T07:55:48.013Z</time>
      </trkpt>
      <trkpt lat="43.02633" lon="-1.22932">
        <ele>908.0</ele>
        <time>2019-08-01T07:55:49.018Z</time>
      </trkpt>
      <trkpt lat="43.02632333" lon="-1.22931">
        <ele>906.0</ele>
        <time>2019-08-01T07:55:50.025Z</time>
      </trkpt>
      <trkpt lat="43.02632" lon="-1.2293">
        <ele>904.0</ele>
        <time>2019-08-01T07:55:51.032Z</time>
      </trkpt>
      <trkpt lat="43.02631167" lon="-1.22927833">
        <ele>902.0</ele>
        <time>2019-08-01T07:55:52.037Z</time>
      </trkpt>
      <trkpt lat="43.02631167" lon="-1.22927833">
        <ele>902.0</ele>
        <time>2019-08-01T07:55:52.918Z</time>
      </trkpt>
      <trkpt lat="43.02630667" lon="-1.22926833">
        <ele>901.0</ele>
        <time>2019-08-01T07:55:53.925Z</time>
      </trkpt>
      <trkpt lat="43.02630167" lon="-1.22925333">
        <ele>900.0</ele>
        <time>2019-08-01T07:55:54.930Z</time>
      </trkpt>
      <trkpt lat="43.02629667" lon="-1.22923833">
        <ele>897.0</ele>
        <time>2019-08-01T07:55:55.937Z</time>
      </trkpt>
      <trkpt lat="43.02629333" lon="-1.22922">
        <ele>895.0</ele>
        <time>2019-08-01T07:55:56.945Z</time>
      </trkpt>
      <trkpt lat="43.02629" lon="-1.22920333">
        <ele>895.0</ele>
        <time>2019-08-01T07:55:57.951Z</time>
      </trkpt>
      <trkpt lat="43.02628167" lon="-1.22918833">
        <ele>894.0</ele>
        <time>2019-08-01T07:55:58.954Z</time>
      </trkpt>
      <trkpt lat="43.026275" lon="-1.22917">
        <ele>893.0</ele>
        <time>2019-08-01T07:55:59.957Z</time>
      </trkpt>
      <trkpt lat="43.02626833" lon="-1.22915667">
        <ele>893.0</ele>
        <time>2019-08-01T07:56:00.964Z</time>
      </trkpt>
      <trkpt lat="43.02626333" lon="-1.22914167">
        <ele>892.0</ele>
        <time>2019-08-01T07:56:01.969Z</time>
      </trkpt>
      <trkpt lat="43.026255" lon="-1.229125">
        <ele>892.0</ele>
        <time>2019-08-01T07:56:02.973Z</time>
      </trkpt>
      <trkpt lat="43.02624833" lon="-1.22911167">
        <ele>892.0</ele>
        <time>2019-08-01T07:56:03.980Z</time>
      </trkpt>
      <trkpt lat="43.02624" lon="-1.22909833">
        <ele>892.0</ele>
        <time>2019-08-01T07:56:04.986Z</time>
      </trkpt>
      <trkpt lat="43.02623333" lon="-1.22908333">
        <ele>892.0</ele>
        <time>2019-08-01T07:56:05.992Z</time>
      </trkpt>
      <trkpt lat="43.026225" lon="-1.22906667">
        <ele>892.0</ele>
        <time>2019-08-01T07:56:06.999Z</time>
      </trkpt>
      <trkpt lat="43.02620333" lon="-1.22904333">
        <ele>892.0</ele>
        <time>2019-08-01T07:56:08.005Z</time>
      </trkpt>
      <trkpt lat="43.02619167" lon="-1.22903167">
        <ele>892.0</ele>
        <time>2019-08-01T07:56:09.009Z</time>
      </trkpt>
      <trkpt lat="43.02618" lon="-1.22902333">
        <ele>892.0</ele>
        <time>2019-08-01T07:56:10.011Z</time>
      </trkpt>
      <trkpt lat="43.02616833" lon="-1.22901">
        <ele>892.0</ele>
        <time>2019-08-01T07:56:11.016Z</time>
      </trkpt>
      <trkpt lat="43.02616167" lon="-1.22900167">
        <ele>892.0</ele>
        <time>2019-08-01T07:56:12.022Z</time>
      </trkpt>
      <trkpt lat="43.02615333" lon="-1.22899167">
        <ele>892.0</ele>
        <time>2019-08-01T07:56:13.028Z</time>
      </trkpt>
      <trkpt lat="43.02614333" lon="-1.22898333">
        <ele>892.0</ele>
        <time>2019-08-01T07:56:14.032Z</time>
      </trkpt>
      <trkpt lat="43.02613333" lon="-1.228975">
        <ele>892.0</ele>
        <time>2019-08-01T07:56:15.040Z</time>
      </trkpt>
      <trkpt lat="43.02613333" lon="-1.228975">
        <ele>892.0</ele>
        <time>2019-08-01T07:56:15.920Z</time>
      </trkpt>
      <trkpt lat="43.02612333" lon="-1.22896833">
        <ele>892.0</ele>
        <time>2019-08-01T07:56:16.922Z</time>
      </trkpt>
      <trkpt lat="43.02611333" lon="-1.22896167">
        <ele>893.0</ele>
        <time>2019-08-01T07:56:17.926Z</time>
      </trkpt>
      <trkpt lat="43.02610333" lon="-1.22895167">
        <ele>893.0</ele>
        <time>2019-08-01T07:56:18.930Z</time>
      </trkpt>
      <trkpt lat="43.02609" lon="-1.22894167">
        <ele>893.0</ele>
        <time>2019-08-01T07:56:19.934Z</time>
      </trkpt>
      <trkpt lat="43.02607833" lon="-1.22893333">
        <ele>894.0</ele>
        <time>2019-08-01T07:56:20.940Z</time>
      </trkpt>
      <trkpt lat="43.02606667" lon="-1.228925">
        <ele>894.0</ele>
        <time>2019-08-01T07:56:21.943Z</time>
      </trkpt>
      <trkpt lat="43.026055" lon="-1.22891833">
        <ele>894.0</ele>
        <time>2019-08-01T07:56:22.948Z</time>
      </trkpt>
      <trkpt lat="43.02604667" lon="-1.228915">
        <ele>895.0</ele>
        <time>2019-08-01T07:56:23.953Z</time>
      </trkpt>
      <trkpt lat="43.026035" lon="-1.228915">
        <ele>896.0</ele>
        <time>2019-08-01T07:56:24.958Z</time>
      </trkpt>
      <trkpt lat="43.02602167" lon="-1.228915">
        <ele>897.0</ele>
        <time>2019-08-01T07:56:25.963Z</time>
      </trkpt>
      <trkpt lat="43.02601" lon="-1.228915">
        <ele>897.0</ele>
        <time>2019-08-01T07:56:26.969Z</time>
      </trkpt>
      <trkpt lat="43.02599667" lon="-1.228915">
        <ele>897.0</ele>
        <time>2019-08-01T07:56:27.974Z</time>
      </trkpt>
      <trkpt lat="43.02598" lon="-1.22891167">
        <ele>897.0</ele>
        <time>2019-08-01T07:56:28.980Z</time>
      </trkpt>
      <trkpt lat="43.02596" lon="-1.22891167">
        <ele>898.0</ele>
        <time>2019-08-01T07:56:29.987Z</time>
      </trkpt>
      <trkpt lat="43.025945" lon="-1.22891167">
        <ele>899.0</ele>
        <time>2019-08-01T07:56:30.993Z</time>
      </trkpt>
      <trkpt lat="43.02592833" lon="-1.22890833">
        <ele>899.0</ele>
        <time>2019-08-01T07:56:31.998Z</time>
      </trkpt>
      <trkpt lat="43.02589333" lon="-1.228905">
        <ele>899.0</ele>
        <time>2019-08-01T07:56:33.005Z</time>
      </trkpt>
      <trkpt lat="43.02587333" lon="-1.22890167">
        <ele>899.0</ele>
        <time>2019-08-01T07:56:34.007Z</time>
      </trkpt>
      <trkpt lat="43.02585667" lon="-1.22889833">
        <ele>899.0</ele>
        <time>2019-08-01T07:56:35.008Z</time>
      </trkpt>
      <trkpt lat="43.02584" lon="-1.22889333">
        <ele>899.0</ele>
        <time>2019-08-01T07:56:36.011Z</time>
      </trkpt>
      <trkpt lat="43.02582167" lon="-1.22888833">
        <ele>899.0</ele>
        <time>2019-08-01T07:56:37.015Z</time>
      </trkpt>
      <trkpt lat="43.025805" lon="-1.22888167">
        <ele>899.0</ele>
        <time>2019-08-01T07:56:38.020Z</time>
      </trkpt>
      <trkpt lat="43.02578333" lon="-1.22887">
        <ele>900.0</ele>
        <time>2019-08-01T07:56:39.027Z</time>
      </trkpt>
      <trkpt lat="43.02576167" lon="-1.22886833">
        <ele>901.0</ele>
        <time>2019-08-01T07:56:40.033Z</time>
      </trkpt>
      <trkpt lat="43.02574167" lon="-1.228865">
        <ele>902.0</ele>
        <time>2019-08-01T07:56:41.039Z</time>
      </trkpt>
      <trkpt lat="43.02574167" lon="-1.228865">
        <ele>902.0</ele>
        <time>2019-08-01T07:56:41.919Z</time>
      </trkpt>
      <trkpt lat="43.025725" lon="-1.22886167">
        <ele>902.0</ele>
        <time>2019-08-01T07:56:42.922Z</time>
      </trkpt>
      <trkpt lat="43.02571" lon="-1.228855">
        <ele>902.0</ele>
        <time>2019-08-01T07:56:43.928Z</time>
      </trkpt>
      <trkpt lat="43.025695" lon="-1.22884333">
        <ele>902.0</ele>
        <time>2019-08-01T07:56:44.935Z</time>
      </trkpt>
      <trkpt lat="43.02567833" lon="-1.22883833">
        <ele>901.0</ele>
        <time>2019-08-01T07:56:45.942Z</time>
      </trkpt>
      <trkpt lat="43.02566167" lon="-1.22883667">
        <ele>902.0</ele>
        <time>2019-08-01T07:56:46.948Z</time>
      </trkpt>
      <trkpt lat="43.02563667" lon="-1.22883333">
        <ele>902.0</ele>
        <time>2019-08-01T07:56:47.955Z</time>
      </trkpt>
      <trkpt lat="43.02562" lon="-1.22882833">
        <ele>903.0</ele>
        <time>2019-08-01T07:56:48.962Z</time>
      </trkpt>
      <trkpt lat="43.02560167" lon="-1.228825">
        <ele>904.0</ele>
        <time>2019-08-01T07:56:49.968Z</time>
      </trkpt>
      <trkpt lat="43.025585" lon="-1.22883">
        <ele>904.0</ele>
        <time>2019-08-01T07:56:50.972Z</time>
      </trkpt>
      <trkpt lat="43.02556667" lon="-1.22883167">
        <ele>904.0</ele>
        <time>2019-08-01T07:56:51.979Z</time>
      </trkpt>
      <trkpt lat="43.02555" lon="-1.22883333">
        <ele>905.0</ele>
        <time>2019-08-01T07:56:52.984Z</time>
      </trkpt>
      <trkpt lat="43.02553333" lon="-1.22884167">
        <ele>905.0</ele>
        <time>2019-08-01T07:56:53.989Z</time>
      </trkpt>
      <trkpt lat="43.025525" lon="-1.22885">
        <ele>905.0</ele>
        <time>2019-08-01T07:56:54.992Z</time>
      </trkpt>
      <trkpt lat="43.02551" lon="-1.22886">
        <ele>905.0</ele>
        <time>2019-08-01T07:56:55.999Z</time>
      </trkpt>
      <trkpt lat="43.02548" lon="-1.22887">
        <ele>905.0</ele>
        <time>2019-08-01T07:56:57.005Z</time>
      </trkpt>
      <trkpt lat="43.02546333" lon="-1.22887667">
        <ele>905.0</ele>
        <time>2019-08-01T07:56:58.011Z</time>
      </trkpt>
      <trkpt lat="43.02544333" lon="-1.228875">
        <ele>905.0</ele>
        <time>2019-08-01T07:56:59.015Z</time>
      </trkpt>
      <trkpt lat="43.02542333" lon="-1.22886833">
        <ele>906.0</ele>
        <time>2019-08-01T07:57:00.022Z</time>
      </trkpt>
      <trkpt lat="43.02541" lon="-1.22887167">
        <ele>907.0</ele>
        <time>2019-08-01T07:57:01.027Z</time>
      </trkpt>
      <trkpt lat="43.02539667" lon="-1.22888">
        <ele>908.0</ele>
        <time>2019-08-01T07:57:02.032Z</time>
      </trkpt>
      <trkpt lat="43.02538" lon="-1.228885">
        <ele>909.0</ele>
        <time>2019-08-01T07:57:03.037Z</time>
      </trkpt>
      <trkpt lat="43.02536167" lon="-1.22888333">
        <ele>909.0</ele>
        <time>2019-08-01T07:57:04.042Z</time>
      </trkpt>
      <trkpt lat="43.02536167" lon="-1.22888333">
        <ele>909.0</ele>
        <time>2019-08-01T07:57:04.920Z</time>
      </trkpt>
      <trkpt lat="43.02534167" lon="-1.22887833">
        <ele>909.0</ele>
        <time>2019-08-01T07:57:05.924Z</time>
      </trkpt>
      <trkpt lat="43.02532333" lon="-1.22887">
        <ele>909.0</ele>
        <time>2019-08-01T07:57:06.930Z</time>
      </trkpt>
      <trkpt lat="43.02530667" lon="-1.22886">
        <ele>909.0</ele>
        <time>2019-08-01T07:57:07.936Z</time>
      </trkpt>
      <trkpt lat="43.025285" lon="-1.22885167">
        <ele>909.0</ele>
        <time>2019-08-01T07:57:08.941Z</time>
      </trkpt>
      <trkpt lat="43.02526333" lon="-1.22884333">
        <ele>909.0</ele>
        <time>2019-08-01T07:57:09.946Z</time>
      </trkpt>
      <trkpt lat="43.02524167" lon="-1.22884">
        <ele>908.0</ele>
        <time>2019-08-01T07:57:10.953Z</time>
      </trkpt>
      <trkpt lat="43.02522" lon="-1.228835">
        <ele>907.0</ele>
        <time>2019-08-01T07:57:11.959Z</time>
      </trkpt>
      <trkpt lat="43.025205" lon="-1.22883167">
        <ele>907.0</ele>
        <time>2019-08-01T07:57:12.965Z</time>
      </trkpt>
      <trkpt lat="43.02518833" lon="-1.22882667">
        <ele>906.0</ele>
        <time>2019-08-01T07:57:13.971Z</time>
      </trkpt>
      <trkpt lat="43.02516833" lon="-1.228825">
        <ele>907.0</ele>
        <time>2019-08-01T07:57:14.978Z</time>
      </trkpt>
      <trkpt lat="43.02515" lon="-1.22882333">
        <ele>907.0</ele>
        <time>2019-08-01T07:57:15.985Z</time>
      </trkpt>
      <trkpt lat="43.02513333" lon="-1.22882167">
        <ele>908.0</ele>
        <time>2019-08-01T07:57:16.991Z</time>
      </trkpt>
      <trkpt lat="43.02511833" lon="-1.22881833">
        <ele>908.0</ele>
        <time>2019-08-01T07:57:17.997Z</time>
      </trkpt>
      <trkpt lat="43.02509833" lon="-1.22881833">
        <ele>907.0</ele>
        <time>2019-08-01T07:57:19.002Z</time>
      </trkpt>
      <trkpt lat="43.02506333" lon="-1.22883333">
        <ele>907.0</ele>
        <time>2019-08-01T07:57:20.008Z</time>
      </trkpt>
      <trkpt lat="43.025045" lon="-1.22884333">
        <ele>907.0</ele>
        <time>2019-08-01T07:57:21.013Z</time>
      </trkpt>
      <trkpt lat="43.02503333" lon="-1.228855">
        <ele>908.0</ele>
        <time>2019-08-01T07:57:22.018Z</time>
      </trkpt>
      <trkpt lat="43.02502167" lon="-1.22886333">
        <ele>909.0</ele>
        <time>2019-08-01T07:57:23.024Z</time>
      </trkpt>
      <trkpt lat="43.025005" lon="-1.22887167">
        <ele>909.0</ele>
        <time>2019-08-01T07:57:24.032Z</time>
      </trkpt>
      <trkpt lat="43.02499167" lon="-1.22887667">
        <ele>910.0</ele>
        <time>2019-08-01T07:57:25.037Z</time>
      </trkpt>
      <trkpt lat="43.024975" lon="-1.22888">
        <ele>910.0</ele>
        <time>2019-08-01T07:57:26.043Z</time>
      </trkpt>
      <trkpt lat="43.024975" lon="-1.22888">
        <ele>910.0</ele>
        <time>2019-08-01T07:57:26.921Z</time>
      </trkpt>
      <trkpt lat="43.02495833" lon="-1.22888167">
        <ele>910.0</ele>
        <time>2019-08-01T07:57:27.928Z</time>
      </trkpt>
      <trkpt lat="43.024945" lon="-1.22888833">
        <ele>910.0</ele>
        <time>2019-08-01T07:57:28.930Z</time>
      </trkpt>
      <trkpt lat="43.02493" lon="-1.22889833">
        <ele>910.0</ele>
        <time>2019-08-01T07:57:29.936Z</time>
      </trkpt>
      <trkpt lat="43.02491667" lon="-1.22891167">
        <ele>910.0</ele>
        <time>2019-08-01T07:57:30.943Z</time>
      </trkpt>
      <trkpt lat="43.024905" lon="-1.228925">
        <ele>910.0</ele>
        <time>2019-08-01T07:57:31.950Z</time>
      </trkpt>
      <trkpt lat="43.02489167" lon="-1.22894">
        <ele>910.0</ele>
        <time>2019-08-01T07:57:32.956Z</time>
      </trkpt>
      <trkpt lat="43.02487667" lon="-1.22895167">
        <ele>910.0</ele>
        <time>2019-08-01T07:57:33.959Z</time>
      </trkpt>
      <trkpt lat="43.02486333" lon="-1.228965">
        <ele>910.0</ele>
        <time>2019-08-01T07:57:34.964Z</time>
      </trkpt>
      <trkpt lat="43.02485167" lon="-1.22897833">
        <ele>909.0</ele>
        <time>2019-08-01T07:57:35.970Z</time>
      </trkpt>
      <trkpt lat="43.02484167" lon="-1.22899333">
        <ele>908.0</ele>
        <time>2019-08-01T07:57:36.974Z</time>
      </trkpt>
      <trkpt lat="43.02482667" lon="-1.22901667">
        <ele>907.0</ele>
        <time>2019-08-01T07:57:37.978Z</time>
      </trkpt>
      <trkpt lat="43.02481667" lon="-1.22903667">
        <ele>906.0</ele>
        <time>2019-08-01T07:57:38.986Z</time>
      </trkpt>
      <trkpt lat="43.02480667" lon="-1.22905667">
        <ele>905.0</ele>
        <time>2019-08-01T07:57:39.991Z</time>
      </trkpt>
      <trkpt lat="43.024795" lon="-1.22907167">
        <ele>904.0</ele>
        <time>2019-08-01T07:57:40.998Z</time>
      </trkpt>
      <trkpt lat="43.02476833" lon="-1.22909833">
        <ele>903.0</ele>
        <time>2019-08-01T07:57:42.004Z</time>
      </trkpt>
      <trkpt lat="43.02475333" lon="-1.229115">
        <ele>902.0</ele>
        <time>2019-08-01T07:57:43.010Z</time>
      </trkpt>
      <trkpt lat="43.02474167" lon="-1.22913333">
        <ele>900.0</ele>
        <time>2019-08-01T07:57:44.016Z</time>
      </trkpt>
      <trkpt lat="43.02472833" lon="-1.22914833">
        <ele>900.0</ele>
        <time>2019-08-01T07:57:45.020Z</time>
      </trkpt>
      <trkpt lat="43.024715" lon="-1.22916333">
        <ele>899.0</ele>
        <time>2019-08-01T07:57:46.029Z</time>
      </trkpt>
      <trkpt lat="43.02470333" lon="-1.22917833">
        <ele>899.0</ele>
        <time>2019-08-01T07:57:47.035Z</time>
      </trkpt>
      <trkpt lat="43.024695" lon="-1.229195">
        <ele>898.0</ele>
        <time>2019-08-01T07:57:48.040Z</time>
      </trkpt>
      <trkpt lat="43.024695" lon="-1.229195">
        <ele>898.0</ele>
        <time>2019-08-01T07:57:48.918Z</time>
      </trkpt>
      <trkpt lat="43.024685" lon="-1.22921167">
        <ele>898.0</ele>
        <time>2019-08-01T07:57:49.921Z</time>
      </trkpt>
      <trkpt lat="43.024675" lon="-1.22922667">
        <ele>897.0</ele>
        <time>2019-08-01T07:57:50.928Z</time>
      </trkpt>
      <trkpt lat="43.02466333" lon="-1.22924167">
        <ele>895.0</ele>
        <time>2019-08-01T07:57:51.933Z</time>
      </trkpt>
      <trkpt lat="43.02465333" lon="-1.22925833">
        <ele>894.0</ele>
        <time>2019-08-01T07:57:52.939Z</time>
      </trkpt>
      <trkpt lat="43.024645" lon="-1.22928333">
        <ele>893.0</ele>
        <time>2019-08-01T07:57:53.943Z</time>
      </trkpt>
      <trkpt lat="43.02463333" lon="-1.22931167">
        <ele>892.0</ele>
        <time>2019-08-01T07:57:54.947Z</time>
      </trkpt>
      <trkpt lat="43.02462167" lon="-1.22933833">
        <ele>891.0</ele>
        <time>2019-08-01T07:57:55.953Z</time>
      </trkpt>
      <trkpt lat="43.02461167" lon="-1.22935833">
        <ele>890.0</ele>
        <time>2019-08-01T07:57:56.960Z</time>
      </trkpt>
      <trkpt lat="43.02460333" lon="-1.22938167">
        <ele>889.0</ele>
        <time>2019-08-01T07:57:57.966Z</time>
      </trkpt>
      <trkpt lat="43.02459667" lon="-1.229405">
        <ele>888.0</ele>
        <time>2019-08-01T07:57:58.969Z</time>
      </trkpt>
      <trkpt lat="43.02457833" lon="-1.22942333">
        <ele>887.0</ele>
        <time>2019-08-01T07:57:59.975Z</time>
      </trkpt>
      <trkpt lat="43.02456" lon="-1.22942833">
        <ele>886.0</ele>
        <time>2019-08-01T07:58:00.980Z</time>
      </trkpt>
      <trkpt lat="43.02454167" lon="-1.22943833">
        <ele>885.0</ele>
        <time>2019-08-01T07:58:01.986Z</time>
      </trkpt>
      <trkpt lat="43.02452" lon="-1.22945167">
        <ele>885.0</ele>
        <time>2019-08-01T07:58:02.993Z</time>
      </trkpt>
      <trkpt lat="43.02450833" lon="-1.22945667">
        <ele>884.0</ele>
        <time>2019-08-01T07:58:03.999Z</time>
      </trkpt>
      <trkpt lat="43.02448833" lon="-1.22949667">
        <ele>883.0</ele>
        <time>2019-08-01T07:58:05.004Z</time>
      </trkpt>
      <trkpt lat="43.02447333" lon="-1.22952333">
        <ele>881.0</ele>
        <time>2019-08-01T07:58:06.010Z</time>
      </trkpt>
      <trkpt lat="43.02445833" lon="-1.22955">
        <ele>880.0</ele>
        <time>2019-08-01T07:58:07.012Z</time>
      </trkpt>
      <trkpt lat="43.02444667" lon="-1.22957333">
        <ele>879.0</ele>
        <time>2019-08-01T07:58:08.019Z</time>
      </trkpt>
      <trkpt lat="43.02443" lon="-1.2296">
        <ele>878.0</ele>
        <time>2019-08-01T07:58:09.024Z</time>
      </trkpt>
      <trkpt lat="43.02441667" lon="-1.22960667">
        <ele>878.0</ele>
        <time>2019-08-01T07:58:10.032Z</time>
      </trkpt>
      <trkpt lat="43.02440333" lon="-1.22962167">
        <ele>879.0</ele>
        <time>2019-08-01T07:58:11.038Z</time>
      </trkpt>
      <trkpt lat="43.02440333" lon="-1.22962167">
        <ele>879.0</ele>
        <time>2019-08-01T07:58:11.920Z</time>
      </trkpt>
      <trkpt lat="43.02439167" lon="-1.22963333">
        <ele>879.0</ele>
        <time>2019-08-01T07:58:12.927Z</time>
      </trkpt>
      <trkpt lat="43.02438" lon="-1.22964333">
        <ele>880.0</ele>
        <time>2019-08-01T07:58:13.934Z</time>
      </trkpt>
      <trkpt lat="43.02437" lon="-1.22966167">
        <ele>880.0</ele>
        <time>2019-08-01T07:58:14.940Z</time>
      </trkpt>
      <trkpt lat="43.02436" lon="-1.229685">
        <ele>881.0</ele>
        <time>2019-08-01T07:58:15.946Z</time>
      </trkpt>
      <trkpt lat="43.02435167" lon="-1.22970833">
        <ele>880.0</ele>
        <time>2019-08-01T07:58:16.953Z</time>
      </trkpt>
      <trkpt lat="43.02434167" lon="-1.22972167">
        <ele>880.0</ele>
        <time>2019-08-01T07:58:17.959Z</time>
      </trkpt>
      <trkpt lat="43.02433333" lon="-1.22973333">
        <ele>880.0</ele>
        <time>2019-08-01T07:58:18.966Z</time>
      </trkpt>
      <trkpt lat="43.02432667" lon="-1.22974667">
        <ele>880.0</ele>
        <time>2019-08-01T07:58:19.971Z</time>
      </trkpt>
      <trkpt lat="43.02431833" lon="-1.22976333">
        <ele>880.0</ele>
        <time>2019-08-01T07:58:20.978Z</time>
      </trkpt>
      <trkpt lat="43.02431" lon="-1.22977833">
        <ele>880.0</ele>
        <time>2019-08-01T07:58:21.984Z</time>
      </trkpt>
      <trkpt lat="43.02430167" lon="-1.22979167">
        <ele>880.0</ele>
        <time>2019-08-01T07:58:22.990Z</time>
      </trkpt>
      <trkpt lat="43.024295" lon="-1.22980833">
        <ele>880.0</ele>
        <time>2019-08-01T07:58:23.998Z</time>
      </trkpt>
      <trkpt lat="43.024285" lon="-1.229845">
        <ele>880.0</ele>
        <time>2019-08-01T07:58:25.004Z</time>
      </trkpt>
      <trkpt lat="43.02427833" lon="-1.22986333">
        <ele>881.0</ele>
        <time>2019-08-01T07:58:26.010Z</time>
      </trkpt>
      <trkpt lat="43.02426833" lon="-1.22987833">
        <ele>881.0</ele>
        <time>2019-08-01T07:58:27.016Z</time>
      </trkpt>
      <trkpt lat="43.02425833" lon="-1.22989667">
        <ele>882.0</ele>
        <time>2019-08-01T07:58:28.024Z</time>
      </trkpt>
      <trkpt lat="43.024255" lon="-1.22992">
        <ele>882.0</ele>
        <time>2019-08-01T07:58:29.029Z</time>
      </trkpt>
      <trkpt lat="43.024245" lon="-1.22994">
        <ele>883.0</ele>
        <time>2019-08-01T07:58:30.035Z</time>
      </trkpt>
      <trkpt lat="43.02423667" lon="-1.22995">
        <ele>883.0</ele>
        <time>2019-08-01T07:58:31.040Z</time>
      </trkpt>
      <trkpt lat="43.02423667" lon="-1.22995">
        <ele>883.0</ele>
        <time>2019-08-01T07:58:31.921Z</time>
      </trkpt>
      <trkpt lat="43.02423667" lon="-1.22995833">
        <ele>884.0</ele>
        <time>2019-08-01T07:58:32.928Z</time>
      </trkpt>
      <trkpt lat="43.02424167" lon="-1.22996667">
        <ele>884.0</ele>
        <time>2019-08-01T07:58:33.931Z</time>
      </trkpt>
      <trkpt lat="43.02425167" lon="-1.22997">
        <ele>884.0</ele>
        <time>2019-08-01T07:58:34.939Z</time>
      </trkpt>
      <trkpt lat="43.02426167" lon="-1.22997">
        <ele>884.0</ele>
        <time>2019-08-01T07:58:35.945Z</time>
      </trkpt>
      <trkpt lat="43.02427333" lon="-1.229965">
        <ele>884.0</ele>
        <time>2019-08-01T07:58:36.951Z</time>
      </trkpt>
      <trkpt lat="43.024285" lon="-1.229955">
        <ele>883.0</ele>
        <time>2019-08-01T07:58:37.959Z</time>
      </trkpt>
      <trkpt lat="43.02429167" lon="-1.22994833">
        <ele>883.0</ele>
        <time>2019-08-01T07:58:38.964Z</time>
      </trkpt>
      <trkpt lat="43.024295" lon="-1.22994333">
        <ele>882.0</ele>
        <time>2019-08-01T07:58:39.970Z</time>
      </trkpt>
      <trkpt lat="43.024305" lon="-1.22994167">
        <ele>883.0</ele>
        <time>2019-08-01T07:58:40.975Z</time>
      </trkpt>
      <trkpt lat="43.02431167" lon="-1.22994">
        <ele>882.0</ele>
        <time>2019-08-01T07:58:41.981Z</time>
      </trkpt>
      <trkpt lat="43.02431333" lon="-1.22993667">
        <ele>882.0</ele>
        <time>2019-08-01T07:58:42.985Z</time>
      </trkpt>
      <trkpt lat="43.02431167" lon="-1.22993667">
        <ele>882.0</ele>
        <time>2019-08-01T07:58:43.989Z</time>
      </trkpt>
      <trkpt lat="43.02430167" lon="-1.22993833">
        <ele>883.0</ele>
        <time>2019-08-01T07:58:44.994Z</time>
      </trkpt>
      <trkpt lat="43.02429167" lon="-1.229945">
        <ele>883.0</ele>
        <time>2019-08-01T07:58:46.000Z</time>
      </trkpt>
      <trkpt lat="43.024275" lon="-1.22996667">
        <ele>885.0</ele>
        <time>2019-08-01T07:58:47.006Z</time>
      </trkpt>
      <trkpt lat="43.02427167" lon="-1.22997167">
        <ele>886.0</ele>
        <time>2019-08-01T07:58:48.011Z</time>
      </trkpt>
      <trkpt lat="43.02426667" lon="-1.229985">
        <ele>886.0</ele>
        <time>2019-08-01T07:58:49.014Z</time>
      </trkpt>
      <trkpt lat="43.02425833" lon="-1.22999167">
        <ele>887.0</ele>
        <time>2019-08-01T07:58:50.021Z</time>
      </trkpt>
      <trkpt lat="43.02425" lon="-1.23000667">
        <ele>887.0</ele>
        <time>2019-08-01T07:58:51.027Z</time>
      </trkpt>
      <trkpt lat="43.02424833" lon="-1.23000667">
        <ele>888.0</ele>
        <time>2019-08-01T07:58:52.030Z</time>
      </trkpt>
      <trkpt lat="43.02425" lon="-1.23001333">
        <ele>887.0</ele>
        <time>2019-08-01T07:58:53.036Z</time>
      </trkpt>
      <trkpt lat="43.02425" lon="-1.23002167">
        <ele>886.0</ele>
        <time>2019-08-01T07:58:54.042Z</time>
      </trkpt>
      <trkpt lat="43.02425" lon="-1.23002167">
        <ele>886.0</ele>
        <time>2019-08-01T07:58:54.921Z</time>
      </trkpt>
      <trkpt lat="43.02424667" lon="-1.23004167">
        <ele>885.0</ele>
        <time>2019-08-01T07:58:55.928Z</time>
      </trkpt>
      <trkpt lat="43.024245" lon="-1.23005833">
        <ele>884.0</ele>
        <time>2019-08-01T07:58:56.934Z</time>
      </trkpt>
      <trkpt lat="43.02425333" lon="-1.23007333">
        <ele>885.0</ele>
        <time>2019-08-01T07:58:57.940Z</time>
      </trkpt>
      <trkpt lat="43.02425333" lon="-1.23008167">
        <ele>884.0</ele>
        <time>2019-08-01T07:58:58.944Z</time>
      </trkpt>
      <trkpt lat="43.02425333" lon="-1.23009167">
        <ele>884.0</ele>
        <time>2019-08-01T07:58:59.950Z</time>
      </trkpt>
      <trkpt lat="43.02425167" lon="-1.23009667">
        <ele>884.0</ele>
        <time>2019-08-01T07:59:00.956Z</time>
      </trkpt>
      <trkpt lat="43.02425167" lon="-1.2301">
        <ele>884.0</ele>
        <time>2019-08-01T07:59:01.962Z</time>
      </trkpt>
      <trkpt lat="43.02424833" lon="-1.23010667">
        <ele>883.0</ele>
        <time>2019-08-01T07:59:02.967Z</time>
      </trkpt>
      <trkpt lat="43.02424667" lon="-1.23012">
        <ele>883.0</ele>
        <time>2019-08-01T07:59:03.973Z</time>
      </trkpt>
      <trkpt lat="43.024245" lon="-1.230135">
        <ele>882.0</ele>
        <time>2019-08-01T07:59:04.981Z</time>
      </trkpt>
      <trkpt lat="43.02424333" lon="-1.23015333">
        <ele>880.0</ele>
        <time>2019-08-01T07:59:05.987Z</time>
      </trkpt>
      <trkpt lat="43.02424167" lon="-1.23016667">
        <ele>880.0</ele>
        <time>2019-08-01T07:59:06.993Z</time>
      </trkpt>
      <trkpt lat="43.02423833" lon="-1.23018167">
        <ele>879.0</ele>
        <time>2019-08-01T07:59:07.998Z</time>
      </trkpt>
      <trkpt lat="43.024235" lon="-1.23019167">
        <ele>878.0</ele>
        <time>2019-08-01T07:59:09.003Z</time>
      </trkpt>
      <trkpt lat="43.02422833" lon="-1.23020333">
        <ele>877.0</ele>
        <time>2019-08-01T07:59:10.005Z</time>
      </trkpt>
      <trkpt lat="43.02422333" lon="-1.230205">
        <ele>877.0</ele>
        <time>2019-08-01T07:59:11.011Z</time>
      </trkpt>
      <trkpt lat="43.02421833" lon="-1.23020667">
        <ele>877.0</ele>
        <time>2019-08-01T07:59:12.015Z</time>
      </trkpt>
      <trkpt lat="43.02421167" lon="-1.23020833">
        <ele>877.0</ele>
        <time>2019-08-01T07:59:13.019Z</time>
      </trkpt>
      <trkpt lat="43.02420167" lon="-1.23021">
        <ele>878.0</ele>
        <time>2019-08-01T07:59:14.023Z</time>
      </trkpt>
      <trkpt lat="43.02419333" lon="-1.23021833">
        <ele>878.0</ele>
        <time>2019-08-01T07:59:15.029Z</time>
      </trkpt>
      <trkpt lat="43.02418667" lon="-1.23023333">
        <ele>878.0</ele>
        <time>2019-08-01T07:59:16.036Z</time>
      </trkpt>
      <trkpt lat="43.02418" lon="-1.23025">
        <ele>879.0</ele>
        <time>2019-08-01T07:59:17.042Z</time>
      </trkpt>
      <trkpt lat="43.02418" lon="-1.23025">
        <ele>879.0</ele>
        <time>2019-08-01T07:59:17.922Z</time>
      </trkpt>
      <trkpt lat="43.02417667" lon="-1.23025833">
        <ele>879.0</ele>
        <time>2019-08-01T07:59:18.925Z</time>
      </trkpt>
      <trkpt lat="43.02417" lon="-1.23027333">
        <ele>879.0</ele>
        <time>2019-08-01T07:59:19.930Z</time>
      </trkpt>
      <trkpt lat="43.02416667" lon="-1.23028333">
        <ele>879.0</ele>
        <time>2019-08-01T07:59:20.936Z</time>
      </trkpt>
      <trkpt lat="43.024165" lon="-1.230295">
        <ele>878.0</ele>
        <time>2019-08-01T07:59:21.943Z</time>
      </trkpt>
      <trkpt lat="43.024165" lon="-1.23030833">
        <ele>877.0</ele>
        <time>2019-08-01T07:59:22.948Z</time>
      </trkpt>
      <trkpt lat="43.02415833" lon="-1.23031833">
        <ele>876.0</ele>
        <time>2019-08-01T07:59:23.952Z</time>
      </trkpt>
      <trkpt lat="43.02415333" lon="-1.23032833">
        <ele>876.0</ele>
        <time>2019-08-01T07:59:24.957Z</time>
      </trkpt>
      <trkpt lat="43.024145" lon="-1.23033833">
        <ele>876.0</ele>
        <time>2019-08-01T07:59:25.965Z</time>
      </trkpt>
      <trkpt lat="43.02414" lon="-1.23034667">
        <ele>877.0</ele>
        <time>2019-08-01T07:59:26.970Z</time>
      </trkpt>
      <trkpt lat="43.02414167" lon="-1.23035333">
        <ele>878.0</ele>
        <time>2019-08-01T07:59:27.976Z</time>
      </trkpt>
      <trkpt lat="43.02415" lon="-1.23034833">
        <ele>878.0</ele>
        <time>2019-08-01T07:59:28.981Z</time>
      </trkpt>
      <trkpt lat="43.02415" lon="-1.23034333">
        <ele>878.0</ele>
        <time>2019-08-01T07:59:29.983Z</time>
      </trkpt>
      <trkpt lat="43.02414667" lon="-1.23035">
        <ele>878.0</ele>
        <time>2019-08-01T07:59:30.988Z</time>
      </trkpt>
      <trkpt lat="43.02414833" lon="-1.230365">
        <ele>877.0</ele>
        <time>2019-08-01T07:59:31.995Z</time>
      </trkpt>
      <trkpt lat="43.02414833" lon="-1.23038">
        <ele>877.0</ele>
        <time>2019-08-01T07:59:33.000Z</time>
      </trkpt>
      <trkpt lat="43.024135" lon="-1.23040333">
        <ele>882.0</ele>
        <time>2019-08-01T07:59:34.007Z</time>
      </trkpt>
      <trkpt lat="43.02412167" lon="-1.23041333">
        <ele>883.0</ele>
        <time>2019-08-01T07:59:35.011Z</time>
      </trkpt>
      <trkpt lat="43.02411" lon="-1.23041667">
        <ele>886.0</ele>
        <time>2019-08-01T07:59:36.016Z</time>
      </trkpt>
      <trkpt lat="43.02411167" lon="-1.23041667">
        <ele>888.0</ele>
        <time>2019-08-01T07:59:37.021Z</time>
      </trkpt>
      <trkpt lat="43.02411667" lon="-1.23040833">
        <ele>888.0</ele>
        <time>2019-08-01T07:59:38.027Z</time>
      </trkpt>
      <trkpt lat="43.024125" lon="-1.23040167">
        <ele>889.0</ele>
        <time>2019-08-01T07:59:39.034Z</time>
      </trkpt>
      <trkpt lat="43.02413" lon="-1.23039833">
        <ele>889.0</ele>
        <time>2019-08-01T07:59:40.041Z</time>
      </trkpt>
      <trkpt lat="43.02413" lon="-1.23039833">
        <ele>889.0</ele>
        <time>2019-08-01T07:59:40.922Z</time>
      </trkpt>
      <trkpt lat="43.02413167" lon="-1.23039667">
        <ele>889.0</ele>
        <time>2019-08-01T07:59:41.928Z</time>
      </trkpt>
      <trkpt lat="43.02413833" lon="-1.23039667">
        <ele>889.0</ele>
        <time>2019-08-01T07:59:42.934Z</time>
      </trkpt>
      <trkpt lat="43.024145" lon="-1.2304">
        <ele>889.0</ele>
        <time>2019-08-01T07:59:43.940Z</time>
      </trkpt>
      <trkpt lat="43.02414833" lon="-1.23041">
        <ele>890.0</ele>
        <time>2019-08-01T07:59:44.944Z</time>
      </trkpt>
      <trkpt lat="43.02415167" lon="-1.230425">
        <ele>890.0</ele>
        <time>2019-08-01T07:59:45.951Z</time>
      </trkpt>
      <trkpt lat="43.02415667" lon="-1.230435">
        <ele>889.0</ele>
        <time>2019-08-01T07:59:46.957Z</time>
      </trkpt>
      <trkpt lat="43.02415667" lon="-1.23044333">
        <ele>887.0</ele>
        <time>2019-08-01T07:59:47.963Z</time>
      </trkpt>
      <trkpt lat="43.02415833" lon="-1.23046">
        <ele>886.0</ele>
        <time>2019-08-01T07:59:48.969Z</time>
      </trkpt>
      <trkpt lat="43.02415833" lon="-1.23047">
        <ele>884.0</ele>
        <time>2019-08-01T07:59:49.976Z</time>
      </trkpt>
      <trkpt lat="43.02416" lon="-1.23047667">
        <ele>883.0</ele>
        <time>2019-08-01T07:59:50.982Z</time>
      </trkpt>
      <trkpt lat="43.024165" lon="-1.23048667">
        <ele>883.0</ele>
        <time>2019-08-01T07:59:51.989Z</time>
      </trkpt>
      <trkpt lat="43.02416833" lon="-1.23049">
        <ele>882.0</ele>
        <time>2019-08-01T07:59:52.993Z</time>
      </trkpt>
      <trkpt lat="43.02417167" lon="-1.23048833">
        <ele>881.0</ele>
        <time>2019-08-01T07:59:53.997Z</time>
      </trkpt>
      <trkpt lat="43.024175" lon="-1.23049333">
        <ele>881.0</ele>
        <time>2019-08-01T07:59:55.002Z</time>
      </trkpt>
      <trkpt lat="43.02418" lon="-1.23049833">
        <ele>881.0</ele>
        <time>2019-08-01T07:59:56.009Z</time>
      </trkpt>
      <trkpt lat="43.02417833" lon="-1.230505">
        <ele>880.0</ele>
        <time>2019-08-01T07:59:57.013Z</time>
      </trkpt>
      <trkpt lat="43.024175" lon="-1.23052">
        <ele>880.0</ele>
        <time>2019-08-01T07:59:58.020Z</time>
      </trkpt>
      <trkpt lat="43.02416833" lon="-1.23053667">
        <ele>879.0</ele>
        <time>2019-08-01T07:59:59.024Z</time>
      </trkpt>
      <trkpt lat="43.02416333" lon="-1.23055167">
        <ele>878.0</ele>
        <time>2019-08-01T08:00:00.032Z</time>
      </trkpt>
      <trkpt lat="43.02415833" lon="-1.23055833">
        <ele>878.0</ele>
        <time>2019-08-01T08:00:01.039Z</time>
      </trkpt>
      <trkpt lat="43.02415833" lon="-1.23055833">
        <ele>878.0</ele>
        <time>2019-08-01T08:00:01.919Z</time>
      </trkpt>
      <trkpt lat="43.02415333" lon="-1.23056167">
        <ele>878.0</ele>
        <time>2019-08-01T08:00:02.923Z</time>
      </trkpt>
      <trkpt lat="43.02414667" lon="-1.23056833">
        <ele>878.0</ele>
        <time>2019-08-01T08:00:03.926Z</time>
      </trkpt>
      <trkpt lat="43.02414167" lon="-1.23057833">
        <ele>877.0</ele>
        <time>2019-08-01T08:00:04.931Z</time>
      </trkpt>
      <trkpt lat="43.02413667" lon="-1.23058833">
        <ele>876.0</ele>
        <time>2019-08-01T08:00:05.938Z</time>
      </trkpt>
      <trkpt lat="43.02413" lon="-1.2306">
        <ele>876.0</ele>
        <time>2019-08-01T08:00:06.944Z</time>
      </trkpt>
      <trkpt lat="43.02412833" lon="-1.230615">
        <ele>876.0</ele>
        <time>2019-08-01T08:00:07.950Z</time>
      </trkpt>
      <trkpt lat="43.02412667" lon="-1.23063">
        <ele>876.0</ele>
        <time>2019-08-01T08:00:08.956Z</time>
      </trkpt>
      <trkpt lat="43.02412333" lon="-1.23064167">
        <ele>875.0</ele>
        <time>2019-08-01T08:00:09.962Z</time>
      </trkpt>
      <trkpt lat="43.02411833" lon="-1.23065333">
        <ele>877.0</ele>
        <time>2019-08-01T08:00:10.969Z</time>
      </trkpt>
      <trkpt lat="43.024105" lon="-1.23066667">
        <ele>876.0</ele>
        <time>2019-08-01T08:00:11.973Z</time>
      </trkpt>
      <trkpt lat="43.024105" lon="-1.23067667">
        <ele>876.0</ele>
        <time>2019-08-01T08:00:12.979Z</time>
      </trkpt>
      <trkpt lat="43.02410167" lon="-1.23067833">
        <ele>876.0</ele>
        <time>2019-08-01T08:00:13.986Z</time>
      </trkpt>
      <trkpt lat="43.02409333" lon="-1.23068333">
        <ele>876.0</ele>
        <time>2019-08-01T08:00:14.992Z</time>
      </trkpt>
      <trkpt lat="43.02408333" lon="-1.230685">
        <ele>876.0</ele>
        <time>2019-08-01T08:00:15.997Z</time>
      </trkpt>
      <trkpt lat="43.024075" lon="-1.230685">
        <ele>876.0</ele>
        <time>2019-08-01T08:00:17.003Z</time>
      </trkpt>
      <trkpt lat="43.024055" lon="-1.23069333">
        <ele>876.0</ele>
        <time>2019-08-01T08:00:18.009Z</time>
      </trkpt>
      <trkpt lat="43.024045" lon="-1.23069833">
        <ele>876.0</ele>
        <time>2019-08-01T08:00:19.012Z</time>
      </trkpt>
      <trkpt lat="43.024035" lon="-1.23070833">
        <ele>876.0</ele>
        <time>2019-08-01T08:00:20.016Z</time>
      </trkpt>
      <trkpt lat="43.02403" lon="-1.23071">
        <ele>876.0</ele>
        <time>2019-08-01T08:00:21.022Z</time>
      </trkpt>
      <trkpt lat="43.02402167" lon="-1.23071">
        <ele>875.0</ele>
        <time>2019-08-01T08:00:22.028Z</time>
      </trkpt>
      <trkpt lat="43.02401" lon="-1.230715">
        <ele>876.0</ele>
        <time>2019-08-01T08:00:23.035Z</time>
      </trkpt>
      <trkpt lat="43.02400167" lon="-1.23072167">
        <ele>875.0</ele>
        <time>2019-08-01T08:00:24.040Z</time>
      </trkpt>
      <trkpt lat="43.02400167" lon="-1.23072167">
        <ele>875.0</ele>
        <time>2019-08-01T08:00:24.919Z</time>
      </trkpt>
      <trkpt lat="43.02398833" lon="-1.23073">
        <ele>875.0</ele>
        <time>2019-08-01T08:00:25.924Z</time>
      </trkpt>
      <trkpt lat="43.02398" lon="-1.23074167">
        <ele>875.0</ele>
        <time>2019-08-01T08:00:26.929Z</time>
      </trkpt>
      <trkpt lat="43.02397667" lon="-1.23075667">
        <ele>875.0</ele>
        <time>2019-08-01T08:00:27.934Z</time>
      </trkpt>
      <trkpt lat="43.02397167" lon="-1.23077">
        <ele>874.0</ele>
        <time>2019-08-01T08:00:28.940Z</time>
      </trkpt>
      <trkpt lat="43.02396667" lon="-1.23077833">
        <ele>873.0</ele>
        <time>2019-08-01T08:00:29.946Z</time>
      </trkpt>
      <trkpt lat="43.023965" lon="-1.23077833">
        <ele>873.0</ele>
        <time>2019-08-01T08:00:30.952Z</time>
      </trkpt>
      <trkpt lat="43.02395667" lon="-1.23077667">
        <ele>872.0</ele>
        <time>2019-08-01T08:00:31.959Z</time>
      </trkpt>
      <trkpt lat="43.023945" lon="-1.23078167">
        <ele>872.0</ele>
        <time>2019-08-01T08:00:32.967Z</time>
      </trkpt>
      <trkpt lat="43.02393" lon="-1.23078667">
        <ele>871.0</ele>
        <time>2019-08-01T08:00:33.973Z</time>
      </trkpt>
      <trkpt lat="43.02391833" lon="-1.230795">
        <ele>870.0</ele>
        <time>2019-08-01T08:00:34.979Z</time>
      </trkpt>
      <trkpt lat="43.02390667" lon="-1.23079833">
        <ele>870.0</ele>
        <time>2019-08-01T08:00:35.986Z</time>
      </trkpt>
      <trkpt lat="43.02389667" lon="-1.230805">
        <ele>869.0</ele>
        <time>2019-08-01T08:00:36.991Z</time>
      </trkpt>
      <trkpt lat="43.02388667" lon="-1.23081167">
        <ele>869.0</ele>
        <time>2019-08-01T08:00:37.995Z</time>
      </trkpt>
      <trkpt lat="43.023875" lon="-1.23082167">
        <ele>868.0</ele>
        <time>2019-08-01T08:00:38.999Z</time>
      </trkpt>
      <trkpt lat="43.02386667" lon="-1.230815">
        <ele>868.0</ele>
        <time>2019-08-01T08:00:40.003Z</time>
      </trkpt>
      <trkpt lat="43.02385" lon="-1.23081167">
        <ele>868.0</ele>
        <time>2019-08-01T08:00:41.009Z</time>
      </trkpt>
      <trkpt lat="43.02383833" lon="-1.23079833">
        <ele>867.0</ele>
        <time>2019-08-01T08:00:42.015Z</time>
      </trkpt>
      <trkpt lat="43.02383833" lon="-1.23079833">
        <ele>867.0</ele>
        <time>2019-08-01T08:00:43.018Z</time>
      </trkpt>
      <trkpt lat="43.023815" lon="-1.23080167">
        <ele>867.0</ele>
        <time>2019-08-01T08:00:44.024Z</time>
      </trkpt>
      <trkpt lat="43.02380667" lon="-1.23081667">
        <ele>867.0</ele>
        <time>2019-08-01T08:00:45.030Z</time>
      </trkpt>
      <trkpt lat="43.02380667" lon="-1.23082833">
        <ele>866.0</ele>
        <time>2019-08-01T08:00:46.037Z</time>
      </trkpt>
      <trkpt lat="43.02380667" lon="-1.23082833">
        <ele>866.0</ele>
        <time>2019-08-01T08:00:46.918Z</time>
      </trkpt>
      <trkpt lat="43.02380167" lon="-1.23084333">
        <ele>864.0</ele>
        <time>2019-08-01T08:00:47.923Z</time>
      </trkpt>
      <trkpt lat="43.02379667" lon="-1.23085667">
        <ele>863.0</ele>
        <time>2019-08-01T08:00:48.926Z</time>
      </trkpt>
      <trkpt lat="43.02379167" lon="-1.23086333">
        <ele>862.0</ele>
        <time>2019-08-01T08:00:49.929Z</time>
      </trkpt>
      <trkpt lat="43.02378167" lon="-1.230865">
        <ele>862.0</ele>
        <time>2019-08-01T08:00:50.935Z</time>
      </trkpt>
      <trkpt lat="43.02377" lon="-1.23086833">
        <ele>862.0</ele>
        <time>2019-08-01T08:00:51.941Z</time>
      </trkpt>
      <trkpt lat="43.02376167" lon="-1.23087167">
        <ele>862.0</ele>
        <time>2019-08-01T08:00:52.947Z</time>
      </trkpt>
      <trkpt lat="43.02375833" lon="-1.23087333">
        <ele>862.0</ele>
        <time>2019-08-01T08:00:53.951Z</time>
      </trkpt>
      <trkpt lat="43.02375667" lon="-1.23087333">
        <ele>862.0</ele>
        <time>2019-08-01T08:00:54.958Z</time>
      </trkpt>
      <trkpt lat="43.02375167" lon="-1.23087167">
        <ele>862.0</ele>
        <time>2019-08-01T08:00:55.964Z</time>
      </trkpt>
      <trkpt lat="43.023745" lon="-1.230865">
        <ele>863.0</ele>
        <time>2019-08-01T08:00:56.968Z</time>
      </trkpt>
      <trkpt lat="43.023735" lon="-1.23087167">
        <ele>863.0</ele>
        <time>2019-08-01T08:00:57.972Z</time>
      </trkpt>
      <trkpt lat="43.02372833" lon="-1.23087667">
        <ele>863.0</ele>
        <time>2019-08-01T08:00:58.977Z</time>
      </trkpt>
      <trkpt lat="43.02372333" lon="-1.230885">
        <ele>863.0</ele>
        <time>2019-08-01T08:00:59.984Z</time>
      </trkpt>
      <trkpt lat="43.02371667" lon="-1.23089">
        <ele>862.0</ele>
        <time>2019-08-01T08:01:00.991Z</time>
      </trkpt>
      <trkpt lat="43.02371333" lon="-1.23089667">
        <ele>862.0</ele>
        <time>2019-08-01T08:01:01.997Z</time>
      </trkpt>
      <trkpt lat="43.02371" lon="-1.230905">
        <ele>862.0</ele>
        <time>2019-08-01T08:01:03.002Z</time>
      </trkpt>
      <trkpt lat="43.02370833" lon="-1.23091833">
        <ele>863.0</ele>
        <time>2019-08-01T08:01:04.007Z</time>
      </trkpt>
      <trkpt lat="43.02370833" lon="-1.23092">
        <ele>863.0</ele>
        <time>2019-08-01T08:01:05.014Z</time>
      </trkpt>
      <trkpt lat="43.02370833" lon="-1.23092667">
        <ele>864.0</ele>
        <time>2019-08-01T08:01:06.020Z</time>
      </trkpt>
      <trkpt lat="43.023705" lon="-1.23093167">
        <ele>864.0</ele>
        <time>2019-08-01T08:01:07.025Z</time>
      </trkpt>
      <trkpt lat="43.023705" lon="-1.23093667">
        <ele>866.0</ele>
        <time>2019-08-01T08:01:08.032Z</time>
      </trkpt>
      <trkpt lat="43.023705" lon="-1.23093833">
        <ele>867.0</ele>
        <time>2019-08-01T08:01:09.039Z</time>
      </trkpt>
      <trkpt lat="43.023705" lon="-1.23093833">
        <ele>867.0</ele>
        <time>2019-08-01T08:01:09.918Z</time>
      </trkpt>
      <trkpt lat="43.02370167" lon="-1.23094167">
        <ele>868.0</ele>
        <time>2019-08-01T08:01:10.924Z</time>
      </trkpt>
      <trkpt lat="43.02369667" lon="-1.23094333">
        <ele>869.0</ele>
        <time>2019-08-01T08:01:11.929Z</time>
      </trkpt>
      <trkpt lat="43.02368833" lon="-1.23094167">
        <ele>870.0</ele>
        <time>2019-08-01T08:01:12.934Z</time>
      </trkpt>
      <trkpt lat="43.02367667" lon="-1.23094">
        <ele>870.0</ele>
        <time>2019-08-01T08:01:13.939Z</time>
      </trkpt>
      <trkpt lat="43.02366833" lon="-1.23094">
        <ele>870.0</ele>
        <time>2019-08-01T08:01:14.947Z</time>
      </trkpt>
      <trkpt lat="43.02366" lon="-1.23094167">
        <ele>870.0</ele>
        <time>2019-08-01T08:01:15.953Z</time>
      </trkpt>
      <trkpt lat="43.02365333" lon="-1.23094167">
        <ele>870.0</ele>
        <time>2019-08-01T08:01:16.960Z</time>
      </trkpt>
      <trkpt lat="43.02365167" lon="-1.23094">
        <ele>869.0</ele>
        <time>2019-08-01T08:01:17.966Z</time>
      </trkpt>
      <trkpt lat="43.02365" lon="-1.23094167">
        <ele>868.0</ele>
        <time>2019-08-01T08:01:18.972Z</time>
      </trkpt>
      <trkpt lat="43.02364333" lon="-1.23094667">
        <ele>867.0</ele>
        <time>2019-08-01T08:01:19.977Z</time>
      </trkpt>
      <trkpt lat="43.02363833" lon="-1.23095">
        <ele>867.0</ele>
        <time>2019-08-01T08:01:20.984Z</time>
      </trkpt>
      <trkpt lat="43.02363167" lon="-1.23095">
        <ele>867.0</ele>
        <time>2019-08-01T08:01:21.989Z</time>
      </trkpt>
      <trkpt lat="43.023625" lon="-1.23095">
        <ele>866.0</ele>
        <time>2019-08-01T08:01:22.994Z</time>
      </trkpt>
      <trkpt lat="43.02361667" lon="-1.23095167">
        <ele>866.0</ele>
        <time>2019-08-01T08:01:23.997Z</time>
      </trkpt>
      <trkpt lat="43.023615" lon="-1.23095167">
        <ele>865.0</ele>
        <time>2019-08-01T08:01:25.002Z</time>
      </trkpt>
      <trkpt lat="43.02361" lon="-1.230955">
        <ele>865.0</ele>
        <time>2019-08-01T08:01:26.006Z</time>
      </trkpt>
      <trkpt lat="43.02360333" lon="-1.23095667">
        <ele>864.0</ele>
        <time>2019-08-01T08:01:27.011Z</time>
      </trkpt>
      <trkpt lat="43.02359833" lon="-1.23096">
        <ele>864.0</ele>
        <time>2019-08-01T08:01:28.017Z</time>
      </trkpt>
      <trkpt lat="43.023595" lon="-1.23095833">
        <ele>863.0</ele>
        <time>2019-08-01T08:01:29.023Z</time>
      </trkpt>
      <trkpt lat="43.02359333" lon="-1.23095333">
        <ele>864.0</ele>
        <time>2019-08-01T08:01:30.029Z</time>
      </trkpt>
      <trkpt lat="43.02359" lon="-1.23095">
        <ele>864.0</ele>
        <time>2019-08-01T08:01:31.035Z</time>
      </trkpt>
      <trkpt lat="43.02358333" lon="-1.23094833">
        <ele>865.0</ele>
        <time>2019-08-01T08:01:32.040Z</time>
      </trkpt>
      <trkpt lat="43.02358333" lon="-1.23094833">
        <ele>865.0</ele>
        <time>2019-08-01T08:01:32.921Z</time>
      </trkpt>
      <trkpt lat="43.02357333" lon="-1.230955">
        <ele>865.0</ele>
        <time>2019-08-01T08:01:33.926Z</time>
      </trkpt>
      <trkpt lat="43.02356167" lon="-1.23096">
        <ele>866.0</ele>
        <time>2019-08-01T08:01:34.931Z</time>
      </trkpt>
      <trkpt lat="43.023555" lon="-1.23096167">
        <ele>866.0</ele>
        <time>2019-08-01T08:01:35.936Z</time>
      </trkpt>
      <trkpt lat="43.023545" lon="-1.23096833">
        <ele>865.0</ele>
        <time>2019-08-01T08:01:36.941Z</time>
      </trkpt>
      <trkpt lat="43.02353667" lon="-1.23097333">
        <ele>864.0</ele>
        <time>2019-08-01T08:01:37.947Z</time>
      </trkpt>
      <trkpt lat="43.02352833" lon="-1.23097833">
        <ele>864.0</ele>
        <time>2019-08-01T08:01:38.951Z</time>
      </trkpt>
      <trkpt lat="43.02352167" lon="-1.23098">
        <ele>864.0</ele>
        <time>2019-08-01T08:01:39.957Z</time>
      </trkpt>
      <trkpt lat="43.02352" lon="-1.23098167">
        <ele>864.0</ele>
        <time>2019-08-01T08:01:40.964Z</time>
      </trkpt>
      <trkpt lat="43.023515" lon="-1.23097833">
        <ele>864.0</ele>
        <time>2019-08-01T08:01:41.968Z</time>
      </trkpt>
      <trkpt lat="43.02351333" lon="-1.23098167">
        <ele>864.0</ele>
        <time>2019-08-01T08:01:42.972Z</time>
      </trkpt>
      <trkpt lat="43.02350833" lon="-1.230985">
        <ele>864.0</ele>
        <time>2019-08-01T08:01:43.977Z</time>
      </trkpt>
      <trkpt lat="43.02350333" lon="-1.23098833">
        <ele>864.0</ele>
        <time>2019-08-01T08:01:44.984Z</time>
      </trkpt>
      <trkpt lat="43.02349667" lon="-1.230985">
        <ele>864.0</ele>
        <time>2019-08-01T08:01:45.988Z</time>
      </trkpt>
      <trkpt lat="43.02348833" lon="-1.23098333">
        <ele>864.0</ele>
        <time>2019-08-01T08:01:46.994Z</time>
      </trkpt>
      <trkpt lat="43.02347833" lon="-1.23098167">
        <ele>864.0</ele>
        <time>2019-08-01T08:01:47.997Z</time>
      </trkpt>
      <trkpt lat="43.02346167" lon="-1.23098833">
        <ele>864.0</ele>
        <time>2019-08-01T08:01:49.000Z</time>
      </trkpt>
      <trkpt lat="43.02344833" lon="-1.23099333">
        <ele>864.0</ele>
        <time>2019-08-01T08:01:50.004Z</time>
      </trkpt>
      <trkpt lat="43.02342667" lon="-1.23101">
        <ele>864.0</ele>
        <time>2019-08-01T08:01:51.011Z</time>
      </trkpt>
      <trkpt lat="43.023415" lon="-1.23102833">
        <ele>864.0</ele>
        <time>2019-08-01T08:01:52.014Z</time>
      </trkpt>
      <trkpt lat="43.02341167" lon="-1.23104167">
        <ele>865.0</ele>
        <time>2019-08-01T08:01:53.019Z</time>
      </trkpt>
      <trkpt lat="43.02340667" lon="-1.23106">
        <ele>865.0</ele>
        <time>2019-08-01T08:01:54.024Z</time>
      </trkpt>
      <trkpt lat="43.02339333" lon="-1.23107667">
        <ele>865.0</ele>
        <time>2019-08-01T08:01:55.031Z</time>
      </trkpt>
      <trkpt lat="43.02337833" lon="-1.23108667">
        <ele>865.0</ele>
        <time>2019-08-01T08:01:56.037Z</time>
      </trkpt>
      <trkpt lat="43.02337833" lon="-1.23108667">
        <ele>865.0</ele>
        <time>2019-08-01T08:01:56.918Z</time>
      </trkpt>
      <trkpt lat="43.02336" lon="-1.23108833">
        <ele>865.0</ele>
        <time>2019-08-01T08:01:57.923Z</time>
      </trkpt>
      <trkpt lat="43.02334333" lon="-1.23109">
        <ele>865.0</ele>
        <time>2019-08-01T08:01:58.928Z</time>
      </trkpt>
      <trkpt lat="43.02332833" lon="-1.231095">
        <ele>865.0</ele>
        <time>2019-08-01T08:01:59.935Z</time>
      </trkpt>
      <trkpt lat="43.02331167" lon="-1.231095">
        <ele>865.0</ele>
        <time>2019-08-01T08:02:00.941Z</time>
      </trkpt>
      <trkpt lat="43.02329833" lon="-1.23109667">
        <ele>865.0</ele>
        <time>2019-08-01T08:02:01.947Z</time>
      </trkpt>
      <trkpt lat="43.02328667" lon="-1.23110167">
        <ele>864.0</ele>
        <time>2019-08-01T08:02:02.954Z</time>
      </trkpt>
      <trkpt lat="43.02327333" lon="-1.231115">
        <ele>864.0</ele>
        <time>2019-08-01T08:02:03.960Z</time>
      </trkpt>
      <trkpt lat="43.023265" lon="-1.23114">
        <ele>863.0</ele>
        <time>2019-08-01T08:02:04.963Z</time>
      </trkpt>
      <trkpt lat="43.02325333" lon="-1.23115833">
        <ele>862.0</ele>
        <time>2019-08-01T08:02:05.969Z</time>
      </trkpt>
      <trkpt lat="43.02324167" lon="-1.231165">
        <ele>861.0</ele>
        <time>2019-08-01T08:02:06.975Z</time>
      </trkpt>
      <trkpt lat="43.02322833" lon="-1.23117167">
        <ele>860.0</ele>
        <time>2019-08-01T08:02:07.980Z</time>
      </trkpt>
      <trkpt lat="43.02322" lon="-1.23117167">
        <ele>860.0</ele>
        <time>2019-08-01T08:02:08.986Z</time>
      </trkpt>
      <trkpt lat="43.023215" lon="-1.23117333">
        <ele>859.0</ele>
        <time>2019-08-01T08:02:09.993Z</time>
      </trkpt>
      <trkpt lat="43.02320333" lon="-1.23118167">
        <ele>859.0</ele>
        <time>2019-08-01T08:02:11.000Z</time>
      </trkpt>
      <trkpt lat="43.02319667" lon="-1.231185">
        <ele>859.0</ele>
        <time>2019-08-01T08:02:12.006Z</time>
      </trkpt>
      <trkpt lat="43.02318167" lon="-1.23118">
        <ele>858.0</ele>
        <time>2019-08-01T08:02:13.011Z</time>
      </trkpt>
      <trkpt lat="43.02317167" lon="-1.23117">
        <ele>858.0</ele>
        <time>2019-08-01T08:02:14.015Z</time>
      </trkpt>
      <trkpt lat="43.02316333" lon="-1.23115667">
        <ele>859.0</ele>
        <time>2019-08-01T08:02:15.023Z</time>
      </trkpt>
      <trkpt lat="43.02315" lon="-1.231145">
        <ele>859.0</ele>
        <time>2019-08-01T08:02:16.029Z</time>
      </trkpt>
      <trkpt lat="43.02313833" lon="-1.23113333">
        <ele>858.0</ele>
        <time>2019-08-01T08:02:17.034Z</time>
      </trkpt>
      <trkpt lat="43.02312833" lon="-1.23113167">
        <ele>858.0</ele>
        <time>2019-08-01T08:02:18.042Z</time>
      </trkpt>
      <trkpt lat="43.02312833" lon="-1.23113167">
        <ele>858.0</ele>
        <time>2019-08-01T08:02:18.921Z</time>
      </trkpt>
      <trkpt lat="43.02311833" lon="-1.23114">
        <ele>857.0</ele>
        <time>2019-08-01T08:02:19.928Z</time>
      </trkpt>
      <trkpt lat="43.023115" lon="-1.23113833">
        <ele>858.0</ele>
        <time>2019-08-01T08:02:20.936Z</time>
      </trkpt>
      <trkpt lat="43.02311" lon="-1.23114">
        <ele>857.0</ele>
        <time>2019-08-01T08:02:21.942Z</time>
      </trkpt>
      <trkpt lat="43.02310333" lon="-1.23113667">
        <ele>857.0</ele>
        <time>2019-08-01T08:02:22.948Z</time>
      </trkpt>
      <trkpt lat="43.0231" lon="-1.23112833">
        <ele>855.0</ele>
        <time>2019-08-01T08:02:23.955Z</time>
      </trkpt>
      <trkpt lat="43.02309167" lon="-1.231115">
        <ele>855.0</ele>
        <time>2019-08-01T08:02:24.960Z</time>
      </trkpt>
      <trkpt lat="43.02309" lon="-1.23110167">
        <ele>855.0</ele>
        <time>2019-08-01T08:02:25.967Z</time>
      </trkpt>
      <trkpt lat="43.02309167" lon="-1.2311">
        <ele>856.0</ele>
        <time>2019-08-01T08:02:26.970Z</time>
      </trkpt>
      <trkpt lat="43.02309167" lon="-1.23110333">
        <ele>856.0</ele>
        <time>2019-08-01T08:02:27.977Z</time>
      </trkpt>
      <trkpt lat="43.02308833" lon="-1.23110167">
        <ele>857.0</ele>
        <time>2019-08-01T08:02:28.982Z</time>
      </trkpt>
      <trkpt lat="43.02308333" lon="-1.23110333">
        <ele>857.0</ele>
        <time>2019-08-01T08:02:29.985Z</time>
      </trkpt>
      <trkpt lat="43.02308333" lon="-1.23110333">
        <ele>858.0</ele>
        <time>2019-08-01T08:02:30.991Z</time>
      </trkpt>
      <trkpt lat="43.02308" lon="-1.23110167">
        <ele>859.0</ele>
        <time>2019-08-01T08:02:31.998Z</time>
      </trkpt>
      <trkpt lat="43.02308167" lon="-1.231095">
        <ele>860.0</ele>
        <time>2019-08-01T08:02:33.004Z</time>
      </trkpt>
      <trkpt lat="43.02307667" lon="-1.23107833">
        <ele>862.0</ele>
        <time>2019-08-01T08:02:34.009Z</time>
      </trkpt>
      <trkpt lat="43.02306667" lon="-1.231085">
        <ele>863.0</ele>
        <time>2019-08-01T08:02:35.015Z</time>
      </trkpt>
      <trkpt lat="43.02306167" lon="-1.23107833">
        <ele>864.0</ele>
        <time>2019-08-01T08:02:36.022Z</time>
      </trkpt>
      <trkpt lat="43.02305333" lon="-1.23108667">
        <ele>864.0</ele>
        <time>2019-08-01T08:02:37.028Z</time>
      </trkpt>
      <trkpt lat="43.02304833" lon="-1.23107667">
        <ele>865.0</ele>
        <time>2019-08-01T08:02:38.034Z</time>
      </trkpt>
      <trkpt lat="43.02304333" lon="-1.23108">
        <ele>865.0</ele>
        <time>2019-08-01T08:02:39.040Z</time>
      </trkpt>
      <trkpt lat="43.02304333" lon="-1.23108">
        <ele>865.0</ele>
        <time>2019-08-01T08:02:39.921Z</time>
      </trkpt>
      <trkpt lat="43.02304833" lon="-1.23107667">
        <ele>866.0</ele>
        <time>2019-08-01T08:02:40.928Z</time>
      </trkpt>
      <trkpt lat="43.02305333" lon="-1.23107833">
        <ele>866.0</ele>
        <time>2019-08-01T08:02:41.932Z</time>
      </trkpt>
      <trkpt lat="43.02305667" lon="-1.23107333">
        <ele>865.0</ele>
        <time>2019-08-01T08:02:42.937Z</time>
      </trkpt>
      <trkpt lat="43.023055" lon="-1.231075">
        <ele>864.0</ele>
        <time>2019-08-01T08:02:43.943Z</time>
      </trkpt>
      <trkpt lat="43.02305167" lon="-1.231075">
        <ele>863.0</ele>
        <time>2019-08-01T08:02:44.950Z</time>
      </trkpt>
      <trkpt lat="43.02305167" lon="-1.231075">
        <ele>863.0</ele>
        <time>2019-08-01T08:02:45.957Z</time>
      </trkpt>
      <trkpt lat="43.02305167" lon="-1.23107333">
        <ele>862.0</ele>
        <time>2019-08-01T08:02:46.963Z</time>
      </trkpt>
      <trkpt lat="43.02305" lon="-1.23106833">
        <ele>861.0</ele>
        <time>2019-08-01T08:02:47.968Z</time>
      </trkpt>
      <trkpt lat="43.02304667" lon="-1.23106">
        <ele>861.0</ele>
        <time>2019-08-01T08:02:48.975Z</time>
      </trkpt>
      <trkpt lat="43.02304667" lon="-1.23105333">
        <ele>861.0</ele>
        <time>2019-08-01T08:02:49.981Z</time>
      </trkpt>
      <trkpt lat="43.02304667" lon="-1.23105">
        <ele>860.0</ele>
        <time>2019-08-01T08:02:50.987Z</time>
      </trkpt>
      <trkpt lat="43.023045" lon="-1.23104833">
        <ele>859.0</ele>
        <time>2019-08-01T08:02:51.994Z</time>
      </trkpt>
      <trkpt lat="43.02304667" lon="-1.23104667">
        <ele>858.0</ele>
        <time>2019-08-01T08:02:53.001Z</time>
      </trkpt>
      <trkpt lat="43.023045" lon="-1.23104667">
        <ele>858.0</ele>
        <time>2019-08-01T08:02:54.008Z</time>
      </trkpt>
      <trkpt lat="43.023045" lon="-1.23104667">
        <ele>858.0</ele>
        <time>2019-08-01T08:02:55.014Z</time>
      </trkpt>
      <trkpt lat="43.02304167" lon="-1.23103833">
        <ele>858.0</ele>
        <time>2019-08-01T08:02:56.021Z</time>
      </trkpt>
      <trkpt lat="43.02303833" lon="-1.23103833">
        <ele>857.0</ele>
        <time>2019-08-01T08:02:57.028Z</time>
      </trkpt>
      <trkpt lat="43.02303333" lon="-1.23103667">
        <ele>857.0</ele>
        <time>2019-08-01T08:02:58.035Z</time>
      </trkpt>
      <trkpt lat="43.02303" lon="-1.23103333">
        <ele>857.0</ele>
        <time>2019-08-01T08:02:59.040Z</time>
      </trkpt>
      <trkpt lat="43.02303" lon="-1.23103333">
        <ele>857.0</ele>
        <time>2019-08-01T08:02:59.923Z</time>
      </trkpt>
      <trkpt lat="43.02302667" lon="-1.23103833">
        <ele>857.0</ele>
        <time>2019-08-01T08:03:00.928Z</time>
      </trkpt>
      <trkpt lat="43.02303" lon="-1.23104333">
        <ele>857.0</ele>
        <time>2019-08-01T08:03:01.935Z</time>
      </trkpt>
      <trkpt lat="43.02303167" lon="-1.23104333">
        <ele>858.0</ele>
        <time>2019-08-01T08:03:02.941Z</time>
      </trkpt>
      <trkpt lat="43.02302833" lon="-1.23104667">
        <ele>858.0</ele>
        <time>2019-08-01T08:03:03.948Z</time>
      </trkpt>
      <trkpt lat="43.02302833" lon="-1.23104667">
        <ele>858.0</ele>
        <time>2019-08-01T08:03:04.951Z</time>
      </trkpt>
      <trkpt lat="43.02302667" lon="-1.23104667">
        <ele>858.0</ele>
        <time>2019-08-01T08:03:05.957Z</time>
      </trkpt>
      <trkpt lat="43.02302667" lon="-1.23104333">
        <ele>858.0</ele>
        <time>2019-08-01T08:03:06.962Z</time>
      </trkpt>
      <trkpt lat="43.02302833" lon="-1.231035">
        <ele>857.0</ele>
        <time>2019-08-01T08:03:07.968Z</time>
      </trkpt>
      <trkpt lat="43.02303333" lon="-1.231035">
        <ele>857.0</ele>
        <time>2019-08-01T08:03:08.971Z</time>
      </trkpt>
      <trkpt lat="43.02303667" lon="-1.23103167">
        <ele>858.0</ele>
        <time>2019-08-01T08:03:09.978Z</time>
      </trkpt>
      <trkpt lat="43.02303667" lon="-1.23103167">
        <ele>858.0</ele>
        <time>2019-08-01T08:03:10.983Z</time>
      </trkpt>
      <trkpt lat="43.02303667" lon="-1.23103167">
        <ele>859.0</ele>
        <time>2019-08-01T08:03:11.988Z</time>
      </trkpt>
      <trkpt lat="43.023035" lon="-1.23103167">
        <ele>859.0</ele>
        <time>2019-08-01T08:03:12.995Z</time>
      </trkpt>
      <trkpt lat="43.023035" lon="-1.23103">
        <ele>859.0</ele>
        <time>2019-08-01T08:03:14.002Z</time>
      </trkpt>
      <trkpt lat="43.02303833" lon="-1.23103">
        <ele>860.0</ele>
        <time>2019-08-01T08:03:15.004Z</time>
      </trkpt>
      <trkpt lat="43.02304" lon="-1.23104167">
        <ele>861.0</ele>
        <time>2019-08-01T08:03:16.010Z</time>
      </trkpt>
      <trkpt lat="43.023045" lon="-1.23104333">
        <ele>862.0</ele>
        <time>2019-08-01T08:03:17.014Z</time>
      </trkpt>
      <trkpt lat="43.023045" lon="-1.23104333">
        <ele>862.0</ele>
        <time>2019-08-01T08:03:18.018Z</time>
      </trkpt>
      <trkpt lat="43.02304333" lon="-1.23103833">
        <ele>862.0</ele>
        <time>2019-08-01T08:03:19.021Z</time>
      </trkpt>
      <trkpt lat="43.02303833" lon="-1.23102333">
        <ele>863.0</ele>
        <time>2019-08-01T08:03:20.025Z</time>
      </trkpt>
      <trkpt lat="43.02302833" lon="-1.23100833">
        <ele>863.0</ele>
        <time>2019-08-01T08:03:21.029Z</time>
      </trkpt>
      <trkpt lat="43.02301667" lon="-1.23099833">
        <ele>864.0</ele>
        <time>2019-08-01T08:03:22.034Z</time>
      </trkpt>
      <trkpt lat="43.02300667" lon="-1.23098667">
        <ele>864.0</ele>
        <time>2019-08-01T08:03:23.040Z</time>
      </trkpt>
      <trkpt lat="43.02300667" lon="-1.23098667">
        <ele>864.0</ele>
        <time>2019-08-01T08:03:23.923Z</time>
      </trkpt>
      <trkpt lat="43.02299333" lon="-1.23097833">
        <ele>864.0</ele>
        <time>2019-08-01T08:03:24.928Z</time>
      </trkpt>
      <trkpt lat="43.02298" lon="-1.23096833">
        <ele>863.0</ele>
        <time>2019-08-01T08:03:25.935Z</time>
      </trkpt>
      <trkpt lat="43.02296833" lon="-1.23096167">
        <ele>862.0</ele>
        <time>2019-08-01T08:03:26.943Z</time>
      </trkpt>
      <trkpt lat="43.02295667" lon="-1.230955">
        <ele>862.0</ele>
        <time>2019-08-01T08:03:27.950Z</time>
      </trkpt>
      <trkpt lat="43.02294667" lon="-1.230945">
        <ele>861.0</ele>
        <time>2019-08-01T08:03:28.955Z</time>
      </trkpt>
      <trkpt lat="43.02293833" lon="-1.230935">
        <ele>860.0</ele>
        <time>2019-08-01T08:03:29.961Z</time>
      </trkpt>
      <trkpt lat="43.02293" lon="-1.23092333">
        <ele>860.0</ele>
        <time>2019-08-01T08:03:30.967Z</time>
      </trkpt>
      <trkpt lat="43.02291833" lon="-1.23090833">
        <ele>859.0</ele>
        <time>2019-08-01T08:03:31.972Z</time>
      </trkpt>
      <trkpt lat="43.02290833" lon="-1.23089833">
        <ele>859.0</ele>
        <time>2019-08-01T08:03:32.979Z</time>
      </trkpt>
      <trkpt lat="43.022905" lon="-1.23088333">
        <ele>859.0</ele>
        <time>2019-08-01T08:03:33.985Z</time>
      </trkpt>
      <trkpt lat="43.0229" lon="-1.23086833">
        <ele>859.0</ele>
        <time>2019-08-01T08:03:34.991Z</time>
      </trkpt>
      <trkpt lat="43.022895" lon="-1.23085167">
        <ele>860.0</ele>
        <time>2019-08-01T08:03:35.997Z</time>
      </trkpt>
      <trkpt lat="43.02288833" lon="-1.230845">
        <ele>860.0</ele>
        <time>2019-08-01T08:03:37.003Z</time>
      </trkpt>
      <trkpt lat="43.02288167" lon="-1.23084333">
        <ele>861.0</ele>
        <time>2019-08-01T08:03:38.008Z</time>
      </trkpt>
      <trkpt lat="43.02286667" lon="-1.23082333">
        <ele>861.0</ele>
        <time>2019-08-01T08:03:39.013Z</time>
      </trkpt>
      <trkpt lat="43.02286167" lon="-1.23082">
        <ele>862.0</ele>
        <time>2019-08-01T08:03:40.019Z</time>
      </trkpt>
      <trkpt lat="43.02286167" lon="-1.23082333">
        <ele>862.0</ele>
        <time>2019-08-01T08:03:41.023Z</time>
      </trkpt>
      <trkpt lat="43.02285667" lon="-1.230825">
        <ele>861.0</ele>
        <time>2019-08-01T08:03:42.029Z</time>
      </trkpt>
      <trkpt lat="43.02286667" lon="-1.23081833">
        <ele>861.0</ele>
        <time>2019-08-01T08:03:43.034Z</time>
      </trkpt>
      <trkpt lat="43.02286833" lon="-1.23081667">
        <ele>861.0</ele>
        <time>2019-08-01T08:03:44.041Z</time>
      </trkpt>
      <trkpt lat="43.02286833" lon="-1.23081667">
        <ele>861.0</ele>
        <time>2019-08-01T08:03:44.923Z</time>
      </trkpt>
      <trkpt lat="43.02287167" lon="-1.23081667">
        <ele>861.0</ele>
        <time>2019-08-01T08:03:45.929Z</time>
      </trkpt>
      <trkpt lat="43.022875" lon="-1.23080833">
        <ele>860.0</ele>
        <time>2019-08-01T08:03:46.936Z</time>
      </trkpt>
      <trkpt lat="43.02287833" lon="-1.23079833">
        <ele>859.0</ele>
        <time>2019-08-01T08:03:47.942Z</time>
      </trkpt>
      <trkpt lat="43.02288167" lon="-1.23078">
        <ele>859.0</ele>
        <time>2019-08-01T08:03:48.946Z</time>
      </trkpt>
      <trkpt lat="43.022885" lon="-1.23077">
        <ele>858.0</ele>
        <time>2019-08-01T08:03:49.950Z</time>
      </trkpt>
      <trkpt lat="43.02288833" lon="-1.23076167">
        <ele>857.0</ele>
        <time>2019-08-01T08:03:50.956Z</time>
      </trkpt>
      <trkpt lat="43.02288833" lon="-1.23076333">
        <ele>857.0</ele>
        <time>2019-08-01T08:03:51.963Z</time>
      </trkpt>
      <trkpt lat="43.022885" lon="-1.23076">
        <ele>856.0</ele>
        <time>2019-08-01T08:03:52.968Z</time>
      </trkpt>
      <trkpt lat="43.022885" lon="-1.23075333">
        <ele>856.0</ele>
        <time>2019-08-01T08:03:53.970Z</time>
      </trkpt>
      <trkpt lat="43.02288333" lon="-1.23074167">
        <ele>856.0</ele>
        <time>2019-08-01T08:03:54.973Z</time>
      </trkpt>
      <trkpt lat="43.02288" lon="-1.23074167">
        <ele>856.0</ele>
        <time>2019-08-01T08:03:55.981Z</time>
      </trkpt>
      <trkpt lat="43.02287333" lon="-1.23074667">
        <ele>856.0</ele>
        <time>2019-08-01T08:03:56.987Z</time>
      </trkpt>
      <trkpt lat="43.02286667" lon="-1.23075">
        <ele>857.0</ele>
        <time>2019-08-01T08:03:57.993Z</time>
      </trkpt>
      <trkpt lat="43.022865" lon="-1.23075167">
        <ele>858.0</ele>
        <time>2019-08-01T08:03:59.001Z</time>
      </trkpt>
      <trkpt lat="43.02286167" lon="-1.23073667">
        <ele>857.0</ele>
        <time>2019-08-01T08:04:00.008Z</time>
      </trkpt>
      <trkpt lat="43.02285167" lon="-1.230735">
        <ele>856.0</ele>
        <time>2019-08-01T08:04:01.013Z</time>
      </trkpt>
      <trkpt lat="43.022845" lon="-1.230745">
        <ele>856.0</ele>
        <time>2019-08-01T08:04:02.020Z</time>
      </trkpt>
      <trkpt lat="43.02284" lon="-1.23075">
        <ele>855.0</ele>
        <time>2019-08-01T08:04:03.023Z</time>
      </trkpt>
      <trkpt lat="43.022835" lon="-1.23075">
        <ele>855.0</ele>
        <time>2019-08-01T08:04:04.031Z</time>
      </trkpt>
      <trkpt lat="43.02283167" lon="-1.23075667">
        <ele>855.0</ele>
        <time>2019-08-01T08:04:05.039Z</time>
      </trkpt>
      <trkpt lat="43.02283167" lon="-1.23075667">
        <ele>855.0</ele>
        <time>2019-08-01T08:04:05.921Z</time>
      </trkpt>
      <trkpt lat="43.02283167" lon="-1.23077333">
        <ele>856.0</ele>
        <time>2019-08-01T08:04:06.926Z</time>
      </trkpt>
      <trkpt lat="43.02283" lon="-1.23079">
        <ele>858.0</ele>
        <time>2019-08-01T08:04:07.931Z</time>
      </trkpt>
      <trkpt lat="43.02283" lon="-1.23080167">
        <ele>859.0</ele>
        <time>2019-08-01T08:04:08.934Z</time>
      </trkpt>
      <trkpt lat="43.02282667" lon="-1.23082">
        <ele>859.0</ele>
        <time>2019-08-01T08:04:09.938Z</time>
      </trkpt>
      <trkpt lat="43.02282333" lon="-1.230835">
        <ele>859.0</ele>
        <time>2019-08-01T08:04:10.945Z</time>
      </trkpt>
      <trkpt lat="43.02281833" lon="-1.23084667">
        <ele>858.0</ele>
        <time>2019-08-01T08:04:11.950Z</time>
      </trkpt>
      <trkpt lat="43.02281167" lon="-1.23084667">
        <ele>857.0</ele>
        <time>2019-08-01T08:04:12.955Z</time>
      </trkpt>
      <trkpt lat="43.02280167" lon="-1.23086">
        <ele>856.0</ele>
        <time>2019-08-01T08:04:13.962Z</time>
      </trkpt>
      <trkpt lat="43.02279333" lon="-1.23086833">
        <ele>857.0</ele>
        <time>2019-08-01T08:04:14.966Z</time>
      </trkpt>
      <trkpt lat="43.022795" lon="-1.230875">
        <ele>859.0</ele>
        <time>2019-08-01T08:04:15.972Z</time>
      </trkpt>
      <trkpt lat="43.02280333" lon="-1.23088167">
        <ele>861.0</ele>
        <time>2019-08-01T08:04:16.977Z</time>
      </trkpt>
      <trkpt lat="43.02281" lon="-1.23089167">
        <ele>863.0</ele>
        <time>2019-08-01T08:04:17.983Z</time>
      </trkpt>
      <trkpt lat="43.02281667" lon="-1.230905">
        <ele>863.0</ele>
        <time>2019-08-01T08:04:18.988Z</time>
      </trkpt>
      <trkpt lat="43.02282167" lon="-1.23092667">
        <ele>862.0</ele>
        <time>2019-08-01T08:04:19.995Z</time>
      </trkpt>
      <trkpt lat="43.02282833" lon="-1.23094333">
        <ele>861.0</ele>
        <time>2019-08-01T08:04:21.001Z</time>
      </trkpt>
      <trkpt lat="43.02283667" lon="-1.23095">
        <ele>860.0</ele>
        <time>2019-08-01T08:04:22.006Z</time>
      </trkpt>
      <trkpt lat="43.02283833" lon="-1.23098833">
        <ele>859.0</ele>
        <time>2019-08-01T08:04:23.011Z</time>
      </trkpt>
      <trkpt lat="43.02283833" lon="-1.230995">
        <ele>858.0</ele>
        <time>2019-08-01T08:04:24.014Z</time>
      </trkpt>
      <trkpt lat="43.02282333" lon="-1.230975">
        <ele>858.0</ele>
        <time>2019-08-01T08:04:25.020Z</time>
      </trkpt>
      <trkpt lat="43.02282" lon="-1.23097833">
        <ele>857.0</ele>
        <time>2019-08-01T08:04:26.026Z</time>
      </trkpt>
      <trkpt lat="43.02282" lon="-1.23099">
        <ele>856.0</ele>
        <time>2019-08-01T08:04:27.032Z</time>
      </trkpt>
      <trkpt lat="43.02283" lon="-1.231015">
        <ele>855.0</ele>
        <time>2019-08-01T08:04:28.037Z</time>
      </trkpt>
      <trkpt lat="43.02283333" lon="-1.23104">
        <ele>855.0</ele>
        <time>2019-08-01T08:04:29.041Z</time>
      </trkpt>
      <trkpt lat="43.02283333" lon="-1.23104">
        <ele>855.0</ele>
        <time>2019-08-01T08:04:29.922Z</time>
      </trkpt>
      <trkpt lat="43.02283333" lon="-1.23107">
        <ele>854.0</ele>
        <time>2019-08-01T08:04:30.928Z</time>
      </trkpt>
      <trkpt lat="43.02283" lon="-1.2311">
        <ele>854.0</ele>
        <time>2019-08-01T08:04:31.935Z</time>
      </trkpt>
      <trkpt lat="43.02282667" lon="-1.23110167">
        <ele>854.0</ele>
        <time>2019-08-01T08:04:32.940Z</time>
      </trkpt>
      <trkpt lat="43.02282833" lon="-1.2311">
        <ele>853.0</ele>
        <time>2019-08-01T08:04:33.945Z</time>
      </trkpt>
      <trkpt lat="43.02283667" lon="-1.23106833">
        <ele>852.0</ele>
        <time>2019-08-01T08:04:34.952Z</time>
      </trkpt>
      <trkpt lat="43.02283833" lon="-1.23105833">
        <ele>851.0</ele>
        <time>2019-08-01T08:04:35.957Z</time>
      </trkpt>
      <trkpt lat="43.022835" lon="-1.23104667">
        <ele>851.0</ele>
        <time>2019-08-01T08:04:36.965Z</time>
      </trkpt>
      <trkpt lat="43.02282667" lon="-1.23103667">
        <ele>851.0</ele>
        <time>2019-08-01T08:04:37.970Z</time>
      </trkpt>
      <trkpt lat="43.02282167" lon="-1.23104">
        <ele>851.0</ele>
        <time>2019-08-01T08:04:38.977Z</time>
      </trkpt>
      <trkpt lat="43.02282" lon="-1.23104167">
        <ele>851.0</ele>
        <time>2019-08-01T08:04:39.982Z</time>
      </trkpt>
      <trkpt lat="43.02282" lon="-1.231045">
        <ele>852.0</ele>
        <time>2019-08-01T08:04:40.989Z</time>
      </trkpt>
      <trkpt lat="43.02282167" lon="-1.23104">
        <ele>852.0</ele>
        <time>2019-08-01T08:04:41.995Z</time>
      </trkpt>
      <trkpt lat="43.02282" lon="-1.23103167">
        <ele>852.0</ele>
        <time>2019-08-01T08:04:42.999Z</time>
      </trkpt>
      <trkpt lat="43.02281667" lon="-1.23094">
        <ele>852.0</ele>
        <time>2019-08-01T08:04:44.005Z</time>
      </trkpt>
      <trkpt lat="43.02281667" lon="-1.230895">
        <ele>853.0</ele>
        <time>2019-08-01T08:04:45.010Z</time>
      </trkpt>
      <trkpt lat="43.02282333" lon="-1.23089">
        <ele>854.0</ele>
        <time>2019-08-01T08:04:46.016Z</time>
      </trkpt>
      <trkpt lat="43.02282833" lon="-1.23089667">
        <ele>853.0</ele>
        <time>2019-08-01T08:04:47.022Z</time>
      </trkpt>
      <trkpt lat="43.02283" lon="-1.23091">
        <ele>852.0</ele>
        <time>2019-08-01T08:04:48.027Z</time>
      </trkpt>
      <trkpt lat="43.02283167" lon="-1.23090333">
        <ele>852.0</ele>
        <time>2019-08-01T08:04:49.033Z</time>
      </trkpt>
      <trkpt lat="43.022825" lon="-1.23094667">
        <ele>852.0</ele>
        <time>2019-08-01T08:04:50.037Z</time>
      </trkpt>
      <trkpt lat="43.022825" lon="-1.23094667">
        <ele>852.0</ele>
        <time>2019-08-01T08:04:50.918Z</time>
      </trkpt>
      <trkpt lat="43.022825" lon="-1.23099333">
        <ele>854.0</ele>
        <time>2019-08-01T08:04:51.924Z</time>
      </trkpt>
      <trkpt lat="43.02282833" lon="-1.23100167">
        <ele>855.0</ele>
        <time>2019-08-01T08:04:52.928Z</time>
      </trkpt>
      <trkpt lat="43.02283833" lon="-1.23100167">
        <ele>858.0</ele>
        <time>2019-08-01T08:04:53.933Z</time>
      </trkpt>
      <trkpt lat="43.02285167" lon="-1.23099333">
        <ele>860.0</ele>
        <time>2019-08-01T08:04:54.937Z</time>
      </trkpt>
      <trkpt lat="43.022855" lon="-1.23101333">
        <ele>863.0</ele>
        <time>2019-08-01T08:04:55.944Z</time>
      </trkpt>
      <trkpt lat="43.02285833" lon="-1.23103">
        <ele>865.0</ele>
        <time>2019-08-01T08:04:56.949Z</time>
      </trkpt>
      <trkpt lat="43.02285167" lon="-1.23105833">
        <ele>866.0</ele>
        <time>2019-08-01T08:04:57.957Z</time>
      </trkpt>
      <trkpt lat="43.02284667" lon="-1.231085">
        <ele>866.0</ele>
        <time>2019-08-01T08:04:58.965Z</time>
      </trkpt>
      <trkpt lat="43.02283667" lon="-1.23112">
        <ele>866.0</ele>
        <time>2019-08-01T08:04:59.972Z</time>
      </trkpt>
      <trkpt lat="43.02282667" lon="-1.23113167">
        <ele>865.0</ele>
        <time>2019-08-01T08:05:00.979Z</time>
      </trkpt>
      <trkpt lat="43.02282167" lon="-1.23111833">
        <ele>865.0</ele>
        <time>2019-08-01T08:05:01.985Z</time>
      </trkpt>
      <trkpt lat="43.02281333" lon="-1.23111">
        <ele>864.0</ele>
        <time>2019-08-01T08:05:02.992Z</time>
      </trkpt>
      <trkpt lat="43.022805" lon="-1.231105">
        <ele>864.0</ele>
        <time>2019-08-01T08:05:03.997Z</time>
      </trkpt>
      <trkpt lat="43.02279333" lon="-1.23110667">
        <ele>864.0</ele>
        <time>2019-08-01T08:05:05.004Z</time>
      </trkpt>
      <trkpt lat="43.02277" lon="-1.23110667">
        <ele>864.0</ele>
        <time>2019-08-01T08:05:06.011Z</time>
      </trkpt>
      <trkpt lat="43.02275667" lon="-1.23110667">
        <ele>864.0</ele>
        <time>2019-08-01T08:05:07.016Z</time>
      </trkpt>
      <trkpt lat="43.02274333" lon="-1.23110833">
        <ele>863.0</ele>
        <time>2019-08-01T08:05:08.021Z</time>
      </trkpt>
      <trkpt lat="43.02272667" lon="-1.231115">
        <ele>862.0</ele>
        <time>2019-08-01T08:05:09.026Z</time>
      </trkpt>
      <trkpt lat="43.02270667" lon="-1.23112">
        <ele>861.0</ele>
        <time>2019-08-01T08:05:10.031Z</time>
      </trkpt>
      <trkpt lat="43.02269" lon="-1.23112333">
        <ele>861.0</ele>
        <time>2019-08-01T08:05:11.037Z</time>
      </trkpt>
      <trkpt lat="43.02269" lon="-1.23112333">
        <ele>861.0</ele>
        <time>2019-08-01T08:05:11.918Z</time>
      </trkpt>
      <trkpt lat="43.02267667" lon="-1.23112167">
        <ele>860.0</ele>
        <time>2019-08-01T08:05:12.924Z</time>
      </trkpt>
      <trkpt lat="43.02266833" lon="-1.23111833">
        <ele>859.0</ele>
        <time>2019-08-01T08:05:13.926Z</time>
      </trkpt>
      <trkpt lat="43.02267167" lon="-1.23111167">
        <ele>857.0</ele>
        <time>2019-08-01T08:05:14.932Z</time>
      </trkpt>
      <trkpt lat="43.02267" lon="-1.23110833">
        <ele>856.0</ele>
        <time>2019-08-01T08:05:15.940Z</time>
      </trkpt>
      <trkpt lat="43.02266167" lon="-1.23111333">
        <ele>854.0</ele>
        <time>2019-08-01T08:05:16.946Z</time>
      </trkpt>
      <trkpt lat="43.02265167" lon="-1.23111833">
        <ele>853.0</ele>
        <time>2019-08-01T08:05:17.953Z</time>
      </trkpt>
      <trkpt lat="43.02263833" lon="-1.231125">
        <ele>853.0</ele>
        <time>2019-08-01T08:05:18.960Z</time>
      </trkpt>
      <trkpt lat="43.02262667" lon="-1.23114">
        <ele>852.0</ele>
        <time>2019-08-01T08:05:19.966Z</time>
      </trkpt>
      <trkpt lat="43.02262" lon="-1.23116167">
        <ele>850.0</ele>
        <time>2019-08-01T08:05:20.972Z</time>
      </trkpt>
      <trkpt lat="43.02262333" lon="-1.23117833">
        <ele>849.0</ele>
        <time>2019-08-01T08:05:21.977Z</time>
      </trkpt>
      <trkpt lat="43.022625" lon="-1.23119333">
        <ele>849.0</ele>
        <time>2019-08-01T08:05:22.985Z</time>
      </trkpt>
      <trkpt lat="43.02262667" lon="-1.23119833">
        <ele>849.0</ele>
        <time>2019-08-01T08:05:23.989Z</time>
      </trkpt>
      <trkpt lat="43.02262667" lon="-1.23120167">
        <ele>848.0</ele>
        <time>2019-08-01T08:05:24.992Z</time>
      </trkpt>
      <trkpt lat="43.02262333" lon="-1.231205">
        <ele>848.0</ele>
        <time>2019-08-01T08:05:25.996Z</time>
      </trkpt>
      <trkpt lat="43.02262167" lon="-1.231205">
        <ele>848.0</ele>
        <time>2019-08-01T08:05:27.001Z</time>
      </trkpt>
      <trkpt lat="43.02261833" lon="-1.23120833">
        <ele>847.0</ele>
        <time>2019-08-01T08:05:28.007Z</time>
      </trkpt>
      <trkpt lat="43.02261833" lon="-1.231215">
        <ele>846.0</ele>
        <time>2019-08-01T08:05:29.015Z</time>
      </trkpt>
      <trkpt lat="43.02262" lon="-1.23121">
        <ele>845.0</ele>
        <time>2019-08-01T08:05:30.021Z</time>
      </trkpt>
      <trkpt lat="43.02262167" lon="-1.23121">
        <ele>846.0</ele>
        <time>2019-08-01T08:05:31.027Z</time>
      </trkpt>
      <trkpt lat="43.02262333" lon="-1.23121167">
        <ele>846.0</ele>
        <time>2019-08-01T08:05:32.034Z</time>
      </trkpt>
      <trkpt lat="43.02262167" lon="-1.23122167">
        <ele>845.0</ele>
        <time>2019-08-01T08:05:33.041Z</time>
      </trkpt>
      <trkpt lat="43.02262167" lon="-1.23122167">
        <ele>845.0</ele>
        <time>2019-08-01T08:05:33.921Z</time>
      </trkpt>
      <trkpt lat="43.02262333" lon="-1.23124333">
        <ele>845.0</ele>
        <time>2019-08-01T08:05:34.926Z</time>
      </trkpt>
      <trkpt lat="43.02262833" lon="-1.23125667">
        <ele>845.0</ele>
        <time>2019-08-01T08:05:35.931Z</time>
      </trkpt>
      <trkpt lat="43.022635" lon="-1.23126667">
        <ele>845.0</ele>
        <time>2019-08-01T08:05:36.938Z</time>
      </trkpt>
      <trkpt lat="43.022645" lon="-1.23127833">
        <ele>845.0</ele>
        <time>2019-08-01T08:05:37.944Z</time>
      </trkpt>
      <trkpt lat="43.02265833" lon="-1.23129333">
        <ele>845.0</ele>
        <time>2019-08-01T08:05:38.950Z</time>
      </trkpt>
      <trkpt lat="43.02267" lon="-1.231305">
        <ele>846.0</ele>
        <time>2019-08-01T08:05:39.956Z</time>
      </trkpt>
      <trkpt lat="43.02268167" lon="-1.23131333">
        <ele>846.0</ele>
        <time>2019-08-01T08:05:40.962Z</time>
      </trkpt>
      <trkpt lat="43.02269333" lon="-1.23131833">
        <ele>847.0</ele>
        <time>2019-08-01T08:05:41.968Z</time>
      </trkpt>
      <trkpt lat="43.02271" lon="-1.23132667">
        <ele>847.0</ele>
        <time>2019-08-01T08:05:42.973Z</time>
      </trkpt>
      <trkpt lat="43.02272667" lon="-1.23133833">
        <ele>847.0</ele>
        <time>2019-08-01T08:05:43.980Z</time>
      </trkpt>
      <trkpt lat="43.02274" lon="-1.23135167">
        <ele>847.0</ele>
        <time>2019-08-01T08:05:44.987Z</time>
      </trkpt>
      <trkpt lat="43.02275333" lon="-1.23136333">
        <ele>847.0</ele>
        <time>2019-08-01T08:05:45.993Z</time>
      </trkpt>
      <trkpt lat="43.02276667" lon="-1.23137833">
        <ele>847.0</ele>
        <time>2019-08-01T08:05:46.999Z</time>
      </trkpt>
      <trkpt lat="43.02278" lon="-1.23139167">
        <ele>847.0</ele>
        <time>2019-08-01T08:05:48.007Z</time>
      </trkpt>
      <trkpt lat="43.022815" lon="-1.23142333">
        <ele>847.0</ele>
        <time>2019-08-01T08:05:49.013Z</time>
      </trkpt>
      <trkpt lat="43.02282333" lon="-1.231435">
        <ele>847.0</ele>
        <time>2019-08-01T08:05:50.021Z</time>
      </trkpt>
      <trkpt lat="43.02283333" lon="-1.23145">
        <ele>847.0</ele>
        <time>2019-08-01T08:05:51.025Z</time>
      </trkpt>
      <trkpt lat="43.02284667" lon="-1.23146167">
        <ele>846.0</ele>
        <time>2019-08-01T08:05:52.028Z</time>
      </trkpt>
      <trkpt lat="43.02286167" lon="-1.23147333">
        <ele>846.0</ele>
        <time>2019-08-01T08:05:53.034Z</time>
      </trkpt>
      <trkpt lat="43.02287667" lon="-1.23148333">
        <ele>846.0</ele>
        <time>2019-08-01T08:05:54.039Z</time>
      </trkpt>
      <trkpt lat="43.02287667" lon="-1.23148333">
        <ele>846.0</ele>
        <time>2019-08-01T08:05:54.921Z</time>
      </trkpt>
      <trkpt lat="43.02289333" lon="-1.23149333">
        <ele>846.0</ele>
        <time>2019-08-01T08:05:55.926Z</time>
      </trkpt>
      <trkpt lat="43.02290833" lon="-1.23150667">
        <ele>846.0</ele>
        <time>2019-08-01T08:05:56.933Z</time>
      </trkpt>
      <trkpt lat="43.02291833" lon="-1.231515">
        <ele>846.0</ele>
        <time>2019-08-01T08:05:57.937Z</time>
      </trkpt>
      <trkpt lat="43.02292833" lon="-1.231525">
        <ele>846.0</ele>
        <time>2019-08-01T08:05:58.943Z</time>
      </trkpt>
      <trkpt lat="43.02293333" lon="-1.231535">
        <ele>846.0</ele>
        <time>2019-08-01T08:05:59.950Z</time>
      </trkpt>
      <trkpt lat="43.02294167" lon="-1.231545">
        <ele>845.0</ele>
        <time>2019-08-01T08:06:00.958Z</time>
      </trkpt>
      <trkpt lat="43.02294667" lon="-1.23154667">
        <ele>845.0</ele>
        <time>2019-08-01T08:06:01.963Z</time>
      </trkpt>
      <trkpt lat="43.02295167" lon="-1.23154833">
        <ele>845.0</ele>
        <time>2019-08-01T08:06:02.969Z</time>
      </trkpt>
      <trkpt lat="43.022955" lon="-1.23155">
        <ele>844.0</ele>
        <time>2019-08-01T08:06:03.973Z</time>
      </trkpt>
      <trkpt lat="43.02296" lon="-1.23155333">
        <ele>844.0</ele>
        <time>2019-08-01T08:06:04.977Z</time>
      </trkpt>
      <trkpt lat="43.02296667" lon="-1.23155667">
        <ele>844.0</ele>
        <time>2019-08-01T08:06:05.982Z</time>
      </trkpt>
      <trkpt lat="43.022975" lon="-1.23156">
        <ele>843.0</ele>
        <time>2019-08-01T08:06:06.988Z</time>
      </trkpt>
      <trkpt lat="43.02298667" lon="-1.23156667">
        <ele>843.0</ele>
        <time>2019-08-01T08:06:07.992Z</time>
      </trkpt>
      <trkpt lat="43.02299333" lon="-1.231575">
        <ele>843.0</ele>
        <time>2019-08-01T08:06:08.997Z</time>
      </trkpt>
      <trkpt lat="43.023005" lon="-1.23157833">
        <ele>843.0</ele>
        <time>2019-08-01T08:06:10.001Z</time>
      </trkpt>
      <trkpt lat="43.02301667" lon="-1.23158167">
        <ele>843.0</ele>
        <time>2019-08-01T08:06:11.007Z</time>
      </trkpt>
      <trkpt lat="43.02302667" lon="-1.23159167">
        <ele>842.0</ele>
        <time>2019-08-01T08:06:12.011Z</time>
      </trkpt>
      <trkpt lat="43.023045" lon="-1.231615">
        <ele>842.0</ele>
        <time>2019-08-01T08:06:13.017Z</time>
      </trkpt>
      <trkpt lat="43.02304667" lon="-1.23162667">
        <ele>842.0</ele>
        <time>2019-08-01T08:06:14.023Z</time>
      </trkpt>
      <trkpt lat="43.02305" lon="-1.231635">
        <ele>842.0</ele>
        <time>2019-08-01T08:06:15.030Z</time>
      </trkpt>
      <trkpt lat="43.023055" lon="-1.23164833">
        <ele>843.0</ele>
        <time>2019-08-01T08:06:16.037Z</time>
      </trkpt>
      <trkpt lat="43.02306333" lon="-1.23166">
        <ele>843.0</ele>
        <time>2019-08-01T08:06:17.043Z</time>
      </trkpt>
      <trkpt lat="43.02306333" lon="-1.23166">
        <ele>843.0</ele>
        <time>2019-08-01T08:06:17.924Z</time>
      </trkpt>
      <trkpt lat="43.02307333" lon="-1.231675">
        <ele>843.0</ele>
        <time>2019-08-01T08:06:18.929Z</time>
      </trkpt>
      <trkpt lat="43.02308167" lon="-1.23168333">
        <ele>844.0</ele>
        <time>2019-08-01T08:06:19.933Z</time>
      </trkpt>
      <trkpt lat="43.02309167" lon="-1.23169833">
        <ele>844.0</ele>
        <time>2019-08-01T08:06:20.936Z</time>
      </trkpt>
      <trkpt lat="43.02309833" lon="-1.23170833">
        <ele>844.0</ele>
        <time>2019-08-01T08:06:21.943Z</time>
      </trkpt>
      <trkpt lat="43.02311167" lon="-1.23171833">
        <ele>845.0</ele>
        <time>2019-08-01T08:06:22.949Z</time>
      </trkpt>
      <trkpt lat="43.02312667" lon="-1.23172333">
        <ele>845.0</ele>
        <time>2019-08-01T08:06:23.955Z</time>
      </trkpt>
      <trkpt lat="43.02313833" lon="-1.23172833">
        <ele>845.0</ele>
        <time>2019-08-01T08:06:24.959Z</time>
      </trkpt>
      <trkpt lat="43.02315167" lon="-1.23173833">
        <ele>845.0</ele>
        <time>2019-08-01T08:06:25.965Z</time>
      </trkpt>
      <trkpt lat="43.02316667" lon="-1.23175167">
        <ele>845.0</ele>
        <time>2019-08-01T08:06:26.970Z</time>
      </trkpt>
      <trkpt lat="43.02318" lon="-1.23176167">
        <ele>845.0</ele>
        <time>2019-08-01T08:06:27.977Z</time>
      </trkpt>
      <trkpt lat="43.02319167" lon="-1.23177333">
        <ele>845.0</ele>
        <time>2019-08-01T08:06:28.983Z</time>
      </trkpt>
      <trkpt lat="43.02320167" lon="-1.23178833">
        <ele>845.0</ele>
        <time>2019-08-01T08:06:29.989Z</time>
      </trkpt>
      <trkpt lat="43.02321" lon="-1.23180667">
        <ele>845.0</ele>
        <time>2019-08-01T08:06:30.993Z</time>
      </trkpt>
      <trkpt lat="43.02321833" lon="-1.23183">
        <ele>845.0</ele>
        <time>2019-08-01T08:06:31.999Z</time>
      </trkpt>
      <trkpt lat="43.02322833" lon="-1.23185167">
        <ele>845.0</ele>
        <time>2019-08-01T08:06:33.006Z</time>
      </trkpt>
      <trkpt lat="43.02323833" lon="-1.231865">
        <ele>845.0</ele>
        <time>2019-08-01T08:06:34.011Z</time>
      </trkpt>
      <trkpt lat="43.023265" lon="-1.231885">
        <ele>845.0</ele>
        <time>2019-08-01T08:06:35.015Z</time>
      </trkpt>
      <trkpt lat="43.02327833" lon="-1.2319">
        <ele>846.0</ele>
        <time>2019-08-01T08:06:36.020Z</time>
      </trkpt>
      <trkpt lat="43.02329" lon="-1.23191333">
        <ele>846.0</ele>
        <time>2019-08-01T08:06:37.025Z</time>
      </trkpt>
      <trkpt lat="43.02330667" lon="-1.23192667">
        <ele>847.0</ele>
        <time>2019-08-01T08:06:38.032Z</time>
      </trkpt>
      <trkpt lat="43.02332167" lon="-1.23193667">
        <ele>847.0</ele>
        <time>2019-08-01T08:06:39.037Z</time>
      </trkpt>
      <trkpt lat="43.023335" lon="-1.23195333">
        <ele>847.0</ele>
        <time>2019-08-01T08:06:40.040Z</time>
      </trkpt>
      <trkpt lat="43.023335" lon="-1.23195333">
        <ele>847.0</ele>
        <time>2019-08-01T08:06:40.919Z</time>
      </trkpt>
      <trkpt lat="43.02334833" lon="-1.231975">
        <ele>848.0</ele>
        <time>2019-08-01T08:06:41.924Z</time>
      </trkpt>
      <trkpt lat="43.02336" lon="-1.23199667">
        <ele>849.0</ele>
        <time>2019-08-01T08:06:42.930Z</time>
      </trkpt>
      <trkpt lat="43.02337333" lon="-1.232015">
        <ele>849.0</ele>
        <time>2019-08-01T08:06:43.936Z</time>
      </trkpt>
      <trkpt lat="43.02338167" lon="-1.23202833">
        <ele>851.0</ele>
        <time>2019-08-01T08:06:44.942Z</time>
      </trkpt>
      <trkpt lat="43.02339" lon="-1.23203833">
        <ele>851.0</ele>
        <time>2019-08-01T08:06:45.947Z</time>
      </trkpt>
      <trkpt lat="43.0234" lon="-1.23205">
        <ele>852.0</ele>
        <time>2019-08-01T08:06:46.954Z</time>
      </trkpt>
      <trkpt lat="43.02341167" lon="-1.23206667">
        <ele>853.0</ele>
        <time>2019-08-01T08:06:47.960Z</time>
      </trkpt>
      <trkpt lat="43.02342" lon="-1.23208333">
        <ele>854.0</ele>
        <time>2019-08-01T08:06:48.965Z</time>
      </trkpt>
      <trkpt lat="43.02342667" lon="-1.23209667">
        <ele>854.0</ele>
        <time>2019-08-01T08:06:49.969Z</time>
      </trkpt>
      <trkpt lat="43.02343667" lon="-1.232115">
        <ele>854.0</ele>
        <time>2019-08-01T08:06:50.976Z</time>
      </trkpt>
      <trkpt lat="43.023445" lon="-1.23212667">
        <ele>854.0</ele>
        <time>2019-08-01T08:06:51.982Z</time>
      </trkpt>
      <trkpt lat="43.023455" lon="-1.232145">
        <ele>853.0</ele>
        <time>2019-08-01T08:06:52.987Z</time>
      </trkpt>
      <trkpt lat="43.02346167" lon="-1.23215667">
        <ele>853.0</ele>
        <time>2019-08-01T08:06:53.992Z</time>
      </trkpt>
      <trkpt lat="43.023465" lon="-1.23217">
        <ele>853.0</ele>
        <time>2019-08-01T08:06:54.999Z</time>
      </trkpt>
      <trkpt lat="43.02347167" lon="-1.232185">
        <ele>852.0</ele>
        <time>2019-08-01T08:06:56.006Z</time>
      </trkpt>
      <trkpt lat="43.02347667" lon="-1.232205">
        <ele>852.0</ele>
        <time>2019-08-01T08:06:57.011Z</time>
      </trkpt>
      <trkpt lat="43.02348" lon="-1.23223167">
        <ele>851.0</ele>
        <time>2019-08-01T08:06:58.017Z</time>
      </trkpt>
      <trkpt lat="43.02348667" lon="-1.23224833">
        <ele>850.0</ele>
        <time>2019-08-01T08:06:59.025Z</time>
      </trkpt>
      <trkpt lat="43.02349667" lon="-1.232265">
        <ele>850.0</ele>
        <time>2019-08-01T08:07:00.030Z</time>
      </trkpt>
      <trkpt lat="43.023505" lon="-1.23228333">
        <ele>850.0</ele>
        <time>2019-08-01T08:07:01.035Z</time>
      </trkpt>
      <trkpt lat="43.02351" lon="-1.2323">
        <ele>850.0</ele>
        <time>2019-08-01T08:07:02.041Z</time>
      </trkpt>
      <trkpt lat="43.02351" lon="-1.2323">
        <ele>850.0</ele>
        <time>2019-08-01T08:07:02.923Z</time>
      </trkpt>
      <trkpt lat="43.02351333" lon="-1.23231167">
        <ele>850.0</ele>
        <time>2019-08-01T08:07:03.928Z</time>
      </trkpt>
      <trkpt lat="43.02351833" lon="-1.232325">
        <ele>850.0</ele>
        <time>2019-08-01T08:07:04.933Z</time>
      </trkpt>
      <trkpt lat="43.02352333" lon="-1.23234">
        <ele>850.0</ele>
        <time>2019-08-01T08:07:05.939Z</time>
      </trkpt>
      <trkpt lat="43.02352833" lon="-1.23235333">
        <ele>850.0</ele>
        <time>2019-08-01T08:07:06.944Z</time>
      </trkpt>
      <trkpt lat="43.02353667" lon="-1.23236667">
        <ele>851.0</ele>
        <time>2019-08-01T08:07:07.951Z</time>
      </trkpt>
      <trkpt lat="43.02354167" lon="-1.23238167">
        <ele>851.0</ele>
        <time>2019-08-01T08:07:08.958Z</time>
      </trkpt>
      <trkpt lat="43.02354833" lon="-1.23240333">
        <ele>851.0</ele>
        <time>2019-08-01T08:07:09.965Z</time>
      </trkpt>
      <trkpt lat="43.023555" lon="-1.23242">
        <ele>851.0</ele>
        <time>2019-08-01T08:07:10.971Z</time>
      </trkpt>
      <trkpt lat="43.023565" lon="-1.23243833">
        <ele>851.0</ele>
        <time>2019-08-01T08:07:11.976Z</time>
      </trkpt>
      <trkpt lat="43.02357167" lon="-1.232455">
        <ele>850.0</ele>
        <time>2019-08-01T08:07:12.981Z</time>
      </trkpt>
      <trkpt lat="43.02357833" lon="-1.23246833">
        <ele>850.0</ele>
        <time>2019-08-01T08:07:13.986Z</time>
      </trkpt>
      <trkpt lat="43.02358667" lon="-1.23248">
        <ele>850.0</ele>
        <time>2019-08-01T08:07:14.992Z</time>
      </trkpt>
      <trkpt lat="43.02359667" lon="-1.232495">
        <ele>849.0</ele>
        <time>2019-08-01T08:07:15.998Z</time>
      </trkpt>
      <trkpt lat="43.02360667" lon="-1.23251">
        <ele>848.0</ele>
        <time>2019-08-01T08:07:17.003Z</time>
      </trkpt>
      <trkpt lat="43.02361833" lon="-1.23252">
        <ele>847.0</ele>
        <time>2019-08-01T08:07:18.008Z</time>
      </trkpt>
      <trkpt lat="43.023635" lon="-1.23253667">
        <ele>847.0</ele>
        <time>2019-08-01T08:07:19.011Z</time>
      </trkpt>
      <trkpt lat="43.02366333" lon="-1.232565">
        <ele>846.0</ele>
        <time>2019-08-01T08:07:20.016Z</time>
      </trkpt>
      <trkpt lat="43.02367833" lon="-1.23257833">
        <ele>846.0</ele>
        <time>2019-08-01T08:07:21.021Z</time>
      </trkpt>
      <trkpt lat="43.02369667" lon="-1.23259333">
        <ele>847.0</ele>
        <time>2019-08-01T08:07:22.027Z</time>
      </trkpt>
      <trkpt lat="43.02371667" lon="-1.2326">
        <ele>848.0</ele>
        <time>2019-08-01T08:07:23.034Z</time>
      </trkpt>
      <trkpt lat="43.023735" lon="-1.23260333">
        <ele>849.0</ele>
        <time>2019-08-01T08:07:24.039Z</time>
      </trkpt>
      <trkpt lat="43.023735" lon="-1.23260333">
        <ele>849.0</ele>
        <time>2019-08-01T08:07:24.921Z</time>
      </trkpt>
      <trkpt lat="43.02375167" lon="-1.23260167">
        <ele>850.0</ele>
        <time>2019-08-01T08:07:25.926Z</time>
      </trkpt>
      <trkpt lat="43.02376667" lon="-1.23261167">
        <ele>851.0</ele>
        <time>2019-08-01T08:07:26.932Z</time>
      </trkpt>
      <trkpt lat="43.023775" lon="-1.232625">
        <ele>851.0</ele>
        <time>2019-08-01T08:07:27.939Z</time>
      </trkpt>
      <trkpt lat="43.023785" lon="-1.23264167">
        <ele>851.0</ele>
        <time>2019-08-01T08:07:28.943Z</time>
      </trkpt>
      <trkpt lat="43.02379333" lon="-1.23266333">
        <ele>851.0</ele>
        <time>2019-08-01T08:07:29.949Z</time>
      </trkpt>
      <trkpt lat="43.02380667" lon="-1.23268167">
        <ele>851.0</ele>
        <time>2019-08-01T08:07:30.953Z</time>
      </trkpt>
      <trkpt lat="43.02382333" lon="-1.23269333">
        <ele>851.0</ele>
        <time>2019-08-01T08:07:31.959Z</time>
      </trkpt>
      <trkpt lat="43.02383833" lon="-1.23270833">
        <ele>850.0</ele>
        <time>2019-08-01T08:07:32.965Z</time>
      </trkpt>
      <trkpt lat="43.02385167" lon="-1.23271833">
        <ele>850.0</ele>
        <time>2019-08-01T08:07:33.970Z</time>
      </trkpt>
      <trkpt lat="43.023865" lon="-1.23273833">
        <ele>849.0</ele>
        <time>2019-08-01T08:07:34.977Z</time>
      </trkpt>
      <trkpt lat="43.02387167" lon="-1.23275333">
        <ele>849.0</ele>
        <time>2019-08-01T08:07:35.982Z</time>
      </trkpt>
      <trkpt lat="43.02387833" lon="-1.23276">
        <ele>850.0</ele>
        <time>2019-08-01T08:07:36.987Z</time>
      </trkpt>
      <trkpt lat="43.02389" lon="-1.23277">
        <ele>852.0</ele>
        <time>2019-08-01T08:07:37.994Z</time>
      </trkpt>
      <trkpt lat="43.02390167" lon="-1.232785">
        <ele>853.0</ele>
        <time>2019-08-01T08:07:38.998Z</time>
      </trkpt>
      <trkpt lat="43.02391333" lon="-1.23280167">
        <ele>855.0</ele>
        <time>2019-08-01T08:07:40.004Z</time>
      </trkpt>
      <trkpt lat="43.02393" lon="-1.23282333">
        <ele>857.0</ele>
        <time>2019-08-01T08:07:41.010Z</time>
      </trkpt>
      <trkpt lat="43.023945" lon="-1.23288">
        <ele>858.0</ele>
        <time>2019-08-01T08:07:42.014Z</time>
      </trkpt>
      <trkpt lat="43.023955" lon="-1.23289667">
        <ele>858.0</ele>
        <time>2019-08-01T08:07:43.019Z</time>
      </trkpt>
      <trkpt lat="43.02396" lon="-1.23290667">
        <ele>857.0</ele>
        <time>2019-08-01T08:07:44.025Z</time>
      </trkpt>
      <trkpt lat="43.02397167" lon="-1.23291833">
        <ele>858.0</ele>
        <time>2019-08-01T08:07:45.032Z</time>
      </trkpt>
      <trkpt lat="43.023985" lon="-1.23293">
        <ele>858.0</ele>
        <time>2019-08-01T08:07:46.037Z</time>
      </trkpt>
      <trkpt lat="43.023985" lon="-1.23293">
        <ele>858.0</ele>
        <time>2019-08-01T08:07:46.918Z</time>
      </trkpt>
      <trkpt lat="43.024" lon="-1.23294167">
        <ele>859.0</ele>
        <time>2019-08-01T08:07:47.924Z</time>
      </trkpt>
      <trkpt lat="43.02401333" lon="-1.23296">
        <ele>860.0</ele>
        <time>2019-08-01T08:07:48.929Z</time>
      </trkpt>
      <trkpt lat="43.02402167" lon="-1.232965">
        <ele>859.0</ele>
        <time>2019-08-01T08:07:49.935Z</time>
      </trkpt>
      <trkpt lat="43.02403333" lon="-1.23298167">
        <ele>860.0</ele>
        <time>2019-08-01T08:07:50.943Z</time>
      </trkpt>
      <trkpt lat="43.02403833" lon="-1.232995">
        <ele>861.0</ele>
        <time>2019-08-01T08:07:51.950Z</time>
      </trkpt>
      <trkpt lat="43.02404333" lon="-1.23301">
        <ele>861.0</ele>
        <time>2019-08-01T08:07:52.956Z</time>
      </trkpt>
      <trkpt lat="43.02404833" lon="-1.23301833">
        <ele>861.0</ele>
        <time>2019-08-01T08:07:53.961Z</time>
      </trkpt>
      <trkpt lat="43.02405667" lon="-1.23302833">
        <ele>861.0</ele>
        <time>2019-08-01T08:07:54.968Z</time>
      </trkpt>
      <trkpt lat="43.02406667" lon="-1.23303667">
        <ele>862.0</ele>
        <time>2019-08-01T08:07:55.975Z</time>
      </trkpt>
      <trkpt lat="43.02408" lon="-1.23304">
        <ele>862.0</ele>
        <time>2019-08-01T08:07:56.982Z</time>
      </trkpt>
      <trkpt lat="43.02410167" lon="-1.23304167">
        <ele>862.0</ele>
        <time>2019-08-01T08:07:57.989Z</time>
      </trkpt>
      <trkpt lat="43.02413" lon="-1.23303667">
        <ele>862.0</ele>
        <time>2019-08-01T08:07:58.993Z</time>
      </trkpt>
      <trkpt lat="43.02415333" lon="-1.23303667">
        <ele>862.0</ele>
        <time>2019-08-01T08:07:59.999Z</time>
      </trkpt>
      <trkpt lat="43.02416667" lon="-1.23304333">
        <ele>861.0</ele>
        <time>2019-08-01T08:08:01.005Z</time>
      </trkpt>
      <trkpt lat="43.02418167" lon="-1.23305833">
        <ele>861.0</ele>
        <time>2019-08-01T08:08:02.011Z</time>
      </trkpt>
      <trkpt lat="43.02420167" lon="-1.23307">
        <ele>861.0</ele>
        <time>2019-08-01T08:08:03.014Z</time>
      </trkpt>
      <trkpt lat="43.02422167" lon="-1.23308833">
        <ele>860.0</ele>
        <time>2019-08-01T08:08:04.017Z</time>
      </trkpt>
      <trkpt lat="43.02423667" lon="-1.2331">
        <ele>859.0</ele>
        <time>2019-08-01T08:08:05.023Z</time>
      </trkpt>
      <trkpt lat="43.02424667" lon="-1.23311">
        <ele>858.0</ele>
        <time>2019-08-01T08:08:06.029Z</time>
      </trkpt>
      <trkpt lat="43.024265" lon="-1.233125">
        <ele>857.0</ele>
        <time>2019-08-01T08:08:07.033Z</time>
      </trkpt>
      <trkpt lat="43.02428" lon="-1.23314167">
        <ele>857.0</ele>
        <time>2019-08-01T08:08:08.038Z</time>
      </trkpt>
      <trkpt lat="43.02428" lon="-1.23314167">
        <ele>857.0</ele>
        <time>2019-08-01T08:08:08.919Z</time>
      </trkpt>
      <trkpt lat="43.02429667" lon="-1.23316">
        <ele>858.0</ele>
        <time>2019-08-01T08:08:09.926Z</time>
      </trkpt>
      <trkpt lat="43.02430833" lon="-1.23318">
        <ele>860.0</ele>
        <time>2019-08-01T08:08:10.932Z</time>
      </trkpt>
      <trkpt lat="43.02432167" lon="-1.23320167">
        <ele>862.0</ele>
        <time>2019-08-01T08:08:11.939Z</time>
      </trkpt>
      <trkpt lat="43.02433" lon="-1.23322333">
        <ele>863.0</ele>
        <time>2019-08-01T08:08:12.942Z</time>
      </trkpt>
      <trkpt lat="43.02434333" lon="-1.233235">
        <ele>864.0</ele>
        <time>2019-08-01T08:08:13.948Z</time>
      </trkpt>
      <trkpt lat="43.024355" lon="-1.23324833">
        <ele>864.0</ele>
        <time>2019-08-01T08:08:14.951Z</time>
      </trkpt>
      <trkpt lat="43.02437333" lon="-1.23326167">
        <ele>865.0</ele>
        <time>2019-08-01T08:08:15.957Z</time>
      </trkpt>
      <trkpt lat="43.02438833" lon="-1.23328333">
        <ele>865.0</ele>
        <time>2019-08-01T08:08:16.964Z</time>
      </trkpt>
      <trkpt lat="43.02439667" lon="-1.23330833">
        <ele>866.0</ele>
        <time>2019-08-01T08:08:17.970Z</time>
      </trkpt>
      <trkpt lat="43.024405" lon="-1.23333">
        <ele>867.0</ele>
        <time>2019-08-01T08:08:18.977Z</time>
      </trkpt>
      <trkpt lat="43.02441333" lon="-1.23334667">
        <ele>869.0</ele>
        <time>2019-08-01T08:08:19.981Z</time>
      </trkpt>
      <trkpt lat="43.024425" lon="-1.23335667">
        <ele>870.0</ele>
        <time>2019-08-01T08:08:20.985Z</time>
      </trkpt>
      <trkpt lat="43.02443" lon="-1.23336833">
        <ele>871.0</ele>
        <time>2019-08-01T08:08:21.992Z</time>
      </trkpt>
      <trkpt lat="43.02444333" lon="-1.23338">
        <ele>872.0</ele>
        <time>2019-08-01T08:08:22.997Z</time>
      </trkpt>
      <trkpt lat="43.02445167" lon="-1.23339667">
        <ele>872.0</ele>
        <time>2019-08-01T08:08:24.000Z</time>
      </trkpt>
      <trkpt lat="43.02445833" lon="-1.23341333">
        <ele>872.0</ele>
        <time>2019-08-01T08:08:25.006Z</time>
      </trkpt>
      <trkpt lat="43.02447333" lon="-1.23342667">
        <ele>872.0</ele>
        <time>2019-08-01T08:08:26.011Z</time>
      </trkpt>
      <trkpt lat="43.02449" lon="-1.23344333">
        <ele>874.0</ele>
        <time>2019-08-01T08:08:27.015Z</time>
      </trkpt>
      <trkpt lat="43.02449667" lon="-1.23345667">
        <ele>874.0</ele>
        <time>2019-08-01T08:08:28.020Z</time>
      </trkpt>
      <trkpt lat="43.02450333" lon="-1.23346667">
        <ele>874.0</ele>
        <time>2019-08-01T08:08:29.028Z</time>
      </trkpt>
      <trkpt lat="43.02451333" lon="-1.23348">
        <ele>875.0</ele>
        <time>2019-08-01T08:08:30.033Z</time>
      </trkpt>
      <trkpt lat="43.02452833" lon="-1.23348833">
        <ele>875.0</ele>
        <time>2019-08-01T08:08:31.038Z</time>
      </trkpt>
      <trkpt lat="43.02452833" lon="-1.23348833">
        <ele>875.0</ele>
        <time>2019-08-01T08:08:31.920Z</time>
      </trkpt>
      <trkpt lat="43.024545" lon="-1.2335">
        <ele>876.0</ele>
        <time>2019-08-01T08:08:32.924Z</time>
      </trkpt>
      <trkpt lat="43.024555" lon="-1.233515">
        <ele>876.0</ele>
        <time>2019-08-01T08:08:33.928Z</time>
      </trkpt>
      <trkpt lat="43.02457" lon="-1.23353">
        <ele>877.0</ele>
        <time>2019-08-01T08:08:34.932Z</time>
      </trkpt>
      <trkpt lat="43.02458333" lon="-1.23354167">
        <ele>877.0</ele>
        <time>2019-08-01T08:08:35.939Z</time>
      </trkpt>
      <trkpt lat="43.02459333" lon="-1.23354667">
        <ele>878.0</ele>
        <time>2019-08-01T08:08:36.946Z</time>
      </trkpt>
      <trkpt lat="43.02460833" lon="-1.23355667">
        <ele>879.0</ele>
        <time>2019-08-01T08:08:37.951Z</time>
      </trkpt>
      <trkpt lat="43.02461667" lon="-1.233565">
        <ele>879.0</ele>
        <time>2019-08-01T08:08:38.959Z</time>
      </trkpt>
      <trkpt lat="43.02462667" lon="-1.23358333">
        <ele>880.0</ele>
        <time>2019-08-01T08:08:39.967Z</time>
      </trkpt>
      <trkpt lat="43.02464" lon="-1.23360833">
        <ele>883.0</ele>
        <time>2019-08-01T08:08:40.972Z</time>
      </trkpt>
      <trkpt lat="43.02465167" lon="-1.233625">
        <ele>884.0</ele>
        <time>2019-08-01T08:08:41.975Z</time>
      </trkpt>
      <trkpt lat="43.02466833" lon="-1.233645">
        <ele>884.0</ele>
        <time>2019-08-01T08:08:42.979Z</time>
      </trkpt>
      <trkpt lat="43.02467667" lon="-1.233665">
        <ele>883.0</ele>
        <time>2019-08-01T08:08:43.987Z</time>
      </trkpt>
      <trkpt lat="43.02468667" lon="-1.23367667">
        <ele>882.0</ele>
        <time>2019-08-01T08:08:44.993Z</time>
      </trkpt>
      <trkpt lat="43.02470167" lon="-1.23369167">
        <ele>882.0</ele>
        <time>2019-08-01T08:08:46.001Z</time>
      </trkpt>
      <trkpt lat="43.02471333" lon="-1.23370333">
        <ele>882.0</ele>
        <time>2019-08-01T08:08:47.008Z</time>
      </trkpt>
      <trkpt lat="43.02472833" lon="-1.23372">
        <ele>881.0</ele>
        <time>2019-08-01T08:08:48.014Z</time>
      </trkpt>
      <trkpt lat="43.02474667" lon="-1.23375">
        <ele>880.0</ele>
        <time>2019-08-01T08:08:49.019Z</time>
      </trkpt>
      <trkpt lat="43.02475333" lon="-1.23376">
        <ele>879.0</ele>
        <time>2019-08-01T08:08:50.023Z</time>
      </trkpt>
      <trkpt lat="43.02476167" lon="-1.233775">
        <ele>879.0</ele>
        <time>2019-08-01T08:08:51.028Z</time>
      </trkpt>
      <trkpt lat="43.02477" lon="-1.23378333">
        <ele>879.0</ele>
        <time>2019-08-01T08:08:52.033Z</time>
      </trkpt>
      <trkpt lat="43.02477667" lon="-1.23379833">
        <ele>878.0</ele>
        <time>2019-08-01T08:08:53.040Z</time>
      </trkpt>
      <trkpt lat="43.02477667" lon="-1.23379833">
        <ele>878.0</ele>
        <time>2019-08-01T08:08:53.918Z</time>
      </trkpt>
      <trkpt lat="43.024785" lon="-1.23381333">
        <ele>878.0</ele>
        <time>2019-08-01T08:08:54.924Z</time>
      </trkpt>
      <trkpt lat="43.02479833" lon="-1.23383333">
        <ele>878.0</ele>
        <time>2019-08-01T08:08:55.929Z</time>
      </trkpt>
      <trkpt lat="43.02481333" lon="-1.23385667">
        <ele>878.0</ele>
        <time>2019-08-01T08:08:56.936Z</time>
      </trkpt>
      <trkpt lat="43.02481833" lon="-1.23387667">
        <ele>878.0</ele>
        <time>2019-08-01T08:08:57.940Z</time>
      </trkpt>
      <trkpt lat="43.024825" lon="-1.23389333">
        <ele>879.0</ele>
        <time>2019-08-01T08:08:58.947Z</time>
      </trkpt>
      <trkpt lat="43.02483333" lon="-1.233905">
        <ele>879.0</ele>
        <time>2019-08-01T08:08:59.955Z</time>
      </trkpt>
      <trkpt lat="43.024845" lon="-1.23390833">
        <ele>880.0</ele>
        <time>2019-08-01T08:09:00.960Z</time>
      </trkpt>
      <trkpt lat="43.02485333" lon="-1.23392">
        <ele>880.0</ele>
        <time>2019-08-01T08:09:01.966Z</time>
      </trkpt>
      <trkpt lat="43.024855" lon="-1.23392667">
        <ele>880.0</ele>
        <time>2019-08-01T08:09:02.970Z</time>
      </trkpt>
      <trkpt lat="43.02486" lon="-1.23393667">
        <ele>879.0</ele>
        <time>2019-08-01T08:09:03.977Z</time>
      </trkpt>
      <trkpt lat="43.02487" lon="-1.23395333">
        <ele>879.0</ele>
        <time>2019-08-01T08:09:04.984Z</time>
      </trkpt>
      <trkpt lat="43.02487833" lon="-1.23397333">
        <ele>879.0</ele>
        <time>2019-08-01T08:09:05.991Z</time>
      </trkpt>
      <trkpt lat="43.02489167" lon="-1.23400167">
        <ele>879.0</ele>
        <time>2019-08-01T08:09:06.998Z</time>
      </trkpt>
      <trkpt lat="43.02490333" lon="-1.23401667">
        <ele>881.0</ele>
        <time>2019-08-01T08:09:08.003Z</time>
      </trkpt>
      <trkpt lat="43.02491167" lon="-1.23403667">
        <ele>882.0</ele>
        <time>2019-08-01T08:09:09.010Z</time>
      </trkpt>
      <trkpt lat="43.02493167" lon="-1.234075">
        <ele>881.0</ele>
        <time>2019-08-01T08:09:10.016Z</time>
      </trkpt>
      <trkpt lat="43.024945" lon="-1.23409333">
        <ele>882.0</ele>
        <time>2019-08-01T08:09:11.022Z</time>
      </trkpt>
      <trkpt lat="43.02495667" lon="-1.23411">
        <ele>882.0</ele>
        <time>2019-08-01T08:09:12.027Z</time>
      </trkpt>
      <trkpt lat="43.02497" lon="-1.234125">
        <ele>883.0</ele>
        <time>2019-08-01T08:09:13.031Z</time>
      </trkpt>
      <trkpt lat="43.024985" lon="-1.23414333">
        <ele>884.0</ele>
        <time>2019-08-01T08:09:14.037Z</time>
      </trkpt>
      <trkpt lat="43.024985" lon="-1.23414333">
        <ele>884.0</ele>
        <time>2019-08-01T08:09:14.918Z</time>
      </trkpt>
      <trkpt lat="43.025005" lon="-1.23416333">
        <ele>884.0</ele>
        <time>2019-08-01T08:09:15.923Z</time>
      </trkpt>
      <trkpt lat="43.02502" lon="-1.234185">
        <ele>884.0</ele>
        <time>2019-08-01T08:09:16.928Z</time>
      </trkpt>
      <trkpt lat="43.025035" lon="-1.234205">
        <ele>884.0</ele>
        <time>2019-08-01T08:09:17.932Z</time>
      </trkpt>
      <trkpt lat="43.02504667" lon="-1.23423">
        <ele>884.0</ele>
        <time>2019-08-01T08:09:18.938Z</time>
      </trkpt>
      <trkpt lat="43.02505333" lon="-1.234255">
        <ele>885.0</ele>
        <time>2019-08-01T08:09:19.943Z</time>
      </trkpt>
      <trkpt lat="43.02506333" lon="-1.234275">
        <ele>884.0</ele>
        <time>2019-08-01T08:09:20.950Z</time>
      </trkpt>
      <trkpt lat="43.02507667" lon="-1.23429">
        <ele>884.0</ele>
        <time>2019-08-01T08:09:21.956Z</time>
      </trkpt>
      <trkpt lat="43.02508833" lon="-1.23430167">
        <ele>883.0</ele>
        <time>2019-08-01T08:09:22.962Z</time>
      </trkpt>
      <trkpt lat="43.02510167" lon="-1.23431833">
        <ele>883.0</ele>
        <time>2019-08-01T08:09:23.967Z</time>
      </trkpt>
      <trkpt lat="43.02510833" lon="-1.23433">
        <ele>884.0</ele>
        <time>2019-08-01T08:09:24.972Z</time>
      </trkpt>
      <trkpt lat="43.02511667" lon="-1.23435">
        <ele>884.0</ele>
        <time>2019-08-01T08:09:25.979Z</time>
      </trkpt>
      <trkpt lat="43.025125" lon="-1.23437167">
        <ele>884.0</ele>
        <time>2019-08-01T08:09:26.985Z</time>
      </trkpt>
      <trkpt lat="43.025135" lon="-1.2344">
        <ele>883.0</ele>
        <time>2019-08-01T08:09:27.990Z</time>
      </trkpt>
      <trkpt lat="43.02514" lon="-1.23442">
        <ele>882.0</ele>
        <time>2019-08-01T08:09:28.995Z</time>
      </trkpt>
      <trkpt lat="43.02514167" lon="-1.23444167">
        <ele>881.0</ele>
        <time>2019-08-01T08:09:29.998Z</time>
      </trkpt>
      <trkpt lat="43.02514333" lon="-1.234455">
        <ele>879.0</ele>
        <time>2019-08-01T08:09:31.005Z</time>
      </trkpt>
      <trkpt lat="43.02514667" lon="-1.23446667">
        <ele>878.0</ele>
        <time>2019-08-01T08:09:32.010Z</time>
      </trkpt>
      <trkpt lat="43.025165" lon="-1.23449167">
        <ele>877.0</ele>
        <time>2019-08-01T08:09:33.014Z</time>
      </trkpt>
      <trkpt lat="43.025175" lon="-1.2345">
        <ele>876.0</ele>
        <time>2019-08-01T08:09:34.019Z</time>
      </trkpt>
      <trkpt lat="43.02518167" lon="-1.23451167">
        <ele>876.0</ele>
        <time>2019-08-01T08:09:35.025Z</time>
      </trkpt>
      <trkpt lat="43.02518167" lon="-1.23451167">
        <ele>876.0</ele>
        <time>2019-08-01T08:09:36.033Z</time>
      </trkpt>
      <trkpt lat="43.02519333" lon="-1.23454">
        <ele>874.0</ele>
        <time>2019-08-01T08:09:37.037Z</time>
      </trkpt>
      <trkpt lat="43.02519333" lon="-1.23454">
        <ele>874.0</ele>
        <time>2019-08-01T08:09:37.918Z</time>
      </trkpt>
      <trkpt lat="43.02519833" lon="-1.23455833">
        <ele>873.0</ele>
        <time>2019-08-01T08:09:38.924Z</time>
      </trkpt>
      <trkpt lat="43.02520667" lon="-1.23457833">
        <ele>872.0</ele>
        <time>2019-08-01T08:09:39.930Z</time>
      </trkpt>
      <trkpt lat="43.02521833" lon="-1.23459667">
        <ele>872.0</ele>
        <time>2019-08-01T08:09:40.937Z</time>
      </trkpt>
      <trkpt lat="43.02522667" lon="-1.23461667">
        <ele>871.0</ele>
        <time>2019-08-01T08:09:41.943Z</time>
      </trkpt>
      <trkpt lat="43.02523333" lon="-1.23463667">
        <ele>870.0</ele>
        <time>2019-08-01T08:09:42.950Z</time>
      </trkpt>
      <trkpt lat="43.02524833" lon="-1.23465833">
        <ele>870.0</ele>
        <time>2019-08-01T08:09:43.955Z</time>
      </trkpt>
      <trkpt lat="43.02526333" lon="-1.23467167">
        <ele>870.0</ele>
        <time>2019-08-01T08:09:44.960Z</time>
      </trkpt>
      <trkpt lat="43.02528" lon="-1.23468667">
        <ele>871.0</ele>
        <time>2019-08-01T08:09:45.967Z</time>
      </trkpt>
      <trkpt lat="43.02529" lon="-1.23470167">
        <ele>871.0</ele>
        <time>2019-08-01T08:09:46.973Z</time>
      </trkpt>
      <trkpt lat="43.0253" lon="-1.23471333">
        <ele>871.0</ele>
        <time>2019-08-01T08:09:47.978Z</time>
      </trkpt>
      <trkpt lat="43.02530167" lon="-1.23472333">
        <ele>871.0</ele>
        <time>2019-08-01T08:09:48.984Z</time>
      </trkpt>
      <trkpt lat="43.02530333" lon="-1.23473167">
        <ele>872.0</ele>
        <time>2019-08-01T08:09:49.990Z</time>
      </trkpt>
      <trkpt lat="43.02530667" lon="-1.23474167">
        <ele>872.0</ele>
        <time>2019-08-01T08:09:50.996Z</time>
      </trkpt>
      <trkpt lat="43.02531667" lon="-1.23475667">
        <ele>872.0</ele>
        <time>2019-08-01T08:09:52.003Z</time>
      </trkpt>
      <trkpt lat="43.02532833" lon="-1.234775">
        <ele>873.0</ele>
        <time>2019-08-01T08:09:53.010Z</time>
      </trkpt>
      <trkpt lat="43.02534333" lon="-1.23479">
        <ele>873.0</ele>
        <time>2019-08-01T08:09:54.014Z</time>
      </trkpt>
      <trkpt lat="43.02536333" lon="-1.23481667">
        <ele>875.0</ele>
        <time>2019-08-01T08:09:55.019Z</time>
      </trkpt>
      <trkpt lat="43.02537333" lon="-1.23483667">
        <ele>876.0</ele>
        <time>2019-08-01T08:09:56.023Z</time>
      </trkpt>
      <trkpt lat="43.02538167" lon="-1.23486167">
        <ele>877.0</ele>
        <time>2019-08-01T08:09:57.030Z</time>
      </trkpt>
      <trkpt lat="43.02538667" lon="-1.234885">
        <ele>878.0</ele>
        <time>2019-08-01T08:09:58.035Z</time>
      </trkpt>
      <trkpt lat="43.02539167" lon="-1.234905">
        <ele>879.0</ele>
        <time>2019-08-01T08:09:59.041Z</time>
      </trkpt>
      <trkpt lat="43.02539167" lon="-1.234905">
        <ele>879.0</ele>
        <time>2019-08-01T08:09:59.922Z</time>
      </trkpt>
      <trkpt lat="43.02539333" lon="-1.23491833">
        <ele>879.0</ele>
        <time>2019-08-01T08:10:00.927Z</time>
      </trkpt>
      <trkpt lat="43.02540333" lon="-1.23493">
        <ele>880.0</ele>
        <time>2019-08-01T08:10:01.932Z</time>
      </trkpt>
      <trkpt lat="43.02540833" lon="-1.234945">
        <ele>881.0</ele>
        <time>2019-08-01T08:10:02.939Z</time>
      </trkpt>
      <trkpt lat="43.02541333" lon="-1.23495333">
        <ele>882.0</ele>
        <time>2019-08-01T08:10:03.947Z</time>
      </trkpt>
      <trkpt lat="43.02542167" lon="-1.23496833">
        <ele>882.0</ele>
        <time>2019-08-01T08:10:04.954Z</time>
      </trkpt>
      <trkpt lat="43.02543" lon="-1.23498">
        <ele>883.0</ele>
        <time>2019-08-01T08:10:05.961Z</time>
      </trkpt>
      <trkpt lat="43.02543833" lon="-1.23498833">
        <ele>883.0</ele>
        <time>2019-08-01T08:10:06.966Z</time>
      </trkpt>
      <trkpt lat="43.025445" lon="-1.23500333">
        <ele>883.0</ele>
        <time>2019-08-01T08:10:07.970Z</time>
      </trkpt>
      <trkpt lat="43.02545333" lon="-1.23501">
        <ele>883.0</ele>
        <time>2019-08-01T08:10:08.976Z</time>
      </trkpt>
      <trkpt lat="43.02546" lon="-1.23502167">
        <ele>882.0</ele>
        <time>2019-08-01T08:10:09.980Z</time>
      </trkpt>
      <trkpt lat="43.02547" lon="-1.23503167">
        <ele>882.0</ele>
        <time>2019-08-01T08:10:10.985Z</time>
      </trkpt>
      <trkpt lat="43.02548" lon="-1.235045">
        <ele>881.0</ele>
        <time>2019-08-01T08:10:11.991Z</time>
      </trkpt>
      <trkpt lat="43.02549167" lon="-1.23506333">
        <ele>881.0</ele>
        <time>2019-08-01T08:10:12.998Z</time>
      </trkpt>
      <trkpt lat="43.02550333" lon="-1.23508333">
        <ele>881.0</ele>
        <time>2019-08-01T08:10:14.003Z</time>
      </trkpt>
      <trkpt lat="43.02551167" lon="-1.23509667">
        <ele>880.0</ele>
        <time>2019-08-01T08:10:15.007Z</time>
      </trkpt>
      <trkpt lat="43.025525" lon="-1.235115">
        <ele>880.0</ele>
        <time>2019-08-01T08:10:16.011Z</time>
      </trkpt>
      <trkpt lat="43.02553667" lon="-1.23513167">
        <ele>880.0</ele>
        <time>2019-08-01T08:10:17.016Z</time>
      </trkpt>
      <trkpt lat="43.02555" lon="-1.23516">
        <ele>880.0</ele>
        <time>2019-08-01T08:10:18.021Z</time>
      </trkpt>
      <trkpt lat="43.02555833" lon="-1.23517333">
        <ele>880.0</ele>
        <time>2019-08-01T08:10:19.027Z</time>
      </trkpt>
      <trkpt lat="43.02556833" lon="-1.23518667">
        <ele>879.0</ele>
        <time>2019-08-01T08:10:20.033Z</time>
      </trkpt>
      <trkpt lat="43.02558" lon="-1.23519667">
        <ele>879.0</ele>
        <time>2019-08-01T08:10:21.039Z</time>
      </trkpt>
      <trkpt lat="43.02558" lon="-1.23519667">
        <ele>879.0</ele>
        <time>2019-08-01T08:10:21.919Z</time>
      </trkpt>
      <trkpt lat="43.02559" lon="-1.23521">
        <ele>879.0</ele>
        <time>2019-08-01T08:10:22.926Z</time>
      </trkpt>
      <trkpt lat="43.02560167" lon="-1.23522">
        <ele>878.0</ele>
        <time>2019-08-01T08:10:23.932Z</time>
      </trkpt>
      <trkpt lat="43.02561" lon="-1.235225">
        <ele>877.0</ele>
        <time>2019-08-01T08:10:24.939Z</time>
      </trkpt>
      <trkpt lat="43.025625" lon="-1.23523">
        <ele>877.0</ele>
        <time>2019-08-01T08:10:25.945Z</time>
      </trkpt>
      <trkpt lat="43.02564167" lon="-1.23523833">
        <ele>878.0</ele>
        <time>2019-08-01T08:10:26.953Z</time>
      </trkpt>
      <trkpt lat="43.02565333" lon="-1.23525">
        <ele>878.0</ele>
        <time>2019-08-01T08:10:27.958Z</time>
      </trkpt>
      <trkpt lat="43.02566833" lon="-1.235265">
        <ele>878.0</ele>
        <time>2019-08-01T08:10:28.963Z</time>
      </trkpt>
      <trkpt lat="43.02568167" lon="-1.23528333">
        <ele>878.0</ele>
        <time>2019-08-01T08:10:29.966Z</time>
      </trkpt>
      <trkpt lat="43.02569833" lon="-1.23529667">
        <ele>880.0</ele>
        <time>2019-08-01T08:10:30.968Z</time>
      </trkpt>
      <trkpt lat="43.02570833" lon="-1.23530667">
        <ele>880.0</ele>
        <time>2019-08-01T08:10:31.970Z</time>
      </trkpt>
      <trkpt lat="43.02571667" lon="-1.235315">
        <ele>881.0</ele>
        <time>2019-08-01T08:10:32.973Z</time>
      </trkpt>
      <trkpt lat="43.02572833" lon="-1.23532167">
        <ele>882.0</ele>
        <time>2019-08-01T08:10:33.979Z</time>
      </trkpt>
      <trkpt lat="43.02574667" lon="-1.23532833">
        <ele>882.0</ele>
        <time>2019-08-01T08:10:34.984Z</time>
      </trkpt>
      <trkpt lat="43.02576833" lon="-1.235345">
        <ele>882.0</ele>
        <time>2019-08-01T08:10:35.992Z</time>
      </trkpt>
      <trkpt lat="43.02578167" lon="-1.23536333">
        <ele>881.0</ele>
        <time>2019-08-01T08:10:36.993Z</time>
      </trkpt>
      <trkpt lat="43.02579333" lon="-1.23537833">
        <ele>880.0</ele>
        <time>2019-08-01T08:10:37.998Z</time>
      </trkpt>
      <trkpt lat="43.025805" lon="-1.235385">
        <ele>880.0</ele>
        <time>2019-08-01T08:10:39.006Z</time>
      </trkpt>
      <trkpt lat="43.02581667" lon="-1.23538833">
        <ele>880.0</ele>
        <time>2019-08-01T08:10:40.012Z</time>
      </trkpt>
      <trkpt lat="43.02582333" lon="-1.235385">
        <ele>880.0</ele>
        <time>2019-08-01T08:10:41.017Z</time>
      </trkpt>
      <trkpt lat="43.02584333" lon="-1.23537833">
        <ele>879.0</ele>
        <time>2019-08-01T08:10:42.023Z</time>
      </trkpt>
      <trkpt lat="43.025865" lon="-1.23538333">
        <ele>879.0</ele>
        <time>2019-08-01T08:10:43.027Z</time>
      </trkpt>
      <trkpt lat="43.025885" lon="-1.23539667">
        <ele>878.0</ele>
        <time>2019-08-01T08:10:44.032Z</time>
      </trkpt>
      <trkpt lat="43.02590167" lon="-1.23540833">
        <ele>877.0</ele>
        <time>2019-08-01T08:10:45.038Z</time>
      </trkpt>
      <trkpt lat="43.02590167" lon="-1.23540833">
        <ele>877.0</ele>
        <time>2019-08-01T08:10:45.919Z</time>
      </trkpt>
      <trkpt lat="43.02591333" lon="-1.23542">
        <ele>876.0</ele>
        <time>2019-08-01T08:10:46.924Z</time>
      </trkpt>
      <trkpt lat="43.02592333" lon="-1.23543">
        <ele>875.0</ele>
        <time>2019-08-01T08:10:47.928Z</time>
      </trkpt>
      <trkpt lat="43.025935" lon="-1.23544333">
        <ele>874.0</ele>
        <time>2019-08-01T08:10:48.932Z</time>
      </trkpt>
      <trkpt lat="43.02595167" lon="-1.23545667">
        <ele>873.0</ele>
        <time>2019-08-01T08:10:49.939Z</time>
      </trkpt>
      <trkpt lat="43.025965" lon="-1.23547">
        <ele>872.0</ele>
        <time>2019-08-01T08:10:50.944Z</time>
      </trkpt>
      <trkpt lat="43.02598667" lon="-1.23548667">
        <ele>872.0</ele>
        <time>2019-08-01T08:10:51.949Z</time>
      </trkpt>
      <trkpt lat="43.02600167" lon="-1.235505">
        <ele>873.0</ele>
        <time>2019-08-01T08:10:52.956Z</time>
      </trkpt>
      <trkpt lat="43.02601667" lon="-1.23552167">
        <ele>873.0</ele>
        <time>2019-08-01T08:10:53.965Z</time>
      </trkpt>
      <trkpt lat="43.02603333" lon="-1.23553">
        <ele>873.0</ele>
        <time>2019-08-01T08:10:54.971Z</time>
      </trkpt>
      <trkpt lat="43.026055" lon="-1.235545">
        <ele>873.0</ele>
        <time>2019-08-01T08:10:55.978Z</time>
      </trkpt>
      <trkpt lat="43.02607" lon="-1.23555">
        <ele>873.0</ele>
        <time>2019-08-01T08:10:56.984Z</time>
      </trkpt>
      <trkpt lat="43.02608833" lon="-1.23555667">
        <ele>873.0</ele>
        <time>2019-08-01T08:10:57.990Z</time>
      </trkpt>
      <trkpt lat="43.02611167" lon="-1.23556333">
        <ele>874.0</ele>
        <time>2019-08-01T08:10:58.995Z</time>
      </trkpt>
      <trkpt lat="43.02613333" lon="-1.23557167">
        <ele>875.0</ele>
        <time>2019-08-01T08:10:59.999Z</time>
      </trkpt>
      <trkpt lat="43.02614833" lon="-1.23557333">
        <ele>876.0</ele>
        <time>2019-08-01T08:11:01.005Z</time>
      </trkpt>
      <trkpt lat="43.02616667" lon="-1.23558">
        <ele>877.0</ele>
        <time>2019-08-01T08:11:02.010Z</time>
      </trkpt>
      <trkpt lat="43.02618167" lon="-1.23558333">
        <ele>878.0</ele>
        <time>2019-08-01T08:11:03.016Z</time>
      </trkpt>
      <trkpt lat="43.02621167" lon="-1.23558833">
        <ele>879.0</ele>
        <time>2019-08-01T08:11:04.019Z</time>
      </trkpt>
      <trkpt lat="43.02622833" lon="-1.23558167">
        <ele>881.0</ele>
        <time>2019-08-01T08:11:05.024Z</time>
      </trkpt>
      <trkpt lat="43.02624" lon="-1.23558333">
        <ele>881.0</ele>
        <time>2019-08-01T08:11:06.029Z</time>
      </trkpt>
      <trkpt lat="43.02625333" lon="-1.23559167">
        <ele>881.0</ele>
        <time>2019-08-01T08:11:07.033Z</time>
      </trkpt>
      <trkpt lat="43.02627333" lon="-1.2356">
        <ele>881.0</ele>
        <time>2019-08-01T08:11:08.038Z</time>
      </trkpt>
      <trkpt lat="43.02627333" lon="-1.2356">
        <ele>881.0</ele>
        <time>2019-08-01T08:11:08.918Z</time>
      </trkpt>
      <trkpt lat="43.02628667" lon="-1.23559333">
        <ele>881.0</ele>
        <time>2019-08-01T08:11:09.925Z</time>
      </trkpt>
      <trkpt lat="43.0263" lon="-1.23559333">
        <ele>882.0</ele>
        <time>2019-08-01T08:11:10.928Z</time>
      </trkpt>
      <trkpt lat="43.026315" lon="-1.235605">
        <ele>881.0</ele>
        <time>2019-08-01T08:11:11.934Z</time>
      </trkpt>
      <trkpt lat="43.02632667" lon="-1.235615">
        <ele>881.0</ele>
        <time>2019-08-01T08:11:12.940Z</time>
      </trkpt>
      <trkpt lat="43.026345" lon="-1.235625">
        <ele>880.0</ele>
        <time>2019-08-01T08:11:13.946Z</time>
      </trkpt>
      <trkpt lat="43.02636333" lon="-1.23562667">
        <ele>880.0</ele>
        <time>2019-08-01T08:11:14.953Z</time>
      </trkpt>
      <trkpt lat="43.02638" lon="-1.23563">
        <ele>880.0</ele>
        <time>2019-08-01T08:11:15.960Z</time>
      </trkpt>
      <trkpt lat="43.02639833" lon="-1.23562833">
        <ele>880.0</ele>
        <time>2019-08-01T08:11:16.966Z</time>
      </trkpt>
      <trkpt lat="43.02641667" lon="-1.23563167">
        <ele>879.0</ele>
        <time>2019-08-01T08:11:17.973Z</time>
      </trkpt>
      <trkpt lat="43.02643333" lon="-1.23564167">
        <ele>879.0</ele>
        <time>2019-08-01T08:11:18.978Z</time>
      </trkpt>
      <trkpt lat="43.02645667" lon="-1.23565167">
        <ele>879.0</ele>
        <time>2019-08-01T08:11:19.984Z</time>
      </trkpt>
      <trkpt lat="43.02647833" lon="-1.23566167">
        <ele>879.0</ele>
        <time>2019-08-01T08:11:20.989Z</time>
      </trkpt>
      <trkpt lat="43.026495" lon="-1.23567667">
        <ele>879.0</ele>
        <time>2019-08-01T08:11:21.994Z</time>
      </trkpt>
      <trkpt lat="43.02651167" lon="-1.23569167">
        <ele>879.0</ele>
        <time>2019-08-01T08:11:22.999Z</time>
      </trkpt>
      <trkpt lat="43.02652833" lon="-1.235695">
        <ele>879.0</ele>
        <time>2019-08-01T08:11:24.007Z</time>
      </trkpt>
      <trkpt lat="43.02654833" lon="-1.23570833">
        <ele>879.0</ele>
        <time>2019-08-01T08:11:25.013Z</time>
      </trkpt>
      <trkpt lat="43.02657667" lon="-1.23573333">
        <ele>878.0</ele>
        <time>2019-08-01T08:11:26.019Z</time>
      </trkpt>
      <trkpt lat="43.02658833" lon="-1.23575167">
        <ele>877.0</ele>
        <time>2019-08-01T08:11:27.025Z</time>
      </trkpt>
      <trkpt lat="43.02660333" lon="-1.23575833">
        <ele>876.0</ele>
        <time>2019-08-01T08:11:28.030Z</time>
      </trkpt>
      <trkpt lat="43.02661667" lon="-1.23577667">
        <ele>875.0</ele>
        <time>2019-08-01T08:11:29.034Z</time>
      </trkpt>
      <trkpt lat="43.02662833" lon="-1.23578667">
        <ele>875.0</ele>
        <time>2019-08-01T08:11:30.040Z</time>
      </trkpt>
      <trkpt lat="43.02662833" lon="-1.23578667">
        <ele>875.0</ele>
        <time>2019-08-01T08:11:30.920Z</time>
      </trkpt>
      <trkpt lat="43.02664333" lon="-1.23579333">
        <ele>875.0</ele>
        <time>2019-08-01T08:11:31.926Z</time>
      </trkpt>
      <trkpt lat="43.02665833" lon="-1.23580333">
        <ele>875.0</ele>
        <time>2019-08-01T08:11:32.932Z</time>
      </trkpt>
      <trkpt lat="43.02667667" lon="-1.23580667">
        <ele>875.0</ele>
        <time>2019-08-01T08:11:33.937Z</time>
      </trkpt>
      <trkpt lat="43.02669" lon="-1.23581167">
        <ele>875.0</ele>
        <time>2019-08-01T08:11:34.943Z</time>
      </trkpt>
      <trkpt lat="43.02670333" lon="-1.23581667">
        <ele>876.0</ele>
        <time>2019-08-01T08:11:35.950Z</time>
      </trkpt>
      <trkpt lat="43.02671833" lon="-1.23581667">
        <ele>875.0</ele>
        <time>2019-08-01T08:11:36.954Z</time>
      </trkpt>
      <trkpt lat="43.02673" lon="-1.23583">
        <ele>875.0</ele>
        <time>2019-08-01T08:11:37.961Z</time>
      </trkpt>
      <trkpt lat="43.02674167" lon="-1.23584">
        <ele>876.0</ele>
        <time>2019-08-01T08:11:38.969Z</time>
      </trkpt>
      <trkpt lat="43.02675" lon="-1.23584833">
        <ele>876.0</ele>
        <time>2019-08-01T08:11:39.973Z</time>
      </trkpt>
      <trkpt lat="43.026755" lon="-1.23586">
        <ele>876.0</ele>
        <time>2019-08-01T08:11:40.976Z</time>
      </trkpt>
      <trkpt lat="43.02675667" lon="-1.23586833">
        <ele>876.0</ele>
        <time>2019-08-01T08:11:41.984Z</time>
      </trkpt>
      <trkpt lat="43.02675833" lon="-1.23586333">
        <ele>875.0</ele>
        <time>2019-08-01T08:11:42.990Z</time>
      </trkpt>
      <trkpt lat="43.02676" lon="-1.235865">
        <ele>876.0</ele>
        <time>2019-08-01T08:11:43.994Z</time>
      </trkpt>
      <trkpt lat="43.02676333" lon="-1.23587167">
        <ele>876.0</ele>
        <time>2019-08-01T08:11:44.999Z</time>
      </trkpt>
      <trkpt lat="43.026765" lon="-1.23587333">
        <ele>877.0</ele>
        <time>2019-08-01T08:11:46.004Z</time>
      </trkpt>
      <trkpt lat="43.02677" lon="-1.23586833">
        <ele>877.0</ele>
        <time>2019-08-01T08:11:47.011Z</time>
      </trkpt>
      <trkpt lat="43.02677333" lon="-1.235865">
        <ele>876.0</ele>
        <time>2019-08-01T08:11:48.018Z</time>
      </trkpt>
      <trkpt lat="43.026775" lon="-1.23587">
        <ele>876.0</ele>
        <time>2019-08-01T08:11:49.023Z</time>
      </trkpt>
      <trkpt lat="43.02677" lon="-1.23587833">
        <ele>877.0</ele>
        <time>2019-08-01T08:11:50.026Z</time>
      </trkpt>
      <trkpt lat="43.02677" lon="-1.23589">
        <ele>876.0</ele>
        <time>2019-08-01T08:11:51.030Z</time>
      </trkpt>
      <trkpt lat="43.02677167" lon="-1.23589833">
        <ele>876.0</ele>
        <time>2019-08-01T08:11:52.035Z</time>
      </trkpt>
      <trkpt lat="43.02677333" lon="-1.2359">
        <ele>876.0</ele>
        <time>2019-08-01T08:11:53.040Z</time>
      </trkpt>
      <trkpt lat="43.02677333" lon="-1.2359">
        <ele>876.0</ele>
        <time>2019-08-01T08:11:53.919Z</time>
      </trkpt>
      <trkpt lat="43.026775" lon="-1.23590167">
        <ele>876.0</ele>
        <time>2019-08-01T08:11:54.925Z</time>
      </trkpt>
      <trkpt lat="43.026775" lon="-1.235905">
        <ele>876.0</ele>
        <time>2019-08-01T08:11:55.931Z</time>
      </trkpt>
      <trkpt lat="43.02677667" lon="-1.235905">
        <ele>876.0</ele>
        <time>2019-08-01T08:11:56.937Z</time>
      </trkpt>
      <trkpt lat="43.02677667" lon="-1.23590333">
        <ele>877.0</ele>
        <time>2019-08-01T08:11:57.944Z</time>
      </trkpt>
      <trkpt lat="43.02677833" lon="-1.23590333">
        <ele>877.0</ele>
        <time>2019-08-01T08:11:58.951Z</time>
      </trkpt>
      <trkpt lat="43.02678" lon="-1.23590667">
        <ele>877.0</ele>
        <time>2019-08-01T08:11:59.955Z</time>
      </trkpt>
      <trkpt lat="43.02678167" lon="-1.23591">
        <ele>877.0</ele>
        <time>2019-08-01T08:12:00.960Z</time>
      </trkpt>
      <trkpt lat="43.02678167" lon="-1.23591">
        <ele>876.0</ele>
        <time>2019-08-01T08:12:01.964Z</time>
      </trkpt>
      <trkpt lat="43.02678333" lon="-1.23591167">
        <ele>877.0</ele>
        <time>2019-08-01T08:12:02.970Z</time>
      </trkpt>
      <trkpt lat="43.026785" lon="-1.23591167">
        <ele>877.0</ele>
        <time>2019-08-01T08:12:03.976Z</time>
      </trkpt>
      <trkpt lat="43.02678667" lon="-1.235915">
        <ele>878.0</ele>
        <time>2019-08-01T08:12:04.983Z</time>
      </trkpt>
      <trkpt lat="43.02678667" lon="-1.23591833">
        <ele>879.0</ele>
        <time>2019-08-01T08:12:05.989Z</time>
      </trkpt>
      <trkpt lat="43.02678833" lon="-1.23591667">
        <ele>880.0</ele>
        <time>2019-08-01T08:12:06.994Z</time>
      </trkpt>
      <trkpt lat="43.02679" lon="-1.235925">
        <ele>880.0</ele>
        <time>2019-08-01T08:12:08.000Z</time>
      </trkpt>
      <trkpt lat="43.02679167" lon="-1.23592833">
        <ele>880.0</ele>
        <time>2019-08-01T08:12:09.007Z</time>
      </trkpt>
      <trkpt lat="43.02679333" lon="-1.235935">
        <ele>880.0</ele>
        <time>2019-08-01T08:12:10.012Z</time>
      </trkpt>
      <trkpt lat="43.02679333" lon="-1.23594">
        <ele>881.0</ele>
        <time>2019-08-01T08:12:11.018Z</time>
      </trkpt>
      <trkpt lat="43.02679833" lon="-1.23594333">
        <ele>882.0</ele>
        <time>2019-08-01T08:12:12.023Z</time>
      </trkpt>
      <trkpt lat="43.0268" lon="-1.23594667">
        <ele>882.0</ele>
        <time>2019-08-01T08:12:13.029Z</time>
      </trkpt>
      <trkpt lat="43.02680167" lon="-1.23594833">
        <ele>882.0</ele>
        <time>2019-08-01T08:12:14.035Z</time>
      </trkpt>
      <trkpt lat="43.02680167" lon="-1.235955">
        <ele>882.0</ele>
        <time>2019-08-01T08:12:15.039Z</time>
      </trkpt>
      <trkpt lat="43.02680167" lon="-1.235955">
        <ele>882.0</ele>
        <time>2019-08-01T08:12:15.918Z</time>
      </trkpt>
      <trkpt lat="43.02680167" lon="-1.23596167">
        <ele>882.0</ele>
        <time>2019-08-01T08:12:16.922Z</time>
      </trkpt>
      <trkpt lat="43.026805" lon="-1.235975">
        <ele>883.0</ele>
        <time>2019-08-01T08:12:17.927Z</time>
      </trkpt>
      <trkpt lat="43.02681" lon="-1.23599">
        <ele>884.0</ele>
        <time>2019-08-01T08:12:18.934Z</time>
      </trkpt>
      <trkpt lat="43.02682" lon="-1.23600333">
        <ele>884.0</ele>
        <time>2019-08-01T08:12:19.939Z</time>
      </trkpt>
      <trkpt lat="43.02683" lon="-1.23602167">
        <ele>884.0</ele>
        <time>2019-08-01T08:12:20.946Z</time>
      </trkpt>
      <trkpt lat="43.02684333" lon="-1.23603833">
        <ele>884.0</ele>
        <time>2019-08-01T08:12:21.951Z</time>
      </trkpt>
      <trkpt lat="43.02685" lon="-1.23605667">
        <ele>885.0</ele>
        <time>2019-08-01T08:12:22.956Z</time>
      </trkpt>
      <trkpt lat="43.02686" lon="-1.236075">
        <ele>885.0</ele>
        <time>2019-08-01T08:12:23.959Z</time>
      </trkpt>
      <trkpt lat="43.02687" lon="-1.23609167">
        <ele>886.0</ele>
        <time>2019-08-01T08:12:24.967Z</time>
      </trkpt>
      <trkpt lat="43.02687833" lon="-1.23610833">
        <ele>887.0</ele>
        <time>2019-08-01T08:12:25.972Z</time>
      </trkpt>
      <trkpt lat="43.026885" lon="-1.23612333">
        <ele>887.0</ele>
        <time>2019-08-01T08:12:26.979Z</time>
      </trkpt>
      <trkpt lat="43.026895" lon="-1.23614333">
        <ele>886.0</ele>
        <time>2019-08-01T08:12:27.985Z</time>
      </trkpt>
      <trkpt lat="43.026905" lon="-1.23616">
        <ele>886.0</ele>
        <time>2019-08-01T08:12:28.991Z</time>
      </trkpt>
      <trkpt lat="43.026915" lon="-1.23617667">
        <ele>886.0</ele>
        <time>2019-08-01T08:12:29.999Z</time>
      </trkpt>
      <trkpt lat="43.02692333" lon="-1.23619167">
        <ele>886.0</ele>
        <time>2019-08-01T08:12:31.005Z</time>
      </trkpt>
      <trkpt lat="43.026935" lon="-1.23621">
        <ele>886.0</ele>
        <time>2019-08-01T08:12:32.010Z</time>
      </trkpt>
      <trkpt lat="43.02694667" lon="-1.236225">
        <ele>886.0</ele>
        <time>2019-08-01T08:12:33.015Z</time>
      </trkpt>
      <trkpt lat="43.02696667" lon="-1.236255">
        <ele>885.0</ele>
        <time>2019-08-01T08:12:34.021Z</time>
      </trkpt>
      <trkpt lat="43.02698" lon="-1.23627">
        <ele>885.0</ele>
        <time>2019-08-01T08:12:35.027Z</time>
      </trkpt>
      <trkpt lat="43.02698833" lon="-1.23628333">
        <ele>886.0</ele>
        <time>2019-08-01T08:12:36.032Z</time>
      </trkpt>
      <trkpt lat="43.02699833" lon="-1.23630333">
        <ele>885.0</ele>
        <time>2019-08-01T08:12:37.038Z</time>
      </trkpt>
      <trkpt lat="43.02699833" lon="-1.23630333">
        <ele>885.0</ele>
        <time>2019-08-01T08:12:37.920Z</time>
      </trkpt>
      <trkpt lat="43.02700667" lon="-1.23631833">
        <ele>885.0</ele>
        <time>2019-08-01T08:12:38.928Z</time>
      </trkpt>
      <trkpt lat="43.027015" lon="-1.23634">
        <ele>884.0</ele>
        <time>2019-08-01T08:12:39.934Z</time>
      </trkpt>
      <trkpt lat="43.02702333" lon="-1.23636">
        <ele>884.0</ele>
        <time>2019-08-01T08:12:40.940Z</time>
      </trkpt>
      <trkpt lat="43.02703167" lon="-1.23637167">
        <ele>884.0</ele>
        <time>2019-08-01T08:12:41.947Z</time>
      </trkpt>
      <trkpt lat="43.02704167" lon="-1.236385">
        <ele>885.0</ele>
        <time>2019-08-01T08:12:42.952Z</time>
      </trkpt>
      <trkpt lat="43.02705167" lon="-1.23640333">
        <ele>885.0</ele>
        <time>2019-08-01T08:12:43.957Z</time>
      </trkpt>
      <trkpt lat="43.02706" lon="-1.23641333">
        <ele>886.0</ele>
        <time>2019-08-01T08:12:44.963Z</time>
      </trkpt>
      <trkpt lat="43.027065" lon="-1.23641667">
        <ele>886.0</ele>
        <time>2019-08-01T08:12:45.967Z</time>
      </trkpt>
      <trkpt lat="43.02707333" lon="-1.23642333">
        <ele>885.0</ele>
        <time>2019-08-01T08:12:46.971Z</time>
      </trkpt>
      <trkpt lat="43.02708667" lon="-1.23642667">
        <ele>884.0</ele>
        <time>2019-08-01T08:12:47.976Z</time>
      </trkpt>
      <trkpt lat="43.02709333" lon="-1.23643">
        <ele>884.0</ele>
        <time>2019-08-01T08:12:48.982Z</time>
      </trkpt>
      <trkpt lat="43.02709833" lon="-1.236435">
        <ele>883.0</ele>
        <time>2019-08-01T08:12:49.988Z</time>
      </trkpt>
      <trkpt lat="43.027105" lon="-1.236445">
        <ele>883.0</ele>
        <time>2019-08-01T08:12:50.995Z</time>
      </trkpt>
      <trkpt lat="43.02711167" lon="-1.23645667">
        <ele>882.0</ele>
        <time>2019-08-01T08:12:52.001Z</time>
      </trkpt>
      <trkpt lat="43.02712" lon="-1.23646667">
        <ele>882.0</ele>
        <time>2019-08-01T08:12:53.007Z</time>
      </trkpt>
      <trkpt lat="43.02712833" lon="-1.23647667">
        <ele>881.0</ele>
        <time>2019-08-01T08:12:54.011Z</time>
      </trkpt>
      <trkpt lat="43.02713333" lon="-1.23648833">
        <ele>880.0</ele>
        <time>2019-08-01T08:12:55.017Z</time>
      </trkpt>
      <trkpt lat="43.02715" lon="-1.23651167">
        <ele>879.0</ele>
        <time>2019-08-01T08:12:56.023Z</time>
      </trkpt>
      <trkpt lat="43.02716167" lon="-1.236525">
        <ele>879.0</ele>
        <time>2019-08-01T08:12:57.028Z</time>
      </trkpt>
      <trkpt lat="43.027175" lon="-1.23653167">
        <ele>879.0</ele>
        <time>2019-08-01T08:12:58.034Z</time>
      </trkpt>
      <trkpt lat="43.02718667" lon="-1.23653833">
        <ele>879.0</ele>
        <time>2019-08-01T08:12:59.041Z</time>
      </trkpt>
      <trkpt lat="43.02718667" lon="-1.23653833">
        <ele>879.0</ele>
        <time>2019-08-01T08:12:59.920Z</time>
      </trkpt>
      <trkpt lat="43.02719667" lon="-1.23653667">
        <ele>879.0</ele>
        <time>2019-08-01T08:13:00.927Z</time>
      </trkpt>
      <trkpt lat="43.02720667" lon="-1.23654333">
        <ele>878.0</ele>
        <time>2019-08-01T08:13:01.933Z</time>
      </trkpt>
      <trkpt lat="43.02721833" lon="-1.23654833">
        <ele>879.0</ele>
        <time>2019-08-01T08:13:02.939Z</time>
      </trkpt>
      <trkpt lat="43.02723" lon="-1.23656">
        <ele>879.0</ele>
        <time>2019-08-01T08:13:03.946Z</time>
      </trkpt>
      <trkpt lat="43.02723167" lon="-1.236575">
        <ele>879.0</ele>
        <time>2019-08-01T08:13:04.950Z</time>
      </trkpt>
      <trkpt lat="43.02723" lon="-1.23659">
        <ele>879.0</ele>
        <time>2019-08-01T08:13:05.952Z</time>
      </trkpt>
      <trkpt lat="43.027235" lon="-1.23660667">
        <ele>878.0</ele>
        <time>2019-08-01T08:13:06.957Z</time>
      </trkpt>
      <trkpt lat="43.02724167" lon="-1.23662">
        <ele>878.0</ele>
        <time>2019-08-01T08:13:07.963Z</time>
      </trkpt>
      <trkpt lat="43.02725" lon="-1.236635">
        <ele>878.0</ele>
        <time>2019-08-01T08:13:08.969Z</time>
      </trkpt>
      <trkpt lat="43.02725667" lon="-1.23664667">
        <ele>878.0</ele>
        <time>2019-08-01T08:13:09.975Z</time>
      </trkpt>
      <trkpt lat="43.027265" lon="-1.23665833">
        <ele>877.0</ele>
        <time>2019-08-01T08:13:10.981Z</time>
      </trkpt>
      <trkpt lat="43.02727" lon="-1.23667333">
        <ele>876.0</ele>
        <time>2019-08-01T08:13:11.987Z</time>
      </trkpt>
      <trkpt lat="43.02727333" lon="-1.23668333">
        <ele>875.0</ele>
        <time>2019-08-01T08:13:12.994Z</time>
      </trkpt>
      <trkpt lat="43.02727667" lon="-1.23669333">
        <ele>875.0</ele>
        <time>2019-08-01T08:13:13.998Z</time>
      </trkpt>
      <trkpt lat="43.02727833" lon="-1.23670667">
        <ele>875.0</ele>
        <time>2019-08-01T08:13:15.004Z</time>
      </trkpt>
      <trkpt lat="43.02728" lon="-1.23672">
        <ele>875.0</ele>
        <time>2019-08-01T08:13:16.011Z</time>
      </trkpt>
      <trkpt lat="43.02728333" lon="-1.236735">
        <ele>876.0</ele>
        <time>2019-08-01T08:13:17.015Z</time>
      </trkpt>
      <trkpt lat="43.02729" lon="-1.23676">
        <ele>876.0</ele>
        <time>2019-08-01T08:13:18.021Z</time>
      </trkpt>
      <trkpt lat="43.02729333" lon="-1.23677167">
        <ele>876.0</ele>
        <time>2019-08-01T08:13:19.026Z</time>
      </trkpt>
      <trkpt lat="43.02729833" lon="-1.23679">
        <ele>876.0</ele>
        <time>2019-08-01T08:13:20.033Z</time>
      </trkpt>
      <trkpt lat="43.02730167" lon="-1.23680333">
        <ele>876.0</ele>
        <time>2019-08-01T08:13:21.039Z</time>
      </trkpt>
      <trkpt lat="43.02730167" lon="-1.23680333">
        <ele>876.0</ele>
        <time>2019-08-01T08:13:21.919Z</time>
      </trkpt>
      <trkpt lat="43.02730833" lon="-1.23681833">
        <ele>876.0</ele>
        <time>2019-08-01T08:13:22.925Z</time>
      </trkpt>
      <trkpt lat="43.027315" lon="-1.23683">
        <ele>877.0</ele>
        <time>2019-08-01T08:13:23.930Z</time>
      </trkpt>
      <trkpt lat="43.02732" lon="-1.23683833">
        <ele>877.0</ele>
        <time>2019-08-01T08:13:24.934Z</time>
      </trkpt>
      <trkpt lat="43.02733" lon="-1.236855">
        <ele>877.0</ele>
        <time>2019-08-01T08:13:25.938Z</time>
      </trkpt>
      <trkpt lat="43.02733833" lon="-1.23686833">
        <ele>876.0</ele>
        <time>2019-08-01T08:13:26.945Z</time>
      </trkpt>
      <trkpt lat="43.02734667" lon="-1.23688167">
        <ele>875.0</ele>
        <time>2019-08-01T08:13:27.951Z</time>
      </trkpt>
      <trkpt lat="43.02735667" lon="-1.2369">
        <ele>875.0</ele>
        <time>2019-08-01T08:13:28.958Z</time>
      </trkpt>
      <trkpt lat="43.02736833" lon="-1.23691333">
        <ele>875.0</ele>
        <time>2019-08-01T08:13:29.963Z</time>
      </trkpt>
      <trkpt lat="43.027375" lon="-1.23693167">
        <ele>875.0</ele>
        <time>2019-08-01T08:13:30.966Z</time>
      </trkpt>
      <trkpt lat="43.02738333" lon="-1.23694">
        <ele>875.0</ele>
        <time>2019-08-01T08:13:31.972Z</time>
      </trkpt>
      <trkpt lat="43.02739167" lon="-1.23694833">
        <ele>875.0</ele>
        <time>2019-08-01T08:13:32.979Z</time>
      </trkpt>
      <trkpt lat="43.0274" lon="-1.236955">
        <ele>875.0</ele>
        <time>2019-08-01T08:13:33.986Z</time>
      </trkpt>
      <trkpt lat="43.02740667" lon="-1.23696667">
        <ele>875.0</ele>
        <time>2019-08-01T08:13:34.991Z</time>
      </trkpt>
      <trkpt lat="43.02741667" lon="-1.23698333">
        <ele>875.0</ele>
        <time>2019-08-01T08:13:35.997Z</time>
      </trkpt>
      <trkpt lat="43.02742667" lon="-1.237">
        <ele>875.0</ele>
        <time>2019-08-01T08:13:37.001Z</time>
      </trkpt>
      <trkpt lat="43.02743667" lon="-1.23701333">
        <ele>875.0</ele>
        <time>2019-08-01T08:13:38.006Z</time>
      </trkpt>
      <trkpt lat="43.027445" lon="-1.237025">
        <ele>876.0</ele>
        <time>2019-08-01T08:13:39.011Z</time>
      </trkpt>
      <trkpt lat="43.02744667" lon="-1.23703167">
        <ele>876.0</ele>
        <time>2019-08-01T08:13:40.017Z</time>
      </trkpt>
      <trkpt lat="43.02746" lon="-1.237055">
        <ele>876.0</ele>
        <time>2019-08-01T08:13:41.024Z</time>
      </trkpt>
      <trkpt lat="43.02746833" lon="-1.23706333">
        <ele>876.0</ele>
        <time>2019-08-01T08:13:42.029Z</time>
      </trkpt>
      <trkpt lat="43.02747667" lon="-1.23707333">
        <ele>875.0</ele>
        <time>2019-08-01T08:13:43.035Z</time>
      </trkpt>
      <trkpt lat="43.02748333" lon="-1.23708667">
        <ele>875.0</ele>
        <time>2019-08-01T08:13:44.038Z</time>
      </trkpt>
      <trkpt lat="43.02748333" lon="-1.23708667">
        <ele>875.0</ele>
        <time>2019-08-01T08:13:44.918Z</time>
      </trkpt>
      <trkpt lat="43.02749167" lon="-1.23709667">
        <ele>875.0</ele>
        <time>2019-08-01T08:13:45.922Z</time>
      </trkpt>
      <trkpt lat="43.02749833" lon="-1.23710833">
        <ele>876.0</ele>
        <time>2019-08-01T08:13:46.928Z</time>
      </trkpt>
      <trkpt lat="43.02750667" lon="-1.23712">
        <ele>877.0</ele>
        <time>2019-08-01T08:13:47.933Z</time>
      </trkpt>
      <trkpt lat="43.02751333" lon="-1.23712833">
        <ele>878.0</ele>
        <time>2019-08-01T08:13:48.940Z</time>
      </trkpt>
      <trkpt lat="43.02752" lon="-1.23713667">
        <ele>879.0</ele>
        <time>2019-08-01T08:13:49.946Z</time>
      </trkpt>
      <trkpt lat="43.02752833" lon="-1.23714667">
        <ele>879.0</ele>
        <time>2019-08-01T08:13:50.953Z</time>
      </trkpt>
      <trkpt lat="43.02753833" lon="-1.23716167">
        <ele>880.0</ele>
        <time>2019-08-01T08:13:51.959Z</time>
      </trkpt>
      <trkpt lat="43.02754833" lon="-1.23718167">
        <ele>880.0</ele>
        <time>2019-08-01T08:13:52.966Z</time>
      </trkpt>
      <trkpt lat="43.027555" lon="-1.23719667">
        <ele>880.0</ele>
        <time>2019-08-01T08:13:53.973Z</time>
      </trkpt>
      <trkpt lat="43.027565" lon="-1.23720833">
        <ele>880.0</ele>
        <time>2019-08-01T08:13:54.981Z</time>
      </trkpt>
      <trkpt lat="43.027575" lon="-1.23722">
        <ele>880.0</ele>
        <time>2019-08-01T08:13:55.987Z</time>
      </trkpt>
      <trkpt lat="43.02758833" lon="-1.23723333">
        <ele>880.0</ele>
        <time>2019-08-01T08:13:56.991Z</time>
      </trkpt>
      <trkpt lat="43.0276" lon="-1.23724833">
        <ele>880.0</ele>
        <time>2019-08-01T08:13:57.998Z</time>
      </trkpt>
      <trkpt lat="43.02760667" lon="-1.23726167">
        <ele>880.0</ele>
        <time>2019-08-01T08:13:59.003Z</time>
      </trkpt>
      <trkpt lat="43.02761333" lon="-1.23727667">
        <ele>881.0</ele>
        <time>2019-08-01T08:14:00.010Z</time>
      </trkpt>
      <trkpt lat="43.02762667" lon="-1.23729">
        <ele>881.0</ele>
        <time>2019-08-01T08:14:01.015Z</time>
      </trkpt>
      <trkpt lat="43.02763833" lon="-1.2373">
        <ele>881.0</ele>
        <time>2019-08-01T08:14:02.021Z</time>
      </trkpt>
      <trkpt lat="43.02766" lon="-1.237315">
        <ele>882.0</ele>
        <time>2019-08-01T08:14:03.027Z</time>
      </trkpt>
      <trkpt lat="43.02766333" lon="-1.23732667">
        <ele>881.0</ele>
        <time>2019-08-01T08:14:04.033Z</time>
      </trkpt>
      <trkpt lat="43.02767" lon="-1.23734333">
        <ele>880.0</ele>
        <time>2019-08-01T08:14:05.041Z</time>
      </trkpt>
      <trkpt lat="43.02767" lon="-1.23734333">
        <ele>880.0</ele>
        <time>2019-08-01T08:14:05.920Z</time>
      </trkpt>
      <trkpt lat="43.027675" lon="-1.23735667">
        <ele>880.0</ele>
        <time>2019-08-01T08:14:06.926Z</time>
      </trkpt>
      <trkpt lat="43.027685" lon="-1.23737333">
        <ele>880.0</ele>
        <time>2019-08-01T08:14:07.930Z</time>
      </trkpt>
      <trkpt lat="43.027695" lon="-1.23738333">
        <ele>881.0</ele>
        <time>2019-08-01T08:14:08.936Z</time>
      </trkpt>
      <trkpt lat="43.0277" lon="-1.23739333">
        <ele>881.0</ele>
        <time>2019-08-01T08:14:09.943Z</time>
      </trkpt>
      <trkpt lat="43.02770833" lon="-1.237405">
        <ele>881.0</ele>
        <time>2019-08-01T08:14:10.949Z</time>
      </trkpt>
      <trkpt lat="43.02771667" lon="-1.23741667">
        <ele>880.0</ele>
        <time>2019-08-01T08:14:11.957Z</time>
      </trkpt>
      <trkpt lat="43.02772167" lon="-1.23743">
        <ele>880.0</ele>
        <time>2019-08-01T08:14:12.963Z</time>
      </trkpt>
      <trkpt lat="43.02773167" lon="-1.23744667">
        <ele>880.0</ele>
        <time>2019-08-01T08:14:13.970Z</time>
      </trkpt>
      <trkpt lat="43.02773833" lon="-1.23746167">
        <ele>880.0</ele>
        <time>2019-08-01T08:14:14.974Z</time>
      </trkpt>
      <trkpt lat="43.02774667" lon="-1.237475">
        <ele>879.0</ele>
        <time>2019-08-01T08:14:15.980Z</time>
      </trkpt>
      <trkpt lat="43.027755" lon="-1.23748333">
        <ele>879.0</ele>
        <time>2019-08-01T08:14:16.986Z</time>
      </trkpt>
      <trkpt lat="43.02776" lon="-1.23749167">
        <ele>878.0</ele>
        <time>2019-08-01T08:14:17.992Z</time>
      </trkpt>
      <trkpt lat="43.02776333" lon="-1.23750333">
        <ele>877.0</ele>
        <time>2019-08-01T08:14:19.001Z</time>
      </trkpt>
      <trkpt lat="43.027765" lon="-1.23751667">
        <ele>876.0</ele>
        <time>2019-08-01T08:14:20.009Z</time>
      </trkpt>
      <trkpt lat="43.02777" lon="-1.23752667">
        <ele>875.0</ele>
        <time>2019-08-01T08:14:21.014Z</time>
      </trkpt>
      <trkpt lat="43.027775" lon="-1.23754167">
        <ele>875.0</ele>
        <time>2019-08-01T08:14:22.019Z</time>
      </trkpt>
      <trkpt lat="43.02779167" lon="-1.237565">
        <ele>876.0</ele>
        <time>2019-08-01T08:14:23.025Z</time>
      </trkpt>
      <trkpt lat="43.0278" lon="-1.23757833">
        <ele>876.0</ele>
        <time>2019-08-01T08:14:24.030Z</time>
      </trkpt>
      <trkpt lat="43.02780833" lon="-1.23759333">
        <ele>876.0</ele>
        <time>2019-08-01T08:14:25.034Z</time>
      </trkpt>
      <trkpt lat="43.02781667" lon="-1.23760667">
        <ele>876.0</ele>
        <time>2019-08-01T08:14:26.037Z</time>
      </trkpt>
      <trkpt lat="43.02782833" lon="-1.23761667">
        <ele>876.0</ele>
        <time>2019-08-01T08:14:27.042Z</time>
      </trkpt>
      <trkpt lat="43.02782833" lon="-1.23761667">
        <ele>876.0</ele>
        <time>2019-08-01T08:14:27.924Z</time>
      </trkpt>
      <trkpt lat="43.02783833" lon="-1.23763167">
        <ele>876.0</ele>
        <time>2019-08-01T08:14:28.930Z</time>
      </trkpt>
      <trkpt lat="43.02785" lon="-1.23765">
        <ele>876.0</ele>
        <time>2019-08-01T08:14:29.936Z</time>
      </trkpt>
      <trkpt lat="43.02786167" lon="-1.23767">
        <ele>876.0</ele>
        <time>2019-08-01T08:14:30.944Z</time>
      </trkpt>
      <trkpt lat="43.02787333" lon="-1.23768833">
        <ele>876.0</ele>
        <time>2019-08-01T08:14:31.950Z</time>
      </trkpt>
      <trkpt lat="43.02788667" lon="-1.23770667">
        <ele>876.0</ele>
        <time>2019-08-01T08:14:32.958Z</time>
      </trkpt>
      <trkpt lat="43.027895" lon="-1.23772">
        <ele>876.0</ele>
        <time>2019-08-01T08:14:33.963Z</time>
      </trkpt>
      <trkpt lat="43.02790833" lon="-1.23774167">
        <ele>877.0</ele>
        <time>2019-08-01T08:14:34.969Z</time>
      </trkpt>
      <trkpt lat="43.02791833" lon="-1.237765">
        <ele>877.0</ele>
        <time>2019-08-01T08:14:35.978Z</time>
      </trkpt>
      <trkpt lat="43.02792667" lon="-1.23778833">
        <ele>877.0</ele>
        <time>2019-08-01T08:14:36.983Z</time>
      </trkpt>
      <trkpt lat="43.02793" lon="-1.23781">
        <ele>878.0</ele>
        <time>2019-08-01T08:14:37.990Z</time>
      </trkpt>
      <trkpt lat="43.027935" lon="-1.23782833">
        <ele>879.0</ele>
        <time>2019-08-01T08:14:38.997Z</time>
      </trkpt>
      <trkpt lat="43.02794333" lon="-1.237845">
        <ele>880.0</ele>
        <time>2019-08-01T08:14:40.004Z</time>
      </trkpt>
      <trkpt lat="43.02795167" lon="-1.237865">
        <ele>880.0</ele>
        <time>2019-08-01T08:14:41.011Z</time>
      </trkpt>
      <trkpt lat="43.02795667" lon="-1.23788833">
        <ele>880.0</ele>
        <time>2019-08-01T08:14:42.015Z</time>
      </trkpt>
      <trkpt lat="43.02796" lon="-1.23791">
        <ele>879.0</ele>
        <time>2019-08-01T08:14:43.020Z</time>
      </trkpt>
      <trkpt lat="43.027965" lon="-1.23795">
        <ele>880.0</ele>
        <time>2019-08-01T08:14:44.026Z</time>
      </trkpt>
      <trkpt lat="43.02797" lon="-1.237965">
        <ele>880.0</ele>
        <time>2019-08-01T08:14:45.032Z</time>
      </trkpt>
      <trkpt lat="43.02798333" lon="-1.23797167">
        <ele>880.0</ele>
        <time>2019-08-01T08:14:46.038Z</time>
      </trkpt>
      <trkpt lat="43.02798333" lon="-1.23797167">
        <ele>880.0</ele>
        <time>2019-08-01T08:14:46.919Z</time>
      </trkpt>
      <trkpt lat="43.02799833" lon="-1.23798167">
        <ele>881.0</ele>
        <time>2019-08-01T08:14:47.924Z</time>
      </trkpt>
      <trkpt lat="43.02800833" lon="-1.23799">
        <ele>883.0</ele>
        <time>2019-08-01T08:14:48.928Z</time>
      </trkpt>
      <trkpt lat="43.02802" lon="-1.23800833">
        <ele>883.0</ele>
        <time>2019-08-01T08:14:49.931Z</time>
      </trkpt>
      <trkpt lat="43.02803" lon="-1.23802833">
        <ele>883.0</ele>
        <time>2019-08-01T08:14:50.935Z</time>
      </trkpt>
      <trkpt lat="43.02803667" lon="-1.23804667">
        <ele>883.0</ele>
        <time>2019-08-01T08:14:51.942Z</time>
      </trkpt>
      <trkpt lat="43.02804667" lon="-1.238065">
        <ele>883.0</ele>
        <time>2019-08-01T08:14:52.949Z</time>
      </trkpt>
      <trkpt lat="43.02805333" lon="-1.23808">
        <ele>883.0</ele>
        <time>2019-08-01T08:14:53.956Z</time>
      </trkpt>
      <trkpt lat="43.02806167" lon="-1.238095">
        <ele>883.0</ele>
        <time>2019-08-01T08:14:54.961Z</time>
      </trkpt>
      <trkpt lat="43.02806667" lon="-1.23810333">
        <ele>883.0</ele>
        <time>2019-08-01T08:14:55.968Z</time>
      </trkpt>
      <trkpt lat="43.02807667" lon="-1.23811667">
        <ele>883.0</ele>
        <time>2019-08-01T08:14:56.974Z</time>
      </trkpt>
      <trkpt lat="43.02808333" lon="-1.23813167">
        <ele>883.0</ele>
        <time>2019-08-01T08:14:57.979Z</time>
      </trkpt>
      <trkpt lat="43.02809167" lon="-1.23815167">
        <ele>883.0</ele>
        <time>2019-08-01T08:14:58.984Z</time>
      </trkpt>
      <trkpt lat="43.02810167" lon="-1.23817">
        <ele>884.0</ele>
        <time>2019-08-01T08:14:59.991Z</time>
      </trkpt>
      <trkpt lat="43.02810667" lon="-1.23818833">
        <ele>885.0</ele>
        <time>2019-08-01T08:15:00.998Z</time>
      </trkpt>
      <trkpt lat="43.028115" lon="-1.238205">
        <ele>884.0</ele>
        <time>2019-08-01T08:15:02.004Z</time>
      </trkpt>
      <trkpt lat="43.02812167" lon="-1.238215">
        <ele>883.0</ele>
        <time>2019-08-01T08:15:03.011Z</time>
      </trkpt>
      <trkpt lat="43.02812833" lon="-1.23822667">
        <ele>882.0</ele>
        <time>2019-08-01T08:15:04.016Z</time>
      </trkpt>
      <trkpt lat="43.028145" lon="-1.23825333">
        <ele>884.0</ele>
        <time>2019-08-01T08:15:05.023Z</time>
      </trkpt>
      <trkpt lat="43.028155" lon="-1.23827">
        <ele>884.0</ele>
        <time>2019-08-01T08:15:06.030Z</time>
      </trkpt>
      <trkpt lat="43.02816" lon="-1.238275">
        <ele>884.0</ele>
        <time>2019-08-01T08:15:07.036Z</time>
      </trkpt>
      <trkpt lat="43.02817" lon="-1.23828167">
        <ele>885.0</ele>
        <time>2019-08-01T08:15:08.041Z</time>
      </trkpt>
      <trkpt lat="43.02817" lon="-1.23828167">
        <ele>885.0</ele>
        <time>2019-08-01T08:15:08.920Z</time>
      </trkpt>
      <trkpt lat="43.02818167" lon="-1.23828833">
        <ele>886.0</ele>
        <time>2019-08-01T08:15:09.926Z</time>
      </trkpt>
      <trkpt lat="43.02818833" lon="-1.23829667">
        <ele>888.0</ele>
        <time>2019-08-01T08:15:10.928Z</time>
      </trkpt>
      <trkpt lat="43.02818667" lon="-1.23830833">
        <ele>889.0</ele>
        <time>2019-08-01T08:15:11.933Z</time>
      </trkpt>
      <trkpt lat="43.02818833" lon="-1.238315">
        <ele>890.0</ele>
        <time>2019-08-01T08:15:12.938Z</time>
      </trkpt>
      <trkpt lat="43.028195" lon="-1.23833">
        <ele>890.0</ele>
        <time>2019-08-01T08:15:13.943Z</time>
      </trkpt>
      <trkpt lat="43.02819833" lon="-1.23834667">
        <ele>890.0</ele>
        <time>2019-08-01T08:15:14.949Z</time>
      </trkpt>
      <trkpt lat="43.02820167" lon="-1.23836167">
        <ele>890.0</ele>
        <time>2019-08-01T08:15:15.955Z</time>
      </trkpt>
      <trkpt lat="43.02820333" lon="-1.23837667">
        <ele>889.0</ele>
        <time>2019-08-01T08:15:16.960Z</time>
      </trkpt>
      <trkpt lat="43.02821167" lon="-1.23839">
        <ele>889.0</ele>
        <time>2019-08-01T08:15:17.968Z</time>
      </trkpt>
      <trkpt lat="43.028215" lon="-1.2384">
        <ele>889.0</ele>
        <time>2019-08-01T08:15:18.974Z</time>
      </trkpt>
      <trkpt lat="43.02821833" lon="-1.23841333">
        <ele>889.0</ele>
        <time>2019-08-01T08:15:19.980Z</time>
      </trkpt>
      <trkpt lat="43.02822" lon="-1.238425">
        <ele>889.0</ele>
        <time>2019-08-01T08:15:20.985Z</time>
      </trkpt>
      <trkpt lat="43.02822333" lon="-1.23843833">
        <ele>888.0</ele>
        <time>2019-08-01T08:15:21.992Z</time>
      </trkpt>
      <trkpt lat="43.02822833" lon="-1.238455">
        <ele>887.0</ele>
        <time>2019-08-01T08:15:22.997Z</time>
      </trkpt>
      <trkpt lat="43.02823333" lon="-1.23847">
        <ele>887.0</ele>
        <time>2019-08-01T08:15:24.003Z</time>
      </trkpt>
      <trkpt lat="43.02823833" lon="-1.23848667">
        <ele>887.0</ele>
        <time>2019-08-01T08:15:25.009Z</time>
      </trkpt>
      <trkpt lat="43.02824" lon="-1.238505">
        <ele>887.0</ele>
        <time>2019-08-01T08:15:26.013Z</time>
      </trkpt>
      <trkpt lat="43.02824" lon="-1.23852">
        <ele>887.0</ele>
        <time>2019-08-01T08:15:27.020Z</time>
      </trkpt>
      <trkpt lat="43.02824" lon="-1.23855167">
        <ele>885.0</ele>
        <time>2019-08-01T08:15:28.026Z</time>
      </trkpt>
      <trkpt lat="43.02824167" lon="-1.23857167">
        <ele>885.0</ele>
        <time>2019-08-01T08:15:29.032Z</time>
      </trkpt>
      <trkpt lat="43.02824167" lon="-1.23857167">
        <ele>885.0</ele>
        <time>2019-08-01T08:15:30.035Z</time>
      </trkpt>
      <trkpt lat="43.02825" lon="-1.23860167">
        <ele>886.0</ele>
        <time>2019-08-01T08:15:31.041Z</time>
      </trkpt>
      <trkpt lat="43.02825" lon="-1.23860167">
        <ele>886.0</ele>
        <time>2019-08-01T08:15:31.922Z</time>
      </trkpt>
      <trkpt lat="43.028255" lon="-1.23861833">
        <ele>886.0</ele>
        <time>2019-08-01T08:15:32.927Z</time>
      </trkpt>
      <trkpt lat="43.02826167" lon="-1.23864333">
        <ele>886.0</ele>
        <time>2019-08-01T08:15:33.932Z</time>
      </trkpt>
      <trkpt lat="43.02827" lon="-1.23866333">
        <ele>887.0</ele>
        <time>2019-08-01T08:15:34.938Z</time>
      </trkpt>
      <trkpt lat="43.028275" lon="-1.23868333">
        <ele>887.0</ele>
        <time>2019-08-01T08:15:35.945Z</time>
      </trkpt>
      <trkpt lat="43.02828" lon="-1.238695">
        <ele>888.0</ele>
        <time>2019-08-01T08:15:36.951Z</time>
      </trkpt>
      <trkpt lat="43.02828333" lon="-1.23870833">
        <ele>888.0</ele>
        <time>2019-08-01T08:15:37.956Z</time>
      </trkpt>
      <trkpt lat="43.02828833" lon="-1.23872167">
        <ele>888.0</ele>
        <time>2019-08-01T08:15:38.960Z</time>
      </trkpt>
      <trkpt lat="43.02829333" lon="-1.238735">
        <ele>889.0</ele>
        <time>2019-08-01T08:15:39.966Z</time>
      </trkpt>
      <trkpt lat="43.02830167" lon="-1.23875333">
        <ele>889.0</ele>
        <time>2019-08-01T08:15:40.970Z</time>
      </trkpt>
      <trkpt lat="43.02830667" lon="-1.23876667">
        <ele>889.0</ele>
        <time>2019-08-01T08:15:41.976Z</time>
      </trkpt>
      <trkpt lat="43.02831" lon="-1.238785">
        <ele>889.0</ele>
        <time>2019-08-01T08:15:42.981Z</time>
      </trkpt>
      <trkpt lat="43.02831167" lon="-1.23880333">
        <ele>890.0</ele>
        <time>2019-08-01T08:15:43.986Z</time>
      </trkpt>
      <trkpt lat="43.02831333" lon="-1.23882167">
        <ele>890.0</ele>
        <time>2019-08-01T08:15:44.992Z</time>
      </trkpt>
      <trkpt lat="43.02831667" lon="-1.23883667">
        <ele>890.0</ele>
        <time>2019-08-01T08:15:45.998Z</time>
      </trkpt>
      <trkpt lat="43.02832" lon="-1.23884833">
        <ele>890.0</ele>
        <time>2019-08-01T08:15:47.006Z</time>
      </trkpt>
      <trkpt lat="43.02832" lon="-1.23886167">
        <ele>890.0</ele>
        <time>2019-08-01T08:15:48.012Z</time>
      </trkpt>
      <trkpt lat="43.02832167" lon="-1.23888">
        <ele>890.0</ele>
        <time>2019-08-01T08:15:49.019Z</time>
      </trkpt>
      <trkpt lat="43.02832833" lon="-1.238935">
        <ele>887.0</ele>
        <time>2019-08-01T08:15:50.025Z</time>
      </trkpt>
      <trkpt lat="43.02833167" lon="-1.23895833">
        <ele>887.0</ele>
        <time>2019-08-01T08:15:51.032Z</time>
      </trkpt>
      <trkpt lat="43.02833333" lon="-1.23898">
        <ele>889.0</ele>
        <time>2019-08-01T08:15:52.036Z</time>
      </trkpt>
      <trkpt lat="43.02833667" lon="-1.23899833">
        <ele>890.0</ele>
        <time>2019-08-01T08:15:53.042Z</time>
      </trkpt>
      <trkpt lat="43.02833667" lon="-1.23899833">
        <ele>890.0</ele>
        <time>2019-08-01T08:15:53.922Z</time>
      </trkpt>
      <trkpt lat="43.02834" lon="-1.23902">
        <ele>891.0</ele>
        <time>2019-08-01T08:15:54.929Z</time>
      </trkpt>
      <trkpt lat="43.02834" lon="-1.23904667">
        <ele>892.0</ele>
        <time>2019-08-01T08:15:55.934Z</time>
      </trkpt>
      <trkpt lat="43.02833833" lon="-1.239065">
        <ele>892.0</ele>
        <time>2019-08-01T08:15:56.940Z</time>
      </trkpt>
      <trkpt lat="43.02834" lon="-1.23909">
        <ele>893.0</ele>
        <time>2019-08-01T08:15:57.947Z</time>
      </trkpt>
      <trkpt lat="43.028345" lon="-1.23911167">
        <ele>894.0</ele>
        <time>2019-08-01T08:15:58.953Z</time>
      </trkpt>
      <trkpt lat="43.02835167" lon="-1.23914167">
        <ele>895.0</ele>
        <time>2019-08-01T08:15:59.956Z</time>
      </trkpt>
      <trkpt lat="43.02835667" lon="-1.23916667">
        <ele>895.0</ele>
        <time>2019-08-01T08:16:00.961Z</time>
      </trkpt>
      <trkpt lat="43.02836" lon="-1.239195">
        <ele>895.0</ele>
        <time>2019-08-01T08:16:01.967Z</time>
      </trkpt>
      <trkpt lat="43.02836333" lon="-1.239215">
        <ele>895.0</ele>
        <time>2019-08-01T08:16:02.971Z</time>
      </trkpt>
      <trkpt lat="43.02836333" lon="-1.239235">
        <ele>895.0</ele>
        <time>2019-08-01T08:16:03.976Z</time>
      </trkpt>
      <trkpt lat="43.028365" lon="-1.23924833">
        <ele>895.0</ele>
        <time>2019-08-01T08:16:04.983Z</time>
      </trkpt>
      <trkpt lat="43.02837167" lon="-1.23926167">
        <ele>896.0</ele>
        <time>2019-08-01T08:16:05.988Z</time>
      </trkpt>
      <trkpt lat="43.02837833" lon="-1.23927333">
        <ele>897.0</ele>
        <time>2019-08-01T08:16:06.994Z</time>
      </trkpt>
      <trkpt lat="43.02838167" lon="-1.23928667">
        <ele>898.0</ele>
        <time>2019-08-01T08:16:08.000Z</time>
      </trkpt>
      <trkpt lat="43.02838667" lon="-1.23929667">
        <ele>899.0</ele>
        <time>2019-08-01T08:16:09.006Z</time>
      </trkpt>
      <trkpt lat="43.02839167" lon="-1.23930833">
        <ele>898.0</ele>
        <time>2019-08-01T08:16:10.011Z</time>
      </trkpt>
      <trkpt lat="43.02839667" lon="-1.23932167">
        <ele>899.0</ele>
        <time>2019-08-01T08:16:11.017Z</time>
      </trkpt>
      <trkpt lat="43.02840333" lon="-1.23933333">
        <ele>899.0</ele>
        <time>2019-08-01T08:16:12.021Z</time>
      </trkpt>
      <trkpt lat="43.02841667" lon="-1.23935167">
        <ele>899.0</ele>
        <time>2019-08-01T08:16:13.028Z</time>
      </trkpt>
      <trkpt lat="43.02842333" lon="-1.23935833">
        <ele>900.0</ele>
        <time>2019-08-01T08:16:14.034Z</time>
      </trkpt>
      <trkpt lat="43.028425" lon="-1.23937">
        <ele>899.0</ele>
        <time>2019-08-01T08:16:15.041Z</time>
      </trkpt>
      <trkpt lat="43.028425" lon="-1.23937">
        <ele>899.0</ele>
        <time>2019-08-01T08:16:15.921Z</time>
      </trkpt>
      <trkpt lat="43.02843167" lon="-1.23938">
        <ele>900.0</ele>
        <time>2019-08-01T08:16:16.928Z</time>
      </trkpt>
      <trkpt lat="43.02843667" lon="-1.239395">
        <ele>900.0</ele>
        <time>2019-08-01T08:16:17.930Z</time>
      </trkpt>
      <trkpt lat="43.02844167" lon="-1.23940833">
        <ele>900.0</ele>
        <time>2019-08-01T08:16:18.937Z</time>
      </trkpt>
      <trkpt lat="43.02844667" lon="-1.23942167">
        <ele>900.0</ele>
        <time>2019-08-01T08:16:19.942Z</time>
      </trkpt>
      <trkpt lat="43.02845" lon="-1.23943333">
        <ele>900.0</ele>
        <time>2019-08-01T08:16:20.945Z</time>
      </trkpt>
      <trkpt lat="43.02845167" lon="-1.23944833">
        <ele>899.0</ele>
        <time>2019-08-01T08:16:21.950Z</time>
      </trkpt>
      <trkpt lat="43.02845667" lon="-1.23947167">
        <ele>899.0</ele>
        <time>2019-08-01T08:16:22.956Z</time>
      </trkpt>
      <trkpt lat="43.02846" lon="-1.23948667">
        <ele>899.0</ele>
        <time>2019-08-01T08:16:23.960Z</time>
      </trkpt>
      <trkpt lat="43.02846333" lon="-1.239505">
        <ele>899.0</ele>
        <time>2019-08-01T08:16:24.963Z</time>
      </trkpt>
      <trkpt lat="43.02847333" lon="-1.239525">
        <ele>899.0</ele>
        <time>2019-08-01T08:16:25.967Z</time>
      </trkpt>
      <trkpt lat="43.02848167" lon="-1.23954833">
        <ele>899.0</ele>
        <time>2019-08-01T08:16:26.973Z</time>
      </trkpt>
      <trkpt lat="43.02848833" lon="-1.239565">
        <ele>900.0</ele>
        <time>2019-08-01T08:16:27.980Z</time>
      </trkpt>
      <trkpt lat="43.02849333" lon="-1.23958167">
        <ele>900.0</ele>
        <time>2019-08-01T08:16:28.986Z</time>
      </trkpt>
      <trkpt lat="43.0285" lon="-1.23959167">
        <ele>901.0</ele>
        <time>2019-08-01T08:16:29.991Z</time>
      </trkpt>
      <trkpt lat="43.02851" lon="-1.239605">
        <ele>901.0</ele>
        <time>2019-08-01T08:16:30.997Z</time>
      </trkpt>
      <trkpt lat="43.02852167" lon="-1.23962">
        <ele>900.0</ele>
        <time>2019-08-01T08:16:32.000Z</time>
      </trkpt>
      <trkpt lat="43.02852667" lon="-1.239635">
        <ele>900.0</ele>
        <time>2019-08-01T08:16:33.005Z</time>
      </trkpt>
      <trkpt lat="43.02853333" lon="-1.239655">
        <ele>899.0</ele>
        <time>2019-08-01T08:16:34.011Z</time>
      </trkpt>
      <trkpt lat="43.028535" lon="-1.23967833">
        <ele>898.0</ele>
        <time>2019-08-01T08:16:35.015Z</time>
      </trkpt>
      <trkpt lat="43.028535" lon="-1.23969833">
        <ele>897.0</ele>
        <time>2019-08-01T08:16:36.022Z</time>
      </trkpt>
      <trkpt lat="43.02853833" lon="-1.239715">
        <ele>898.0</ele>
        <time>2019-08-01T08:16:37.029Z</time>
      </trkpt>
      <trkpt lat="43.02854167" lon="-1.23973167">
        <ele>899.0</ele>
        <time>2019-08-01T08:16:38.035Z</time>
      </trkpt>
      <trkpt lat="43.02854833" lon="-1.23975">
        <ele>900.0</ele>
        <time>2019-08-01T08:16:39.041Z</time>
      </trkpt>
      <trkpt lat="43.02855167" lon="-1.23976833">
        <ele>900.0</ele>
        <time>2019-08-01T08:16:39.922Z</time>
      </trkpt>
      <trkpt lat="43.02855667" lon="-1.23978833">
        <ele>900.0</ele>
        <time>2019-08-01T08:16:40.928Z</time>
      </trkpt>
      <trkpt lat="43.02856333" lon="-1.23981333">
        <ele>901.0</ele>
        <time>2019-08-01T08:16:41.934Z</time>
      </trkpt>
      <trkpt lat="43.02856667" lon="-1.239845">
        <ele>901.0</ele>
        <time>2019-08-01T08:16:42.940Z</time>
      </trkpt>
      <trkpt lat="43.02857" lon="-1.239875">
        <ele>900.0</ele>
        <time>2019-08-01T08:16:43.947Z</time>
      </trkpt>
      <trkpt lat="43.02857333" lon="-1.239895">
        <ele>900.0</ele>
        <time>2019-08-01T08:16:44.952Z</time>
      </trkpt>
      <trkpt lat="43.02858167" lon="-1.23991333">
        <ele>901.0</ele>
        <time>2019-08-01T08:16:45.960Z</time>
      </trkpt>
      <trkpt lat="43.02858833" lon="-1.23992833">
        <ele>901.0</ele>
        <time>2019-08-01T08:16:46.967Z</time>
      </trkpt>
      <trkpt lat="43.02859667" lon="-1.23994167">
        <ele>901.0</ele>
        <time>2019-08-01T08:16:47.973Z</time>
      </trkpt>
      <trkpt lat="43.0286" lon="-1.23995667">
        <ele>900.0</ele>
        <time>2019-08-01T08:16:48.978Z</time>
      </trkpt>
      <trkpt lat="43.02859667" lon="-1.23997333">
        <ele>898.0</ele>
        <time>2019-08-01T08:16:49.983Z</time>
      </trkpt>
      <trkpt lat="43.02859833" lon="-1.23999167">
        <ele>897.0</ele>
        <time>2019-08-01T08:16:50.991Z</time>
      </trkpt>
      <trkpt lat="43.02860167" lon="-1.24001333">
        <ele>897.0</ele>
        <time>2019-08-01T08:16:51.997Z</time>
      </trkpt>
      <trkpt lat="43.02860667" lon="-1.24003833">
        <ele>897.0</ele>
        <time>2019-08-01T08:16:53.004Z</time>
      </trkpt>
      <trkpt lat="43.028615" lon="-1.24006">
        <ele>897.0</ele>
        <time>2019-08-01T08:16:54.008Z</time>
      </trkpt>
      <trkpt lat="43.02862" lon="-1.24008">
        <ele>898.0</ele>
        <time>2019-08-01T08:16:55.011Z</time>
      </trkpt>
      <trkpt lat="43.02862333" lon="-1.24009667">
        <ele>899.0</ele>
        <time>2019-08-01T08:16:56.016Z</time>
      </trkpt>
      <trkpt lat="43.028625" lon="-1.24011333">
        <ele>899.0</ele>
        <time>2019-08-01T08:16:57.023Z</time>
      </trkpt>
      <trkpt lat="43.02863" lon="-1.24012833">
        <ele>899.0</ele>
        <time>2019-08-01T08:16:58.030Z</time>
      </trkpt>
      <trkpt lat="43.02863167" lon="-1.240135">
        <ele>900.0</ele>
        <time>2019-08-01T08:16:59.035Z</time>
      </trkpt>
      <trkpt lat="43.02864" lon="-1.24015167">
        <ele>899.0</ele>
        <time>2019-08-01T08:17:00.041Z</time>
      </trkpt>
      <trkpt lat="43.02864" lon="-1.24015167">
        <ele>899.0</ele>
        <time>2019-08-01T08:17:00.922Z</time>
      </trkpt>
      <trkpt lat="43.02864333" lon="-1.24016667">
        <ele>899.0</ele>
        <time>2019-08-01T08:17:01.928Z</time>
      </trkpt>
      <trkpt lat="43.02865" lon="-1.24018333">
        <ele>900.0</ele>
        <time>2019-08-01T08:17:02.934Z</time>
      </trkpt>
      <trkpt lat="43.02865833" lon="-1.24020167">
        <ele>900.0</ele>
        <time>2019-08-01T08:17:03.940Z</time>
      </trkpt>
      <trkpt lat="43.02866833" lon="-1.24021">
        <ele>900.0</ele>
        <time>2019-08-01T08:17:04.945Z</time>
      </trkpt>
      <trkpt lat="43.02867833" lon="-1.24022167">
        <ele>901.0</ele>
        <time>2019-08-01T08:17:05.951Z</time>
      </trkpt>
      <trkpt lat="43.02868333" lon="-1.240235">
        <ele>901.0</ele>
        <time>2019-08-01T08:17:06.957Z</time>
      </trkpt>
      <trkpt lat="43.028685" lon="-1.24024833">
        <ele>902.0</ele>
        <time>2019-08-01T08:17:07.962Z</time>
      </trkpt>
      <trkpt lat="43.02868833" lon="-1.24025833">
        <ele>903.0</ele>
        <time>2019-08-01T08:17:08.969Z</time>
      </trkpt>
      <trkpt lat="43.02869333" lon="-1.24026667">
        <ele>903.0</ele>
        <time>2019-08-01T08:17:09.972Z</time>
      </trkpt>
      <trkpt lat="43.028695" lon="-1.24027667">
        <ele>904.0</ele>
        <time>2019-08-01T08:17:10.979Z</time>
      </trkpt>
      <trkpt lat="43.028695" lon="-1.24029">
        <ele>904.0</ele>
        <time>2019-08-01T08:17:11.986Z</time>
      </trkpt>
      <trkpt lat="43.028695" lon="-1.24030167">
        <ele>904.0</ele>
        <time>2019-08-01T08:17:12.992Z</time>
      </trkpt>
      <trkpt lat="43.02869833" lon="-1.240315">
        <ele>905.0</ele>
        <time>2019-08-01T08:17:13.996Z</time>
      </trkpt>
      <trkpt lat="43.02870167" lon="-1.240335">
        <ele>904.0</ele>
        <time>2019-08-01T08:17:15.002Z</time>
      </trkpt>
      <trkpt lat="43.02870833" lon="-1.24035">
        <ele>904.0</ele>
        <time>2019-08-01T08:17:16.010Z</time>
      </trkpt>
      <trkpt lat="43.02871667" lon="-1.24036833">
        <ele>904.0</ele>
        <time>2019-08-01T08:17:17.016Z</time>
      </trkpt>
      <trkpt lat="43.02872333" lon="-1.24038833">
        <ele>905.0</ele>
        <time>2019-08-01T08:17:18.021Z</time>
      </trkpt>
      <trkpt lat="43.02873167" lon="-1.24041167">
        <ele>906.0</ele>
        <time>2019-08-01T08:17:19.027Z</time>
      </trkpt>
      <trkpt lat="43.02874667" lon="-1.240455">
        <ele>907.0</ele>
        <time>2019-08-01T08:17:20.033Z</time>
      </trkpt>
      <trkpt lat="43.02875" lon="-1.24047167">
        <ele>908.0</ele>
        <time>2019-08-01T08:17:21.040Z</time>
      </trkpt>
      <trkpt lat="43.02875" lon="-1.24047167">
        <ele>908.0</ele>
        <time>2019-08-01T08:17:21.920Z</time>
      </trkpt>
      <trkpt lat="43.02875" lon="-1.24049">
        <ele>908.0</ele>
        <time>2019-08-01T08:17:22.926Z</time>
      </trkpt>
      <trkpt lat="43.02875333" lon="-1.24050833">
        <ele>909.0</ele>
        <time>2019-08-01T08:17:23.932Z</time>
      </trkpt>
      <trkpt lat="43.02875667" lon="-1.240525">
        <ele>910.0</ele>
        <time>2019-08-01T08:17:24.936Z</time>
      </trkpt>
      <trkpt lat="43.02876" lon="-1.24054167">
        <ele>911.0</ele>
        <time>2019-08-01T08:17:25.944Z</time>
      </trkpt>
      <trkpt lat="43.02876167" lon="-1.24055167">
        <ele>911.0</ele>
        <time>2019-08-01T08:17:26.950Z</time>
      </trkpt>
      <trkpt lat="43.02876833" lon="-1.24056333">
        <ele>912.0</ele>
        <time>2019-08-01T08:17:27.956Z</time>
      </trkpt>
      <trkpt lat="43.028775" lon="-1.240575">
        <ele>912.0</ele>
        <time>2019-08-01T08:17:28.962Z</time>
      </trkpt>
      <trkpt lat="43.02878167" lon="-1.24059">
        <ele>913.0</ele>
        <time>2019-08-01T08:17:29.966Z</time>
      </trkpt>
      <trkpt lat="43.02879333" lon="-1.24060833">
        <ele>913.0</ele>
        <time>2019-08-01T08:17:30.970Z</time>
      </trkpt>
      <trkpt lat="43.02880333" lon="-1.24062333">
        <ele>913.0</ele>
        <time>2019-08-01T08:17:31.977Z</time>
      </trkpt>
      <trkpt lat="43.02880667" lon="-1.24064167">
        <ele>912.0</ele>
        <time>2019-08-01T08:17:32.983Z</time>
      </trkpt>
      <trkpt lat="43.028805" lon="-1.24065833">
        <ele>911.0</ele>
        <time>2019-08-01T08:17:33.988Z</time>
      </trkpt>
      <trkpt lat="43.02880333" lon="-1.24067667">
        <ele>911.0</ele>
        <time>2019-08-01T08:17:34.992Z</time>
      </trkpt>
      <trkpt lat="43.02880333" lon="-1.24069333">
        <ele>911.0</ele>
        <time>2019-08-01T08:17:35.998Z</time>
      </trkpt>
      <trkpt lat="43.02880667" lon="-1.24071333">
        <ele>910.0</ele>
        <time>2019-08-01T08:17:37.003Z</time>
      </trkpt>
      <trkpt lat="43.02880333" lon="-1.24072667">
        <ele>910.0</ele>
        <time>2019-08-01T08:17:38.007Z</time>
      </trkpt>
      <trkpt lat="43.02880667" lon="-1.24074">
        <ele>910.0</ele>
        <time>2019-08-01T08:17:39.011Z</time>
      </trkpt>
      <trkpt lat="43.02881333" lon="-1.24075667">
        <ele>910.0</ele>
        <time>2019-08-01T08:17:40.018Z</time>
      </trkpt>
      <trkpt lat="43.02881833" lon="-1.24077833">
        <ele>910.0</ele>
        <time>2019-08-01T08:17:41.025Z</time>
      </trkpt>
      <trkpt lat="43.02882167" lon="-1.24080167">
        <ele>910.0</ele>
        <time>2019-08-01T08:17:42.031Z</time>
      </trkpt>
      <trkpt lat="43.02882667" lon="-1.24082333">
        <ele>911.0</ele>
        <time>2019-08-01T08:17:43.037Z</time>
      </trkpt>
      <trkpt lat="43.02883" lon="-1.24083833">
        <ele>911.0</ele>
        <time>2019-08-01T08:17:44.042Z</time>
      </trkpt>
      <trkpt lat="43.028835" lon="-1.24085">
        <ele>912.0</ele>
        <time>2019-08-01T08:17:44.921Z</time>
      </trkpt>
      <trkpt lat="43.02884167" lon="-1.24086">
        <ele>913.0</ele>
        <time>2019-08-01T08:17:45.928Z</time>
      </trkpt>
      <trkpt lat="43.02884667" lon="-1.24087">
        <ele>913.0</ele>
        <time>2019-08-01T08:17:46.934Z</time>
      </trkpt>
      <trkpt lat="43.028845" lon="-1.24087833">
        <ele>912.0</ele>
        <time>2019-08-01T08:17:47.939Z</time>
      </trkpt>
      <trkpt lat="43.028845" lon="-1.24089167">
        <ele>912.0</ele>
        <time>2019-08-01T08:17:48.945Z</time>
      </trkpt>
      <trkpt lat="43.02884833" lon="-1.24091333">
        <ele>912.0</ele>
        <time>2019-08-01T08:17:49.951Z</time>
      </trkpt>
      <trkpt lat="43.02884833" lon="-1.24093667">
        <ele>911.0</ele>
        <time>2019-08-01T08:17:50.956Z</time>
      </trkpt>
      <trkpt lat="43.02885333" lon="-1.24095833">
        <ele>910.0</ele>
        <time>2019-08-01T08:17:51.964Z</time>
      </trkpt>
      <trkpt lat="43.02885833" lon="-1.24097833">
        <ele>909.0</ele>
        <time>2019-08-01T08:17:52.969Z</time>
      </trkpt>
      <trkpt lat="43.02886833" lon="-1.24100167">
        <ele>908.0</ele>
        <time>2019-08-01T08:17:53.976Z</time>
      </trkpt>
      <trkpt lat="43.02887333" lon="-1.24102833">
        <ele>907.0</ele>
        <time>2019-08-01T08:17:54.982Z</time>
      </trkpt>
      <trkpt lat="43.028875" lon="-1.24105167">
        <ele>906.0</ele>
        <time>2019-08-01T08:17:55.986Z</time>
      </trkpt>
      <trkpt lat="43.02887833" lon="-1.24108">
        <ele>906.0</ele>
        <time>2019-08-01T08:17:56.994Z</time>
      </trkpt>
      <trkpt lat="43.02888333" lon="-1.24110333">
        <ele>905.0</ele>
        <time>2019-08-01T08:17:57.998Z</time>
      </trkpt>
      <trkpt lat="43.02888833" lon="-1.24111833">
        <ele>906.0</ele>
        <time>2019-08-01T08:17:59.004Z</time>
      </trkpt>
      <trkpt lat="43.02889167" lon="-1.241135">
        <ele>906.0</ele>
        <time>2019-08-01T08:18:00.011Z</time>
      </trkpt>
      <trkpt lat="43.02889333" lon="-1.24115333">
        <ele>907.0</ele>
        <time>2019-08-01T08:18:01.017Z</time>
      </trkpt>
      <trkpt lat="43.028895" lon="-1.24117167">
        <ele>908.0</ele>
        <time>2019-08-01T08:18:02.023Z</time>
      </trkpt>
      <trkpt lat="43.02889833" lon="-1.24119167">
        <ele>908.0</ele>
        <time>2019-08-01T08:18:03.029Z</time>
      </trkpt>
      <trkpt lat="43.0289" lon="-1.24121">
        <ele>908.0</ele>
        <time>2019-08-01T08:18:04.036Z</time>
      </trkpt>
      <trkpt lat="43.02890833" lon="-1.24124167">
        <ele>909.0</ele>
        <time>2019-08-01T08:18:05.042Z</time>
      </trkpt>
      <trkpt lat="43.02890833" lon="-1.24124167">
        <ele>909.0</ele>
        <time>2019-08-01T08:18:05.923Z</time>
      </trkpt>
      <trkpt lat="43.02891167" lon="-1.24125833">
        <ele>909.0</ele>
        <time>2019-08-01T08:18:06.928Z</time>
      </trkpt>
      <trkpt lat="43.02891167" lon="-1.24127667">
        <ele>909.0</ele>
        <time>2019-08-01T08:18:07.935Z</time>
      </trkpt>
      <trkpt lat="43.02890833" lon="-1.24128667">
        <ele>909.0</ele>
        <time>2019-08-01T08:18:08.940Z</time>
      </trkpt>
      <trkpt lat="43.02891" lon="-1.24129833">
        <ele>909.0</ele>
        <time>2019-08-01T08:18:09.946Z</time>
      </trkpt>
      <trkpt lat="43.02891" lon="-1.24132167">
        <ele>909.0</ele>
        <time>2019-08-01T08:18:10.951Z</time>
      </trkpt>
      <trkpt lat="43.02891" lon="-1.24134">
        <ele>909.0</ele>
        <time>2019-08-01T08:18:11.958Z</time>
      </trkpt>
      <trkpt lat="43.028915" lon="-1.24136667">
        <ele>909.0</ele>
        <time>2019-08-01T08:18:12.964Z</time>
      </trkpt>
      <trkpt lat="43.02891833" lon="-1.241385">
        <ele>909.0</ele>
        <time>2019-08-01T08:18:13.969Z</time>
      </trkpt>
      <trkpt lat="43.02892" lon="-1.24140833">
        <ele>908.0</ele>
        <time>2019-08-01T08:18:14.972Z</time>
      </trkpt>
      <trkpt lat="43.02892167" lon="-1.24142333">
        <ele>907.0</ele>
        <time>2019-08-01T08:18:15.977Z</time>
      </trkpt>
      <trkpt lat="43.02892" lon="-1.24144167">
        <ele>906.0</ele>
        <time>2019-08-01T08:18:16.983Z</time>
      </trkpt>
      <trkpt lat="43.02892333" lon="-1.24146333">
        <ele>907.0</ele>
        <time>2019-08-01T08:18:17.990Z</time>
      </trkpt>
      <trkpt lat="43.02892333" lon="-1.24148833">
        <ele>906.0</ele>
        <time>2019-08-01T08:18:18.995Z</time>
      </trkpt>
      <trkpt lat="43.02892167" lon="-1.241515">
        <ele>906.0</ele>
        <time>2019-08-01T08:18:20.000Z</time>
      </trkpt>
      <trkpt lat="43.02891833" lon="-1.24153667">
        <ele>906.0</ele>
        <time>2019-08-01T08:18:21.006Z</time>
      </trkpt>
      <trkpt lat="43.02892" lon="-1.24155833">
        <ele>906.0</ele>
        <time>2019-08-01T08:18:22.012Z</time>
      </trkpt>
      <trkpt lat="43.02892333" lon="-1.24158">
        <ele>906.0</ele>
        <time>2019-08-01T08:18:23.017Z</time>
      </trkpt>
      <trkpt lat="43.02893" lon="-1.2416">
        <ele>906.0</ele>
        <time>2019-08-01T08:18:24.021Z</time>
      </trkpt>
      <trkpt lat="43.028935" lon="-1.24162167">
        <ele>907.0</ele>
        <time>2019-08-01T08:18:25.028Z</time>
      </trkpt>
      <trkpt lat="43.02894333" lon="-1.24167833">
        <ele>909.0</ele>
        <time>2019-08-01T08:18:26.035Z</time>
      </trkpt>
      <trkpt lat="43.02894333" lon="-1.24167833">
        <ele>909.0</ele>
        <time>2019-08-01T08:18:27.040Z</time>
      </trkpt>
      <trkpt lat="43.02893833" lon="-1.24170667">
        <ele>910.0</ele>
        <time>2019-08-01T08:18:27.921Z</time>
      </trkpt>
      <trkpt lat="43.02893833" lon="-1.24173">
        <ele>910.0</ele>
        <time>2019-08-01T08:18:28.927Z</time>
      </trkpt>
      <trkpt lat="43.02894333" lon="-1.241745">
        <ele>911.0</ele>
        <time>2019-08-01T08:18:29.932Z</time>
      </trkpt>
      <trkpt lat="43.02895167" lon="-1.24175333">
        <ele>912.0</ele>
        <time>2019-08-01T08:18:30.937Z</time>
      </trkpt>
      <trkpt lat="43.02896" lon="-1.24176667">
        <ele>912.0</ele>
        <time>2019-08-01T08:18:31.944Z</time>
      </trkpt>
      <trkpt lat="43.028965" lon="-1.24178">
        <ele>911.0</ele>
        <time>2019-08-01T08:18:32.951Z</time>
      </trkpt>
      <trkpt lat="43.02896833" lon="-1.24180333">
        <ele>910.0</ele>
        <time>2019-08-01T08:18:33.957Z</time>
      </trkpt>
      <trkpt lat="43.02897" lon="-1.24181667">
        <ele>910.0</ele>
        <time>2019-08-01T08:18:34.964Z</time>
      </trkpt>
      <trkpt lat="43.02897" lon="-1.24183667">
        <ele>909.0</ele>
        <time>2019-08-01T08:18:35.970Z</time>
      </trkpt>
      <trkpt lat="43.02897667" lon="-1.24185167">
        <ele>909.0</ele>
        <time>2019-08-01T08:18:36.978Z</time>
      </trkpt>
      <trkpt lat="43.02898" lon="-1.24186667">
        <ele>909.0</ele>
        <time>2019-08-01T08:18:37.984Z</time>
      </trkpt>
      <trkpt lat="43.02898167" lon="-1.24188333">
        <ele>909.0</ele>
        <time>2019-08-01T08:18:38.990Z</time>
      </trkpt>
      <trkpt lat="43.02898167" lon="-1.24189667">
        <ele>908.0</ele>
        <time>2019-08-01T08:18:39.997Z</time>
      </trkpt>
      <trkpt lat="43.02898167" lon="-1.24190833">
        <ele>908.0</ele>
        <time>2019-08-01T08:18:41.005Z</time>
      </trkpt>
      <trkpt lat="43.02898167" lon="-1.24192">
        <ele>907.0</ele>
        <time>2019-08-01T08:18:42.006Z</time>
      </trkpt>
      <trkpt lat="43.02897833" lon="-1.24193333">
        <ele>907.0</ele>
        <time>2019-08-01T08:18:43.011Z</time>
      </trkpt>
      <trkpt lat="43.02897833" lon="-1.24195167">
        <ele>906.0</ele>
        <time>2019-08-01T08:18:44.013Z</time>
      </trkpt>
      <trkpt lat="43.02898333" lon="-1.24197">
        <ele>906.0</ele>
        <time>2019-08-01T08:18:45.015Z</time>
      </trkpt>
      <trkpt lat="43.028985" lon="-1.241985">
        <ele>907.0</ele>
        <time>2019-08-01T08:18:46.018Z</time>
      </trkpt>
      <trkpt lat="43.028985" lon="-1.24200167">
        <ele>907.0</ele>
        <time>2019-08-01T08:18:47.022Z</time>
      </trkpt>
      <trkpt lat="43.02898333" lon="-1.24201833">
        <ele>907.0</ele>
        <time>2019-08-01T08:18:48.027Z</time>
      </trkpt>
      <trkpt lat="43.02898167" lon="-1.24203167">
        <ele>907.0</ele>
        <time>2019-08-01T08:18:49.033Z</time>
      </trkpt>
      <trkpt lat="43.02897667" lon="-1.24205667">
        <ele>906.0</ele>
        <time>2019-08-01T08:18:50.040Z</time>
      </trkpt>
      <trkpt lat="43.02897667" lon="-1.24205667">
        <ele>906.0</ele>
        <time>2019-08-01T08:18:50.919Z</time>
      </trkpt>
      <trkpt lat="43.028975" lon="-1.24206667">
        <ele>906.0</ele>
        <time>2019-08-01T08:18:51.924Z</time>
      </trkpt>
      <trkpt lat="43.02897333" lon="-1.24208333">
        <ele>906.0</ele>
        <time>2019-08-01T08:18:52.930Z</time>
      </trkpt>
      <trkpt lat="43.02897333" lon="-1.24210167">
        <ele>905.0</ele>
        <time>2019-08-01T08:18:53.937Z</time>
      </trkpt>
      <trkpt lat="43.02897167" lon="-1.24212667">
        <ele>904.0</ele>
        <time>2019-08-01T08:18:54.944Z</time>
      </trkpt>
      <trkpt lat="43.02896833" lon="-1.24214667">
        <ele>904.0</ele>
        <time>2019-08-01T08:18:55.949Z</time>
      </trkpt>
      <trkpt lat="43.02896833" lon="-1.24216667">
        <ele>904.0</ele>
        <time>2019-08-01T08:18:56.955Z</time>
      </trkpt>
      <trkpt lat="43.02896667" lon="-1.242185">
        <ele>904.0</ele>
        <time>2019-08-01T08:18:57.962Z</time>
      </trkpt>
      <trkpt lat="43.028965" lon="-1.24220167">
        <ele>904.0</ele>
        <time>2019-08-01T08:18:58.968Z</time>
      </trkpt>
      <trkpt lat="43.028965" lon="-1.24222">
        <ele>903.0</ele>
        <time>2019-08-01T08:18:59.975Z</time>
      </trkpt>
      <trkpt lat="43.02896667" lon="-1.242245">
        <ele>904.0</ele>
        <time>2019-08-01T08:19:00.981Z</time>
      </trkpt>
      <trkpt lat="43.02896833" lon="-1.242265">
        <ele>904.0</ele>
        <time>2019-08-01T08:19:01.986Z</time>
      </trkpt>
      <trkpt lat="43.02897167" lon="-1.24228833">
        <ele>905.0</ele>
        <time>2019-08-01T08:19:02.990Z</time>
      </trkpt>
      <trkpt lat="43.02897333" lon="-1.24231333">
        <ele>906.0</ele>
        <time>2019-08-01T08:19:03.996Z</time>
      </trkpt>
      <trkpt lat="43.02897667" lon="-1.24233667">
        <ele>908.0</ele>
        <time>2019-08-01T08:19:04.999Z</time>
      </trkpt>
      <trkpt lat="43.02897833" lon="-1.24235333">
        <ele>909.0</ele>
        <time>2019-08-01T08:19:06.002Z</time>
      </trkpt>
      <trkpt lat="43.02897667" lon="-1.24236833">
        <ele>911.0</ele>
        <time>2019-08-01T08:19:07.008Z</time>
      </trkpt>
      <trkpt lat="43.02897333" lon="-1.24238333">
        <ele>912.0</ele>
        <time>2019-08-01T08:19:08.011Z</time>
      </trkpt>
      <trkpt lat="43.02896833" lon="-1.24240333">
        <ele>913.0</ele>
        <time>2019-08-01T08:19:09.016Z</time>
      </trkpt>
      <trkpt lat="43.02896833" lon="-1.24242167">
        <ele>913.0</ele>
        <time>2019-08-01T08:19:10.018Z</time>
      </trkpt>
      <trkpt lat="43.02897" lon="-1.24243167">
        <ele>913.0</ele>
        <time>2019-08-01T08:19:11.018Z</time>
      </trkpt>
      <trkpt lat="43.02897" lon="-1.24243833">
        <ele>914.0</ele>
        <time>2019-08-01T08:19:12.023Z</time>
      </trkpt>
      <trkpt lat="43.02897167" lon="-1.24244833">
        <ele>915.0</ele>
        <time>2019-08-01T08:19:13.029Z</time>
      </trkpt>
      <trkpt lat="43.028975" lon="-1.24246833">
        <ele>916.0</ele>
        <time>2019-08-01T08:19:14.031Z</time>
      </trkpt>
      <trkpt lat="43.02898" lon="-1.242515">
        <ele>916.0</ele>
        <time>2019-08-01T08:19:15.035Z</time>
      </trkpt>
      <trkpt lat="43.02897833" lon="-1.24253167">
        <ele>916.0</ele>
        <time>2019-08-01T08:19:16.043Z</time>
      </trkpt>
      <trkpt lat="43.02897833" lon="-1.24253167">
        <ele>916.0</ele>
        <time>2019-08-01T08:19:16.924Z</time>
      </trkpt>
      <trkpt lat="43.028975" lon="-1.242555">
        <ele>916.0</ele>
        <time>2019-08-01T08:19:17.929Z</time>
      </trkpt>
      <trkpt lat="43.028975" lon="-1.242575">
        <ele>916.0</ele>
        <time>2019-08-01T08:19:18.935Z</time>
      </trkpt>
      <trkpt lat="43.02897" lon="-1.24259833">
        <ele>915.0</ele>
        <time>2019-08-01T08:19:19.938Z</time>
      </trkpt>
      <trkpt lat="43.02896833" lon="-1.24262">
        <ele>915.0</ele>
        <time>2019-08-01T08:19:20.944Z</time>
      </trkpt>
      <trkpt lat="43.02896833" lon="-1.24264167">
        <ele>915.0</ele>
        <time>2019-08-01T08:19:21.950Z</time>
      </trkpt>
      <trkpt lat="43.02896333" lon="-1.24265667">
        <ele>916.0</ele>
        <time>2019-08-01T08:19:22.956Z</time>
      </trkpt>
      <trkpt lat="43.02896167" lon="-1.24268">
        <ele>916.0</ele>
        <time>2019-08-01T08:19:23.960Z</time>
      </trkpt>
      <trkpt lat="43.02896167" lon="-1.24270333">
        <ele>916.0</ele>
        <time>2019-08-01T08:19:24.966Z</time>
      </trkpt>
      <trkpt lat="43.02895833" lon="-1.24271833">
        <ele>916.0</ele>
        <time>2019-08-01T08:19:25.973Z</time>
      </trkpt>
      <trkpt lat="43.02895167" lon="-1.24273333">
        <ele>916.0</ele>
        <time>2019-08-01T08:19:26.980Z</time>
      </trkpt>
      <trkpt lat="43.028945" lon="-1.24274833">
        <ele>916.0</ele>
        <time>2019-08-01T08:19:27.986Z</time>
      </trkpt>
      <trkpt lat="43.02894167" lon="-1.24276167">
        <ele>916.0</ele>
        <time>2019-08-01T08:19:28.993Z</time>
      </trkpt>
      <trkpt lat="43.02893167" lon="-1.24277667">
        <ele>916.0</ele>
        <time>2019-08-01T08:19:29.999Z</time>
      </trkpt>
      <trkpt lat="43.02892167" lon="-1.24278167">
        <ele>915.0</ele>
        <time>2019-08-01T08:19:31.002Z</time>
      </trkpt>
      <trkpt lat="43.02890833" lon="-1.242785">
        <ele>915.0</ele>
        <time>2019-08-01T08:19:32.008Z</time>
      </trkpt>
      <trkpt lat="43.02889667" lon="-1.242795">
        <ele>915.0</ele>
        <time>2019-08-01T08:19:33.011Z</time>
      </trkpt>
      <trkpt lat="43.02888667" lon="-1.24280667">
        <ele>915.0</ele>
        <time>2019-08-01T08:19:34.018Z</time>
      </trkpt>
      <trkpt lat="43.02887667" lon="-1.242815">
        <ele>915.0</ele>
        <time>2019-08-01T08:19:35.025Z</time>
      </trkpt>
      <trkpt lat="43.02885833" lon="-1.24283">
        <ele>916.0</ele>
        <time>2019-08-01T08:19:36.030Z</time>
      </trkpt>
      <trkpt lat="43.02885833" lon="-1.24283">
        <ele>916.0</ele>
        <time>2019-08-01T08:19:37.036Z</time>
      </trkpt>
      <trkpt lat="43.02885167" lon="-1.24283667">
        <ele>916.0</ele>
        <time>2019-08-01T08:19:38.042Z</time>
      </trkpt>
      <trkpt lat="43.02884333" lon="-1.24285">
        <ele>916.0</ele>
        <time>2019-08-01T08:19:38.923Z</time>
      </trkpt>
      <trkpt lat="43.028835" lon="-1.24286667">
        <ele>916.0</ele>
        <time>2019-08-01T08:19:39.929Z</time>
      </trkpt>
      <trkpt lat="43.028825" lon="-1.24288333">
        <ele>916.0</ele>
        <time>2019-08-01T08:19:40.937Z</time>
      </trkpt>
      <trkpt lat="43.02881333" lon="-1.24289833">
        <ele>917.0</ele>
        <time>2019-08-01T08:19:41.941Z</time>
      </trkpt>
      <trkpt lat="43.02879833" lon="-1.24291">
        <ele>917.0</ele>
        <time>2019-08-01T08:19:42.946Z</time>
      </trkpt>
      <trkpt lat="43.02878167" lon="-1.24291833">
        <ele>917.0</ele>
        <time>2019-08-01T08:19:43.951Z</time>
      </trkpt>
      <trkpt lat="43.028765" lon="-1.24292667">
        <ele>917.0</ele>
        <time>2019-08-01T08:19:44.956Z</time>
      </trkpt>
      <trkpt lat="43.02875333" lon="-1.242935">
        <ele>917.0</ele>
        <time>2019-08-01T08:19:45.960Z</time>
      </trkpt>
      <trkpt lat="43.02874" lon="-1.24294167">
        <ele>917.0</ele>
        <time>2019-08-01T08:19:46.968Z</time>
      </trkpt>
      <trkpt lat="43.02873" lon="-1.24295667">
        <ele>918.0</ele>
        <time>2019-08-01T08:19:47.973Z</time>
      </trkpt>
      <trkpt lat="43.02872333" lon="-1.24296833">
        <ele>918.0</ele>
        <time>2019-08-01T08:19:48.980Z</time>
      </trkpt>
      <trkpt lat="43.02871667" lon="-1.24297833">
        <ele>919.0</ele>
        <time>2019-08-01T08:19:49.986Z</time>
      </trkpt>
      <trkpt lat="43.02871" lon="-1.24298167">
        <ele>920.0</ele>
        <time>2019-08-01T08:19:50.992Z</time>
      </trkpt>
      <trkpt lat="43.02869667" lon="-1.24298667">
        <ele>920.0</ele>
        <time>2019-08-01T08:19:51.999Z</time>
      </trkpt>
      <trkpt lat="43.02869" lon="-1.24300167">
        <ele>921.0</ele>
        <time>2019-08-01T08:19:53.005Z</time>
      </trkpt>
      <trkpt lat="43.02868333" lon="-1.24302167">
        <ele>921.0</ele>
        <time>2019-08-01T08:19:54.009Z</time>
      </trkpt>
      <trkpt lat="43.028685" lon="-1.24304667">
        <ele>922.0</ele>
        <time>2019-08-01T08:19:55.015Z</time>
      </trkpt>
      <trkpt lat="43.02868167" lon="-1.24306667">
        <ele>922.0</ele>
        <time>2019-08-01T08:19:56.023Z</time>
      </trkpt>
      <trkpt lat="43.028675" lon="-1.24308333">
        <ele>921.0</ele>
        <time>2019-08-01T08:19:57.028Z</time>
      </trkpt>
      <trkpt lat="43.02865667" lon="-1.24310833">
        <ele>921.0</ele>
        <time>2019-08-01T08:19:58.032Z</time>
      </trkpt>
      <trkpt lat="43.02864833" lon="-1.24312">
        <ele>921.0</ele>
        <time>2019-08-01T08:19:59.039Z</time>
      </trkpt>
      <trkpt lat="43.02864833" lon="-1.24312">
        <ele>921.0</ele>
        <time>2019-08-01T08:19:59.919Z</time>
      </trkpt>
      <trkpt lat="43.02864" lon="-1.243135">
        <ele>921.0</ele>
        <time>2019-08-01T08:20:00.926Z</time>
      </trkpt>
      <trkpt lat="43.02863" lon="-1.24315333">
        <ele>921.0</ele>
        <time>2019-08-01T08:20:01.932Z</time>
      </trkpt>
      <trkpt lat="43.02861667" lon="-1.24316667">
        <ele>921.0</ele>
        <time>2019-08-01T08:20:02.938Z</time>
      </trkpt>
      <trkpt lat="43.0286" lon="-1.24318333">
        <ele>920.0</ele>
        <time>2019-08-01T08:20:03.942Z</time>
      </trkpt>
      <trkpt lat="43.02858" lon="-1.24320167">
        <ele>920.0</ele>
        <time>2019-08-01T08:20:04.949Z</time>
      </trkpt>
      <trkpt lat="43.02857" lon="-1.24321333">
        <ele>920.0</ele>
        <time>2019-08-01T08:20:05.956Z</time>
      </trkpt>
      <trkpt lat="43.02855833" lon="-1.24322833">
        <ele>920.0</ele>
        <time>2019-08-01T08:20:06.962Z</time>
      </trkpt>
      <trkpt lat="43.02855" lon="-1.24324">
        <ele>920.0</ele>
        <time>2019-08-01T08:20:07.969Z</time>
      </trkpt>
      <trkpt lat="43.02854167" lon="-1.24326">
        <ele>920.0</ele>
        <time>2019-08-01T08:20:08.974Z</time>
      </trkpt>
      <trkpt lat="43.02852833" lon="-1.24327667">
        <ele>920.0</ele>
        <time>2019-08-01T08:20:09.981Z</time>
      </trkpt>
      <trkpt lat="43.02851833" lon="-1.24329333">
        <ele>920.0</ele>
        <time>2019-08-01T08:20:10.987Z</time>
      </trkpt>
      <trkpt lat="43.02850833" lon="-1.24330833">
        <ele>920.0</ele>
        <time>2019-08-01T08:20:11.995Z</time>
      </trkpt>
      <trkpt lat="43.02850333" lon="-1.24332167">
        <ele>921.0</ele>
        <time>2019-08-01T08:20:13.002Z</time>
      </trkpt>
      <trkpt lat="43.02849833" lon="-1.24334">
        <ele>922.0</ele>
        <time>2019-08-01T08:20:14.007Z</time>
      </trkpt>
      <trkpt lat="43.02849167" lon="-1.24335833">
        <ele>922.0</ele>
        <time>2019-08-01T08:20:15.011Z</time>
      </trkpt>
      <trkpt lat="43.028485" lon="-1.24337667">
        <ele>923.0</ele>
        <time>2019-08-01T08:20:16.016Z</time>
      </trkpt>
      <trkpt lat="43.02847667" lon="-1.24339333">
        <ele>924.0</ele>
        <time>2019-08-01T08:20:17.023Z</time>
      </trkpt>
      <trkpt lat="43.02846833" lon="-1.24342">
        <ele>925.0</ele>
        <time>2019-08-01T08:20:18.029Z</time>
      </trkpt>
      <trkpt lat="43.02846333" lon="-1.24343167">
        <ele>925.0</ele>
        <time>2019-08-01T08:20:19.035Z</time>
      </trkpt>
      <trkpt lat="43.02846" lon="-1.24344667">
        <ele>924.0</ele>
        <time>2019-08-01T08:20:20.040Z</time>
      </trkpt>
      <trkpt lat="43.02846" lon="-1.24344667">
        <ele>924.0</ele>
        <time>2019-08-01T08:20:20.920Z</time>
      </trkpt>
      <trkpt lat="43.02846" lon="-1.24346667">
        <ele>925.0</ele>
        <time>2019-08-01T08:20:21.927Z</time>
      </trkpt>
      <trkpt lat="43.02846" lon="-1.24349167">
        <ele>924.0</ele>
        <time>2019-08-01T08:20:22.929Z</time>
      </trkpt>
      <trkpt lat="43.02846" lon="-1.243515">
        <ele>923.0</ele>
        <time>2019-08-01T08:20:23.935Z</time>
      </trkpt>
      <trkpt lat="43.02845667" lon="-1.24353667">
        <ele>922.0</ele>
        <time>2019-08-01T08:20:24.941Z</time>
      </trkpt>
      <trkpt lat="43.02845" lon="-1.243555">
        <ele>923.0</ele>
        <time>2019-08-01T08:20:25.947Z</time>
      </trkpt>
      <trkpt lat="43.02844333" lon="-1.243575">
        <ele>923.0</ele>
        <time>2019-08-01T08:20:26.953Z</time>
      </trkpt>
      <trkpt lat="43.02843833" lon="-1.243595">
        <ele>922.0</ele>
        <time>2019-08-01T08:20:27.960Z</time>
      </trkpt>
      <trkpt lat="43.02842667" lon="-1.243615">
        <ele>922.0</ele>
        <time>2019-08-01T08:20:28.965Z</time>
      </trkpt>
      <trkpt lat="43.02841833" lon="-1.24363333">
        <ele>922.0</ele>
        <time>2019-08-01T08:20:29.970Z</time>
      </trkpt>
      <trkpt lat="43.02841167" lon="-1.24365">
        <ele>923.0</ele>
        <time>2019-08-01T08:20:30.977Z</time>
      </trkpt>
      <trkpt lat="43.02840167" lon="-1.243655">
        <ele>923.0</ele>
        <time>2019-08-01T08:20:31.984Z</time>
      </trkpt>
      <trkpt lat="43.028395" lon="-1.24367167">
        <ele>923.0</ele>
        <time>2019-08-01T08:20:32.990Z</time>
      </trkpt>
      <trkpt lat="43.02839333" lon="-1.24369">
        <ele>924.0</ele>
        <time>2019-08-01T08:20:33.997Z</time>
      </trkpt>
      <trkpt lat="43.02838667" lon="-1.2437">
        <ele>924.0</ele>
        <time>2019-08-01T08:20:35.004Z</time>
      </trkpt>
      <trkpt lat="43.02838" lon="-1.24371167">
        <ele>924.0</ele>
        <time>2019-08-01T08:20:36.010Z</time>
      </trkpt>
      <trkpt lat="43.02837333" lon="-1.24373">
        <ele>924.0</ele>
        <time>2019-08-01T08:20:37.015Z</time>
      </trkpt>
      <trkpt lat="43.028365" lon="-1.24375">
        <ele>923.0</ele>
        <time>2019-08-01T08:20:38.022Z</time>
      </trkpt>
      <trkpt lat="43.02836" lon="-1.243765">
        <ele>922.0</ele>
        <time>2019-08-01T08:20:39.028Z</time>
      </trkpt>
      <trkpt lat="43.02834333" lon="-1.24379">
        <ele>920.0</ele>
        <time>2019-08-01T08:20:40.034Z</time>
      </trkpt>
      <trkpt lat="43.02833833" lon="-1.2438">
        <ele>920.0</ele>
        <time>2019-08-01T08:20:41.040Z</time>
      </trkpt>
      <trkpt lat="43.028335" lon="-1.24381167">
        <ele>920.0</ele>
        <time>2019-08-01T08:20:42.042Z</time>
      </trkpt>
      <trkpt lat="43.028335" lon="-1.24381167">
        <ele>920.0</ele>
        <time>2019-08-01T08:20:42.922Z</time>
      </trkpt>
      <trkpt lat="43.02833" lon="-1.24382833">
        <ele>920.0</ele>
        <time>2019-08-01T08:20:43.928Z</time>
      </trkpt>
      <trkpt lat="43.028325" lon="-1.24384333">
        <ele>920.0</ele>
        <time>2019-08-01T08:20:44.932Z</time>
      </trkpt>
      <trkpt lat="43.02831667" lon="-1.24385667">
        <ele>920.0</ele>
        <time>2019-08-01T08:20:45.934Z</time>
      </trkpt>
      <trkpt lat="43.02831333" lon="-1.24387">
        <ele>920.0</ele>
        <time>2019-08-01T08:20:46.940Z</time>
      </trkpt>
      <trkpt lat="43.02831" lon="-1.243885">
        <ele>919.0</ele>
        <time>2019-08-01T08:20:47.945Z</time>
      </trkpt>
      <trkpt lat="43.02830667" lon="-1.24390167">
        <ele>919.0</ele>
        <time>2019-08-01T08:20:48.952Z</time>
      </trkpt>
      <trkpt lat="43.02830167" lon="-1.24391833">
        <ele>918.0</ele>
        <time>2019-08-01T08:20:49.958Z</time>
      </trkpt>
      <trkpt lat="43.02830167" lon="-1.24393833">
        <ele>918.0</ele>
        <time>2019-08-01T08:20:50.964Z</time>
      </trkpt>
      <trkpt lat="43.0283" lon="-1.243955">
        <ele>919.0</ele>
        <time>2019-08-01T08:20:51.969Z</time>
      </trkpt>
      <trkpt lat="43.0283" lon="-1.24397">
        <ele>919.0</ele>
        <time>2019-08-01T08:20:52.976Z</time>
      </trkpt>
      <trkpt lat="43.02829667" lon="-1.24398167">
        <ele>919.0</ele>
        <time>2019-08-01T08:20:53.983Z</time>
      </trkpt>
      <trkpt lat="43.02829333" lon="-1.24399333">
        <ele>919.0</ele>
        <time>2019-08-01T08:20:54.991Z</time>
      </trkpt>
      <trkpt lat="43.028295" lon="-1.24401">
        <ele>920.0</ele>
        <time>2019-08-01T08:20:55.997Z</time>
      </trkpt>
      <trkpt lat="43.02829333" lon="-1.244025">
        <ele>921.0</ele>
        <time>2019-08-01T08:20:57.002Z</time>
      </trkpt>
      <trkpt lat="43.028295" lon="-1.24403833">
        <ele>921.0</ele>
        <time>2019-08-01T08:20:58.008Z</time>
      </trkpt>
      <trkpt lat="43.02829333" lon="-1.244055">
        <ele>921.0</ele>
        <time>2019-08-01T08:20:59.013Z</time>
      </trkpt>
      <trkpt lat="43.02828667" lon="-1.24407167">
        <ele>921.0</ele>
        <time>2019-08-01T08:21:00.016Z</time>
      </trkpt>
      <trkpt lat="43.02827833" lon="-1.24409333">
        <ele>922.0</ele>
        <time>2019-08-01T08:21:01.022Z</time>
      </trkpt>
      <trkpt lat="43.028275" lon="-1.24411">
        <ele>924.0</ele>
        <time>2019-08-01T08:21:02.029Z</time>
      </trkpt>
      <trkpt lat="43.02826333" lon="-1.24413">
        <ele>926.0</ele>
        <time>2019-08-01T08:21:03.036Z</time>
      </trkpt>
      <trkpt lat="43.02825833" lon="-1.24414167">
        <ele>927.0</ele>
        <time>2019-08-01T08:21:04.042Z</time>
      </trkpt>
      <trkpt lat="43.02825833" lon="-1.24414167">
        <ele>927.0</ele>
        <time>2019-08-01T08:21:04.921Z</time>
      </trkpt>
      <trkpt lat="43.028255" lon="-1.24415667">
        <ele>927.0</ele>
        <time>2019-08-01T08:21:05.924Z</time>
      </trkpt>
      <trkpt lat="43.02825167" lon="-1.24417667">
        <ele>927.0</ele>
        <time>2019-08-01T08:21:06.928Z</time>
      </trkpt>
      <trkpt lat="43.02824833" lon="-1.24420333">
        <ele>927.0</ele>
        <time>2019-08-01T08:21:07.933Z</time>
      </trkpt>
      <trkpt lat="43.028245" lon="-1.24423667">
        <ele>927.0</ele>
        <time>2019-08-01T08:21:08.938Z</time>
      </trkpt>
      <trkpt lat="43.02824833" lon="-1.24426667">
        <ele>928.0</ele>
        <time>2019-08-01T08:21:09.943Z</time>
      </trkpt>
      <trkpt lat="43.02825167" lon="-1.24428833">
        <ele>929.0</ele>
        <time>2019-08-01T08:21:10.950Z</time>
      </trkpt>
      <trkpt lat="43.02825" lon="-1.24430333">
        <ele>931.0</ele>
        <time>2019-08-01T08:21:11.954Z</time>
      </trkpt>
      <trkpt lat="43.02824833" lon="-1.244315">
        <ele>932.0</ele>
        <time>2019-08-01T08:21:12.960Z</time>
      </trkpt>
      <trkpt lat="43.02825" lon="-1.244335">
        <ele>934.0</ele>
        <time>2019-08-01T08:21:13.967Z</time>
      </trkpt>
      <trkpt lat="43.02825167" lon="-1.24436333">
        <ele>935.0</ele>
        <time>2019-08-01T08:21:14.970Z</time>
      </trkpt>
      <trkpt lat="43.02825667" lon="-1.24439">
        <ele>935.0</ele>
        <time>2019-08-01T08:21:15.978Z</time>
      </trkpt>
      <trkpt lat="43.028255" lon="-1.24441833">
        <ele>934.0</ele>
        <time>2019-08-01T08:21:16.985Z</time>
      </trkpt>
      <trkpt lat="43.02824833" lon="-1.244445">
        <ele>934.0</ele>
        <time>2019-08-01T08:21:17.989Z</time>
      </trkpt>
      <trkpt lat="43.02824667" lon="-1.24447">
        <ele>935.0</ele>
        <time>2019-08-01T08:21:18.994Z</time>
      </trkpt>
      <trkpt lat="43.028245" lon="-1.244495">
        <ele>936.0</ele>
        <time>2019-08-01T08:21:20.000Z</time>
      </trkpt>
      <trkpt lat="43.028245" lon="-1.24452167">
        <ele>935.0</ele>
        <time>2019-08-01T08:21:21.006Z</time>
      </trkpt>
      <trkpt lat="43.02824167" lon="-1.24454167">
        <ele>934.0</ele>
        <time>2019-08-01T08:21:22.012Z</time>
      </trkpt>
      <trkpt lat="43.02824" lon="-1.24456167">
        <ele>933.0</ele>
        <time>2019-08-01T08:21:23.018Z</time>
      </trkpt>
      <trkpt lat="43.02824" lon="-1.24458333">
        <ele>932.0</ele>
        <time>2019-08-01T08:21:24.025Z</time>
      </trkpt>
      <trkpt lat="43.02824" lon="-1.244605">
        <ele>931.0</ele>
        <time>2019-08-01T08:21:25.032Z</time>
      </trkpt>
      <trkpt lat="43.028235" lon="-1.24464833">
        <ele>930.0</ele>
        <time>2019-08-01T08:21:26.038Z</time>
      </trkpt>
      <trkpt lat="43.028235" lon="-1.24464833">
        <ele>930.0</ele>
        <time>2019-08-01T08:21:26.919Z</time>
      </trkpt>
      <trkpt lat="43.02822333" lon="-1.24466833">
        <ele>930.0</ele>
        <time>2019-08-01T08:21:27.924Z</time>
      </trkpt>
      <trkpt lat="43.028215" lon="-1.24468667">
        <ele>930.0</ele>
        <time>2019-08-01T08:21:28.929Z</time>
      </trkpt>
      <trkpt lat="43.02820833" lon="-1.244705">
        <ele>930.0</ele>
        <time>2019-08-01T08:21:29.936Z</time>
      </trkpt>
      <trkpt lat="43.02820833" lon="-1.24472667">
        <ele>931.0</ele>
        <time>2019-08-01T08:21:30.942Z</time>
      </trkpt>
      <trkpt lat="43.02821167" lon="-1.24475167">
        <ele>931.0</ele>
        <time>2019-08-01T08:21:31.948Z</time>
      </trkpt>
      <trkpt lat="43.028215" lon="-1.244775">
        <ele>931.0</ele>
        <time>2019-08-01T08:21:32.953Z</time>
      </trkpt>
      <trkpt lat="43.02822167" lon="-1.24479833">
        <ele>931.0</ele>
        <time>2019-08-01T08:21:33.959Z</time>
      </trkpt>
      <trkpt lat="43.02822833" lon="-1.24482167">
        <ele>931.0</ele>
        <time>2019-08-01T08:21:34.966Z</time>
      </trkpt>
      <trkpt lat="43.02822833" lon="-1.24483667">
        <ele>931.0</ele>
        <time>2019-08-01T08:21:35.973Z</time>
      </trkpt>
      <trkpt lat="43.02824" lon="-1.24485167">
        <ele>932.0</ele>
        <time>2019-08-01T08:21:36.979Z</time>
      </trkpt>
      <trkpt lat="43.02824667" lon="-1.24486">
        <ele>932.0</ele>
        <time>2019-08-01T08:21:37.985Z</time>
      </trkpt>
      <trkpt lat="43.028245" lon="-1.24486667">
        <ele>933.0</ele>
        <time>2019-08-01T08:21:38.991Z</time>
      </trkpt>
      <trkpt lat="43.02824333" lon="-1.24487333">
        <ele>934.0</ele>
        <time>2019-08-01T08:21:39.993Z</time>
      </trkpt>
      <trkpt lat="43.02824833" lon="-1.24488833">
        <ele>935.0</ele>
        <time>2019-08-01T08:21:40.998Z</time>
      </trkpt>
      <trkpt lat="43.028255" lon="-1.244905">
        <ele>936.0</ele>
        <time>2019-08-01T08:21:42.005Z</time>
      </trkpt>
      <trkpt lat="43.02826167" lon="-1.24492">
        <ele>936.0</ele>
        <time>2019-08-01T08:21:43.011Z</time>
      </trkpt>
      <trkpt lat="43.028265" lon="-1.24493167">
        <ele>937.0</ele>
        <time>2019-08-01T08:21:44.018Z</time>
      </trkpt>
      <trkpt lat="43.02826833" lon="-1.244945">
        <ele>937.0</ele>
        <time>2019-08-01T08:21:45.024Z</time>
      </trkpt>
      <trkpt lat="43.02827" lon="-1.24496167">
        <ele>937.0</ele>
        <time>2019-08-01T08:21:46.032Z</time>
      </trkpt>
      <trkpt lat="43.02827833" lon="-1.24498833">
        <ele>938.0</ele>
        <time>2019-08-01T08:21:47.037Z</time>
      </trkpt>
      <trkpt lat="43.02827667" lon="-1.245005">
        <ele>938.0</ele>
        <time>2019-08-01T08:21:48.043Z</time>
      </trkpt>
      <trkpt lat="43.02827667" lon="-1.245005">
        <ele>938.0</ele>
        <time>2019-08-01T08:21:48.924Z</time>
      </trkpt>
      <trkpt lat="43.02827667" lon="-1.245025">
        <ele>938.0</ele>
        <time>2019-08-01T08:21:49.930Z</time>
      </trkpt>
      <trkpt lat="43.02827167" lon="-1.24504333">
        <ele>937.0</ele>
        <time>2019-08-01T08:21:50.935Z</time>
      </trkpt>
      <trkpt lat="43.02827333" lon="-1.24506333">
        <ele>936.0</ele>
        <time>2019-08-01T08:21:51.940Z</time>
      </trkpt>
      <trkpt lat="43.02827167" lon="-1.24508333">
        <ele>936.0</ele>
        <time>2019-08-01T08:21:52.946Z</time>
      </trkpt>
      <trkpt lat="43.02826833" lon="-1.24510167">
        <ele>936.0</ele>
        <time>2019-08-01T08:21:53.952Z</time>
      </trkpt>
      <trkpt lat="43.02826667" lon="-1.24512833">
        <ele>936.0</ele>
        <time>2019-08-01T08:21:54.958Z</time>
      </trkpt>
      <trkpt lat="43.02826333" lon="-1.24515333">
        <ele>936.0</ele>
        <time>2019-08-01T08:21:55.964Z</time>
      </trkpt>
      <trkpt lat="43.02826" lon="-1.24518167">
        <ele>935.0</ele>
        <time>2019-08-01T08:21:56.969Z</time>
      </trkpt>
      <trkpt lat="43.02826" lon="-1.24520833">
        <ele>935.0</ele>
        <time>2019-08-01T08:21:57.974Z</time>
      </trkpt>
      <trkpt lat="43.02826" lon="-1.245235">
        <ele>934.0</ele>
        <time>2019-08-01T08:21:58.979Z</time>
      </trkpt>
      <trkpt lat="43.02825667" lon="-1.24526">
        <ele>933.0</ele>
        <time>2019-08-01T08:21:59.986Z</time>
      </trkpt>
      <trkpt lat="43.02825333" lon="-1.24528333">
        <ele>932.0</ele>
        <time>2019-08-01T08:22:00.991Z</time>
      </trkpt>
      <trkpt lat="43.02824833" lon="-1.24530333">
        <ele>931.0</ele>
        <time>2019-08-01T08:22:01.998Z</time>
      </trkpt>
      <trkpt lat="43.028245" lon="-1.24532833">
        <ele>930.0</ele>
        <time>2019-08-01T08:22:03.003Z</time>
      </trkpt>
      <trkpt lat="43.028245" lon="-1.24535333">
        <ele>929.0</ele>
        <time>2019-08-01T08:22:04.010Z</time>
      </trkpt>
      <trkpt lat="43.02824833" lon="-1.24537833">
        <ele>929.0</ele>
        <time>2019-08-01T08:22:05.015Z</time>
      </trkpt>
      <trkpt lat="43.02825" lon="-1.24540333">
        <ele>929.0</ele>
        <time>2019-08-01T08:22:06.020Z</time>
      </trkpt>
      <trkpt lat="43.028245" lon="-1.24542">
        <ele>930.0</ele>
        <time>2019-08-01T08:22:07.027Z</time>
      </trkpt>
      <trkpt lat="43.028235" lon="-1.24546667">
        <ele>930.0</ele>
        <time>2019-08-01T08:22:08.033Z</time>
      </trkpt>
      <trkpt lat="43.02823333" lon="-1.24549333">
        <ele>930.0</ele>
        <time>2019-08-01T08:22:09.039Z</time>
      </trkpt>
      <trkpt lat="43.02823333" lon="-1.24549333">
        <ele>930.0</ele>
        <time>2019-08-01T08:22:09.920Z</time>
      </trkpt>
      <trkpt lat="43.02823" lon="-1.24552333">
        <ele>929.0</ele>
        <time>2019-08-01T08:22:10.927Z</time>
      </trkpt>
      <trkpt lat="43.02823167" lon="-1.24555167">
        <ele>929.0</ele>
        <time>2019-08-01T08:22:11.931Z</time>
      </trkpt>
      <trkpt lat="43.02823167" lon="-1.24557167">
        <ele>929.0</ele>
        <time>2019-08-01T08:22:12.936Z</time>
      </trkpt>
      <trkpt lat="43.02823167" lon="-1.24559333">
        <ele>930.0</ele>
        <time>2019-08-01T08:22:13.943Z</time>
      </trkpt>
      <trkpt lat="43.028235" lon="-1.24561833">
        <ele>930.0</ele>
        <time>2019-08-01T08:22:14.947Z</time>
      </trkpt>
      <trkpt lat="43.02824167" lon="-1.24563833">
        <ele>930.0</ele>
        <time>2019-08-01T08:22:15.950Z</time>
      </trkpt>
      <trkpt lat="43.02824333" lon="-1.24566">
        <ele>931.0</ele>
        <time>2019-08-01T08:22:16.957Z</time>
      </trkpt>
      <trkpt lat="43.02824833" lon="-1.24568">
        <ele>932.0</ele>
        <time>2019-08-01T08:22:17.964Z</time>
      </trkpt>
      <trkpt lat="43.028245" lon="-1.245705">
        <ele>932.0</ele>
        <time>2019-08-01T08:22:18.969Z</time>
      </trkpt>
      <trkpt lat="43.02824833" lon="-1.24573333">
        <ele>932.0</ele>
        <time>2019-08-01T08:22:19.974Z</time>
      </trkpt>
      <trkpt lat="43.02826167" lon="-1.24575167">
        <ele>933.0</ele>
        <time>2019-08-01T08:22:20.982Z</time>
      </trkpt>
      <trkpt lat="43.028275" lon="-1.24576333">
        <ele>934.0</ele>
        <time>2019-08-01T08:22:21.988Z</time>
      </trkpt>
      <trkpt lat="43.02829167" lon="-1.24578167">
        <ele>935.0</ele>
        <time>2019-08-01T08:22:22.995Z</time>
      </trkpt>
      <trkpt lat="43.02830167" lon="-1.24579833">
        <ele>935.0</ele>
        <time>2019-08-01T08:22:24.001Z</time>
      </trkpt>
      <trkpt lat="43.02830667" lon="-1.24581333">
        <ele>934.0</ele>
        <time>2019-08-01T08:22:25.007Z</time>
      </trkpt>
      <trkpt lat="43.02831167" lon="-1.24582167">
        <ele>933.0</ele>
        <time>2019-08-01T08:22:26.011Z</time>
      </trkpt>
      <trkpt lat="43.02832167" lon="-1.24584">
        <ele>933.0</ele>
        <time>2019-08-01T08:22:27.018Z</time>
      </trkpt>
      <trkpt lat="43.02833167" lon="-1.245855">
        <ele>933.0</ele>
        <time>2019-08-01T08:22:28.024Z</time>
      </trkpt>
      <trkpt lat="43.02834" lon="-1.245875">
        <ele>933.0</ele>
        <time>2019-08-01T08:22:29.029Z</time>
      </trkpt>
      <trkpt lat="43.02834833" lon="-1.24589667">
        <ele>933.0</ele>
        <time>2019-08-01T08:22:30.033Z</time>
      </trkpt>
      <trkpt lat="43.02836167" lon="-1.24593167">
        <ele>932.0</ele>
        <time>2019-08-01T08:22:31.039Z</time>
      </trkpt>
      <trkpt lat="43.02836167" lon="-1.24593167">
        <ele>932.0</ele>
        <time>2019-08-01T08:22:31.920Z</time>
      </trkpt>
      <trkpt lat="43.02837333" lon="-1.24595">
        <ele>934.0</ele>
        <time>2019-08-01T08:22:32.925Z</time>
      </trkpt>
      <trkpt lat="43.02838667" lon="-1.24596667">
        <ele>936.0</ele>
        <time>2019-08-01T08:22:33.931Z</time>
      </trkpt>
      <trkpt lat="43.02840167" lon="-1.24599">
        <ele>937.0</ele>
        <time>2019-08-01T08:22:34.939Z</time>
      </trkpt>
      <trkpt lat="43.02841" lon="-1.24601333">
        <ele>938.0</ele>
        <time>2019-08-01T08:22:35.944Z</time>
      </trkpt>
      <trkpt lat="43.02842" lon="-1.24603333">
        <ele>938.0</ele>
        <time>2019-08-01T08:22:36.948Z</time>
      </trkpt>
      <trkpt lat="43.02843167" lon="-1.24605333">
        <ele>939.0</ele>
        <time>2019-08-01T08:22:37.955Z</time>
      </trkpt>
      <trkpt lat="43.02844" lon="-1.24606833">
        <ele>940.0</ele>
        <time>2019-08-01T08:22:38.962Z</time>
      </trkpt>
      <trkpt lat="43.02844667" lon="-1.24608">
        <ele>941.0</ele>
        <time>2019-08-01T08:22:39.969Z</time>
      </trkpt>
      <trkpt lat="43.02845833" lon="-1.24609">
        <ele>942.0</ele>
        <time>2019-08-01T08:22:40.973Z</time>
      </trkpt>
      <trkpt lat="43.02846667" lon="-1.2461">
        <ele>943.0</ele>
        <time>2019-08-01T08:22:41.979Z</time>
      </trkpt>
      <trkpt lat="43.028475" lon="-1.24611167">
        <ele>942.0</ele>
        <time>2019-08-01T08:22:42.983Z</time>
      </trkpt>
      <trkpt lat="43.02848833" lon="-1.24613">
        <ele>941.0</ele>
        <time>2019-08-01T08:22:43.989Z</time>
      </trkpt>
      <trkpt lat="43.028505" lon="-1.246155">
        <ele>940.0</ele>
        <time>2019-08-01T08:22:44.992Z</time>
      </trkpt>
      <trkpt lat="43.02851833" lon="-1.24617667">
        <ele>940.0</ele>
        <time>2019-08-01T08:22:45.998Z</time>
      </trkpt>
      <trkpt lat="43.02853167" lon="-1.24618833">
        <ele>941.0</ele>
        <time>2019-08-01T08:22:47.002Z</time>
      </trkpt>
      <trkpt lat="43.02855" lon="-1.24619667">
        <ele>941.0</ele>
        <time>2019-08-01T08:22:48.008Z</time>
      </trkpt>
      <trkpt lat="43.02856333" lon="-1.2462">
        <ele>941.0</ele>
        <time>2019-08-01T08:22:49.013Z</time>
      </trkpt>
      <trkpt lat="43.028575" lon="-1.246195">
        <ele>941.0</ele>
        <time>2019-08-01T08:22:50.014Z</time>
      </trkpt>
      <trkpt lat="43.02858333" lon="-1.246195">
        <ele>941.0</ele>
        <time>2019-08-01T08:22:51.019Z</time>
      </trkpt>
      <trkpt lat="43.02859333" lon="-1.24620833">
        <ele>941.0</ele>
        <time>2019-08-01T08:22:52.025Z</time>
      </trkpt>
      <trkpt lat="43.0286" lon="-1.246225">
        <ele>939.0</ele>
        <time>2019-08-01T08:22:53.031Z</time>
      </trkpt>
      <trkpt lat="43.02862167" lon="-1.24624333">
        <ele>937.0</ele>
        <time>2019-08-01T08:22:54.038Z</time>
      </trkpt>
      <trkpt lat="43.02862167" lon="-1.24624333">
        <ele>937.0</ele>
        <time>2019-08-01T08:22:54.918Z</time>
      </trkpt>
      <trkpt lat="43.02863333" lon="-1.24625">
        <ele>935.0</ele>
        <time>2019-08-01T08:22:55.924Z</time>
      </trkpt>
      <trkpt lat="43.02864667" lon="-1.24625833">
        <ele>933.0</ele>
        <time>2019-08-01T08:22:56.930Z</time>
      </trkpt>
      <trkpt lat="43.02865833" lon="-1.24628">
        <ele>933.0</ele>
        <time>2019-08-01T08:22:57.936Z</time>
      </trkpt>
      <trkpt lat="43.02866833" lon="-1.24629667">
        <ele>933.0</ele>
        <time>2019-08-01T08:22:58.943Z</time>
      </trkpt>
      <trkpt lat="43.028675" lon="-1.246315">
        <ele>933.0</ele>
        <time>2019-08-01T08:22:59.951Z</time>
      </trkpt>
      <trkpt lat="43.02868167" lon="-1.24633333">
        <ele>933.0</ele>
        <time>2019-08-01T08:23:00.956Z</time>
      </trkpt>
      <trkpt lat="43.02868833" lon="-1.24634333">
        <ele>934.0</ele>
        <time>2019-08-01T08:23:01.963Z</time>
      </trkpt>
      <trkpt lat="43.02869667" lon="-1.24635333">
        <ele>935.0</ele>
        <time>2019-08-01T08:23:02.968Z</time>
      </trkpt>
      <trkpt lat="43.02870667" lon="-1.24636833">
        <ele>937.0</ele>
        <time>2019-08-01T08:23:03.973Z</time>
      </trkpt>
      <trkpt lat="43.02871167" lon="-1.24638167">
        <ele>938.0</ele>
        <time>2019-08-01T08:23:04.979Z</time>
      </trkpt>
      <trkpt lat="43.02871833" lon="-1.246395">
        <ele>940.0</ele>
        <time>2019-08-01T08:23:05.985Z</time>
      </trkpt>
      <trkpt lat="43.02872333" lon="-1.24641667">
        <ele>941.0</ele>
        <time>2019-08-01T08:23:06.991Z</time>
      </trkpt>
      <trkpt lat="43.028735" lon="-1.24644">
        <ele>942.0</ele>
        <time>2019-08-01T08:23:07.997Z</time>
      </trkpt>
      <trkpt lat="43.02875167" lon="-1.24645333">
        <ele>942.0</ele>
        <time>2019-08-01T08:23:09.004Z</time>
      </trkpt>
      <trkpt lat="43.02876667" lon="-1.246465">
        <ele>941.0</ele>
        <time>2019-08-01T08:23:10.010Z</time>
      </trkpt>
      <trkpt lat="43.02878333" lon="-1.24646833">
        <ele>940.0</ele>
        <time>2019-08-01T08:23:11.015Z</time>
      </trkpt>
      <trkpt lat="43.02879167" lon="-1.24648833">
        <ele>941.0</ele>
        <time>2019-08-01T08:23:12.021Z</time>
      </trkpt>
      <trkpt lat="43.02879667" lon="-1.24650833">
        <ele>940.0</ele>
        <time>2019-08-01T08:23:13.028Z</time>
      </trkpt>
      <trkpt lat="43.02881" lon="-1.24652667">
        <ele>940.0</ele>
        <time>2019-08-01T08:23:14.033Z</time>
      </trkpt>
      <trkpt lat="43.02882333" lon="-1.24656667">
        <ele>941.0</ele>
        <time>2019-08-01T08:23:15.039Z</time>
      </trkpt>
      <trkpt lat="43.02882333" lon="-1.24656667">
        <ele>941.0</ele>
        <time>2019-08-01T08:23:15.918Z</time>
      </trkpt>
      <trkpt lat="43.02883167" lon="-1.24658">
        <ele>942.0</ele>
        <time>2019-08-01T08:23:16.925Z</time>
      </trkpt>
      <trkpt lat="43.02883667" lon="-1.24659">
        <ele>943.0</ele>
        <time>2019-08-01T08:23:17.930Z</time>
      </trkpt>
      <trkpt lat="43.02884333" lon="-1.246605">
        <ele>944.0</ele>
        <time>2019-08-01T08:23:18.936Z</time>
      </trkpt>
      <trkpt lat="43.028855" lon="-1.24662167">
        <ele>944.0</ele>
        <time>2019-08-01T08:23:19.944Z</time>
      </trkpt>
      <trkpt lat="43.028865" lon="-1.24664667">
        <ele>944.0</ele>
        <time>2019-08-01T08:23:20.951Z</time>
      </trkpt>
      <trkpt lat="43.02886833" lon="-1.24667">
        <ele>944.0</ele>
        <time>2019-08-01T08:23:21.957Z</time>
      </trkpt>
      <trkpt lat="43.02886833" lon="-1.24670333">
        <ele>943.0</ele>
        <time>2019-08-01T08:23:22.964Z</time>
      </trkpt>
      <trkpt lat="43.02887167" lon="-1.24672833">
        <ele>943.0</ele>
        <time>2019-08-01T08:23:23.970Z</time>
      </trkpt>
      <trkpt lat="43.02887833" lon="-1.24675">
        <ele>942.0</ele>
        <time>2019-08-01T08:23:24.976Z</time>
      </trkpt>
      <trkpt lat="43.02888833" lon="-1.24677">
        <ele>943.0</ele>
        <time>2019-08-01T08:23:25.983Z</time>
      </trkpt>
      <trkpt lat="43.02889333" lon="-1.24678167">
        <ele>943.0</ele>
        <time>2019-08-01T08:23:26.991Z</time>
      </trkpt>
      <trkpt lat="43.02890167" lon="-1.24679167">
        <ele>944.0</ele>
        <time>2019-08-01T08:23:27.996Z</time>
      </trkpt>
      <trkpt lat="43.02891" lon="-1.24681">
        <ele>944.0</ele>
        <time>2019-08-01T08:23:29.002Z</time>
      </trkpt>
      <trkpt lat="43.02891833" lon="-1.24682667">
        <ele>944.0</ele>
        <time>2019-08-01T08:23:30.007Z</time>
      </trkpt>
      <trkpt lat="43.02893" lon="-1.24684167">
        <ele>944.0</ele>
        <time>2019-08-01T08:23:31.013Z</time>
      </trkpt>
      <trkpt lat="43.02894167" lon="-1.24686">
        <ele>944.0</ele>
        <time>2019-08-01T08:23:32.019Z</time>
      </trkpt>
      <trkpt lat="43.02895333" lon="-1.24688">
        <ele>943.0</ele>
        <time>2019-08-01T08:23:33.027Z</time>
      </trkpt>
      <trkpt lat="43.02896667" lon="-1.24689833">
        <ele>943.0</ele>
        <time>2019-08-01T08:23:34.032Z</time>
      </trkpt>
      <trkpt lat="43.02897833" lon="-1.246915">
        <ele>941.0</ele>
        <time>2019-08-01T08:23:35.035Z</time>
      </trkpt>
      <trkpt lat="43.02898833" lon="-1.24693333">
        <ele>941.0</ele>
        <time>2019-08-01T08:23:36.041Z</time>
      </trkpt>
      <trkpt lat="43.02899833" lon="-1.246955">
        <ele>941.0</ele>
        <time>2019-08-01T08:23:36.923Z</time>
      </trkpt>
      <trkpt lat="43.02901" lon="-1.24697167">
        <ele>941.0</ele>
        <time>2019-08-01T08:23:37.928Z</time>
      </trkpt>
      <trkpt lat="43.02902333" lon="-1.246985">
        <ele>942.0</ele>
        <time>2019-08-01T08:23:38.935Z</time>
      </trkpt>
      <trkpt lat="43.02903" lon="-1.246995">
        <ele>943.0</ele>
        <time>2019-08-01T08:23:39.939Z</time>
      </trkpt>
      <trkpt lat="43.02903167" lon="-1.24701167">
        <ele>943.0</ele>
        <time>2019-08-01T08:23:40.945Z</time>
      </trkpt>
      <trkpt lat="43.02904167" lon="-1.24703333">
        <ele>943.0</ele>
        <time>2019-08-01T08:23:41.951Z</time>
      </trkpt>
      <trkpt lat="43.029055" lon="-1.24705">
        <ele>943.0</ele>
        <time>2019-08-01T08:23:42.957Z</time>
      </trkpt>
      <trkpt lat="43.02907167" lon="-1.24706167">
        <ele>943.0</ele>
        <time>2019-08-01T08:23:43.964Z</time>
      </trkpt>
      <trkpt lat="43.02909" lon="-1.24707">
        <ele>943.0</ele>
        <time>2019-08-01T08:23:44.970Z</time>
      </trkpt>
      <trkpt lat="43.02910333" lon="-1.24708">
        <ele>943.0</ele>
        <time>2019-08-01T08:23:45.977Z</time>
      </trkpt>
      <trkpt lat="43.02911167" lon="-1.24709167">
        <ele>944.0</ele>
        <time>2019-08-01T08:23:46.984Z</time>
      </trkpt>
      <trkpt lat="43.02912167" lon="-1.24710167">
        <ele>945.0</ele>
        <time>2019-08-01T08:23:47.991Z</time>
      </trkpt>
      <trkpt lat="43.02912833" lon="-1.24711333">
        <ele>946.0</ele>
        <time>2019-08-01T08:23:48.996Z</time>
      </trkpt>
      <trkpt lat="43.02913667" lon="-1.24712833">
        <ele>946.0</ele>
        <time>2019-08-01T08:23:50.000Z</time>
      </trkpt>
      <trkpt lat="43.02915333" lon="-1.24714333">
        <ele>947.0</ele>
        <time>2019-08-01T08:23:51.007Z</time>
      </trkpt>
      <trkpt lat="43.02916" lon="-1.24715333">
        <ele>947.0</ele>
        <time>2019-08-01T08:23:52.012Z</time>
      </trkpt>
      <trkpt lat="43.02916333" lon="-1.247165">
        <ele>946.0</ele>
        <time>2019-08-01T08:23:53.019Z</time>
      </trkpt>
      <trkpt lat="43.02917167" lon="-1.247175">
        <ele>946.0</ele>
        <time>2019-08-01T08:23:54.025Z</time>
      </trkpt>
      <trkpt lat="43.02918167" lon="-1.247185">
        <ele>945.0</ele>
        <time>2019-08-01T08:23:55.029Z</time>
      </trkpt>
      <trkpt lat="43.02919333" lon="-1.24719667">
        <ele>945.0</ele>
        <time>2019-08-01T08:23:56.033Z</time>
      </trkpt>
      <trkpt lat="43.02921" lon="-1.24721833">
        <ele>944.0</ele>
        <time>2019-08-01T08:23:57.040Z</time>
      </trkpt>
      <trkpt lat="43.02921" lon="-1.24721833">
        <ele>944.0</ele>
        <time>2019-08-01T08:23:57.920Z</time>
      </trkpt>
      <trkpt lat="43.02921333" lon="-1.24722833">
        <ele>944.0</ele>
        <time>2019-08-01T08:23:58.926Z</time>
      </trkpt>
      <trkpt lat="43.02922333" lon="-1.24724667">
        <ele>943.0</ele>
        <time>2019-08-01T08:23:59.931Z</time>
      </trkpt>
      <trkpt lat="43.02923167" lon="-1.24726167">
        <ele>944.0</ele>
        <time>2019-08-01T08:24:00.938Z</time>
      </trkpt>
      <trkpt lat="43.02923833" lon="-1.24727833">
        <ele>944.0</ele>
        <time>2019-08-01T08:24:01.943Z</time>
      </trkpt>
      <trkpt lat="43.02924333" lon="-1.24729833">
        <ele>944.0</ele>
        <time>2019-08-01T08:24:02.949Z</time>
      </trkpt>
      <trkpt lat="43.02924667" lon="-1.247315">
        <ele>944.0</ele>
        <time>2019-08-01T08:24:03.955Z</time>
      </trkpt>
      <trkpt lat="43.02925167" lon="-1.24732333">
        <ele>943.0</ele>
        <time>2019-08-01T08:24:04.962Z</time>
      </trkpt>
      <trkpt lat="43.02926" lon="-1.24733333">
        <ele>944.0</ele>
        <time>2019-08-01T08:24:05.966Z</time>
      </trkpt>
      <trkpt lat="43.02926833" lon="-1.24734">
        <ele>944.0</ele>
        <time>2019-08-01T08:24:06.971Z</time>
      </trkpt>
      <trkpt lat="43.02927667" lon="-1.24734333">
        <ele>945.0</ele>
        <time>2019-08-01T08:24:07.978Z</time>
      </trkpt>
      <trkpt lat="43.02928667" lon="-1.24735167">
        <ele>945.0</ele>
        <time>2019-08-01T08:24:08.986Z</time>
      </trkpt>
      <trkpt lat="43.029295" lon="-1.24736167">
        <ele>944.0</ele>
        <time>2019-08-01T08:24:09.993Z</time>
      </trkpt>
      <trkpt lat="43.02930333" lon="-1.247375">
        <ele>944.0</ele>
        <time>2019-08-01T08:24:10.999Z</time>
      </trkpt>
      <trkpt lat="43.02931" lon="-1.24739333">
        <ele>944.0</ele>
        <time>2019-08-01T08:24:12.005Z</time>
      </trkpt>
      <trkpt lat="43.02932167" lon="-1.24740833">
        <ele>944.0</ele>
        <time>2019-08-01T08:24:13.011Z</time>
      </trkpt>
      <trkpt lat="43.02933333" lon="-1.247415">
        <ele>943.0</ele>
        <time>2019-08-01T08:24:14.015Z</time>
      </trkpt>
      <trkpt lat="43.02934167" lon="-1.24742833">
        <ele>943.0</ele>
        <time>2019-08-01T08:24:15.021Z</time>
      </trkpt>
      <trkpt lat="43.02935" lon="-1.247445">
        <ele>943.0</ele>
        <time>2019-08-01T08:24:16.026Z</time>
      </trkpt>
      <trkpt lat="43.02935667" lon="-1.24745667">
        <ele>943.0</ele>
        <time>2019-08-01T08:24:17.032Z</time>
      </trkpt>
      <trkpt lat="43.02937" lon="-1.24747333">
        <ele>944.0</ele>
        <time>2019-08-01T08:24:18.037Z</time>
      </trkpt>
      <trkpt lat="43.02937833" lon="-1.247485">
        <ele>945.0</ele>
        <time>2019-08-01T08:24:18.918Z</time>
      </trkpt>
      <trkpt lat="43.029385" lon="-1.24750167">
        <ele>945.0</ele>
        <time>2019-08-01T08:24:19.923Z</time>
      </trkpt>
      <trkpt lat="43.02939" lon="-1.24751">
        <ele>945.0</ele>
        <time>2019-08-01T08:24:20.925Z</time>
      </trkpt>
      <trkpt lat="43.02940833" lon="-1.24752833">
        <ele>945.0</ele>
        <time>2019-08-01T08:24:21.931Z</time>
      </trkpt>
      <trkpt lat="43.029425" lon="-1.24754333">
        <ele>945.0</ele>
        <time>2019-08-01T08:24:22.937Z</time>
      </trkpt>
      <trkpt lat="43.02943667" lon="-1.24755833">
        <ele>946.0</ele>
        <time>2019-08-01T08:24:23.944Z</time>
      </trkpt>
      <trkpt lat="43.02944333" lon="-1.24757667">
        <ele>946.0</ele>
        <time>2019-08-01T08:24:24.950Z</time>
      </trkpt>
      <trkpt lat="43.02944667" lon="-1.24759">
        <ele>945.0</ele>
        <time>2019-08-01T08:24:25.955Z</time>
      </trkpt>
      <trkpt lat="43.02944833" lon="-1.247605">
        <ele>945.0</ele>
        <time>2019-08-01T08:24:26.961Z</time>
      </trkpt>
      <trkpt lat="43.02945333" lon="-1.24762167">
        <ele>945.0</ele>
        <time>2019-08-01T08:24:27.968Z</time>
      </trkpt>
      <trkpt lat="43.02945667" lon="-1.24763667">
        <ele>946.0</ele>
        <time>2019-08-01T08:24:28.972Z</time>
      </trkpt>
      <trkpt lat="43.029465" lon="-1.247655">
        <ele>945.0</ele>
        <time>2019-08-01T08:24:29.978Z</time>
      </trkpt>
      <trkpt lat="43.02947667" lon="-1.24768167">
        <ele>944.0</ele>
        <time>2019-08-01T08:24:30.985Z</time>
      </trkpt>
      <trkpt lat="43.02948833" lon="-1.24769667">
        <ele>943.0</ele>
        <time>2019-08-01T08:24:31.988Z</time>
      </trkpt>
      <trkpt lat="43.02949833" lon="-1.247715">
        <ele>943.0</ele>
        <time>2019-08-01T08:24:32.995Z</time>
      </trkpt>
      <trkpt lat="43.02951333" lon="-1.24773333">
        <ele>943.0</ele>
        <time>2019-08-01T08:24:34.001Z</time>
      </trkpt>
      <trkpt lat="43.02952667" lon="-1.247745">
        <ele>944.0</ele>
        <time>2019-08-01T08:24:35.001Z</time>
      </trkpt>
      <trkpt lat="43.02954167" lon="-1.24775667">
        <ele>943.0</ele>
        <time>2019-08-01T08:24:36.007Z</time>
      </trkpt>
      <trkpt lat="43.029555" lon="-1.247765">
        <ele>941.0</ele>
        <time>2019-08-01T08:24:37.011Z</time>
      </trkpt>
      <trkpt lat="43.02956" lon="-1.24776333">
        <ele>940.0</ele>
        <time>2019-08-01T08:24:38.017Z</time>
      </trkpt>
      <trkpt lat="43.02956667" lon="-1.24776833">
        <ele>940.0</ele>
        <time>2019-08-01T08:24:39.023Z</time>
      </trkpt>
      <trkpt lat="43.02957167" lon="-1.24778167">
        <ele>939.0</ele>
        <time>2019-08-01T08:24:40.029Z</time>
      </trkpt>
      <trkpt lat="43.02957667" lon="-1.24779167">
        <ele>939.0</ele>
        <time>2019-08-01T08:24:41.035Z</time>
      </trkpt>
      <trkpt lat="43.02959167" lon="-1.247805">
        <ele>941.0</ele>
        <time>2019-08-01T08:24:42.041Z</time>
      </trkpt>
      <trkpt lat="43.02959167" lon="-1.247805">
        <ele>941.0</ele>
        <time>2019-08-01T08:24:42.921Z</time>
      </trkpt>
      <trkpt lat="43.02959333" lon="-1.247815">
        <ele>942.0</ele>
        <time>2019-08-01T08:24:43.928Z</time>
      </trkpt>
      <trkpt lat="43.02959833" lon="-1.24783167">
        <ele>942.0</ele>
        <time>2019-08-01T08:24:44.933Z</time>
      </trkpt>
      <trkpt lat="43.02960833" lon="-1.24784333">
        <ele>941.0</ele>
        <time>2019-08-01T08:24:45.939Z</time>
      </trkpt>
      <trkpt lat="43.02961333" lon="-1.24785">
        <ele>940.0</ele>
        <time>2019-08-01T08:24:46.944Z</time>
      </trkpt>
      <trkpt lat="43.02961833" lon="-1.24784833">
        <ele>939.0</ele>
        <time>2019-08-01T08:24:47.950Z</time>
      </trkpt>
      <trkpt lat="43.02962667" lon="-1.24784167">
        <ele>938.0</ele>
        <time>2019-08-01T08:24:48.957Z</time>
      </trkpt>
      <trkpt lat="43.029635" lon="-1.24784">
        <ele>937.0</ele>
        <time>2019-08-01T08:24:49.964Z</time>
      </trkpt>
      <trkpt lat="43.02963833" lon="-1.24784667">
        <ele>937.0</ele>
        <time>2019-08-01T08:24:50.969Z</time>
      </trkpt>
      <trkpt lat="43.02964" lon="-1.24784667">
        <ele>937.0</ele>
        <time>2019-08-01T08:24:51.973Z</time>
      </trkpt>
      <trkpt lat="43.02963833" lon="-1.24784833">
        <ele>937.0</ele>
        <time>2019-08-01T08:24:52.980Z</time>
      </trkpt>
      <trkpt lat="43.02963667" lon="-1.24785333">
        <ele>937.0</ele>
        <time>2019-08-01T08:24:53.987Z</time>
      </trkpt>
      <trkpt lat="43.02963667" lon="-1.24786">
        <ele>937.0</ele>
        <time>2019-08-01T08:24:54.994Z</time>
      </trkpt>
      <trkpt lat="43.029635" lon="-1.24786333">
        <ele>938.0</ele>
        <time>2019-08-01T08:24:56.001Z</time>
      </trkpt>
      <trkpt lat="43.029625" lon="-1.247865">
        <ele>939.0</ele>
        <time>2019-08-01T08:24:57.008Z</time>
      </trkpt>
      <trkpt lat="43.02962167" lon="-1.24785167">
        <ele>940.0</ele>
        <time>2019-08-01T08:24:58.013Z</time>
      </trkpt>
      <trkpt lat="43.029615" lon="-1.24783667">
        <ele>942.0</ele>
        <time>2019-08-01T08:24:59.019Z</time>
      </trkpt>
      <trkpt lat="43.02961667" lon="-1.24782333">
        <ele>943.0</ele>
        <time>2019-08-01T08:25:00.027Z</time>
      </trkpt>
      <trkpt lat="43.02961667" lon="-1.24782">
        <ele>943.0</ele>
        <time>2019-08-01T08:25:01.034Z</time>
      </trkpt>
      <trkpt lat="43.02961833" lon="-1.24781667">
        <ele>943.0</ele>
        <time>2019-08-01T08:25:02.040Z</time>
      </trkpt>
      <trkpt lat="43.02961833" lon="-1.247815">
        <ele>943.0</ele>
        <time>2019-08-01T08:25:02.921Z</time>
      </trkpt>
      <trkpt lat="43.02961833" lon="-1.24781333">
        <ele>943.0</ele>
        <time>2019-08-01T08:25:03.927Z</time>
      </trkpt>
      <trkpt lat="43.02962" lon="-1.24781333">
        <ele>943.0</ele>
        <time>2019-08-01T08:25:04.933Z</time>
      </trkpt>
      <trkpt lat="43.02962167" lon="-1.24781167">
        <ele>943.0</ele>
        <time>2019-08-01T08:25:05.941Z</time>
      </trkpt>
      <trkpt lat="43.02962333" lon="-1.24780833">
        <ele>943.0</ele>
        <time>2019-08-01T08:25:06.948Z</time>
      </trkpt>
      <trkpt lat="43.029625" lon="-1.24780333">
        <ele>943.0</ele>
        <time>2019-08-01T08:25:07.953Z</time>
      </trkpt>
      <trkpt lat="43.02962667" lon="-1.24779833">
        <ele>943.0</ele>
        <time>2019-08-01T08:25:08.958Z</time>
      </trkpt>
      <trkpt lat="43.02963" lon="-1.24779333">
        <ele>944.0</ele>
        <time>2019-08-01T08:25:09.963Z</time>
      </trkpt>
      <trkpt lat="43.02963167" lon="-1.247795">
        <ele>943.0</ele>
        <time>2019-08-01T08:25:10.969Z</time>
      </trkpt>
      <trkpt lat="43.029635" lon="-1.2478">
        <ele>943.0</ele>
        <time>2019-08-01T08:25:11.978Z</time>
      </trkpt>
      <trkpt lat="43.02963833" lon="-1.24780333">
        <ele>943.0</ele>
        <time>2019-08-01T08:25:12.984Z</time>
      </trkpt>
      <trkpt lat="43.02964167" lon="-1.24780167">
        <ele>943.0</ele>
        <time>2019-08-01T08:25:13.990Z</time>
      </trkpt>
      <trkpt lat="43.029645" lon="-1.24779667">
        <ele>944.0</ele>
        <time>2019-08-01T08:25:14.997Z</time>
      </trkpt>
      <trkpt lat="43.02964833" lon="-1.24779333">
        <ele>945.0</ele>
        <time>2019-08-01T08:25:15.999Z</time>
      </trkpt>
      <trkpt lat="43.02965167" lon="-1.24779167">
        <ele>946.0</ele>
        <time>2019-08-01T08:25:17.004Z</time>
      </trkpt>
      <trkpt lat="43.02965167" lon="-1.24779333">
        <ele>945.0</ele>
        <time>2019-08-01T08:25:18.011Z</time>
      </trkpt>
      <trkpt lat="43.02964333" lon="-1.24779833">
        <ele>944.0</ele>
        <time>2019-08-01T08:25:19.016Z</time>
      </trkpt>
      <trkpt lat="43.029645" lon="-1.2478">
        <ele>942.0</ele>
        <time>2019-08-01T08:25:20.020Z</time>
      </trkpt>
      <trkpt lat="43.02964833" lon="-1.24780333">
        <ele>942.0</ele>
        <time>2019-08-01T08:25:21.025Z</time>
      </trkpt>
      <trkpt lat="43.029655" lon="-1.24780833">
        <ele>941.0</ele>
        <time>2019-08-01T08:25:22.030Z</time>
      </trkpt>
      <trkpt lat="43.02966167" lon="-1.24781">
        <ele>941.0</ele>
        <time>2019-08-01T08:25:23.037Z</time>
      </trkpt>
      <trkpt lat="43.02966833" lon="-1.24781833">
        <ele>941.0</ele>
        <time>2019-08-01T08:25:23.919Z</time>
      </trkpt>
      <trkpt lat="43.029675" lon="-1.24783">
        <ele>940.0</ele>
        <time>2019-08-01T08:25:24.923Z</time>
      </trkpt>
      <trkpt lat="43.02968167" lon="-1.24783833">
        <ele>939.0</ele>
        <time>2019-08-01T08:25:25.927Z</time>
      </trkpt>
      <trkpt lat="43.02969167" lon="-1.24784167">
        <ele>939.0</ele>
        <time>2019-08-01T08:25:26.930Z</time>
      </trkpt>
      <trkpt lat="43.02970333" lon="-1.24783667">
        <ele>937.0</ele>
        <time>2019-08-01T08:25:27.936Z</time>
      </trkpt>
      <trkpt lat="43.02971" lon="-1.24783333">
        <ele>937.0</ele>
        <time>2019-08-01T08:25:28.941Z</time>
      </trkpt>
      <trkpt lat="43.029715" lon="-1.24783667">
        <ele>939.0</ele>
        <time>2019-08-01T08:25:29.947Z</time>
      </trkpt>
      <trkpt lat="43.02971167" lon="-1.24784333">
        <ele>940.0</ele>
        <time>2019-08-01T08:25:30.951Z</time>
      </trkpt>
      <trkpt lat="43.02970833" lon="-1.24785">
        <ele>942.0</ele>
        <time>2019-08-01T08:25:31.957Z</time>
      </trkpt>
      <trkpt lat="43.02970667" lon="-1.24785667">
        <ele>942.0</ele>
        <time>2019-08-01T08:25:32.964Z</time>
      </trkpt>
      <trkpt lat="43.029705" lon="-1.24785833">
        <ele>942.0</ele>
        <time>2019-08-01T08:25:33.969Z</time>
      </trkpt>
      <trkpt lat="43.02970667" lon="-1.247855">
        <ele>942.0</ele>
        <time>2019-08-01T08:25:34.976Z</time>
      </trkpt>
      <trkpt lat="43.02970667" lon="-1.24785167">
        <ele>942.0</ele>
        <time>2019-08-01T08:25:35.984Z</time>
      </trkpt>
      <trkpt lat="43.029705" lon="-1.24785167">
        <ele>942.0</ele>
        <time>2019-08-01T08:25:36.989Z</time>
      </trkpt>
      <trkpt lat="43.02970167" lon="-1.24785167">
        <ele>941.0</ele>
        <time>2019-08-01T08:25:37.995Z</time>
      </trkpt>
      <trkpt lat="43.0297" lon="-1.24785333">
        <ele>940.0</ele>
        <time>2019-08-01T08:25:39.002Z</time>
      </trkpt>
      <trkpt lat="43.02969833" lon="-1.247855">
        <ele>939.0</ele>
        <time>2019-08-01T08:25:40.007Z</time>
      </trkpt>
      <trkpt lat="43.02969667" lon="-1.24785667">
        <ele>939.0</ele>
        <time>2019-08-01T08:25:41.012Z</time>
      </trkpt>
      <trkpt lat="43.02969667" lon="-1.24785833">
        <ele>939.0</ele>
        <time>2019-08-01T08:25:42.018Z</time>
      </trkpt>
      <trkpt lat="43.02969833" lon="-1.24786">
        <ele>938.0</ele>
        <time>2019-08-01T08:25:43.024Z</time>
      </trkpt>
      <trkpt lat="43.029695" lon="-1.24786333">
        <ele>938.0</ele>
        <time>2019-08-01T08:25:44.029Z</time>
      </trkpt>
      <trkpt lat="43.02969667" lon="-1.24786833">
        <ele>938.0</ele>
        <time>2019-08-01T08:25:45.034Z</time>
      </trkpt>
      <trkpt lat="43.02969833" lon="-1.247875">
        <ele>937.0</ele>
        <time>2019-08-01T08:25:46.040Z</time>
      </trkpt>
      <trkpt lat="43.02970167" lon="-1.247885">
        <ele>936.0</ele>
        <time>2019-08-01T08:25:47.043Z</time>
      </trkpt>
      <trkpt lat="43.02970667" lon="-1.24789167">
        <ele>935.0</ele>
        <time>2019-08-01T08:25:47.923Z</time>
      </trkpt>
      <trkpt lat="43.02971167" lon="-1.24789333">
        <ele>935.0</ele>
        <time>2019-08-01T08:25:48.929Z</time>
      </trkpt>
      <trkpt lat="43.029715" lon="-1.24789">
        <ele>935.0</ele>
        <time>2019-08-01T08:25:49.934Z</time>
      </trkpt>
      <trkpt lat="43.02971167" lon="-1.24788167">
        <ele>935.0</ele>
        <time>2019-08-01T08:25:50.941Z</time>
      </trkpt>
      <trkpt lat="43.029705" lon="-1.24788">
        <ele>935.0</ele>
        <time>2019-08-01T08:25:51.949Z</time>
      </trkpt>
      <trkpt lat="43.0297" lon="-1.24788167">
        <ele>935.0</ele>
        <time>2019-08-01T08:25:52.956Z</time>
      </trkpt>
      <trkpt lat="43.02969667" lon="-1.24788667">
        <ele>935.0</ele>
        <time>2019-08-01T08:25:53.962Z</time>
      </trkpt>
      <trkpt lat="43.02969333" lon="-1.24788833">
        <ele>934.0</ele>
        <time>2019-08-01T08:25:54.968Z</time>
      </trkpt>
      <trkpt lat="43.02969333" lon="-1.24788667">
        <ele>934.0</ele>
        <time>2019-08-01T08:25:55.975Z</time>
      </trkpt>
      <trkpt lat="43.02969333" lon="-1.24788333">
        <ele>934.0</ele>
        <time>2019-08-01T08:25:56.982Z</time>
      </trkpt>
      <trkpt lat="43.02969167" lon="-1.24787667">
        <ele>933.0</ele>
        <time>2019-08-01T08:25:57.989Z</time>
      </trkpt>
      <trkpt lat="43.02969" lon="-1.247875">
        <ele>933.0</ele>
        <time>2019-08-01T08:25:58.995Z</time>
      </trkpt>
      <trkpt lat="43.02968833" lon="-1.24787667">
        <ele>933.0</ele>
        <time>2019-08-01T08:25:59.998Z</time>
      </trkpt>
      <trkpt lat="43.02968667" lon="-1.24788333">
        <ele>932.0</ele>
        <time>2019-08-01T08:26:01.002Z</time>
      </trkpt>
      <trkpt lat="43.02968667" lon="-1.24788667">
        <ele>931.0</ele>
        <time>2019-08-01T08:26:02.007Z</time>
      </trkpt>
      <trkpt lat="43.029685" lon="-1.24789167">
        <ele>931.0</ele>
        <time>2019-08-01T08:26:03.011Z</time>
      </trkpt>
      <trkpt lat="43.02968167" lon="-1.24789333">
        <ele>932.0</ele>
        <time>2019-08-01T08:26:04.014Z</time>
      </trkpt>
      <trkpt lat="43.02967833" lon="-1.24789333">
        <ele>932.0</ele>
        <time>2019-08-01T08:26:05.019Z</time>
      </trkpt>
      <trkpt lat="43.02967667" lon="-1.24789">
        <ele>933.0</ele>
        <time>2019-08-01T08:26:06.023Z</time>
      </trkpt>
      <trkpt lat="43.02967167" lon="-1.24789">
        <ele>933.0</ele>
        <time>2019-08-01T08:26:07.029Z</time>
      </trkpt>
      <trkpt lat="43.02967" lon="-1.24789167">
        <ele>933.0</ele>
        <time>2019-08-01T08:26:08.035Z</time>
      </trkpt>
      <trkpt lat="43.02967167" lon="-1.24789167">
        <ele>933.0</ele>
        <time>2019-08-01T08:26:09.041Z</time>
      </trkpt>
      <trkpt lat="43.02967667" lon="-1.247895">
        <ele>932.0</ele>
        <time>2019-08-01T08:26:09.923Z</time>
      </trkpt>
      <trkpt lat="43.02967833" lon="-1.24789667">
        <ele>932.0</ele>
        <time>2019-08-01T08:26:10.930Z</time>
      </trkpt>
      <trkpt lat="43.02967833" lon="-1.24789833">
        <ele>931.0</ele>
        <time>2019-08-01T08:26:11.934Z</time>
      </trkpt>
      <trkpt lat="43.02967667" lon="-1.2479">
        <ele>931.0</ele>
        <time>2019-08-01T08:26:12.940Z</time>
      </trkpt>
      <trkpt lat="43.02967333" lon="-1.24790167">
        <ele>931.0</ele>
        <time>2019-08-01T08:26:13.948Z</time>
      </trkpt>
      <trkpt lat="43.02967333" lon="-1.24790333">
        <ele>931.0</ele>
        <time>2019-08-01T08:26:14.956Z</time>
      </trkpt>
      <trkpt lat="43.029675" lon="-1.24790333">
        <ele>930.0</ele>
        <time>2019-08-01T08:26:15.964Z</time>
      </trkpt>
      <trkpt lat="43.02967333" lon="-1.24790333">
        <ele>931.0</ele>
        <time>2019-08-01T08:26:16.969Z</time>
      </trkpt>
      <trkpt lat="43.02967167" lon="-1.24790833">
        <ele>931.0</ele>
        <time>2019-08-01T08:26:17.974Z</time>
      </trkpt>
      <trkpt lat="43.02966333" lon="-1.24791333">
        <ele>931.0</ele>
        <time>2019-08-01T08:26:18.981Z</time>
      </trkpt>
      <trkpt lat="43.02965833" lon="-1.247915">
        <ele>931.0</ele>
        <time>2019-08-01T08:26:19.984Z</time>
      </trkpt>
      <trkpt lat="43.029655" lon="-1.247915">
        <ele>931.0</ele>
        <time>2019-08-01T08:26:20.990Z</time>
      </trkpt>
      <trkpt lat="43.02965667" lon="-1.24791">
        <ele>931.0</ele>
        <time>2019-08-01T08:26:21.996Z</time>
      </trkpt>
      <trkpt lat="43.029655" lon="-1.24790667">
        <ele>932.0</ele>
        <time>2019-08-01T08:26:23.001Z</time>
      </trkpt>
      <trkpt lat="43.02965667" lon="-1.24790167">
        <ele>931.0</ele>
        <time>2019-08-01T08:26:24.005Z</time>
      </trkpt>
      <trkpt lat="43.02965667" lon="-1.24789833">
        <ele>932.0</ele>
        <time>2019-08-01T08:26:25.009Z</time>
      </trkpt>
      <trkpt lat="43.02965667" lon="-1.24789333">
        <ele>932.0</ele>
        <time>2019-08-01T08:26:26.012Z</time>
      </trkpt>
      <trkpt lat="43.02965667" lon="-1.24789167">
        <ele>931.0</ele>
        <time>2019-08-01T08:26:27.018Z</time>
      </trkpt>
      <trkpt lat="43.02966" lon="-1.24789">
        <ele>933.0</ele>
        <time>2019-08-01T08:26:28.022Z</time>
      </trkpt>
      <trkpt lat="43.029665" lon="-1.24789333">
        <ele>934.0</ele>
        <time>2019-08-01T08:26:29.028Z</time>
      </trkpt>
      <trkpt lat="43.02966667" lon="-1.2479">
        <ele>935.0</ele>
        <time>2019-08-01T08:26:30.033Z</time>
      </trkpt>
      <trkpt lat="43.02966667" lon="-1.24791333">
        <ele>936.0</ele>
        <time>2019-08-01T08:26:31.038Z</time>
      </trkpt>
      <trkpt lat="43.02966667" lon="-1.24792167">
        <ele>936.0</ele>
        <time>2019-08-01T08:26:31.919Z</time>
      </trkpt>
      <trkpt lat="43.02967" lon="-1.247925">
        <ele>936.0</ele>
        <time>2019-08-01T08:26:32.925Z</time>
      </trkpt>
      <trkpt lat="43.029675" lon="-1.24792167">
        <ele>936.0</ele>
        <time>2019-08-01T08:26:33.929Z</time>
      </trkpt>
      <trkpt lat="43.02967833" lon="-1.24792">
        <ele>937.0</ele>
        <time>2019-08-01T08:26:34.933Z</time>
      </trkpt>
      <trkpt lat="43.02968167" lon="-1.24792333">
        <ele>937.0</ele>
        <time>2019-08-01T08:26:35.940Z</time>
      </trkpt>
      <trkpt lat="43.02968667" lon="-1.24793333">
        <ele>938.0</ele>
        <time>2019-08-01T08:26:36.947Z</time>
      </trkpt>
      <trkpt lat="43.02969833" lon="-1.24794667">
        <ele>938.0</ele>
        <time>2019-08-01T08:26:37.952Z</time>
      </trkpt>
      <trkpt lat="43.029705" lon="-1.24795333">
        <ele>938.0</ele>
        <time>2019-08-01T08:26:38.959Z</time>
      </trkpt>
      <trkpt lat="43.02971333" lon="-1.247965">
        <ele>939.0</ele>
        <time>2019-08-01T08:26:39.965Z</time>
      </trkpt>
      <trkpt lat="43.02972" lon="-1.24796833">
        <ele>939.0</ele>
        <time>2019-08-01T08:26:40.971Z</time>
      </trkpt>
      <trkpt lat="43.029725" lon="-1.24798">
        <ele>940.0</ele>
        <time>2019-08-01T08:26:41.976Z</time>
      </trkpt>
      <trkpt lat="43.02973" lon="-1.24799167">
        <ele>941.0</ele>
        <time>2019-08-01T08:26:42.983Z</time>
      </trkpt>
      <trkpt lat="43.02973333" lon="-1.24800667">
        <ele>941.0</ele>
        <time>2019-08-01T08:26:43.990Z</time>
      </trkpt>
      <trkpt lat="43.02973" lon="-1.24801667">
        <ele>941.0</ele>
        <time>2019-08-01T08:26:44.995Z</time>
      </trkpt>
      <trkpt lat="43.029735" lon="-1.248025">
        <ele>941.0</ele>
        <time>2019-08-01T08:26:45.996Z</time>
      </trkpt>
      <trkpt lat="43.02974167" lon="-1.24803333">
        <ele>941.0</ele>
        <time>2019-08-01T08:26:47.004Z</time>
      </trkpt>
      <trkpt lat="43.02975" lon="-1.24804333">
        <ele>941.0</ele>
        <time>2019-08-01T08:26:48.009Z</time>
      </trkpt>
      <trkpt lat="43.02975833" lon="-1.24805167">
        <ele>941.0</ele>
        <time>2019-08-01T08:26:49.013Z</time>
      </trkpt>
      <trkpt lat="43.029765" lon="-1.24806333">
        <ele>941.0</ele>
        <time>2019-08-01T08:26:50.018Z</time>
      </trkpt>
      <trkpt lat="43.02977333" lon="-1.24807667">
        <ele>941.0</ele>
        <time>2019-08-01T08:26:51.023Z</time>
      </trkpt>
      <trkpt lat="43.02978167" lon="-1.24809167">
        <ele>941.0</ele>
        <time>2019-08-01T08:26:52.030Z</time>
      </trkpt>
      <trkpt lat="43.02978833" lon="-1.248105">
        <ele>941.0</ele>
        <time>2019-08-01T08:26:53.036Z</time>
      </trkpt>
      <trkpt lat="43.029795" lon="-1.24812">
        <ele>940.0</ele>
        <time>2019-08-01T08:26:54.042Z</time>
      </trkpt>
      <trkpt lat="43.02980667" lon="-1.24813667">
        <ele>940.0</ele>
        <time>2019-08-01T08:26:54.923Z</time>
      </trkpt>
      <trkpt lat="43.02981333" lon="-1.24814833">
        <ele>940.0</ele>
        <time>2019-08-01T08:26:55.928Z</time>
      </trkpt>
      <trkpt lat="43.02982333" lon="-1.248165">
        <ele>941.0</ele>
        <time>2019-08-01T08:26:56.933Z</time>
      </trkpt>
      <trkpt lat="43.02983333" lon="-1.24817833">
        <ele>941.0</ele>
        <time>2019-08-01T08:26:57.939Z</time>
      </trkpt>
      <trkpt lat="43.02984" lon="-1.24818667">
        <ele>940.0</ele>
        <time>2019-08-01T08:26:58.945Z</time>
      </trkpt>
      <trkpt lat="43.02984333" lon="-1.2482">
        <ele>940.0</ele>
        <time>2019-08-01T08:26:59.950Z</time>
      </trkpt>
      <trkpt lat="43.029845" lon="-1.24821667">
        <ele>940.0</ele>
        <time>2019-08-01T08:27:00.955Z</time>
      </trkpt>
      <trkpt lat="43.02985" lon="-1.24823667">
        <ele>941.0</ele>
        <time>2019-08-01T08:27:01.960Z</time>
      </trkpt>
      <trkpt lat="43.02985" lon="-1.24825333">
        <ele>940.0</ele>
        <time>2019-08-01T08:27:02.968Z</time>
      </trkpt>
      <trkpt lat="43.02984833" lon="-1.24827167">
        <ele>940.0</ele>
        <time>2019-08-01T08:27:03.974Z</time>
      </trkpt>
      <trkpt lat="43.029845" lon="-1.24827667">
        <ele>939.0</ele>
        <time>2019-08-01T08:27:04.978Z</time>
      </trkpt>
      <trkpt lat="43.02983833" lon="-1.24829">
        <ele>939.0</ele>
        <time>2019-08-01T08:27:05.983Z</time>
      </trkpt>
      <trkpt lat="43.02983667" lon="-1.24830333">
        <ele>939.0</ele>
        <time>2019-08-01T08:27:06.990Z</time>
      </trkpt>
      <trkpt lat="43.02983167" lon="-1.248315">
        <ele>939.0</ele>
        <time>2019-08-01T08:27:07.995Z</time>
      </trkpt>
      <trkpt lat="43.02982667" lon="-1.248325">
        <ele>939.0</ele>
        <time>2019-08-01T08:27:09.002Z</time>
      </trkpt>
      <trkpt lat="43.02981833" lon="-1.24833">
        <ele>939.0</ele>
        <time>2019-08-01T08:27:10.009Z</time>
      </trkpt>
      <trkpt lat="43.02981" lon="-1.248335">
        <ele>940.0</ele>
        <time>2019-08-01T08:27:11.013Z</time>
      </trkpt>
      <trkpt lat="43.02979333" lon="-1.24833833">
        <ele>940.0</ele>
        <time>2019-08-01T08:27:12.020Z</time>
      </trkpt>
      <trkpt lat="43.02978167" lon="-1.24834333">
        <ele>940.0</ele>
        <time>2019-08-01T08:27:13.024Z</time>
      </trkpt>
      <trkpt lat="43.02977" lon="-1.24834667">
        <ele>939.0</ele>
        <time>2019-08-01T08:27:14.029Z</time>
      </trkpt>
      <trkpt lat="43.02975833" lon="-1.24835167">
        <ele>939.0</ele>
        <time>2019-08-01T08:27:15.031Z</time>
      </trkpt>
      <trkpt lat="43.02974833" lon="-1.24835667">
        <ele>939.0</ele>
        <time>2019-08-01T08:27:16.038Z</time>
      </trkpt>
      <trkpt lat="43.02973167" lon="-1.24836">
        <ele>939.0</ele>
        <time>2019-08-01T08:27:16.919Z</time>
      </trkpt>
      <trkpt lat="43.02971833" lon="-1.24836167">
        <ele>939.0</ele>
        <time>2019-08-01T08:27:17.925Z</time>
      </trkpt>
      <trkpt lat="43.02971" lon="-1.24836667">
        <ele>939.0</ele>
        <time>2019-08-01T08:27:18.930Z</time>
      </trkpt>
      <trkpt lat="43.02970333" lon="-1.24837667">
        <ele>940.0</ele>
        <time>2019-08-01T08:27:19.936Z</time>
      </trkpt>
      <trkpt lat="43.029695" lon="-1.24838667">
        <ele>939.0</ele>
        <time>2019-08-01T08:27:20.943Z</time>
      </trkpt>
      <trkpt lat="43.02968667" lon="-1.2484">
        <ele>939.0</ele>
        <time>2019-08-01T08:27:21.950Z</time>
      </trkpt>
      <trkpt lat="43.02967667" lon="-1.24841">
        <ele>938.0</ele>
        <time>2019-08-01T08:27:22.954Z</time>
      </trkpt>
      <trkpt lat="43.02966833" lon="-1.24841833">
        <ele>937.0</ele>
        <time>2019-08-01T08:27:23.961Z</time>
      </trkpt>
      <trkpt lat="43.02965833" lon="-1.248425">
        <ele>937.0</ele>
        <time>2019-08-01T08:27:24.968Z</time>
      </trkpt>
      <trkpt lat="43.02964833" lon="-1.248435">
        <ele>936.0</ele>
        <time>2019-08-01T08:27:25.974Z</time>
      </trkpt>
      <trkpt lat="43.02964" lon="-1.24844167">
        <ele>936.0</ele>
        <time>2019-08-01T08:27:26.981Z</time>
      </trkpt>
      <trkpt lat="43.02963333" lon="-1.24845167">
        <ele>936.0</ele>
        <time>2019-08-01T08:27:27.988Z</time>
      </trkpt>
      <trkpt lat="43.029625" lon="-1.24846333">
        <ele>937.0</ele>
        <time>2019-08-01T08:27:28.995Z</time>
      </trkpt>
      <trkpt lat="43.02961833" lon="-1.248475">
        <ele>936.0</ele>
        <time>2019-08-01T08:27:30.002Z</time>
      </trkpt>
      <trkpt lat="43.02961" lon="-1.24849">
        <ele>935.0</ele>
        <time>2019-08-01T08:27:31.008Z</time>
      </trkpt>
      <trkpt lat="43.0296" lon="-1.24850333">
        <ele>935.0</ele>
        <time>2019-08-01T08:27:32.011Z</time>
      </trkpt>
      <trkpt lat="43.02959" lon="-1.24851167">
        <ele>934.0</ele>
        <time>2019-08-01T08:27:33.016Z</time>
      </trkpt>
      <trkpt lat="43.02958" lon="-1.24851833">
        <ele>934.0</ele>
        <time>2019-08-01T08:27:34.023Z</time>
      </trkpt>
      <trkpt lat="43.02956833" lon="-1.248525">
        <ele>933.0</ele>
        <time>2019-08-01T08:27:35.030Z</time>
      </trkpt>
      <trkpt lat="43.02955833" lon="-1.24853667">
        <ele>933.0</ele>
        <time>2019-08-01T08:27:36.036Z</time>
      </trkpt>
      <trkpt lat="43.02954667" lon="-1.24854833">
        <ele>933.0</ele>
        <time>2019-08-01T08:27:37.042Z</time>
      </trkpt>
      <trkpt lat="43.02953667" lon="-1.24855833">
        <ele>932.0</ele>
        <time>2019-08-01T08:27:37.922Z</time>
      </trkpt>
      <trkpt lat="43.02953" lon="-1.24857">
        <ele>933.0</ele>
        <time>2019-08-01T08:27:38.927Z</time>
      </trkpt>
      <trkpt lat="43.02952167" lon="-1.24858">
        <ele>933.0</ele>
        <time>2019-08-01T08:27:39.931Z</time>
      </trkpt>
      <trkpt lat="43.02950667" lon="-1.24858667">
        <ele>933.0</ele>
        <time>2019-08-01T08:27:40.936Z</time>
      </trkpt>
      <trkpt lat="43.02949167" lon="-1.24858667">
        <ele>934.0</ele>
        <time>2019-08-01T08:27:41.941Z</time>
      </trkpt>
      <trkpt lat="43.029475" lon="-1.24859">
        <ele>935.0</ele>
        <time>2019-08-01T08:27:42.949Z</time>
      </trkpt>
      <trkpt lat="43.02946167" lon="-1.24859833">
        <ele>935.0</ele>
        <time>2019-08-01T08:27:43.954Z</time>
      </trkpt>
      <trkpt lat="43.02945" lon="-1.24860667">
        <ele>935.0</ele>
        <time>2019-08-01T08:27:44.962Z</time>
      </trkpt>
      <trkpt lat="43.02944167" lon="-1.24862167">
        <ele>934.0</ele>
        <time>2019-08-01T08:27:45.968Z</time>
      </trkpt>
      <trkpt lat="43.02944" lon="-1.248635">
        <ele>934.0</ele>
        <time>2019-08-01T08:27:46.973Z</time>
      </trkpt>
      <trkpt lat="43.02943667" lon="-1.24864667">
        <ele>933.0</ele>
        <time>2019-08-01T08:27:47.980Z</time>
      </trkpt>
      <trkpt lat="43.02943" lon="-1.24865833">
        <ele>932.0</ele>
        <time>2019-08-01T08:27:48.987Z</time>
      </trkpt>
      <trkpt lat="43.02942" lon="-1.24867">
        <ele>931.0</ele>
        <time>2019-08-01T08:27:49.995Z</time>
      </trkpt>
      <trkpt lat="43.02941167" lon="-1.248685">
        <ele>931.0</ele>
        <time>2019-08-01T08:27:51.002Z</time>
      </trkpt>
      <trkpt lat="43.02940167" lon="-1.248695">
        <ele>930.0</ele>
        <time>2019-08-01T08:27:52.008Z</time>
      </trkpt>
      <trkpt lat="43.02938833" lon="-1.248705">
        <ele>930.0</ele>
        <time>2019-08-01T08:27:53.013Z</time>
      </trkpt>
      <trkpt lat="43.02937333" lon="-1.248715">
        <ele>930.0</ele>
        <time>2019-08-01T08:27:54.019Z</time>
      </trkpt>
      <trkpt lat="43.02935667" lon="-1.248725">
        <ele>929.0</ele>
        <time>2019-08-01T08:27:55.024Z</time>
      </trkpt>
      <trkpt lat="43.02934" lon="-1.24873833">
        <ele>929.0</ele>
        <time>2019-08-01T08:27:56.029Z</time>
      </trkpt>
      <trkpt lat="43.029325" lon="-1.24875667">
        <ele>927.0</ele>
        <time>2019-08-01T08:27:57.035Z</time>
      </trkpt>
      <trkpt lat="43.02931833" lon="-1.24877167">
        <ele>927.0</ele>
        <time>2019-08-01T08:27:58.040Z</time>
      </trkpt>
      <trkpt lat="43.02930833" lon="-1.24878833">
        <ele>927.0</ele>
        <time>2019-08-01T08:27:58.920Z</time>
      </trkpt>
      <trkpt lat="43.02929167" lon="-1.24880333">
        <ele>926.0</ele>
        <time>2019-08-01T08:27:59.927Z</time>
      </trkpt>
      <trkpt lat="43.02927833" lon="-1.24881667">
        <ele>926.0</ele>
        <time>2019-08-01T08:28:00.932Z</time>
      </trkpt>
      <trkpt lat="43.02926833" lon="-1.24882833">
        <ele>926.0</ele>
        <time>2019-08-01T08:28:01.937Z</time>
      </trkpt>
      <trkpt lat="43.02926167" lon="-1.24883667">
        <ele>926.0</ele>
        <time>2019-08-01T08:28:02.942Z</time>
      </trkpt>
      <trkpt lat="43.02924833" lon="-1.248845">
        <ele>925.0</ele>
        <time>2019-08-01T08:28:03.949Z</time>
      </trkpt>
      <trkpt lat="43.029235" lon="-1.24885333">
        <ele>925.0</ele>
        <time>2019-08-01T08:28:04.953Z</time>
      </trkpt>
      <trkpt lat="43.029225" lon="-1.24886833">
        <ele>925.0</ele>
        <time>2019-08-01T08:28:05.957Z</time>
      </trkpt>
      <trkpt lat="43.02921667" lon="-1.24888">
        <ele>924.0</ele>
        <time>2019-08-01T08:28:06.963Z</time>
      </trkpt>
      <trkpt lat="43.029205" lon="-1.24888667">
        <ele>924.0</ele>
        <time>2019-08-01T08:28:07.969Z</time>
      </trkpt>
      <trkpt lat="43.029195" lon="-1.248895">
        <ele>925.0</ele>
        <time>2019-08-01T08:28:08.974Z</time>
      </trkpt>
      <trkpt lat="43.02918167" lon="-1.248905">
        <ele>926.0</ele>
        <time>2019-08-01T08:28:09.979Z</time>
      </trkpt>
      <trkpt lat="43.02916333" lon="-1.24891167">
        <ele>926.0</ele>
        <time>2019-08-01T08:28:10.984Z</time>
      </trkpt>
      <trkpt lat="43.02914667" lon="-1.24891667">
        <ele>926.0</ele>
        <time>2019-08-01T08:28:11.990Z</time>
      </trkpt>
      <trkpt lat="43.02913333" lon="-1.24892333">
        <ele>925.0</ele>
        <time>2019-08-01T08:28:12.995Z</time>
      </trkpt>
      <trkpt lat="43.02912333" lon="-1.24893167">
        <ele>925.0</ele>
        <time>2019-08-01T08:28:14.002Z</time>
      </trkpt>
      <trkpt lat="43.02911167" lon="-1.24894167">
        <ele>925.0</ele>
        <time>2019-08-01T08:28:15.007Z</time>
      </trkpt>
      <trkpt lat="43.02910167" lon="-1.24895333">
        <ele>926.0</ele>
        <time>2019-08-01T08:28:16.011Z</time>
      </trkpt>
      <trkpt lat="43.02908667" lon="-1.24896167">
        <ele>926.0</ele>
        <time>2019-08-01T08:28:17.018Z</time>
      </trkpt>
      <trkpt lat="43.02907167" lon="-1.24897">
        <ele>926.0</ele>
        <time>2019-08-01T08:28:18.023Z</time>
      </trkpt>
      <trkpt lat="43.02906667" lon="-1.24898167">
        <ele>928.0</ele>
        <time>2019-08-01T08:28:19.028Z</time>
      </trkpt>
      <trkpt lat="43.02906167" lon="-1.24899333">
        <ele>930.0</ele>
        <time>2019-08-01T08:28:20.034Z</time>
      </trkpt>
      <trkpt lat="43.02905" lon="-1.24900167">
        <ele>930.0</ele>
        <time>2019-08-01T08:28:21.038Z</time>
      </trkpt>
      <trkpt lat="43.02904167" lon="-1.24901333">
        <ele>931.0</ele>
        <time>2019-08-01T08:28:21.919Z</time>
      </trkpt>
      <trkpt lat="43.029035" lon="-1.24902833">
        <ele>931.0</ele>
        <time>2019-08-01T08:28:22.923Z</time>
      </trkpt>
      <trkpt lat="43.02902833" lon="-1.24904167">
        <ele>931.0</ele>
        <time>2019-08-01T08:28:23.929Z</time>
      </trkpt>
      <trkpt lat="43.02902" lon="-1.24905667">
        <ele>930.0</ele>
        <time>2019-08-01T08:28:24.933Z</time>
      </trkpt>
      <trkpt lat="43.02901" lon="-1.24907">
        <ele>930.0</ele>
        <time>2019-08-01T08:28:25.937Z</time>
      </trkpt>
      <trkpt lat="43.02899667" lon="-1.24908667">
        <ele>929.0</ele>
        <time>2019-08-01T08:28:26.940Z</time>
      </trkpt>
      <trkpt lat="43.02898667" lon="-1.2491">
        <ele>928.0</ele>
        <time>2019-08-01T08:28:27.945Z</time>
      </trkpt>
      <trkpt lat="43.02897833" lon="-1.24911167">
        <ele>928.0</ele>
        <time>2019-08-01T08:28:28.949Z</time>
      </trkpt>
      <trkpt lat="43.02897333" lon="-1.24912167">
        <ele>929.0</ele>
        <time>2019-08-01T08:28:29.953Z</time>
      </trkpt>
      <trkpt lat="43.02896667" lon="-1.24913">
        <ele>929.0</ele>
        <time>2019-08-01T08:28:30.958Z</time>
      </trkpt>
      <trkpt lat="43.02896" lon="-1.24914333">
        <ele>929.0</ele>
        <time>2019-08-01T08:28:31.963Z</time>
      </trkpt>
      <trkpt lat="43.02895167" lon="-1.249155">
        <ele>929.0</ele>
        <time>2019-08-01T08:28:32.967Z</time>
      </trkpt>
      <trkpt lat="43.02894333" lon="-1.249165">
        <ele>928.0</ele>
        <time>2019-08-01T08:28:33.968Z</time>
      </trkpt>
      <trkpt lat="43.02893667" lon="-1.24918167">
        <ele>928.0</ele>
        <time>2019-08-01T08:28:34.973Z</time>
      </trkpt>
      <trkpt lat="43.02893" lon="-1.24920333">
        <ele>928.0</ele>
        <time>2019-08-01T08:28:35.979Z</time>
      </trkpt>
      <trkpt lat="43.02892167" lon="-1.24922">
        <ele>929.0</ele>
        <time>2019-08-01T08:28:36.984Z</time>
      </trkpt>
      <trkpt lat="43.02891167" lon="-1.24923333">
        <ele>929.0</ele>
        <time>2019-08-01T08:28:37.989Z</time>
      </trkpt>
      <trkpt lat="43.02890667" lon="-1.24924833">
        <ele>929.0</ele>
        <time>2019-08-01T08:28:38.994Z</time>
      </trkpt>
      <trkpt lat="43.0289" lon="-1.24926">
        <ele>929.0</ele>
        <time>2019-08-01T08:28:39.998Z</time>
      </trkpt>
      <trkpt lat="43.02889167" lon="-1.24927167">
        <ele>930.0</ele>
        <time>2019-08-01T08:28:41.005Z</time>
      </trkpt>
      <trkpt lat="43.028885" lon="-1.24928667">
        <ele>930.0</ele>
        <time>2019-08-01T08:28:42.010Z</time>
      </trkpt>
      <trkpt lat="43.02887833" lon="-1.249305">
        <ele>930.0</ele>
        <time>2019-08-01T08:28:43.012Z</time>
      </trkpt>
      <trkpt lat="43.028875" lon="-1.24932167">
        <ele>931.0</ele>
        <time>2019-08-01T08:28:44.017Z</time>
      </trkpt>
      <trkpt lat="43.02887" lon="-1.24933833">
        <ele>931.0</ele>
        <time>2019-08-01T08:28:45.023Z</time>
      </trkpt>
      <trkpt lat="43.02886833" lon="-1.24935167">
        <ele>932.0</ele>
        <time>2019-08-01T08:28:46.030Z</time>
      </trkpt>
      <trkpt lat="43.02886167" lon="-1.24936667">
        <ele>932.0</ele>
        <time>2019-08-01T08:28:47.034Z</time>
      </trkpt>
      <trkpt lat="43.028855" lon="-1.249385">
        <ele>932.0</ele>
        <time>2019-08-01T08:28:48.040Z</time>
      </trkpt>
      <trkpt lat="43.028845" lon="-1.2494">
        <ele>932.0</ele>
        <time>2019-08-01T08:28:48.922Z</time>
      </trkpt>
      <trkpt lat="43.02883667" lon="-1.24941">
        <ele>933.0</ele>
        <time>2019-08-01T08:28:49.928Z</time>
      </trkpt>
      <trkpt lat="43.02882667" lon="-1.24942167">
        <ele>933.0</ele>
        <time>2019-08-01T08:28:50.934Z</time>
      </trkpt>
      <trkpt lat="43.028825" lon="-1.24943667">
        <ele>934.0</ele>
        <time>2019-08-01T08:28:51.942Z</time>
      </trkpt>
      <trkpt lat="43.02882333" lon="-1.24945167">
        <ele>935.0</ele>
        <time>2019-08-01T08:28:52.950Z</time>
      </trkpt>
      <trkpt lat="43.02882667" lon="-1.24947667">
        <ele>936.0</ele>
        <time>2019-08-01T08:28:53.956Z</time>
      </trkpt>
      <trkpt lat="43.028825" lon="-1.24950667">
        <ele>936.0</ele>
        <time>2019-08-01T08:28:54.959Z</time>
      </trkpt>
      <trkpt lat="43.02882" lon="-1.24953333">
        <ele>936.0</ele>
        <time>2019-08-01T08:28:55.964Z</time>
      </trkpt>
      <trkpt lat="43.02881667" lon="-1.24956">
        <ele>936.0</ele>
        <time>2019-08-01T08:28:56.971Z</time>
      </trkpt>
      <trkpt lat="43.02881833" lon="-1.24958167">
        <ele>937.0</ele>
        <time>2019-08-01T08:28:57.977Z</time>
      </trkpt>
      <trkpt lat="43.02882333" lon="-1.2496">
        <ele>938.0</ele>
        <time>2019-08-01T08:28:58.983Z</time>
      </trkpt>
      <trkpt lat="43.02882667" lon="-1.24961167">
        <ele>940.0</ele>
        <time>2019-08-01T08:28:59.990Z</time>
      </trkpt>
      <trkpt lat="43.02882" lon="-1.24963167">
        <ele>939.0</ele>
        <time>2019-08-01T08:29:00.996Z</time>
      </trkpt>
      <trkpt lat="43.02882167" lon="-1.24965">
        <ele>939.0</ele>
        <time>2019-08-01T08:29:02.000Z</time>
      </trkpt>
      <trkpt lat="43.02882333" lon="-1.24967">
        <ele>938.0</ele>
        <time>2019-08-01T08:29:03.007Z</time>
      </trkpt>
      <trkpt lat="43.02882833" lon="-1.24969">
        <ele>938.0</ele>
        <time>2019-08-01T08:29:04.012Z</time>
      </trkpt>
      <trkpt lat="43.02882833" lon="-1.24971">
        <ele>937.0</ele>
        <time>2019-08-01T08:29:05.016Z</time>
      </trkpt>
      <trkpt lat="43.02882833" lon="-1.24973333">
        <ele>937.0</ele>
        <time>2019-08-01T08:29:06.021Z</time>
      </trkpt>
      <trkpt lat="43.02882833" lon="-1.24976167">
        <ele>937.0</ele>
        <time>2019-08-01T08:29:07.028Z</time>
      </trkpt>
      <trkpt lat="43.02883" lon="-1.24978667">
        <ele>937.0</ele>
        <time>2019-08-01T08:29:08.031Z</time>
      </trkpt>
      <trkpt lat="43.02883667" lon="-1.24980667">
        <ele>937.0</ele>
        <time>2019-08-01T08:29:09.037Z</time>
      </trkpt>
      <trkpt lat="43.02884" lon="-1.24984167">
        <ele>938.0</ele>
        <time>2019-08-01T08:29:09.918Z</time>
      </trkpt>
      <trkpt lat="43.02883333" lon="-1.249875">
        <ele>937.0</ele>
        <time>2019-08-01T08:29:10.924Z</time>
      </trkpt>
      <trkpt lat="43.02883167" lon="-1.24990667">
        <ele>936.0</ele>
        <time>2019-08-01T08:29:11.929Z</time>
      </trkpt>
      <trkpt lat="43.02883667" lon="-1.24993167">
        <ele>936.0</ele>
        <time>2019-08-01T08:29:12.935Z</time>
      </trkpt>
      <trkpt lat="43.02884" lon="-1.24995167">
        <ele>936.0</ele>
        <time>2019-08-01T08:29:13.941Z</time>
      </trkpt>
      <trkpt lat="43.02883833" lon="-1.24997167">
        <ele>936.0</ele>
        <time>2019-08-01T08:29:14.946Z</time>
      </trkpt>
      <trkpt lat="43.02883833" lon="-1.249995">
        <ele>936.0</ele>
        <time>2019-08-01T08:29:15.951Z</time>
      </trkpt>
      <trkpt lat="43.02883667" lon="-1.250015">
        <ele>936.0</ele>
        <time>2019-08-01T08:29:16.957Z</time>
      </trkpt>
      <trkpt lat="43.02883833" lon="-1.25003667">
        <ele>936.0</ele>
        <time>2019-08-01T08:29:17.963Z</time>
      </trkpt>
      <trkpt lat="43.028845" lon="-1.250055">
        <ele>936.0</ele>
        <time>2019-08-01T08:29:18.969Z</time>
      </trkpt>
      <trkpt lat="43.02885333" lon="-1.250075">
        <ele>937.0</ele>
        <time>2019-08-01T08:29:19.975Z</time>
      </trkpt>
      <trkpt lat="43.02886167" lon="-1.25008833">
        <ele>937.0</ele>
        <time>2019-08-01T08:29:20.979Z</time>
      </trkpt>
      <trkpt lat="43.028865" lon="-1.25011">
        <ele>937.0</ele>
        <time>2019-08-01T08:29:21.985Z</time>
      </trkpt>
      <trkpt lat="43.02887" lon="-1.25013667">
        <ele>937.0</ele>
        <time>2019-08-01T08:29:22.992Z</time>
      </trkpt>
      <trkpt lat="43.02887167" lon="-1.25016167">
        <ele>937.0</ele>
        <time>2019-08-01T08:29:23.996Z</time>
      </trkpt>
      <trkpt lat="43.028875" lon="-1.25018167">
        <ele>937.0</ele>
        <time>2019-08-01T08:29:25.001Z</time>
      </trkpt>
      <trkpt lat="43.02887333" lon="-1.25020167">
        <ele>938.0</ele>
        <time>2019-08-01T08:29:26.007Z</time>
      </trkpt>
      <trkpt lat="43.02887167" lon="-1.25021833">
        <ele>938.0</ele>
        <time>2019-08-01T08:29:27.012Z</time>
      </trkpt>
      <trkpt lat="43.02887" lon="-1.25023667">
        <ele>939.0</ele>
        <time>2019-08-01T08:29:28.017Z</time>
      </trkpt>
      <trkpt lat="43.02887167" lon="-1.25025833">
        <ele>939.0</ele>
        <time>2019-08-01T08:29:29.020Z</time>
      </trkpt>
      <trkpt lat="43.02888167" lon="-1.25027833">
        <ele>941.0</ele>
        <time>2019-08-01T08:29:30.027Z</time>
      </trkpt>
      <trkpt lat="43.02889667" lon="-1.2503">
        <ele>942.0</ele>
        <time>2019-08-01T08:29:31.034Z</time>
      </trkpt>
      <trkpt lat="43.028905" lon="-1.25032167">
        <ele>941.0</ele>
        <time>2019-08-01T08:29:32.039Z</time>
      </trkpt>
      <trkpt lat="43.02891333" lon="-1.25034833">
        <ele>941.0</ele>
        <time>2019-08-01T08:29:32.920Z</time>
      </trkpt>
      <trkpt lat="43.028915" lon="-1.25037">
        <ele>942.0</ele>
        <time>2019-08-01T08:29:33.925Z</time>
      </trkpt>
      <trkpt lat="43.02891333" lon="-1.25039167">
        <ele>942.0</ele>
        <time>2019-08-01T08:29:34.928Z</time>
      </trkpt>
      <trkpt lat="43.02891167" lon="-1.25041">
        <ele>942.0</ele>
        <time>2019-08-01T08:29:35.933Z</time>
      </trkpt>
      <trkpt lat="43.02891167" lon="-1.25042333">
        <ele>942.0</ele>
        <time>2019-08-01T08:29:36.939Z</time>
      </trkpt>
      <trkpt lat="43.028915" lon="-1.25043333">
        <ele>941.0</ele>
        <time>2019-08-01T08:29:37.942Z</time>
      </trkpt>
      <trkpt lat="43.02892167" lon="-1.25044333">
        <ele>939.0</ele>
        <time>2019-08-01T08:29:38.950Z</time>
      </trkpt>
      <trkpt lat="43.02893333" lon="-1.25045333">
        <ele>938.0</ele>
        <time>2019-08-01T08:29:39.956Z</time>
      </trkpt>
      <trkpt lat="43.02894" lon="-1.25046167">
        <ele>937.0</ele>
        <time>2019-08-01T08:29:40.961Z</time>
      </trkpt>
      <trkpt lat="43.02894167" lon="-1.25046833">
        <ele>936.0</ele>
        <time>2019-08-01T08:29:41.968Z</time>
      </trkpt>
      <trkpt lat="43.028945" lon="-1.25047667">
        <ele>936.0</ele>
        <time>2019-08-01T08:29:42.974Z</time>
      </trkpt>
      <trkpt lat="43.02895167" lon="-1.25048833">
        <ele>935.0</ele>
        <time>2019-08-01T08:29:43.980Z</time>
      </trkpt>
      <trkpt lat="43.02895667" lon="-1.2505">
        <ele>935.0</ele>
        <time>2019-08-01T08:29:44.983Z</time>
      </trkpt>
      <trkpt lat="43.02896167" lon="-1.25051167">
        <ele>934.0</ele>
        <time>2019-08-01T08:29:45.988Z</time>
      </trkpt>
      <trkpt lat="43.02897" lon="-1.250525">
        <ele>934.0</ele>
        <time>2019-08-01T08:29:46.992Z</time>
      </trkpt>
      <trkpt lat="43.02897667" lon="-1.25053667">
        <ele>934.0</ele>
        <time>2019-08-01T08:29:47.997Z</time>
      </trkpt>
      <trkpt lat="43.028985" lon="-1.25054667">
        <ele>934.0</ele>
        <time>2019-08-01T08:29:49.003Z</time>
      </trkpt>
      <trkpt lat="43.02899333" lon="-1.250555">
        <ele>934.0</ele>
        <time>2019-08-01T08:29:50.011Z</time>
      </trkpt>
      <trkpt lat="43.029" lon="-1.25056833">
        <ele>933.0</ele>
        <time>2019-08-01T08:29:51.014Z</time>
      </trkpt>
      <trkpt lat="43.02900333" lon="-1.25057833">
        <ele>933.0</ele>
        <time>2019-08-01T08:29:52.020Z</time>
      </trkpt>
      <trkpt lat="43.02900667" lon="-1.25059167">
        <ele>933.0</ele>
        <time>2019-08-01T08:29:53.025Z</time>
      </trkpt>
      <trkpt lat="43.02901167" lon="-1.25060333">
        <ele>933.0</ele>
        <time>2019-08-01T08:29:54.031Z</time>
      </trkpt>
      <trkpt lat="43.029015" lon="-1.25061833">
        <ele>932.0</ele>
        <time>2019-08-01T08:29:55.032Z</time>
      </trkpt>
      <trkpt lat="43.029015" lon="-1.25063833">
        <ele>932.0</ele>
        <time>2019-08-01T08:29:56.036Z</time>
      </trkpt>
      <trkpt lat="43.02901333" lon="-1.25065333">
        <ele>931.0</ele>
        <time>2019-08-01T08:29:57.042Z</time>
      </trkpt>
      <trkpt lat="43.02901333" lon="-1.25066667">
        <ele>932.0</ele>
        <time>2019-08-01T08:29:57.923Z</time>
      </trkpt>
      <trkpt lat="43.029015" lon="-1.25068333">
        <ele>931.0</ele>
        <time>2019-08-01T08:29:58.927Z</time>
      </trkpt>
      <trkpt lat="43.02901833" lon="-1.25069833">
        <ele>932.0</ele>
        <time>2019-08-01T08:29:59.933Z</time>
      </trkpt>
      <trkpt lat="43.02902333" lon="-1.25071167">
        <ele>932.0</ele>
        <time>2019-08-01T08:30:00.939Z</time>
      </trkpt>
      <trkpt lat="43.029025" lon="-1.250735">
        <ele>933.0</ele>
        <time>2019-08-01T08:30:01.945Z</time>
      </trkpt>
      <trkpt lat="43.02902167" lon="-1.25075667">
        <ele>934.0</ele>
        <time>2019-08-01T08:30:02.951Z</time>
      </trkpt>
      <trkpt lat="43.02901667" lon="-1.25077667">
        <ele>933.0</ele>
        <time>2019-08-01T08:30:03.958Z</time>
      </trkpt>
      <trkpt lat="43.029015" lon="-1.250795">
        <ele>932.0</ele>
        <time>2019-08-01T08:30:04.962Z</time>
      </trkpt>
      <trkpt lat="43.02901833" lon="-1.25081">
        <ele>932.0</ele>
        <time>2019-08-01T08:30:05.970Z</time>
      </trkpt>
      <trkpt lat="43.02902" lon="-1.25082833">
        <ele>931.0</ele>
        <time>2019-08-01T08:30:06.975Z</time>
      </trkpt>
      <trkpt lat="43.02902333" lon="-1.25084333">
        <ele>930.0</ele>
        <time>2019-08-01T08:30:07.982Z</time>
      </trkpt>
      <trkpt lat="43.02903167" lon="-1.25086667">
        <ele>931.0</ele>
        <time>2019-08-01T08:30:08.989Z</time>
      </trkpt>
      <trkpt lat="43.02903833" lon="-1.25089667">
        <ele>930.0</ele>
        <time>2019-08-01T08:30:09.997Z</time>
      </trkpt>
      <trkpt lat="43.02904" lon="-1.250925">
        <ele>930.0</ele>
        <time>2019-08-01T08:30:11.004Z</time>
      </trkpt>
      <trkpt lat="43.02904333" lon="-1.25095">
        <ele>931.0</ele>
        <time>2019-08-01T08:30:12.010Z</time>
      </trkpt>
      <trkpt lat="43.02904667" lon="-1.25097333">
        <ele>932.0</ele>
        <time>2019-08-01T08:30:13.016Z</time>
      </trkpt>
      <trkpt lat="43.029055" lon="-1.25099">
        <ele>932.0</ele>
        <time>2019-08-01T08:30:14.020Z</time>
      </trkpt>
      <trkpt lat="43.02906667" lon="-1.25101167">
        <ele>933.0</ele>
        <time>2019-08-01T08:30:15.026Z</time>
      </trkpt>
      <trkpt lat="43.02907833" lon="-1.25103667">
        <ele>933.0</ele>
        <time>2019-08-01T08:30:16.030Z</time>
      </trkpt>
      <trkpt lat="43.02908833" lon="-1.25106333">
        <ele>934.0</ele>
        <time>2019-08-01T08:30:17.037Z</time>
      </trkpt>
      <trkpt lat="43.029095" lon="-1.25108833">
        <ele>934.0</ele>
        <time>2019-08-01T08:30:17.918Z</time>
      </trkpt>
      <trkpt lat="43.02909833" lon="-1.25111333">
        <ele>934.0</ele>
        <time>2019-08-01T08:30:18.923Z</time>
      </trkpt>
      <trkpt lat="43.02911" lon="-1.25113333">
        <ele>935.0</ele>
        <time>2019-08-01T08:30:19.929Z</time>
      </trkpt>
      <trkpt lat="43.02912" lon="-1.25114667">
        <ele>936.0</ele>
        <time>2019-08-01T08:30:20.934Z</time>
      </trkpt>
      <trkpt lat="43.02913667" lon="-1.25115667">
        <ele>936.0</ele>
        <time>2019-08-01T08:30:21.941Z</time>
      </trkpt>
      <trkpt lat="43.029155" lon="-1.25117167">
        <ele>937.0</ele>
        <time>2019-08-01T08:30:22.945Z</time>
      </trkpt>
      <trkpt lat="43.02917333" lon="-1.25119">
        <ele>938.0</ele>
        <time>2019-08-01T08:30:23.952Z</time>
      </trkpt>
      <trkpt lat="43.029185" lon="-1.25121333">
        <ele>938.0</ele>
        <time>2019-08-01T08:30:24.959Z</time>
      </trkpt>
      <trkpt lat="43.02919667" lon="-1.25123333">
        <ele>938.0</ele>
        <time>2019-08-01T08:30:25.963Z</time>
      </trkpt>
      <trkpt lat="43.029205" lon="-1.251255">
        <ele>938.0</ele>
        <time>2019-08-01T08:30:26.968Z</time>
      </trkpt>
      <trkpt lat="43.02920667" lon="-1.25127">
        <ele>938.0</ele>
        <time>2019-08-01T08:30:27.972Z</time>
      </trkpt>
      <trkpt lat="43.02921" lon="-1.25128333">
        <ele>938.0</ele>
        <time>2019-08-01T08:30:28.978Z</time>
      </trkpt>
      <trkpt lat="43.02921167" lon="-1.2513">
        <ele>938.0</ele>
        <time>2019-08-01T08:30:29.983Z</time>
      </trkpt>
      <trkpt lat="43.02921167" lon="-1.25132">
        <ele>938.0</ele>
        <time>2019-08-01T08:30:30.987Z</time>
      </trkpt>
      <trkpt lat="43.029215" lon="-1.25134333">
        <ele>938.0</ele>
        <time>2019-08-01T08:30:31.992Z</time>
      </trkpt>
      <trkpt lat="43.029215" lon="-1.25136333">
        <ele>937.0</ele>
        <time>2019-08-01T08:30:33.000Z</time>
      </trkpt>
      <trkpt lat="43.02921833" lon="-1.25138333">
        <ele>936.0</ele>
        <time>2019-08-01T08:30:34.006Z</time>
      </trkpt>
      <trkpt lat="43.029225" lon="-1.251405">
        <ele>936.0</ele>
        <time>2019-08-01T08:30:35.012Z</time>
      </trkpt>
      <trkpt lat="43.02923667" lon="-1.25142">
        <ele>936.0</ele>
        <time>2019-08-01T08:30:36.020Z</time>
      </trkpt>
      <trkpt lat="43.02924833" lon="-1.25143667">
        <ele>936.0</ele>
        <time>2019-08-01T08:30:37.024Z</time>
      </trkpt>
      <trkpt lat="43.02926" lon="-1.251455">
        <ele>937.0</ele>
        <time>2019-08-01T08:30:38.030Z</time>
      </trkpt>
      <trkpt lat="43.02927333" lon="-1.25146667">
        <ele>937.0</ele>
        <time>2019-08-01T08:30:39.036Z</time>
      </trkpt>
      <trkpt lat="43.02929333" lon="-1.25147833">
        <ele>937.0</ele>
        <time>2019-08-01T08:30:40.042Z</time>
      </trkpt>
      <trkpt lat="43.029315" lon="-1.25149833">
        <ele>936.0</ele>
        <time>2019-08-01T08:30:40.921Z</time>
      </trkpt>
      <trkpt lat="43.02933167" lon="-1.25151667">
        <ele>937.0</ele>
        <time>2019-08-01T08:30:41.927Z</time>
      </trkpt>
      <trkpt lat="43.02934667" lon="-1.25153">
        <ele>937.0</ele>
        <time>2019-08-01T08:30:42.928Z</time>
      </trkpt>
      <trkpt lat="43.02935833" lon="-1.251545">
        <ele>938.0</ele>
        <time>2019-08-01T08:30:43.934Z</time>
      </trkpt>
      <trkpt lat="43.02936333" lon="-1.251565">
        <ele>938.0</ele>
        <time>2019-08-01T08:30:44.939Z</time>
      </trkpt>
      <trkpt lat="43.02936833" lon="-1.251585">
        <ele>938.0</ele>
        <time>2019-08-01T08:30:45.944Z</time>
      </trkpt>
      <trkpt lat="43.02936833" lon="-1.25160333">
        <ele>939.0</ele>
        <time>2019-08-01T08:30:46.949Z</time>
      </trkpt>
      <trkpt lat="43.02936667" lon="-1.25162167">
        <ele>940.0</ele>
        <time>2019-08-01T08:30:47.956Z</time>
      </trkpt>
      <trkpt lat="43.029375" lon="-1.25164333">
        <ele>942.0</ele>
        <time>2019-08-01T08:30:48.961Z</time>
      </trkpt>
      <trkpt lat="43.029385" lon="-1.25165333">
        <ele>942.0</ele>
        <time>2019-08-01T08:30:49.967Z</time>
      </trkpt>
      <trkpt lat="43.02939333" lon="-1.251665">
        <ele>943.0</ele>
        <time>2019-08-01T08:30:50.972Z</time>
      </trkpt>
      <trkpt lat="43.02939667" lon="-1.251675">
        <ele>944.0</ele>
        <time>2019-08-01T08:30:51.977Z</time>
      </trkpt>
      <trkpt lat="43.02940667" lon="-1.25167333">
        <ele>944.0</ele>
        <time>2019-08-01T08:30:52.983Z</time>
      </trkpt>
      <trkpt lat="43.02941667" lon="-1.25168833">
        <ele>946.0</ele>
        <time>2019-08-01T08:30:53.989Z</time>
      </trkpt>
      <trkpt lat="43.02942167" lon="-1.25170833">
        <ele>947.0</ele>
        <time>2019-08-01T08:30:54.997Z</time>
      </trkpt>
      <trkpt lat="43.02943667" lon="-1.25172667">
        <ele>949.0</ele>
        <time>2019-08-01T08:30:56.001Z</time>
      </trkpt>
      <trkpt lat="43.02945333" lon="-1.25173667">
        <ele>949.0</ele>
        <time>2019-08-01T08:30:57.009Z</time>
      </trkpt>
      <trkpt lat="43.02946667" lon="-1.25175">
        <ele>950.0</ele>
        <time>2019-08-01T08:30:58.013Z</time>
      </trkpt>
      <trkpt lat="43.02948167" lon="-1.25175833">
        <ele>950.0</ele>
        <time>2019-08-01T08:30:59.017Z</time>
      </trkpt>
      <trkpt lat="43.02949833" lon="-1.25176167">
        <ele>951.0</ele>
        <time>2019-08-01T08:31:00.023Z</time>
      </trkpt>
      <trkpt lat="43.02950833" lon="-1.25176833">
        <ele>951.0</ele>
        <time>2019-08-01T08:31:01.029Z</time>
      </trkpt>
      <trkpt lat="43.02951" lon="-1.25177333">
        <ele>952.0</ele>
        <time>2019-08-01T08:31:02.035Z</time>
      </trkpt>
      <trkpt lat="43.02951833" lon="-1.25177333">
        <ele>953.0</ele>
        <time>2019-08-01T08:31:03.040Z</time>
      </trkpt>
      <trkpt lat="43.02952667" lon="-1.25178167">
        <ele>954.0</ele>
        <time>2019-08-01T08:31:03.921Z</time>
      </trkpt>
      <trkpt lat="43.02953333" lon="-1.25179333">
        <ele>954.0</ele>
        <time>2019-08-01T08:31:04.927Z</time>
      </trkpt>
      <trkpt lat="43.02953833" lon="-1.25180333">
        <ele>954.0</ele>
        <time>2019-08-01T08:31:05.930Z</time>
      </trkpt>
      <trkpt lat="43.02954667" lon="-1.251815">
        <ele>955.0</ele>
        <time>2019-08-01T08:31:06.934Z</time>
      </trkpt>
      <trkpt lat="43.02956" lon="-1.25182667">
        <ele>956.0</ele>
        <time>2019-08-01T08:31:07.940Z</time>
      </trkpt>
      <trkpt lat="43.02956333" lon="-1.251845">
        <ele>956.0</ele>
        <time>2019-08-01T08:31:08.947Z</time>
      </trkpt>
      <trkpt lat="43.02956333" lon="-1.25186333">
        <ele>956.0</ele>
        <time>2019-08-01T08:31:09.951Z</time>
      </trkpt>
      <trkpt lat="43.029565" lon="-1.25188167">
        <ele>956.0</ele>
        <time>2019-08-01T08:31:10.958Z</time>
      </trkpt>
      <trkpt lat="43.02956833" lon="-1.25189833">
        <ele>957.0</ele>
        <time>2019-08-01T08:31:11.963Z</time>
      </trkpt>
      <trkpt lat="43.029575" lon="-1.25191833">
        <ele>958.0</ele>
        <time>2019-08-01T08:31:12.970Z</time>
      </trkpt>
      <trkpt lat="43.02958333" lon="-1.25194167">
        <ele>959.0</ele>
        <time>2019-08-01T08:31:13.976Z</time>
      </trkpt>
      <trkpt lat="43.02959" lon="-1.25195333">
        <ele>960.0</ele>
        <time>2019-08-01T08:31:14.981Z</time>
      </trkpt>
      <trkpt lat="43.02959667" lon="-1.25196167">
        <ele>960.0</ele>
        <time>2019-08-01T08:31:15.984Z</time>
      </trkpt>
      <trkpt lat="43.02960333" lon="-1.25197">
        <ele>961.0</ele>
        <time>2019-08-01T08:31:16.987Z</time>
      </trkpt>
      <trkpt lat="43.029605" lon="-1.25198667">
        <ele>961.0</ele>
        <time>2019-08-01T08:31:17.992Z</time>
      </trkpt>
      <trkpt lat="43.02960833" lon="-1.25200667">
        <ele>962.0</ele>
        <time>2019-08-01T08:31:18.996Z</time>
      </trkpt>
      <trkpt lat="43.02962833" lon="-1.252">
        <ele>961.0</ele>
        <time>2019-08-01T08:31:19.999Z</time>
      </trkpt>
      <trkpt lat="43.02964" lon="-1.25203">
        <ele>962.0</ele>
        <time>2019-08-01T08:31:21.003Z</time>
      </trkpt>
      <trkpt lat="43.02964833" lon="-1.25206167">
        <ele>962.0</ele>
        <time>2019-08-01T08:31:22.006Z</time>
      </trkpt>
      <trkpt lat="43.029655" lon="-1.25209">
        <ele>962.0</ele>
        <time>2019-08-01T08:31:23.011Z</time>
      </trkpt>
      <trkpt lat="43.029665" lon="-1.25210667">
        <ele>963.0</ele>
        <time>2019-08-01T08:31:24.018Z</time>
      </trkpt>
      <trkpt lat="43.02966833" lon="-1.25212167">
        <ele>964.0</ele>
        <time>2019-08-01T08:31:25.024Z</time>
      </trkpt>
      <trkpt lat="43.02967167" lon="-1.25214333">
        <ele>963.0</ele>
        <time>2019-08-01T08:31:26.027Z</time>
      </trkpt>
      <trkpt lat="43.02968167" lon="-1.25217">
        <ele>963.0</ele>
        <time>2019-08-01T08:31:27.031Z</time>
      </trkpt>
      <trkpt lat="43.02969833" lon="-1.25219">
        <ele>963.0</ele>
        <time>2019-08-01T08:31:28.036Z</time>
      </trkpt>
      <trkpt lat="43.02972167" lon="-1.2522">
        <ele>963.0</ele>
        <time>2019-08-01T08:31:29.043Z</time>
      </trkpt>
      <trkpt lat="43.02973667" lon="-1.25221">
        <ele>963.0</ele>
        <time>2019-08-01T08:31:29.922Z</time>
      </trkpt>
      <trkpt lat="43.02975333" lon="-1.252215">
        <ele>963.0</ele>
        <time>2019-08-01T08:31:30.926Z</time>
      </trkpt>
      <trkpt lat="43.02976667" lon="-1.25222333">
        <ele>963.0</ele>
        <time>2019-08-01T08:31:31.928Z</time>
      </trkpt>
      <trkpt lat="43.029785" lon="-1.252225">
        <ele>963.0</ele>
        <time>2019-08-01T08:31:32.932Z</time>
      </trkpt>
      <trkpt lat="43.02979833" lon="-1.25223833">
        <ele>963.0</ele>
        <time>2019-08-01T08:31:33.939Z</time>
      </trkpt>
      <trkpt lat="43.02980833" lon="-1.25225333">
        <ele>962.0</ele>
        <time>2019-08-01T08:31:34.947Z</time>
      </trkpt>
      <trkpt lat="43.029815" lon="-1.25226333">
        <ele>963.0</ele>
        <time>2019-08-01T08:31:35.953Z</time>
      </trkpt>
      <trkpt lat="43.029825" lon="-1.25226833">
        <ele>964.0</ele>
        <time>2019-08-01T08:31:36.961Z</time>
      </trkpt>
      <trkpt lat="43.02982833" lon="-1.25228">
        <ele>965.0</ele>
        <time>2019-08-01T08:31:37.967Z</time>
      </trkpt>
      <trkpt lat="43.02982833" lon="-1.25228667">
        <ele>966.0</ele>
        <time>2019-08-01T08:31:38.972Z</time>
      </trkpt>
      <trkpt lat="43.02983" lon="-1.252295">
        <ele>966.0</ele>
        <time>2019-08-01T08:31:39.977Z</time>
      </trkpt>
      <trkpt lat="43.029835" lon="-1.25230167">
        <ele>966.0</ele>
        <time>2019-08-01T08:31:40.981Z</time>
      </trkpt>
      <trkpt lat="43.02983667" lon="-1.25231667">
        <ele>965.0</ele>
        <time>2019-08-01T08:31:41.985Z</time>
      </trkpt>
      <trkpt lat="43.02984167" lon="-1.25232833">
        <ele>965.0</ele>
        <time>2019-08-01T08:31:42.990Z</time>
      </trkpt>
      <trkpt lat="43.02984333" lon="-1.25234">
        <ele>965.0</ele>
        <time>2019-08-01T08:31:43.997Z</time>
      </trkpt>
      <trkpt lat="43.029845" lon="-1.25235167">
        <ele>964.0</ele>
        <time>2019-08-01T08:31:45.003Z</time>
      </trkpt>
      <trkpt lat="43.02984833" lon="-1.25236167">
        <ele>964.0</ele>
        <time>2019-08-01T08:31:46.006Z</time>
      </trkpt>
      <trkpt lat="43.02985167" lon="-1.25236667">
        <ele>964.0</ele>
        <time>2019-08-01T08:31:47.011Z</time>
      </trkpt>
      <trkpt lat="43.02985667" lon="-1.25237167">
        <ele>964.0</ele>
        <time>2019-08-01T08:31:48.017Z</time>
      </trkpt>
      <trkpt lat="43.02986333" lon="-1.25238">
        <ele>965.0</ele>
        <time>2019-08-01T08:31:49.023Z</time>
      </trkpt>
      <trkpt lat="43.02987167" lon="-1.25238667">
        <ele>965.0</ele>
        <time>2019-08-01T08:31:50.030Z</time>
      </trkpt>
      <trkpt lat="43.02988" lon="-1.2524">
        <ele>965.0</ele>
        <time>2019-08-01T08:31:51.036Z</time>
      </trkpt>
      <trkpt lat="43.029895" lon="-1.25241667">
        <ele>965.0</ele>
        <time>2019-08-01T08:31:52.041Z</time>
      </trkpt>
      <trkpt lat="43.02990833" lon="-1.25243">
        <ele>965.0</ele>
        <time>2019-08-01T08:31:52.922Z</time>
      </trkpt>
      <trkpt lat="43.02992167" lon="-1.25244833">
        <ele>965.0</ele>
        <time>2019-08-01T08:31:53.929Z</time>
      </trkpt>
      <trkpt lat="43.02993167" lon="-1.252465">
        <ele>966.0</ele>
        <time>2019-08-01T08:31:54.935Z</time>
      </trkpt>
      <trkpt lat="43.02994167" lon="-1.25248167">
        <ele>966.0</ele>
        <time>2019-08-01T08:31:55.940Z</time>
      </trkpt>
      <trkpt lat="43.02994667" lon="-1.25250167">
        <ele>966.0</ele>
        <time>2019-08-01T08:31:56.944Z</time>
      </trkpt>
      <trkpt lat="43.02995333" lon="-1.25251833">
        <ele>966.0</ele>
        <time>2019-08-01T08:31:57.950Z</time>
      </trkpt>
      <trkpt lat="43.02995833" lon="-1.25253333">
        <ele>967.0</ele>
        <time>2019-08-01T08:31:58.957Z</time>
      </trkpt>
      <trkpt lat="43.02996167" lon="-1.252545">
        <ele>967.0</ele>
        <time>2019-08-01T08:31:59.963Z</time>
      </trkpt>
      <trkpt lat="43.02996667" lon="-1.25255833">
        <ele>968.0</ele>
        <time>2019-08-01T08:32:00.970Z</time>
      </trkpt>
      <trkpt lat="43.02997667" lon="-1.25256833">
        <ele>967.0</ele>
        <time>2019-08-01T08:32:01.977Z</time>
      </trkpt>
      <trkpt lat="43.02998833" lon="-1.25257333">
        <ele>967.0</ele>
        <time>2019-08-01T08:32:02.983Z</time>
      </trkpt>
      <trkpt lat="43.03000167" lon="-1.25258333">
        <ele>968.0</ele>
        <time>2019-08-01T08:32:03.988Z</time>
      </trkpt>
      <trkpt lat="43.03001333" lon="-1.25259667">
        <ele>968.0</ele>
        <time>2019-08-01T08:32:04.994Z</time>
      </trkpt>
      <trkpt lat="43.03002167" lon="-1.25260667">
        <ele>969.0</ele>
        <time>2019-08-01T08:32:06.000Z</time>
      </trkpt>
      <trkpt lat="43.03003167" lon="-1.25262">
        <ele>970.0</ele>
        <time>2019-08-01T08:32:07.008Z</time>
      </trkpt>
      <trkpt lat="43.03003333" lon="-1.252635">
        <ele>970.0</ele>
        <time>2019-08-01T08:32:08.013Z</time>
      </trkpt>
      <trkpt lat="43.030045" lon="-1.25264167">
        <ele>970.0</ele>
        <time>2019-08-01T08:32:09.020Z</time>
      </trkpt>
      <trkpt lat="43.03005" lon="-1.25265333">
        <ele>970.0</ele>
        <time>2019-08-01T08:32:10.026Z</time>
      </trkpt>
      <trkpt lat="43.03005833" lon="-1.25266667">
        <ele>970.0</ele>
        <time>2019-08-01T08:32:11.032Z</time>
      </trkpt>
      <trkpt lat="43.030065" lon="-1.25268167">
        <ele>970.0</ele>
        <time>2019-08-01T08:32:12.037Z</time>
      </trkpt>
      <trkpt lat="43.03006833" lon="-1.2527">
        <ele>970.0</ele>
        <time>2019-08-01T08:32:12.918Z</time>
      </trkpt>
      <trkpt lat="43.030075" lon="-1.25272">
        <ele>970.0</ele>
        <time>2019-08-01T08:32:13.922Z</time>
      </trkpt>
      <trkpt lat="43.030085" lon="-1.25273833">
        <ele>971.0</ele>
        <time>2019-08-01T08:32:14.928Z</time>
      </trkpt>
      <trkpt lat="43.03009667" lon="-1.25275667">
        <ele>972.0</ele>
        <time>2019-08-01T08:32:15.933Z</time>
      </trkpt>
      <trkpt lat="43.030105" lon="-1.25278">
        <ele>972.0</ele>
        <time>2019-08-01T08:32:16.940Z</time>
      </trkpt>
      <trkpt lat="43.03011333" lon="-1.2528">
        <ele>972.0</ele>
        <time>2019-08-01T08:32:17.947Z</time>
      </trkpt>
      <trkpt lat="43.03012" lon="-1.25281167">
        <ele>971.0</ele>
        <time>2019-08-01T08:32:18.951Z</time>
      </trkpt>
      <trkpt lat="43.030125" lon="-1.25281833">
        <ele>971.0</ele>
        <time>2019-08-01T08:32:19.957Z</time>
      </trkpt>
      <trkpt lat="43.030125" lon="-1.25283667">
        <ele>971.0</ele>
        <time>2019-08-01T08:32:20.962Z</time>
      </trkpt>
      <trkpt lat="43.03012667" lon="-1.252855">
        <ele>971.0</ele>
        <time>2019-08-01T08:32:21.969Z</time>
      </trkpt>
      <trkpt lat="43.03013333" lon="-1.25286333">
        <ele>971.0</ele>
        <time>2019-08-01T08:32:22.975Z</time>
      </trkpt>
      <trkpt lat="43.03014333" lon="-1.252865">
        <ele>971.0</ele>
        <time>2019-08-01T08:32:23.980Z</time>
      </trkpt>
      <trkpt lat="43.03014833" lon="-1.25287333">
        <ele>972.0</ele>
        <time>2019-08-01T08:32:24.987Z</time>
      </trkpt>
      <trkpt lat="43.030155" lon="-1.25288333">
        <ele>972.0</ele>
        <time>2019-08-01T08:32:25.994Z</time>
      </trkpt>
      <trkpt lat="43.03016833" lon="-1.25288833">
        <ele>972.0</ele>
        <time>2019-08-01T08:32:27.000Z</time>
      </trkpt>
      <trkpt lat="43.03018167" lon="-1.25289167">
        <ele>972.0</ele>
        <time>2019-08-01T08:32:28.005Z</time>
      </trkpt>
      <trkpt lat="43.03018167" lon="-1.25290333">
        <ele>972.0</ele>
        <time>2019-08-01T08:32:29.011Z</time>
      </trkpt>
      <trkpt lat="43.03018" lon="-1.25291167">
        <ele>972.0</ele>
        <time>2019-08-01T08:32:30.014Z</time>
      </trkpt>
      <trkpt lat="43.03018333" lon="-1.25291833">
        <ele>972.0</ele>
        <time>2019-08-01T08:32:31.020Z</time>
      </trkpt>
      <trkpt lat="43.03018333" lon="-1.25293">
        <ele>970.0</ele>
        <time>2019-08-01T08:32:32.025Z</time>
      </trkpt>
      <trkpt lat="43.030185" lon="-1.25294">
        <ele>970.0</ele>
        <time>2019-08-01T08:32:33.029Z</time>
      </trkpt>
      <trkpt lat="43.03018667" lon="-1.25295">
        <ele>969.0</ele>
        <time>2019-08-01T08:32:34.034Z</time>
      </trkpt>
      <trkpt lat="43.030195" lon="-1.25296">
        <ele>969.0</ele>
        <time>2019-08-01T08:32:35.038Z</time>
      </trkpt>
      <trkpt lat="43.0302" lon="-1.25297167">
        <ele>970.0</ele>
        <time>2019-08-01T08:32:35.920Z</time>
      </trkpt>
      <trkpt lat="43.03020833" lon="-1.25298333">
        <ele>970.0</ele>
        <time>2019-08-01T08:32:36.925Z</time>
      </trkpt>
      <trkpt lat="43.03021667" lon="-1.25299">
        <ele>971.0</ele>
        <time>2019-08-01T08:32:37.931Z</time>
      </trkpt>
      <trkpt lat="43.03022667" lon="-1.252995">
        <ele>971.0</ele>
        <time>2019-08-01T08:32:38.939Z</time>
      </trkpt>
      <trkpt lat="43.03024" lon="-1.253">
        <ele>971.0</ele>
        <time>2019-08-01T08:32:39.945Z</time>
      </trkpt>
      <trkpt lat="43.03025667" lon="-1.25300833">
        <ele>971.0</ele>
        <time>2019-08-01T08:32:40.951Z</time>
      </trkpt>
      <trkpt lat="43.03027" lon="-1.253015">
        <ele>972.0</ele>
        <time>2019-08-01T08:32:41.956Z</time>
      </trkpt>
      <trkpt lat="43.03027833" lon="-1.253025">
        <ele>973.0</ele>
        <time>2019-08-01T08:32:42.961Z</time>
      </trkpt>
      <trkpt lat="43.03028167" lon="-1.25304167">
        <ele>973.0</ele>
        <time>2019-08-01T08:32:43.965Z</time>
      </trkpt>
      <trkpt lat="43.03029" lon="-1.25305833">
        <ele>973.0</ele>
        <time>2019-08-01T08:32:44.969Z</time>
      </trkpt>
      <trkpt lat="43.03030167" lon="-1.25307333">
        <ele>973.0</ele>
        <time>2019-08-01T08:32:45.969Z</time>
      </trkpt>
      <trkpt lat="43.03031167" lon="-1.25308833">
        <ele>973.0</ele>
        <time>2019-08-01T08:32:46.973Z</time>
      </trkpt>
      <trkpt lat="43.03031833" lon="-1.25310333">
        <ele>973.0</ele>
        <time>2019-08-01T08:32:47.977Z</time>
      </trkpt>
      <trkpt lat="43.03032" lon="-1.25311667">
        <ele>973.0</ele>
        <time>2019-08-01T08:32:48.985Z</time>
      </trkpt>
      <trkpt lat="43.03032333" lon="-1.25312667">
        <ele>974.0</ele>
        <time>2019-08-01T08:32:49.991Z</time>
      </trkpt>
      <trkpt lat="43.030325" lon="-1.25314">
        <ele>974.0</ele>
        <time>2019-08-01T08:32:50.997Z</time>
      </trkpt>
      <trkpt lat="43.03032833" lon="-1.253155">
        <ele>974.0</ele>
        <time>2019-08-01T08:32:52.003Z</time>
      </trkpt>
      <trkpt lat="43.03034" lon="-1.25316833">
        <ele>973.0</ele>
        <time>2019-08-01T08:32:53.008Z</time>
      </trkpt>
      <trkpt lat="43.030345" lon="-1.25318167">
        <ele>974.0</ele>
        <time>2019-08-01T08:32:54.013Z</time>
      </trkpt>
      <trkpt lat="43.03035" lon="-1.25319833">
        <ele>974.0</ele>
        <time>2019-08-01T08:32:55.018Z</time>
      </trkpt>
      <trkpt lat="43.03035167" lon="-1.253215">
        <ele>974.0</ele>
        <time>2019-08-01T08:32:56.025Z</time>
      </trkpt>
      <trkpt lat="43.03035833" lon="-1.25322667">
        <ele>974.0</ele>
        <time>2019-08-01T08:32:57.030Z</time>
      </trkpt>
      <trkpt lat="43.03036833" lon="-1.253235">
        <ele>974.0</ele>
        <time>2019-08-01T08:32:58.036Z</time>
      </trkpt>
      <trkpt lat="43.03037833" lon="-1.253245">
        <ele>975.0</ele>
        <time>2019-08-01T08:32:59.042Z</time>
      </trkpt>
      <trkpt lat="43.03038833" lon="-1.253255">
        <ele>975.0</ele>
        <time>2019-08-01T08:32:59.923Z</time>
      </trkpt>
      <trkpt lat="43.03039667" lon="-1.25326833">
        <ele>976.0</ele>
        <time>2019-08-01T08:33:00.930Z</time>
      </trkpt>
      <trkpt lat="43.03040333" lon="-1.25327833">
        <ele>976.0</ele>
        <time>2019-08-01T08:33:01.935Z</time>
      </trkpt>
      <trkpt lat="43.030415" lon="-1.25328667">
        <ele>976.0</ele>
        <time>2019-08-01T08:33:02.942Z</time>
      </trkpt>
      <trkpt lat="43.03042667" lon="-1.25329333">
        <ele>977.0</ele>
        <time>2019-08-01T08:33:03.947Z</time>
      </trkpt>
      <trkpt lat="43.030435" lon="-1.25330167">
        <ele>977.0</ele>
        <time>2019-08-01T08:33:04.952Z</time>
      </trkpt>
      <trkpt lat="43.03044333" lon="-1.25331667">
        <ele>977.0</ele>
        <time>2019-08-01T08:33:05.959Z</time>
      </trkpt>
      <trkpt lat="43.03045" lon="-1.253335">
        <ele>976.0</ele>
        <time>2019-08-01T08:33:06.963Z</time>
      </trkpt>
      <trkpt lat="43.03045833" lon="-1.25335167">
        <ele>976.0</ele>
        <time>2019-08-01T08:33:07.969Z</time>
      </trkpt>
      <trkpt lat="43.03046333" lon="-1.25337333">
        <ele>975.0</ele>
        <time>2019-08-01T08:33:08.975Z</time>
      </trkpt>
      <trkpt lat="43.03046667" lon="-1.25339333">
        <ele>973.0</ele>
        <time>2019-08-01T08:33:09.980Z</time>
      </trkpt>
      <trkpt lat="43.03046833" lon="-1.25341333">
        <ele>972.0</ele>
        <time>2019-08-01T08:33:10.986Z</time>
      </trkpt>
      <trkpt lat="43.03046833" lon="-1.25343667">
        <ele>970.0</ele>
        <time>2019-08-01T08:33:11.993Z</time>
      </trkpt>
      <trkpt lat="43.030475" lon="-1.25345333">
        <ele>970.0</ele>
        <time>2019-08-01T08:33:13.001Z</time>
      </trkpt>
      <trkpt lat="43.03048167" lon="-1.25347167">
        <ele>969.0</ele>
        <time>2019-08-01T08:33:14.007Z</time>
      </trkpt>
      <trkpt lat="43.03048833" lon="-1.25349167">
        <ele>969.0</ele>
        <time>2019-08-01T08:33:15.011Z</time>
      </trkpt>
      <trkpt lat="43.03049333" lon="-1.25351167">
        <ele>968.0</ele>
        <time>2019-08-01T08:33:16.016Z</time>
      </trkpt>
      <trkpt lat="43.03049333" lon="-1.25353">
        <ele>966.0</ele>
        <time>2019-08-01T08:33:17.020Z</time>
      </trkpt>
      <trkpt lat="43.03049833" lon="-1.253545">
        <ele>966.0</ele>
        <time>2019-08-01T08:33:18.027Z</time>
      </trkpt>
      <trkpt lat="43.03051" lon="-1.25356167">
        <ele>965.0</ele>
        <time>2019-08-01T08:33:19.033Z</time>
      </trkpt>
      <trkpt lat="43.03051667" lon="-1.25357833">
        <ele>965.0</ele>
        <time>2019-08-01T08:33:20.040Z</time>
      </trkpt>
      <trkpt lat="43.03052167" lon="-1.25359333">
        <ele>964.0</ele>
        <time>2019-08-01T08:33:20.918Z</time>
      </trkpt>
      <trkpt lat="43.03052667" lon="-1.25361">
        <ele>963.0</ele>
        <time>2019-08-01T08:33:21.924Z</time>
      </trkpt>
      <trkpt lat="43.03053" lon="-1.25362167">
        <ele>963.0</ele>
        <time>2019-08-01T08:33:22.929Z</time>
      </trkpt>
      <trkpt lat="43.03053667" lon="-1.25363667">
        <ele>963.0</ele>
        <time>2019-08-01T08:33:23.935Z</time>
      </trkpt>
      <trkpt lat="43.03054333" lon="-1.25365">
        <ele>963.0</ele>
        <time>2019-08-01T08:33:24.939Z</time>
      </trkpt>
      <trkpt lat="43.03055" lon="-1.253665">
        <ele>962.0</ele>
        <time>2019-08-01T08:33:25.946Z</time>
      </trkpt>
      <trkpt lat="43.03055333" lon="-1.25368167">
        <ele>962.0</ele>
        <time>2019-08-01T08:33:26.952Z</time>
      </trkpt>
      <trkpt lat="43.030555" lon="-1.25369833">
        <ele>962.0</ele>
        <time>2019-08-01T08:33:27.959Z</time>
      </trkpt>
      <trkpt lat="43.03055667" lon="-1.25371667">
        <ele>961.0</ele>
        <time>2019-08-01T08:33:28.966Z</time>
      </trkpt>
      <trkpt lat="43.03056" lon="-1.25373333">
        <ele>961.0</ele>
        <time>2019-08-01T08:33:29.970Z</time>
      </trkpt>
      <trkpt lat="43.03056667" lon="-1.25374833">
        <ele>961.0</ele>
        <time>2019-08-01T08:33:30.976Z</time>
      </trkpt>
      <trkpt lat="43.03057167" lon="-1.25376667">
        <ele>960.0</ele>
        <time>2019-08-01T08:33:31.983Z</time>
      </trkpt>
      <trkpt lat="43.03057333" lon="-1.25378667">
        <ele>960.0</ele>
        <time>2019-08-01T08:33:32.989Z</time>
      </trkpt>
      <trkpt lat="43.03057667" lon="-1.253805">
        <ele>959.0</ele>
        <time>2019-08-01T08:33:33.996Z</time>
      </trkpt>
      <trkpt lat="43.03058167" lon="-1.253825">
        <ele>958.0</ele>
        <time>2019-08-01T08:33:34.999Z</time>
      </trkpt>
      <trkpt lat="43.03058333" lon="-1.253845">
        <ele>957.0</ele>
        <time>2019-08-01T08:33:36.006Z</time>
      </trkpt>
      <trkpt lat="43.03058" lon="-1.25386333">
        <ele>956.0</ele>
        <time>2019-08-01T08:33:37.011Z</time>
      </trkpt>
      <trkpt lat="43.03057667" lon="-1.25388667">
        <ele>954.0</ele>
        <time>2019-08-01T08:33:38.017Z</time>
      </trkpt>
      <trkpt lat="43.03057167" lon="-1.25390833">
        <ele>953.0</ele>
        <time>2019-08-01T08:33:39.024Z</time>
      </trkpt>
      <trkpt lat="43.03057333" lon="-1.25393">
        <ele>952.0</ele>
        <time>2019-08-01T08:33:40.028Z</time>
      </trkpt>
      <trkpt lat="43.03057667" lon="-1.25395167">
        <ele>952.0</ele>
        <time>2019-08-01T08:33:41.035Z</time>
      </trkpt>
      <trkpt lat="43.03058167" lon="-1.25397167">
        <ele>952.0</ele>
        <time>2019-08-01T08:33:42.041Z</time>
      </trkpt>
      <trkpt lat="43.03059167" lon="-1.25399167">
        <ele>953.0</ele>
        <time>2019-08-01T08:33:42.920Z</time>
      </trkpt>
      <trkpt lat="43.03059833" lon="-1.25401">
        <ele>953.0</ele>
        <time>2019-08-01T08:33:43.926Z</time>
      </trkpt>
      <trkpt lat="43.03060167" lon="-1.25402167">
        <ele>953.0</ele>
        <time>2019-08-01T08:33:44.930Z</time>
      </trkpt>
      <trkpt lat="43.03060833" lon="-1.25403333">
        <ele>953.0</ele>
        <time>2019-08-01T08:33:45.935Z</time>
      </trkpt>
      <trkpt lat="43.03061167" lon="-1.25405167">
        <ele>953.0</ele>
        <time>2019-08-01T08:33:46.939Z</time>
      </trkpt>
      <trkpt lat="43.03061167" lon="-1.25407">
        <ele>952.0</ele>
        <time>2019-08-01T08:33:47.945Z</time>
      </trkpt>
      <trkpt lat="43.03061667" lon="-1.25408833">
        <ele>952.0</ele>
        <time>2019-08-01T08:33:48.949Z</time>
      </trkpt>
      <trkpt lat="43.03062333" lon="-1.25410333">
        <ele>952.0</ele>
        <time>2019-08-01T08:33:49.954Z</time>
      </trkpt>
      <trkpt lat="43.03063167" lon="-1.25412167">
        <ele>952.0</ele>
        <time>2019-08-01T08:33:50.962Z</time>
      </trkpt>
      <trkpt lat="43.03063167" lon="-1.25414">
        <ele>952.0</ele>
        <time>2019-08-01T08:33:51.969Z</time>
      </trkpt>
      <trkpt lat="43.03063167" lon="-1.25415667">
        <ele>953.0</ele>
        <time>2019-08-01T08:33:52.974Z</time>
      </trkpt>
      <trkpt lat="43.03063167" lon="-1.25417">
        <ele>953.0</ele>
        <time>2019-08-01T08:33:53.981Z</time>
      </trkpt>
      <trkpt lat="43.03063333" lon="-1.254185">
        <ele>953.0</ele>
        <time>2019-08-01T08:33:54.989Z</time>
      </trkpt>
      <trkpt lat="43.03063667" lon="-1.2542">
        <ele>952.0</ele>
        <time>2019-08-01T08:33:55.993Z</time>
      </trkpt>
      <trkpt lat="43.03063833" lon="-1.25420833">
        <ele>952.0</ele>
        <time>2019-08-01T08:33:57.000Z</time>
      </trkpt>
      <trkpt lat="43.03064" lon="-1.25422333">
        <ele>952.0</ele>
        <time>2019-08-01T08:33:58.005Z</time>
      </trkpt>
      <trkpt lat="43.03063833" lon="-1.25423333">
        <ele>952.0</ele>
        <time>2019-08-01T08:33:59.010Z</time>
      </trkpt>
      <trkpt lat="43.03064" lon="-1.25424167">
        <ele>953.0</ele>
        <time>2019-08-01T08:34:00.015Z</time>
      </trkpt>
      <trkpt lat="43.03064167" lon="-1.25424833">
        <ele>953.0</ele>
        <time>2019-08-01T08:34:01.022Z</time>
      </trkpt>
      <trkpt lat="43.030645" lon="-1.25425167">
        <ele>953.0</ele>
        <time>2019-08-01T08:34:02.029Z</time>
      </trkpt>
      <trkpt lat="43.03064333" lon="-1.25426">
        <ele>953.0</ele>
        <time>2019-08-01T08:34:03.037Z</time>
      </trkpt>
      <trkpt lat="43.030635" lon="-1.25426333">
        <ele>953.0</ele>
        <time>2019-08-01T08:34:04.042Z</time>
      </trkpt>
      <trkpt lat="43.030625" lon="-1.254265">
        <ele>952.0</ele>
        <time>2019-08-01T08:34:04.923Z</time>
      </trkpt>
      <trkpt lat="43.030615" lon="-1.25426167">
        <ele>952.0</ele>
        <time>2019-08-01T08:34:05.926Z</time>
      </trkpt>
      <trkpt lat="43.03060833" lon="-1.25426333">
        <ele>951.0</ele>
        <time>2019-08-01T08:34:06.931Z</time>
      </trkpt>
      <trkpt lat="43.03060333" lon="-1.254265">
        <ele>951.0</ele>
        <time>2019-08-01T08:34:07.937Z</time>
      </trkpt>
      <trkpt lat="43.030605" lon="-1.254275">
        <ele>951.0</ele>
        <time>2019-08-01T08:34:08.943Z</time>
      </trkpt>
      <trkpt lat="43.03061" lon="-1.25428167">
        <ele>950.0</ele>
        <time>2019-08-01T08:34:09.948Z</time>
      </trkpt>
      <trkpt lat="43.03061" lon="-1.254285">
        <ele>951.0</ele>
        <time>2019-08-01T08:34:10.952Z</time>
      </trkpt>
      <trkpt lat="43.03060833" lon="-1.25428667">
        <ele>951.0</ele>
        <time>2019-08-01T08:34:11.956Z</time>
      </trkpt>
      <trkpt lat="43.03060833" lon="-1.25428">
        <ele>951.0</ele>
        <time>2019-08-01T08:34:12.961Z</time>
      </trkpt>
      <trkpt lat="43.03061" lon="-1.25427667">
        <ele>951.0</ele>
        <time>2019-08-01T08:34:13.966Z</time>
      </trkpt>
      <trkpt lat="43.030615" lon="-1.25427667">
        <ele>951.0</ele>
        <time>2019-08-01T08:34:14.970Z</time>
      </trkpt>
      <trkpt lat="43.03061667" lon="-1.25427667">
        <ele>952.0</ele>
        <time>2019-08-01T08:34:15.975Z</time>
      </trkpt>
      <trkpt lat="43.03061667" lon="-1.25428">
        <ele>952.0</ele>
        <time>2019-08-01T08:34:16.983Z</time>
      </trkpt>
      <trkpt lat="43.03061667" lon="-1.254275">
        <ele>953.0</ele>
        <time>2019-08-01T08:34:17.989Z</time>
      </trkpt>
      <trkpt lat="43.03062333" lon="-1.254275">
        <ele>953.0</ele>
        <time>2019-08-01T08:34:18.996Z</time>
      </trkpt>
      <trkpt lat="43.03062833" lon="-1.254275">
        <ele>953.0</ele>
        <time>2019-08-01T08:34:20.002Z</time>
      </trkpt>
      <trkpt lat="43.03063167" lon="-1.25427833">
        <ele>954.0</ele>
        <time>2019-08-01T08:34:21.007Z</time>
      </trkpt>
      <trkpt lat="43.030635" lon="-1.25428333">
        <ele>954.0</ele>
        <time>2019-08-01T08:34:22.011Z</time>
      </trkpt>
      <trkpt lat="43.03063333" lon="-1.25428333">
        <ele>954.0</ele>
        <time>2019-08-01T08:34:23.017Z</time>
      </trkpt>
      <trkpt lat="43.03063" lon="-1.25428167">
        <ele>954.0</ele>
        <time>2019-08-01T08:34:24.023Z</time>
      </trkpt>
      <trkpt lat="43.03062833" lon="-1.25428167">
        <ele>954.0</ele>
        <time>2019-08-01T08:34:25.029Z</time>
      </trkpt>
      <trkpt lat="43.03062833" lon="-1.25427667">
        <ele>954.0</ele>
        <time>2019-08-01T08:34:26.037Z</time>
      </trkpt>
      <trkpt lat="43.03063333" lon="-1.25427167">
        <ele>955.0</ele>
        <time>2019-08-01T08:34:26.919Z</time>
      </trkpt>
      <trkpt lat="43.03063667" lon="-1.25426833">
        <ele>956.0</ele>
        <time>2019-08-01T08:34:27.926Z</time>
      </trkpt>
      <trkpt lat="43.03064333" lon="-1.25426833">
        <ele>955.0</ele>
        <time>2019-08-01T08:34:28.931Z</time>
      </trkpt>
      <trkpt lat="43.03064333" lon="-1.25427333">
        <ele>956.0</ele>
        <time>2019-08-01T08:34:29.936Z</time>
      </trkpt>
      <trkpt lat="43.03064333" lon="-1.25427833">
        <ele>956.0</ele>
        <time>2019-08-01T08:34:30.938Z</time>
      </trkpt>
      <trkpt lat="43.03064167" lon="-1.25427667">
        <ele>957.0</ele>
        <time>2019-08-01T08:34:31.945Z</time>
      </trkpt>
      <trkpt lat="43.03064333" lon="-1.25427833">
        <ele>958.0</ele>
        <time>2019-08-01T08:34:32.952Z</time>
      </trkpt>
      <trkpt lat="43.03064667" lon="-1.25427667">
        <ele>959.0</ele>
        <time>2019-08-01T08:34:33.957Z</time>
      </trkpt>
      <trkpt lat="43.03065" lon="-1.25427667">
        <ele>960.0</ele>
        <time>2019-08-01T08:34:34.964Z</time>
      </trkpt>
      <trkpt lat="43.03065333" lon="-1.25428">
        <ele>960.0</ele>
        <time>2019-08-01T08:34:35.969Z</time>
      </trkpt>
      <trkpt lat="43.030655" lon="-1.25428167">
        <ele>961.0</ele>
        <time>2019-08-01T08:34:36.973Z</time>
      </trkpt>
      <trkpt lat="43.03065833" lon="-1.25428667">
        <ele>962.0</ele>
        <time>2019-08-01T08:34:37.980Z</time>
      </trkpt>
      <trkpt lat="43.03065667" lon="-1.25429">
        <ele>963.0</ele>
        <time>2019-08-01T08:34:38.986Z</time>
      </trkpt>
      <trkpt lat="43.03065333" lon="-1.25429">
        <ele>963.0</ele>
        <time>2019-08-01T08:34:39.990Z</time>
      </trkpt>
      <trkpt lat="43.03065167" lon="-1.254295">
        <ele>963.0</ele>
        <time>2019-08-01T08:34:40.996Z</time>
      </trkpt>
      <trkpt lat="43.03064667" lon="-1.25429167">
        <ele>963.0</ele>
        <time>2019-08-01T08:34:42.000Z</time>
      </trkpt>
      <trkpt lat="43.03064333" lon="-1.254285">
        <ele>964.0</ele>
        <time>2019-08-01T08:34:43.008Z</time>
      </trkpt>
      <trkpt lat="43.030645" lon="-1.25428">
        <ele>965.0</ele>
        <time>2019-08-01T08:34:44.012Z</time>
      </trkpt>
      <trkpt lat="43.03065" lon="-1.25427">
        <ele>965.0</ele>
        <time>2019-08-01T08:34:45.018Z</time>
      </trkpt>
      <trkpt lat="43.03065" lon="-1.25426333">
        <ele>966.0</ele>
        <time>2019-08-01T08:34:46.025Z</time>
      </trkpt>
      <trkpt lat="43.03064833" lon="-1.25425833">
        <ele>966.0</ele>
        <time>2019-08-01T08:34:47.032Z</time>
      </trkpt>
      <trkpt lat="43.03064667" lon="-1.25425">
        <ele>966.0</ele>
        <time>2019-08-01T08:34:48.037Z</time>
      </trkpt>
      <trkpt lat="43.03065333" lon="-1.25424333">
        <ele>966.0</ele>
        <time>2019-08-01T08:34:48.918Z</time>
      </trkpt>
      <trkpt lat="43.030655" lon="-1.254235">
        <ele>966.0</ele>
        <time>2019-08-01T08:34:49.923Z</time>
      </trkpt>
      <trkpt lat="43.03064833" lon="-1.25422667">
        <ele>966.0</ele>
        <time>2019-08-01T08:34:50.928Z</time>
      </trkpt>
      <trkpt lat="43.030645" lon="-1.25422833">
        <ele>966.0</ele>
        <time>2019-08-01T08:34:51.934Z</time>
      </trkpt>
      <trkpt lat="43.03064167" lon="-1.25422667">
        <ele>965.0</ele>
        <time>2019-08-01T08:34:52.939Z</time>
      </trkpt>
      <trkpt lat="43.03063667" lon="-1.25421833">
        <ele>965.0</ele>
        <time>2019-08-01T08:34:53.945Z</time>
      </trkpt>
      <trkpt lat="43.03062833" lon="-1.25421">
        <ele>965.0</ele>
        <time>2019-08-01T08:34:54.952Z</time>
      </trkpt>
      <trkpt lat="43.03062" lon="-1.25420167">
        <ele>965.0</ele>
        <time>2019-08-01T08:34:55.960Z</time>
      </trkpt>
      <trkpt lat="43.03061" lon="-1.254195">
        <ele>965.0</ele>
        <time>2019-08-01T08:34:56.966Z</time>
      </trkpt>
      <trkpt lat="43.03059833" lon="-1.25419">
        <ele>964.0</ele>
        <time>2019-08-01T08:34:57.972Z</time>
      </trkpt>
      <trkpt lat="43.0306" lon="-1.25419667">
        <ele>963.0</ele>
        <time>2019-08-01T08:34:58.977Z</time>
      </trkpt>
      <trkpt lat="43.030605" lon="-1.254205">
        <ele>963.0</ele>
        <time>2019-08-01T08:34:59.980Z</time>
      </trkpt>
      <trkpt lat="43.03060833" lon="-1.25421167">
        <ele>962.0</ele>
        <time>2019-08-01T08:35:00.989Z</time>
      </trkpt>
      <trkpt lat="43.03061" lon="-1.25421833">
        <ele>962.0</ele>
        <time>2019-08-01T08:35:01.994Z</time>
      </trkpt>
      <trkpt lat="43.03061" lon="-1.25422167">
        <ele>961.0</ele>
        <time>2019-08-01T08:35:03.001Z</time>
      </trkpt>
      <trkpt lat="43.03060833" lon="-1.25422167">
        <ele>962.0</ele>
        <time>2019-08-01T08:35:04.009Z</time>
      </trkpt>
      <trkpt lat="43.03061167" lon="-1.254215">
        <ele>962.0</ele>
        <time>2019-08-01T08:35:05.015Z</time>
      </trkpt>
      <trkpt lat="43.03061667" lon="-1.25421">
        <ele>962.0</ele>
        <time>2019-08-01T08:35:06.021Z</time>
      </trkpt>
      <trkpt lat="43.03062" lon="-1.25419833">
        <ele>963.0</ele>
        <time>2019-08-01T08:35:07.026Z</time>
      </trkpt>
      <trkpt lat="43.03062667" lon="-1.25418833">
        <ele>963.0</ele>
        <time>2019-08-01T08:35:08.031Z</time>
      </trkpt>
      <trkpt lat="43.03062667" lon="-1.25418333">
        <ele>963.0</ele>
        <time>2019-08-01T08:35:09.036Z</time>
      </trkpt>
      <trkpt lat="43.03062667" lon="-1.25418333">
        <ele>963.0</ele>
        <time>2019-08-01T08:35:10.040Z</time>
      </trkpt>
      <trkpt lat="43.030635" lon="-1.25418333">
        <ele>963.0</ele>
        <time>2019-08-01T08:35:10.921Z</time>
      </trkpt>
      <trkpt lat="43.03064333" lon="-1.25418833">
        <ele>963.0</ele>
        <time>2019-08-01T08:35:11.928Z</time>
      </trkpt>
      <trkpt lat="43.03065167" lon="-1.25418833">
        <ele>963.0</ele>
        <time>2019-08-01T08:35:12.933Z</time>
      </trkpt>
      <trkpt lat="43.03065833" lon="-1.254185">
        <ele>963.0</ele>
        <time>2019-08-01T08:35:13.938Z</time>
      </trkpt>
      <trkpt lat="43.03067" lon="-1.25418667">
        <ele>963.0</ele>
        <time>2019-08-01T08:35:14.945Z</time>
      </trkpt>
      <trkpt lat="43.03068" lon="-1.254185">
        <ele>962.0</ele>
        <time>2019-08-01T08:35:15.953Z</time>
      </trkpt>
      <trkpt lat="43.03069333" lon="-1.25418333">
        <ele>962.0</ele>
        <time>2019-08-01T08:35:16.959Z</time>
      </trkpt>
      <trkpt lat="43.03070167" lon="-1.25418333">
        <ele>962.0</ele>
        <time>2019-08-01T08:35:17.964Z</time>
      </trkpt>
      <trkpt lat="43.030705" lon="-1.25417833">
        <ele>962.0</ele>
        <time>2019-08-01T08:35:18.969Z</time>
      </trkpt>
      <trkpt lat="43.03070333" lon="-1.254175">
        <ele>961.0</ele>
        <time>2019-08-01T08:35:19.975Z</time>
      </trkpt>
      <trkpt lat="43.0307" lon="-1.25418167">
        <ele>961.0</ele>
        <time>2019-08-01T08:35:20.979Z</time>
      </trkpt>
      <trkpt lat="43.030705" lon="-1.254185">
        <ele>962.0</ele>
        <time>2019-08-01T08:35:21.987Z</time>
      </trkpt>
      <trkpt lat="43.03070167" lon="-1.25418333">
        <ele>963.0</ele>
        <time>2019-08-01T08:35:22.993Z</time>
      </trkpt>
      <trkpt lat="43.0307" lon="-1.25418">
        <ele>963.0</ele>
        <time>2019-08-01T08:35:24.000Z</time>
      </trkpt>
      <trkpt lat="43.0307" lon="-1.25418">
        <ele>964.0</ele>
        <time>2019-08-01T08:35:25.007Z</time>
      </trkpt>
      <trkpt lat="43.03069667" lon="-1.25417667">
        <ele>964.0</ele>
        <time>2019-08-01T08:35:26.012Z</time>
      </trkpt>
      <trkpt lat="43.030695" lon="-1.25417167">
        <ele>964.0</ele>
        <time>2019-08-01T08:35:27.019Z</time>
      </trkpt>
      <trkpt lat="43.03069167" lon="-1.254165">
        <ele>965.0</ele>
        <time>2019-08-01T08:35:28.026Z</time>
      </trkpt>
      <trkpt lat="43.03069167" lon="-1.25415833">
        <ele>965.0</ele>
        <time>2019-08-01T08:35:29.031Z</time>
      </trkpt>
      <trkpt lat="43.03069167" lon="-1.25415333">
        <ele>964.0</ele>
        <time>2019-08-01T08:35:30.037Z</time>
      </trkpt>
      <trkpt lat="43.03069167" lon="-1.25414833">
        <ele>964.0</ele>
        <time>2019-08-01T08:35:30.918Z</time>
      </trkpt>
      <trkpt lat="43.03069167" lon="-1.25414333">
        <ele>964.0</ele>
        <time>2019-08-01T08:35:31.923Z</time>
      </trkpt>
      <trkpt lat="43.03069333" lon="-1.25413833">
        <ele>964.0</ele>
        <time>2019-08-01T08:35:32.928Z</time>
      </trkpt>
      <trkpt lat="43.030695" lon="-1.25413833">
        <ele>964.0</ele>
        <time>2019-08-01T08:35:33.934Z</time>
      </trkpt>
      <trkpt lat="43.030695" lon="-1.25413667">
        <ele>964.0</ele>
        <time>2019-08-01T08:35:34.939Z</time>
      </trkpt>
      <trkpt lat="43.03069167" lon="-1.25413">
        <ele>964.0</ele>
        <time>2019-08-01T08:35:35.947Z</time>
      </trkpt>
      <trkpt lat="43.03069167" lon="-1.25412333">
        <ele>964.0</ele>
        <time>2019-08-01T08:35:36.955Z</time>
      </trkpt>
      <trkpt lat="43.03069667" lon="-1.25412833">
        <ele>964.0</ele>
        <time>2019-08-01T08:35:37.962Z</time>
      </trkpt>
      <trkpt lat="43.03070167" lon="-1.25413">
        <ele>965.0</ele>
        <time>2019-08-01T08:35:38.969Z</time>
      </trkpt>
      <trkpt lat="43.0307" lon="-1.25412667">
        <ele>965.0</ele>
        <time>2019-08-01T08:35:39.975Z</time>
      </trkpt>
      <trkpt lat="43.03069833" lon="-1.25412333">
        <ele>965.0</ele>
        <time>2019-08-01T08:35:40.981Z</time>
      </trkpt>
      <trkpt lat="43.03069833" lon="-1.25412">
        <ele>965.0</ele>
        <time>2019-08-01T08:35:41.985Z</time>
      </trkpt>
      <trkpt lat="43.03069833" lon="-1.254125">
        <ele>966.0</ele>
        <time>2019-08-01T08:35:42.990Z</time>
      </trkpt>
      <trkpt lat="43.030695" lon="-1.25413167">
        <ele>966.0</ele>
        <time>2019-08-01T08:35:43.997Z</time>
      </trkpt>
      <trkpt lat="43.03069167" lon="-1.25413167">
        <ele>967.0</ele>
        <time>2019-08-01T08:35:45.006Z</time>
      </trkpt>
      <trkpt lat="43.03069167" lon="-1.25413333">
        <ele>968.0</ele>
        <time>2019-08-01T08:35:46.011Z</time>
      </trkpt>
      <trkpt lat="43.030685" lon="-1.25412667">
        <ele>969.0</ele>
        <time>2019-08-01T08:35:47.020Z</time>
      </trkpt>
      <trkpt lat="43.03068167" lon="-1.25411667">
        <ele>970.0</ele>
        <time>2019-08-01T08:35:48.023Z</time>
      </trkpt>
      <trkpt lat="43.03068" lon="-1.25410167">
        <ele>971.0</ele>
        <time>2019-08-01T08:35:49.029Z</time>
      </trkpt>
      <trkpt lat="43.03067833" lon="-1.25409333">
        <ele>971.0</ele>
        <time>2019-08-01T08:35:50.036Z</time>
      </trkpt>
      <trkpt lat="43.03068167" lon="-1.25408833">
        <ele>972.0</ele>
        <time>2019-08-01T08:35:51.042Z</time>
      </trkpt>
      <trkpt lat="43.03068333" lon="-1.25408833">
        <ele>973.0</ele>
        <time>2019-08-01T08:35:51.924Z</time>
      </trkpt>
      <trkpt lat="43.030685" lon="-1.254085">
        <ele>974.0</ele>
        <time>2019-08-01T08:35:52.931Z</time>
      </trkpt>
      <trkpt lat="43.03068333" lon="-1.25408">
        <ele>974.0</ele>
        <time>2019-08-01T08:35:53.935Z</time>
      </trkpt>
      <trkpt lat="43.030685" lon="-1.25408667">
        <ele>974.0</ele>
        <time>2019-08-01T08:35:54.941Z</time>
      </trkpt>
      <trkpt lat="43.03068167" lon="-1.25409">
        <ele>975.0</ele>
        <time>2019-08-01T08:35:55.946Z</time>
      </trkpt>
      <trkpt lat="43.03067333" lon="-1.25408833">
        <ele>975.0</ele>
        <time>2019-08-01T08:35:56.951Z</time>
      </trkpt>
      <trkpt lat="43.03066667" lon="-1.25409">
        <ele>975.0</ele>
        <time>2019-08-01T08:35:57.956Z</time>
      </trkpt>
      <trkpt lat="43.03066" lon="-1.25408333">
        <ele>974.0</ele>
        <time>2019-08-01T08:35:58.963Z</time>
      </trkpt>
      <trkpt lat="43.03065333" lon="-1.25408667">
        <ele>974.0</ele>
        <time>2019-08-01T08:35:59.969Z</time>
      </trkpt>
      <trkpt lat="43.03064167" lon="-1.254085">
        <ele>974.0</ele>
        <time>2019-08-01T08:36:00.975Z</time>
      </trkpt>
      <trkpt lat="43.03063333" lon="-1.25409167">
        <ele>973.0</ele>
        <time>2019-08-01T08:36:01.981Z</time>
      </trkpt>
      <trkpt lat="43.030625" lon="-1.25410167">
        <ele>973.0</ele>
        <time>2019-08-01T08:36:02.987Z</time>
      </trkpt>
      <trkpt lat="43.03062" lon="-1.25411167">
        <ele>972.0</ele>
        <time>2019-08-01T08:36:03.992Z</time>
      </trkpt>
      <trkpt lat="43.03061667" lon="-1.25411833">
        <ele>972.0</ele>
        <time>2019-08-01T08:36:04.998Z</time>
      </trkpt>
      <trkpt lat="43.03061167" lon="-1.25412">
        <ele>971.0</ele>
        <time>2019-08-01T08:36:06.001Z</time>
      </trkpt>
      <trkpt lat="43.03060667" lon="-1.25412167">
        <ele>970.0</ele>
        <time>2019-08-01T08:36:07.006Z</time>
      </trkpt>
      <trkpt lat="43.03060167" lon="-1.25412667">
        <ele>970.0</ele>
        <time>2019-08-01T08:36:08.012Z</time>
      </trkpt>
      <trkpt lat="43.03060167" lon="-1.25413333">
        <ele>969.0</ele>
        <time>2019-08-01T08:36:09.019Z</time>
      </trkpt>
      <trkpt lat="43.030595" lon="-1.254135">
        <ele>969.0</ele>
        <time>2019-08-01T08:36:10.026Z</time>
      </trkpt>
      <trkpt lat="43.03058667" lon="-1.254135">
        <ele>968.0</ele>
        <time>2019-08-01T08:36:11.031Z</time>
      </trkpt>
      <trkpt lat="43.030585" lon="-1.25414667">
        <ele>967.0</ele>
        <time>2019-08-01T08:36:12.037Z</time>
      </trkpt>
      <trkpt lat="43.03058167" lon="-1.25415667">
        <ele>965.0</ele>
        <time>2019-08-01T08:36:13.041Z</time>
      </trkpt>
      <trkpt lat="43.03058167" lon="-1.25416">
        <ele>963.0</ele>
        <time>2019-08-01T08:36:13.922Z</time>
      </trkpt>
      <trkpt lat="43.03058667" lon="-1.25415833">
        <ele>962.0</ele>
        <time>2019-08-01T08:36:14.927Z</time>
      </trkpt>
      <trkpt lat="43.03059667" lon="-1.254155">
        <ele>961.0</ele>
        <time>2019-08-01T08:36:15.933Z</time>
      </trkpt>
      <trkpt lat="43.03060833" lon="-1.25415">
        <ele>960.0</ele>
        <time>2019-08-01T08:36:16.940Z</time>
      </trkpt>
      <trkpt lat="43.03061333" lon="-1.25414833">
        <ele>960.0</ele>
        <time>2019-08-01T08:36:17.946Z</time>
      </trkpt>
      <trkpt lat="43.03062" lon="-1.25415">
        <ele>959.0</ele>
        <time>2019-08-01T08:36:18.951Z</time>
      </trkpt>
      <trkpt lat="43.03063333" lon="-1.25415333">
        <ele>958.0</ele>
        <time>2019-08-01T08:36:19.957Z</time>
      </trkpt>
      <trkpt lat="43.03064667" lon="-1.25415667">
        <ele>958.0</ele>
        <time>2019-08-01T08:36:20.963Z</time>
      </trkpt>
      <trkpt lat="43.03066333" lon="-1.25416">
        <ele>958.0</ele>
        <time>2019-08-01T08:36:21.969Z</time>
      </trkpt>
      <trkpt lat="43.030675" lon="-1.25416167">
        <ele>957.0</ele>
        <time>2019-08-01T08:36:22.975Z</time>
      </trkpt>
      <trkpt lat="43.030685" lon="-1.25417">
        <ele>957.0</ele>
        <time>2019-08-01T08:36:23.982Z</time>
      </trkpt>
      <trkpt lat="43.03069167" lon="-1.25416833">
        <ele>958.0</ele>
        <time>2019-08-01T08:36:24.988Z</time>
      </trkpt>
      <trkpt lat="43.03069833" lon="-1.25416333">
        <ele>958.0</ele>
        <time>2019-08-01T08:36:25.995Z</time>
      </trkpt>
      <trkpt lat="43.030705" lon="-1.25415667">
        <ele>957.0</ele>
        <time>2019-08-01T08:36:27.000Z</time>
      </trkpt>
      <trkpt lat="43.03070833" lon="-1.25414833">
        <ele>957.0</ele>
        <time>2019-08-01T08:36:28.007Z</time>
      </trkpt>
      <trkpt lat="43.03071167" lon="-1.25414">
        <ele>956.0</ele>
        <time>2019-08-01T08:36:29.013Z</time>
      </trkpt>
      <trkpt lat="43.03072167" lon="-1.254135">
        <ele>956.0</ele>
        <time>2019-08-01T08:36:30.020Z</time>
      </trkpt>
      <trkpt lat="43.03073167" lon="-1.25413">
        <ele>956.0</ele>
        <time>2019-08-01T08:36:31.025Z</time>
      </trkpt>
      <trkpt lat="43.03074333" lon="-1.25412833">
        <ele>955.0</ele>
        <time>2019-08-01T08:36:32.031Z</time>
      </trkpt>
      <trkpt lat="43.030755" lon="-1.25413">
        <ele>955.0</ele>
        <time>2019-08-01T08:36:33.038Z</time>
      </trkpt>
      <trkpt lat="43.03076833" lon="-1.254135">
        <ele>956.0</ele>
        <time>2019-08-01T08:36:34.041Z</time>
      </trkpt>
      <trkpt lat="43.03078" lon="-1.25413667">
        <ele>956.0</ele>
        <time>2019-08-01T08:36:34.921Z</time>
      </trkpt>
      <trkpt lat="43.03079167" lon="-1.25413667">
        <ele>956.0</ele>
        <time>2019-08-01T08:36:35.926Z</time>
      </trkpt>
      <trkpt lat="43.03080333" lon="-1.25413333">
        <ele>956.0</ele>
        <time>2019-08-01T08:36:36.931Z</time>
      </trkpt>
      <trkpt lat="43.03081333" lon="-1.25413167">
        <ele>956.0</ele>
        <time>2019-08-01T08:36:37.933Z</time>
      </trkpt>
      <trkpt lat="43.030825" lon="-1.25412833">
        <ele>956.0</ele>
        <time>2019-08-01T08:36:38.937Z</time>
      </trkpt>
      <trkpt lat="43.03083667" lon="-1.25412833">
        <ele>956.0</ele>
        <time>2019-08-01T08:36:39.946Z</time>
      </trkpt>
      <trkpt lat="43.03084333" lon="-1.25413">
        <ele>956.0</ele>
        <time>2019-08-01T08:36:40.952Z</time>
      </trkpt>
      <trkpt lat="43.03085167" lon="-1.25413667">
        <ele>956.0</ele>
        <time>2019-08-01T08:36:41.957Z</time>
      </trkpt>
      <trkpt lat="43.03086" lon="-1.25413667">
        <ele>956.0</ele>
        <time>2019-08-01T08:36:42.961Z</time>
      </trkpt>
      <trkpt lat="43.03086833" lon="-1.254135">
        <ele>956.0</ele>
        <time>2019-08-01T08:36:43.967Z</time>
      </trkpt>
      <trkpt lat="43.03087833" lon="-1.25413333">
        <ele>956.0</ele>
        <time>2019-08-01T08:36:44.971Z</time>
      </trkpt>
      <trkpt lat="43.03088833" lon="-1.25413">
        <ele>957.0</ele>
        <time>2019-08-01T08:36:45.977Z</time>
      </trkpt>
      <trkpt lat="43.030895" lon="-1.254125">
        <ele>958.0</ele>
        <time>2019-08-01T08:36:46.984Z</time>
      </trkpt>
      <trkpt lat="43.03090333" lon="-1.25412833">
        <ele>959.0</ele>
        <time>2019-08-01T08:36:47.989Z</time>
      </trkpt>
      <trkpt lat="43.03091333" lon="-1.25413833">
        <ele>960.0</ele>
        <time>2019-08-01T08:36:48.995Z</time>
      </trkpt>
      <trkpt lat="43.030925" lon="-1.25414667">
        <ele>961.0</ele>
        <time>2019-08-01T08:36:50.002Z</time>
      </trkpt>
      <trkpt lat="43.03094" lon="-1.25416">
        <ele>962.0</ele>
        <time>2019-08-01T08:36:51.007Z</time>
      </trkpt>
      <trkpt lat="43.030955" lon="-1.25417333">
        <ele>963.0</ele>
        <time>2019-08-01T08:36:52.014Z</time>
      </trkpt>
      <trkpt lat="43.03097" lon="-1.25418333">
        <ele>964.0</ele>
        <time>2019-08-01T08:36:53.019Z</time>
      </trkpt>
      <trkpt lat="43.03097833" lon="-1.254185">
        <ele>965.0</ele>
        <time>2019-08-01T08:36:54.024Z</time>
      </trkpt>
      <trkpt lat="43.03098833" lon="-1.25419333">
        <ele>966.0</ele>
        <time>2019-08-01T08:36:55.030Z</time>
      </trkpt>
      <trkpt lat="43.03099833" lon="-1.25419833">
        <ele>967.0</ele>
        <time>2019-08-01T08:36:56.033Z</time>
      </trkpt>
      <trkpt lat="43.03100833" lon="-1.25420167">
        <ele>968.0</ele>
        <time>2019-08-01T08:36:57.037Z</time>
      </trkpt>
      <trkpt lat="43.03101333" lon="-1.25420167">
        <ele>969.0</ele>
        <time>2019-08-01T08:36:58.042Z</time>
      </trkpt>
      <trkpt lat="43.03101667" lon="-1.25419833">
        <ele>970.0</ele>
        <time>2019-08-01T08:36:58.923Z</time>
      </trkpt>
      <trkpt lat="43.03102667" lon="-1.25420167">
        <ele>970.0</ele>
        <time>2019-08-01T08:36:59.929Z</time>
      </trkpt>
      <trkpt lat="43.03103333" lon="-1.254205">
        <ele>971.0</ele>
        <time>2019-08-01T08:37:00.935Z</time>
      </trkpt>
      <trkpt lat="43.03104667" lon="-1.25420667">
        <ele>971.0</ele>
        <time>2019-08-01T08:37:01.940Z</time>
      </trkpt>
      <trkpt lat="43.03106333" lon="-1.25420833">
        <ele>972.0</ele>
        <time>2019-08-01T08:37:02.945Z</time>
      </trkpt>
      <trkpt lat="43.03108167" lon="-1.25421333">
        <ele>972.0</ele>
        <time>2019-08-01T08:37:03.951Z</time>
      </trkpt>
      <trkpt lat="43.03109833" lon="-1.25422167">
        <ele>972.0</ele>
        <time>2019-08-01T08:37:04.956Z</time>
      </trkpt>
      <trkpt lat="43.03110833" lon="-1.254235">
        <ele>972.0</ele>
        <time>2019-08-01T08:37:05.961Z</time>
      </trkpt>
      <trkpt lat="43.03112" lon="-1.25425667">
        <ele>972.0</ele>
        <time>2019-08-01T08:37:06.964Z</time>
      </trkpt>
      <trkpt lat="43.03112667" lon="-1.25426167">
        <ele>973.0</ele>
        <time>2019-08-01T08:37:07.970Z</time>
      </trkpt>
      <trkpt lat="43.03112333" lon="-1.25426333">
        <ele>974.0</ele>
        <time>2019-08-01T08:37:08.977Z</time>
      </trkpt>
      <trkpt lat="43.031115" lon="-1.254265">
        <ele>974.0</ele>
        <time>2019-08-01T08:37:09.984Z</time>
      </trkpt>
      <trkpt lat="43.03111667" lon="-1.25427">
        <ele>975.0</ele>
        <time>2019-08-01T08:37:10.991Z</time>
      </trkpt>
      <trkpt lat="43.03111667" lon="-1.25427167">
        <ele>977.0</ele>
        <time>2019-08-01T08:37:11.997Z</time>
      </trkpt>
      <trkpt lat="43.03112" lon="-1.25428">
        <ele>977.0</ele>
        <time>2019-08-01T08:37:13.004Z</time>
      </trkpt>
      <trkpt lat="43.03112167" lon="-1.25428167">
        <ele>978.0</ele>
        <time>2019-08-01T08:37:14.009Z</time>
      </trkpt>
      <trkpt lat="43.03112" lon="-1.25428">
        <ele>980.0</ele>
        <time>2019-08-01T08:37:15.013Z</time>
      </trkpt>
      <trkpt lat="43.03112" lon="-1.25427833">
        <ele>981.0</ele>
        <time>2019-08-01T08:37:16.021Z</time>
      </trkpt>
      <trkpt lat="43.03111833" lon="-1.254275">
        <ele>981.0</ele>
        <time>2019-08-01T08:37:17.027Z</time>
      </trkpt>
      <trkpt lat="43.03111833" lon="-1.25428">
        <ele>982.0</ele>
        <time>2019-08-01T08:37:18.033Z</time>
      </trkpt>
      <trkpt lat="43.03111333" lon="-1.25428167">
        <ele>982.0</ele>
        <time>2019-08-01T08:37:19.039Z</time>
      </trkpt>
      <trkpt lat="43.03111" lon="-1.25428167">
        <ele>982.0</ele>
        <time>2019-08-01T08:37:19.920Z</time>
      </trkpt>
      <trkpt lat="43.03110333" lon="-1.25428167">
        <ele>982.0</ele>
        <time>2019-08-01T08:37:20.926Z</time>
      </trkpt>
      <trkpt lat="43.03110333" lon="-1.25428167">
        <ele>983.0</ele>
        <time>2019-08-01T08:37:21.929Z</time>
      </trkpt>
      <trkpt lat="43.0311" lon="-1.25428">
        <ele>983.0</ele>
        <time>2019-08-01T08:37:22.935Z</time>
      </trkpt>
      <trkpt lat="43.03110333" lon="-1.25428167">
        <ele>984.0</ele>
        <time>2019-08-01T08:37:23.942Z</time>
      </trkpt>
      <trkpt lat="43.03110333" lon="-1.25427833">
        <ele>984.0</ele>
        <time>2019-08-01T08:37:24.948Z</time>
      </trkpt>
      <trkpt lat="43.03110167" lon="-1.25427333">
        <ele>984.0</ele>
        <time>2019-08-01T08:37:25.954Z</time>
      </trkpt>
      <trkpt lat="43.03110167" lon="-1.25426833">
        <ele>984.0</ele>
        <time>2019-08-01T08:37:26.961Z</time>
      </trkpt>
      <trkpt lat="43.031105" lon="-1.25426167">
        <ele>985.0</ele>
        <time>2019-08-01T08:37:27.966Z</time>
      </trkpt>
      <trkpt lat="43.03110833" lon="-1.25425833">
        <ele>985.0</ele>
        <time>2019-08-01T08:37:28.969Z</time>
      </trkpt>
      <trkpt lat="43.03111" lon="-1.25426333">
        <ele>986.0</ele>
        <time>2019-08-01T08:37:29.975Z</time>
      </trkpt>
      <trkpt lat="43.03110833" lon="-1.25427">
        <ele>986.0</ele>
        <time>2019-08-01T08:37:30.981Z</time>
      </trkpt>
      <trkpt lat="43.03111" lon="-1.25427333">
        <ele>987.0</ele>
        <time>2019-08-01T08:37:31.988Z</time>
      </trkpt>
      <trkpt lat="43.03111333" lon="-1.25428">
        <ele>987.0</ele>
        <time>2019-08-01T08:37:32.993Z</time>
      </trkpt>
      <trkpt lat="43.03111667" lon="-1.254285">
        <ele>987.0</ele>
        <time>2019-08-01T08:37:33.999Z</time>
      </trkpt>
      <trkpt lat="43.03112" lon="-1.25428167">
        <ele>988.0</ele>
        <time>2019-08-01T08:37:35.005Z</time>
      </trkpt>
      <trkpt lat="43.03111833" lon="-1.25428">
        <ele>987.0</ele>
        <time>2019-08-01T08:37:36.011Z</time>
      </trkpt>
      <trkpt lat="43.03111333" lon="-1.25428">
        <ele>986.0</ele>
        <time>2019-08-01T08:37:37.018Z</time>
      </trkpt>
      <trkpt lat="43.0311" lon="-1.25428">
        <ele>986.0</ele>
        <time>2019-08-01T08:37:38.022Z</time>
      </trkpt>
      <trkpt lat="43.03108833" lon="-1.25428667">
        <ele>986.0</ele>
        <time>2019-08-01T08:37:39.028Z</time>
      </trkpt>
      <trkpt lat="43.03108" lon="-1.25429">
        <ele>985.0</ele>
        <time>2019-08-01T08:37:40.033Z</time>
      </trkpt>
      <trkpt lat="43.03107167" lon="-1.254295">
        <ele>984.0</ele>
        <time>2019-08-01T08:37:41.038Z</time>
      </trkpt>
      <trkpt lat="43.03106833" lon="-1.25429167">
        <ele>983.0</ele>
        <time>2019-08-01T08:37:41.919Z</time>
      </trkpt>
      <trkpt lat="43.03106833" lon="-1.254295">
        <ele>983.0</ele>
        <time>2019-08-01T08:37:42.926Z</time>
      </trkpt>
      <trkpt lat="43.03107667" lon="-1.25428333">
        <ele>981.0</ele>
        <time>2019-08-01T08:37:43.930Z</time>
      </trkpt>
      <trkpt lat="43.03108167" lon="-1.25427667">
        <ele>984.0</ele>
        <time>2019-08-01T08:37:44.935Z</time>
      </trkpt>
      <trkpt lat="43.03108833" lon="-1.25427333">
        <ele>985.0</ele>
        <time>2019-08-01T08:37:45.942Z</time>
      </trkpt>
      <trkpt lat="43.031095" lon="-1.25427167">
        <ele>986.0</ele>
        <time>2019-08-01T08:37:46.947Z</time>
      </trkpt>
      <trkpt lat="43.03108833" lon="-1.25426833">
        <ele>987.0</ele>
        <time>2019-08-01T08:37:47.954Z</time>
      </trkpt>
      <trkpt lat="43.03108667" lon="-1.25426833">
        <ele>986.0</ele>
        <time>2019-08-01T08:37:48.959Z</time>
      </trkpt>
      <trkpt lat="43.03107833" lon="-1.25425">
        <ele>986.0</ele>
        <time>2019-08-01T08:37:49.965Z</time>
      </trkpt>
      <trkpt lat="43.03108167" lon="-1.254245">
        <ele>984.0</ele>
        <time>2019-08-01T08:37:50.970Z</time>
      </trkpt>
      <trkpt lat="43.031085" lon="-1.25423833">
        <ele>984.0</ele>
        <time>2019-08-01T08:37:51.975Z</time>
      </trkpt>
      <trkpt lat="43.03108833" lon="-1.25423833">
        <ele>985.0</ele>
        <time>2019-08-01T08:37:52.980Z</time>
      </trkpt>
      <trkpt lat="43.031095" lon="-1.25424667">
        <ele>984.0</ele>
        <time>2019-08-01T08:37:53.986Z</time>
      </trkpt>
      <trkpt lat="43.03109667" lon="-1.25424833">
        <ele>985.0</ele>
        <time>2019-08-01T08:37:54.994Z</time>
      </trkpt>
      <trkpt lat="43.031095" lon="-1.254245">
        <ele>985.0</ele>
        <time>2019-08-01T08:37:56.001Z</time>
      </trkpt>
      <trkpt lat="43.031095" lon="-1.25424167">
        <ele>986.0</ele>
        <time>2019-08-01T08:37:57.008Z</time>
      </trkpt>
      <trkpt lat="43.03109833" lon="-1.25423667">
        <ele>987.0</ele>
        <time>2019-08-01T08:37:58.014Z</time>
      </trkpt>
      <trkpt lat="43.03110667" lon="-1.254235">
        <ele>988.0</ele>
        <time>2019-08-01T08:37:59.017Z</time>
      </trkpt>
      <trkpt lat="43.03111" lon="-1.25422667">
        <ele>989.0</ele>
        <time>2019-08-01T08:38:00.022Z</time>
      </trkpt>
      <trkpt lat="43.03111667" lon="-1.25421833">
        <ele>990.0</ele>
        <time>2019-08-01T08:38:01.027Z</time>
      </trkpt>
      <trkpt lat="43.03111833" lon="-1.25421">
        <ele>991.0</ele>
        <time>2019-08-01T08:38:02.033Z</time>
      </trkpt>
      <trkpt lat="43.03112833" lon="-1.25421333">
        <ele>992.0</ele>
        <time>2019-08-01T08:38:03.040Z</time>
      </trkpt>
      <trkpt lat="43.03114667" lon="-1.25422167">
        <ele>993.0</ele>
        <time>2019-08-01T08:38:03.920Z</time>
      </trkpt>
      <trkpt lat="43.03116333" lon="-1.25422833">
        <ele>993.0</ele>
        <time>2019-08-01T08:38:04.924Z</time>
      </trkpt>
      <trkpt lat="43.03118167" lon="-1.25423333">
        <ele>994.0</ele>
        <time>2019-08-01T08:38:05.930Z</time>
      </trkpt>
      <trkpt lat="43.03119667" lon="-1.25423667">
        <ele>994.0</ele>
        <time>2019-08-01T08:38:06.936Z</time>
      </trkpt>
      <trkpt lat="43.03121" lon="-1.25423667">
        <ele>994.0</ele>
        <time>2019-08-01T08:38:07.943Z</time>
      </trkpt>
      <trkpt lat="43.03122167" lon="-1.254225">
        <ele>992.0</ele>
        <time>2019-08-01T08:38:08.949Z</time>
      </trkpt>
      <trkpt lat="43.031235" lon="-1.254215">
        <ele>991.0</ele>
        <time>2019-08-01T08:38:09.955Z</time>
      </trkpt>
      <trkpt lat="43.03125333" lon="-1.25421667">
        <ele>990.0</ele>
        <time>2019-08-01T08:38:10.961Z</time>
      </trkpt>
      <trkpt lat="43.03127833" lon="-1.25422167">
        <ele>990.0</ele>
        <time>2019-08-01T08:38:11.968Z</time>
      </trkpt>
      <trkpt lat="43.0313" lon="-1.25422167">
        <ele>989.0</ele>
        <time>2019-08-01T08:38:12.971Z</time>
      </trkpt>
      <trkpt lat="43.03132" lon="-1.254225">
        <ele>988.0</ele>
        <time>2019-08-01T08:38:13.974Z</time>
      </trkpt>
      <trkpt lat="43.03133667" lon="-1.25422167">
        <ele>988.0</ele>
        <time>2019-08-01T08:38:14.981Z</time>
      </trkpt>
      <trkpt lat="43.03135667" lon="-1.25421667">
        <ele>988.0</ele>
        <time>2019-08-01T08:38:15.987Z</time>
      </trkpt>
      <trkpt lat="43.03137667" lon="-1.25420167">
        <ele>988.0</ele>
        <time>2019-08-01T08:38:16.991Z</time>
      </trkpt>
      <trkpt lat="43.03138667" lon="-1.25419">
        <ele>988.0</ele>
        <time>2019-08-01T08:38:17.998Z</time>
      </trkpt>
      <trkpt lat="43.03139667" lon="-1.25417667">
        <ele>987.0</ele>
        <time>2019-08-01T08:38:19.004Z</time>
      </trkpt>
      <trkpt lat="43.03140833" lon="-1.25417">
        <ele>987.0</ele>
        <time>2019-08-01T08:38:20.009Z</time>
      </trkpt>
      <trkpt lat="43.03141833" lon="-1.25416833">
        <ele>986.0</ele>
        <time>2019-08-01T08:38:21.012Z</time>
      </trkpt>
      <trkpt lat="43.03142833" lon="-1.25417">
        <ele>985.0</ele>
        <time>2019-08-01T08:38:22.019Z</time>
      </trkpt>
      <trkpt lat="43.03143833" lon="-1.25417167">
        <ele>985.0</ele>
        <time>2019-08-01T08:38:23.024Z</time>
      </trkpt>
      <trkpt lat="43.03144667" lon="-1.25416667">
        <ele>985.0</ele>
        <time>2019-08-01T08:38:24.031Z</time>
      </trkpt>
      <trkpt lat="43.03145667" lon="-1.25416">
        <ele>986.0</ele>
        <time>2019-08-01T08:38:25.036Z</time>
      </trkpt>
      <trkpt lat="43.031465" lon="-1.254155">
        <ele>986.0</ele>
        <time>2019-08-01T08:38:26.042Z</time>
      </trkpt>
      <trkpt lat="43.031475" lon="-1.25414167">
        <ele>987.0</ele>
        <time>2019-08-01T08:38:26.921Z</time>
      </trkpt>
      <trkpt lat="43.03148167" lon="-1.25412667">
        <ele>987.0</ele>
        <time>2019-08-01T08:38:27.928Z</time>
      </trkpt>
      <trkpt lat="43.03149167" lon="-1.25411">
        <ele>987.0</ele>
        <time>2019-08-01T08:38:28.933Z</time>
      </trkpt>
      <trkpt lat="43.03150167" lon="-1.25410333">
        <ele>986.0</ele>
        <time>2019-08-01T08:38:29.938Z</time>
      </trkpt>
      <trkpt lat="43.03151167" lon="-1.25409667">
        <ele>985.0</ele>
        <time>2019-08-01T08:38:30.943Z</time>
      </trkpt>
      <trkpt lat="43.03152333" lon="-1.25409">
        <ele>985.0</ele>
        <time>2019-08-01T08:38:31.949Z</time>
      </trkpt>
      <trkpt lat="43.03153167" lon="-1.25408167">
        <ele>985.0</ele>
        <time>2019-08-01T08:38:32.954Z</time>
      </trkpt>
      <trkpt lat="43.03153833" lon="-1.254075">
        <ele>984.0</ele>
        <time>2019-08-01T08:38:33.961Z</time>
      </trkpt>
      <trkpt lat="43.03154667" lon="-1.25406667">
        <ele>984.0</ele>
        <time>2019-08-01T08:38:34.969Z</time>
      </trkpt>
      <trkpt lat="43.031555" lon="-1.25405833">
        <ele>984.0</ele>
        <time>2019-08-01T08:38:35.972Z</time>
      </trkpt>
      <trkpt lat="43.03155833" lon="-1.254055">
        <ele>985.0</ele>
        <time>2019-08-01T08:38:36.978Z</time>
      </trkpt>
      <trkpt lat="43.03156333" lon="-1.25405667">
        <ele>986.0</ele>
        <time>2019-08-01T08:38:37.982Z</time>
      </trkpt>
      <trkpt lat="43.03157" lon="-1.25405833">
        <ele>987.0</ele>
        <time>2019-08-01T08:38:38.989Z</time>
      </trkpt>
      <trkpt lat="43.03157667" lon="-1.25405667">
        <ele>988.0</ele>
        <time>2019-08-01T08:38:39.993Z</time>
      </trkpt>
      <trkpt lat="43.03158333" lon="-1.25405167">
        <ele>988.0</ele>
        <time>2019-08-01T08:38:40.997Z</time>
      </trkpt>
      <trkpt lat="43.03159" lon="-1.25404">
        <ele>987.0</ele>
        <time>2019-08-01T08:38:42.003Z</time>
      </trkpt>
      <trkpt lat="43.031595" lon="-1.25403167">
        <ele>989.0</ele>
        <time>2019-08-01T08:38:43.008Z</time>
      </trkpt>
      <trkpt lat="43.03160333" lon="-1.25403333">
        <ele>991.0</ele>
        <time>2019-08-01T08:38:44.012Z</time>
      </trkpt>
      <trkpt lat="43.031615" lon="-1.254045">
        <ele>991.0</ele>
        <time>2019-08-01T08:38:45.019Z</time>
      </trkpt>
      <trkpt lat="43.03162667" lon="-1.25405333">
        <ele>991.0</ele>
        <time>2019-08-01T08:38:46.026Z</time>
      </trkpt>
      <trkpt lat="43.03163833" lon="-1.25406">
        <ele>991.0</ele>
        <time>2019-08-01T08:38:47.031Z</time>
      </trkpt>
      <trkpt lat="43.03165" lon="-1.254065">
        <ele>992.0</ele>
        <time>2019-08-01T08:38:48.036Z</time>
      </trkpt>
      <trkpt lat="43.03166833" lon="-1.25406667">
        <ele>991.0</ele>
        <time>2019-08-01T08:38:49.042Z</time>
      </trkpt>
      <trkpt lat="43.03168333" lon="-1.25406333">
        <ele>990.0</ele>
        <time>2019-08-01T08:38:49.922Z</time>
      </trkpt>
      <trkpt lat="43.031695" lon="-1.25406167">
        <ele>991.0</ele>
        <time>2019-08-01T08:38:50.928Z</time>
      </trkpt>
      <trkpt lat="43.03171167" lon="-1.25407">
        <ele>993.0</ele>
        <time>2019-08-01T08:38:51.932Z</time>
      </trkpt>
      <trkpt lat="43.03172833" lon="-1.25408667">
        <ele>993.0</ele>
        <time>2019-08-01T08:38:52.938Z</time>
      </trkpt>
      <trkpt lat="43.03174667" lon="-1.25410333">
        <ele>993.0</ele>
        <time>2019-08-01T08:38:53.943Z</time>
      </trkpt>
      <trkpt lat="43.03176333" lon="-1.254105">
        <ele>994.0</ele>
        <time>2019-08-01T08:38:54.950Z</time>
      </trkpt>
      <trkpt lat="43.03177333" lon="-1.25411">
        <ele>994.0</ele>
        <time>2019-08-01T08:38:55.958Z</time>
      </trkpt>
      <trkpt lat="43.03178833" lon="-1.25411333">
        <ele>994.0</ele>
        <time>2019-08-01T08:38:56.964Z</time>
      </trkpt>
      <trkpt lat="43.03180333" lon="-1.25410667">
        <ele>994.0</ele>
        <time>2019-08-01T08:38:57.970Z</time>
      </trkpt>
      <trkpt lat="43.03182167" lon="-1.254095">
        <ele>994.0</ele>
        <time>2019-08-01T08:38:58.976Z</time>
      </trkpt>
      <trkpt lat="43.031835" lon="-1.25409">
        <ele>994.0</ele>
        <time>2019-08-01T08:38:59.982Z</time>
      </trkpt>
      <trkpt lat="43.03185333" lon="-1.25407833">
        <ele>994.0</ele>
        <time>2019-08-01T08:39:00.987Z</time>
      </trkpt>
      <trkpt lat="43.03187167" lon="-1.25407667">
        <ele>996.0</ele>
        <time>2019-08-01T08:39:01.991Z</time>
      </trkpt>
      <trkpt lat="43.03188333" lon="-1.25407833">
        <ele>996.0</ele>
        <time>2019-08-01T08:39:02.997Z</time>
      </trkpt>
      <trkpt lat="43.03189667" lon="-1.25408333">
        <ele>996.0</ele>
        <time>2019-08-01T08:39:04.004Z</time>
      </trkpt>
      <trkpt lat="43.03191167" lon="-1.25408333">
        <ele>996.0</ele>
        <time>2019-08-01T08:39:05.011Z</time>
      </trkpt>
      <trkpt lat="43.03192333" lon="-1.25408167">
        <ele>996.0</ele>
        <time>2019-08-01T08:39:06.017Z</time>
      </trkpt>
      <trkpt lat="43.03193667" lon="-1.25409167">
        <ele>997.0</ele>
        <time>2019-08-01T08:39:07.022Z</time>
      </trkpt>
      <trkpt lat="43.03194833" lon="-1.25409667">
        <ele>998.0</ele>
        <time>2019-08-01T08:39:08.027Z</time>
      </trkpt>
      <trkpt lat="43.03196" lon="-1.25411">
        <ele>998.0</ele>
        <time>2019-08-01T08:39:09.033Z</time>
      </trkpt>
      <trkpt lat="43.03197333" lon="-1.254125">
        <ele>998.0</ele>
        <time>2019-08-01T08:39:10.039Z</time>
      </trkpt>
      <trkpt lat="43.031985" lon="-1.25413167">
        <ele>998.0</ele>
        <time>2019-08-01T08:39:10.921Z</time>
      </trkpt>
      <trkpt lat="43.03199833" lon="-1.25414">
        <ele>999.0</ele>
        <time>2019-08-01T08:39:11.926Z</time>
      </trkpt>
      <trkpt lat="43.03201167" lon="-1.25415">
        <ele>999.0</ele>
        <time>2019-08-01T08:39:12.930Z</time>
      </trkpt>
      <trkpt lat="43.032025" lon="-1.25415667">
        <ele>1000.0</ele>
        <time>2019-08-01T08:39:13.935Z</time>
      </trkpt>
      <trkpt lat="43.032035" lon="-1.25416833">
        <ele>1000.0</ele>
        <time>2019-08-01T08:39:14.940Z</time>
      </trkpt>
      <trkpt lat="43.03204667" lon="-1.25417333">
        <ele>1000.0</ele>
        <time>2019-08-01T08:39:15.947Z</time>
      </trkpt>
      <trkpt lat="43.03206" lon="-1.25417667">
        <ele>999.0</ele>
        <time>2019-08-01T08:39:16.954Z</time>
      </trkpt>
      <trkpt lat="43.032075" lon="-1.25418">
        <ele>999.0</ele>
        <time>2019-08-01T08:39:17.959Z</time>
      </trkpt>
      <trkpt lat="43.03208833" lon="-1.25418667">
        <ele>999.0</ele>
        <time>2019-08-01T08:39:18.966Z</time>
      </trkpt>
      <trkpt lat="43.03209833" lon="-1.2542">
        <ele>998.0</ele>
        <time>2019-08-01T08:39:19.970Z</time>
      </trkpt>
      <trkpt lat="43.03210833" lon="-1.254215">
        <ele>997.0</ele>
        <time>2019-08-01T08:39:20.977Z</time>
      </trkpt>
      <trkpt lat="43.03212167" lon="-1.25422667">
        <ele>996.0</ele>
        <time>2019-08-01T08:39:21.983Z</time>
      </trkpt>
      <trkpt lat="43.03213333" lon="-1.25423833">
        <ele>996.0</ele>
        <time>2019-08-01T08:39:22.991Z</time>
      </trkpt>
      <trkpt lat="43.03214833" lon="-1.25424667">
        <ele>995.0</ele>
        <time>2019-08-01T08:39:23.996Z</time>
      </trkpt>
      <trkpt lat="43.03216333" lon="-1.254255">
        <ele>995.0</ele>
        <time>2019-08-01T08:39:25.004Z</time>
      </trkpt>
      <trkpt lat="43.03218" lon="-1.25426">
        <ele>995.0</ele>
        <time>2019-08-01T08:39:26.010Z</time>
      </trkpt>
      <trkpt lat="43.03219667" lon="-1.25427">
        <ele>995.0</ele>
        <time>2019-08-01T08:39:27.017Z</time>
      </trkpt>
      <trkpt lat="43.03221333" lon="-1.254285">
        <ele>994.0</ele>
        <time>2019-08-01T08:39:28.024Z</time>
      </trkpt>
      <trkpt lat="43.032225" lon="-1.25429">
        <ele>993.0</ele>
        <time>2019-08-01T08:39:29.031Z</time>
      </trkpt>
      <trkpt lat="43.03223667" lon="-1.25429333">
        <ele>993.0</ele>
        <time>2019-08-01T08:39:30.039Z</time>
      </trkpt>
      <trkpt lat="43.03224333" lon="-1.25429167">
        <ele>994.0</ele>
        <time>2019-08-01T08:39:30.919Z</time>
      </trkpt>
      <trkpt lat="43.03225167" lon="-1.25429167">
        <ele>994.0</ele>
        <time>2019-08-01T08:39:31.923Z</time>
      </trkpt>
      <trkpt lat="43.03226167" lon="-1.25428667">
        <ele>994.0</ele>
        <time>2019-08-01T08:39:32.928Z</time>
      </trkpt>
      <trkpt lat="43.03227667" lon="-1.25428833">
        <ele>994.0</ele>
        <time>2019-08-01T08:39:33.932Z</time>
      </trkpt>
      <trkpt lat="43.032295" lon="-1.25429167">
        <ele>994.0</ele>
        <time>2019-08-01T08:39:34.937Z</time>
      </trkpt>
      <trkpt lat="43.03231333" lon="-1.25429833">
        <ele>994.0</ele>
        <time>2019-08-01T08:39:35.943Z</time>
      </trkpt>
      <trkpt lat="43.03232833" lon="-1.25431167">
        <ele>994.0</ele>
        <time>2019-08-01T08:39:36.950Z</time>
      </trkpt>
      <trkpt lat="43.03233667" lon="-1.25432">
        <ele>995.0</ele>
        <time>2019-08-01T08:39:37.957Z</time>
      </trkpt>
      <trkpt lat="43.03234667" lon="-1.25433">
        <ele>995.0</ele>
        <time>2019-08-01T08:39:38.963Z</time>
      </trkpt>
      <trkpt lat="43.03236333" lon="-1.25434167">
        <ele>995.0</ele>
        <time>2019-08-01T08:39:39.968Z</time>
      </trkpt>
      <trkpt lat="43.03237333" lon="-1.25434667">
        <ele>994.0</ele>
        <time>2019-08-01T08:39:40.973Z</time>
      </trkpt>
      <trkpt lat="43.03238333" lon="-1.25434833">
        <ele>995.0</ele>
        <time>2019-08-01T08:39:41.979Z</time>
      </trkpt>
      <trkpt lat="43.03239667" lon="-1.25435333">
        <ele>994.0</ele>
        <time>2019-08-01T08:39:42.984Z</time>
      </trkpt>
      <trkpt lat="43.03241167" lon="-1.25435667">
        <ele>994.0</ele>
        <time>2019-08-01T08:39:43.991Z</time>
      </trkpt>
      <trkpt lat="43.03242167" lon="-1.25435333">
        <ele>992.0</ele>
        <time>2019-08-01T08:39:44.997Z</time>
      </trkpt>
      <trkpt lat="43.03242833" lon="-1.25435667">
        <ele>992.0</ele>
        <time>2019-08-01T08:39:46.003Z</time>
      </trkpt>
      <trkpt lat="43.03243833" lon="-1.25436667">
        <ele>991.0</ele>
        <time>2019-08-01T08:39:47.007Z</time>
      </trkpt>
      <trkpt lat="43.03244833" lon="-1.25438">
        <ele>990.0</ele>
        <time>2019-08-01T08:39:48.012Z</time>
      </trkpt>
      <trkpt lat="43.03246" lon="-1.25439667">
        <ele>988.0</ele>
        <time>2019-08-01T08:39:49.017Z</time>
      </trkpt>
      <trkpt lat="43.03247667" lon="-1.25441167">
        <ele>986.0</ele>
        <time>2019-08-01T08:39:50.021Z</time>
      </trkpt>
      <trkpt lat="43.03249333" lon="-1.25442">
        <ele>986.0</ele>
        <time>2019-08-01T08:39:51.026Z</time>
      </trkpt>
      <trkpt lat="43.03250667" lon="-1.25442">
        <ele>986.0</ele>
        <time>2019-08-01T08:39:52.031Z</time>
      </trkpt>
      <trkpt lat="43.03251833" lon="-1.25442667">
        <ele>987.0</ele>
        <time>2019-08-01T08:39:53.036Z</time>
      </trkpt>
      <trkpt lat="43.032525" lon="-1.25443">
        <ele>987.0</ele>
        <time>2019-08-01T08:39:54.042Z</time>
      </trkpt>
      <trkpt lat="43.03253333" lon="-1.25444">
        <ele>989.0</ele>
        <time>2019-08-01T08:39:54.923Z</time>
      </trkpt>
      <trkpt lat="43.03254667" lon="-1.25445">
        <ele>989.0</ele>
        <time>2019-08-01T08:39:55.928Z</time>
      </trkpt>
      <trkpt lat="43.03255667" lon="-1.25446167">
        <ele>990.0</ele>
        <time>2019-08-01T08:39:56.933Z</time>
      </trkpt>
      <trkpt lat="43.03256167" lon="-1.25447167">
        <ele>990.0</ele>
        <time>2019-08-01T08:39:57.938Z</time>
      </trkpt>
      <trkpt lat="43.03255833" lon="-1.25448167">
        <ele>991.0</ele>
        <time>2019-08-01T08:39:58.943Z</time>
      </trkpt>
      <trkpt lat="43.032555" lon="-1.25449167">
        <ele>991.0</ele>
        <time>2019-08-01T08:39:59.948Z</time>
      </trkpt>
      <trkpt lat="43.03256167" lon="-1.254505">
        <ele>992.0</ele>
        <time>2019-08-01T08:40:00.955Z</time>
      </trkpt>
      <trkpt lat="43.03256833" lon="-1.254515">
        <ele>992.0</ele>
        <time>2019-08-01T08:40:01.960Z</time>
      </trkpt>
      <trkpt lat="43.03257833" lon="-1.25452667">
        <ele>992.0</ele>
        <time>2019-08-01T08:40:02.966Z</time>
      </trkpt>
      <trkpt lat="43.03258833" lon="-1.25453667">
        <ele>991.0</ele>
        <time>2019-08-01T08:40:03.970Z</time>
      </trkpt>
      <trkpt lat="43.03259833" lon="-1.25453833">
        <ele>991.0</ele>
        <time>2019-08-01T08:40:04.975Z</time>
      </trkpt>
      <trkpt lat="43.03260667" lon="-1.25454333">
        <ele>990.0</ele>
        <time>2019-08-01T08:40:05.980Z</time>
      </trkpt>
      <trkpt lat="43.03260667" lon="-1.25455833">
        <ele>990.0</ele>
        <time>2019-08-01T08:40:06.986Z</time>
      </trkpt>
      <trkpt lat="43.03260833" lon="-1.25457167">
        <ele>989.0</ele>
        <time>2019-08-01T08:40:07.991Z</time>
      </trkpt>
      <trkpt lat="43.03261167" lon="-1.254585">
        <ele>989.0</ele>
        <time>2019-08-01T08:40:08.997Z</time>
      </trkpt>
      <trkpt lat="43.032605" lon="-1.25460333">
        <ele>988.0</ele>
        <time>2019-08-01T08:40:10.004Z</time>
      </trkpt>
      <trkpt lat="43.03260833" lon="-1.25461333">
        <ele>987.0</ele>
        <time>2019-08-01T08:40:11.011Z</time>
      </trkpt>
      <trkpt lat="43.03261667" lon="-1.25461833">
        <ele>986.0</ele>
        <time>2019-08-01T08:40:12.014Z</time>
      </trkpt>
      <trkpt lat="43.03262667" lon="-1.254625">
        <ele>985.0</ele>
        <time>2019-08-01T08:40:13.019Z</time>
      </trkpt>
      <trkpt lat="43.03263833" lon="-1.25462667">
        <ele>984.0</ele>
        <time>2019-08-01T08:40:14.025Z</time>
      </trkpt>
      <trkpt lat="43.03265333" lon="-1.25463167">
        <ele>983.0</ele>
        <time>2019-08-01T08:40:15.032Z</time>
      </trkpt>
      <trkpt lat="43.032665" lon="-1.25463833">
        <ele>983.0</ele>
        <time>2019-08-01T08:40:16.036Z</time>
      </trkpt>
      <trkpt lat="43.03267167" lon="-1.25464833">
        <ele>981.0</ele>
        <time>2019-08-01T08:40:17.041Z</time>
      </trkpt>
      <trkpt lat="43.03267333" lon="-1.25465833">
        <ele>980.0</ele>
        <time>2019-08-01T08:40:17.921Z</time>
      </trkpt>
      <trkpt lat="43.03268333" lon="-1.25467333">
        <ele>979.0</ele>
        <time>2019-08-01T08:40:18.928Z</time>
      </trkpt>
      <trkpt lat="43.03269" lon="-1.25468333">
        <ele>979.0</ele>
        <time>2019-08-01T08:40:19.935Z</time>
      </trkpt>
      <trkpt lat="43.03269833" lon="-1.25469833">
        <ele>978.0</ele>
        <time>2019-08-01T08:40:20.942Z</time>
      </trkpt>
      <trkpt lat="43.03270333" lon="-1.25471167">
        <ele>978.0</ele>
        <time>2019-08-01T08:40:21.947Z</time>
      </trkpt>
      <trkpt lat="43.03271" lon="-1.25472667">
        <ele>978.0</ele>
        <time>2019-08-01T08:40:22.952Z</time>
      </trkpt>
      <trkpt lat="43.03271167" lon="-1.25474333">
        <ele>978.0</ele>
        <time>2019-08-01T08:40:23.956Z</time>
      </trkpt>
      <trkpt lat="43.03271" lon="-1.25475833">
        <ele>978.0</ele>
        <time>2019-08-01T08:40:24.961Z</time>
      </trkpt>
      <trkpt lat="43.03270833" lon="-1.25477167">
        <ele>977.0</ele>
        <time>2019-08-01T08:40:25.968Z</time>
      </trkpt>
      <trkpt lat="43.03271" lon="-1.25478833">
        <ele>977.0</ele>
        <time>2019-08-01T08:40:26.974Z</time>
      </trkpt>
      <trkpt lat="43.03271167" lon="-1.25480833">
        <ele>975.0</ele>
        <time>2019-08-01T08:40:27.979Z</time>
      </trkpt>
      <trkpt lat="43.03271167" lon="-1.25482833">
        <ele>975.0</ele>
        <time>2019-08-01T08:40:28.983Z</time>
      </trkpt>
      <trkpt lat="43.03271833" lon="-1.25485">
        <ele>974.0</ele>
        <time>2019-08-01T08:40:29.988Z</time>
      </trkpt>
      <trkpt lat="43.03272333" lon="-1.25487167">
        <ele>974.0</ele>
        <time>2019-08-01T08:40:30.995Z</time>
      </trkpt>
      <trkpt lat="43.03273" lon="-1.25489">
        <ele>974.0</ele>
        <time>2019-08-01T08:40:32.002Z</time>
      </trkpt>
      <trkpt lat="43.032735" lon="-1.25490833">
        <ele>975.0</ele>
        <time>2019-08-01T08:40:33.008Z</time>
      </trkpt>
      <trkpt lat="43.03274667" lon="-1.25492333">
        <ele>976.0</ele>
        <time>2019-08-01T08:40:34.013Z</time>
      </trkpt>
      <trkpt lat="43.03275167" lon="-1.25493833">
        <ele>977.0</ele>
        <time>2019-08-01T08:40:35.019Z</time>
      </trkpt>
      <trkpt lat="43.032755" lon="-1.254955">
        <ele>976.0</ele>
        <time>2019-08-01T08:40:36.026Z</time>
      </trkpt>
      <trkpt lat="43.03275833" lon="-1.254965">
        <ele>975.0</ele>
        <time>2019-08-01T08:40:37.033Z</time>
      </trkpt>
      <trkpt lat="43.03276333" lon="-1.25497833">
        <ele>974.0</ele>
        <time>2019-08-01T08:40:38.040Z</time>
      </trkpt>
      <trkpt lat="43.03277" lon="-1.254995">
        <ele>974.0</ele>
        <time>2019-08-01T08:40:38.921Z</time>
      </trkpt>
      <trkpt lat="43.03277833" lon="-1.25502">
        <ele>976.0</ele>
        <time>2019-08-01T08:40:39.927Z</time>
      </trkpt>
      <trkpt lat="43.03278167" lon="-1.25503667">
        <ele>977.0</ele>
        <time>2019-08-01T08:40:40.932Z</time>
      </trkpt>
      <trkpt lat="43.03279167" lon="-1.255055">
        <ele>978.0</ele>
        <time>2019-08-01T08:40:41.936Z</time>
      </trkpt>
      <trkpt lat="43.0328" lon="-1.25506667">
        <ele>980.0</ele>
        <time>2019-08-01T08:40:42.942Z</time>
      </trkpt>
      <trkpt lat="43.03280167" lon="-1.25507667">
        <ele>982.0</ele>
        <time>2019-08-01T08:40:43.948Z</time>
      </trkpt>
      <trkpt lat="43.03279" lon="-1.25508667">
        <ele>983.0</ele>
        <time>2019-08-01T08:40:44.954Z</time>
      </trkpt>
      <trkpt lat="43.03278167" lon="-1.255095">
        <ele>985.0</ele>
        <time>2019-08-01T08:40:45.959Z</time>
      </trkpt>
      <trkpt lat="43.03276833" lon="-1.25511">
        <ele>984.0</ele>
        <time>2019-08-01T08:40:46.967Z</time>
      </trkpt>
      <trkpt lat="43.03275" lon="-1.255135">
        <ele>983.0</ele>
        <time>2019-08-01T08:40:47.972Z</time>
      </trkpt>
      <trkpt lat="43.03274167" lon="-1.25516">
        <ele>982.0</ele>
        <time>2019-08-01T08:40:48.977Z</time>
      </trkpt>
      <trkpt lat="43.03274167" lon="-1.25517333">
        <ele>979.0</ele>
        <time>2019-08-01T08:40:49.983Z</time>
      </trkpt>
      <trkpt lat="43.03274333" lon="-1.25518333">
        <ele>978.0</ele>
        <time>2019-08-01T08:40:50.990Z</time>
      </trkpt>
      <trkpt lat="43.03274833" lon="-1.25520167">
        <ele>977.0</ele>
        <time>2019-08-01T08:40:51.996Z</time>
      </trkpt>
      <trkpt lat="43.03275667" lon="-1.255225">
        <ele>977.0</ele>
        <time>2019-08-01T08:40:53.002Z</time>
      </trkpt>
      <trkpt lat="43.03276" lon="-1.25524833">
        <ele>976.0</ele>
        <time>2019-08-01T08:40:54.008Z</time>
      </trkpt>
      <trkpt lat="43.03275833" lon="-1.25526333">
        <ele>976.0</ele>
        <time>2019-08-01T08:40:55.012Z</time>
      </trkpt>
      <trkpt lat="43.03276167" lon="-1.25528167">
        <ele>976.0</ele>
        <time>2019-08-01T08:40:56.019Z</time>
      </trkpt>
      <trkpt lat="43.03277333" lon="-1.25529">
        <ele>975.0</ele>
        <time>2019-08-01T08:40:57.024Z</time>
      </trkpt>
      <trkpt lat="43.032785" lon="-1.25530667">
        <ele>975.0</ele>
        <time>2019-08-01T08:40:58.030Z</time>
      </trkpt>
      <trkpt lat="43.03279333" lon="-1.25532167">
        <ele>973.0</ele>
        <time>2019-08-01T08:40:59.036Z</time>
      </trkpt>
      <trkpt lat="43.03279833" lon="-1.25533833">
        <ele>973.0</ele>
        <time>2019-08-01T08:41:00.042Z</time>
      </trkpt>
      <trkpt lat="43.03281" lon="-1.25535833">
        <ele>974.0</ele>
        <time>2019-08-01T08:41:00.922Z</time>
      </trkpt>
      <trkpt lat="43.03281833" lon="-1.25537333">
        <ele>975.0</ele>
        <time>2019-08-01T08:41:01.927Z</time>
      </trkpt>
      <trkpt lat="43.03282333" lon="-1.255385">
        <ele>976.0</ele>
        <time>2019-08-01T08:41:02.932Z</time>
      </trkpt>
      <trkpt lat="43.032825" lon="-1.25539333">
        <ele>977.0</ele>
        <time>2019-08-01T08:41:03.937Z</time>
      </trkpt>
      <trkpt lat="43.03282333" lon="-1.25540833">
        <ele>978.0</ele>
        <time>2019-08-01T08:41:04.943Z</time>
      </trkpt>
      <trkpt lat="43.03282" lon="-1.255425">
        <ele>979.0</ele>
        <time>2019-08-01T08:41:05.947Z</time>
      </trkpt>
      <trkpt lat="43.032815" lon="-1.25543833">
        <ele>979.0</ele>
        <time>2019-08-01T08:41:06.954Z</time>
      </trkpt>
      <trkpt lat="43.03280833" lon="-1.25544667">
        <ele>980.0</ele>
        <time>2019-08-01T08:41:07.961Z</time>
      </trkpt>
      <trkpt lat="43.03281167" lon="-1.25545667">
        <ele>980.0</ele>
        <time>2019-08-01T08:41:08.968Z</time>
      </trkpt>
      <trkpt lat="43.032815" lon="-1.25546667">
        <ele>980.0</ele>
        <time>2019-08-01T08:41:09.973Z</time>
      </trkpt>
      <trkpt lat="43.03282" lon="-1.255475">
        <ele>979.0</ele>
        <time>2019-08-01T08:41:10.978Z</time>
      </trkpt>
      <trkpt lat="43.03282833" lon="-1.255485">
        <ele>978.0</ele>
        <time>2019-08-01T08:41:11.986Z</time>
      </trkpt>
      <trkpt lat="43.03283333" lon="-1.2555">
        <ele>978.0</ele>
        <time>2019-08-01T08:41:12.992Z</time>
      </trkpt>
      <trkpt lat="43.03283833" lon="-1.25551833">
        <ele>979.0</ele>
        <time>2019-08-01T08:41:13.999Z</time>
      </trkpt>
      <trkpt lat="43.03284333" lon="-1.25553667">
        <ele>980.0</ele>
        <time>2019-08-01T08:41:15.004Z</time>
      </trkpt>
      <trkpt lat="43.03284833" lon="-1.25555667">
        <ele>980.0</ele>
        <time>2019-08-01T08:41:16.011Z</time>
      </trkpt>
      <trkpt lat="43.03285167" lon="-1.25557667">
        <ele>980.0</ele>
        <time>2019-08-01T08:41:17.017Z</time>
      </trkpt>
      <trkpt lat="43.032845" lon="-1.25558167">
        <ele>980.0</ele>
        <time>2019-08-01T08:41:18.023Z</time>
      </trkpt>
      <trkpt lat="43.03284" lon="-1.25558167">
        <ele>982.0</ele>
        <time>2019-08-01T08:41:19.027Z</time>
      </trkpt>
      <trkpt lat="43.03283833" lon="-1.25558">
        <ele>983.0</ele>
        <time>2019-08-01T08:41:20.033Z</time>
      </trkpt>
      <trkpt lat="43.032835" lon="-1.255595">
        <ele>984.0</ele>
        <time>2019-08-01T08:41:21.040Z</time>
      </trkpt>
      <trkpt lat="43.032845" lon="-1.25560833">
        <ele>985.0</ele>
        <time>2019-08-01T08:41:21.920Z</time>
      </trkpt>
      <trkpt lat="43.03284833" lon="-1.25562667">
        <ele>985.0</ele>
        <time>2019-08-01T08:41:22.925Z</time>
      </trkpt>
      <trkpt lat="43.03285" lon="-1.255645">
        <ele>984.0</ele>
        <time>2019-08-01T08:41:23.931Z</time>
      </trkpt>
      <trkpt lat="43.03285833" lon="-1.25567167">
        <ele>983.0</ele>
        <time>2019-08-01T08:41:24.938Z</time>
      </trkpt>
      <trkpt lat="43.03286167" lon="-1.25569667">
        <ele>983.0</ele>
        <time>2019-08-01T08:41:25.945Z</time>
      </trkpt>
      <trkpt lat="43.032865" lon="-1.25573">
        <ele>983.0</ele>
        <time>2019-08-01T08:41:26.951Z</time>
      </trkpt>
      <trkpt lat="43.03286833" lon="-1.25575167">
        <ele>984.0</ele>
        <time>2019-08-01T08:41:27.958Z</time>
      </trkpt>
      <trkpt lat="43.03286667" lon="-1.25576667">
        <ele>985.0</ele>
        <time>2019-08-01T08:41:28.965Z</time>
      </trkpt>
      <trkpt lat="43.03285833" lon="-1.25578333">
        <ele>985.0</ele>
        <time>2019-08-01T08:41:29.969Z</time>
      </trkpt>
      <trkpt lat="43.03286" lon="-1.25579333">
        <ele>987.0</ele>
        <time>2019-08-01T08:41:30.973Z</time>
      </trkpt>
      <trkpt lat="43.03287" lon="-1.25580667">
        <ele>989.0</ele>
        <time>2019-08-01T08:41:31.976Z</time>
      </trkpt>
      <trkpt lat="43.03287333" lon="-1.255815">
        <ele>990.0</ele>
        <time>2019-08-01T08:41:32.983Z</time>
      </trkpt>
      <trkpt lat="43.03288167" lon="-1.25583">
        <ele>990.0</ele>
        <time>2019-08-01T08:41:33.990Z</time>
      </trkpt>
      <trkpt lat="43.03289667" lon="-1.25585333">
        <ele>990.0</ele>
        <time>2019-08-01T08:41:34.993Z</time>
      </trkpt>
      <trkpt lat="43.03289833" lon="-1.255875">
        <ele>990.0</ele>
        <time>2019-08-01T08:41:35.999Z</time>
      </trkpt>
      <trkpt lat="43.03289833" lon="-1.25589833">
        <ele>990.0</ele>
        <time>2019-08-01T08:41:37.007Z</time>
      </trkpt>
      <trkpt lat="43.032895" lon="-1.25592167">
        <ele>990.0</ele>
        <time>2019-08-01T08:41:38.012Z</time>
      </trkpt>
      <trkpt lat="43.032895" lon="-1.25594833">
        <ele>989.0</ele>
        <time>2019-08-01T08:41:39.018Z</time>
      </trkpt>
      <trkpt lat="43.032895" lon="-1.25597833">
        <ele>990.0</ele>
        <time>2019-08-01T08:41:40.024Z</time>
      </trkpt>
      <trkpt lat="43.032895" lon="-1.25600333">
        <ele>991.0</ele>
        <time>2019-08-01T08:41:41.028Z</time>
      </trkpt>
      <trkpt lat="43.032895" lon="-1.25602667">
        <ele>992.0</ele>
        <time>2019-08-01T08:41:42.034Z</time>
      </trkpt>
      <trkpt lat="43.0329" lon="-1.25604333">
        <ele>993.0</ele>
        <time>2019-08-01T08:41:43.039Z</time>
      </trkpt>
      <trkpt lat="43.0329" lon="-1.25606">
        <ele>993.0</ele>
        <time>2019-08-01T08:41:43.920Z</time>
      </trkpt>
      <trkpt lat="43.0329" lon="-1.25606667">
        <ele>992.0</ele>
        <time>2019-08-01T08:41:44.928Z</time>
      </trkpt>
      <trkpt lat="43.03289667" lon="-1.256075">
        <ele>992.0</ele>
        <time>2019-08-01T08:41:45.933Z</time>
      </trkpt>
      <trkpt lat="43.03288833" lon="-1.256085">
        <ele>993.0</ele>
        <time>2019-08-01T08:41:46.940Z</time>
      </trkpt>
      <trkpt lat="43.03287667" lon="-1.25609667">
        <ele>993.0</ele>
        <time>2019-08-01T08:41:47.945Z</time>
      </trkpt>
      <trkpt lat="43.03287" lon="-1.25610333">
        <ele>992.0</ele>
        <time>2019-08-01T08:41:48.951Z</time>
      </trkpt>
      <trkpt lat="43.03286667" lon="-1.25611333">
        <ele>992.0</ele>
        <time>2019-08-01T08:41:49.957Z</time>
      </trkpt>
      <trkpt lat="43.03286167" lon="-1.25612">
        <ele>992.0</ele>
        <time>2019-08-01T08:41:50.963Z</time>
      </trkpt>
      <trkpt lat="43.03285667" lon="-1.25612333">
        <ele>993.0</ele>
        <time>2019-08-01T08:41:51.969Z</time>
      </trkpt>
      <trkpt lat="43.03285667" lon="-1.25613333">
        <ele>993.0</ele>
        <time>2019-08-01T08:41:52.976Z</time>
      </trkpt>
      <trkpt lat="43.03285333" lon="-1.256145">
        <ele>992.0</ele>
        <time>2019-08-01T08:41:53.984Z</time>
      </trkpt>
      <trkpt lat="43.03284833" lon="-1.25616">
        <ele>992.0</ele>
        <time>2019-08-01T08:41:54.990Z</time>
      </trkpt>
      <trkpt lat="43.03284333" lon="-1.25617667">
        <ele>992.0</ele>
        <time>2019-08-01T08:41:55.997Z</time>
      </trkpt>
      <trkpt lat="43.03283833" lon="-1.25619">
        <ele>992.0</ele>
        <time>2019-08-01T08:41:57.004Z</time>
      </trkpt>
      <trkpt lat="43.03283833" lon="-1.256205">
        <ele>994.0</ele>
        <time>2019-08-01T08:41:58.011Z</time>
      </trkpt>
      <trkpt lat="43.03283667" lon="-1.25622333">
        <ele>995.0</ele>
        <time>2019-08-01T08:41:59.015Z</time>
      </trkpt>
      <trkpt lat="43.03282833" lon="-1.25624167">
        <ele>995.0</ele>
        <time>2019-08-01T08:42:00.019Z</time>
      </trkpt>
      <trkpt lat="43.03282667" lon="-1.25624833">
        <ele>995.0</ele>
        <time>2019-08-01T08:42:01.022Z</time>
      </trkpt>
      <trkpt lat="43.03284333" lon="-1.25624667">
        <ele>995.0</ele>
        <time>2019-08-01T08:42:02.026Z</time>
      </trkpt>
      <trkpt lat="43.03287333" lon="-1.256235">
        <ele>994.0</ele>
        <time>2019-08-01T08:42:03.032Z</time>
      </trkpt>
      <trkpt lat="43.03289667" lon="-1.256215">
        <ele>994.0</ele>
        <time>2019-08-01T08:42:04.037Z</time>
      </trkpt>
      <trkpt lat="43.03292333" lon="-1.25620833">
        <ele>992.0</ele>
        <time>2019-08-01T08:42:04.918Z</time>
      </trkpt>
      <trkpt lat="43.032945" lon="-1.25620667">
        <ele>992.0</ele>
        <time>2019-08-01T08:42:05.926Z</time>
      </trkpt>
      <trkpt lat="43.03296833" lon="-1.25619333">
        <ele>992.0</ele>
        <time>2019-08-01T08:42:06.932Z</time>
      </trkpt>
      <trkpt lat="43.03299" lon="-1.25617833">
        <ele>991.0</ele>
        <time>2019-08-01T08:42:07.935Z</time>
      </trkpt>
      <trkpt lat="43.033" lon="-1.25617">
        <ele>993.0</ele>
        <time>2019-08-01T08:42:08.940Z</time>
      </trkpt>
      <trkpt lat="43.03301" lon="-1.25617333">
        <ele>992.0</ele>
        <time>2019-08-01T08:42:09.945Z</time>
      </trkpt>
      <trkpt lat="43.03302667" lon="-1.25617167">
        <ele>992.0</ele>
        <time>2019-08-01T08:42:10.953Z</time>
      </trkpt>
      <trkpt lat="43.03304333" lon="-1.25618">
        <ele>992.0</ele>
        <time>2019-08-01T08:42:11.958Z</time>
      </trkpt>
      <trkpt lat="43.03305667" lon="-1.25619667">
        <ele>991.0</ele>
        <time>2019-08-01T08:42:12.966Z</time>
      </trkpt>
      <trkpt lat="43.03306667" lon="-1.2562">
        <ele>991.0</ele>
        <time>2019-08-01T08:42:13.972Z</time>
      </trkpt>
      <trkpt lat="43.03306667" lon="-1.25619167">
        <ele>991.0</ele>
        <time>2019-08-01T08:42:14.980Z</time>
      </trkpt>
      <trkpt lat="43.03305667" lon="-1.25618333">
        <ele>991.0</ele>
        <time>2019-08-01T08:42:15.984Z</time>
      </trkpt>
      <trkpt lat="43.03305333" lon="-1.25618333">
        <ele>992.0</ele>
        <time>2019-08-01T08:42:16.991Z</time>
      </trkpt>
      <trkpt lat="43.03305333" lon="-1.25617833">
        <ele>992.0</ele>
        <time>2019-08-01T08:42:17.997Z</time>
      </trkpt>
      <trkpt lat="43.03306667" lon="-1.25618">
        <ele>993.0</ele>
        <time>2019-08-01T08:42:19.003Z</time>
      </trkpt>
      <trkpt lat="43.03307" lon="-1.25617833">
        <ele>993.0</ele>
        <time>2019-08-01T08:42:20.009Z</time>
      </trkpt>
      <trkpt lat="43.03308" lon="-1.25617">
        <ele>995.0</ele>
        <time>2019-08-01T08:42:21.011Z</time>
      </trkpt>
      <trkpt lat="43.03308167" lon="-1.25617">
        <ele>998.0</ele>
        <time>2019-08-01T08:42:22.015Z</time>
      </trkpt>
      <trkpt lat="43.033085" lon="-1.25616833">
        <ele>1002.0</ele>
        <time>2019-08-01T08:42:23.021Z</time>
      </trkpt>
      <trkpt lat="43.03307167" lon="-1.25616667">
        <ele>1002.0</ele>
        <time>2019-08-01T08:42:24.024Z</time>
      </trkpt>
      <trkpt lat="43.03306" lon="-1.25616333">
        <ele>1002.0</ele>
        <time>2019-08-01T08:42:25.030Z</time>
      </trkpt>
      <trkpt lat="43.03306167" lon="-1.25616833">
        <ele>1002.0</ele>
        <time>2019-08-01T08:42:26.036Z</time>
      </trkpt>
      <trkpt lat="43.03307333" lon="-1.256165">
        <ele>1001.0</ele>
        <time>2019-08-01T08:42:27.041Z</time>
      </trkpt>
      <trkpt lat="43.03308333" lon="-1.25615667">
        <ele>1000.0</ele>
        <time>2019-08-01T08:42:27.920Z</time>
      </trkpt>
      <trkpt lat="43.03309" lon="-1.25615333">
        <ele>1000.0</ele>
        <time>2019-08-01T08:42:28.925Z</time>
      </trkpt>
      <trkpt lat="43.03310667" lon="-1.25614667">
        <ele>1000.0</ele>
        <time>2019-08-01T08:42:29.930Z</time>
      </trkpt>
      <trkpt lat="43.03311333" lon="-1.25614333">
        <ele>1000.0</ele>
        <time>2019-08-01T08:42:30.935Z</time>
      </trkpt>
      <trkpt lat="43.03311667" lon="-1.25614167">
        <ele>1001.0</ele>
        <time>2019-08-01T08:42:31.942Z</time>
      </trkpt>
      <trkpt lat="43.03312" lon="-1.256155">
        <ele>1002.0</ele>
        <time>2019-08-01T08:42:32.948Z</time>
      </trkpt>
      <trkpt lat="43.03311667" lon="-1.25617">
        <ele>1003.0</ele>
        <time>2019-08-01T08:42:33.954Z</time>
      </trkpt>
      <trkpt lat="43.03311" lon="-1.25618667">
        <ele>1004.0</ele>
        <time>2019-08-01T08:42:34.960Z</time>
      </trkpt>
      <trkpt lat="43.03311333" lon="-1.25620333">
        <ele>1004.0</ele>
        <time>2019-08-01T08:42:35.961Z</time>
      </trkpt>
      <trkpt lat="43.03312167" lon="-1.256225">
        <ele>1004.0</ele>
        <time>2019-08-01T08:42:36.967Z</time>
      </trkpt>
      <trkpt lat="43.03311833" lon="-1.25623">
        <ele>1003.0</ele>
        <time>2019-08-01T08:42:37.970Z</time>
      </trkpt>
      <trkpt lat="43.03310667" lon="-1.256235">
        <ele>1001.0</ele>
        <time>2019-08-01T08:42:38.972Z</time>
      </trkpt>
      <trkpt lat="43.0331" lon="-1.25623333">
        <ele>1000.0</ele>
        <time>2019-08-01T08:42:39.976Z</time>
      </trkpt>
      <trkpt lat="43.03309667" lon="-1.25623333">
        <ele>999.0</ele>
        <time>2019-08-01T08:42:40.982Z</time>
      </trkpt>
      <trkpt lat="43.0331" lon="-1.25623">
        <ele>1001.0</ele>
        <time>2019-08-01T08:42:41.985Z</time>
      </trkpt>
      <trkpt lat="43.03309" lon="-1.25621833">
        <ele>1002.0</ele>
        <time>2019-08-01T08:42:42.991Z</time>
      </trkpt>
      <trkpt lat="43.03309" lon="-1.25621333">
        <ele>1003.0</ele>
        <time>2019-08-01T08:42:43.998Z</time>
      </trkpt>
      <trkpt lat="43.03308833" lon="-1.25621667">
        <ele>1003.0</ele>
        <time>2019-08-01T08:42:45.003Z</time>
      </trkpt>
      <trkpt lat="43.03308833" lon="-1.25621667">
        <ele>1002.0</ele>
        <time>2019-08-01T08:42:46.010Z</time>
      </trkpt>
      <trkpt lat="43.03308833" lon="-1.25621833">
        <ele>1002.0</ele>
        <time>2019-08-01T08:42:47.014Z</time>
      </trkpt>
      <trkpt lat="43.03308667" lon="-1.25622167">
        <ele>1002.0</ele>
        <time>2019-08-01T08:42:48.020Z</time>
      </trkpt>
      <trkpt lat="43.03308667" lon="-1.25622667">
        <ele>1002.0</ele>
        <time>2019-08-01T08:42:49.025Z</time>
      </trkpt>
      <trkpt lat="43.03308667" lon="-1.25623167">
        <ele>1001.0</ele>
        <time>2019-08-01T08:42:50.030Z</time>
      </trkpt>
      <trkpt lat="43.033085" lon="-1.25623833">
        <ele>1001.0</ele>
        <time>2019-08-01T08:42:51.036Z</time>
      </trkpt>
      <trkpt lat="43.03307833" lon="-1.25624167">
        <ele>1000.0</ele>
        <time>2019-08-01T08:42:52.043Z</time>
      </trkpt>
      <trkpt lat="43.03307167" lon="-1.25623833">
        <ele>1000.0</ele>
        <time>2019-08-01T08:42:52.923Z</time>
      </trkpt>
      <trkpt lat="43.03306" lon="-1.25623167">
        <ele>1000.0</ele>
        <time>2019-08-01T08:42:53.928Z</time>
      </trkpt>
      <trkpt lat="43.03304833" lon="-1.25622667">
        <ele>999.0</ele>
        <time>2019-08-01T08:42:54.933Z</time>
      </trkpt>
      <trkpt lat="43.03304" lon="-1.25622167">
        <ele>999.0</ele>
        <time>2019-08-01T08:42:55.937Z</time>
      </trkpt>
      <trkpt lat="43.03303167" lon="-1.25622333">
        <ele>999.0</ele>
        <time>2019-08-01T08:42:56.944Z</time>
      </trkpt>
      <trkpt lat="43.03302667" lon="-1.25622667">
        <ele>999.0</ele>
        <time>2019-08-01T08:42:57.948Z</time>
      </trkpt>
      <trkpt lat="43.03302667" lon="-1.25622833">
        <ele>999.0</ele>
        <time>2019-08-01T08:42:58.955Z</time>
      </trkpt>
      <trkpt lat="43.033025" lon="-1.25622833">
        <ele>1000.0</ele>
        <time>2019-08-01T08:42:59.959Z</time>
      </trkpt>
      <trkpt lat="43.03302333" lon="-1.25622833">
        <ele>999.0</ele>
        <time>2019-08-01T08:43:00.965Z</time>
      </trkpt>
      <trkpt lat="43.03302167" lon="-1.25622">
        <ele>1000.0</ele>
        <time>2019-08-01T08:43:01.968Z</time>
      </trkpt>
      <trkpt lat="43.03301833" lon="-1.25620833">
        <ele>1000.0</ele>
        <time>2019-08-01T08:43:02.972Z</time>
      </trkpt>
      <trkpt lat="43.03301833" lon="-1.25619833">
        <ele>1000.0</ele>
        <time>2019-08-01T08:43:03.980Z</time>
      </trkpt>
      <trkpt lat="43.033015" lon="-1.256195">
        <ele>1001.0</ele>
        <time>2019-08-01T08:43:04.987Z</time>
      </trkpt>
      <trkpt lat="43.03300833" lon="-1.25619167">
        <ele>1000.0</ele>
        <time>2019-08-01T08:43:05.991Z</time>
      </trkpt>
      <trkpt lat="43.03300833" lon="-1.25619333">
        <ele>1001.0</ele>
        <time>2019-08-01T08:43:06.996Z</time>
      </trkpt>
      <trkpt lat="43.033015" lon="-1.25621333">
        <ele>1001.0</ele>
        <time>2019-08-01T08:43:08.001Z</time>
      </trkpt>
      <trkpt lat="43.03302" lon="-1.25622667">
        <ele>1002.0</ele>
        <time>2019-08-01T08:43:09.007Z</time>
      </trkpt>
      <trkpt lat="43.033025" lon="-1.25623833">
        <ele>1002.0</ele>
        <time>2019-08-01T08:43:10.011Z</time>
      </trkpt>
      <trkpt lat="43.033025" lon="-1.25625667">
        <ele>1002.0</ele>
        <time>2019-08-01T08:43:11.017Z</time>
      </trkpt>
      <trkpt lat="43.033025" lon="-1.256275">
        <ele>1002.0</ele>
        <time>2019-08-01T08:43:12.022Z</time>
      </trkpt>
      <trkpt lat="43.03302167" lon="-1.25629167">
        <ele>1002.0</ele>
        <time>2019-08-01T08:43:13.028Z</time>
      </trkpt>
      <trkpt lat="43.033025" lon="-1.2563">
        <ele>1002.0</ele>
        <time>2019-08-01T08:43:14.034Z</time>
      </trkpt>
      <trkpt lat="43.03303167" lon="-1.25631333">
        <ele>1002.0</ele>
        <time>2019-08-01T08:43:15.041Z</time>
      </trkpt>
      <trkpt lat="43.03304" lon="-1.25631">
        <ele>1002.0</ele>
        <time>2019-08-01T08:43:15.921Z</time>
      </trkpt>
      <trkpt lat="43.03304167" lon="-1.25630833">
        <ele>1002.0</ele>
        <time>2019-08-01T08:43:16.928Z</time>
      </trkpt>
      <trkpt lat="43.03304333" lon="-1.25631333">
        <ele>1003.0</ele>
        <time>2019-08-01T08:43:17.933Z</time>
      </trkpt>
      <trkpt lat="43.03304167" lon="-1.25632167">
        <ele>1003.0</ele>
        <time>2019-08-01T08:43:18.940Z</time>
      </trkpt>
      <trkpt lat="43.03303667" lon="-1.25633167">
        <ele>1002.0</ele>
        <time>2019-08-01T08:43:19.944Z</time>
      </trkpt>
      <trkpt lat="43.03303" lon="-1.256345">
        <ele>1003.0</ele>
        <time>2019-08-01T08:43:20.951Z</time>
      </trkpt>
      <trkpt lat="43.03302" lon="-1.25635667">
        <ele>1004.0</ele>
        <time>2019-08-01T08:43:21.959Z</time>
      </trkpt>
      <trkpt lat="43.03301667" lon="-1.25638">
        <ele>1005.0</ele>
        <time>2019-08-01T08:43:22.963Z</time>
      </trkpt>
      <trkpt lat="43.03301833" lon="-1.25640333">
        <ele>1005.0</ele>
        <time>2019-08-01T08:43:23.969Z</time>
      </trkpt>
      <trkpt lat="43.03301833" lon="-1.256425">
        <ele>1006.0</ele>
        <time>2019-08-01T08:43:24.974Z</time>
      </trkpt>
      <trkpt lat="43.03301167" lon="-1.256445">
        <ele>1007.0</ele>
        <time>2019-08-01T08:43:25.980Z</time>
      </trkpt>
      <trkpt lat="43.03300667" lon="-1.25646333">
        <ele>1007.0</ele>
        <time>2019-08-01T08:43:26.986Z</time>
      </trkpt>
      <trkpt lat="43.03300167" lon="-1.256485">
        <ele>1007.0</ele>
        <time>2019-08-01T08:43:27.993Z</time>
      </trkpt>
      <trkpt lat="43.03299833" lon="-1.25651">
        <ele>1006.0</ele>
        <time>2019-08-01T08:43:28.999Z</time>
      </trkpt>
      <trkpt lat="43.033" lon="-1.25653167">
        <ele>1005.0</ele>
        <time>2019-08-01T08:43:30.005Z</time>
      </trkpt>
      <trkpt lat="43.033" lon="-1.25655667">
        <ele>1005.0</ele>
        <time>2019-08-01T08:43:31.011Z</time>
      </trkpt>
      <trkpt lat="43.03300667" lon="-1.25657167">
        <ele>1005.0</ele>
        <time>2019-08-01T08:43:32.015Z</time>
      </trkpt>
      <trkpt lat="43.03300833" lon="-1.25658833">
        <ele>1005.0</ele>
        <time>2019-08-01T08:43:33.022Z</time>
      </trkpt>
      <trkpt lat="43.03301167" lon="-1.256605">
        <ele>1004.0</ele>
        <time>2019-08-01T08:43:34.027Z</time>
      </trkpt>
      <trkpt lat="43.03301833" lon="-1.25662">
        <ele>1004.0</ele>
        <time>2019-08-01T08:43:35.033Z</time>
      </trkpt>
      <trkpt lat="43.03302167" lon="-1.256635">
        <ele>1005.0</ele>
        <time>2019-08-01T08:43:36.038Z</time>
      </trkpt>
      <trkpt lat="43.03302667" lon="-1.25664833">
        <ele>1005.0</ele>
        <time>2019-08-01T08:43:37.042Z</time>
      </trkpt>
      <trkpt lat="43.033025" lon="-1.25665833">
        <ele>1006.0</ele>
        <time>2019-08-01T08:43:37.923Z</time>
      </trkpt>
      <trkpt lat="43.03302833" lon="-1.25666833">
        <ele>1007.0</ele>
        <time>2019-08-01T08:43:38.929Z</time>
      </trkpt>
      <trkpt lat="43.033035" lon="-1.25668833">
        <ele>1007.0</ele>
        <time>2019-08-01T08:43:39.934Z</time>
      </trkpt>
      <trkpt lat="43.03304333" lon="-1.25671">
        <ele>1007.0</ele>
        <time>2019-08-01T08:43:40.942Z</time>
      </trkpt>
      <trkpt lat="43.03304833" lon="-1.25673">
        <ele>1007.0</ele>
        <time>2019-08-01T08:43:41.947Z</time>
      </trkpt>
      <trkpt lat="43.03305667" lon="-1.25675333">
        <ele>1007.0</ele>
        <time>2019-08-01T08:43:42.951Z</time>
      </trkpt>
      <trkpt lat="43.03306333" lon="-1.25676667">
        <ele>1007.0</ele>
        <time>2019-08-01T08:43:43.955Z</time>
      </trkpt>
      <trkpt lat="43.03306833" lon="-1.25677">
        <ele>1007.0</ele>
        <time>2019-08-01T08:43:44.961Z</time>
      </trkpt>
      <trkpt lat="43.03307333" lon="-1.25677833">
        <ele>1006.0</ele>
        <time>2019-08-01T08:43:45.965Z</time>
      </trkpt>
      <trkpt lat="43.03308667" lon="-1.25679">
        <ele>1006.0</ele>
        <time>2019-08-01T08:43:46.971Z</time>
      </trkpt>
      <trkpt lat="43.03309667" lon="-1.25680833">
        <ele>1007.0</ele>
        <time>2019-08-01T08:43:47.975Z</time>
      </trkpt>
      <trkpt lat="43.03309833" lon="-1.25683">
        <ele>1007.0</ele>
        <time>2019-08-01T08:43:48.981Z</time>
      </trkpt>
      <trkpt lat="43.03310167" lon="-1.25684833">
        <ele>1007.0</ele>
        <time>2019-08-01T08:43:49.985Z</time>
      </trkpt>
      <trkpt lat="43.03310167" lon="-1.25687333">
        <ele>1007.0</ele>
        <time>2019-08-01T08:43:50.988Z</time>
      </trkpt>
      <trkpt lat="43.033105" lon="-1.25689333">
        <ele>1007.0</ele>
        <time>2019-08-01T08:43:51.992Z</time>
      </trkpt>
      <trkpt lat="43.03311167" lon="-1.25691">
        <ele>1007.0</ele>
        <time>2019-08-01T08:43:52.996Z</time>
      </trkpt>
      <trkpt lat="43.03311667" lon="-1.25692333">
        <ele>1006.0</ele>
        <time>2019-08-01T08:43:54.002Z</time>
      </trkpt>
      <trkpt lat="43.03312667" lon="-1.256945">
        <ele>1005.0</ele>
        <time>2019-08-01T08:43:55.008Z</time>
      </trkpt>
      <trkpt lat="43.03313" lon="-1.25696833">
        <ele>1003.0</ele>
        <time>2019-08-01T08:43:56.011Z</time>
      </trkpt>
      <trkpt lat="43.03313333" lon="-1.25699333">
        <ele>1002.0</ele>
        <time>2019-08-01T08:43:57.016Z</time>
      </trkpt>
      <trkpt lat="43.03313333" lon="-1.25701833">
        <ele>1002.0</ele>
        <time>2019-08-01T08:43:58.022Z</time>
      </trkpt>
      <trkpt lat="43.03313667" lon="-1.25704667">
        <ele>1002.0</ele>
        <time>2019-08-01T08:43:59.027Z</time>
      </trkpt>
      <trkpt lat="43.03314167" lon="-1.25707">
        <ele>1003.0</ele>
        <time>2019-08-01T08:44:00.034Z</time>
      </trkpt>
      <trkpt lat="43.033155" lon="-1.25708833">
        <ele>1004.0</ele>
        <time>2019-08-01T08:44:01.042Z</time>
      </trkpt>
      <trkpt lat="43.03317167" lon="-1.25710167">
        <ele>1005.0</ele>
        <time>2019-08-01T08:44:01.923Z</time>
      </trkpt>
      <trkpt lat="43.033185" lon="-1.25711333">
        <ele>1005.0</ele>
        <time>2019-08-01T08:44:02.928Z</time>
      </trkpt>
      <trkpt lat="43.03319667" lon="-1.257125">
        <ele>1005.0</ele>
        <time>2019-08-01T08:44:03.935Z</time>
      </trkpt>
      <trkpt lat="43.03320833" lon="-1.25714">
        <ele>1006.0</ele>
        <time>2019-08-01T08:44:04.941Z</time>
      </trkpt>
      <trkpt lat="43.03322" lon="-1.25715667">
        <ele>1005.0</ele>
        <time>2019-08-01T08:44:05.945Z</time>
      </trkpt>
      <trkpt lat="43.033235" lon="-1.257165">
        <ele>1005.0</ele>
        <time>2019-08-01T08:44:06.948Z</time>
      </trkpt>
      <trkpt lat="43.033255" lon="-1.25717167">
        <ele>1005.0</ele>
        <time>2019-08-01T08:44:07.954Z</time>
      </trkpt>
      <trkpt lat="43.03326667" lon="-1.25717833">
        <ele>1004.0</ele>
        <time>2019-08-01T08:44:08.961Z</time>
      </trkpt>
      <trkpt lat="43.03327833" lon="-1.25718833">
        <ele>1005.0</ele>
        <time>2019-08-01T08:44:09.969Z</time>
      </trkpt>
      <trkpt lat="43.03328" lon="-1.25720333">
        <ele>1004.0</ele>
        <time>2019-08-01T08:44:10.974Z</time>
      </trkpt>
      <trkpt lat="43.03329" lon="-1.25722333">
        <ele>1003.0</ele>
        <time>2019-08-01T08:44:11.980Z</time>
      </trkpt>
      <trkpt lat="43.033295" lon="-1.25724">
        <ele>1003.0</ele>
        <time>2019-08-01T08:44:12.985Z</time>
      </trkpt>
      <trkpt lat="43.03329333" lon="-1.25725333">
        <ele>1004.0</ele>
        <time>2019-08-01T08:44:13.990Z</time>
      </trkpt>
      <trkpt lat="43.03329" lon="-1.25726833">
        <ele>1004.0</ele>
        <time>2019-08-01T08:44:14.996Z</time>
      </trkpt>
      <trkpt lat="43.03329" lon="-1.25728667">
        <ele>1004.0</ele>
        <time>2019-08-01T08:44:16.003Z</time>
      </trkpt>
      <trkpt lat="43.03329333" lon="-1.25730833">
        <ele>1004.0</ele>
        <time>2019-08-01T08:44:17.007Z</time>
      </trkpt>
      <trkpt lat="43.033295" lon="-1.25732167">
        <ele>1004.0</ele>
        <time>2019-08-01T08:44:18.012Z</time>
      </trkpt>
      <trkpt lat="43.033295" lon="-1.25732833">
        <ele>1004.0</ele>
        <time>2019-08-01T08:44:19.020Z</time>
      </trkpt>
      <trkpt lat="43.03328833" lon="-1.257335">
        <ele>1004.0</ele>
        <time>2019-08-01T08:44:20.028Z</time>
      </trkpt>
      <trkpt lat="43.03328" lon="-1.25735">
        <ele>1005.0</ele>
        <time>2019-08-01T08:44:21.034Z</time>
      </trkpt>
      <trkpt lat="43.03327667" lon="-1.25737167">
        <ele>1006.0</ele>
        <time>2019-08-01T08:44:22.040Z</time>
      </trkpt>
      <trkpt lat="43.03327667" lon="-1.25738667">
        <ele>1006.0</ele>
        <time>2019-08-01T08:44:22.920Z</time>
      </trkpt>
      <trkpt lat="43.03327333" lon="-1.2574">
        <ele>1005.0</ele>
        <time>2019-08-01T08:44:23.927Z</time>
      </trkpt>
      <trkpt lat="43.03326833" lon="-1.25741">
        <ele>1005.0</ele>
        <time>2019-08-01T08:44:24.930Z</time>
      </trkpt>
      <trkpt lat="43.03325667" lon="-1.257425">
        <ele>1004.0</ele>
        <time>2019-08-01T08:44:25.937Z</time>
      </trkpt>
      <trkpt lat="43.03324833" lon="-1.25743667">
        <ele>1004.0</ele>
        <time>2019-08-01T08:44:26.943Z</time>
      </trkpt>
      <trkpt lat="43.03324167" lon="-1.25745167">
        <ele>1003.0</ele>
        <time>2019-08-01T08:44:27.950Z</time>
      </trkpt>
      <trkpt lat="43.03324167" lon="-1.25746167">
        <ele>1003.0</ele>
        <time>2019-08-01T08:44:28.956Z</time>
      </trkpt>
      <trkpt lat="43.03324333" lon="-1.25747667">
        <ele>1003.0</ele>
        <time>2019-08-01T08:44:29.962Z</time>
      </trkpt>
      <trkpt lat="43.03324667" lon="-1.25749333">
        <ele>1003.0</ele>
        <time>2019-08-01T08:44:30.968Z</time>
      </trkpt>
      <trkpt lat="43.033255" lon="-1.25750667">
        <ele>1004.0</ele>
        <time>2019-08-01T08:44:31.973Z</time>
      </trkpt>
      <trkpt lat="43.03326667" lon="-1.25751667">
        <ele>1005.0</ele>
        <time>2019-08-01T08:44:32.979Z</time>
      </trkpt>
      <trkpt lat="43.03327833" lon="-1.25752167">
        <ele>1006.0</ele>
        <time>2019-08-01T08:44:33.983Z</time>
      </trkpt>
      <trkpt lat="43.03328833" lon="-1.257535">
        <ele>1005.0</ele>
        <time>2019-08-01T08:44:34.989Z</time>
      </trkpt>
      <trkpt lat="43.03329" lon="-1.25755">
        <ele>1004.0</ele>
        <time>2019-08-01T08:44:35.995Z</time>
      </trkpt>
      <trkpt lat="43.03329" lon="-1.25756">
        <ele>1003.0</ele>
        <time>2019-08-01T08:44:37.001Z</time>
      </trkpt>
      <trkpt lat="43.03329" lon="-1.257565">
        <ele>1003.0</ele>
        <time>2019-08-01T08:44:38.009Z</time>
      </trkpt>
      <trkpt lat="43.033285" lon="-1.257575">
        <ele>1001.0</ele>
        <time>2019-08-01T08:44:39.014Z</time>
      </trkpt>
      <trkpt lat="43.03328667" lon="-1.25759333">
        <ele>1001.0</ele>
        <time>2019-08-01T08:44:40.016Z</time>
      </trkpt>
      <trkpt lat="43.03329333" lon="-1.25761667">
        <ele>1000.0</ele>
        <time>2019-08-01T08:44:41.023Z</time>
      </trkpt>
      <trkpt lat="43.03330167" lon="-1.25764333">
        <ele>999.0</ele>
        <time>2019-08-01T08:44:42.030Z</time>
      </trkpt>
      <trkpt lat="43.03331" lon="-1.25766333">
        <ele>1000.0</ele>
        <time>2019-08-01T08:44:43.036Z</time>
      </trkpt>
      <trkpt lat="43.03331833" lon="-1.25768833">
        <ele>1000.0</ele>
        <time>2019-08-01T08:44:44.041Z</time>
      </trkpt>
      <trkpt lat="43.03332833" lon="-1.25771333">
        <ele>999.0</ele>
        <time>2019-08-01T08:44:44.923Z</time>
      </trkpt>
      <trkpt lat="43.03334167" lon="-1.25774167">
        <ele>999.0</ele>
        <time>2019-08-01T08:44:45.928Z</time>
      </trkpt>
      <trkpt lat="43.03335167" lon="-1.257765">
        <ele>998.0</ele>
        <time>2019-08-01T08:44:46.934Z</time>
      </trkpt>
      <trkpt lat="43.03336333" lon="-1.25778167">
        <ele>998.0</ele>
        <time>2019-08-01T08:44:47.940Z</time>
      </trkpt>
      <trkpt lat="43.03337167" lon="-1.25779167">
        <ele>997.0</ele>
        <time>2019-08-01T08:44:48.946Z</time>
      </trkpt>
      <trkpt lat="43.033375" lon="-1.25779667">
        <ele>997.0</ele>
        <time>2019-08-01T08:44:49.952Z</time>
      </trkpt>
      <trkpt lat="43.033385" lon="-1.25781667">
        <ele>997.0</ele>
        <time>2019-08-01T08:44:50.958Z</time>
      </trkpt>
      <trkpt lat="43.03339333" lon="-1.25783667">
        <ele>996.0</ele>
        <time>2019-08-01T08:44:51.964Z</time>
      </trkpt>
      <trkpt lat="43.03340167" lon="-1.25786167">
        <ele>997.0</ele>
        <time>2019-08-01T08:44:52.969Z</time>
      </trkpt>
      <trkpt lat="43.03340833" lon="-1.25787833">
        <ele>996.0</ele>
        <time>2019-08-01T08:44:53.974Z</time>
      </trkpt>
      <trkpt lat="43.03342167" lon="-1.257885">
        <ele>994.0</ele>
        <time>2019-08-01T08:44:54.981Z</time>
      </trkpt>
      <trkpt lat="43.033435" lon="-1.25789333">
        <ele>993.0</ele>
        <time>2019-08-01T08:44:55.984Z</time>
      </trkpt>
      <trkpt lat="43.03344667" lon="-1.25791167">
        <ele>993.0</ele>
        <time>2019-08-01T08:44:56.988Z</time>
      </trkpt>
      <trkpt lat="43.033455" lon="-1.257925">
        <ele>993.0</ele>
        <time>2019-08-01T08:44:57.993Z</time>
      </trkpt>
      <trkpt lat="43.033465" lon="-1.25793667">
        <ele>993.0</ele>
        <time>2019-08-01T08:44:59.000Z</time>
      </trkpt>
      <trkpt lat="43.03347" lon="-1.25795">
        <ele>992.0</ele>
        <time>2019-08-01T08:45:00.005Z</time>
      </trkpt>
      <trkpt lat="43.03347167" lon="-1.25796333">
        <ele>991.0</ele>
        <time>2019-08-01T08:45:01.011Z</time>
      </trkpt>
      <trkpt lat="43.03346" lon="-1.25797833">
        <ele>991.0</ele>
        <time>2019-08-01T08:45:02.018Z</time>
      </trkpt>
      <trkpt lat="43.03345333" lon="-1.25799167">
        <ele>991.0</ele>
        <time>2019-08-01T08:45:03.024Z</time>
      </trkpt>
      <trkpt lat="43.03345667" lon="-1.25800833">
        <ele>991.0</ele>
        <time>2019-08-01T08:45:04.031Z</time>
      </trkpt>
      <trkpt lat="43.03345667" lon="-1.258025">
        <ele>993.0</ele>
        <time>2019-08-01T08:45:05.037Z</time>
      </trkpt>
      <trkpt lat="43.03345667" lon="-1.258035">
        <ele>994.0</ele>
        <time>2019-08-01T08:45:05.918Z</time>
      </trkpt>
      <trkpt lat="43.03345667" lon="-1.25804333">
        <ele>994.0</ele>
        <time>2019-08-01T08:45:06.922Z</time>
      </trkpt>
      <trkpt lat="43.03345833" lon="-1.258055">
        <ele>994.0</ele>
        <time>2019-08-01T08:45:07.928Z</time>
      </trkpt>
      <trkpt lat="43.03345333" lon="-1.25807333">
        <ele>994.0</ele>
        <time>2019-08-01T08:45:08.932Z</time>
      </trkpt>
      <trkpt lat="43.033445" lon="-1.25809333">
        <ele>994.0</ele>
        <time>2019-08-01T08:45:09.938Z</time>
      </trkpt>
      <trkpt lat="43.03344333" lon="-1.25811167">
        <ele>994.0</ele>
        <time>2019-08-01T08:45:10.944Z</time>
      </trkpt>
      <trkpt lat="43.03343833" lon="-1.25813167">
        <ele>993.0</ele>
        <time>2019-08-01T08:45:11.949Z</time>
      </trkpt>
      <trkpt lat="43.03343167" lon="-1.25814833">
        <ele>992.0</ele>
        <time>2019-08-01T08:45:12.955Z</time>
      </trkpt>
      <trkpt lat="43.03342667" lon="-1.258155">
        <ele>993.0</ele>
        <time>2019-08-01T08:45:13.961Z</time>
      </trkpt>
      <trkpt lat="43.03341667" lon="-1.25816167">
        <ele>993.0</ele>
        <time>2019-08-01T08:45:14.966Z</time>
      </trkpt>
      <trkpt lat="43.03340833" lon="-1.258175">
        <ele>993.0</ele>
        <time>2019-08-01T08:45:15.970Z</time>
      </trkpt>
      <trkpt lat="43.03341333" lon="-1.25820333">
        <ele>992.0</ele>
        <time>2019-08-01T08:45:16.975Z</time>
      </trkpt>
      <trkpt lat="43.03340833" lon="-1.25823">
        <ele>991.0</ele>
        <time>2019-08-01T08:45:17.982Z</time>
      </trkpt>
      <trkpt lat="43.03340167" lon="-1.25824667">
        <ele>992.0</ele>
        <time>2019-08-01T08:45:18.987Z</time>
      </trkpt>
      <trkpt lat="43.0334" lon="-1.25826167">
        <ele>993.0</ele>
        <time>2019-08-01T08:45:19.993Z</time>
      </trkpt>
      <trkpt lat="43.0334" lon="-1.25827833">
        <ele>993.0</ele>
        <time>2019-08-01T08:45:20.996Z</time>
      </trkpt>
      <trkpt lat="43.03340167" lon="-1.25829">
        <ele>994.0</ele>
        <time>2019-08-01T08:45:22.000Z</time>
      </trkpt>
      <trkpt lat="43.03340333" lon="-1.258295">
        <ele>995.0</ele>
        <time>2019-08-01T08:45:23.008Z</time>
      </trkpt>
      <trkpt lat="43.03340833" lon="-1.25829833">
        <ele>995.0</ele>
        <time>2019-08-01T08:45:24.014Z</time>
      </trkpt>
      <trkpt lat="43.03341333" lon="-1.25830833">
        <ele>995.0</ele>
        <time>2019-08-01T08:45:25.018Z</time>
      </trkpt>
      <trkpt lat="43.033415" lon="-1.25832">
        <ele>995.0</ele>
        <time>2019-08-01T08:45:26.022Z</time>
      </trkpt>
      <trkpt lat="43.03342167" lon="-1.258335">
        <ele>994.0</ele>
        <time>2019-08-01T08:45:27.027Z</time>
      </trkpt>
      <trkpt lat="43.03343" lon="-1.25835333">
        <ele>993.0</ele>
        <time>2019-08-01T08:45:28.032Z</time>
      </trkpt>
      <trkpt lat="43.03344667" lon="-1.258375">
        <ele>991.0</ele>
        <time>2019-08-01T08:45:29.037Z</time>
      </trkpt>
      <trkpt lat="43.03346833" lon="-1.2584">
        <ele>990.0</ele>
        <time>2019-08-01T08:45:29.919Z</time>
      </trkpt>
      <trkpt lat="43.033485" lon="-1.25842333">
        <ele>990.0</ele>
        <time>2019-08-01T08:45:30.923Z</time>
      </trkpt>
      <trkpt lat="43.0335" lon="-1.25844667">
        <ele>990.0</ele>
        <time>2019-08-01T08:45:31.928Z</time>
      </trkpt>
      <trkpt lat="43.03351" lon="-1.25847167">
        <ele>990.0</ele>
        <time>2019-08-01T08:45:32.933Z</time>
      </trkpt>
      <trkpt lat="43.03351167" lon="-1.25849667">
        <ele>991.0</ele>
        <time>2019-08-01T08:45:33.939Z</time>
      </trkpt>
      <trkpt lat="43.033525" lon="-1.25851667">
        <ele>991.0</ele>
        <time>2019-08-01T08:45:34.945Z</time>
      </trkpt>
      <trkpt lat="43.03354833" lon="-1.258525">
        <ele>992.0</ele>
        <time>2019-08-01T08:45:35.951Z</time>
      </trkpt>
      <trkpt lat="43.03356667" lon="-1.25853">
        <ele>991.0</ele>
        <time>2019-08-01T08:45:36.958Z</time>
      </trkpt>
      <trkpt lat="43.03358667" lon="-1.25854167">
        <ele>991.0</ele>
        <time>2019-08-01T08:45:37.964Z</time>
      </trkpt>
      <trkpt lat="43.03360167" lon="-1.25856">
        <ele>991.0</ele>
        <time>2019-08-01T08:45:38.969Z</time>
      </trkpt>
      <trkpt lat="43.03362" lon="-1.25858167">
        <ele>990.0</ele>
        <time>2019-08-01T08:45:39.977Z</time>
      </trkpt>
      <trkpt lat="43.03363333" lon="-1.258595">
        <ele>989.0</ele>
        <time>2019-08-01T08:45:40.982Z</time>
      </trkpt>
      <trkpt lat="43.03364833" lon="-1.25860167">
        <ele>989.0</ele>
        <time>2019-08-01T08:45:41.987Z</time>
      </trkpt>
      <trkpt lat="43.033655" lon="-1.25860667">
        <ele>989.0</ele>
        <time>2019-08-01T08:45:42.994Z</time>
      </trkpt>
      <trkpt lat="43.03366333" lon="-1.258615">
        <ele>990.0</ele>
        <time>2019-08-01T08:45:44.000Z</time>
      </trkpt>
      <trkpt lat="43.03366833" lon="-1.25862667">
        <ele>991.0</ele>
        <time>2019-08-01T08:45:45.005Z</time>
      </trkpt>
      <trkpt lat="43.03368167" lon="-1.25863833">
        <ele>992.0</ele>
        <time>2019-08-01T08:45:46.011Z</time>
      </trkpt>
      <trkpt lat="43.033705" lon="-1.25865333">
        <ele>992.0</ele>
        <time>2019-08-01T08:45:47.018Z</time>
      </trkpt>
      <trkpt lat="43.03372333" lon="-1.25867333">
        <ele>993.0</ele>
        <time>2019-08-01T08:45:48.023Z</time>
      </trkpt>
      <trkpt lat="43.03373333" lon="-1.25868667">
        <ele>994.0</ele>
        <time>2019-08-01T08:45:49.027Z</time>
      </trkpt>
      <trkpt lat="43.03374" lon="-1.258695">
        <ele>995.0</ele>
        <time>2019-08-01T08:45:50.032Z</time>
      </trkpt>
      <trkpt lat="43.03374" lon="-1.25869333">
        <ele>995.0</ele>
        <time>2019-08-01T08:45:51.035Z</time>
      </trkpt>
      <trkpt lat="43.03374833" lon="-1.25869167">
        <ele>995.0</ele>
        <time>2019-08-01T08:45:52.039Z</time>
      </trkpt>
      <trkpt lat="43.03375833" lon="-1.258695">
        <ele>995.0</ele>
        <time>2019-08-01T08:45:52.921Z</time>
      </trkpt>
      <trkpt lat="43.033765" lon="-1.25870167">
        <ele>994.0</ele>
        <time>2019-08-01T08:45:53.927Z</time>
      </trkpt>
      <trkpt lat="43.03377167" lon="-1.25871333">
        <ele>996.0</ele>
        <time>2019-08-01T08:45:54.933Z</time>
      </trkpt>
      <trkpt lat="43.033775" lon="-1.25872667">
        <ele>997.0</ele>
        <time>2019-08-01T08:45:55.939Z</time>
      </trkpt>
      <trkpt lat="43.03377833" lon="-1.25873833">
        <ele>997.0</ele>
        <time>2019-08-01T08:45:56.944Z</time>
      </trkpt>
      <trkpt lat="43.03377667" lon="-1.25874333">
        <ele>997.0</ele>
        <time>2019-08-01T08:45:57.949Z</time>
      </trkpt>
      <trkpt lat="43.033775" lon="-1.25875333">
        <ele>997.0</ele>
        <time>2019-08-01T08:45:58.955Z</time>
      </trkpt>
      <trkpt lat="43.03377667" lon="-1.25876333">
        <ele>997.0</ele>
        <time>2019-08-01T08:45:59.962Z</time>
      </trkpt>
      <trkpt lat="43.03377833" lon="-1.25878">
        <ele>998.0</ele>
        <time>2019-08-01T08:46:00.969Z</time>
      </trkpt>
      <trkpt lat="43.03378167" lon="-1.258795">
        <ele>998.0</ele>
        <time>2019-08-01T08:46:01.971Z</time>
      </trkpt>
      <trkpt lat="43.03379" lon="-1.25881">
        <ele>998.0</ele>
        <time>2019-08-01T08:46:02.978Z</time>
      </trkpt>
      <trkpt lat="43.0338" lon="-1.25882667">
        <ele>999.0</ele>
        <time>2019-08-01T08:46:03.982Z</time>
      </trkpt>
      <trkpt lat="43.03381333" lon="-1.258845">
        <ele>999.0</ele>
        <time>2019-08-01T08:46:04.988Z</time>
      </trkpt>
      <trkpt lat="43.03382" lon="-1.25885667">
        <ele>999.0</ele>
        <time>2019-08-01T08:46:05.995Z</time>
      </trkpt>
      <trkpt lat="43.03382167" lon="-1.25886167">
        <ele>1000.0</ele>
        <time>2019-08-01T08:46:06.998Z</time>
      </trkpt>
      <trkpt lat="43.033825" lon="-1.25886667">
        <ele>1000.0</ele>
        <time>2019-08-01T08:46:08.004Z</time>
      </trkpt>
      <trkpt lat="43.03383333" lon="-1.25887167">
        <ele>1000.0</ele>
        <time>2019-08-01T08:46:09.008Z</time>
      </trkpt>
      <trkpt lat="43.03384" lon="-1.258885">
        <ele>1000.0</ele>
        <time>2019-08-01T08:46:10.014Z</time>
      </trkpt>
      <trkpt lat="43.03385167" lon="-1.2589">
        <ele>1001.0</ele>
        <time>2019-08-01T08:46:11.021Z</time>
      </trkpt>
      <trkpt lat="43.03385167" lon="-1.25891833">
        <ele>1000.0</ele>
        <time>2019-08-01T08:46:12.027Z</time>
      </trkpt>
      <trkpt lat="43.03385667" lon="-1.25893333">
        <ele>999.0</ele>
        <time>2019-08-01T08:46:13.034Z</time>
      </trkpt>
      <trkpt lat="43.03386167" lon="-1.25894167">
        <ele>998.0</ele>
        <time>2019-08-01T08:46:14.040Z</time>
      </trkpt>
      <trkpt lat="43.03387333" lon="-1.25894833">
        <ele>999.0</ele>
        <time>2019-08-01T08:46:14.920Z</time>
      </trkpt>
      <trkpt lat="43.03388167" lon="-1.25895333">
        <ele>1000.0</ele>
        <time>2019-08-01T08:46:15.927Z</time>
      </trkpt>
      <trkpt lat="43.03388833" lon="-1.25896">
        <ele>1001.0</ele>
        <time>2019-08-01T08:46:16.930Z</time>
      </trkpt>
      <trkpt lat="43.03389667" lon="-1.25897333">
        <ele>1002.0</ele>
        <time>2019-08-01T08:46:17.937Z</time>
      </trkpt>
      <trkpt lat="43.03391" lon="-1.25898667">
        <ele>1002.0</ele>
        <time>2019-08-01T08:46:18.943Z</time>
      </trkpt>
      <trkpt lat="43.03392667" lon="-1.258995">
        <ele>1003.0</ele>
        <time>2019-08-01T08:46:19.948Z</time>
      </trkpt>
      <trkpt lat="43.03394" lon="-1.259005">
        <ele>1003.0</ele>
        <time>2019-08-01T08:46:20.954Z</time>
      </trkpt>
      <trkpt lat="43.03394167" lon="-1.25901833">
        <ele>1004.0</ele>
        <time>2019-08-01T08:46:21.960Z</time>
      </trkpt>
      <trkpt lat="43.03393667" lon="-1.25903">
        <ele>1004.0</ele>
        <time>2019-08-01T08:46:22.968Z</time>
      </trkpt>
      <trkpt lat="43.03393667" lon="-1.25904833">
        <ele>1005.0</ele>
        <time>2019-08-01T08:46:23.971Z</time>
      </trkpt>
      <trkpt lat="43.03393833" lon="-1.259055">
        <ele>1005.0</ele>
        <time>2019-08-01T08:46:24.977Z</time>
      </trkpt>
      <trkpt lat="43.03394667" lon="-1.25907167">
        <ele>1006.0</ele>
        <time>2019-08-01T08:46:25.980Z</time>
      </trkpt>
      <trkpt lat="43.03395" lon="-1.25909667">
        <ele>1005.0</ele>
        <time>2019-08-01T08:46:26.985Z</time>
      </trkpt>
      <trkpt lat="43.03396667" lon="-1.25912833">
        <ele>1004.0</ele>
        <time>2019-08-01T08:46:27.991Z</time>
      </trkpt>
      <trkpt lat="43.03397833" lon="-1.25914333">
        <ele>1005.0</ele>
        <time>2019-08-01T08:46:28.996Z</time>
      </trkpt>
      <trkpt lat="43.03399333" lon="-1.259165">
        <ele>1005.0</ele>
        <time>2019-08-01T08:46:30.002Z</time>
      </trkpt>
      <trkpt lat="43.03400167" lon="-1.25918167">
        <ele>1006.0</ele>
        <time>2019-08-01T08:46:31.009Z</time>
      </trkpt>
      <trkpt lat="43.03399833" lon="-1.25919333">
        <ele>1007.0</ele>
        <time>2019-08-01T08:46:32.016Z</time>
      </trkpt>
      <trkpt lat="43.03400333" lon="-1.25921">
        <ele>1008.0</ele>
        <time>2019-08-01T08:46:33.022Z</time>
      </trkpt>
      <trkpt lat="43.034015" lon="-1.25922333">
        <ele>1009.0</ele>
        <time>2019-08-01T08:46:34.027Z</time>
      </trkpt>
      <trkpt lat="43.03402667" lon="-1.25924167">
        <ele>1009.0</ele>
        <time>2019-08-01T08:46:35.033Z</time>
      </trkpt>
      <trkpt lat="43.03403333" lon="-1.25925333">
        <ele>1010.0</ele>
        <time>2019-08-01T08:46:36.038Z</time>
      </trkpt>
      <trkpt lat="43.034035" lon="-1.25926833">
        <ele>1011.0</ele>
        <time>2019-08-01T08:46:36.918Z</time>
      </trkpt>
      <trkpt lat="43.03403833" lon="-1.25928167">
        <ele>1011.0</ele>
        <time>2019-08-01T08:46:37.925Z</time>
      </trkpt>
      <trkpt lat="43.03404333" lon="-1.25930167">
        <ele>1011.0</ele>
        <time>2019-08-01T08:46:38.929Z</time>
      </trkpt>
      <trkpt lat="43.03405667" lon="-1.25932667">
        <ele>1011.0</ele>
        <time>2019-08-01T08:46:39.935Z</time>
      </trkpt>
      <trkpt lat="43.034065" lon="-1.25934833">
        <ele>1011.0</ele>
        <time>2019-08-01T08:46:40.940Z</time>
      </trkpt>
      <trkpt lat="43.034065" lon="-1.25936333">
        <ele>1012.0</ele>
        <time>2019-08-01T08:46:41.943Z</time>
      </trkpt>
      <trkpt lat="43.03407" lon="-1.25938">
        <ele>1012.0</ele>
        <time>2019-08-01T08:46:42.949Z</time>
      </trkpt>
      <trkpt lat="43.03407" lon="-1.25939333">
        <ele>1012.0</ele>
        <time>2019-08-01T08:46:43.955Z</time>
      </trkpt>
      <trkpt lat="43.03406667" lon="-1.25940667">
        <ele>1013.0</ele>
        <time>2019-08-01T08:46:44.961Z</time>
      </trkpt>
      <trkpt lat="43.03406667" lon="-1.25941667">
        <ele>1014.0</ele>
        <time>2019-08-01T08:46:45.967Z</time>
      </trkpt>
      <trkpt lat="43.03407333" lon="-1.25943667">
        <ele>1013.0</ele>
        <time>2019-08-01T08:46:46.973Z</time>
      </trkpt>
      <trkpt lat="43.03408167" lon="-1.25945">
        <ele>1013.0</ele>
        <time>2019-08-01T08:46:47.978Z</time>
      </trkpt>
      <trkpt lat="43.034085" lon="-1.25945833">
        <ele>1014.0</ele>
        <time>2019-08-01T08:46:48.984Z</time>
      </trkpt>
      <trkpt lat="43.03409" lon="-1.25947167">
        <ele>1015.0</ele>
        <time>2019-08-01T08:46:49.989Z</time>
      </trkpt>
      <trkpt lat="43.03409333" lon="-1.25948667">
        <ele>1015.0</ele>
        <time>2019-08-01T08:46:50.994Z</time>
      </trkpt>
      <trkpt lat="43.03409167" lon="-1.2595">
        <ele>1016.0</ele>
        <time>2019-08-01T08:46:52.000Z</time>
      </trkpt>
      <trkpt lat="43.03409167" lon="-1.25950833">
        <ele>1015.0</ele>
        <time>2019-08-01T08:46:53.007Z</time>
      </trkpt>
      <trkpt lat="43.03409667" lon="-1.25951333">
        <ele>1015.0</ele>
        <time>2019-08-01T08:46:54.013Z</time>
      </trkpt>
      <trkpt lat="43.034105" lon="-1.25952167">
        <ele>1015.0</ele>
        <time>2019-08-01T08:46:55.019Z</time>
      </trkpt>
      <trkpt lat="43.03411167" lon="-1.25952833">
        <ele>1015.0</ele>
        <time>2019-08-01T08:46:56.024Z</time>
      </trkpt>
      <trkpt lat="43.03411833" lon="-1.259535">
        <ele>1015.0</ele>
        <time>2019-08-01T08:46:57.029Z</time>
      </trkpt>
      <trkpt lat="43.03411833" lon="-1.25954333">
        <ele>1015.0</ele>
        <time>2019-08-01T08:46:58.036Z</time>
      </trkpt>
      <trkpt lat="43.03412333" lon="-1.259555">
        <ele>1015.0</ele>
        <time>2019-08-01T08:46:59.042Z</time>
      </trkpt>
      <trkpt lat="43.03412333" lon="-1.25956">
        <ele>1015.0</ele>
        <time>2019-08-01T08:46:59.923Z</time>
      </trkpt>
      <trkpt lat="43.034125" lon="-1.25957">
        <ele>1015.0</ele>
        <time>2019-08-01T08:47:00.928Z</time>
      </trkpt>
      <trkpt lat="43.034125" lon="-1.25958167">
        <ele>1014.0</ele>
        <time>2019-08-01T08:47:01.933Z</time>
      </trkpt>
      <trkpt lat="43.034125" lon="-1.25959167">
        <ele>1014.0</ele>
        <time>2019-08-01T08:47:02.941Z</time>
      </trkpt>
      <trkpt lat="43.03411833" lon="-1.25960333">
        <ele>1014.0</ele>
        <time>2019-08-01T08:47:03.947Z</time>
      </trkpt>
      <trkpt lat="43.03411667" lon="-1.259615">
        <ele>1013.0</ele>
        <time>2019-08-01T08:47:04.954Z</time>
      </trkpt>
      <trkpt lat="43.03411667" lon="-1.259625">
        <ele>1013.0</ele>
        <time>2019-08-01T08:47:05.959Z</time>
      </trkpt>
      <trkpt lat="43.03412167" lon="-1.25963667">
        <ele>1012.0</ele>
        <time>2019-08-01T08:47:06.965Z</time>
      </trkpt>
      <trkpt lat="43.03412333" lon="-1.25964667">
        <ele>1012.0</ele>
        <time>2019-08-01T08:47:07.971Z</time>
      </trkpt>
      <trkpt lat="43.03412167" lon="-1.25965167">
        <ele>1011.0</ele>
        <time>2019-08-01T08:47:08.977Z</time>
      </trkpt>
      <trkpt lat="43.03412" lon="-1.25966">
        <ele>1011.0</ele>
        <time>2019-08-01T08:47:09.983Z</time>
      </trkpt>
      <trkpt lat="43.03411667" lon="-1.25967">
        <ele>1011.0</ele>
        <time>2019-08-01T08:47:10.988Z</time>
      </trkpt>
      <trkpt lat="43.034115" lon="-1.25968167">
        <ele>1011.0</ele>
        <time>2019-08-01T08:47:11.993Z</time>
      </trkpt>
      <trkpt lat="43.03411667" lon="-1.25969833">
        <ele>1010.0</ele>
        <time>2019-08-01T08:47:13.000Z</time>
      </trkpt>
      <trkpt lat="43.03411667" lon="-1.25971167">
        <ele>1010.0</ele>
        <time>2019-08-01T08:47:14.005Z</time>
      </trkpt>
      <trkpt lat="43.03411333" lon="-1.25972333">
        <ele>1009.0</ele>
        <time>2019-08-01T08:47:15.011Z</time>
      </trkpt>
      <trkpt lat="43.03410167" lon="-1.25973167">
        <ele>1008.0</ele>
        <time>2019-08-01T08:47:16.019Z</time>
      </trkpt>
      <trkpt lat="43.03409667" lon="-1.25973833">
        <ele>1007.0</ele>
        <time>2019-08-01T08:47:17.024Z</time>
      </trkpt>
      <trkpt lat="43.03409667" lon="-1.25974167">
        <ele>1007.0</ele>
        <time>2019-08-01T08:47:18.031Z</time>
      </trkpt>
      <trkpt lat="43.03410167" lon="-1.25974833">
        <ele>1007.0</ele>
        <time>2019-08-01T08:47:19.038Z</time>
      </trkpt>
      <trkpt lat="43.03410333" lon="-1.25975667">
        <ele>1007.0</ele>
        <time>2019-08-01T08:47:20.043Z</time>
      </trkpt>
      <trkpt lat="43.03411" lon="-1.25977">
        <ele>1007.0</ele>
        <time>2019-08-01T08:47:20.924Z</time>
      </trkpt>
      <trkpt lat="43.03411833" lon="-1.25978333">
        <ele>1006.0</ele>
        <time>2019-08-01T08:47:21.930Z</time>
      </trkpt>
      <trkpt lat="43.03412167" lon="-1.25980167">
        <ele>1005.0</ele>
        <time>2019-08-01T08:47:22.936Z</time>
      </trkpt>
      <trkpt lat="43.03412167" lon="-1.25981833">
        <ele>1004.0</ele>
        <time>2019-08-01T08:47:23.941Z</time>
      </trkpt>
      <trkpt lat="43.03412" lon="-1.25983333">
        <ele>1004.0</ele>
        <time>2019-08-01T08:47:24.947Z</time>
      </trkpt>
      <trkpt lat="43.03412167" lon="-1.25984833">
        <ele>1004.0</ele>
        <time>2019-08-01T08:47:25.951Z</time>
      </trkpt>
      <trkpt lat="43.03411667" lon="-1.25985833">
        <ele>1005.0</ele>
        <time>2019-08-01T08:47:26.958Z</time>
      </trkpt>
      <trkpt lat="43.034115" lon="-1.25987167">
        <ele>1005.0</ele>
        <time>2019-08-01T08:47:27.964Z</time>
      </trkpt>
      <trkpt lat="43.03411167" lon="-1.25988">
        <ele>1005.0</ele>
        <time>2019-08-01T08:47:28.969Z</time>
      </trkpt>
      <trkpt lat="43.03410667" lon="-1.259885">
        <ele>1004.0</ele>
        <time>2019-08-01T08:47:29.970Z</time>
      </trkpt>
      <trkpt lat="43.03410167" lon="-1.25989">
        <ele>1004.0</ele>
        <time>2019-08-01T08:47:30.977Z</time>
      </trkpt>
      <trkpt lat="43.03409667" lon="-1.25989833">
        <ele>1004.0</ele>
        <time>2019-08-01T08:47:31.985Z</time>
      </trkpt>
      <trkpt lat="43.03409167" lon="-1.25990833">
        <ele>1004.0</ele>
        <time>2019-08-01T08:47:32.990Z</time>
      </trkpt>
      <trkpt lat="43.03408667" lon="-1.25991333">
        <ele>1004.0</ele>
        <time>2019-08-01T08:47:33.993Z</time>
      </trkpt>
      <trkpt lat="43.03408333" lon="-1.25992167">
        <ele>1005.0</ele>
        <time>2019-08-01T08:47:34.997Z</time>
      </trkpt>
      <trkpt lat="43.034075" lon="-1.25993">
        <ele>1004.0</ele>
        <time>2019-08-01T08:47:36.002Z</time>
      </trkpt>
      <trkpt lat="43.03407" lon="-1.25993833">
        <ele>1004.0</ele>
        <time>2019-08-01T08:47:37.007Z</time>
      </trkpt>
      <trkpt lat="43.03406667" lon="-1.25994833">
        <ele>1004.0</ele>
        <time>2019-08-01T08:47:38.013Z</time>
      </trkpt>
      <trkpt lat="43.034065" lon="-1.25995833">
        <ele>1004.0</ele>
        <time>2019-08-01T08:47:39.019Z</time>
      </trkpt>
      <trkpt lat="43.03406333" lon="-1.25997">
        <ele>1004.0</ele>
        <time>2019-08-01T08:47:40.026Z</time>
      </trkpt>
      <trkpt lat="43.034065" lon="-1.25998333">
        <ele>1004.0</ele>
        <time>2019-08-01T08:47:41.030Z</time>
      </trkpt>
      <trkpt lat="43.03406167" lon="-1.259995">
        <ele>1004.0</ele>
        <time>2019-08-01T08:47:42.035Z</time>
      </trkpt>
      <trkpt lat="43.03405333" lon="-1.26000333">
        <ele>1005.0</ele>
        <time>2019-08-01T08:47:43.041Z</time>
      </trkpt>
      <trkpt lat="43.03404667" lon="-1.260015">
        <ele>1005.0</ele>
        <time>2019-08-01T08:47:43.921Z</time>
      </trkpt>
      <trkpt lat="43.03404" lon="-1.26002333">
        <ele>1005.0</ele>
        <time>2019-08-01T08:47:44.928Z</time>
      </trkpt>
      <trkpt lat="43.03403" lon="-1.26003167">
        <ele>1005.0</ele>
        <time>2019-08-01T08:47:45.935Z</time>
      </trkpt>
      <trkpt lat="43.03401667" lon="-1.26003833">
        <ele>1005.0</ele>
        <time>2019-08-01T08:47:46.941Z</time>
      </trkpt>
      <trkpt lat="43.03400167" lon="-1.26004333">
        <ele>1005.0</ele>
        <time>2019-08-01T08:47:47.948Z</time>
      </trkpt>
      <trkpt lat="43.033985" lon="-1.26004667">
        <ele>1005.0</ele>
        <time>2019-08-01T08:47:48.954Z</time>
      </trkpt>
      <trkpt lat="43.03397167" lon="-1.26005333">
        <ele>1006.0</ele>
        <time>2019-08-01T08:47:49.960Z</time>
      </trkpt>
      <trkpt lat="43.03395667" lon="-1.26006333">
        <ele>1006.0</ele>
        <time>2019-08-01T08:47:50.967Z</time>
      </trkpt>
      <trkpt lat="43.03394333" lon="-1.26007167">
        <ele>1007.0</ele>
        <time>2019-08-01T08:47:51.973Z</time>
      </trkpt>
      <trkpt lat="43.03393167" lon="-1.26008167">
        <ele>1007.0</ele>
        <time>2019-08-01T08:47:52.978Z</time>
      </trkpt>
      <trkpt lat="43.03392333" lon="-1.26009333">
        <ele>1007.0</ele>
        <time>2019-08-01T08:47:53.985Z</time>
      </trkpt>
      <trkpt lat="43.03391167" lon="-1.2601">
        <ele>1007.0</ele>
        <time>2019-08-01T08:47:54.989Z</time>
      </trkpt>
      <trkpt lat="43.03390167" lon="-1.26010667">
        <ele>1007.0</ele>
        <time>2019-08-01T08:47:55.994Z</time>
      </trkpt>
      <trkpt lat="43.03389167" lon="-1.26012">
        <ele>1008.0</ele>
        <time>2019-08-01T08:47:56.999Z</time>
      </trkpt>
      <trkpt lat="43.03388667" lon="-1.26013667">
        <ele>1008.0</ele>
        <time>2019-08-01T08:47:58.004Z</time>
      </trkpt>
      <trkpt lat="43.033885" lon="-1.26015333">
        <ele>1008.0</ele>
        <time>2019-08-01T08:47:59.010Z</time>
      </trkpt>
      <trkpt lat="43.033885" lon="-1.260165">
        <ele>1008.0</ele>
        <time>2019-08-01T08:48:00.015Z</time>
      </trkpt>
      <trkpt lat="43.033885" lon="-1.26017333">
        <ele>1009.0</ele>
        <time>2019-08-01T08:48:01.024Z</time>
      </trkpt>
      <trkpt lat="43.03388667" lon="-1.26018667">
        <ele>1010.0</ele>
        <time>2019-08-01T08:48:02.032Z</time>
      </trkpt>
      <trkpt lat="43.033885" lon="-1.26020167">
        <ele>1011.0</ele>
        <time>2019-08-01T08:48:03.038Z</time>
      </trkpt>
      <trkpt lat="43.03387833" lon="-1.26021333">
        <ele>1011.0</ele>
        <time>2019-08-01T08:48:03.918Z</time>
      </trkpt>
      <trkpt lat="43.03387167" lon="-1.26022167">
        <ele>1011.0</ele>
        <time>2019-08-01T08:48:04.924Z</time>
      </trkpt>
      <trkpt lat="43.033865" lon="-1.26023167">
        <ele>1010.0</ele>
        <time>2019-08-01T08:48:05.928Z</time>
      </trkpt>
      <trkpt lat="43.03385667" lon="-1.26024">
        <ele>1010.0</ele>
        <time>2019-08-01T08:48:06.934Z</time>
      </trkpt>
      <trkpt lat="43.03385" lon="-1.26025167">
        <ele>1010.0</ele>
        <time>2019-08-01T08:48:07.942Z</time>
      </trkpt>
      <trkpt lat="43.03384" lon="-1.26026">
        <ele>1010.0</ele>
        <time>2019-08-01T08:48:08.948Z</time>
      </trkpt>
      <trkpt lat="43.03382833" lon="-1.26026667">
        <ele>1010.0</ele>
        <time>2019-08-01T08:48:09.954Z</time>
      </trkpt>
      <trkpt lat="43.033815" lon="-1.26027333">
        <ele>1010.0</ele>
        <time>2019-08-01T08:48:10.960Z</time>
      </trkpt>
      <trkpt lat="43.03380667" lon="-1.26028667">
        <ele>1010.0</ele>
        <time>2019-08-01T08:48:11.967Z</time>
      </trkpt>
      <trkpt lat="43.03380333" lon="-1.26030167">
        <ele>1010.0</ele>
        <time>2019-08-01T08:48:12.970Z</time>
      </trkpt>
      <trkpt lat="43.0338" lon="-1.26031333">
        <ele>1010.0</ele>
        <time>2019-08-01T08:48:13.977Z</time>
      </trkpt>
      <trkpt lat="43.03379667" lon="-1.260325">
        <ele>1011.0</ele>
        <time>2019-08-01T08:48:14.983Z</time>
      </trkpt>
      <trkpt lat="43.03379167" lon="-1.26033333">
        <ele>1011.0</ele>
        <time>2019-08-01T08:48:15.988Z</time>
      </trkpt>
      <trkpt lat="43.03378667" lon="-1.26034833">
        <ele>1011.0</ele>
        <time>2019-08-01T08:48:16.993Z</time>
      </trkpt>
      <trkpt lat="43.03378333" lon="-1.26036333">
        <ele>1012.0</ele>
        <time>2019-08-01T08:48:18.000Z</time>
      </trkpt>
      <trkpt lat="43.033775" lon="-1.260375">
        <ele>1011.0</ele>
        <time>2019-08-01T08:48:19.007Z</time>
      </trkpt>
      <trkpt lat="43.033765" lon="-1.26039">
        <ele>1011.0</ele>
        <time>2019-08-01T08:48:20.011Z</time>
      </trkpt>
      <trkpt lat="43.03375667" lon="-1.26041">
        <ele>1011.0</ele>
        <time>2019-08-01T08:48:21.017Z</time>
      </trkpt>
      <trkpt lat="43.03374667" lon="-1.26042833">
        <ele>1011.0</ele>
        <time>2019-08-01T08:48:22.025Z</time>
      </trkpt>
      <trkpt lat="43.033735" lon="-1.260445">
        <ele>1011.0</ele>
        <time>2019-08-01T08:48:23.033Z</time>
      </trkpt>
      <trkpt lat="43.03372333" lon="-1.260465">
        <ele>1011.0</ele>
        <time>2019-08-01T08:48:24.037Z</time>
      </trkpt>
      <trkpt lat="43.03371167" lon="-1.26048">
        <ele>1011.0</ele>
        <time>2019-08-01T08:48:25.043Z</time>
      </trkpt>
      <trkpt lat="43.0337" lon="-1.26049667">
        <ele>1011.0</ele>
        <time>2019-08-01T08:48:25.922Z</time>
      </trkpt>
      <trkpt lat="43.033685" lon="-1.26050833">
        <ele>1011.0</ele>
        <time>2019-08-01T08:48:26.925Z</time>
      </trkpt>
      <trkpt lat="43.03367" lon="-1.260515">
        <ele>1011.0</ele>
        <time>2019-08-01T08:48:27.931Z</time>
      </trkpt>
      <trkpt lat="43.03365" lon="-1.26051667">
        <ele>1012.0</ele>
        <time>2019-08-01T08:48:28.938Z</time>
      </trkpt>
      <trkpt lat="43.03363333" lon="-1.26052333">
        <ele>1013.0</ele>
        <time>2019-08-01T08:48:29.944Z</time>
      </trkpt>
      <trkpt lat="43.03361833" lon="-1.26053667">
        <ele>1015.0</ele>
        <time>2019-08-01T08:48:30.950Z</time>
      </trkpt>
      <trkpt lat="43.03360667" lon="-1.26055167">
        <ele>1016.0</ele>
        <time>2019-08-01T08:48:31.956Z</time>
      </trkpt>
      <trkpt lat="43.03360167" lon="-1.26057">
        <ele>1017.0</ele>
        <time>2019-08-01T08:48:32.962Z</time>
      </trkpt>
      <trkpt lat="43.03359833" lon="-1.26058167">
        <ele>1017.0</ele>
        <time>2019-08-01T08:48:33.967Z</time>
      </trkpt>
      <trkpt lat="43.03359667" lon="-1.26058833">
        <ele>1018.0</ele>
        <time>2019-08-01T08:48:34.972Z</time>
      </trkpt>
      <trkpt lat="43.03359333" lon="-1.26059667">
        <ele>1019.0</ele>
        <time>2019-08-01T08:48:35.976Z</time>
      </trkpt>
      <trkpt lat="43.033585" lon="-1.26060333">
        <ele>1019.0</ele>
        <time>2019-08-01T08:48:36.983Z</time>
      </trkpt>
      <trkpt lat="43.03357167" lon="-1.26061833">
        <ele>1019.0</ele>
        <time>2019-08-01T08:48:37.990Z</time>
      </trkpt>
      <trkpt lat="43.03355833" lon="-1.26063">
        <ele>1020.0</ele>
        <time>2019-08-01T08:48:38.997Z</time>
      </trkpt>
      <trkpt lat="43.03354667" lon="-1.260645">
        <ele>1020.0</ele>
        <time>2019-08-01T08:48:40.004Z</time>
      </trkpt>
      <trkpt lat="43.03354333" lon="-1.26067167">
        <ele>1019.0</ele>
        <time>2019-08-01T08:48:41.010Z</time>
      </trkpt>
      <trkpt lat="43.03353667" lon="-1.26069333">
        <ele>1019.0</ele>
        <time>2019-08-01T08:48:42.013Z</time>
      </trkpt>
      <trkpt lat="43.03352" lon="-1.26071">
        <ele>1020.0</ele>
        <time>2019-08-01T08:48:43.021Z</time>
      </trkpt>
      <trkpt lat="43.03350667" lon="-1.26071667">
        <ele>1019.0</ele>
        <time>2019-08-01T08:48:44.027Z</time>
      </trkpt>
      <trkpt lat="43.03349833" lon="-1.26071667">
        <ele>1020.0</ele>
        <time>2019-08-01T08:48:45.033Z</time>
      </trkpt>
      <trkpt lat="43.033485" lon="-1.26071833">
        <ele>1020.0</ele>
        <time>2019-08-01T08:48:46.038Z</time>
      </trkpt>
      <trkpt lat="43.03347167" lon="-1.26072667">
        <ele>1020.0</ele>
        <time>2019-08-01T08:48:46.919Z</time>
      </trkpt>
      <trkpt lat="43.03346" lon="-1.260745">
        <ele>1019.0</ele>
        <time>2019-08-01T08:48:47.922Z</time>
      </trkpt>
      <trkpt lat="43.03344833" lon="-1.26075667">
        <ele>1018.0</ele>
        <time>2019-08-01T08:48:48.928Z</time>
      </trkpt>
      <trkpt lat="43.03343333" lon="-1.26077">
        <ele>1017.0</ele>
        <time>2019-08-01T08:48:49.934Z</time>
      </trkpt>
      <trkpt lat="43.03342167" lon="-1.26078">
        <ele>1016.0</ele>
        <time>2019-08-01T08:48:50.940Z</time>
      </trkpt>
      <trkpt lat="43.03341" lon="-1.26079333">
        <ele>1015.0</ele>
        <time>2019-08-01T08:48:51.947Z</time>
      </trkpt>
      <trkpt lat="43.03339667" lon="-1.260805">
        <ele>1015.0</ele>
        <time>2019-08-01T08:48:52.951Z</time>
      </trkpt>
      <trkpt lat="43.03338333" lon="-1.26082167">
        <ele>1016.0</ele>
        <time>2019-08-01T08:48:53.955Z</time>
      </trkpt>
      <trkpt lat="43.03337" lon="-1.26083333">
        <ele>1016.0</ele>
        <time>2019-08-01T08:48:54.962Z</time>
      </trkpt>
      <trkpt lat="43.03335333" lon="-1.260845">
        <ele>1016.0</ele>
        <time>2019-08-01T08:48:55.969Z</time>
      </trkpt>
      <trkpt lat="43.03333333" lon="-1.26085167">
        <ele>1016.0</ele>
        <time>2019-08-01T08:48:56.975Z</time>
      </trkpt>
      <trkpt lat="43.03331833" lon="-1.26085833">
        <ele>1016.0</ele>
        <time>2019-08-01T08:48:57.982Z</time>
      </trkpt>
      <trkpt lat="43.03330833" lon="-1.26086167">
        <ele>1014.0</ele>
        <time>2019-08-01T08:48:58.987Z</time>
      </trkpt>
      <trkpt lat="43.0333" lon="-1.26086667">
        <ele>1012.0</ele>
        <time>2019-08-01T08:48:59.993Z</time>
      </trkpt>
      <trkpt lat="43.03328667" lon="-1.26087333">
        <ele>1011.0</ele>
        <time>2019-08-01T08:49:00.996Z</time>
      </trkpt>
      <trkpt lat="43.03327667" lon="-1.26088167">
        <ele>1010.0</ele>
        <time>2019-08-01T08:49:02.002Z</time>
      </trkpt>
      <trkpt lat="43.03326333" lon="-1.26088167">
        <ele>1009.0</ele>
        <time>2019-08-01T08:49:03.008Z</time>
      </trkpt>
      <trkpt lat="43.03325667" lon="-1.26088">
        <ele>1009.0</ele>
        <time>2019-08-01T08:49:04.015Z</time>
      </trkpt>
      <trkpt lat="43.03324833" lon="-1.26088">
        <ele>1009.0</ele>
        <time>2019-08-01T08:49:05.021Z</time>
      </trkpt>
      <trkpt lat="43.03323833" lon="-1.26089">
        <ele>1009.0</ele>
        <time>2019-08-01T08:49:06.026Z</time>
      </trkpt>
      <trkpt lat="43.03323" lon="-1.26089833">
        <ele>1009.0</ele>
        <time>2019-08-01T08:49:07.033Z</time>
      </trkpt>
      <trkpt lat="43.03322167" lon="-1.26090333">
        <ele>1008.0</ele>
        <time>2019-08-01T08:49:08.039Z</time>
      </trkpt>
      <trkpt lat="43.03321333" lon="-1.26091167">
        <ele>1008.0</ele>
        <time>2019-08-01T08:49:08.921Z</time>
      </trkpt>
      <trkpt lat="43.03320333" lon="-1.260915">
        <ele>1009.0</ele>
        <time>2019-08-01T08:49:09.927Z</time>
      </trkpt>
      <trkpt lat="43.03319333" lon="-1.260915">
        <ele>1009.0</ele>
        <time>2019-08-01T08:49:10.932Z</time>
      </trkpt>
      <trkpt lat="43.033185" lon="-1.26091833">
        <ele>1009.0</ele>
        <time>2019-08-01T08:49:11.939Z</time>
      </trkpt>
      <trkpt lat="43.03318167" lon="-1.26092">
        <ele>1009.0</ele>
        <time>2019-08-01T08:49:12.947Z</time>
      </trkpt>
      <trkpt lat="43.03318167" lon="-1.26092167">
        <ele>1010.0</ele>
        <time>2019-08-01T08:49:13.952Z</time>
      </trkpt>
      <trkpt lat="43.033185" lon="-1.26092167">
        <ele>1010.0</ele>
        <time>2019-08-01T08:49:14.959Z</time>
      </trkpt>
      <trkpt lat="43.033185" lon="-1.26092833">
        <ele>1010.0</ele>
        <time>2019-08-01T08:49:15.965Z</time>
      </trkpt>
      <trkpt lat="43.03318" lon="-1.26093167">
        <ele>1011.0</ele>
        <time>2019-08-01T08:49:16.970Z</time>
      </trkpt>
      <trkpt lat="43.03317" lon="-1.26093333">
        <ele>1011.0</ele>
        <time>2019-08-01T08:49:17.975Z</time>
      </trkpt>
      <trkpt lat="43.03316167" lon="-1.260935">
        <ele>1012.0</ele>
        <time>2019-08-01T08:49:18.982Z</time>
      </trkpt>
      <trkpt lat="43.033155" lon="-1.26094">
        <ele>1013.0</ele>
        <time>2019-08-01T08:49:19.988Z</time>
      </trkpt>
      <trkpt lat="43.033145" lon="-1.26094167">
        <ele>1013.0</ele>
        <time>2019-08-01T08:49:20.992Z</time>
      </trkpt>
      <trkpt lat="43.03313667" lon="-1.260945">
        <ele>1014.0</ele>
        <time>2019-08-01T08:49:21.999Z</time>
      </trkpt>
      <trkpt lat="43.03313167" lon="-1.26094667">
        <ele>1015.0</ele>
        <time>2019-08-01T08:49:23.006Z</time>
      </trkpt>
      <trkpt lat="43.033125" lon="-1.26095167">
        <ele>1015.0</ele>
        <time>2019-08-01T08:49:24.013Z</time>
      </trkpt>
      <trkpt lat="43.03311667" lon="-1.26096">
        <ele>1016.0</ele>
        <time>2019-08-01T08:49:25.020Z</time>
      </trkpt>
      <trkpt lat="43.03310333" lon="-1.26096667">
        <ele>1017.0</ele>
        <time>2019-08-01T08:49:26.027Z</time>
      </trkpt>
      <trkpt lat="43.03308833" lon="-1.26096833">
        <ele>1018.0</ele>
        <time>2019-08-01T08:49:27.035Z</time>
      </trkpt>
      <trkpt lat="43.03306833" lon="-1.26097167">
        <ele>1019.0</ele>
        <time>2019-08-01T08:49:28.041Z</time>
      </trkpt>
      <trkpt lat="43.03304833" lon="-1.26098167">
        <ele>1020.0</ele>
        <time>2019-08-01T08:49:28.921Z</time>
      </trkpt>
      <trkpt lat="43.03303" lon="-1.260995">
        <ele>1020.0</ele>
        <time>2019-08-01T08:49:29.928Z</time>
      </trkpt>
      <trkpt lat="43.033015" lon="-1.26100167">
        <ele>1020.0</ele>
        <time>2019-08-01T08:49:30.932Z</time>
      </trkpt>
      <trkpt lat="43.03300333" lon="-1.26101167">
        <ele>1020.0</ele>
        <time>2019-08-01T08:49:31.935Z</time>
      </trkpt>
      <trkpt lat="43.032995" lon="-1.26102">
        <ele>1020.0</ele>
        <time>2019-08-01T08:49:32.942Z</time>
      </trkpt>
      <trkpt lat="43.03298167" lon="-1.26102167">
        <ele>1020.0</ele>
        <time>2019-08-01T08:49:33.947Z</time>
      </trkpt>
      <trkpt lat="43.03297" lon="-1.26102667">
        <ele>1020.0</ele>
        <time>2019-08-01T08:49:34.953Z</time>
      </trkpt>
      <trkpt lat="43.03295833" lon="-1.26103833">
        <ele>1021.0</ele>
        <time>2019-08-01T08:49:35.960Z</time>
      </trkpt>
      <trkpt lat="43.03294333" lon="-1.261045">
        <ele>1022.0</ele>
        <time>2019-08-01T08:49:36.967Z</time>
      </trkpt>
      <trkpt lat="43.03293" lon="-1.26104833">
        <ele>1022.0</ele>
        <time>2019-08-01T08:49:37.972Z</time>
      </trkpt>
      <trkpt lat="43.03291333" lon="-1.261045">
        <ele>1023.0</ele>
        <time>2019-08-01T08:49:38.978Z</time>
      </trkpt>
      <trkpt lat="43.032895" lon="-1.26104833">
        <ele>1023.0</ele>
        <time>2019-08-01T08:49:39.985Z</time>
      </trkpt>
      <trkpt lat="43.03287667" lon="-1.26105833">
        <ele>1024.0</ele>
        <time>2019-08-01T08:49:40.991Z</time>
      </trkpt>
      <trkpt lat="43.03286333" lon="-1.26107833">
        <ele>1024.0</ele>
        <time>2019-08-01T08:49:41.996Z</time>
      </trkpt>
      <trkpt lat="43.03284833" lon="-1.2611">
        <ele>1024.0</ele>
        <time>2019-08-01T08:49:43.002Z</time>
      </trkpt>
      <trkpt lat="43.03283167" lon="-1.26112">
        <ele>1023.0</ele>
        <time>2019-08-01T08:49:44.009Z</time>
      </trkpt>
      <trkpt lat="43.03282167" lon="-1.26113833">
        <ele>1022.0</ele>
        <time>2019-08-01T08:49:45.015Z</time>
      </trkpt>
      <trkpt lat="43.03281333" lon="-1.26115">
        <ele>1022.0</ele>
        <time>2019-08-01T08:49:46.022Z</time>
      </trkpt>
      <trkpt lat="43.03279833" lon="-1.26115">
        <ele>1022.0</ele>
        <time>2019-08-01T08:49:47.029Z</time>
      </trkpt>
      <trkpt lat="43.03278333" lon="-1.26116167">
        <ele>1022.0</ele>
        <time>2019-08-01T08:49:48.036Z</time>
      </trkpt>
      <trkpt lat="43.03277167" lon="-1.26116167">
        <ele>1022.0</ele>
        <time>2019-08-01T08:49:49.041Z</time>
      </trkpt>
      <trkpt lat="43.032755" lon="-1.26116">
        <ele>1023.0</ele>
        <time>2019-08-01T08:49:49.922Z</time>
      </trkpt>
      <trkpt lat="43.03273667" lon="-1.26116167">
        <ele>1023.0</ele>
        <time>2019-08-01T08:49:50.927Z</time>
      </trkpt>
      <trkpt lat="43.03272333" lon="-1.26117">
        <ele>1024.0</ele>
        <time>2019-08-01T08:49:51.931Z</time>
      </trkpt>
      <trkpt lat="43.03272" lon="-1.26116333">
        <ele>1024.0</ele>
        <time>2019-08-01T08:49:52.937Z</time>
      </trkpt>
      <trkpt lat="43.03271167" lon="-1.26116333">
        <ele>1024.0</ele>
        <time>2019-08-01T08:49:53.943Z</time>
      </trkpt>
      <trkpt lat="43.03270833" lon="-1.26116167">
        <ele>1025.0</ele>
        <time>2019-08-01T08:49:54.951Z</time>
      </trkpt>
      <trkpt lat="43.03271" lon="-1.26116167">
        <ele>1025.0</ele>
        <time>2019-08-01T08:49:55.953Z</time>
      </trkpt>
      <trkpt lat="43.03271167" lon="-1.26117833">
        <ele>1025.0</ele>
        <time>2019-08-01T08:49:56.957Z</time>
      </trkpt>
      <trkpt lat="43.03271333" lon="-1.26119167">
        <ele>1025.0</ele>
        <time>2019-08-01T08:49:57.962Z</time>
      </trkpt>
      <trkpt lat="43.032705" lon="-1.26119">
        <ele>1025.0</ele>
        <time>2019-08-01T08:49:58.967Z</time>
      </trkpt>
      <trkpt lat="43.03269667" lon="-1.26118833">
        <ele>1026.0</ele>
        <time>2019-08-01T08:49:59.971Z</time>
      </trkpt>
      <trkpt lat="43.032685" lon="-1.26118667">
        <ele>1027.0</ele>
        <time>2019-08-01T08:50:00.974Z</time>
      </trkpt>
      <trkpt lat="43.032675" lon="-1.26119333">
        <ele>1028.0</ele>
        <time>2019-08-01T08:50:01.978Z</time>
      </trkpt>
      <trkpt lat="43.032665" lon="-1.26119833">
        <ele>1029.0</ele>
        <time>2019-08-01T08:50:02.984Z</time>
      </trkpt>
      <trkpt lat="43.03265833" lon="-1.26120167">
        <ele>1029.0</ele>
        <time>2019-08-01T08:50:03.989Z</time>
      </trkpt>
      <trkpt lat="43.03264833" lon="-1.26120167">
        <ele>1029.0</ele>
        <time>2019-08-01T08:50:04.995Z</time>
      </trkpt>
      <trkpt lat="43.032645" lon="-1.26120333">
        <ele>1029.0</ele>
        <time>2019-08-01T08:50:05.999Z</time>
      </trkpt>
      <trkpt lat="43.03263833" lon="-1.26120167">
        <ele>1030.0</ele>
        <time>2019-08-01T08:50:07.003Z</time>
      </trkpt>
      <trkpt lat="43.03263667" lon="-1.26120667">
        <ele>1030.0</ele>
        <time>2019-08-01T08:50:08.010Z</time>
      </trkpt>
      <trkpt lat="43.03263667" lon="-1.26121667">
        <ele>1031.0</ele>
        <time>2019-08-01T08:50:09.015Z</time>
      </trkpt>
      <trkpt lat="43.032635" lon="-1.26122167">
        <ele>1031.0</ele>
        <time>2019-08-01T08:50:10.021Z</time>
      </trkpt>
      <trkpt lat="43.03264" lon="-1.26122833">
        <ele>1032.0</ele>
        <time>2019-08-01T08:50:11.025Z</time>
      </trkpt>
      <trkpt lat="43.03265" lon="-1.26123">
        <ele>1033.0</ele>
        <time>2019-08-01T08:50:12.028Z</time>
      </trkpt>
      <trkpt lat="43.03265667" lon="-1.26123167">
        <ele>1033.0</ele>
        <time>2019-08-01T08:50:13.035Z</time>
      </trkpt>
      <trkpt lat="43.03266" lon="-1.26123167">
        <ele>1034.0</ele>
        <time>2019-08-01T08:50:14.041Z</time>
      </trkpt>
      <trkpt lat="43.032665" lon="-1.261235">
        <ele>1035.0</ele>
        <time>2019-08-01T08:50:14.922Z</time>
      </trkpt>
      <trkpt lat="43.032665" lon="-1.261235">
        <ele>1035.0</ele>
        <time>2019-08-01T08:50:15.928Z</time>
      </trkpt>
      <trkpt lat="43.03265333" lon="-1.26123667">
        <ele>1036.0</ele>
        <time>2019-08-01T08:50:16.933Z</time>
      </trkpt>
      <trkpt lat="43.032645" lon="-1.26124167">
        <ele>1036.0</ele>
        <time>2019-08-01T08:50:17.940Z</time>
      </trkpt>
      <trkpt lat="43.032635" lon="-1.261255">
        <ele>1037.0</ele>
        <time>2019-08-01T08:50:18.946Z</time>
      </trkpt>
      <trkpt lat="43.032625" lon="-1.26126833">
        <ele>1037.0</ele>
        <time>2019-08-01T08:50:19.953Z</time>
      </trkpt>
      <trkpt lat="43.03262" lon="-1.26127833">
        <ele>1038.0</ele>
        <time>2019-08-01T08:50:20.958Z</time>
      </trkpt>
      <trkpt lat="43.03261667" lon="-1.26128833">
        <ele>1038.0</ele>
        <time>2019-08-01T08:50:21.966Z</time>
      </trkpt>
      <trkpt lat="43.03261167" lon="-1.2613">
        <ele>1038.0</ele>
        <time>2019-08-01T08:50:22.971Z</time>
      </trkpt>
      <trkpt lat="43.03260333" lon="-1.26131167">
        <ele>1038.0</ele>
        <time>2019-08-01T08:50:23.978Z</time>
      </trkpt>
      <trkpt lat="43.0326" lon="-1.26131333">
        <ele>1038.0</ele>
        <time>2019-08-01T08:50:24.985Z</time>
      </trkpt>
      <trkpt lat="43.032595" lon="-1.26132167">
        <ele>1038.0</ele>
        <time>2019-08-01T08:50:25.991Z</time>
      </trkpt>
      <trkpt lat="43.03258833" lon="-1.26133833">
        <ele>1038.0</ele>
        <time>2019-08-01T08:50:26.996Z</time>
      </trkpt>
      <trkpt lat="43.03258667" lon="-1.26135167">
        <ele>1038.0</ele>
        <time>2019-08-01T08:50:28.003Z</time>
      </trkpt>
      <trkpt lat="43.03258667" lon="-1.26136667">
        <ele>1038.0</ele>
        <time>2019-08-01T08:50:29.009Z</time>
      </trkpt>
      <trkpt lat="43.03258833" lon="-1.26137333">
        <ele>1038.0</ele>
        <time>2019-08-01T08:50:30.016Z</time>
      </trkpt>
      <trkpt lat="43.032595" lon="-1.26138">
        <ele>1039.0</ele>
        <time>2019-08-01T08:50:31.021Z</time>
      </trkpt>
      <trkpt lat="43.03259833" lon="-1.26138333">
        <ele>1039.0</ele>
        <time>2019-08-01T08:50:32.027Z</time>
      </trkpt>
      <trkpt lat="43.032595" lon="-1.26139167">
        <ele>1040.0</ele>
        <time>2019-08-01T08:50:33.033Z</time>
      </trkpt>
      <trkpt lat="43.03259167" lon="-1.26140333">
        <ele>1039.0</ele>
        <time>2019-08-01T08:50:34.038Z</time>
      </trkpt>
      <trkpt lat="43.03258667" lon="-1.26141833">
        <ele>1040.0</ele>
        <time>2019-08-01T08:50:34.918Z</time>
      </trkpt>
      <trkpt lat="43.03258" lon="-1.26143167">
        <ele>1039.0</ele>
        <time>2019-08-01T08:50:35.924Z</time>
      </trkpt>
      <trkpt lat="43.03256833" lon="-1.26144333">
        <ele>1039.0</ele>
        <time>2019-08-01T08:50:36.929Z</time>
      </trkpt>
      <trkpt lat="43.03255833" lon="-1.26145167">
        <ele>1039.0</ele>
        <time>2019-08-01T08:50:37.935Z</time>
      </trkpt>
      <trkpt lat="43.03255167" lon="-1.261465">
        <ele>1038.0</ele>
        <time>2019-08-01T08:50:38.941Z</time>
      </trkpt>
      <trkpt lat="43.03256333" lon="-1.26148">
        <ele>1038.0</ele>
        <time>2019-08-01T08:50:39.948Z</time>
      </trkpt>
      <trkpt lat="43.03257167" lon="-1.26148667">
        <ele>1038.0</ele>
        <time>2019-08-01T08:50:40.953Z</time>
      </trkpt>
      <trkpt lat="43.03257667" lon="-1.26149833">
        <ele>1038.0</ele>
        <time>2019-08-01T08:50:41.958Z</time>
      </trkpt>
      <trkpt lat="43.03257167" lon="-1.26151667">
        <ele>1039.0</ele>
        <time>2019-08-01T08:50:42.963Z</time>
      </trkpt>
      <trkpt lat="43.03255333" lon="-1.261535">
        <ele>1038.0</ele>
        <time>2019-08-01T08:50:43.969Z</time>
      </trkpt>
      <trkpt lat="43.03253333" lon="-1.26155333">
        <ele>1037.0</ele>
        <time>2019-08-01T08:50:44.975Z</time>
      </trkpt>
      <trkpt lat="43.032515" lon="-1.26157667">
        <ele>1037.0</ele>
        <time>2019-08-01T08:50:45.981Z</time>
      </trkpt>
      <trkpt lat="43.03250167" lon="-1.26159667">
        <ele>1037.0</ele>
        <time>2019-08-01T08:50:46.988Z</time>
      </trkpt>
      <trkpt lat="43.03248833" lon="-1.26161833">
        <ele>1038.0</ele>
        <time>2019-08-01T08:50:47.994Z</time>
      </trkpt>
      <trkpt lat="43.03248167" lon="-1.261645">
        <ele>1040.0</ele>
        <time>2019-08-01T08:50:49.002Z</time>
      </trkpt>
      <trkpt lat="43.03248167" lon="-1.26166">
        <ele>1042.0</ele>
        <time>2019-08-01T08:50:50.003Z</time>
      </trkpt>
      <trkpt lat="43.03247333" lon="-1.26168167">
        <ele>1043.0</ele>
        <time>2019-08-01T08:50:51.004Z</time>
      </trkpt>
      <trkpt lat="43.03246167" lon="-1.2617">
        <ele>1044.0</ele>
        <time>2019-08-01T08:50:52.009Z</time>
      </trkpt>
      <trkpt lat="43.032435" lon="-1.26172667">
        <ele>1042.0</ele>
        <time>2019-08-01T08:50:53.013Z</time>
      </trkpt>
      <trkpt lat="43.03243167" lon="-1.261745">
        <ele>1041.0</ele>
        <time>2019-08-01T08:50:54.019Z</time>
      </trkpt>
      <trkpt lat="43.03242167" lon="-1.26176">
        <ele>1040.0</ele>
        <time>2019-08-01T08:50:55.025Z</time>
      </trkpt>
      <trkpt lat="43.03241667" lon="-1.26176667">
        <ele>1040.0</ele>
        <time>2019-08-01T08:50:56.030Z</time>
      </trkpt>
      <trkpt lat="43.03240833" lon="-1.261775">
        <ele>1040.0</ele>
        <time>2019-08-01T08:50:57.037Z</time>
      </trkpt>
      <trkpt lat="43.03240333" lon="-1.26179">
        <ele>1041.0</ele>
        <time>2019-08-01T08:50:58.042Z</time>
      </trkpt>
      <trkpt lat="43.03238667" lon="-1.261805">
        <ele>1040.0</ele>
        <time>2019-08-01T08:50:58.923Z</time>
      </trkpt>
      <trkpt lat="43.03237667" lon="-1.26181833">
        <ele>1040.0</ele>
        <time>2019-08-01T08:50:59.928Z</time>
      </trkpt>
      <trkpt lat="43.03236167" lon="-1.261835">
        <ele>1041.0</ele>
        <time>2019-08-01T08:51:00.935Z</time>
      </trkpt>
      <trkpt lat="43.03235167" lon="-1.26185167">
        <ele>1040.0</ele>
        <time>2019-08-01T08:51:01.942Z</time>
      </trkpt>
      <trkpt lat="43.03234" lon="-1.261875">
        <ele>1041.0</ele>
        <time>2019-08-01T08:51:02.946Z</time>
      </trkpt>
      <trkpt lat="43.03233" lon="-1.26189333">
        <ele>1040.0</ele>
        <time>2019-08-01T08:51:03.951Z</time>
      </trkpt>
      <trkpt lat="43.03232667" lon="-1.26191833">
        <ele>1040.0</ele>
        <time>2019-08-01T08:51:04.957Z</time>
      </trkpt>
      <trkpt lat="43.032325" lon="-1.26194">
        <ele>1040.0</ele>
        <time>2019-08-01T08:51:05.964Z</time>
      </trkpt>
      <trkpt lat="43.03232167" lon="-1.261955">
        <ele>1039.0</ele>
        <time>2019-08-01T08:51:06.968Z</time>
      </trkpt>
      <trkpt lat="43.03232167" lon="-1.26197167">
        <ele>1039.0</ele>
        <time>2019-08-01T08:51:07.972Z</time>
      </trkpt>
      <trkpt lat="43.032325" lon="-1.26199167">
        <ele>1038.0</ele>
        <time>2019-08-01T08:51:08.978Z</time>
      </trkpt>
      <trkpt lat="43.03232667" lon="-1.26200833">
        <ele>1038.0</ele>
        <time>2019-08-01T08:51:09.984Z</time>
      </trkpt>
      <trkpt lat="43.03232333" lon="-1.26202333">
        <ele>1038.0</ele>
        <time>2019-08-01T08:51:10.992Z</time>
      </trkpt>
      <trkpt lat="43.03232333" lon="-1.26203833">
        <ele>1038.0</ele>
        <time>2019-08-01T08:51:11.998Z</time>
      </trkpt>
      <trkpt lat="43.03233167" lon="-1.26205167">
        <ele>1038.0</ele>
        <time>2019-08-01T08:51:13.006Z</time>
      </trkpt>
      <trkpt lat="43.03234167" lon="-1.26206667">
        <ele>1037.0</ele>
        <time>2019-08-01T08:51:14.011Z</time>
      </trkpt>
      <trkpt lat="43.03234333" lon="-1.262085">
        <ele>1037.0</ele>
        <time>2019-08-01T08:51:15.016Z</time>
      </trkpt>
      <trkpt lat="43.03234333" lon="-1.26209833">
        <ele>1036.0</ele>
        <time>2019-08-01T08:51:16.022Z</time>
      </trkpt>
      <trkpt lat="43.03233833" lon="-1.26210833">
        <ele>1036.0</ele>
        <time>2019-08-01T08:51:17.025Z</time>
      </trkpt>
      <trkpt lat="43.032325" lon="-1.262115">
        <ele>1036.0</ele>
        <time>2019-08-01T08:51:18.030Z</time>
      </trkpt>
      <trkpt lat="43.03231" lon="-1.26212833">
        <ele>1036.0</ele>
        <time>2019-08-01T08:51:19.036Z</time>
      </trkpt>
      <trkpt lat="43.032295" lon="-1.26214667">
        <ele>1036.0</ele>
        <time>2019-08-01T08:51:20.042Z</time>
      </trkpt>
      <trkpt lat="43.03227833" lon="-1.26216167">
        <ele>1036.0</ele>
        <time>2019-08-01T08:51:20.923Z</time>
      </trkpt>
      <trkpt lat="43.03226167" lon="-1.26217333">
        <ele>1035.0</ele>
        <time>2019-08-01T08:51:21.929Z</time>
      </trkpt>
      <trkpt lat="43.03226" lon="-1.26219">
        <ele>1034.0</ele>
        <time>2019-08-01T08:51:22.936Z</time>
      </trkpt>
      <trkpt lat="43.03225" lon="-1.26220333">
        <ele>1033.0</ele>
        <time>2019-08-01T08:51:23.942Z</time>
      </trkpt>
      <trkpt lat="43.03223167" lon="-1.26220833">
        <ele>1033.0</ele>
        <time>2019-08-01T08:51:24.949Z</time>
      </trkpt>
      <trkpt lat="43.03222333" lon="-1.26221667">
        <ele>1033.0</ele>
        <time>2019-08-01T08:51:25.953Z</time>
      </trkpt>
      <trkpt lat="43.03220667" lon="-1.26222333">
        <ele>1032.0</ele>
        <time>2019-08-01T08:51:26.958Z</time>
      </trkpt>
      <trkpt lat="43.03219833" lon="-1.26222333">
        <ele>1034.0</ele>
        <time>2019-08-01T08:51:27.965Z</time>
      </trkpt>
      <trkpt lat="43.03218667" lon="-1.26223">
        <ele>1034.0</ele>
        <time>2019-08-01T08:51:28.967Z</time>
      </trkpt>
      <trkpt lat="43.03217833" lon="-1.262245">
        <ele>1035.0</ele>
        <time>2019-08-01T08:51:29.969Z</time>
      </trkpt>
      <trkpt lat="43.03218167" lon="-1.26225667">
        <ele>1036.0</ele>
        <time>2019-08-01T08:51:30.970Z</time>
      </trkpt>
      <trkpt lat="43.03217833" lon="-1.262275">
        <ele>1037.0</ele>
        <time>2019-08-01T08:51:31.971Z</time>
      </trkpt>
      <trkpt lat="43.03218" lon="-1.26229167">
        <ele>1038.0</ele>
        <time>2019-08-01T08:51:32.973Z</time>
      </trkpt>
      <trkpt lat="43.03218" lon="-1.26230167">
        <ele>1040.0</ele>
        <time>2019-08-01T08:51:33.979Z</time>
      </trkpt>
      <trkpt lat="43.03217167" lon="-1.26231333">
        <ele>1040.0</ele>
        <time>2019-08-01T08:51:34.985Z</time>
      </trkpt>
      <trkpt lat="43.03217" lon="-1.26232833">
        <ele>1041.0</ele>
        <time>2019-08-01T08:51:35.989Z</time>
      </trkpt>
      <trkpt lat="43.03217" lon="-1.26234667">
        <ele>1041.0</ele>
        <time>2019-08-01T08:51:36.994Z</time>
      </trkpt>
      <trkpt lat="43.03217833" lon="-1.26236667">
        <ele>1042.0</ele>
        <time>2019-08-01T08:51:38.001Z</time>
      </trkpt>
      <trkpt lat="43.03217667" lon="-1.26239">
        <ele>1043.0</ele>
        <time>2019-08-01T08:51:39.006Z</time>
      </trkpt>
      <trkpt lat="43.03217167" lon="-1.26241">
        <ele>1043.0</ele>
        <time>2019-08-01T08:51:40.012Z</time>
      </trkpt>
      <trkpt lat="43.03216333" lon="-1.26243167">
        <ele>1044.0</ele>
        <time>2019-08-01T08:51:41.016Z</time>
      </trkpt>
      <trkpt lat="43.032155" lon="-1.26244833">
        <ele>1045.0</ele>
        <time>2019-08-01T08:51:42.020Z</time>
      </trkpt>
      <trkpt lat="43.03214333" lon="-1.26246333">
        <ele>1044.0</ele>
        <time>2019-08-01T08:51:43.026Z</time>
      </trkpt>
      <trkpt lat="43.03213" lon="-1.26248167">
        <ele>1044.0</ele>
        <time>2019-08-01T08:51:44.031Z</time>
      </trkpt>
      <trkpt lat="43.032115" lon="-1.262505">
        <ele>1044.0</ele>
        <time>2019-08-01T08:51:45.039Z</time>
      </trkpt>
      <trkpt lat="43.03212" lon="-1.26253">
        <ele>1045.0</ele>
        <time>2019-08-01T08:51:46.042Z</time>
      </trkpt>
      <trkpt lat="43.03212333" lon="-1.26256333">
        <ele>1045.0</ele>
        <time>2019-08-01T08:51:46.921Z</time>
      </trkpt>
      <trkpt lat="43.032105" lon="-1.26258833">
        <ele>1044.0</ele>
        <time>2019-08-01T08:51:47.927Z</time>
      </trkpt>
      <trkpt lat="43.03210333" lon="-1.262605">
        <ele>1044.0</ele>
        <time>2019-08-01T08:51:48.931Z</time>
      </trkpt>
      <trkpt lat="43.03208833" lon="-1.262625">
        <ele>1044.0</ele>
        <time>2019-08-01T08:51:49.936Z</time>
      </trkpt>
      <trkpt lat="43.03208167" lon="-1.262645">
        <ele>1043.0</ele>
        <time>2019-08-01T08:51:50.942Z</time>
      </trkpt>
      <trkpt lat="43.03207667" lon="-1.26266">
        <ele>1044.0</ele>
        <time>2019-08-01T08:51:51.947Z</time>
      </trkpt>
      <trkpt lat="43.03206667" lon="-1.26267333">
        <ele>1044.0</ele>
        <time>2019-08-01T08:51:52.953Z</time>
      </trkpt>
      <trkpt lat="43.032075" lon="-1.26269">
        <ele>1044.0</ele>
        <time>2019-08-01T08:51:53.959Z</time>
      </trkpt>
      <trkpt lat="43.03208667" lon="-1.26270833">
        <ele>1044.0</ele>
        <time>2019-08-01T08:51:54.964Z</time>
      </trkpt>
      <trkpt lat="43.03209" lon="-1.262725">
        <ele>1044.0</ele>
        <time>2019-08-01T08:51:55.967Z</time>
      </trkpt>
      <trkpt lat="43.03208333" lon="-1.26274167">
        <ele>1044.0</ele>
        <time>2019-08-01T08:51:56.971Z</time>
      </trkpt>
      <trkpt lat="43.032085" lon="-1.26275">
        <ele>1045.0</ele>
        <time>2019-08-01T08:51:57.979Z</time>
      </trkpt>
      <trkpt lat="43.03208167" lon="-1.262755">
        <ele>1046.0</ele>
        <time>2019-08-01T08:51:58.986Z</time>
      </trkpt>
      <trkpt lat="43.03207167" lon="-1.26276167">
        <ele>1046.0</ele>
        <time>2019-08-01T08:51:59.994Z</time>
      </trkpt>
      <trkpt lat="43.03205333" lon="-1.26277167">
        <ele>1045.0</ele>
        <time>2019-08-01T08:52:01.000Z</time>
      </trkpt>
      <trkpt lat="43.03203167" lon="-1.26278167">
        <ele>1044.0</ele>
        <time>2019-08-01T08:52:02.006Z</time>
      </trkpt>
      <trkpt lat="43.03201167" lon="-1.26279833">
        <ele>1043.0</ele>
        <time>2019-08-01T08:52:03.011Z</time>
      </trkpt>
      <trkpt lat="43.032" lon="-1.262815">
        <ele>1042.0</ele>
        <time>2019-08-01T08:52:04.016Z</time>
      </trkpt>
      <trkpt lat="43.031995" lon="-1.26282833">
        <ele>1043.0</ele>
        <time>2019-08-01T08:52:05.021Z</time>
      </trkpt>
      <trkpt lat="43.031995" lon="-1.26284667">
        <ele>1043.0</ele>
        <time>2019-08-01T08:52:06.028Z</time>
      </trkpt>
      <trkpt lat="43.03199667" lon="-1.26286667">
        <ele>1044.0</ele>
        <time>2019-08-01T08:52:07.035Z</time>
      </trkpt>
      <trkpt lat="43.03199833" lon="-1.26289333">
        <ele>1044.0</ele>
        <time>2019-08-01T08:52:08.042Z</time>
      </trkpt>
      <trkpt lat="43.03200333" lon="-1.26291667">
        <ele>1045.0</ele>
        <time>2019-08-01T08:52:08.922Z</time>
      </trkpt>
      <trkpt lat="43.03199667" lon="-1.26293667">
        <ele>1045.0</ele>
        <time>2019-08-01T08:52:09.928Z</time>
      </trkpt>
      <trkpt lat="43.031995" lon="-1.26294833">
        <ele>1045.0</ele>
        <time>2019-08-01T08:52:10.930Z</time>
      </trkpt>
      <trkpt lat="43.03198667" lon="-1.26296333">
        <ele>1045.0</ele>
        <time>2019-08-01T08:52:11.937Z</time>
      </trkpt>
      <trkpt lat="43.03198667" lon="-1.26297833">
        <ele>1046.0</ele>
        <time>2019-08-01T08:52:12.943Z</time>
      </trkpt>
      <trkpt lat="43.03198333" lon="-1.26299">
        <ele>1045.0</ele>
        <time>2019-08-01T08:52:13.949Z</time>
      </trkpt>
      <trkpt lat="43.03198833" lon="-1.26300167">
        <ele>1046.0</ele>
        <time>2019-08-01T08:52:14.954Z</time>
      </trkpt>
      <trkpt lat="43.031995" lon="-1.26301167">
        <ele>1047.0</ele>
        <time>2019-08-01T08:52:15.960Z</time>
      </trkpt>
      <trkpt lat="43.03199333" lon="-1.26302333">
        <ele>1049.0</ele>
        <time>2019-08-01T08:52:16.967Z</time>
      </trkpt>
      <trkpt lat="43.03200333" lon="-1.26303">
        <ele>1050.0</ele>
        <time>2019-08-01T08:52:17.972Z</time>
      </trkpt>
      <trkpt lat="43.03200167" lon="-1.26304">
        <ele>1050.0</ele>
        <time>2019-08-01T08:52:18.978Z</time>
      </trkpt>
      <trkpt lat="43.032005" lon="-1.26305">
        <ele>1050.0</ele>
        <time>2019-08-01T08:52:19.983Z</time>
      </trkpt>
      <trkpt lat="43.03200833" lon="-1.26306333">
        <ele>1050.0</ele>
        <time>2019-08-01T08:52:20.987Z</time>
      </trkpt>
      <trkpt lat="43.03199333" lon="-1.26307667">
        <ele>1049.0</ele>
        <time>2019-08-01T08:52:21.989Z</time>
      </trkpt>
      <trkpt lat="43.03198167" lon="-1.26309">
        <ele>1049.0</ele>
        <time>2019-08-01T08:52:22.994Z</time>
      </trkpt>
      <trkpt lat="43.03197" lon="-1.26310833">
        <ele>1049.0</ele>
        <time>2019-08-01T08:52:24.002Z</time>
      </trkpt>
      <trkpt lat="43.03195833" lon="-1.263125">
        <ele>1048.0</ele>
        <time>2019-08-01T08:52:25.010Z</time>
      </trkpt>
      <trkpt lat="43.03195167" lon="-1.26314333">
        <ele>1047.0</ele>
        <time>2019-08-01T08:52:26.014Z</time>
      </trkpt>
      <trkpt lat="43.03194667" lon="-1.26315667">
        <ele>1046.0</ele>
        <time>2019-08-01T08:52:27.020Z</time>
      </trkpt>
      <trkpt lat="43.03192833" lon="-1.26317">
        <ele>1045.0</ele>
        <time>2019-08-01T08:52:28.025Z</time>
      </trkpt>
      <trkpt lat="43.03191" lon="-1.26318333">
        <ele>1044.0</ele>
        <time>2019-08-01T08:52:29.032Z</time>
      </trkpt>
      <trkpt lat="43.03189667" lon="-1.26319667">
        <ele>1044.0</ele>
        <time>2019-08-01T08:52:30.037Z</time>
      </trkpt>
      <trkpt lat="43.03188833" lon="-1.26320667">
        <ele>1044.0</ele>
        <time>2019-08-01T08:52:30.918Z</time>
      </trkpt>
      <trkpt lat="43.03188167" lon="-1.263215">
        <ele>1045.0</ele>
        <time>2019-08-01T08:52:31.926Z</time>
      </trkpt>
      <trkpt lat="43.03188167" lon="-1.26322667">
        <ele>1045.0</ele>
        <time>2019-08-01T08:52:32.930Z</time>
      </trkpt>
      <trkpt lat="43.03188167" lon="-1.26324833">
        <ele>1045.0</ele>
        <time>2019-08-01T08:52:33.933Z</time>
      </trkpt>
      <trkpt lat="43.03188333" lon="-1.26326167">
        <ele>1045.0</ele>
        <time>2019-08-01T08:52:34.938Z</time>
      </trkpt>
      <trkpt lat="43.03187333" lon="-1.263275">
        <ele>1045.0</ele>
        <time>2019-08-01T08:52:35.944Z</time>
      </trkpt>
      <trkpt lat="43.03185667" lon="-1.26328833">
        <ele>1046.0</ele>
        <time>2019-08-01T08:52:36.951Z</time>
      </trkpt>
      <trkpt lat="43.031845" lon="-1.2633">
        <ele>1046.0</ele>
        <time>2019-08-01T08:52:37.957Z</time>
      </trkpt>
      <trkpt lat="43.03184833" lon="-1.26332167">
        <ele>1045.0</ele>
        <time>2019-08-01T08:52:38.960Z</time>
      </trkpt>
      <trkpt lat="43.03185667" lon="-1.263345">
        <ele>1046.0</ele>
        <time>2019-08-01T08:52:39.964Z</time>
      </trkpt>
      <trkpt lat="43.031865" lon="-1.26336167">
        <ele>1046.0</ele>
        <time>2019-08-01T08:52:40.969Z</time>
      </trkpt>
      <trkpt lat="43.03186667" lon="-1.26336833">
        <ele>1046.0</ele>
        <time>2019-08-01T08:52:41.973Z</time>
      </trkpt>
      <trkpt lat="43.03186167" lon="-1.26336833">
        <ele>1046.0</ele>
        <time>2019-08-01T08:52:42.979Z</time>
      </trkpt>
      <trkpt lat="43.03185333" lon="-1.26337">
        <ele>1045.0</ele>
        <time>2019-08-01T08:52:43.984Z</time>
      </trkpt>
      <trkpt lat="43.03185" lon="-1.26337833">
        <ele>1045.0</ele>
        <time>2019-08-01T08:52:44.991Z</time>
      </trkpt>
      <trkpt lat="43.03184333" lon="-1.26339167">
        <ele>1045.0</ele>
        <time>2019-08-01T08:52:45.999Z</time>
      </trkpt>
      <trkpt lat="43.031835" lon="-1.263405">
        <ele>1045.0</ele>
        <time>2019-08-01T08:52:47.006Z</time>
      </trkpt>
      <trkpt lat="43.03183333" lon="-1.263415">
        <ele>1046.0</ele>
        <time>2019-08-01T08:52:48.011Z</time>
      </trkpt>
      <trkpt lat="43.03183667" lon="-1.26343167">
        <ele>1047.0</ele>
        <time>2019-08-01T08:52:49.017Z</time>
      </trkpt>
      <trkpt lat="43.03184167" lon="-1.26345333">
        <ele>1049.0</ele>
        <time>2019-08-01T08:52:50.023Z</time>
      </trkpt>
      <trkpt lat="43.03184667" lon="-1.263475">
        <ele>1050.0</ele>
        <time>2019-08-01T08:52:51.030Z</time>
      </trkpt>
      <trkpt lat="43.03184" lon="-1.26349333">
        <ele>1050.0</ele>
        <time>2019-08-01T08:52:52.036Z</time>
      </trkpt>
      <trkpt lat="43.031825" lon="-1.263505">
        <ele>1050.0</ele>
        <time>2019-08-01T08:52:53.042Z</time>
      </trkpt>
      <trkpt lat="43.031815" lon="-1.26352">
        <ele>1051.0</ele>
        <time>2019-08-01T08:52:53.922Z</time>
      </trkpt>
      <trkpt lat="43.03180833" lon="-1.26353833">
        <ele>1051.0</ele>
        <time>2019-08-01T08:52:54.927Z</time>
      </trkpt>
      <trkpt lat="43.03178833" lon="-1.26355333">
        <ele>1050.0</ele>
        <time>2019-08-01T08:52:55.931Z</time>
      </trkpt>
      <trkpt lat="43.03177" lon="-1.26357667">
        <ele>1050.0</ele>
        <time>2019-08-01T08:52:56.934Z</time>
      </trkpt>
      <trkpt lat="43.03175833" lon="-1.263605">
        <ele>1051.0</ele>
        <time>2019-08-01T08:52:57.939Z</time>
      </trkpt>
      <trkpt lat="43.03176167" lon="-1.26363">
        <ele>1050.0</ele>
        <time>2019-08-01T08:52:58.945Z</time>
      </trkpt>
      <trkpt lat="43.03176167" lon="-1.26365">
        <ele>1050.0</ele>
        <time>2019-08-01T08:52:59.951Z</time>
      </trkpt>
      <trkpt lat="43.031755" lon="-1.263675">
        <ele>1049.0</ele>
        <time>2019-08-01T08:53:00.960Z</time>
      </trkpt>
      <trkpt lat="43.03176" lon="-1.26370167">
        <ele>1048.0</ele>
        <time>2019-08-01T08:53:01.966Z</time>
      </trkpt>
      <trkpt lat="43.03176833" lon="-1.26372667">
        <ele>1048.0</ele>
        <time>2019-08-01T08:53:02.969Z</time>
      </trkpt>
      <trkpt lat="43.031775" lon="-1.263745">
        <ele>1048.0</ele>
        <time>2019-08-01T08:53:03.975Z</time>
      </trkpt>
      <trkpt lat="43.031775" lon="-1.26376667">
        <ele>1048.0</ele>
        <time>2019-08-01T08:53:04.980Z</time>
      </trkpt>
      <trkpt lat="43.03176667" lon="-1.26378333">
        <ele>1048.0</ele>
        <time>2019-08-01T08:53:05.987Z</time>
      </trkpt>
      <trkpt lat="43.031755" lon="-1.26379333">
        <ele>1047.0</ele>
        <time>2019-08-01T08:53:06.994Z</time>
      </trkpt>
      <trkpt lat="43.03173833" lon="-1.2638">
        <ele>1046.0</ele>
        <time>2019-08-01T08:53:07.999Z</time>
      </trkpt>
      <trkpt lat="43.03172167" lon="-1.26379167">
        <ele>1046.0</ele>
        <time>2019-08-01T08:53:09.006Z</time>
      </trkpt>
      <trkpt lat="43.03170833" lon="-1.26377667">
        <ele>1045.0</ele>
        <time>2019-08-01T08:53:10.011Z</time>
      </trkpt>
      <trkpt lat="43.03170167" lon="-1.26376167">
        <ele>1045.0</ele>
        <time>2019-08-01T08:53:11.019Z</time>
      </trkpt>
      <trkpt lat="43.03170833" lon="-1.26374667">
        <ele>1044.0</ele>
        <time>2019-08-01T08:53:12.027Z</time>
      </trkpt>
      <trkpt lat="43.03171333" lon="-1.263735">
        <ele>1045.0</ele>
        <time>2019-08-01T08:53:13.033Z</time>
      </trkpt>
      <trkpt lat="43.03171667" lon="-1.26372667">
        <ele>1044.0</ele>
        <time>2019-08-01T08:53:14.039Z</time>
      </trkpt>
      <trkpt lat="43.03171167" lon="-1.263715">
        <ele>1044.0</ele>
        <time>2019-08-01T08:53:14.920Z</time>
      </trkpt>
      <trkpt lat="43.03169833" lon="-1.2637">
        <ele>1045.0</ele>
        <time>2019-08-01T08:53:15.926Z</time>
      </trkpt>
      <trkpt lat="43.03169667" lon="-1.26369">
        <ele>1045.0</ele>
        <time>2019-08-01T08:53:16.931Z</time>
      </trkpt>
      <trkpt lat="43.03171" lon="-1.26368667">
        <ele>1044.0</ele>
        <time>2019-08-01T08:53:17.936Z</time>
      </trkpt>
      <trkpt lat="43.031725" lon="-1.263685">
        <ele>1044.0</ele>
        <time>2019-08-01T08:53:18.943Z</time>
      </trkpt>
      <trkpt lat="43.03173667" lon="-1.26369167">
        <ele>1045.0</ele>
        <time>2019-08-01T08:53:19.948Z</time>
      </trkpt>
      <trkpt lat="43.03173833" lon="-1.2637">
        <ele>1045.0</ele>
        <time>2019-08-01T08:53:20.953Z</time>
      </trkpt>
      <trkpt lat="43.031735" lon="-1.263705">
        <ele>1045.0</ele>
        <time>2019-08-01T08:53:21.957Z</time>
      </trkpt>
      <trkpt lat="43.03174667" lon="-1.26371333">
        <ele>1044.0</ele>
        <time>2019-08-01T08:53:22.966Z</time>
      </trkpt>
      <trkpt lat="43.031755" lon="-1.26371833">
        <ele>1044.0</ele>
        <time>2019-08-01T08:53:23.971Z</time>
      </trkpt>
      <trkpt lat="43.03175833" lon="-1.26371333">
        <ele>1044.0</ele>
        <time>2019-08-01T08:53:24.976Z</time>
      </trkpt>
      <trkpt lat="43.03176" lon="-1.26371">
        <ele>1043.0</ele>
        <time>2019-08-01T08:53:25.979Z</time>
      </trkpt>
      <trkpt lat="43.03174833" lon="-1.26371667">
        <ele>1042.0</ele>
        <time>2019-08-01T08:53:26.981Z</time>
      </trkpt>
      <trkpt lat="43.03174333" lon="-1.26371833">
        <ele>1041.0</ele>
        <time>2019-08-01T08:53:27.987Z</time>
      </trkpt>
      <trkpt lat="43.03173333" lon="-1.263715">
        <ele>1041.0</ele>
        <time>2019-08-01T08:53:28.992Z</time>
      </trkpt>
      <trkpt lat="43.03172333" lon="-1.26371">
        <ele>1041.0</ele>
        <time>2019-08-01T08:53:29.998Z</time>
      </trkpt>
      <trkpt lat="43.03171667" lon="-1.26370667">
        <ele>1042.0</ele>
        <time>2019-08-01T08:53:31.004Z</time>
      </trkpt>
      <trkpt lat="43.03171167" lon="-1.263705">
        <ele>1042.0</ele>
        <time>2019-08-01T08:53:32.009Z</time>
      </trkpt>
      <trkpt lat="43.03170167" lon="-1.26370333">
        <ele>1041.0</ele>
        <time>2019-08-01T08:53:33.015Z</time>
      </trkpt>
      <trkpt lat="43.03169667" lon="-1.26370333">
        <ele>1040.0</ele>
        <time>2019-08-01T08:53:34.023Z</time>
      </trkpt>
      <trkpt lat="43.031695" lon="-1.26370667">
        <ele>1040.0</ele>
        <time>2019-08-01T08:53:35.029Z</time>
      </trkpt>
      <trkpt lat="43.031695" lon="-1.26371">
        <ele>1040.0</ele>
        <time>2019-08-01T08:53:36.035Z</time>
      </trkpt>
      <trkpt lat="43.03169333" lon="-1.26371167">
        <ele>1041.0</ele>
        <time>2019-08-01T08:53:37.042Z</time>
      </trkpt>
      <trkpt lat="43.03170333" lon="-1.26371">
        <ele>1040.0</ele>
        <time>2019-08-01T08:53:37.922Z</time>
      </trkpt>
      <trkpt lat="43.03170833" lon="-1.26371333">
        <ele>1040.0</ele>
        <time>2019-08-01T08:53:38.928Z</time>
      </trkpt>
      <trkpt lat="43.03171667" lon="-1.26371667">
        <ele>1040.0</ele>
        <time>2019-08-01T08:53:39.934Z</time>
      </trkpt>
      <trkpt lat="43.03172833" lon="-1.26371833">
        <ele>1040.0</ele>
        <time>2019-08-01T08:53:40.940Z</time>
      </trkpt>
      <trkpt lat="43.03173333" lon="-1.26372167">
        <ele>1040.0</ele>
        <time>2019-08-01T08:53:41.947Z</time>
      </trkpt>
      <trkpt lat="43.03173333" lon="-1.263725">
        <ele>1041.0</ele>
        <time>2019-08-01T08:53:42.954Z</time>
      </trkpt>
      <trkpt lat="43.03173333" lon="-1.26372833">
        <ele>1040.0</ele>
        <time>2019-08-01T08:53:43.960Z</time>
      </trkpt>
      <trkpt lat="43.03173833" lon="-1.263735">
        <ele>1040.0</ele>
        <time>2019-08-01T08:53:44.965Z</time>
      </trkpt>
      <trkpt lat="43.03173833" lon="-1.26374167">
        <ele>1039.0</ele>
        <time>2019-08-01T08:53:45.970Z</time>
      </trkpt>
      <trkpt lat="43.03173333" lon="-1.26374833">
        <ele>1038.0</ele>
        <time>2019-08-01T08:53:46.978Z</time>
      </trkpt>
      <trkpt lat="43.03172833" lon="-1.26375667">
        <ele>1037.0</ele>
        <time>2019-08-01T08:53:47.985Z</time>
      </trkpt>
      <trkpt lat="43.031725" lon="-1.26376">
        <ele>1037.0</ele>
        <time>2019-08-01T08:53:48.990Z</time>
      </trkpt>
      <trkpt lat="43.03172" lon="-1.26377">
        <ele>1036.0</ele>
        <time>2019-08-01T08:53:49.996Z</time>
      </trkpt>
      <trkpt lat="43.03171833" lon="-1.26377333">
        <ele>1036.0</ele>
        <time>2019-08-01T08:53:51.001Z</time>
      </trkpt>
      <trkpt lat="43.031715" lon="-1.26377167">
        <ele>1035.0</ele>
        <time>2019-08-01T08:53:52.008Z</time>
      </trkpt>
      <trkpt lat="43.03171" lon="-1.26376">
        <ele>1035.0</ele>
        <time>2019-08-01T08:53:53.013Z</time>
      </trkpt>
      <trkpt lat="43.031705" lon="-1.26374667">
        <ele>1035.0</ele>
        <time>2019-08-01T08:53:54.019Z</time>
      </trkpt>
      <trkpt lat="43.03170667" lon="-1.26373833">
        <ele>1035.0</ele>
        <time>2019-08-01T08:53:55.026Z</time>
      </trkpt>
      <trkpt lat="43.03170833" lon="-1.26373333">
        <ele>1035.0</ele>
        <time>2019-08-01T08:53:56.032Z</time>
      </trkpt>
      <trkpt lat="43.03170667" lon="-1.26373167">
        <ele>1036.0</ele>
        <time>2019-08-01T08:53:57.039Z</time>
      </trkpt>
      <trkpt lat="43.031705" lon="-1.26373333">
        <ele>1036.0</ele>
        <time>2019-08-01T08:53:57.919Z</time>
      </trkpt>
      <trkpt lat="43.031705" lon="-1.263735">
        <ele>1036.0</ele>
        <time>2019-08-01T08:53:58.924Z</time>
      </trkpt>
      <trkpt lat="43.031705" lon="-1.26373167">
        <ele>1035.0</ele>
        <time>2019-08-01T08:53:59.930Z</time>
      </trkpt>
      <trkpt lat="43.03171167" lon="-1.26372833">
        <ele>1033.0</ele>
        <time>2019-08-01T08:54:00.935Z</time>
      </trkpt>
      <trkpt lat="43.03171333" lon="-1.26372167">
        <ele>1032.0</ele>
        <time>2019-08-01T08:54:01.941Z</time>
      </trkpt>
      <trkpt lat="43.03171167" lon="-1.26371167">
        <ele>1031.0</ele>
        <time>2019-08-01T08:54:02.949Z</time>
      </trkpt>
      <trkpt lat="43.03172167" lon="-1.26369333">
        <ele>1032.0</ele>
        <time>2019-08-01T08:54:03.955Z</time>
      </trkpt>
      <trkpt lat="43.03173" lon="-1.26367833">
        <ele>1032.0</ele>
        <time>2019-08-01T08:54:04.963Z</time>
      </trkpt>
      <trkpt lat="43.031725" lon="-1.26365833">
        <ele>1031.0</ele>
        <time>2019-08-01T08:54:05.969Z</time>
      </trkpt>
      <trkpt lat="43.03171833" lon="-1.26364">
        <ele>1031.0</ele>
        <time>2019-08-01T08:54:06.973Z</time>
      </trkpt>
      <trkpt lat="43.03172333" lon="-1.26362333">
        <ele>1031.0</ele>
        <time>2019-08-01T08:54:07.978Z</time>
      </trkpt>
      <trkpt lat="43.031735" lon="-1.26360833">
        <ele>1030.0</ele>
        <time>2019-08-01T08:54:08.982Z</time>
      </trkpt>
      <trkpt lat="43.03174333" lon="-1.263595">
        <ele>1029.0</ele>
        <time>2019-08-01T08:54:09.988Z</time>
      </trkpt>
      <trkpt lat="43.03174667" lon="-1.263585">
        <ele>1027.0</ele>
        <time>2019-08-01T08:54:10.995Z</time>
      </trkpt>
      <trkpt lat="43.03174667" lon="-1.26357833">
        <ele>1026.0</ele>
        <time>2019-08-01T08:54:12.002Z</time>
      </trkpt>
      <trkpt lat="43.031745" lon="-1.26357333">
        <ele>1025.0</ele>
        <time>2019-08-01T08:54:13.008Z</time>
      </trkpt>
      <trkpt lat="43.031745" lon="-1.263565">
        <ele>1025.0</ele>
        <time>2019-08-01T08:54:14.012Z</time>
      </trkpt>
      <trkpt lat="43.03173333" lon="-1.26356833">
        <ele>1024.0</ele>
        <time>2019-08-01T08:54:15.018Z</time>
      </trkpt>
      <trkpt lat="43.03172833" lon="-1.26356667">
        <ele>1024.0</ele>
        <time>2019-08-01T08:54:16.023Z</time>
      </trkpt>
      <trkpt lat="43.03171833" lon="-1.26356667">
        <ele>1024.0</ele>
        <time>2019-08-01T08:54:17.029Z</time>
      </trkpt>
      <trkpt lat="43.03172" lon="-1.26357333">
        <ele>1025.0</ele>
        <time>2019-08-01T08:54:18.035Z</time>
      </trkpt>
      <trkpt lat="43.031725" lon="-1.26357833">
        <ele>1027.0</ele>
        <time>2019-08-01T08:54:19.042Z</time>
      </trkpt>
      <trkpt lat="43.03173" lon="-1.26358167">
        <ele>1027.0</ele>
        <time>2019-08-01T08:54:19.922Z</time>
      </trkpt>
      <trkpt lat="43.03172167" lon="-1.263585">
        <ele>1027.0</ele>
        <time>2019-08-01T08:54:20.928Z</time>
      </trkpt>
      <trkpt lat="43.03172167" lon="-1.26358333">
        <ele>1028.0</ele>
        <time>2019-08-01T08:54:21.934Z</time>
      </trkpt>
      <trkpt lat="43.03172333" lon="-1.26358167">
        <ele>1028.0</ele>
        <time>2019-08-01T08:54:22.940Z</time>
      </trkpt>
      <trkpt lat="43.03172167" lon="-1.26357833">
        <ele>1029.0</ele>
        <time>2019-08-01T08:54:23.943Z</time>
      </trkpt>
      <trkpt lat="43.031725" lon="-1.26357333">
        <ele>1028.0</ele>
        <time>2019-08-01T08:54:24.949Z</time>
      </trkpt>
      <trkpt lat="43.031725" lon="-1.26357">
        <ele>1028.0</ele>
        <time>2019-08-01T08:54:25.954Z</time>
      </trkpt>
      <trkpt lat="43.03172167" lon="-1.26357167">
        <ele>1027.0</ele>
        <time>2019-08-01T08:54:26.961Z</time>
      </trkpt>
      <trkpt lat="43.03171833" lon="-1.263575">
        <ele>1028.0</ele>
        <time>2019-08-01T08:54:27.967Z</time>
      </trkpt>
      <trkpt lat="43.03171167" lon="-1.26358">
        <ele>1028.0</ele>
        <time>2019-08-01T08:54:28.972Z</time>
      </trkpt>
      <trkpt lat="43.0317" lon="-1.263585">
        <ele>1028.0</ele>
        <time>2019-08-01T08:54:29.979Z</time>
      </trkpt>
      <trkpt lat="43.03169" lon="-1.26358833">
        <ele>1027.0</ele>
        <time>2019-08-01T08:54:30.983Z</time>
      </trkpt>
      <trkpt lat="43.03168667" lon="-1.26358667">
        <ele>1028.0</ele>
        <time>2019-08-01T08:54:31.990Z</time>
      </trkpt>
      <trkpt lat="43.03168333" lon="-1.26358667">
        <ele>1028.0</ele>
        <time>2019-08-01T08:54:32.996Z</time>
      </trkpt>
      <trkpt lat="43.03168333" lon="-1.263585">
        <ele>1028.0</ele>
        <time>2019-08-01T08:54:34.004Z</time>
      </trkpt>
      <trkpt lat="43.03168333" lon="-1.26357833">
        <ele>1029.0</ele>
        <time>2019-08-01T08:54:35.010Z</time>
      </trkpt>
      <trkpt lat="43.03168667" lon="-1.26357667">
        <ele>1029.0</ele>
        <time>2019-08-01T08:54:36.016Z</time>
      </trkpt>
      <trkpt lat="43.03169167" lon="-1.26357167">
        <ele>1029.0</ele>
        <time>2019-08-01T08:54:37.021Z</time>
      </trkpt>
      <trkpt lat="43.03170333" lon="-1.26355833">
        <ele>1028.0</ele>
        <time>2019-08-01T08:54:38.027Z</time>
      </trkpt>
      <trkpt lat="43.031715" lon="-1.26354833">
        <ele>1028.0</ele>
        <time>2019-08-01T08:54:39.033Z</time>
      </trkpt>
      <trkpt lat="43.03172167" lon="-1.26354833">
        <ele>1028.0</ele>
        <time>2019-08-01T08:54:40.037Z</time>
      </trkpt>
      <trkpt lat="43.03172833" lon="-1.26355167">
        <ele>1029.0</ele>
        <time>2019-08-01T08:54:41.041Z</time>
      </trkpt>
      <trkpt lat="43.03173" lon="-1.26355167">
        <ele>1029.0</ele>
        <time>2019-08-01T08:54:41.920Z</time>
      </trkpt>
      <trkpt lat="43.03173667" lon="-1.26355333">
        <ele>1030.0</ele>
        <time>2019-08-01T08:54:42.925Z</time>
      </trkpt>
      <trkpt lat="43.03174333" lon="-1.26355833">
        <ele>1030.0</ele>
        <time>2019-08-01T08:54:43.929Z</time>
      </trkpt>
      <trkpt lat="43.03175" lon="-1.26356167">
        <ele>1031.0</ele>
        <time>2019-08-01T08:54:44.935Z</time>
      </trkpt>
      <trkpt lat="43.03175" lon="-1.26356333">
        <ele>1031.0</ele>
        <time>2019-08-01T08:54:45.940Z</time>
      </trkpt>
      <trkpt lat="43.03174833" lon="-1.263565">
        <ele>1031.0</ele>
        <time>2019-08-01T08:54:46.947Z</time>
      </trkpt>
      <trkpt lat="43.03175" lon="-1.26356833">
        <ele>1031.0</ele>
        <time>2019-08-01T08:54:47.955Z</time>
      </trkpt>
      <trkpt lat="43.03174833" lon="-1.26357167">
        <ele>1032.0</ele>
        <time>2019-08-01T08:54:48.961Z</time>
      </trkpt>
      <trkpt lat="43.03174667" lon="-1.26357167">
        <ele>1032.0</ele>
        <time>2019-08-01T08:54:49.968Z</time>
      </trkpt>
      <trkpt lat="43.03174667" lon="-1.263575">
        <ele>1032.0</ele>
        <time>2019-08-01T08:54:50.971Z</time>
      </trkpt>
      <trkpt lat="43.03174333" lon="-1.26357833">
        <ele>1031.0</ele>
        <time>2019-08-01T08:54:51.976Z</time>
      </trkpt>
      <trkpt lat="43.03173667" lon="-1.26358167">
        <ele>1030.0</ele>
        <time>2019-08-01T08:54:52.983Z</time>
      </trkpt>
      <trkpt lat="43.031735" lon="-1.26358333">
        <ele>1030.0</ele>
        <time>2019-08-01T08:54:53.991Z</time>
      </trkpt>
      <trkpt lat="43.03174833" lon="-1.26359">
        <ele>1030.0</ele>
        <time>2019-08-01T08:54:54.996Z</time>
      </trkpt>
      <trkpt lat="43.031755" lon="-1.263595">
        <ele>1031.0</ele>
        <time>2019-08-01T08:54:56.003Z</time>
      </trkpt>
      <trkpt lat="43.031765" lon="-1.26360333">
        <ele>1031.0</ele>
        <time>2019-08-01T08:54:57.008Z</time>
      </trkpt>
      <trkpt lat="43.031765" lon="-1.26361833">
        <ele>1031.0</ele>
        <time>2019-08-01T08:54:58.013Z</time>
      </trkpt>
      <trkpt lat="43.031765" lon="-1.26362833">
        <ele>1032.0</ele>
        <time>2019-08-01T08:54:59.018Z</time>
      </trkpt>
      <trkpt lat="43.03176333" lon="-1.26364">
        <ele>1033.0</ele>
        <time>2019-08-01T08:55:00.025Z</time>
      </trkpt>
      <trkpt lat="43.03175833" lon="-1.26364833">
        <ele>1033.0</ele>
        <time>2019-08-01T08:55:01.033Z</time>
      </trkpt>
      <trkpt lat="43.03175333" lon="-1.26365667">
        <ele>1033.0</ele>
        <time>2019-08-01T08:55:02.040Z</time>
      </trkpt>
      <trkpt lat="43.03174333" lon="-1.26365833">
        <ele>1033.0</ele>
        <time>2019-08-01T08:55:02.920Z</time>
      </trkpt>
      <trkpt lat="43.031735" lon="-1.26366">
        <ele>1033.0</ele>
        <time>2019-08-01T08:55:03.926Z</time>
      </trkpt>
      <trkpt lat="43.03173" lon="-1.26365167">
        <ele>1033.0</ele>
        <time>2019-08-01T08:55:04.931Z</time>
      </trkpt>
      <trkpt lat="43.031725" lon="-1.26365167">
        <ele>1033.0</ele>
        <time>2019-08-01T08:55:05.937Z</time>
      </trkpt>
      <trkpt lat="43.031745" lon="-1.26364667">
        <ele>1033.0</ele>
        <time>2019-08-01T08:55:06.945Z</time>
      </trkpt>
      <trkpt lat="43.03175333" lon="-1.26364">
        <ele>1033.0</ele>
        <time>2019-08-01T08:55:07.952Z</time>
      </trkpt>
      <trkpt lat="43.031775" lon="-1.26363667">
        <ele>1033.0</ele>
        <time>2019-08-01T08:55:08.957Z</time>
      </trkpt>
      <trkpt lat="43.03179" lon="-1.26364167">
        <ele>1034.0</ele>
        <time>2019-08-01T08:55:09.962Z</time>
      </trkpt>
      <trkpt lat="43.031795" lon="-1.26364833">
        <ele>1034.0</ele>
        <time>2019-08-01T08:55:10.966Z</time>
      </trkpt>
      <trkpt lat="43.031795" lon="-1.26364833">
        <ele>1034.0</ele>
        <time>2019-08-01T08:55:11.971Z</time>
      </trkpt>
      <trkpt lat="43.03179333" lon="-1.26364833">
        <ele>1035.0</ele>
        <time>2019-08-01T08:55:12.978Z</time>
      </trkpt>
      <trkpt lat="43.03178167" lon="-1.26364333">
        <ele>1035.0</ele>
        <time>2019-08-01T08:55:13.985Z</time>
      </trkpt>
      <trkpt lat="43.03177167" lon="-1.26363667">
        <ele>1035.0</ele>
        <time>2019-08-01T08:55:14.992Z</time>
      </trkpt>
      <trkpt lat="43.03176333" lon="-1.26363167">
        <ele>1036.0</ele>
        <time>2019-08-01T08:55:15.998Z</time>
      </trkpt>
      <trkpt lat="43.031765" lon="-1.26363">
        <ele>1036.0</ele>
        <time>2019-08-01T08:55:17.004Z</time>
      </trkpt>
      <trkpt lat="43.03176667" lon="-1.26363">
        <ele>1036.0</ele>
        <time>2019-08-01T08:55:18.011Z</time>
      </trkpt>
      <trkpt lat="43.03177333" lon="-1.26363167">
        <ele>1036.0</ele>
        <time>2019-08-01T08:55:19.017Z</time>
      </trkpt>
      <trkpt lat="43.03177667" lon="-1.26363333">
        <ele>1035.0</ele>
        <time>2019-08-01T08:55:20.023Z</time>
      </trkpt>
      <trkpt lat="43.03178167" lon="-1.26363333">
        <ele>1035.0</ele>
        <time>2019-08-01T08:55:21.028Z</time>
      </trkpt>
      <trkpt lat="43.03179" lon="-1.26362833">
        <ele>1035.0</ele>
        <time>2019-08-01T08:55:22.032Z</time>
      </trkpt>
      <trkpt lat="43.03179333" lon="-1.26362667">
        <ele>1035.0</ele>
        <time>2019-08-01T08:55:23.041Z</time>
      </trkpt>
      <trkpt lat="43.031795" lon="-1.26362667">
        <ele>1035.0</ele>
        <time>2019-08-01T08:55:23.920Z</time>
      </trkpt>
      <trkpt lat="43.031795" lon="-1.26362833">
        <ele>1035.0</ele>
        <time>2019-08-01T08:55:24.926Z</time>
      </trkpt>
      <trkpt lat="43.03179" lon="-1.26363">
        <ele>1035.0</ele>
        <time>2019-08-01T08:55:25.930Z</time>
      </trkpt>
      <trkpt lat="43.03178333" lon="-1.26362833">
        <ele>1035.0</ele>
        <time>2019-08-01T08:55:26.935Z</time>
      </trkpt>
      <trkpt lat="43.03177833" lon="-1.26363">
        <ele>1035.0</ele>
        <time>2019-08-01T08:55:27.941Z</time>
      </trkpt>
      <trkpt lat="43.03177167" lon="-1.26363">
        <ele>1035.0</ele>
        <time>2019-08-01T08:55:28.948Z</time>
      </trkpt>
      <trkpt lat="43.03176667" lon="-1.26363">
        <ele>1035.0</ele>
        <time>2019-08-01T08:55:29.953Z</time>
      </trkpt>
      <trkpt lat="43.031765" lon="-1.263635">
        <ele>1036.0</ele>
        <time>2019-08-01T08:55:30.958Z</time>
      </trkpt>
      <trkpt lat="43.03176" lon="-1.26364167">
        <ele>1036.0</ele>
        <time>2019-08-01T08:55:31.964Z</time>
      </trkpt>
      <trkpt lat="43.03175833" lon="-1.26364667">
        <ele>1036.0</ele>
        <time>2019-08-01T08:55:32.969Z</time>
      </trkpt>
      <trkpt lat="43.03176167" lon="-1.263645">
        <ele>1036.0</ele>
        <time>2019-08-01T08:55:33.975Z</time>
      </trkpt>
      <trkpt lat="43.031765" lon="-1.26364">
        <ele>1036.0</ele>
        <time>2019-08-01T08:55:34.978Z</time>
      </trkpt>
      <trkpt lat="43.03175833" lon="-1.26364">
        <ele>1036.0</ele>
        <time>2019-08-01T08:55:35.983Z</time>
      </trkpt>
      <trkpt lat="43.03176" lon="-1.26364333">
        <ele>1037.0</ele>
        <time>2019-08-01T08:55:36.991Z</time>
      </trkpt>
      <trkpt lat="43.03177167" lon="-1.26364667">
        <ele>1036.0</ele>
        <time>2019-08-01T08:55:37.998Z</time>
      </trkpt>
      <trkpt lat="43.03177667" lon="-1.26365">
        <ele>1036.0</ele>
        <time>2019-08-01T08:55:39.006Z</time>
      </trkpt>
      <trkpt lat="43.031775" lon="-1.26366333">
        <ele>1035.0</ele>
        <time>2019-08-01T08:55:40.012Z</time>
      </trkpt>
      <trkpt lat="43.03177" lon="-1.263675">
        <ele>1034.0</ele>
        <time>2019-08-01T08:55:41.018Z</time>
      </trkpt>
      <trkpt lat="43.03175833" lon="-1.26367833">
        <ele>1034.0</ele>
        <time>2019-08-01T08:55:42.025Z</time>
      </trkpt>
      <trkpt lat="43.03175833" lon="-1.26367667">
        <ele>1035.0</ele>
        <time>2019-08-01T08:55:43.031Z</time>
      </trkpt>
      <trkpt lat="43.03175833" lon="-1.26368">
        <ele>1035.0</ele>
        <time>2019-08-01T08:55:44.038Z</time>
      </trkpt>
      <trkpt lat="43.03177" lon="-1.26368333">
        <ele>1035.0</ele>
        <time>2019-08-01T08:55:44.918Z</time>
      </trkpt>
      <trkpt lat="43.0318" lon="-1.26367833">
        <ele>1035.0</ele>
        <time>2019-08-01T08:55:45.924Z</time>
      </trkpt>
      <trkpt lat="43.03181" lon="-1.26367333">
        <ele>1034.0</ele>
        <time>2019-08-01T08:55:46.928Z</time>
      </trkpt>
      <trkpt lat="43.03179833" lon="-1.26367">
        <ele>1034.0</ele>
        <time>2019-08-01T08:55:47.934Z</time>
      </trkpt>
      <trkpt lat="43.031785" lon="-1.26367167">
        <ele>1034.0</ele>
        <time>2019-08-01T08:55:48.939Z</time>
      </trkpt>
      <trkpt lat="43.03177833" lon="-1.26367667">
        <ele>1035.0</ele>
        <time>2019-08-01T08:55:49.947Z</time>
      </trkpt>
      <trkpt lat="43.03177" lon="-1.26368667">
        <ele>1035.0</ele>
        <time>2019-08-01T08:55:50.953Z</time>
      </trkpt>
      <trkpt lat="43.03176167" lon="-1.263695">
        <ele>1036.0</ele>
        <time>2019-08-01T08:55:51.958Z</time>
      </trkpt>
      <trkpt lat="43.03175167" lon="-1.263705">
        <ele>1036.0</ele>
        <time>2019-08-01T08:55:52.962Z</time>
      </trkpt>
      <trkpt lat="43.031745" lon="-1.26371667">
        <ele>1036.0</ele>
        <time>2019-08-01T08:55:53.967Z</time>
      </trkpt>
      <trkpt lat="43.03176" lon="-1.26373167">
        <ele>1037.0</ele>
        <time>2019-08-01T08:55:54.971Z</time>
      </trkpt>
      <trkpt lat="43.031775" lon="-1.263745">
        <ele>1036.0</ele>
        <time>2019-08-01T08:55:55.977Z</time>
      </trkpt>
      <trkpt lat="43.0318" lon="-1.26375833">
        <ele>1036.0</ele>
        <time>2019-08-01T08:55:56.982Z</time>
      </trkpt>
      <trkpt lat="43.03182667" lon="-1.26376667">
        <ele>1035.0</ele>
        <time>2019-08-01T08:55:57.988Z</time>
      </trkpt>
      <trkpt lat="43.031855" lon="-1.26377167">
        <ele>1034.0</ele>
        <time>2019-08-01T08:55:58.993Z</time>
      </trkpt>
      <trkpt lat="43.03186" lon="-1.26376833">
        <ele>1033.0</ele>
        <time>2019-08-01T08:55:59.998Z</time>
      </trkpt>
      <trkpt lat="43.031855" lon="-1.26376333">
        <ele>1032.0</ele>
        <time>2019-08-01T08:56:01.003Z</time>
      </trkpt>
      <trkpt lat="43.03183" lon="-1.26375667">
        <ele>1029.0</ele>
        <time>2019-08-01T08:56:02.010Z</time>
      </trkpt>
      <trkpt lat="43.031815" lon="-1.26375">
        <ele>1028.0</ele>
        <time>2019-08-01T08:56:03.014Z</time>
      </trkpt>
      <trkpt lat="43.03181" lon="-1.263745">
        <ele>1027.0</ele>
        <time>2019-08-01T08:56:04.021Z</time>
      </trkpt>
      <trkpt lat="43.0318" lon="-1.26374333">
        <ele>1027.0</ele>
        <time>2019-08-01T08:56:05.027Z</time>
      </trkpt>
      <trkpt lat="43.03179" lon="-1.263745">
        <ele>1027.0</ele>
        <time>2019-08-01T08:56:06.034Z</time>
      </trkpt>
      <trkpt lat="43.03178167" lon="-1.26374667">
        <ele>1028.0</ele>
        <time>2019-08-01T08:56:07.039Z</time>
      </trkpt>
      <trkpt lat="43.03178667" lon="-1.263755">
        <ele>1028.0</ele>
        <time>2019-08-01T08:56:07.920Z</time>
      </trkpt>
      <trkpt lat="43.031795" lon="-1.26375667">
        <ele>1029.0</ele>
        <time>2019-08-01T08:56:08.925Z</time>
      </trkpt>
      <trkpt lat="43.03181167" lon="-1.26374667">
        <ele>1028.0</ele>
        <time>2019-08-01T08:56:09.931Z</time>
      </trkpt>
      <trkpt lat="43.031825" lon="-1.26373333">
        <ele>1028.0</ele>
        <time>2019-08-01T08:56:10.936Z</time>
      </trkpt>
      <trkpt lat="43.031825" lon="-1.26373167">
        <ele>1028.0</ele>
        <time>2019-08-01T08:56:11.941Z</time>
      </trkpt>
      <trkpt lat="43.031825" lon="-1.26373">
        <ele>1028.0</ele>
        <time>2019-08-01T08:56:12.946Z</time>
      </trkpt>
      <trkpt lat="43.03182667" lon="-1.26372833">
        <ele>1028.0</ele>
        <time>2019-08-01T08:56:13.952Z</time>
      </trkpt>
      <trkpt lat="43.03182667" lon="-1.26372667">
        <ele>1027.0</ele>
        <time>2019-08-01T08:56:14.957Z</time>
      </trkpt>
      <trkpt lat="43.031825" lon="-1.26372167">
        <ele>1028.0</ele>
        <time>2019-08-01T08:56:15.963Z</time>
      </trkpt>
      <trkpt lat="43.03182667" lon="-1.26372">
        <ele>1028.0</ele>
        <time>2019-08-01T08:56:16.969Z</time>
      </trkpt>
      <trkpt lat="43.031825" lon="-1.26371833">
        <ele>1028.0</ele>
        <time>2019-08-01T08:56:17.975Z</time>
      </trkpt>
      <trkpt lat="43.03183167" lon="-1.26372">
        <ele>1028.0</ele>
        <time>2019-08-01T08:56:18.979Z</time>
      </trkpt>
      <trkpt lat="43.03183667" lon="-1.26372">
        <ele>1028.0</ele>
        <time>2019-08-01T08:56:19.984Z</time>
      </trkpt>
      <trkpt lat="43.03184167" lon="-1.26372">
        <ele>1028.0</ele>
        <time>2019-08-01T08:56:20.990Z</time>
      </trkpt>
      <trkpt lat="43.03184667" lon="-1.26372167">
        <ele>1027.0</ele>
        <time>2019-08-01T08:56:21.996Z</time>
      </trkpt>
      <trkpt lat="43.03184833" lon="-1.263725">
        <ele>1027.0</ele>
        <time>2019-08-01T08:56:23.001Z</time>
      </trkpt>
      <trkpt lat="43.03184833" lon="-1.26372333">
        <ele>1026.0</ele>
        <time>2019-08-01T08:56:24.008Z</time>
      </trkpt>
      <trkpt lat="43.03184667" lon="-1.26372333">
        <ele>1025.0</ele>
        <time>2019-08-01T08:56:25.013Z</time>
      </trkpt>
      <trkpt lat="43.03184167" lon="-1.26372667">
        <ele>1024.0</ele>
        <time>2019-08-01T08:56:26.018Z</time>
      </trkpt>
      <trkpt lat="43.031835" lon="-1.26372833">
        <ele>1023.0</ele>
        <time>2019-08-01T08:56:27.024Z</time>
      </trkpt>
      <trkpt lat="43.031825" lon="-1.26372667">
        <ele>1022.0</ele>
        <time>2019-08-01T08:56:28.031Z</time>
      </trkpt>
      <trkpt lat="43.03180333" lon="-1.26372">
        <ele>1021.0</ele>
        <time>2019-08-01T08:56:29.038Z</time>
      </trkpt>
      <trkpt lat="43.031785" lon="-1.26371167">
        <ele>1018.0</ele>
        <time>2019-08-01T08:56:29.918Z</time>
      </trkpt>
      <trkpt lat="43.03177167" lon="-1.263705">
        <ele>1015.0</ele>
        <time>2019-08-01T08:56:30.923Z</time>
      </trkpt>
      <trkpt lat="43.03177167" lon="-1.26370167">
        <ele>1013.0</ele>
        <time>2019-08-01T08:56:31.929Z</time>
      </trkpt>
      <trkpt lat="43.03176833" lon="-1.2637">
        <ele>1011.0</ele>
        <time>2019-08-01T08:56:32.936Z</time>
      </trkpt>
      <trkpt lat="43.03177" lon="-1.26369833">
        <ele>1010.0</ele>
        <time>2019-08-01T08:56:33.941Z</time>
      </trkpt>
      <trkpt lat="43.03176667" lon="-1.26370167">
        <ele>1009.0</ele>
        <time>2019-08-01T08:56:34.946Z</time>
      </trkpt>
      <trkpt lat="43.03176" lon="-1.26370833">
        <ele>1009.0</ele>
        <time>2019-08-01T08:56:35.950Z</time>
      </trkpt>
      <trkpt lat="43.03175667" lon="-1.26371667">
        <ele>1008.0</ele>
        <time>2019-08-01T08:56:36.957Z</time>
      </trkpt>
      <trkpt lat="43.03174833" lon="-1.26372333">
        <ele>1007.0</ele>
        <time>2019-08-01T08:56:37.963Z</time>
      </trkpt>
      <trkpt lat="43.03174" lon="-1.263725">
        <ele>1007.0</ele>
        <time>2019-08-01T08:56:38.968Z</time>
      </trkpt>
      <trkpt lat="43.03173167" lon="-1.26372333">
        <ele>1007.0</ele>
        <time>2019-08-01T08:56:39.972Z</time>
      </trkpt>
      <trkpt lat="43.03172333" lon="-1.26372667">
        <ele>1008.0</ele>
        <time>2019-08-01T08:56:40.976Z</time>
      </trkpt>
      <trkpt lat="43.03170667" lon="-1.263725">
        <ele>1008.0</ele>
        <time>2019-08-01T08:56:41.979Z</time>
      </trkpt>
      <trkpt lat="43.031685" lon="-1.26372167">
        <ele>1009.0</ele>
        <time>2019-08-01T08:56:42.985Z</time>
      </trkpt>
      <trkpt lat="43.03166833" lon="-1.26371333">
        <ele>1009.0</ele>
        <time>2019-08-01T08:56:43.989Z</time>
      </trkpt>
      <trkpt lat="43.031645" lon="-1.263705">
        <ele>1010.0</ele>
        <time>2019-08-01T08:56:44.994Z</time>
      </trkpt>
      <trkpt lat="43.03163" lon="-1.26369833">
        <ele>1011.0</ele>
        <time>2019-08-01T08:56:46.002Z</time>
      </trkpt>
      <trkpt lat="43.03162333" lon="-1.263685">
        <ele>1012.0</ele>
        <time>2019-08-01T08:56:47.010Z</time>
      </trkpt>
      <trkpt lat="43.03161667" lon="-1.263675">
        <ele>1012.0</ele>
        <time>2019-08-01T08:56:48.015Z</time>
      </trkpt>
      <trkpt lat="43.03161333" lon="-1.26367">
        <ele>1012.0</ele>
        <time>2019-08-01T08:56:49.021Z</time>
      </trkpt>
      <trkpt lat="43.03161333" lon="-1.26367167">
        <ele>1012.0</ele>
        <time>2019-08-01T08:56:50.026Z</time>
      </trkpt>
      <trkpt lat="43.03161167" lon="-1.26367333">
        <ele>1011.0</ele>
        <time>2019-08-01T08:56:51.031Z</time>
      </trkpt>
      <trkpt lat="43.03161333" lon="-1.26367667">
        <ele>1011.0</ele>
        <time>2019-08-01T08:56:52.038Z</time>
      </trkpt>
      <trkpt lat="43.03162167" lon="-1.26368">
        <ele>1010.0</ele>
        <time>2019-08-01T08:56:52.920Z</time>
      </trkpt>
      <trkpt lat="43.03163667" lon="-1.263685">
        <ele>1010.0</ele>
        <time>2019-08-01T08:56:53.926Z</time>
      </trkpt>
      <trkpt lat="43.03165167" lon="-1.26368833">
        <ele>1009.0</ele>
        <time>2019-08-01T08:56:54.930Z</time>
      </trkpt>
      <trkpt lat="43.03166667" lon="-1.263685">
        <ele>1009.0</ele>
        <time>2019-08-01T08:56:55.936Z</time>
      </trkpt>
      <trkpt lat="43.03167833" lon="-1.26368167">
        <ele>1009.0</ele>
        <time>2019-08-01T08:56:56.943Z</time>
      </trkpt>
      <trkpt lat="43.03168167" lon="-1.26367667">
        <ele>1010.0</ele>
        <time>2019-08-01T08:56:57.949Z</time>
      </trkpt>
      <trkpt lat="43.03168667" lon="-1.26367167">
        <ele>1010.0</ele>
        <time>2019-08-01T08:56:58.956Z</time>
      </trkpt>
      <trkpt lat="43.03169167" lon="-1.26366667">
        <ele>1011.0</ele>
        <time>2019-08-01T08:56:59.961Z</time>
      </trkpt>
      <trkpt lat="43.031695" lon="-1.26366667">
        <ele>1012.0</ele>
        <time>2019-08-01T08:57:00.967Z</time>
      </trkpt>
      <trkpt lat="43.03170167" lon="-1.26367">
        <ele>1013.0</ele>
        <time>2019-08-01T08:57:01.973Z</time>
      </trkpt>
      <trkpt lat="43.03170833" lon="-1.263675">
        <ele>1014.0</ele>
        <time>2019-08-01T08:57:02.980Z</time>
      </trkpt>
      <trkpt lat="43.03172333" lon="-1.26368">
        <ele>1015.0</ele>
        <time>2019-08-01T08:57:03.987Z</time>
      </trkpt>
      <trkpt lat="43.03173" lon="-1.26368667">
        <ele>1017.0</ele>
        <time>2019-08-01T08:57:04.991Z</time>
      </trkpt>
      <trkpt lat="43.03173167" lon="-1.26369333">
        <ele>1017.0</ele>
        <time>2019-08-01T08:57:05.998Z</time>
      </trkpt>
      <trkpt lat="43.03172833" lon="-1.263705">
        <ele>1017.0</ele>
        <time>2019-08-01T08:57:07.006Z</time>
      </trkpt>
      <trkpt lat="43.031725" lon="-1.26371833">
        <ele>1016.0</ele>
        <time>2019-08-01T08:57:08.010Z</time>
      </trkpt>
      <trkpt lat="43.03172167" lon="-1.263725">
        <ele>1016.0</ele>
        <time>2019-08-01T08:57:09.014Z</time>
      </trkpt>
      <trkpt lat="43.03172333" lon="-1.263725">
        <ele>1015.0</ele>
        <time>2019-08-01T08:57:10.019Z</time>
      </trkpt>
      <trkpt lat="43.03172667" lon="-1.26372333">
        <ele>1015.0</ele>
        <time>2019-08-01T08:57:11.025Z</time>
      </trkpt>
      <trkpt lat="43.03172667" lon="-1.26372667">
        <ele>1014.0</ele>
        <time>2019-08-01T08:57:12.031Z</time>
      </trkpt>
      <trkpt lat="43.03172167" lon="-1.263735">
        <ele>1014.0</ele>
        <time>2019-08-01T08:57:13.036Z</time>
      </trkpt>
      <trkpt lat="43.03171833" lon="-1.26374333">
        <ele>1014.0</ele>
        <time>2019-08-01T08:57:14.042Z</time>
      </trkpt>
      <trkpt lat="43.03171667" lon="-1.26374833">
        <ele>1014.0</ele>
        <time>2019-08-01T08:57:14.920Z</time>
      </trkpt>
      <trkpt lat="43.03171833" lon="-1.26374667">
        <ele>1013.0</ele>
        <time>2019-08-01T08:57:15.924Z</time>
      </trkpt>
      <trkpt lat="43.031725" lon="-1.263745">
        <ele>1013.0</ele>
        <time>2019-08-01T08:57:16.930Z</time>
      </trkpt>
      <trkpt lat="43.03173" lon="-1.26374667">
        <ele>1013.0</ele>
        <time>2019-08-01T08:57:17.933Z</time>
      </trkpt>
      <trkpt lat="43.03173667" lon="-1.26375167">
        <ele>1013.0</ele>
        <time>2019-08-01T08:57:18.938Z</time>
      </trkpt>
      <trkpt lat="43.03174" lon="-1.26375333">
        <ele>1013.0</ele>
        <time>2019-08-01T08:57:19.944Z</time>
      </trkpt>
      <trkpt lat="43.03173833" lon="-1.26375333">
        <ele>1013.0</ele>
        <time>2019-08-01T08:57:20.952Z</time>
      </trkpt>
      <trkpt lat="43.03173667" lon="-1.263755">
        <ele>1013.0</ele>
        <time>2019-08-01T08:57:21.958Z</time>
      </trkpt>
      <trkpt lat="43.03173833" lon="-1.26376">
        <ele>1014.0</ele>
        <time>2019-08-01T08:57:22.964Z</time>
      </trkpt>
      <trkpt lat="43.03174167" lon="-1.26377">
        <ele>1015.0</ele>
        <time>2019-08-01T08:57:23.970Z</time>
      </trkpt>
      <trkpt lat="43.03175333" lon="-1.26378">
        <ele>1016.0</ele>
        <time>2019-08-01T08:57:24.972Z</time>
      </trkpt>
      <trkpt lat="43.031765" lon="-1.26379333">
        <ele>1016.0</ele>
        <time>2019-08-01T08:57:25.977Z</time>
      </trkpt>
      <trkpt lat="43.03177" lon="-1.26380833">
        <ele>1017.0</ele>
        <time>2019-08-01T08:57:26.984Z</time>
      </trkpt>
      <trkpt lat="43.03177" lon="-1.263825">
        <ele>1016.0</ele>
        <time>2019-08-01T08:57:27.990Z</time>
      </trkpt>
      <trkpt lat="43.03176833" lon="-1.26383167">
        <ele>1016.0</ele>
        <time>2019-08-01T08:57:28.997Z</time>
      </trkpt>
      <trkpt lat="43.03176333" lon="-1.26383">
        <ele>1016.0</ele>
        <time>2019-08-01T08:57:30.004Z</time>
      </trkpt>
      <trkpt lat="43.03175833" lon="-1.26382833">
        <ele>1015.0</ele>
        <time>2019-08-01T08:57:31.011Z</time>
      </trkpt>
      <trkpt lat="43.03175333" lon="-1.26382333">
        <ele>1015.0</ele>
        <time>2019-08-01T08:57:32.019Z</time>
      </trkpt>
      <trkpt lat="43.03176333" lon="-1.26382">
        <ele>1015.0</ele>
        <time>2019-08-01T08:57:33.026Z</time>
      </trkpt>
      <trkpt lat="43.03175833" lon="-1.26382">
        <ele>1016.0</ele>
        <time>2019-08-01T08:57:34.032Z</time>
      </trkpt>
      <trkpt lat="43.03175667" lon="-1.26382833">
        <ele>1017.0</ele>
        <time>2019-08-01T08:57:35.038Z</time>
      </trkpt>
      <trkpt lat="43.03175667" lon="-1.263825">
        <ele>1018.0</ele>
        <time>2019-08-01T08:57:36.041Z</time>
      </trkpt>
      <trkpt lat="43.03176" lon="-1.26383">
        <ele>1018.0</ele>
        <time>2019-08-01T08:57:36.923Z</time>
      </trkpt>
      <trkpt lat="43.031755" lon="-1.26382833">
        <ele>1018.0</ele>
        <time>2019-08-01T08:57:37.928Z</time>
      </trkpt>
      <trkpt lat="43.03175" lon="-1.263825">
        <ele>1019.0</ele>
        <time>2019-08-01T08:57:38.935Z</time>
      </trkpt>
      <trkpt lat="43.03174667" lon="-1.26383167">
        <ele>1019.0</ele>
        <time>2019-08-01T08:57:39.942Z</time>
      </trkpt>
      <trkpt lat="43.03173333" lon="-1.26383">
        <ele>1020.0</ele>
        <time>2019-08-01T08:57:40.947Z</time>
      </trkpt>
      <trkpt lat="43.03172833" lon="-1.26382667">
        <ele>1019.0</ele>
        <time>2019-08-01T08:57:41.952Z</time>
      </trkpt>
      <trkpt lat="43.031725" lon="-1.26381333">
        <ele>1018.0</ele>
        <time>2019-08-01T08:57:42.959Z</time>
      </trkpt>
      <trkpt lat="43.031725" lon="-1.26380667">
        <ele>1017.0</ele>
        <time>2019-08-01T08:57:43.965Z</time>
      </trkpt>
      <trkpt lat="43.03172333" lon="-1.2638">
        <ele>1016.0</ele>
        <time>2019-08-01T08:57:44.969Z</time>
      </trkpt>
      <trkpt lat="43.031725" lon="-1.26379333">
        <ele>1015.0</ele>
        <time>2019-08-01T08:57:45.973Z</time>
      </trkpt>
      <trkpt lat="43.03172833" lon="-1.26378667">
        <ele>1014.0</ele>
        <time>2019-08-01T08:57:46.979Z</time>
      </trkpt>
      <trkpt lat="43.03173167" lon="-1.26378167">
        <ele>1014.0</ele>
        <time>2019-08-01T08:57:47.984Z</time>
      </trkpt>
      <trkpt lat="43.03173333" lon="-1.26377667">
        <ele>1013.0</ele>
        <time>2019-08-01T08:57:48.990Z</time>
      </trkpt>
      <trkpt lat="43.03173167" lon="-1.26377333">
        <ele>1013.0</ele>
        <time>2019-08-01T08:57:49.996Z</time>
      </trkpt>
      <trkpt lat="43.03172833" lon="-1.263775">
        <ele>1013.0</ele>
        <time>2019-08-01T08:57:51.002Z</time>
      </trkpt>
      <trkpt lat="43.03172667" lon="-1.26377667">
        <ele>1013.0</ele>
        <time>2019-08-01T08:57:52.009Z</time>
      </trkpt>
      <trkpt lat="43.03173333" lon="-1.26377833">
        <ele>1013.0</ele>
        <time>2019-08-01T08:57:53.016Z</time>
      </trkpt>
      <trkpt lat="43.03173167" lon="-1.26377833">
        <ele>1013.0</ele>
        <time>2019-08-01T08:57:54.023Z</time>
      </trkpt>
      <trkpt lat="43.03172833" lon="-1.26377667">
        <ele>1013.0</ele>
        <time>2019-08-01T08:57:55.030Z</time>
      </trkpt>
      <trkpt lat="43.03172833" lon="-1.26377833">
        <ele>1013.0</ele>
        <time>2019-08-01T08:57:56.036Z</time>
      </trkpt>
      <trkpt lat="43.03173333" lon="-1.26377333">
        <ele>1013.0</ele>
        <time>2019-08-01T08:57:57.041Z</time>
      </trkpt>
      <trkpt lat="43.03173667" lon="-1.26376333">
        <ele>1012.0</ele>
        <time>2019-08-01T08:57:57.922Z</time>
      </trkpt>
      <trkpt lat="43.03174167" lon="-1.26374667">
        <ele>1012.0</ele>
        <time>2019-08-01T08:57:58.928Z</time>
      </trkpt>
      <trkpt lat="43.03174833" lon="-1.26373667">
        <ele>1011.0</ele>
        <time>2019-08-01T08:57:59.933Z</time>
      </trkpt>
      <trkpt lat="43.031755" lon="-1.26374667">
        <ele>1010.0</ele>
        <time>2019-08-01T08:58:00.941Z</time>
      </trkpt>
      <trkpt lat="43.03175667" lon="-1.26375667">
        <ele>1010.0</ele>
        <time>2019-08-01T08:58:01.947Z</time>
      </trkpt>
      <trkpt lat="43.03175833" lon="-1.26376">
        <ele>1010.0</ele>
        <time>2019-08-01T08:58:02.953Z</time>
      </trkpt>
      <trkpt lat="43.03176" lon="-1.26376333">
        <ele>1010.0</ele>
        <time>2019-08-01T08:58:03.958Z</time>
      </trkpt>
      <trkpt lat="43.03175333" lon="-1.26376167">
        <ele>1010.0</ele>
        <time>2019-08-01T08:58:04.963Z</time>
      </trkpt>
      <trkpt lat="43.03175333" lon="-1.26375333">
        <ele>1012.0</ele>
        <time>2019-08-01T08:58:05.967Z</time>
      </trkpt>
      <trkpt lat="43.03176167" lon="-1.26375833">
        <ele>1013.0</ele>
        <time>2019-08-01T08:58:06.971Z</time>
      </trkpt>
      <trkpt lat="43.03178" lon="-1.26376667">
        <ele>1013.0</ele>
        <time>2019-08-01T08:58:07.976Z</time>
      </trkpt>
      <trkpt lat="43.03179" lon="-1.26376833">
        <ele>1012.0</ele>
        <time>2019-08-01T08:58:08.982Z</time>
      </trkpt>
      <trkpt lat="43.03178833" lon="-1.26376167">
        <ele>1011.0</ele>
        <time>2019-08-01T08:58:09.986Z</time>
      </trkpt>
      <trkpt lat="43.03178833" lon="-1.26375333">
        <ele>1010.0</ele>
        <time>2019-08-01T08:58:10.993Z</time>
      </trkpt>
      <trkpt lat="43.03177833" lon="-1.26374167">
        <ele>1010.0</ele>
        <time>2019-08-01T08:58:11.999Z</time>
      </trkpt>
      <trkpt lat="43.031775" lon="-1.263725">
        <ele>1010.0</ele>
        <time>2019-08-01T08:58:13.007Z</time>
      </trkpt>
      <trkpt lat="43.03177333" lon="-1.26370833">
        <ele>1010.0</ele>
        <time>2019-08-01T08:58:14.011Z</time>
      </trkpt>
      <trkpt lat="43.03178667" lon="-1.2637">
        <ele>1010.0</ele>
        <time>2019-08-01T08:58:15.017Z</time>
      </trkpt>
      <trkpt lat="43.03179167" lon="-1.26369333">
        <ele>1010.0</ele>
        <time>2019-08-01T08:58:16.025Z</time>
      </trkpt>
      <trkpt lat="43.03180333" lon="-1.26369">
        <ele>1011.0</ele>
        <time>2019-08-01T08:58:17.031Z</time>
      </trkpt>
      <trkpt lat="43.03181833" lon="-1.26369667">
        <ele>1011.0</ele>
        <time>2019-08-01T08:58:18.036Z</time>
      </trkpt>
      <trkpt lat="43.03183167" lon="-1.263695">
        <ele>1010.0</ele>
        <time>2019-08-01T08:58:19.042Z</time>
      </trkpt>
      <trkpt lat="43.03183" lon="-1.26368833">
        <ele>1010.0</ele>
        <time>2019-08-01T08:58:19.923Z</time>
      </trkpt>
      <trkpt lat="43.03182667" lon="-1.26367667">
        <ele>1011.0</ele>
        <time>2019-08-01T08:58:20.930Z</time>
      </trkpt>
      <trkpt lat="43.03182667" lon="-1.26366833">
        <ele>1011.0</ele>
        <time>2019-08-01T08:58:21.936Z</time>
      </trkpt>
      <trkpt lat="43.03182667" lon="-1.263665">
        <ele>1012.0</ele>
        <time>2019-08-01T08:58:22.942Z</time>
      </trkpt>
      <trkpt lat="43.031825" lon="-1.26366833">
        <ele>1012.0</ele>
        <time>2019-08-01T08:58:23.947Z</time>
      </trkpt>
      <trkpt lat="43.03182167" lon="-1.26367167">
        <ele>1012.0</ele>
        <time>2019-08-01T08:58:24.952Z</time>
      </trkpt>
      <trkpt lat="43.03181833" lon="-1.26367167">
        <ele>1012.0</ele>
        <time>2019-08-01T08:58:25.957Z</time>
      </trkpt>
      <trkpt lat="43.03181333" lon="-1.26366833">
        <ele>1012.0</ele>
        <time>2019-08-01T08:58:26.963Z</time>
      </trkpt>
      <trkpt lat="43.03180667" lon="-1.26367">
        <ele>1012.0</ele>
        <time>2019-08-01T08:58:27.969Z</time>
      </trkpt>
      <trkpt lat="43.0318" lon="-1.263675">
        <ele>1012.0</ele>
        <time>2019-08-01T08:58:28.974Z</time>
      </trkpt>
      <trkpt lat="43.03179333" lon="-1.26367833">
        <ele>1012.0</ele>
        <time>2019-08-01T08:58:29.979Z</time>
      </trkpt>
      <trkpt lat="43.031795" lon="-1.26368">
        <ele>1012.0</ele>
        <time>2019-08-01T08:58:30.984Z</time>
      </trkpt>
      <trkpt lat="43.031795" lon="-1.26368167">
        <ele>1012.0</ele>
        <time>2019-08-01T08:58:31.990Z</time>
      </trkpt>
      <trkpt lat="43.031795" lon="-1.263685">
        <ele>1013.0</ele>
        <time>2019-08-01T08:58:32.996Z</time>
      </trkpt>
      <trkpt lat="43.031785" lon="-1.263685">
        <ele>1014.0</ele>
        <time>2019-08-01T08:58:34.003Z</time>
      </trkpt>
      <trkpt lat="43.03178167" lon="-1.26368333">
        <ele>1015.0</ele>
        <time>2019-08-01T08:58:35.008Z</time>
      </trkpt>
      <trkpt lat="43.03178" lon="-1.26368167">
        <ele>1015.0</ele>
        <time>2019-08-01T08:58:36.013Z</time>
      </trkpt>
      <trkpt lat="43.03178167" lon="-1.26368167">
        <ele>1015.0</ele>
        <time>2019-08-01T08:58:37.021Z</time>
      </trkpt>
      <trkpt lat="43.03178667" lon="-1.263685">
        <ele>1016.0</ele>
        <time>2019-08-01T08:58:38.029Z</time>
      </trkpt>
      <trkpt lat="43.03178833" lon="-1.26368333">
        <ele>1016.0</ele>
        <time>2019-08-01T08:58:39.034Z</time>
      </trkpt>
      <trkpt lat="43.0318" lon="-1.26368167">
        <ele>1016.0</ele>
        <time>2019-08-01T08:58:40.040Z</time>
      </trkpt>
      <trkpt lat="43.031815" lon="-1.26368167">
        <ele>1016.0</ele>
        <time>2019-08-01T08:58:40.921Z</time>
      </trkpt>
      <trkpt lat="43.031835" lon="-1.26367667">
        <ele>1017.0</ele>
        <time>2019-08-01T08:58:41.924Z</time>
      </trkpt>
      <trkpt lat="43.03185333" lon="-1.26366833">
        <ele>1017.0</ele>
        <time>2019-08-01T08:58:42.929Z</time>
      </trkpt>
      <trkpt lat="43.03187333" lon="-1.26365833">
        <ele>1018.0</ele>
        <time>2019-08-01T08:58:43.937Z</time>
      </trkpt>
      <trkpt lat="43.03188667" lon="-1.26365333">
        <ele>1019.0</ele>
        <time>2019-08-01T08:58:44.942Z</time>
      </trkpt>
      <trkpt lat="43.03189" lon="-1.26365333">
        <ele>1020.0</ele>
        <time>2019-08-01T08:58:45.948Z</time>
      </trkpt>
      <trkpt lat="43.03188833" lon="-1.26365333">
        <ele>1023.0</ele>
        <time>2019-08-01T08:58:46.955Z</time>
      </trkpt>
      <trkpt lat="43.03189" lon="-1.263655">
        <ele>1025.0</ele>
        <time>2019-08-01T08:58:47.961Z</time>
      </trkpt>
      <trkpt lat="43.03188833" lon="-1.26365167">
        <ele>1025.0</ele>
        <time>2019-08-01T08:58:48.966Z</time>
      </trkpt>
      <trkpt lat="43.03188333" lon="-1.26364667">
        <ele>1026.0</ele>
        <time>2019-08-01T08:58:49.971Z</time>
      </trkpt>
      <trkpt lat="43.031865" lon="-1.26363833">
        <ele>1027.0</ele>
        <time>2019-08-01T08:58:50.976Z</time>
      </trkpt>
      <trkpt lat="43.03184333" lon="-1.26363">
        <ele>1028.0</ele>
        <time>2019-08-01T08:58:51.983Z</time>
      </trkpt>
      <trkpt lat="43.03182" lon="-1.26362333">
        <ele>1029.0</ele>
        <time>2019-08-01T08:58:52.987Z</time>
      </trkpt>
      <trkpt lat="43.03180833" lon="-1.263625">
        <ele>1029.0</ele>
        <time>2019-08-01T08:58:53.994Z</time>
      </trkpt>
      <trkpt lat="43.03181333" lon="-1.26364167">
        <ele>1030.0</ele>
        <time>2019-08-01T08:58:54.999Z</time>
      </trkpt>
      <trkpt lat="43.031815" lon="-1.26365667">
        <ele>1030.0</ele>
        <time>2019-08-01T08:58:56.002Z</time>
      </trkpt>
      <trkpt lat="43.031815" lon="-1.26367">
        <ele>1030.0</ele>
        <time>2019-08-01T08:58:57.008Z</time>
      </trkpt>
      <trkpt lat="43.03181333" lon="-1.26368333">
        <ele>1030.0</ele>
        <time>2019-08-01T08:58:58.013Z</time>
      </trkpt>
      <trkpt lat="43.03179833" lon="-1.26368">
        <ele>1030.0</ele>
        <time>2019-08-01T08:58:59.019Z</time>
      </trkpt>
      <trkpt lat="43.03178167" lon="-1.26367">
        <ele>1030.0</ele>
        <time>2019-08-01T08:59:00.025Z</time>
      </trkpt>
      <trkpt lat="43.031765" lon="-1.26366">
        <ele>1030.0</ele>
        <time>2019-08-01T08:59:01.031Z</time>
      </trkpt>
      <trkpt lat="43.03174833" lon="-1.26365833">
        <ele>1027.0</ele>
        <time>2019-08-01T08:59:02.037Z</time>
      </trkpt>
      <trkpt lat="43.03173833" lon="-1.26366167">
        <ele>1025.0</ele>
        <time>2019-08-01T08:59:02.919Z</time>
      </trkpt>
      <trkpt lat="43.03173167" lon="-1.26366333">
        <ele>1025.0</ele>
        <time>2019-08-01T08:59:03.925Z</time>
      </trkpt>
      <trkpt lat="43.031725" lon="-1.263665">
        <ele>1024.0</ele>
        <time>2019-08-01T08:59:04.931Z</time>
      </trkpt>
      <trkpt lat="43.03171167" lon="-1.26366333">
        <ele>1024.0</ele>
        <time>2019-08-01T08:59:05.937Z</time>
      </trkpt>
      <trkpt lat="43.03170167" lon="-1.26367">
        <ele>1024.0</ele>
        <time>2019-08-01T08:59:06.942Z</time>
      </trkpt>
      <trkpt lat="43.03169333" lon="-1.26368333">
        <ele>1025.0</ele>
        <time>2019-08-01T08:59:07.948Z</time>
      </trkpt>
      <trkpt lat="43.031685" lon="-1.26368833">
        <ele>1026.0</ele>
        <time>2019-08-01T08:59:08.954Z</time>
      </trkpt>
      <trkpt lat="43.03168167" lon="-1.26368667">
        <ele>1027.0</ele>
        <time>2019-08-01T08:59:09.959Z</time>
      </trkpt>
      <trkpt lat="43.03167333" lon="-1.26368833">
        <ele>1027.0</ele>
        <time>2019-08-01T08:59:10.966Z</time>
      </trkpt>
      <trkpt lat="43.03167" lon="-1.26368833">
        <ele>1027.0</ele>
        <time>2019-08-01T08:59:11.972Z</time>
      </trkpt>
      <trkpt lat="43.03167" lon="-1.26368667">
        <ele>1027.0</ele>
        <time>2019-08-01T08:59:12.978Z</time>
      </trkpt>
      <trkpt lat="43.03167167" lon="-1.263695">
        <ele>1027.0</ele>
        <time>2019-08-01T08:59:13.985Z</time>
      </trkpt>
      <trkpt lat="43.03166667" lon="-1.26369333">
        <ele>1026.0</ele>
        <time>2019-08-01T08:59:14.990Z</time>
      </trkpt>
      <trkpt lat="43.03164833" lon="-1.263685">
        <ele>1025.0</ele>
        <time>2019-08-01T08:59:15.995Z</time>
      </trkpt>
      <trkpt lat="43.03163167" lon="-1.26367833">
        <ele>1024.0</ele>
        <time>2019-08-01T08:59:17.002Z</time>
      </trkpt>
      <trkpt lat="43.03163167" lon="-1.26368333">
        <ele>1024.0</ele>
        <time>2019-08-01T08:59:18.008Z</time>
      </trkpt>
      <trkpt lat="43.03163333" lon="-1.26368833">
        <ele>1024.0</ele>
        <time>2019-08-01T08:59:19.013Z</time>
      </trkpt>
      <trkpt lat="43.03163167" lon="-1.26369333">
        <ele>1024.0</ele>
        <time>2019-08-01T08:59:20.019Z</time>
      </trkpt>
      <trkpt lat="43.03163167" lon="-1.26369667">
        <ele>1025.0</ele>
        <time>2019-08-01T08:59:21.024Z</time>
      </trkpt>
      <trkpt lat="43.03163" lon="-1.26370167">
        <ele>1025.0</ele>
        <time>2019-08-01T08:59:22.030Z</time>
      </trkpt>
      <trkpt lat="43.03163167" lon="-1.26370333">
        <ele>1025.0</ele>
        <time>2019-08-01T08:59:23.033Z</time>
      </trkpt>
      <trkpt lat="43.03163" lon="-1.26370333">
        <ele>1025.0</ele>
        <time>2019-08-01T08:59:24.041Z</time>
      </trkpt>
      <trkpt lat="43.03163333" lon="-1.26369667">
        <ele>1025.0</ele>
        <time>2019-08-01T08:59:24.921Z</time>
      </trkpt>
      <trkpt lat="43.031635" lon="-1.26368333">
        <ele>1025.0</ele>
        <time>2019-08-01T08:59:25.928Z</time>
      </trkpt>
      <trkpt lat="43.03163833" lon="-1.263675">
        <ele>1025.0</ele>
        <time>2019-08-01T08:59:26.934Z</time>
      </trkpt>
      <trkpt lat="43.031655" lon="-1.26366667">
        <ele>1025.0</ele>
        <time>2019-08-01T08:59:27.940Z</time>
      </trkpt>
      <trkpt lat="43.03167" lon="-1.26365167">
        <ele>1025.0</ele>
        <time>2019-08-01T08:59:28.945Z</time>
      </trkpt>
      <trkpt lat="43.03167667" lon="-1.26363833">
        <ele>1025.0</ele>
        <time>2019-08-01T08:59:29.950Z</time>
      </trkpt>
      <trkpt lat="43.03168167" lon="-1.26362333">
        <ele>1026.0</ele>
        <time>2019-08-01T08:59:30.955Z</time>
      </trkpt>
      <trkpt lat="43.03168333" lon="-1.26361667">
        <ele>1027.0</ele>
        <time>2019-08-01T08:59:31.961Z</time>
      </trkpt>
      <trkpt lat="43.031685" lon="-1.26360667">
        <ele>1027.0</ele>
        <time>2019-08-01T08:59:32.966Z</time>
      </trkpt>
      <trkpt lat="43.03168167" lon="-1.26359833">
        <ele>1028.0</ele>
        <time>2019-08-01T08:59:33.970Z</time>
      </trkpt>
      <trkpt lat="43.03166833" lon="-1.26359833">
        <ele>1029.0</ele>
        <time>2019-08-01T08:59:34.977Z</time>
      </trkpt>
      <trkpt lat="43.031665" lon="-1.263595">
        <ele>1029.0</ele>
        <time>2019-08-01T08:59:35.985Z</time>
      </trkpt>
      <trkpt lat="43.03167" lon="-1.26359833">
        <ele>1028.0</ele>
        <time>2019-08-01T08:59:36.989Z</time>
      </trkpt>
      <trkpt lat="43.03168333" lon="-1.26360333">
        <ele>1028.0</ele>
        <time>2019-08-01T08:59:37.996Z</time>
      </trkpt>
      <trkpt lat="43.03170333" lon="-1.26361">
        <ele>1028.0</ele>
        <time>2019-08-01T08:59:39.001Z</time>
      </trkpt>
      <trkpt lat="43.031715" lon="-1.26361667">
        <ele>1029.0</ele>
        <time>2019-08-01T08:59:40.008Z</time>
      </trkpt>
      <trkpt lat="43.03171833" lon="-1.26362">
        <ele>1029.0</ele>
        <time>2019-08-01T08:59:41.012Z</time>
      </trkpt>
      <trkpt lat="43.03171667" lon="-1.26362333">
        <ele>1030.0</ele>
        <time>2019-08-01T08:59:42.015Z</time>
      </trkpt>
      <trkpt lat="43.031715" lon="-1.263625">
        <ele>1031.0</ele>
        <time>2019-08-01T08:59:43.023Z</time>
      </trkpt>
      <trkpt lat="43.03171667" lon="-1.26363">
        <ele>1031.0</ele>
        <time>2019-08-01T08:59:44.030Z</time>
      </trkpt>
      <trkpt lat="43.03172" lon="-1.26363167">
        <ele>1032.0</ele>
        <time>2019-08-01T08:59:45.036Z</time>
      </trkpt>
      <trkpt lat="43.03171833" lon="-1.26362667">
        <ele>1032.0</ele>
        <time>2019-08-01T08:59:46.041Z</time>
      </trkpt>
      <trkpt lat="43.03172" lon="-1.26362">
        <ele>1032.0</ele>
        <time>2019-08-01T08:59:46.920Z</time>
      </trkpt>
      <trkpt lat="43.03172" lon="-1.26362">
        <ele>1032.0</ele>
        <time>2019-08-01T08:59:47.925Z</time>
      </trkpt>
      <trkpt lat="43.031725" lon="-1.26362333">
        <ele>1032.0</ele>
        <time>2019-08-01T08:59:48.931Z</time>
      </trkpt>
      <trkpt lat="43.03173" lon="-1.26362833">
        <ele>1032.0</ele>
        <time>2019-08-01T08:59:49.938Z</time>
      </trkpt>
      <trkpt lat="43.03173667" lon="-1.26363333">
        <ele>1031.0</ele>
        <time>2019-08-01T08:59:50.942Z</time>
      </trkpt>
      <trkpt lat="43.03174" lon="-1.26363833">
        <ele>1031.0</ele>
        <time>2019-08-01T08:59:51.948Z</time>
      </trkpt>
      <trkpt lat="43.031745" lon="-1.263645">
        <ele>1031.0</ele>
        <time>2019-08-01T08:59:52.956Z</time>
      </trkpt>
      <trkpt lat="43.031755" lon="-1.26365333">
        <ele>1030.0</ele>
        <time>2019-08-01T08:59:53.962Z</time>
      </trkpt>
      <trkpt lat="43.031765" lon="-1.26366167">
        <ele>1030.0</ele>
        <time>2019-08-01T08:59:54.969Z</time>
      </trkpt>
      <trkpt lat="43.03177667" lon="-1.26367167">
        <ele>1030.0</ele>
        <time>2019-08-01T08:59:55.974Z</time>
      </trkpt>
      <trkpt lat="43.03178" lon="-1.263675">
        <ele>1030.0</ele>
        <time>2019-08-01T08:59:56.981Z</time>
      </trkpt>
      <trkpt lat="43.03178333" lon="-1.26367667">
        <ele>1030.0</ele>
        <time>2019-08-01T08:59:57.986Z</time>
      </trkpt>
      <trkpt lat="43.03178" lon="-1.26367667">
        <ele>1030.0</ele>
        <time>2019-08-01T08:59:58.992Z</time>
      </trkpt>
      <trkpt lat="43.03177667" lon="-1.26367833">
        <ele>1030.0</ele>
        <time>2019-08-01T08:59:59.998Z</time>
      </trkpt>
      <trkpt lat="43.031775" lon="-1.26367">
        <ele>1030.0</ele>
        <time>2019-08-01T09:00:01.005Z</time>
      </trkpt>
      <trkpt lat="43.031765" lon="-1.263665">
        <ele>1030.0</ele>
        <time>2019-08-01T09:00:02.010Z</time>
      </trkpt>
      <trkpt lat="43.03175667" lon="-1.26366">
        <ele>1030.0</ele>
        <time>2019-08-01T09:00:03.016Z</time>
      </trkpt>
      <trkpt lat="43.03175167" lon="-1.26365667">
        <ele>1029.0</ele>
        <time>2019-08-01T09:00:04.021Z</time>
      </trkpt>
      <trkpt lat="43.031745" lon="-1.26364833">
        <ele>1029.0</ele>
        <time>2019-08-01T09:00:05.027Z</time>
      </trkpt>
      <trkpt lat="43.031745" lon="-1.26365333">
        <ele>1029.0</ele>
        <time>2019-08-01T09:00:06.034Z</time>
      </trkpt>
      <trkpt lat="43.03176" lon="-1.26366833">
        <ele>1028.0</ele>
        <time>2019-08-01T09:00:07.041Z</time>
      </trkpt>
      <trkpt lat="43.031775" lon="-1.26367">
        <ele>1028.0</ele>
        <time>2019-08-01T09:00:07.922Z</time>
      </trkpt>
      <trkpt lat="43.031795" lon="-1.26367167">
        <ele>1027.0</ele>
        <time>2019-08-01T09:00:08.926Z</time>
      </trkpt>
      <trkpt lat="43.03181" lon="-1.26366">
        <ele>1027.0</ele>
        <time>2019-08-01T09:00:09.930Z</time>
      </trkpt>
      <trkpt lat="43.03180167" lon="-1.263635">
        <ele>1028.0</ele>
        <time>2019-08-01T09:00:10.935Z</time>
      </trkpt>
      <trkpt lat="43.03179667" lon="-1.26362333">
        <ele>1028.0</ele>
        <time>2019-08-01T09:00:11.937Z</time>
      </trkpt>
      <trkpt lat="43.03179" lon="-1.26360667">
        <ele>1028.0</ele>
        <time>2019-08-01T09:00:12.941Z</time>
      </trkpt>
      <trkpt lat="43.03178" lon="-1.26359333">
        <ele>1029.0</ele>
        <time>2019-08-01T09:00:13.947Z</time>
      </trkpt>
      <trkpt lat="43.03176333" lon="-1.26356167">
        <ele>1030.0</ele>
        <time>2019-08-01T09:00:14.952Z</time>
      </trkpt>
      <trkpt lat="43.03176" lon="-1.263545">
        <ele>1031.0</ele>
        <time>2019-08-01T09:00:15.958Z</time>
      </trkpt>
      <trkpt lat="43.03177" lon="-1.263545">
        <ele>1031.0</ele>
        <time>2019-08-01T09:00:16.965Z</time>
      </trkpt>
      <trkpt lat="43.03178167" lon="-1.26354333">
        <ele>1032.0</ele>
        <time>2019-08-01T09:00:17.969Z</time>
      </trkpt>
      <trkpt lat="43.031795" lon="-1.26354833">
        <ele>1032.0</ele>
        <time>2019-08-01T09:00:18.974Z</time>
      </trkpt>
      <trkpt lat="43.03181167" lon="-1.26356167">
        <ele>1031.0</ele>
        <time>2019-08-01T09:00:19.979Z</time>
      </trkpt>
      <trkpt lat="43.03182" lon="-1.26357667">
        <ele>1030.0</ele>
        <time>2019-08-01T09:00:20.984Z</time>
      </trkpt>
      <trkpt lat="43.03181" lon="-1.26359833">
        <ele>1030.0</ele>
        <time>2019-08-01T09:00:21.990Z</time>
      </trkpt>
      <trkpt lat="43.03181167" lon="-1.26361">
        <ele>1030.0</ele>
        <time>2019-08-01T09:00:22.996Z</time>
      </trkpt>
      <trkpt lat="43.031825" lon="-1.26361667">
        <ele>1030.0</ele>
        <time>2019-08-01T09:00:24.003Z</time>
      </trkpt>
      <trkpt lat="43.03184" lon="-1.26362167">
        <ele>1029.0</ele>
        <time>2019-08-01T09:00:25.010Z</time>
      </trkpt>
      <trkpt lat="43.031855" lon="-1.26363167">
        <ele>1029.0</ele>
        <time>2019-08-01T09:00:26.012Z</time>
      </trkpt>
      <trkpt lat="43.031855" lon="-1.263645">
        <ele>1028.0</ele>
        <time>2019-08-01T09:00:27.014Z</time>
      </trkpt>
      <trkpt lat="43.03186167" lon="-1.26365">
        <ele>1028.0</ele>
        <time>2019-08-01T09:00:28.019Z</time>
      </trkpt>
      <trkpt lat="43.03186333" lon="-1.26365333">
        <ele>1027.0</ele>
        <time>2019-08-01T09:00:29.025Z</time>
      </trkpt>
      <trkpt lat="43.03186833" lon="-1.26364">
        <ele>1028.0</ele>
        <time>2019-08-01T09:00:30.031Z</time>
      </trkpt>
      <trkpt lat="43.03186" lon="-1.263625">
        <ele>1028.0</ele>
        <time>2019-08-01T09:00:31.034Z</time>
      </trkpt>
      <trkpt lat="43.03184333" lon="-1.26360833">
        <ele>1028.0</ele>
        <time>2019-08-01T09:00:32.042Z</time>
      </trkpt>
      <trkpt lat="43.031835" lon="-1.26359167">
        <ele>1028.0</ele>
        <time>2019-08-01T09:00:32.922Z</time>
      </trkpt>
      <trkpt lat="43.03183" lon="-1.263585">
        <ele>1028.0</ele>
        <time>2019-08-01T09:00:33.927Z</time>
      </trkpt>
      <trkpt lat="43.03184" lon="-1.26359833">
        <ele>1028.0</ele>
        <time>2019-08-01T09:00:34.931Z</time>
      </trkpt>
      <trkpt lat="43.03184833" lon="-1.26360333">
        <ele>1028.0</ele>
        <time>2019-08-01T09:00:35.936Z</time>
      </trkpt>
      <trkpt lat="43.03184333" lon="-1.2636">
        <ele>1027.0</ele>
        <time>2019-08-01T09:00:36.940Z</time>
      </trkpt>
      <trkpt lat="43.03183167" lon="-1.263595">
        <ele>1027.0</ele>
        <time>2019-08-01T09:00:37.945Z</time>
      </trkpt>
      <trkpt lat="43.03181" lon="-1.26359667">
        <ele>1027.0</ele>
        <time>2019-08-01T09:00:38.949Z</time>
      </trkpt>
      <trkpt lat="43.03179167" lon="-1.263605">
        <ele>1028.0</ele>
        <time>2019-08-01T09:00:39.954Z</time>
      </trkpt>
      <trkpt lat="43.03177667" lon="-1.26362">
        <ele>1030.0</ele>
        <time>2019-08-01T09:00:40.960Z</time>
      </trkpt>
      <trkpt lat="43.03175167" lon="-1.26363833">
        <ele>1030.0</ele>
        <time>2019-08-01T09:00:41.965Z</time>
      </trkpt>
      <trkpt lat="43.03174167" lon="-1.26367167">
        <ele>1032.0</ele>
        <time>2019-08-01T09:00:42.971Z</time>
      </trkpt>
      <trkpt lat="43.03175167" lon="-1.26368833">
        <ele>1032.0</ele>
        <time>2019-08-01T09:00:43.976Z</time>
      </trkpt>
      <trkpt lat="43.03177167" lon="-1.26371">
        <ele>1032.0</ele>
        <time>2019-08-01T09:00:44.983Z</time>
      </trkpt>
      <trkpt lat="43.031775" lon="-1.26372667">
        <ele>1033.0</ele>
        <time>2019-08-01T09:00:45.988Z</time>
      </trkpt>
      <trkpt lat="43.031775" lon="-1.26374167">
        <ele>1033.0</ele>
        <time>2019-08-01T09:00:46.995Z</time>
      </trkpt>
      <trkpt lat="43.03177833" lon="-1.26375833">
        <ele>1035.0</ele>
        <time>2019-08-01T09:00:48.001Z</time>
      </trkpt>
      <trkpt lat="43.031775" lon="-1.26378">
        <ele>1036.0</ele>
        <time>2019-08-01T09:00:49.007Z</time>
      </trkpt>
      <trkpt lat="43.03177167" lon="-1.26379">
        <ele>1037.0</ele>
        <time>2019-08-01T09:00:50.012Z</time>
      </trkpt>
      <trkpt lat="43.03176833" lon="-1.26379667">
        <ele>1036.0</ele>
        <time>2019-08-01T09:00:51.019Z</time>
      </trkpt>
      <trkpt lat="43.03176833" lon="-1.26381167">
        <ele>1036.0</ele>
        <time>2019-08-01T09:00:52.024Z</time>
      </trkpt>
      <trkpt lat="43.03176833" lon="-1.26382333">
        <ele>1038.0</ele>
        <time>2019-08-01T09:00:53.028Z</time>
      </trkpt>
      <trkpt lat="43.03176667" lon="-1.26384">
        <ele>1039.0</ele>
        <time>2019-08-01T09:00:54.035Z</time>
      </trkpt>
      <trkpt lat="43.03176333" lon="-1.26385667">
        <ele>1039.0</ele>
        <time>2019-08-01T09:00:55.041Z</time>
      </trkpt>
      <trkpt lat="43.031755" lon="-1.26388">
        <ele>1040.0</ele>
        <time>2019-08-01T09:00:55.922Z</time>
      </trkpt>
      <trkpt lat="43.03175333" lon="-1.26389667">
        <ele>1041.0</ele>
        <time>2019-08-01T09:00:56.928Z</time>
      </trkpt>
      <trkpt lat="43.03175667" lon="-1.26390667">
        <ele>1041.0</ele>
        <time>2019-08-01T09:00:57.931Z</time>
      </trkpt>
      <trkpt lat="43.03176" lon="-1.26391833">
        <ele>1041.0</ele>
        <time>2019-08-01T09:00:58.937Z</time>
      </trkpt>
      <trkpt lat="43.03176167" lon="-1.26393833">
        <ele>1042.0</ele>
        <time>2019-08-01T09:00:59.943Z</time>
      </trkpt>
      <trkpt lat="43.03175833" lon="-1.26396">
        <ele>1042.0</ele>
        <time>2019-08-01T09:01:00.949Z</time>
      </trkpt>
      <trkpt lat="43.03175833" lon="-1.26398">
        <ele>1043.0</ele>
        <time>2019-08-01T09:01:01.954Z</time>
      </trkpt>
      <trkpt lat="43.03174833" lon="-1.263995">
        <ele>1042.0</ele>
        <time>2019-08-01T09:01:02.960Z</time>
      </trkpt>
      <trkpt lat="43.031735" lon="-1.26401">
        <ele>1040.0</ele>
        <time>2019-08-01T09:01:03.965Z</time>
      </trkpt>
      <trkpt lat="43.03172333" lon="-1.26402667">
        <ele>1038.0</ele>
        <time>2019-08-01T09:01:04.972Z</time>
      </trkpt>
      <trkpt lat="43.03171333" lon="-1.26405667">
        <ele>1037.0</ele>
        <time>2019-08-01T09:01:05.977Z</time>
      </trkpt>
      <trkpt lat="43.03170667" lon="-1.26408333">
        <ele>1037.0</ele>
        <time>2019-08-01T09:01:06.981Z</time>
      </trkpt>
      <trkpt lat="43.0317" lon="-1.26410667">
        <ele>1037.0</ele>
        <time>2019-08-01T09:01:07.983Z</time>
      </trkpt>
      <trkpt lat="43.031695" lon="-1.26413">
        <ele>1038.0</ele>
        <time>2019-08-01T09:01:08.989Z</time>
      </trkpt>
      <trkpt lat="43.031705" lon="-1.26414">
        <ele>1039.0</ele>
        <time>2019-08-01T09:01:09.996Z</time>
      </trkpt>
      <trkpt lat="43.03171167" lon="-1.26415">
        <ele>1040.0</ele>
        <time>2019-08-01T09:01:11.000Z</time>
      </trkpt>
      <trkpt lat="43.03170833" lon="-1.26416333">
        <ele>1040.0</ele>
        <time>2019-08-01T09:01:12.004Z</time>
      </trkpt>
      <trkpt lat="43.03170333" lon="-1.264175">
        <ele>1040.0</ele>
        <time>2019-08-01T09:01:13.010Z</time>
      </trkpt>
      <trkpt lat="43.03170167" lon="-1.26419833">
        <ele>1039.0</ele>
        <time>2019-08-01T09:01:14.015Z</time>
      </trkpt>
      <trkpt lat="43.03169833" lon="-1.264225">
        <ele>1038.0</ele>
        <time>2019-08-01T09:01:15.023Z</time>
      </trkpt>
      <trkpt lat="43.03169" lon="-1.26425333">
        <ele>1038.0</ele>
        <time>2019-08-01T09:01:16.029Z</time>
      </trkpt>
      <trkpt lat="43.031675" lon="-1.26428167">
        <ele>1038.0</ele>
        <time>2019-08-01T09:01:17.035Z</time>
      </trkpt>
      <trkpt lat="43.03166" lon="-1.26430667">
        <ele>1037.0</ele>
        <time>2019-08-01T09:01:18.037Z</time>
      </trkpt>
      <trkpt lat="43.03165167" lon="-1.26432">
        <ele>1037.0</ele>
        <time>2019-08-01T09:01:19.039Z</time>
      </trkpt>
      <trkpt lat="43.03164667" lon="-1.26433167">
        <ele>1037.0</ele>
        <time>2019-08-01T09:01:19.919Z</time>
      </trkpt>
      <trkpt lat="43.03164667" lon="-1.26434667">
        <ele>1037.0</ele>
        <time>2019-08-01T09:01:20.923Z</time>
      </trkpt>
      <trkpt lat="43.03164833" lon="-1.26437167">
        <ele>1037.0</ele>
        <time>2019-08-01T09:01:21.928Z</time>
      </trkpt>
      <trkpt lat="43.03164833" lon="-1.26439">
        <ele>1036.0</ele>
        <time>2019-08-01T09:01:22.931Z</time>
      </trkpt>
      <trkpt lat="43.03164833" lon="-1.26440667">
        <ele>1036.0</ele>
        <time>2019-08-01T09:01:23.938Z</time>
      </trkpt>
      <trkpt lat="43.03165" lon="-1.26442333">
        <ele>1035.0</ele>
        <time>2019-08-01T09:01:24.945Z</time>
      </trkpt>
      <trkpt lat="43.03166167" lon="-1.26445">
        <ele>1036.0</ele>
        <time>2019-08-01T09:01:25.952Z</time>
      </trkpt>
      <trkpt lat="43.03165667" lon="-1.26448333">
        <ele>1037.0</ele>
        <time>2019-08-01T09:01:26.956Z</time>
      </trkpt>
      <trkpt lat="43.03164667" lon="-1.264505">
        <ele>1037.0</ele>
        <time>2019-08-01T09:01:27.959Z</time>
      </trkpt>
      <trkpt lat="43.031625" lon="-1.26451833">
        <ele>1038.0</ele>
        <time>2019-08-01T09:01:28.965Z</time>
      </trkpt>
      <trkpt lat="43.031605" lon="-1.26452667">
        <ele>1037.0</ele>
        <time>2019-08-01T09:01:29.970Z</time>
      </trkpt>
      <trkpt lat="43.03158667" lon="-1.26453833">
        <ele>1038.0</ele>
        <time>2019-08-01T09:01:30.976Z</time>
      </trkpt>
      <trkpt lat="43.031565" lon="-1.264565">
        <ele>1038.0</ele>
        <time>2019-08-01T09:01:31.983Z</time>
      </trkpt>
      <trkpt lat="43.03156667" lon="-1.26458333">
        <ele>1039.0</ele>
        <time>2019-08-01T09:01:32.989Z</time>
      </trkpt>
      <trkpt lat="43.03157833" lon="-1.26460167">
        <ele>1039.0</ele>
        <time>2019-08-01T09:01:33.995Z</time>
      </trkpt>
      <trkpt lat="43.03159167" lon="-1.264625">
        <ele>1039.0</ele>
        <time>2019-08-01T09:01:35.000Z</time>
      </trkpt>
      <trkpt lat="43.031605" lon="-1.26464667">
        <ele>1039.0</ele>
        <time>2019-08-01T09:01:36.005Z</time>
      </trkpt>
      <trkpt lat="43.031615" lon="-1.26467">
        <ele>1039.0</ele>
        <time>2019-08-01T09:01:37.012Z</time>
      </trkpt>
      <trkpt lat="43.03162167" lon="-1.26469333">
        <ele>1040.0</ele>
        <time>2019-08-01T09:01:38.019Z</time>
      </trkpt>
      <trkpt lat="43.031625" lon="-1.26471333">
        <ele>1041.0</ele>
        <time>2019-08-01T09:01:39.025Z</time>
      </trkpt>
      <trkpt lat="43.03162667" lon="-1.26473">
        <ele>1042.0</ele>
        <time>2019-08-01T09:01:40.033Z</time>
      </trkpt>
      <trkpt lat="43.031625" lon="-1.264745">
        <ele>1042.0</ele>
        <time>2019-08-01T09:01:41.039Z</time>
      </trkpt>
      <trkpt lat="43.03162833" lon="-1.264765">
        <ele>1042.0</ele>
        <time>2019-08-01T09:01:41.918Z</time>
      </trkpt>
      <trkpt lat="43.031645" lon="-1.264785">
        <ele>1042.0</ele>
        <time>2019-08-01T09:01:42.925Z</time>
      </trkpt>
      <trkpt lat="43.03165667" lon="-1.264805">
        <ele>1043.0</ele>
        <time>2019-08-01T09:01:43.930Z</time>
      </trkpt>
      <trkpt lat="43.031685" lon="-1.26482">
        <ele>1044.0</ele>
        <time>2019-08-01T09:01:44.936Z</time>
      </trkpt>
      <trkpt lat="43.03171" lon="-1.26483667">
        <ele>1045.0</ele>
        <time>2019-08-01T09:01:45.941Z</time>
      </trkpt>
      <trkpt lat="43.03172667" lon="-1.26485333">
        <ele>1046.0</ele>
        <time>2019-08-01T09:01:46.945Z</time>
      </trkpt>
      <trkpt lat="43.03173667" lon="-1.26487667">
        <ele>1047.0</ele>
        <time>2019-08-01T09:01:47.948Z</time>
      </trkpt>
      <trkpt lat="43.031735" lon="-1.26491">
        <ele>1049.0</ele>
        <time>2019-08-01T09:01:48.953Z</time>
      </trkpt>
      <trkpt lat="43.03172833" lon="-1.264935">
        <ele>1050.0</ele>
        <time>2019-08-01T09:01:49.959Z</time>
      </trkpt>
      <trkpt lat="43.03172333" lon="-1.26493667">
        <ele>1050.0</ele>
        <time>2019-08-01T09:01:50.966Z</time>
      </trkpt>
      <trkpt lat="43.03171833" lon="-1.26493333">
        <ele>1051.0</ele>
        <time>2019-08-01T09:01:51.970Z</time>
      </trkpt>
      <trkpt lat="43.031715" lon="-1.26494333">
        <ele>1051.0</ele>
        <time>2019-08-01T09:01:52.975Z</time>
      </trkpt>
      <trkpt lat="43.03172" lon="-1.26495667">
        <ele>1051.0</ele>
        <time>2019-08-01T09:01:53.981Z</time>
      </trkpt>
      <trkpt lat="43.03172833" lon="-1.26497167">
        <ele>1051.0</ele>
        <time>2019-08-01T09:01:54.987Z</time>
      </trkpt>
      <trkpt lat="43.03173667" lon="-1.26499167">
        <ele>1052.0</ele>
        <time>2019-08-01T09:01:55.993Z</time>
      </trkpt>
      <trkpt lat="43.03174167" lon="-1.26501833">
        <ele>1052.0</ele>
        <time>2019-08-01T09:01:56.999Z</time>
      </trkpt>
      <trkpt lat="43.03174333" lon="-1.26504667">
        <ele>1052.0</ele>
        <time>2019-08-01T09:01:58.005Z</time>
      </trkpt>
      <trkpt lat="43.031745" lon="-1.265065">
        <ele>1052.0</ele>
        <time>2019-08-01T09:01:59.011Z</time>
      </trkpt>
      <trkpt lat="43.03174667" lon="-1.26509">
        <ele>1052.0</ele>
        <time>2019-08-01T09:02:00.017Z</time>
      </trkpt>
      <trkpt lat="43.03175333" lon="-1.26510667">
        <ele>1052.0</ele>
        <time>2019-08-01T09:02:01.024Z</time>
      </trkpt>
      <trkpt lat="43.03175333" lon="-1.26512">
        <ele>1052.0</ele>
        <time>2019-08-01T09:02:02.033Z</time>
      </trkpt>
      <trkpt lat="43.03175333" lon="-1.26513">
        <ele>1052.0</ele>
        <time>2019-08-01T09:02:03.038Z</time>
      </trkpt>
      <trkpt lat="43.03175333" lon="-1.26513833">
        <ele>1052.0</ele>
        <time>2019-08-01T09:02:03.918Z</time>
      </trkpt>
      <trkpt lat="43.03175167" lon="-1.26514333">
        <ele>1053.0</ele>
        <time>2019-08-01T09:02:04.923Z</time>
      </trkpt>
      <trkpt lat="43.03174833" lon="-1.26515">
        <ele>1053.0</ele>
        <time>2019-08-01T09:02:05.929Z</time>
      </trkpt>
      <trkpt lat="43.03175" lon="-1.26515333">
        <ele>1053.0</ele>
        <time>2019-08-01T09:02:06.933Z</time>
      </trkpt>
      <trkpt lat="43.03175" lon="-1.26516">
        <ele>1053.0</ele>
        <time>2019-08-01T09:02:07.938Z</time>
      </trkpt>
      <trkpt lat="43.03175" lon="-1.26516667">
        <ele>1053.0</ele>
        <time>2019-08-01T09:02:08.945Z</time>
      </trkpt>
      <trkpt lat="43.03175167" lon="-1.26517833">
        <ele>1052.0</ele>
        <time>2019-08-01T09:02:09.948Z</time>
      </trkpt>
      <trkpt lat="43.03174833" lon="-1.26519333">
        <ele>1052.0</ele>
        <time>2019-08-01T09:02:10.955Z</time>
      </trkpt>
      <trkpt lat="43.03173833" lon="-1.265205">
        <ele>1053.0</ele>
        <time>2019-08-01T09:02:11.959Z</time>
      </trkpt>
      <trkpt lat="43.03173167" lon="-1.26522">
        <ele>1053.0</ele>
        <time>2019-08-01T09:02:12.960Z</time>
      </trkpt>
      <trkpt lat="43.031735" lon="-1.265235">
        <ele>1054.0</ele>
        <time>2019-08-01T09:02:13.968Z</time>
      </trkpt>
      <trkpt lat="43.03173833" lon="-1.26524833">
        <ele>1054.0</ele>
        <time>2019-08-01T09:02:14.973Z</time>
      </trkpt>
      <trkpt lat="43.031745" lon="-1.26525833">
        <ele>1055.0</ele>
        <time>2019-08-01T09:02:15.978Z</time>
      </trkpt>
      <trkpt lat="43.03174833" lon="-1.26527333">
        <ele>1055.0</ele>
        <time>2019-08-01T09:02:16.982Z</time>
      </trkpt>
      <trkpt lat="43.03174833" lon="-1.26528833">
        <ele>1055.0</ele>
        <time>2019-08-01T09:02:17.984Z</time>
      </trkpt>
      <trkpt lat="43.03174667" lon="-1.26530667">
        <ele>1054.0</ele>
        <time>2019-08-01T09:02:18.989Z</time>
      </trkpt>
      <trkpt lat="43.03174833" lon="-1.26532667">
        <ele>1055.0</ele>
        <time>2019-08-01T09:02:19.993Z</time>
      </trkpt>
      <trkpt lat="43.03175167" lon="-1.26534833">
        <ele>1055.0</ele>
        <time>2019-08-01T09:02:20.999Z</time>
      </trkpt>
      <trkpt lat="43.031755" lon="-1.26536667">
        <ele>1057.0</ele>
        <time>2019-08-01T09:02:22.003Z</time>
      </trkpt>
      <trkpt lat="43.03175833" lon="-1.26538667">
        <ele>1058.0</ele>
        <time>2019-08-01T09:02:23.011Z</time>
      </trkpt>
      <trkpt lat="43.03176167" lon="-1.26541333">
        <ele>1059.0</ele>
        <time>2019-08-01T09:02:24.016Z</time>
      </trkpt>
      <trkpt lat="43.03177" lon="-1.26543167">
        <ele>1059.0</ele>
        <time>2019-08-01T09:02:25.021Z</time>
      </trkpt>
      <trkpt lat="43.03178" lon="-1.26544833">
        <ele>1060.0</ele>
        <time>2019-08-01T09:02:26.028Z</time>
      </trkpt>
      <trkpt lat="43.03179" lon="-1.26546333">
        <ele>1060.0</ele>
        <time>2019-08-01T09:02:27.036Z</time>
      </trkpt>
      <trkpt lat="43.03179667" lon="-1.265485">
        <ele>1060.0</ele>
        <time>2019-08-01T09:02:28.042Z</time>
      </trkpt>
      <trkpt lat="43.03180667" lon="-1.265505">
        <ele>1061.0</ele>
        <time>2019-08-01T09:02:28.922Z</time>
      </trkpt>
      <trkpt lat="43.03180333" lon="-1.26552667">
        <ele>1062.0</ele>
        <time>2019-08-01T09:02:29.926Z</time>
      </trkpt>
      <trkpt lat="43.03180667" lon="-1.26554833">
        <ele>1062.0</ele>
        <time>2019-08-01T09:02:30.928Z</time>
      </trkpt>
      <trkpt lat="43.03182333" lon="-1.26556667">
        <ele>1062.0</ele>
        <time>2019-08-01T09:02:31.930Z</time>
      </trkpt>
      <trkpt lat="43.03185167" lon="-1.26558333">
        <ele>1063.0</ele>
        <time>2019-08-01T09:02:32.931Z</time>
      </trkpt>
      <trkpt lat="43.03185167" lon="-1.26561333">
        <ele>1064.0</ele>
        <time>2019-08-01T09:02:33.937Z</time>
      </trkpt>
      <trkpt lat="43.031855" lon="-1.26563167">
        <ele>1063.0</ele>
        <time>2019-08-01T09:02:34.944Z</time>
      </trkpt>
      <trkpt lat="43.03185" lon="-1.26565167">
        <ele>1064.0</ele>
        <time>2019-08-01T09:02:35.950Z</time>
      </trkpt>
      <trkpt lat="43.03184833" lon="-1.26566667">
        <ele>1064.0</ele>
        <time>2019-08-01T09:02:36.957Z</time>
      </trkpt>
      <trkpt lat="43.031845" lon="-1.26569">
        <ele>1064.0</ele>
        <time>2019-08-01T09:02:37.962Z</time>
      </trkpt>
      <trkpt lat="43.031855" lon="-1.265725">
        <ele>1064.0</ele>
        <time>2019-08-01T09:02:38.969Z</time>
      </trkpt>
      <trkpt lat="43.031875" lon="-1.26575667">
        <ele>1064.0</ele>
        <time>2019-08-01T09:02:39.974Z</time>
      </trkpt>
      <trkpt lat="43.031885" lon="-1.26577667">
        <ele>1064.0</ele>
        <time>2019-08-01T09:02:40.978Z</time>
      </trkpt>
      <trkpt lat="43.031895" lon="-1.26578667">
        <ele>1063.0</ele>
        <time>2019-08-01T09:02:41.983Z</time>
      </trkpt>
      <trkpt lat="43.03191" lon="-1.26579333">
        <ele>1062.0</ele>
        <time>2019-08-01T09:02:42.989Z</time>
      </trkpt>
      <trkpt lat="43.03192167" lon="-1.26580333">
        <ele>1062.0</ele>
        <time>2019-08-01T09:02:43.997Z</time>
      </trkpt>
      <trkpt lat="43.03192667" lon="-1.26581167">
        <ele>1062.0</ele>
        <time>2019-08-01T09:02:45.003Z</time>
      </trkpt>
      <trkpt lat="43.031925" lon="-1.265825">
        <ele>1062.0</ele>
        <time>2019-08-01T09:02:46.009Z</time>
      </trkpt>
      <trkpt lat="43.03193667" lon="-1.265835">
        <ele>1062.0</ele>
        <time>2019-08-01T09:02:47.014Z</time>
      </trkpt>
      <trkpt lat="43.03194333" lon="-1.26584833">
        <ele>1062.0</ele>
        <time>2019-08-01T09:02:48.022Z</time>
      </trkpt>
      <trkpt lat="43.03193667" lon="-1.26586833">
        <ele>1062.0</ele>
        <time>2019-08-01T09:02:49.026Z</time>
      </trkpt>
      <trkpt lat="43.03194333" lon="-1.26588833">
        <ele>1062.0</ele>
        <time>2019-08-01T09:02:50.031Z</time>
      </trkpt>
      <trkpt lat="43.03196167" lon="-1.26590333">
        <ele>1061.0</ele>
        <time>2019-08-01T09:02:51.034Z</time>
      </trkpt>
      <trkpt lat="43.03197833" lon="-1.265915">
        <ele>1061.0</ele>
        <time>2019-08-01T09:02:52.039Z</time>
      </trkpt>
      <trkpt lat="43.03199" lon="-1.265925">
        <ele>1060.0</ele>
        <time>2019-08-01T09:02:52.919Z</time>
      </trkpt>
      <trkpt lat="43.03199333" lon="-1.26594">
        <ele>1060.0</ele>
        <time>2019-08-01T09:02:53.926Z</time>
      </trkpt>
      <trkpt lat="43.03199833" lon="-1.265955">
        <ele>1059.0</ele>
        <time>2019-08-01T09:02:54.930Z</time>
      </trkpt>
      <trkpt lat="43.032005" lon="-1.26597833">
        <ele>1059.0</ele>
        <time>2019-08-01T09:02:55.938Z</time>
      </trkpt>
      <trkpt lat="43.032005" lon="-1.266005">
        <ele>1058.0</ele>
        <time>2019-08-01T09:02:56.943Z</time>
      </trkpt>
      <trkpt lat="43.03200833" lon="-1.26602333">
        <ele>1058.0</ele>
        <time>2019-08-01T09:02:57.949Z</time>
      </trkpt>
      <trkpt lat="43.032" lon="-1.266045">
        <ele>1058.0</ele>
        <time>2019-08-01T09:02:58.955Z</time>
      </trkpt>
      <trkpt lat="43.032" lon="-1.26605833">
        <ele>1058.0</ele>
        <time>2019-08-01T09:02:59.958Z</time>
      </trkpt>
      <trkpt lat="43.03200667" lon="-1.26607167">
        <ele>1058.0</ele>
        <time>2019-08-01T09:03:00.964Z</time>
      </trkpt>
      <trkpt lat="43.03201333" lon="-1.26608833">
        <ele>1058.0</ele>
        <time>2019-08-01T09:03:01.968Z</time>
      </trkpt>
      <trkpt lat="43.03202167" lon="-1.2661">
        <ele>1057.0</ele>
        <time>2019-08-01T09:03:02.972Z</time>
      </trkpt>
      <trkpt lat="43.03202" lon="-1.26610833">
        <ele>1057.0</ele>
        <time>2019-08-01T09:03:03.977Z</time>
      </trkpt>
      <trkpt lat="43.03201667" lon="-1.26612">
        <ele>1056.0</ele>
        <time>2019-08-01T09:03:04.983Z</time>
      </trkpt>
      <trkpt lat="43.03200833" lon="-1.26612833">
        <ele>1056.0</ele>
        <time>2019-08-01T09:03:05.988Z</time>
      </trkpt>
      <trkpt lat="43.032005" lon="-1.26614">
        <ele>1056.0</ele>
        <time>2019-08-01T09:03:06.993Z</time>
      </trkpt>
      <trkpt lat="43.03201167" lon="-1.26615167">
        <ele>1056.0</ele>
        <time>2019-08-01T09:03:07.997Z</time>
      </trkpt>
      <trkpt lat="43.03202667" lon="-1.26616167">
        <ele>1056.0</ele>
        <time>2019-08-01T09:03:09.003Z</time>
      </trkpt>
      <trkpt lat="43.03204333" lon="-1.26617667">
        <ele>1056.0</ele>
        <time>2019-08-01T09:03:10.008Z</time>
      </trkpt>
      <trkpt lat="43.03205167" lon="-1.2662">
        <ele>1055.0</ele>
        <time>2019-08-01T09:03:11.014Z</time>
      </trkpt>
      <trkpt lat="43.03205333" lon="-1.26622833">
        <ele>1054.0</ele>
        <time>2019-08-01T09:03:12.022Z</time>
      </trkpt>
      <trkpt lat="43.03205333" lon="-1.26624667">
        <ele>1054.0</ele>
        <time>2019-08-01T09:03:13.026Z</time>
      </trkpt>
      <trkpt lat="43.032045" lon="-1.266265">
        <ele>1053.0</ele>
        <time>2019-08-01T09:03:14.031Z</time>
      </trkpt>
      <trkpt lat="43.03204667" lon="-1.26627667">
        <ele>1052.0</ele>
        <time>2019-08-01T09:03:15.038Z</time>
      </trkpt>
      <trkpt lat="43.03205667" lon="-1.266285">
        <ele>1052.0</ele>
        <time>2019-08-01T09:03:16.043Z</time>
      </trkpt>
      <trkpt lat="43.03206667" lon="-1.26629667">
        <ele>1053.0</ele>
        <time>2019-08-01T09:03:16.923Z</time>
      </trkpt>
      <trkpt lat="43.03207667" lon="-1.26631667">
        <ele>1053.0</ele>
        <time>2019-08-01T09:03:17.929Z</time>
      </trkpt>
      <trkpt lat="43.03208833" lon="-1.26633667">
        <ele>1053.0</ele>
        <time>2019-08-01T09:03:18.933Z</time>
      </trkpt>
      <trkpt lat="43.03210167" lon="-1.26635333">
        <ele>1053.0</ele>
        <time>2019-08-01T09:03:19.940Z</time>
      </trkpt>
      <trkpt lat="43.03211667" lon="-1.26636667">
        <ele>1053.0</ele>
        <time>2019-08-01T09:03:20.944Z</time>
      </trkpt>
      <trkpt lat="43.03213333" lon="-1.26637833">
        <ele>1053.0</ele>
        <time>2019-08-01T09:03:21.951Z</time>
      </trkpt>
      <trkpt lat="43.032145" lon="-1.26639">
        <ele>1053.0</ele>
        <time>2019-08-01T09:03:22.955Z</time>
      </trkpt>
      <trkpt lat="43.032145" lon="-1.26640833">
        <ele>1054.0</ele>
        <time>2019-08-01T09:03:23.961Z</time>
      </trkpt>
      <trkpt lat="43.03215" lon="-1.266425">
        <ele>1055.0</ele>
        <time>2019-08-01T09:03:24.967Z</time>
      </trkpt>
      <trkpt lat="43.03215667" lon="-1.26643833">
        <ele>1056.0</ele>
        <time>2019-08-01T09:03:25.972Z</time>
      </trkpt>
      <trkpt lat="43.03216333" lon="-1.26645">
        <ele>1056.0</ele>
        <time>2019-08-01T09:03:26.978Z</time>
      </trkpt>
      <trkpt lat="43.03216667" lon="-1.26646667">
        <ele>1056.0</ele>
        <time>2019-08-01T09:03:27.984Z</time>
      </trkpt>
      <trkpt lat="43.032175" lon="-1.26648667">
        <ele>1056.0</ele>
        <time>2019-08-01T09:03:28.990Z</time>
      </trkpt>
      <trkpt lat="43.03219333" lon="-1.26649833">
        <ele>1056.0</ele>
        <time>2019-08-01T09:03:29.995Z</time>
      </trkpt>
      <trkpt lat="43.03220667" lon="-1.26651">
        <ele>1056.0</ele>
        <time>2019-08-01T09:03:31.001Z</time>
      </trkpt>
      <trkpt lat="43.03221167" lon="-1.26652667">
        <ele>1056.0</ele>
        <time>2019-08-01T09:03:32.008Z</time>
      </trkpt>
      <trkpt lat="43.03221833" lon="-1.26653833">
        <ele>1056.0</ele>
        <time>2019-08-01T09:03:33.012Z</time>
      </trkpt>
      <trkpt lat="43.03222667" lon="-1.26655833">
        <ele>1056.0</ele>
        <time>2019-08-01T09:03:34.017Z</time>
      </trkpt>
      <trkpt lat="43.032235" lon="-1.26657333">
        <ele>1056.0</ele>
        <time>2019-08-01T09:03:35.024Z</time>
      </trkpt>
      <trkpt lat="43.03225167" lon="-1.26658167">
        <ele>1056.0</ele>
        <time>2019-08-01T09:03:36.028Z</time>
      </trkpt>
      <trkpt lat="43.03226667" lon="-1.266585">
        <ele>1056.0</ele>
        <time>2019-08-01T09:03:37.033Z</time>
      </trkpt>
      <trkpt lat="43.03228833" lon="-1.26658167">
        <ele>1055.0</ele>
        <time>2019-08-01T09:03:38.039Z</time>
      </trkpt>
      <trkpt lat="43.032295" lon="-1.26658833">
        <ele>1056.0</ele>
        <time>2019-08-01T09:03:38.920Z</time>
      </trkpt>
      <trkpt lat="43.032305" lon="-1.266605">
        <ele>1055.0</ele>
        <time>2019-08-01T09:03:39.926Z</time>
      </trkpt>
      <trkpt lat="43.03231833" lon="-1.26662667">
        <ele>1054.0</ele>
        <time>2019-08-01T09:03:40.930Z</time>
      </trkpt>
      <trkpt lat="43.03233" lon="-1.26664833">
        <ele>1054.0</ele>
        <time>2019-08-01T09:03:41.935Z</time>
      </trkpt>
      <trkpt lat="43.03234167" lon="-1.26667">
        <ele>1053.0</ele>
        <time>2019-08-01T09:03:42.938Z</time>
      </trkpt>
      <trkpt lat="43.03235167" lon="-1.26668667">
        <ele>1054.0</ele>
        <time>2019-08-01T09:03:43.945Z</time>
      </trkpt>
      <trkpt lat="43.03236167" lon="-1.2667">
        <ele>1055.0</ele>
        <time>2019-08-01T09:03:44.951Z</time>
      </trkpt>
      <trkpt lat="43.03236667" lon="-1.266715">
        <ele>1055.0</ele>
        <time>2019-08-01T09:03:45.957Z</time>
      </trkpt>
      <trkpt lat="43.03236833" lon="-1.26673167">
        <ele>1055.0</ele>
        <time>2019-08-01T09:03:46.964Z</time>
      </trkpt>
      <trkpt lat="43.03236667" lon="-1.266755">
        <ele>1056.0</ele>
        <time>2019-08-01T09:03:47.969Z</time>
      </trkpt>
      <trkpt lat="43.03236667" lon="-1.26677333">
        <ele>1056.0</ele>
        <time>2019-08-01T09:03:48.971Z</time>
      </trkpt>
      <trkpt lat="43.03235833" lon="-1.26679667">
        <ele>1056.0</ele>
        <time>2019-08-01T09:03:49.978Z</time>
      </trkpt>
      <trkpt lat="43.03237167" lon="-1.26681833">
        <ele>1056.0</ele>
        <time>2019-08-01T09:03:50.984Z</time>
      </trkpt>
      <trkpt lat="43.032375" lon="-1.26683833">
        <ele>1057.0</ele>
        <time>2019-08-01T09:03:51.988Z</time>
      </trkpt>
      <trkpt lat="43.032385" lon="-1.26685167">
        <ele>1056.0</ele>
        <time>2019-08-01T09:03:52.995Z</time>
      </trkpt>
      <trkpt lat="43.03239833" lon="-1.26686667">
        <ele>1055.0</ele>
        <time>2019-08-01T09:03:54.000Z</time>
      </trkpt>
      <trkpt lat="43.03240833" lon="-1.26688167">
        <ele>1054.0</ele>
        <time>2019-08-01T09:03:55.007Z</time>
      </trkpt>
      <trkpt lat="43.03242333" lon="-1.26689333">
        <ele>1053.0</ele>
        <time>2019-08-01T09:03:56.010Z</time>
      </trkpt>
      <trkpt lat="43.03243167" lon="-1.26690667">
        <ele>1053.0</ele>
        <time>2019-08-01T09:03:57.017Z</time>
      </trkpt>
      <trkpt lat="43.03244" lon="-1.26691833">
        <ele>1054.0</ele>
        <time>2019-08-01T09:03:58.025Z</time>
      </trkpt>
      <trkpt lat="43.03244333" lon="-1.26693333">
        <ele>1054.0</ele>
        <time>2019-08-01T09:03:59.031Z</time>
      </trkpt>
      <trkpt lat="43.03245333" lon="-1.266945">
        <ele>1054.0</ele>
        <time>2019-08-01T09:04:00.038Z</time>
      </trkpt>
      <trkpt lat="43.03246" lon="-1.266965">
        <ele>1054.0</ele>
        <time>2019-08-01T09:04:00.918Z</time>
      </trkpt>
      <trkpt lat="43.03247167" lon="-1.266975">
        <ele>1054.0</ele>
        <time>2019-08-01T09:04:01.925Z</time>
      </trkpt>
      <trkpt lat="43.03248667" lon="-1.26698833">
        <ele>1053.0</ele>
        <time>2019-08-01T09:04:02.929Z</time>
      </trkpt>
      <trkpt lat="43.032495" lon="-1.26700167">
        <ele>1054.0</ele>
        <time>2019-08-01T09:04:03.935Z</time>
      </trkpt>
      <trkpt lat="43.032505" lon="-1.26700833">
        <ele>1055.0</ele>
        <time>2019-08-01T09:04:04.940Z</time>
      </trkpt>
      <trkpt lat="43.03251" lon="-1.26700833">
        <ele>1056.0</ele>
        <time>2019-08-01T09:04:05.945Z</time>
      </trkpt>
      <trkpt lat="43.03251167" lon="-1.26701833">
        <ele>1056.0</ele>
        <time>2019-08-01T09:04:06.950Z</time>
      </trkpt>
      <trkpt lat="43.03251" lon="-1.267035">
        <ele>1056.0</ele>
        <time>2019-08-01T09:04:07.957Z</time>
      </trkpt>
      <trkpt lat="43.03251167" lon="-1.26705">
        <ele>1056.0</ele>
        <time>2019-08-01T09:04:08.963Z</time>
      </trkpt>
      <trkpt lat="43.03250833" lon="-1.26706667">
        <ele>1057.0</ele>
        <time>2019-08-01T09:04:09.969Z</time>
      </trkpt>
      <trkpt lat="43.03251167" lon="-1.26708333">
        <ele>1058.0</ele>
        <time>2019-08-01T09:04:10.973Z</time>
      </trkpt>
      <trkpt lat="43.03251667" lon="-1.26709833">
        <ele>1058.0</ele>
        <time>2019-08-01T09:04:11.979Z</time>
      </trkpt>
      <trkpt lat="43.03252667" lon="-1.26711">
        <ele>1058.0</ele>
        <time>2019-08-01T09:04:12.983Z</time>
      </trkpt>
      <trkpt lat="43.03254" lon="-1.26712167">
        <ele>1058.0</ele>
        <time>2019-08-01T09:04:13.988Z</time>
      </trkpt>
      <trkpt lat="43.03254333" lon="-1.26713833">
        <ele>1057.0</ele>
        <time>2019-08-01T09:04:14.993Z</time>
      </trkpt>
      <trkpt lat="43.03255667" lon="-1.26715333">
        <ele>1056.0</ele>
        <time>2019-08-01T09:04:15.999Z</time>
      </trkpt>
      <trkpt lat="43.03256833" lon="-1.26717">
        <ele>1055.0</ele>
        <time>2019-08-01T09:04:17.004Z</time>
      </trkpt>
      <trkpt lat="43.03258333" lon="-1.26718">
        <ele>1055.0</ele>
        <time>2019-08-01T09:04:18.011Z</time>
      </trkpt>
      <trkpt lat="43.032595" lon="-1.26719333">
        <ele>1055.0</ele>
        <time>2019-08-01T09:04:19.016Z</time>
      </trkpt>
      <trkpt lat="43.0326" lon="-1.26721333">
        <ele>1055.0</ele>
        <time>2019-08-01T09:04:20.023Z</time>
      </trkpt>
      <trkpt lat="43.03260667" lon="-1.26723167">
        <ele>1057.0</ele>
        <time>2019-08-01T09:04:21.028Z</time>
      </trkpt>
      <trkpt lat="43.03261333" lon="-1.26725">
        <ele>1058.0</ele>
        <time>2019-08-01T09:04:22.035Z</time>
      </trkpt>
      <trkpt lat="43.03261833" lon="-1.26726667">
        <ele>1057.0</ele>
        <time>2019-08-01T09:04:23.040Z</time>
      </trkpt>
      <trkpt lat="43.03262833" lon="-1.26728">
        <ele>1057.0</ele>
        <time>2019-08-01T09:04:23.921Z</time>
      </trkpt>
      <trkpt lat="43.03264" lon="-1.26728333">
        <ele>1058.0</ele>
        <time>2019-08-01T09:04:24.927Z</time>
      </trkpt>
      <trkpt lat="43.03265167" lon="-1.26728167">
        <ele>1058.0</ele>
        <time>2019-08-01T09:04:25.929Z</time>
      </trkpt>
      <trkpt lat="43.03266167" lon="-1.267285">
        <ele>1059.0</ele>
        <time>2019-08-01T09:04:26.934Z</time>
      </trkpt>
      <trkpt lat="43.03266667" lon="-1.267295">
        <ele>1061.0</ele>
        <time>2019-08-01T09:04:27.940Z</time>
      </trkpt>
      <trkpt lat="43.03268333" lon="-1.26729833">
        <ele>1061.0</ele>
        <time>2019-08-01T09:04:28.945Z</time>
      </trkpt>
      <trkpt lat="43.0327" lon="-1.2673">
        <ele>1061.0</ele>
        <time>2019-08-01T09:04:29.949Z</time>
      </trkpt>
      <trkpt lat="43.03270667" lon="-1.26730333">
        <ele>1061.0</ele>
        <time>2019-08-01T09:04:30.956Z</time>
      </trkpt>
      <trkpt lat="43.032715" lon="-1.26730833">
        <ele>1061.0</ele>
        <time>2019-08-01T09:04:31.961Z</time>
      </trkpt>
      <trkpt lat="43.03271833" lon="-1.26731667">
        <ele>1062.0</ele>
        <time>2019-08-01T09:04:32.967Z</time>
      </trkpt>
      <trkpt lat="43.03272167" lon="-1.267325">
        <ele>1062.0</ele>
        <time>2019-08-01T09:04:33.972Z</time>
      </trkpt>
      <trkpt lat="43.03272167" lon="-1.267335">
        <ele>1062.0</ele>
        <time>2019-08-01T09:04:34.975Z</time>
      </trkpt>
      <trkpt lat="43.03272" lon="-1.26734833">
        <ele>1062.0</ele>
        <time>2019-08-01T09:04:35.978Z</time>
      </trkpt>
      <trkpt lat="43.03271833" lon="-1.26736333">
        <ele>1062.0</ele>
        <time>2019-08-01T09:04:36.983Z</time>
      </trkpt>
      <trkpt lat="43.03272" lon="-1.26737667">
        <ele>1061.0</ele>
        <time>2019-08-01T09:04:37.989Z</time>
      </trkpt>
      <trkpt lat="43.03272167" lon="-1.26738667">
        <ele>1061.0</ele>
        <time>2019-08-01T09:04:38.994Z</time>
      </trkpt>
      <trkpt lat="43.03272667" lon="-1.267395">
        <ele>1061.0</ele>
        <time>2019-08-01T09:04:39.999Z</time>
      </trkpt>
      <trkpt lat="43.03273" lon="-1.267405">
        <ele>1060.0</ele>
        <time>2019-08-01T09:04:41.003Z</time>
      </trkpt>
      <trkpt lat="43.03273333" lon="-1.26741333">
        <ele>1060.0</ele>
        <time>2019-08-01T09:04:42.011Z</time>
      </trkpt>
      <trkpt lat="43.03273" lon="-1.267425">
        <ele>1060.0</ele>
        <time>2019-08-01T09:04:43.018Z</time>
      </trkpt>
      <trkpt lat="43.03272167" lon="-1.26743333">
        <ele>1060.0</ele>
        <time>2019-08-01T09:04:44.023Z</time>
      </trkpt>
      <trkpt lat="43.032715" lon="-1.26744167">
        <ele>1059.0</ele>
        <time>2019-08-01T09:04:45.030Z</time>
      </trkpt>
      <trkpt lat="43.03270833" lon="-1.26745333">
        <ele>1059.0</ele>
        <time>2019-08-01T09:04:46.036Z</time>
      </trkpt>
      <trkpt lat="43.0327" lon="-1.26746833">
        <ele>1059.0</ele>
        <time>2019-08-01T09:04:47.041Z</time>
      </trkpt>
      <trkpt lat="43.03269333" lon="-1.26748833">
        <ele>1059.0</ele>
        <time>2019-08-01T09:04:47.919Z</time>
      </trkpt>
      <trkpt lat="43.03269333" lon="-1.26751">
        <ele>1059.0</ele>
        <time>2019-08-01T09:04:48.924Z</time>
      </trkpt>
      <trkpt lat="43.03269167" lon="-1.26753167">
        <ele>1058.0</ele>
        <time>2019-08-01T09:04:49.931Z</time>
      </trkpt>
      <trkpt lat="43.03269667" lon="-1.26755333">
        <ele>1057.0</ele>
        <time>2019-08-01T09:04:50.939Z</time>
      </trkpt>
      <trkpt lat="43.03270333" lon="-1.26757333">
        <ele>1057.0</ele>
        <time>2019-08-01T09:04:51.946Z</time>
      </trkpt>
      <trkpt lat="43.03270833" lon="-1.26759333">
        <ele>1056.0</ele>
        <time>2019-08-01T09:04:52.951Z</time>
      </trkpt>
      <trkpt lat="43.032715" lon="-1.26761333">
        <ele>1055.0</ele>
        <time>2019-08-01T09:04:53.956Z</time>
      </trkpt>
      <trkpt lat="43.032725" lon="-1.26763">
        <ele>1054.0</ele>
        <time>2019-08-01T09:04:54.962Z</time>
      </trkpt>
      <trkpt lat="43.032735" lon="-1.26764667">
        <ele>1053.0</ele>
        <time>2019-08-01T09:04:55.967Z</time>
      </trkpt>
      <trkpt lat="43.03274667" lon="-1.267665">
        <ele>1053.0</ele>
        <time>2019-08-01T09:04:56.972Z</time>
      </trkpt>
      <trkpt lat="43.03275" lon="-1.26768833">
        <ele>1053.0</ele>
        <time>2019-08-01T09:04:57.977Z</time>
      </trkpt>
      <trkpt lat="43.03275" lon="-1.26771333">
        <ele>1052.0</ele>
        <time>2019-08-01T09:04:58.981Z</time>
      </trkpt>
      <trkpt lat="43.03274333" lon="-1.26774333">
        <ele>1052.0</ele>
        <time>2019-08-01T09:04:59.986Z</time>
      </trkpt>
      <trkpt lat="43.03274333" lon="-1.267765">
        <ele>1052.0</ele>
        <time>2019-08-01T09:05:00.991Z</time>
      </trkpt>
      <trkpt lat="43.03275" lon="-1.26777">
        <ele>1053.0</ele>
        <time>2019-08-01T09:05:01.995Z</time>
      </trkpt>
      <trkpt lat="43.03275667" lon="-1.26776667">
        <ele>1053.0</ele>
        <time>2019-08-01T09:05:02.998Z</time>
      </trkpt>
      <trkpt lat="43.03274833" lon="-1.26777667">
        <ele>1054.0</ele>
        <time>2019-08-01T09:05:04.004Z</time>
      </trkpt>
      <trkpt lat="43.03274333" lon="-1.26779">
        <ele>1055.0</ele>
        <time>2019-08-01T09:05:05.010Z</time>
      </trkpt>
      <trkpt lat="43.03273833" lon="-1.267815">
        <ele>1056.0</ele>
        <time>2019-08-01T09:05:06.014Z</time>
      </trkpt>
      <trkpt lat="43.032735" lon="-1.26783">
        <ele>1054.0</ele>
        <time>2019-08-01T09:05:07.019Z</time>
      </trkpt>
      <trkpt lat="43.03274" lon="-1.26784667">
        <ele>1054.0</ele>
        <time>2019-08-01T09:05:08.027Z</time>
      </trkpt>
      <trkpt lat="43.03274167" lon="-1.267865">
        <ele>1054.0</ele>
        <time>2019-08-01T09:05:09.032Z</time>
      </trkpt>
      <trkpt lat="43.03273167" lon="-1.267885">
        <ele>1053.0</ele>
        <time>2019-08-01T09:05:10.039Z</time>
      </trkpt>
      <trkpt lat="43.03273667" lon="-1.267895">
        <ele>1053.0</ele>
        <time>2019-08-01T09:05:10.921Z</time>
      </trkpt>
      <trkpt lat="43.03274" lon="-1.26790333">
        <ele>1053.0</ele>
        <time>2019-08-01T09:05:11.927Z</time>
      </trkpt>
      <trkpt lat="43.03274833" lon="-1.26791833">
        <ele>1053.0</ele>
        <time>2019-08-01T09:05:12.931Z</time>
      </trkpt>
      <trkpt lat="43.03276" lon="-1.26794167">
        <ele>1052.0</ele>
        <time>2019-08-01T09:05:13.935Z</time>
      </trkpt>
      <trkpt lat="43.03277833" lon="-1.26796">
        <ele>1052.0</ele>
        <time>2019-08-01T09:05:14.942Z</time>
      </trkpt>
      <trkpt lat="43.032795" lon="-1.26797667">
        <ele>1052.0</ele>
        <time>2019-08-01T09:05:15.947Z</time>
      </trkpt>
      <trkpt lat="43.03281167" lon="-1.268005">
        <ele>1052.0</ele>
        <time>2019-08-01T09:05:16.952Z</time>
      </trkpt>
      <trkpt lat="43.03282833" lon="-1.26802667">
        <ele>1052.0</ele>
        <time>2019-08-01T09:05:17.957Z</time>
      </trkpt>
      <trkpt lat="43.03283667" lon="-1.26804167">
        <ele>1052.0</ele>
        <time>2019-08-01T09:05:18.963Z</time>
      </trkpt>
      <trkpt lat="43.032845" lon="-1.26804333">
        <ele>1052.0</ele>
        <time>2019-08-01T09:05:19.969Z</time>
      </trkpt>
      <trkpt lat="43.03285333" lon="-1.26804167">
        <ele>1053.0</ele>
        <time>2019-08-01T09:05:20.976Z</time>
      </trkpt>
      <trkpt lat="43.03286" lon="-1.26803833">
        <ele>1054.0</ele>
        <time>2019-08-01T09:05:21.983Z</time>
      </trkpt>
      <trkpt lat="43.03286667" lon="-1.268045">
        <ele>1055.0</ele>
        <time>2019-08-01T09:05:22.989Z</time>
      </trkpt>
      <trkpt lat="43.03287167" lon="-1.26806167">
        <ele>1055.0</ele>
        <time>2019-08-01T09:05:23.996Z</time>
      </trkpt>
      <trkpt lat="43.032875" lon="-1.26808167">
        <ele>1056.0</ele>
        <time>2019-08-01T09:05:25.000Z</time>
      </trkpt>
      <trkpt lat="43.03288667" lon="-1.26809667">
        <ele>1055.0</ele>
        <time>2019-08-01T09:05:26.006Z</time>
      </trkpt>
      <trkpt lat="43.03289667" lon="-1.268115">
        <ele>1055.0</ele>
        <time>2019-08-01T09:05:27.012Z</time>
      </trkpt>
      <trkpt lat="43.03290333" lon="-1.26813167">
        <ele>1055.0</ele>
        <time>2019-08-01T09:05:28.018Z</time>
      </trkpt>
      <trkpt lat="43.03291" lon="-1.26814667">
        <ele>1055.0</ele>
        <time>2019-08-01T09:05:29.023Z</time>
      </trkpt>
      <trkpt lat="43.03291833" lon="-1.26816167">
        <ele>1056.0</ele>
        <time>2019-08-01T09:05:30.030Z</time>
      </trkpt>
      <trkpt lat="43.03292667" lon="-1.26817167">
        <ele>1056.0</ele>
        <time>2019-08-01T09:05:31.037Z</time>
      </trkpt>
      <trkpt lat="43.03293333" lon="-1.268175">
        <ele>1056.0</ele>
        <time>2019-08-01T09:05:31.918Z</time>
      </trkpt>
      <trkpt lat="43.03293833" lon="-1.26817333">
        <ele>1056.0</ele>
        <time>2019-08-01T09:05:32.926Z</time>
      </trkpt>
      <trkpt lat="43.03294333" lon="-1.26818167">
        <ele>1056.0</ele>
        <time>2019-08-01T09:05:33.931Z</time>
      </trkpt>
      <trkpt lat="43.032945" lon="-1.26819">
        <ele>1056.0</ele>
        <time>2019-08-01T09:05:34.938Z</time>
      </trkpt>
      <trkpt lat="43.03294833" lon="-1.2682">
        <ele>1056.0</ele>
        <time>2019-08-01T09:05:35.942Z</time>
      </trkpt>
      <trkpt lat="43.032955" lon="-1.26821167">
        <ele>1056.0</ele>
        <time>2019-08-01T09:05:36.946Z</time>
      </trkpt>
      <trkpt lat="43.03295833" lon="-1.26822667">
        <ele>1056.0</ele>
        <time>2019-08-01T09:05:37.953Z</time>
      </trkpt>
      <trkpt lat="43.03296333" lon="-1.268245">
        <ele>1057.0</ele>
        <time>2019-08-01T09:05:38.958Z</time>
      </trkpt>
      <trkpt lat="43.03296833" lon="-1.26826167">
        <ele>1056.0</ele>
        <time>2019-08-01T09:05:39.964Z</time>
      </trkpt>
      <trkpt lat="43.03297333" lon="-1.268275">
        <ele>1057.0</ele>
        <time>2019-08-01T09:05:40.970Z</time>
      </trkpt>
      <trkpt lat="43.03298333" lon="-1.268285">
        <ele>1057.0</ele>
        <time>2019-08-01T09:05:41.975Z</time>
      </trkpt>
      <trkpt lat="43.032995" lon="-1.26829333">
        <ele>1057.0</ele>
        <time>2019-08-01T09:05:42.982Z</time>
      </trkpt>
      <trkpt lat="43.033" lon="-1.26830167">
        <ele>1058.0</ele>
        <time>2019-08-01T09:05:43.990Z</time>
      </trkpt>
      <trkpt lat="43.03300667" lon="-1.26831333">
        <ele>1059.0</ele>
        <time>2019-08-01T09:05:44.997Z</time>
      </trkpt>
      <trkpt lat="43.033015" lon="-1.268335">
        <ele>1058.0</ele>
        <time>2019-08-01T09:05:46.005Z</time>
      </trkpt>
      <trkpt lat="43.033015" lon="-1.26836">
        <ele>1059.0</ele>
        <time>2019-08-01T09:05:47.010Z</time>
      </trkpt>
      <trkpt lat="43.03301667" lon="-1.268385">
        <ele>1059.0</ele>
        <time>2019-08-01T09:05:48.014Z</time>
      </trkpt>
      <trkpt lat="43.03301667" lon="-1.26840333">
        <ele>1059.0</ele>
        <time>2019-08-01T09:05:49.020Z</time>
      </trkpt>
      <trkpt lat="43.03301167" lon="-1.26842">
        <ele>1058.0</ele>
        <time>2019-08-01T09:05:50.024Z</time>
      </trkpt>
      <trkpt lat="43.03300833" lon="-1.268435">
        <ele>1058.0</ele>
        <time>2019-08-01T09:05:51.029Z</time>
      </trkpt>
      <trkpt lat="43.03299667" lon="-1.26845">
        <ele>1059.0</ele>
        <time>2019-08-01T09:05:52.035Z</time>
      </trkpt>
      <trkpt lat="43.03299333" lon="-1.26845667">
        <ele>1060.0</ele>
        <time>2019-08-01T09:05:53.041Z</time>
      </trkpt>
      <trkpt lat="43.032995" lon="-1.26846833">
        <ele>1061.0</ele>
        <time>2019-08-01T09:05:53.918Z</time>
      </trkpt>
      <trkpt lat="43.033" lon="-1.26848">
        <ele>1061.0</ele>
        <time>2019-08-01T09:05:54.925Z</time>
      </trkpt>
      <trkpt lat="43.03300833" lon="-1.26849167">
        <ele>1062.0</ele>
        <time>2019-08-01T09:05:55.928Z</time>
      </trkpt>
      <trkpt lat="43.03301" lon="-1.26850333">
        <ele>1062.0</ele>
        <time>2019-08-01T09:05:56.931Z</time>
      </trkpt>
      <trkpt lat="43.03301167" lon="-1.26851667">
        <ele>1062.0</ele>
        <time>2019-08-01T09:05:57.934Z</time>
      </trkpt>
      <trkpt lat="43.03301" lon="-1.26853333">
        <ele>1063.0</ele>
        <time>2019-08-01T09:05:58.940Z</time>
      </trkpt>
      <trkpt lat="43.03301667" lon="-1.26854167">
        <ele>1063.0</ele>
        <time>2019-08-01T09:05:59.946Z</time>
      </trkpt>
      <trkpt lat="43.03302333" lon="-1.26854667">
        <ele>1063.0</ele>
        <time>2019-08-01T09:06:00.951Z</time>
      </trkpt>
      <trkpt lat="43.03302833" lon="-1.26856">
        <ele>1063.0</ele>
        <time>2019-08-01T09:06:01.958Z</time>
      </trkpt>
      <trkpt lat="43.03302833" lon="-1.26858167">
        <ele>1063.0</ele>
        <time>2019-08-01T09:06:02.962Z</time>
      </trkpt>
      <trkpt lat="43.03302333" lon="-1.268605">
        <ele>1064.0</ele>
        <time>2019-08-01T09:06:03.968Z</time>
      </trkpt>
      <trkpt lat="43.03302833" lon="-1.26861833">
        <ele>1065.0</ele>
        <time>2019-08-01T09:06:04.974Z</time>
      </trkpt>
      <trkpt lat="43.03303833" lon="-1.26863333">
        <ele>1065.0</ele>
        <time>2019-08-01T09:06:05.980Z</time>
      </trkpt>
      <trkpt lat="43.03304167" lon="-1.26865667">
        <ele>1066.0</ele>
        <time>2019-08-01T09:06:06.984Z</time>
      </trkpt>
      <trkpt lat="43.03303833" lon="-1.26867667">
        <ele>1068.0</ele>
        <time>2019-08-01T09:06:07.988Z</time>
      </trkpt>
      <trkpt lat="43.03303833" lon="-1.26870333">
        <ele>1069.0</ele>
        <time>2019-08-01T09:06:08.993Z</time>
      </trkpt>
      <trkpt lat="43.03304833" lon="-1.26872333">
        <ele>1068.0</ele>
        <time>2019-08-01T09:06:09.999Z</time>
      </trkpt>
      <trkpt lat="43.03306333" lon="-1.26875">
        <ele>1069.0</ele>
        <time>2019-08-01T09:06:11.003Z</time>
      </trkpt>
      <trkpt lat="43.03308833" lon="-1.26876667">
        <ele>1068.0</ele>
        <time>2019-08-01T09:06:12.006Z</time>
      </trkpt>
      <trkpt lat="43.03310667" lon="-1.26878333">
        <ele>1069.0</ele>
        <time>2019-08-01T09:06:13.011Z</time>
      </trkpt>
      <trkpt lat="43.03311833" lon="-1.26878833">
        <ele>1069.0</ele>
        <time>2019-08-01T09:06:14.018Z</time>
      </trkpt>
      <trkpt lat="43.03312333" lon="-1.26880167">
        <ele>1070.0</ele>
        <time>2019-08-01T09:06:15.025Z</time>
      </trkpt>
      <trkpt lat="43.03312333" lon="-1.26882">
        <ele>1071.0</ele>
        <time>2019-08-01T09:06:16.030Z</time>
      </trkpt>
      <trkpt lat="43.03312667" lon="-1.26882667">
        <ele>1071.0</ele>
        <time>2019-08-01T09:06:17.034Z</time>
      </trkpt>
      <trkpt lat="43.03313" lon="-1.268835">
        <ele>1071.0</ele>
        <time>2019-08-01T09:06:18.041Z</time>
      </trkpt>
      <trkpt lat="43.033135" lon="-1.26884333">
        <ele>1070.0</ele>
        <time>2019-08-01T09:06:18.921Z</time>
      </trkpt>
      <trkpt lat="43.033145" lon="-1.26885167">
        <ele>1070.0</ele>
        <time>2019-08-01T09:06:19.927Z</time>
      </trkpt>
      <trkpt lat="43.033145" lon="-1.26886333">
        <ele>1070.0</ele>
        <time>2019-08-01T09:06:20.930Z</time>
      </trkpt>
      <trkpt lat="43.03315" lon="-1.268885">
        <ele>1069.0</ele>
        <time>2019-08-01T09:06:21.936Z</time>
      </trkpt>
      <trkpt lat="43.03315167" lon="-1.268895">
        <ele>1069.0</ele>
        <time>2019-08-01T09:06:22.942Z</time>
      </trkpt>
      <trkpt lat="43.033155" lon="-1.26890333">
        <ele>1069.0</ele>
        <time>2019-08-01T09:06:23.949Z</time>
      </trkpt>
      <trkpt lat="43.03316" lon="-1.26891167">
        <ele>1069.0</ele>
        <time>2019-08-01T09:06:24.956Z</time>
      </trkpt>
      <trkpt lat="43.033165" lon="-1.26892167">
        <ele>1069.0</ele>
        <time>2019-08-01T09:06:25.963Z</time>
      </trkpt>
      <trkpt lat="43.03316833" lon="-1.26892833">
        <ele>1069.0</ele>
        <time>2019-08-01T09:06:26.969Z</time>
      </trkpt>
      <trkpt lat="43.033165" lon="-1.268935">
        <ele>1069.0</ele>
        <time>2019-08-01T09:06:27.975Z</time>
      </trkpt>
      <trkpt lat="43.033165" lon="-1.26894167">
        <ele>1069.0</ele>
        <time>2019-08-01T09:06:28.980Z</time>
      </trkpt>
      <trkpt lat="43.03316833" lon="-1.26895333">
        <ele>1069.0</ele>
        <time>2019-08-01T09:06:29.988Z</time>
      </trkpt>
      <trkpt lat="43.03317167" lon="-1.268965">
        <ele>1068.0</ele>
        <time>2019-08-01T09:06:30.993Z</time>
      </trkpt>
      <trkpt lat="43.03317167" lon="-1.26897833">
        <ele>1068.0</ele>
        <time>2019-08-01T09:06:31.998Z</time>
      </trkpt>
      <trkpt lat="43.03317833" lon="-1.26899167">
        <ele>1067.0</ele>
        <time>2019-08-01T09:06:33.002Z</time>
      </trkpt>
      <trkpt lat="43.03318833" lon="-1.269">
        <ele>1067.0</ele>
        <time>2019-08-01T09:06:34.009Z</time>
      </trkpt>
      <trkpt lat="43.03319333" lon="-1.269">
        <ele>1067.0</ele>
        <time>2019-08-01T09:06:35.013Z</time>
      </trkpt>
      <trkpt lat="43.033205" lon="-1.26900167">
        <ele>1067.0</ele>
        <time>2019-08-01T09:06:36.019Z</time>
      </trkpt>
      <trkpt lat="43.03322167" lon="-1.26901">
        <ele>1067.0</ele>
        <time>2019-08-01T09:06:37.024Z</time>
      </trkpt>
      <trkpt lat="43.03323333" lon="-1.269015">
        <ele>1067.0</ele>
        <time>2019-08-01T09:06:38.030Z</time>
      </trkpt>
      <trkpt lat="43.03323667" lon="-1.26901333">
        <ele>1067.0</ele>
        <time>2019-08-01T09:06:39.036Z</time>
      </trkpt>
      <trkpt lat="43.03323333" lon="-1.26902">
        <ele>1067.0</ele>
        <time>2019-08-01T09:06:40.040Z</time>
      </trkpt>
      <trkpt lat="43.033225" lon="-1.26903167">
        <ele>1068.0</ele>
        <time>2019-08-01T09:06:40.920Z</time>
      </trkpt>
      <trkpt lat="43.03321833" lon="-1.26904667">
        <ele>1067.0</ele>
        <time>2019-08-01T09:06:41.924Z</time>
      </trkpt>
      <trkpt lat="43.03321167" lon="-1.269065">
        <ele>1067.0</ele>
        <time>2019-08-01T09:06:42.929Z</time>
      </trkpt>
      <trkpt lat="43.03320333" lon="-1.269085">
        <ele>1066.0</ele>
        <time>2019-08-01T09:06:43.936Z</time>
      </trkpt>
      <trkpt lat="43.03319167" lon="-1.26910333">
        <ele>1066.0</ele>
        <time>2019-08-01T09:06:44.940Z</time>
      </trkpt>
      <trkpt lat="43.03319333" lon="-1.26911667">
        <ele>1066.0</ele>
        <time>2019-08-01T09:06:45.945Z</time>
      </trkpt>
      <trkpt lat="43.03319667" lon="-1.26913">
        <ele>1066.0</ele>
        <time>2019-08-01T09:06:46.953Z</time>
      </trkpt>
      <trkpt lat="43.0332" lon="-1.269145">
        <ele>1066.0</ele>
        <time>2019-08-01T09:06:47.961Z</time>
      </trkpt>
      <trkpt lat="43.03320167" lon="-1.26917">
        <ele>1066.0</ele>
        <time>2019-08-01T09:06:48.966Z</time>
      </trkpt>
      <trkpt lat="43.0332" lon="-1.2692">
        <ele>1066.0</ele>
        <time>2019-08-01T09:06:49.969Z</time>
      </trkpt>
      <trkpt lat="43.03319167" lon="-1.26922833">
        <ele>1067.0</ele>
        <time>2019-08-01T09:06:50.974Z</time>
      </trkpt>
      <trkpt lat="43.033185" lon="-1.26924667">
        <ele>1067.0</ele>
        <time>2019-08-01T09:06:51.978Z</time>
      </trkpt>
      <trkpt lat="43.033175" lon="-1.269265">
        <ele>1067.0</ele>
        <time>2019-08-01T09:06:52.985Z</time>
      </trkpt>
      <trkpt lat="43.03317167" lon="-1.26928333">
        <ele>1066.0</ele>
        <time>2019-08-01T09:06:53.989Z</time>
      </trkpt>
      <trkpt lat="43.03317167" lon="-1.26931">
        <ele>1066.0</ele>
        <time>2019-08-01T09:06:54.993Z</time>
      </trkpt>
      <trkpt lat="43.03317333" lon="-1.269345">
        <ele>1067.0</ele>
        <time>2019-08-01T09:06:56.000Z</time>
      </trkpt>
      <trkpt lat="43.033175" lon="-1.26937">
        <ele>1067.0</ele>
        <time>2019-08-01T09:06:57.006Z</time>
      </trkpt>
      <trkpt lat="43.033185" lon="-1.26938667">
        <ele>1067.0</ele>
        <time>2019-08-01T09:06:58.010Z</time>
      </trkpt>
      <trkpt lat="43.03319333" lon="-1.26939">
        <ele>1067.0</ele>
        <time>2019-08-01T09:06:59.014Z</time>
      </trkpt>
      <trkpt lat="43.03319833" lon="-1.26939">
        <ele>1066.0</ele>
        <time>2019-08-01T09:07:00.020Z</time>
      </trkpt>
      <trkpt lat="43.03320333" lon="-1.26939833">
        <ele>1066.0</ele>
        <time>2019-08-01T09:07:01.024Z</time>
      </trkpt>
      <trkpt lat="43.03320167" lon="-1.269415">
        <ele>1067.0</ele>
        <time>2019-08-01T09:07:02.029Z</time>
      </trkpt>
      <trkpt lat="43.03319333" lon="-1.269435">
        <ele>1067.0</ele>
        <time>2019-08-01T09:07:03.035Z</time>
      </trkpt>
      <trkpt lat="43.03318167" lon="-1.26945833">
        <ele>1067.0</ele>
        <time>2019-08-01T09:07:04.041Z</time>
      </trkpt>
      <trkpt lat="43.03317667" lon="-1.269485">
        <ele>1067.0</ele>
        <time>2019-08-01T09:07:04.923Z</time>
      </trkpt>
      <trkpt lat="43.03317" lon="-1.26951">
        <ele>1067.0</ele>
        <time>2019-08-01T09:07:05.929Z</time>
      </trkpt>
      <trkpt lat="43.03316333" lon="-1.269535">
        <ele>1068.0</ele>
        <time>2019-08-01T09:07:06.934Z</time>
      </trkpt>
      <trkpt lat="43.03315333" lon="-1.26955333">
        <ele>1068.0</ele>
        <time>2019-08-01T09:07:07.939Z</time>
      </trkpt>
      <trkpt lat="43.03314333" lon="-1.269575">
        <ele>1068.0</ele>
        <time>2019-08-01T09:07:08.945Z</time>
      </trkpt>
      <trkpt lat="43.03314667" lon="-1.26959667">
        <ele>1067.0</ele>
        <time>2019-08-01T09:07:09.947Z</time>
      </trkpt>
      <trkpt lat="43.03315667" lon="-1.26960667">
        <ele>1066.0</ele>
        <time>2019-08-01T09:07:10.952Z</time>
      </trkpt>
      <trkpt lat="43.033165" lon="-1.269615">
        <ele>1065.0</ele>
        <time>2019-08-01T09:07:11.959Z</time>
      </trkpt>
      <trkpt lat="43.03316" lon="-1.26963167">
        <ele>1065.0</ele>
        <time>2019-08-01T09:07:12.965Z</time>
      </trkpt>
      <trkpt lat="43.03314333" lon="-1.26964833">
        <ele>1064.0</ele>
        <time>2019-08-01T09:07:13.970Z</time>
      </trkpt>
      <trkpt lat="43.03312667" lon="-1.26966333">
        <ele>1064.0</ele>
        <time>2019-08-01T09:07:14.976Z</time>
      </trkpt>
      <trkpt lat="43.03311333" lon="-1.26968667">
        <ele>1063.0</ele>
        <time>2019-08-01T09:07:15.980Z</time>
      </trkpt>
      <trkpt lat="43.033105" lon="-1.26970333">
        <ele>1062.0</ele>
        <time>2019-08-01T09:07:16.987Z</time>
      </trkpt>
      <trkpt lat="43.0331" lon="-1.26971833">
        <ele>1061.0</ele>
        <time>2019-08-01T09:07:17.994Z</time>
      </trkpt>
      <trkpt lat="43.03309833" lon="-1.269735">
        <ele>1060.0</ele>
        <time>2019-08-01T09:07:19.000Z</time>
      </trkpt>
      <trkpt lat="43.03309333" lon="-1.26975333">
        <ele>1060.0</ele>
        <time>2019-08-01T09:07:20.006Z</time>
      </trkpt>
      <trkpt lat="43.03308333" lon="-1.26977333">
        <ele>1060.0</ele>
        <time>2019-08-01T09:07:21.010Z</time>
      </trkpt>
      <trkpt lat="43.03307833" lon="-1.26978833">
        <ele>1059.0</ele>
        <time>2019-08-01T09:07:22.016Z</time>
      </trkpt>
      <trkpt lat="43.03307333" lon="-1.2698">
        <ele>1059.0</ele>
        <time>2019-08-01T09:07:23.024Z</time>
      </trkpt>
      <trkpt lat="43.033075" lon="-1.26980833">
        <ele>1058.0</ele>
        <time>2019-08-01T09:07:24.029Z</time>
      </trkpt>
      <trkpt lat="43.03308167" lon="-1.26982167">
        <ele>1058.0</ele>
        <time>2019-08-01T09:07:25.036Z</time>
      </trkpt>
      <trkpt lat="43.03308667" lon="-1.26983333">
        <ele>1058.0</ele>
        <time>2019-08-01T09:07:26.042Z</time>
      </trkpt>
      <trkpt lat="43.03309" lon="-1.26984333">
        <ele>1057.0</ele>
        <time>2019-08-01T09:07:26.920Z</time>
      </trkpt>
      <trkpt lat="43.03308833" lon="-1.26985667">
        <ele>1057.0</ele>
        <time>2019-08-01T09:07:27.927Z</time>
      </trkpt>
      <trkpt lat="43.03307833" lon="-1.26987667">
        <ele>1057.0</ele>
        <time>2019-08-01T09:07:28.932Z</time>
      </trkpt>
      <trkpt lat="43.03306667" lon="-1.26989">
        <ele>1057.0</ele>
        <time>2019-08-01T09:07:29.937Z</time>
      </trkpt>
      <trkpt lat="43.03306" lon="-1.26989833">
        <ele>1057.0</ele>
        <time>2019-08-01T09:07:30.946Z</time>
      </trkpt>
      <trkpt lat="43.033055" lon="-1.26991">
        <ele>1056.0</ele>
        <time>2019-08-01T09:07:31.953Z</time>
      </trkpt>
      <trkpt lat="43.03305" lon="-1.26992333">
        <ele>1055.0</ele>
        <time>2019-08-01T09:07:32.958Z</time>
      </trkpt>
      <trkpt lat="43.03304167" lon="-1.26993167">
        <ele>1055.0</ele>
        <time>2019-08-01T09:07:33.962Z</time>
      </trkpt>
      <trkpt lat="43.03304167" lon="-1.26994667">
        <ele>1055.0</ele>
        <time>2019-08-01T09:07:34.968Z</time>
      </trkpt>
      <trkpt lat="43.033045" lon="-1.26996333">
        <ele>1055.0</ele>
        <time>2019-08-01T09:07:35.974Z</time>
      </trkpt>
      <trkpt lat="43.03305333" lon="-1.26998167">
        <ele>1056.0</ele>
        <time>2019-08-01T09:07:36.976Z</time>
      </trkpt>
      <trkpt lat="43.03306167" lon="-1.26999833">
        <ele>1055.0</ele>
        <time>2019-08-01T09:07:37.981Z</time>
      </trkpt>
      <trkpt lat="43.03307167" lon="-1.27002167">
        <ele>1055.0</ele>
        <time>2019-08-01T09:07:38.985Z</time>
      </trkpt>
      <trkpt lat="43.03307833" lon="-1.27005">
        <ele>1054.0</ele>
        <time>2019-08-01T09:07:39.992Z</time>
      </trkpt>
      <trkpt lat="43.033085" lon="-1.27007833">
        <ele>1054.0</ele>
        <time>2019-08-01T09:07:40.997Z</time>
      </trkpt>
      <trkpt lat="43.03309333" lon="-1.270105">
        <ele>1054.0</ele>
        <time>2019-08-01T09:07:42.000Z</time>
      </trkpt>
      <trkpt lat="43.03308833" lon="-1.270135">
        <ele>1055.0</ele>
        <time>2019-08-01T09:07:43.006Z</time>
      </trkpt>
      <trkpt lat="43.03309333" lon="-1.270165">
        <ele>1055.0</ele>
        <time>2019-08-01T09:07:44.010Z</time>
      </trkpt>
      <trkpt lat="43.033115" lon="-1.27019833">
        <ele>1055.0</ele>
        <time>2019-08-01T09:07:45.015Z</time>
      </trkpt>
      <trkpt lat="43.03314" lon="-1.27022167">
        <ele>1055.0</ele>
        <time>2019-08-01T09:07:46.022Z</time>
      </trkpt>
      <trkpt lat="43.033165" lon="-1.27024167">
        <ele>1055.0</ele>
        <time>2019-08-01T09:07:47.029Z</time>
      </trkpt>
      <trkpt lat="43.033165" lon="-1.27026333">
        <ele>1055.0</ele>
        <time>2019-08-01T09:07:48.036Z</time>
      </trkpt>
      <trkpt lat="43.033165" lon="-1.27028167">
        <ele>1056.0</ele>
        <time>2019-08-01T09:07:49.043Z</time>
      </trkpt>
      <trkpt lat="43.03317167" lon="-1.27030167">
        <ele>1057.0</ele>
        <time>2019-08-01T09:07:49.923Z</time>
      </trkpt>
      <trkpt lat="43.03316333" lon="-1.27032167">
        <ele>1058.0</ele>
        <time>2019-08-01T09:07:50.928Z</time>
      </trkpt>
      <trkpt lat="43.03316333" lon="-1.27034">
        <ele>1058.0</ele>
        <time>2019-08-01T09:07:51.932Z</time>
      </trkpt>
      <trkpt lat="43.03316833" lon="-1.27035667">
        <ele>1057.0</ele>
        <time>2019-08-01T09:07:52.939Z</time>
      </trkpt>
      <trkpt lat="43.033175" lon="-1.27037">
        <ele>1057.0</ele>
        <time>2019-08-01T09:07:53.943Z</time>
      </trkpt>
      <trkpt lat="43.03317333" lon="-1.27038">
        <ele>1057.0</ele>
        <time>2019-08-01T09:07:54.950Z</time>
      </trkpt>
      <trkpt lat="43.03315667" lon="-1.27039667">
        <ele>1058.0</ele>
        <time>2019-08-01T09:07:55.956Z</time>
      </trkpt>
      <trkpt lat="43.03313667" lon="-1.27041833">
        <ele>1059.0</ele>
        <time>2019-08-01T09:07:56.962Z</time>
      </trkpt>
      <trkpt lat="43.03311833" lon="-1.27044167">
        <ele>1059.0</ele>
        <time>2019-08-01T09:07:57.968Z</time>
      </trkpt>
      <trkpt lat="43.03310167" lon="-1.27046167">
        <ele>1059.0</ele>
        <time>2019-08-01T09:07:58.974Z</time>
      </trkpt>
      <trkpt lat="43.0331" lon="-1.27047833">
        <ele>1059.0</ele>
        <time>2019-08-01T09:07:59.978Z</time>
      </trkpt>
      <trkpt lat="43.03310833" lon="-1.27049333">
        <ele>1059.0</ele>
        <time>2019-08-01T09:08:00.983Z</time>
      </trkpt>
      <trkpt lat="43.03312167" lon="-1.270515">
        <ele>1060.0</ele>
        <time>2019-08-01T09:08:01.989Z</time>
      </trkpt>
      <trkpt lat="43.03313667" lon="-1.27053667">
        <ele>1061.0</ele>
        <time>2019-08-01T09:08:02.996Z</time>
      </trkpt>
      <trkpt lat="43.03314167" lon="-1.27055667">
        <ele>1061.0</ele>
        <time>2019-08-01T09:08:04.001Z</time>
      </trkpt>
      <trkpt lat="43.03314833" lon="-1.27057667">
        <ele>1061.0</ele>
        <time>2019-08-01T09:08:05.008Z</time>
      </trkpt>
      <trkpt lat="43.03315667" lon="-1.27059667">
        <ele>1061.0</ele>
        <time>2019-08-01T09:08:06.012Z</time>
      </trkpt>
      <trkpt lat="43.033165" lon="-1.27062333">
        <ele>1062.0</ele>
        <time>2019-08-01T09:08:07.019Z</time>
      </trkpt>
      <trkpt lat="43.03317167" lon="-1.27065167">
        <ele>1062.0</ele>
        <time>2019-08-01T09:08:08.024Z</time>
      </trkpt>
      <trkpt lat="43.03319333" lon="-1.27066833">
        <ele>1062.0</ele>
        <time>2019-08-01T09:08:09.031Z</time>
      </trkpt>
      <trkpt lat="43.03322333" lon="-1.27068">
        <ele>1062.0</ele>
        <time>2019-08-01T09:08:10.037Z</time>
      </trkpt>
      <trkpt lat="43.03323" lon="-1.27069667">
        <ele>1061.0</ele>
        <time>2019-08-01T09:08:11.043Z</time>
      </trkpt>
      <trkpt lat="43.03323667" lon="-1.27071">
        <ele>1061.0</ele>
        <time>2019-08-01T09:08:11.923Z</time>
      </trkpt>
      <trkpt lat="43.03323" lon="-1.270725">
        <ele>1061.0</ele>
        <time>2019-08-01T09:08:12.928Z</time>
      </trkpt>
      <trkpt lat="43.03322" lon="-1.27073833">
        <ele>1062.0</ele>
        <time>2019-08-01T09:08:13.935Z</time>
      </trkpt>
      <trkpt lat="43.03320667" lon="-1.270755">
        <ele>1063.0</ele>
        <time>2019-08-01T09:08:14.941Z</time>
      </trkpt>
      <trkpt lat="43.03319667" lon="-1.27076333">
        <ele>1062.0</ele>
        <time>2019-08-01T09:08:15.948Z</time>
      </trkpt>
      <trkpt lat="43.03318833" lon="-1.27077">
        <ele>1061.0</ele>
        <time>2019-08-01T09:08:16.952Z</time>
      </trkpt>
      <trkpt lat="43.03318333" lon="-1.270775">
        <ele>1060.0</ele>
        <time>2019-08-01T09:08:17.957Z</time>
      </trkpt>
      <trkpt lat="43.033175" lon="-1.270795">
        <ele>1061.0</ele>
        <time>2019-08-01T09:08:18.962Z</time>
      </trkpt>
      <trkpt lat="43.03318" lon="-1.27081">
        <ele>1061.0</ele>
        <time>2019-08-01T09:08:19.969Z</time>
      </trkpt>
      <trkpt lat="43.03318833" lon="-1.27082333">
        <ele>1061.0</ele>
        <time>2019-08-01T09:08:20.976Z</time>
      </trkpt>
      <trkpt lat="43.03318667" lon="-1.27083833">
        <ele>1060.0</ele>
        <time>2019-08-01T09:08:21.982Z</time>
      </trkpt>
      <trkpt lat="43.033195" lon="-1.270845">
        <ele>1060.0</ele>
        <time>2019-08-01T09:08:22.987Z</time>
      </trkpt>
      <trkpt lat="43.03319333" lon="-1.27085333">
        <ele>1060.0</ele>
        <time>2019-08-01T09:08:23.994Z</time>
      </trkpt>
      <trkpt lat="43.03318833" lon="-1.27086333">
        <ele>1060.0</ele>
        <time>2019-08-01T09:08:24.999Z</time>
      </trkpt>
      <trkpt lat="43.03318667" lon="-1.27087333">
        <ele>1061.0</ele>
        <time>2019-08-01T09:08:26.004Z</time>
      </trkpt>
      <trkpt lat="43.03319167" lon="-1.27088333">
        <ele>1061.0</ele>
        <time>2019-08-01T09:08:27.011Z</time>
      </trkpt>
      <trkpt lat="43.03319667" lon="-1.27089333">
        <ele>1061.0</ele>
        <time>2019-08-01T09:08:28.018Z</time>
      </trkpt>
      <trkpt lat="43.033195" lon="-1.270905">
        <ele>1061.0</ele>
        <time>2019-08-01T09:08:29.023Z</time>
      </trkpt>
      <trkpt lat="43.03319" lon="-1.270915">
        <ele>1062.0</ele>
        <time>2019-08-01T09:08:30.029Z</time>
      </trkpt>
      <trkpt lat="43.03318667" lon="-1.270925">
        <ele>1062.0</ele>
        <time>2019-08-01T09:08:31.035Z</time>
      </trkpt>
      <trkpt lat="43.03318167" lon="-1.27093333">
        <ele>1062.0</ele>
        <time>2019-08-01T09:08:32.042Z</time>
      </trkpt>
      <trkpt lat="43.03318" lon="-1.270945">
        <ele>1062.0</ele>
        <time>2019-08-01T09:08:32.922Z</time>
      </trkpt>
      <trkpt lat="43.03317833" lon="-1.27096">
        <ele>1062.0</ele>
        <time>2019-08-01T09:08:33.928Z</time>
      </trkpt>
      <trkpt lat="43.033175" lon="-1.27097667">
        <ele>1062.0</ele>
        <time>2019-08-01T09:08:34.932Z</time>
      </trkpt>
      <trkpt lat="43.03317" lon="-1.27099333">
        <ele>1062.0</ele>
        <time>2019-08-01T09:08:35.938Z</time>
      </trkpt>
      <trkpt lat="43.03316" lon="-1.27101">
        <ele>1062.0</ele>
        <time>2019-08-01T09:08:36.943Z</time>
      </trkpt>
      <trkpt lat="43.03315" lon="-1.27102833">
        <ele>1062.0</ele>
        <time>2019-08-01T09:08:37.951Z</time>
      </trkpt>
      <trkpt lat="43.033145" lon="-1.271045">
        <ele>1062.0</ele>
        <time>2019-08-01T09:08:38.956Z</time>
      </trkpt>
      <trkpt lat="43.03314167" lon="-1.27105667">
        <ele>1062.0</ele>
        <time>2019-08-01T09:08:39.962Z</time>
      </trkpt>
      <trkpt lat="43.03313667" lon="-1.27106667">
        <ele>1062.0</ele>
        <time>2019-08-01T09:08:40.969Z</time>
      </trkpt>
      <trkpt lat="43.03312833" lon="-1.271085">
        <ele>1062.0</ele>
        <time>2019-08-01T09:08:41.972Z</time>
      </trkpt>
      <trkpt lat="43.03312667" lon="-1.27110167">
        <ele>1062.0</ele>
        <time>2019-08-01T09:08:42.980Z</time>
      </trkpt>
      <trkpt lat="43.03313" lon="-1.27111667">
        <ele>1061.0</ele>
        <time>2019-08-01T09:08:43.986Z</time>
      </trkpt>
      <trkpt lat="43.03314" lon="-1.27113167">
        <ele>1061.0</ele>
        <time>2019-08-01T09:08:44.991Z</time>
      </trkpt>
      <trkpt lat="43.03315333" lon="-1.27114333">
        <ele>1061.0</ele>
        <time>2019-08-01T09:08:45.996Z</time>
      </trkpt>
      <trkpt lat="43.03315833" lon="-1.27114833">
        <ele>1062.0</ele>
        <time>2019-08-01T09:08:46.999Z</time>
      </trkpt>
      <trkpt lat="43.03315833" lon="-1.27116167">
        <ele>1062.0</ele>
        <time>2019-08-01T09:08:48.006Z</time>
      </trkpt>
      <trkpt lat="43.03315" lon="-1.27116833">
        <ele>1061.0</ele>
        <time>2019-08-01T09:08:49.011Z</time>
      </trkpt>
      <trkpt lat="43.03313833" lon="-1.27118">
        <ele>1060.0</ele>
        <time>2019-08-01T09:08:50.016Z</time>
      </trkpt>
      <trkpt lat="43.03314667" lon="-1.271195">
        <ele>1059.0</ele>
        <time>2019-08-01T09:08:51.024Z</time>
      </trkpt>
      <trkpt lat="43.033155" lon="-1.27121333">
        <ele>1058.0</ele>
        <time>2019-08-01T09:08:52.030Z</time>
      </trkpt>
      <trkpt lat="43.03313833" lon="-1.27124333">
        <ele>1059.0</ele>
        <time>2019-08-01T09:08:53.033Z</time>
      </trkpt>
      <trkpt lat="43.03312" lon="-1.27127667">
        <ele>1061.0</ele>
        <time>2019-08-01T09:08:54.040Z</time>
      </trkpt>
      <trkpt lat="43.03311333" lon="-1.27131">
        <ele>1063.0</ele>
        <time>2019-08-01T09:08:54.921Z</time>
      </trkpt>
      <trkpt lat="43.03312667" lon="-1.27132667">
        <ele>1064.0</ele>
        <time>2019-08-01T09:08:55.927Z</time>
      </trkpt>
      <trkpt lat="43.03313833" lon="-1.27133333">
        <ele>1063.0</ele>
        <time>2019-08-01T09:08:56.930Z</time>
      </trkpt>
      <trkpt lat="43.03313667" lon="-1.271345">
        <ele>1063.0</ele>
        <time>2019-08-01T09:08:57.937Z</time>
      </trkpt>
      <trkpt lat="43.03312833" lon="-1.271355">
        <ele>1063.0</ele>
        <time>2019-08-01T09:08:58.945Z</time>
      </trkpt>
      <trkpt lat="43.03312" lon="-1.271365">
        <ele>1062.0</ele>
        <time>2019-08-01T09:08:59.950Z</time>
      </trkpt>
      <trkpt lat="43.03311333" lon="-1.27138">
        <ele>1061.0</ele>
        <time>2019-08-01T09:09:00.957Z</time>
      </trkpt>
      <trkpt lat="43.03311667" lon="-1.27139167">
        <ele>1061.0</ele>
        <time>2019-08-01T09:09:01.963Z</time>
      </trkpt>
      <trkpt lat="43.03311667" lon="-1.271405">
        <ele>1062.0</ele>
        <time>2019-08-01T09:09:02.968Z</time>
      </trkpt>
      <trkpt lat="43.03311667" lon="-1.27141333">
        <ele>1062.0</ele>
        <time>2019-08-01T09:09:03.971Z</time>
      </trkpt>
      <trkpt lat="43.033115" lon="-1.271425">
        <ele>1062.0</ele>
        <time>2019-08-01T09:09:04.976Z</time>
      </trkpt>
      <trkpt lat="43.03311167" lon="-1.27144">
        <ele>1062.0</ele>
        <time>2019-08-01T09:09:05.981Z</time>
      </trkpt>
      <trkpt lat="43.03310167" lon="-1.27145833">
        <ele>1062.0</ele>
        <time>2019-08-01T09:09:06.985Z</time>
      </trkpt>
      <trkpt lat="43.03309333" lon="-1.27147167">
        <ele>1062.0</ele>
        <time>2019-08-01T09:09:07.989Z</time>
      </trkpt>
      <trkpt lat="43.03308333" lon="-1.27148">
        <ele>1062.0</ele>
        <time>2019-08-01T09:09:08.996Z</time>
      </trkpt>
      <trkpt lat="43.033075" lon="-1.27148833">
        <ele>1061.0</ele>
        <time>2019-08-01T09:09:10.003Z</time>
      </trkpt>
      <trkpt lat="43.033065" lon="-1.27150333">
        <ele>1061.0</ele>
        <time>2019-08-01T09:09:11.010Z</time>
      </trkpt>
      <trkpt lat="43.03305833" lon="-1.27151667">
        <ele>1060.0</ele>
        <time>2019-08-01T09:09:12.015Z</time>
      </trkpt>
      <trkpt lat="43.03304833" lon="-1.27153">
        <ele>1060.0</ele>
        <time>2019-08-01T09:09:13.021Z</time>
      </trkpt>
      <trkpt lat="43.03304167" lon="-1.27154167">
        <ele>1060.0</ele>
        <time>2019-08-01T09:09:14.029Z</time>
      </trkpt>
      <trkpt lat="43.03303333" lon="-1.271555">
        <ele>1060.0</ele>
        <time>2019-08-01T09:09:15.036Z</time>
      </trkpt>
      <trkpt lat="43.033025" lon="-1.27156833">
        <ele>1061.0</ele>
        <time>2019-08-01T09:09:16.042Z</time>
      </trkpt>
      <trkpt lat="43.03301833" lon="-1.27158333">
        <ele>1060.0</ele>
        <time>2019-08-01T09:09:16.920Z</time>
      </trkpt>
      <trkpt lat="43.03301333" lon="-1.27159667">
        <ele>1060.0</ele>
        <time>2019-08-01T09:09:17.923Z</time>
      </trkpt>
      <trkpt lat="43.033005" lon="-1.27160833">
        <ele>1059.0</ele>
        <time>2019-08-01T09:09:18.929Z</time>
      </trkpt>
      <trkpt lat="43.03299333" lon="-1.27162167">
        <ele>1059.0</ele>
        <time>2019-08-01T09:09:19.935Z</time>
      </trkpt>
      <trkpt lat="43.03298333" lon="-1.27163167">
        <ele>1058.0</ele>
        <time>2019-08-01T09:09:20.941Z</time>
      </trkpt>
      <trkpt lat="43.03297167" lon="-1.271645">
        <ele>1057.0</ele>
        <time>2019-08-01T09:09:21.946Z</time>
      </trkpt>
      <trkpt lat="43.03296667" lon="-1.27166">
        <ele>1057.0</ele>
        <time>2019-08-01T09:09:22.953Z</time>
      </trkpt>
      <trkpt lat="43.03296167" lon="-1.271675">
        <ele>1056.0</ele>
        <time>2019-08-01T09:09:23.958Z</time>
      </trkpt>
      <trkpt lat="43.03295833" lon="-1.27169167">
        <ele>1056.0</ele>
        <time>2019-08-01T09:09:24.964Z</time>
      </trkpt>
      <trkpt lat="43.03295" lon="-1.271715">
        <ele>1056.0</ele>
        <time>2019-08-01T09:09:25.969Z</time>
      </trkpt>
      <trkpt lat="43.03294" lon="-1.27173833">
        <ele>1055.0</ele>
        <time>2019-08-01T09:09:26.973Z</time>
      </trkpt>
      <trkpt lat="43.03293167" lon="-1.27175667">
        <ele>1054.0</ele>
        <time>2019-08-01T09:09:27.976Z</time>
      </trkpt>
      <trkpt lat="43.03291667" lon="-1.271775">
        <ele>1054.0</ele>
        <time>2019-08-01T09:09:28.983Z</time>
      </trkpt>
      <trkpt lat="43.032905" lon="-1.271785">
        <ele>1054.0</ele>
        <time>2019-08-01T09:09:29.988Z</time>
      </trkpt>
      <trkpt lat="43.03289333" lon="-1.27179833">
        <ele>1054.0</ele>
        <time>2019-08-01T09:09:30.995Z</time>
      </trkpt>
      <trkpt lat="43.03289" lon="-1.27181333">
        <ele>1054.0</ele>
        <time>2019-08-01T09:09:32.001Z</time>
      </trkpt>
      <trkpt lat="43.032875" lon="-1.27184">
        <ele>1055.0</ele>
        <time>2019-08-01T09:09:33.007Z</time>
      </trkpt>
      <trkpt lat="43.03286333" lon="-1.27186833">
        <ele>1056.0</ele>
        <time>2019-08-01T09:09:34.013Z</time>
      </trkpt>
      <trkpt lat="43.03286" lon="-1.271885">
        <ele>1055.0</ele>
        <time>2019-08-01T09:09:35.020Z</time>
      </trkpt>
      <trkpt lat="43.03285167" lon="-1.27190167">
        <ele>1055.0</ele>
        <time>2019-08-01T09:09:36.028Z</time>
      </trkpt>
      <trkpt lat="43.03285167" lon="-1.27191">
        <ele>1054.0</ele>
        <time>2019-08-01T09:09:37.035Z</time>
      </trkpt>
      <trkpt lat="43.03285" lon="-1.27191833">
        <ele>1053.0</ele>
        <time>2019-08-01T09:09:38.041Z</time>
      </trkpt>
      <trkpt lat="43.032855" lon="-1.27192667">
        <ele>1052.0</ele>
        <time>2019-08-01T09:09:38.920Z</time>
      </trkpt>
      <trkpt lat="43.03286667" lon="-1.27193667">
        <ele>1052.0</ele>
        <time>2019-08-01T09:09:39.926Z</time>
      </trkpt>
      <trkpt lat="43.03286333" lon="-1.27196667">
        <ele>1053.0</ele>
        <time>2019-08-01T09:09:40.932Z</time>
      </trkpt>
      <trkpt lat="43.03285833" lon="-1.27198">
        <ele>1054.0</ele>
        <time>2019-08-01T09:09:41.938Z</time>
      </trkpt>
      <trkpt lat="43.03284833" lon="-1.27199">
        <ele>1054.0</ele>
        <time>2019-08-01T09:09:42.944Z</time>
      </trkpt>
      <trkpt lat="43.03284667" lon="-1.272">
        <ele>1053.0</ele>
        <time>2019-08-01T09:09:43.951Z</time>
      </trkpt>
      <trkpt lat="43.03284333" lon="-1.27201167">
        <ele>1053.0</ele>
        <time>2019-08-01T09:09:44.958Z</time>
      </trkpt>
      <trkpt lat="43.03283833" lon="-1.27202833">
        <ele>1053.0</ele>
        <time>2019-08-01T09:09:45.962Z</time>
      </trkpt>
      <trkpt lat="43.03282833" lon="-1.27204333">
        <ele>1053.0</ele>
        <time>2019-08-01T09:09:46.967Z</time>
      </trkpt>
      <trkpt lat="43.03282167" lon="-1.27206">
        <ele>1053.0</ele>
        <time>2019-08-01T09:09:47.971Z</time>
      </trkpt>
      <trkpt lat="43.032815" lon="-1.27207333">
        <ele>1053.0</ele>
        <time>2019-08-01T09:09:48.977Z</time>
      </trkpt>
      <trkpt lat="43.03280167" lon="-1.27208333">
        <ele>1053.0</ele>
        <time>2019-08-01T09:09:49.984Z</time>
      </trkpt>
      <trkpt lat="43.03278833" lon="-1.27209">
        <ele>1053.0</ele>
        <time>2019-08-01T09:09:50.991Z</time>
      </trkpt>
      <trkpt lat="43.03278" lon="-1.27209167">
        <ele>1054.0</ele>
        <time>2019-08-01T09:09:51.995Z</time>
      </trkpt>
      <trkpt lat="43.03277167" lon="-1.27209833">
        <ele>1054.0</ele>
        <time>2019-08-01T09:09:52.998Z</time>
      </trkpt>
      <trkpt lat="43.03276667" lon="-1.27210333">
        <ele>1055.0</ele>
        <time>2019-08-01T09:09:54.005Z</time>
      </trkpt>
      <trkpt lat="43.03276333" lon="-1.27211333">
        <ele>1055.0</ele>
        <time>2019-08-01T09:09:55.012Z</time>
      </trkpt>
      <trkpt lat="43.03275833" lon="-1.272125">
        <ele>1054.0</ele>
        <time>2019-08-01T09:09:56.017Z</time>
      </trkpt>
      <trkpt lat="43.03275333" lon="-1.272135">
        <ele>1054.0</ele>
        <time>2019-08-01T09:09:57.025Z</time>
      </trkpt>
      <trkpt lat="43.03275" lon="-1.27214333">
        <ele>1055.0</ele>
        <time>2019-08-01T09:09:58.033Z</time>
      </trkpt>
      <trkpt lat="43.03274333" lon="-1.27215">
        <ele>1055.0</ele>
        <time>2019-08-01T09:09:59.038Z</time>
      </trkpt>
      <trkpt lat="43.03273333" lon="-1.272155">
        <ele>1056.0</ele>
        <time>2019-08-01T09:10:00.043Z</time>
      </trkpt>
      <trkpt lat="43.032725" lon="-1.27215833">
        <ele>1057.0</ele>
        <time>2019-08-01T09:10:00.923Z</time>
      </trkpt>
      <trkpt lat="43.03271833" lon="-1.27216333">
        <ele>1058.0</ele>
        <time>2019-08-01T09:10:01.929Z</time>
      </trkpt>
      <trkpt lat="43.03271667" lon="-1.27216667">
        <ele>1059.0</ele>
        <time>2019-08-01T09:10:02.936Z</time>
      </trkpt>
      <trkpt lat="43.03272167" lon="-1.27217167">
        <ele>1059.0</ele>
        <time>2019-08-01T09:10:03.941Z</time>
      </trkpt>
      <trkpt lat="43.03272333" lon="-1.27217167">
        <ele>1058.0</ele>
        <time>2019-08-01T09:10:04.947Z</time>
      </trkpt>
      <trkpt lat="43.032735" lon="-1.272175">
        <ele>1058.0</ele>
        <time>2019-08-01T09:10:05.952Z</time>
      </trkpt>
      <trkpt lat="43.032745" lon="-1.27218">
        <ele>1058.0</ele>
        <time>2019-08-01T09:10:06.958Z</time>
      </trkpt>
      <trkpt lat="43.032755" lon="-1.27218167">
        <ele>1058.0</ele>
        <time>2019-08-01T09:10:07.966Z</time>
      </trkpt>
      <trkpt lat="43.03276333" lon="-1.27218">
        <ele>1058.0</ele>
        <time>2019-08-01T09:10:08.972Z</time>
      </trkpt>
      <trkpt lat="43.03276167" lon="-1.27217167">
        <ele>1058.0</ele>
        <time>2019-08-01T09:10:09.977Z</time>
      </trkpt>
      <trkpt lat="43.03275833" lon="-1.272155">
        <ele>1058.0</ele>
        <time>2019-08-01T09:10:10.983Z</time>
      </trkpt>
      <trkpt lat="43.03275333" lon="-1.27214333">
        <ele>1057.0</ele>
        <time>2019-08-01T09:10:11.988Z</time>
      </trkpt>
      <trkpt lat="43.03275333" lon="-1.27214167">
        <ele>1058.0</ele>
        <time>2019-08-01T09:10:12.992Z</time>
      </trkpt>
      <trkpt lat="43.03275833" lon="-1.272145">
        <ele>1058.0</ele>
        <time>2019-08-01T09:10:13.999Z</time>
      </trkpt>
      <trkpt lat="43.03277333" lon="-1.27214667">
        <ele>1058.0</ele>
        <time>2019-08-01T09:10:15.006Z</time>
      </trkpt>
      <trkpt lat="43.03279" lon="-1.27214333">
        <ele>1058.0</ele>
        <time>2019-08-01T09:10:16.013Z</time>
      </trkpt>
      <trkpt lat="43.03280167" lon="-1.27214167">
        <ele>1058.0</ele>
        <time>2019-08-01T09:10:17.017Z</time>
      </trkpt>
      <trkpt lat="43.032805" lon="-1.27215833">
        <ele>1058.0</ele>
        <time>2019-08-01T09:10:18.023Z</time>
      </trkpt>
      <trkpt lat="43.03280333" lon="-1.27217667">
        <ele>1057.0</ele>
        <time>2019-08-01T09:10:19.028Z</time>
      </trkpt>
      <trkpt lat="43.03278667" lon="-1.27218667">
        <ele>1057.0</ele>
        <time>2019-08-01T09:10:20.035Z</time>
      </trkpt>
      <trkpt lat="43.03277833" lon="-1.27218167">
        <ele>1056.0</ele>
        <time>2019-08-01T09:10:21.042Z</time>
      </trkpt>
      <trkpt lat="43.03276833" lon="-1.27217667">
        <ele>1056.0</ele>
        <time>2019-08-01T09:10:21.923Z</time>
      </trkpt>
      <trkpt lat="43.03275667" lon="-1.27217333">
        <ele>1057.0</ele>
        <time>2019-08-01T09:10:22.928Z</time>
      </trkpt>
      <trkpt lat="43.03274" lon="-1.27217667">
        <ele>1059.0</ele>
        <time>2019-08-01T09:10:23.934Z</time>
      </trkpt>
      <trkpt lat="43.03271333" lon="-1.272175">
        <ele>1060.0</ele>
        <time>2019-08-01T09:10:24.939Z</time>
      </trkpt>
      <trkpt lat="43.03269167" lon="-1.272175">
        <ele>1060.0</ele>
        <time>2019-08-01T09:10:25.943Z</time>
      </trkpt>
      <trkpt lat="43.03268667" lon="-1.27218333">
        <ele>1059.0</ele>
        <time>2019-08-01T09:10:26.950Z</time>
      </trkpt>
      <trkpt lat="43.032685" lon="-1.27220167">
        <ele>1059.0</ele>
        <time>2019-08-01T09:10:27.956Z</time>
      </trkpt>
      <trkpt lat="43.03269" lon="-1.27222">
        <ele>1059.0</ele>
        <time>2019-08-01T09:10:28.962Z</time>
      </trkpt>
      <trkpt lat="43.03268667" lon="-1.27223833">
        <ele>1059.0</ele>
        <time>2019-08-01T09:10:29.967Z</time>
      </trkpt>
      <trkpt lat="43.03267167" lon="-1.27224667">
        <ele>1058.0</ele>
        <time>2019-08-01T09:10:30.972Z</time>
      </trkpt>
      <trkpt lat="43.032655" lon="-1.27226">
        <ele>1060.0</ele>
        <time>2019-08-01T09:10:31.977Z</time>
      </trkpt>
      <trkpt lat="43.03264667" lon="-1.27227167">
        <ele>1061.0</ele>
        <time>2019-08-01T09:10:32.985Z</time>
      </trkpt>
      <trkpt lat="43.03263667" lon="-1.27228">
        <ele>1061.0</ele>
        <time>2019-08-01T09:10:33.991Z</time>
      </trkpt>
      <trkpt lat="43.032625" lon="-1.27229">
        <ele>1062.0</ele>
        <time>2019-08-01T09:10:34.997Z</time>
      </trkpt>
      <trkpt lat="43.03261333" lon="-1.272305">
        <ele>1063.0</ele>
        <time>2019-08-01T09:10:36.003Z</time>
      </trkpt>
      <trkpt lat="43.032605" lon="-1.272315">
        <ele>1063.0</ele>
        <time>2019-08-01T09:10:37.005Z</time>
      </trkpt>
      <trkpt lat="43.03259667" lon="-1.272325">
        <ele>1063.0</ele>
        <time>2019-08-01T09:10:38.009Z</time>
      </trkpt>
      <trkpt lat="43.03258833" lon="-1.272335">
        <ele>1063.0</ele>
        <time>2019-08-01T09:10:39.013Z</time>
      </trkpt>
      <trkpt lat="43.03258" lon="-1.272345">
        <ele>1063.0</ele>
        <time>2019-08-01T09:10:40.018Z</time>
      </trkpt>
      <trkpt lat="43.03257" lon="-1.27235">
        <ele>1062.0</ele>
        <time>2019-08-01T09:10:41.026Z</time>
      </trkpt>
      <trkpt lat="43.03255833" lon="-1.27236167">
        <ele>1062.0</ele>
        <time>2019-08-01T09:10:42.030Z</time>
      </trkpt>
      <trkpt lat="43.03255" lon="-1.27237167">
        <ele>1063.0</ele>
        <time>2019-08-01T09:10:43.033Z</time>
      </trkpt>
      <trkpt lat="43.03253667" lon="-1.27238167">
        <ele>1063.0</ele>
        <time>2019-08-01T09:10:44.039Z</time>
      </trkpt>
      <trkpt lat="43.03252333" lon="-1.27238667">
        <ele>1063.0</ele>
        <time>2019-08-01T09:10:44.919Z</time>
      </trkpt>
      <trkpt lat="43.03250833" lon="-1.27239667">
        <ele>1063.0</ele>
        <time>2019-08-01T09:10:45.926Z</time>
      </trkpt>
      <trkpt lat="43.03249667" lon="-1.27240167">
        <ele>1064.0</ele>
        <time>2019-08-01T09:10:46.928Z</time>
      </trkpt>
      <trkpt lat="43.03249" lon="-1.27240333">
        <ele>1064.0</ele>
        <time>2019-08-01T09:10:47.930Z</time>
      </trkpt>
      <trkpt lat="43.03248333" lon="-1.27241">
        <ele>1064.0</ele>
        <time>2019-08-01T09:10:48.937Z</time>
      </trkpt>
      <trkpt lat="43.032475" lon="-1.272415">
        <ele>1064.0</ele>
        <time>2019-08-01T09:10:49.943Z</time>
      </trkpt>
      <trkpt lat="43.03246833" lon="-1.27241833">
        <ele>1063.0</ele>
        <time>2019-08-01T09:10:50.951Z</time>
      </trkpt>
      <trkpt lat="43.03245667" lon="-1.27242">
        <ele>1063.0</ele>
        <time>2019-08-01T09:10:51.954Z</time>
      </trkpt>
      <trkpt lat="43.032445" lon="-1.272425">
        <ele>1063.0</ele>
        <time>2019-08-01T09:10:52.956Z</time>
      </trkpt>
      <trkpt lat="43.03243333" lon="-1.27243333">
        <ele>1063.0</ele>
        <time>2019-08-01T09:10:53.961Z</time>
      </trkpt>
      <trkpt lat="43.03242333" lon="-1.272445">
        <ele>1063.0</ele>
        <time>2019-08-01T09:10:54.966Z</time>
      </trkpt>
      <trkpt lat="43.032415" lon="-1.27245167">
        <ele>1064.0</ele>
        <time>2019-08-01T09:10:55.970Z</time>
      </trkpt>
      <trkpt lat="43.03240667" lon="-1.27246167">
        <ele>1065.0</ele>
        <time>2019-08-01T09:10:56.975Z</time>
      </trkpt>
      <trkpt lat="43.03240333" lon="-1.27246833">
        <ele>1066.0</ele>
        <time>2019-08-01T09:10:57.980Z</time>
      </trkpt>
      <trkpt lat="43.03239667" lon="-1.27247333">
        <ele>1066.0</ele>
        <time>2019-08-01T09:10:58.986Z</time>
      </trkpt>
      <trkpt lat="43.032395" lon="-1.27248333">
        <ele>1067.0</ele>
        <time>2019-08-01T09:10:59.992Z</time>
      </trkpt>
      <trkpt lat="43.032395" lon="-1.27250167">
        <ele>1067.0</ele>
        <time>2019-08-01T09:11:00.997Z</time>
      </trkpt>
      <trkpt lat="43.03239167" lon="-1.27252333">
        <ele>1067.0</ele>
        <time>2019-08-01T09:11:02.000Z</time>
      </trkpt>
      <trkpt lat="43.03238167" lon="-1.27254667">
        <ele>1068.0</ele>
        <time>2019-08-01T09:11:03.006Z</time>
      </trkpt>
      <trkpt lat="43.03237" lon="-1.272565">
        <ele>1069.0</ele>
        <time>2019-08-01T09:11:04.011Z</time>
      </trkpt>
      <trkpt lat="43.03236" lon="-1.27257333">
        <ele>1069.0</ele>
        <time>2019-08-01T09:11:05.015Z</time>
      </trkpt>
      <trkpt lat="43.03235" lon="-1.27258333">
        <ele>1070.0</ele>
        <time>2019-08-01T09:11:06.023Z</time>
      </trkpt>
      <trkpt lat="43.03234167" lon="-1.27258667">
        <ele>1070.0</ele>
        <time>2019-08-01T09:11:07.029Z</time>
      </trkpt>
      <trkpt lat="43.03232833" lon="-1.27259167">
        <ele>1071.0</ele>
        <time>2019-08-01T09:11:08.037Z</time>
      </trkpt>
      <trkpt lat="43.03231667" lon="-1.27259833">
        <ele>1071.0</ele>
        <time>2019-08-01T09:11:09.042Z</time>
      </trkpt>
      <trkpt lat="43.03230833" lon="-1.27259667">
        <ele>1072.0</ele>
        <time>2019-08-01T09:11:09.924Z</time>
      </trkpt>
      <trkpt lat="43.03229667" lon="-1.27260333">
        <ele>1073.0</ele>
        <time>2019-08-01T09:11:10.930Z</time>
      </trkpt>
      <trkpt lat="43.03228667" lon="-1.27260833">
        <ele>1074.0</ele>
        <time>2019-08-01T09:11:11.936Z</time>
      </trkpt>
      <trkpt lat="43.03228167" lon="-1.27261667">
        <ele>1075.0</ele>
        <time>2019-08-01T09:11:12.941Z</time>
      </trkpt>
      <trkpt lat="43.03228333" lon="-1.27262333">
        <ele>1075.0</ele>
        <time>2019-08-01T09:11:13.948Z</time>
      </trkpt>
      <trkpt lat="43.03228" lon="-1.27262833">
        <ele>1075.0</ele>
        <time>2019-08-01T09:11:14.953Z</time>
      </trkpt>
      <trkpt lat="43.032275" lon="-1.27262833">
        <ele>1075.0</ele>
        <time>2019-08-01T09:11:15.958Z</time>
      </trkpt>
      <trkpt lat="43.03226667" lon="-1.27263333">
        <ele>1076.0</ele>
        <time>2019-08-01T09:11:16.966Z</time>
      </trkpt>
      <trkpt lat="43.03225833" lon="-1.272645">
        <ele>1077.0</ele>
        <time>2019-08-01T09:11:17.970Z</time>
      </trkpt>
      <trkpt lat="43.03225333" lon="-1.272655">
        <ele>1077.0</ele>
        <time>2019-08-01T09:11:18.975Z</time>
      </trkpt>
      <trkpt lat="43.03224833" lon="-1.27266167">
        <ele>1078.0</ele>
        <time>2019-08-01T09:11:19.980Z</time>
      </trkpt>
      <trkpt lat="43.03224167" lon="-1.27267667">
        <ele>1080.0</ele>
        <time>2019-08-01T09:11:20.984Z</time>
      </trkpt>
      <trkpt lat="43.03223" lon="-1.27269667">
        <ele>1082.0</ele>
        <time>2019-08-01T09:11:21.985Z</time>
      </trkpt>
      <trkpt lat="43.03222167" lon="-1.27271667">
        <ele>1083.0</ele>
        <time>2019-08-01T09:11:22.990Z</time>
      </trkpt>
      <trkpt lat="43.03220833" lon="-1.27273667">
        <ele>1084.0</ele>
        <time>2019-08-01T09:11:23.997Z</time>
      </trkpt>
      <trkpt lat="43.03219833" lon="-1.272745">
        <ele>1085.0</ele>
        <time>2019-08-01T09:11:25.004Z</time>
      </trkpt>
      <trkpt lat="43.03219" lon="-1.27276167">
        <ele>1085.0</ele>
        <time>2019-08-01T09:11:26.009Z</time>
      </trkpt>
      <trkpt lat="43.032185" lon="-1.272775">
        <ele>1085.0</ele>
        <time>2019-08-01T09:11:27.015Z</time>
      </trkpt>
      <trkpt lat="43.03218333" lon="-1.27278167">
        <ele>1085.0</ele>
        <time>2019-08-01T09:11:28.023Z</time>
      </trkpt>
      <trkpt lat="43.03217833" lon="-1.27279333">
        <ele>1085.0</ele>
        <time>2019-08-01T09:11:29.029Z</time>
      </trkpt>
      <trkpt lat="43.03217667" lon="-1.27281">
        <ele>1084.0</ele>
        <time>2019-08-01T09:11:30.034Z</time>
      </trkpt>
      <trkpt lat="43.03216833" lon="-1.27283333">
        <ele>1083.0</ele>
        <time>2019-08-01T09:11:31.040Z</time>
      </trkpt>
      <trkpt lat="43.03216667" lon="-1.27285667">
        <ele>1083.0</ele>
        <time>2019-08-01T09:11:32.041Z</time>
      </trkpt>
      <trkpt lat="43.03215667" lon="-1.27289167">
        <ele>1082.0</ele>
        <time>2019-08-01T09:11:32.920Z</time>
      </trkpt>
      <trkpt lat="43.03215" lon="-1.27292167">
        <ele>1081.0</ele>
        <time>2019-08-01T09:11:33.927Z</time>
      </trkpt>
      <trkpt lat="43.03213833" lon="-1.27294167">
        <ele>1081.0</ele>
        <time>2019-08-01T09:11:34.932Z</time>
      </trkpt>
      <trkpt lat="43.03213167" lon="-1.27296167">
        <ele>1081.0</ele>
        <time>2019-08-01T09:11:35.937Z</time>
      </trkpt>
      <trkpt lat="43.032125" lon="-1.27298333">
        <ele>1081.0</ele>
        <time>2019-08-01T09:11:36.945Z</time>
      </trkpt>
      <trkpt lat="43.03211667" lon="-1.27301">
        <ele>1081.0</ele>
        <time>2019-08-01T09:11:37.952Z</time>
      </trkpt>
      <trkpt lat="43.03211167" lon="-1.273025">
        <ele>1081.0</ele>
        <time>2019-08-01T09:11:38.958Z</time>
      </trkpt>
      <trkpt lat="43.03212167" lon="-1.27304833">
        <ele>1082.0</ele>
        <time>2019-08-01T09:11:39.965Z</time>
      </trkpt>
      <trkpt lat="43.03213333" lon="-1.273075">
        <ele>1082.0</ele>
        <time>2019-08-01T09:11:40.972Z</time>
      </trkpt>
      <trkpt lat="43.03213167" lon="-1.2731">
        <ele>1083.0</ele>
        <time>2019-08-01T09:11:41.976Z</time>
      </trkpt>
      <trkpt lat="43.03212833" lon="-1.27312">
        <ele>1082.0</ele>
        <time>2019-08-01T09:11:42.980Z</time>
      </trkpt>
      <trkpt lat="43.03212" lon="-1.27314167">
        <ele>1082.0</ele>
        <time>2019-08-01T09:11:43.985Z</time>
      </trkpt>
      <trkpt lat="43.03210667" lon="-1.273155">
        <ele>1081.0</ele>
        <time>2019-08-01T09:11:44.990Z</time>
      </trkpt>
      <trkpt lat="43.03209333" lon="-1.27317">
        <ele>1081.0</ele>
        <time>2019-08-01T09:11:45.997Z</time>
      </trkpt>
      <trkpt lat="43.032085" lon="-1.27318833">
        <ele>1081.0</ele>
        <time>2019-08-01T09:11:47.004Z</time>
      </trkpt>
      <trkpt lat="43.03207167" lon="-1.27320667">
        <ele>1081.0</ele>
        <time>2019-08-01T09:11:48.011Z</time>
      </trkpt>
      <trkpt lat="43.03205833" lon="-1.27321833">
        <ele>1080.0</ele>
        <time>2019-08-01T09:11:49.016Z</time>
      </trkpt>
      <trkpt lat="43.03204833" lon="-1.273225">
        <ele>1080.0</ele>
        <time>2019-08-01T09:11:50.023Z</time>
      </trkpt>
      <trkpt lat="43.03203333" lon="-1.27322833">
        <ele>1079.0</ele>
        <time>2019-08-01T09:11:51.029Z</time>
      </trkpt>
      <trkpt lat="43.03202" lon="-1.273235">
        <ele>1079.0</ele>
        <time>2019-08-01T09:11:52.037Z</time>
      </trkpt>
      <trkpt lat="43.032015" lon="-1.273245">
        <ele>1079.0</ele>
        <time>2019-08-01T09:11:53.039Z</time>
      </trkpt>
      <trkpt lat="43.032005" lon="-1.27325833">
        <ele>1078.0</ele>
        <time>2019-08-01T09:11:53.919Z</time>
      </trkpt>
      <trkpt lat="43.03198667" lon="-1.27328167">
        <ele>1079.0</ele>
        <time>2019-08-01T09:11:54.926Z</time>
      </trkpt>
      <trkpt lat="43.031975" lon="-1.273305">
        <ele>1078.0</ele>
        <time>2019-08-01T09:11:55.931Z</time>
      </trkpt>
      <trkpt lat="43.03197" lon="-1.27332833">
        <ele>1078.0</ele>
        <time>2019-08-01T09:11:56.936Z</time>
      </trkpt>
      <trkpt lat="43.03197" lon="-1.27335167">
        <ele>1078.0</ele>
        <time>2019-08-01T09:11:57.944Z</time>
      </trkpt>
      <trkpt lat="43.03197" lon="-1.273375">
        <ele>1077.0</ele>
        <time>2019-08-01T09:11:58.947Z</time>
      </trkpt>
      <trkpt lat="43.031965" lon="-1.273395">
        <ele>1076.0</ele>
        <time>2019-08-01T09:11:59.953Z</time>
      </trkpt>
      <trkpt lat="43.031955" lon="-1.27340833">
        <ele>1076.0</ele>
        <time>2019-08-01T09:12:00.959Z</time>
      </trkpt>
      <trkpt lat="43.03194833" lon="-1.27342833">
        <ele>1076.0</ele>
        <time>2019-08-01T09:12:01.966Z</time>
      </trkpt>
      <trkpt lat="43.031945" lon="-1.27344833">
        <ele>1075.0</ele>
        <time>2019-08-01T09:12:02.972Z</time>
      </trkpt>
      <trkpt lat="43.031945" lon="-1.273465">
        <ele>1074.0</ele>
        <time>2019-08-01T09:12:03.976Z</time>
      </trkpt>
      <trkpt lat="43.03193833" lon="-1.27347833">
        <ele>1074.0</ele>
        <time>2019-08-01T09:12:04.983Z</time>
      </trkpt>
      <trkpt lat="43.03192833" lon="-1.273485">
        <ele>1073.0</ele>
        <time>2019-08-01T09:12:05.990Z</time>
      </trkpt>
      <trkpt lat="43.03192167" lon="-1.27349333">
        <ele>1073.0</ele>
        <time>2019-08-01T09:12:06.997Z</time>
      </trkpt>
      <trkpt lat="43.03191333" lon="-1.27350167">
        <ele>1072.0</ele>
        <time>2019-08-01T09:12:08.001Z</time>
      </trkpt>
      <trkpt lat="43.03190333" lon="-1.27352">
        <ele>1071.0</ele>
        <time>2019-08-01T09:12:09.007Z</time>
      </trkpt>
      <trkpt lat="43.03189833" lon="-1.27354">
        <ele>1070.0</ele>
        <time>2019-08-01T09:12:10.011Z</time>
      </trkpt>
      <trkpt lat="43.03191167" lon="-1.273555">
        <ele>1070.0</ele>
        <time>2019-08-01T09:12:11.018Z</time>
      </trkpt>
      <trkpt lat="43.03191667" lon="-1.273575">
        <ele>1070.0</ele>
        <time>2019-08-01T09:12:12.024Z</time>
      </trkpt>
      <trkpt lat="43.03192" lon="-1.27359333">
        <ele>1070.0</ele>
        <time>2019-08-01T09:12:13.032Z</time>
      </trkpt>
      <trkpt lat="43.03191167" lon="-1.273615">
        <ele>1070.0</ele>
        <time>2019-08-01T09:12:14.038Z</time>
      </trkpt>
      <trkpt lat="43.03190167" lon="-1.27362833">
        <ele>1070.0</ele>
        <time>2019-08-01T09:12:14.919Z</time>
      </trkpt>
      <trkpt lat="43.03189333" lon="-1.27364">
        <ele>1071.0</ele>
        <time>2019-08-01T09:12:15.926Z</time>
      </trkpt>
      <trkpt lat="43.03188667" lon="-1.27365">
        <ele>1071.0</ele>
        <time>2019-08-01T09:12:16.931Z</time>
      </trkpt>
      <trkpt lat="43.031875" lon="-1.27366667">
        <ele>1072.0</ele>
        <time>2019-08-01T09:12:17.936Z</time>
      </trkpt>
      <trkpt lat="43.03187167" lon="-1.27368167">
        <ele>1073.0</ele>
        <time>2019-08-01T09:12:18.943Z</time>
      </trkpt>
      <trkpt lat="43.031865" lon="-1.273695">
        <ele>1074.0</ele>
        <time>2019-08-01T09:12:19.950Z</time>
      </trkpt>
      <trkpt lat="43.03186833" lon="-1.27370667">
        <ele>1074.0</ele>
        <time>2019-08-01T09:12:20.957Z</time>
      </trkpt>
      <trkpt lat="43.03187167" lon="-1.27371833">
        <ele>1074.0</ele>
        <time>2019-08-01T09:12:21.964Z</time>
      </trkpt>
      <trkpt lat="43.03186333" lon="-1.27374">
        <ele>1075.0</ele>
        <time>2019-08-01T09:12:22.970Z</time>
      </trkpt>
      <trkpt lat="43.03185667" lon="-1.27374333">
        <ele>1075.0</ele>
        <time>2019-08-01T09:12:23.975Z</time>
      </trkpt>
      <trkpt lat="43.03185" lon="-1.27374667">
        <ele>1074.0</ele>
        <time>2019-08-01T09:12:24.981Z</time>
      </trkpt>
      <trkpt lat="43.03183667" lon="-1.27376167">
        <ele>1075.0</ele>
        <time>2019-08-01T09:12:25.987Z</time>
      </trkpt>
      <trkpt lat="43.03183167" lon="-1.273775">
        <ele>1075.0</ele>
        <time>2019-08-01T09:12:26.992Z</time>
      </trkpt>
      <trkpt lat="43.031825" lon="-1.273795">
        <ele>1076.0</ele>
        <time>2019-08-01T09:12:28.000Z</time>
      </trkpt>
      <trkpt lat="43.03182" lon="-1.27381667">
        <ele>1076.0</ele>
        <time>2019-08-01T09:12:29.008Z</time>
      </trkpt>
      <trkpt lat="43.03181833" lon="-1.27382667">
        <ele>1076.0</ele>
        <time>2019-08-01T09:12:30.013Z</time>
      </trkpt>
      <trkpt lat="43.03180667" lon="-1.27383167">
        <ele>1075.0</ele>
        <time>2019-08-01T09:12:31.021Z</time>
      </trkpt>
      <trkpt lat="43.03179" lon="-1.27384">
        <ele>1075.0</ele>
        <time>2019-08-01T09:12:32.027Z</time>
      </trkpt>
      <trkpt lat="43.03177167" lon="-1.27384833">
        <ele>1075.0</ele>
        <time>2019-08-01T09:12:33.033Z</time>
      </trkpt>
      <trkpt lat="43.03177167" lon="-1.27387333">
        <ele>1075.0</ele>
        <time>2019-08-01T09:12:34.039Z</time>
      </trkpt>
      <trkpt lat="43.03177667" lon="-1.27390833">
        <ele>1074.0</ele>
        <time>2019-08-01T09:12:34.919Z</time>
      </trkpt>
      <trkpt lat="43.03177167" lon="-1.27394167">
        <ele>1074.0</ele>
        <time>2019-08-01T09:12:35.925Z</time>
      </trkpt>
      <trkpt lat="43.03176833" lon="-1.27396">
        <ele>1074.0</ele>
        <time>2019-08-01T09:12:36.928Z</time>
      </trkpt>
      <trkpt lat="43.03175833" lon="-1.27397833">
        <ele>1075.0</ele>
        <time>2019-08-01T09:12:37.933Z</time>
      </trkpt>
      <trkpt lat="43.03175833" lon="-1.27399">
        <ele>1074.0</ele>
        <time>2019-08-01T09:12:38.940Z</time>
      </trkpt>
      <trkpt lat="43.03176333" lon="-1.27400333">
        <ele>1073.0</ele>
        <time>2019-08-01T09:12:39.947Z</time>
      </trkpt>
      <trkpt lat="43.03177" lon="-1.27402833">
        <ele>1072.0</ele>
        <time>2019-08-01T09:12:40.952Z</time>
      </trkpt>
      <trkpt lat="43.03177667" lon="-1.27405667">
        <ele>1072.0</ele>
        <time>2019-08-01T09:12:41.960Z</time>
      </trkpt>
      <trkpt lat="43.03177833" lon="-1.27408833">
        <ele>1070.0</ele>
        <time>2019-08-01T09:12:42.963Z</time>
      </trkpt>
      <trkpt lat="43.03179167" lon="-1.274115">
        <ele>1069.0</ele>
        <time>2019-08-01T09:12:43.965Z</time>
      </trkpt>
      <trkpt lat="43.03180333" lon="-1.27413167">
        <ele>1069.0</ele>
        <time>2019-08-01T09:12:44.968Z</time>
      </trkpt>
      <trkpt lat="43.03181" lon="-1.27414">
        <ele>1068.0</ele>
        <time>2019-08-01T09:12:45.971Z</time>
      </trkpt>
      <trkpt lat="43.03181" lon="-1.27414667">
        <ele>1067.0</ele>
        <time>2019-08-01T09:12:46.972Z</time>
      </trkpt>
      <trkpt lat="43.03180833" lon="-1.27415">
        <ele>1066.0</ele>
        <time>2019-08-01T09:12:47.979Z</time>
      </trkpt>
      <trkpt lat="43.03181333" lon="-1.27415833">
        <ele>1065.0</ele>
        <time>2019-08-01T09:12:48.986Z</time>
      </trkpt>
      <trkpt lat="43.03182333" lon="-1.27417333">
        <ele>1065.0</ele>
        <time>2019-08-01T09:12:49.993Z</time>
      </trkpt>
      <trkpt lat="43.03181167" lon="-1.27419167">
        <ele>1065.0</ele>
        <time>2019-08-01T09:12:51.000Z</time>
      </trkpt>
      <trkpt lat="43.03180167" lon="-1.27420667">
        <ele>1066.0</ele>
        <time>2019-08-01T09:12:52.008Z</time>
      </trkpt>
      <trkpt lat="43.03178833" lon="-1.274215">
        <ele>1067.0</ele>
        <time>2019-08-01T09:12:53.015Z</time>
      </trkpt>
      <trkpt lat="43.03178333" lon="-1.274225">
        <ele>1066.0</ele>
        <time>2019-08-01T09:12:54.023Z</time>
      </trkpt>
      <trkpt lat="43.03178167" lon="-1.27424667">
        <ele>1065.0</ele>
        <time>2019-08-01T09:12:55.029Z</time>
      </trkpt>
      <trkpt lat="43.03177667" lon="-1.27427833">
        <ele>1064.0</ele>
        <time>2019-08-01T09:12:56.033Z</time>
      </trkpt>
      <trkpt lat="43.03177667" lon="-1.27429833">
        <ele>1064.0</ele>
        <time>2019-08-01T09:12:57.037Z</time>
      </trkpt>
      <trkpt lat="43.03177833" lon="-1.27431833">
        <ele>1064.0</ele>
        <time>2019-08-01T09:12:58.043Z</time>
      </trkpt>
      <trkpt lat="43.03177667" lon="-1.27433167">
        <ele>1062.0</ele>
        <time>2019-08-01T09:12:58.923Z</time>
      </trkpt>
      <trkpt lat="43.03177167" lon="-1.27434333">
        <ele>1062.0</ele>
        <time>2019-08-01T09:12:59.928Z</time>
      </trkpt>
      <trkpt lat="43.03177167" lon="-1.27435333">
        <ele>1062.0</ele>
        <time>2019-08-01T09:13:00.935Z</time>
      </trkpt>
      <trkpt lat="43.03177" lon="-1.27436">
        <ele>1063.0</ele>
        <time>2019-08-01T09:13:01.939Z</time>
      </trkpt>
      <trkpt lat="43.03176833" lon="-1.27436833">
        <ele>1064.0</ele>
        <time>2019-08-01T09:13:02.945Z</time>
      </trkpt>
      <trkpt lat="43.031775" lon="-1.27437333">
        <ele>1065.0</ele>
        <time>2019-08-01T09:13:03.951Z</time>
      </trkpt>
      <trkpt lat="43.03178167" lon="-1.27439167">
        <ele>1065.0</ele>
        <time>2019-08-01T09:13:04.956Z</time>
      </trkpt>
      <trkpt lat="43.03178" lon="-1.27441333">
        <ele>1067.0</ele>
        <time>2019-08-01T09:13:05.962Z</time>
      </trkpt>
      <trkpt lat="43.03177667" lon="-1.27443333">
        <ele>1068.0</ele>
        <time>2019-08-01T09:13:06.967Z</time>
      </trkpt>
      <trkpt lat="43.03176833" lon="-1.27445167">
        <ele>1068.0</ele>
        <time>2019-08-01T09:13:07.972Z</time>
      </trkpt>
      <trkpt lat="43.031765" lon="-1.274465">
        <ele>1068.0</ele>
        <time>2019-08-01T09:13:08.978Z</time>
      </trkpt>
      <trkpt lat="43.03176667" lon="-1.27447667">
        <ele>1067.0</ele>
        <time>2019-08-01T09:13:09.984Z</time>
      </trkpt>
      <trkpt lat="43.03176833" lon="-1.27449333">
        <ele>1067.0</ele>
        <time>2019-08-01T09:13:10.987Z</time>
      </trkpt>
      <trkpt lat="43.03176667" lon="-1.27451167">
        <ele>1067.0</ele>
        <time>2019-08-01T09:13:11.993Z</time>
      </trkpt>
      <trkpt lat="43.03175833" lon="-1.27452167">
        <ele>1067.0</ele>
        <time>2019-08-01T09:13:12.997Z</time>
      </trkpt>
      <trkpt lat="43.03174667" lon="-1.274535">
        <ele>1067.0</ele>
        <time>2019-08-01T09:13:14.004Z</time>
      </trkpt>
      <trkpt lat="43.03173667" lon="-1.27455167">
        <ele>1066.0</ele>
        <time>2019-08-01T09:13:15.011Z</time>
      </trkpt>
      <trkpt lat="43.03173" lon="-1.27457333">
        <ele>1065.0</ele>
        <time>2019-08-01T09:13:16.015Z</time>
      </trkpt>
      <trkpt lat="43.03172333" lon="-1.2746">
        <ele>1065.0</ele>
        <time>2019-08-01T09:13:17.022Z</time>
      </trkpt>
      <trkpt lat="43.031725" lon="-1.27462167">
        <ele>1065.0</ele>
        <time>2019-08-01T09:13:18.028Z</time>
      </trkpt>
      <trkpt lat="43.03172833" lon="-1.27465167">
        <ele>1064.0</ele>
        <time>2019-08-01T09:13:19.035Z</time>
      </trkpt>
      <trkpt lat="43.03172333" lon="-1.27468167">
        <ele>1064.0</ele>
        <time>2019-08-01T09:13:20.042Z</time>
      </trkpt>
      <trkpt lat="43.03172167" lon="-1.27471">
        <ele>1064.0</ele>
        <time>2019-08-01T09:13:20.923Z</time>
      </trkpt>
      <trkpt lat="43.03171333" lon="-1.27473667">
        <ele>1066.0</ele>
        <time>2019-08-01T09:13:21.928Z</time>
      </trkpt>
      <trkpt lat="43.031705" lon="-1.27475833">
        <ele>1066.0</ele>
        <time>2019-08-01T09:13:22.933Z</time>
      </trkpt>
      <trkpt lat="43.03169833" lon="-1.27478333">
        <ele>1066.0</ele>
        <time>2019-08-01T09:13:23.940Z</time>
      </trkpt>
      <trkpt lat="43.03169333" lon="-1.27479">
        <ele>1064.0</ele>
        <time>2019-08-01T09:13:24.947Z</time>
      </trkpt>
      <trkpt lat="43.031695" lon="-1.27478833">
        <ele>1063.0</ele>
        <time>2019-08-01T09:13:25.953Z</time>
      </trkpt>
      <trkpt lat="43.03169333" lon="-1.27479">
        <ele>1063.0</ele>
        <time>2019-08-01T09:13:26.959Z</time>
      </trkpt>
      <trkpt lat="43.03168833" lon="-1.27478667">
        <ele>1063.0</ele>
        <time>2019-08-01T09:13:27.964Z</time>
      </trkpt>
      <trkpt lat="43.03167833" lon="-1.27479">
        <ele>1063.0</ele>
        <time>2019-08-01T09:13:28.969Z</time>
      </trkpt>
      <trkpt lat="43.031675" lon="-1.27479833">
        <ele>1063.0</ele>
        <time>2019-08-01T09:13:29.974Z</time>
      </trkpt>
      <trkpt lat="43.03167333" lon="-1.27480667">
        <ele>1064.0</ele>
        <time>2019-08-01T09:13:30.980Z</time>
      </trkpt>
      <trkpt lat="43.031675" lon="-1.274815">
        <ele>1064.0</ele>
        <time>2019-08-01T09:13:31.986Z</time>
      </trkpt>
      <trkpt lat="43.031675" lon="-1.274825">
        <ele>1064.0</ele>
        <time>2019-08-01T09:13:32.991Z</time>
      </trkpt>
      <trkpt lat="43.03167667" lon="-1.274835">
        <ele>1065.0</ele>
        <time>2019-08-01T09:13:33.996Z</time>
      </trkpt>
      <trkpt lat="43.03167667" lon="-1.27484667">
        <ele>1065.0</ele>
        <time>2019-08-01T09:13:35.003Z</time>
      </trkpt>
      <trkpt lat="43.03167833" lon="-1.27485667">
        <ele>1066.0</ele>
        <time>2019-08-01T09:13:36.010Z</time>
      </trkpt>
      <trkpt lat="43.03168167" lon="-1.27487">
        <ele>1066.0</ele>
        <time>2019-08-01T09:13:37.016Z</time>
      </trkpt>
      <trkpt lat="43.03168833" lon="-1.27488">
        <ele>1066.0</ele>
        <time>2019-08-01T09:13:38.022Z</time>
      </trkpt>
      <trkpt lat="43.03169333" lon="-1.27489167">
        <ele>1066.0</ele>
        <time>2019-08-01T09:13:39.029Z</time>
      </trkpt>
      <trkpt lat="43.03169667" lon="-1.274905">
        <ele>1067.0</ele>
        <time>2019-08-01T09:13:40.036Z</time>
      </trkpt>
      <trkpt lat="43.031695" lon="-1.27491833">
        <ele>1067.0</ele>
        <time>2019-08-01T09:13:41.042Z</time>
      </trkpt>
      <trkpt lat="43.03169667" lon="-1.27493">
        <ele>1068.0</ele>
        <time>2019-08-01T09:13:41.921Z</time>
      </trkpt>
      <trkpt lat="43.03170333" lon="-1.27494">
        <ele>1068.0</ele>
        <time>2019-08-01T09:13:42.923Z</time>
      </trkpt>
      <trkpt lat="43.03170667" lon="-1.27494833">
        <ele>1068.0</ele>
        <time>2019-08-01T09:13:43.928Z</time>
      </trkpt>
      <trkpt lat="43.03170833" lon="-1.27496167">
        <ele>1069.0</ele>
        <time>2019-08-01T09:13:44.935Z</time>
      </trkpt>
      <trkpt lat="43.03171167" lon="-1.27498167">
        <ele>1069.0</ele>
        <time>2019-08-01T09:13:45.942Z</time>
      </trkpt>
      <trkpt lat="43.03172" lon="-1.27499833">
        <ele>1068.0</ele>
        <time>2019-08-01T09:13:46.948Z</time>
      </trkpt>
      <trkpt lat="43.031725" lon="-1.27502">
        <ele>1068.0</ele>
        <time>2019-08-01T09:13:47.956Z</time>
      </trkpt>
      <trkpt lat="43.03173167" lon="-1.27504">
        <ele>1069.0</ele>
        <time>2019-08-01T09:13:48.961Z</time>
      </trkpt>
      <trkpt lat="43.031735" lon="-1.27505833">
        <ele>1070.0</ele>
        <time>2019-08-01T09:13:49.967Z</time>
      </trkpt>
      <trkpt lat="43.031735" lon="-1.27507667">
        <ele>1070.0</ele>
        <time>2019-08-01T09:13:50.971Z</time>
      </trkpt>
      <trkpt lat="43.03173667" lon="-1.2751">
        <ele>1071.0</ele>
        <time>2019-08-01T09:13:51.976Z</time>
      </trkpt>
      <trkpt lat="43.03174" lon="-1.27512333">
        <ele>1071.0</ele>
        <time>2019-08-01T09:13:52.981Z</time>
      </trkpt>
      <trkpt lat="43.03173833" lon="-1.27514">
        <ele>1072.0</ele>
        <time>2019-08-01T09:13:53.988Z</time>
      </trkpt>
      <trkpt lat="43.03174167" lon="-1.27515667">
        <ele>1071.0</ele>
        <time>2019-08-01T09:13:54.994Z</time>
      </trkpt>
      <trkpt lat="43.03174667" lon="-1.27517167">
        <ele>1072.0</ele>
        <time>2019-08-01T09:13:55.999Z</time>
      </trkpt>
      <trkpt lat="43.031755" lon="-1.275195">
        <ele>1073.0</ele>
        <time>2019-08-01T09:13:57.004Z</time>
      </trkpt>
      <trkpt lat="43.03177" lon="-1.27522">
        <ele>1073.0</ele>
        <time>2019-08-01T09:13:58.010Z</time>
      </trkpt>
      <trkpt lat="43.03178167" lon="-1.27524833">
        <ele>1074.0</ele>
        <time>2019-08-01T09:13:59.015Z</time>
      </trkpt>
      <trkpt lat="43.0318" lon="-1.27527">
        <ele>1074.0</ele>
        <time>2019-08-01T09:14:00.021Z</time>
      </trkpt>
      <trkpt lat="43.031805" lon="-1.275285">
        <ele>1075.0</ele>
        <time>2019-08-01T09:14:01.027Z</time>
      </trkpt>
      <trkpt lat="43.031805" lon="-1.275305">
        <ele>1075.0</ele>
        <time>2019-08-01T09:14:02.033Z</time>
      </trkpt>
      <trkpt lat="43.03181667" lon="-1.27533">
        <ele>1075.0</ele>
        <time>2019-08-01T09:14:03.037Z</time>
      </trkpt>
      <trkpt lat="43.03182667" lon="-1.27535333">
        <ele>1076.0</ele>
        <time>2019-08-01T09:14:04.042Z</time>
      </trkpt>
      <trkpt lat="43.03183167" lon="-1.275385">
        <ele>1077.0</ele>
        <time>2019-08-01T09:14:04.923Z</time>
      </trkpt>
      <trkpt lat="43.03184333" lon="-1.27540667">
        <ele>1078.0</ele>
        <time>2019-08-01T09:14:05.927Z</time>
      </trkpt>
      <trkpt lat="43.03185833" lon="-1.27542667">
        <ele>1079.0</ele>
        <time>2019-08-01T09:14:06.934Z</time>
      </trkpt>
      <trkpt lat="43.03186333" lon="-1.275445">
        <ele>1079.0</ele>
        <time>2019-08-01T09:14:07.941Z</time>
      </trkpt>
      <trkpt lat="43.031875" lon="-1.275445">
        <ele>1079.0</ele>
        <time>2019-08-01T09:14:08.948Z</time>
      </trkpt>
      <trkpt lat="43.03190333" lon="-1.275425">
        <ele>1079.0</ele>
        <time>2019-08-01T09:14:09.953Z</time>
      </trkpt>
      <trkpt lat="43.03192833" lon="-1.27542667">
        <ele>1079.0</ele>
        <time>2019-08-01T09:14:10.957Z</time>
      </trkpt>
      <trkpt lat="43.03194333" lon="-1.27544">
        <ele>1080.0</ele>
        <time>2019-08-01T09:14:11.964Z</time>
      </trkpt>
      <trkpt lat="43.03195833" lon="-1.27545833">
        <ele>1080.0</ele>
        <time>2019-08-01T09:14:12.969Z</time>
      </trkpt>
      <trkpt lat="43.03196333" lon="-1.27547">
        <ele>1081.0</ele>
        <time>2019-08-01T09:14:13.975Z</time>
      </trkpt>
      <trkpt lat="43.03196167" lon="-1.27548167">
        <ele>1082.0</ele>
        <time>2019-08-01T09:14:14.980Z</time>
      </trkpt>
      <trkpt lat="43.03196167" lon="-1.27548333">
        <ele>1081.0</ele>
        <time>2019-08-01T09:14:15.986Z</time>
      </trkpt>
      <trkpt lat="43.03197667" lon="-1.27548">
        <ele>1080.0</ele>
        <time>2019-08-01T09:14:16.994Z</time>
      </trkpt>
      <trkpt lat="43.03199167" lon="-1.27548167">
        <ele>1080.0</ele>
        <time>2019-08-01T09:14:18.000Z</time>
      </trkpt>
      <trkpt lat="43.03200333" lon="-1.27548833">
        <ele>1080.0</ele>
        <time>2019-08-01T09:14:19.005Z</time>
      </trkpt>
      <trkpt lat="43.03201333" lon="-1.27549">
        <ele>1080.0</ele>
        <time>2019-08-01T09:14:20.011Z</time>
      </trkpt>
      <trkpt lat="43.03201833" lon="-1.27548667">
        <ele>1080.0</ele>
        <time>2019-08-01T09:14:21.017Z</time>
      </trkpt>
      <trkpt lat="43.03202" lon="-1.27548833">
        <ele>1079.0</ele>
        <time>2019-08-01T09:14:22.021Z</time>
      </trkpt>
      <trkpt lat="43.03202" lon="-1.27549">
        <ele>1079.0</ele>
        <time>2019-08-01T09:14:23.027Z</time>
      </trkpt>
      <trkpt lat="43.03202167" lon="-1.2755">
        <ele>1080.0</ele>
        <time>2019-08-01T09:14:24.034Z</time>
      </trkpt>
      <trkpt lat="43.03203167" lon="-1.275515">
        <ele>1082.0</ele>
        <time>2019-08-01T09:14:25.038Z</time>
      </trkpt>
      <trkpt lat="43.032035" lon="-1.27552333">
        <ele>1083.0</ele>
        <time>2019-08-01T09:14:25.921Z</time>
      </trkpt>
      <trkpt lat="43.03203833" lon="-1.27553167">
        <ele>1083.0</ele>
        <time>2019-08-01T09:14:26.925Z</time>
      </trkpt>
      <trkpt lat="43.03204167" lon="-1.27554">
        <ele>1084.0</ele>
        <time>2019-08-01T09:14:27.931Z</time>
      </trkpt>
      <trkpt lat="43.03204833" lon="-1.27554333">
        <ele>1084.0</ele>
        <time>2019-08-01T09:14:28.938Z</time>
      </trkpt>
      <trkpt lat="43.03206333" lon="-1.275545">
        <ele>1084.0</ele>
        <time>2019-08-01T09:14:29.945Z</time>
      </trkpt>
      <trkpt lat="43.03208" lon="-1.27554333">
        <ele>1084.0</ele>
        <time>2019-08-01T09:14:30.950Z</time>
      </trkpt>
      <trkpt lat="43.03209167" lon="-1.275545">
        <ele>1084.0</ele>
        <time>2019-08-01T09:14:31.955Z</time>
      </trkpt>
      <trkpt lat="43.03210833" lon="-1.27554667">
        <ele>1084.0</ele>
        <time>2019-08-01T09:14:32.961Z</time>
      </trkpt>
      <trkpt lat="43.03212833" lon="-1.27555">
        <ele>1084.0</ele>
        <time>2019-08-01T09:14:33.969Z</time>
      </trkpt>
      <trkpt lat="43.03214167" lon="-1.275555">
        <ele>1084.0</ele>
        <time>2019-08-01T09:14:34.974Z</time>
      </trkpt>
      <trkpt lat="43.03215" lon="-1.275565">
        <ele>1084.0</ele>
        <time>2019-08-01T09:14:35.981Z</time>
      </trkpt>
      <trkpt lat="43.03215833" lon="-1.27557">
        <ele>1085.0</ele>
        <time>2019-08-01T09:14:36.986Z</time>
      </trkpt>
      <trkpt lat="43.03216833" lon="-1.27557333">
        <ele>1085.0</ele>
        <time>2019-08-01T09:14:37.992Z</time>
      </trkpt>
      <trkpt lat="43.03218333" lon="-1.275575">
        <ele>1086.0</ele>
        <time>2019-08-01T09:14:38.999Z</time>
      </trkpt>
      <trkpt lat="43.03219333" lon="-1.27557667">
        <ele>1086.0</ele>
        <time>2019-08-01T09:14:40.006Z</time>
      </trkpt>
      <trkpt lat="43.032205" lon="-1.27557667">
        <ele>1087.0</ele>
        <time>2019-08-01T09:14:41.012Z</time>
      </trkpt>
      <trkpt lat="43.03221333" lon="-1.27557833">
        <ele>1087.0</ele>
        <time>2019-08-01T09:14:42.018Z</time>
      </trkpt>
      <trkpt lat="43.03221833" lon="-1.27558">
        <ele>1087.0</ele>
        <time>2019-08-01T09:14:43.025Z</time>
      </trkpt>
      <trkpt lat="43.03222333" lon="-1.27558667">
        <ele>1087.0</ele>
        <time>2019-08-01T09:14:44.032Z</time>
      </trkpt>
      <trkpt lat="43.03223667" lon="-1.27559333">
        <ele>1086.0</ele>
        <time>2019-08-01T09:14:45.037Z</time>
      </trkpt>
      <trkpt lat="43.03224667" lon="-1.275605">
        <ele>1086.0</ele>
        <time>2019-08-01T09:14:45.919Z</time>
      </trkpt>
      <trkpt lat="43.032255" lon="-1.27562167">
        <ele>1087.0</ele>
        <time>2019-08-01T09:14:46.925Z</time>
      </trkpt>
      <trkpt lat="43.03226" lon="-1.27564167">
        <ele>1088.0</ele>
        <time>2019-08-01T09:14:47.929Z</time>
      </trkpt>
      <trkpt lat="43.03225833" lon="-1.27565333">
        <ele>1088.0</ele>
        <time>2019-08-01T09:14:48.937Z</time>
      </trkpt>
      <trkpt lat="43.03225833" lon="-1.27565667">
        <ele>1088.0</ele>
        <time>2019-08-01T09:14:49.945Z</time>
      </trkpt>
      <trkpt lat="43.03226333" lon="-1.27566167">
        <ele>1088.0</ele>
        <time>2019-08-01T09:14:50.951Z</time>
      </trkpt>
      <trkpt lat="43.032275" lon="-1.27567">
        <ele>1089.0</ele>
        <time>2019-08-01T09:14:51.957Z</time>
      </trkpt>
      <trkpt lat="43.03229167" lon="-1.27568167">
        <ele>1088.0</ele>
        <time>2019-08-01T09:14:52.964Z</time>
      </trkpt>
      <trkpt lat="43.0323" lon="-1.2757">
        <ele>1089.0</ele>
        <time>2019-08-01T09:14:53.969Z</time>
      </trkpt>
      <trkpt lat="43.032305" lon="-1.275725">
        <ele>1089.0</ele>
        <time>2019-08-01T09:14:54.974Z</time>
      </trkpt>
      <trkpt lat="43.032305" lon="-1.27574833">
        <ele>1090.0</ele>
        <time>2019-08-01T09:14:55.980Z</time>
      </trkpt>
      <trkpt lat="43.032315" lon="-1.27577">
        <ele>1090.0</ele>
        <time>2019-08-01T09:14:56.985Z</time>
      </trkpt>
      <trkpt lat="43.032325" lon="-1.27578333">
        <ele>1090.0</ele>
        <time>2019-08-01T09:14:57.987Z</time>
      </trkpt>
      <trkpt lat="43.03234" lon="-1.27579333">
        <ele>1091.0</ele>
        <time>2019-08-01T09:14:58.993Z</time>
      </trkpt>
      <trkpt lat="43.03235167" lon="-1.27581">
        <ele>1092.0</ele>
        <time>2019-08-01T09:14:59.997Z</time>
      </trkpt>
      <trkpt lat="43.03235667" lon="-1.27582667">
        <ele>1094.0</ele>
        <time>2019-08-01T09:15:01.002Z</time>
      </trkpt>
      <trkpt lat="43.03235667" lon="-1.275845">
        <ele>1096.0</ele>
        <time>2019-08-01T09:15:02.007Z</time>
      </trkpt>
      <trkpt lat="43.03235667" lon="-1.27586667">
        <ele>1097.0</ele>
        <time>2019-08-01T09:15:03.013Z</time>
      </trkpt>
      <trkpt lat="43.03236167" lon="-1.27588833">
        <ele>1098.0</ele>
        <time>2019-08-01T09:15:04.017Z</time>
      </trkpt>
      <trkpt lat="43.03237" lon="-1.27590833">
        <ele>1098.0</ele>
        <time>2019-08-01T09:15:05.022Z</time>
      </trkpt>
      <trkpt lat="43.03238333" lon="-1.27592667">
        <ele>1098.0</ele>
        <time>2019-08-01T09:15:06.028Z</time>
      </trkpt>
      <trkpt lat="43.03238833" lon="-1.27594333">
        <ele>1099.0</ele>
        <time>2019-08-01T09:15:07.034Z</time>
      </trkpt>
      <trkpt lat="43.03238333" lon="-1.27595667">
        <ele>1100.0</ele>
        <time>2019-08-01T09:15:08.040Z</time>
      </trkpt>
      <trkpt lat="43.03237833" lon="-1.27596833">
        <ele>1101.0</ele>
        <time>2019-08-01T09:15:08.922Z</time>
      </trkpt>
      <trkpt lat="43.03238167" lon="-1.27598667">
        <ele>1102.0</ele>
        <time>2019-08-01T09:15:09.928Z</time>
      </trkpt>
      <trkpt lat="43.032395" lon="-1.276">
        <ele>1103.0</ele>
        <time>2019-08-01T09:15:10.934Z</time>
      </trkpt>
      <trkpt lat="43.032405" lon="-1.27600667">
        <ele>1103.0</ele>
        <time>2019-08-01T09:15:11.941Z</time>
      </trkpt>
      <trkpt lat="43.03241167" lon="-1.27601">
        <ele>1103.0</ele>
        <time>2019-08-01T09:15:12.946Z</time>
      </trkpt>
      <trkpt lat="43.03241" lon="-1.27601167">
        <ele>1104.0</ele>
        <time>2019-08-01T09:15:13.953Z</time>
      </trkpt>
      <trkpt lat="43.03240667" lon="-1.27601667">
        <ele>1104.0</ele>
        <time>2019-08-01T09:15:14.959Z</time>
      </trkpt>
      <trkpt lat="43.03241" lon="-1.27603">
        <ele>1105.0</ele>
        <time>2019-08-01T09:15:15.964Z</time>
      </trkpt>
      <trkpt lat="43.03242667" lon="-1.27604333">
        <ele>1105.0</ele>
        <time>2019-08-01T09:15:16.970Z</time>
      </trkpt>
      <trkpt lat="43.03243333" lon="-1.27606167">
        <ele>1105.0</ele>
        <time>2019-08-01T09:15:17.976Z</time>
      </trkpt>
      <trkpt lat="43.032435" lon="-1.27608">
        <ele>1104.0</ele>
        <time>2019-08-01T09:15:18.983Z</time>
      </trkpt>
      <trkpt lat="43.03244167" lon="-1.27609833">
        <ele>1104.0</ele>
        <time>2019-08-01T09:15:19.990Z</time>
      </trkpt>
      <trkpt lat="43.03245333" lon="-1.27611">
        <ele>1104.0</ele>
        <time>2019-08-01T09:15:20.997Z</time>
      </trkpt>
      <trkpt lat="43.03246833" lon="-1.276115">
        <ele>1104.0</ele>
        <time>2019-08-01T09:15:22.003Z</time>
      </trkpt>
      <trkpt lat="43.03247833" lon="-1.27612667">
        <ele>1104.0</ele>
        <time>2019-08-01T09:15:23.008Z</time>
      </trkpt>
      <trkpt lat="43.03248167" lon="-1.27613833">
        <ele>1103.0</ele>
        <time>2019-08-01T09:15:24.013Z</time>
      </trkpt>
      <trkpt lat="43.03248833" lon="-1.27615">
        <ele>1103.0</ele>
        <time>2019-08-01T09:15:25.018Z</time>
      </trkpt>
      <trkpt lat="43.03249" lon="-1.27616167">
        <ele>1103.0</ele>
        <time>2019-08-01T09:15:26.025Z</time>
      </trkpt>
      <trkpt lat="43.03249167" lon="-1.27617667">
        <ele>1102.0</ele>
        <time>2019-08-01T09:15:27.028Z</time>
      </trkpt>
      <trkpt lat="43.03249167" lon="-1.27619">
        <ele>1102.0</ele>
        <time>2019-08-01T09:15:28.033Z</time>
      </trkpt>
      <trkpt lat="43.03249333" lon="-1.27620333">
        <ele>1102.0</ele>
        <time>2019-08-01T09:15:29.039Z</time>
      </trkpt>
      <trkpt lat="43.0325" lon="-1.27621167">
        <ele>1100.0</ele>
        <time>2019-08-01T09:15:29.920Z</time>
      </trkpt>
      <trkpt lat="43.03250333" lon="-1.27622">
        <ele>1100.0</ele>
        <time>2019-08-01T09:15:30.927Z</time>
      </trkpt>
      <trkpt lat="43.03250833" lon="-1.27623333">
        <ele>1099.0</ele>
        <time>2019-08-01T09:15:31.933Z</time>
      </trkpt>
      <trkpt lat="43.032515" lon="-1.27624667">
        <ele>1099.0</ele>
        <time>2019-08-01T09:15:32.939Z</time>
      </trkpt>
      <trkpt lat="43.03251333" lon="-1.276265">
        <ele>1099.0</ele>
        <time>2019-08-01T09:15:33.943Z</time>
      </trkpt>
      <trkpt lat="43.03250667" lon="-1.27628167">
        <ele>1099.0</ele>
        <time>2019-08-01T09:15:34.948Z</time>
      </trkpt>
      <trkpt lat="43.03250833" lon="-1.27629833">
        <ele>1099.0</ele>
        <time>2019-08-01T09:15:35.954Z</time>
      </trkpt>
      <trkpt lat="43.03251833" lon="-1.27631667">
        <ele>1099.0</ele>
        <time>2019-08-01T09:15:36.958Z</time>
      </trkpt>
      <trkpt lat="43.03253167" lon="-1.27632833">
        <ele>1099.0</ele>
        <time>2019-08-01T09:15:37.965Z</time>
      </trkpt>
      <trkpt lat="43.032535" lon="-1.27634">
        <ele>1099.0</ele>
        <time>2019-08-01T09:15:38.971Z</time>
      </trkpt>
      <trkpt lat="43.03253" lon="-1.276355">
        <ele>1099.0</ele>
        <time>2019-08-01T09:15:39.977Z</time>
      </trkpt>
      <trkpt lat="43.03253333" lon="-1.27637167">
        <ele>1100.0</ele>
        <time>2019-08-01T09:15:40.981Z</time>
      </trkpt>
      <trkpt lat="43.03253833" lon="-1.27639">
        <ele>1099.0</ele>
        <time>2019-08-01T09:15:41.987Z</time>
      </trkpt>
      <trkpt lat="43.03254167" lon="-1.27640333">
        <ele>1099.0</ele>
        <time>2019-08-01T09:15:42.993Z</time>
      </trkpt>
      <trkpt lat="43.03254833" lon="-1.27641333">
        <ele>1098.0</ele>
        <time>2019-08-01T09:15:43.999Z</time>
      </trkpt>
      <trkpt lat="43.03255833" lon="-1.276425">
        <ele>1099.0</ele>
        <time>2019-08-01T09:15:45.006Z</time>
      </trkpt>
      <trkpt lat="43.03256833" lon="-1.27644333">
        <ele>1099.0</ele>
        <time>2019-08-01T09:15:46.011Z</time>
      </trkpt>
      <trkpt lat="43.03257" lon="-1.276465">
        <ele>1098.0</ele>
        <time>2019-08-01T09:15:47.016Z</time>
      </trkpt>
      <trkpt lat="43.03256167" lon="-1.27649">
        <ele>1098.0</ele>
        <time>2019-08-01T09:15:48.022Z</time>
      </trkpt>
      <trkpt lat="43.03254833" lon="-1.27651">
        <ele>1098.0</ele>
        <time>2019-08-01T09:15:49.029Z</time>
      </trkpt>
      <trkpt lat="43.03253833" lon="-1.27652">
        <ele>1099.0</ele>
        <time>2019-08-01T09:15:50.035Z</time>
      </trkpt>
      <trkpt lat="43.03254" lon="-1.27652833">
        <ele>1099.0</ele>
        <time>2019-08-01T09:15:51.041Z</time>
      </trkpt>
      <trkpt lat="43.03253833" lon="-1.27653167">
        <ele>1099.0</ele>
        <time>2019-08-01T09:15:51.921Z</time>
      </trkpt>
      <trkpt lat="43.03254167" lon="-1.276535">
        <ele>1099.0</ele>
        <time>2019-08-01T09:15:52.926Z</time>
      </trkpt>
      <trkpt lat="43.03254167" lon="-1.276535">
        <ele>1100.0</ele>
        <time>2019-08-01T09:15:53.930Z</time>
      </trkpt>
      <trkpt lat="43.03255" lon="-1.27653667">
        <ele>1100.0</ele>
        <time>2019-08-01T09:15:54.936Z</time>
      </trkpt>
      <trkpt lat="43.03255333" lon="-1.27654833">
        <ele>1101.0</ele>
        <time>2019-08-01T09:15:55.942Z</time>
      </trkpt>
      <trkpt lat="43.03255333" lon="-1.27656">
        <ele>1102.0</ele>
        <time>2019-08-01T09:15:56.947Z</time>
      </trkpt>
      <trkpt lat="43.03255333" lon="-1.27657167">
        <ele>1103.0</ele>
        <time>2019-08-01T09:15:57.950Z</time>
      </trkpt>
      <trkpt lat="43.032555" lon="-1.27657833">
        <ele>1104.0</ele>
        <time>2019-08-01T09:15:58.956Z</time>
      </trkpt>
      <trkpt lat="43.03254833" lon="-1.27658667">
        <ele>1105.0</ele>
        <time>2019-08-01T09:15:59.961Z</time>
      </trkpt>
      <trkpt lat="43.03253833" lon="-1.27659833">
        <ele>1105.0</ele>
        <time>2019-08-01T09:16:00.967Z</time>
      </trkpt>
      <trkpt lat="43.032535" lon="-1.2766">
        <ele>1105.0</ele>
        <time>2019-08-01T09:16:01.973Z</time>
      </trkpt>
      <trkpt lat="43.03253" lon="-1.276605">
        <ele>1105.0</ele>
        <time>2019-08-01T09:16:02.978Z</time>
      </trkpt>
      <trkpt lat="43.03252667" lon="-1.27660667">
        <ele>1105.0</ele>
        <time>2019-08-01T09:16:03.984Z</time>
      </trkpt>
      <trkpt lat="43.03252333" lon="-1.27660833">
        <ele>1106.0</ele>
        <time>2019-08-01T09:16:04.989Z</time>
      </trkpt>
      <trkpt lat="43.03252167" lon="-1.27661833">
        <ele>1107.0</ele>
        <time>2019-08-01T09:16:05.993Z</time>
      </trkpt>
      <trkpt lat="43.03252" lon="-1.27663">
        <ele>1107.0</ele>
        <time>2019-08-01T09:16:07.000Z</time>
      </trkpt>
      <trkpt lat="43.03252" lon="-1.276645">
        <ele>1107.0</ele>
        <time>2019-08-01T09:16:08.006Z</time>
      </trkpt>
      <trkpt lat="43.03252167" lon="-1.27666333">
        <ele>1108.0</ele>
        <time>2019-08-01T09:16:09.011Z</time>
      </trkpt>
      <trkpt lat="43.032525" lon="-1.27667833">
        <ele>1108.0</ele>
        <time>2019-08-01T09:16:10.015Z</time>
      </trkpt>
      <trkpt lat="43.03253" lon="-1.27669333">
        <ele>1108.0</ele>
        <time>2019-08-01T09:16:11.020Z</time>
      </trkpt>
      <trkpt lat="43.03253667" lon="-1.27671">
        <ele>1109.0</ele>
        <time>2019-08-01T09:16:12.024Z</time>
      </trkpt>
      <trkpt lat="43.03254" lon="-1.276725">
        <ele>1110.0</ele>
        <time>2019-08-01T09:16:13.031Z</time>
      </trkpt>
      <trkpt lat="43.03254" lon="-1.27673667">
        <ele>1110.0</ele>
        <time>2019-08-01T09:16:14.037Z</time>
      </trkpt>
      <trkpt lat="43.03253833" lon="-1.276745">
        <ele>1111.0</ele>
        <time>2019-08-01T09:16:15.042Z</time>
      </trkpt>
      <trkpt lat="43.03253667" lon="-1.27675333">
        <ele>1111.0</ele>
        <time>2019-08-01T09:16:15.922Z</time>
      </trkpt>
      <trkpt lat="43.03252667" lon="-1.27676833">
        <ele>1112.0</ele>
        <time>2019-08-01T09:16:16.929Z</time>
      </trkpt>
      <trkpt lat="43.03252" lon="-1.27678">
        <ele>1112.0</ele>
        <time>2019-08-01T09:16:17.934Z</time>
      </trkpt>
      <trkpt lat="43.03251667" lon="-1.276785">
        <ele>1112.0</ele>
        <time>2019-08-01T09:16:18.940Z</time>
      </trkpt>
      <trkpt lat="43.03251" lon="-1.27678667">
        <ele>1112.0</ele>
        <time>2019-08-01T09:16:19.946Z</time>
      </trkpt>
      <trkpt lat="43.03250667" lon="-1.27679833">
        <ele>1112.0</ele>
        <time>2019-08-01T09:16:20.951Z</time>
      </trkpt>
      <trkpt lat="43.03250167" lon="-1.27681167">
        <ele>1112.0</ele>
        <time>2019-08-01T09:16:21.957Z</time>
      </trkpt>
      <trkpt lat="43.03249667" lon="-1.27682333">
        <ele>1112.0</ele>
        <time>2019-08-01T09:16:22.963Z</time>
      </trkpt>
      <trkpt lat="43.032495" lon="-1.276835">
        <ele>1112.0</ele>
        <time>2019-08-01T09:16:23.968Z</time>
      </trkpt>
      <trkpt lat="43.03249333" lon="-1.27684167">
        <ele>1112.0</ele>
        <time>2019-08-01T09:16:24.972Z</time>
      </trkpt>
      <trkpt lat="43.03249" lon="-1.27685333">
        <ele>1111.0</ele>
        <time>2019-08-01T09:16:25.979Z</time>
      </trkpt>
      <trkpt lat="43.03249" lon="-1.27686167">
        <ele>1111.0</ele>
        <time>2019-08-01T09:16:26.986Z</time>
      </trkpt>
      <trkpt lat="43.03249" lon="-1.27686333">
        <ele>1112.0</ele>
        <time>2019-08-01T09:16:27.993Z</time>
      </trkpt>
      <trkpt lat="43.03248833" lon="-1.27687167">
        <ele>1112.0</ele>
        <time>2019-08-01T09:16:29.000Z</time>
      </trkpt>
      <trkpt lat="43.03248167" lon="-1.27688">
        <ele>1113.0</ele>
        <time>2019-08-01T09:16:30.006Z</time>
      </trkpt>
      <trkpt lat="43.032475" lon="-1.276885">
        <ele>1114.0</ele>
        <time>2019-08-01T09:16:31.011Z</time>
      </trkpt>
      <trkpt lat="43.03247167" lon="-1.27689667">
        <ele>1114.0</ele>
        <time>2019-08-01T09:16:32.017Z</time>
      </trkpt>
      <trkpt lat="43.03246667" lon="-1.27691667">
        <ele>1114.0</ele>
        <time>2019-08-01T09:16:33.024Z</time>
      </trkpt>
      <trkpt lat="43.03247" lon="-1.27693333">
        <ele>1114.0</ele>
        <time>2019-08-01T09:16:34.030Z</time>
      </trkpt>
      <trkpt lat="43.03247333" lon="-1.276955">
        <ele>1114.0</ele>
        <time>2019-08-01T09:16:35.035Z</time>
      </trkpt>
      <trkpt lat="43.03247667" lon="-1.27697333">
        <ele>1113.0</ele>
        <time>2019-08-01T09:16:36.041Z</time>
      </trkpt>
      <trkpt lat="43.03247333" lon="-1.27699167">
        <ele>1113.0</ele>
        <time>2019-08-01T09:16:36.920Z</time>
      </trkpt>
      <trkpt lat="43.032465" lon="-1.277005">
        <ele>1113.0</ele>
        <time>2019-08-01T09:16:37.926Z</time>
      </trkpt>
      <trkpt lat="43.032455" lon="-1.27702">
        <ele>1114.0</ele>
        <time>2019-08-01T09:16:38.932Z</time>
      </trkpt>
      <trkpt lat="43.03244833" lon="-1.27702833">
        <ele>1114.0</ele>
        <time>2019-08-01T09:16:39.939Z</time>
      </trkpt>
      <trkpt lat="43.03244167" lon="-1.27703833">
        <ele>1114.0</ele>
        <time>2019-08-01T09:16:40.945Z</time>
      </trkpt>
      <trkpt lat="43.03243333" lon="-1.27705">
        <ele>1114.0</ele>
        <time>2019-08-01T09:16:41.950Z</time>
      </trkpt>
      <trkpt lat="43.03242833" lon="-1.27706">
        <ele>1114.0</ele>
        <time>2019-08-01T09:16:42.957Z</time>
      </trkpt>
      <trkpt lat="43.03242333" lon="-1.27706667">
        <ele>1114.0</ele>
        <time>2019-08-01T09:16:43.964Z</time>
      </trkpt>
      <trkpt lat="43.03241667" lon="-1.27707833">
        <ele>1114.0</ele>
        <time>2019-08-01T09:16:44.969Z</time>
      </trkpt>
      <trkpt lat="43.03241333" lon="-1.27707833">
        <ele>1114.0</ele>
        <time>2019-08-01T09:16:45.972Z</time>
      </trkpt>
      <trkpt lat="43.03241333" lon="-1.277075">
        <ele>1113.0</ele>
        <time>2019-08-01T09:16:46.978Z</time>
      </trkpt>
      <trkpt lat="43.03241" lon="-1.27707667">
        <ele>1112.0</ele>
        <time>2019-08-01T09:16:47.983Z</time>
      </trkpt>
      <trkpt lat="43.03240333" lon="-1.27708167">
        <ele>1112.0</ele>
        <time>2019-08-01T09:16:48.989Z</time>
      </trkpt>
      <trkpt lat="43.03239667" lon="-1.27708833">
        <ele>1112.0</ele>
        <time>2019-08-01T09:16:49.993Z</time>
      </trkpt>
      <trkpt lat="43.03239167" lon="-1.27709333">
        <ele>1112.0</ele>
        <time>2019-08-01T09:16:51.000Z</time>
      </trkpt>
      <trkpt lat="43.032385" lon="-1.27710167">
        <ele>1113.0</ele>
        <time>2019-08-01T09:16:52.006Z</time>
      </trkpt>
      <trkpt lat="43.03237833" lon="-1.27710833">
        <ele>1113.0</ele>
        <time>2019-08-01T09:16:53.013Z</time>
      </trkpt>
      <trkpt lat="43.03237" lon="-1.277115">
        <ele>1112.0</ele>
        <time>2019-08-01T09:16:54.020Z</time>
      </trkpt>
      <trkpt lat="43.03236" lon="-1.277125">
        <ele>1112.0</ele>
        <time>2019-08-01T09:16:55.026Z</time>
      </trkpt>
      <trkpt lat="43.03235" lon="-1.27713667">
        <ele>1112.0</ele>
        <time>2019-08-01T09:16:56.031Z</time>
      </trkpt>
      <trkpt lat="43.03234167" lon="-1.27715">
        <ele>1112.0</ele>
        <time>2019-08-01T09:16:57.036Z</time>
      </trkpt>
      <trkpt lat="43.032335" lon="-1.27716667">
        <ele>1112.0</ele>
        <time>2019-08-01T09:16:58.040Z</time>
      </trkpt>
      <trkpt lat="43.032325" lon="-1.27718">
        <ele>1112.0</ele>
        <time>2019-08-01T09:16:58.921Z</time>
      </trkpt>
      <trkpt lat="43.032315" lon="-1.27719">
        <ele>1112.0</ele>
        <time>2019-08-01T09:16:59.927Z</time>
      </trkpt>
      <trkpt lat="43.032305" lon="-1.277195">
        <ele>1113.0</ele>
        <time>2019-08-01T09:17:00.934Z</time>
      </trkpt>
      <trkpt lat="43.03229167" lon="-1.27720333">
        <ele>1113.0</ele>
        <time>2019-08-01T09:17:01.940Z</time>
      </trkpt>
      <trkpt lat="43.03228167" lon="-1.277215">
        <ele>1112.0</ele>
        <time>2019-08-01T09:17:02.946Z</time>
      </trkpt>
      <trkpt lat="43.03227333" lon="-1.27722667">
        <ele>1112.0</ele>
        <time>2019-08-01T09:17:03.952Z</time>
      </trkpt>
      <trkpt lat="43.032265" lon="-1.27723667">
        <ele>1112.0</ele>
        <time>2019-08-01T09:17:04.958Z</time>
      </trkpt>
      <trkpt lat="43.03225333" lon="-1.27724833">
        <ele>1113.0</ele>
        <time>2019-08-01T09:17:05.966Z</time>
      </trkpt>
      <trkpt lat="43.03224" lon="-1.277255">
        <ele>1114.0</ele>
        <time>2019-08-01T09:17:06.970Z</time>
      </trkpt>
      <trkpt lat="43.03223167" lon="-1.27726">
        <ele>1114.0</ele>
        <time>2019-08-01T09:17:07.977Z</time>
      </trkpt>
      <trkpt lat="43.03222333" lon="-1.277265">
        <ele>1115.0</ele>
        <time>2019-08-01T09:17:08.984Z</time>
      </trkpt>
      <trkpt lat="43.03222167" lon="-1.27727333">
        <ele>1115.0</ele>
        <time>2019-08-01T09:17:09.990Z</time>
      </trkpt>
      <trkpt lat="43.03221333" lon="-1.27728833">
        <ele>1114.0</ele>
        <time>2019-08-01T09:17:10.996Z</time>
      </trkpt>
      <trkpt lat="43.03220333" lon="-1.27731333">
        <ele>1113.0</ele>
        <time>2019-08-01T09:17:12.003Z</time>
      </trkpt>
      <trkpt lat="43.03219667" lon="-1.27734">
        <ele>1112.0</ele>
        <time>2019-08-01T09:17:13.009Z</time>
      </trkpt>
      <trkpt lat="43.03219333" lon="-1.27736">
        <ele>1111.0</ele>
        <time>2019-08-01T09:17:14.011Z</time>
      </trkpt>
      <trkpt lat="43.03219" lon="-1.27738">
        <ele>1111.0</ele>
        <time>2019-08-01T09:17:15.018Z</time>
      </trkpt>
      <trkpt lat="43.03219" lon="-1.27740167">
        <ele>1110.0</ele>
        <time>2019-08-01T09:17:16.023Z</time>
      </trkpt>
      <trkpt lat="43.03219" lon="-1.27741833">
        <ele>1109.0</ele>
        <time>2019-08-01T09:17:17.030Z</time>
      </trkpt>
      <trkpt lat="43.03219333" lon="-1.27744167">
        <ele>1109.0</ele>
        <time>2019-08-01T09:17:18.037Z</time>
      </trkpt>
      <trkpt lat="43.03219167" lon="-1.27746833">
        <ele>1109.0</ele>
        <time>2019-08-01T09:17:18.918Z</time>
      </trkpt>
      <trkpt lat="43.03218833" lon="-1.27748667">
        <ele>1108.0</ele>
        <time>2019-08-01T09:17:19.925Z</time>
      </trkpt>
      <trkpt lat="43.03219333" lon="-1.27751">
        <ele>1107.0</ele>
        <time>2019-08-01T09:17:20.930Z</time>
      </trkpt>
      <trkpt lat="43.03221167" lon="-1.27753167">
        <ele>1106.0</ele>
        <time>2019-08-01T09:17:21.933Z</time>
      </trkpt>
      <trkpt lat="43.03222" lon="-1.27755667">
        <ele>1106.0</ele>
        <time>2019-08-01T09:17:22.940Z</time>
      </trkpt>
      <trkpt lat="43.032225" lon="-1.277585">
        <ele>1106.0</ele>
        <time>2019-08-01T09:17:23.946Z</time>
      </trkpt>
      <trkpt lat="43.032235" lon="-1.27761167">
        <ele>1107.0</ele>
        <time>2019-08-01T09:17:24.952Z</time>
      </trkpt>
      <trkpt lat="43.03224667" lon="-1.277635">
        <ele>1107.0</ele>
        <time>2019-08-01T09:17:25.954Z</time>
      </trkpt>
      <trkpt lat="43.03224667" lon="-1.27765667">
        <ele>1107.0</ele>
        <time>2019-08-01T09:17:26.960Z</time>
      </trkpt>
      <trkpt lat="43.03224333" lon="-1.277675">
        <ele>1107.0</ele>
        <time>2019-08-01T09:17:27.967Z</time>
      </trkpt>
      <trkpt lat="43.03223333" lon="-1.27768833">
        <ele>1106.0</ele>
        <time>2019-08-01T09:17:28.973Z</time>
      </trkpt>
      <trkpt lat="43.03222167" lon="-1.27770333">
        <ele>1106.0</ele>
        <time>2019-08-01T09:17:29.979Z</time>
      </trkpt>
      <trkpt lat="43.03222" lon="-1.27771167">
        <ele>1106.0</ele>
        <time>2019-08-01T09:17:30.985Z</time>
      </trkpt>
      <trkpt lat="43.03222" lon="-1.27772167">
        <ele>1106.0</ele>
        <time>2019-08-01T09:17:31.990Z</time>
      </trkpt>
      <trkpt lat="43.03221667" lon="-1.277735">
        <ele>1107.0</ele>
        <time>2019-08-01T09:17:32.996Z</time>
      </trkpt>
      <trkpt lat="43.03221167" lon="-1.277745">
        <ele>1109.0</ele>
        <time>2019-08-01T09:17:34.003Z</time>
      </trkpt>
      <trkpt lat="43.032205" lon="-1.27775833">
        <ele>1111.0</ele>
        <time>2019-08-01T09:17:35.010Z</time>
      </trkpt>
      <trkpt lat="43.03220333" lon="-1.27778167">
        <ele>1112.0</ele>
        <time>2019-08-01T09:17:36.018Z</time>
      </trkpt>
      <trkpt lat="43.03220333" lon="-1.277805">
        <ele>1112.0</ele>
        <time>2019-08-01T09:17:37.022Z</time>
      </trkpt>
      <trkpt lat="43.0322" lon="-1.277825">
        <ele>1112.0</ele>
        <time>2019-08-01T09:17:38.029Z</time>
      </trkpt>
      <trkpt lat="43.032195" lon="-1.27783667">
        <ele>1113.0</ele>
        <time>2019-08-01T09:17:39.035Z</time>
      </trkpt>
      <trkpt lat="43.03218833" lon="-1.27785167">
        <ele>1114.0</ele>
        <time>2019-08-01T09:17:40.041Z</time>
      </trkpt>
      <trkpt lat="43.03218833" lon="-1.27787">
        <ele>1115.0</ele>
        <time>2019-08-01T09:17:40.921Z</time>
      </trkpt>
      <trkpt lat="43.03219167" lon="-1.27788167">
        <ele>1116.0</ele>
        <time>2019-08-01T09:17:41.928Z</time>
      </trkpt>
      <trkpt lat="43.0322" lon="-1.27788833">
        <ele>1117.0</ele>
        <time>2019-08-01T09:17:42.934Z</time>
      </trkpt>
      <trkpt lat="43.03221" lon="-1.27789">
        <ele>1117.0</ele>
        <time>2019-08-01T09:17:43.941Z</time>
      </trkpt>
      <trkpt lat="43.03221167" lon="-1.27790667">
        <ele>1117.0</ele>
        <time>2019-08-01T09:17:44.945Z</time>
      </trkpt>
      <trkpt lat="43.03221333" lon="-1.27792">
        <ele>1117.0</ele>
        <time>2019-08-01T09:17:45.952Z</time>
      </trkpt>
      <trkpt lat="43.03221333" lon="-1.277935">
        <ele>1117.0</ele>
        <time>2019-08-01T09:17:46.959Z</time>
      </trkpt>
      <trkpt lat="43.032215" lon="-1.27795">
        <ele>1117.0</ele>
        <time>2019-08-01T09:17:47.965Z</time>
      </trkpt>
      <trkpt lat="43.03221333" lon="-1.27796833">
        <ele>1117.0</ele>
        <time>2019-08-01T09:17:48.970Z</time>
      </trkpt>
      <trkpt lat="43.03221" lon="-1.27798167">
        <ele>1118.0</ele>
        <time>2019-08-01T09:17:49.977Z</time>
      </trkpt>
      <trkpt lat="43.03220833" lon="-1.27799333">
        <ele>1118.0</ele>
        <time>2019-08-01T09:17:50.982Z</time>
      </trkpt>
      <trkpt lat="43.03220667" lon="-1.27799833">
        <ele>1119.0</ele>
        <time>2019-08-01T09:17:51.984Z</time>
      </trkpt>
      <trkpt lat="43.03220833" lon="-1.27800667">
        <ele>1119.0</ele>
        <time>2019-08-01T09:17:52.991Z</time>
      </trkpt>
      <trkpt lat="43.03221" lon="-1.278015">
        <ele>1120.0</ele>
        <time>2019-08-01T09:17:53.998Z</time>
      </trkpt>
      <trkpt lat="43.03221333" lon="-1.278025">
        <ele>1120.0</ele>
        <time>2019-08-01T09:17:55.003Z</time>
      </trkpt>
      <trkpt lat="43.03221667" lon="-1.27803">
        <ele>1120.0</ele>
        <time>2019-08-01T09:17:56.009Z</time>
      </trkpt>
      <trkpt lat="43.032215" lon="-1.27803833">
        <ele>1120.0</ele>
        <time>2019-08-01T09:17:57.012Z</time>
      </trkpt>
      <trkpt lat="43.03221" lon="-1.27804333">
        <ele>1120.0</ele>
        <time>2019-08-01T09:17:58.018Z</time>
      </trkpt>
      <trkpt lat="43.03220167" lon="-1.27805333">
        <ele>1120.0</ele>
        <time>2019-08-01T09:17:59.025Z</time>
      </trkpt>
      <trkpt lat="43.032195" lon="-1.27806667">
        <ele>1121.0</ele>
        <time>2019-08-01T09:18:00.032Z</time>
      </trkpt>
      <trkpt lat="43.03218833" lon="-1.27808">
        <ele>1122.0</ele>
        <time>2019-08-01T09:18:01.036Z</time>
      </trkpt>
      <trkpt lat="43.03218167" lon="-1.278095">
        <ele>1122.0</ele>
        <time>2019-08-01T09:18:02.043Z</time>
      </trkpt>
      <trkpt lat="43.032175" lon="-1.278105">
        <ele>1122.0</ele>
        <time>2019-08-01T09:18:02.924Z</time>
      </trkpt>
      <trkpt lat="43.03217167" lon="-1.27812">
        <ele>1123.0</ele>
        <time>2019-08-01T09:18:03.930Z</time>
      </trkpt>
      <trkpt lat="43.032165" lon="-1.27813667">
        <ele>1122.0</ele>
        <time>2019-08-01T09:18:04.936Z</time>
      </trkpt>
      <trkpt lat="43.03216167" lon="-1.27816167">
        <ele>1121.0</ele>
        <time>2019-08-01T09:18:05.943Z</time>
      </trkpt>
      <trkpt lat="43.03216333" lon="-1.27818667">
        <ele>1120.0</ele>
        <time>2019-08-01T09:18:06.950Z</time>
      </trkpt>
      <trkpt lat="43.03216833" lon="-1.27820833">
        <ele>1119.0</ele>
        <time>2019-08-01T09:18:07.956Z</time>
      </trkpt>
      <trkpt lat="43.032175" lon="-1.27823167">
        <ele>1118.0</ele>
        <time>2019-08-01T09:18:08.961Z</time>
      </trkpt>
      <trkpt lat="43.03218" lon="-1.27825333">
        <ele>1117.0</ele>
        <time>2019-08-01T09:18:09.967Z</time>
      </trkpt>
      <trkpt lat="43.03218167" lon="-1.27827833">
        <ele>1117.0</ele>
        <time>2019-08-01T09:18:10.972Z</time>
      </trkpt>
      <trkpt lat="43.03217667" lon="-1.27830667">
        <ele>1118.0</ele>
        <time>2019-08-01T09:18:11.977Z</time>
      </trkpt>
      <trkpt lat="43.032175" lon="-1.27833">
        <ele>1118.0</ele>
        <time>2019-08-01T09:18:12.982Z</time>
      </trkpt>
      <trkpt lat="43.03217667" lon="-1.278355">
        <ele>1118.0</ele>
        <time>2019-08-01T09:18:13.989Z</time>
      </trkpt>
      <trkpt lat="43.03217667" lon="-1.27837833">
        <ele>1119.0</ele>
        <time>2019-08-01T09:18:14.994Z</time>
      </trkpt>
      <trkpt lat="43.032175" lon="-1.27840833">
        <ele>1120.0</ele>
        <time>2019-08-01T09:18:16.000Z</time>
      </trkpt>
      <trkpt lat="43.03217833" lon="-1.27844">
        <ele>1121.0</ele>
        <time>2019-08-01T09:18:17.006Z</time>
      </trkpt>
      <trkpt lat="43.03218167" lon="-1.27846333">
        <ele>1120.0</ele>
        <time>2019-08-01T09:18:18.009Z</time>
      </trkpt>
      <trkpt lat="43.032185" lon="-1.27849">
        <ele>1120.0</ele>
        <time>2019-08-01T09:18:19.014Z</time>
      </trkpt>
      <trkpt lat="43.032195" lon="-1.278495">
        <ele>1119.0</ele>
        <time>2019-08-01T09:18:20.019Z</time>
      </trkpt>
      <trkpt lat="43.03221167" lon="-1.27848833">
        <ele>1118.0</ele>
        <time>2019-08-01T09:18:21.026Z</time>
      </trkpt>
      <trkpt lat="43.03222333" lon="-1.27848333">
        <ele>1117.0</ele>
        <time>2019-08-01T09:18:22.030Z</time>
      </trkpt>
      <trkpt lat="43.03222833" lon="-1.27848667">
        <ele>1117.0</ele>
        <time>2019-08-01T09:18:23.038Z</time>
      </trkpt>
      <trkpt lat="43.03223333" lon="-1.2785">
        <ele>1118.0</ele>
        <time>2019-08-01T09:18:23.919Z</time>
      </trkpt>
      <trkpt lat="43.03223" lon="-1.27852">
        <ele>1118.0</ele>
        <time>2019-08-01T09:18:24.925Z</time>
      </trkpt>
      <trkpt lat="43.03223833" lon="-1.27853167">
        <ele>1118.0</ele>
        <time>2019-08-01T09:18:25.931Z</time>
      </trkpt>
      <trkpt lat="43.03223333" lon="-1.27855">
        <ele>1118.0</ele>
        <time>2019-08-01T09:18:26.937Z</time>
      </trkpt>
      <trkpt lat="43.03223167" lon="-1.27857">
        <ele>1119.0</ele>
        <time>2019-08-01T09:18:27.945Z</time>
      </trkpt>
      <trkpt lat="43.032235" lon="-1.27859">
        <ele>1119.0</ele>
        <time>2019-08-01T09:18:28.951Z</time>
      </trkpt>
      <trkpt lat="43.032235" lon="-1.278605">
        <ele>1119.0</ele>
        <time>2019-08-01T09:18:29.958Z</time>
      </trkpt>
      <trkpt lat="43.03223833" lon="-1.27861833">
        <ele>1119.0</ele>
        <time>2019-08-01T09:18:30.964Z</time>
      </trkpt>
      <trkpt lat="43.03224" lon="-1.27863167">
        <ele>1120.0</ele>
        <time>2019-08-01T09:18:31.969Z</time>
      </trkpt>
      <trkpt lat="43.03224333" lon="-1.27864">
        <ele>1119.0</ele>
        <time>2019-08-01T09:18:32.975Z</time>
      </trkpt>
      <trkpt lat="43.032245" lon="-1.27865">
        <ele>1120.0</ele>
        <time>2019-08-01T09:18:33.981Z</time>
      </trkpt>
      <trkpt lat="43.03224667" lon="-1.278655">
        <ele>1120.0</ele>
        <time>2019-08-01T09:18:34.987Z</time>
      </trkpt>
      <trkpt lat="43.03224667" lon="-1.27865667">
        <ele>1120.0</ele>
        <time>2019-08-01T09:18:35.993Z</time>
      </trkpt>
      <trkpt lat="43.032245" lon="-1.27865667">
        <ele>1120.0</ele>
        <time>2019-08-01T09:18:36.999Z</time>
      </trkpt>
      <trkpt lat="43.03223833" lon="-1.27866167">
        <ele>1120.0</ele>
        <time>2019-08-01T09:18:38.005Z</time>
      </trkpt>
      <trkpt lat="43.032235" lon="-1.27866167">
        <ele>1121.0</ele>
        <time>2019-08-01T09:18:39.011Z</time>
      </trkpt>
      <trkpt lat="43.032235" lon="-1.27866333">
        <ele>1122.0</ele>
        <time>2019-08-01T09:18:40.019Z</time>
      </trkpt>
      <trkpt lat="43.03224167" lon="-1.278665">
        <ele>1122.0</ele>
        <time>2019-08-01T09:18:41.025Z</time>
      </trkpt>
      <trkpt lat="43.03224833" lon="-1.27867333">
        <ele>1121.0</ele>
        <time>2019-08-01T09:18:42.031Z</time>
      </trkpt>
      <trkpt lat="43.03225" lon="-1.27868167">
        <ele>1121.0</ele>
        <time>2019-08-01T09:18:43.038Z</time>
      </trkpt>
      <trkpt lat="43.03225167" lon="-1.27869667">
        <ele>1121.0</ele>
        <time>2019-08-01T09:18:43.919Z</time>
      </trkpt>
      <trkpt lat="43.03224833" lon="-1.27871">
        <ele>1121.0</ele>
        <time>2019-08-01T09:18:44.926Z</time>
      </trkpt>
      <trkpt lat="43.03225" lon="-1.278725">
        <ele>1121.0</ele>
        <time>2019-08-01T09:18:45.931Z</time>
      </trkpt>
      <trkpt lat="43.032255" lon="-1.278735">
        <ele>1121.0</ele>
        <time>2019-08-01T09:18:46.936Z</time>
      </trkpt>
      <trkpt lat="43.03225833" lon="-1.278745">
        <ele>1122.0</ele>
        <time>2019-08-01T09:18:47.943Z</time>
      </trkpt>
      <trkpt lat="43.03226333" lon="-1.27875333">
        <ele>1122.0</ele>
        <time>2019-08-01T09:18:48.950Z</time>
      </trkpt>
      <trkpt lat="43.03226667" lon="-1.278765">
        <ele>1122.0</ele>
        <time>2019-08-01T09:18:49.956Z</time>
      </trkpt>
      <trkpt lat="43.03226833" lon="-1.27878">
        <ele>1122.0</ele>
        <time>2019-08-01T09:18:50.962Z</time>
      </trkpt>
      <trkpt lat="43.03226833" lon="-1.27879333">
        <ele>1121.0</ele>
        <time>2019-08-01T09:18:51.968Z</time>
      </trkpt>
      <trkpt lat="43.03227" lon="-1.27880333">
        <ele>1122.0</ele>
        <time>2019-08-01T09:18:52.974Z</time>
      </trkpt>
      <trkpt lat="43.03226833" lon="-1.27881167">
        <ele>1122.0</ele>
        <time>2019-08-01T09:18:53.979Z</time>
      </trkpt>
      <trkpt lat="43.03227" lon="-1.27881833">
        <ele>1122.0</ele>
        <time>2019-08-01T09:18:54.986Z</time>
      </trkpt>
      <trkpt lat="43.03227" lon="-1.27882">
        <ele>1122.0</ele>
        <time>2019-08-01T09:18:55.992Z</time>
      </trkpt>
      <trkpt lat="43.03227333" lon="-1.27883">
        <ele>1122.0</ele>
        <time>2019-08-01T09:18:56.998Z</time>
      </trkpt>
      <trkpt lat="43.03227333" lon="-1.27885">
        <ele>1122.0</ele>
        <time>2019-08-01T09:18:58.002Z</time>
      </trkpt>
      <trkpt lat="43.03227333" lon="-1.27886833">
        <ele>1122.0</ele>
        <time>2019-08-01T09:18:59.008Z</time>
      </trkpt>
      <trkpt lat="43.03227167" lon="-1.27888667">
        <ele>1121.0</ele>
        <time>2019-08-01T09:19:00.013Z</time>
      </trkpt>
      <trkpt lat="43.03227" lon="-1.2789">
        <ele>1122.0</ele>
        <time>2019-08-01T09:19:01.020Z</time>
      </trkpt>
      <trkpt lat="43.032265" lon="-1.27890833">
        <ele>1123.0</ele>
        <time>2019-08-01T09:19:02.028Z</time>
      </trkpt>
      <trkpt lat="43.032265" lon="-1.278915">
        <ele>1124.0</ele>
        <time>2019-08-01T09:19:03.034Z</time>
      </trkpt>
      <trkpt lat="43.03226333" lon="-1.27892667">
        <ele>1124.0</ele>
        <time>2019-08-01T09:19:04.037Z</time>
      </trkpt>
      <trkpt lat="43.03225667" lon="-1.27894167">
        <ele>1124.0</ele>
        <time>2019-08-01T09:19:05.043Z</time>
      </trkpt>
      <trkpt lat="43.03225" lon="-1.27895667">
        <ele>1125.0</ele>
        <time>2019-08-01T09:19:05.924Z</time>
      </trkpt>
      <trkpt lat="43.03224833" lon="-1.27896833">
        <ele>1125.0</ele>
        <time>2019-08-01T09:19:06.930Z</time>
      </trkpt>
      <trkpt lat="43.03224833" lon="-1.27898333">
        <ele>1126.0</ele>
        <time>2019-08-01T09:19:07.937Z</time>
      </trkpt>
      <trkpt lat="43.03224833" lon="-1.27899667">
        <ele>1125.0</ele>
        <time>2019-08-01T09:19:08.945Z</time>
      </trkpt>
      <trkpt lat="43.03224833" lon="-1.27900833">
        <ele>1125.0</ele>
        <time>2019-08-01T09:19:09.950Z</time>
      </trkpt>
      <trkpt lat="43.03224667" lon="-1.27901833">
        <ele>1125.0</ele>
        <time>2019-08-01T09:19:10.953Z</time>
      </trkpt>
      <trkpt lat="43.032245" lon="-1.27902333">
        <ele>1126.0</ele>
        <time>2019-08-01T09:19:11.959Z</time>
      </trkpt>
      <trkpt lat="43.032245" lon="-1.27903167">
        <ele>1126.0</ele>
        <time>2019-08-01T09:19:12.965Z</time>
      </trkpt>
      <trkpt lat="43.03224667" lon="-1.27904333">
        <ele>1127.0</ele>
        <time>2019-08-01T09:19:13.970Z</time>
      </trkpt>
      <trkpt lat="43.03225" lon="-1.27905">
        <ele>1128.0</ele>
        <time>2019-08-01T09:19:14.975Z</time>
      </trkpt>
      <trkpt lat="43.03224833" lon="-1.27906167">
        <ele>1129.0</ele>
        <time>2019-08-01T09:19:15.979Z</time>
      </trkpt>
      <trkpt lat="43.032245" lon="-1.27907333">
        <ele>1129.0</ele>
        <time>2019-08-01T09:19:16.983Z</time>
      </trkpt>
      <trkpt lat="43.03224167" lon="-1.27908167">
        <ele>1128.0</ele>
        <time>2019-08-01T09:19:17.988Z</time>
      </trkpt>
      <trkpt lat="43.03223667" lon="-1.27909167">
        <ele>1128.0</ele>
        <time>2019-08-01T09:19:18.993Z</time>
      </trkpt>
      <trkpt lat="43.03223167" lon="-1.27910167">
        <ele>1129.0</ele>
        <time>2019-08-01T09:19:19.999Z</time>
      </trkpt>
      <trkpt lat="43.032225" lon="-1.27910833">
        <ele>1129.0</ele>
        <time>2019-08-01T09:19:21.007Z</time>
      </trkpt>
      <trkpt lat="43.03221667" lon="-1.27912">
        <ele>1130.0</ele>
        <time>2019-08-01T09:19:22.011Z</time>
      </trkpt>
      <trkpt lat="43.03221167" lon="-1.27913">
        <ele>1130.0</ele>
        <time>2019-08-01T09:19:23.017Z</time>
      </trkpt>
      <trkpt lat="43.03220667" lon="-1.279145">
        <ele>1130.0</ele>
        <time>2019-08-01T09:19:24.024Z</time>
      </trkpt>
      <trkpt lat="43.03220333" lon="-1.27915667">
        <ele>1130.0</ele>
        <time>2019-08-01T09:19:25.030Z</time>
      </trkpt>
      <trkpt lat="43.03219833" lon="-1.27917167">
        <ele>1130.0</ele>
        <time>2019-08-01T09:19:26.036Z</time>
      </trkpt>
      <trkpt lat="43.03219667" lon="-1.27918167">
        <ele>1130.0</ele>
        <time>2019-08-01T09:19:26.918Z</time>
      </trkpt>
      <trkpt lat="43.03219667" lon="-1.27919167">
        <ele>1131.0</ele>
        <time>2019-08-01T09:19:27.924Z</time>
      </trkpt>
      <trkpt lat="43.03219667" lon="-1.279195">
        <ele>1132.0</ele>
        <time>2019-08-01T09:19:28.928Z</time>
      </trkpt>
      <trkpt lat="43.03219667" lon="-1.2792">
        <ele>1132.0</ele>
        <time>2019-08-01T09:19:29.934Z</time>
      </trkpt>
      <trkpt lat="43.03219167" lon="-1.27920833">
        <ele>1133.0</ele>
        <time>2019-08-01T09:19:30.939Z</time>
      </trkpt>
      <trkpt lat="43.03218833" lon="-1.27922167">
        <ele>1133.0</ele>
        <time>2019-08-01T09:19:31.946Z</time>
      </trkpt>
      <trkpt lat="43.03218333" lon="-1.279235">
        <ele>1134.0</ele>
        <time>2019-08-01T09:19:32.949Z</time>
      </trkpt>
      <trkpt lat="43.032175" lon="-1.279255">
        <ele>1135.0</ele>
        <time>2019-08-01T09:19:33.957Z</time>
      </trkpt>
      <trkpt lat="43.03217167" lon="-1.279275">
        <ele>1134.0</ele>
        <time>2019-08-01T09:19:34.962Z</time>
      </trkpt>
      <trkpt lat="43.03217333" lon="-1.27928333">
        <ele>1134.0</ele>
        <time>2019-08-01T09:19:35.967Z</time>
      </trkpt>
      <trkpt lat="43.032175" lon="-1.27928333">
        <ele>1134.0</ele>
        <time>2019-08-01T09:19:36.970Z</time>
      </trkpt>
      <trkpt lat="43.03217333" lon="-1.27929">
        <ele>1134.0</ele>
        <time>2019-08-01T09:19:37.978Z</time>
      </trkpt>
      <trkpt lat="43.03217" lon="-1.27929667">
        <ele>1133.0</ele>
        <time>2019-08-01T09:19:38.982Z</time>
      </trkpt>
      <trkpt lat="43.03217" lon="-1.27930167">
        <ele>1133.0</ele>
        <time>2019-08-01T09:19:39.988Z</time>
      </trkpt>
      <trkpt lat="43.032175" lon="-1.27929833">
        <ele>1133.0</ele>
        <time>2019-08-01T09:19:40.994Z</time>
      </trkpt>
      <trkpt lat="43.03218" lon="-1.2793">
        <ele>1133.0</ele>
        <time>2019-08-01T09:19:42.000Z</time>
      </trkpt>
      <trkpt lat="43.03218833" lon="-1.279295">
        <ele>1132.0</ele>
        <time>2019-08-01T09:19:43.006Z</time>
      </trkpt>
      <trkpt lat="43.03219167" lon="-1.2793">
        <ele>1131.0</ele>
        <time>2019-08-01T09:19:44.011Z</time>
      </trkpt>
      <trkpt lat="43.03218833" lon="-1.27930667">
        <ele>1131.0</ele>
        <time>2019-08-01T09:19:45.018Z</time>
      </trkpt>
      <trkpt lat="43.032185" lon="-1.27931833">
        <ele>1129.0</ele>
        <time>2019-08-01T09:19:46.024Z</time>
      </trkpt>
      <trkpt lat="43.03218667" lon="-1.279335">
        <ele>1127.0</ele>
        <time>2019-08-01T09:19:47.029Z</time>
      </trkpt>
      <trkpt lat="43.03219667" lon="-1.27935333">
        <ele>1124.0</ele>
        <time>2019-08-01T09:19:48.035Z</time>
      </trkpt>
      <trkpt lat="43.03220833" lon="-1.27936">
        <ele>1123.0</ele>
        <time>2019-08-01T09:19:49.043Z</time>
      </trkpt>
      <trkpt lat="43.03221333" lon="-1.27936833">
        <ele>1122.0</ele>
        <time>2019-08-01T09:19:49.924Z</time>
      </trkpt>
      <trkpt lat="43.03222167" lon="-1.27937333">
        <ele>1120.0</ele>
        <time>2019-08-01T09:19:50.930Z</time>
      </trkpt>
      <trkpt lat="43.03223167" lon="-1.27938">
        <ele>1117.0</ele>
        <time>2019-08-01T09:19:51.937Z</time>
      </trkpt>
      <trkpt lat="43.03223333" lon="-1.27939">
        <ele>1117.0</ele>
        <time>2019-08-01T09:19:52.944Z</time>
      </trkpt>
      <trkpt lat="43.032225" lon="-1.27939667">
        <ele>1117.0</ele>
        <time>2019-08-01T09:19:53.947Z</time>
      </trkpt>
      <trkpt lat="43.03220667" lon="-1.27940667">
        <ele>1119.0</ele>
        <time>2019-08-01T09:19:54.955Z</time>
      </trkpt>
      <trkpt lat="43.032195" lon="-1.27941">
        <ele>1121.0</ele>
        <time>2019-08-01T09:19:55.962Z</time>
      </trkpt>
      <trkpt lat="43.03219667" lon="-1.27941167">
        <ele>1122.0</ele>
        <time>2019-08-01T09:19:56.967Z</time>
      </trkpt>
      <trkpt lat="43.03221" lon="-1.27940833">
        <ele>1121.0</ele>
        <time>2019-08-01T09:19:57.971Z</time>
      </trkpt>
      <trkpt lat="43.03221667" lon="-1.27942167">
        <ele>1120.0</ele>
        <time>2019-08-01T09:19:58.977Z</time>
      </trkpt>
      <trkpt lat="43.03222333" lon="-1.27943833">
        <ele>1118.0</ele>
        <time>2019-08-01T09:19:59.981Z</time>
      </trkpt>
      <trkpt lat="43.03222167" lon="-1.27945">
        <ele>1120.0</ele>
        <time>2019-08-01T09:20:00.987Z</time>
      </trkpt>
      <trkpt lat="43.032225" lon="-1.27944333">
        <ele>1120.0</ele>
        <time>2019-08-01T09:20:01.995Z</time>
      </trkpt>
      <trkpt lat="43.03222667" lon="-1.27942833">
        <ele>1121.0</ele>
        <time>2019-08-01T09:20:03.000Z</time>
      </trkpt>
      <trkpt lat="43.03223" lon="-1.27941167">
        <ele>1121.0</ele>
        <time>2019-08-01T09:20:04.006Z</time>
      </trkpt>
      <trkpt lat="43.03224167" lon="-1.27939667">
        <ele>1122.0</ele>
        <time>2019-08-01T09:20:05.012Z</time>
      </trkpt>
      <trkpt lat="43.032235" lon="-1.27939667">
        <ele>1123.0</ele>
        <time>2019-08-01T09:20:06.018Z</time>
      </trkpt>
      <trkpt lat="43.03222833" lon="-1.27938833">
        <ele>1125.0</ele>
        <time>2019-08-01T09:20:07.021Z</time>
      </trkpt>
      <trkpt lat="43.03222167" lon="-1.27938667">
        <ele>1126.0</ele>
        <time>2019-08-01T09:20:08.028Z</time>
      </trkpt>
      <trkpt lat="43.03220833" lon="-1.279395">
        <ele>1129.0</ele>
        <time>2019-08-01T09:20:09.035Z</time>
      </trkpt>
      <trkpt lat="43.03220333" lon="-1.27940833">
        <ele>1128.0</ele>
        <time>2019-08-01T09:20:10.042Z</time>
      </trkpt>
      <trkpt lat="43.03220833" lon="-1.27942167">
        <ele>1127.0</ele>
        <time>2019-08-01T09:20:10.924Z</time>
      </trkpt>
      <trkpt lat="43.03221" lon="-1.27942333">
        <ele>1128.0</ele>
        <time>2019-08-01T09:20:11.928Z</time>
      </trkpt>
      <trkpt lat="43.03221167" lon="-1.27942333">
        <ele>1129.0</ele>
        <time>2019-08-01T09:20:12.930Z</time>
      </trkpt>
      <trkpt lat="43.03221167" lon="-1.27942167">
        <ele>1129.0</ele>
        <time>2019-08-01T09:20:13.935Z</time>
      </trkpt>
      <trkpt lat="43.03220833" lon="-1.27942">
        <ele>1130.0</ele>
        <time>2019-08-01T09:20:14.941Z</time>
      </trkpt>
      <trkpt lat="43.03220333" lon="-1.27942167">
        <ele>1130.0</ele>
        <time>2019-08-01T09:20:15.947Z</time>
      </trkpt>
      <trkpt lat="43.03220167" lon="-1.27942">
        <ele>1130.0</ele>
        <time>2019-08-01T09:20:16.955Z</time>
      </trkpt>
      <trkpt lat="43.03220333" lon="-1.27942">
        <ele>1131.0</ele>
        <time>2019-08-01T09:20:17.961Z</time>
      </trkpt>
      <trkpt lat="43.03220333" lon="-1.27942">
        <ele>1131.0</ele>
        <time>2019-08-01T09:20:18.966Z</time>
      </trkpt>
      <trkpt lat="43.03220833" lon="-1.27942333">
        <ele>1131.0</ele>
        <time>2019-08-01T09:20:19.973Z</time>
      </trkpt>
      <trkpt lat="43.03221" lon="-1.27942167">
        <ele>1131.0</ele>
        <time>2019-08-01T09:20:20.978Z</time>
      </trkpt>
      <trkpt lat="43.03221" lon="-1.27942167">
        <ele>1131.0</ele>
        <time>2019-08-01T09:20:21.984Z</time>
      </trkpt>
      <trkpt lat="43.03220833" lon="-1.27942">
        <ele>1131.0</ele>
        <time>2019-08-01T09:20:22.992Z</time>
      </trkpt>
      <trkpt lat="43.03220667" lon="-1.27941667">
        <ele>1131.0</ele>
        <time>2019-08-01T09:20:23.998Z</time>
      </trkpt>
      <trkpt lat="43.03220833" lon="-1.27941667">
        <ele>1131.0</ele>
        <time>2019-08-01T09:20:25.004Z</time>
      </trkpt>
      <trkpt lat="43.03220667" lon="-1.279425">
        <ele>1130.0</ele>
        <time>2019-08-01T09:20:26.011Z</time>
      </trkpt>
      <trkpt lat="43.03220833" lon="-1.27943">
        <ele>1130.0</ele>
        <time>2019-08-01T09:20:27.017Z</time>
      </trkpt>
      <trkpt lat="43.032205" lon="-1.27943667">
        <ele>1130.0</ele>
        <time>2019-08-01T09:20:28.021Z</time>
      </trkpt>
      <trkpt lat="43.03220167" lon="-1.27944333">
        <ele>1130.0</ele>
        <time>2019-08-01T09:20:29.027Z</time>
      </trkpt>
      <trkpt lat="43.03219833" lon="-1.27944667">
        <ele>1131.0</ele>
        <time>2019-08-01T09:20:30.033Z</time>
      </trkpt>
      <trkpt lat="43.03219667" lon="-1.27944833">
        <ele>1131.0</ele>
        <time>2019-08-01T09:20:31.037Z</time>
      </trkpt>
      <trkpt lat="43.03219333" lon="-1.279445">
        <ele>1132.0</ele>
        <time>2019-08-01T09:20:32.043Z</time>
      </trkpt>
      <trkpt lat="43.03219333" lon="-1.279435">
        <ele>1132.0</ele>
        <time>2019-08-01T09:20:32.925Z</time>
      </trkpt>
      <trkpt lat="43.032195" lon="-1.27942833">
        <ele>1133.0</ele>
        <time>2019-08-01T09:20:33.929Z</time>
      </trkpt>
      <trkpt lat="43.03219667" lon="-1.27942333">
        <ele>1133.0</ele>
        <time>2019-08-01T09:20:34.935Z</time>
      </trkpt>
      <trkpt lat="43.032195" lon="-1.27942167">
        <ele>1133.0</ele>
        <time>2019-08-01T09:20:35.943Z</time>
      </trkpt>
      <trkpt lat="43.032195" lon="-1.27942833">
        <ele>1134.0</ele>
        <time>2019-08-01T09:20:36.951Z</time>
      </trkpt>
      <trkpt lat="43.032195" lon="-1.27943333">
        <ele>1134.0</ele>
        <time>2019-08-01T09:20:37.957Z</time>
      </trkpt>
      <trkpt lat="43.032195" lon="-1.27944">
        <ele>1134.0</ele>
        <time>2019-08-01T09:20:38.962Z</time>
      </trkpt>
      <trkpt lat="43.03219333" lon="-1.27943667">
        <ele>1134.0</ele>
        <time>2019-08-01T09:20:39.968Z</time>
      </trkpt>
      <trkpt lat="43.03218833" lon="-1.279435">
        <ele>1134.0</ele>
        <time>2019-08-01T09:20:40.973Z</time>
      </trkpt>
      <trkpt lat="43.03218667" lon="-1.27943167">
        <ele>1133.0</ele>
        <time>2019-08-01T09:20:41.976Z</time>
      </trkpt>
      <trkpt lat="43.03218" lon="-1.27943">
        <ele>1132.0</ele>
        <time>2019-08-01T09:20:42.980Z</time>
      </trkpt>
      <trkpt lat="43.03218" lon="-1.27942833">
        <ele>1132.0</ele>
        <time>2019-08-01T09:20:43.986Z</time>
      </trkpt>
      <trkpt lat="43.03218167" lon="-1.27942833">
        <ele>1132.0</ele>
        <time>2019-08-01T09:20:44.992Z</time>
      </trkpt>
      <trkpt lat="43.03218667" lon="-1.27942667">
        <ele>1132.0</ele>
        <time>2019-08-01T09:20:46.000Z</time>
      </trkpt>
      <trkpt lat="43.03219" lon="-1.27942333">
        <ele>1131.0</ele>
        <time>2019-08-01T09:20:47.006Z</time>
      </trkpt>
      <trkpt lat="43.03219" lon="-1.279425">
        <ele>1131.0</ele>
        <time>2019-08-01T09:20:48.011Z</time>
      </trkpt>
      <trkpt lat="43.03218667" lon="-1.27942667">
        <ele>1132.0</ele>
        <time>2019-08-01T09:20:49.017Z</time>
      </trkpt>
      <trkpt lat="43.03218333" lon="-1.27943">
        <ele>1132.0</ele>
        <time>2019-08-01T09:20:50.024Z</time>
      </trkpt>
      <trkpt lat="43.03218667" lon="-1.27943">
        <ele>1133.0</ele>
        <time>2019-08-01T09:20:51.030Z</time>
      </trkpt>
      <trkpt lat="43.03219" lon="-1.27943">
        <ele>1133.0</ele>
        <time>2019-08-01T09:20:52.035Z</time>
      </trkpt>
      <trkpt lat="43.03219167" lon="-1.27942667">
        <ele>1134.0</ele>
        <time>2019-08-01T09:20:53.041Z</time>
      </trkpt>
      <trkpt lat="43.03219167" lon="-1.27942333">
        <ele>1133.0</ele>
        <time>2019-08-01T09:20:53.921Z</time>
      </trkpt>
      <trkpt lat="43.03219" lon="-1.279425">
        <ele>1133.0</ele>
        <time>2019-08-01T09:20:54.925Z</time>
      </trkpt>
      <trkpt lat="43.032185" lon="-1.27943167">
        <ele>1133.0</ele>
        <time>2019-08-01T09:20:55.928Z</time>
      </trkpt>
      <trkpt lat="43.03218167" lon="-1.27943667">
        <ele>1132.0</ele>
        <time>2019-08-01T09:20:56.931Z</time>
      </trkpt>
      <trkpt lat="43.03217333" lon="-1.279445">
        <ele>1132.0</ele>
        <time>2019-08-01T09:20:57.939Z</time>
      </trkpt>
      <trkpt lat="43.03217" lon="-1.279445">
        <ele>1132.0</ele>
        <time>2019-08-01T09:20:58.946Z</time>
      </trkpt>
      <trkpt lat="43.03216667" lon="-1.27944167">
        <ele>1132.0</ele>
        <time>2019-08-01T09:20:59.951Z</time>
      </trkpt>
      <trkpt lat="43.03216333" lon="-1.279445">
        <ele>1131.0</ele>
        <time>2019-08-01T09:21:00.958Z</time>
      </trkpt>
      <trkpt lat="43.032165" lon="-1.27945">
        <ele>1130.0</ele>
        <time>2019-08-01T09:21:01.963Z</time>
      </trkpt>
      <trkpt lat="43.03217167" lon="-1.279455">
        <ele>1129.0</ele>
        <time>2019-08-01T09:21:02.969Z</time>
      </trkpt>
      <trkpt lat="43.03217" lon="-1.27946333">
        <ele>1129.0</ele>
        <time>2019-08-01T09:21:03.976Z</time>
      </trkpt>
      <trkpt lat="43.032165" lon="-1.27947">
        <ele>1129.0</ele>
        <time>2019-08-01T09:21:04.982Z</time>
      </trkpt>
      <trkpt lat="43.03216" lon="-1.279475">
        <ele>1130.0</ele>
        <time>2019-08-01T09:21:05.987Z</time>
      </trkpt>
      <trkpt lat="43.03215667" lon="-1.27947667">
        <ele>1129.0</ele>
        <time>2019-08-01T09:21:06.991Z</time>
      </trkpt>
      <trkpt lat="43.03215833" lon="-1.27947333">
        <ele>1128.0</ele>
        <time>2019-08-01T09:21:07.996Z</time>
      </trkpt>
      <trkpt lat="43.03216" lon="-1.27946667">
        <ele>1128.0</ele>
        <time>2019-08-01T09:21:09.002Z</time>
      </trkpt>
      <trkpt lat="43.03216167" lon="-1.27946333">
        <ele>1127.0</ele>
        <time>2019-08-01T09:21:10.008Z</time>
      </trkpt>
      <trkpt lat="43.032165" lon="-1.279465">
        <ele>1126.0</ele>
        <time>2019-08-01T09:21:11.013Z</time>
      </trkpt>
      <trkpt lat="43.03217333" lon="-1.279475">
        <ele>1125.0</ele>
        <time>2019-08-01T09:21:12.018Z</time>
      </trkpt>
      <trkpt lat="43.032175" lon="-1.27948333">
        <ele>1125.0</ele>
        <time>2019-08-01T09:21:13.025Z</time>
      </trkpt>
      <trkpt lat="43.032175" lon="-1.27949167">
        <ele>1125.0</ele>
        <time>2019-08-01T09:21:14.031Z</time>
      </trkpt>
      <trkpt lat="43.03217333" lon="-1.27949667">
        <ele>1125.0</ele>
        <time>2019-08-01T09:21:15.036Z</time>
      </trkpt>
      <trkpt lat="43.03216833" lon="-1.279505">
        <ele>1125.0</ele>
        <time>2019-08-01T09:21:16.041Z</time>
      </trkpt>
      <trkpt lat="43.032165" lon="-1.27951167">
        <ele>1125.0</ele>
        <time>2019-08-01T09:21:16.922Z</time>
      </trkpt>
      <trkpt lat="43.03216" lon="-1.27951833">
        <ele>1126.0</ele>
        <time>2019-08-01T09:21:17.928Z</time>
      </trkpt>
      <trkpt lat="43.03216" lon="-1.27952167">
        <ele>1126.0</ele>
        <time>2019-08-01T09:21:18.934Z</time>
      </trkpt>
      <trkpt lat="43.032165" lon="-1.27951667">
        <ele>1126.0</ele>
        <time>2019-08-01T09:21:19.941Z</time>
      </trkpt>
      <trkpt lat="43.032165" lon="-1.27951333">
        <ele>1127.0</ele>
        <time>2019-08-01T09:21:20.948Z</time>
      </trkpt>
      <trkpt lat="43.03216667" lon="-1.27950667">
        <ele>1127.0</ele>
        <time>2019-08-01T09:21:21.953Z</time>
      </trkpt>
      <trkpt lat="43.03216667" lon="-1.27950167">
        <ele>1127.0</ele>
        <time>2019-08-01T09:21:22.960Z</time>
      </trkpt>
      <trkpt lat="43.03217" lon="-1.27949833">
        <ele>1128.0</ele>
        <time>2019-08-01T09:21:23.966Z</time>
      </trkpt>
      <trkpt lat="43.03217167" lon="-1.27949667">
        <ele>1128.0</ele>
        <time>2019-08-01T09:21:24.971Z</time>
      </trkpt>
      <trkpt lat="43.03217333" lon="-1.27949167">
        <ele>1127.0</ele>
        <time>2019-08-01T09:21:25.977Z</time>
      </trkpt>
      <trkpt lat="43.03217667" lon="-1.27949167">
        <ele>1127.0</ele>
        <time>2019-08-01T09:21:26.983Z</time>
      </trkpt>
      <trkpt lat="43.03218167" lon="-1.27949833">
        <ele>1126.0</ele>
        <time>2019-08-01T09:21:27.989Z</time>
      </trkpt>
      <trkpt lat="43.03218667" lon="-1.27950167">
        <ele>1125.0</ele>
        <time>2019-08-01T09:21:28.996Z</time>
      </trkpt>
      <trkpt lat="43.03218833" lon="-1.27950333">
        <ele>1125.0</ele>
        <time>2019-08-01T09:21:30.002Z</time>
      </trkpt>
      <trkpt lat="43.03219333" lon="-1.27949833">
        <ele>1125.0</ele>
        <time>2019-08-01T09:21:31.005Z</time>
      </trkpt>
      <trkpt lat="43.03220167" lon="-1.27949667">
        <ele>1126.0</ele>
        <time>2019-08-01T09:21:32.007Z</time>
      </trkpt>
      <trkpt lat="43.03220333" lon="-1.27949667">
        <ele>1126.0</ele>
        <time>2019-08-01T09:21:33.010Z</time>
      </trkpt>
      <trkpt lat="43.03220333" lon="-1.2795">
        <ele>1126.0</ele>
        <time>2019-08-01T09:21:34.016Z</time>
      </trkpt>
      <trkpt lat="43.03220833" lon="-1.27949167">
        <ele>1126.0</ele>
        <time>2019-08-01T09:21:35.020Z</time>
      </trkpt>
      <trkpt lat="43.03221167" lon="-1.27948333">
        <ele>1126.0</ele>
        <time>2019-08-01T09:21:36.025Z</time>
      </trkpt>
      <trkpt lat="43.03221333" lon="-1.27947667">
        <ele>1126.0</ele>
        <time>2019-08-01T09:21:37.032Z</time>
      </trkpt>
      <trkpt lat="43.03221167" lon="-1.27947333">
        <ele>1126.0</ele>
        <time>2019-08-01T09:21:38.039Z</time>
      </trkpt>
      <trkpt lat="43.03221333" lon="-1.27947">
        <ele>1126.0</ele>
        <time>2019-08-01T09:21:38.920Z</time>
      </trkpt>
      <trkpt lat="43.032215" lon="-1.27947">
        <ele>1126.0</ele>
        <time>2019-08-01T09:21:39.925Z</time>
      </trkpt>
      <trkpt lat="43.03221833" lon="-1.27947167">
        <ele>1126.0</ele>
        <time>2019-08-01T09:21:40.931Z</time>
      </trkpt>
      <trkpt lat="43.03222167" lon="-1.27946833">
        <ele>1127.0</ele>
        <time>2019-08-01T09:21:41.936Z</time>
      </trkpt>
      <trkpt lat="43.03221833" lon="-1.27946333">
        <ele>1127.0</ele>
        <time>2019-08-01T09:21:42.944Z</time>
      </trkpt>
      <trkpt lat="43.03221833" lon="-1.27945167">
        <ele>1127.0</ele>
        <time>2019-08-01T09:21:43.952Z</time>
      </trkpt>
      <trkpt lat="43.03222" lon="-1.27943833">
        <ele>1127.0</ele>
        <time>2019-08-01T09:21:44.958Z</time>
      </trkpt>
      <trkpt lat="43.03222167" lon="-1.27943">
        <ele>1126.0</ele>
        <time>2019-08-01T09:21:45.963Z</time>
      </trkpt>
      <trkpt lat="43.03222167" lon="-1.279435">
        <ele>1126.0</ele>
        <time>2019-08-01T09:21:46.970Z</time>
      </trkpt>
      <trkpt lat="43.03223" lon="-1.27945167">
        <ele>1125.0</ele>
        <time>2019-08-01T09:21:47.975Z</time>
      </trkpt>
      <trkpt lat="43.03223333" lon="-1.27946">
        <ele>1123.0</ele>
        <time>2019-08-01T09:21:48.982Z</time>
      </trkpt>
      <trkpt lat="43.03223667" lon="-1.27946667">
        <ele>1122.0</ele>
        <time>2019-08-01T09:21:49.988Z</time>
      </trkpt>
      <trkpt lat="43.03223667" lon="-1.27946167">
        <ele>1121.0</ele>
        <time>2019-08-01T09:21:50.994Z</time>
      </trkpt>
      <trkpt lat="43.03225" lon="-1.27943833">
        <ele>1120.0</ele>
        <time>2019-08-01T09:21:52.001Z</time>
      </trkpt>
      <trkpt lat="43.032255" lon="-1.27942333">
        <ele>1120.0</ele>
        <time>2019-08-01T09:21:53.006Z</time>
      </trkpt>
      <trkpt lat="43.03226" lon="-1.27941">
        <ele>1119.0</ele>
        <time>2019-08-01T09:21:54.011Z</time>
      </trkpt>
      <trkpt lat="43.03227" lon="-1.27939">
        <ele>1119.0</ele>
        <time>2019-08-01T09:21:55.015Z</time>
      </trkpt>
      <trkpt lat="43.03226833" lon="-1.27938333">
        <ele>1118.0</ele>
        <time>2019-08-01T09:21:56.020Z</time>
      </trkpt>
      <trkpt lat="43.03226333" lon="-1.27938167">
        <ele>1119.0</ele>
        <time>2019-08-01T09:21:57.029Z</time>
      </trkpt>
      <trkpt lat="43.03226" lon="-1.27938833">
        <ele>1119.0</ele>
        <time>2019-08-01T09:21:58.035Z</time>
      </trkpt>
      <trkpt lat="43.03225167" lon="-1.279395">
        <ele>1122.0</ele>
        <time>2019-08-01T09:21:59.040Z</time>
      </trkpt>
      <trkpt lat="43.032245" lon="-1.2794">
        <ele>1123.0</ele>
        <time>2019-08-01T09:21:59.920Z</time>
      </trkpt>
      <trkpt lat="43.032245" lon="-1.2794">
        <ele>1124.0</ele>
        <time>2019-08-01T09:22:00.925Z</time>
      </trkpt>
      <trkpt lat="43.03225167" lon="-1.27939833">
        <ele>1124.0</ele>
        <time>2019-08-01T09:22:01.930Z</time>
      </trkpt>
      <trkpt lat="43.03225667" lon="-1.27940167">
        <ele>1123.0</ele>
        <time>2019-08-01T09:22:02.936Z</time>
      </trkpt>
      <trkpt lat="43.03226167" lon="-1.2794">
        <ele>1124.0</ele>
        <time>2019-08-01T09:22:03.944Z</time>
      </trkpt>
      <trkpt lat="43.03226333" lon="-1.2794">
        <ele>1124.0</ele>
        <time>2019-08-01T09:22:04.951Z</time>
      </trkpt>
      <trkpt lat="43.032255" lon="-1.27940167">
        <ele>1125.0</ele>
        <time>2019-08-01T09:22:05.957Z</time>
      </trkpt>
      <trkpt lat="43.03225333" lon="-1.27940667">
        <ele>1126.0</ele>
        <time>2019-08-01T09:22:06.965Z</time>
      </trkpt>
      <trkpt lat="43.03225167" lon="-1.27940833">
        <ele>1128.0</ele>
        <time>2019-08-01T09:22:07.970Z</time>
      </trkpt>
      <trkpt lat="43.03224833" lon="-1.27940833">
        <ele>1128.0</ele>
        <time>2019-08-01T09:22:08.974Z</time>
      </trkpt>
      <trkpt lat="43.03224667" lon="-1.27941">
        <ele>1128.0</ele>
        <time>2019-08-01T09:22:09.982Z</time>
      </trkpt>
      <trkpt lat="43.03224333" lon="-1.27941167">
        <ele>1128.0</ele>
        <time>2019-08-01T09:22:10.988Z</time>
      </trkpt>
      <trkpt lat="43.03224333" lon="-1.27941333">
        <ele>1128.0</ele>
        <time>2019-08-01T09:22:11.995Z</time>
      </trkpt>
      <trkpt lat="43.03223833" lon="-1.27941833">
        <ele>1128.0</ele>
        <time>2019-08-01T09:22:13.000Z</time>
      </trkpt>
      <trkpt lat="43.032235" lon="-1.279425">
        <ele>1129.0</ele>
        <time>2019-08-01T09:22:14.008Z</time>
      </trkpt>
      <trkpt lat="43.03223167" lon="-1.27943167">
        <ele>1128.0</ele>
        <time>2019-08-01T09:22:15.013Z</time>
      </trkpt>
      <trkpt lat="43.03222833" lon="-1.27944">
        <ele>1128.0</ele>
        <time>2019-08-01T09:22:16.019Z</time>
      </trkpt>
      <trkpt lat="43.032225" lon="-1.27944833">
        <ele>1128.0</ele>
        <time>2019-08-01T09:22:17.023Z</time>
      </trkpt>
      <trkpt lat="43.03222" lon="-1.27946167">
        <ele>1128.0</ele>
        <time>2019-08-01T09:22:18.026Z</time>
      </trkpt>
      <trkpt lat="43.03221667" lon="-1.27947333">
        <ele>1128.0</ele>
        <time>2019-08-01T09:22:19.032Z</time>
      </trkpt>
      <trkpt lat="43.032215" lon="-1.279485">
        <ele>1127.0</ele>
        <time>2019-08-01T09:22:20.039Z</time>
      </trkpt>
      <trkpt lat="43.032215" lon="-1.279495">
        <ele>1126.0</ele>
        <time>2019-08-01T09:22:20.919Z</time>
      </trkpt>
      <trkpt lat="43.032215" lon="-1.279505">
        <ele>1126.0</ele>
        <time>2019-08-01T09:22:21.926Z</time>
      </trkpt>
      <trkpt lat="43.03221333" lon="-1.27952">
        <ele>1126.0</ele>
        <time>2019-08-01T09:22:22.932Z</time>
      </trkpt>
      <trkpt lat="43.032215" lon="-1.27953167">
        <ele>1126.0</ele>
        <time>2019-08-01T09:22:23.939Z</time>
      </trkpt>
      <trkpt lat="43.032215" lon="-1.27954">
        <ele>1126.0</ele>
        <time>2019-08-01T09:22:24.944Z</time>
      </trkpt>
      <trkpt lat="43.03222167" lon="-1.27954833">
        <ele>1125.0</ele>
        <time>2019-08-01T09:22:25.949Z</time>
      </trkpt>
      <trkpt lat="43.032225" lon="-1.279565">
        <ele>1125.0</ele>
        <time>2019-08-01T09:22:26.954Z</time>
      </trkpt>
      <trkpt lat="43.03222833" lon="-1.27958">
        <ele>1124.0</ele>
        <time>2019-08-01T09:22:27.962Z</time>
      </trkpt>
      <trkpt lat="43.03223" lon="-1.279595">
        <ele>1123.0</ele>
        <time>2019-08-01T09:22:28.967Z</time>
      </trkpt>
      <trkpt lat="43.03223" lon="-1.27961333">
        <ele>1122.0</ele>
        <time>2019-08-01T09:22:29.971Z</time>
      </trkpt>
      <trkpt lat="43.03222667" lon="-1.27963">
        <ele>1123.0</ele>
        <time>2019-08-01T09:22:30.975Z</time>
      </trkpt>
      <trkpt lat="43.03222167" lon="-1.27964833">
        <ele>1123.0</ele>
        <time>2019-08-01T09:22:31.980Z</time>
      </trkpt>
      <trkpt lat="43.03222333" lon="-1.27966833">
        <ele>1122.0</ele>
        <time>2019-08-01T09:22:32.985Z</time>
      </trkpt>
      <trkpt lat="43.03222667" lon="-1.279685">
        <ele>1122.0</ele>
        <time>2019-08-01T09:22:33.990Z</time>
      </trkpt>
      <trkpt lat="43.03223167" lon="-1.27971">
        <ele>1122.0</ele>
        <time>2019-08-01T09:22:34.996Z</time>
      </trkpt>
      <trkpt lat="43.03223833" lon="-1.27973667">
        <ele>1123.0</ele>
        <time>2019-08-01T09:22:36.002Z</time>
      </trkpt>
      <trkpt lat="43.03224667" lon="-1.27975333">
        <ele>1123.0</ele>
        <time>2019-08-01T09:22:37.008Z</time>
      </trkpt>
      <trkpt lat="43.03224833" lon="-1.27976667">
        <ele>1122.0</ele>
        <time>2019-08-01T09:22:38.014Z</time>
      </trkpt>
      <trkpt lat="43.03225" lon="-1.27978167">
        <ele>1122.0</ele>
        <time>2019-08-01T09:22:39.020Z</time>
      </trkpt>
      <trkpt lat="43.032255" lon="-1.279795">
        <ele>1122.0</ele>
        <time>2019-08-01T09:22:40.028Z</time>
      </trkpt>
      <trkpt lat="43.03225833" lon="-1.27981">
        <ele>1121.0</ele>
        <time>2019-08-01T09:22:41.034Z</time>
      </trkpt>
      <trkpt lat="43.03226333" lon="-1.27982833">
        <ele>1121.0</ele>
        <time>2019-08-01T09:22:42.041Z</time>
      </trkpt>
      <trkpt lat="43.03226667" lon="-1.279845">
        <ele>1121.0</ele>
        <time>2019-08-01T09:22:42.922Z</time>
      </trkpt>
      <trkpt lat="43.03227167" lon="-1.27987">
        <ele>1121.0</ele>
        <time>2019-08-01T09:22:43.928Z</time>
      </trkpt>
      <trkpt lat="43.03227" lon="-1.27989333">
        <ele>1123.0</ele>
        <time>2019-08-01T09:22:44.934Z</time>
      </trkpt>
      <trkpt lat="43.03227333" lon="-1.27991833">
        <ele>1124.0</ele>
        <time>2019-08-01T09:22:45.939Z</time>
      </trkpt>
      <trkpt lat="43.03227" lon="-1.27994333">
        <ele>1124.0</ele>
        <time>2019-08-01T09:22:46.945Z</time>
      </trkpt>
      <trkpt lat="43.03227167" lon="-1.27996167">
        <ele>1124.0</ele>
        <time>2019-08-01T09:22:47.951Z</time>
      </trkpt>
      <trkpt lat="43.03227167" lon="-1.27998167">
        <ele>1123.0</ele>
        <time>2019-08-01T09:22:48.954Z</time>
      </trkpt>
      <trkpt lat="43.03227833" lon="-1.27999667">
        <ele>1123.0</ele>
        <time>2019-08-01T09:22:49.956Z</time>
      </trkpt>
      <trkpt lat="43.03228667" lon="-1.280005">
        <ele>1123.0</ele>
        <time>2019-08-01T09:22:50.958Z</time>
      </trkpt>
      <trkpt lat="43.032295" lon="-1.28001">
        <ele>1123.0</ele>
        <time>2019-08-01T09:22:51.959Z</time>
      </trkpt>
      <trkpt lat="43.03229333" lon="-1.28002333">
        <ele>1123.0</ele>
        <time>2019-08-01T09:22:52.962Z</time>
      </trkpt>
      <trkpt lat="43.03229333" lon="-1.28003">
        <ele>1123.0</ele>
        <time>2019-08-01T09:22:53.968Z</time>
      </trkpt>
      <trkpt lat="43.03229333" lon="-1.28003667">
        <ele>1124.0</ele>
        <time>2019-08-01T09:22:54.973Z</time>
      </trkpt>
      <trkpt lat="43.032295" lon="-1.28004833">
        <ele>1125.0</ele>
        <time>2019-08-01T09:22:55.979Z</time>
      </trkpt>
      <trkpt lat="43.032305" lon="-1.28006333">
        <ele>1125.0</ele>
        <time>2019-08-01T09:22:56.985Z</time>
      </trkpt>
      <trkpt lat="43.03231167" lon="-1.28007333">
        <ele>1125.0</ele>
        <time>2019-08-01T09:22:57.992Z</time>
      </trkpt>
      <trkpt lat="43.03231833" lon="-1.28008333">
        <ele>1125.0</ele>
        <time>2019-08-01T09:22:58.999Z</time>
      </trkpt>
      <trkpt lat="43.03232667" lon="-1.28008833">
        <ele>1124.0</ele>
        <time>2019-08-01T09:23:00.005Z</time>
      </trkpt>
      <trkpt lat="43.03233" lon="-1.28010167">
        <ele>1124.0</ele>
        <time>2019-08-01T09:23:01.011Z</time>
      </trkpt>
      <trkpt lat="43.03233833" lon="-1.28011333">
        <ele>1124.0</ele>
        <time>2019-08-01T09:23:02.017Z</time>
      </trkpt>
      <trkpt lat="43.032345" lon="-1.280125">
        <ele>1124.0</ele>
        <time>2019-08-01T09:23:03.021Z</time>
      </trkpt>
      <trkpt lat="43.03235833" lon="-1.280135">
        <ele>1124.0</ele>
        <time>2019-08-01T09:23:04.028Z</time>
      </trkpt>
      <trkpt lat="43.03237" lon="-1.28014333">
        <ele>1125.0</ele>
        <time>2019-08-01T09:23:05.033Z</time>
      </trkpt>
      <trkpt lat="43.032375" lon="-1.280155">
        <ele>1126.0</ele>
        <time>2019-08-01T09:23:06.041Z</time>
      </trkpt>
      <trkpt lat="43.03237833" lon="-1.280165">
        <ele>1127.0</ele>
        <time>2019-08-01T09:23:06.922Z</time>
      </trkpt>
      <trkpt lat="43.03238" lon="-1.28017833">
        <ele>1127.0</ele>
        <time>2019-08-01T09:23:07.928Z</time>
      </trkpt>
      <trkpt lat="43.032385" lon="-1.28019667">
        <ele>1128.0</ele>
        <time>2019-08-01T09:23:08.932Z</time>
      </trkpt>
      <trkpt lat="43.03239333" lon="-1.28021667">
        <ele>1128.0</ele>
        <time>2019-08-01T09:23:09.937Z</time>
      </trkpt>
      <trkpt lat="43.0324" lon="-1.28023333">
        <ele>1128.0</ele>
        <time>2019-08-01T09:23:10.941Z</time>
      </trkpt>
      <trkpt lat="43.03240667" lon="-1.28024833">
        <ele>1128.0</ele>
        <time>2019-08-01T09:23:11.948Z</time>
      </trkpt>
      <trkpt lat="43.03240833" lon="-1.28026667">
        <ele>1127.0</ele>
        <time>2019-08-01T09:23:12.956Z</time>
      </trkpt>
      <trkpt lat="43.03241167" lon="-1.28028333">
        <ele>1127.0</ele>
        <time>2019-08-01T09:23:13.963Z</time>
      </trkpt>
      <trkpt lat="43.03241667" lon="-1.28029667">
        <ele>1128.0</ele>
        <time>2019-08-01T09:23:14.967Z</time>
      </trkpt>
      <trkpt lat="43.03241833" lon="-1.28031167">
        <ele>1128.0</ele>
        <time>2019-08-01T09:23:15.971Z</time>
      </trkpt>
      <trkpt lat="43.03243167" lon="-1.28033">
        <ele>1128.0</ele>
        <time>2019-08-01T09:23:16.978Z</time>
      </trkpt>
      <trkpt lat="43.03244167" lon="-1.28035">
        <ele>1127.0</ele>
        <time>2019-08-01T09:23:17.985Z</time>
      </trkpt>
      <trkpt lat="43.03244667" lon="-1.28037">
        <ele>1127.0</ele>
        <time>2019-08-01T09:23:18.990Z</time>
      </trkpt>
      <trkpt lat="43.03244" lon="-1.28039333">
        <ele>1128.0</ele>
        <time>2019-08-01T09:23:19.996Z</time>
      </trkpt>
      <trkpt lat="43.032435" lon="-1.280415">
        <ele>1129.0</ele>
        <time>2019-08-01T09:23:21.000Z</time>
      </trkpt>
      <trkpt lat="43.032435" lon="-1.28043333">
        <ele>1129.0</ele>
        <time>2019-08-01T09:23:22.005Z</time>
      </trkpt>
      <trkpt lat="43.032435" lon="-1.28045">
        <ele>1129.0</ele>
        <time>2019-08-01T09:23:23.011Z</time>
      </trkpt>
      <trkpt lat="43.03244167" lon="-1.28046">
        <ele>1129.0</ele>
        <time>2019-08-01T09:23:24.014Z</time>
      </trkpt>
      <trkpt lat="43.032455" lon="-1.280465">
        <ele>1129.0</ele>
        <time>2019-08-01T09:23:25.019Z</time>
      </trkpt>
      <trkpt lat="43.03246333" lon="-1.28047333">
        <ele>1130.0</ele>
        <time>2019-08-01T09:23:26.026Z</time>
      </trkpt>
      <trkpt lat="43.03246667" lon="-1.28048833">
        <ele>1130.0</ele>
        <time>2019-08-01T09:23:27.033Z</time>
      </trkpt>
      <trkpt lat="43.03246" lon="-1.28051333">
        <ele>1131.0</ele>
        <time>2019-08-01T09:23:28.038Z</time>
      </trkpt>
      <trkpt lat="43.03246167" lon="-1.28052833">
        <ele>1131.0</ele>
        <time>2019-08-01T09:23:28.920Z</time>
      </trkpt>
      <trkpt lat="43.03246333" lon="-1.28054333">
        <ele>1131.0</ele>
        <time>2019-08-01T09:23:29.926Z</time>
      </trkpt>
      <trkpt lat="43.03246333" lon="-1.280555">
        <ele>1132.0</ele>
        <time>2019-08-01T09:23:30.932Z</time>
      </trkpt>
      <trkpt lat="43.03246333" lon="-1.28056667">
        <ele>1132.0</ele>
        <time>2019-08-01T09:23:31.939Z</time>
      </trkpt>
      <trkpt lat="43.03245833" lon="-1.28058333">
        <ele>1133.0</ele>
        <time>2019-08-01T09:23:32.942Z</time>
      </trkpt>
      <trkpt lat="43.03245833" lon="-1.28059833">
        <ele>1134.0</ele>
        <time>2019-08-01T09:23:33.948Z</time>
      </trkpt>
      <trkpt lat="43.03245667" lon="-1.28062167">
        <ele>1134.0</ele>
        <time>2019-08-01T09:23:34.953Z</time>
      </trkpt>
      <trkpt lat="43.032465" lon="-1.28064">
        <ele>1134.0</ele>
        <time>2019-08-01T09:23:35.959Z</time>
      </trkpt>
      <trkpt lat="43.03247333" lon="-1.28065833">
        <ele>1133.0</ele>
        <time>2019-08-01T09:23:36.962Z</time>
      </trkpt>
      <trkpt lat="43.032475" lon="-1.280675">
        <ele>1132.0</ele>
        <time>2019-08-01T09:23:37.968Z</time>
      </trkpt>
      <trkpt lat="43.03247833" lon="-1.28068833">
        <ele>1132.0</ele>
        <time>2019-08-01T09:23:38.973Z</time>
      </trkpt>
      <trkpt lat="43.03248667" lon="-1.28070333">
        <ele>1132.0</ele>
        <time>2019-08-01T09:23:39.979Z</time>
      </trkpt>
      <trkpt lat="43.03248667" lon="-1.28072333">
        <ele>1132.0</ele>
        <time>2019-08-01T09:23:40.985Z</time>
      </trkpt>
      <trkpt lat="43.03248667" lon="-1.28074">
        <ele>1132.0</ele>
        <time>2019-08-01T09:23:41.990Z</time>
      </trkpt>
      <trkpt lat="43.03249" lon="-1.28076167">
        <ele>1131.0</ele>
        <time>2019-08-01T09:23:42.991Z</time>
      </trkpt>
      <trkpt lat="43.03248667" lon="-1.280785">
        <ele>1132.0</ele>
        <time>2019-08-01T09:23:43.996Z</time>
      </trkpt>
      <trkpt lat="43.03249" lon="-1.28080167">
        <ele>1131.0</ele>
        <time>2019-08-01T09:23:45.003Z</time>
      </trkpt>
      <trkpt lat="43.03249833" lon="-1.28081">
        <ele>1131.0</ele>
        <time>2019-08-01T09:23:46.008Z</time>
      </trkpt>
      <trkpt lat="43.0325" lon="-1.28081667">
        <ele>1131.0</ele>
        <time>2019-08-01T09:23:47.011Z</time>
      </trkpt>
      <trkpt lat="43.0325" lon="-1.28082667">
        <ele>1130.0</ele>
        <time>2019-08-01T09:23:48.018Z</time>
      </trkpt>
      <trkpt lat="43.03249833" lon="-1.280835">
        <ele>1130.0</ele>
        <time>2019-08-01T09:23:49.026Z</time>
      </trkpt>
      <trkpt lat="43.03249" lon="-1.28084667">
        <ele>1130.0</ele>
        <time>2019-08-01T09:23:50.033Z</time>
      </trkpt>
      <trkpt lat="43.03247833" lon="-1.28086">
        <ele>1130.0</ele>
        <time>2019-08-01T09:23:51.040Z</time>
      </trkpt>
      <trkpt lat="43.03247333" lon="-1.28087">
        <ele>1131.0</ele>
        <time>2019-08-01T09:23:51.920Z</time>
      </trkpt>
      <trkpt lat="43.03247" lon="-1.28088167">
        <ele>1131.0</ele>
        <time>2019-08-01T09:23:52.927Z</time>
      </trkpt>
      <trkpt lat="43.03246833" lon="-1.28089167">
        <ele>1131.0</ele>
        <time>2019-08-01T09:23:53.931Z</time>
      </trkpt>
      <trkpt lat="43.03246833" lon="-1.280905">
        <ele>1130.0</ele>
        <time>2019-08-01T09:23:54.936Z</time>
      </trkpt>
      <trkpt lat="43.032465" lon="-1.28092167">
        <ele>1131.0</ele>
        <time>2019-08-01T09:23:55.943Z</time>
      </trkpt>
      <trkpt lat="43.03246167" lon="-1.28094">
        <ele>1131.0</ele>
        <time>2019-08-01T09:23:56.947Z</time>
      </trkpt>
      <trkpt lat="43.03246167" lon="-1.28095167">
        <ele>1131.0</ele>
        <time>2019-08-01T09:23:57.955Z</time>
      </trkpt>
      <trkpt lat="43.03246333" lon="-1.28095833">
        <ele>1131.0</ele>
        <time>2019-08-01T09:23:58.963Z</time>
      </trkpt>
      <trkpt lat="43.03246667" lon="-1.28096167">
        <ele>1131.0</ele>
        <time>2019-08-01T09:23:59.969Z</time>
      </trkpt>
      <trkpt lat="43.03247167" lon="-1.28097">
        <ele>1131.0</ele>
        <time>2019-08-01T09:24:00.975Z</time>
      </trkpt>
      <trkpt lat="43.03247667" lon="-1.28098">
        <ele>1131.0</ele>
        <time>2019-08-01T09:24:01.981Z</time>
      </trkpt>
      <trkpt lat="43.03248" lon="-1.28099333">
        <ele>1132.0</ele>
        <time>2019-08-01T09:24:02.988Z</time>
      </trkpt>
      <trkpt lat="43.03247667" lon="-1.28100667">
        <ele>1132.0</ele>
        <time>2019-08-01T09:24:03.994Z</time>
      </trkpt>
      <trkpt lat="43.03247333" lon="-1.28102167">
        <ele>1132.0</ele>
        <time>2019-08-01T09:24:04.999Z</time>
      </trkpt>
      <trkpt lat="43.03246333" lon="-1.28103667">
        <ele>1133.0</ele>
        <time>2019-08-01T09:24:06.005Z</time>
      </trkpt>
      <trkpt lat="43.03246167" lon="-1.28104833">
        <ele>1134.0</ele>
        <time>2019-08-01T09:24:07.009Z</time>
      </trkpt>
      <trkpt lat="43.03245667" lon="-1.28106167">
        <ele>1134.0</ele>
        <time>2019-08-01T09:24:08.014Z</time>
      </trkpt>
      <trkpt lat="43.03245167" lon="-1.28107333">
        <ele>1134.0</ele>
        <time>2019-08-01T09:24:09.021Z</time>
      </trkpt>
      <trkpt lat="43.03244333" lon="-1.28108833">
        <ele>1135.0</ele>
        <time>2019-08-01T09:24:10.026Z</time>
      </trkpt>
      <trkpt lat="43.03244167" lon="-1.2811">
        <ele>1135.0</ele>
        <time>2019-08-01T09:24:11.033Z</time>
      </trkpt>
      <trkpt lat="43.032435" lon="-1.281115">
        <ele>1135.0</ele>
        <time>2019-08-01T09:24:12.038Z</time>
      </trkpt>
      <trkpt lat="43.03243167" lon="-1.28112667">
        <ele>1135.0</ele>
        <time>2019-08-01T09:24:12.919Z</time>
      </trkpt>
      <trkpt lat="43.03243" lon="-1.28113833">
        <ele>1135.0</ele>
        <time>2019-08-01T09:24:13.926Z</time>
      </trkpt>
      <trkpt lat="43.03243" lon="-1.28115167">
        <ele>1135.0</ele>
        <time>2019-08-01T09:24:14.932Z</time>
      </trkpt>
      <trkpt lat="43.03243" lon="-1.281165">
        <ele>1135.0</ele>
        <time>2019-08-01T09:24:15.937Z</time>
      </trkpt>
      <trkpt lat="43.03242833" lon="-1.28117833">
        <ele>1135.0</ele>
        <time>2019-08-01T09:24:16.943Z</time>
      </trkpt>
      <trkpt lat="43.03243167" lon="-1.28119">
        <ele>1135.0</ele>
        <time>2019-08-01T09:24:17.949Z</time>
      </trkpt>
      <trkpt lat="43.03243167" lon="-1.28120167">
        <ele>1135.0</ele>
        <time>2019-08-01T09:24:18.954Z</time>
      </trkpt>
      <trkpt lat="43.032435" lon="-1.28121333">
        <ele>1136.0</ele>
        <time>2019-08-01T09:24:19.960Z</time>
      </trkpt>
      <trkpt lat="43.03243667" lon="-1.28122833">
        <ele>1135.0</ele>
        <time>2019-08-01T09:24:20.966Z</time>
      </trkpt>
      <trkpt lat="43.03244" lon="-1.28124333">
        <ele>1135.0</ele>
        <time>2019-08-01T09:24:21.972Z</time>
      </trkpt>
      <trkpt lat="43.03243833" lon="-1.28125833">
        <ele>1136.0</ele>
        <time>2019-08-01T09:24:22.978Z</time>
      </trkpt>
      <trkpt lat="43.03243667" lon="-1.28126833">
        <ele>1136.0</ele>
        <time>2019-08-01T09:24:23.984Z</time>
      </trkpt>
      <trkpt lat="43.03243333" lon="-1.28127833">
        <ele>1137.0</ele>
        <time>2019-08-01T09:24:24.991Z</time>
      </trkpt>
      <trkpt lat="43.03243" lon="-1.28129">
        <ele>1137.0</ele>
        <time>2019-08-01T09:24:25.998Z</time>
      </trkpt>
      <trkpt lat="43.03243333" lon="-1.28130167">
        <ele>1137.0</ele>
        <time>2019-08-01T09:24:27.005Z</time>
      </trkpt>
      <trkpt lat="43.03244" lon="-1.281315">
        <ele>1137.0</ele>
        <time>2019-08-01T09:24:28.011Z</time>
      </trkpt>
      <trkpt lat="43.03244667" lon="-1.28132167">
        <ele>1136.0</ele>
        <time>2019-08-01T09:24:29.015Z</time>
      </trkpt>
      <trkpt lat="43.03244667" lon="-1.281335">
        <ele>1136.0</ele>
        <time>2019-08-01T09:24:30.020Z</time>
      </trkpt>
      <trkpt lat="43.03243833" lon="-1.28135167">
        <ele>1137.0</ele>
        <time>2019-08-01T09:24:31.025Z</time>
      </trkpt>
      <trkpt lat="43.03242667" lon="-1.28137">
        <ele>1139.0</ele>
        <time>2019-08-01T09:24:32.031Z</time>
      </trkpt>
      <trkpt lat="43.03241833" lon="-1.28138">
        <ele>1139.0</ele>
        <time>2019-08-01T09:24:33.039Z</time>
      </trkpt>
      <trkpt lat="43.03241333" lon="-1.28139">
        <ele>1140.0</ele>
        <time>2019-08-01T09:24:33.920Z</time>
      </trkpt>
      <trkpt lat="43.03241333" lon="-1.2814">
        <ele>1141.0</ele>
        <time>2019-08-01T09:24:34.924Z</time>
      </trkpt>
      <trkpt lat="43.03241833" lon="-1.28140667">
        <ele>1141.0</ele>
        <time>2019-08-01T09:24:35.927Z</time>
      </trkpt>
      <trkpt lat="43.03242333" lon="-1.28141667">
        <ele>1141.0</ele>
        <time>2019-08-01T09:24:36.928Z</time>
      </trkpt>
      <trkpt lat="43.03241833" lon="-1.281435">
        <ele>1141.0</ele>
        <time>2019-08-01T09:24:37.934Z</time>
      </trkpt>
      <trkpt lat="43.032415" lon="-1.28145333">
        <ele>1141.0</ele>
        <time>2019-08-01T09:24:38.938Z</time>
      </trkpt>
      <trkpt lat="43.03240667" lon="-1.28148">
        <ele>1141.0</ele>
        <time>2019-08-01T09:24:39.946Z</time>
      </trkpt>
      <trkpt lat="43.03239333" lon="-1.28150167">
        <ele>1141.0</ele>
        <time>2019-08-01T09:24:40.952Z</time>
      </trkpt>
      <trkpt lat="43.032385" lon="-1.28152333">
        <ele>1142.0</ele>
        <time>2019-08-01T09:24:41.955Z</time>
      </trkpt>
      <trkpt lat="43.03237667" lon="-1.28155">
        <ele>1143.0</ele>
        <time>2019-08-01T09:24:42.960Z</time>
      </trkpt>
      <trkpt lat="43.03238167" lon="-1.28156833">
        <ele>1143.0</ele>
        <time>2019-08-01T09:24:43.965Z</time>
      </trkpt>
      <trkpt lat="43.03238667" lon="-1.28157833">
        <ele>1143.0</ele>
        <time>2019-08-01T09:24:44.969Z</time>
      </trkpt>
      <trkpt lat="43.032385" lon="-1.28159833">
        <ele>1144.0</ele>
        <time>2019-08-01T09:24:45.975Z</time>
      </trkpt>
      <trkpt lat="43.03239167" lon="-1.28161">
        <ele>1145.0</ele>
        <time>2019-08-01T09:24:46.980Z</time>
      </trkpt>
      <trkpt lat="43.03238333" lon="-1.28163">
        <ele>1146.0</ele>
        <time>2019-08-01T09:24:47.988Z</time>
      </trkpt>
      <trkpt lat="43.03237167" lon="-1.28165667">
        <ele>1148.0</ele>
        <time>2019-08-01T09:24:48.994Z</time>
      </trkpt>
      <trkpt lat="43.03237333" lon="-1.281675">
        <ele>1149.0</ele>
        <time>2019-08-01T09:24:50.001Z</time>
      </trkpt>
      <trkpt lat="43.03237167" lon="-1.28168833">
        <ele>1149.0</ele>
        <time>2019-08-01T09:24:51.007Z</time>
      </trkpt>
      <trkpt lat="43.03237" lon="-1.28170333">
        <ele>1148.0</ele>
        <time>2019-08-01T09:24:52.013Z</time>
      </trkpt>
      <trkpt lat="43.03237333" lon="-1.28171">
        <ele>1148.0</ele>
        <time>2019-08-01T09:24:53.020Z</time>
      </trkpt>
      <trkpt lat="43.03237333" lon="-1.28173333">
        <ele>1148.0</ele>
        <time>2019-08-01T09:24:54.025Z</time>
      </trkpt>
      <trkpt lat="43.03237167" lon="-1.28175833">
        <ele>1147.0</ele>
        <time>2019-08-01T09:24:55.031Z</time>
      </trkpt>
      <trkpt lat="43.03237167" lon="-1.28178">
        <ele>1147.0</ele>
        <time>2019-08-01T09:24:56.038Z</time>
      </trkpt>
      <trkpt lat="43.03237833" lon="-1.2818">
        <ele>1148.0</ele>
        <time>2019-08-01T09:24:56.920Z</time>
      </trkpt>
      <trkpt lat="43.03238667" lon="-1.281805">
        <ele>1148.0</ele>
        <time>2019-08-01T09:24:57.926Z</time>
      </trkpt>
      <trkpt lat="43.032395" lon="-1.28180833">
        <ele>1148.0</ele>
        <time>2019-08-01T09:24:58.932Z</time>
      </trkpt>
      <trkpt lat="43.03239" lon="-1.28182167">
        <ele>1149.0</ele>
        <time>2019-08-01T09:24:59.938Z</time>
      </trkpt>
      <trkpt lat="43.032385" lon="-1.28185">
        <ele>1151.0</ele>
        <time>2019-08-01T09:25:00.943Z</time>
      </trkpt>
      <trkpt lat="43.03238667" lon="-1.28187">
        <ele>1150.0</ele>
        <time>2019-08-01T09:25:01.949Z</time>
      </trkpt>
      <trkpt lat="43.032385" lon="-1.281895">
        <ele>1151.0</ele>
        <time>2019-08-01T09:25:02.954Z</time>
      </trkpt>
      <trkpt lat="43.03238167" lon="-1.28191167">
        <ele>1150.0</ele>
        <time>2019-08-01T09:25:03.958Z</time>
      </trkpt>
      <trkpt lat="43.032385" lon="-1.28192167">
        <ele>1151.0</ele>
        <time>2019-08-01T09:25:04.962Z</time>
      </trkpt>
      <trkpt lat="43.03239667" lon="-1.28193">
        <ele>1151.0</ele>
        <time>2019-08-01T09:25:05.968Z</time>
      </trkpt>
      <trkpt lat="43.032405" lon="-1.28195333">
        <ele>1150.0</ele>
        <time>2019-08-01T09:25:06.975Z</time>
      </trkpt>
      <trkpt lat="43.0324" lon="-1.281975">
        <ele>1151.0</ele>
        <time>2019-08-01T09:25:07.980Z</time>
      </trkpt>
      <trkpt lat="43.03239667" lon="-1.28199333">
        <ele>1151.0</ele>
        <time>2019-08-01T09:25:08.987Z</time>
      </trkpt>
      <trkpt lat="43.03239333" lon="-1.28201">
        <ele>1151.0</ele>
        <time>2019-08-01T09:25:09.993Z</time>
      </trkpt>
      <trkpt lat="43.032385" lon="-1.28202833">
        <ele>1151.0</ele>
        <time>2019-08-01T09:25:10.999Z</time>
      </trkpt>
      <trkpt lat="43.03238167" lon="-1.28204833">
        <ele>1150.0</ele>
        <time>2019-08-01T09:25:12.004Z</time>
      </trkpt>
      <trkpt lat="43.03239" lon="-1.282055">
        <ele>1150.0</ele>
        <time>2019-08-01T09:25:13.010Z</time>
      </trkpt>
      <trkpt lat="43.03239167" lon="-1.28206833">
        <ele>1151.0</ele>
        <time>2019-08-01T09:25:14.015Z</time>
      </trkpt>
      <trkpt lat="43.03239667" lon="-1.28208667">
        <ele>1150.0</ele>
        <time>2019-08-01T09:25:15.022Z</time>
      </trkpt>
      <trkpt lat="43.03240167" lon="-1.28211">
        <ele>1150.0</ele>
        <time>2019-08-01T09:25:16.027Z</time>
      </trkpt>
      <trkpt lat="43.03241" lon="-1.28213">
        <ele>1148.0</ele>
        <time>2019-08-01T09:25:17.032Z</time>
      </trkpt>
      <trkpt lat="43.03241333" lon="-1.28215333">
        <ele>1148.0</ele>
        <time>2019-08-01T09:25:18.038Z</time>
      </trkpt>
      <trkpt lat="43.032415" lon="-1.282175">
        <ele>1147.0</ele>
        <time>2019-08-01T09:25:18.919Z</time>
      </trkpt>
      <trkpt lat="43.03241833" lon="-1.28220167">
        <ele>1145.0</ele>
        <time>2019-08-01T09:25:19.924Z</time>
      </trkpt>
      <trkpt lat="43.03242167" lon="-1.282225">
        <ele>1144.0</ele>
        <time>2019-08-01T09:25:20.929Z</time>
      </trkpt>
      <trkpt lat="43.03242667" lon="-1.28223833">
        <ele>1144.0</ele>
        <time>2019-08-01T09:25:21.933Z</time>
      </trkpt>
      <trkpt lat="43.03243" lon="-1.28225167">
        <ele>1145.0</ele>
        <time>2019-08-01T09:25:22.939Z</time>
      </trkpt>
      <trkpt lat="43.032435" lon="-1.282275">
        <ele>1146.0</ele>
        <time>2019-08-01T09:25:23.944Z</time>
      </trkpt>
      <trkpt lat="43.03244" lon="-1.28229333">
        <ele>1146.0</ele>
        <time>2019-08-01T09:25:24.952Z</time>
      </trkpt>
      <trkpt lat="43.03245167" lon="-1.282315">
        <ele>1147.0</ele>
        <time>2019-08-01T09:25:25.956Z</time>
      </trkpt>
      <trkpt lat="43.03246833" lon="-1.28233">
        <ele>1147.0</ele>
        <time>2019-08-01T09:25:26.960Z</time>
      </trkpt>
      <trkpt lat="43.03249167" lon="-1.28233833">
        <ele>1148.0</ele>
        <time>2019-08-01T09:25:27.964Z</time>
      </trkpt>
      <trkpt lat="43.03251667" lon="-1.28235">
        <ele>1148.0</ele>
        <time>2019-08-01T09:25:28.967Z</time>
      </trkpt>
      <trkpt lat="43.03253167" lon="-1.28236">
        <ele>1148.0</ele>
        <time>2019-08-01T09:25:29.972Z</time>
      </trkpt>
      <trkpt lat="43.032525" lon="-1.28237167">
        <ele>1148.0</ele>
        <time>2019-08-01T09:25:30.978Z</time>
      </trkpt>
      <trkpt lat="43.032515" lon="-1.28238833">
        <ele>1149.0</ele>
        <time>2019-08-01T09:25:31.983Z</time>
      </trkpt>
      <trkpt lat="43.03251333" lon="-1.28240333">
        <ele>1149.0</ele>
        <time>2019-08-01T09:25:32.986Z</time>
      </trkpt>
      <trkpt lat="43.03251333" lon="-1.282415">
        <ele>1149.0</ele>
        <time>2019-08-01T09:25:33.991Z</time>
      </trkpt>
      <trkpt lat="43.03252" lon="-1.28242667">
        <ele>1149.0</ele>
        <time>2019-08-01T09:25:34.997Z</time>
      </trkpt>
      <trkpt lat="43.03252333" lon="-1.28244167">
        <ele>1149.0</ele>
        <time>2019-08-01T09:25:36.003Z</time>
      </trkpt>
      <trkpt lat="43.032525" lon="-1.28245833">
        <ele>1149.0</ele>
        <time>2019-08-01T09:25:37.008Z</time>
      </trkpt>
      <trkpt lat="43.03252833" lon="-1.28247333">
        <ele>1149.0</ele>
        <time>2019-08-01T09:25:38.013Z</time>
      </trkpt>
      <trkpt lat="43.03252833" lon="-1.28249167">
        <ele>1149.0</ele>
        <time>2019-08-01T09:25:39.019Z</time>
      </trkpt>
      <trkpt lat="43.03252667" lon="-1.28250667">
        <ele>1149.0</ele>
        <time>2019-08-01T09:25:40.025Z</time>
      </trkpt>
      <trkpt lat="43.032525" lon="-1.282525">
        <ele>1150.0</ele>
        <time>2019-08-01T09:25:41.030Z</time>
      </trkpt>
      <trkpt lat="43.032525" lon="-1.28254333">
        <ele>1150.0</ele>
        <time>2019-08-01T09:25:42.036Z</time>
      </trkpt>
      <trkpt lat="43.032525" lon="-1.28255833">
        <ele>1150.0</ele>
        <time>2019-08-01T09:25:43.042Z</time>
      </trkpt>
      <trkpt lat="43.03253" lon="-1.28257167">
        <ele>1150.0</ele>
        <time>2019-08-01T09:25:43.923Z</time>
      </trkpt>
      <trkpt lat="43.032535" lon="-1.282585">
        <ele>1150.0</ele>
        <time>2019-08-01T09:25:44.927Z</time>
      </trkpt>
      <trkpt lat="43.032535" lon="-1.2826">
        <ele>1150.0</ele>
        <time>2019-08-01T09:25:45.932Z</time>
      </trkpt>
      <trkpt lat="43.03253333" lon="-1.28261667">
        <ele>1151.0</ele>
        <time>2019-08-01T09:25:46.939Z</time>
      </trkpt>
      <trkpt lat="43.03252833" lon="-1.282635">
        <ele>1152.0</ele>
        <time>2019-08-01T09:25:47.946Z</time>
      </trkpt>
      <trkpt lat="43.032525" lon="-1.28264833">
        <ele>1153.0</ele>
        <time>2019-08-01T09:25:48.952Z</time>
      </trkpt>
      <trkpt lat="43.03252333" lon="-1.282665">
        <ele>1153.0</ele>
        <time>2019-08-01T09:25:49.957Z</time>
      </trkpt>
      <trkpt lat="43.03252667" lon="-1.282685">
        <ele>1153.0</ele>
        <time>2019-08-01T09:25:50.962Z</time>
      </trkpt>
      <trkpt lat="43.03252667" lon="-1.28269833">
        <ele>1153.0</ele>
        <time>2019-08-01T09:25:51.969Z</time>
      </trkpt>
      <trkpt lat="43.03252833" lon="-1.28270833">
        <ele>1153.0</ele>
        <time>2019-08-01T09:25:52.975Z</time>
      </trkpt>
      <trkpt lat="43.03253167" lon="-1.28272">
        <ele>1153.0</ele>
        <time>2019-08-01T09:25:53.979Z</time>
      </trkpt>
      <trkpt lat="43.03253833" lon="-1.28273833">
        <ele>1153.0</ele>
        <time>2019-08-01T09:25:54.985Z</time>
      </trkpt>
      <trkpt lat="43.03253833" lon="-1.28275167">
        <ele>1153.0</ele>
        <time>2019-08-01T09:25:55.990Z</time>
      </trkpt>
      <trkpt lat="43.03253833" lon="-1.28276833">
        <ele>1153.0</ele>
        <time>2019-08-01T09:25:56.995Z</time>
      </trkpt>
      <trkpt lat="43.03254333" lon="-1.28278167">
        <ele>1152.0</ele>
        <time>2019-08-01T09:25:58.001Z</time>
      </trkpt>
      <trkpt lat="43.032545" lon="-1.2828">
        <ele>1152.0</ele>
        <time>2019-08-01T09:25:59.006Z</time>
      </trkpt>
      <trkpt lat="43.03254667" lon="-1.28281333">
        <ele>1151.0</ele>
        <time>2019-08-01T09:26:00.011Z</time>
      </trkpt>
      <trkpt lat="43.03254667" lon="-1.28283">
        <ele>1152.0</ele>
        <time>2019-08-01T09:26:01.016Z</time>
      </trkpt>
      <trkpt lat="43.03255" lon="-1.28284167">
        <ele>1152.0</ele>
        <time>2019-08-01T09:26:02.021Z</time>
      </trkpt>
      <trkpt lat="43.03255167" lon="-1.28285667">
        <ele>1152.0</ele>
        <time>2019-08-01T09:26:03.028Z</time>
      </trkpt>
      <trkpt lat="43.03256" lon="-1.28286833">
        <ele>1152.0</ele>
        <time>2019-08-01T09:26:04.033Z</time>
      </trkpt>
      <trkpt lat="43.03256667" lon="-1.28288167">
        <ele>1152.0</ele>
        <time>2019-08-01T09:26:05.039Z</time>
      </trkpt>
      <trkpt lat="43.03256833" lon="-1.282895">
        <ele>1152.0</ele>
        <time>2019-08-01T09:26:05.921Z</time>
      </trkpt>
      <trkpt lat="43.03257167" lon="-1.28291333">
        <ele>1152.0</ele>
        <time>2019-08-01T09:26:06.927Z</time>
      </trkpt>
      <trkpt lat="43.03257167" lon="-1.28293167">
        <ele>1152.0</ele>
        <time>2019-08-01T09:26:07.933Z</time>
      </trkpt>
      <trkpt lat="43.032575" lon="-1.28294167">
        <ele>1153.0</ele>
        <time>2019-08-01T09:26:08.940Z</time>
      </trkpt>
      <trkpt lat="43.03258" lon="-1.28295333">
        <ele>1153.0</ele>
        <time>2019-08-01T09:26:09.947Z</time>
      </trkpt>
      <trkpt lat="43.03258" lon="-1.28297333">
        <ele>1153.0</ele>
        <time>2019-08-01T09:26:10.953Z</time>
      </trkpt>
      <trkpt lat="43.03258167" lon="-1.28299167">
        <ele>1153.0</ele>
        <time>2019-08-01T09:26:11.959Z</time>
      </trkpt>
      <trkpt lat="43.03258" lon="-1.28301">
        <ele>1154.0</ele>
        <time>2019-08-01T09:26:12.966Z</time>
      </trkpt>
      <trkpt lat="43.03258" lon="-1.283025">
        <ele>1155.0</ele>
        <time>2019-08-01T09:26:13.969Z</time>
      </trkpt>
      <trkpt lat="43.03258" lon="-1.28304">
        <ele>1155.0</ele>
        <time>2019-08-01T09:26:14.974Z</time>
      </trkpt>
      <trkpt lat="43.03258333" lon="-1.283055">
        <ele>1155.0</ele>
        <time>2019-08-01T09:26:15.980Z</time>
      </trkpt>
      <trkpt lat="43.032585" lon="-1.28306667">
        <ele>1155.0</ele>
        <time>2019-08-01T09:26:16.987Z</time>
      </trkpt>
      <trkpt lat="43.032585" lon="-1.28308167">
        <ele>1155.0</ele>
        <time>2019-08-01T09:26:17.994Z</time>
      </trkpt>
      <trkpt lat="43.03258833" lon="-1.28310167">
        <ele>1154.0</ele>
        <time>2019-08-01T09:26:18.997Z</time>
      </trkpt>
      <trkpt lat="43.03258833" lon="-1.28312167">
        <ele>1155.0</ele>
        <time>2019-08-01T09:26:20.003Z</time>
      </trkpt>
      <trkpt lat="43.03259" lon="-1.28314">
        <ele>1155.0</ele>
        <time>2019-08-01T09:26:21.008Z</time>
      </trkpt>
      <trkpt lat="43.03259667" lon="-1.28315833">
        <ele>1154.0</ele>
        <time>2019-08-01T09:26:22.013Z</time>
      </trkpt>
      <trkpt lat="43.03260167" lon="-1.28317">
        <ele>1153.0</ele>
        <time>2019-08-01T09:26:23.019Z</time>
      </trkpt>
      <trkpt lat="43.03261" lon="-1.28318167">
        <ele>1154.0</ele>
        <time>2019-08-01T09:26:24.024Z</time>
      </trkpt>
      <trkpt lat="43.03262333" lon="-1.283195">
        <ele>1154.0</ele>
        <time>2019-08-01T09:26:25.030Z</time>
      </trkpt>
      <trkpt lat="43.03262833" lon="-1.28321333">
        <ele>1155.0</ele>
        <time>2019-08-01T09:26:26.033Z</time>
      </trkpt>
      <trkpt lat="43.03263333" lon="-1.28323">
        <ele>1154.0</ele>
        <time>2019-08-01T09:26:27.039Z</time>
      </trkpt>
      <trkpt lat="43.03263667" lon="-1.28324333">
        <ele>1154.0</ele>
        <time>2019-08-01T09:26:27.920Z</time>
      </trkpt>
      <trkpt lat="43.03264167" lon="-1.28325667">
        <ele>1154.0</ele>
        <time>2019-08-01T09:26:28.925Z</time>
      </trkpt>
      <trkpt lat="43.03264833" lon="-1.28326833">
        <ele>1153.0</ele>
        <time>2019-08-01T09:26:29.931Z</time>
      </trkpt>
      <trkpt lat="43.03265167" lon="-1.28328167">
        <ele>1153.0</ele>
        <time>2019-08-01T09:26:30.938Z</time>
      </trkpt>
      <trkpt lat="43.03265333" lon="-1.283295">
        <ele>1154.0</ele>
        <time>2019-08-01T09:26:31.943Z</time>
      </trkpt>
      <trkpt lat="43.03265667" lon="-1.28330833">
        <ele>1154.0</ele>
        <time>2019-08-01T09:26:32.949Z</time>
      </trkpt>
      <trkpt lat="43.032665" lon="-1.28331833">
        <ele>1154.0</ele>
        <time>2019-08-01T09:26:33.957Z</time>
      </trkpt>
      <trkpt lat="43.03266833" lon="-1.28333333">
        <ele>1154.0</ele>
        <time>2019-08-01T09:26:34.963Z</time>
      </trkpt>
      <trkpt lat="43.03266667" lon="-1.283345">
        <ele>1154.0</ele>
        <time>2019-08-01T09:26:35.969Z</time>
      </trkpt>
      <trkpt lat="43.03266667" lon="-1.28335833">
        <ele>1154.0</ele>
        <time>2019-08-01T09:26:36.975Z</time>
      </trkpt>
      <trkpt lat="43.03266667" lon="-1.28337">
        <ele>1155.0</ele>
        <time>2019-08-01T09:26:37.983Z</time>
      </trkpt>
      <trkpt lat="43.03267" lon="-1.28338">
        <ele>1155.0</ele>
        <time>2019-08-01T09:26:38.988Z</time>
      </trkpt>
      <trkpt lat="43.032675" lon="-1.28339">
        <ele>1155.0</ele>
        <time>2019-08-01T09:26:39.993Z</time>
      </trkpt>
      <trkpt lat="43.03267667" lon="-1.283405">
        <ele>1156.0</ele>
        <time>2019-08-01T09:26:40.998Z</time>
      </trkpt>
      <trkpt lat="43.03267667" lon="-1.28341833">
        <ele>1156.0</ele>
        <time>2019-08-01T09:26:42.003Z</time>
      </trkpt>
      <trkpt lat="43.03267333" lon="-1.28343333">
        <ele>1156.0</ele>
        <time>2019-08-01T09:26:43.005Z</time>
      </trkpt>
      <trkpt lat="43.03267833" lon="-1.28344167">
        <ele>1156.0</ele>
        <time>2019-08-01T09:26:44.010Z</time>
      </trkpt>
      <trkpt lat="43.03268333" lon="-1.28344667">
        <ele>1157.0</ele>
        <time>2019-08-01T09:26:45.014Z</time>
      </trkpt>
      <trkpt lat="43.03268167" lon="-1.28345833">
        <ele>1158.0</ele>
        <time>2019-08-01T09:26:46.019Z</time>
      </trkpt>
      <trkpt lat="43.032685" lon="-1.28346833">
        <ele>1158.0</ele>
        <time>2019-08-01T09:26:47.022Z</time>
      </trkpt>
      <trkpt lat="43.03268667" lon="-1.28348167">
        <ele>1158.0</ele>
        <time>2019-08-01T09:26:48.029Z</time>
      </trkpt>
      <trkpt lat="43.032685" lon="-1.28349833">
        <ele>1158.0</ele>
        <time>2019-08-01T09:26:49.036Z</time>
      </trkpt>
      <trkpt lat="43.032685" lon="-1.28351">
        <ele>1158.0</ele>
        <time>2019-08-01T09:26:50.043Z</time>
      </trkpt>
      <trkpt lat="43.032685" lon="-1.283525">
        <ele>1158.0</ele>
        <time>2019-08-01T09:26:50.923Z</time>
      </trkpt>
      <trkpt lat="43.03268667" lon="-1.28354167">
        <ele>1158.0</ele>
        <time>2019-08-01T09:26:51.929Z</time>
      </trkpt>
      <trkpt lat="43.03268833" lon="-1.283555">
        <ele>1158.0</ele>
        <time>2019-08-01T09:26:52.935Z</time>
      </trkpt>
      <trkpt lat="43.032685" lon="-1.28356667">
        <ele>1158.0</ele>
        <time>2019-08-01T09:26:53.943Z</time>
      </trkpt>
      <trkpt lat="43.032685" lon="-1.28358">
        <ele>1159.0</ele>
        <time>2019-08-01T09:26:54.950Z</time>
      </trkpt>
      <trkpt lat="43.032685" lon="-1.28359167">
        <ele>1159.0</ele>
        <time>2019-08-01T09:26:55.956Z</time>
      </trkpt>
      <trkpt lat="43.03268833" lon="-1.28360333">
        <ele>1159.0</ele>
        <time>2019-08-01T09:26:56.962Z</time>
      </trkpt>
      <trkpt lat="43.03268833" lon="-1.28361833">
        <ele>1159.0</ele>
        <time>2019-08-01T09:26:57.968Z</time>
      </trkpt>
      <trkpt lat="43.03268833" lon="-1.28363333">
        <ele>1159.0</ele>
        <time>2019-08-01T09:26:58.969Z</time>
      </trkpt>
      <trkpt lat="43.03268667" lon="-1.28365">
        <ele>1160.0</ele>
        <time>2019-08-01T09:26:59.973Z</time>
      </trkpt>
      <trkpt lat="43.032685" lon="-1.28366833">
        <ele>1160.0</ele>
        <time>2019-08-01T09:27:00.979Z</time>
      </trkpt>
      <trkpt lat="43.03268667" lon="-1.283685">
        <ele>1160.0</ele>
        <time>2019-08-01T09:27:01.981Z</time>
      </trkpt>
      <trkpt lat="43.03268833" lon="-1.28370167">
        <ele>1160.0</ele>
        <time>2019-08-01T09:27:02.987Z</time>
      </trkpt>
      <trkpt lat="43.03269" lon="-1.283715">
        <ele>1160.0</ele>
        <time>2019-08-01T09:27:03.992Z</time>
      </trkpt>
      <trkpt lat="43.03269" lon="-1.28373333">
        <ele>1160.0</ele>
        <time>2019-08-01T09:27:04.997Z</time>
      </trkpt>
      <trkpt lat="43.03268833" lon="-1.28375">
        <ele>1160.0</ele>
        <time>2019-08-01T09:27:06.002Z</time>
      </trkpt>
      <trkpt lat="43.032685" lon="-1.28376833">
        <ele>1161.0</ele>
        <time>2019-08-01T09:27:07.008Z</time>
      </trkpt>
      <trkpt lat="43.03268333" lon="-1.28378833">
        <ele>1162.0</ele>
        <time>2019-08-01T09:27:08.011Z</time>
      </trkpt>
      <trkpt lat="43.03268333" lon="-1.28380333">
        <ele>1162.0</ele>
        <time>2019-08-01T09:27:09.016Z</time>
      </trkpt>
      <trkpt lat="43.03268333" lon="-1.28382">
        <ele>1162.0</ele>
        <time>2019-08-01T09:27:10.021Z</time>
      </trkpt>
      <trkpt lat="43.03268" lon="-1.28383833">
        <ele>1163.0</ele>
        <time>2019-08-01T09:27:11.027Z</time>
      </trkpt>
      <trkpt lat="43.03267333" lon="-1.28386167">
        <ele>1164.0</ele>
        <time>2019-08-01T09:27:12.034Z</time>
      </trkpt>
      <trkpt lat="43.03267" lon="-1.28387667">
        <ele>1164.0</ele>
        <time>2019-08-01T09:27:13.039Z</time>
      </trkpt>
      <trkpt lat="43.03267167" lon="-1.28389333">
        <ele>1164.0</ele>
        <time>2019-08-01T09:27:13.918Z</time>
      </trkpt>
      <trkpt lat="43.032675" lon="-1.28390333">
        <ele>1164.0</ele>
        <time>2019-08-01T09:27:14.924Z</time>
      </trkpt>
      <trkpt lat="43.03268333" lon="-1.28391167">
        <ele>1164.0</ele>
        <time>2019-08-01T09:27:15.930Z</time>
      </trkpt>
      <trkpt lat="43.03268833" lon="-1.28391833">
        <ele>1164.0</ele>
        <time>2019-08-01T09:27:16.934Z</time>
      </trkpt>
      <trkpt lat="43.03269" lon="-1.283935">
        <ele>1164.0</ele>
        <time>2019-08-01T09:27:17.939Z</time>
      </trkpt>
      <trkpt lat="43.03268833" lon="-1.28395167">
        <ele>1164.0</ele>
        <time>2019-08-01T09:27:18.947Z</time>
      </trkpt>
      <trkpt lat="43.03268667" lon="-1.28397">
        <ele>1164.0</ele>
        <time>2019-08-01T09:27:19.952Z</time>
      </trkpt>
      <trkpt lat="43.03268667" lon="-1.283985">
        <ele>1164.0</ele>
        <time>2019-08-01T09:27:20.957Z</time>
      </trkpt>
      <trkpt lat="43.03268333" lon="-1.284">
        <ele>1165.0</ele>
        <time>2019-08-01T09:27:21.963Z</time>
      </trkpt>
      <trkpt lat="43.03268" lon="-1.28401167">
        <ele>1165.0</ele>
        <time>2019-08-01T09:27:22.969Z</time>
      </trkpt>
      <trkpt lat="43.03267667" lon="-1.28402833">
        <ele>1167.0</ele>
        <time>2019-08-01T09:27:23.974Z</time>
      </trkpt>
      <trkpt lat="43.03267833" lon="-1.28404">
        <ele>1167.0</ele>
        <time>2019-08-01T09:27:24.980Z</time>
      </trkpt>
      <trkpt lat="43.03268333" lon="-1.28405167">
        <ele>1167.0</ele>
        <time>2019-08-01T09:27:25.986Z</time>
      </trkpt>
      <trkpt lat="43.03268833" lon="-1.28406833">
        <ele>1166.0</ele>
        <time>2019-08-01T09:27:26.992Z</time>
      </trkpt>
      <trkpt lat="43.03269" lon="-1.28409333">
        <ele>1165.0</ele>
        <time>2019-08-01T09:27:27.998Z</time>
      </trkpt>
      <trkpt lat="43.03269167" lon="-1.28411833">
        <ele>1164.0</ele>
        <time>2019-08-01T09:27:29.005Z</time>
      </trkpt>
      <trkpt lat="43.03269167" lon="-1.284135">
        <ele>1164.0</ele>
        <time>2019-08-01T09:27:30.010Z</time>
      </trkpt>
      <trkpt lat="43.03268833" lon="-1.28415167">
        <ele>1164.0</ele>
        <time>2019-08-01T09:27:31.017Z</time>
      </trkpt>
      <trkpt lat="43.032685" lon="-1.28417">
        <ele>1165.0</ele>
        <time>2019-08-01T09:27:32.024Z</time>
      </trkpt>
      <trkpt lat="43.03268167" lon="-1.28418667">
        <ele>1165.0</ele>
        <time>2019-08-01T09:27:33.032Z</time>
      </trkpt>
      <trkpt lat="43.03267833" lon="-1.284205">
        <ele>1165.0</ele>
        <time>2019-08-01T09:27:34.035Z</time>
      </trkpt>
      <trkpt lat="43.03267167" lon="-1.28422333">
        <ele>1166.0</ele>
        <time>2019-08-01T09:27:35.042Z</time>
      </trkpt>
      <trkpt lat="43.032665" lon="-1.28423833">
        <ele>1166.0</ele>
        <time>2019-08-01T09:27:35.922Z</time>
      </trkpt>
      <trkpt lat="43.03266" lon="-1.28425167">
        <ele>1167.0</ele>
        <time>2019-08-01T09:27:36.928Z</time>
      </trkpt>
      <trkpt lat="43.03265667" lon="-1.28426333">
        <ele>1168.0</ele>
        <time>2019-08-01T09:27:37.934Z</time>
      </trkpt>
      <trkpt lat="43.032655" lon="-1.28427833">
        <ele>1169.0</ele>
        <time>2019-08-01T09:27:38.941Z</time>
      </trkpt>
      <trkpt lat="43.032655" lon="-1.28429333">
        <ele>1169.0</ele>
        <time>2019-08-01T09:27:39.948Z</time>
      </trkpt>
      <trkpt lat="43.03265167" lon="-1.28430667">
        <ele>1170.0</ele>
        <time>2019-08-01T09:27:40.954Z</time>
      </trkpt>
      <trkpt lat="43.032655" lon="-1.28432333">
        <ele>1169.0</ele>
        <time>2019-08-01T09:27:41.961Z</time>
      </trkpt>
      <trkpt lat="43.03265333" lon="-1.28434167">
        <ele>1169.0</ele>
        <time>2019-08-01T09:27:42.968Z</time>
      </trkpt>
      <trkpt lat="43.03265167" lon="-1.28436167">
        <ele>1169.0</ele>
        <time>2019-08-01T09:27:43.973Z</time>
      </trkpt>
      <trkpt lat="43.03264833" lon="-1.28437833">
        <ele>1169.0</ele>
        <time>2019-08-01T09:27:44.978Z</time>
      </trkpt>
      <trkpt lat="43.03264833" lon="-1.28439167">
        <ele>1169.0</ele>
        <time>2019-08-01T09:27:45.985Z</time>
      </trkpt>
      <trkpt lat="43.03265167" lon="-1.28440167">
        <ele>1169.0</ele>
        <time>2019-08-01T09:27:46.991Z</time>
      </trkpt>
      <trkpt lat="43.032655" lon="-1.28442">
        <ele>1168.0</ele>
        <time>2019-08-01T09:27:47.998Z</time>
      </trkpt>
      <trkpt lat="43.03265833" lon="-1.28443167">
        <ele>1168.0</ele>
        <time>2019-08-01T09:27:49.003Z</time>
      </trkpt>
      <trkpt lat="43.03266" lon="-1.28444333">
        <ele>1168.0</ele>
        <time>2019-08-01T09:27:50.009Z</time>
      </trkpt>
      <trkpt lat="43.032665" lon="-1.28445167">
        <ele>1168.0</ele>
        <time>2019-08-01T09:27:51.013Z</time>
      </trkpt>
      <trkpt lat="43.03267" lon="-1.28446333">
        <ele>1168.0</ele>
        <time>2019-08-01T09:27:52.018Z</time>
      </trkpt>
      <trkpt lat="43.03267667" lon="-1.28447167">
        <ele>1168.0</ele>
        <time>2019-08-01T09:27:53.022Z</time>
      </trkpt>
      <trkpt lat="43.03268" lon="-1.28448167">
        <ele>1168.0</ele>
        <time>2019-08-01T09:27:54.029Z</time>
      </trkpt>
      <trkpt lat="43.032685" lon="-1.28449167">
        <ele>1167.0</ele>
        <time>2019-08-01T09:27:55.034Z</time>
      </trkpt>
      <trkpt lat="43.03268167" lon="-1.28450833">
        <ele>1168.0</ele>
        <time>2019-08-01T09:27:56.039Z</time>
      </trkpt>
      <trkpt lat="43.03267667" lon="-1.28453">
        <ele>1168.0</ele>
        <time>2019-08-01T09:27:56.919Z</time>
      </trkpt>
      <trkpt lat="43.032675" lon="-1.28454333">
        <ele>1169.0</ele>
        <time>2019-08-01T09:27:57.924Z</time>
      </trkpt>
      <trkpt lat="43.032675" lon="-1.284555">
        <ele>1169.0</ele>
        <time>2019-08-01T09:27:58.930Z</time>
      </trkpt>
      <trkpt lat="43.032675" lon="-1.28456667">
        <ele>1169.0</ele>
        <time>2019-08-01T09:27:59.936Z</time>
      </trkpt>
      <trkpt lat="43.032675" lon="-1.28457833">
        <ele>1168.0</ele>
        <time>2019-08-01T09:28:00.942Z</time>
      </trkpt>
      <trkpt lat="43.03267333" lon="-1.28459">
        <ele>1168.0</ele>
        <time>2019-08-01T09:28:01.947Z</time>
      </trkpt>
      <trkpt lat="43.03267333" lon="-1.28459833">
        <ele>1168.0</ele>
        <time>2019-08-01T09:28:02.951Z</time>
      </trkpt>
      <trkpt lat="43.03267333" lon="-1.28461">
        <ele>1169.0</ele>
        <time>2019-08-01T09:28:03.959Z</time>
      </trkpt>
      <trkpt lat="43.03267333" lon="-1.284625">
        <ele>1169.0</ele>
        <time>2019-08-01T09:28:04.963Z</time>
      </trkpt>
      <trkpt lat="43.03267833" lon="-1.28463833">
        <ele>1169.0</ele>
        <time>2019-08-01T09:28:05.967Z</time>
      </trkpt>
      <trkpt lat="43.03267833" lon="-1.284655">
        <ele>1168.0</ele>
        <time>2019-08-01T09:28:06.970Z</time>
      </trkpt>
      <trkpt lat="43.03267667" lon="-1.28467">
        <ele>1169.0</ele>
        <time>2019-08-01T09:28:07.975Z</time>
      </trkpt>
      <trkpt lat="43.032675" lon="-1.28469333">
        <ele>1169.0</ele>
        <time>2019-08-01T09:28:08.979Z</time>
      </trkpt>
      <trkpt lat="43.03267167" lon="-1.284715">
        <ele>1168.0</ele>
        <time>2019-08-01T09:28:09.985Z</time>
      </trkpt>
      <trkpt lat="43.03267333" lon="-1.28473">
        <ele>1168.0</ele>
        <time>2019-08-01T09:28:10.989Z</time>
      </trkpt>
      <trkpt lat="43.03266833" lon="-1.28475">
        <ele>1168.0</ele>
        <time>2019-08-01T09:28:11.996Z</time>
      </trkpt>
      <trkpt lat="43.03266" lon="-1.28476667">
        <ele>1168.0</ele>
        <time>2019-08-01T09:28:13.001Z</time>
      </trkpt>
      <trkpt lat="43.03266333" lon="-1.28477667">
        <ele>1168.0</ele>
        <time>2019-08-01T09:28:14.006Z</time>
      </trkpt>
      <trkpt lat="43.03265667" lon="-1.28479167">
        <ele>1169.0</ele>
        <time>2019-08-01T09:28:15.011Z</time>
      </trkpt>
      <trkpt lat="43.03265" lon="-1.28481">
        <ele>1169.0</ele>
        <time>2019-08-01T09:28:16.014Z</time>
      </trkpt>
      <trkpt lat="43.032645" lon="-1.28482833">
        <ele>1169.0</ele>
        <time>2019-08-01T09:28:17.019Z</time>
      </trkpt>
      <trkpt lat="43.032645" lon="-1.28483833">
        <ele>1169.0</ele>
        <time>2019-08-01T09:28:18.023Z</time>
      </trkpt>
      <trkpt lat="43.032635" lon="-1.284855">
        <ele>1170.0</ele>
        <time>2019-08-01T09:28:19.028Z</time>
      </trkpt>
      <trkpt lat="43.032625" lon="-1.28487333">
        <ele>1171.0</ele>
        <time>2019-08-01T09:28:20.033Z</time>
      </trkpt>
      <trkpt lat="43.032615" lon="-1.28488667">
        <ele>1171.0</ele>
        <time>2019-08-01T09:28:21.041Z</time>
      </trkpt>
      <trkpt lat="43.032605" lon="-1.2849">
        <ele>1171.0</ele>
        <time>2019-08-01T09:28:21.921Z</time>
      </trkpt>
      <trkpt lat="43.03259167" lon="-1.28490667">
        <ele>1172.0</ele>
        <time>2019-08-01T09:28:22.928Z</time>
      </trkpt>
      <trkpt lat="43.03258333" lon="-1.28492167">
        <ele>1172.0</ele>
        <time>2019-08-01T09:28:23.932Z</time>
      </trkpt>
      <trkpt lat="43.03257667" lon="-1.284935">
        <ele>1172.0</ele>
        <time>2019-08-01T09:28:24.938Z</time>
      </trkpt>
      <trkpt lat="43.03256833" lon="-1.28494833">
        <ele>1172.0</ele>
        <time>2019-08-01T09:28:25.945Z</time>
      </trkpt>
      <trkpt lat="43.03255833" lon="-1.28496333">
        <ele>1171.0</ele>
        <time>2019-08-01T09:28:26.951Z</time>
      </trkpt>
      <trkpt lat="43.03254333" lon="-1.284985">
        <ele>1172.0</ele>
        <time>2019-08-01T09:28:27.959Z</time>
      </trkpt>
      <trkpt lat="43.03253167" lon="-1.285">
        <ele>1173.0</ele>
        <time>2019-08-01T09:28:28.966Z</time>
      </trkpt>
      <trkpt lat="43.03252833" lon="-1.285">
        <ele>1174.0</ele>
        <time>2019-08-01T09:28:29.971Z</time>
      </trkpt>
      <trkpt lat="43.03252667" lon="-1.28501833">
        <ele>1173.0</ele>
        <time>2019-08-01T09:28:30.976Z</time>
      </trkpt>
      <trkpt lat="43.03252333" lon="-1.285035">
        <ele>1172.0</ele>
        <time>2019-08-01T09:28:31.981Z</time>
      </trkpt>
      <trkpt lat="43.03252167" lon="-1.28504833">
        <ele>1172.0</ele>
        <time>2019-08-01T09:28:32.985Z</time>
      </trkpt>
      <trkpt lat="43.032515" lon="-1.28506">
        <ele>1171.0</ele>
        <time>2019-08-01T09:28:33.991Z</time>
      </trkpt>
      <trkpt lat="43.03250333" lon="-1.28507">
        <ele>1171.0</ele>
        <time>2019-08-01T09:28:34.998Z</time>
      </trkpt>
      <trkpt lat="43.03248" lon="-1.285095">
        <ele>1172.0</ele>
        <time>2019-08-01T09:28:36.003Z</time>
      </trkpt>
      <trkpt lat="43.03247167" lon="-1.2851">
        <ele>1172.0</ele>
        <time>2019-08-01T09:28:37.009Z</time>
      </trkpt>
      <trkpt lat="43.03246" lon="-1.28511333">
        <ele>1172.0</ele>
        <time>2019-08-01T09:28:38.014Z</time>
      </trkpt>
      <trkpt lat="43.03245167" lon="-1.285125">
        <ele>1172.0</ele>
        <time>2019-08-01T09:28:39.021Z</time>
      </trkpt>
      <trkpt lat="43.03244333" lon="-1.28513833">
        <ele>1172.0</ele>
        <time>2019-08-01T09:28:40.027Z</time>
      </trkpt>
      <trkpt lat="43.03243333" lon="-1.28514833">
        <ele>1171.0</ele>
        <time>2019-08-01T09:28:41.033Z</time>
      </trkpt>
      <trkpt lat="43.03242333" lon="-1.28516">
        <ele>1171.0</ele>
        <time>2019-08-01T09:28:42.038Z</time>
      </trkpt>
      <trkpt lat="43.03241333" lon="-1.285175">
        <ele>1171.0</ele>
        <time>2019-08-01T09:28:42.919Z</time>
      </trkpt>
      <trkpt lat="43.03240167" lon="-1.285185">
        <ele>1171.0</ele>
        <time>2019-08-01T09:28:43.925Z</time>
      </trkpt>
      <trkpt lat="43.03239167" lon="-1.28519167">
        <ele>1172.0</ele>
        <time>2019-08-01T09:28:44.932Z</time>
      </trkpt>
      <trkpt lat="43.032385" lon="-1.28519667">
        <ele>1172.0</ele>
        <time>2019-08-01T09:28:45.939Z</time>
      </trkpt>
      <trkpt lat="43.03237167" lon="-1.28520667">
        <ele>1173.0</ele>
        <time>2019-08-01T09:28:46.945Z</time>
      </trkpt>
      <trkpt lat="43.03236167" lon="-1.28521333">
        <ele>1173.0</ele>
        <time>2019-08-01T09:28:47.950Z</time>
      </trkpt>
      <trkpt lat="43.032355" lon="-1.28522167">
        <ele>1174.0</ele>
        <time>2019-08-01T09:28:48.954Z</time>
      </trkpt>
      <trkpt lat="43.03234333" lon="-1.28523167">
        <ele>1174.0</ele>
        <time>2019-08-01T09:28:49.960Z</time>
      </trkpt>
      <trkpt lat="43.03233667" lon="-1.28524167">
        <ele>1175.0</ele>
        <time>2019-08-01T09:28:50.966Z</time>
      </trkpt>
      <trkpt lat="43.03232667" lon="-1.28524833">
        <ele>1175.0</ele>
        <time>2019-08-01T09:28:51.972Z</time>
      </trkpt>
      <trkpt lat="43.03231833" lon="-1.28525333">
        <ele>1176.0</ele>
        <time>2019-08-01T09:28:52.979Z</time>
      </trkpt>
      <trkpt lat="43.03231167" lon="-1.28526">
        <ele>1177.0</ele>
        <time>2019-08-01T09:28:53.985Z</time>
      </trkpt>
      <trkpt lat="43.0323" lon="-1.285275">
        <ele>1177.0</ele>
        <time>2019-08-01T09:28:54.991Z</time>
      </trkpt>
      <trkpt lat="43.032285" lon="-1.28528333">
        <ele>1177.0</ele>
        <time>2019-08-01T09:28:55.997Z</time>
      </trkpt>
      <trkpt lat="43.03226833" lon="-1.28528833">
        <ele>1177.0</ele>
        <time>2019-08-01T09:28:57.002Z</time>
      </trkpt>
      <trkpt lat="43.032255" lon="-1.285295">
        <ele>1177.0</ele>
        <time>2019-08-01T09:28:58.006Z</time>
      </trkpt>
      <trkpt lat="43.03224333" lon="-1.28530667">
        <ele>1178.0</ele>
        <time>2019-08-01T09:28:59.011Z</time>
      </trkpt>
      <trkpt lat="43.032235" lon="-1.28531667">
        <ele>1178.0</ele>
        <time>2019-08-01T09:29:00.018Z</time>
      </trkpt>
      <trkpt lat="43.03222667" lon="-1.28532667">
        <ele>1178.0</ele>
        <time>2019-08-01T09:29:01.024Z</time>
      </trkpt>
      <trkpt lat="43.03221667" lon="-1.28534">
        <ele>1179.0</ele>
        <time>2019-08-01T09:29:02.030Z</time>
      </trkpt>
      <trkpt lat="43.03221" lon="-1.28535333">
        <ele>1180.0</ele>
        <time>2019-08-01T09:29:03.037Z</time>
      </trkpt>
      <trkpt lat="43.0322" lon="-1.28536333">
        <ele>1180.0</ele>
        <time>2019-08-01T09:29:04.042Z</time>
      </trkpt>
      <trkpt lat="43.03219667" lon="-1.28537167">
        <ele>1180.0</ele>
        <time>2019-08-01T09:29:04.923Z</time>
      </trkpt>
      <trkpt lat="43.03218833" lon="-1.28538667">
        <ele>1181.0</ele>
        <time>2019-08-01T09:29:05.929Z</time>
      </trkpt>
      <trkpt lat="43.032185" lon="-1.28539833">
        <ele>1182.0</ele>
        <time>2019-08-01T09:29:06.935Z</time>
      </trkpt>
      <trkpt lat="43.032175" lon="-1.28541">
        <ele>1183.0</ele>
        <time>2019-08-01T09:29:07.941Z</time>
      </trkpt>
      <trkpt lat="43.03216833" lon="-1.28542167">
        <ele>1183.0</ele>
        <time>2019-08-01T09:29:08.948Z</time>
      </trkpt>
      <trkpt lat="43.03216333" lon="-1.28543333">
        <ele>1184.0</ele>
        <time>2019-08-01T09:29:09.955Z</time>
      </trkpt>
      <trkpt lat="43.032155" lon="-1.28544667">
        <ele>1185.0</ele>
        <time>2019-08-01T09:29:10.963Z</time>
      </trkpt>
      <trkpt lat="43.03214833" lon="-1.28546167">
        <ele>1186.0</ele>
        <time>2019-08-01T09:29:11.972Z</time>
      </trkpt>
      <trkpt lat="43.032145" lon="-1.28547">
        <ele>1187.0</ele>
        <time>2019-08-01T09:29:12.978Z</time>
      </trkpt>
      <trkpt lat="43.03213667" lon="-1.28548">
        <ele>1188.0</ele>
        <time>2019-08-01T09:29:13.983Z</time>
      </trkpt>
      <trkpt lat="43.03213" lon="-1.28549167">
        <ele>1189.0</ele>
        <time>2019-08-01T09:29:14.988Z</time>
      </trkpt>
      <trkpt lat="43.03212333" lon="-1.2855">
        <ele>1189.0</ele>
        <time>2019-08-01T09:29:15.993Z</time>
      </trkpt>
      <trkpt lat="43.032115" lon="-1.285505">
        <ele>1190.0</ele>
        <time>2019-08-01T09:29:16.997Z</time>
      </trkpt>
      <trkpt lat="43.03210667" lon="-1.28551167">
        <ele>1191.0</ele>
        <time>2019-08-01T09:29:18.002Z</time>
      </trkpt>
      <trkpt lat="43.03209333" lon="-1.28551833">
        <ele>1192.0</ele>
        <time>2019-08-01T09:29:19.006Z</time>
      </trkpt>
      <trkpt lat="43.03208667" lon="-1.28552167">
        <ele>1193.0</ele>
        <time>2019-08-01T09:29:20.012Z</time>
      </trkpt>
      <trkpt lat="43.03208333" lon="-1.28552667">
        <ele>1193.0</ele>
        <time>2019-08-01T09:29:21.018Z</time>
      </trkpt>
      <trkpt lat="43.03207833" lon="-1.28553167">
        <ele>1194.0</ele>
        <time>2019-08-01T09:29:22.024Z</time>
      </trkpt>
      <trkpt lat="43.03207167" lon="-1.285535">
        <ele>1195.0</ele>
        <time>2019-08-01T09:29:23.029Z</time>
      </trkpt>
      <trkpt lat="43.03206333" lon="-1.28553833">
        <ele>1195.0</ele>
        <time>2019-08-01T09:29:24.035Z</time>
      </trkpt>
      <trkpt lat="43.03205833" lon="-1.28555333">
        <ele>1196.0</ele>
        <time>2019-08-01T09:29:25.040Z</time>
      </trkpt>
      <trkpt lat="43.03205333" lon="-1.28557">
        <ele>1198.0</ele>
        <time>2019-08-01T09:29:25.921Z</time>
      </trkpt>
      <trkpt lat="43.03204833" lon="-1.28558333">
        <ele>1199.0</ele>
        <time>2019-08-01T09:29:26.926Z</time>
      </trkpt>
      <trkpt lat="43.032045" lon="-1.28559">
        <ele>1200.0</ele>
        <time>2019-08-01T09:29:27.930Z</time>
      </trkpt>
      <trkpt lat="43.03204" lon="-1.28559667">
        <ele>1201.0</ele>
        <time>2019-08-01T09:29:28.934Z</time>
      </trkpt>
      <trkpt lat="43.032035" lon="-1.28560667">
        <ele>1201.0</ele>
        <time>2019-08-01T09:29:29.940Z</time>
      </trkpt>
      <trkpt lat="43.03203333" lon="-1.285615">
        <ele>1202.0</ele>
        <time>2019-08-01T09:29:30.948Z</time>
      </trkpt>
      <trkpt lat="43.03202833" lon="-1.28562833">
        <ele>1202.0</ele>
        <time>2019-08-01T09:29:31.953Z</time>
      </trkpt>
      <trkpt lat="43.03202833" lon="-1.28564167">
        <ele>1204.0</ele>
        <time>2019-08-01T09:29:32.958Z</time>
      </trkpt>
      <trkpt lat="43.03202333" lon="-1.28565333">
        <ele>1204.0</ele>
        <time>2019-08-01T09:29:33.961Z</time>
      </trkpt>
      <trkpt lat="43.03202" lon="-1.28566667">
        <ele>1205.0</ele>
        <time>2019-08-01T09:29:34.966Z</time>
      </trkpt>
      <trkpt lat="43.03200833" lon="-1.28567">
        <ele>1206.0</ele>
        <time>2019-08-01T09:29:35.970Z</time>
      </trkpt>
      <trkpt lat="43.03199667" lon="-1.28567667">
        <ele>1206.0</ele>
        <time>2019-08-01T09:29:36.974Z</time>
      </trkpt>
      <trkpt lat="43.031985" lon="-1.285685">
        <ele>1207.0</ele>
        <time>2019-08-01T09:29:37.982Z</time>
      </trkpt>
      <trkpt lat="43.03198" lon="-1.28569833">
        <ele>1207.0</ele>
        <time>2019-08-01T09:29:38.988Z</time>
      </trkpt>
      <trkpt lat="43.031975" lon="-1.28570833">
        <ele>1208.0</ele>
        <time>2019-08-01T09:29:39.993Z</time>
      </trkpt>
      <trkpt lat="43.03196833" lon="-1.28571167">
        <ele>1208.0</ele>
        <time>2019-08-01T09:29:40.999Z</time>
      </trkpt>
      <trkpt lat="43.03196333" lon="-1.28571667">
        <ele>1207.0</ele>
        <time>2019-08-01T09:29:42.006Z</time>
      </trkpt>
      <trkpt lat="43.031955" lon="-1.28572667">
        <ele>1208.0</ele>
        <time>2019-08-01T09:29:43.011Z</time>
      </trkpt>
      <trkpt lat="43.03195" lon="-1.28574">
        <ele>1207.0</ele>
        <time>2019-08-01T09:29:44.016Z</time>
      </trkpt>
      <trkpt lat="43.03194167" lon="-1.28574833">
        <ele>1207.0</ele>
        <time>2019-08-01T09:29:45.022Z</time>
      </trkpt>
      <trkpt lat="43.031945" lon="-1.28575333">
        <ele>1207.0</ele>
        <time>2019-08-01T09:29:46.027Z</time>
      </trkpt>
      <trkpt lat="43.03193667" lon="-1.28577333">
        <ele>1208.0</ele>
        <time>2019-08-01T09:29:47.031Z</time>
      </trkpt>
      <trkpt lat="43.03193333" lon="-1.28579167">
        <ele>1209.0</ele>
        <time>2019-08-01T09:29:48.039Z</time>
      </trkpt>
      <trkpt lat="43.03193" lon="-1.28579667">
        <ele>1209.0</ele>
        <time>2019-08-01T09:29:48.920Z</time>
      </trkpt>
      <trkpt lat="43.03192167" lon="-1.28579667">
        <ele>1209.0</ele>
        <time>2019-08-01T09:29:49.928Z</time>
      </trkpt>
      <trkpt lat="43.03191" lon="-1.28579667">
        <ele>1209.0</ele>
        <time>2019-08-01T09:29:50.935Z</time>
      </trkpt>
      <trkpt lat="43.03190333" lon="-1.28579667">
        <ele>1209.0</ele>
        <time>2019-08-01T09:29:51.942Z</time>
      </trkpt>
      <trkpt lat="43.03189" lon="-1.2858">
        <ele>1210.0</ele>
        <time>2019-08-01T09:29:52.949Z</time>
      </trkpt>
      <trkpt lat="43.03188667" lon="-1.285805">
        <ele>1209.0</ele>
        <time>2019-08-01T09:29:53.955Z</time>
      </trkpt>
      <trkpt lat="43.03188833" lon="-1.28582">
        <ele>1209.0</ele>
        <time>2019-08-01T09:29:54.960Z</time>
      </trkpt>
      <trkpt lat="43.03188167" lon="-1.285835">
        <ele>1210.0</ele>
        <time>2019-08-01T09:29:55.967Z</time>
      </trkpt>
      <trkpt lat="43.031875" lon="-1.285845">
        <ele>1210.0</ele>
        <time>2019-08-01T09:29:56.972Z</time>
      </trkpt>
      <trkpt lat="43.03187333" lon="-1.285855">
        <ele>1211.0</ele>
        <time>2019-08-01T09:29:57.977Z</time>
      </trkpt>
      <trkpt lat="43.03187" lon="-1.28586833">
        <ele>1212.0</ele>
        <time>2019-08-01T09:29:58.981Z</time>
      </trkpt>
      <trkpt lat="43.03187333" lon="-1.28588167">
        <ele>1213.0</ele>
        <time>2019-08-01T09:29:59.987Z</time>
      </trkpt>
      <trkpt lat="43.03187333" lon="-1.285895">
        <ele>1213.0</ele>
        <time>2019-08-01T09:30:00.994Z</time>
      </trkpt>
      <trkpt lat="43.03187167" lon="-1.28590333">
        <ele>1214.0</ele>
        <time>2019-08-01T09:30:02.001Z</time>
      </trkpt>
      <trkpt lat="43.03187" lon="-1.285915">
        <ele>1214.0</ele>
        <time>2019-08-01T09:30:03.006Z</time>
      </trkpt>
      <trkpt lat="43.03186667" lon="-1.285925">
        <ele>1215.0</ele>
        <time>2019-08-01T09:30:04.012Z</time>
      </trkpt>
      <trkpt lat="43.03186667" lon="-1.28593833">
        <ele>1216.0</ele>
        <time>2019-08-01T09:30:05.018Z</time>
      </trkpt>
      <trkpt lat="43.031865" lon="-1.28595">
        <ele>1216.0</ele>
        <time>2019-08-01T09:30:06.024Z</time>
      </trkpt>
      <trkpt lat="43.03186" lon="-1.28596">
        <ele>1216.0</ele>
        <time>2019-08-01T09:30:07.032Z</time>
      </trkpt>
      <trkpt lat="43.031855" lon="-1.28597333">
        <ele>1217.0</ele>
        <time>2019-08-01T09:30:08.039Z</time>
      </trkpt>
      <trkpt lat="43.03185" lon="-1.28598667">
        <ele>1217.0</ele>
        <time>2019-08-01T09:30:08.918Z</time>
      </trkpt>
      <trkpt lat="43.03184167" lon="-1.286005">
        <ele>1217.0</ele>
        <time>2019-08-01T09:30:09.925Z</time>
      </trkpt>
      <trkpt lat="43.03183833" lon="-1.28601667">
        <ele>1217.0</ele>
        <time>2019-08-01T09:30:10.931Z</time>
      </trkpt>
      <trkpt lat="43.03183333" lon="-1.286025">
        <ele>1216.0</ele>
        <time>2019-08-01T09:30:11.939Z</time>
      </trkpt>
      <trkpt lat="43.03182167" lon="-1.28603833">
        <ele>1216.0</ele>
        <time>2019-08-01T09:30:12.945Z</time>
      </trkpt>
      <trkpt lat="43.031815" lon="-1.28605333">
        <ele>1217.0</ele>
        <time>2019-08-01T09:30:13.952Z</time>
      </trkpt>
      <trkpt lat="43.03181167" lon="-1.28606667">
        <ele>1217.0</ele>
        <time>2019-08-01T09:30:14.959Z</time>
      </trkpt>
      <trkpt lat="43.03181167" lon="-1.28608167">
        <ele>1217.0</ele>
        <time>2019-08-01T09:30:15.965Z</time>
      </trkpt>
      <trkpt lat="43.03181333" lon="-1.28609833">
        <ele>1217.0</ele>
        <time>2019-08-01T09:30:16.970Z</time>
      </trkpt>
      <trkpt lat="43.03181333" lon="-1.28611667">
        <ele>1218.0</ele>
        <time>2019-08-01T09:30:17.974Z</time>
      </trkpt>
      <trkpt lat="43.03181333" lon="-1.28613333">
        <ele>1218.0</ele>
        <time>2019-08-01T09:30:18.982Z</time>
      </trkpt>
      <trkpt lat="43.03181333" lon="-1.28614667">
        <ele>1219.0</ele>
        <time>2019-08-01T09:30:19.987Z</time>
      </trkpt>
      <trkpt lat="43.031815" lon="-1.286165">
        <ele>1219.0</ele>
        <time>2019-08-01T09:30:20.993Z</time>
      </trkpt>
      <trkpt lat="43.03181333" lon="-1.28618">
        <ele>1218.0</ele>
        <time>2019-08-01T09:30:22.000Z</time>
      </trkpt>
      <trkpt lat="43.0318" lon="-1.28619333">
        <ele>1217.0</ele>
        <time>2019-08-01T09:30:23.005Z</time>
      </trkpt>
      <trkpt lat="43.03178833" lon="-1.28620167">
        <ele>1217.0</ele>
        <time>2019-08-01T09:30:24.008Z</time>
      </trkpt>
      <trkpt lat="43.031775" lon="-1.28621167">
        <ele>1217.0</ele>
        <time>2019-08-01T09:30:25.013Z</time>
      </trkpt>
      <trkpt lat="43.03176167" lon="-1.28621667">
        <ele>1216.0</ele>
        <time>2019-08-01T09:30:26.020Z</time>
      </trkpt>
      <trkpt lat="43.03176" lon="-1.28622333">
        <ele>1216.0</ele>
        <time>2019-08-01T09:30:27.026Z</time>
      </trkpt>
      <trkpt lat="43.03175667" lon="-1.286235">
        <ele>1217.0</ele>
        <time>2019-08-01T09:30:28.030Z</time>
      </trkpt>
      <trkpt lat="43.03174667" lon="-1.28625">
        <ele>1217.0</ele>
        <time>2019-08-01T09:30:29.035Z</time>
      </trkpt>
      <trkpt lat="43.03174333" lon="-1.28626667">
        <ele>1217.0</ele>
        <time>2019-08-01T09:30:30.039Z</time>
      </trkpt>
      <trkpt lat="43.03174167" lon="-1.28627667">
        <ele>1217.0</ele>
        <time>2019-08-01T09:30:31.043Z</time>
      </trkpt>
      <trkpt lat="43.03172667" lon="-1.28628333">
        <ele>1217.0</ele>
        <time>2019-08-01T09:30:31.923Z</time>
      </trkpt>
      <trkpt lat="43.03172" lon="-1.28629167">
        <ele>1217.0</ele>
        <time>2019-08-01T09:30:32.927Z</time>
      </trkpt>
      <trkpt lat="43.03171833" lon="-1.2863">
        <ele>1218.0</ele>
        <time>2019-08-01T09:30:33.934Z</time>
      </trkpt>
      <trkpt lat="43.03171167" lon="-1.28631">
        <ele>1218.0</ele>
        <time>2019-08-01T09:30:34.940Z</time>
      </trkpt>
      <trkpt lat="43.03170333" lon="-1.28631667">
        <ele>1219.0</ele>
        <time>2019-08-01T09:30:35.947Z</time>
      </trkpt>
      <trkpt lat="43.03169833" lon="-1.286325">
        <ele>1219.0</ele>
        <time>2019-08-01T09:30:36.953Z</time>
      </trkpt>
      <trkpt lat="43.03169167" lon="-1.28633167">
        <ele>1219.0</ele>
        <time>2019-08-01T09:30:37.957Z</time>
      </trkpt>
      <trkpt lat="43.03168333" lon="-1.28634">
        <ele>1219.0</ele>
        <time>2019-08-01T09:30:38.962Z</time>
      </trkpt>
      <trkpt lat="43.03167167" lon="-1.286345">
        <ele>1219.0</ele>
        <time>2019-08-01T09:30:39.968Z</time>
      </trkpt>
      <trkpt lat="43.03166667" lon="-1.28635333">
        <ele>1220.0</ele>
        <time>2019-08-01T09:30:40.971Z</time>
      </trkpt>
      <trkpt lat="43.03165667" lon="-1.28636167">
        <ele>1220.0</ele>
        <time>2019-08-01T09:30:41.977Z</time>
      </trkpt>
      <trkpt lat="43.03165167" lon="-1.286365">
        <ele>1221.0</ele>
        <time>2019-08-01T09:30:42.983Z</time>
      </trkpt>
      <trkpt lat="43.03164667" lon="-1.28637167">
        <ele>1222.0</ele>
        <time>2019-08-01T09:30:43.988Z</time>
      </trkpt>
      <trkpt lat="43.03163833" lon="-1.28637667">
        <ele>1222.0</ele>
        <time>2019-08-01T09:30:44.994Z</time>
      </trkpt>
      <trkpt lat="43.03163333" lon="-1.286385">
        <ele>1223.0</ele>
        <time>2019-08-01T09:30:46.001Z</time>
      </trkpt>
      <trkpt lat="43.03162667" lon="-1.286395">
        <ele>1223.0</ele>
        <time>2019-08-01T09:30:47.005Z</time>
      </trkpt>
      <trkpt lat="43.03162333" lon="-1.28640667">
        <ele>1224.0</ele>
        <time>2019-08-01T09:30:48.010Z</time>
      </trkpt>
      <trkpt lat="43.03161833" lon="-1.28641333">
        <ele>1225.0</ele>
        <time>2019-08-01T09:30:49.015Z</time>
      </trkpt>
      <trkpt lat="43.03161167" lon="-1.28641833">
        <ele>1226.0</ele>
        <time>2019-08-01T09:30:50.022Z</time>
      </trkpt>
      <trkpt lat="43.03160667" lon="-1.28642333">
        <ele>1225.0</ele>
        <time>2019-08-01T09:30:51.028Z</time>
      </trkpt>
      <trkpt lat="43.03160167" lon="-1.28643">
        <ele>1226.0</ele>
        <time>2019-08-01T09:30:52.033Z</time>
      </trkpt>
      <trkpt lat="43.03159333" lon="-1.286435">
        <ele>1225.0</ele>
        <time>2019-08-01T09:30:53.040Z</time>
      </trkpt>
      <trkpt lat="43.03158333" lon="-1.28644333">
        <ele>1225.0</ele>
        <time>2019-08-01T09:30:53.918Z</time>
      </trkpt>
      <trkpt lat="43.03158167" lon="-1.28645167">
        <ele>1225.0</ele>
        <time>2019-08-01T09:30:54.922Z</time>
      </trkpt>
      <trkpt lat="43.03158167" lon="-1.28646">
        <ele>1225.0</ele>
        <time>2019-08-01T09:30:55.928Z</time>
      </trkpt>
      <trkpt lat="43.031575" lon="-1.28647167">
        <ele>1226.0</ele>
        <time>2019-08-01T09:30:56.934Z</time>
      </trkpt>
      <trkpt lat="43.03156833" lon="-1.28647833">
        <ele>1226.0</ele>
        <time>2019-08-01T09:30:57.940Z</time>
      </trkpt>
      <trkpt lat="43.03155833" lon="-1.286485">
        <ele>1227.0</ele>
        <time>2019-08-01T09:30:58.946Z</time>
      </trkpt>
      <trkpt lat="43.03154833" lon="-1.28648833">
        <ele>1227.0</ele>
        <time>2019-08-01T09:30:59.952Z</time>
      </trkpt>
      <trkpt lat="43.03154167" lon="-1.28649333">
        <ele>1227.0</ele>
        <time>2019-08-01T09:31:00.960Z</time>
      </trkpt>
      <trkpt lat="43.03153333" lon="-1.28649667">
        <ele>1227.0</ele>
        <time>2019-08-01T09:31:01.965Z</time>
      </trkpt>
      <trkpt lat="43.031525" lon="-1.28650333">
        <ele>1227.0</ele>
        <time>2019-08-01T09:31:02.969Z</time>
      </trkpt>
      <trkpt lat="43.03151833" lon="-1.28651167">
        <ele>1227.0</ele>
        <time>2019-08-01T09:31:03.973Z</time>
      </trkpt>
      <trkpt lat="43.031515" lon="-1.28652167">
        <ele>1227.0</ele>
        <time>2019-08-01T09:31:04.979Z</time>
      </trkpt>
      <trkpt lat="43.03150667" lon="-1.28653667">
        <ele>1227.0</ele>
        <time>2019-08-01T09:31:05.983Z</time>
      </trkpt>
      <trkpt lat="43.0315" lon="-1.286545">
        <ele>1227.0</ele>
        <time>2019-08-01T09:31:06.989Z</time>
      </trkpt>
      <trkpt lat="43.03148667" lon="-1.28655167">
        <ele>1227.0</ele>
        <time>2019-08-01T09:31:07.995Z</time>
      </trkpt>
      <trkpt lat="43.03147167" lon="-1.286555">
        <ele>1228.0</ele>
        <time>2019-08-01T09:31:09.002Z</time>
      </trkpt>
      <trkpt lat="43.03146333" lon="-1.28655667">
        <ele>1228.0</ele>
        <time>2019-08-01T09:31:10.006Z</time>
      </trkpt>
      <trkpt lat="43.03145833" lon="-1.28656">
        <ele>1228.0</ele>
        <time>2019-08-01T09:31:11.011Z</time>
      </trkpt>
      <trkpt lat="43.03145333" lon="-1.28656667">
        <ele>1229.0</ele>
        <time>2019-08-01T09:31:12.015Z</time>
      </trkpt>
      <trkpt lat="43.031445" lon="-1.28657333">
        <ele>1229.0</ele>
        <time>2019-08-01T09:31:13.022Z</time>
      </trkpt>
      <trkpt lat="43.03143333" lon="-1.28657833">
        <ele>1230.0</ele>
        <time>2019-08-01T09:31:14.028Z</time>
      </trkpt>
      <trkpt lat="43.03142167" lon="-1.28658167">
        <ele>1230.0</ele>
        <time>2019-08-01T09:31:15.032Z</time>
      </trkpt>
      <trkpt lat="43.03140833" lon="-1.28658333">
        <ele>1230.0</ele>
        <time>2019-08-01T09:31:16.038Z</time>
      </trkpt>
      <trkpt lat="43.031395" lon="-1.28658333">
        <ele>1230.0</ele>
        <time>2019-08-01T09:31:17.043Z</time>
      </trkpt>
      <trkpt lat="43.03137667" lon="-1.28658667">
        <ele>1231.0</ele>
        <time>2019-08-01T09:31:17.920Z</time>
      </trkpt>
      <trkpt lat="43.031365" lon="-1.28658333">
        <ele>1231.0</ele>
        <time>2019-08-01T09:31:18.922Z</time>
      </trkpt>
      <trkpt lat="43.03135833" lon="-1.28658167">
        <ele>1231.0</ele>
        <time>2019-08-01T09:31:19.928Z</time>
      </trkpt>
      <trkpt lat="43.03135167" lon="-1.28657833">
        <ele>1232.0</ele>
        <time>2019-08-01T09:31:20.935Z</time>
      </trkpt>
      <trkpt lat="43.03134833" lon="-1.28658">
        <ele>1231.0</ele>
        <time>2019-08-01T09:31:21.940Z</time>
      </trkpt>
      <trkpt lat="43.03134333" lon="-1.28658833">
        <ele>1231.0</ele>
        <time>2019-08-01T09:31:22.944Z</time>
      </trkpt>
      <trkpt lat="43.03133833" lon="-1.28659167">
        <ele>1231.0</ele>
        <time>2019-08-01T09:31:23.949Z</time>
      </trkpt>
      <trkpt lat="43.03133" lon="-1.28659333">
        <ele>1232.0</ele>
        <time>2019-08-01T09:31:24.956Z</time>
      </trkpt>
      <trkpt lat="43.031315" lon="-1.28659833">
        <ele>1232.0</ele>
        <time>2019-08-01T09:31:25.961Z</time>
      </trkpt>
      <trkpt lat="43.03130333" lon="-1.2866">
        <ele>1233.0</ele>
        <time>2019-08-01T09:31:26.968Z</time>
      </trkpt>
      <trkpt lat="43.03129333" lon="-1.2866">
        <ele>1233.0</ele>
        <time>2019-08-01T09:31:27.974Z</time>
      </trkpt>
      <trkpt lat="43.031285" lon="-1.28660833">
        <ele>1234.0</ele>
        <time>2019-08-01T09:31:28.981Z</time>
      </trkpt>
      <trkpt lat="43.03127667" lon="-1.28661667">
        <ele>1234.0</ele>
        <time>2019-08-01T09:31:29.985Z</time>
      </trkpt>
      <trkpt lat="43.031275" lon="-1.28662833">
        <ele>1234.0</ele>
        <time>2019-08-01T09:31:30.990Z</time>
      </trkpt>
      <trkpt lat="43.03127667" lon="-1.28663333">
        <ele>1234.0</ele>
        <time>2019-08-01T09:31:31.992Z</time>
      </trkpt>
      <trkpt lat="43.03127333" lon="-1.28664167">
        <ele>1234.0</ele>
        <time>2019-08-01T09:31:32.995Z</time>
      </trkpt>
      <trkpt lat="43.03125667" lon="-1.28665167">
        <ele>1233.0</ele>
        <time>2019-08-01T09:31:34.001Z</time>
      </trkpt>
      <trkpt lat="43.031245" lon="-1.28666">
        <ele>1233.0</ele>
        <time>2019-08-01T09:31:35.006Z</time>
      </trkpt>
      <trkpt lat="43.03123667" lon="-1.28666833">
        <ele>1233.0</ele>
        <time>2019-08-01T09:31:36.011Z</time>
      </trkpt>
      <trkpt lat="43.03122833" lon="-1.28668167">
        <ele>1234.0</ele>
        <time>2019-08-01T09:31:37.019Z</time>
      </trkpt>
      <trkpt lat="43.031225" lon="-1.28669">
        <ele>1234.0</ele>
        <time>2019-08-01T09:31:38.025Z</time>
      </trkpt>
      <trkpt lat="43.03121667" lon="-1.2867">
        <ele>1235.0</ele>
        <time>2019-08-01T09:31:39.031Z</time>
      </trkpt>
      <trkpt lat="43.03121333" lon="-1.28670667">
        <ele>1236.0</ele>
        <time>2019-08-01T09:31:40.038Z</time>
      </trkpt>
      <trkpt lat="43.03120667" lon="-1.28671333">
        <ele>1236.0</ele>
        <time>2019-08-01T09:31:41.043Z</time>
      </trkpt>
      <trkpt lat="43.0312" lon="-1.28672">
        <ele>1237.0</ele>
        <time>2019-08-01T09:31:41.924Z</time>
      </trkpt>
      <trkpt lat="43.03119333" lon="-1.28673">
        <ele>1237.0</ele>
        <time>2019-08-01T09:31:42.928Z</time>
      </trkpt>
      <trkpt lat="43.03118167" lon="-1.28674167">
        <ele>1237.0</ele>
        <time>2019-08-01T09:31:43.936Z</time>
      </trkpt>
      <trkpt lat="43.031175" lon="-1.28674833">
        <ele>1238.0</ele>
        <time>2019-08-01T09:31:44.938Z</time>
      </trkpt>
      <trkpt lat="43.03116833" lon="-1.28676">
        <ele>1238.0</ele>
        <time>2019-08-01T09:31:45.940Z</time>
      </trkpt>
      <trkpt lat="43.03116" lon="-1.28676833">
        <ele>1238.0</ele>
        <time>2019-08-01T09:31:46.942Z</time>
      </trkpt>
      <trkpt lat="43.03115" lon="-1.28677667">
        <ele>1239.0</ele>
        <time>2019-08-01T09:31:47.943Z</time>
      </trkpt>
      <trkpt lat="43.03114" lon="-1.286785">
        <ele>1239.0</ele>
        <time>2019-08-01T09:31:48.945Z</time>
      </trkpt>
      <trkpt lat="43.03113" lon="-1.28679667">
        <ele>1239.0</ele>
        <time>2019-08-01T09:31:49.949Z</time>
      </trkpt>
      <trkpt lat="43.03112333" lon="-1.28680333">
        <ele>1239.0</ele>
        <time>2019-08-01T09:31:50.955Z</time>
      </trkpt>
      <trkpt lat="43.03111333" lon="-1.28681">
        <ele>1239.0</ele>
        <time>2019-08-01T09:31:51.961Z</time>
      </trkpt>
      <trkpt lat="43.03110333" lon="-1.28682">
        <ele>1239.0</ele>
        <time>2019-08-01T09:31:52.967Z</time>
      </trkpt>
      <trkpt lat="43.0311" lon="-1.28683833">
        <ele>1241.0</ele>
        <time>2019-08-01T09:31:53.971Z</time>
      </trkpt>
      <trkpt lat="43.03109333" lon="-1.28684667">
        <ele>1241.0</ele>
        <time>2019-08-01T09:31:54.973Z</time>
      </trkpt>
      <trkpt lat="43.03108667" lon="-1.28685333">
        <ele>1242.0</ele>
        <time>2019-08-01T09:31:55.977Z</time>
      </trkpt>
      <trkpt lat="43.03108167" lon="-1.286865">
        <ele>1242.0</ele>
        <time>2019-08-01T09:31:56.981Z</time>
      </trkpt>
      <trkpt lat="43.03106833" lon="-1.28687667">
        <ele>1243.0</ele>
        <time>2019-08-01T09:31:57.986Z</time>
      </trkpt>
      <trkpt lat="43.03106" lon="-1.28688667">
        <ele>1243.0</ele>
        <time>2019-08-01T09:31:58.992Z</time>
      </trkpt>
      <trkpt lat="43.03105167" lon="-1.28689333">
        <ele>1244.0</ele>
        <time>2019-08-01T09:31:59.997Z</time>
      </trkpt>
      <trkpt lat="43.03104167" lon="-1.28689833">
        <ele>1245.0</ele>
        <time>2019-08-01T09:32:01.004Z</time>
      </trkpt>
      <trkpt lat="43.03103" lon="-1.28690833">
        <ele>1245.0</ele>
        <time>2019-08-01T09:32:02.011Z</time>
      </trkpt>
      <trkpt lat="43.03102167" lon="-1.28692333">
        <ele>1246.0</ele>
        <time>2019-08-01T09:32:03.017Z</time>
      </trkpt>
      <trkpt lat="43.03102" lon="-1.28693833">
        <ele>1247.0</ele>
        <time>2019-08-01T09:32:04.024Z</time>
      </trkpt>
      <trkpt lat="43.031015" lon="-1.286955">
        <ele>1247.0</ele>
        <time>2019-08-01T09:32:05.029Z</time>
      </trkpt>
      <trkpt lat="43.031015" lon="-1.28696833">
        <ele>1246.0</ele>
        <time>2019-08-01T09:32:06.034Z</time>
      </trkpt>
      <trkpt lat="43.03101" lon="-1.28698333">
        <ele>1246.0</ele>
        <time>2019-08-01T09:32:07.040Z</time>
      </trkpt>
      <trkpt lat="43.03100667" lon="-1.287">
        <ele>1246.0</ele>
        <time>2019-08-01T09:32:07.920Z</time>
      </trkpt>
      <trkpt lat="43.031" lon="-1.28701">
        <ele>1245.0</ele>
        <time>2019-08-01T09:32:08.925Z</time>
      </trkpt>
      <trkpt lat="43.03099333" lon="-1.28702">
        <ele>1245.0</ele>
        <time>2019-08-01T09:32:09.931Z</time>
      </trkpt>
      <trkpt lat="43.03099333" lon="-1.287035">
        <ele>1245.0</ele>
        <time>2019-08-01T09:32:10.937Z</time>
      </trkpt>
      <trkpt lat="43.03099" lon="-1.28704167">
        <ele>1244.0</ele>
        <time>2019-08-01T09:32:11.943Z</time>
      </trkpt>
      <trkpt lat="43.030985" lon="-1.287055">
        <ele>1245.0</ele>
        <time>2019-08-01T09:32:12.950Z</time>
      </trkpt>
      <trkpt lat="43.03097833" lon="-1.28706833">
        <ele>1246.0</ele>
        <time>2019-08-01T09:32:13.954Z</time>
      </trkpt>
      <trkpt lat="43.03096833" lon="-1.28708667">
        <ele>1246.0</ele>
        <time>2019-08-01T09:32:14.960Z</time>
      </trkpt>
      <trkpt lat="43.03096167" lon="-1.28710167">
        <ele>1247.0</ele>
        <time>2019-08-01T09:32:15.967Z</time>
      </trkpt>
      <trkpt lat="43.03095833" lon="-1.28711333">
        <ele>1248.0</ele>
        <time>2019-08-01T09:32:16.974Z</time>
      </trkpt>
      <trkpt lat="43.03095333" lon="-1.28712833">
        <ele>1249.0</ele>
        <time>2019-08-01T09:32:17.981Z</time>
      </trkpt>
      <trkpt lat="43.03095333" lon="-1.28714333">
        <ele>1250.0</ele>
        <time>2019-08-01T09:32:18.985Z</time>
      </trkpt>
      <trkpt lat="43.030955" lon="-1.28716">
        <ele>1250.0</ele>
        <time>2019-08-01T09:32:19.989Z</time>
      </trkpt>
      <trkpt lat="43.030955" lon="-1.287175">
        <ele>1251.0</ele>
        <time>2019-08-01T09:32:20.994Z</time>
      </trkpt>
      <trkpt lat="43.030955" lon="-1.28719">
        <ele>1251.0</ele>
        <time>2019-08-01T09:32:22.000Z</time>
      </trkpt>
      <trkpt lat="43.03095" lon="-1.2872">
        <ele>1252.0</ele>
        <time>2019-08-01T09:32:23.006Z</time>
      </trkpt>
      <trkpt lat="43.03094833" lon="-1.28721">
        <ele>1253.0</ele>
        <time>2019-08-01T09:32:24.012Z</time>
      </trkpt>
      <trkpt lat="43.030945" lon="-1.28722">
        <ele>1254.0</ele>
        <time>2019-08-01T09:32:25.018Z</time>
      </trkpt>
      <trkpt lat="43.03094833" lon="-1.28723">
        <ele>1255.0</ele>
        <time>2019-08-01T09:32:26.021Z</time>
      </trkpt>
      <trkpt lat="43.03095167" lon="-1.28724167">
        <ele>1256.0</ele>
        <time>2019-08-01T09:32:27.025Z</time>
      </trkpt>
      <trkpt lat="43.03094833" lon="-1.287255">
        <ele>1257.0</ele>
        <time>2019-08-01T09:32:28.031Z</time>
      </trkpt>
      <trkpt lat="43.030945" lon="-1.287265">
        <ele>1258.0</ele>
        <time>2019-08-01T09:32:29.040Z</time>
      </trkpt>
      <trkpt lat="43.03094" lon="-1.28727667">
        <ele>1259.0</ele>
        <time>2019-08-01T09:32:29.919Z</time>
      </trkpt>
      <trkpt lat="43.030935" lon="-1.28729">
        <ele>1259.0</ele>
        <time>2019-08-01T09:32:30.926Z</time>
      </trkpt>
      <trkpt lat="43.03093167" lon="-1.28730167">
        <ele>1260.0</ele>
        <time>2019-08-01T09:32:31.929Z</time>
      </trkpt>
      <trkpt lat="43.03093333" lon="-1.28731667">
        <ele>1261.0</ele>
        <time>2019-08-01T09:32:32.935Z</time>
      </trkpt>
      <trkpt lat="43.03093" lon="-1.28733167">
        <ele>1262.0</ele>
        <time>2019-08-01T09:32:33.938Z</time>
      </trkpt>
      <trkpt lat="43.03092667" lon="-1.28734">
        <ele>1263.0</ele>
        <time>2019-08-01T09:32:34.944Z</time>
      </trkpt>
      <trkpt lat="43.03092" lon="-1.28735">
        <ele>1264.0</ele>
        <time>2019-08-01T09:32:35.951Z</time>
      </trkpt>
      <trkpt lat="43.03091833" lon="-1.28735833">
        <ele>1264.0</ele>
        <time>2019-08-01T09:32:36.959Z</time>
      </trkpt>
      <trkpt lat="43.03091167" lon="-1.28737167">
        <ele>1265.0</ele>
        <time>2019-08-01T09:32:37.966Z</time>
      </trkpt>
      <trkpt lat="43.03091" lon="-1.28738167">
        <ele>1264.0</ele>
        <time>2019-08-01T09:32:38.971Z</time>
      </trkpt>
      <trkpt lat="43.030905" lon="-1.28739167">
        <ele>1265.0</ele>
        <time>2019-08-01T09:32:39.976Z</time>
      </trkpt>
      <trkpt lat="43.03090167" lon="-1.287405">
        <ele>1266.0</ele>
        <time>2019-08-01T09:32:40.982Z</time>
      </trkpt>
      <trkpt lat="43.03090333" lon="-1.28741667">
        <ele>1267.0</ele>
        <time>2019-08-01T09:32:41.991Z</time>
      </trkpt>
      <trkpt lat="43.030905" lon="-1.28743">
        <ele>1269.0</ele>
        <time>2019-08-01T09:32:42.996Z</time>
      </trkpt>
      <trkpt lat="43.030905" lon="-1.28743833">
        <ele>1269.0</ele>
        <time>2019-08-01T09:32:44.004Z</time>
      </trkpt>
      <trkpt lat="43.0309" lon="-1.28744667">
        <ele>1270.0</ele>
        <time>2019-08-01T09:32:45.010Z</time>
      </trkpt>
      <trkpt lat="43.03089167" lon="-1.28745667">
        <ele>1271.0</ele>
        <time>2019-08-01T09:32:46.013Z</time>
      </trkpt>
      <trkpt lat="43.03088167" lon="-1.28746333">
        <ele>1271.0</ele>
        <time>2019-08-01T09:32:47.020Z</time>
      </trkpt>
      <trkpt lat="43.03087167" lon="-1.28747333">
        <ele>1272.0</ele>
        <time>2019-08-01T09:32:48.026Z</time>
      </trkpt>
      <trkpt lat="43.03086833" lon="-1.28748167">
        <ele>1273.0</ele>
        <time>2019-08-01T09:32:49.031Z</time>
      </trkpt>
      <trkpt lat="43.03086167" lon="-1.28749333">
        <ele>1274.0</ele>
        <time>2019-08-01T09:32:50.039Z</time>
      </trkpt>
      <trkpt lat="43.03086" lon="-1.28750667">
        <ele>1274.0</ele>
        <time>2019-08-01T09:32:50.919Z</time>
      </trkpt>
      <trkpt lat="43.03086167" lon="-1.28751667">
        <ele>1274.0</ele>
        <time>2019-08-01T09:32:51.926Z</time>
      </trkpt>
      <trkpt lat="43.03085667" lon="-1.28753333">
        <ele>1275.0</ele>
        <time>2019-08-01T09:32:52.932Z</time>
      </trkpt>
      <trkpt lat="43.03085333" lon="-1.28754833">
        <ele>1276.0</ele>
        <time>2019-08-01T09:32:53.939Z</time>
      </trkpt>
      <trkpt lat="43.03084833" lon="-1.28756333">
        <ele>1277.0</ele>
        <time>2019-08-01T09:32:54.946Z</time>
      </trkpt>
      <trkpt lat="43.03084667" lon="-1.28757333">
        <ele>1277.0</ele>
        <time>2019-08-01T09:32:55.951Z</time>
      </trkpt>
      <trkpt lat="43.03084833" lon="-1.28758167">
        <ele>1278.0</ele>
        <time>2019-08-01T09:32:56.957Z</time>
      </trkpt>
      <trkpt lat="43.03084333" lon="-1.287585">
        <ele>1278.0</ele>
        <time>2019-08-01T09:32:57.962Z</time>
      </trkpt>
      <trkpt lat="43.03083667" lon="-1.28759667">
        <ele>1279.0</ele>
        <time>2019-08-01T09:32:58.966Z</time>
      </trkpt>
      <trkpt lat="43.03083167" lon="-1.28761333">
        <ele>1280.0</ele>
        <time>2019-08-01T09:32:59.971Z</time>
      </trkpt>
      <trkpt lat="43.03083167" lon="-1.28762333">
        <ele>1280.0</ele>
        <time>2019-08-01T09:33:00.978Z</time>
      </trkpt>
      <trkpt lat="43.03082833" lon="-1.287635">
        <ele>1281.0</ele>
        <time>2019-08-01T09:33:01.985Z</time>
      </trkpt>
      <trkpt lat="43.030825" lon="-1.28764333">
        <ele>1281.0</ele>
        <time>2019-08-01T09:33:02.991Z</time>
      </trkpt>
      <trkpt lat="43.03081833" lon="-1.28765333">
        <ele>1280.0</ele>
        <time>2019-08-01T09:33:03.997Z</time>
      </trkpt>
      <trkpt lat="43.030815" lon="-1.28766833">
        <ele>1281.0</ele>
        <time>2019-08-01T09:33:05.003Z</time>
      </trkpt>
      <trkpt lat="43.030815" lon="-1.28768">
        <ele>1281.0</ele>
        <time>2019-08-01T09:33:06.010Z</time>
      </trkpt>
      <trkpt lat="43.03080667" lon="-1.28769333">
        <ele>1281.0</ele>
        <time>2019-08-01T09:33:07.016Z</time>
      </trkpt>
      <trkpt lat="43.03080667" lon="-1.287705">
        <ele>1281.0</ele>
        <time>2019-08-01T09:33:08.019Z</time>
      </trkpt>
      <trkpt lat="43.03080167" lon="-1.287715">
        <ele>1282.0</ele>
        <time>2019-08-01T09:33:09.025Z</time>
      </trkpt>
      <trkpt lat="43.030795" lon="-1.287725">
        <ele>1282.0</ele>
        <time>2019-08-01T09:33:10.031Z</time>
      </trkpt>
      <trkpt lat="43.03079" lon="-1.28773333">
        <ele>1283.0</ele>
        <time>2019-08-01T09:33:11.037Z</time>
      </trkpt>
      <trkpt lat="43.03078167" lon="-1.28773833">
        <ele>1283.0</ele>
        <time>2019-08-01T09:33:11.918Z</time>
      </trkpt>
      <trkpt lat="43.030775" lon="-1.28775">
        <ele>1283.0</ele>
        <time>2019-08-01T09:33:12.925Z</time>
      </trkpt>
      <trkpt lat="43.03076833" lon="-1.28776">
        <ele>1283.0</ele>
        <time>2019-08-01T09:33:13.930Z</time>
      </trkpt>
      <trkpt lat="43.03076167" lon="-1.28777">
        <ele>1284.0</ele>
        <time>2019-08-01T09:33:14.937Z</time>
      </trkpt>
      <trkpt lat="43.03075667" lon="-1.28777667">
        <ele>1284.0</ele>
        <time>2019-08-01T09:33:15.944Z</time>
      </trkpt>
      <trkpt lat="43.03075167" lon="-1.287785">
        <ele>1284.0</ele>
        <time>2019-08-01T09:33:16.949Z</time>
      </trkpt>
      <trkpt lat="43.03074667" lon="-1.28779667">
        <ele>1285.0</ele>
        <time>2019-08-01T09:33:17.954Z</time>
      </trkpt>
      <trkpt lat="43.03073833" lon="-1.287805">
        <ele>1285.0</ele>
        <time>2019-08-01T09:33:18.962Z</time>
      </trkpt>
      <trkpt lat="43.03073667" lon="-1.28781667">
        <ele>1285.0</ele>
        <time>2019-08-01T09:33:19.968Z</time>
      </trkpt>
      <trkpt lat="43.030735" lon="-1.28782833">
        <ele>1286.0</ele>
        <time>2019-08-01T09:33:20.974Z</time>
      </trkpt>
      <trkpt lat="43.03072833" lon="-1.28784">
        <ele>1288.0</ele>
        <time>2019-08-01T09:33:21.981Z</time>
      </trkpt>
      <trkpt lat="43.030715" lon="-1.28785167">
        <ele>1288.0</ele>
        <time>2019-08-01T09:33:22.984Z</time>
      </trkpt>
      <trkpt lat="43.03070833" lon="-1.287865">
        <ele>1288.0</ele>
        <time>2019-08-01T09:33:23.989Z</time>
      </trkpt>
      <trkpt lat="43.0307" lon="-1.28788167">
        <ele>1287.0</ele>
        <time>2019-08-01T09:33:24.995Z</time>
      </trkpt>
      <trkpt lat="43.03069" lon="-1.28789667">
        <ele>1287.0</ele>
        <time>2019-08-01T09:33:25.999Z</time>
      </trkpt>
      <trkpt lat="43.03068" lon="-1.28790833">
        <ele>1286.0</ele>
        <time>2019-08-01T09:33:27.004Z</time>
      </trkpt>
      <trkpt lat="43.03067167" lon="-1.287925">
        <ele>1285.0</ele>
        <time>2019-08-01T09:33:28.011Z</time>
      </trkpt>
      <trkpt lat="43.03066" lon="-1.28793333">
        <ele>1285.0</ele>
        <time>2019-08-01T09:33:29.014Z</time>
      </trkpt>
      <trkpt lat="43.03065333" lon="-1.28793833">
        <ele>1285.0</ele>
        <time>2019-08-01T09:33:30.020Z</time>
      </trkpt>
      <trkpt lat="43.03065" lon="-1.28794667">
        <ele>1285.0</ele>
        <time>2019-08-01T09:33:31.026Z</time>
      </trkpt>
      <trkpt lat="43.03064333" lon="-1.28795667">
        <ele>1285.0</ele>
        <time>2019-08-01T09:33:32.032Z</time>
      </trkpt>
      <trkpt lat="43.03063833" lon="-1.28796833">
        <ele>1285.0</ele>
        <time>2019-08-01T09:33:33.036Z</time>
      </trkpt>
      <trkpt lat="43.03062667" lon="-1.287975">
        <ele>1285.0</ele>
        <time>2019-08-01T09:33:34.041Z</time>
      </trkpt>
      <trkpt lat="43.030615" lon="-1.28798">
        <ele>1285.0</ele>
        <time>2019-08-01T09:33:34.921Z</time>
      </trkpt>
      <trkpt lat="43.03060333" lon="-1.28798667">
        <ele>1284.0</ele>
        <time>2019-08-01T09:33:35.926Z</time>
      </trkpt>
      <trkpt lat="43.03059167" lon="-1.28799667">
        <ele>1284.0</ele>
        <time>2019-08-01T09:33:36.929Z</time>
      </trkpt>
      <trkpt lat="43.030585" lon="-1.288005">
        <ele>1284.0</ele>
        <time>2019-08-01T09:33:37.936Z</time>
      </trkpt>
      <trkpt lat="43.030575" lon="-1.28801333">
        <ele>1284.0</ele>
        <time>2019-08-01T09:33:38.941Z</time>
      </trkpt>
      <trkpt lat="43.03056167" lon="-1.28802333">
        <ele>1285.0</ele>
        <time>2019-08-01T09:33:39.947Z</time>
      </trkpt>
      <trkpt lat="43.03055333" lon="-1.28803667">
        <ele>1285.0</ele>
        <time>2019-08-01T09:33:40.954Z</time>
      </trkpt>
      <trkpt lat="43.03054333" lon="-1.28804">
        <ele>1285.0</ele>
        <time>2019-08-01T09:33:41.960Z</time>
      </trkpt>
      <trkpt lat="43.03053" lon="-1.288035">
        <ele>1285.0</ele>
        <time>2019-08-01T09:33:42.964Z</time>
      </trkpt>
      <trkpt lat="43.030515" lon="-1.288035">
        <ele>1285.0</ele>
        <time>2019-08-01T09:33:43.970Z</time>
      </trkpt>
      <trkpt lat="43.03049833" lon="-1.28803833">
        <ele>1285.0</ele>
        <time>2019-08-01T09:33:44.974Z</time>
      </trkpt>
      <trkpt lat="43.03049333" lon="-1.28804667">
        <ele>1286.0</ele>
        <time>2019-08-01T09:33:45.976Z</time>
      </trkpt>
      <trkpt lat="43.03049333" lon="-1.28805167">
        <ele>1286.0</ele>
        <time>2019-08-01T09:33:46.982Z</time>
      </trkpt>
      <trkpt lat="43.03048333" lon="-1.28805667">
        <ele>1286.0</ele>
        <time>2019-08-01T09:33:47.988Z</time>
      </trkpt>
      <trkpt lat="43.03047667" lon="-1.28807">
        <ele>1286.0</ele>
        <time>2019-08-01T09:33:48.995Z</time>
      </trkpt>
      <trkpt lat="43.03047" lon="-1.28809">
        <ele>1286.0</ele>
        <time>2019-08-01T09:33:49.997Z</time>
      </trkpt>
      <trkpt lat="43.030465" lon="-1.288105">
        <ele>1285.0</ele>
        <time>2019-08-01T09:33:51.001Z</time>
      </trkpt>
      <trkpt lat="43.03046" lon="-1.28810833">
        <ele>1286.0</ele>
        <time>2019-08-01T09:33:52.008Z</time>
      </trkpt>
      <trkpt lat="43.030445" lon="-1.28810833">
        <ele>1286.0</ele>
        <time>2019-08-01T09:33:53.010Z</time>
      </trkpt>
      <trkpt lat="43.03043167" lon="-1.28810833">
        <ele>1286.0</ele>
        <time>2019-08-01T09:33:54.012Z</time>
      </trkpt>
      <trkpt lat="43.03041833" lon="-1.28811">
        <ele>1287.0</ele>
        <time>2019-08-01T09:33:55.019Z</time>
      </trkpt>
      <trkpt lat="43.03041" lon="-1.288115">
        <ele>1287.0</ele>
        <time>2019-08-01T09:33:56.024Z</time>
      </trkpt>
      <trkpt lat="43.03040167" lon="-1.28812">
        <ele>1288.0</ele>
        <time>2019-08-01T09:33:57.027Z</time>
      </trkpt>
      <trkpt lat="43.03039667" lon="-1.288125">
        <ele>1288.0</ele>
        <time>2019-08-01T09:33:58.030Z</time>
      </trkpt>
      <trkpt lat="43.03038833" lon="-1.28813">
        <ele>1289.0</ele>
        <time>2019-08-01T09:33:59.035Z</time>
      </trkpt>
      <trkpt lat="43.03037833" lon="-1.288135">
        <ele>1289.0</ele>
        <time>2019-08-01T09:34:00.041Z</time>
      </trkpt>
      <trkpt lat="43.03037167" lon="-1.28814333">
        <ele>1289.0</ele>
        <time>2019-08-01T09:34:00.921Z</time>
      </trkpt>
      <trkpt lat="43.03036" lon="-1.288155">
        <ele>1289.0</ele>
        <time>2019-08-01T09:34:01.928Z</time>
      </trkpt>
      <trkpt lat="43.030345" lon="-1.28816333">
        <ele>1289.0</ele>
        <time>2019-08-01T09:34:02.933Z</time>
      </trkpt>
      <trkpt lat="43.03033667" lon="-1.28817167">
        <ele>1289.0</ele>
        <time>2019-08-01T09:34:03.940Z</time>
      </trkpt>
      <trkpt lat="43.03033" lon="-1.28817833">
        <ele>1289.0</ele>
        <time>2019-08-01T09:34:04.948Z</time>
      </trkpt>
      <trkpt lat="43.03032667" lon="-1.28818833">
        <ele>1290.0</ele>
        <time>2019-08-01T09:34:05.955Z</time>
      </trkpt>
      <trkpt lat="43.03031833" lon="-1.28819667">
        <ele>1289.0</ele>
        <time>2019-08-01T09:34:06.960Z</time>
      </trkpt>
      <trkpt lat="43.03031167" lon="-1.28821333">
        <ele>1289.0</ele>
        <time>2019-08-01T09:34:07.965Z</time>
      </trkpt>
      <trkpt lat="43.03030667" lon="-1.28823">
        <ele>1289.0</ele>
        <time>2019-08-01T09:34:08.968Z</time>
      </trkpt>
      <trkpt lat="43.03030167" lon="-1.288245">
        <ele>1290.0</ele>
        <time>2019-08-01T09:34:09.974Z</time>
      </trkpt>
      <trkpt lat="43.03029167" lon="-1.28825667">
        <ele>1290.0</ele>
        <time>2019-08-01T09:34:10.980Z</time>
      </trkpt>
      <trkpt lat="43.03028" lon="-1.28826667">
        <ele>1290.0</ele>
        <time>2019-08-01T09:34:11.986Z</time>
      </trkpt>
      <trkpt lat="43.03027" lon="-1.28827667">
        <ele>1290.0</ele>
        <time>2019-08-01T09:34:12.992Z</time>
      </trkpt>
      <trkpt lat="43.030265" lon="-1.28829">
        <ele>1290.0</ele>
        <time>2019-08-01T09:34:13.999Z</time>
      </trkpt>
      <trkpt lat="43.03026" lon="-1.28830333">
        <ele>1290.0</ele>
        <time>2019-08-01T09:34:15.004Z</time>
      </trkpt>
      <trkpt lat="43.03025333" lon="-1.28831833">
        <ele>1290.0</ele>
        <time>2019-08-01T09:34:16.010Z</time>
      </trkpt>
      <trkpt lat="43.030245" lon="-1.28832833">
        <ele>1290.0</ele>
        <time>2019-08-01T09:34:17.015Z</time>
      </trkpt>
      <trkpt lat="43.030235" lon="-1.28834167">
        <ele>1290.0</ele>
        <time>2019-08-01T09:34:18.019Z</time>
      </trkpt>
      <trkpt lat="43.03022" lon="-1.28835667">
        <ele>1291.0</ele>
        <time>2019-08-01T09:34:19.023Z</time>
      </trkpt>
      <trkpt lat="43.03020833" lon="-1.28837">
        <ele>1291.0</ele>
        <time>2019-08-01T09:34:20.028Z</time>
      </trkpt>
      <trkpt lat="43.03019833" lon="-1.28837833">
        <ele>1290.0</ele>
        <time>2019-08-01T09:34:21.032Z</time>
      </trkpt>
      <trkpt lat="43.03018667" lon="-1.28839">
        <ele>1290.0</ele>
        <time>2019-08-01T09:34:22.038Z</time>
      </trkpt>
      <trkpt lat="43.03017833" lon="-1.2884">
        <ele>1290.0</ele>
        <time>2019-08-01T09:34:22.919Z</time>
      </trkpt>
      <trkpt lat="43.03016833" lon="-1.28840833">
        <ele>1290.0</ele>
        <time>2019-08-01T09:34:23.926Z</time>
      </trkpt>
      <trkpt lat="43.03016" lon="-1.28841667">
        <ele>1290.0</ele>
        <time>2019-08-01T09:34:24.930Z</time>
      </trkpt>
      <trkpt lat="43.03015167" lon="-1.28842167">
        <ele>1290.0</ele>
        <time>2019-08-01T09:34:25.937Z</time>
      </trkpt>
      <trkpt lat="43.030145" lon="-1.288425">
        <ele>1289.0</ele>
        <time>2019-08-01T09:34:26.945Z</time>
      </trkpt>
      <trkpt lat="43.03013667" lon="-1.28842833">
        <ele>1288.0</ele>
        <time>2019-08-01T09:34:27.952Z</time>
      </trkpt>
      <trkpt lat="43.03012667" lon="-1.28843667">
        <ele>1288.0</ele>
        <time>2019-08-01T09:34:28.959Z</time>
      </trkpt>
      <trkpt lat="43.03011833" lon="-1.288445">
        <ele>1287.0</ele>
        <time>2019-08-01T09:34:29.965Z</time>
      </trkpt>
      <trkpt lat="43.03011" lon="-1.28845667">
        <ele>1287.0</ele>
        <time>2019-08-01T09:34:30.969Z</time>
      </trkpt>
      <trkpt lat="43.03010333" lon="-1.28846667">
        <ele>1286.0</ele>
        <time>2019-08-01T09:34:31.973Z</time>
      </trkpt>
      <trkpt lat="43.03009333" lon="-1.28847833">
        <ele>1286.0</ele>
        <time>2019-08-01T09:34:32.978Z</time>
      </trkpt>
      <trkpt lat="43.030085" lon="-1.28848833">
        <ele>1285.0</ele>
        <time>2019-08-01T09:34:33.984Z</time>
      </trkpt>
      <trkpt lat="43.03007667" lon="-1.28849333">
        <ele>1285.0</ele>
        <time>2019-08-01T09:34:34.991Z</time>
      </trkpt>
      <trkpt lat="43.03006833" lon="-1.288505">
        <ele>1284.0</ele>
        <time>2019-08-01T09:34:35.998Z</time>
      </trkpt>
      <trkpt lat="43.030055" lon="-1.288515">
        <ele>1283.0</ele>
        <time>2019-08-01T09:34:37.005Z</time>
      </trkpt>
      <trkpt lat="43.03003833" lon="-1.28852">
        <ele>1281.0</ele>
        <time>2019-08-01T09:34:38.008Z</time>
      </trkpt>
      <trkpt lat="43.03002333" lon="-1.28852167">
        <ele>1281.0</ele>
        <time>2019-08-01T09:34:39.013Z</time>
      </trkpt>
      <trkpt lat="43.03000833" lon="-1.28852833">
        <ele>1280.0</ele>
        <time>2019-08-01T09:34:40.019Z</time>
      </trkpt>
      <trkpt lat="43.02999833" lon="-1.28854">
        <ele>1280.0</ele>
        <time>2019-08-01T09:34:41.026Z</time>
      </trkpt>
      <trkpt lat="43.02998333" lon="-1.28855333">
        <ele>1279.0</ele>
        <time>2019-08-01T09:34:42.031Z</time>
      </trkpt>
      <trkpt lat="43.029975" lon="-1.28856833">
        <ele>1279.0</ele>
        <time>2019-08-01T09:34:43.037Z</time>
      </trkpt>
      <trkpt lat="43.02995833" lon="-1.28857333">
        <ele>1278.0</ele>
        <time>2019-08-01T09:34:43.918Z</time>
      </trkpt>
      <trkpt lat="43.02994667" lon="-1.288575">
        <ele>1277.0</ele>
        <time>2019-08-01T09:34:44.925Z</time>
      </trkpt>
      <trkpt lat="43.02993333" lon="-1.28857667">
        <ele>1275.0</ele>
        <time>2019-08-01T09:34:45.931Z</time>
      </trkpt>
      <trkpt lat="43.02992167" lon="-1.288585">
        <ele>1275.0</ele>
        <time>2019-08-01T09:34:46.939Z</time>
      </trkpt>
      <trkpt lat="43.02990833" lon="-1.28859">
        <ele>1274.0</ele>
        <time>2019-08-01T09:34:47.946Z</time>
      </trkpt>
      <trkpt lat="43.02989667" lon="-1.28859333">
        <ele>1274.0</ele>
        <time>2019-08-01T09:34:48.954Z</time>
      </trkpt>
      <trkpt lat="43.02989" lon="-1.28859333">
        <ele>1274.0</ele>
        <time>2019-08-01T09:34:49.960Z</time>
      </trkpt>
      <trkpt lat="43.029875" lon="-1.28859833">
        <ele>1273.0</ele>
        <time>2019-08-01T09:34:50.967Z</time>
      </trkpt>
      <trkpt lat="43.02986167" lon="-1.28860667">
        <ele>1273.0</ele>
        <time>2019-08-01T09:34:51.972Z</time>
      </trkpt>
      <trkpt lat="43.02985" lon="-1.28861167">
        <ele>1273.0</ele>
        <time>2019-08-01T09:34:52.977Z</time>
      </trkpt>
      <trkpt lat="43.02983833" lon="-1.28862">
        <ele>1273.0</ele>
        <time>2019-08-01T09:34:53.983Z</time>
      </trkpt>
      <trkpt lat="43.029825" lon="-1.28862">
        <ele>1273.0</ele>
        <time>2019-08-01T09:34:54.989Z</time>
      </trkpt>
      <trkpt lat="43.02981667" lon="-1.28862">
        <ele>1272.0</ele>
        <time>2019-08-01T09:34:55.997Z</time>
      </trkpt>
      <trkpt lat="43.02981" lon="-1.28862333">
        <ele>1272.0</ele>
        <time>2019-08-01T09:34:57.003Z</time>
      </trkpt>
      <trkpt lat="43.02980167" lon="-1.288625">
        <ele>1272.0</ele>
        <time>2019-08-01T09:34:58.009Z</time>
      </trkpt>
      <trkpt lat="43.02979" lon="-1.28862667">
        <ele>1271.0</ele>
        <time>2019-08-01T09:34:59.013Z</time>
      </trkpt>
      <trkpt lat="43.02977833" lon="-1.28863333">
        <ele>1271.0</ele>
        <time>2019-08-01T09:35:00.017Z</time>
      </trkpt>
      <trkpt lat="43.02976833" lon="-1.28864">
        <ele>1271.0</ele>
        <time>2019-08-01T09:35:01.022Z</time>
      </trkpt>
      <trkpt lat="43.02976333" lon="-1.28864833">
        <ele>1271.0</ele>
        <time>2019-08-01T09:35:02.029Z</time>
      </trkpt>
      <trkpt lat="43.02975667" lon="-1.28865667">
        <ele>1272.0</ele>
        <time>2019-08-01T09:35:03.031Z</time>
      </trkpt>
      <trkpt lat="43.02975333" lon="-1.28866667">
        <ele>1273.0</ele>
        <time>2019-08-01T09:35:04.037Z</time>
      </trkpt>
      <trkpt lat="43.029745" lon="-1.28867667">
        <ele>1274.0</ele>
        <time>2019-08-01T09:35:04.919Z</time>
      </trkpt>
      <trkpt lat="43.029735" lon="-1.288685">
        <ele>1274.0</ele>
        <time>2019-08-01T09:35:05.926Z</time>
      </trkpt>
      <trkpt lat="43.029725" lon="-1.28869667">
        <ele>1274.0</ele>
        <time>2019-08-01T09:35:06.932Z</time>
      </trkpt>
      <trkpt lat="43.02971167" lon="-1.288705">
        <ele>1274.0</ele>
        <time>2019-08-01T09:35:07.939Z</time>
      </trkpt>
      <trkpt lat="43.0297" lon="-1.28871333">
        <ele>1274.0</ele>
        <time>2019-08-01T09:35:08.943Z</time>
      </trkpt>
      <trkpt lat="43.02968833" lon="-1.28872">
        <ele>1274.0</ele>
        <time>2019-08-01T09:35:09.950Z</time>
      </trkpt>
      <trkpt lat="43.02968" lon="-1.28872167">
        <ele>1274.0</ele>
        <time>2019-08-01T09:35:10.956Z</time>
      </trkpt>
      <trkpt lat="43.02967333" lon="-1.28872667">
        <ele>1274.0</ele>
        <time>2019-08-01T09:35:11.960Z</time>
      </trkpt>
      <trkpt lat="43.029665" lon="-1.28873167">
        <ele>1274.0</ele>
        <time>2019-08-01T09:35:12.964Z</time>
      </trkpt>
      <trkpt lat="43.029655" lon="-1.28874167">
        <ele>1275.0</ele>
        <time>2019-08-01T09:35:13.968Z</time>
      </trkpt>
      <trkpt lat="43.02964667" lon="-1.28874667">
        <ele>1274.0</ele>
        <time>2019-08-01T09:35:14.971Z</time>
      </trkpt>
      <trkpt lat="43.02963667" lon="-1.28875">
        <ele>1274.0</ele>
        <time>2019-08-01T09:35:15.975Z</time>
      </trkpt>
      <trkpt lat="43.029625" lon="-1.28875333">
        <ele>1274.0</ele>
        <time>2019-08-01T09:35:16.981Z</time>
      </trkpt>
      <trkpt lat="43.02961" lon="-1.28875667">
        <ele>1273.0</ele>
        <time>2019-08-01T09:35:17.988Z</time>
      </trkpt>
      <trkpt lat="43.02959833" lon="-1.28875667">
        <ele>1272.0</ele>
        <time>2019-08-01T09:35:18.995Z</time>
      </trkpt>
      <trkpt lat="43.02958667" lon="-1.28875833">
        <ele>1272.0</ele>
        <time>2019-08-01T09:35:20.000Z</time>
      </trkpt>
      <trkpt lat="43.02957667" lon="-1.28876">
        <ele>1271.0</ele>
        <time>2019-08-01T09:35:21.007Z</time>
      </trkpt>
      <trkpt lat="43.02956833" lon="-1.28876333">
        <ele>1271.0</ele>
        <time>2019-08-01T09:35:22.011Z</time>
      </trkpt>
      <trkpt lat="43.02956" lon="-1.28876667">
        <ele>1272.0</ele>
        <time>2019-08-01T09:35:23.014Z</time>
      </trkpt>
      <trkpt lat="43.02955" lon="-1.28876333">
        <ele>1272.0</ele>
        <time>2019-08-01T09:35:24.021Z</time>
      </trkpt>
      <trkpt lat="43.02954" lon="-1.28876667">
        <ele>1272.0</ele>
        <time>2019-08-01T09:35:25.025Z</time>
      </trkpt>
      <trkpt lat="43.02953" lon="-1.28877167">
        <ele>1272.0</ele>
        <time>2019-08-01T09:35:26.031Z</time>
      </trkpt>
      <trkpt lat="43.029525" lon="-1.288775">
        <ele>1273.0</ele>
        <time>2019-08-01T09:35:27.037Z</time>
      </trkpt>
      <trkpt lat="43.02952167" lon="-1.28878">
        <ele>1273.0</ele>
        <time>2019-08-01T09:35:27.918Z</time>
      </trkpt>
      <trkpt lat="43.02951167" lon="-1.28878167">
        <ele>1273.0</ele>
        <time>2019-08-01T09:35:28.925Z</time>
      </trkpt>
      <trkpt lat="43.02950167" lon="-1.28878333">
        <ele>1273.0</ele>
        <time>2019-08-01T09:35:29.932Z</time>
      </trkpt>
      <trkpt lat="43.02949167" lon="-1.28878667">
        <ele>1273.0</ele>
        <time>2019-08-01T09:35:30.937Z</time>
      </trkpt>
      <trkpt lat="43.02948167" lon="-1.288795">
        <ele>1274.0</ele>
        <time>2019-08-01T09:35:31.943Z</time>
      </trkpt>
      <trkpt lat="43.029475" lon="-1.28880167">
        <ele>1274.0</ele>
        <time>2019-08-01T09:35:32.949Z</time>
      </trkpt>
      <trkpt lat="43.029465" lon="-1.28880333">
        <ele>1275.0</ele>
        <time>2019-08-01T09:35:33.957Z</time>
      </trkpt>
      <trkpt lat="43.02945167" lon="-1.28880333">
        <ele>1275.0</ele>
        <time>2019-08-01T09:35:34.963Z</time>
      </trkpt>
      <trkpt lat="43.02944167" lon="-1.28880333">
        <ele>1276.0</ele>
        <time>2019-08-01T09:35:35.969Z</time>
      </trkpt>
      <trkpt lat="43.02944" lon="-1.28880667">
        <ele>1276.0</ele>
        <time>2019-08-01T09:35:36.976Z</time>
      </trkpt>
      <trkpt lat="43.02943667" lon="-1.28881167">
        <ele>1277.0</ele>
        <time>2019-08-01T09:35:37.980Z</time>
      </trkpt>
      <trkpt lat="43.02943333" lon="-1.28882">
        <ele>1278.0</ele>
        <time>2019-08-01T09:35:38.987Z</time>
      </trkpt>
      <trkpt lat="43.029425" lon="-1.28882667">
        <ele>1279.0</ele>
        <time>2019-08-01T09:35:39.993Z</time>
      </trkpt>
      <trkpt lat="43.02941833" lon="-1.28882833">
        <ele>1279.0</ele>
        <time>2019-08-01T09:35:40.997Z</time>
      </trkpt>
      <trkpt lat="43.02941" lon="-1.28883667">
        <ele>1280.0</ele>
        <time>2019-08-01T09:35:42.001Z</time>
      </trkpt>
      <trkpt lat="43.02940333" lon="-1.28884167">
        <ele>1280.0</ele>
        <time>2019-08-01T09:35:43.008Z</time>
      </trkpt>
      <trkpt lat="43.02939833" lon="-1.288845">
        <ele>1280.0</ele>
        <time>2019-08-01T09:35:44.013Z</time>
      </trkpt>
      <trkpt lat="43.029395" lon="-1.28884167">
        <ele>1280.0</ele>
        <time>2019-08-01T09:35:45.019Z</time>
      </trkpt>
      <trkpt lat="43.02938833" lon="-1.28884667">
        <ele>1280.0</ele>
        <time>2019-08-01T09:35:46.026Z</time>
      </trkpt>
      <trkpt lat="43.02938" lon="-1.28885333">
        <ele>1280.0</ele>
        <time>2019-08-01T09:35:47.031Z</time>
      </trkpt>
      <trkpt lat="43.02937" lon="-1.28886">
        <ele>1280.0</ele>
        <time>2019-08-01T09:35:48.035Z</time>
      </trkpt>
      <trkpt lat="43.02936167" lon="-1.288865">
        <ele>1280.0</ele>
        <time>2019-08-01T09:35:49.043Z</time>
      </trkpt>
      <trkpt lat="43.02935167" lon="-1.28886833">
        <ele>1280.0</ele>
        <time>2019-08-01T09:35:49.923Z</time>
      </trkpt>
      <trkpt lat="43.02934333" lon="-1.28887167">
        <ele>1281.0</ele>
        <time>2019-08-01T09:35:50.928Z</time>
      </trkpt>
      <trkpt lat="43.02933" lon="-1.288875">
        <ele>1281.0</ele>
        <time>2019-08-01T09:35:51.934Z</time>
      </trkpt>
      <trkpt lat="43.02932" lon="-1.28888">
        <ele>1281.0</ele>
        <time>2019-08-01T09:35:52.941Z</time>
      </trkpt>
      <trkpt lat="43.02931" lon="-1.28888333">
        <ele>1281.0</ele>
        <time>2019-08-01T09:35:53.949Z</time>
      </trkpt>
      <trkpt lat="43.0293" lon="-1.28888667">
        <ele>1280.0</ele>
        <time>2019-08-01T09:35:54.955Z</time>
      </trkpt>
      <trkpt lat="43.02929333" lon="-1.28888833">
        <ele>1281.0</ele>
        <time>2019-08-01T09:35:55.960Z</time>
      </trkpt>
      <trkpt lat="43.029285" lon="-1.28889167">
        <ele>1281.0</ele>
        <time>2019-08-01T09:35:56.967Z</time>
      </trkpt>
      <trkpt lat="43.02927667" lon="-1.28888833">
        <ele>1281.0</ele>
        <time>2019-08-01T09:35:57.972Z</time>
      </trkpt>
      <trkpt lat="43.029265" lon="-1.28888833">
        <ele>1281.0</ele>
        <time>2019-08-01T09:35:58.977Z</time>
      </trkpt>
      <trkpt lat="43.029255" lon="-1.28889667">
        <ele>1281.0</ele>
        <time>2019-08-01T09:35:59.984Z</time>
      </trkpt>
      <trkpt lat="43.02925167" lon="-1.2889">
        <ele>1281.0</ele>
        <time>2019-08-01T09:36:00.991Z</time>
      </trkpt>
      <trkpt lat="43.02924167" lon="-1.28890333">
        <ele>1281.0</ele>
        <time>2019-08-01T09:36:01.997Z</time>
      </trkpt>
      <trkpt lat="43.02922833" lon="-1.28891">
        <ele>1282.0</ele>
        <time>2019-08-01T09:36:03.004Z</time>
      </trkpt>
      <trkpt lat="43.02921833" lon="-1.288915">
        <ele>1282.0</ele>
        <time>2019-08-01T09:36:04.010Z</time>
      </trkpt>
      <trkpt lat="43.02921167" lon="-1.28892167">
        <ele>1282.0</ele>
        <time>2019-08-01T09:36:05.015Z</time>
      </trkpt>
      <trkpt lat="43.02920167" lon="-1.288925">
        <ele>1283.0</ele>
        <time>2019-08-01T09:36:06.018Z</time>
      </trkpt>
      <trkpt lat="43.02919" lon="-1.28893333">
        <ele>1283.0</ele>
        <time>2019-08-01T09:36:07.023Z</time>
      </trkpt>
      <trkpt lat="43.02918167" lon="-1.28894">
        <ele>1283.0</ele>
        <time>2019-08-01T09:36:08.029Z</time>
      </trkpt>
      <trkpt lat="43.029175" lon="-1.28894333">
        <ele>1283.0</ele>
        <time>2019-08-01T09:36:09.036Z</time>
      </trkpt>
      <trkpt lat="43.02916833" lon="-1.28894667">
        <ele>1284.0</ele>
        <time>2019-08-01T09:36:09.918Z</time>
      </trkpt>
      <trkpt lat="43.02916333" lon="-1.28894667">
        <ele>1284.0</ele>
        <time>2019-08-01T09:36:10.924Z</time>
      </trkpt>
      <trkpt lat="43.02916" lon="-1.28894833">
        <ele>1284.0</ele>
        <time>2019-08-01T09:36:11.930Z</time>
      </trkpt>
      <trkpt lat="43.02915333" lon="-1.28895167">
        <ele>1284.0</ele>
        <time>2019-08-01T09:36:12.936Z</time>
      </trkpt>
      <trkpt lat="43.02914333" lon="-1.28895333">
        <ele>1284.0</ele>
        <time>2019-08-01T09:36:13.943Z</time>
      </trkpt>
      <trkpt lat="43.029135" lon="-1.28895667">
        <ele>1284.0</ele>
        <time>2019-08-01T09:36:14.950Z</time>
      </trkpt>
      <trkpt lat="43.02912167" lon="-1.28896167">
        <ele>1284.0</ele>
        <time>2019-08-01T09:36:15.956Z</time>
      </trkpt>
      <trkpt lat="43.02911333" lon="-1.28896833">
        <ele>1285.0</ele>
        <time>2019-08-01T09:36:16.962Z</time>
      </trkpt>
      <trkpt lat="43.02910167" lon="-1.28897">
        <ele>1285.0</ele>
        <time>2019-08-01T09:36:17.969Z</time>
      </trkpt>
      <trkpt lat="43.02909333" lon="-1.288975">
        <ele>1285.0</ele>
        <time>2019-08-01T09:36:18.976Z</time>
      </trkpt>
      <trkpt lat="43.02908333" lon="-1.28897833">
        <ele>1285.0</ele>
        <time>2019-08-01T09:36:19.981Z</time>
      </trkpt>
      <trkpt lat="43.02907167" lon="-1.28898">
        <ele>1286.0</ele>
        <time>2019-08-01T09:36:20.987Z</time>
      </trkpt>
      <trkpt lat="43.02906333" lon="-1.28898">
        <ele>1286.0</ele>
        <time>2019-08-01T09:36:21.994Z</time>
      </trkpt>
      <trkpt lat="43.02905667" lon="-1.28898667">
        <ele>1286.0</ele>
        <time>2019-08-01T09:36:22.999Z</time>
      </trkpt>
      <trkpt lat="43.02905167" lon="-1.28899333">
        <ele>1287.0</ele>
        <time>2019-08-01T09:36:24.002Z</time>
      </trkpt>
      <trkpt lat="43.02904333" lon="-1.289">
        <ele>1288.0</ele>
        <time>2019-08-01T09:36:25.006Z</time>
      </trkpt>
      <trkpt lat="43.02903333" lon="-1.28901">
        <ele>1288.0</ele>
        <time>2019-08-01T09:36:26.011Z</time>
      </trkpt>
      <trkpt lat="43.02902333" lon="-1.28901667">
        <ele>1289.0</ele>
        <time>2019-08-01T09:36:27.016Z</time>
      </trkpt>
      <trkpt lat="43.029015" lon="-1.28902167">
        <ele>1290.0</ele>
        <time>2019-08-01T09:36:28.020Z</time>
      </trkpt>
      <trkpt lat="43.029005" lon="-1.28902333">
        <ele>1290.0</ele>
        <time>2019-08-01T09:36:29.025Z</time>
      </trkpt>
      <trkpt lat="43.02899167" lon="-1.28902667">
        <ele>1290.0</ele>
        <time>2019-08-01T09:36:30.030Z</time>
      </trkpt>
      <trkpt lat="43.02898333" lon="-1.28903167">
        <ele>1290.0</ele>
        <time>2019-08-01T09:36:31.038Z</time>
      </trkpt>
      <trkpt lat="43.02897" lon="-1.28903667">
        <ele>1291.0</ele>
        <time>2019-08-01T09:36:32.043Z</time>
      </trkpt>
      <trkpt lat="43.02896167" lon="-1.28904333">
        <ele>1291.0</ele>
        <time>2019-08-01T09:36:32.921Z</time>
      </trkpt>
      <trkpt lat="43.02895167" lon="-1.28905">
        <ele>1292.0</ele>
        <time>2019-08-01T09:36:33.925Z</time>
      </trkpt>
      <trkpt lat="43.02894333" lon="-1.28906333">
        <ele>1293.0</ele>
        <time>2019-08-01T09:36:34.928Z</time>
      </trkpt>
      <trkpt lat="43.02893667" lon="-1.28907333">
        <ele>1294.0</ele>
        <time>2019-08-01T09:36:35.933Z</time>
      </trkpt>
      <trkpt lat="43.02893" lon="-1.289085">
        <ele>1294.0</ele>
        <time>2019-08-01T09:36:36.938Z</time>
      </trkpt>
      <trkpt lat="43.02892" lon="-1.28908833">
        <ele>1295.0</ele>
        <time>2019-08-01T09:36:37.945Z</time>
      </trkpt>
      <trkpt lat="43.02890833" lon="-1.28909667">
        <ele>1295.0</ele>
        <time>2019-08-01T09:36:38.953Z</time>
      </trkpt>
      <trkpt lat="43.02890667" lon="-1.28911">
        <ele>1296.0</ele>
        <time>2019-08-01T09:36:39.959Z</time>
      </trkpt>
      <trkpt lat="43.02890667" lon="-1.28912167">
        <ele>1296.0</ele>
        <time>2019-08-01T09:36:40.965Z</time>
      </trkpt>
      <trkpt lat="43.02890333" lon="-1.28913333">
        <ele>1297.0</ele>
        <time>2019-08-01T09:36:41.971Z</time>
      </trkpt>
      <trkpt lat="43.02889667" lon="-1.28914333">
        <ele>1297.0</ele>
        <time>2019-08-01T09:36:42.978Z</time>
      </trkpt>
      <trkpt lat="43.02889333" lon="-1.28915167">
        <ele>1298.0</ele>
        <time>2019-08-01T09:36:43.983Z</time>
      </trkpt>
      <trkpt lat="43.02888667" lon="-1.28916">
        <ele>1298.0</ele>
        <time>2019-08-01T09:36:44.987Z</time>
      </trkpt>
      <trkpt lat="43.02887833" lon="-1.28916667">
        <ele>1299.0</ele>
        <time>2019-08-01T09:36:45.992Z</time>
      </trkpt>
      <trkpt lat="43.02887" lon="-1.28917333">
        <ele>1299.0</ele>
        <time>2019-08-01T09:36:46.996Z</time>
      </trkpt>
      <trkpt lat="43.02885833" lon="-1.28918167">
        <ele>1299.0</ele>
        <time>2019-08-01T09:36:48.001Z</time>
      </trkpt>
      <trkpt lat="43.02884833" lon="-1.28919333">
        <ele>1299.0</ele>
        <time>2019-08-01T09:36:49.008Z</time>
      </trkpt>
      <trkpt lat="43.02884" lon="-1.28920333">
        <ele>1300.0</ele>
        <time>2019-08-01T09:36:50.015Z</time>
      </trkpt>
      <trkpt lat="43.02883" lon="-1.289215">
        <ele>1300.0</ele>
        <time>2019-08-01T09:36:51.020Z</time>
      </trkpt>
      <trkpt lat="43.02882333" lon="-1.289225">
        <ele>1301.0</ele>
        <time>2019-08-01T09:36:52.028Z</time>
      </trkpt>
      <trkpt lat="43.02881667" lon="-1.289235">
        <ele>1302.0</ele>
        <time>2019-08-01T09:36:53.034Z</time>
      </trkpt>
      <trkpt lat="43.02880833" lon="-1.28924667">
        <ele>1303.0</ele>
        <time>2019-08-01T09:36:54.041Z</time>
      </trkpt>
      <trkpt lat="43.0288" lon="-1.28925333">
        <ele>1303.0</ele>
        <time>2019-08-01T09:36:54.920Z</time>
      </trkpt>
      <trkpt lat="43.02879333" lon="-1.28926">
        <ele>1304.0</ele>
        <time>2019-08-01T09:36:55.925Z</time>
      </trkpt>
      <trkpt lat="43.02879" lon="-1.28926833">
        <ele>1304.0</ele>
        <time>2019-08-01T09:36:56.930Z</time>
      </trkpt>
      <trkpt lat="43.02878167" lon="-1.28927167">
        <ele>1304.0</ele>
        <time>2019-08-01T09:36:57.935Z</time>
      </trkpt>
      <trkpt lat="43.02877333" lon="-1.28928667">
        <ele>1304.0</ele>
        <time>2019-08-01T09:36:58.943Z</time>
      </trkpt>
      <trkpt lat="43.02877167" lon="-1.2893">
        <ele>1305.0</ele>
        <time>2019-08-01T09:36:59.950Z</time>
      </trkpt>
      <trkpt lat="43.02876667" lon="-1.28931333">
        <ele>1306.0</ele>
        <time>2019-08-01T09:37:00.957Z</time>
      </trkpt>
      <trkpt lat="43.02876" lon="-1.28932">
        <ele>1307.0</ele>
        <time>2019-08-01T09:37:01.964Z</time>
      </trkpt>
      <trkpt lat="43.02875" lon="-1.28933167">
        <ele>1307.0</ele>
        <time>2019-08-01T09:37:02.969Z</time>
      </trkpt>
      <trkpt lat="43.02873833" lon="-1.28934167">
        <ele>1307.0</ele>
        <time>2019-08-01T09:37:03.977Z</time>
      </trkpt>
      <trkpt lat="43.02873333" lon="-1.28935167">
        <ele>1307.0</ele>
        <time>2019-08-01T09:37:04.983Z</time>
      </trkpt>
      <trkpt lat="43.02872667" lon="-1.28936">
        <ele>1307.0</ele>
        <time>2019-08-01T09:37:05.987Z</time>
      </trkpt>
      <trkpt lat="43.02872" lon="-1.28937167">
        <ele>1307.0</ele>
        <time>2019-08-01T09:37:06.993Z</time>
      </trkpt>
      <trkpt lat="43.02871833" lon="-1.28939">
        <ele>1307.0</ele>
        <time>2019-08-01T09:37:07.998Z</time>
      </trkpt>
      <trkpt lat="43.02871" lon="-1.28940333">
        <ele>1308.0</ele>
        <time>2019-08-01T09:37:09.004Z</time>
      </trkpt>
      <trkpt lat="43.02871" lon="-1.28942167">
        <ele>1308.0</ele>
        <time>2019-08-01T09:37:10.010Z</time>
      </trkpt>
      <trkpt lat="43.02870833" lon="-1.28944">
        <ele>1309.0</ele>
        <time>2019-08-01T09:37:11.015Z</time>
      </trkpt>
      <trkpt lat="43.02870667" lon="-1.28945167">
        <ele>1309.0</ele>
        <time>2019-08-01T09:37:12.021Z</time>
      </trkpt>
      <trkpt lat="43.028705" lon="-1.28946167">
        <ele>1310.0</ele>
        <time>2019-08-01T09:37:13.028Z</time>
      </trkpt>
      <trkpt lat="43.02869667" lon="-1.28947">
        <ele>1310.0</ele>
        <time>2019-08-01T09:37:14.036Z</time>
      </trkpt>
      <trkpt lat="43.02868333" lon="-1.28947833">
        <ele>1311.0</ele>
        <time>2019-08-01T09:37:15.043Z</time>
      </trkpt>
      <trkpt lat="43.028675" lon="-1.28949">
        <ele>1312.0</ele>
        <time>2019-08-01T09:37:15.924Z</time>
      </trkpt>
      <trkpt lat="43.02866167" lon="-1.289495">
        <ele>1312.0</ele>
        <time>2019-08-01T09:37:16.929Z</time>
      </trkpt>
      <trkpt lat="43.02865167" lon="-1.28949833">
        <ele>1312.0</ele>
        <time>2019-08-01T09:37:17.934Z</time>
      </trkpt>
      <trkpt lat="43.02864167" lon="-1.28950667">
        <ele>1311.0</ele>
        <time>2019-08-01T09:37:18.940Z</time>
      </trkpt>
      <trkpt lat="43.02863333" lon="-1.289515">
        <ele>1311.0</ele>
        <time>2019-08-01T09:37:19.946Z</time>
      </trkpt>
      <trkpt lat="43.02862333" lon="-1.28952333">
        <ele>1312.0</ele>
        <time>2019-08-01T09:37:20.952Z</time>
      </trkpt>
      <trkpt lat="43.02861833" lon="-1.28953333">
        <ele>1313.0</ele>
        <time>2019-08-01T09:37:21.959Z</time>
      </trkpt>
      <trkpt lat="43.02861167" lon="-1.28953833">
        <ele>1313.0</ele>
        <time>2019-08-01T09:37:22.965Z</time>
      </trkpt>
      <trkpt lat="43.02860833" lon="-1.28954667">
        <ele>1314.0</ele>
        <time>2019-08-01T09:37:23.970Z</time>
      </trkpt>
      <trkpt lat="43.028605" lon="-1.289555">
        <ele>1314.0</ele>
        <time>2019-08-01T09:37:24.977Z</time>
      </trkpt>
      <trkpt lat="43.0286" lon="-1.28956">
        <ele>1315.0</ele>
        <time>2019-08-01T09:37:25.982Z</time>
      </trkpt>
      <trkpt lat="43.02859167" lon="-1.28956667">
        <ele>1315.0</ele>
        <time>2019-08-01T09:37:26.988Z</time>
      </trkpt>
      <trkpt lat="43.02858667" lon="-1.28957667">
        <ele>1314.0</ele>
        <time>2019-08-01T09:37:27.993Z</time>
      </trkpt>
      <trkpt lat="43.02857667" lon="-1.28958167">
        <ele>1315.0</ele>
        <time>2019-08-01T09:37:28.999Z</time>
      </trkpt>
      <trkpt lat="43.02856833" lon="-1.28958667">
        <ele>1316.0</ele>
        <time>2019-08-01T09:37:30.005Z</time>
      </trkpt>
      <trkpt lat="43.02855833" lon="-1.28959167">
        <ele>1317.0</ele>
        <time>2019-08-01T09:37:31.011Z</time>
      </trkpt>
      <trkpt lat="43.028555" lon="-1.28960333">
        <ele>1317.0</ele>
        <time>2019-08-01T09:37:32.017Z</time>
      </trkpt>
      <trkpt lat="43.02855833" lon="-1.28961667">
        <ele>1318.0</ele>
        <time>2019-08-01T09:37:33.023Z</time>
      </trkpt>
      <trkpt lat="43.02856167" lon="-1.28963">
        <ele>1319.0</ele>
        <time>2019-08-01T09:37:34.029Z</time>
      </trkpt>
      <trkpt lat="43.02855833" lon="-1.28964167">
        <ele>1320.0</ele>
        <time>2019-08-01T09:37:35.035Z</time>
      </trkpt>
      <trkpt lat="43.02855333" lon="-1.28965333">
        <ele>1320.0</ele>
        <time>2019-08-01T09:37:36.041Z</time>
      </trkpt>
      <trkpt lat="43.02854333" lon="-1.289665">
        <ele>1321.0</ele>
        <time>2019-08-01T09:37:36.922Z</time>
      </trkpt>
      <trkpt lat="43.02853833" lon="-1.28967167">
        <ele>1322.0</ele>
        <time>2019-08-01T09:37:37.928Z</time>
      </trkpt>
      <trkpt lat="43.02853" lon="-1.28967833">
        <ele>1323.0</ele>
        <time>2019-08-01T09:37:38.933Z</time>
      </trkpt>
      <trkpt lat="43.02852333" lon="-1.289685">
        <ele>1323.0</ele>
        <time>2019-08-01T09:37:39.939Z</time>
      </trkpt>
      <trkpt lat="43.02851167" lon="-1.28969333">
        <ele>1324.0</ele>
        <time>2019-08-01T09:37:40.945Z</time>
      </trkpt>
      <trkpt lat="43.028505" lon="-1.28970167">
        <ele>1325.0</ele>
        <time>2019-08-01T09:37:41.951Z</time>
      </trkpt>
      <trkpt lat="43.02849667" lon="-1.28970833">
        <ele>1326.0</ele>
        <time>2019-08-01T09:37:42.959Z</time>
      </trkpt>
      <trkpt lat="43.02848833" lon="-1.28971667">
        <ele>1326.0</ele>
        <time>2019-08-01T09:37:43.964Z</time>
      </trkpt>
      <trkpt lat="43.02848333" lon="-1.289725">
        <ele>1327.0</ele>
        <time>2019-08-01T09:37:44.970Z</time>
      </trkpt>
      <trkpt lat="43.02847667" lon="-1.289735">
        <ele>1328.0</ele>
        <time>2019-08-01T09:37:45.975Z</time>
      </trkpt>
      <trkpt lat="43.02846667" lon="-1.28973833">
        <ele>1328.0</ele>
        <time>2019-08-01T09:37:46.980Z</time>
      </trkpt>
      <trkpt lat="43.02846167" lon="-1.289745">
        <ele>1328.0</ele>
        <time>2019-08-01T09:37:47.982Z</time>
      </trkpt>
      <trkpt lat="43.028455" lon="-1.28975333">
        <ele>1328.0</ele>
        <time>2019-08-01T09:37:48.988Z</time>
      </trkpt>
      <trkpt lat="43.02845" lon="-1.28976">
        <ele>1328.0</ele>
        <time>2019-08-01T09:37:49.993Z</time>
      </trkpt>
      <trkpt lat="43.028445" lon="-1.28976833">
        <ele>1328.0</ele>
        <time>2019-08-01T09:37:50.999Z</time>
      </trkpt>
      <trkpt lat="43.02844167" lon="-1.28977833">
        <ele>1328.0</ele>
        <time>2019-08-01T09:37:52.004Z</time>
      </trkpt>
      <trkpt lat="43.02843333" lon="-1.28979">
        <ele>1328.0</ele>
        <time>2019-08-01T09:37:53.011Z</time>
      </trkpt>
      <trkpt lat="43.02842333" lon="-1.289805">
        <ele>1328.0</ele>
        <time>2019-08-01T09:37:54.015Z</time>
      </trkpt>
      <trkpt lat="43.028415" lon="-1.28981667">
        <ele>1327.0</ele>
        <time>2019-08-01T09:37:55.022Z</time>
      </trkpt>
      <trkpt lat="43.02841" lon="-1.28982833">
        <ele>1327.0</ele>
        <time>2019-08-01T09:37:56.027Z</time>
      </trkpt>
      <trkpt lat="43.028405" lon="-1.28984167">
        <ele>1326.0</ele>
        <time>2019-08-01T09:37:57.033Z</time>
      </trkpt>
      <trkpt lat="43.02839667" lon="-1.28985333">
        <ele>1325.0</ele>
        <time>2019-08-01T09:37:58.040Z</time>
      </trkpt>
      <trkpt lat="43.02839167" lon="-1.28986667">
        <ele>1324.0</ele>
        <time>2019-08-01T09:37:58.919Z</time>
      </trkpt>
      <trkpt lat="43.028385" lon="-1.28988">
        <ele>1324.0</ele>
        <time>2019-08-01T09:37:59.926Z</time>
      </trkpt>
      <trkpt lat="43.02838333" lon="-1.28989167">
        <ele>1324.0</ele>
        <time>2019-08-01T09:38:00.931Z</time>
      </trkpt>
      <trkpt lat="43.02838" lon="-1.2899">
        <ele>1324.0</ele>
        <time>2019-08-01T09:38:01.938Z</time>
      </trkpt>
      <trkpt lat="43.02837" lon="-1.28990833">
        <ele>1323.0</ele>
        <time>2019-08-01T09:38:02.944Z</time>
      </trkpt>
      <trkpt lat="43.02835833" lon="-1.28992167">
        <ele>1322.0</ele>
        <time>2019-08-01T09:38:03.950Z</time>
      </trkpt>
      <trkpt lat="43.02835333" lon="-1.28993833">
        <ele>1322.0</ele>
        <time>2019-08-01T09:38:04.955Z</time>
      </trkpt>
      <trkpt lat="43.028345" lon="-1.28995167">
        <ele>1322.0</ele>
        <time>2019-08-01T09:38:05.962Z</time>
      </trkpt>
      <trkpt lat="43.02833833" lon="-1.28996167">
        <ele>1321.0</ele>
        <time>2019-08-01T09:38:06.968Z</time>
      </trkpt>
      <trkpt lat="43.02833167" lon="-1.28997">
        <ele>1320.0</ele>
        <time>2019-08-01T09:38:07.974Z</time>
      </trkpt>
      <trkpt lat="43.02832" lon="-1.28997833">
        <ele>1319.0</ele>
        <time>2019-08-01T09:38:08.980Z</time>
      </trkpt>
      <trkpt lat="43.02831" lon="-1.28998833">
        <ele>1318.0</ele>
        <time>2019-08-01T09:38:09.987Z</time>
      </trkpt>
      <trkpt lat="43.0283" lon="-1.29000167">
        <ele>1318.0</ele>
        <time>2019-08-01T09:38:10.992Z</time>
      </trkpt>
      <trkpt lat="43.02829167" lon="-1.29001167">
        <ele>1317.0</ele>
        <time>2019-08-01T09:38:11.997Z</time>
      </trkpt>
      <trkpt lat="43.02828" lon="-1.290025">
        <ele>1317.0</ele>
        <time>2019-08-01T09:38:13.002Z</time>
      </trkpt>
      <trkpt lat="43.028275" lon="-1.29003333">
        <ele>1317.0</ele>
        <time>2019-08-01T09:38:14.009Z</time>
      </trkpt>
      <trkpt lat="43.02826667" lon="-1.29005">
        <ele>1316.0</ele>
        <time>2019-08-01T09:38:15.014Z</time>
      </trkpt>
      <trkpt lat="43.02826" lon="-1.29006">
        <ele>1315.0</ele>
        <time>2019-08-01T09:38:16.020Z</time>
      </trkpt>
      <trkpt lat="43.02825167" lon="-1.29007">
        <ele>1315.0</ele>
        <time>2019-08-01T09:38:17.027Z</time>
      </trkpt>
      <trkpt lat="43.02824333" lon="-1.29008">
        <ele>1314.0</ele>
        <time>2019-08-01T09:38:18.034Z</time>
      </trkpt>
      <trkpt lat="43.028235" lon="-1.29009333">
        <ele>1313.0</ele>
        <time>2019-08-01T09:38:19.041Z</time>
      </trkpt>
      <trkpt lat="43.02823" lon="-1.29010833">
        <ele>1312.0</ele>
        <time>2019-08-01T09:38:19.922Z</time>
      </trkpt>
      <trkpt lat="43.02822" lon="-1.29012">
        <ele>1311.0</ele>
        <time>2019-08-01T09:38:20.928Z</time>
      </trkpt>
      <trkpt lat="43.02820833" lon="-1.29012833">
        <ele>1310.0</ele>
        <time>2019-08-01T09:38:21.933Z</time>
      </trkpt>
      <trkpt lat="43.0282" lon="-1.29013833">
        <ele>1310.0</ele>
        <time>2019-08-01T09:38:22.939Z</time>
      </trkpt>
      <trkpt lat="43.02819667" lon="-1.29015">
        <ele>1309.0</ele>
        <time>2019-08-01T09:38:23.945Z</time>
      </trkpt>
      <trkpt lat="43.02819" lon="-1.29016167">
        <ele>1308.0</ele>
        <time>2019-08-01T09:38:24.952Z</time>
      </trkpt>
      <trkpt lat="43.02818" lon="-1.29017667">
        <ele>1307.0</ele>
        <time>2019-08-01T09:38:25.959Z</time>
      </trkpt>
      <trkpt lat="43.02817" lon="-1.29019833">
        <ele>1306.0</ele>
        <time>2019-08-01T09:38:26.967Z</time>
      </trkpt>
      <trkpt lat="43.02816167" lon="-1.29021833">
        <ele>1306.0</ele>
        <time>2019-08-01T09:38:27.973Z</time>
      </trkpt>
      <trkpt lat="43.028155" lon="-1.290235">
        <ele>1306.0</ele>
        <time>2019-08-01T09:38:28.979Z</time>
      </trkpt>
      <trkpt lat="43.02815333" lon="-1.29024667">
        <ele>1305.0</ele>
        <time>2019-08-01T09:38:29.983Z</time>
      </trkpt>
      <trkpt lat="43.02814833" lon="-1.29026">
        <ele>1305.0</ele>
        <time>2019-08-01T09:38:30.989Z</time>
      </trkpt>
      <trkpt lat="43.02813667" lon="-1.290275">
        <ele>1305.0</ele>
        <time>2019-08-01T09:38:31.995Z</time>
      </trkpt>
      <trkpt lat="43.02813333" lon="-1.29027833">
        <ele>1304.0</ele>
        <time>2019-08-01T09:38:33.000Z</time>
      </trkpt>
      <trkpt lat="43.02812833" lon="-1.29028833">
        <ele>1303.0</ele>
        <time>2019-08-01T09:38:34.005Z</time>
      </trkpt>
      <trkpt lat="43.02812333" lon="-1.290305">
        <ele>1303.0</ele>
        <time>2019-08-01T09:38:35.011Z</time>
      </trkpt>
      <trkpt lat="43.02812167" lon="-1.29031833">
        <ele>1303.0</ele>
        <time>2019-08-01T09:38:36.016Z</time>
      </trkpt>
      <trkpt lat="43.02812" lon="-1.29033167">
        <ele>1303.0</ele>
        <time>2019-08-01T09:38:37.020Z</time>
      </trkpt>
      <trkpt lat="43.02811333" lon="-1.290345">
        <ele>1302.0</ele>
        <time>2019-08-01T09:38:38.027Z</time>
      </trkpt>
      <trkpt lat="43.02810667" lon="-1.29036167">
        <ele>1302.0</ele>
        <time>2019-08-01T09:38:39.033Z</time>
      </trkpt>
      <trkpt lat="43.02810167" lon="-1.29037667">
        <ele>1302.0</ele>
        <time>2019-08-01T09:38:40.037Z</time>
      </trkpt>
      <trkpt lat="43.02809833" lon="-1.29039333">
        <ele>1302.0</ele>
        <time>2019-08-01T09:38:41.041Z</time>
      </trkpt>
      <trkpt lat="43.028095" lon="-1.29040667">
        <ele>1303.0</ele>
        <time>2019-08-01T09:38:41.921Z</time>
      </trkpt>
      <trkpt lat="43.02809" lon="-1.29041833">
        <ele>1303.0</ele>
        <time>2019-08-01T09:38:42.925Z</time>
      </trkpt>
      <trkpt lat="43.02808333" lon="-1.29043">
        <ele>1303.0</ele>
        <time>2019-08-01T09:38:43.929Z</time>
      </trkpt>
      <trkpt lat="43.02807333" lon="-1.29044667">
        <ele>1303.0</ele>
        <time>2019-08-01T09:38:44.935Z</time>
      </trkpt>
      <trkpt lat="43.02806833" lon="-1.29046167">
        <ele>1302.0</ele>
        <time>2019-08-01T09:38:45.942Z</time>
      </trkpt>
      <trkpt lat="43.02807" lon="-1.29047667">
        <ele>1302.0</ele>
        <time>2019-08-01T09:38:46.950Z</time>
      </trkpt>
      <trkpt lat="43.02807" lon="-1.29049">
        <ele>1301.0</ele>
        <time>2019-08-01T09:38:47.954Z</time>
      </trkpt>
      <trkpt lat="43.02807" lon="-1.29050167">
        <ele>1301.0</ele>
        <time>2019-08-01T09:38:48.961Z</time>
      </trkpt>
      <trkpt lat="43.028065" lon="-1.290515">
        <ele>1300.0</ele>
        <time>2019-08-01T09:38:49.967Z</time>
      </trkpt>
      <trkpt lat="43.02806167" lon="-1.29053">
        <ele>1302.0</ele>
        <time>2019-08-01T09:38:50.972Z</time>
      </trkpt>
      <trkpt lat="43.02805833" lon="-1.29054333">
        <ele>1303.0</ele>
        <time>2019-08-01T09:38:51.977Z</time>
      </trkpt>
      <trkpt lat="43.028055" lon="-1.29055667">
        <ele>1304.0</ele>
        <time>2019-08-01T09:38:52.981Z</time>
      </trkpt>
      <trkpt lat="43.02805333" lon="-1.29056833">
        <ele>1303.0</ele>
        <time>2019-08-01T09:38:53.988Z</time>
      </trkpt>
      <trkpt lat="43.02805333" lon="-1.29058167">
        <ele>1303.0</ele>
        <time>2019-08-01T09:38:54.993Z</time>
      </trkpt>
      <trkpt lat="43.02805167" lon="-1.290595">
        <ele>1303.0</ele>
        <time>2019-08-01T09:38:55.999Z</time>
      </trkpt>
      <trkpt lat="43.02804833" lon="-1.29060333">
        <ele>1303.0</ele>
        <time>2019-08-01T09:38:57.004Z</time>
      </trkpt>
      <trkpt lat="43.028045" lon="-1.29061667">
        <ele>1303.0</ele>
        <time>2019-08-01T09:38:58.011Z</time>
      </trkpt>
      <trkpt lat="43.02805333" lon="-1.29063333">
        <ele>1304.0</ele>
        <time>2019-08-01T09:38:59.017Z</time>
      </trkpt>
      <trkpt lat="43.02805167" lon="-1.29065333">
        <ele>1304.0</ele>
        <time>2019-08-01T09:39:00.021Z</time>
      </trkpt>
      <trkpt lat="43.02805" lon="-1.29067667">
        <ele>1304.0</ele>
        <time>2019-08-01T09:39:01.024Z</time>
      </trkpt>
      <trkpt lat="43.02804833" lon="-1.29069833">
        <ele>1304.0</ele>
        <time>2019-08-01T09:39:02.030Z</time>
      </trkpt>
      <trkpt lat="43.02805167" lon="-1.29071667">
        <ele>1304.0</ele>
        <time>2019-08-01T09:39:03.034Z</time>
      </trkpt>
      <trkpt lat="43.02805667" lon="-1.29073167">
        <ele>1304.0</ele>
        <time>2019-08-01T09:39:04.041Z</time>
      </trkpt>
      <trkpt lat="43.02806167" lon="-1.290745">
        <ele>1303.0</ele>
        <time>2019-08-01T09:39:04.921Z</time>
      </trkpt>
      <trkpt lat="43.02806333" lon="-1.29075333">
        <ele>1303.0</ele>
        <time>2019-08-01T09:39:05.928Z</time>
      </trkpt>
      <trkpt lat="43.02806333" lon="-1.290765">
        <ele>1302.0</ele>
        <time>2019-08-01T09:39:06.933Z</time>
      </trkpt>
      <trkpt lat="43.02806" lon="-1.290775">
        <ele>1301.0</ele>
        <time>2019-08-01T09:39:07.939Z</time>
      </trkpt>
      <trkpt lat="43.02806" lon="-1.29078833">
        <ele>1300.0</ele>
        <time>2019-08-01T09:39:08.943Z</time>
      </trkpt>
      <trkpt lat="43.02805833" lon="-1.29079833">
        <ele>1299.0</ele>
        <time>2019-08-01T09:39:09.949Z</time>
      </trkpt>
      <trkpt lat="43.02806" lon="-1.29081167">
        <ele>1297.0</ele>
        <time>2019-08-01T09:39:10.954Z</time>
      </trkpt>
      <trkpt lat="43.02805667" lon="-1.290825">
        <ele>1297.0</ele>
        <time>2019-08-01T09:39:11.960Z</time>
      </trkpt>
      <trkpt lat="43.028055" lon="-1.29083833">
        <ele>1295.0</ele>
        <time>2019-08-01T09:39:12.967Z</time>
      </trkpt>
      <trkpt lat="43.028055" lon="-1.29085667">
        <ele>1294.0</ele>
        <time>2019-08-01T09:39:13.970Z</time>
      </trkpt>
      <trkpt lat="43.02806" lon="-1.29086667">
        <ele>1292.0</ele>
        <time>2019-08-01T09:39:14.976Z</time>
      </trkpt>
      <trkpt lat="43.02806667" lon="-1.29088">
        <ele>1290.0</ele>
        <time>2019-08-01T09:39:15.983Z</time>
      </trkpt>
      <trkpt lat="43.02807" lon="-1.290895">
        <ele>1288.0</ele>
        <time>2019-08-01T09:39:16.990Z</time>
      </trkpt>
      <trkpt lat="43.02806333" lon="-1.29091833">
        <ele>1287.0</ele>
        <time>2019-08-01T09:39:17.995Z</time>
      </trkpt>
      <trkpt lat="43.02806333" lon="-1.29093">
        <ele>1286.0</ele>
        <time>2019-08-01T09:39:19.001Z</time>
      </trkpt>
      <trkpt lat="43.02807167" lon="-1.290945">
        <ele>1285.0</ele>
        <time>2019-08-01T09:39:20.006Z</time>
      </trkpt>
      <trkpt lat="43.028075" lon="-1.29096167">
        <ele>1283.0</ele>
        <time>2019-08-01T09:39:21.012Z</time>
      </trkpt>
      <trkpt lat="43.02808" lon="-1.29098167">
        <ele>1282.0</ele>
        <time>2019-08-01T09:39:22.017Z</time>
      </trkpt>
      <trkpt lat="43.02808167" lon="-1.29099667">
        <ele>1280.0</ele>
        <time>2019-08-01T09:39:23.024Z</time>
      </trkpt>
      <trkpt lat="43.02807833" lon="-1.291015">
        <ele>1280.0</ele>
        <time>2019-08-01T09:39:24.030Z</time>
      </trkpt>
      <trkpt lat="43.02808" lon="-1.29103167">
        <ele>1279.0</ele>
        <time>2019-08-01T09:39:25.037Z</time>
      </trkpt>
      <trkpt lat="43.02808167" lon="-1.291045">
        <ele>1279.0</ele>
        <time>2019-08-01T09:39:25.918Z</time>
      </trkpt>
      <trkpt lat="43.02808167" lon="-1.29106">
        <ele>1278.0</ele>
        <time>2019-08-01T09:39:26.923Z</time>
      </trkpt>
      <trkpt lat="43.02808333" lon="-1.29107667">
        <ele>1277.0</ele>
        <time>2019-08-01T09:39:27.927Z</time>
      </trkpt>
      <trkpt lat="43.02808167" lon="-1.291095">
        <ele>1277.0</ele>
        <time>2019-08-01T09:39:28.930Z</time>
      </trkpt>
      <trkpt lat="43.02808" lon="-1.29111333">
        <ele>1277.0</ele>
        <time>2019-08-01T09:39:29.937Z</time>
      </trkpt>
      <trkpt lat="43.02807833" lon="-1.29113">
        <ele>1277.0</ele>
        <time>2019-08-01T09:39:30.944Z</time>
      </trkpt>
      <trkpt lat="43.02808167" lon="-1.29114167">
        <ele>1276.0</ele>
        <time>2019-08-01T09:39:31.951Z</time>
      </trkpt>
      <trkpt lat="43.02809167" lon="-1.29114833">
        <ele>1276.0</ele>
        <time>2019-08-01T09:39:32.956Z</time>
      </trkpt>
      <trkpt lat="43.02810333" lon="-1.29116">
        <ele>1276.0</ele>
        <time>2019-08-01T09:39:33.961Z</time>
      </trkpt>
      <trkpt lat="43.02811167" lon="-1.291175">
        <ele>1275.0</ele>
        <time>2019-08-01T09:39:34.968Z</time>
      </trkpt>
      <trkpt lat="43.02811667" lon="-1.29119167">
        <ele>1274.0</ele>
        <time>2019-08-01T09:39:35.974Z</time>
      </trkpt>
      <trkpt lat="43.02811167" lon="-1.29121">
        <ele>1273.0</ele>
        <time>2019-08-01T09:39:36.981Z</time>
      </trkpt>
      <trkpt lat="43.02811167" lon="-1.291225">
        <ele>1272.0</ele>
        <time>2019-08-01T09:39:37.985Z</time>
      </trkpt>
      <trkpt lat="43.02811833" lon="-1.29123833">
        <ele>1273.0</ele>
        <time>2019-08-01T09:39:38.992Z</time>
      </trkpt>
      <trkpt lat="43.02813333" lon="-1.29125167">
        <ele>1273.0</ele>
        <time>2019-08-01T09:39:39.995Z</time>
      </trkpt>
      <trkpt lat="43.02814333" lon="-1.29126">
        <ele>1273.0</ele>
        <time>2019-08-01T09:39:41.001Z</time>
      </trkpt>
      <trkpt lat="43.028155" lon="-1.29126833">
        <ele>1274.0</ele>
        <time>2019-08-01T09:39:42.008Z</time>
      </trkpt>
      <trkpt lat="43.02816" lon="-1.29128">
        <ele>1275.0</ele>
        <time>2019-08-01T09:39:43.010Z</time>
      </trkpt>
      <trkpt lat="43.02816333" lon="-1.29129333">
        <ele>1275.0</ele>
        <time>2019-08-01T09:39:44.011Z</time>
      </trkpt>
      <trkpt lat="43.02816333" lon="-1.29130833">
        <ele>1275.0</ele>
        <time>2019-08-01T09:39:45.016Z</time>
      </trkpt>
      <trkpt lat="43.02816167" lon="-1.291325">
        <ele>1274.0</ele>
        <time>2019-08-01T09:39:46.021Z</time>
      </trkpt>
      <trkpt lat="43.02816833" lon="-1.29133833">
        <ele>1275.0</ele>
        <time>2019-08-01T09:39:47.026Z</time>
      </trkpt>
      <trkpt lat="43.028175" lon="-1.29135333">
        <ele>1274.0</ele>
        <time>2019-08-01T09:39:48.031Z</time>
      </trkpt>
      <trkpt lat="43.02818" lon="-1.29137167">
        <ele>1274.0</ele>
        <time>2019-08-01T09:39:49.037Z</time>
      </trkpt>
      <trkpt lat="43.02817667" lon="-1.29138833">
        <ele>1274.0</ele>
        <time>2019-08-01T09:39:50.043Z</time>
      </trkpt>
      <trkpt lat="43.02817833" lon="-1.29140333">
        <ele>1273.0</ele>
        <time>2019-08-01T09:39:50.922Z</time>
      </trkpt>
      <trkpt lat="43.02818167" lon="-1.29142167">
        <ele>1273.0</ele>
        <time>2019-08-01T09:39:51.927Z</time>
      </trkpt>
      <trkpt lat="43.02818333" lon="-1.29143833">
        <ele>1271.0</ele>
        <time>2019-08-01T09:39:52.932Z</time>
      </trkpt>
      <trkpt lat="43.02818667" lon="-1.291455">
        <ele>1271.0</ele>
        <time>2019-08-01T09:39:53.940Z</time>
      </trkpt>
      <trkpt lat="43.02819" lon="-1.29147667">
        <ele>1271.0</ele>
        <time>2019-08-01T09:39:54.947Z</time>
      </trkpt>
      <trkpt lat="43.02819167" lon="-1.29149833">
        <ele>1271.0</ele>
        <time>2019-08-01T09:39:55.952Z</time>
      </trkpt>
      <trkpt lat="43.02819167" lon="-1.29151667">
        <ele>1271.0</ele>
        <time>2019-08-01T09:39:56.959Z</time>
      </trkpt>
      <trkpt lat="43.02819833" lon="-1.29152833">
        <ele>1270.0</ele>
        <time>2019-08-01T09:39:57.966Z</time>
      </trkpt>
      <trkpt lat="43.028205" lon="-1.29155">
        <ele>1269.0</ele>
        <time>2019-08-01T09:39:58.971Z</time>
      </trkpt>
      <trkpt lat="43.02821667" lon="-1.29157167">
        <ele>1269.0</ele>
        <time>2019-08-01T09:39:59.977Z</time>
      </trkpt>
      <trkpt lat="43.02822333" lon="-1.29158833">
        <ele>1268.0</ele>
        <time>2019-08-01T09:40:00.983Z</time>
      </trkpt>
      <trkpt lat="43.02822833" lon="-1.291605">
        <ele>1268.0</ele>
        <time>2019-08-01T09:40:01.991Z</time>
      </trkpt>
      <trkpt lat="43.028235" lon="-1.29161333">
        <ele>1267.0</ele>
        <time>2019-08-01T09:40:02.995Z</time>
      </trkpt>
      <trkpt lat="43.02823667" lon="-1.29163167">
        <ele>1266.0</ele>
        <time>2019-08-01T09:40:04.001Z</time>
      </trkpt>
      <trkpt lat="43.02824167" lon="-1.29164833">
        <ele>1266.0</ele>
        <time>2019-08-01T09:40:05.008Z</time>
      </trkpt>
      <trkpt lat="43.02825167" lon="-1.29166167">
        <ele>1265.0</ele>
        <time>2019-08-01T09:40:06.011Z</time>
      </trkpt>
      <trkpt lat="43.02825667" lon="-1.29168">
        <ele>1265.0</ele>
        <time>2019-08-01T09:40:07.017Z</time>
      </trkpt>
      <trkpt lat="43.02826" lon="-1.29169833">
        <ele>1265.0</ele>
        <time>2019-08-01T09:40:08.023Z</time>
      </trkpt>
      <trkpt lat="43.028255" lon="-1.29171667">
        <ele>1265.0</ele>
        <time>2019-08-01T09:40:09.030Z</time>
      </trkpt>
      <trkpt lat="43.02825333" lon="-1.29173667">
        <ele>1265.0</ele>
        <time>2019-08-01T09:40:10.036Z</time>
      </trkpt>
      <trkpt lat="43.02826" lon="-1.29175167">
        <ele>1265.0</ele>
        <time>2019-08-01T09:40:11.042Z</time>
      </trkpt>
      <trkpt lat="43.028265" lon="-1.29177333">
        <ele>1264.0</ele>
        <time>2019-08-01T09:40:11.918Z</time>
      </trkpt>
      <trkpt lat="43.02827167" lon="-1.29179167">
        <ele>1264.0</ele>
        <time>2019-08-01T09:40:12.923Z</time>
      </trkpt>
      <trkpt lat="43.02828167" lon="-1.291805">
        <ele>1264.0</ele>
        <time>2019-08-01T09:40:13.928Z</time>
      </trkpt>
      <trkpt lat="43.028295" lon="-1.29181333">
        <ele>1264.0</ele>
        <time>2019-08-01T09:40:14.932Z</time>
      </trkpt>
      <trkpt lat="43.02830667" lon="-1.29182167">
        <ele>1264.0</ele>
        <time>2019-08-01T09:40:15.938Z</time>
      </trkpt>
      <trkpt lat="43.02831833" lon="-1.29182833">
        <ele>1264.0</ele>
        <time>2019-08-01T09:40:16.943Z</time>
      </trkpt>
      <trkpt lat="43.02833667" lon="-1.29183">
        <ele>1265.0</ele>
        <time>2019-08-01T09:40:17.947Z</time>
      </trkpt>
      <trkpt lat="43.02835167" lon="-1.29183167">
        <ele>1266.0</ele>
        <time>2019-08-01T09:40:18.950Z</time>
      </trkpt>
      <trkpt lat="43.02835667" lon="-1.29184">
        <ele>1267.0</ele>
        <time>2019-08-01T09:40:19.957Z</time>
      </trkpt>
      <trkpt lat="43.02837167" lon="-1.29183833">
        <ele>1268.0</ele>
        <time>2019-08-01T09:40:20.963Z</time>
      </trkpt>
      <trkpt lat="43.028395" lon="-1.29181833">
        <ele>1269.0</ele>
        <time>2019-08-01T09:40:21.969Z</time>
      </trkpt>
      <trkpt lat="43.02841667" lon="-1.29179667">
        <ele>1269.0</ele>
        <time>2019-08-01T09:40:22.975Z</time>
      </trkpt>
      <trkpt lat="43.02843167" lon="-1.29177667">
        <ele>1270.0</ele>
        <time>2019-08-01T09:40:23.983Z</time>
      </trkpt>
      <trkpt lat="43.028435" lon="-1.29176167">
        <ele>1271.0</ele>
        <time>2019-08-01T09:40:24.989Z</time>
      </trkpt>
      <trkpt lat="43.02844333" lon="-1.291745">
        <ele>1272.0</ele>
        <time>2019-08-01T09:40:25.996Z</time>
      </trkpt>
      <trkpt lat="43.028455" lon="-1.29172833">
        <ele>1272.0</ele>
        <time>2019-08-01T09:40:27.002Z</time>
      </trkpt>
      <trkpt lat="43.02846333" lon="-1.29171167">
        <ele>1272.0</ele>
        <time>2019-08-01T09:40:28.008Z</time>
      </trkpt>
      <trkpt lat="43.02847" lon="-1.291695">
        <ele>1272.0</ele>
        <time>2019-08-01T09:40:29.012Z</time>
      </trkpt>
      <trkpt lat="43.028475" lon="-1.29167167">
        <ele>1273.0</ele>
        <time>2019-08-01T09:40:30.019Z</time>
      </trkpt>
      <trkpt lat="43.02847833" lon="-1.29164833">
        <ele>1274.0</ele>
        <time>2019-08-01T09:40:31.024Z</time>
      </trkpt>
      <trkpt lat="43.02847667" lon="-1.29162">
        <ele>1274.0</ele>
        <time>2019-08-01T09:40:32.029Z</time>
      </trkpt>
      <trkpt lat="43.028475" lon="-1.2916">
        <ele>1274.0</ele>
        <time>2019-08-01T09:40:33.035Z</time>
      </trkpt>
      <trkpt lat="43.02848167" lon="-1.29158667">
        <ele>1273.0</ele>
        <time>2019-08-01T09:40:34.040Z</time>
      </trkpt>
      <trkpt lat="43.02849333" lon="-1.29157">
        <ele>1273.0</ele>
        <time>2019-08-01T09:40:34.922Z</time>
      </trkpt>
      <trkpt lat="43.02849833" lon="-1.29155667">
        <ele>1273.0</ele>
        <time>2019-08-01T09:40:35.928Z</time>
      </trkpt>
      <trkpt lat="43.02850333" lon="-1.29154333">
        <ele>1274.0</ele>
        <time>2019-08-01T09:40:36.933Z</time>
      </trkpt>
      <trkpt lat="43.02850667" lon="-1.29152333">
        <ele>1275.0</ele>
        <time>2019-08-01T09:40:37.937Z</time>
      </trkpt>
      <trkpt lat="43.02851" lon="-1.2915">
        <ele>1276.0</ele>
        <time>2019-08-01T09:40:38.942Z</time>
      </trkpt>
      <trkpt lat="43.028515" lon="-1.29147667">
        <ele>1276.0</ele>
        <time>2019-08-01T09:40:39.947Z</time>
      </trkpt>
      <trkpt lat="43.028515" lon="-1.29145333">
        <ele>1276.0</ele>
        <time>2019-08-01T09:40:40.955Z</time>
      </trkpt>
      <trkpt lat="43.02851833" lon="-1.29143167">
        <ele>1275.0</ele>
        <time>2019-08-01T09:40:41.961Z</time>
      </trkpt>
      <trkpt lat="43.02852333" lon="-1.29140833">
        <ele>1275.0</ele>
        <time>2019-08-01T09:40:42.968Z</time>
      </trkpt>
      <trkpt lat="43.02853" lon="-1.291385">
        <ele>1274.0</ele>
        <time>2019-08-01T09:40:43.972Z</time>
      </trkpt>
      <trkpt lat="43.028535" lon="-1.29137">
        <ele>1273.0</ele>
        <time>2019-08-01T09:40:44.979Z</time>
      </trkpt>
      <trkpt lat="43.02853333" lon="-1.29136333">
        <ele>1272.0</ele>
        <time>2019-08-01T09:40:45.986Z</time>
      </trkpt>
      <trkpt lat="43.02853" lon="-1.29135">
        <ele>1272.0</ele>
        <time>2019-08-01T09:40:46.993Z</time>
      </trkpt>
      <trkpt lat="43.02852833" lon="-1.291335">
        <ele>1273.0</ele>
        <time>2019-08-01T09:40:48.000Z</time>
      </trkpt>
      <trkpt lat="43.02853" lon="-1.29131833">
        <ele>1273.0</ele>
        <time>2019-08-01T09:40:49.006Z</time>
      </trkpt>
      <trkpt lat="43.02852833" lon="-1.29130667">
        <ele>1273.0</ele>
        <time>2019-08-01T09:40:50.011Z</time>
      </trkpt>
      <trkpt lat="43.02852833" lon="-1.29129">
        <ele>1273.0</ele>
        <time>2019-08-01T09:40:51.017Z</time>
      </trkpt>
      <trkpt lat="43.02852833" lon="-1.29127667">
        <ele>1273.0</ele>
        <time>2019-08-01T09:40:52.023Z</time>
      </trkpt>
      <trkpt lat="43.02852833" lon="-1.29126167">
        <ele>1273.0</ele>
        <time>2019-08-01T09:40:53.030Z</time>
      </trkpt>
      <trkpt lat="43.02853167" lon="-1.29124333">
        <ele>1272.0</ele>
        <time>2019-08-01T09:40:54.035Z</time>
      </trkpt>
      <trkpt lat="43.02853333" lon="-1.29122833">
        <ele>1272.0</ele>
        <time>2019-08-01T09:40:55.042Z</time>
      </trkpt>
      <trkpt lat="43.02853667" lon="-1.29121167">
        <ele>1272.0</ele>
        <time>2019-08-01T09:40:55.922Z</time>
      </trkpt>
      <trkpt lat="43.02854167" lon="-1.29119667">
        <ele>1272.0</ele>
        <time>2019-08-01T09:40:56.928Z</time>
      </trkpt>
      <trkpt lat="43.028545" lon="-1.29118">
        <ele>1272.0</ele>
        <time>2019-08-01T09:40:57.936Z</time>
      </trkpt>
      <trkpt lat="43.02855" lon="-1.291165">
        <ele>1272.0</ele>
        <time>2019-08-01T09:40:58.943Z</time>
      </trkpt>
      <trkpt lat="43.02855333" lon="-1.29115">
        <ele>1272.0</ele>
        <time>2019-08-01T09:40:59.950Z</time>
      </trkpt>
      <trkpt lat="43.02855667" lon="-1.29113833">
        <ele>1271.0</ele>
        <time>2019-08-01T09:41:00.956Z</time>
      </trkpt>
      <trkpt lat="43.02856333" lon="-1.29112333">
        <ele>1272.0</ele>
        <time>2019-08-01T09:41:01.964Z</time>
      </trkpt>
      <trkpt lat="43.02857167" lon="-1.29110833">
        <ele>1271.0</ele>
        <time>2019-08-01T09:41:02.967Z</time>
      </trkpt>
      <trkpt lat="43.028575" lon="-1.291095">
        <ele>1271.0</ele>
        <time>2019-08-01T09:41:03.973Z</time>
      </trkpt>
      <trkpt lat="43.02857667" lon="-1.29108167">
        <ele>1271.0</ele>
        <time>2019-08-01T09:41:04.980Z</time>
      </trkpt>
      <trkpt lat="43.02858167" lon="-1.29106667">
        <ele>1271.0</ele>
        <time>2019-08-01T09:41:05.986Z</time>
      </trkpt>
      <trkpt lat="43.02858167" lon="-1.29105167">
        <ele>1271.0</ele>
        <time>2019-08-01T09:41:06.993Z</time>
      </trkpt>
      <trkpt lat="43.02858333" lon="-1.29103833">
        <ele>1271.0</ele>
        <time>2019-08-01T09:41:07.999Z</time>
      </trkpt>
      <trkpt lat="43.02858333" lon="-1.291025">
        <ele>1270.0</ele>
        <time>2019-08-01T09:41:09.005Z</time>
      </trkpt>
      <trkpt lat="43.02858667" lon="-1.29101167">
        <ele>1270.0</ele>
        <time>2019-08-01T09:41:10.011Z</time>
      </trkpt>
      <trkpt lat="43.02858833" lon="-1.29100167">
        <ele>1270.0</ele>
        <time>2019-08-01T09:41:11.017Z</time>
      </trkpt>
      <trkpt lat="43.02859167" lon="-1.29099">
        <ele>1270.0</ele>
        <time>2019-08-01T09:41:12.022Z</time>
      </trkpt>
      <trkpt lat="43.028595" lon="-1.29097833">
        <ele>1270.0</ele>
        <time>2019-08-01T09:41:13.028Z</time>
      </trkpt>
      <trkpt lat="43.02859667" lon="-1.29096667">
        <ele>1270.0</ele>
        <time>2019-08-01T09:41:14.035Z</time>
      </trkpt>
      <trkpt lat="43.02859833" lon="-1.29095667">
        <ele>1271.0</ele>
        <time>2019-08-01T09:41:15.041Z</time>
      </trkpt>
      <trkpt lat="43.02860167" lon="-1.290945">
        <ele>1271.0</ele>
        <time>2019-08-01T09:41:15.920Z</time>
      </trkpt>
      <trkpt lat="43.028605" lon="-1.29093333">
        <ele>1270.0</ele>
        <time>2019-08-01T09:41:16.927Z</time>
      </trkpt>
      <trkpt lat="43.02861333" lon="-1.29092">
        <ele>1270.0</ele>
        <time>2019-08-01T09:41:17.932Z</time>
      </trkpt>
      <trkpt lat="43.02861833" lon="-1.29091">
        <ele>1270.0</ele>
        <time>2019-08-01T09:41:18.937Z</time>
      </trkpt>
      <trkpt lat="43.02862833" lon="-1.29089667">
        <ele>1270.0</ele>
        <time>2019-08-01T09:41:19.944Z</time>
      </trkpt>
      <trkpt lat="43.02864167" lon="-1.29088167">
        <ele>1270.0</ele>
        <time>2019-08-01T09:41:20.951Z</time>
      </trkpt>
      <trkpt lat="43.02865167" lon="-1.29087">
        <ele>1270.0</ele>
        <time>2019-08-01T09:41:21.957Z</time>
      </trkpt>
      <trkpt lat="43.02866167" lon="-1.29086167">
        <ele>1270.0</ele>
        <time>2019-08-01T09:41:22.962Z</time>
      </trkpt>
      <trkpt lat="43.02866667" lon="-1.290855">
        <ele>1270.0</ele>
        <time>2019-08-01T09:41:23.966Z</time>
      </trkpt>
      <trkpt lat="43.02867667" lon="-1.290845">
        <ele>1270.0</ele>
        <time>2019-08-01T09:41:24.973Z</time>
      </trkpt>
      <trkpt lat="43.02868667" lon="-1.290835">
        <ele>1270.0</ele>
        <time>2019-08-01T09:41:25.979Z</time>
      </trkpt>
      <trkpt lat="43.028695" lon="-1.29082667">
        <ele>1270.0</ele>
        <time>2019-08-01T09:41:26.986Z</time>
      </trkpt>
      <trkpt lat="43.028705" lon="-1.29081667">
        <ele>1270.0</ele>
        <time>2019-08-01T09:41:27.992Z</time>
      </trkpt>
      <trkpt lat="43.02871667" lon="-1.29080333">
        <ele>1270.0</ele>
        <time>2019-08-01T09:41:28.997Z</time>
      </trkpt>
      <trkpt lat="43.02872833" lon="-1.29079">
        <ele>1270.0</ele>
        <time>2019-08-01T09:41:30.002Z</time>
      </trkpt>
      <trkpt lat="43.02873667" lon="-1.29078">
        <ele>1270.0</ele>
        <time>2019-08-01T09:41:31.008Z</time>
      </trkpt>
      <trkpt lat="43.02874667" lon="-1.29077">
        <ele>1269.0</ele>
        <time>2019-08-01T09:41:32.012Z</time>
      </trkpt>
      <trkpt lat="43.028755" lon="-1.29076167">
        <ele>1270.0</ele>
        <time>2019-08-01T09:41:33.019Z</time>
      </trkpt>
      <trkpt lat="43.02876" lon="-1.29075333">
        <ele>1270.0</ele>
        <time>2019-08-01T09:41:34.027Z</time>
      </trkpt>
      <trkpt lat="43.028765" lon="-1.290745">
        <ele>1270.0</ele>
        <time>2019-08-01T09:41:35.034Z</time>
      </trkpt>
      <trkpt lat="43.02877167" lon="-1.29073333">
        <ele>1270.0</ele>
        <time>2019-08-01T09:41:36.038Z</time>
      </trkpt>
      <trkpt lat="43.02878167" lon="-1.29072167">
        <ele>1270.0</ele>
        <time>2019-08-01T09:41:36.918Z</time>
      </trkpt>
      <trkpt lat="43.02878833" lon="-1.29071167">
        <ele>1269.0</ele>
        <time>2019-08-01T09:41:37.924Z</time>
      </trkpt>
      <trkpt lat="43.02879833" lon="-1.29070167">
        <ele>1270.0</ele>
        <time>2019-08-01T09:41:38.929Z</time>
      </trkpt>
      <trkpt lat="43.02880833" lon="-1.29069333">
        <ele>1270.0</ele>
        <time>2019-08-01T09:41:39.935Z</time>
      </trkpt>
      <trkpt lat="43.02881667" lon="-1.29068667">
        <ele>1270.0</ele>
        <time>2019-08-01T09:41:40.942Z</time>
      </trkpt>
      <trkpt lat="43.028825" lon="-1.29068">
        <ele>1271.0</ele>
        <time>2019-08-01T09:41:41.948Z</time>
      </trkpt>
      <trkpt lat="43.028835" lon="-1.29067167">
        <ele>1271.0</ele>
        <time>2019-08-01T09:41:42.952Z</time>
      </trkpt>
      <trkpt lat="43.028845" lon="-1.29066167">
        <ele>1272.0</ele>
        <time>2019-08-01T09:41:43.957Z</time>
      </trkpt>
      <trkpt lat="43.028855" lon="-1.29065333">
        <ele>1272.0</ele>
        <time>2019-08-01T09:41:44.963Z</time>
      </trkpt>
      <trkpt lat="43.028865" lon="-1.29064833">
        <ele>1272.0</ele>
        <time>2019-08-01T09:41:45.969Z</time>
      </trkpt>
      <trkpt lat="43.02887" lon="-1.29064167">
        <ele>1273.0</ele>
        <time>2019-08-01T09:41:46.975Z</time>
      </trkpt>
      <trkpt lat="43.028875" lon="-1.29063667">
        <ele>1273.0</ele>
        <time>2019-08-01T09:41:47.979Z</time>
      </trkpt>
      <trkpt lat="43.02887667" lon="-1.29063333">
        <ele>1273.0</ele>
        <time>2019-08-01T09:41:48.983Z</time>
      </trkpt>
      <trkpt lat="43.02888" lon="-1.29063">
        <ele>1274.0</ele>
        <time>2019-08-01T09:41:49.989Z</time>
      </trkpt>
      <trkpt lat="43.02888667" lon="-1.290625">
        <ele>1274.0</ele>
        <time>2019-08-01T09:41:50.994Z</time>
      </trkpt>
      <trkpt lat="43.028895" lon="-1.29061667">
        <ele>1274.0</ele>
        <time>2019-08-01T09:41:52.000Z</time>
      </trkpt>
      <trkpt lat="43.028905" lon="-1.29060833">
        <ele>1275.0</ele>
        <time>2019-08-01T09:41:53.006Z</time>
      </trkpt>
      <trkpt lat="43.02891167" lon="-1.29060167">
        <ele>1275.0</ele>
        <time>2019-08-01T09:41:54.012Z</time>
      </trkpt>
      <trkpt lat="43.02891833" lon="-1.29059667">
        <ele>1276.0</ele>
        <time>2019-08-01T09:41:55.019Z</time>
      </trkpt>
      <trkpt lat="43.028925" lon="-1.29059167">
        <ele>1276.0</ele>
        <time>2019-08-01T09:41:56.025Z</time>
      </trkpt>
      <trkpt lat="43.028935" lon="-1.290585">
        <ele>1275.0</ele>
        <time>2019-08-01T09:41:57.032Z</time>
      </trkpt>
      <trkpt lat="43.02894667" lon="-1.29057667">
        <ele>1275.0</ele>
        <time>2019-08-01T09:41:58.038Z</time>
      </trkpt>
      <trkpt lat="43.02896333" lon="-1.29056667">
        <ele>1275.0</ele>
        <time>2019-08-01T09:41:58.920Z</time>
      </trkpt>
      <trkpt lat="43.02897333" lon="-1.29056333">
        <ele>1276.0</ele>
        <time>2019-08-01T09:41:59.925Z</time>
      </trkpt>
      <trkpt lat="43.02898" lon="-1.29056167">
        <ele>1276.0</ele>
        <time>2019-08-01T09:42:00.929Z</time>
      </trkpt>
      <trkpt lat="43.02898833" lon="-1.29056">
        <ele>1276.0</ele>
        <time>2019-08-01T09:42:01.935Z</time>
      </trkpt>
      <trkpt lat="43.02899667" lon="-1.29055667">
        <ele>1276.0</ele>
        <time>2019-08-01T09:42:02.941Z</time>
      </trkpt>
      <trkpt lat="43.02900333" lon="-1.29055167">
        <ele>1276.0</ele>
        <time>2019-08-01T09:42:03.948Z</time>
      </trkpt>
      <trkpt lat="43.02901333" lon="-1.29054833">
        <ele>1276.0</ele>
        <time>2019-08-01T09:42:04.955Z</time>
      </trkpt>
      <trkpt lat="43.02902667" lon="-1.290545">
        <ele>1276.0</ele>
        <time>2019-08-01T09:42:05.963Z</time>
      </trkpt>
      <trkpt lat="43.029035" lon="-1.29054167">
        <ele>1276.0</ele>
        <time>2019-08-01T09:42:06.969Z</time>
      </trkpt>
      <trkpt lat="43.02904667" lon="-1.29053833">
        <ele>1276.0</ele>
        <time>2019-08-01T09:42:07.975Z</time>
      </trkpt>
      <trkpt lat="43.029055" lon="-1.29053333">
        <ele>1276.0</ele>
        <time>2019-08-01T09:42:08.981Z</time>
      </trkpt>
      <trkpt lat="43.029065" lon="-1.29053167">
        <ele>1277.0</ele>
        <time>2019-08-01T09:42:09.987Z</time>
      </trkpt>
      <trkpt lat="43.02907667" lon="-1.29053167">
        <ele>1277.0</ele>
        <time>2019-08-01T09:42:10.993Z</time>
      </trkpt>
      <trkpt lat="43.029085" lon="-1.29053167">
        <ele>1276.0</ele>
        <time>2019-08-01T09:42:11.996Z</time>
      </trkpt>
      <trkpt lat="43.029095" lon="-1.29053">
        <ele>1277.0</ele>
        <time>2019-08-01T09:42:13.002Z</time>
      </trkpt>
      <trkpt lat="43.02910667" lon="-1.290525">
        <ele>1278.0</ele>
        <time>2019-08-01T09:42:14.009Z</time>
      </trkpt>
      <trkpt lat="43.02911833" lon="-1.290525">
        <ele>1278.0</ele>
        <time>2019-08-01T09:42:15.013Z</time>
      </trkpt>
      <trkpt lat="43.02913" lon="-1.29052167">
        <ele>1278.0</ele>
        <time>2019-08-01T09:42:16.019Z</time>
      </trkpt>
      <trkpt lat="43.02914333" lon="-1.29051667">
        <ele>1278.0</ele>
        <time>2019-08-01T09:42:17.026Z</time>
      </trkpt>
      <trkpt lat="43.02915167" lon="-1.290515">
        <ele>1278.0</ele>
        <time>2019-08-01T09:42:18.032Z</time>
      </trkpt>
      <trkpt lat="43.02916333" lon="-1.29051333">
        <ele>1278.0</ele>
        <time>2019-08-01T09:42:19.038Z</time>
      </trkpt>
      <trkpt lat="43.029175" lon="-1.29051167">
        <ele>1278.0</ele>
        <time>2019-08-01T09:42:19.918Z</time>
      </trkpt>
      <trkpt lat="43.02918667" lon="-1.29051167">
        <ele>1278.0</ele>
        <time>2019-08-01T09:42:20.924Z</time>
      </trkpt>
      <trkpt lat="43.02919" lon="-1.29051333">
        <ele>1278.0</ele>
        <time>2019-08-01T09:42:21.929Z</time>
      </trkpt>
      <trkpt lat="43.02920167" lon="-1.29051333">
        <ele>1278.0</ele>
        <time>2019-08-01T09:42:22.934Z</time>
      </trkpt>
      <trkpt lat="43.02921" lon="-1.290515">
        <ele>1278.0</ele>
        <time>2019-08-01T09:42:23.940Z</time>
      </trkpt>
      <trkpt lat="43.02922333" lon="-1.29051333">
        <ele>1278.0</ele>
        <time>2019-08-01T09:42:24.947Z</time>
      </trkpt>
      <trkpt lat="43.02923667" lon="-1.29050833">
        <ele>1278.0</ele>
        <time>2019-08-01T09:42:25.955Z</time>
      </trkpt>
      <trkpt lat="43.02924833" lon="-1.29050667">
        <ele>1279.0</ele>
        <time>2019-08-01T09:42:26.962Z</time>
      </trkpt>
      <trkpt lat="43.02926" lon="-1.29051">
        <ele>1279.0</ele>
        <time>2019-08-01T09:42:27.969Z</time>
      </trkpt>
      <trkpt lat="43.02927167" lon="-1.29050833">
        <ele>1279.0</ele>
        <time>2019-08-01T09:42:28.970Z</time>
      </trkpt>
      <trkpt lat="43.029285" lon="-1.29050667">
        <ele>1279.0</ele>
        <time>2019-08-01T09:42:29.972Z</time>
      </trkpt>
      <trkpt lat="43.02929" lon="-1.29050333">
        <ele>1279.0</ele>
        <time>2019-08-01T09:42:30.977Z</time>
      </trkpt>
      <trkpt lat="43.02929667" lon="-1.29049833">
        <ele>1278.0</ele>
        <time>2019-08-01T09:42:31.979Z</time>
      </trkpt>
      <trkpt lat="43.02930667" lon="-1.29049833">
        <ele>1279.0</ele>
        <time>2019-08-01T09:42:32.983Z</time>
      </trkpt>
      <trkpt lat="43.02931833" lon="-1.29049667">
        <ele>1279.0</ele>
        <time>2019-08-01T09:42:33.986Z</time>
      </trkpt>
      <trkpt lat="43.02933" lon="-1.290495">
        <ele>1278.0</ele>
        <time>2019-08-01T09:42:34.992Z</time>
      </trkpt>
      <trkpt lat="43.02934167" lon="-1.29049333">
        <ele>1278.0</ele>
        <time>2019-08-01T09:42:35.999Z</time>
      </trkpt>
      <trkpt lat="43.02935" lon="-1.29049167">
        <ele>1278.0</ele>
        <time>2019-08-01T09:42:37.005Z</time>
      </trkpt>
      <trkpt lat="43.02935667" lon="-1.290495">
        <ele>1278.0</ele>
        <time>2019-08-01T09:42:38.011Z</time>
      </trkpt>
      <trkpt lat="43.029365" lon="-1.29049833">
        <ele>1279.0</ele>
        <time>2019-08-01T09:42:39.016Z</time>
      </trkpt>
      <trkpt lat="43.02937333" lon="-1.29050333">
        <ele>1279.0</ele>
        <time>2019-08-01T09:42:40.022Z</time>
      </trkpt>
      <trkpt lat="43.02938333" lon="-1.29050333">
        <ele>1278.0</ele>
        <time>2019-08-01T09:42:41.028Z</time>
      </trkpt>
      <trkpt lat="43.02939333" lon="-1.29049833">
        <ele>1277.0</ele>
        <time>2019-08-01T09:42:42.034Z</time>
      </trkpt>
      <trkpt lat="43.029405" lon="-1.29049333">
        <ele>1276.0</ele>
        <time>2019-08-01T09:42:43.037Z</time>
      </trkpt>
      <trkpt lat="43.02942333" lon="-1.29049167">
        <ele>1274.0</ele>
        <time>2019-08-01T09:42:44.043Z</time>
      </trkpt>
      <trkpt lat="43.02943667" lon="-1.29049333">
        <ele>1274.0</ele>
        <time>2019-08-01T09:42:44.923Z</time>
      </trkpt>
      <trkpt lat="43.02944667" lon="-1.29049333">
        <ele>1273.0</ele>
        <time>2019-08-01T09:42:45.928Z</time>
      </trkpt>
      <trkpt lat="43.02945833" lon="-1.29049167">
        <ele>1274.0</ele>
        <time>2019-08-01T09:42:46.934Z</time>
      </trkpt>
      <trkpt lat="43.02947333" lon="-1.29048667">
        <ele>1274.0</ele>
        <time>2019-08-01T09:42:47.941Z</time>
      </trkpt>
      <trkpt lat="43.02948833" lon="-1.29048">
        <ele>1274.0</ele>
        <time>2019-08-01T09:42:48.945Z</time>
      </trkpt>
      <trkpt lat="43.02950667" lon="-1.290475">
        <ele>1274.0</ele>
        <time>2019-08-01T09:42:49.952Z</time>
      </trkpt>
      <trkpt lat="43.02951667" lon="-1.29047">
        <ele>1274.0</ele>
        <time>2019-08-01T09:42:50.959Z</time>
      </trkpt>
      <trkpt lat="43.02952333" lon="-1.29047167">
        <ele>1275.0</ele>
        <time>2019-08-01T09:42:51.966Z</time>
      </trkpt>
      <trkpt lat="43.02953333" lon="-1.29047833">
        <ele>1276.0</ele>
        <time>2019-08-01T09:42:52.972Z</time>
      </trkpt>
      <trkpt lat="43.02954167" lon="-1.29048833">
        <ele>1277.0</ele>
        <time>2019-08-01T09:42:53.978Z</time>
      </trkpt>
      <trkpt lat="43.02955667" lon="-1.29048333">
        <ele>1276.0</ele>
        <time>2019-08-01T09:42:54.983Z</time>
      </trkpt>
      <trkpt lat="43.02956667" lon="-1.29048167">
        <ele>1276.0</ele>
        <time>2019-08-01T09:42:55.988Z</time>
      </trkpt>
      <trkpt lat="43.02958" lon="-1.29048333">
        <ele>1276.0</ele>
        <time>2019-08-01T09:42:56.995Z</time>
      </trkpt>
      <trkpt lat="43.02959" lon="-1.290485">
        <ele>1277.0</ele>
        <time>2019-08-01T09:42:57.999Z</time>
      </trkpt>
      <trkpt lat="43.02960167" lon="-1.29048833">
        <ele>1277.0</ele>
        <time>2019-08-01T09:42:59.005Z</time>
      </trkpt>
      <trkpt lat="43.02961333" lon="-1.29049167">
        <ele>1278.0</ele>
        <time>2019-08-01T09:43:00.011Z</time>
      </trkpt>
      <trkpt lat="43.02962167" lon="-1.29049333">
        <ele>1278.0</ele>
        <time>2019-08-01T09:43:01.018Z</time>
      </trkpt>
      <trkpt lat="43.02963167" lon="-1.290495">
        <ele>1279.0</ele>
        <time>2019-08-01T09:43:02.022Z</time>
      </trkpt>
      <trkpt lat="43.02964333" lon="-1.290495">
        <ele>1279.0</ele>
        <time>2019-08-01T09:43:03.028Z</time>
      </trkpt>
      <trkpt lat="43.029655" lon="-1.29049333">
        <ele>1279.0</ele>
        <time>2019-08-01T09:43:04.036Z</time>
      </trkpt>
      <trkpt lat="43.02966833" lon="-1.29049167">
        <ele>1279.0</ele>
        <time>2019-08-01T09:43:04.918Z</time>
      </trkpt>
      <trkpt lat="43.02968" lon="-1.29049">
        <ele>1278.0</ele>
        <time>2019-08-01T09:43:05.923Z</time>
      </trkpt>
      <trkpt lat="43.02969" lon="-1.29048833">
        <ele>1279.0</ele>
        <time>2019-08-01T09:43:06.928Z</time>
      </trkpt>
      <trkpt lat="43.02970167" lon="-1.29048667">
        <ele>1279.0</ele>
        <time>2019-08-01T09:43:07.933Z</time>
      </trkpt>
      <trkpt lat="43.02971167" lon="-1.29048333">
        <ele>1279.0</ele>
        <time>2019-08-01T09:43:08.941Z</time>
      </trkpt>
      <trkpt lat="43.029725" lon="-1.29048167">
        <ele>1279.0</ele>
        <time>2019-08-01T09:43:09.947Z</time>
      </trkpt>
      <trkpt lat="43.029735" lon="-1.29048">
        <ele>1280.0</ele>
        <time>2019-08-01T09:43:10.953Z</time>
      </trkpt>
      <trkpt lat="43.029745" lon="-1.29048333">
        <ele>1280.0</ele>
        <time>2019-08-01T09:43:11.959Z</time>
      </trkpt>
      <trkpt lat="43.02975667" lon="-1.29048333">
        <ele>1280.0</ele>
        <time>2019-08-01T09:43:12.965Z</time>
      </trkpt>
      <trkpt lat="43.029765" lon="-1.290485">
        <ele>1281.0</ele>
        <time>2019-08-01T09:43:13.968Z</time>
      </trkpt>
      <trkpt lat="43.02977333" lon="-1.29048667">
        <ele>1281.0</ele>
        <time>2019-08-01T09:43:14.975Z</time>
      </trkpt>
      <trkpt lat="43.02978667" lon="-1.29048667">
        <ele>1281.0</ele>
        <time>2019-08-01T09:43:15.979Z</time>
      </trkpt>
      <trkpt lat="43.02979833" lon="-1.290485">
        <ele>1281.0</ele>
        <time>2019-08-01T09:43:16.984Z</time>
      </trkpt>
      <trkpt lat="43.02980667" lon="-1.29049">
        <ele>1281.0</ele>
        <time>2019-08-01T09:43:17.990Z</time>
      </trkpt>
      <trkpt lat="43.029815" lon="-1.29049167">
        <ele>1281.0</ele>
        <time>2019-08-01T09:43:18.995Z</time>
      </trkpt>
      <trkpt lat="43.029825" lon="-1.29049667">
        <ele>1282.0</ele>
        <time>2019-08-01T09:43:20.000Z</time>
      </trkpt>
      <trkpt lat="43.02983667" lon="-1.29049667">
        <ele>1282.0</ele>
        <time>2019-08-01T09:43:21.005Z</time>
      </trkpt>
      <trkpt lat="43.02984667" lon="-1.29049833">
        <ele>1282.0</ele>
        <time>2019-08-01T09:43:22.011Z</time>
      </trkpt>
      <trkpt lat="43.029855" lon="-1.29050333">
        <ele>1283.0</ele>
        <time>2019-08-01T09:43:23.016Z</time>
      </trkpt>
      <trkpt lat="43.02986667" lon="-1.290505">
        <ele>1283.0</ele>
        <time>2019-08-01T09:43:24.022Z</time>
      </trkpt>
      <trkpt lat="43.02987833" lon="-1.29050667">
        <ele>1283.0</ele>
        <time>2019-08-01T09:43:25.028Z</time>
      </trkpt>
      <trkpt lat="43.02989" lon="-1.29051167">
        <ele>1282.0</ele>
        <time>2019-08-01T09:43:26.036Z</time>
      </trkpt>
      <trkpt lat="43.0299" lon="-1.29051667">
        <ele>1283.0</ele>
        <time>2019-08-01T09:43:27.042Z</time>
      </trkpt>
      <trkpt lat="43.02990833" lon="-1.29052333">
        <ele>1283.0</ele>
        <time>2019-08-01T09:43:27.922Z</time>
      </trkpt>
      <trkpt lat="43.02991333" lon="-1.29053333">
        <ele>1283.0</ele>
        <time>2019-08-01T09:43:28.928Z</time>
      </trkpt>
      <trkpt lat="43.02992167" lon="-1.29054">
        <ele>1283.0</ele>
        <time>2019-08-01T09:43:29.933Z</time>
      </trkpt>
      <trkpt lat="43.02993167" lon="-1.290545">
        <ele>1283.0</ele>
        <time>2019-08-01T09:43:30.940Z</time>
      </trkpt>
      <trkpt lat="43.029945" lon="-1.29054667">
        <ele>1283.0</ele>
        <time>2019-08-01T09:43:31.944Z</time>
      </trkpt>
      <trkpt lat="43.02995833" lon="-1.29055167">
        <ele>1283.0</ele>
        <time>2019-08-01T09:43:32.948Z</time>
      </trkpt>
      <trkpt lat="43.02996833" lon="-1.29056">
        <ele>1282.0</ele>
        <time>2019-08-01T09:43:33.954Z</time>
      </trkpt>
      <trkpt lat="43.02997667" lon="-1.29056833">
        <ele>1282.0</ele>
        <time>2019-08-01T09:43:34.959Z</time>
      </trkpt>
      <trkpt lat="43.02998667" lon="-1.29057667">
        <ele>1282.0</ele>
        <time>2019-08-01T09:43:35.967Z</time>
      </trkpt>
      <trkpt lat="43.029995" lon="-1.29058333">
        <ele>1282.0</ele>
        <time>2019-08-01T09:43:36.973Z</time>
      </trkpt>
      <trkpt lat="43.03000833" lon="-1.29059">
        <ele>1282.0</ele>
        <time>2019-08-01T09:43:37.979Z</time>
      </trkpt>
      <trkpt lat="43.03002167" lon="-1.29059667">
        <ele>1281.0</ele>
        <time>2019-08-01T09:43:38.982Z</time>
      </trkpt>
      <trkpt lat="43.03003167" lon="-1.29060333">
        <ele>1281.0</ele>
        <time>2019-08-01T09:43:39.988Z</time>
      </trkpt>
      <trkpt lat="43.03004333" lon="-1.29061167">
        <ele>1281.0</ele>
        <time>2019-08-01T09:43:40.989Z</time>
      </trkpt>
      <trkpt lat="43.030055" lon="-1.29061667">
        <ele>1281.0</ele>
        <time>2019-08-01T09:43:41.994Z</time>
      </trkpt>
      <trkpt lat="43.03006167" lon="-1.29062167">
        <ele>1281.0</ele>
        <time>2019-08-01T09:43:42.997Z</time>
      </trkpt>
      <trkpt lat="43.03007333" lon="-1.29062667">
        <ele>1281.0</ele>
        <time>2019-08-01T09:43:44.002Z</time>
      </trkpt>
      <trkpt lat="43.030085" lon="-1.29063333">
        <ele>1281.0</ele>
        <time>2019-08-01T09:43:45.009Z</time>
      </trkpt>
      <trkpt lat="43.03010167" lon="-1.29063333">
        <ele>1280.0</ele>
        <time>2019-08-01T09:43:46.015Z</time>
      </trkpt>
      <trkpt lat="43.030115" lon="-1.29063333">
        <ele>1280.0</ele>
        <time>2019-08-01T09:43:47.022Z</time>
      </trkpt>
      <trkpt lat="43.03013" lon="-1.29063333">
        <ele>1280.0</ele>
        <time>2019-08-01T09:43:48.027Z</time>
      </trkpt>
      <trkpt lat="43.03014" lon="-1.290635">
        <ele>1279.0</ele>
        <time>2019-08-01T09:43:49.034Z</time>
      </trkpt>
      <trkpt lat="43.03015" lon="-1.29063833">
        <ele>1279.0</ele>
        <time>2019-08-01T09:43:50.040Z</time>
      </trkpt>
      <trkpt lat="43.030155" lon="-1.29064167">
        <ele>1279.0</ele>
        <time>2019-08-01T09:43:50.921Z</time>
      </trkpt>
      <trkpt lat="43.03016167" lon="-1.290645">
        <ele>1279.0</ele>
        <time>2019-08-01T09:43:51.926Z</time>
      </trkpt>
      <trkpt lat="43.03017" lon="-1.290645">
        <ele>1278.0</ele>
        <time>2019-08-01T09:43:52.931Z</time>
      </trkpt>
      <trkpt lat="43.03017833" lon="-1.29064167">
        <ele>1279.0</ele>
        <time>2019-08-01T09:43:53.935Z</time>
      </trkpt>
      <trkpt lat="43.03018667" lon="-1.29063833">
        <ele>1279.0</ele>
        <time>2019-08-01T09:43:54.941Z</time>
      </trkpt>
      <trkpt lat="43.030195" lon="-1.290635">
        <ele>1280.0</ele>
        <time>2019-08-01T09:43:55.947Z</time>
      </trkpt>
      <trkpt lat="43.03020167" lon="-1.29063167">
        <ele>1281.0</ele>
        <time>2019-08-01T09:43:56.953Z</time>
      </trkpt>
      <trkpt lat="43.03020667" lon="-1.29063">
        <ele>1282.0</ele>
        <time>2019-08-01T09:43:57.958Z</time>
      </trkpt>
      <trkpt lat="43.030215" lon="-1.29062333">
        <ele>1282.0</ele>
        <time>2019-08-01T09:43:58.965Z</time>
      </trkpt>
      <trkpt lat="43.03022333" lon="-1.29062167">
        <ele>1283.0</ele>
        <time>2019-08-01T09:43:59.970Z</time>
      </trkpt>
      <trkpt lat="43.03023333" lon="-1.29061833">
        <ele>1283.0</ele>
        <time>2019-08-01T09:44:00.975Z</time>
      </trkpt>
      <trkpt lat="43.03024667" lon="-1.29061167">
        <ele>1283.0</ele>
        <time>2019-08-01T09:44:01.982Z</time>
      </trkpt>
      <trkpt lat="43.03025667" lon="-1.29060667">
        <ele>1283.0</ele>
        <time>2019-08-01T09:44:02.987Z</time>
      </trkpt>
      <trkpt lat="43.03027333" lon="-1.29059667">
        <ele>1284.0</ele>
        <time>2019-08-01T09:44:03.991Z</time>
      </trkpt>
      <trkpt lat="43.03029" lon="-1.290585">
        <ele>1284.0</ele>
        <time>2019-08-01T09:44:04.999Z</time>
      </trkpt>
      <trkpt lat="43.030305" lon="-1.29057667">
        <ele>1284.0</ele>
        <time>2019-08-01T09:44:06.005Z</time>
      </trkpt>
      <trkpt lat="43.030315" lon="-1.29056833">
        <ele>1285.0</ele>
        <time>2019-08-01T09:44:07.011Z</time>
      </trkpt>
      <trkpt lat="43.030325" lon="-1.29055667">
        <ele>1285.0</ele>
        <time>2019-08-01T09:44:08.016Z</time>
      </trkpt>
      <trkpt lat="43.03033667" lon="-1.290545">
        <ele>1285.0</ele>
        <time>2019-08-01T09:44:09.023Z</time>
      </trkpt>
      <trkpt lat="43.03035" lon="-1.29053667">
        <ele>1285.0</ele>
        <time>2019-08-01T09:44:10.028Z</time>
      </trkpt>
      <trkpt lat="43.03035667" lon="-1.29053">
        <ele>1285.0</ele>
        <time>2019-08-01T09:44:11.034Z</time>
      </trkpt>
      <trkpt lat="43.03036667" lon="-1.29052667">
        <ele>1284.0</ele>
        <time>2019-08-01T09:44:12.039Z</time>
      </trkpt>
      <trkpt lat="43.03037667" lon="-1.29052">
        <ele>1284.0</ele>
        <time>2019-08-01T09:44:13.043Z</time>
      </trkpt>
      <trkpt lat="43.03039" lon="-1.29051167">
        <ele>1284.0</ele>
        <time>2019-08-01T09:44:13.922Z</time>
      </trkpt>
      <trkpt lat="43.03040333" lon="-1.290505">
        <ele>1284.0</ele>
        <time>2019-08-01T09:44:14.928Z</time>
      </trkpt>
      <trkpt lat="43.03041833" lon="-1.29049833">
        <ele>1284.0</ele>
        <time>2019-08-01T09:44:15.934Z</time>
      </trkpt>
      <trkpt lat="43.03043" lon="-1.29049333">
        <ele>1284.0</ele>
        <time>2019-08-01T09:44:16.940Z</time>
      </trkpt>
      <trkpt lat="43.03044333" lon="-1.29048833">
        <ele>1284.0</ele>
        <time>2019-08-01T09:44:17.947Z</time>
      </trkpt>
      <trkpt lat="43.030455" lon="-1.290485">
        <ele>1284.0</ele>
        <time>2019-08-01T09:44:18.954Z</time>
      </trkpt>
      <trkpt lat="43.03046667" lon="-1.29047833">
        <ele>1284.0</ele>
        <time>2019-08-01T09:44:19.961Z</time>
      </trkpt>
      <trkpt lat="43.03047833" lon="-1.29047167">
        <ele>1284.0</ele>
        <time>2019-08-01T09:44:20.968Z</time>
      </trkpt>
      <trkpt lat="43.03049" lon="-1.290465">
        <ele>1284.0</ele>
        <time>2019-08-01T09:44:21.972Z</time>
      </trkpt>
      <trkpt lat="43.03050167" lon="-1.29046">
        <ele>1283.0</ele>
        <time>2019-08-01T09:44:22.976Z</time>
      </trkpt>
      <trkpt lat="43.03051667" lon="-1.290455">
        <ele>1283.0</ele>
        <time>2019-08-01T09:44:23.983Z</time>
      </trkpt>
      <trkpt lat="43.03053167" lon="-1.29045">
        <ele>1283.0</ele>
        <time>2019-08-01T09:44:24.990Z</time>
      </trkpt>
      <trkpt lat="43.03054" lon="-1.29044833">
        <ele>1283.0</ele>
        <time>2019-08-01T09:44:25.995Z</time>
      </trkpt>
      <trkpt lat="43.030555" lon="-1.29044167">
        <ele>1283.0</ele>
        <time>2019-08-01T09:44:27.001Z</time>
      </trkpt>
      <trkpt lat="43.030565" lon="-1.29043667">
        <ele>1283.0</ele>
        <time>2019-08-01T09:44:28.008Z</time>
      </trkpt>
      <trkpt lat="43.030575" lon="-1.29043167">
        <ele>1284.0</ele>
        <time>2019-08-01T09:44:29.012Z</time>
      </trkpt>
      <trkpt lat="43.03059" lon="-1.29042667">
        <ele>1284.0</ele>
        <time>2019-08-01T09:44:30.019Z</time>
      </trkpt>
      <trkpt lat="43.0306" lon="-1.29042667">
        <ele>1284.0</ele>
        <time>2019-08-01T09:44:31.025Z</time>
      </trkpt>
      <trkpt lat="43.03061333" lon="-1.29042667">
        <ele>1284.0</ele>
        <time>2019-08-01T09:44:32.028Z</time>
      </trkpt>
      <trkpt lat="43.03062333" lon="-1.29043">
        <ele>1285.0</ele>
        <time>2019-08-01T09:44:33.036Z</time>
      </trkpt>
      <trkpt lat="43.03063333" lon="-1.29043333">
        <ele>1285.0</ele>
        <time>2019-08-01T09:44:34.043Z</time>
      </trkpt>
      <trkpt lat="43.03064333" lon="-1.290435">
        <ele>1285.0</ele>
        <time>2019-08-01T09:44:34.922Z</time>
      </trkpt>
      <trkpt lat="43.03065333" lon="-1.29043667">
        <ele>1285.0</ele>
        <time>2019-08-01T09:44:35.928Z</time>
      </trkpt>
      <trkpt lat="43.03066833" lon="-1.29043333">
        <ele>1286.0</ele>
        <time>2019-08-01T09:44:36.931Z</time>
      </trkpt>
      <trkpt lat="43.03068167" lon="-1.29043333">
        <ele>1286.0</ele>
        <time>2019-08-01T09:44:37.936Z</time>
      </trkpt>
      <trkpt lat="43.03069333" lon="-1.29043667">
        <ele>1286.0</ele>
        <time>2019-08-01T09:44:38.943Z</time>
      </trkpt>
      <trkpt lat="43.03070667" lon="-1.29043833">
        <ele>1286.0</ele>
        <time>2019-08-01T09:44:39.948Z</time>
      </trkpt>
      <trkpt lat="43.03072" lon="-1.29043833">
        <ele>1287.0</ele>
        <time>2019-08-01T09:44:40.954Z</time>
      </trkpt>
      <trkpt lat="43.03073" lon="-1.29043833">
        <ele>1287.0</ele>
        <time>2019-08-01T09:44:41.961Z</time>
      </trkpt>
      <trkpt lat="43.03074167" lon="-1.29044167">
        <ele>1287.0</ele>
        <time>2019-08-01T09:44:42.967Z</time>
      </trkpt>
      <trkpt lat="43.03075667" lon="-1.29044333">
        <ele>1287.0</ele>
        <time>2019-08-01T09:44:43.971Z</time>
      </trkpt>
      <trkpt lat="43.03076833" lon="-1.29045">
        <ele>1287.0</ele>
        <time>2019-08-01T09:44:44.977Z</time>
      </trkpt>
      <trkpt lat="43.03077833" lon="-1.29045833">
        <ele>1287.0</ele>
        <time>2019-08-01T09:44:45.984Z</time>
      </trkpt>
      <trkpt lat="43.03078833" lon="-1.29047">
        <ele>1287.0</ele>
        <time>2019-08-01T09:44:46.989Z</time>
      </trkpt>
      <trkpt lat="43.03079667" lon="-1.29048">
        <ele>1287.0</ele>
        <time>2019-08-01T09:44:47.994Z</time>
      </trkpt>
      <trkpt lat="43.030805" lon="-1.29049">
        <ele>1287.0</ele>
        <time>2019-08-01T09:44:49.001Z</time>
      </trkpt>
      <trkpt lat="43.03081667" lon="-1.29049667">
        <ele>1288.0</ele>
        <time>2019-08-01T09:44:50.008Z</time>
      </trkpt>
      <trkpt lat="43.03082833" lon="-1.29050167">
        <ele>1288.0</ele>
        <time>2019-08-01T09:44:51.014Z</time>
      </trkpt>
      <trkpt lat="43.03084167" lon="-1.29050833">
        <ele>1287.0</ele>
        <time>2019-08-01T09:44:52.020Z</time>
      </trkpt>
      <trkpt lat="43.030855" lon="-1.29051333">
        <ele>1287.0</ele>
        <time>2019-08-01T09:44:53.026Z</time>
      </trkpt>
      <trkpt lat="43.03087" lon="-1.29051833">
        <ele>1287.0</ele>
        <time>2019-08-01T09:44:54.032Z</time>
      </trkpt>
      <trkpt lat="43.030885" lon="-1.29052">
        <ele>1287.0</ele>
        <time>2019-08-01T09:44:55.038Z</time>
      </trkpt>
      <trkpt lat="43.03089833" lon="-1.29052333">
        <ele>1287.0</ele>
        <time>2019-08-01T09:44:56.043Z</time>
      </trkpt>
      <trkpt lat="43.03091" lon="-1.29053">
        <ele>1286.0</ele>
        <time>2019-08-01T09:44:56.923Z</time>
      </trkpt>
      <trkpt lat="43.03092" lon="-1.29053667">
        <ele>1286.0</ele>
        <time>2019-08-01T09:44:57.928Z</time>
      </trkpt>
      <trkpt lat="43.03093" lon="-1.290545">
        <ele>1286.0</ele>
        <time>2019-08-01T09:44:58.936Z</time>
      </trkpt>
      <trkpt lat="43.03094167" lon="-1.29055333">
        <ele>1286.0</ele>
        <time>2019-08-01T09:44:59.943Z</time>
      </trkpt>
      <trkpt lat="43.03095167" lon="-1.29056">
        <ele>1286.0</ele>
        <time>2019-08-01T09:45:00.948Z</time>
      </trkpt>
      <trkpt lat="43.03096333" lon="-1.29056667">
        <ele>1287.0</ele>
        <time>2019-08-01T09:45:01.954Z</time>
      </trkpt>
      <trkpt lat="43.03097333" lon="-1.29057167">
        <ele>1287.0</ele>
        <time>2019-08-01T09:45:02.961Z</time>
      </trkpt>
      <trkpt lat="43.03098333" lon="-1.290575">
        <ele>1288.0</ele>
        <time>2019-08-01T09:45:03.966Z</time>
      </trkpt>
      <trkpt lat="43.03099167" lon="-1.29058">
        <ele>1288.0</ele>
        <time>2019-08-01T09:45:04.969Z</time>
      </trkpt>
      <trkpt lat="43.03100167" lon="-1.29058667">
        <ele>1288.0</ele>
        <time>2019-08-01T09:45:05.976Z</time>
      </trkpt>
      <trkpt lat="43.03101167" lon="-1.29059">
        <ele>1288.0</ele>
        <time>2019-08-01T09:45:06.983Z</time>
      </trkpt>
      <trkpt lat="43.031025" lon="-1.290595">
        <ele>1288.0</ele>
        <time>2019-08-01T09:45:07.988Z</time>
      </trkpt>
      <trkpt lat="43.03103833" lon="-1.290595">
        <ele>1287.0</ele>
        <time>2019-08-01T09:45:08.994Z</time>
      </trkpt>
      <trkpt lat="43.03105333" lon="-1.29059167">
        <ele>1287.0</ele>
        <time>2019-08-01T09:45:10.002Z</time>
      </trkpt>
      <trkpt lat="43.03106333" lon="-1.29059167">
        <ele>1287.0</ele>
        <time>2019-08-01T09:45:11.006Z</time>
      </trkpt>
      <trkpt lat="43.03107333" lon="-1.29059167">
        <ele>1287.0</ele>
        <time>2019-08-01T09:45:12.012Z</time>
      </trkpt>
      <trkpt lat="43.03108667" lon="-1.29059167">
        <ele>1287.0</ele>
        <time>2019-08-01T09:45:13.016Z</time>
      </trkpt>
      <trkpt lat="43.03109167" lon="-1.29059333">
        <ele>1288.0</ele>
        <time>2019-08-01T09:45:14.020Z</time>
      </trkpt>
      <trkpt lat="43.03110167" lon="-1.29059667">
        <ele>1288.0</ele>
        <time>2019-08-01T09:45:15.027Z</time>
      </trkpt>
      <trkpt lat="43.03111333" lon="-1.29059667">
        <ele>1288.0</ele>
        <time>2019-08-01T09:45:16.034Z</time>
      </trkpt>
      <trkpt lat="43.03112333" lon="-1.29059667">
        <ele>1288.0</ele>
        <time>2019-08-01T09:45:17.040Z</time>
      </trkpt>
      <trkpt lat="43.03113333" lon="-1.29059833">
        <ele>1289.0</ele>
        <time>2019-08-01T09:45:17.921Z</time>
      </trkpt>
      <trkpt lat="43.03114167" lon="-1.29059833">
        <ele>1290.0</ele>
        <time>2019-08-01T09:45:18.925Z</time>
      </trkpt>
      <trkpt lat="43.03115333" lon="-1.290595">
        <ele>1290.0</ele>
        <time>2019-08-01T09:45:19.933Z</time>
      </trkpt>
      <trkpt lat="43.03116667" lon="-1.29058833">
        <ele>1290.0</ele>
        <time>2019-08-01T09:45:20.938Z</time>
      </trkpt>
      <trkpt lat="43.03118" lon="-1.29058667">
        <ele>1291.0</ele>
        <time>2019-08-01T09:45:21.942Z</time>
      </trkpt>
      <trkpt lat="43.03119" lon="-1.29058167">
        <ele>1292.0</ele>
        <time>2019-08-01T09:45:22.949Z</time>
      </trkpt>
      <trkpt lat="43.03120333" lon="-1.29057333">
        <ele>1292.0</ele>
        <time>2019-08-01T09:45:23.956Z</time>
      </trkpt>
      <trkpt lat="43.03121333" lon="-1.29056333">
        <ele>1293.0</ele>
        <time>2019-08-01T09:45:24.963Z</time>
      </trkpt>
      <trkpt lat="43.03122833" lon="-1.29054833">
        <ele>1294.0</ele>
        <time>2019-08-01T09:45:25.970Z</time>
      </trkpt>
      <trkpt lat="43.03124" lon="-1.29053333">
        <ele>1294.0</ele>
        <time>2019-08-01T09:45:26.976Z</time>
      </trkpt>
      <trkpt lat="43.03125" lon="-1.29052167">
        <ele>1294.0</ele>
        <time>2019-08-01T09:45:27.985Z</time>
      </trkpt>
      <trkpt lat="43.03126" lon="-1.29050833">
        <ele>1294.0</ele>
        <time>2019-08-01T09:45:28.990Z</time>
      </trkpt>
      <trkpt lat="43.03127" lon="-1.2905">
        <ele>1294.0</ele>
        <time>2019-08-01T09:45:29.995Z</time>
      </trkpt>
      <trkpt lat="43.03128333" lon="-1.29049">
        <ele>1295.0</ele>
        <time>2019-08-01T09:45:31.002Z</time>
      </trkpt>
      <trkpt lat="43.03129167" lon="-1.29048167">
        <ele>1295.0</ele>
        <time>2019-08-01T09:45:32.008Z</time>
      </trkpt>
      <trkpt lat="43.03130167" lon="-1.29047333">
        <ele>1295.0</ele>
        <time>2019-08-01T09:45:33.014Z</time>
      </trkpt>
      <trkpt lat="43.031315" lon="-1.29045833">
        <ele>1295.0</ele>
        <time>2019-08-01T09:45:34.020Z</time>
      </trkpt>
      <trkpt lat="43.03133" lon="-1.29044167">
        <ele>1295.0</ele>
        <time>2019-08-01T09:45:35.025Z</time>
      </trkpt>
      <trkpt lat="43.03133667" lon="-1.29043">
        <ele>1294.0</ele>
        <time>2019-08-01T09:45:36.030Z</time>
      </trkpt>
      <trkpt lat="43.03134" lon="-1.29041833">
        <ele>1294.0</ele>
        <time>2019-08-01T09:45:37.037Z</time>
      </trkpt>
      <trkpt lat="43.03134667" lon="-1.2904">
        <ele>1294.0</ele>
        <time>2019-08-01T09:45:38.041Z</time>
      </trkpt>
      <trkpt lat="43.03135" lon="-1.290385">
        <ele>1294.0</ele>
        <time>2019-08-01T09:45:38.922Z</time>
      </trkpt>
      <trkpt lat="43.03135667" lon="-1.29037167">
        <ele>1294.0</ele>
        <time>2019-08-01T09:45:39.928Z</time>
      </trkpt>
      <trkpt lat="43.03136167" lon="-1.29036167">
        <ele>1294.0</ele>
        <time>2019-08-01T09:45:40.932Z</time>
      </trkpt>
      <trkpt lat="43.03136833" lon="-1.29035333">
        <ele>1293.0</ele>
        <time>2019-08-01T09:45:41.938Z</time>
      </trkpt>
      <trkpt lat="43.03137167" lon="-1.29034667">
        <ele>1291.0</ele>
        <time>2019-08-01T09:45:42.942Z</time>
      </trkpt>
      <trkpt lat="43.03137167" lon="-1.29034">
        <ele>1290.0</ele>
        <time>2019-08-01T09:45:43.949Z</time>
      </trkpt>
      <trkpt lat="43.03137667" lon="-1.29033333">
        <ele>1290.0</ele>
        <time>2019-08-01T09:45:44.957Z</time>
      </trkpt>
      <trkpt lat="43.031385" lon="-1.29032333">
        <ele>1290.0</ele>
        <time>2019-08-01T09:45:45.963Z</time>
      </trkpt>
      <trkpt lat="43.031395" lon="-1.29031167">
        <ele>1289.0</ele>
        <time>2019-08-01T09:45:46.967Z</time>
      </trkpt>
      <trkpt lat="43.03140833" lon="-1.29029833">
        <ele>1289.0</ele>
        <time>2019-08-01T09:45:47.972Z</time>
      </trkpt>
      <trkpt lat="43.03141833" lon="-1.29027833">
        <ele>1290.0</ele>
        <time>2019-08-01T09:45:48.979Z</time>
      </trkpt>
      <trkpt lat="43.031425" lon="-1.29026333">
        <ele>1290.0</ele>
        <time>2019-08-01T09:45:49.984Z</time>
      </trkpt>
      <trkpt lat="43.03143333" lon="-1.29025">
        <ele>1290.0</ele>
        <time>2019-08-01T09:45:50.991Z</time>
      </trkpt>
      <trkpt lat="43.03143833" lon="-1.29023833">
        <ele>1290.0</ele>
        <time>2019-08-01T09:45:51.995Z</time>
      </trkpt>
      <trkpt lat="43.03144667" lon="-1.29022333">
        <ele>1290.0</ele>
        <time>2019-08-01T09:45:53.001Z</time>
      </trkpt>
      <trkpt lat="43.031455" lon="-1.29021">
        <ele>1290.0</ele>
        <time>2019-08-01T09:45:54.008Z</time>
      </trkpt>
      <trkpt lat="43.031465" lon="-1.290195">
        <ele>1290.0</ele>
        <time>2019-08-01T09:45:55.013Z</time>
      </trkpt>
      <trkpt lat="43.03147333" lon="-1.29018">
        <ele>1291.0</ele>
        <time>2019-08-01T09:45:56.019Z</time>
      </trkpt>
      <trkpt lat="43.03148" lon="-1.29017167">
        <ele>1291.0</ele>
        <time>2019-08-01T09:45:57.025Z</time>
      </trkpt>
      <trkpt lat="43.031485" lon="-1.29016167">
        <ele>1292.0</ele>
        <time>2019-08-01T09:45:58.029Z</time>
      </trkpt>
      <trkpt lat="43.03149167" lon="-1.290155">
        <ele>1292.0</ele>
        <time>2019-08-01T09:45:59.034Z</time>
      </trkpt>
      <trkpt lat="43.031495" lon="-1.29014667">
        <ele>1293.0</ele>
        <time>2019-08-01T09:46:00.039Z</time>
      </trkpt>
      <trkpt lat="43.03149833" lon="-1.29013833">
        <ele>1293.0</ele>
        <time>2019-08-01T09:46:00.919Z</time>
      </trkpt>
      <trkpt lat="43.03150833" lon="-1.29012667">
        <ele>1293.0</ele>
        <time>2019-08-01T09:46:01.927Z</time>
      </trkpt>
      <trkpt lat="43.03151667" lon="-1.29011667">
        <ele>1293.0</ele>
        <time>2019-08-01T09:46:02.932Z</time>
      </trkpt>
      <trkpt lat="43.031525" lon="-1.29010667">
        <ele>1293.0</ele>
        <time>2019-08-01T09:46:03.939Z</time>
      </trkpt>
      <trkpt lat="43.031535" lon="-1.2901">
        <ele>1293.0</ele>
        <time>2019-08-01T09:46:04.948Z</time>
      </trkpt>
      <trkpt lat="43.03154333" lon="-1.29009333">
        <ele>1294.0</ele>
        <time>2019-08-01T09:46:05.954Z</time>
      </trkpt>
      <trkpt lat="43.031555" lon="-1.290085">
        <ele>1295.0</ele>
        <time>2019-08-01T09:46:06.960Z</time>
      </trkpt>
      <trkpt lat="43.031565" lon="-1.29007667">
        <ele>1295.0</ele>
        <time>2019-08-01T09:46:07.966Z</time>
      </trkpt>
      <trkpt lat="43.03157667" lon="-1.29006833">
        <ele>1295.0</ele>
        <time>2019-08-01T09:46:08.971Z</time>
      </trkpt>
      <trkpt lat="43.03159" lon="-1.290055">
        <ele>1294.0</ele>
        <time>2019-08-01T09:46:09.975Z</time>
      </trkpt>
      <trkpt lat="43.03160167" lon="-1.29004333">
        <ele>1293.0</ele>
        <time>2019-08-01T09:46:10.982Z</time>
      </trkpt>
      <trkpt lat="43.03161167" lon="-1.290035">
        <ele>1293.0</ele>
        <time>2019-08-01T09:46:11.988Z</time>
      </trkpt>
      <trkpt lat="43.03161667" lon="-1.29002833">
        <ele>1293.0</ele>
        <time>2019-08-01T09:46:12.994Z</time>
      </trkpt>
      <trkpt lat="43.03162667" lon="-1.29001833">
        <ele>1293.0</ele>
        <time>2019-08-01T09:46:13.999Z</time>
      </trkpt>
      <trkpt lat="43.031635" lon="-1.29001333">
        <ele>1293.0</ele>
        <time>2019-08-01T09:46:15.005Z</time>
      </trkpt>
      <trkpt lat="43.031645" lon="-1.29000833">
        <ele>1294.0</ele>
        <time>2019-08-01T09:46:16.011Z</time>
      </trkpt>
      <trkpt lat="43.03166167" lon="-1.29000167">
        <ele>1295.0</ele>
        <time>2019-08-01T09:46:17.016Z</time>
      </trkpt>
      <trkpt lat="43.03167333" lon="-1.28999833">
        <ele>1295.0</ele>
        <time>2019-08-01T09:46:18.019Z</time>
      </trkpt>
      <trkpt lat="43.03168333" lon="-1.28999167">
        <ele>1295.0</ele>
        <time>2019-08-01T09:46:19.025Z</time>
      </trkpt>
      <trkpt lat="43.03169333" lon="-1.28998333">
        <ele>1294.0</ele>
        <time>2019-08-01T09:46:20.030Z</time>
      </trkpt>
      <trkpt lat="43.03170333" lon="-1.289975">
        <ele>1295.0</ele>
        <time>2019-08-01T09:46:21.033Z</time>
      </trkpt>
      <trkpt lat="43.03171167" lon="-1.28997">
        <ele>1295.0</ele>
        <time>2019-08-01T09:46:22.038Z</time>
      </trkpt>
      <trkpt lat="43.03172333" lon="-1.28996167">
        <ele>1295.0</ele>
        <time>2019-08-01T09:46:22.918Z</time>
      </trkpt>
      <trkpt lat="43.031735" lon="-1.289955">
        <ele>1294.0</ele>
        <time>2019-08-01T09:46:23.925Z</time>
      </trkpt>
      <trkpt lat="43.03174667" lon="-1.28995">
        <ele>1294.0</ele>
        <time>2019-08-01T09:46:24.929Z</time>
      </trkpt>
      <trkpt lat="43.031755" lon="-1.28994667">
        <ele>1294.0</ele>
        <time>2019-08-01T09:46:25.935Z</time>
      </trkpt>
      <trkpt lat="43.03176167" lon="-1.28994167">
        <ele>1293.0</ele>
        <time>2019-08-01T09:46:26.941Z</time>
      </trkpt>
      <trkpt lat="43.03176167" lon="-1.28994167">
        <ele>1294.0</ele>
        <time>2019-08-01T09:46:27.943Z</time>
      </trkpt>
      <trkpt lat="43.03176833" lon="-1.28994333">
        <ele>1294.0</ele>
        <time>2019-08-01T09:46:28.947Z</time>
      </trkpt>
      <trkpt lat="43.03177833" lon="-1.28993833">
        <ele>1294.0</ele>
        <time>2019-08-01T09:46:29.953Z</time>
      </trkpt>
      <trkpt lat="43.03178333" lon="-1.28992833">
        <ele>1293.0</ele>
        <time>2019-08-01T09:46:30.960Z</time>
      </trkpt>
      <trkpt lat="43.03179167" lon="-1.28992167">
        <ele>1292.0</ele>
        <time>2019-08-01T09:46:31.968Z</time>
      </trkpt>
      <trkpt lat="43.03179833" lon="-1.28991667">
        <ele>1292.0</ele>
        <time>2019-08-01T09:46:32.973Z</time>
      </trkpt>
      <trkpt lat="43.031805" lon="-1.28991333">
        <ele>1292.0</ele>
        <time>2019-08-01T09:46:33.978Z</time>
      </trkpt>
      <trkpt lat="43.03181333" lon="-1.28991">
        <ele>1292.0</ele>
        <time>2019-08-01T09:46:34.984Z</time>
      </trkpt>
      <trkpt lat="43.031825" lon="-1.28990667">
        <ele>1292.0</ele>
        <time>2019-08-01T09:46:35.990Z</time>
      </trkpt>
      <trkpt lat="43.03183167" lon="-1.28990333">
        <ele>1291.0</ele>
        <time>2019-08-01T09:46:36.997Z</time>
      </trkpt>
      <trkpt lat="43.03184167" lon="-1.2899">
        <ele>1292.0</ele>
        <time>2019-08-01T09:46:38.003Z</time>
      </trkpt>
      <trkpt lat="43.031855" lon="-1.2899">
        <ele>1292.0</ele>
        <time>2019-08-01T09:46:39.009Z</time>
      </trkpt>
      <trkpt lat="43.03186667" lon="-1.28989833">
        <ele>1293.0</ele>
        <time>2019-08-01T09:46:40.013Z</time>
      </trkpt>
      <trkpt lat="43.03187667" lon="-1.28989833">
        <ele>1293.0</ele>
        <time>2019-08-01T09:46:41.018Z</time>
      </trkpt>
      <trkpt lat="43.03189333" lon="-1.28989">
        <ele>1293.0</ele>
        <time>2019-08-01T09:46:42.025Z</time>
      </trkpt>
      <trkpt lat="43.03190833" lon="-1.28988167">
        <ele>1292.0</ele>
        <time>2019-08-01T09:46:43.030Z</time>
      </trkpt>
      <trkpt lat="43.03192333" lon="-1.28987">
        <ele>1292.0</ele>
        <time>2019-08-01T09:46:44.037Z</time>
      </trkpt>
      <trkpt lat="43.03193" lon="-1.28986333">
        <ele>1292.0</ele>
        <time>2019-08-01T09:46:45.043Z</time>
      </trkpt>
      <trkpt lat="43.03194333" lon="-1.28985667">
        <ele>1292.0</ele>
        <time>2019-08-01T09:46:45.923Z</time>
      </trkpt>
      <trkpt lat="43.031955" lon="-1.28985">
        <ele>1293.0</ele>
        <time>2019-08-01T09:46:46.928Z</time>
      </trkpt>
      <trkpt lat="43.03196" lon="-1.28985">
        <ele>1293.0</ele>
        <time>2019-08-01T09:46:47.934Z</time>
      </trkpt>
      <trkpt lat="43.031975" lon="-1.28984167">
        <ele>1293.0</ele>
        <time>2019-08-01T09:46:48.939Z</time>
      </trkpt>
      <trkpt lat="43.03198833" lon="-1.28983667">
        <ele>1294.0</ele>
        <time>2019-08-01T09:46:49.946Z</time>
      </trkpt>
      <trkpt lat="43.032" lon="-1.28982333">
        <ele>1295.0</ele>
        <time>2019-08-01T09:46:50.950Z</time>
      </trkpt>
      <trkpt lat="43.03200833" lon="-1.28981333">
        <ele>1295.0</ele>
        <time>2019-08-01T09:46:51.956Z</time>
      </trkpt>
      <trkpt lat="43.03202333" lon="-1.28980333">
        <ele>1295.0</ele>
        <time>2019-08-01T09:46:52.962Z</time>
      </trkpt>
      <trkpt lat="43.03203167" lon="-1.28979667">
        <ele>1295.0</ele>
        <time>2019-08-01T09:46:53.967Z</time>
      </trkpt>
      <trkpt lat="43.03204" lon="-1.28978833">
        <ele>1294.0</ele>
        <time>2019-08-01T09:46:54.973Z</time>
      </trkpt>
      <trkpt lat="43.03204833" lon="-1.289785">
        <ele>1294.0</ele>
        <time>2019-08-01T09:46:55.979Z</time>
      </trkpt>
      <trkpt lat="43.03205667" lon="-1.28977667">
        <ele>1294.0</ele>
        <time>2019-08-01T09:46:56.986Z</time>
      </trkpt>
      <trkpt lat="43.032065" lon="-1.28976667">
        <ele>1294.0</ele>
        <time>2019-08-01T09:46:57.992Z</time>
      </trkpt>
      <trkpt lat="43.03207167" lon="-1.28975667">
        <ele>1294.0</ele>
        <time>2019-08-01T09:46:58.997Z</time>
      </trkpt>
      <trkpt lat="43.03207667" lon="-1.28975333">
        <ele>1294.0</ele>
        <time>2019-08-01T09:47:00.003Z</time>
      </trkpt>
      <trkpt lat="43.03208833" lon="-1.289745">
        <ele>1294.0</ele>
        <time>2019-08-01T09:47:01.008Z</time>
      </trkpt>
      <trkpt lat="43.03209833" lon="-1.28973833">
        <ele>1294.0</ele>
        <time>2019-08-01T09:47:02.015Z</time>
      </trkpt>
      <trkpt lat="43.03210833" lon="-1.289725">
        <ele>1295.0</ele>
        <time>2019-08-01T09:47:03.022Z</time>
      </trkpt>
      <trkpt lat="43.03211833" lon="-1.28971167">
        <ele>1294.0</ele>
        <time>2019-08-01T09:47:04.027Z</time>
      </trkpt>
      <trkpt lat="43.03212833" lon="-1.289695">
        <ele>1295.0</ele>
        <time>2019-08-01T09:47:05.032Z</time>
      </trkpt>
      <trkpt lat="43.03213833" lon="-1.28968">
        <ele>1295.0</ele>
        <time>2019-08-01T09:47:06.038Z</time>
      </trkpt>
      <trkpt lat="43.03215" lon="-1.289665">
        <ele>1294.0</ele>
        <time>2019-08-01T09:47:06.919Z</time>
      </trkpt>
      <trkpt lat="43.03215833" lon="-1.28965333">
        <ele>1294.0</ele>
        <time>2019-08-01T09:47:07.924Z</time>
      </trkpt>
      <trkpt lat="43.032165" lon="-1.28964667">
        <ele>1293.0</ele>
        <time>2019-08-01T09:47:08.931Z</time>
      </trkpt>
      <trkpt lat="43.03217333" lon="-1.289635">
        <ele>1293.0</ele>
        <time>2019-08-01T09:47:09.936Z</time>
      </trkpt>
      <trkpt lat="43.032185" lon="-1.28962333">
        <ele>1293.0</ele>
        <time>2019-08-01T09:47:10.938Z</time>
      </trkpt>
      <trkpt lat="43.03219833" lon="-1.28961">
        <ele>1292.0</ele>
        <time>2019-08-01T09:47:11.945Z</time>
      </trkpt>
      <trkpt lat="43.03221" lon="-1.28959667">
        <ele>1292.0</ele>
        <time>2019-08-01T09:47:12.954Z</time>
      </trkpt>
      <trkpt lat="43.03222" lon="-1.28958333">
        <ele>1292.0</ele>
        <time>2019-08-01T09:47:13.960Z</time>
      </trkpt>
      <trkpt lat="43.03223167" lon="-1.28956667">
        <ele>1292.0</ele>
        <time>2019-08-01T09:47:14.961Z</time>
      </trkpt>
      <trkpt lat="43.03224" lon="-1.28956167">
        <ele>1293.0</ele>
        <time>2019-08-01T09:47:15.968Z</time>
      </trkpt>
      <trkpt lat="43.03224833" lon="-1.28955667">
        <ele>1293.0</ele>
        <time>2019-08-01T09:47:16.973Z</time>
      </trkpt>
      <trkpt lat="43.03225833" lon="-1.28955">
        <ele>1293.0</ele>
        <time>2019-08-01T09:47:17.978Z</time>
      </trkpt>
      <trkpt lat="43.03227333" lon="-1.28953833">
        <ele>1293.0</ele>
        <time>2019-08-01T09:47:18.984Z</time>
      </trkpt>
      <trkpt lat="43.03227833" lon="-1.289525">
        <ele>1293.0</ele>
        <time>2019-08-01T09:47:19.989Z</time>
      </trkpt>
      <trkpt lat="43.032285" lon="-1.28952">
        <ele>1292.0</ele>
        <time>2019-08-01T09:47:20.996Z</time>
      </trkpt>
      <trkpt lat="43.03229" lon="-1.289515">
        <ele>1293.0</ele>
        <time>2019-08-01T09:47:22.001Z</time>
      </trkpt>
      <trkpt lat="43.03229833" lon="-1.28950833">
        <ele>1293.0</ele>
        <time>2019-08-01T09:47:23.005Z</time>
      </trkpt>
      <trkpt lat="43.03230667" lon="-1.2895">
        <ele>1293.0</ele>
        <time>2019-08-01T09:47:24.011Z</time>
      </trkpt>
      <trkpt lat="43.032315" lon="-1.28949167">
        <ele>1293.0</ele>
        <time>2019-08-01T09:47:25.016Z</time>
      </trkpt>
      <trkpt lat="43.03232333" lon="-1.289485">
        <ele>1293.0</ele>
        <time>2019-08-01T09:47:26.021Z</time>
      </trkpt>
      <trkpt lat="43.03233167" lon="-1.28947833">
        <ele>1293.0</ele>
        <time>2019-08-01T09:47:27.027Z</time>
      </trkpt>
      <trkpt lat="43.03234333" lon="-1.28947">
        <ele>1293.0</ele>
        <time>2019-08-01T09:47:28.033Z</time>
      </trkpt>
      <trkpt lat="43.03235333" lon="-1.28946333">
        <ele>1292.0</ele>
        <time>2019-08-01T09:47:29.040Z</time>
      </trkpt>
      <trkpt lat="43.03236667" lon="-1.28945167">
        <ele>1292.0</ele>
        <time>2019-08-01T09:47:29.919Z</time>
      </trkpt>
      <trkpt lat="43.03238" lon="-1.28944333">
        <ele>1292.0</ele>
        <time>2019-08-01T09:47:30.926Z</time>
      </trkpt>
      <trkpt lat="43.03239333" lon="-1.289435">
        <ele>1291.0</ele>
        <time>2019-08-01T09:47:31.932Z</time>
      </trkpt>
      <trkpt lat="43.0324" lon="-1.28943">
        <ele>1291.0</ele>
        <time>2019-08-01T09:47:32.940Z</time>
      </trkpt>
      <trkpt lat="43.03241" lon="-1.28942333">
        <ele>1291.0</ele>
        <time>2019-08-01T09:47:33.947Z</time>
      </trkpt>
      <trkpt lat="43.03242333" lon="-1.28941833">
        <ele>1291.0</ele>
        <time>2019-08-01T09:47:34.952Z</time>
      </trkpt>
      <trkpt lat="43.03244" lon="-1.28941333">
        <ele>1290.0</ele>
        <time>2019-08-01T09:47:35.959Z</time>
      </trkpt>
      <trkpt lat="43.03245667" lon="-1.28941">
        <ele>1290.0</ele>
        <time>2019-08-01T09:47:36.966Z</time>
      </trkpt>
      <trkpt lat="43.03246833" lon="-1.28941167">
        <ele>1289.0</ele>
        <time>2019-08-01T09:47:37.970Z</time>
      </trkpt>
      <trkpt lat="43.03248" lon="-1.28941167">
        <ele>1289.0</ele>
        <time>2019-08-01T09:47:38.973Z</time>
      </trkpt>
      <trkpt lat="43.032495" lon="-1.28941">
        <ele>1289.0</ele>
        <time>2019-08-01T09:47:39.979Z</time>
      </trkpt>
      <trkpt lat="43.03251333" lon="-1.28940333">
        <ele>1290.0</ele>
        <time>2019-08-01T09:47:40.985Z</time>
      </trkpt>
      <trkpt lat="43.03252333" lon="-1.28940167">
        <ele>1290.0</ele>
        <time>2019-08-01T09:47:41.990Z</time>
      </trkpt>
      <trkpt lat="43.03253167" lon="-1.289395">
        <ele>1290.0</ele>
        <time>2019-08-01T09:47:42.999Z</time>
      </trkpt>
      <trkpt lat="43.03253833" lon="-1.28939167">
        <ele>1291.0</ele>
        <time>2019-08-01T09:47:44.006Z</time>
      </trkpt>
      <trkpt lat="43.03254833" lon="-1.28939">
        <ele>1291.0</ele>
        <time>2019-08-01T09:47:45.011Z</time>
      </trkpt>
      <trkpt lat="43.03255667" lon="-1.28938667">
        <ele>1290.0</ele>
        <time>2019-08-01T09:47:46.016Z</time>
      </trkpt>
      <trkpt lat="43.03256667" lon="-1.28939">
        <ele>1290.0</ele>
        <time>2019-08-01T09:47:47.020Z</time>
      </trkpt>
      <trkpt lat="43.03257833" lon="-1.28939167">
        <ele>1289.0</ele>
        <time>2019-08-01T09:47:48.025Z</time>
      </trkpt>
      <trkpt lat="43.03259333" lon="-1.28938333">
        <ele>1289.0</ele>
        <time>2019-08-01T09:47:49.031Z</time>
      </trkpt>
      <trkpt lat="43.03260667" lon="-1.28938">
        <ele>1289.0</ele>
        <time>2019-08-01T09:47:50.037Z</time>
      </trkpt>
      <trkpt lat="43.03262" lon="-1.289375">
        <ele>1289.0</ele>
        <time>2019-08-01T09:47:51.041Z</time>
      </trkpt>
      <trkpt lat="43.03263333" lon="-1.28937167">
        <ele>1289.0</ele>
        <time>2019-08-01T09:47:51.922Z</time>
      </trkpt>
      <trkpt lat="43.03264667" lon="-1.28937167">
        <ele>1289.0</ele>
        <time>2019-08-01T09:47:52.926Z</time>
      </trkpt>
      <trkpt lat="43.03266" lon="-1.28937">
        <ele>1290.0</ele>
        <time>2019-08-01T09:47:53.931Z</time>
      </trkpt>
      <trkpt lat="43.032665" lon="-1.28937167">
        <ele>1290.0</ele>
        <time>2019-08-01T09:47:54.939Z</time>
      </trkpt>
      <trkpt lat="43.03267167" lon="-1.28937333">
        <ele>1291.0</ele>
        <time>2019-08-01T09:47:55.945Z</time>
      </trkpt>
      <trkpt lat="43.03268" lon="-1.28937667">
        <ele>1291.0</ele>
        <time>2019-08-01T09:47:56.951Z</time>
      </trkpt>
      <trkpt lat="43.03269" lon="-1.28938333">
        <ele>1292.0</ele>
        <time>2019-08-01T09:47:57.956Z</time>
      </trkpt>
      <trkpt lat="43.03269833" lon="-1.28938833">
        <ele>1292.0</ele>
        <time>2019-08-01T09:47:58.963Z</time>
      </trkpt>
      <trkpt lat="43.03270667" lon="-1.28939333">
        <ele>1293.0</ele>
        <time>2019-08-01T09:47:59.969Z</time>
      </trkpt>
      <trkpt lat="43.03272" lon="-1.28939667">
        <ele>1293.0</ele>
        <time>2019-08-01T09:48:00.976Z</time>
      </trkpt>
      <trkpt lat="43.03273333" lon="-1.2894">
        <ele>1294.0</ele>
        <time>2019-08-01T09:48:01.983Z</time>
      </trkpt>
      <trkpt lat="43.03275" lon="-1.28939833">
        <ele>1294.0</ele>
        <time>2019-08-01T09:48:02.989Z</time>
      </trkpt>
      <trkpt lat="43.032765" lon="-1.2894">
        <ele>1294.0</ele>
        <time>2019-08-01T09:48:03.992Z</time>
      </trkpt>
      <trkpt lat="43.03277833" lon="-1.2894">
        <ele>1294.0</ele>
        <time>2019-08-01T09:48:04.997Z</time>
      </trkpt>
      <trkpt lat="43.03279" lon="-1.289405">
        <ele>1295.0</ele>
        <time>2019-08-01T09:48:06.001Z</time>
      </trkpt>
      <trkpt lat="43.03279833" lon="-1.28941167">
        <ele>1296.0</ele>
        <time>2019-08-01T09:48:07.006Z</time>
      </trkpt>
      <trkpt lat="43.03281" lon="-1.28942">
        <ele>1296.0</ele>
        <time>2019-08-01T09:48:08.012Z</time>
      </trkpt>
      <trkpt lat="43.03281833" lon="-1.28943">
        <ele>1297.0</ele>
        <time>2019-08-01T09:48:09.017Z</time>
      </trkpt>
      <trkpt lat="43.03283333" lon="-1.28943667">
        <ele>1297.0</ele>
        <time>2019-08-01T09:48:10.022Z</time>
      </trkpt>
      <trkpt lat="43.03285" lon="-1.28943667">
        <ele>1297.0</ele>
        <time>2019-08-01T09:48:11.027Z</time>
      </trkpt>
      <trkpt lat="43.03286667" lon="-1.28944">
        <ele>1297.0</ele>
        <time>2019-08-01T09:48:12.030Z</time>
      </trkpt>
      <trkpt lat="43.03287667" lon="-1.289445">
        <ele>1297.0</ele>
        <time>2019-08-01T09:48:13.036Z</time>
      </trkpt>
      <trkpt lat="43.03288833" lon="-1.28945">
        <ele>1297.0</ele>
        <time>2019-08-01T09:48:14.041Z</time>
      </trkpt>
      <trkpt lat="43.03289833" lon="-1.289455">
        <ele>1297.0</ele>
        <time>2019-08-01T09:48:14.921Z</time>
      </trkpt>
      <trkpt lat="43.032905" lon="-1.28946167">
        <ele>1297.0</ele>
        <time>2019-08-01T09:48:15.928Z</time>
      </trkpt>
      <trkpt lat="43.03291833" lon="-1.289465">
        <ele>1297.0</ele>
        <time>2019-08-01T09:48:16.934Z</time>
      </trkpt>
      <trkpt lat="43.03292667" lon="-1.28946833">
        <ele>1298.0</ele>
        <time>2019-08-01T09:48:17.937Z</time>
      </trkpt>
      <trkpt lat="43.03293833" lon="-1.289475">
        <ele>1298.0</ele>
        <time>2019-08-01T09:48:18.943Z</time>
      </trkpt>
      <trkpt lat="43.03294833" lon="-1.28948">
        <ele>1299.0</ele>
        <time>2019-08-01T09:48:19.948Z</time>
      </trkpt>
      <trkpt lat="43.03295833" lon="-1.289485">
        <ele>1299.0</ele>
        <time>2019-08-01T09:48:20.955Z</time>
      </trkpt>
      <trkpt lat="43.03297" lon="-1.28948833">
        <ele>1300.0</ele>
        <time>2019-08-01T09:48:21.961Z</time>
      </trkpt>
      <trkpt lat="43.03297833" lon="-1.28949833">
        <ele>1300.0</ele>
        <time>2019-08-01T09:48:22.966Z</time>
      </trkpt>
      <trkpt lat="43.032985" lon="-1.28951167">
        <ele>1301.0</ele>
        <time>2019-08-01T09:48:23.971Z</time>
      </trkpt>
      <trkpt lat="43.032995" lon="-1.28952333">
        <ele>1302.0</ele>
        <time>2019-08-01T09:48:24.978Z</time>
      </trkpt>
      <trkpt lat="43.03300333" lon="-1.28953333">
        <ele>1302.0</ele>
        <time>2019-08-01T09:48:25.985Z</time>
      </trkpt>
      <trkpt lat="43.03301" lon="-1.28953833">
        <ele>1302.0</ele>
        <time>2019-08-01T09:48:26.992Z</time>
      </trkpt>
      <trkpt lat="43.03302" lon="-1.289545">
        <ele>1302.0</ele>
        <time>2019-08-01T09:48:27.996Z</time>
      </trkpt>
      <trkpt lat="43.03303167" lon="-1.28955167">
        <ele>1303.0</ele>
        <time>2019-08-01T09:48:28.998Z</time>
      </trkpt>
      <trkpt lat="43.03304167" lon="-1.28956333">
        <ele>1303.0</ele>
        <time>2019-08-01T09:48:30.004Z</time>
      </trkpt>
      <trkpt lat="43.033055" lon="-1.28956833">
        <ele>1302.0</ele>
        <time>2019-08-01T09:48:31.011Z</time>
      </trkpt>
      <trkpt lat="43.03307" lon="-1.28957333">
        <ele>1302.0</ele>
        <time>2019-08-01T09:48:32.015Z</time>
      </trkpt>
      <trkpt lat="43.03308167" lon="-1.28957833">
        <ele>1302.0</ele>
        <time>2019-08-01T09:48:33.018Z</time>
      </trkpt>
      <trkpt lat="43.03309167" lon="-1.289585">
        <ele>1303.0</ele>
        <time>2019-08-01T09:48:34.024Z</time>
      </trkpt>
      <trkpt lat="43.03311" lon="-1.289585">
        <ele>1303.0</ele>
        <time>2019-08-01T09:48:35.031Z</time>
      </trkpt>
      <trkpt lat="43.03312167" lon="-1.28958833">
        <ele>1304.0</ele>
        <time>2019-08-01T09:48:36.034Z</time>
      </trkpt>
      <trkpt lat="43.03313667" lon="-1.289595">
        <ele>1304.0</ele>
        <time>2019-08-01T09:48:37.040Z</time>
      </trkpt>
      <trkpt lat="43.03314667" lon="-1.289605">
        <ele>1305.0</ele>
        <time>2019-08-01T09:48:37.920Z</time>
      </trkpt>
      <trkpt lat="43.033155" lon="-1.28961667">
        <ele>1305.0</ele>
        <time>2019-08-01T09:48:38.927Z</time>
      </trkpt>
      <trkpt lat="43.03316833" lon="-1.28961833">
        <ele>1305.0</ele>
        <time>2019-08-01T09:48:39.932Z</time>
      </trkpt>
      <trkpt lat="43.03317833" lon="-1.28962167">
        <ele>1305.0</ele>
        <time>2019-08-01T09:48:40.937Z</time>
      </trkpt>
      <trkpt lat="43.03319" lon="-1.28961833">
        <ele>1305.0</ele>
        <time>2019-08-01T09:48:41.941Z</time>
      </trkpt>
      <trkpt lat="43.03320167" lon="-1.28962">
        <ele>1306.0</ele>
        <time>2019-08-01T09:48:42.945Z</time>
      </trkpt>
      <trkpt lat="43.03321" lon="-1.28962167">
        <ele>1308.0</ele>
        <time>2019-08-01T09:48:43.949Z</time>
      </trkpt>
      <trkpt lat="43.03322333" lon="-1.28962667">
        <ele>1309.0</ele>
        <time>2019-08-01T09:48:44.955Z</time>
      </trkpt>
      <trkpt lat="43.03324333" lon="-1.28963167">
        <ele>1311.0</ele>
        <time>2019-08-01T09:48:45.961Z</time>
      </trkpt>
      <trkpt lat="43.033255" lon="-1.28962833">
        <ele>1311.0</ele>
        <time>2019-08-01T09:48:46.968Z</time>
      </trkpt>
      <trkpt lat="43.033265" lon="-1.28962833">
        <ele>1311.0</ele>
        <time>2019-08-01T09:48:47.973Z</time>
      </trkpt>
      <trkpt lat="43.03327667" lon="-1.28963">
        <ele>1310.0</ele>
        <time>2019-08-01T09:48:48.979Z</time>
      </trkpt>
      <trkpt lat="43.03328667" lon="-1.28963167">
        <ele>1310.0</ele>
        <time>2019-08-01T09:48:49.985Z</time>
      </trkpt>
      <trkpt lat="43.03329833" lon="-1.28963333">
        <ele>1310.0</ele>
        <time>2019-08-01T09:48:50.993Z</time>
      </trkpt>
      <trkpt lat="43.03330667" lon="-1.289635">
        <ele>1310.0</ele>
        <time>2019-08-01T09:48:52.000Z</time>
      </trkpt>
      <trkpt lat="43.03331833" lon="-1.28963333">
        <ele>1310.0</ele>
        <time>2019-08-01T09:48:53.006Z</time>
      </trkpt>
      <trkpt lat="43.03333" lon="-1.28963333">
        <ele>1309.0</ele>
        <time>2019-08-01T09:48:54.011Z</time>
      </trkpt>
      <trkpt lat="43.03334" lon="-1.28963667">
        <ele>1308.0</ele>
        <time>2019-08-01T09:48:55.015Z</time>
      </trkpt>
      <trkpt lat="43.03335333" lon="-1.28963833">
        <ele>1306.0</ele>
        <time>2019-08-01T09:48:56.021Z</time>
      </trkpt>
      <trkpt lat="43.033365" lon="-1.28964167">
        <ele>1306.0</ele>
        <time>2019-08-01T09:48:57.028Z</time>
      </trkpt>
      <trkpt lat="43.03337667" lon="-1.28964667">
        <ele>1306.0</ele>
        <time>2019-08-01T09:48:58.034Z</time>
      </trkpt>
      <trkpt lat="43.033385" lon="-1.28964833">
        <ele>1305.0</ele>
        <time>2019-08-01T09:48:59.040Z</time>
      </trkpt>
      <trkpt lat="43.03339167" lon="-1.289655">
        <ele>1304.0</ele>
        <time>2019-08-01T09:48:59.921Z</time>
      </trkpt>
      <trkpt lat="43.0334" lon="-1.28966333">
        <ele>1304.0</ele>
        <time>2019-08-01T09:49:00.926Z</time>
      </trkpt>
      <trkpt lat="43.03341167" lon="-1.28966833">
        <ele>1304.0</ele>
        <time>2019-08-01T09:49:01.931Z</time>
      </trkpt>
      <trkpt lat="43.03342667" lon="-1.28967">
        <ele>1304.0</ele>
        <time>2019-08-01T09:49:02.936Z</time>
      </trkpt>
      <trkpt lat="43.033445" lon="-1.28966833">
        <ele>1303.0</ele>
        <time>2019-08-01T09:49:03.942Z</time>
      </trkpt>
      <trkpt lat="43.03346333" lon="-1.28967">
        <ele>1303.0</ele>
        <time>2019-08-01T09:49:04.948Z</time>
      </trkpt>
      <trkpt lat="43.03347667" lon="-1.28966667">
        <ele>1302.0</ele>
        <time>2019-08-01T09:49:05.954Z</time>
      </trkpt>
      <trkpt lat="43.03349167" lon="-1.289665">
        <ele>1301.0</ele>
        <time>2019-08-01T09:49:06.959Z</time>
      </trkpt>
      <trkpt lat="43.033505" lon="-1.28966667">
        <ele>1301.0</ele>
        <time>2019-08-01T09:49:07.962Z</time>
      </trkpt>
      <trkpt lat="43.03351167" lon="-1.289675">
        <ele>1302.0</ele>
        <time>2019-08-01T09:49:08.969Z</time>
      </trkpt>
      <trkpt lat="43.03352167" lon="-1.28967333">
        <ele>1303.0</ele>
        <time>2019-08-01T09:49:09.974Z</time>
      </trkpt>
      <trkpt lat="43.03352667" lon="-1.28966667">
        <ele>1303.0</ele>
        <time>2019-08-01T09:49:10.982Z</time>
      </trkpt>
      <trkpt lat="43.03353667" lon="-1.289655">
        <ele>1303.0</ele>
        <time>2019-08-01T09:49:11.989Z</time>
      </trkpt>
      <trkpt lat="43.03355" lon="-1.289655">
        <ele>1303.0</ele>
        <time>2019-08-01T09:49:12.992Z</time>
      </trkpt>
      <trkpt lat="43.03356" lon="-1.28965667">
        <ele>1302.0</ele>
        <time>2019-08-01T09:49:13.997Z</time>
      </trkpt>
      <trkpt lat="43.03356833" lon="-1.28966667">
        <ele>1301.0</ele>
        <time>2019-08-01T09:49:15.004Z</time>
      </trkpt>
      <trkpt lat="43.03357833" lon="-1.28967">
        <ele>1301.0</ele>
        <time>2019-08-01T09:49:16.010Z</time>
      </trkpt>
      <trkpt lat="43.033585" lon="-1.289675">
        <ele>1302.0</ele>
        <time>2019-08-01T09:49:17.014Z</time>
      </trkpt>
      <trkpt lat="43.03359833" lon="-1.289685">
        <ele>1301.0</ele>
        <time>2019-08-01T09:49:18.022Z</time>
      </trkpt>
      <trkpt lat="43.03360833" lon="-1.28969">
        <ele>1300.0</ele>
        <time>2019-08-01T09:49:19.030Z</time>
      </trkpt>
      <trkpt lat="43.03361667" lon="-1.28969667">
        <ele>1300.0</ele>
        <time>2019-08-01T09:49:20.035Z</time>
      </trkpt>
      <trkpt lat="43.033625" lon="-1.28970333">
        <ele>1300.0</ele>
        <time>2019-08-01T09:49:21.041Z</time>
      </trkpt>
      <trkpt lat="43.033635" lon="-1.28970333">
        <ele>1300.0</ele>
        <time>2019-08-01T09:49:21.921Z</time>
      </trkpt>
      <trkpt lat="43.03364333" lon="-1.28970167">
        <ele>1300.0</ele>
        <time>2019-08-01T09:49:22.927Z</time>
      </trkpt>
      <trkpt lat="43.03365833" lon="-1.2897">
        <ele>1300.0</ele>
        <time>2019-08-01T09:49:23.932Z</time>
      </trkpt>
      <trkpt lat="43.03367333" lon="-1.28969833">
        <ele>1300.0</ele>
        <time>2019-08-01T09:49:24.939Z</time>
      </trkpt>
      <trkpt lat="43.033685" lon="-1.28970167">
        <ele>1300.0</ele>
        <time>2019-08-01T09:49:25.945Z</time>
      </trkpt>
      <trkpt lat="43.03369333" lon="-1.289705">
        <ele>1300.0</ele>
        <time>2019-08-01T09:49:26.951Z</time>
      </trkpt>
      <trkpt lat="43.03369833" lon="-1.28970333">
        <ele>1299.0</ele>
        <time>2019-08-01T09:49:27.956Z</time>
      </trkpt>
      <trkpt lat="43.03371" lon="-1.2897">
        <ele>1300.0</ele>
        <time>2019-08-01T09:49:28.964Z</time>
      </trkpt>
      <trkpt lat="43.033715" lon="-1.28970667">
        <ele>1300.0</ele>
        <time>2019-08-01T09:49:29.969Z</time>
      </trkpt>
      <trkpt lat="43.033725" lon="-1.289715">
        <ele>1300.0</ele>
        <time>2019-08-01T09:49:30.974Z</time>
      </trkpt>
      <trkpt lat="43.03373333" lon="-1.28972167">
        <ele>1300.0</ele>
        <time>2019-08-01T09:49:31.980Z</time>
      </trkpt>
      <trkpt lat="43.03374333" lon="-1.289725">
        <ele>1300.0</ele>
        <time>2019-08-01T09:49:32.986Z</time>
      </trkpt>
      <trkpt lat="43.03375333" lon="-1.28972333">
        <ele>1300.0</ele>
        <time>2019-08-01T09:49:33.991Z</time>
      </trkpt>
      <trkpt lat="43.03376333" lon="-1.28972667">
        <ele>1300.0</ele>
        <time>2019-08-01T09:49:34.997Z</time>
      </trkpt>
      <trkpt lat="43.03377167" lon="-1.28973">
        <ele>1300.0</ele>
        <time>2019-08-01T09:49:36.002Z</time>
      </trkpt>
      <trkpt lat="43.03378167" lon="-1.28973667">
        <ele>1300.0</ele>
        <time>2019-08-01T09:49:37.009Z</time>
      </trkpt>
      <trkpt lat="43.033795" lon="-1.28974167">
        <ele>1299.0</ele>
        <time>2019-08-01T09:49:38.012Z</time>
      </trkpt>
      <trkpt lat="43.03380833" lon="-1.289745">
        <ele>1299.0</ele>
        <time>2019-08-01T09:49:39.016Z</time>
      </trkpt>
      <trkpt lat="43.03382333" lon="-1.28975667">
        <ele>1298.0</ele>
        <time>2019-08-01T09:49:40.023Z</time>
      </trkpt>
      <trkpt lat="43.03383333" lon="-1.28976333">
        <ele>1298.0</ele>
        <time>2019-08-01T09:49:41.031Z</time>
      </trkpt>
      <trkpt lat="43.03385" lon="-1.28976833">
        <ele>1297.0</ele>
        <time>2019-08-01T09:49:42.037Z</time>
      </trkpt>
      <trkpt lat="43.03386667" lon="-1.28976667">
        <ele>1297.0</ele>
        <time>2019-08-01T09:49:43.042Z</time>
      </trkpt>
      <trkpt lat="43.033875" lon="-1.28976833">
        <ele>1296.0</ele>
        <time>2019-08-01T09:49:43.920Z</time>
      </trkpt>
      <trkpt lat="43.03388167" lon="-1.28977333">
        <ele>1295.0</ele>
        <time>2019-08-01T09:49:44.927Z</time>
      </trkpt>
      <trkpt lat="43.03388667" lon="-1.28977833">
        <ele>1295.0</ele>
        <time>2019-08-01T09:49:45.932Z</time>
      </trkpt>
      <trkpt lat="43.03389167" lon="-1.28978333">
        <ele>1295.0</ele>
        <time>2019-08-01T09:49:46.939Z</time>
      </trkpt>
      <trkpt lat="43.03390667" lon="-1.28978167">
        <ele>1296.0</ele>
        <time>2019-08-01T09:49:47.947Z</time>
      </trkpt>
      <trkpt lat="43.03392833" lon="-1.28977667">
        <ele>1296.0</ele>
        <time>2019-08-01T09:49:48.953Z</time>
      </trkpt>
      <trkpt lat="43.03395" lon="-1.28977667">
        <ele>1296.0</ele>
        <time>2019-08-01T09:49:49.961Z</time>
      </trkpt>
      <trkpt lat="43.033965" lon="-1.28977667">
        <ele>1296.0</ele>
        <time>2019-08-01T09:49:50.964Z</time>
      </trkpt>
      <trkpt lat="43.033975" lon="-1.28978">
        <ele>1296.0</ele>
        <time>2019-08-01T09:49:51.968Z</time>
      </trkpt>
      <trkpt lat="43.03398667" lon="-1.28977333">
        <ele>1295.0</ele>
        <time>2019-08-01T09:49:52.972Z</time>
      </trkpt>
      <trkpt lat="43.03400333" lon="-1.28976333">
        <ele>1295.0</ele>
        <time>2019-08-01T09:49:53.980Z</time>
      </trkpt>
      <trkpt lat="43.03401667" lon="-1.28975333">
        <ele>1295.0</ele>
        <time>2019-08-01T09:49:54.986Z</time>
      </trkpt>
      <trkpt lat="43.03402833" lon="-1.28973167">
        <ele>1295.0</ele>
        <time>2019-08-01T09:49:55.993Z</time>
      </trkpt>
      <trkpt lat="43.03403167" lon="-1.28971333">
        <ele>1295.0</ele>
        <time>2019-08-01T09:49:57.000Z</time>
      </trkpt>
      <trkpt lat="43.03403333" lon="-1.28970333">
        <ele>1295.0</ele>
        <time>2019-08-01T09:49:58.006Z</time>
      </trkpt>
      <trkpt lat="43.03402833" lon="-1.289695">
        <ele>1296.0</ele>
        <time>2019-08-01T09:49:59.011Z</time>
      </trkpt>
      <trkpt lat="43.03403" lon="-1.289685">
        <ele>1297.0</ele>
        <time>2019-08-01T09:50:00.017Z</time>
      </trkpt>
      <trkpt lat="43.03403667" lon="-1.28968">
        <ele>1297.0</ele>
        <time>2019-08-01T09:50:01.024Z</time>
      </trkpt>
      <trkpt lat="43.034045" lon="-1.28968167">
        <ele>1296.0</ele>
        <time>2019-08-01T09:50:02.029Z</time>
      </trkpt>
      <trkpt lat="43.03405667" lon="-1.28967333">
        <ele>1296.0</ele>
        <time>2019-08-01T09:50:03.035Z</time>
      </trkpt>
      <trkpt lat="43.03406667" lon="-1.28966">
        <ele>1296.0</ele>
        <time>2019-08-01T09:50:04.038Z</time>
      </trkpt>
      <trkpt lat="43.03407333" lon="-1.28964833">
        <ele>1296.0</ele>
        <time>2019-08-01T09:50:04.918Z</time>
      </trkpt>
      <trkpt lat="43.03407833" lon="-1.28964">
        <ele>1296.0</ele>
        <time>2019-08-01T09:50:05.925Z</time>
      </trkpt>
      <trkpt lat="43.03408167" lon="-1.28963167">
        <ele>1297.0</ele>
        <time>2019-08-01T09:50:06.931Z</time>
      </trkpt>
      <trkpt lat="43.034085" lon="-1.28962167">
        <ele>1297.0</ele>
        <time>2019-08-01T09:50:07.936Z</time>
      </trkpt>
      <trkpt lat="43.03409333" lon="-1.28961">
        <ele>1297.0</ele>
        <time>2019-08-01T09:50:08.942Z</time>
      </trkpt>
      <trkpt lat="43.03410167" lon="-1.28960167">
        <ele>1297.0</ele>
        <time>2019-08-01T09:50:09.949Z</time>
      </trkpt>
      <trkpt lat="43.03410667" lon="-1.28959167">
        <ele>1296.0</ele>
        <time>2019-08-01T09:50:10.955Z</time>
      </trkpt>
      <trkpt lat="43.03411333" lon="-1.28958167">
        <ele>1296.0</ele>
        <time>2019-08-01T09:50:11.963Z</time>
      </trkpt>
      <trkpt lat="43.03412" lon="-1.28957667">
        <ele>1296.0</ele>
        <time>2019-08-01T09:50:12.969Z</time>
      </trkpt>
      <trkpt lat="43.03413" lon="-1.28956667">
        <ele>1295.0</ele>
        <time>2019-08-01T09:50:13.974Z</time>
      </trkpt>
      <trkpt lat="43.03413833" lon="-1.28955667">
        <ele>1295.0</ele>
        <time>2019-08-01T09:50:14.982Z</time>
      </trkpt>
      <trkpt lat="43.03414667" lon="-1.28955167">
        <ele>1295.0</ele>
        <time>2019-08-01T09:50:15.988Z</time>
      </trkpt>
      <trkpt lat="43.03415833" lon="-1.28954333">
        <ele>1295.0</ele>
        <time>2019-08-01T09:50:16.994Z</time>
      </trkpt>
      <trkpt lat="43.03416833" lon="-1.289535">
        <ele>1296.0</ele>
        <time>2019-08-01T09:50:17.999Z</time>
      </trkpt>
      <trkpt lat="43.03418167" lon="-1.28952833">
        <ele>1296.0</ele>
        <time>2019-08-01T09:50:19.005Z</time>
      </trkpt>
      <trkpt lat="43.03419167" lon="-1.289525">
        <ele>1296.0</ele>
        <time>2019-08-01T09:50:20.010Z</time>
      </trkpt>
      <trkpt lat="43.03420167" lon="-1.28951833">
        <ele>1297.0</ele>
        <time>2019-08-01T09:50:21.016Z</time>
      </trkpt>
      <trkpt lat="43.03421333" lon="-1.28951">
        <ele>1297.0</ele>
        <time>2019-08-01T09:50:22.021Z</time>
      </trkpt>
      <trkpt lat="43.03422667" lon="-1.28950167">
        <ele>1296.0</ele>
        <time>2019-08-01T09:50:23.028Z</time>
      </trkpt>
      <trkpt lat="43.034245" lon="-1.28948833">
        <ele>1296.0</ele>
        <time>2019-08-01T09:50:24.034Z</time>
      </trkpt>
      <trkpt lat="43.03426167" lon="-1.28948333">
        <ele>1296.0</ele>
        <time>2019-08-01T09:50:25.040Z</time>
      </trkpt>
      <trkpt lat="43.03427833" lon="-1.28948">
        <ele>1295.0</ele>
        <time>2019-08-01T09:50:25.919Z</time>
      </trkpt>
      <trkpt lat="43.03428833" lon="-1.28947667">
        <ele>1295.0</ele>
        <time>2019-08-01T09:50:26.924Z</time>
      </trkpt>
      <trkpt lat="43.03430167" lon="-1.28947667">
        <ele>1295.0</ele>
        <time>2019-08-01T09:50:27.928Z</time>
      </trkpt>
      <trkpt lat="43.034315" lon="-1.28947667">
        <ele>1295.0</ele>
        <time>2019-08-01T09:50:28.933Z</time>
      </trkpt>
      <trkpt lat="43.03433" lon="-1.28947333">
        <ele>1294.0</ele>
        <time>2019-08-01T09:50:29.939Z</time>
      </trkpt>
      <trkpt lat="43.03434167" lon="-1.28946833">
        <ele>1294.0</ele>
        <time>2019-08-01T09:50:30.945Z</time>
      </trkpt>
      <trkpt lat="43.03435667" lon="-1.289465">
        <ele>1294.0</ele>
        <time>2019-08-01T09:50:31.952Z</time>
      </trkpt>
      <trkpt lat="43.03437167" lon="-1.28946167">
        <ele>1293.0</ele>
        <time>2019-08-01T09:50:32.959Z</time>
      </trkpt>
      <trkpt lat="43.03438667" lon="-1.28946167">
        <ele>1293.0</ele>
        <time>2019-08-01T09:50:33.966Z</time>
      </trkpt>
      <trkpt lat="43.03440667" lon="-1.28945667">
        <ele>1292.0</ele>
        <time>2019-08-01T09:50:34.971Z</time>
      </trkpt>
      <trkpt lat="43.03442333" lon="-1.28945167">
        <ele>1293.0</ele>
        <time>2019-08-01T09:50:35.979Z</time>
      </trkpt>
      <trkpt lat="43.034435" lon="-1.289445">
        <ele>1293.0</ele>
        <time>2019-08-01T09:50:36.984Z</time>
      </trkpt>
      <trkpt lat="43.03444833" lon="-1.28944">
        <ele>1293.0</ele>
        <time>2019-08-01T09:50:37.991Z</time>
      </trkpt>
      <trkpt lat="43.034465" lon="-1.28943833">
        <ele>1293.0</ele>
        <time>2019-08-01T09:50:38.999Z</time>
      </trkpt>
      <trkpt lat="43.03448" lon="-1.28943667">
        <ele>1293.0</ele>
        <time>2019-08-01T09:50:40.006Z</time>
      </trkpt>
      <trkpt lat="43.034495" lon="-1.28943333">
        <ele>1292.0</ele>
        <time>2019-08-01T09:50:41.010Z</time>
      </trkpt>
      <trkpt lat="43.034505" lon="-1.28942833">
        <ele>1292.0</ele>
        <time>2019-08-01T09:50:42.014Z</time>
      </trkpt>
      <trkpt lat="43.03451833" lon="-1.28942833">
        <ele>1292.0</ele>
        <time>2019-08-01T09:50:43.021Z</time>
      </trkpt>
      <trkpt lat="43.03452833" lon="-1.28943167">
        <ele>1292.0</ele>
        <time>2019-08-01T09:50:44.028Z</time>
      </trkpt>
      <trkpt lat="43.03453833" lon="-1.28943833">
        <ele>1291.0</ele>
        <time>2019-08-01T09:50:45.035Z</time>
      </trkpt>
      <trkpt lat="43.034555" lon="-1.28943833">
        <ele>1291.0</ele>
        <time>2019-08-01T09:50:46.040Z</time>
      </trkpt>
      <trkpt lat="43.03456667" lon="-1.28943667">
        <ele>1291.0</ele>
        <time>2019-08-01T09:50:46.919Z</time>
      </trkpt>
      <trkpt lat="43.03457333" lon="-1.28943167">
        <ele>1292.0</ele>
        <time>2019-08-01T09:50:47.925Z</time>
      </trkpt>
      <trkpt lat="43.03459167" lon="-1.28942833">
        <ele>1292.0</ele>
        <time>2019-08-01T09:50:48.930Z</time>
      </trkpt>
      <trkpt lat="43.03460167" lon="-1.28943167">
        <ele>1293.0</ele>
        <time>2019-08-01T09:50:49.936Z</time>
      </trkpt>
      <trkpt lat="43.03461167" lon="-1.28944">
        <ele>1294.0</ele>
        <time>2019-08-01T09:50:50.943Z</time>
      </trkpt>
      <trkpt lat="43.03461833" lon="-1.28944167">
        <ele>1294.0</ele>
        <time>2019-08-01T09:50:51.950Z</time>
      </trkpt>
      <trkpt lat="43.03463333" lon="-1.28944333">
        <ele>1294.0</ele>
        <time>2019-08-01T09:50:52.956Z</time>
      </trkpt>
      <trkpt lat="43.03464333" lon="-1.28944667">
        <ele>1294.0</ele>
        <time>2019-08-01T09:50:53.963Z</time>
      </trkpt>
      <trkpt lat="43.03465667" lon="-1.289445">
        <ele>1294.0</ele>
        <time>2019-08-01T09:50:54.967Z</time>
      </trkpt>
      <trkpt lat="43.03466833" lon="-1.28944">
        <ele>1294.0</ele>
        <time>2019-08-01T09:50:55.973Z</time>
      </trkpt>
      <trkpt lat="43.03468167" lon="-1.28943667">
        <ele>1294.0</ele>
        <time>2019-08-01T09:50:56.980Z</time>
      </trkpt>
      <trkpt lat="43.03469167" lon="-1.28943167">
        <ele>1294.0</ele>
        <time>2019-08-01T09:50:57.986Z</time>
      </trkpt>
      <trkpt lat="43.034705" lon="-1.28942333">
        <ele>1295.0</ele>
        <time>2019-08-01T09:50:58.992Z</time>
      </trkpt>
      <trkpt lat="43.034715" lon="-1.289415">
        <ele>1295.0</ele>
        <time>2019-08-01T09:51:00.000Z</time>
      </trkpt>
      <trkpt lat="43.03472833" lon="-1.28940833">
        <ele>1295.0</ele>
        <time>2019-08-01T09:51:01.006Z</time>
      </trkpt>
      <trkpt lat="43.03474" lon="-1.289405">
        <ele>1295.0</ele>
        <time>2019-08-01T09:51:02.011Z</time>
      </trkpt>
      <trkpt lat="43.03475" lon="-1.28940333">
        <ele>1295.0</ele>
        <time>2019-08-01T09:51:03.017Z</time>
      </trkpt>
      <trkpt lat="43.03476167" lon="-1.28939833">
        <ele>1295.0</ele>
        <time>2019-08-01T09:51:04.024Z</time>
      </trkpt>
      <trkpt lat="43.034775" lon="-1.28939333">
        <ele>1296.0</ele>
        <time>2019-08-01T09:51:05.030Z</time>
      </trkpt>
      <trkpt lat="43.03478667" lon="-1.28938833">
        <ele>1297.0</ele>
        <time>2019-08-01T09:51:06.034Z</time>
      </trkpt>
      <trkpt lat="43.03480167" lon="-1.28938333">
        <ele>1298.0</ele>
        <time>2019-08-01T09:51:07.039Z</time>
      </trkpt>
      <trkpt lat="43.03481333" lon="-1.28937833">
        <ele>1298.0</ele>
        <time>2019-08-01T09:51:07.919Z</time>
      </trkpt>
      <trkpt lat="43.03482333" lon="-1.289375">
        <ele>1298.0</ele>
        <time>2019-08-01T09:51:08.924Z</time>
      </trkpt>
      <trkpt lat="43.03483667" lon="-1.289375">
        <ele>1297.0</ele>
        <time>2019-08-01T09:51:09.931Z</time>
      </trkpt>
      <trkpt lat="43.03484667" lon="-1.28937667">
        <ele>1298.0</ele>
        <time>2019-08-01T09:51:10.936Z</time>
      </trkpt>
      <trkpt lat="43.03486667" lon="-1.289375">
        <ele>1298.0</ele>
        <time>2019-08-01T09:51:11.942Z</time>
      </trkpt>
      <trkpt lat="43.03488667" lon="-1.28937667">
        <ele>1298.0</ele>
        <time>2019-08-01T09:51:12.948Z</time>
      </trkpt>
      <trkpt lat="43.03490167" lon="-1.28937333">
        <ele>1298.0</ele>
        <time>2019-08-01T09:51:13.954Z</time>
      </trkpt>
      <trkpt lat="43.034915" lon="-1.28937167">
        <ele>1298.0</ele>
        <time>2019-08-01T09:51:14.960Z</time>
      </trkpt>
      <trkpt lat="43.03492833" lon="-1.28936667">
        <ele>1298.0</ele>
        <time>2019-08-01T09:51:15.966Z</time>
      </trkpt>
      <trkpt lat="43.03494" lon="-1.28936833">
        <ele>1299.0</ele>
        <time>2019-08-01T09:51:16.971Z</time>
      </trkpt>
      <trkpt lat="43.03495167" lon="-1.28937167">
        <ele>1299.0</ele>
        <time>2019-08-01T09:51:17.976Z</time>
      </trkpt>
      <trkpt lat="43.03496333" lon="-1.289375">
        <ele>1299.0</ele>
        <time>2019-08-01T09:51:18.981Z</time>
      </trkpt>
      <trkpt lat="43.03497833" lon="-1.28937667">
        <ele>1299.0</ele>
        <time>2019-08-01T09:51:19.986Z</time>
      </trkpt>
      <trkpt lat="43.03498167" lon="-1.28937667">
        <ele>1301.0</ele>
        <time>2019-08-01T09:51:20.992Z</time>
      </trkpt>
      <trkpt lat="43.03499167" lon="-1.28938333">
        <ele>1303.0</ele>
        <time>2019-08-01T09:51:21.998Z</time>
      </trkpt>
      <trkpt lat="43.035005" lon="-1.28938167">
        <ele>1303.0</ele>
        <time>2019-08-01T09:51:23.002Z</time>
      </trkpt>
      <trkpt lat="43.03501" lon="-1.28938333">
        <ele>1303.0</ele>
        <time>2019-08-01T09:51:24.008Z</time>
      </trkpt>
      <trkpt lat="43.03501" lon="-1.28938333">
        <ele>1303.0</ele>
        <time>2019-08-01T09:51:25.012Z</time>
      </trkpt>
      <trkpt lat="43.03500333" lon="-1.28938667">
        <ele>1303.0</ele>
        <time>2019-08-01T09:51:26.017Z</time>
      </trkpt>
      <trkpt lat="43.035005" lon="-1.289385">
        <ele>1303.0</ele>
        <time>2019-08-01T09:51:27.023Z</time>
      </trkpt>
      <trkpt lat="43.03500833" lon="-1.28938167">
        <ele>1303.0</ele>
        <time>2019-08-01T09:51:28.027Z</time>
      </trkpt>
      <trkpt lat="43.03501333" lon="-1.28938">
        <ele>1303.0</ele>
        <time>2019-08-01T09:51:29.033Z</time>
      </trkpt>
      <trkpt lat="43.03501667" lon="-1.28938">
        <ele>1303.0</ele>
        <time>2019-08-01T09:51:30.039Z</time>
      </trkpt>
      <trkpt lat="43.03502167" lon="-1.28938167">
        <ele>1303.0</ele>
        <time>2019-08-01T09:51:30.920Z</time>
      </trkpt>
      <trkpt lat="43.03502333" lon="-1.28938">
        <ele>1303.0</ele>
        <time>2019-08-01T09:51:31.925Z</time>
      </trkpt>
      <trkpt lat="43.035025" lon="-1.28937833">
        <ele>1303.0</ele>
        <time>2019-08-01T09:51:32.926Z</time>
      </trkpt>
      <trkpt lat="43.03502667" lon="-1.28937667">
        <ele>1303.0</ele>
        <time>2019-08-01T09:51:33.928Z</time>
      </trkpt>
      <trkpt lat="43.03502667" lon="-1.28937">
        <ele>1303.0</ele>
        <time>2019-08-01T09:51:34.934Z</time>
      </trkpt>
      <trkpt lat="43.03502667" lon="-1.28936833">
        <ele>1303.0</ele>
        <time>2019-08-01T09:51:35.941Z</time>
      </trkpt>
      <trkpt lat="43.03502833" lon="-1.28936833">
        <ele>1303.0</ele>
        <time>2019-08-01T09:51:36.948Z</time>
      </trkpt>
      <trkpt lat="43.03503" lon="-1.28936667">
        <ele>1303.0</ele>
        <time>2019-08-01T09:51:37.954Z</time>
      </trkpt>
      <trkpt lat="43.03503167" lon="-1.28936667">
        <ele>1304.0</ele>
        <time>2019-08-01T09:51:38.961Z</time>
      </trkpt>
      <trkpt lat="43.03503" lon="-1.28936833">
        <ele>1304.0</ele>
        <time>2019-08-01T09:51:39.967Z</time>
      </trkpt>
      <trkpt lat="43.03503167" lon="-1.28937">
        <ele>1304.0</ele>
        <time>2019-08-01T09:51:40.974Z</time>
      </trkpt>
      <trkpt lat="43.03503667" lon="-1.28937">
        <ele>1305.0</ele>
        <time>2019-08-01T09:51:41.980Z</time>
      </trkpt>
      <trkpt lat="43.03504667" lon="-1.28936833">
        <ele>1305.0</ele>
        <time>2019-08-01T09:51:42.986Z</time>
      </trkpt>
      <trkpt lat="43.03505667" lon="-1.28936667">
        <ele>1305.0</ele>
        <time>2019-08-01T09:51:43.992Z</time>
      </trkpt>
      <trkpt lat="43.03506833" lon="-1.28936167">
        <ele>1305.0</ele>
        <time>2019-08-01T09:51:44.999Z</time>
      </trkpt>
      <trkpt lat="43.03507667" lon="-1.28935833">
        <ele>1305.0</ele>
        <time>2019-08-01T09:51:46.004Z</time>
      </trkpt>
      <trkpt lat="43.035085" lon="-1.28935833">
        <ele>1305.0</ele>
        <time>2019-08-01T09:51:47.009Z</time>
      </trkpt>
      <trkpt lat="43.03509667" lon="-1.28935667">
        <ele>1305.0</ele>
        <time>2019-08-01T09:51:48.011Z</time>
      </trkpt>
      <trkpt lat="43.03510833" lon="-1.28935833">
        <ele>1304.0</ele>
        <time>2019-08-01T09:51:49.014Z</time>
      </trkpt>
      <trkpt lat="43.03511833" lon="-1.28935833">
        <ele>1304.0</ele>
        <time>2019-08-01T09:51:50.020Z</time>
      </trkpt>
      <trkpt lat="43.03513167" lon="-1.28935833">
        <ele>1304.0</ele>
        <time>2019-08-01T09:51:51.027Z</time>
      </trkpt>
      <trkpt lat="43.03514333" lon="-1.28935667">
        <ele>1304.0</ele>
        <time>2019-08-01T09:51:52.033Z</time>
      </trkpt>
      <trkpt lat="43.03515667" lon="-1.28936">
        <ele>1304.0</ele>
        <time>2019-08-01T09:51:53.038Z</time>
      </trkpt>
      <trkpt lat="43.03517167" lon="-1.28936333">
        <ele>1305.0</ele>
        <time>2019-08-01T09:51:54.040Z</time>
      </trkpt>
      <trkpt lat="43.03518833" lon="-1.289365">
        <ele>1306.0</ele>
        <time>2019-08-01T09:51:54.920Z</time>
      </trkpt>
      <trkpt lat="43.0352" lon="-1.289365">
        <ele>1307.0</ele>
        <time>2019-08-01T09:51:55.924Z</time>
      </trkpt>
      <trkpt lat="43.03521167" lon="-1.28936667">
        <ele>1307.0</ele>
        <time>2019-08-01T09:51:56.929Z</time>
      </trkpt>
      <trkpt lat="43.03522167" lon="-1.28937167">
        <ele>1308.0</ele>
        <time>2019-08-01T09:51:57.933Z</time>
      </trkpt>
      <trkpt lat="43.03523" lon="-1.28937667">
        <ele>1308.0</ele>
        <time>2019-08-01T09:51:58.940Z</time>
      </trkpt>
      <trkpt lat="43.03524333" lon="-1.28937833">
        <ele>1309.0</ele>
        <time>2019-08-01T09:51:59.947Z</time>
      </trkpt>
      <trkpt lat="43.03525833" lon="-1.28938333">
        <ele>1309.0</ele>
        <time>2019-08-01T09:52:00.954Z</time>
      </trkpt>
      <trkpt lat="43.03527333" lon="-1.28938667">
        <ele>1309.0</ele>
        <time>2019-08-01T09:52:01.958Z</time>
      </trkpt>
      <trkpt lat="43.03529167" lon="-1.28939">
        <ele>1309.0</ele>
        <time>2019-08-01T09:52:02.964Z</time>
      </trkpt>
      <trkpt lat="43.03530667" lon="-1.28939">
        <ele>1308.0</ele>
        <time>2019-08-01T09:52:03.969Z</time>
      </trkpt>
      <trkpt lat="43.035325" lon="-1.28938667">
        <ele>1308.0</ele>
        <time>2019-08-01T09:52:04.975Z</time>
      </trkpt>
      <trkpt lat="43.03534167" lon="-1.28938333">
        <ele>1308.0</ele>
        <time>2019-08-01T09:52:05.980Z</time>
      </trkpt>
      <trkpt lat="43.03535667" lon="-1.28938">
        <ele>1308.0</ele>
        <time>2019-08-01T09:52:06.987Z</time>
      </trkpt>
      <trkpt lat="43.03536667" lon="-1.28937833">
        <ele>1308.0</ele>
        <time>2019-08-01T09:52:07.995Z</time>
      </trkpt>
      <trkpt lat="43.03537833" lon="-1.28938167">
        <ele>1308.0</ele>
        <time>2019-08-01T09:52:08.999Z</time>
      </trkpt>
      <trkpt lat="43.03538833" lon="-1.289385">
        <ele>1308.0</ele>
        <time>2019-08-01T09:52:10.002Z</time>
      </trkpt>
      <trkpt lat="43.0354" lon="-1.28938667">
        <ele>1308.0</ele>
        <time>2019-08-01T09:52:11.008Z</time>
      </trkpt>
      <trkpt lat="43.03541333" lon="-1.28938833">
        <ele>1308.0</ele>
        <time>2019-08-01T09:52:12.014Z</time>
      </trkpt>
      <trkpt lat="43.03542333" lon="-1.28939">
        <ele>1308.0</ele>
        <time>2019-08-01T09:52:13.022Z</time>
      </trkpt>
      <trkpt lat="43.03543" lon="-1.289395">
        <ele>1308.0</ele>
        <time>2019-08-01T09:52:14.029Z</time>
      </trkpt>
      <trkpt lat="43.03543833" lon="-1.28939833">
        <ele>1308.0</ele>
        <time>2019-08-01T09:52:15.035Z</time>
      </trkpt>
      <trkpt lat="43.03545167" lon="-1.28940333">
        <ele>1308.0</ele>
        <time>2019-08-01T09:52:16.041Z</time>
      </trkpt>
      <trkpt lat="43.03546333" lon="-1.28940667">
        <ele>1308.0</ele>
        <time>2019-08-01T09:52:16.922Z</time>
      </trkpt>
      <trkpt lat="43.03547667" lon="-1.28940667">
        <ele>1308.0</ele>
        <time>2019-08-01T09:52:17.929Z</time>
      </trkpt>
      <trkpt lat="43.03548833" lon="-1.28940667">
        <ele>1308.0</ele>
        <time>2019-08-01T09:52:18.933Z</time>
      </trkpt>
      <trkpt lat="43.0355" lon="-1.28940833">
        <ele>1308.0</ele>
        <time>2019-08-01T09:52:19.938Z</time>
      </trkpt>
      <trkpt lat="43.03551333" lon="-1.28940833">
        <ele>1308.0</ele>
        <time>2019-08-01T09:52:20.943Z</time>
      </trkpt>
      <trkpt lat="43.035525" lon="-1.28941">
        <ele>1308.0</ele>
        <time>2019-08-01T09:52:21.949Z</time>
      </trkpt>
      <trkpt lat="43.03553667" lon="-1.289415">
        <ele>1308.0</ele>
        <time>2019-08-01T09:52:22.955Z</time>
      </trkpt>
      <trkpt lat="43.03554667" lon="-1.28941833">
        <ele>1308.0</ele>
        <time>2019-08-01T09:52:23.960Z</time>
      </trkpt>
      <trkpt lat="43.03555667" lon="-1.28942333">
        <ele>1308.0</ele>
        <time>2019-08-01T09:52:24.965Z</time>
      </trkpt>
      <trkpt lat="43.03556833" lon="-1.28942667">
        <ele>1308.0</ele>
        <time>2019-08-01T09:52:25.970Z</time>
      </trkpt>
      <trkpt lat="43.03558" lon="-1.28942833">
        <ele>1309.0</ele>
        <time>2019-08-01T09:52:26.974Z</time>
      </trkpt>
      <trkpt lat="43.035595" lon="-1.28943">
        <ele>1309.0</ele>
        <time>2019-08-01T09:52:27.982Z</time>
      </trkpt>
      <trkpt lat="43.03560833" lon="-1.28943333">
        <ele>1309.0</ele>
        <time>2019-08-01T09:52:28.988Z</time>
      </trkpt>
      <trkpt lat="43.03562333" lon="-1.28943833">
        <ele>1308.0</ele>
        <time>2019-08-01T09:52:29.995Z</time>
      </trkpt>
      <trkpt lat="43.03563167" lon="-1.28944">
        <ele>1308.0</ele>
        <time>2019-08-01T09:52:31.002Z</time>
      </trkpt>
      <trkpt lat="43.035645" lon="-1.289445">
        <ele>1309.0</ele>
        <time>2019-08-01T09:52:32.009Z</time>
      </trkpt>
      <trkpt lat="43.03565667" lon="-1.28945">
        <ele>1308.0</ele>
        <time>2019-08-01T09:52:33.016Z</time>
      </trkpt>
      <trkpt lat="43.03566833" lon="-1.289455">
        <ele>1308.0</ele>
        <time>2019-08-01T09:52:34.022Z</time>
      </trkpt>
      <trkpt lat="43.03568" lon="-1.28946167">
        <ele>1308.0</ele>
        <time>2019-08-01T09:52:35.027Z</time>
      </trkpt>
      <trkpt lat="43.03569167" lon="-1.28946833">
        <ele>1308.0</ele>
        <time>2019-08-01T09:52:36.033Z</time>
      </trkpt>
      <trkpt lat="43.03570167" lon="-1.28947333">
        <ele>1308.0</ele>
        <time>2019-08-01T09:52:37.040Z</time>
      </trkpt>
      <trkpt lat="43.035715" lon="-1.28948">
        <ele>1308.0</ele>
        <time>2019-08-01T09:52:37.919Z</time>
      </trkpt>
      <trkpt lat="43.03572667" lon="-1.289485">
        <ele>1308.0</ele>
        <time>2019-08-01T09:52:38.924Z</time>
      </trkpt>
      <trkpt lat="43.03573833" lon="-1.28949">
        <ele>1308.0</ele>
        <time>2019-08-01T09:52:39.929Z</time>
      </trkpt>
      <trkpt lat="43.03574667" lon="-1.28949833">
        <ele>1308.0</ele>
        <time>2019-08-01T09:52:40.934Z</time>
      </trkpt>
      <trkpt lat="43.035755" lon="-1.28951167">
        <ele>1308.0</ele>
        <time>2019-08-01T09:52:41.940Z</time>
      </trkpt>
      <trkpt lat="43.035765" lon="-1.28952333">
        <ele>1308.0</ele>
        <time>2019-08-01T09:52:42.944Z</time>
      </trkpt>
      <trkpt lat="43.03577667" lon="-1.289535">
        <ele>1308.0</ele>
        <time>2019-08-01T09:52:43.951Z</time>
      </trkpt>
      <trkpt lat="43.03578667" lon="-1.28954333">
        <ele>1308.0</ele>
        <time>2019-08-01T09:52:44.956Z</time>
      </trkpt>
      <trkpt lat="43.03579667" lon="-1.28955333">
        <ele>1308.0</ele>
        <time>2019-08-01T09:52:45.961Z</time>
      </trkpt>
      <trkpt lat="43.035805" lon="-1.289565">
        <ele>1308.0</ele>
        <time>2019-08-01T09:52:46.967Z</time>
      </trkpt>
      <trkpt lat="43.03581333" lon="-1.28957667">
        <ele>1308.0</ele>
        <time>2019-08-01T09:52:47.973Z</time>
      </trkpt>
      <trkpt lat="43.03582" lon="-1.28959167">
        <ele>1308.0</ele>
        <time>2019-08-01T09:52:48.981Z</time>
      </trkpt>
      <trkpt lat="43.03582667" lon="-1.28960667">
        <ele>1308.0</ele>
        <time>2019-08-01T09:52:49.988Z</time>
      </trkpt>
      <trkpt lat="43.03583333" lon="-1.28962167">
        <ele>1308.0</ele>
        <time>2019-08-01T09:52:50.995Z</time>
      </trkpt>
      <trkpt lat="43.03584167" lon="-1.28963667">
        <ele>1308.0</ele>
        <time>2019-08-01T09:52:51.999Z</time>
      </trkpt>
      <trkpt lat="43.03584833" lon="-1.28965333">
        <ele>1307.0</ele>
        <time>2019-08-01T09:52:53.001Z</time>
      </trkpt>
      <trkpt lat="43.035855" lon="-1.289665">
        <ele>1307.0</ele>
        <time>2019-08-01T09:52:54.008Z</time>
      </trkpt>
      <trkpt lat="43.03586167" lon="-1.28967833">
        <ele>1307.0</ele>
        <time>2019-08-01T09:52:55.013Z</time>
      </trkpt>
      <trkpt lat="43.03587" lon="-1.28969333">
        <ele>1307.0</ele>
        <time>2019-08-01T09:52:56.018Z</time>
      </trkpt>
      <trkpt lat="43.035875" lon="-1.28970667">
        <ele>1307.0</ele>
        <time>2019-08-01T09:52:57.024Z</time>
      </trkpt>
      <trkpt lat="43.03587833" lon="-1.28972333">
        <ele>1306.0</ele>
        <time>2019-08-01T09:52:58.031Z</time>
      </trkpt>
      <trkpt lat="43.035885" lon="-1.28974167">
        <ele>1306.0</ele>
        <time>2019-08-01T09:52:59.037Z</time>
      </trkpt>
      <trkpt lat="43.03589" lon="-1.28976">
        <ele>1306.0</ele>
        <time>2019-08-01T09:53:00.042Z</time>
      </trkpt>
      <trkpt lat="43.03589667" lon="-1.289775">
        <ele>1305.0</ele>
        <time>2019-08-01T09:53:00.922Z</time>
      </trkpt>
      <trkpt lat="43.0359" lon="-1.28979167">
        <ele>1305.0</ele>
        <time>2019-08-01T09:53:01.927Z</time>
      </trkpt>
      <trkpt lat="43.0359" lon="-1.28981">
        <ele>1305.0</ele>
        <time>2019-08-01T09:53:02.932Z</time>
      </trkpt>
      <trkpt lat="43.03590167" lon="-1.28982833">
        <ele>1304.0</ele>
        <time>2019-08-01T09:53:03.938Z</time>
      </trkpt>
      <trkpt lat="43.035905" lon="-1.28984667">
        <ele>1305.0</ele>
        <time>2019-08-01T09:53:04.944Z</time>
      </trkpt>
      <trkpt lat="43.03590667" lon="-1.28986167">
        <ele>1304.0</ele>
        <time>2019-08-01T09:53:05.950Z</time>
      </trkpt>
      <trkpt lat="43.03590833" lon="-1.28987833">
        <ele>1304.0</ele>
        <time>2019-08-01T09:53:06.957Z</time>
      </trkpt>
      <trkpt lat="43.03591167" lon="-1.28989667">
        <ele>1304.0</ele>
        <time>2019-08-01T09:53:07.965Z</time>
      </trkpt>
      <trkpt lat="43.03591167" lon="-1.28991">
        <ele>1303.0</ele>
        <time>2019-08-01T09:53:08.969Z</time>
      </trkpt>
      <trkpt lat="43.03591167" lon="-1.289925">
        <ele>1303.0</ele>
        <time>2019-08-01T09:53:09.976Z</time>
      </trkpt>
      <trkpt lat="43.035915" lon="-1.28994">
        <ele>1303.0</ele>
        <time>2019-08-01T09:53:10.982Z</time>
      </trkpt>
      <trkpt lat="43.035915" lon="-1.28995333">
        <ele>1304.0</ele>
        <time>2019-08-01T09:53:11.986Z</time>
      </trkpt>
      <trkpt lat="43.03591667" lon="-1.28997167">
        <ele>1304.0</ele>
        <time>2019-08-01T09:53:12.991Z</time>
      </trkpt>
      <trkpt lat="43.03591667" lon="-1.28999333">
        <ele>1304.0</ele>
        <time>2019-08-01T09:53:13.997Z</time>
      </trkpt>
      <trkpt lat="43.03591667" lon="-1.29001167">
        <ele>1304.0</ele>
        <time>2019-08-01T09:53:15.003Z</time>
      </trkpt>
      <trkpt lat="43.03592" lon="-1.29002833">
        <ele>1304.0</ele>
        <time>2019-08-01T09:53:16.009Z</time>
      </trkpt>
      <trkpt lat="43.03592333" lon="-1.29004667">
        <ele>1304.0</ele>
        <time>2019-08-01T09:53:17.012Z</time>
      </trkpt>
      <trkpt lat="43.03592667" lon="-1.290065">
        <ele>1304.0</ele>
        <time>2019-08-01T09:53:18.018Z</time>
      </trkpt>
      <trkpt lat="43.03593333" lon="-1.29008">
        <ele>1304.0</ele>
        <time>2019-08-01T09:53:19.024Z</time>
      </trkpt>
      <trkpt lat="43.03593833" lon="-1.29009333">
        <ele>1305.0</ele>
        <time>2019-08-01T09:53:20.030Z</time>
      </trkpt>
      <trkpt lat="43.03594667" lon="-1.29010667">
        <ele>1305.0</ele>
        <time>2019-08-01T09:53:21.036Z</time>
      </trkpt>
      <trkpt lat="43.035955" lon="-1.29012">
        <ele>1305.0</ele>
        <time>2019-08-01T09:53:22.042Z</time>
      </trkpt>
      <trkpt lat="43.03596333" lon="-1.29013167">
        <ele>1305.0</ele>
        <time>2019-08-01T09:53:22.923Z</time>
      </trkpt>
      <trkpt lat="43.035975" lon="-1.29013833">
        <ele>1305.0</ele>
        <time>2019-08-01T09:53:23.928Z</time>
      </trkpt>
      <trkpt lat="43.035985" lon="-1.29014667">
        <ele>1305.0</ele>
        <time>2019-08-01T09:53:24.934Z</time>
      </trkpt>
      <trkpt lat="43.03599167" lon="-1.29015333">
        <ele>1305.0</ele>
        <time>2019-08-01T09:53:25.941Z</time>
      </trkpt>
      <trkpt lat="43.03599667" lon="-1.29016333">
        <ele>1305.0</ele>
        <time>2019-08-01T09:53:26.948Z</time>
      </trkpt>
      <trkpt lat="43.036" lon="-1.29017333">
        <ele>1307.0</ele>
        <time>2019-08-01T09:53:27.953Z</time>
      </trkpt>
      <trkpt lat="43.036005" lon="-1.29018667">
        <ele>1308.0</ele>
        <time>2019-08-01T09:53:28.957Z</time>
      </trkpt>
      <trkpt lat="43.03600667" lon="-1.290195">
        <ele>1308.0</ele>
        <time>2019-08-01T09:53:29.960Z</time>
      </trkpt>
      <trkpt lat="43.03600667" lon="-1.29020833">
        <ele>1309.0</ele>
        <time>2019-08-01T09:53:30.967Z</time>
      </trkpt>
      <trkpt lat="43.03601" lon="-1.29021833">
        <ele>1310.0</ele>
        <time>2019-08-01T09:53:31.973Z</time>
      </trkpt>
      <trkpt lat="43.03602" lon="-1.290225">
        <ele>1311.0</ele>
        <time>2019-08-01T09:53:32.979Z</time>
      </trkpt>
      <trkpt lat="43.03603667" lon="-1.290225">
        <ele>1312.0</ele>
        <time>2019-08-01T09:53:33.984Z</time>
      </trkpt>
      <trkpt lat="43.03605167" lon="-1.29022667">
        <ele>1312.0</ele>
        <time>2019-08-01T09:53:34.991Z</time>
      </trkpt>
      <trkpt lat="43.03606333" lon="-1.29023">
        <ele>1312.0</ele>
        <time>2019-08-01T09:53:35.996Z</time>
      </trkpt>
      <trkpt lat="43.036075" lon="-1.29023667">
        <ele>1312.0</ele>
        <time>2019-08-01T09:53:37.002Z</time>
      </trkpt>
      <trkpt lat="43.036085" lon="-1.29024167">
        <ele>1313.0</ele>
        <time>2019-08-01T09:53:38.007Z</time>
      </trkpt>
      <trkpt lat="43.03609667" lon="-1.29024833">
        <ele>1314.0</ele>
        <time>2019-08-01T09:53:39.012Z</time>
      </trkpt>
      <trkpt lat="43.03610833" lon="-1.29025167">
        <ele>1314.0</ele>
        <time>2019-08-01T09:53:40.015Z</time>
      </trkpt>
      <trkpt lat="43.03612167" lon="-1.290255">
        <ele>1315.0</ele>
        <time>2019-08-01T09:53:41.022Z</time>
      </trkpt>
      <trkpt lat="43.03613167" lon="-1.290255">
        <ele>1315.0</ele>
        <time>2019-08-01T09:53:42.029Z</time>
      </trkpt>
      <trkpt lat="43.03614333" lon="-1.290255">
        <ele>1315.0</ele>
        <time>2019-08-01T09:53:43.035Z</time>
      </trkpt>
      <trkpt lat="43.03615167" lon="-1.29025667">
        <ele>1315.0</ele>
        <time>2019-08-01T09:53:44.040Z</time>
      </trkpt>
      <trkpt lat="43.03616" lon="-1.29026">
        <ele>1316.0</ele>
        <time>2019-08-01T09:53:44.922Z</time>
      </trkpt>
      <trkpt lat="43.03616833" lon="-1.29026333">
        <ele>1316.0</ele>
        <time>2019-08-01T09:53:45.928Z</time>
      </trkpt>
      <trkpt lat="43.03618" lon="-1.29026667">
        <ele>1316.0</ele>
        <time>2019-08-01T09:53:46.931Z</time>
      </trkpt>
      <trkpt lat="43.03619" lon="-1.29027">
        <ele>1317.0</ele>
        <time>2019-08-01T09:53:47.936Z</time>
      </trkpt>
      <trkpt lat="43.03620333" lon="-1.29026667">
        <ele>1316.0</ele>
        <time>2019-08-01T09:53:48.941Z</time>
      </trkpt>
      <trkpt lat="43.03621833" lon="-1.29026">
        <ele>1315.0</ele>
        <time>2019-08-01T09:53:49.946Z</time>
      </trkpt>
      <trkpt lat="43.03623333" lon="-1.29025333">
        <ele>1315.0</ele>
        <time>2019-08-01T09:53:50.951Z</time>
      </trkpt>
      <trkpt lat="43.03624667" lon="-1.29025">
        <ele>1315.0</ele>
        <time>2019-08-01T09:53:51.958Z</time>
      </trkpt>
      <trkpt lat="43.03625833" lon="-1.29024333">
        <ele>1315.0</ele>
        <time>2019-08-01T09:53:52.965Z</time>
      </trkpt>
      <trkpt lat="43.03627167" lon="-1.29024">
        <ele>1315.0</ele>
        <time>2019-08-01T09:53:53.969Z</time>
      </trkpt>
      <trkpt lat="43.036285" lon="-1.29023333">
        <ele>1315.0</ele>
        <time>2019-08-01T09:53:54.974Z</time>
      </trkpt>
      <trkpt lat="43.0363" lon="-1.29022667">
        <ele>1315.0</ele>
        <time>2019-08-01T09:53:55.980Z</time>
      </trkpt>
      <trkpt lat="43.036315" lon="-1.29022">
        <ele>1315.0</ele>
        <time>2019-08-01T09:53:56.986Z</time>
      </trkpt>
      <trkpt lat="43.03632833" lon="-1.290215">
        <ele>1316.0</ele>
        <time>2019-08-01T09:53:57.992Z</time>
      </trkpt>
      <trkpt lat="43.03634333" lon="-1.29020667">
        <ele>1316.0</ele>
        <time>2019-08-01T09:53:58.998Z</time>
      </trkpt>
      <trkpt lat="43.03636167" lon="-1.29019667">
        <ele>1316.0</ele>
        <time>2019-08-01T09:54:00.005Z</time>
      </trkpt>
      <trkpt lat="43.036375" lon="-1.290185">
        <ele>1316.0</ele>
        <time>2019-08-01T09:54:01.010Z</time>
      </trkpt>
      <trkpt lat="43.036385" lon="-1.29018333">
        <ele>1317.0</ele>
        <time>2019-08-01T09:54:02.015Z</time>
      </trkpt>
      <trkpt lat="43.0364" lon="-1.29018">
        <ele>1316.0</ele>
        <time>2019-08-01T09:54:03.021Z</time>
      </trkpt>
      <trkpt lat="43.03641833" lon="-1.29016833">
        <ele>1316.0</ele>
        <time>2019-08-01T09:54:04.026Z</time>
      </trkpt>
      <trkpt lat="43.036435" lon="-1.29016">
        <ele>1317.0</ele>
        <time>2019-08-01T09:54:05.032Z</time>
      </trkpt>
      <trkpt lat="43.03644833" lon="-1.29014833">
        <ele>1316.0</ele>
        <time>2019-08-01T09:54:06.039Z</time>
      </trkpt>
      <trkpt lat="43.036465" lon="-1.29013167">
        <ele>1316.0</ele>
        <time>2019-08-01T09:54:06.918Z</time>
      </trkpt>
      <trkpt lat="43.03647167" lon="-1.29012">
        <ele>1317.0</ele>
        <time>2019-08-01T09:54:07.922Z</time>
      </trkpt>
      <trkpt lat="43.03648167" lon="-1.29010833">
        <ele>1317.0</ele>
        <time>2019-08-01T09:54:08.926Z</time>
      </trkpt>
      <trkpt lat="43.036495" lon="-1.29009667">
        <ele>1317.0</ele>
        <time>2019-08-01T09:54:09.929Z</time>
      </trkpt>
      <trkpt lat="43.03651" lon="-1.29008333">
        <ele>1316.0</ele>
        <time>2019-08-01T09:54:10.934Z</time>
      </trkpt>
      <trkpt lat="43.03651833" lon="-1.29007333">
        <ele>1316.0</ele>
        <time>2019-08-01T09:54:11.940Z</time>
      </trkpt>
      <trkpt lat="43.03653167" lon="-1.290055">
        <ele>1316.0</ele>
        <time>2019-08-01T09:54:12.947Z</time>
      </trkpt>
      <trkpt lat="43.03654" lon="-1.29004167">
        <ele>1316.0</ele>
        <time>2019-08-01T09:54:13.953Z</time>
      </trkpt>
      <trkpt lat="43.03654667" lon="-1.290035">
        <ele>1315.0</ele>
        <time>2019-08-01T09:54:14.958Z</time>
      </trkpt>
      <trkpt lat="43.03655167" lon="-1.29001833">
        <ele>1314.0</ele>
        <time>2019-08-01T09:54:15.963Z</time>
      </trkpt>
      <trkpt lat="43.03656" lon="-1.29000333">
        <ele>1314.0</ele>
        <time>2019-08-01T09:54:16.970Z</time>
      </trkpt>
      <trkpt lat="43.03657" lon="-1.28998167">
        <ele>1315.0</ele>
        <time>2019-08-01T09:54:17.976Z</time>
      </trkpt>
      <trkpt lat="43.03657833" lon="-1.28996833">
        <ele>1315.0</ele>
        <time>2019-08-01T09:54:18.982Z</time>
      </trkpt>
      <trkpt lat="43.036585" lon="-1.28995333">
        <ele>1315.0</ele>
        <time>2019-08-01T09:54:19.987Z</time>
      </trkpt>
      <trkpt lat="43.03659167" lon="-1.28993833">
        <ele>1315.0</ele>
        <time>2019-08-01T09:54:20.993Z</time>
      </trkpt>
      <trkpt lat="43.03659833" lon="-1.28992333">
        <ele>1315.0</ele>
        <time>2019-08-01T09:54:22.000Z</time>
      </trkpt>
      <trkpt lat="43.036605" lon="-1.28991167">
        <ele>1315.0</ele>
        <time>2019-08-01T09:54:23.006Z</time>
      </trkpt>
      <trkpt lat="43.03661" lon="-1.28989667">
        <ele>1315.0</ele>
        <time>2019-08-01T09:54:24.011Z</time>
      </trkpt>
      <trkpt lat="43.03661833" lon="-1.28988333">
        <ele>1315.0</ele>
        <time>2019-08-01T09:54:25.015Z</time>
      </trkpt>
      <trkpt lat="43.036625" lon="-1.28986667">
        <ele>1314.0</ele>
        <time>2019-08-01T09:54:26.020Z</time>
      </trkpt>
      <trkpt lat="43.03663" lon="-1.28985167">
        <ele>1314.0</ele>
        <time>2019-08-01T09:54:27.026Z</time>
      </trkpt>
      <trkpt lat="43.036635" lon="-1.28983833">
        <ele>1314.0</ele>
        <time>2019-08-01T09:54:28.030Z</time>
      </trkpt>
      <trkpt lat="43.03664" lon="-1.28982167">
        <ele>1314.0</ele>
        <time>2019-08-01T09:54:29.032Z</time>
      </trkpt>
      <trkpt lat="43.036645" lon="-1.28980667">
        <ele>1314.0</ele>
        <time>2019-08-01T09:54:30.036Z</time>
      </trkpt>
      <trkpt lat="43.03665167" lon="-1.28979333">
        <ele>1314.0</ele>
        <time>2019-08-01T09:54:31.042Z</time>
      </trkpt>
      <trkpt lat="43.03665667" lon="-1.28978">
        <ele>1314.0</ele>
        <time>2019-08-01T09:54:31.923Z</time>
      </trkpt>
      <trkpt lat="43.036665" lon="-1.28976333">
        <ele>1314.0</ele>
        <time>2019-08-01T09:54:32.928Z</time>
      </trkpt>
      <trkpt lat="43.03667" lon="-1.28974667">
        <ele>1313.0</ele>
        <time>2019-08-01T09:54:33.936Z</time>
      </trkpt>
      <trkpt lat="43.036675" lon="-1.28973167">
        <ele>1313.0</ele>
        <time>2019-08-01T09:54:34.941Z</time>
      </trkpt>
      <trkpt lat="43.03668" lon="-1.289715">
        <ele>1312.0</ele>
        <time>2019-08-01T09:54:35.946Z</time>
      </trkpt>
      <trkpt lat="43.036685" lon="-1.28969833">
        <ele>1313.0</ele>
        <time>2019-08-01T09:54:36.952Z</time>
      </trkpt>
      <trkpt lat="43.03669" lon="-1.28968167">
        <ele>1313.0</ele>
        <time>2019-08-01T09:54:37.958Z</time>
      </trkpt>
      <trkpt lat="43.03669333" lon="-1.28966667">
        <ele>1313.0</ele>
        <time>2019-08-01T09:54:38.965Z</time>
      </trkpt>
      <trkpt lat="43.0367" lon="-1.28965">
        <ele>1313.0</ele>
        <time>2019-08-01T09:54:39.971Z</time>
      </trkpt>
      <trkpt lat="43.03670667" lon="-1.28963333">
        <ele>1313.0</ele>
        <time>2019-08-01T09:54:40.977Z</time>
      </trkpt>
      <trkpt lat="43.03671167" lon="-1.28962">
        <ele>1313.0</ele>
        <time>2019-08-01T09:54:41.982Z</time>
      </trkpt>
      <trkpt lat="43.036715" lon="-1.28960667">
        <ele>1312.0</ele>
        <time>2019-08-01T09:54:42.990Z</time>
      </trkpt>
      <trkpt lat="43.03671833" lon="-1.28959167">
        <ele>1312.0</ele>
        <time>2019-08-01T09:54:43.997Z</time>
      </trkpt>
      <trkpt lat="43.03672" lon="-1.28957833">
        <ele>1311.0</ele>
        <time>2019-08-01T09:54:45.004Z</time>
      </trkpt>
      <trkpt lat="43.036725" lon="-1.28956167">
        <ele>1312.0</ele>
        <time>2019-08-01T09:54:46.010Z</time>
      </trkpt>
      <trkpt lat="43.03673167" lon="-1.28955">
        <ele>1312.0</ele>
        <time>2019-08-01T09:54:47.014Z</time>
      </trkpt>
      <trkpt lat="43.03673667" lon="-1.28953833">
        <ele>1312.0</ele>
        <time>2019-08-01T09:54:48.020Z</time>
      </trkpt>
      <trkpt lat="43.03673667" lon="-1.28952833">
        <ele>1312.0</ele>
        <time>2019-08-01T09:54:49.026Z</time>
      </trkpt>
      <trkpt lat="43.03674" lon="-1.289515">
        <ele>1312.0</ele>
        <time>2019-08-01T09:54:50.031Z</time>
      </trkpt>
      <trkpt lat="43.03674333" lon="-1.28950167">
        <ele>1313.0</ele>
        <time>2019-08-01T09:54:51.037Z</time>
      </trkpt>
      <trkpt lat="43.03674833" lon="-1.289485">
        <ele>1314.0</ele>
        <time>2019-08-01T09:54:51.919Z</time>
      </trkpt>
      <trkpt lat="43.03675333" lon="-1.28946833">
        <ele>1314.0</ele>
        <time>2019-08-01T09:54:52.925Z</time>
      </trkpt>
      <trkpt lat="43.03675667" lon="-1.289455">
        <ele>1315.0</ele>
        <time>2019-08-01T09:54:53.930Z</time>
      </trkpt>
      <trkpt lat="43.03676167" lon="-1.28943833">
        <ele>1315.0</ele>
        <time>2019-08-01T09:54:54.936Z</time>
      </trkpt>
      <trkpt lat="43.03676667" lon="-1.28942167">
        <ele>1315.0</ele>
        <time>2019-08-01T09:54:55.940Z</time>
      </trkpt>
      <trkpt lat="43.03677" lon="-1.289405">
        <ele>1315.0</ele>
        <time>2019-08-01T09:54:56.944Z</time>
      </trkpt>
      <trkpt lat="43.036775" lon="-1.28939">
        <ele>1316.0</ele>
        <time>2019-08-01T09:54:57.949Z</time>
      </trkpt>
      <trkpt lat="43.03678167" lon="-1.28937667">
        <ele>1316.0</ele>
        <time>2019-08-01T09:54:58.955Z</time>
      </trkpt>
      <trkpt lat="43.03678833" lon="-1.28936">
        <ele>1316.0</ele>
        <time>2019-08-01T09:54:59.961Z</time>
      </trkpt>
      <trkpt lat="43.03679167" lon="-1.289345">
        <ele>1317.0</ele>
        <time>2019-08-01T09:55:00.967Z</time>
      </trkpt>
      <trkpt lat="43.036795" lon="-1.28933">
        <ele>1317.0</ele>
        <time>2019-08-01T09:55:01.971Z</time>
      </trkpt>
      <trkpt lat="43.03680167" lon="-1.28931167">
        <ele>1317.0</ele>
        <time>2019-08-01T09:55:02.977Z</time>
      </trkpt>
      <trkpt lat="43.03680667" lon="-1.28929333">
        <ele>1317.0</ele>
        <time>2019-08-01T09:55:03.982Z</time>
      </trkpt>
      <trkpt lat="43.03681" lon="-1.28927833">
        <ele>1317.0</ele>
        <time>2019-08-01T09:55:04.990Z</time>
      </trkpt>
      <trkpt lat="43.036815" lon="-1.28926333">
        <ele>1317.0</ele>
        <time>2019-08-01T09:55:05.998Z</time>
      </trkpt>
      <trkpt lat="43.03681833" lon="-1.28925">
        <ele>1317.0</ele>
        <time>2019-08-01T09:55:07.004Z</time>
      </trkpt>
      <trkpt lat="43.03682333" lon="-1.28923">
        <ele>1316.0</ele>
        <time>2019-08-01T09:55:08.010Z</time>
      </trkpt>
      <trkpt lat="43.03683" lon="-1.28921333">
        <ele>1316.0</ele>
        <time>2019-08-01T09:55:09.016Z</time>
      </trkpt>
      <trkpt lat="43.03683833" lon="-1.28919667">
        <ele>1316.0</ele>
        <time>2019-08-01T09:55:10.023Z</time>
      </trkpt>
      <trkpt lat="43.03684667" lon="-1.28918">
        <ele>1316.0</ele>
        <time>2019-08-01T09:55:11.029Z</time>
      </trkpt>
      <trkpt lat="43.03685333" lon="-1.28916833">
        <ele>1316.0</ele>
        <time>2019-08-01T09:55:12.034Z</time>
      </trkpt>
      <trkpt lat="43.03685833" lon="-1.28915333">
        <ele>1316.0</ele>
        <time>2019-08-01T09:55:13.042Z</time>
      </trkpt>
      <trkpt lat="43.03686333" lon="-1.28914167">
        <ele>1316.0</ele>
        <time>2019-08-01T09:55:13.922Z</time>
      </trkpt>
      <trkpt lat="43.03687167" lon="-1.28912333">
        <ele>1316.0</ele>
        <time>2019-08-01T09:55:14.927Z</time>
      </trkpt>
      <trkpt lat="43.036875" lon="-1.28910833">
        <ele>1316.0</ele>
        <time>2019-08-01T09:55:15.933Z</time>
      </trkpt>
      <trkpt lat="43.03687833" lon="-1.28909333">
        <ele>1315.0</ele>
        <time>2019-08-01T09:55:16.938Z</time>
      </trkpt>
      <trkpt lat="43.03688333" lon="-1.28907667">
        <ele>1315.0</ele>
        <time>2019-08-01T09:55:17.944Z</time>
      </trkpt>
      <trkpt lat="43.03689333" lon="-1.28906167">
        <ele>1316.0</ele>
        <time>2019-08-01T09:55:18.949Z</time>
      </trkpt>
      <trkpt lat="43.0369" lon="-1.28904667">
        <ele>1316.0</ele>
        <time>2019-08-01T09:55:19.955Z</time>
      </trkpt>
      <trkpt lat="43.03690833" lon="-1.28903333">
        <ele>1315.0</ele>
        <time>2019-08-01T09:55:20.960Z</time>
      </trkpt>
      <trkpt lat="43.03691667" lon="-1.28901833">
        <ele>1315.0</ele>
        <time>2019-08-01T09:55:21.966Z</time>
      </trkpt>
      <trkpt lat="43.036925" lon="-1.289005">
        <ele>1315.0</ele>
        <time>2019-08-01T09:55:22.970Z</time>
      </trkpt>
      <trkpt lat="43.03693" lon="-1.28899333">
        <ele>1315.0</ele>
        <time>2019-08-01T09:55:23.975Z</time>
      </trkpt>
      <trkpt lat="43.036935" lon="-1.28898333">
        <ele>1315.0</ele>
        <time>2019-08-01T09:55:24.980Z</time>
      </trkpt>
      <trkpt lat="43.036945" lon="-1.28896667">
        <ele>1315.0</ele>
        <time>2019-08-01T09:55:25.987Z</time>
      </trkpt>
      <trkpt lat="43.03695333" lon="-1.28895333">
        <ele>1315.0</ele>
        <time>2019-08-01T09:55:26.994Z</time>
      </trkpt>
      <trkpt lat="43.03696" lon="-1.28894167">
        <ele>1315.0</ele>
        <time>2019-08-01T09:55:28.002Z</time>
      </trkpt>
      <trkpt lat="43.03696667" lon="-1.28892833">
        <ele>1314.0</ele>
        <time>2019-08-01T09:55:29.007Z</time>
      </trkpt>
      <trkpt lat="43.03697333" lon="-1.288915">
        <ele>1315.0</ele>
        <time>2019-08-01T09:55:30.012Z</time>
      </trkpt>
      <trkpt lat="43.03697833" lon="-1.28890833">
        <ele>1315.0</ele>
        <time>2019-08-01T09:55:31.017Z</time>
      </trkpt>
      <trkpt lat="43.03698667" lon="-1.28889667">
        <ele>1316.0</ele>
        <time>2019-08-01T09:55:32.023Z</time>
      </trkpt>
      <trkpt lat="43.036995" lon="-1.288885">
        <ele>1315.0</ele>
        <time>2019-08-01T09:55:33.030Z</time>
      </trkpt>
      <trkpt lat="43.03700167" lon="-1.288875">
        <ele>1315.0</ele>
        <time>2019-08-01T09:55:34.037Z</time>
      </trkpt>
      <trkpt lat="43.03701" lon="-1.288865">
        <ele>1315.0</ele>
        <time>2019-08-01T09:55:35.042Z</time>
      </trkpt>
      <trkpt lat="43.03701833" lon="-1.288855">
        <ele>1315.0</ele>
        <time>2019-08-01T09:55:35.922Z</time>
      </trkpt>
      <trkpt lat="43.03702667" lon="-1.288845">
        <ele>1315.0</ele>
        <time>2019-08-01T09:55:36.928Z</time>
      </trkpt>
      <trkpt lat="43.03703167" lon="-1.288835">
        <ele>1315.0</ele>
        <time>2019-08-01T09:55:37.935Z</time>
      </trkpt>
      <trkpt lat="43.03704167" lon="-1.288825">
        <ele>1316.0</ele>
        <time>2019-08-01T09:55:38.937Z</time>
      </trkpt>
      <trkpt lat="43.03705" lon="-1.28881667">
        <ele>1316.0</ele>
        <time>2019-08-01T09:55:39.944Z</time>
      </trkpt>
      <trkpt lat="43.03705833" lon="-1.28880667">
        <ele>1316.0</ele>
        <time>2019-08-01T09:55:40.951Z</time>
      </trkpt>
      <trkpt lat="43.03707" lon="-1.28880333">
        <ele>1316.0</ele>
        <time>2019-08-01T09:55:41.957Z</time>
      </trkpt>
      <trkpt lat="43.03708" lon="-1.28879833">
        <ele>1316.0</ele>
        <time>2019-08-01T09:55:42.960Z</time>
      </trkpt>
      <trkpt lat="43.03708833" lon="-1.288795">
        <ele>1316.0</ele>
        <time>2019-08-01T09:55:43.964Z</time>
      </trkpt>
      <trkpt lat="43.03709833" lon="-1.28878667">
        <ele>1316.0</ele>
        <time>2019-08-01T09:55:44.969Z</time>
      </trkpt>
      <trkpt lat="43.037105" lon="-1.28877667">
        <ele>1316.0</ele>
        <time>2019-08-01T09:55:45.974Z</time>
      </trkpt>
      <trkpt lat="43.03711667" lon="-1.28877">
        <ele>1315.0</ele>
        <time>2019-08-01T09:55:46.982Z</time>
      </trkpt>
      <trkpt lat="43.03712333" lon="-1.28876167">
        <ele>1316.0</ele>
        <time>2019-08-01T09:55:47.989Z</time>
      </trkpt>
      <trkpt lat="43.03713833" lon="-1.288755">
        <ele>1316.0</ele>
        <time>2019-08-01T09:55:48.997Z</time>
      </trkpt>
      <trkpt lat="43.03714833" lon="-1.28875333">
        <ele>1316.0</ele>
        <time>2019-08-01T09:55:50.005Z</time>
      </trkpt>
      <trkpt lat="43.03715833" lon="-1.28875167">
        <ele>1316.0</ele>
        <time>2019-08-01T09:55:51.011Z</time>
      </trkpt>
      <trkpt lat="43.03716667" lon="-1.28875">
        <ele>1316.0</ele>
        <time>2019-08-01T09:55:52.014Z</time>
      </trkpt>
      <trkpt lat="43.03717667" lon="-1.28874833">
        <ele>1316.0</ele>
        <time>2019-08-01T09:55:53.020Z</time>
      </trkpt>
      <trkpt lat="43.03718667" lon="-1.288745">
        <ele>1315.0</ele>
        <time>2019-08-01T09:55:54.027Z</time>
      </trkpt>
      <trkpt lat="43.03719833" lon="-1.28874167">
        <ele>1314.0</ele>
        <time>2019-08-01T09:55:55.034Z</time>
      </trkpt>
      <trkpt lat="43.03721" lon="-1.288735">
        <ele>1314.0</ele>
        <time>2019-08-01T09:55:56.039Z</time>
      </trkpt>
      <trkpt lat="43.03722167" lon="-1.28873">
        <ele>1315.0</ele>
        <time>2019-08-01T09:55:56.920Z</time>
      </trkpt>
      <trkpt lat="43.03723333" lon="-1.28872333">
        <ele>1315.0</ele>
        <time>2019-08-01T09:55:57.928Z</time>
      </trkpt>
      <trkpt lat="43.037245" lon="-1.28871833">
        <ele>1315.0</ele>
        <time>2019-08-01T09:55:58.934Z</time>
      </trkpt>
      <trkpt lat="43.03725167" lon="-1.288715">
        <ele>1315.0</ele>
        <time>2019-08-01T09:55:59.938Z</time>
      </trkpt>
      <trkpt lat="43.03726167" lon="-1.28870833">
        <ele>1314.0</ele>
        <time>2019-08-01T09:56:00.945Z</time>
      </trkpt>
      <trkpt lat="43.03727" lon="-1.28870333">
        <ele>1314.0</ele>
        <time>2019-08-01T09:56:01.951Z</time>
      </trkpt>
      <trkpt lat="43.03728167" lon="-1.288695">
        <ele>1314.0</ele>
        <time>2019-08-01T09:56:02.956Z</time>
      </trkpt>
      <trkpt lat="43.03729333" lon="-1.28869333">
        <ele>1313.0</ele>
        <time>2019-08-01T09:56:03.960Z</time>
      </trkpt>
      <trkpt lat="43.03730333" lon="-1.28869333">
        <ele>1313.0</ele>
        <time>2019-08-01T09:56:04.967Z</time>
      </trkpt>
      <trkpt lat="43.03731333" lon="-1.28869333">
        <ele>1313.0</ele>
        <time>2019-08-01T09:56:05.973Z</time>
      </trkpt>
      <trkpt lat="43.03732333" lon="-1.28869167">
        <ele>1313.0</ele>
        <time>2019-08-01T09:56:06.978Z</time>
      </trkpt>
      <trkpt lat="43.03733167" lon="-1.288685">
        <ele>1312.0</ele>
        <time>2019-08-01T09:56:07.983Z</time>
      </trkpt>
      <trkpt lat="43.03733667" lon="-1.288675">
        <ele>1312.0</ele>
        <time>2019-08-01T09:56:08.988Z</time>
      </trkpt>
      <trkpt lat="43.03733833" lon="-1.28866833">
        <ele>1312.0</ele>
        <time>2019-08-01T09:56:09.995Z</time>
      </trkpt>
      <trkpt lat="43.03734333" lon="-1.28865833">
        <ele>1312.0</ele>
        <time>2019-08-01T09:56:11.001Z</time>
      </trkpt>
      <trkpt lat="43.03734667" lon="-1.28865167">
        <ele>1312.0</ele>
        <time>2019-08-01T09:56:12.006Z</time>
      </trkpt>
      <trkpt lat="43.03735" lon="-1.28864833">
        <ele>1312.0</ele>
        <time>2019-08-01T09:56:13.010Z</time>
      </trkpt>
      <trkpt lat="43.03734833" lon="-1.288645">
        <ele>1312.0</ele>
        <time>2019-08-01T09:56:14.014Z</time>
      </trkpt>
      <trkpt lat="43.03734667" lon="-1.28864333">
        <ele>1312.0</ele>
        <time>2019-08-01T09:56:15.020Z</time>
      </trkpt>
      <trkpt lat="43.03734667" lon="-1.28863833">
        <ele>1313.0</ele>
        <time>2019-08-01T09:56:16.025Z</time>
      </trkpt>
      <trkpt lat="43.03734833" lon="-1.28863667">
        <ele>1314.0</ele>
        <time>2019-08-01T09:56:17.032Z</time>
      </trkpt>
      <trkpt lat="43.03734833" lon="-1.288635">
        <ele>1315.0</ele>
        <time>2019-08-01T09:56:18.037Z</time>
      </trkpt>
      <trkpt lat="43.03734667" lon="-1.28863667">
        <ele>1315.0</ele>
        <time>2019-08-01T09:56:19.042Z</time>
      </trkpt>
      <trkpt lat="43.03734833" lon="-1.28863667">
        <ele>1316.0</ele>
        <time>2019-08-01T09:56:19.920Z</time>
      </trkpt>
      <trkpt lat="43.03734667" lon="-1.288635">
        <ele>1316.0</ele>
        <time>2019-08-01T09:56:20.924Z</time>
      </trkpt>
      <trkpt lat="43.03734333" lon="-1.28863333">
        <ele>1317.0</ele>
        <time>2019-08-01T09:56:21.931Z</time>
      </trkpt>
      <trkpt lat="43.03734" lon="-1.28863167">
        <ele>1317.0</ele>
        <time>2019-08-01T09:56:22.937Z</time>
      </trkpt>
      <trkpt lat="43.03734" lon="-1.28863167">
        <ele>1317.0</ele>
        <time>2019-08-01T09:56:23.941Z</time>
      </trkpt>
      <trkpt lat="43.03734167" lon="-1.28863167">
        <ele>1317.0</ele>
        <time>2019-08-01T09:56:24.948Z</time>
      </trkpt>
      <trkpt lat="43.03734167" lon="-1.28863333">
        <ele>1317.0</ele>
        <time>2019-08-01T09:56:25.955Z</time>
      </trkpt>
      <trkpt lat="43.037345" lon="-1.28863">
        <ele>1316.0</ele>
        <time>2019-08-01T09:56:26.961Z</time>
      </trkpt>
      <trkpt lat="43.03734667" lon="-1.28863">
        <ele>1317.0</ele>
        <time>2019-08-01T09:56:27.966Z</time>
      </trkpt>
      <trkpt lat="43.03734" lon="-1.28863333">
        <ele>1317.0</ele>
        <time>2019-08-01T09:56:28.970Z</time>
      </trkpt>
      <trkpt lat="43.03734" lon="-1.288635">
        <ele>1317.0</ele>
        <time>2019-08-01T09:56:29.975Z</time>
      </trkpt>
      <trkpt lat="43.03733833" lon="-1.28863667">
        <ele>1317.0</ele>
        <time>2019-08-01T09:56:30.980Z</time>
      </trkpt>
      <trkpt lat="43.03733833" lon="-1.28863667">
        <ele>1317.0</ele>
        <time>2019-08-01T09:56:31.987Z</time>
      </trkpt>
      <trkpt lat="43.03734167" lon="-1.28863667">
        <ele>1317.0</ele>
        <time>2019-08-01T09:56:32.997Z</time>
      </trkpt>
      <trkpt lat="43.03734167" lon="-1.288635">
        <ele>1317.0</ele>
        <time>2019-08-01T09:56:34.004Z</time>
      </trkpt>
      <trkpt lat="43.03734333" lon="-1.28863833">
        <ele>1317.0</ele>
        <time>2019-08-01T09:56:35.010Z</time>
      </trkpt>
      <trkpt lat="43.037345" lon="-1.28864">
        <ele>1317.0</ele>
        <time>2019-08-01T09:56:36.014Z</time>
      </trkpt>
      <trkpt lat="43.037345" lon="-1.28864167">
        <ele>1317.0</ele>
        <time>2019-08-01T09:56:37.018Z</time>
      </trkpt>
      <trkpt lat="43.03734" lon="-1.288645">
        <ele>1317.0</ele>
        <time>2019-08-01T09:56:38.023Z</time>
      </trkpt>
      <trkpt lat="43.03733833" lon="-1.28864667">
        <ele>1317.0</ele>
        <time>2019-08-01T09:56:39.030Z</time>
      </trkpt>
      <trkpt lat="43.03734167" lon="-1.288645">
        <ele>1317.0</ele>
        <time>2019-08-01T09:56:40.036Z</time>
      </trkpt>
      <trkpt lat="43.03734333" lon="-1.288645">
        <ele>1317.0</ele>
        <time>2019-08-01T09:56:41.044Z</time>
      </trkpt>
      <trkpt lat="43.037345" lon="-1.28864333">
        <ele>1318.0</ele>
        <time>2019-08-01T09:56:41.922Z</time>
      </trkpt>
      <trkpt lat="43.03734333" lon="-1.28864">
        <ele>1318.0</ele>
        <time>2019-08-01T09:56:42.928Z</time>
      </trkpt>
      <trkpt lat="43.03734167" lon="-1.28864">
        <ele>1317.0</ele>
        <time>2019-08-01T09:56:43.932Z</time>
      </trkpt>
      <trkpt lat="43.03734167" lon="-1.28864">
        <ele>1317.0</ele>
        <time>2019-08-01T09:56:44.939Z</time>
      </trkpt>
      <trkpt lat="43.03734667" lon="-1.28863667">
        <ele>1318.0</ele>
        <time>2019-08-01T09:56:45.946Z</time>
      </trkpt>
      <trkpt lat="43.03734833" lon="-1.28864">
        <ele>1318.0</ele>
        <time>2019-08-01T09:56:46.953Z</time>
      </trkpt>
      <trkpt lat="43.03735" lon="-1.28864333">
        <ele>1318.0</ele>
        <time>2019-08-01T09:56:47.959Z</time>
      </trkpt>
      <trkpt lat="43.03734667" lon="-1.28864333">
        <ele>1318.0</ele>
        <time>2019-08-01T09:56:48.965Z</time>
      </trkpt>
      <trkpt lat="43.037345" lon="-1.28864333">
        <ele>1318.0</ele>
        <time>2019-08-01T09:56:49.970Z</time>
      </trkpt>
      <trkpt lat="43.03734333" lon="-1.28864333">
        <ele>1318.0</ele>
        <time>2019-08-01T09:56:50.977Z</time>
      </trkpt>
      <trkpt lat="43.03734" lon="-1.28864833">
        <ele>1318.0</ele>
        <time>2019-08-01T09:56:51.983Z</time>
      </trkpt>
      <trkpt lat="43.03734167" lon="-1.28864833">
        <ele>1318.0</ele>
        <time>2019-08-01T09:56:52.990Z</time>
      </trkpt>
      <trkpt lat="43.03734167" lon="-1.28864833">
        <ele>1317.0</ele>
        <time>2019-08-01T09:56:53.995Z</time>
      </trkpt>
      <trkpt lat="43.03734333" lon="-1.28864833">
        <ele>1317.0</ele>
        <time>2019-08-01T09:56:55.001Z</time>
      </trkpt>
      <trkpt lat="43.03734333" lon="-1.28864833">
        <ele>1318.0</ele>
        <time>2019-08-01T09:56:56.009Z</time>
      </trkpt>
      <trkpt lat="43.037345" lon="-1.28865">
        <ele>1318.0</ele>
        <time>2019-08-01T09:56:57.012Z</time>
      </trkpt>
      <trkpt lat="43.03734833" lon="-1.28864667">
        <ele>1319.0</ele>
        <time>2019-08-01T09:56:58.017Z</time>
      </trkpt>
      <trkpt lat="43.03734667" lon="-1.288645">
        <ele>1319.0</ele>
        <time>2019-08-01T09:56:59.021Z</time>
      </trkpt>
      <trkpt lat="43.03734667" lon="-1.28864333">
        <ele>1319.0</ele>
        <time>2019-08-01T09:57:00.027Z</time>
      </trkpt>
      <trkpt lat="43.03734667" lon="-1.28864167">
        <ele>1319.0</ele>
        <time>2019-08-01T09:57:01.031Z</time>
      </trkpt>
      <trkpt lat="43.03734667" lon="-1.28864333">
        <ele>1318.0</ele>
        <time>2019-08-01T09:57:02.036Z</time>
      </trkpt>
      <trkpt lat="43.03735" lon="-1.28864167">
        <ele>1318.0</ele>
        <time>2019-08-01T09:57:03.043Z</time>
      </trkpt>
      <trkpt lat="43.03734833" lon="-1.28864167">
        <ele>1317.0</ele>
        <time>2019-08-01T09:57:03.922Z</time>
      </trkpt>
      <trkpt lat="43.03735" lon="-1.28864167">
        <ele>1317.0</ele>
        <time>2019-08-01T09:57:04.927Z</time>
      </trkpt>
      <trkpt lat="43.03735" lon="-1.28864167">
        <ele>1318.0</ele>
        <time>2019-08-01T09:57:05.931Z</time>
      </trkpt>
      <trkpt lat="43.03734667" lon="-1.28864167">
        <ele>1318.0</ele>
        <time>2019-08-01T09:57:06.937Z</time>
      </trkpt>
      <trkpt lat="43.037345" lon="-1.28864333">
        <ele>1318.0</ele>
        <time>2019-08-01T09:57:07.944Z</time>
      </trkpt>
      <trkpt lat="43.037345" lon="-1.28864167">
        <ele>1318.0</ele>
        <time>2019-08-01T09:57:08.951Z</time>
      </trkpt>
      <trkpt lat="43.03734667" lon="-1.28864167">
        <ele>1318.0</ele>
        <time>2019-08-01T09:57:09.954Z</time>
      </trkpt>
      <trkpt lat="43.03734833" lon="-1.28864">
        <ele>1318.0</ele>
        <time>2019-08-01T09:57:10.956Z</time>
      </trkpt>
      <trkpt lat="43.03735" lon="-1.28864">
        <ele>1318.0</ele>
        <time>2019-08-01T09:57:11.960Z</time>
      </trkpt>
      <trkpt lat="43.03734833" lon="-1.288645">
        <ele>1317.0</ele>
        <time>2019-08-01T09:57:12.964Z</time>
      </trkpt>
      <trkpt lat="43.03735" lon="-1.28864667">
        <ele>1317.0</ele>
        <time>2019-08-01T09:57:13.965Z</time>
      </trkpt>
      <trkpt lat="43.03735333" lon="-1.28864167">
        <ele>1317.0</ele>
        <time>2019-08-01T09:57:14.972Z</time>
      </trkpt>
      <trkpt lat="43.037355" lon="-1.28864">
        <ele>1317.0</ele>
        <time>2019-08-01T09:57:15.977Z</time>
      </trkpt>
      <trkpt lat="43.037355" lon="-1.28864167">
        <ele>1317.0</ele>
        <time>2019-08-01T09:57:16.983Z</time>
      </trkpt>
      <trkpt lat="43.037355" lon="-1.28864833">
        <ele>1316.0</ele>
        <time>2019-08-01T09:57:17.989Z</time>
      </trkpt>
      <trkpt lat="43.03735333" lon="-1.28865">
        <ele>1316.0</ele>
        <time>2019-08-01T09:57:18.997Z</time>
      </trkpt>
      <trkpt lat="43.03735333" lon="-1.28865167">
        <ele>1316.0</ele>
        <time>2019-08-01T09:57:20.001Z</time>
      </trkpt>
      <trkpt lat="43.03735" lon="-1.28864667">
        <ele>1315.0</ele>
        <time>2019-08-01T09:57:21.007Z</time>
      </trkpt>
      <trkpt lat="43.03734833" lon="-1.288645">
        <ele>1315.0</ele>
        <time>2019-08-01T09:57:22.012Z</time>
      </trkpt>
      <trkpt lat="43.037345" lon="-1.28864167">
        <ele>1315.0</ele>
        <time>2019-08-01T09:57:23.017Z</time>
      </trkpt>
      <trkpt lat="43.03734333" lon="-1.28864">
        <ele>1314.0</ele>
        <time>2019-08-01T09:57:24.023Z</time>
      </trkpt>
      <trkpt lat="43.037345" lon="-1.28863833">
        <ele>1314.0</ele>
        <time>2019-08-01T09:57:25.029Z</time>
      </trkpt>
      <trkpt lat="43.03734667" lon="-1.288635">
        <ele>1315.0</ele>
        <time>2019-08-01T09:57:26.034Z</time>
      </trkpt>
      <trkpt lat="43.03734833" lon="-1.28863333">
        <ele>1315.0</ele>
        <time>2019-08-01T09:57:27.041Z</time>
      </trkpt>
      <trkpt lat="43.03735167" lon="-1.28863333">
        <ele>1315.0</ele>
        <time>2019-08-01T09:57:27.920Z</time>
      </trkpt>
      <trkpt lat="43.03735167" lon="-1.28863167">
        <ele>1315.0</ele>
        <time>2019-08-01T09:57:28.926Z</time>
      </trkpt>
      <trkpt lat="43.03735" lon="-1.28863">
        <ele>1315.0</ele>
        <time>2019-08-01T09:57:29.930Z</time>
      </trkpt>
      <trkpt lat="43.03735" lon="-1.28862833">
        <ele>1315.0</ele>
        <time>2019-08-01T09:57:30.936Z</time>
      </trkpt>
      <trkpt lat="43.03734833" lon="-1.288625">
        <ele>1315.0</ele>
        <time>2019-08-01T09:57:31.940Z</time>
      </trkpt>
      <trkpt lat="43.03735" lon="-1.28862333">
        <ele>1315.0</ele>
        <time>2019-08-01T09:57:32.946Z</time>
      </trkpt>
      <trkpt lat="43.03734833" lon="-1.28862667">
        <ele>1315.0</ele>
        <time>2019-08-01T09:57:33.950Z</time>
      </trkpt>
      <trkpt lat="43.03734667" lon="-1.28863167">
        <ele>1315.0</ele>
        <time>2019-08-01T09:57:34.955Z</time>
      </trkpt>
      <trkpt lat="43.03734833" lon="-1.28863167">
        <ele>1315.0</ele>
        <time>2019-08-01T09:57:35.961Z</time>
      </trkpt>
      <trkpt lat="43.03735333" lon="-1.28863333">
        <ele>1315.0</ele>
        <time>2019-08-01T09:57:36.966Z</time>
      </trkpt>
      <trkpt lat="43.03735833" lon="-1.28863167">
        <ele>1315.0</ele>
        <time>2019-08-01T09:57:37.972Z</time>
      </trkpt>
      <trkpt lat="43.03735833" lon="-1.28862833">
        <ele>1315.0</ele>
        <time>2019-08-01T09:57:38.976Z</time>
      </trkpt>
      <trkpt lat="43.03735667" lon="-1.28862833">
        <ele>1315.0</ele>
        <time>2019-08-01T09:57:39.983Z</time>
      </trkpt>
      <trkpt lat="43.03735667" lon="-1.28863167">
        <ele>1315.0</ele>
        <time>2019-08-01T09:57:40.989Z</time>
      </trkpt>
      <trkpt lat="43.037355" lon="-1.28863833">
        <ele>1315.0</ele>
        <time>2019-08-01T09:57:41.994Z</time>
      </trkpt>
      <trkpt lat="43.03735167" lon="-1.28864167">
        <ele>1315.0</ele>
        <time>2019-08-01T09:57:43.003Z</time>
      </trkpt>
      <trkpt lat="43.03734833" lon="-1.28864333">
        <ele>1314.0</ele>
        <time>2019-08-01T09:57:44.010Z</time>
      </trkpt>
      <trkpt lat="43.037345" lon="-1.28864667">
        <ele>1314.0</ele>
        <time>2019-08-01T09:57:45.015Z</time>
      </trkpt>
      <trkpt lat="43.03734333" lon="-1.288645">
        <ele>1313.0</ele>
        <time>2019-08-01T09:57:46.020Z</time>
      </trkpt>
      <trkpt lat="43.037345" lon="-1.288645">
        <ele>1313.0</ele>
        <time>2019-08-01T09:57:47.026Z</time>
      </trkpt>
      <trkpt lat="43.03734" lon="-1.28864333">
        <ele>1314.0</ele>
        <time>2019-08-01T09:57:48.033Z</time>
      </trkpt>
      <trkpt lat="43.037335" lon="-1.28864167">
        <ele>1314.0</ele>
        <time>2019-08-01T09:57:49.039Z</time>
      </trkpt>
      <trkpt lat="43.03733" lon="-1.28864">
        <ele>1314.0</ele>
        <time>2019-08-01T09:57:49.919Z</time>
      </trkpt>
      <trkpt lat="43.03732833" lon="-1.28864333">
        <ele>1313.0</ele>
        <time>2019-08-01T09:57:50.923Z</time>
      </trkpt>
      <trkpt lat="43.03733" lon="-1.28864333">
        <ele>1313.0</ele>
        <time>2019-08-01T09:57:51.928Z</time>
      </trkpt>
      <trkpt lat="43.03733333" lon="-1.288645">
        <ele>1313.0</ele>
        <time>2019-08-01T09:57:52.930Z</time>
      </trkpt>
      <trkpt lat="43.03733667" lon="-1.288645">
        <ele>1313.0</ele>
        <time>2019-08-01T09:57:53.936Z</time>
      </trkpt>
      <trkpt lat="43.03733667" lon="-1.28864333">
        <ele>1312.0</ele>
        <time>2019-08-01T09:57:54.941Z</time>
      </trkpt>
      <trkpt lat="43.03733333" lon="-1.28864167">
        <ele>1312.0</ele>
        <time>2019-08-01T09:57:55.948Z</time>
      </trkpt>
      <trkpt lat="43.03733" lon="-1.28864167">
        <ele>1313.0</ele>
        <time>2019-08-01T09:57:56.953Z</time>
      </trkpt>
      <trkpt lat="43.03733167" lon="-1.28864333">
        <ele>1313.0</ele>
        <time>2019-08-01T09:57:57.958Z</time>
      </trkpt>
      <trkpt lat="43.03733167" lon="-1.28864333">
        <ele>1312.0</ele>
        <time>2019-08-01T09:57:58.963Z</time>
      </trkpt>
      <trkpt lat="43.03733" lon="-1.28864333">
        <ele>1313.0</ele>
        <time>2019-08-01T09:57:59.969Z</time>
      </trkpt>
      <trkpt lat="43.03732667" lon="-1.28864333">
        <ele>1313.0</ele>
        <time>2019-08-01T09:58:00.974Z</time>
      </trkpt>
      <trkpt lat="43.03732333" lon="-1.288645">
        <ele>1313.0</ele>
        <time>2019-08-01T09:58:01.981Z</time>
      </trkpt>
      <trkpt lat="43.03732" lon="-1.28865333">
        <ele>1312.0</ele>
        <time>2019-08-01T09:58:02.989Z</time>
      </trkpt>
      <trkpt lat="43.037315" lon="-1.288655">
        <ele>1311.0</ele>
        <time>2019-08-01T09:58:03.996Z</time>
      </trkpt>
      <trkpt lat="43.03731167" lon="-1.28865">
        <ele>1311.0</ele>
        <time>2019-08-01T09:58:05.001Z</time>
      </trkpt>
      <trkpt lat="43.03731" lon="-1.28864667">
        <ele>1310.0</ele>
        <time>2019-08-01T09:58:06.009Z</time>
      </trkpt>
      <trkpt lat="43.03730833" lon="-1.28864333">
        <ele>1310.0</ele>
        <time>2019-08-01T09:58:07.015Z</time>
      </trkpt>
      <trkpt lat="43.03730667" lon="-1.28864167">
        <ele>1310.0</ele>
        <time>2019-08-01T09:58:08.020Z</time>
      </trkpt>
      <trkpt lat="43.03730667" lon="-1.28864">
        <ele>1310.0</ele>
        <time>2019-08-01T09:58:09.027Z</time>
      </trkpt>
      <trkpt lat="43.037305" lon="-1.28863833">
        <ele>1310.0</ele>
        <time>2019-08-01T09:58:10.031Z</time>
      </trkpt>
      <trkpt lat="43.03730333" lon="-1.28864">
        <ele>1311.0</ele>
        <time>2019-08-01T09:58:11.038Z</time>
      </trkpt>
      <trkpt lat="43.037305" lon="-1.28864167">
        <ele>1311.0</ele>
        <time>2019-08-01T09:58:11.919Z</time>
      </trkpt>
      <trkpt lat="43.03730833" lon="-1.28864333">
        <ele>1312.0</ele>
        <time>2019-08-01T09:58:12.926Z</time>
      </trkpt>
      <trkpt lat="43.03731167" lon="-1.28864667">
        <ele>1312.0</ele>
        <time>2019-08-01T09:58:13.932Z</time>
      </trkpt>
      <trkpt lat="43.03731667" lon="-1.28864833">
        <ele>1312.0</ele>
        <time>2019-08-01T09:58:14.938Z</time>
      </trkpt>
      <trkpt lat="43.03731833" lon="-1.28864667">
        <ele>1312.0</ele>
        <time>2019-08-01T09:58:15.945Z</time>
      </trkpt>
      <trkpt lat="43.03731833" lon="-1.288645">
        <ele>1313.0</ele>
        <time>2019-08-01T09:58:16.949Z</time>
      </trkpt>
      <trkpt lat="43.03732" lon="-1.28864667">
        <ele>1313.0</ele>
        <time>2019-08-01T09:58:17.955Z</time>
      </trkpt>
      <trkpt lat="43.03731833" lon="-1.28865">
        <ele>1313.0</ele>
        <time>2019-08-01T09:58:18.959Z</time>
      </trkpt>
      <trkpt lat="43.03731333" lon="-1.28865333">
        <ele>1312.0</ele>
        <time>2019-08-01T09:58:19.963Z</time>
      </trkpt>
      <trkpt lat="43.03731" lon="-1.288655">
        <ele>1312.0</ele>
        <time>2019-08-01T09:58:20.968Z</time>
      </trkpt>
      <trkpt lat="43.03730833" lon="-1.28865333">
        <ele>1311.0</ele>
        <time>2019-08-01T09:58:21.973Z</time>
      </trkpt>
      <trkpt lat="43.03731" lon="-1.28865">
        <ele>1311.0</ele>
        <time>2019-08-01T09:58:22.978Z</time>
      </trkpt>
      <trkpt lat="43.037305" lon="-1.28865333">
        <ele>1311.0</ele>
        <time>2019-08-01T09:58:23.985Z</time>
      </trkpt>
      <trkpt lat="43.037305" lon="-1.28865667">
        <ele>1311.0</ele>
        <time>2019-08-01T09:58:24.992Z</time>
      </trkpt>
      <trkpt lat="43.03730333" lon="-1.28866">
        <ele>1312.0</ele>
        <time>2019-08-01T09:58:26.000Z</time>
      </trkpt>
      <trkpt lat="43.0373" lon="-1.28866167">
        <ele>1312.0</ele>
        <time>2019-08-01T09:58:27.007Z</time>
      </trkpt>
      <trkpt lat="43.03729833" lon="-1.28865667">
        <ele>1313.0</ele>
        <time>2019-08-01T09:58:28.009Z</time>
      </trkpt>
      <trkpt lat="43.0373" lon="-1.288655">
        <ele>1314.0</ele>
        <time>2019-08-01T09:58:29.012Z</time>
      </trkpt>
      <trkpt lat="43.03730333" lon="-1.28865667">
        <ele>1314.0</ele>
        <time>2019-08-01T09:58:30.019Z</time>
      </trkpt>
      <trkpt lat="43.03730333" lon="-1.288655">
        <ele>1315.0</ele>
        <time>2019-08-01T09:58:31.023Z</time>
      </trkpt>
      <trkpt lat="43.037305" lon="-1.28865333">
        <ele>1315.0</ele>
        <time>2019-08-01T09:58:32.028Z</time>
      </trkpt>
      <trkpt lat="43.03730333" lon="-1.28865333">
        <ele>1315.0</ele>
        <time>2019-08-01T09:58:33.035Z</time>
      </trkpt>
      <trkpt lat="43.03730833" lon="-1.288655">
        <ele>1315.0</ele>
        <time>2019-08-01T09:58:34.042Z</time>
      </trkpt>
      <trkpt lat="43.03731167" lon="-1.28865333">
        <ele>1316.0</ele>
        <time>2019-08-01T09:58:34.924Z</time>
      </trkpt>
      <trkpt lat="43.03731167" lon="-1.28865333">
        <ele>1316.0</ele>
        <time>2019-08-01T09:58:35.929Z</time>
      </trkpt>
      <trkpt lat="43.03731333" lon="-1.28865">
        <ele>1316.0</ele>
        <time>2019-08-01T09:58:36.935Z</time>
      </trkpt>
      <trkpt lat="43.03731667" lon="-1.28865">
        <ele>1316.0</ele>
        <time>2019-08-01T09:58:37.942Z</time>
      </trkpt>
      <trkpt lat="43.03732" lon="-1.28865">
        <ele>1316.0</ele>
        <time>2019-08-01T09:58:38.949Z</time>
      </trkpt>
      <trkpt lat="43.03732" lon="-1.28865333">
        <ele>1315.0</ele>
        <time>2019-08-01T09:58:39.955Z</time>
      </trkpt>
      <trkpt lat="43.03732333" lon="-1.28865333">
        <ele>1315.0</ele>
        <time>2019-08-01T09:58:40.961Z</time>
      </trkpt>
      <trkpt lat="43.037325" lon="-1.28865">
        <ele>1315.0</ele>
        <time>2019-08-01T09:58:41.966Z</time>
      </trkpt>
      <trkpt lat="43.03732667" lon="-1.28864667">
        <ele>1315.0</ele>
        <time>2019-08-01T09:58:42.971Z</time>
      </trkpt>
      <trkpt lat="43.037325" lon="-1.28864333">
        <ele>1316.0</ele>
        <time>2019-08-01T09:58:43.975Z</time>
      </trkpt>
      <trkpt lat="43.03732333" lon="-1.28864333">
        <ele>1316.0</ele>
        <time>2019-08-01T09:58:44.983Z</time>
      </trkpt>
      <trkpt lat="43.03732167" lon="-1.288645">
        <ele>1317.0</ele>
        <time>2019-08-01T09:58:45.988Z</time>
      </trkpt>
      <trkpt lat="43.03732" lon="-1.28864167">
        <ele>1317.0</ele>
        <time>2019-08-01T09:58:46.994Z</time>
      </trkpt>
      <trkpt lat="43.03731833" lon="-1.28863833">
        <ele>1317.0</ele>
        <time>2019-08-01T09:58:47.999Z</time>
      </trkpt>
      <trkpt lat="43.03731167" lon="-1.28863833">
        <ele>1317.0</ele>
        <time>2019-08-01T09:58:49.007Z</time>
      </trkpt>
      <trkpt lat="43.03730833" lon="-1.28864">
        <ele>1317.0</ele>
        <time>2019-08-01T09:58:50.011Z</time>
      </trkpt>
      <trkpt lat="43.03730667" lon="-1.28864167">
        <ele>1317.0</ele>
        <time>2019-08-01T09:58:51.017Z</time>
      </trkpt>
      <trkpt lat="43.03730667" lon="-1.28864167">
        <ele>1316.0</ele>
        <time>2019-08-01T09:58:52.023Z</time>
      </trkpt>
      <trkpt lat="43.037305" lon="-1.28864167">
        <ele>1315.0</ele>
        <time>2019-08-01T09:58:53.029Z</time>
      </trkpt>
      <trkpt lat="43.03730333" lon="-1.28864333">
        <ele>1315.0</ele>
        <time>2019-08-01T09:58:54.035Z</time>
      </trkpt>
      <trkpt lat="43.03730167" lon="-1.28864667">
        <ele>1316.0</ele>
        <time>2019-08-01T09:58:55.042Z</time>
      </trkpt>
      <trkpt lat="43.03730333" lon="-1.28864833">
        <ele>1316.0</ele>
        <time>2019-08-01T09:58:55.923Z</time>
      </trkpt>
      <trkpt lat="43.03729833" lon="-1.28865">
        <ele>1317.0</ele>
        <time>2019-08-01T09:58:56.930Z</time>
      </trkpt>
      <trkpt lat="43.037295" lon="-1.28865">
        <ele>1317.0</ele>
        <time>2019-08-01T09:58:57.937Z</time>
      </trkpt>
      <trkpt lat="43.03726" lon="-1.28873167">
        <ele>1315.0</ele>
        <time>2019-08-01T09:58:59.943Z</time>
      </trkpt>
      <trkpt lat="43.03725" lon="-1.28873833">
        <ele>1315.0</ele>
        <time>2019-08-01T09:59:00.950Z</time>
      </trkpt>
      <trkpt lat="43.03724333" lon="-1.288745">
        <ele>1315.0</ele>
        <time>2019-08-01T09:59:01.955Z</time>
      </trkpt>
      <trkpt lat="43.03723333" lon="-1.28875333">
        <ele>1315.0</ele>
        <time>2019-08-01T09:59:02.961Z</time>
      </trkpt>
      <trkpt lat="43.03722167" lon="-1.28876333">
        <ele>1315.0</ele>
        <time>2019-08-01T09:59:03.967Z</time>
      </trkpt>
      <trkpt lat="43.03721667" lon="-1.28877">
        <ele>1315.0</ele>
        <time>2019-08-01T09:59:04.972Z</time>
      </trkpt>
      <trkpt lat="43.03720833" lon="-1.28878167">
        <ele>1315.0</ele>
        <time>2019-08-01T09:59:05.978Z</time>
      </trkpt>
      <trkpt lat="43.037195" lon="-1.28879667">
        <ele>1315.0</ele>
        <time>2019-08-01T09:59:06.984Z</time>
      </trkpt>
      <trkpt lat="43.03718667" lon="-1.28880667">
        <ele>1315.0</ele>
        <time>2019-08-01T09:59:07.992Z</time>
      </trkpt>
      <trkpt lat="43.03717667" lon="-1.28881833">
        <ele>1314.0</ele>
        <time>2019-08-01T09:59:08.998Z</time>
      </trkpt>
      <trkpt lat="43.037165" lon="-1.28883">
        <ele>1314.0</ele>
        <time>2019-08-01T09:59:10.004Z</time>
      </trkpt>
      <trkpt lat="43.03715667" lon="-1.28884167">
        <ele>1314.0</ele>
        <time>2019-08-01T09:59:11.009Z</time>
      </trkpt>
      <trkpt lat="43.03714667" lon="-1.28885667">
        <ele>1314.0</ele>
        <time>2019-08-01T09:59:12.015Z</time>
      </trkpt>
      <trkpt lat="43.03714" lon="-1.28886667">
        <ele>1315.0</ele>
        <time>2019-08-01T09:59:13.022Z</time>
      </trkpt>
      <trkpt lat="43.03713333" lon="-1.28887833">
        <ele>1315.0</ele>
        <time>2019-08-01T09:59:14.030Z</time>
      </trkpt>
      <trkpt lat="43.03712667" lon="-1.28888833">
        <ele>1316.0</ele>
        <time>2019-08-01T09:59:15.033Z</time>
      </trkpt>
      <trkpt lat="43.03712" lon="-1.28890333">
        <ele>1316.0</ele>
        <time>2019-08-01T09:59:16.038Z</time>
      </trkpt>
      <trkpt lat="43.037115" lon="-1.28892167">
        <ele>1316.0</ele>
        <time>2019-08-01T09:59:16.918Z</time>
      </trkpt>
      <trkpt lat="43.03710667" lon="-1.28893667">
        <ele>1317.0</ele>
        <time>2019-08-01T09:59:17.924Z</time>
      </trkpt>
      <trkpt lat="43.03709833" lon="-1.28894667">
        <ele>1317.0</ele>
        <time>2019-08-01T09:59:18.930Z</time>
      </trkpt>
      <trkpt lat="43.03709" lon="-1.28895667">
        <ele>1317.0</ele>
        <time>2019-08-01T09:59:19.938Z</time>
      </trkpt>
      <trkpt lat="43.037085" lon="-1.28897">
        <ele>1317.0</ele>
        <time>2019-08-01T09:59:20.946Z</time>
      </trkpt>
      <trkpt lat="43.03707667" lon="-1.28898667">
        <ele>1317.0</ele>
        <time>2019-08-01T09:59:21.949Z</time>
      </trkpt>
      <trkpt lat="43.03707" lon="-1.289">
        <ele>1317.0</ele>
        <time>2019-08-01T09:59:22.955Z</time>
      </trkpt>
      <trkpt lat="43.03706333" lon="-1.28901667">
        <ele>1316.0</ele>
        <time>2019-08-01T09:59:23.960Z</time>
      </trkpt>
      <trkpt lat="43.037055" lon="-1.28903">
        <ele>1316.0</ele>
        <time>2019-08-01T09:59:24.965Z</time>
      </trkpt>
      <trkpt lat="43.037045" lon="-1.28904333">
        <ele>1316.0</ele>
        <time>2019-08-01T09:59:25.971Z</time>
      </trkpt>
      <trkpt lat="43.03703667" lon="-1.28905833">
        <ele>1316.0</ele>
        <time>2019-08-01T09:59:26.978Z</time>
      </trkpt>
      <trkpt lat="43.037025" lon="-1.28907333">
        <ele>1316.0</ele>
        <time>2019-08-01T09:59:27.984Z</time>
      </trkpt>
      <trkpt lat="43.03701667" lon="-1.28909">
        <ele>1316.0</ele>
        <time>2019-08-01T09:59:28.989Z</time>
      </trkpt>
      <trkpt lat="43.03700833" lon="-1.28910333">
        <ele>1316.0</ele>
        <time>2019-08-01T09:59:29.995Z</time>
      </trkpt>
      <trkpt lat="43.03700167" lon="-1.28911833">
        <ele>1316.0</ele>
        <time>2019-08-01T09:59:31.002Z</time>
      </trkpt>
      <trkpt lat="43.036995" lon="-1.289135">
        <ele>1316.0</ele>
        <time>2019-08-01T09:59:32.007Z</time>
      </trkpt>
      <trkpt lat="43.03698833" lon="-1.28915333">
        <ele>1316.0</ele>
        <time>2019-08-01T09:59:33.010Z</time>
      </trkpt>
      <trkpt lat="43.03698167" lon="-1.28916833">
        <ele>1316.0</ele>
        <time>2019-08-01T09:59:34.013Z</time>
      </trkpt>
      <trkpt lat="43.036975" lon="-1.289185">
        <ele>1316.0</ele>
        <time>2019-08-01T09:59:35.020Z</time>
      </trkpt>
      <trkpt lat="43.03697" lon="-1.28919833">
        <ele>1316.0</ele>
        <time>2019-08-01T09:59:36.023Z</time>
      </trkpt>
      <trkpt lat="43.03696333" lon="-1.289215">
        <ele>1316.0</ele>
        <time>2019-08-01T09:59:37.028Z</time>
      </trkpt>
      <trkpt lat="43.03695833" lon="-1.28922833">
        <ele>1316.0</ele>
        <time>2019-08-01T09:59:38.032Z</time>
      </trkpt>
      <trkpt lat="43.03695167" lon="-1.289245">
        <ele>1316.0</ele>
        <time>2019-08-01T09:59:39.035Z</time>
      </trkpt>
      <trkpt lat="43.03694333" lon="-1.28926">
        <ele>1316.0</ele>
        <time>2019-08-01T09:59:40.042Z</time>
      </trkpt>
      <trkpt lat="43.03693833" lon="-1.28927667">
        <ele>1316.0</ele>
        <time>2019-08-01T09:59:40.922Z</time>
      </trkpt>
      <trkpt lat="43.036935" lon="-1.28929333">
        <ele>1315.0</ele>
        <time>2019-08-01T09:59:41.928Z</time>
      </trkpt>
      <trkpt lat="43.03693" lon="-1.28931167">
        <ele>1315.0</ele>
        <time>2019-08-01T09:59:42.933Z</time>
      </trkpt>
      <trkpt lat="43.036925" lon="-1.28932667">
        <ele>1315.0</ele>
        <time>2019-08-01T09:59:43.936Z</time>
      </trkpt>
      <trkpt lat="43.03692" lon="-1.28934333">
        <ele>1315.0</ele>
        <time>2019-08-01T09:59:44.941Z</time>
      </trkpt>
      <trkpt lat="43.036915" lon="-1.28936">
        <ele>1315.0</ele>
        <time>2019-08-01T09:59:45.948Z</time>
      </trkpt>
      <trkpt lat="43.03691" lon="-1.28937667">
        <ele>1315.0</ele>
        <time>2019-08-01T09:59:46.952Z</time>
      </trkpt>
      <trkpt lat="43.03690667" lon="-1.28939167">
        <ele>1316.0</ele>
        <time>2019-08-01T09:59:47.959Z</time>
      </trkpt>
      <trkpt lat="43.03690333" lon="-1.28940667">
        <ele>1316.0</ele>
        <time>2019-08-01T09:59:48.965Z</time>
      </trkpt>
      <trkpt lat="43.0369" lon="-1.28942333">
        <ele>1316.0</ele>
        <time>2019-08-01T09:59:49.969Z</time>
      </trkpt>
      <trkpt lat="43.03689333" lon="-1.28944">
        <ele>1316.0</ele>
        <time>2019-08-01T09:59:50.976Z</time>
      </trkpt>
      <trkpt lat="43.03689" lon="-1.28945833">
        <ele>1316.0</ele>
        <time>2019-08-01T09:59:51.983Z</time>
      </trkpt>
      <trkpt lat="43.036885" lon="-1.28947667">
        <ele>1316.0</ele>
        <time>2019-08-01T09:59:52.988Z</time>
      </trkpt>
      <trkpt lat="43.03688167" lon="-1.28949333">
        <ele>1316.0</ele>
        <time>2019-08-01T09:59:53.995Z</time>
      </trkpt>
      <trkpt lat="43.03687667" lon="-1.289515">
        <ele>1315.0</ele>
        <time>2019-08-01T09:59:55.000Z</time>
      </trkpt>
      <trkpt lat="43.03687" lon="-1.28953167">
        <ele>1315.0</ele>
        <time>2019-08-01T09:59:56.003Z</time>
      </trkpt>
      <trkpt lat="43.036865" lon="-1.28955167">
        <ele>1314.0</ele>
        <time>2019-08-01T09:59:57.007Z</time>
      </trkpt>
      <trkpt lat="43.03686" lon="-1.28956833">
        <ele>1315.0</ele>
        <time>2019-08-01T09:59:58.014Z</time>
      </trkpt>
      <trkpt lat="43.03685667" lon="-1.28958167">
        <ele>1315.0</ele>
        <time>2019-08-01T09:59:59.021Z</time>
      </trkpt>
      <trkpt lat="43.03685167" lon="-1.28959667">
        <ele>1315.0</ele>
        <time>2019-08-01T10:00:00.027Z</time>
      </trkpt>
      <trkpt lat="43.03684667" lon="-1.28961167">
        <ele>1316.0</ele>
        <time>2019-08-01T10:00:01.032Z</time>
      </trkpt>
      <trkpt lat="43.03684333" lon="-1.28962667">
        <ele>1316.0</ele>
        <time>2019-08-01T10:00:02.039Z</time>
      </trkpt>
      <trkpt lat="43.03683667" lon="-1.28964333">
        <ele>1316.0</ele>
        <time>2019-08-01T10:00:02.919Z</time>
      </trkpt>
      <trkpt lat="43.03683167" lon="-1.28965833">
        <ele>1316.0</ele>
        <time>2019-08-01T10:00:03.924Z</time>
      </trkpt>
      <trkpt lat="43.03682667" lon="-1.28967333">
        <ele>1316.0</ele>
        <time>2019-08-01T10:00:04.930Z</time>
      </trkpt>
      <trkpt lat="43.03682" lon="-1.28968833">
        <ele>1317.0</ele>
        <time>2019-08-01T10:00:05.937Z</time>
      </trkpt>
      <trkpt lat="43.036815" lon="-1.289705">
        <ele>1317.0</ele>
        <time>2019-08-01T10:00:06.944Z</time>
      </trkpt>
      <trkpt lat="43.03681167" lon="-1.28972">
        <ele>1316.0</ele>
        <time>2019-08-01T10:00:07.948Z</time>
      </trkpt>
      <trkpt lat="43.03680667" lon="-1.28973167">
        <ele>1317.0</ele>
        <time>2019-08-01T10:00:08.952Z</time>
      </trkpt>
      <trkpt lat="43.03680167" lon="-1.28974833">
        <ele>1317.0</ele>
        <time>2019-08-01T10:00:09.956Z</time>
      </trkpt>
      <trkpt lat="43.036795" lon="-1.28976667">
        <ele>1317.0</ele>
        <time>2019-08-01T10:00:10.963Z</time>
      </trkpt>
      <trkpt lat="43.03679" lon="-1.28978">
        <ele>1317.0</ele>
        <time>2019-08-01T10:00:11.969Z</time>
      </trkpt>
      <trkpt lat="43.03678333" lon="-1.28979">
        <ele>1317.0</ele>
        <time>2019-08-01T10:00:12.976Z</time>
      </trkpt>
      <trkpt lat="43.03677667" lon="-1.28980333">
        <ele>1317.0</ele>
        <time>2019-08-01T10:00:13.984Z</time>
      </trkpt>
      <trkpt lat="43.03677167" lon="-1.28981833">
        <ele>1317.0</ele>
        <time>2019-08-01T10:00:14.990Z</time>
      </trkpt>
      <trkpt lat="43.03676833" lon="-1.289835">
        <ele>1317.0</ele>
        <time>2019-08-01T10:00:15.996Z</time>
      </trkpt>
      <trkpt lat="43.03676667" lon="-1.28985167">
        <ele>1316.0</ele>
        <time>2019-08-01T10:00:17.002Z</time>
      </trkpt>
      <trkpt lat="43.036765" lon="-1.28986833">
        <ele>1316.0</ele>
        <time>2019-08-01T10:00:18.008Z</time>
      </trkpt>
      <trkpt lat="43.03676" lon="-1.28988167">
        <ele>1317.0</ele>
        <time>2019-08-01T10:00:19.014Z</time>
      </trkpt>
      <trkpt lat="43.03675667" lon="-1.28989833">
        <ele>1316.0</ele>
        <time>2019-08-01T10:00:20.019Z</time>
      </trkpt>
      <trkpt lat="43.03675333" lon="-1.28991167">
        <ele>1316.0</ele>
        <time>2019-08-01T10:00:21.025Z</time>
      </trkpt>
      <trkpt lat="43.03674833" lon="-1.28992667">
        <ele>1316.0</ele>
        <time>2019-08-01T10:00:22.031Z</time>
      </trkpt>
      <trkpt lat="43.036745" lon="-1.28994">
        <ele>1316.0</ele>
        <time>2019-08-01T10:00:23.038Z</time>
      </trkpt>
      <trkpt lat="43.03674167" lon="-1.28995667">
        <ele>1317.0</ele>
        <time>2019-08-01T10:00:23.918Z</time>
      </trkpt>
      <trkpt lat="43.03674" lon="-1.28996667">
        <ele>1317.0</ele>
        <time>2019-08-01T10:00:24.924Z</time>
      </trkpt>
      <trkpt lat="43.036735" lon="-1.28998333">
        <ele>1318.0</ele>
        <time>2019-08-01T10:00:25.929Z</time>
      </trkpt>
      <trkpt lat="43.03673333" lon="-1.28999833">
        <ele>1318.0</ele>
        <time>2019-08-01T10:00:26.936Z</time>
      </trkpt>
      <trkpt lat="43.03673333" lon="-1.29001167">
        <ele>1318.0</ele>
        <time>2019-08-01T10:00:27.937Z</time>
      </trkpt>
      <trkpt lat="43.03673" lon="-1.29003">
        <ele>1318.0</ele>
        <time>2019-08-01T10:00:28.939Z</time>
      </trkpt>
      <trkpt lat="43.03672667" lon="-1.290045">
        <ele>1318.0</ele>
        <time>2019-08-01T10:00:29.945Z</time>
      </trkpt>
      <trkpt lat="43.03672167" lon="-1.29006167">
        <ele>1319.0</ele>
        <time>2019-08-01T10:00:30.951Z</time>
      </trkpt>
      <trkpt lat="43.03672" lon="-1.29007333">
        <ele>1319.0</ele>
        <time>2019-08-01T10:00:31.958Z</time>
      </trkpt>
      <trkpt lat="43.03671667" lon="-1.29008833">
        <ele>1319.0</ele>
        <time>2019-08-01T10:00:32.960Z</time>
      </trkpt>
      <trkpt lat="43.03671" lon="-1.290105">
        <ele>1320.0</ele>
        <time>2019-08-01T10:00:33.961Z</time>
      </trkpt>
      <trkpt lat="43.03670333" lon="-1.29012">
        <ele>1320.0</ele>
        <time>2019-08-01T10:00:34.965Z</time>
      </trkpt>
      <trkpt lat="43.0367" lon="-1.290135">
        <ele>1319.0</ele>
        <time>2019-08-01T10:00:35.972Z</time>
      </trkpt>
      <trkpt lat="43.036695" lon="-1.29014833">
        <ele>1319.0</ele>
        <time>2019-08-01T10:00:36.978Z</time>
      </trkpt>
      <trkpt lat="43.03669" lon="-1.29016167">
        <ele>1319.0</ele>
        <time>2019-08-01T10:00:37.984Z</time>
      </trkpt>
      <trkpt lat="43.03668667" lon="-1.290175">
        <ele>1320.0</ele>
        <time>2019-08-01T10:00:38.988Z</time>
      </trkpt>
      <trkpt lat="43.03668333" lon="-1.290185">
        <ele>1320.0</ele>
        <time>2019-08-01T10:00:39.992Z</time>
      </trkpt>
      <trkpt lat="43.03667833" lon="-1.29019833">
        <ele>1320.0</ele>
        <time>2019-08-01T10:00:40.997Z</time>
      </trkpt>
      <trkpt lat="43.036675" lon="-1.29021">
        <ele>1320.0</ele>
        <time>2019-08-01T10:00:42.003Z</time>
      </trkpt>
      <trkpt lat="43.03667167" lon="-1.29022167">
        <ele>1321.0</ele>
        <time>2019-08-01T10:00:43.009Z</time>
      </trkpt>
      <trkpt lat="43.03666667" lon="-1.29023167">
        <ele>1321.0</ele>
        <time>2019-08-01T10:00:44.016Z</time>
      </trkpt>
      <trkpt lat="43.03666167" lon="-1.29024333">
        <ele>1321.0</ele>
        <time>2019-08-01T10:00:45.023Z</time>
      </trkpt>
      <trkpt lat="43.03665833" lon="-1.29026167">
        <ele>1321.0</ele>
        <time>2019-08-01T10:00:46.029Z</time>
      </trkpt>
      <trkpt lat="43.036655" lon="-1.290275">
        <ele>1321.0</ele>
        <time>2019-08-01T10:00:47.034Z</time>
      </trkpt>
      <trkpt lat="43.03665333" lon="-1.29029333">
        <ele>1321.0</ele>
        <time>2019-08-01T10:00:48.040Z</time>
      </trkpt>
      <trkpt lat="43.03665333" lon="-1.29030833">
        <ele>1321.0</ele>
        <time>2019-08-01T10:00:48.919Z</time>
      </trkpt>
      <trkpt lat="43.03665167" lon="-1.290325">
        <ele>1320.0</ele>
        <time>2019-08-01T10:00:49.924Z</time>
      </trkpt>
      <trkpt lat="43.03664833" lon="-1.29034">
        <ele>1320.0</ele>
        <time>2019-08-01T10:00:50.929Z</time>
      </trkpt>
      <trkpt lat="43.03664333" lon="-1.29035333">
        <ele>1321.0</ele>
        <time>2019-08-01T10:00:51.937Z</time>
      </trkpt>
      <trkpt lat="43.03663833" lon="-1.29036667">
        <ele>1321.0</ele>
        <time>2019-08-01T10:00:52.945Z</time>
      </trkpt>
      <trkpt lat="43.036635" lon="-1.29038167">
        <ele>1321.0</ele>
        <time>2019-08-01T10:00:53.948Z</time>
      </trkpt>
      <trkpt lat="43.03663167" lon="-1.29039667">
        <ele>1320.0</ele>
        <time>2019-08-01T10:00:54.954Z</time>
      </trkpt>
      <trkpt lat="43.03662667" lon="-1.29041">
        <ele>1321.0</ele>
        <time>2019-08-01T10:00:55.960Z</time>
      </trkpt>
      <trkpt lat="43.036625" lon="-1.29042">
        <ele>1321.0</ele>
        <time>2019-08-01T10:00:56.966Z</time>
      </trkpt>
      <trkpt lat="43.03661833" lon="-1.29043167">
        <ele>1321.0</ele>
        <time>2019-08-01T10:00:57.972Z</time>
      </trkpt>
      <trkpt lat="43.03661167" lon="-1.29044167">
        <ele>1322.0</ele>
        <time>2019-08-01T10:00:58.978Z</time>
      </trkpt>
      <trkpt lat="43.03660667" lon="-1.29045">
        <ele>1322.0</ele>
        <time>2019-08-01T10:00:59.985Z</time>
      </trkpt>
      <trkpt lat="43.0366" lon="-1.29046">
        <ele>1322.0</ele>
        <time>2019-08-01T10:01:00.990Z</time>
      </trkpt>
      <trkpt lat="43.03659167" lon="-1.29047">
        <ele>1322.0</ele>
        <time>2019-08-01T10:01:01.995Z</time>
      </trkpt>
      <trkpt lat="43.03658667" lon="-1.29048167">
        <ele>1322.0</ele>
        <time>2019-08-01T10:01:03.001Z</time>
      </trkpt>
      <trkpt lat="43.03658167" lon="-1.29049167">
        <ele>1322.0</ele>
        <time>2019-08-01T10:01:04.007Z</time>
      </trkpt>
      <trkpt lat="43.03657667" lon="-1.29050167">
        <ele>1322.0</ele>
        <time>2019-08-01T10:01:05.013Z</time>
      </trkpt>
      <trkpt lat="43.03656833" lon="-1.29051167">
        <ele>1323.0</ele>
        <time>2019-08-01T10:01:06.020Z</time>
      </trkpt>
      <trkpt lat="43.03656" lon="-1.29052333">
        <ele>1323.0</ele>
        <time>2019-08-01T10:01:07.027Z</time>
      </trkpt>
      <trkpt lat="43.03655333" lon="-1.29053167">
        <ele>1323.0</ele>
        <time>2019-08-01T10:01:08.032Z</time>
      </trkpt>
      <trkpt lat="43.036545" lon="-1.29054333">
        <ele>1324.0</ele>
        <time>2019-08-01T10:01:09.039Z</time>
      </trkpt>
      <trkpt lat="43.03653833" lon="-1.29055333">
        <ele>1324.0</ele>
        <time>2019-08-01T10:01:09.920Z</time>
      </trkpt>
      <trkpt lat="43.03653" lon="-1.290565">
        <ele>1324.0</ele>
        <time>2019-08-01T10:01:10.927Z</time>
      </trkpt>
      <trkpt lat="43.03652167" lon="-1.29057">
        <ele>1324.0</ele>
        <time>2019-08-01T10:01:11.932Z</time>
      </trkpt>
      <trkpt lat="43.03651167" lon="-1.29057833">
        <ele>1325.0</ele>
        <time>2019-08-01T10:01:12.938Z</time>
      </trkpt>
      <trkpt lat="43.03650333" lon="-1.29058833">
        <ele>1325.0</ele>
        <time>2019-08-01T10:01:13.942Z</time>
      </trkpt>
      <trkpt lat="43.03649333" lon="-1.290595">
        <ele>1325.0</ele>
        <time>2019-08-01T10:01:14.947Z</time>
      </trkpt>
      <trkpt lat="43.036485" lon="-1.29060333">
        <ele>1325.0</ele>
        <time>2019-08-01T10:01:15.952Z</time>
      </trkpt>
      <trkpt lat="43.03647667" lon="-1.29061167">
        <ele>1325.0</ele>
        <time>2019-08-01T10:01:16.960Z</time>
      </trkpt>
      <trkpt lat="43.03647" lon="-1.29062167">
        <ele>1326.0</ele>
        <time>2019-08-01T10:01:17.970Z</time>
      </trkpt>
      <trkpt lat="43.03646333" lon="-1.29063167">
        <ele>1326.0</ele>
        <time>2019-08-01T10:01:18.975Z</time>
      </trkpt>
      <trkpt lat="43.036455" lon="-1.29064167">
        <ele>1327.0</ele>
        <time>2019-08-01T10:01:19.981Z</time>
      </trkpt>
      <trkpt lat="43.03644667" lon="-1.29065">
        <ele>1327.0</ele>
        <time>2019-08-01T10:01:20.987Z</time>
      </trkpt>
      <trkpt lat="43.03644" lon="-1.29066333">
        <ele>1327.0</ele>
        <time>2019-08-01T10:01:21.991Z</time>
      </trkpt>
      <trkpt lat="43.03643333" lon="-1.29067333">
        <ele>1328.0</ele>
        <time>2019-08-01T10:01:22.996Z</time>
      </trkpt>
      <trkpt lat="43.03642667" lon="-1.29068333">
        <ele>1328.0</ele>
        <time>2019-08-01T10:01:24.002Z</time>
      </trkpt>
      <trkpt lat="43.03642" lon="-1.290695">
        <ele>1328.0</ele>
        <time>2019-08-01T10:01:25.007Z</time>
      </trkpt>
      <trkpt lat="43.036415" lon="-1.29071">
        <ele>1329.0</ele>
        <time>2019-08-01T10:01:26.014Z</time>
      </trkpt>
      <trkpt lat="43.03641" lon="-1.29072333">
        <ele>1328.0</ele>
        <time>2019-08-01T10:01:27.021Z</time>
      </trkpt>
      <trkpt lat="43.036405" lon="-1.29073833">
        <ele>1328.0</ele>
        <time>2019-08-01T10:01:28.027Z</time>
      </trkpt>
      <trkpt lat="43.0364" lon="-1.29074833">
        <ele>1328.0</ele>
        <time>2019-08-01T10:01:29.031Z</time>
      </trkpt>
      <trkpt lat="43.03639333" lon="-1.29076167">
        <ele>1329.0</ele>
        <time>2019-08-01T10:01:30.032Z</time>
      </trkpt>
      <trkpt lat="43.03638833" lon="-1.290775">
        <ele>1329.0</ele>
        <time>2019-08-01T10:01:31.037Z</time>
      </trkpt>
      <trkpt lat="43.03638167" lon="-1.29078833">
        <ele>1329.0</ele>
        <time>2019-08-01T10:01:32.042Z</time>
      </trkpt>
      <trkpt lat="43.03637667" lon="-1.2908">
        <ele>1329.0</ele>
        <time>2019-08-01T10:01:32.923Z</time>
      </trkpt>
      <trkpt lat="43.03637167" lon="-1.290815">
        <ele>1329.0</ele>
        <time>2019-08-01T10:01:33.928Z</time>
      </trkpt>
      <trkpt lat="43.03636333" lon="-1.29082833">
        <ele>1329.0</ele>
        <time>2019-08-01T10:01:34.935Z</time>
      </trkpt>
      <trkpt lat="43.03635833" lon="-1.29084">
        <ele>1329.0</ele>
        <time>2019-08-01T10:01:35.939Z</time>
      </trkpt>
      <trkpt lat="43.03635167" lon="-1.29085333">
        <ele>1329.0</ele>
        <time>2019-08-01T10:01:36.940Z</time>
      </trkpt>
      <trkpt lat="43.03634667" lon="-1.290865">
        <ele>1330.0</ele>
        <time>2019-08-01T10:01:37.946Z</time>
      </trkpt>
      <trkpt lat="43.03634" lon="-1.29087833">
        <ele>1330.0</ele>
        <time>2019-08-01T10:01:38.950Z</time>
      </trkpt>
      <trkpt lat="43.03633667" lon="-1.29089167">
        <ele>1330.0</ele>
        <time>2019-08-01T10:01:39.957Z</time>
      </trkpt>
      <trkpt lat="43.03633" lon="-1.290905">
        <ele>1330.0</ele>
        <time>2019-08-01T10:01:40.962Z</time>
      </trkpt>
      <trkpt lat="43.036325" lon="-1.29091667">
        <ele>1331.0</ele>
        <time>2019-08-01T10:01:41.968Z</time>
      </trkpt>
      <trkpt lat="43.03631667" lon="-1.29092833">
        <ele>1332.0</ele>
        <time>2019-08-01T10:01:42.976Z</time>
      </trkpt>
      <trkpt lat="43.03631" lon="-1.29093833">
        <ele>1332.0</ele>
        <time>2019-08-01T10:01:43.980Z</time>
      </trkpt>
      <trkpt lat="43.036305" lon="-1.29095333">
        <ele>1332.0</ele>
        <time>2019-08-01T10:01:44.986Z</time>
      </trkpt>
      <trkpt lat="43.03630167" lon="-1.29096667">
        <ele>1332.0</ele>
        <time>2019-08-01T10:01:45.990Z</time>
      </trkpt>
      <trkpt lat="43.03629667" lon="-1.29098167">
        <ele>1332.0</ele>
        <time>2019-08-01T10:01:46.996Z</time>
      </trkpt>
      <trkpt lat="43.03629333" lon="-1.29099333">
        <ele>1332.0</ele>
        <time>2019-08-01T10:01:48.000Z</time>
      </trkpt>
      <trkpt lat="43.03628667" lon="-1.29100667">
        <ele>1332.0</ele>
        <time>2019-08-01T10:01:49.003Z</time>
      </trkpt>
      <trkpt lat="43.03628333" lon="-1.29102">
        <ele>1332.0</ele>
        <time>2019-08-01T10:01:50.006Z</time>
      </trkpt>
      <trkpt lat="43.03627667" lon="-1.29103167">
        <ele>1332.0</ele>
        <time>2019-08-01T10:01:51.012Z</time>
      </trkpt>
      <trkpt lat="43.03627" lon="-1.29104333">
        <ele>1332.0</ele>
        <time>2019-08-01T10:01:52.019Z</time>
      </trkpt>
      <trkpt lat="43.036265" lon="-1.29105667">
        <ele>1333.0</ele>
        <time>2019-08-01T10:01:53.025Z</time>
      </trkpt>
      <trkpt lat="43.03625833" lon="-1.29107">
        <ele>1333.0</ele>
        <time>2019-08-01T10:01:54.031Z</time>
      </trkpt>
      <trkpt lat="43.03625333" lon="-1.29108333">
        <ele>1333.0</ele>
        <time>2019-08-01T10:01:55.038Z</time>
      </trkpt>
      <trkpt lat="43.03625" lon="-1.29109">
        <ele>1334.0</ele>
        <time>2019-08-01T10:01:55.918Z</time>
      </trkpt>
      <trkpt lat="43.03624667" lon="-1.29109667">
        <ele>1335.0</ele>
        <time>2019-08-01T10:01:56.925Z</time>
      </trkpt>
      <trkpt lat="43.03624333" lon="-1.291105">
        <ele>1335.0</ele>
        <time>2019-08-01T10:01:57.933Z</time>
      </trkpt>
      <trkpt lat="43.03623833" lon="-1.29111833">
        <ele>1335.0</ele>
        <time>2019-08-01T10:01:58.939Z</time>
      </trkpt>
      <trkpt lat="43.03623167" lon="-1.29113167">
        <ele>1336.0</ele>
        <time>2019-08-01T10:01:59.947Z</time>
      </trkpt>
      <trkpt lat="43.03622667" lon="-1.29115">
        <ele>1336.0</ele>
        <time>2019-08-01T10:02:00.949Z</time>
      </trkpt>
      <trkpt lat="43.03622167" lon="-1.29116333">
        <ele>1336.0</ele>
        <time>2019-08-01T10:02:01.956Z</time>
      </trkpt>
      <trkpt lat="43.03621333" lon="-1.29118">
        <ele>1337.0</ele>
        <time>2019-08-01T10:02:02.963Z</time>
      </trkpt>
      <trkpt lat="43.036205" lon="-1.29119333">
        <ele>1337.0</ele>
        <time>2019-08-01T10:02:03.969Z</time>
      </trkpt>
      <trkpt lat="43.03619667" lon="-1.29120833">
        <ele>1337.0</ele>
        <time>2019-08-01T10:02:04.974Z</time>
      </trkpt>
      <trkpt lat="43.03618833" lon="-1.29122167">
        <ele>1337.0</ele>
        <time>2019-08-01T10:02:05.980Z</time>
      </trkpt>
      <trkpt lat="43.03618" lon="-1.29123667">
        <ele>1337.0</ele>
        <time>2019-08-01T10:02:06.986Z</time>
      </trkpt>
      <trkpt lat="43.036175" lon="-1.29125">
        <ele>1337.0</ele>
        <time>2019-08-01T10:02:07.990Z</time>
      </trkpt>
      <trkpt lat="43.036165" lon="-1.29126167">
        <ele>1337.0</ele>
        <time>2019-08-01T10:02:08.996Z</time>
      </trkpt>
      <trkpt lat="43.03615667" lon="-1.291275">
        <ele>1337.0</ele>
        <time>2019-08-01T10:02:10.001Z</time>
      </trkpt>
      <trkpt lat="43.03615" lon="-1.291285">
        <ele>1337.0</ele>
        <time>2019-08-01T10:02:11.007Z</time>
      </trkpt>
      <trkpt lat="43.03614167" lon="-1.29129833">
        <ele>1337.0</ele>
        <time>2019-08-01T10:02:12.015Z</time>
      </trkpt>
      <trkpt lat="43.03613667" lon="-1.29130667">
        <ele>1338.0</ele>
        <time>2019-08-01T10:02:13.020Z</time>
      </trkpt>
      <trkpt lat="43.03613" lon="-1.29132">
        <ele>1338.0</ele>
        <time>2019-08-01T10:02:14.026Z</time>
      </trkpt>
      <trkpt lat="43.03612333" lon="-1.29133167">
        <ele>1339.0</ele>
        <time>2019-08-01T10:02:15.029Z</time>
      </trkpt>
      <trkpt lat="43.03611333" lon="-1.29134333">
        <ele>1339.0</ele>
        <time>2019-08-01T10:02:16.033Z</time>
      </trkpt>
      <trkpt lat="43.03611" lon="-1.291355">
        <ele>1339.0</ele>
        <time>2019-08-01T10:02:17.040Z</time>
      </trkpt>
      <trkpt lat="43.036105" lon="-1.29137">
        <ele>1339.0</ele>
        <time>2019-08-01T10:02:17.920Z</time>
      </trkpt>
      <trkpt lat="43.03610167" lon="-1.29138333">
        <ele>1339.0</ele>
        <time>2019-08-01T10:02:18.925Z</time>
      </trkpt>
      <trkpt lat="43.036095" lon="-1.2914">
        <ele>1339.0</ele>
        <time>2019-08-01T10:02:19.931Z</time>
      </trkpt>
      <trkpt lat="43.03609167" lon="-1.29141333">
        <ele>1339.0</ele>
        <time>2019-08-01T10:02:20.938Z</time>
      </trkpt>
      <trkpt lat="43.03608667" lon="-1.29142667">
        <ele>1339.0</ele>
        <time>2019-08-01T10:02:21.944Z</time>
      </trkpt>
      <trkpt lat="43.03608167" lon="-1.29144">
        <ele>1339.0</ele>
        <time>2019-08-01T10:02:22.948Z</time>
      </trkpt>
      <trkpt lat="43.036075" lon="-1.29145">
        <ele>1339.0</ele>
        <time>2019-08-01T10:02:23.953Z</time>
      </trkpt>
      <trkpt lat="43.03606833" lon="-1.29146167">
        <ele>1339.0</ele>
        <time>2019-08-01T10:02:24.958Z</time>
      </trkpt>
      <trkpt lat="43.03606333" lon="-1.29147333">
        <ele>1340.0</ele>
        <time>2019-08-01T10:02:25.963Z</time>
      </trkpt>
      <trkpt lat="43.03605833" lon="-1.29148667">
        <ele>1340.0</ele>
        <time>2019-08-01T10:02:26.967Z</time>
      </trkpt>
      <trkpt lat="43.03605333" lon="-1.29149833">
        <ele>1341.0</ele>
        <time>2019-08-01T10:02:27.972Z</time>
      </trkpt>
      <trkpt lat="43.03604667" lon="-1.29151333">
        <ele>1341.0</ele>
        <time>2019-08-01T10:02:28.979Z</time>
      </trkpt>
      <trkpt lat="43.03604167" lon="-1.29152667">
        <ele>1341.0</ele>
        <time>2019-08-01T10:02:29.986Z</time>
      </trkpt>
      <trkpt lat="43.036035" lon="-1.29154333">
        <ele>1341.0</ele>
        <time>2019-08-01T10:02:30.992Z</time>
      </trkpt>
      <trkpt lat="43.03602833" lon="-1.29155667">
        <ele>1342.0</ele>
        <time>2019-08-01T10:02:31.997Z</time>
      </trkpt>
      <trkpt lat="43.03602167" lon="-1.29156667">
        <ele>1342.0</ele>
        <time>2019-08-01T10:02:33.001Z</time>
      </trkpt>
      <trkpt lat="43.036015" lon="-1.29158">
        <ele>1343.0</ele>
        <time>2019-08-01T10:02:34.008Z</time>
      </trkpt>
      <trkpt lat="43.03601" lon="-1.29158833">
        <ele>1344.0</ele>
        <time>2019-08-01T10:02:35.014Z</time>
      </trkpt>
      <trkpt lat="43.03600333" lon="-1.29159333">
        <ele>1344.0</ele>
        <time>2019-08-01T10:02:36.019Z</time>
      </trkpt>
      <trkpt lat="43.035995" lon="-1.2916">
        <ele>1344.0</ele>
        <time>2019-08-01T10:02:37.024Z</time>
      </trkpt>
      <trkpt lat="43.03598667" lon="-1.291605">
        <ele>1345.0</ele>
        <time>2019-08-01T10:02:38.030Z</time>
      </trkpt>
      <trkpt lat="43.03597833" lon="-1.29161333">
        <ele>1345.0</ele>
        <time>2019-08-01T10:02:39.037Z</time>
      </trkpt>
      <trkpt lat="43.03596833" lon="-1.29162167">
        <ele>1346.0</ele>
        <time>2019-08-01T10:02:40.041Z</time>
      </trkpt>
      <trkpt lat="43.03596" lon="-1.29162833">
        <ele>1347.0</ele>
        <time>2019-08-01T10:02:40.921Z</time>
      </trkpt>
      <trkpt lat="43.03595167" lon="-1.29163333">
        <ele>1347.0</ele>
        <time>2019-08-01T10:02:41.928Z</time>
      </trkpt>
      <trkpt lat="43.03594167" lon="-1.29163667">
        <ele>1347.0</ele>
        <time>2019-08-01T10:02:42.935Z</time>
      </trkpt>
      <trkpt lat="43.03593333" lon="-1.29164167">
        <ele>1347.0</ele>
        <time>2019-08-01T10:02:43.943Z</time>
      </trkpt>
      <trkpt lat="43.03592167" lon="-1.29164667">
        <ele>1347.0</ele>
        <time>2019-08-01T10:02:44.950Z</time>
      </trkpt>
      <trkpt lat="43.035915" lon="-1.29165167">
        <ele>1348.0</ele>
        <time>2019-08-01T10:02:45.952Z</time>
      </trkpt>
      <trkpt lat="43.035905" lon="-1.29166">
        <ele>1349.0</ele>
        <time>2019-08-01T10:02:46.958Z</time>
      </trkpt>
      <trkpt lat="43.035895" lon="-1.291665">
        <ele>1350.0</ele>
        <time>2019-08-01T10:02:47.965Z</time>
      </trkpt>
      <trkpt lat="43.035885" lon="-1.29166833">
        <ele>1351.0</ele>
        <time>2019-08-01T10:02:48.970Z</time>
      </trkpt>
      <trkpt lat="43.03587333" lon="-1.29167167">
        <ele>1351.0</ele>
        <time>2019-08-01T10:02:49.972Z</time>
      </trkpt>
      <trkpt lat="43.03586333" lon="-1.291675">
        <ele>1352.0</ele>
        <time>2019-08-01T10:02:50.977Z</time>
      </trkpt>
      <trkpt lat="43.03585333" lon="-1.29167667">
        <ele>1353.0</ele>
        <time>2019-08-01T10:02:51.982Z</time>
      </trkpt>
      <trkpt lat="43.03584" lon="-1.29168">
        <ele>1353.0</ele>
        <time>2019-08-01T10:02:52.989Z</time>
      </trkpt>
      <trkpt lat="43.03583333" lon="-1.29168167">
        <ele>1354.0</ele>
        <time>2019-08-01T10:02:53.991Z</time>
      </trkpt>
      <trkpt lat="43.03582333" lon="-1.291685">
        <ele>1354.0</ele>
        <time>2019-08-01T10:02:54.993Z</time>
      </trkpt>
      <trkpt lat="43.03581" lon="-1.29169">
        <ele>1354.0</ele>
        <time>2019-08-01T10:02:55.996Z</time>
      </trkpt>
      <trkpt lat="43.03580167" lon="-1.29169667">
        <ele>1354.0</ele>
        <time>2019-08-01T10:02:57.001Z</time>
      </trkpt>
      <trkpt lat="43.03579333" lon="-1.29169833">
        <ele>1354.0</ele>
        <time>2019-08-01T10:02:58.008Z</time>
      </trkpt>
      <trkpt lat="43.03578333" lon="-1.2917">
        <ele>1355.0</ele>
        <time>2019-08-01T10:02:59.013Z</time>
      </trkpt>
      <trkpt lat="43.03577167" lon="-1.291705">
        <ele>1355.0</ele>
        <time>2019-08-01T10:03:00.019Z</time>
      </trkpt>
      <trkpt lat="43.03576333" lon="-1.29170833">
        <ele>1356.0</ele>
        <time>2019-08-01T10:03:01.026Z</time>
      </trkpt>
      <trkpt lat="43.035755" lon="-1.29171333">
        <ele>1355.0</ele>
        <time>2019-08-01T10:03:02.032Z</time>
      </trkpt>
      <trkpt lat="43.03574333" lon="-1.29172">
        <ele>1355.0</ele>
        <time>2019-08-01T10:03:03.038Z</time>
      </trkpt>
      <trkpt lat="43.035735" lon="-1.29172333">
        <ele>1355.0</ele>
        <time>2019-08-01T10:03:04.043Z</time>
      </trkpt>
      <trkpt lat="43.035725" lon="-1.29172833">
        <ele>1355.0</ele>
        <time>2019-08-01T10:03:04.921Z</time>
      </trkpt>
      <trkpt lat="43.03571667" lon="-1.29173167">
        <ele>1355.0</ele>
        <time>2019-08-01T10:03:05.927Z</time>
      </trkpt>
      <trkpt lat="43.03570667" lon="-1.291735">
        <ele>1354.0</ele>
        <time>2019-08-01T10:03:06.933Z</time>
      </trkpt>
      <trkpt lat="43.03569833" lon="-1.29173667">
        <ele>1354.0</ele>
        <time>2019-08-01T10:03:07.939Z</time>
      </trkpt>
      <trkpt lat="43.03568833" lon="-1.29174">
        <ele>1354.0</ele>
        <time>2019-08-01T10:03:08.944Z</time>
      </trkpt>
      <trkpt lat="43.03567833" lon="-1.29174333">
        <ele>1354.0</ele>
        <time>2019-08-01T10:03:09.950Z</time>
      </trkpt>
      <trkpt lat="43.03566833" lon="-1.291745">
        <ele>1354.0</ele>
        <time>2019-08-01T10:03:10.957Z</time>
      </trkpt>
      <trkpt lat="43.03565667" lon="-1.29174833">
        <ele>1355.0</ele>
        <time>2019-08-01T10:03:11.963Z</time>
      </trkpt>
      <trkpt lat="43.03564667" lon="-1.29175167">
        <ele>1355.0</ele>
        <time>2019-08-01T10:03:12.969Z</time>
      </trkpt>
      <trkpt lat="43.03563833" lon="-1.291755">
        <ele>1355.0</ele>
        <time>2019-08-01T10:03:13.976Z</time>
      </trkpt>
      <trkpt lat="43.03562833" lon="-1.29176">
        <ele>1356.0</ele>
        <time>2019-08-01T10:03:14.980Z</time>
      </trkpt>
      <trkpt lat="43.03561667" lon="-1.29176167">
        <ele>1358.0</ele>
        <time>2019-08-01T10:03:15.987Z</time>
      </trkpt>
      <trkpt lat="43.03561" lon="-1.29176667">
        <ele>1358.0</ele>
        <time>2019-08-01T10:03:16.991Z</time>
      </trkpt>
      <trkpt lat="43.03560167" lon="-1.291765">
        <ele>1360.0</ele>
        <time>2019-08-01T10:03:17.996Z</time>
      </trkpt>
      <trkpt lat="43.03559167" lon="-1.29176333">
        <ele>1361.0</ele>
        <time>2019-08-01T10:03:19.003Z</time>
      </trkpt>
      <trkpt lat="43.03558167" lon="-1.29176333">
        <ele>1362.0</ele>
        <time>2019-08-01T10:03:20.011Z</time>
      </trkpt>
      <trkpt lat="43.03557167" lon="-1.29176833">
        <ele>1362.0</ele>
        <time>2019-08-01T10:03:21.018Z</time>
      </trkpt>
      <trkpt lat="43.03556167" lon="-1.29177333">
        <ele>1361.0</ele>
        <time>2019-08-01T10:03:22.024Z</time>
      </trkpt>
      <trkpt lat="43.03555167" lon="-1.291775">
        <ele>1362.0</ele>
        <time>2019-08-01T10:03:23.030Z</time>
      </trkpt>
      <trkpt lat="43.03554333" lon="-1.29177833">
        <ele>1362.0</ele>
        <time>2019-08-01T10:03:24.036Z</time>
      </trkpt>
      <trkpt lat="43.03553167" lon="-1.29178">
        <ele>1362.0</ele>
        <time>2019-08-01T10:03:25.040Z</time>
      </trkpt>
      <trkpt lat="43.03552167" lon="-1.29178333">
        <ele>1363.0</ele>
        <time>2019-08-01T10:03:25.921Z</time>
      </trkpt>
      <trkpt lat="43.03551" lon="-1.291785">
        <ele>1363.0</ele>
        <time>2019-08-01T10:03:26.925Z</time>
      </trkpt>
      <trkpt lat="43.03549667" lon="-1.291785">
        <ele>1363.0</ele>
        <time>2019-08-01T10:03:27.931Z</time>
      </trkpt>
      <trkpt lat="43.03549" lon="-1.29178667">
        <ele>1364.0</ele>
        <time>2019-08-01T10:03:28.938Z</time>
      </trkpt>
      <trkpt lat="43.03547833" lon="-1.291785">
        <ele>1364.0</ele>
        <time>2019-08-01T10:03:29.945Z</time>
      </trkpt>
      <trkpt lat="43.03546833" lon="-1.29178167">
        <ele>1365.0</ele>
        <time>2019-08-01T10:03:30.950Z</time>
      </trkpt>
      <trkpt lat="43.03546" lon="-1.29177833">
        <ele>1366.0</ele>
        <time>2019-08-01T10:03:31.957Z</time>
      </trkpt>
      <trkpt lat="43.03545167" lon="-1.29177667">
        <ele>1366.0</ele>
        <time>2019-08-01T10:03:32.964Z</time>
      </trkpt>
      <trkpt lat="43.03544333" lon="-1.29177167">
        <ele>1367.0</ele>
        <time>2019-08-01T10:03:33.971Z</time>
      </trkpt>
      <trkpt lat="43.03543167" lon="-1.29177333">
        <ele>1367.0</ele>
        <time>2019-08-01T10:03:34.977Z</time>
      </trkpt>
      <trkpt lat="43.03542167" lon="-1.29177333">
        <ele>1367.0</ele>
        <time>2019-08-01T10:03:35.983Z</time>
      </trkpt>
      <trkpt lat="43.03541167" lon="-1.29177667">
        <ele>1366.0</ele>
        <time>2019-08-01T10:03:36.990Z</time>
      </trkpt>
      <trkpt lat="43.0354" lon="-1.29177667">
        <ele>1366.0</ele>
        <time>2019-08-01T10:03:37.995Z</time>
      </trkpt>
      <trkpt lat="43.03539167" lon="-1.29177833">
        <ele>1366.0</ele>
        <time>2019-08-01T10:03:39.000Z</time>
      </trkpt>
      <trkpt lat="43.03538167" lon="-1.29178">
        <ele>1366.0</ele>
        <time>2019-08-01T10:03:40.004Z</time>
      </trkpt>
      <trkpt lat="43.03537167" lon="-1.29178">
        <ele>1365.0</ele>
        <time>2019-08-01T10:03:41.011Z</time>
      </trkpt>
      <trkpt lat="43.03536167" lon="-1.29178">
        <ele>1365.0</ele>
        <time>2019-08-01T10:03:42.016Z</time>
      </trkpt>
      <trkpt lat="43.035355" lon="-1.29178">
        <ele>1364.0</ele>
        <time>2019-08-01T10:03:43.023Z</time>
      </trkpt>
      <trkpt lat="43.03535" lon="-1.29177667">
        <ele>1364.0</ele>
        <time>2019-08-01T10:03:44.029Z</time>
      </trkpt>
      <trkpt lat="43.03534333" lon="-1.29177167">
        <ele>1363.0</ele>
        <time>2019-08-01T10:03:45.034Z</time>
      </trkpt>
      <trkpt lat="43.03533667" lon="-1.29176667">
        <ele>1363.0</ele>
        <time>2019-08-01T10:03:46.040Z</time>
      </trkpt>
      <trkpt lat="43.03533" lon="-1.29176">
        <ele>1363.0</ele>
        <time>2019-08-01T10:03:46.920Z</time>
      </trkpt>
      <trkpt lat="43.035325" lon="-1.29175333">
        <ele>1363.0</ele>
        <time>2019-08-01T10:03:47.926Z</time>
      </trkpt>
      <trkpt lat="43.03531833" lon="-1.29174333">
        <ele>1363.0</ele>
        <time>2019-08-01T10:03:48.931Z</time>
      </trkpt>
      <trkpt lat="43.03531167" lon="-1.29173333">
        <ele>1363.0</ele>
        <time>2019-08-01T10:03:49.938Z</time>
      </trkpt>
      <trkpt lat="43.035305" lon="-1.29172167">
        <ele>1362.0</ele>
        <time>2019-08-01T10:03:50.945Z</time>
      </trkpt>
      <trkpt lat="43.03529833" lon="-1.291715">
        <ele>1362.0</ele>
        <time>2019-08-01T10:03:51.950Z</time>
      </trkpt>
      <trkpt lat="43.03529333" lon="-1.29170667">
        <ele>1362.0</ele>
        <time>2019-08-01T10:03:52.957Z</time>
      </trkpt>
      <trkpt lat="43.03528667" lon="-1.29169833">
        <ele>1362.0</ele>
        <time>2019-08-01T10:03:53.964Z</time>
      </trkpt>
      <trkpt lat="43.03528" lon="-1.29168833">
        <ele>1362.0</ele>
        <time>2019-08-01T10:03:54.969Z</time>
      </trkpt>
      <trkpt lat="43.03527667" lon="-1.29167833">
        <ele>1361.0</ele>
        <time>2019-08-01T10:03:55.974Z</time>
      </trkpt>
      <trkpt lat="43.03527" lon="-1.29167">
        <ele>1361.0</ele>
        <time>2019-08-01T10:03:56.981Z</time>
      </trkpt>
      <trkpt lat="43.03526333" lon="-1.29165833">
        <ele>1360.0</ele>
        <time>2019-08-01T10:03:57.988Z</time>
      </trkpt>
      <trkpt lat="43.035255" lon="-1.29164833">
        <ele>1360.0</ele>
        <time>2019-08-01T10:03:58.993Z</time>
      </trkpt>
      <trkpt lat="43.03524667" lon="-1.29163833">
        <ele>1360.0</ele>
        <time>2019-08-01T10:03:59.999Z</time>
      </trkpt>
      <trkpt lat="43.03524167" lon="-1.291625">
        <ele>1360.0</ele>
        <time>2019-08-01T10:04:01.005Z</time>
      </trkpt>
      <trkpt lat="43.03523333" lon="-1.29161333">
        <ele>1360.0</ele>
        <time>2019-08-01T10:04:02.013Z</time>
      </trkpt>
      <trkpt lat="43.03522833" lon="-1.29160167">
        <ele>1359.0</ele>
        <time>2019-08-01T10:04:03.019Z</time>
      </trkpt>
      <trkpt lat="43.03522333" lon="-1.29158833">
        <ele>1359.0</ele>
        <time>2019-08-01T10:04:04.026Z</time>
      </trkpt>
      <trkpt lat="43.03521667" lon="-1.29157667">
        <ele>1359.0</ele>
        <time>2019-08-01T10:04:05.031Z</time>
      </trkpt>
      <trkpt lat="43.03520833" lon="-1.291565">
        <ele>1359.0</ele>
        <time>2019-08-01T10:04:06.037Z</time>
      </trkpt>
      <trkpt lat="43.03520333" lon="-1.29155667">
        <ele>1358.0</ele>
        <time>2019-08-01T10:04:07.042Z</time>
      </trkpt>
      <trkpt lat="43.035195" lon="-1.29154667">
        <ele>1358.0</ele>
        <time>2019-08-01T10:04:07.920Z</time>
      </trkpt>
      <trkpt lat="43.03518667" lon="-1.29153667">
        <ele>1358.0</ele>
        <time>2019-08-01T10:04:08.928Z</time>
      </trkpt>
      <trkpt lat="43.03517667" lon="-1.29152333">
        <ele>1358.0</ele>
        <time>2019-08-01T10:04:09.933Z</time>
      </trkpt>
      <trkpt lat="43.03516833" lon="-1.29151333">
        <ele>1358.0</ele>
        <time>2019-08-01T10:04:10.939Z</time>
      </trkpt>
      <trkpt lat="43.03516333" lon="-1.29150333">
        <ele>1358.0</ele>
        <time>2019-08-01T10:04:11.946Z</time>
      </trkpt>
      <trkpt lat="43.03515833" lon="-1.291495">
        <ele>1358.0</ele>
        <time>2019-08-01T10:04:12.952Z</time>
      </trkpt>
      <trkpt lat="43.03515333" lon="-1.291485">
        <ele>1357.0</ele>
        <time>2019-08-01T10:04:13.958Z</time>
      </trkpt>
      <trkpt lat="43.03515" lon="-1.291475">
        <ele>1357.0</ele>
        <time>2019-08-01T10:04:14.965Z</time>
      </trkpt>
      <trkpt lat="43.035145" lon="-1.291465">
        <ele>1357.0</ele>
        <time>2019-08-01T10:04:15.968Z</time>
      </trkpt>
      <trkpt lat="43.03513833" lon="-1.29145167">
        <ele>1357.0</ele>
        <time>2019-08-01T10:04:16.974Z</time>
      </trkpt>
      <trkpt lat="43.03513333" lon="-1.29143833">
        <ele>1357.0</ele>
        <time>2019-08-01T10:04:17.979Z</time>
      </trkpt>
      <trkpt lat="43.035125" lon="-1.291425">
        <ele>1357.0</ele>
        <time>2019-08-01T10:04:18.988Z</time>
      </trkpt>
      <trkpt lat="43.03511833" lon="-1.29141167">
        <ele>1358.0</ele>
        <time>2019-08-01T10:04:19.992Z</time>
      </trkpt>
      <trkpt lat="43.03511167" lon="-1.2914">
        <ele>1358.0</ele>
        <time>2019-08-01T10:04:20.996Z</time>
      </trkpt>
      <trkpt lat="43.03510667" lon="-1.29138833">
        <ele>1358.0</ele>
        <time>2019-08-01T10:04:22.000Z</time>
      </trkpt>
      <trkpt lat="43.03509833" lon="-1.291375">
        <ele>1358.0</ele>
        <time>2019-08-01T10:04:23.006Z</time>
      </trkpt>
      <trkpt lat="43.03508833" lon="-1.29136333">
        <ele>1358.0</ele>
        <time>2019-08-01T10:04:24.013Z</time>
      </trkpt>
      <trkpt lat="43.03508167" lon="-1.29135167">
        <ele>1357.0</ele>
        <time>2019-08-01T10:04:25.020Z</time>
      </trkpt>
      <trkpt lat="43.035075" lon="-1.29133833">
        <ele>1357.0</ele>
        <time>2019-08-01T10:04:26.027Z</time>
      </trkpt>
      <trkpt lat="43.03506833" lon="-1.291325">
        <ele>1358.0</ele>
        <time>2019-08-01T10:04:27.032Z</time>
      </trkpt>
      <trkpt lat="43.03506333" lon="-1.29131167">
        <ele>1358.0</ele>
        <time>2019-08-01T10:04:28.037Z</time>
      </trkpt>
      <trkpt lat="43.03505667" lon="-1.29129833">
        <ele>1358.0</ele>
        <time>2019-08-01T10:04:28.918Z</time>
      </trkpt>
      <trkpt lat="43.03505" lon="-1.29128667">
        <ele>1357.0</ele>
        <time>2019-08-01T10:04:29.925Z</time>
      </trkpt>
      <trkpt lat="43.03504333" lon="-1.29127333">
        <ele>1357.0</ele>
        <time>2019-08-01T10:04:30.931Z</time>
      </trkpt>
      <trkpt lat="43.03503667" lon="-1.29126">
        <ele>1358.0</ele>
        <time>2019-08-01T10:04:31.937Z</time>
      </trkpt>
      <trkpt lat="43.03503" lon="-1.291245">
        <ele>1357.0</ele>
        <time>2019-08-01T10:04:32.943Z</time>
      </trkpt>
      <trkpt lat="43.03502167" lon="-1.29123333">
        <ele>1357.0</ele>
        <time>2019-08-01T10:04:33.948Z</time>
      </trkpt>
      <trkpt lat="43.035015" lon="-1.29121833">
        <ele>1357.0</ele>
        <time>2019-08-01T10:04:34.954Z</time>
      </trkpt>
      <trkpt lat="43.03500833" lon="-1.29120667">
        <ele>1357.0</ele>
        <time>2019-08-01T10:04:35.961Z</time>
      </trkpt>
      <trkpt lat="43.03499833" lon="-1.29119333">
        <ele>1357.0</ele>
        <time>2019-08-01T10:04:36.968Z</time>
      </trkpt>
      <trkpt lat="43.03499" lon="-1.29118333">
        <ele>1357.0</ele>
        <time>2019-08-01T10:04:37.973Z</time>
      </trkpt>
      <trkpt lat="43.03498" lon="-1.29117167">
        <ele>1357.0</ele>
        <time>2019-08-01T10:04:38.981Z</time>
      </trkpt>
      <trkpt lat="43.03497333" lon="-1.29116333">
        <ele>1357.0</ele>
        <time>2019-08-01T10:04:39.988Z</time>
      </trkpt>
      <trkpt lat="43.034965" lon="-1.29115">
        <ele>1357.0</ele>
        <time>2019-08-01T10:04:40.990Z</time>
      </trkpt>
      <trkpt lat="43.03495667" lon="-1.29113667">
        <ele>1357.0</ele>
        <time>2019-08-01T10:04:41.995Z</time>
      </trkpt>
      <trkpt lat="43.03495" lon="-1.29112167">
        <ele>1357.0</ele>
        <time>2019-08-01T10:04:43.003Z</time>
      </trkpt>
      <trkpt lat="43.03494167" lon="-1.29111333">
        <ele>1356.0</ele>
        <time>2019-08-01T10:04:44.009Z</time>
      </trkpt>
      <trkpt lat="43.03493667" lon="-1.29110333">
        <ele>1356.0</ele>
        <time>2019-08-01T10:04:45.014Z</time>
      </trkpt>
      <trkpt lat="43.03493" lon="-1.29109333">
        <ele>1356.0</ele>
        <time>2019-08-01T10:04:46.020Z</time>
      </trkpt>
      <trkpt lat="43.03492167" lon="-1.291085">
        <ele>1355.0</ele>
        <time>2019-08-01T10:04:47.026Z</time>
      </trkpt>
      <trkpt lat="43.034915" lon="-1.29107667">
        <ele>1355.0</ele>
        <time>2019-08-01T10:04:48.031Z</time>
      </trkpt>
      <trkpt lat="43.03490667" lon="-1.29106833">
        <ele>1355.0</ele>
        <time>2019-08-01T10:04:49.033Z</time>
      </trkpt>
      <trkpt lat="43.03489833" lon="-1.29105833">
        <ele>1355.0</ele>
        <time>2019-08-01T10:04:50.039Z</time>
      </trkpt>
      <trkpt lat="43.03489167" lon="-1.29104833">
        <ele>1355.0</ele>
        <time>2019-08-01T10:04:51.043Z</time>
      </trkpt>
      <trkpt lat="43.03488167" lon="-1.29103833">
        <ele>1355.0</ele>
        <time>2019-08-01T10:04:51.923Z</time>
      </trkpt>
      <trkpt lat="43.034875" lon="-1.29103">
        <ele>1355.0</ele>
        <time>2019-08-01T10:04:52.929Z</time>
      </trkpt>
      <trkpt lat="43.034865" lon="-1.29102333">
        <ele>1355.0</ele>
        <time>2019-08-01T10:04:53.936Z</time>
      </trkpt>
      <trkpt lat="43.03485667" lon="-1.291015">
        <ele>1355.0</ele>
        <time>2019-08-01T10:04:54.942Z</time>
      </trkpt>
      <trkpt lat="43.034845" lon="-1.29100833">
        <ele>1356.0</ele>
        <time>2019-08-01T10:04:55.949Z</time>
      </trkpt>
      <trkpt lat="43.034835" lon="-1.29100333">
        <ele>1356.0</ele>
        <time>2019-08-01T10:04:56.956Z</time>
      </trkpt>
      <trkpt lat="43.03482333" lon="-1.29099833">
        <ele>1357.0</ele>
        <time>2019-08-01T10:04:57.960Z</time>
      </trkpt>
      <trkpt lat="43.03481167" lon="-1.29099667">
        <ele>1357.0</ele>
        <time>2019-08-01T10:04:58.964Z</time>
      </trkpt>
      <trkpt lat="43.03479833" lon="-1.290995">
        <ele>1357.0</ele>
        <time>2019-08-01T10:04:59.968Z</time>
      </trkpt>
      <trkpt lat="43.03478667" lon="-1.29099833">
        <ele>1358.0</ele>
        <time>2019-08-01T10:05:00.976Z</time>
      </trkpt>
      <trkpt lat="43.034775" lon="-1.29100333">
        <ele>1358.0</ele>
        <time>2019-08-01T10:05:01.983Z</time>
      </trkpt>
      <trkpt lat="43.03476333" lon="-1.29100833">
        <ele>1358.0</ele>
        <time>2019-08-01T10:05:02.989Z</time>
      </trkpt>
      <trkpt lat="43.03475167" lon="-1.291015">
        <ele>1358.0</ele>
        <time>2019-08-01T10:05:03.993Z</time>
      </trkpt>
      <trkpt lat="43.03474167" lon="-1.29102167">
        <ele>1358.0</ele>
        <time>2019-08-01T10:05:04.997Z</time>
      </trkpt>
      <trkpt lat="43.03473" lon="-1.29102833">
        <ele>1359.0</ele>
        <time>2019-08-01T10:05:06.003Z</time>
      </trkpt>
      <trkpt lat="43.03472" lon="-1.29103833">
        <ele>1359.0</ele>
        <time>2019-08-01T10:05:07.010Z</time>
      </trkpt>
      <trkpt lat="43.03471" lon="-1.29104667">
        <ele>1359.0</ele>
        <time>2019-08-01T10:05:08.015Z</time>
      </trkpt>
      <trkpt lat="43.0347" lon="-1.29105833">
        <ele>1359.0</ele>
        <time>2019-08-01T10:05:09.021Z</time>
      </trkpt>
      <trkpt lat="43.03469167" lon="-1.29107">
        <ele>1359.0</ele>
        <time>2019-08-01T10:05:10.027Z</time>
      </trkpt>
      <trkpt lat="43.03468333" lon="-1.29108333">
        <ele>1359.0</ele>
        <time>2019-08-01T10:05:11.033Z</time>
      </trkpt>
      <trkpt lat="43.034675" lon="-1.29109667">
        <ele>1359.0</ele>
        <time>2019-08-01T10:05:12.038Z</time>
      </trkpt>
      <trkpt lat="43.03466667" lon="-1.29110833">
        <ele>1359.0</ele>
        <time>2019-08-01T10:05:13.041Z</time>
      </trkpt>
      <trkpt lat="43.03466" lon="-1.29112333">
        <ele>1359.0</ele>
        <time>2019-08-01T10:05:13.919Z</time>
      </trkpt>
      <trkpt lat="43.03465667" lon="-1.29113333">
        <ele>1359.0</ele>
        <time>2019-08-01T10:05:14.926Z</time>
      </trkpt>
      <trkpt lat="43.03465167" lon="-1.29115">
        <ele>1359.0</ele>
        <time>2019-08-01T10:05:15.927Z</time>
      </trkpt>
      <trkpt lat="43.03464667" lon="-1.29116667">
        <ele>1359.0</ele>
        <time>2019-08-01T10:05:16.928Z</time>
      </trkpt>
      <trkpt lat="43.03464" lon="-1.29118333">
        <ele>1359.0</ele>
        <time>2019-08-01T10:05:17.932Z</time>
      </trkpt>
      <trkpt lat="43.034635" lon="-1.29119667">
        <ele>1359.0</ele>
        <time>2019-08-01T10:05:18.936Z</time>
      </trkpt>
      <trkpt lat="43.03463" lon="-1.291215">
        <ele>1358.0</ele>
        <time>2019-08-01T10:05:19.941Z</time>
      </trkpt>
      <trkpt lat="43.034625" lon="-1.29122833">
        <ele>1358.0</ele>
        <time>2019-08-01T10:05:20.948Z</time>
      </trkpt>
      <trkpt lat="43.03462167" lon="-1.29124333">
        <ele>1358.0</ele>
        <time>2019-08-01T10:05:21.955Z</time>
      </trkpt>
      <trkpt lat="43.03461833" lon="-1.29125667">
        <ele>1358.0</ele>
        <time>2019-08-01T10:05:22.960Z</time>
      </trkpt>
      <trkpt lat="43.03461333" lon="-1.29127333">
        <ele>1358.0</ele>
        <time>2019-08-01T10:05:23.968Z</time>
      </trkpt>
      <trkpt lat="43.03461" lon="-1.29129">
        <ele>1358.0</ele>
        <time>2019-08-01T10:05:24.974Z</time>
      </trkpt>
      <trkpt lat="43.03460667" lon="-1.291305">
        <ele>1358.0</ele>
        <time>2019-08-01T10:05:25.978Z</time>
      </trkpt>
      <trkpt lat="43.03460333" lon="-1.29132">
        <ele>1358.0</ele>
        <time>2019-08-01T10:05:26.984Z</time>
      </trkpt>
      <trkpt lat="43.0346" lon="-1.29133667">
        <ele>1358.0</ele>
        <time>2019-08-01T10:05:27.989Z</time>
      </trkpt>
      <trkpt lat="43.03459833" lon="-1.29135333">
        <ele>1358.0</ele>
        <time>2019-08-01T10:05:28.995Z</time>
      </trkpt>
      <trkpt lat="43.034595" lon="-1.29136667">
        <ele>1358.0</ele>
        <time>2019-08-01T10:05:30.000Z</time>
      </trkpt>
      <trkpt lat="43.03459167" lon="-1.291385">
        <ele>1358.0</ele>
        <time>2019-08-01T10:05:31.007Z</time>
      </trkpt>
      <trkpt lat="43.03459" lon="-1.29140333">
        <ele>1358.0</ele>
        <time>2019-08-01T10:05:32.012Z</time>
      </trkpt>
      <trkpt lat="43.03458667" lon="-1.29142">
        <ele>1358.0</ele>
        <time>2019-08-01T10:05:33.017Z</time>
      </trkpt>
      <trkpt lat="43.03458333" lon="-1.29143333">
        <ele>1359.0</ele>
        <time>2019-08-01T10:05:34.022Z</time>
      </trkpt>
      <trkpt lat="43.03458167" lon="-1.29145">
        <ele>1359.0</ele>
        <time>2019-08-01T10:05:35.027Z</time>
      </trkpt>
      <trkpt lat="43.03457667" lon="-1.29146333">
        <ele>1359.0</ele>
        <time>2019-08-01T10:05:36.033Z</time>
      </trkpt>
      <trkpt lat="43.03457333" lon="-1.29148">
        <ele>1359.0</ele>
        <time>2019-08-01T10:05:37.039Z</time>
      </trkpt>
      <trkpt lat="43.03457" lon="-1.29149833">
        <ele>1358.0</ele>
        <time>2019-08-01T10:05:37.920Z</time>
      </trkpt>
      <trkpt lat="43.03456667" lon="-1.29151333">
        <ele>1359.0</ele>
        <time>2019-08-01T10:05:38.926Z</time>
      </trkpt>
      <trkpt lat="43.03456333" lon="-1.29153">
        <ele>1359.0</ele>
        <time>2019-08-01T10:05:39.932Z</time>
      </trkpt>
      <trkpt lat="43.03456" lon="-1.29154333">
        <ele>1360.0</ele>
        <time>2019-08-01T10:05:40.939Z</time>
      </trkpt>
      <trkpt lat="43.03455667" lon="-1.29155833">
        <ele>1360.0</ele>
        <time>2019-08-01T10:05:41.944Z</time>
      </trkpt>
      <trkpt lat="43.03455167" lon="-1.29157">
        <ele>1360.0</ele>
        <time>2019-08-01T10:05:42.949Z</time>
      </trkpt>
      <trkpt lat="43.034545" lon="-1.29158">
        <ele>1360.0</ele>
        <time>2019-08-01T10:05:43.957Z</time>
      </trkpt>
      <trkpt lat="43.03453667" lon="-1.29159167">
        <ele>1361.0</ele>
        <time>2019-08-01T10:05:44.964Z</time>
      </trkpt>
      <trkpt lat="43.03453167" lon="-1.291605">
        <ele>1361.0</ele>
        <time>2019-08-01T10:05:45.968Z</time>
      </trkpt>
      <trkpt lat="43.03452667" lon="-1.29162167">
        <ele>1361.0</ele>
        <time>2019-08-01T10:05:46.974Z</time>
      </trkpt>
      <trkpt lat="43.03452" lon="-1.291635">
        <ele>1361.0</ele>
        <time>2019-08-01T10:05:47.980Z</time>
      </trkpt>
      <trkpt lat="43.03451333" lon="-1.29164833">
        <ele>1361.0</ele>
        <time>2019-08-01T10:05:48.987Z</time>
      </trkpt>
      <trkpt lat="43.03450833" lon="-1.29166167">
        <ele>1361.0</ele>
        <time>2019-08-01T10:05:49.993Z</time>
      </trkpt>
      <trkpt lat="43.03450167" lon="-1.291675">
        <ele>1361.0</ele>
        <time>2019-08-01T10:05:51.000Z</time>
      </trkpt>
      <trkpt lat="43.03449167" lon="-1.29168667">
        <ele>1362.0</ele>
        <time>2019-08-01T10:05:52.006Z</time>
      </trkpt>
      <trkpt lat="43.034485" lon="-1.29169667">
        <ele>1363.0</ele>
        <time>2019-08-01T10:05:53.014Z</time>
      </trkpt>
      <trkpt lat="43.03448" lon="-1.29170833">
        <ele>1363.0</ele>
        <time>2019-08-01T10:05:54.021Z</time>
      </trkpt>
      <trkpt lat="43.03447333" lon="-1.29172">
        <ele>1363.0</ele>
        <time>2019-08-01T10:05:55.026Z</time>
      </trkpt>
      <trkpt lat="43.03446667" lon="-1.29173167">
        <ele>1363.0</ele>
        <time>2019-08-01T10:05:56.031Z</time>
      </trkpt>
      <trkpt lat="43.03445833" lon="-1.29174333">
        <ele>1364.0</ele>
        <time>2019-08-01T10:05:57.033Z</time>
      </trkpt>
      <trkpt lat="43.03445" lon="-1.291755">
        <ele>1364.0</ele>
        <time>2019-08-01T10:05:58.033Z</time>
      </trkpt>
      <trkpt lat="43.03444167" lon="-1.29176667">
        <ele>1365.0</ele>
        <time>2019-08-01T10:05:59.039Z</time>
      </trkpt>
      <trkpt lat="43.03443333" lon="-1.29177667">
        <ele>1365.0</ele>
        <time>2019-08-01T10:05:59.920Z</time>
      </trkpt>
      <trkpt lat="43.03442333" lon="-1.29178167">
        <ele>1366.0</ele>
        <time>2019-08-01T10:06:00.926Z</time>
      </trkpt>
      <trkpt lat="43.03441333" lon="-1.29178833">
        <ele>1366.0</ele>
        <time>2019-08-01T10:06:01.931Z</time>
      </trkpt>
      <trkpt lat="43.03440333" lon="-1.29179167">
        <ele>1366.0</ele>
        <time>2019-08-01T10:06:02.936Z</time>
      </trkpt>
      <trkpt lat="43.03439333" lon="-1.29179833">
        <ele>1366.0</ele>
        <time>2019-08-01T10:06:03.939Z</time>
      </trkpt>
      <trkpt lat="43.03438333" lon="-1.29180833">
        <ele>1366.0</ele>
        <time>2019-08-01T10:06:04.942Z</time>
      </trkpt>
      <trkpt lat="43.03437" lon="-1.29181667">
        <ele>1366.0</ele>
        <time>2019-08-01T10:06:05.948Z</time>
      </trkpt>
      <trkpt lat="43.03436" lon="-1.29182333">
        <ele>1366.0</ele>
        <time>2019-08-01T10:06:06.953Z</time>
      </trkpt>
      <trkpt lat="43.03435" lon="-1.29183167">
        <ele>1366.0</ele>
        <time>2019-08-01T10:06:07.957Z</time>
      </trkpt>
      <trkpt lat="43.03433833" lon="-1.291835">
        <ele>1366.0</ele>
        <time>2019-08-01T10:06:08.964Z</time>
      </trkpt>
      <trkpt lat="43.03432667" lon="-1.29184167">
        <ele>1366.0</ele>
        <time>2019-08-01T10:06:09.968Z</time>
      </trkpt>
      <trkpt lat="43.034315" lon="-1.29184667">
        <ele>1367.0</ele>
        <time>2019-08-01T10:06:10.975Z</time>
      </trkpt>
      <trkpt lat="43.03430167" lon="-1.29185">
        <ele>1367.0</ele>
        <time>2019-08-01T10:06:11.981Z</time>
      </trkpt>
      <trkpt lat="43.03428833" lon="-1.29185">
        <ele>1367.0</ele>
        <time>2019-08-01T10:06:12.987Z</time>
      </trkpt>
      <trkpt lat="43.03427667" lon="-1.291855">
        <ele>1367.0</ele>
        <time>2019-08-01T10:06:13.995Z</time>
      </trkpt>
      <trkpt lat="43.034265" lon="-1.29185833">
        <ele>1367.0</ele>
        <time>2019-08-01T10:06:15.002Z</time>
      </trkpt>
      <trkpt lat="43.03425167" lon="-1.29186">
        <ele>1367.0</ele>
        <time>2019-08-01T10:06:16.009Z</time>
      </trkpt>
      <trkpt lat="43.03424" lon="-1.29186333">
        <ele>1367.0</ele>
        <time>2019-08-01T10:06:17.013Z</time>
      </trkpt>
      <trkpt lat="43.034225" lon="-1.291865">
        <ele>1368.0</ele>
        <time>2019-08-01T10:06:18.018Z</time>
      </trkpt>
      <trkpt lat="43.03421333" lon="-1.291865">
        <ele>1367.0</ele>
        <time>2019-08-01T10:06:19.024Z</time>
      </trkpt>
      <trkpt lat="43.0342" lon="-1.29186833">
        <ele>1367.0</ele>
        <time>2019-08-01T10:06:20.029Z</time>
      </trkpt>
      <trkpt lat="43.03418667" lon="-1.29187">
        <ele>1367.0</ele>
        <time>2019-08-01T10:06:21.036Z</time>
      </trkpt>
      <trkpt lat="43.03417167" lon="-1.29187333">
        <ele>1367.0</ele>
        <time>2019-08-01T10:06:22.040Z</time>
      </trkpt>
      <trkpt lat="43.03415833" lon="-1.29187667">
        <ele>1366.0</ele>
        <time>2019-08-01T10:06:22.920Z</time>
      </trkpt>
      <trkpt lat="43.034145" lon="-1.29188333">
        <ele>1366.0</ele>
        <time>2019-08-01T10:06:23.927Z</time>
      </trkpt>
      <trkpt lat="43.03413333" lon="-1.29188667">
        <ele>1366.0</ele>
        <time>2019-08-01T10:06:24.935Z</time>
      </trkpt>
      <trkpt lat="43.03412167" lon="-1.29188833">
        <ele>1366.0</ele>
        <time>2019-08-01T10:06:25.940Z</time>
      </trkpt>
      <trkpt lat="43.034105" lon="-1.29189333">
        <ele>1365.0</ele>
        <time>2019-08-01T10:06:26.946Z</time>
      </trkpt>
      <trkpt lat="43.03409667" lon="-1.2919">
        <ele>1365.0</ele>
        <time>2019-08-01T10:06:27.950Z</time>
      </trkpt>
      <trkpt lat="43.034085" lon="-1.291905">
        <ele>1365.0</ele>
        <time>2019-08-01T10:06:28.956Z</time>
      </trkpt>
      <trkpt lat="43.03407167" lon="-1.29191">
        <ele>1365.0</ele>
        <time>2019-08-01T10:06:29.964Z</time>
      </trkpt>
      <trkpt lat="43.03405667" lon="-1.29191167">
        <ele>1364.0</ele>
        <time>2019-08-01T10:06:30.971Z</time>
      </trkpt>
      <trkpt lat="43.03404333" lon="-1.29191">
        <ele>1364.0</ele>
        <time>2019-08-01T10:06:31.977Z</time>
      </trkpt>
      <trkpt lat="43.03403" lon="-1.29191">
        <ele>1364.0</ele>
        <time>2019-08-01T10:06:32.982Z</time>
      </trkpt>
      <trkpt lat="43.03401667" lon="-1.29191">
        <ele>1365.0</ele>
        <time>2019-08-01T10:06:33.983Z</time>
      </trkpt>
      <trkpt lat="43.03400167" lon="-1.29191167">
        <ele>1365.0</ele>
        <time>2019-08-01T10:06:34.985Z</time>
      </trkpt>
      <trkpt lat="43.03399" lon="-1.29191333">
        <ele>1365.0</ele>
        <time>2019-08-01T10:06:35.990Z</time>
      </trkpt>
      <trkpt lat="43.03397833" lon="-1.29191">
        <ele>1365.0</ele>
        <time>2019-08-01T10:06:36.996Z</time>
      </trkpt>
      <trkpt lat="43.03396667" lon="-1.29190833">
        <ele>1365.0</ele>
        <time>2019-08-01T10:06:38.001Z</time>
      </trkpt>
      <trkpt lat="43.03395333" lon="-1.29190833">
        <ele>1365.0</ele>
        <time>2019-08-01T10:06:39.009Z</time>
      </trkpt>
      <trkpt lat="43.03394" lon="-1.29190833">
        <ele>1365.0</ele>
        <time>2019-08-01T10:06:40.015Z</time>
      </trkpt>
      <trkpt lat="43.03392833" lon="-1.29190833">
        <ele>1365.0</ele>
        <time>2019-08-01T10:06:41.023Z</time>
      </trkpt>
      <trkpt lat="43.033915" lon="-1.29191">
        <ele>1365.0</ele>
        <time>2019-08-01T10:06:42.029Z</time>
      </trkpt>
      <trkpt lat="43.03390333" lon="-1.29191">
        <ele>1366.0</ele>
        <time>2019-08-01T10:06:43.033Z</time>
      </trkpt>
      <trkpt lat="43.03389" lon="-1.29190667">
        <ele>1366.0</ele>
        <time>2019-08-01T10:06:44.037Z</time>
      </trkpt>
      <trkpt lat="43.03387833" lon="-1.29190167">
        <ele>1367.0</ele>
        <time>2019-08-01T10:06:44.919Z</time>
      </trkpt>
      <trkpt lat="43.033865" lon="-1.29189667">
        <ele>1367.0</ele>
        <time>2019-08-01T10:06:45.926Z</time>
      </trkpt>
      <trkpt lat="43.03385" lon="-1.291895">
        <ele>1367.0</ele>
        <time>2019-08-01T10:06:46.932Z</time>
      </trkpt>
      <trkpt lat="43.033835" lon="-1.29189">
        <ele>1368.0</ele>
        <time>2019-08-01T10:06:47.937Z</time>
      </trkpt>
      <trkpt lat="43.03382167" lon="-1.29188667">
        <ele>1368.0</ele>
        <time>2019-08-01T10:06:48.944Z</time>
      </trkpt>
      <trkpt lat="43.03380667" lon="-1.291885">
        <ele>1369.0</ele>
        <time>2019-08-01T10:06:49.950Z</time>
      </trkpt>
      <trkpt lat="43.03379333" lon="-1.29188167">
        <ele>1369.0</ele>
        <time>2019-08-01T10:06:50.956Z</time>
      </trkpt>
      <trkpt lat="43.03378167" lon="-1.29188">
        <ele>1369.0</ele>
        <time>2019-08-01T10:06:51.963Z</time>
      </trkpt>
      <trkpt lat="43.03376833" lon="-1.29187833">
        <ele>1369.0</ele>
        <time>2019-08-01T10:06:52.970Z</time>
      </trkpt>
      <trkpt lat="43.03376" lon="-1.291875">
        <ele>1368.0</ele>
        <time>2019-08-01T10:06:53.976Z</time>
      </trkpt>
      <trkpt lat="43.03374833" lon="-1.29187">
        <ele>1369.0</ele>
        <time>2019-08-01T10:06:54.979Z</time>
      </trkpt>
      <trkpt lat="43.03373833" lon="-1.29186667">
        <ele>1369.0</ele>
        <time>2019-08-01T10:06:55.985Z</time>
      </trkpt>
      <trkpt lat="43.033725" lon="-1.29186667">
        <ele>1369.0</ele>
        <time>2019-08-01T10:06:56.991Z</time>
      </trkpt>
      <trkpt lat="43.03371167" lon="-1.29186167">
        <ele>1369.0</ele>
        <time>2019-08-01T10:06:57.994Z</time>
      </trkpt>
      <trkpt lat="43.03369667" lon="-1.29185667">
        <ele>1369.0</ele>
        <time>2019-08-01T10:06:58.998Z</time>
      </trkpt>
      <trkpt lat="43.033685" lon="-1.29185333">
        <ele>1369.0</ele>
        <time>2019-08-01T10:07:00.005Z</time>
      </trkpt>
      <trkpt lat="43.03367167" lon="-1.29185167">
        <ele>1368.0</ele>
        <time>2019-08-01T10:07:01.011Z</time>
      </trkpt>
      <trkpt lat="43.03365833" lon="-1.29184833">
        <ele>1368.0</ele>
        <time>2019-08-01T10:07:02.018Z</time>
      </trkpt>
      <trkpt lat="43.03364833" lon="-1.291835">
        <ele>1369.0</ele>
        <time>2019-08-01T10:07:03.021Z</time>
      </trkpt>
      <trkpt lat="43.03363667" lon="-1.29182167">
        <ele>1370.0</ele>
        <time>2019-08-01T10:07:04.029Z</time>
      </trkpt>
      <trkpt lat="43.03362667" lon="-1.29181333">
        <ele>1369.0</ele>
        <time>2019-08-01T10:07:05.033Z</time>
      </trkpt>
      <trkpt lat="43.03361167" lon="-1.29180833">
        <ele>1369.0</ele>
        <time>2019-08-01T10:07:06.039Z</time>
      </trkpt>
      <trkpt lat="43.03359833" lon="-1.2918">
        <ele>1369.0</ele>
        <time>2019-08-01T10:07:06.918Z</time>
      </trkpt>
      <trkpt lat="43.033585" lon="-1.29179">
        <ele>1369.0</ele>
        <time>2019-08-01T10:07:07.924Z</time>
      </trkpt>
      <trkpt lat="43.03357167" lon="-1.291785">
        <ele>1369.0</ele>
        <time>2019-08-01T10:07:08.930Z</time>
      </trkpt>
      <trkpt lat="43.03355833" lon="-1.29178167">
        <ele>1369.0</ele>
        <time>2019-08-01T10:07:09.934Z</time>
      </trkpt>
      <trkpt lat="43.033545" lon="-1.29177667">
        <ele>1369.0</ele>
        <time>2019-08-01T10:07:10.941Z</time>
      </trkpt>
      <trkpt lat="43.03353333" lon="-1.29177167">
        <ele>1369.0</ele>
        <time>2019-08-01T10:07:11.948Z</time>
      </trkpt>
      <trkpt lat="43.03352" lon="-1.29176667">
        <ele>1369.0</ele>
        <time>2019-08-01T10:07:12.953Z</time>
      </trkpt>
      <trkpt lat="43.03350833" lon="-1.29176167">
        <ele>1370.0</ele>
        <time>2019-08-01T10:07:13.958Z</time>
      </trkpt>
      <trkpt lat="43.033495" lon="-1.29175667">
        <ele>1370.0</ele>
        <time>2019-08-01T10:07:14.966Z</time>
      </trkpt>
      <trkpt lat="43.033485" lon="-1.29175333">
        <ele>1370.0</ele>
        <time>2019-08-01T10:07:15.973Z</time>
      </trkpt>
      <trkpt lat="43.03347167" lon="-1.29175333">
        <ele>1370.0</ele>
        <time>2019-08-01T10:07:16.978Z</time>
      </trkpt>
      <trkpt lat="43.03346167" lon="-1.29175">
        <ele>1370.0</ele>
        <time>2019-08-01T10:07:17.982Z</time>
      </trkpt>
      <trkpt lat="43.03344667" lon="-1.29174667">
        <ele>1371.0</ele>
        <time>2019-08-01T10:07:18.987Z</time>
      </trkpt>
      <trkpt lat="43.033435" lon="-1.291745">
        <ele>1370.0</ele>
        <time>2019-08-01T10:07:19.991Z</time>
      </trkpt>
      <trkpt lat="43.03342" lon="-1.29174167">
        <ele>1370.0</ele>
        <time>2019-08-01T10:07:20.997Z</time>
      </trkpt>
      <trkpt lat="43.03340667" lon="-1.291735">
        <ele>1370.0</ele>
        <time>2019-08-01T10:07:22.001Z</time>
      </trkpt>
      <trkpt lat="43.033395" lon="-1.29172833">
        <ele>1370.0</ele>
        <time>2019-08-01T10:07:23.007Z</time>
      </trkpt>
      <trkpt lat="43.03338167" lon="-1.29172167">
        <ele>1370.0</ele>
        <time>2019-08-01T10:07:24.012Z</time>
      </trkpt>
      <trkpt lat="43.03336833" lon="-1.291715">
        <ele>1371.0</ele>
        <time>2019-08-01T10:07:25.015Z</time>
      </trkpt>
      <trkpt lat="43.03335667" lon="-1.29171">
        <ele>1371.0</ele>
        <time>2019-08-01T10:07:26.021Z</time>
      </trkpt>
      <trkpt lat="43.033345" lon="-1.29170333">
        <ele>1371.0</ele>
        <time>2019-08-01T10:07:27.027Z</time>
      </trkpt>
      <trkpt lat="43.03333167" lon="-1.29169833">
        <ele>1372.0</ele>
        <time>2019-08-01T10:07:28.032Z</time>
      </trkpt>
      <trkpt lat="43.03331833" lon="-1.29169333">
        <ele>1373.0</ele>
        <time>2019-08-01T10:07:29.039Z</time>
      </trkpt>
      <trkpt lat="43.033305" lon="-1.29169">
        <ele>1373.0</ele>
        <time>2019-08-01T10:07:29.919Z</time>
      </trkpt>
      <trkpt lat="43.03329167" lon="-1.29168667">
        <ele>1374.0</ele>
        <time>2019-08-01T10:07:30.925Z</time>
      </trkpt>
      <trkpt lat="43.03328" lon="-1.29168333">
        <ele>1374.0</ele>
        <time>2019-08-01T10:07:31.933Z</time>
      </trkpt>
      <trkpt lat="43.03327" lon="-1.29167833">
        <ele>1375.0</ele>
        <time>2019-08-01T10:07:32.940Z</time>
      </trkpt>
      <trkpt lat="43.033255" lon="-1.29167833">
        <ele>1375.0</ele>
        <time>2019-08-01T10:07:33.943Z</time>
      </trkpt>
      <trkpt lat="43.03324333" lon="-1.29167667">
        <ele>1375.0</ele>
        <time>2019-08-01T10:07:34.948Z</time>
      </trkpt>
      <trkpt lat="43.03323" lon="-1.29167667">
        <ele>1375.0</ele>
        <time>2019-08-01T10:07:35.956Z</time>
      </trkpt>
      <trkpt lat="43.03322" lon="-1.29167333">
        <ele>1375.0</ele>
        <time>2019-08-01T10:07:36.961Z</time>
      </trkpt>
      <trkpt lat="43.03321" lon="-1.29166833">
        <ele>1376.0</ele>
        <time>2019-08-01T10:07:37.966Z</time>
      </trkpt>
      <trkpt lat="43.03319667" lon="-1.291665">
        <ele>1376.0</ele>
        <time>2019-08-01T10:07:38.971Z</time>
      </trkpt>
      <trkpt lat="43.03318333" lon="-1.29165833">
        <ele>1377.0</ele>
        <time>2019-08-01T10:07:39.978Z</time>
      </trkpt>
      <trkpt lat="43.03317" lon="-1.291655">
        <ele>1377.0</ele>
        <time>2019-08-01T10:07:40.984Z</time>
      </trkpt>
      <trkpt lat="43.03315667" lon="-1.29165667">
        <ele>1376.0</ele>
        <time>2019-08-01T10:07:41.990Z</time>
      </trkpt>
      <trkpt lat="43.033145" lon="-1.29166167">
        <ele>1376.0</ele>
        <time>2019-08-01T10:07:42.999Z</time>
      </trkpt>
      <trkpt lat="43.03313" lon="-1.29166833">
        <ele>1375.0</ele>
        <time>2019-08-01T10:07:44.005Z</time>
      </trkpt>
      <trkpt lat="43.03312" lon="-1.29167333">
        <ele>1375.0</ele>
        <time>2019-08-01T10:07:45.012Z</time>
      </trkpt>
      <trkpt lat="43.03310833" lon="-1.29167333">
        <ele>1376.0</ele>
        <time>2019-08-01T10:07:46.017Z</time>
      </trkpt>
      <trkpt lat="43.03309833" lon="-1.29167667">
        <ele>1376.0</ele>
        <time>2019-08-01T10:07:47.023Z</time>
      </trkpt>
      <trkpt lat="43.03308667" lon="-1.29167833">
        <ele>1376.0</ele>
        <time>2019-08-01T10:07:48.028Z</time>
      </trkpt>
      <trkpt lat="43.033075" lon="-1.29168333">
        <ele>1375.0</ele>
        <time>2019-08-01T10:07:49.033Z</time>
      </trkpt>
      <trkpt lat="43.03306" lon="-1.29168667">
        <ele>1375.0</ele>
        <time>2019-08-01T10:07:50.038Z</time>
      </trkpt>
      <trkpt lat="43.03305" lon="-1.29168833">
        <ele>1375.0</ele>
        <time>2019-08-01T10:07:50.918Z</time>
      </trkpt>
      <trkpt lat="43.03303667" lon="-1.29168833">
        <ele>1375.0</ele>
        <time>2019-08-01T10:07:51.923Z</time>
      </trkpt>
      <trkpt lat="43.033025" lon="-1.29169">
        <ele>1375.0</ele>
        <time>2019-08-01T10:07:52.931Z</time>
      </trkpt>
      <trkpt lat="43.03301167" lon="-1.29169333">
        <ele>1375.0</ele>
        <time>2019-08-01T10:07:53.937Z</time>
      </trkpt>
      <trkpt lat="43.033" lon="-1.29169667">
        <ele>1375.0</ele>
        <time>2019-08-01T10:07:54.939Z</time>
      </trkpt>
      <trkpt lat="43.03299" lon="-1.29169833">
        <ele>1375.0</ele>
        <time>2019-08-01T10:07:55.945Z</time>
      </trkpt>
      <trkpt lat="43.03297833" lon="-1.29170167">
        <ele>1375.0</ele>
        <time>2019-08-01T10:07:56.951Z</time>
      </trkpt>
      <trkpt lat="43.03296833" lon="-1.29170833">
        <ele>1375.0</ele>
        <time>2019-08-01T10:07:57.957Z</time>
      </trkpt>
      <trkpt lat="43.03295667" lon="-1.29171667">
        <ele>1374.0</ele>
        <time>2019-08-01T10:07:58.964Z</time>
      </trkpt>
      <trkpt lat="43.03294667" lon="-1.29172333">
        <ele>1373.0</ele>
        <time>2019-08-01T10:07:59.969Z</time>
      </trkpt>
      <trkpt lat="43.032935" lon="-1.29173">
        <ele>1373.0</ele>
        <time>2019-08-01T10:08:00.974Z</time>
      </trkpt>
      <trkpt lat="43.032925" lon="-1.29173667">
        <ele>1373.0</ele>
        <time>2019-08-01T10:08:01.980Z</time>
      </trkpt>
      <trkpt lat="43.03291333" lon="-1.29174167">
        <ele>1373.0</ele>
        <time>2019-08-01T10:08:02.987Z</time>
      </trkpt>
      <trkpt lat="43.03290167" lon="-1.29174333">
        <ele>1374.0</ele>
        <time>2019-08-01T10:08:03.991Z</time>
      </trkpt>
      <trkpt lat="43.03289" lon="-1.291745">
        <ele>1375.0</ele>
        <time>2019-08-01T10:08:04.997Z</time>
      </trkpt>
      <trkpt lat="43.03287833" lon="-1.29174667">
        <ele>1375.0</ele>
        <time>2019-08-01T10:08:06.004Z</time>
      </trkpt>
      <trkpt lat="43.03286833" lon="-1.29174667">
        <ele>1375.0</ele>
        <time>2019-08-01T10:08:07.011Z</time>
      </trkpt>
      <trkpt lat="43.03286" lon="-1.291745">
        <ele>1376.0</ele>
        <time>2019-08-01T10:08:08.018Z</time>
      </trkpt>
      <trkpt lat="43.03285167" lon="-1.29173833">
        <ele>1376.0</ele>
        <time>2019-08-01T10:08:09.026Z</time>
      </trkpt>
      <trkpt lat="43.032845" lon="-1.291735">
        <ele>1376.0</ele>
        <time>2019-08-01T10:08:10.031Z</time>
      </trkpt>
      <trkpt lat="43.03284333" lon="-1.291735">
        <ele>1376.0</ele>
        <time>2019-08-01T10:08:11.035Z</time>
      </trkpt>
      <trkpt lat="43.03284167" lon="-1.291735">
        <ele>1375.0</ele>
        <time>2019-08-01T10:08:12.041Z</time>
      </trkpt>
      <trkpt lat="43.03284" lon="-1.291735">
        <ele>1375.0</ele>
        <time>2019-08-01T10:08:12.922Z</time>
      </trkpt>
      <trkpt lat="43.03283833" lon="-1.29173833">
        <ele>1375.0</ele>
        <time>2019-08-01T10:08:13.928Z</time>
      </trkpt>
      <trkpt lat="43.03283833" lon="-1.29174167">
        <ele>1376.0</ele>
        <time>2019-08-01T10:08:14.933Z</time>
      </trkpt>
      <trkpt lat="43.03284" lon="-1.291745">
        <ele>1376.0</ele>
        <time>2019-08-01T10:08:15.939Z</time>
      </trkpt>
      <trkpt lat="43.03283833" lon="-1.29174167">
        <ele>1375.0</ele>
        <time>2019-08-01T10:08:16.945Z</time>
      </trkpt>
      <trkpt lat="43.03283833" lon="-1.29174">
        <ele>1374.0</ele>
        <time>2019-08-01T10:08:17.950Z</time>
      </trkpt>
      <trkpt lat="43.03284167" lon="-1.29174">
        <ele>1374.0</ele>
        <time>2019-08-01T10:08:18.957Z</time>
      </trkpt>
      <trkpt lat="43.032845" lon="-1.29174">
        <ele>1374.0</ele>
        <time>2019-08-01T10:08:19.964Z</time>
      </trkpt>
      <trkpt lat="43.03284833" lon="-1.29173833">
        <ele>1373.0</ele>
        <time>2019-08-01T10:08:20.971Z</time>
      </trkpt>
      <trkpt lat="43.03284667" lon="-1.29173833">
        <ele>1373.0</ele>
        <time>2019-08-01T10:08:21.978Z</time>
      </trkpt>
      <trkpt lat="43.03284667" lon="-1.29173833">
        <ele>1372.0</ele>
        <time>2019-08-01T10:08:22.985Z</time>
      </trkpt>
      <trkpt lat="43.03284833" lon="-1.29173667">
        <ele>1372.0</ele>
        <time>2019-08-01T10:08:23.989Z</time>
      </trkpt>
      <trkpt lat="43.03285" lon="-1.29173667">
        <ele>1372.0</ele>
        <time>2019-08-01T10:08:24.995Z</time>
      </trkpt>
      <trkpt lat="43.03285" lon="-1.29174">
        <ele>1371.0</ele>
        <time>2019-08-01T10:08:26.000Z</time>
      </trkpt>
      <trkpt lat="43.03284833" lon="-1.29173833">
        <ele>1371.0</ele>
        <time>2019-08-01T10:08:27.005Z</time>
      </trkpt>
      <trkpt lat="43.03284833" lon="-1.29174">
        <ele>1371.0</ele>
        <time>2019-08-01T10:08:28.011Z</time>
      </trkpt>
      <trkpt lat="43.03284667" lon="-1.29174333">
        <ele>1370.0</ele>
        <time>2019-08-01T10:08:29.014Z</time>
      </trkpt>
      <trkpt lat="43.032845" lon="-1.29174667">
        <ele>1370.0</ele>
        <time>2019-08-01T10:08:30.018Z</time>
      </trkpt>
      <trkpt lat="43.03284333" lon="-1.29175167">
        <ele>1370.0</ele>
        <time>2019-08-01T10:08:31.022Z</time>
      </trkpt>
      <trkpt lat="43.03284333" lon="-1.29175667">
        <ele>1370.0</ele>
        <time>2019-08-01T10:08:32.028Z</time>
      </trkpt>
      <trkpt lat="43.03284333" lon="-1.291755">
        <ele>1370.0</ele>
        <time>2019-08-01T10:08:33.035Z</time>
      </trkpt>
      <trkpt lat="43.032845" lon="-1.29175333">
        <ele>1370.0</ele>
        <time>2019-08-01T10:08:34.037Z</time>
      </trkpt>
      <trkpt lat="43.032845" lon="-1.29175333">
        <ele>1370.0</ele>
        <time>2019-08-01T10:08:35.042Z</time>
      </trkpt>
      <trkpt lat="43.03284667" lon="-1.29175167">
        <ele>1370.0</ele>
        <time>2019-08-01T10:08:35.923Z</time>
      </trkpt>
      <trkpt lat="43.03284667" lon="-1.29174833">
        <ele>1370.0</ele>
        <time>2019-08-01T10:08:36.929Z</time>
      </trkpt>
      <trkpt lat="43.03284667" lon="-1.29174667">
        <ele>1371.0</ele>
        <time>2019-08-01T10:08:37.936Z</time>
      </trkpt>
      <trkpt lat="43.03284833" lon="-1.29174667">
        <ele>1371.0</ele>
        <time>2019-08-01T10:08:38.940Z</time>
      </trkpt>
      <trkpt lat="43.03284833" lon="-1.29174667">
        <ele>1371.0</ele>
        <time>2019-08-01T10:08:39.944Z</time>
      </trkpt>
      <trkpt lat="43.03284833" lon="-1.291745">
        <ele>1371.0</ele>
        <time>2019-08-01T10:08:40.948Z</time>
      </trkpt>
      <trkpt lat="43.03284667" lon="-1.29174333">
        <ele>1372.0</ele>
        <time>2019-08-01T10:08:41.954Z</time>
      </trkpt>
      <trkpt lat="43.03284833" lon="-1.29174">
        <ele>1372.0</ele>
        <time>2019-08-01T10:08:42.959Z</time>
      </trkpt>
      <trkpt lat="43.03285" lon="-1.29174">
        <ele>1372.0</ele>
        <time>2019-08-01T10:08:43.964Z</time>
      </trkpt>
      <trkpt lat="43.03285" lon="-1.29173833">
        <ele>1372.0</ele>
        <time>2019-08-01T10:08:44.973Z</time>
      </trkpt>
      <trkpt lat="43.03285" lon="-1.29173833">
        <ele>1372.0</ele>
        <time>2019-08-01T10:08:45.978Z</time>
      </trkpt>
      <trkpt lat="43.03285" lon="-1.29173833">
        <ele>1372.0</ele>
        <time>2019-08-01T10:08:46.981Z</time>
      </trkpt>
      <trkpt lat="43.03285" lon="-1.291735">
        <ele>1372.0</ele>
        <time>2019-08-01T10:08:47.987Z</time>
      </trkpt>
      <trkpt lat="43.03285" lon="-1.29173333">
        <ele>1372.0</ele>
        <time>2019-08-01T10:08:48.993Z</time>
      </trkpt>
      <trkpt lat="43.03285" lon="-1.291735">
        <ele>1372.0</ele>
        <time>2019-08-01T10:08:50.000Z</time>
      </trkpt>
      <trkpt lat="43.03284833" lon="-1.29173667">
        <ele>1372.0</ele>
        <time>2019-08-01T10:08:51.007Z</time>
      </trkpt>
      <trkpt lat="43.03284833" lon="-1.29173667">
        <ele>1373.0</ele>
        <time>2019-08-01T10:08:52.013Z</time>
      </trkpt>
      <trkpt lat="43.03284833" lon="-1.29173667">
        <ele>1373.0</ele>
        <time>2019-08-01T10:08:53.019Z</time>
      </trkpt>
      <trkpt lat="43.03285" lon="-1.29173667">
        <ele>1373.0</ele>
        <time>2019-08-01T10:08:54.026Z</time>
      </trkpt>
      <trkpt lat="43.03285" lon="-1.29173667">
        <ele>1373.0</ele>
        <time>2019-08-01T10:08:55.033Z</time>
      </trkpt>
      <trkpt lat="43.03285167" lon="-1.29173833">
        <ele>1372.0</ele>
        <time>2019-08-01T10:08:56.039Z</time>
      </trkpt>
      <trkpt lat="43.03285167" lon="-1.29174">
        <ele>1372.0</ele>
        <time>2019-08-01T10:08:56.918Z</time>
      </trkpt>
      <trkpt lat="43.03284833" lon="-1.29174">
        <ele>1372.0</ele>
        <time>2019-08-01T10:08:57.925Z</time>
      </trkpt>
      <trkpt lat="43.03284667" lon="-1.29173833">
        <ele>1372.0</ele>
        <time>2019-08-01T10:08:58.931Z</time>
      </trkpt>
      <trkpt lat="43.032845" lon="-1.29174">
        <ele>1372.0</ele>
        <time>2019-08-01T10:08:59.939Z</time>
      </trkpt>
      <trkpt lat="43.03284333" lon="-1.29174167">
        <ele>1372.0</ele>
        <time>2019-08-01T10:09:00.944Z</time>
      </trkpt>
      <trkpt lat="43.03284167" lon="-1.29174333">
        <ele>1372.0</ele>
        <time>2019-08-01T10:09:01.948Z</time>
      </trkpt>
      <trkpt lat="43.03283833" lon="-1.29174333">
        <ele>1372.0</ele>
        <time>2019-08-01T10:09:02.954Z</time>
      </trkpt>
      <trkpt lat="43.03283667" lon="-1.29174833">
        <ele>1372.0</ele>
        <time>2019-08-01T10:09:03.960Z</time>
      </trkpt>
      <trkpt lat="43.03283333" lon="-1.29174833">
        <ele>1372.0</ele>
        <time>2019-08-01T10:09:04.965Z</time>
      </trkpt>
      <trkpt lat="43.03283333" lon="-1.29174833">
        <ele>1372.0</ele>
        <time>2019-08-01T10:09:05.973Z</time>
      </trkpt>
      <trkpt lat="43.03283167" lon="-1.29175">
        <ele>1373.0</ele>
        <time>2019-08-01T10:09:06.978Z</time>
      </trkpt>
      <trkpt lat="43.03283" lon="-1.29175333">
        <ele>1373.0</ele>
        <time>2019-08-01T10:09:07.984Z</time>
      </trkpt>
      <trkpt lat="43.03283" lon="-1.29175833">
        <ele>1373.0</ele>
        <time>2019-08-01T10:09:08.987Z</time>
      </trkpt>
      <trkpt lat="43.03283167" lon="-1.29175667">
        <ele>1373.0</ele>
        <time>2019-08-01T10:09:09.992Z</time>
      </trkpt>
      <trkpt lat="43.03283167" lon="-1.29175333">
        <ele>1373.0</ele>
        <time>2019-08-01T10:09:10.998Z</time>
      </trkpt>
      <trkpt lat="43.03283333" lon="-1.29175333">
        <ele>1373.0</ele>
        <time>2019-08-01T10:09:12.004Z</time>
      </trkpt>
      <trkpt lat="43.03283667" lon="-1.29175333">
        <ele>1373.0</ele>
        <time>2019-08-01T10:09:13.012Z</time>
      </trkpt>
      <trkpt lat="43.03283833" lon="-1.29175167">
        <ele>1373.0</ele>
        <time>2019-08-01T10:09:14.018Z</time>
      </trkpt>
      <trkpt lat="43.032835" lon="-1.29175167">
        <ele>1373.0</ele>
        <time>2019-08-01T10:09:15.025Z</time>
      </trkpt>
      <trkpt lat="43.03283667" lon="-1.29174833">
        <ele>1373.0</ele>
        <time>2019-08-01T10:09:16.032Z</time>
      </trkpt>
      <trkpt lat="43.03283667" lon="-1.29174833">
        <ele>1373.0</ele>
        <time>2019-08-01T10:09:17.039Z</time>
      </trkpt>
      <trkpt lat="43.03283833" lon="-1.29174667">
        <ele>1373.0</ele>
        <time>2019-08-01T10:09:17.921Z</time>
      </trkpt>
      <trkpt lat="43.03284167" lon="-1.29174833">
        <ele>1373.0</ele>
        <time>2019-08-01T10:09:18.928Z</time>
      </trkpt>
      <trkpt lat="43.03284167" lon="-1.29174833">
        <ele>1373.0</ele>
        <time>2019-08-01T10:09:19.935Z</time>
      </trkpt>
      <trkpt lat="43.03284" lon="-1.29174833">
        <ele>1373.0</ele>
        <time>2019-08-01T10:09:20.940Z</time>
      </trkpt>
      <trkpt lat="43.03284" lon="-1.29174667">
        <ele>1374.0</ele>
        <time>2019-08-01T10:09:21.945Z</time>
      </trkpt>
      <trkpt lat="43.03284" lon="-1.291745">
        <ele>1373.0</ele>
        <time>2019-08-01T10:09:22.949Z</time>
      </trkpt>
      <trkpt lat="43.03284167" lon="-1.29174167">
        <ele>1373.0</ele>
        <time>2019-08-01T10:09:23.956Z</time>
      </trkpt>
      <trkpt lat="43.03284333" lon="-1.29174167">
        <ele>1373.0</ele>
        <time>2019-08-01T10:09:24.960Z</time>
      </trkpt>
      <trkpt lat="43.03284833" lon="-1.29174333">
        <ele>1373.0</ele>
        <time>2019-08-01T10:09:25.966Z</time>
      </trkpt>
      <trkpt lat="43.03284833" lon="-1.29174833">
        <ele>1372.0</ele>
        <time>2019-08-01T10:09:26.975Z</time>
      </trkpt>
      <trkpt lat="43.03284667" lon="-1.29175167">
        <ele>1372.0</ele>
        <time>2019-08-01T10:09:27.980Z</time>
      </trkpt>
      <trkpt lat="43.032845" lon="-1.29174667">
        <ele>1372.0</ele>
        <time>2019-08-01T10:09:28.988Z</time>
      </trkpt>
      <trkpt lat="43.03284833" lon="-1.29174333">
        <ele>1371.0</ele>
        <time>2019-08-01T10:09:29.994Z</time>
      </trkpt>
      <trkpt lat="43.03284667" lon="-1.29174167">
        <ele>1372.0</ele>
        <time>2019-08-01T10:09:31.000Z</time>
      </trkpt>
      <trkpt lat="43.03284833" lon="-1.29174167">
        <ele>1372.0</ele>
        <time>2019-08-01T10:09:32.003Z</time>
      </trkpt>
      <trkpt lat="43.03284667" lon="-1.29174">
        <ele>1372.0</ele>
        <time>2019-08-01T10:09:33.010Z</time>
      </trkpt>
      <trkpt lat="43.03284333" lon="-1.29174">
        <ele>1372.0</ele>
        <time>2019-08-01T10:09:34.013Z</time>
      </trkpt>
      <trkpt lat="43.03284333" lon="-1.29174167">
        <ele>1372.0</ele>
        <time>2019-08-01T10:09:35.017Z</time>
      </trkpt>
      <trkpt lat="43.03284333" lon="-1.29174167">
        <ele>1372.0</ele>
        <time>2019-08-01T10:09:36.023Z</time>
      </trkpt>
      <trkpt lat="43.03284167" lon="-1.29174">
        <ele>1372.0</ele>
        <time>2019-08-01T10:09:37.029Z</time>
      </trkpt>
      <trkpt lat="43.03284167" lon="-1.29174">
        <ele>1372.0</ele>
        <time>2019-08-01T10:09:38.037Z</time>
      </trkpt>
      <trkpt lat="43.03284167" lon="-1.29173833">
        <ele>1373.0</ele>
        <time>2019-08-01T10:09:39.040Z</time>
      </trkpt>
      <trkpt lat="43.03284167" lon="-1.29173833">
        <ele>1372.0</ele>
        <time>2019-08-01T10:09:39.920Z</time>
      </trkpt>
      <trkpt lat="43.03284167" lon="-1.29173667">
        <ele>1372.0</ele>
        <time>2019-08-01T10:09:40.928Z</time>
      </trkpt>
      <trkpt lat="43.032845" lon="-1.29173667">
        <ele>1372.0</ele>
        <time>2019-08-01T10:09:41.934Z</time>
      </trkpt>
      <trkpt lat="43.03284667" lon="-1.29173833">
        <ele>1372.0</ele>
        <time>2019-08-01T10:09:42.939Z</time>
      </trkpt>
      <trkpt lat="43.03284667" lon="-1.29174167">
        <ele>1372.0</ele>
        <time>2019-08-01T10:09:43.946Z</time>
      </trkpt>
      <trkpt lat="43.03284833" lon="-1.29174333">
        <ele>1372.0</ele>
        <time>2019-08-01T10:09:44.953Z</time>
      </trkpt>
      <trkpt lat="43.03284667" lon="-1.29174333">
        <ele>1372.0</ele>
        <time>2019-08-01T10:09:45.958Z</time>
      </trkpt>
      <trkpt lat="43.03284833" lon="-1.29174667">
        <ele>1372.0</ele>
        <time>2019-08-01T10:09:46.963Z</time>
      </trkpt>
      <trkpt lat="43.03284667" lon="-1.29175">
        <ele>1372.0</ele>
        <time>2019-08-01T10:09:47.969Z</time>
      </trkpt>
      <trkpt lat="43.03284" lon="-1.29175167">
        <ele>1372.0</ele>
        <time>2019-08-01T10:09:48.976Z</time>
      </trkpt>
      <trkpt lat="43.03283833" lon="-1.29175">
        <ele>1372.0</ele>
        <time>2019-08-01T10:09:49.983Z</time>
      </trkpt>
      <trkpt lat="43.03283833" lon="-1.29174833">
        <ele>1372.0</ele>
        <time>2019-08-01T10:09:50.990Z</time>
      </trkpt>
      <trkpt lat="43.03283667" lon="-1.291745">
        <ele>1372.0</ele>
        <time>2019-08-01T10:09:51.995Z</time>
      </trkpt>
      <trkpt lat="43.032835" lon="-1.29174333">
        <ele>1372.0</ele>
        <time>2019-08-01T10:09:53.000Z</time>
      </trkpt>
      <trkpt lat="43.03283667" lon="-1.29174167">
        <ele>1372.0</ele>
        <time>2019-08-01T10:09:54.006Z</time>
      </trkpt>
      <trkpt lat="43.03283667" lon="-1.29173833">
        <ele>1373.0</ele>
        <time>2019-08-01T10:09:55.013Z</time>
      </trkpt>
      <trkpt lat="43.03283667" lon="-1.291735">
        <ele>1373.0</ele>
        <time>2019-08-01T10:09:56.020Z</time>
      </trkpt>
      <trkpt lat="43.032835" lon="-1.29173333">
        <ele>1373.0</ele>
        <time>2019-08-01T10:09:57.025Z</time>
      </trkpt>
      <trkpt lat="43.032835" lon="-1.291735">
        <ele>1373.0</ele>
        <time>2019-08-01T10:09:58.030Z</time>
      </trkpt>
      <trkpt lat="43.032835" lon="-1.29173833">
        <ele>1373.0</ele>
        <time>2019-08-01T10:09:59.036Z</time>
      </trkpt>
      <trkpt lat="43.032835" lon="-1.29174">
        <ele>1373.0</ele>
        <time>2019-08-01T10:09:59.918Z</time>
      </trkpt>
      <trkpt lat="43.03283667" lon="-1.29174333">
        <ele>1373.0</ele>
        <time>2019-08-01T10:10:00.924Z</time>
      </trkpt>
      <trkpt lat="43.03283667" lon="-1.291745">
        <ele>1373.0</ele>
        <time>2019-08-01T10:10:01.932Z</time>
      </trkpt>
      <trkpt lat="43.03283833" lon="-1.29174667">
        <ele>1372.0</ele>
        <time>2019-08-01T10:10:02.937Z</time>
      </trkpt>
      <trkpt lat="43.03283667" lon="-1.29174833">
        <ele>1372.0</ele>
        <time>2019-08-01T10:10:03.944Z</time>
      </trkpt>
      <trkpt lat="43.03283833" lon="-1.291745">
        <ele>1372.0</ele>
        <time>2019-08-01T10:10:04.950Z</time>
      </trkpt>
      <trkpt lat="43.03283833" lon="-1.29174333">
        <ele>1372.0</ele>
        <time>2019-08-01T10:10:05.955Z</time>
      </trkpt>
      <trkpt lat="43.03283833" lon="-1.291745">
        <ele>1372.0</ele>
        <time>2019-08-01T10:10:06.960Z</time>
      </trkpt>
      <trkpt lat="43.03283833" lon="-1.29174333">
        <ele>1372.0</ele>
        <time>2019-08-01T10:10:07.967Z</time>
      </trkpt>
      <trkpt lat="43.03284" lon="-1.29174333">
        <ele>1372.0</ele>
        <time>2019-08-01T10:10:08.974Z</time>
      </trkpt>
      <trkpt lat="43.03284167" lon="-1.291745">
        <ele>1371.0</ele>
        <time>2019-08-01T10:10:09.980Z</time>
      </trkpt>
      <trkpt lat="43.03284167" lon="-1.29174833">
        <ele>1371.0</ele>
        <time>2019-08-01T10:10:10.986Z</time>
      </trkpt>
      <trkpt lat="43.03283667" lon="-1.29175333">
        <ele>1371.0</ele>
        <time>2019-08-01T10:10:11.991Z</time>
      </trkpt>
      <trkpt lat="43.03283333" lon="-1.29175833">
        <ele>1371.0</ele>
        <time>2019-08-01T10:10:12.996Z</time>
      </trkpt>
      <trkpt lat="43.03282833" lon="-1.291765">
        <ele>1371.0</ele>
        <time>2019-08-01T10:10:14.004Z</time>
      </trkpt>
      <trkpt lat="43.03282167" lon="-1.29177">
        <ele>1371.0</ele>
        <time>2019-08-01T10:10:15.010Z</time>
      </trkpt>
      <trkpt lat="43.03281167" lon="-1.29177667">
        <ele>1371.0</ele>
        <time>2019-08-01T10:10:16.016Z</time>
      </trkpt>
      <trkpt lat="43.032805" lon="-1.29178333">
        <ele>1371.0</ele>
        <time>2019-08-01T10:10:17.021Z</time>
      </trkpt>
      <trkpt lat="43.032795" lon="-1.29178833">
        <ele>1371.0</ele>
        <time>2019-08-01T10:10:18.025Z</time>
      </trkpt>
      <trkpt lat="43.032785" lon="-1.291795">
        <ele>1371.0</ele>
        <time>2019-08-01T10:10:19.031Z</time>
      </trkpt>
      <trkpt lat="43.03277667" lon="-1.2918">
        <ele>1371.0</ele>
        <time>2019-08-01T10:10:20.037Z</time>
      </trkpt>
      <trkpt lat="43.03276833" lon="-1.291805">
        <ele>1372.0</ele>
        <time>2019-08-01T10:10:21.043Z</time>
      </trkpt>
      <trkpt lat="43.03275833" lon="-1.29181167">
        <ele>1372.0</ele>
        <time>2019-08-01T10:10:21.925Z</time>
      </trkpt>
      <trkpt lat="43.03275167" lon="-1.29181833">
        <ele>1372.0</ele>
        <time>2019-08-01T10:10:22.929Z</time>
      </trkpt>
      <trkpt lat="43.03274" lon="-1.29182667">
        <ele>1372.0</ele>
        <time>2019-08-01T10:10:23.934Z</time>
      </trkpt>
      <trkpt lat="43.03273167" lon="-1.291835">
        <ele>1372.0</ele>
        <time>2019-08-01T10:10:24.939Z</time>
      </trkpt>
      <trkpt lat="43.03272333" lon="-1.29184333">
        <ele>1372.0</ele>
        <time>2019-08-01T10:10:25.945Z</time>
      </trkpt>
      <trkpt lat="43.03271667" lon="-1.291855">
        <ele>1372.0</ele>
        <time>2019-08-01T10:10:26.950Z</time>
      </trkpt>
      <trkpt lat="43.03271" lon="-1.291865">
        <ele>1372.0</ele>
        <time>2019-08-01T10:10:27.955Z</time>
      </trkpt>
      <trkpt lat="43.0327" lon="-1.29187333">
        <ele>1372.0</ele>
        <time>2019-08-01T10:10:28.961Z</time>
      </trkpt>
      <trkpt lat="43.03268833" lon="-1.29188333">
        <ele>1373.0</ele>
        <time>2019-08-01T10:10:29.969Z</time>
      </trkpt>
      <trkpt lat="43.03268" lon="-1.29189">
        <ele>1373.0</ele>
        <time>2019-08-01T10:10:30.976Z</time>
      </trkpt>
      <trkpt lat="43.03266833" lon="-1.29189833">
        <ele>1374.0</ele>
        <time>2019-08-01T10:10:31.982Z</time>
      </trkpt>
      <trkpt lat="43.03266167" lon="-1.29190833">
        <ele>1374.0</ele>
        <time>2019-08-01T10:10:32.989Z</time>
      </trkpt>
      <trkpt lat="43.03265333" lon="-1.29191833">
        <ele>1374.0</ele>
        <time>2019-08-01T10:10:33.995Z</time>
      </trkpt>
      <trkpt lat="43.032645" lon="-1.29193">
        <ele>1374.0</ele>
        <time>2019-08-01T10:10:35.000Z</time>
      </trkpt>
      <trkpt lat="43.03263667" lon="-1.29194">
        <ele>1375.0</ele>
        <time>2019-08-01T10:10:36.005Z</time>
      </trkpt>
      <trkpt lat="43.03262833" lon="-1.29195167">
        <ele>1375.0</ele>
        <time>2019-08-01T10:10:37.012Z</time>
      </trkpt>
      <trkpt lat="43.03262167" lon="-1.29196167">
        <ele>1375.0</ele>
        <time>2019-08-01T10:10:38.017Z</time>
      </trkpt>
      <trkpt lat="43.03261333" lon="-1.29197333">
        <ele>1376.0</ele>
        <time>2019-08-01T10:10:39.023Z</time>
      </trkpt>
      <trkpt lat="43.032605" lon="-1.29198333">
        <ele>1375.0</ele>
        <time>2019-08-01T10:10:40.031Z</time>
      </trkpt>
      <trkpt lat="43.032595" lon="-1.291995">
        <ele>1375.0</ele>
        <time>2019-08-01T10:10:41.033Z</time>
      </trkpt>
      <trkpt lat="43.03258833" lon="-1.29200667">
        <ele>1375.0</ele>
        <time>2019-08-01T10:10:42.039Z</time>
      </trkpt>
      <trkpt lat="43.03257833" lon="-1.29202">
        <ele>1375.0</ele>
        <time>2019-08-01T10:10:42.920Z</time>
      </trkpt>
      <trkpt lat="43.03257" lon="-1.29203167">
        <ele>1375.0</ele>
        <time>2019-08-01T10:10:43.926Z</time>
      </trkpt>
      <trkpt lat="43.03256" lon="-1.29204333">
        <ele>1375.0</ele>
        <time>2019-08-01T10:10:44.933Z</time>
      </trkpt>
      <trkpt lat="43.03255167" lon="-1.29205333">
        <ele>1376.0</ele>
        <time>2019-08-01T10:10:45.940Z</time>
      </trkpt>
      <trkpt lat="43.03254333" lon="-1.29206333">
        <ele>1376.0</ele>
        <time>2019-08-01T10:10:46.946Z</time>
      </trkpt>
      <trkpt lat="43.03253333" lon="-1.29207167">
        <ele>1376.0</ele>
        <time>2019-08-01T10:10:47.953Z</time>
      </trkpt>
      <trkpt lat="43.032525" lon="-1.29208167">
        <ele>1376.0</ele>
        <time>2019-08-01T10:10:48.960Z</time>
      </trkpt>
      <trkpt lat="43.03251667" lon="-1.29209167">
        <ele>1376.0</ele>
        <time>2019-08-01T10:10:49.967Z</time>
      </trkpt>
      <trkpt lat="43.03250667" lon="-1.292105">
        <ele>1376.0</ele>
        <time>2019-08-01T10:10:50.974Z</time>
      </trkpt>
      <trkpt lat="43.03249833" lon="-1.29211667">
        <ele>1376.0</ele>
        <time>2019-08-01T10:10:51.981Z</time>
      </trkpt>
      <trkpt lat="43.03248667" lon="-1.29212667">
        <ele>1377.0</ele>
        <time>2019-08-01T10:10:52.987Z</time>
      </trkpt>
      <trkpt lat="43.03247833" lon="-1.29214">
        <ele>1377.0</ele>
        <time>2019-08-01T10:10:53.993Z</time>
      </trkpt>
      <trkpt lat="43.03246833" lon="-1.292155">
        <ele>1377.0</ele>
        <time>2019-08-01T10:10:54.999Z</time>
      </trkpt>
      <trkpt lat="43.03246333" lon="-1.29216167">
        <ele>1378.0</ele>
        <time>2019-08-01T10:10:56.003Z</time>
      </trkpt>
      <trkpt lat="43.03245333" lon="-1.292175">
        <ele>1378.0</ele>
        <time>2019-08-01T10:10:57.009Z</time>
      </trkpt>
      <trkpt lat="43.03244667" lon="-1.29218333">
        <ele>1378.0</ele>
        <time>2019-08-01T10:10:58.016Z</time>
      </trkpt>
      <trkpt lat="43.03243667" lon="-1.292195">
        <ele>1378.0</ele>
        <time>2019-08-01T10:10:59.024Z</time>
      </trkpt>
      <trkpt lat="43.03242667" lon="-1.29220167">
        <ele>1378.0</ele>
        <time>2019-08-01T10:11:00.029Z</time>
      </trkpt>
      <trkpt lat="43.03241833" lon="-1.292215">
        <ele>1378.0</ele>
        <time>2019-08-01T10:11:01.034Z</time>
      </trkpt>
      <trkpt lat="43.03241" lon="-1.292225">
        <ele>1379.0</ele>
        <time>2019-08-01T10:11:02.042Z</time>
      </trkpt>
      <trkpt lat="43.03240333" lon="-1.29223333">
        <ele>1378.0</ele>
        <time>2019-08-01T10:11:02.922Z</time>
      </trkpt>
      <trkpt lat="43.03239167" lon="-1.29224167">
        <ele>1379.0</ele>
        <time>2019-08-01T10:11:03.925Z</time>
      </trkpt>
      <trkpt lat="43.03238167" lon="-1.29225">
        <ele>1379.0</ele>
        <time>2019-08-01T10:11:04.928Z</time>
      </trkpt>
      <trkpt lat="43.03237167" lon="-1.29225833">
        <ele>1380.0</ele>
        <time>2019-08-01T10:11:05.934Z</time>
      </trkpt>
      <trkpt lat="43.032365" lon="-1.29226333">
        <ele>1380.0</ele>
        <time>2019-08-01T10:11:06.937Z</time>
      </trkpt>
      <trkpt lat="43.03235667" lon="-1.29227">
        <ele>1380.0</ele>
        <time>2019-08-01T10:11:07.940Z</time>
      </trkpt>
      <trkpt lat="43.03234667" lon="-1.29227833">
        <ele>1380.0</ele>
        <time>2019-08-01T10:11:08.945Z</time>
      </trkpt>
      <trkpt lat="43.03233833" lon="-1.29228667">
        <ele>1381.0</ele>
        <time>2019-08-01T10:11:09.950Z</time>
      </trkpt>
      <trkpt lat="43.03233333" lon="-1.29229333">
        <ele>1382.0</ele>
        <time>2019-08-01T10:11:10.957Z</time>
      </trkpt>
      <trkpt lat="43.03232" lon="-1.292305">
        <ele>1382.0</ele>
        <time>2019-08-01T10:11:11.964Z</time>
      </trkpt>
      <trkpt lat="43.03231333" lon="-1.29231333">
        <ele>1382.0</ele>
        <time>2019-08-01T10:11:12.971Z</time>
      </trkpt>
      <trkpt lat="43.0323" lon="-1.292325">
        <ele>1383.0</ele>
        <time>2019-08-01T10:11:13.979Z</time>
      </trkpt>
      <trkpt lat="43.03229167" lon="-1.29233167">
        <ele>1383.0</ele>
        <time>2019-08-01T10:11:14.986Z</time>
      </trkpt>
      <trkpt lat="43.03228167" lon="-1.29234167">
        <ele>1383.0</ele>
        <time>2019-08-01T10:11:15.992Z</time>
      </trkpt>
      <trkpt lat="43.03227333" lon="-1.29235">
        <ele>1383.0</ele>
        <time>2019-08-01T10:11:16.999Z</time>
      </trkpt>
      <trkpt lat="43.03226167" lon="-1.29236">
        <ele>1383.0</ele>
        <time>2019-08-01T10:11:18.004Z</time>
      </trkpt>
      <trkpt lat="43.03224833" lon="-1.29236833">
        <ele>1383.0</ele>
        <time>2019-08-01T10:11:19.007Z</time>
      </trkpt>
      <trkpt lat="43.03224167" lon="-1.292375">
        <ele>1383.0</ele>
        <time>2019-08-01T10:11:20.012Z</time>
      </trkpt>
      <trkpt lat="43.03223167" lon="-1.29238833">
        <ele>1384.0</ele>
        <time>2019-08-01T10:11:21.018Z</time>
      </trkpt>
      <trkpt lat="43.03221833" lon="-1.29239667">
        <ele>1385.0</ele>
        <time>2019-08-01T10:11:22.025Z</time>
      </trkpt>
      <trkpt lat="43.03221" lon="-1.292405">
        <ele>1385.0</ele>
        <time>2019-08-01T10:11:23.031Z</time>
      </trkpt>
      <trkpt lat="43.03219833" lon="-1.292415">
        <ele>1384.0</ele>
        <time>2019-08-01T10:11:24.035Z</time>
      </trkpt>
      <trkpt lat="43.03218833" lon="-1.29242667">
        <ele>1384.0</ele>
        <time>2019-08-01T10:11:25.039Z</time>
      </trkpt>
      <trkpt lat="43.03218" lon="-1.29243333">
        <ele>1385.0</ele>
        <time>2019-08-01T10:11:25.920Z</time>
      </trkpt>
      <trkpt lat="43.03217333" lon="-1.29243667">
        <ele>1385.0</ele>
        <time>2019-08-01T10:11:26.927Z</time>
      </trkpt>
      <trkpt lat="43.032165" lon="-1.29244333">
        <ele>1385.0</ele>
        <time>2019-08-01T10:11:27.931Z</time>
      </trkpt>
      <trkpt lat="43.03215333" lon="-1.29245167">
        <ele>1386.0</ele>
        <time>2019-08-01T10:11:28.938Z</time>
      </trkpt>
      <trkpt lat="43.032145" lon="-1.29245667">
        <ele>1387.0</ele>
        <time>2019-08-01T10:11:29.946Z</time>
      </trkpt>
      <trkpt lat="43.03213667" lon="-1.29246667">
        <ele>1387.0</ele>
        <time>2019-08-01T10:11:30.952Z</time>
      </trkpt>
      <trkpt lat="43.03213" lon="-1.292475">
        <ele>1388.0</ele>
        <time>2019-08-01T10:11:31.958Z</time>
      </trkpt>
      <trkpt lat="43.03212" lon="-1.29248167">
        <ele>1388.0</ele>
        <time>2019-08-01T10:11:32.964Z</time>
      </trkpt>
      <trkpt lat="43.03210833" lon="-1.29249">
        <ele>1389.0</ele>
        <time>2019-08-01T10:11:33.969Z</time>
      </trkpt>
      <trkpt lat="43.0321" lon="-1.29249333">
        <ele>1390.0</ele>
        <time>2019-08-01T10:11:34.974Z</time>
      </trkpt>
      <trkpt lat="43.03208833" lon="-1.2925">
        <ele>1390.0</ele>
        <time>2019-08-01T10:11:35.981Z</time>
      </trkpt>
      <trkpt lat="43.03208167" lon="-1.29250333">
        <ele>1391.0</ele>
        <time>2019-08-01T10:11:36.987Z</time>
      </trkpt>
      <trkpt lat="43.03207" lon="-1.29251167">
        <ele>1391.0</ele>
        <time>2019-08-01T10:11:37.993Z</time>
      </trkpt>
      <trkpt lat="43.03206167" lon="-1.29251833">
        <ele>1391.0</ele>
        <time>2019-08-01T10:11:39.001Z</time>
      </trkpt>
      <trkpt lat="43.03205333" lon="-1.29253">
        <ele>1392.0</ele>
        <time>2019-08-01T10:11:40.009Z</time>
      </trkpt>
      <trkpt lat="43.03204833" lon="-1.29253833">
        <ele>1392.0</ele>
        <time>2019-08-01T10:11:41.013Z</time>
      </trkpt>
      <trkpt lat="43.03203833" lon="-1.29254833">
        <ele>1392.0</ele>
        <time>2019-08-01T10:11:42.018Z</time>
      </trkpt>
      <trkpt lat="43.03203" lon="-1.292555">
        <ele>1393.0</ele>
        <time>2019-08-01T10:11:43.025Z</time>
      </trkpt>
      <trkpt lat="43.03202167" lon="-1.292565">
        <ele>1393.0</ele>
        <time>2019-08-01T10:11:44.031Z</time>
      </trkpt>
      <trkpt lat="43.03201333" lon="-1.292575">
        <ele>1393.0</ele>
        <time>2019-08-01T10:11:45.037Z</time>
      </trkpt>
      <trkpt lat="43.03200333" lon="-1.29258167">
        <ele>1393.0</ele>
        <time>2019-08-01T10:11:46.043Z</time>
      </trkpt>
      <trkpt lat="43.03199167" lon="-1.29259">
        <ele>1393.0</ele>
        <time>2019-08-01T10:11:46.923Z</time>
      </trkpt>
      <trkpt lat="43.03198333" lon="-1.2926">
        <ele>1393.0</ele>
        <time>2019-08-01T10:11:47.930Z</time>
      </trkpt>
      <trkpt lat="43.03197667" lon="-1.29260833">
        <ele>1394.0</ele>
        <time>2019-08-01T10:11:48.935Z</time>
      </trkpt>
      <trkpt lat="43.03196667" lon="-1.29261833">
        <ele>1394.0</ele>
        <time>2019-08-01T10:11:49.943Z</time>
      </trkpt>
      <trkpt lat="43.03196167" lon="-1.292625">
        <ele>1395.0</ele>
        <time>2019-08-01T10:11:50.948Z</time>
      </trkpt>
      <trkpt lat="43.03195667" lon="-1.29263667">
        <ele>1395.0</ele>
        <time>2019-08-01T10:11:51.953Z</time>
      </trkpt>
      <trkpt lat="43.03194833" lon="-1.292645">
        <ele>1395.0</ele>
        <time>2019-08-01T10:11:52.958Z</time>
      </trkpt>
      <trkpt lat="43.03193833" lon="-1.29265667">
        <ele>1395.0</ele>
        <time>2019-08-01T10:11:53.964Z</time>
      </trkpt>
      <trkpt lat="43.03193" lon="-1.292665">
        <ele>1396.0</ele>
        <time>2019-08-01T10:11:54.970Z</time>
      </trkpt>
      <trkpt lat="43.03192333" lon="-1.29267667">
        <ele>1396.0</ele>
        <time>2019-08-01T10:11:55.976Z</time>
      </trkpt>
      <trkpt lat="43.03191833" lon="-1.29268333">
        <ele>1397.0</ele>
        <time>2019-08-01T10:11:56.983Z</time>
      </trkpt>
      <trkpt lat="43.03191" lon="-1.29269167">
        <ele>1397.0</ele>
        <time>2019-08-01T10:11:57.990Z</time>
      </trkpt>
      <trkpt lat="43.03190167" lon="-1.292705">
        <ele>1398.0</ele>
        <time>2019-08-01T10:11:58.994Z</time>
      </trkpt>
      <trkpt lat="43.031895" lon="-1.29271167">
        <ele>1398.0</ele>
        <time>2019-08-01T10:11:59.996Z</time>
      </trkpt>
      <trkpt lat="43.03188667" lon="-1.29272">
        <ele>1399.0</ele>
        <time>2019-08-01T10:12:01.004Z</time>
      </trkpt>
      <trkpt lat="43.03187667" lon="-1.29273167">
        <ele>1399.0</ele>
        <time>2019-08-01T10:12:02.008Z</time>
      </trkpt>
      <trkpt lat="43.03187" lon="-1.29274333">
        <ele>1400.0</ele>
        <time>2019-08-01T10:12:03.014Z</time>
      </trkpt>
      <trkpt lat="43.03186333" lon="-1.292755">
        <ele>1399.0</ele>
        <time>2019-08-01T10:12:04.017Z</time>
      </trkpt>
      <trkpt lat="43.03185667" lon="-1.29276167">
        <ele>1399.0</ele>
        <time>2019-08-01T10:12:05.025Z</time>
      </trkpt>
      <trkpt lat="43.03184833" lon="-1.29277333">
        <ele>1399.0</ele>
        <time>2019-08-01T10:12:06.031Z</time>
      </trkpt>
      <trkpt lat="43.03184" lon="-1.29278167">
        <ele>1399.0</ele>
        <time>2019-08-01T10:12:07.037Z</time>
      </trkpt>
      <trkpt lat="43.03183" lon="-1.29279167">
        <ele>1399.0</ele>
        <time>2019-08-01T10:12:07.918Z</time>
      </trkpt>
      <trkpt lat="43.03182167" lon="-1.292805">
        <ele>1399.0</ele>
        <time>2019-08-01T10:12:08.925Z</time>
      </trkpt>
      <trkpt lat="43.031815" lon="-1.29281667">
        <ele>1399.0</ele>
        <time>2019-08-01T10:12:09.929Z</time>
      </trkpt>
      <trkpt lat="43.03181" lon="-1.29282667">
        <ele>1398.0</ele>
        <time>2019-08-01T10:12:10.933Z</time>
      </trkpt>
      <trkpt lat="43.0318" lon="-1.29283833">
        <ele>1399.0</ele>
        <time>2019-08-01T10:12:11.940Z</time>
      </trkpt>
      <trkpt lat="43.03179167" lon="-1.29285">
        <ele>1399.0</ele>
        <time>2019-08-01T10:12:12.946Z</time>
      </trkpt>
      <trkpt lat="43.031785" lon="-1.29286333">
        <ele>1399.0</ele>
        <time>2019-08-01T10:12:13.950Z</time>
      </trkpt>
      <trkpt lat="43.03177667" lon="-1.29287333">
        <ele>1399.0</ele>
        <time>2019-08-01T10:12:14.956Z</time>
      </trkpt>
      <trkpt lat="43.03176833" lon="-1.292885">
        <ele>1399.0</ele>
        <time>2019-08-01T10:12:15.961Z</time>
      </trkpt>
      <trkpt lat="43.03175667" lon="-1.292895">
        <ele>1399.0</ele>
        <time>2019-08-01T10:12:16.967Z</time>
      </trkpt>
      <trkpt lat="43.03174833" lon="-1.29290833">
        <ele>1399.0</ele>
        <time>2019-08-01T10:12:17.972Z</time>
      </trkpt>
      <trkpt lat="43.03174" lon="-1.29291833">
        <ele>1400.0</ele>
        <time>2019-08-01T10:12:18.977Z</time>
      </trkpt>
      <trkpt lat="43.03173167" lon="-1.29292667">
        <ele>1400.0</ele>
        <time>2019-08-01T10:12:19.983Z</time>
      </trkpt>
      <trkpt lat="43.031725" lon="-1.29293833">
        <ele>1400.0</ele>
        <time>2019-08-01T10:12:20.988Z</time>
      </trkpt>
      <trkpt lat="43.03171667" lon="-1.29295">
        <ele>1400.0</ele>
        <time>2019-08-01T10:12:21.993Z</time>
      </trkpt>
      <trkpt lat="43.03170833" lon="-1.29296">
        <ele>1400.0</ele>
        <time>2019-08-01T10:12:22.997Z</time>
      </trkpt>
      <trkpt lat="43.0317" lon="-1.29297">
        <ele>1400.0</ele>
        <time>2019-08-01T10:12:24.001Z</time>
      </trkpt>
      <trkpt lat="43.03169333" lon="-1.29298333">
        <ele>1400.0</ele>
        <time>2019-08-01T10:12:25.005Z</time>
      </trkpt>
      <trkpt lat="43.03168667" lon="-1.29299">
        <ele>1401.0</ele>
        <time>2019-08-01T10:12:26.011Z</time>
      </trkpt>
      <trkpt lat="43.03168" lon="-1.29300333">
        <ele>1400.0</ele>
        <time>2019-08-01T10:12:27.018Z</time>
      </trkpt>
      <trkpt lat="43.03167" lon="-1.29301333">
        <ele>1400.0</ele>
        <time>2019-08-01T10:12:28.024Z</time>
      </trkpt>
      <trkpt lat="43.03166333" lon="-1.29302333">
        <ele>1399.0</ele>
        <time>2019-08-01T10:12:29.027Z</time>
      </trkpt>
      <trkpt lat="43.03165667" lon="-1.29303667">
        <ele>1399.0</ele>
        <time>2019-08-01T10:12:30.033Z</time>
      </trkpt>
      <trkpt lat="43.03164667" lon="-1.29304833">
        <ele>1399.0</ele>
        <time>2019-08-01T10:12:31.039Z</time>
      </trkpt>
      <trkpt lat="43.03163833" lon="-1.29306333">
        <ele>1399.0</ele>
        <time>2019-08-01T10:12:31.920Z</time>
      </trkpt>
      <trkpt lat="43.03162833" lon="-1.293075">
        <ele>1399.0</ele>
        <time>2019-08-01T10:12:32.926Z</time>
      </trkpt>
      <trkpt lat="43.03162" lon="-1.29308667">
        <ele>1399.0</ele>
        <time>2019-08-01T10:12:33.933Z</time>
      </trkpt>
      <trkpt lat="43.03161333" lon="-1.29309333">
        <ele>1399.0</ele>
        <time>2019-08-01T10:12:34.939Z</time>
      </trkpt>
      <trkpt lat="43.031605" lon="-1.29310333">
        <ele>1399.0</ele>
        <time>2019-08-01T10:12:35.947Z</time>
      </trkpt>
      <trkpt lat="43.03159833" lon="-1.29311333">
        <ele>1399.0</ele>
        <time>2019-08-01T10:12:36.954Z</time>
      </trkpt>
      <trkpt lat="43.03159" lon="-1.293125">
        <ele>1400.0</ele>
        <time>2019-08-01T10:12:37.959Z</time>
      </trkpt>
      <trkpt lat="43.03158333" lon="-1.29313667">
        <ele>1399.0</ele>
        <time>2019-08-01T10:12:38.966Z</time>
      </trkpt>
      <trkpt lat="43.03157667" lon="-1.29314667">
        <ele>1400.0</ele>
        <time>2019-08-01T10:12:39.973Z</time>
      </trkpt>
      <trkpt lat="43.03157" lon="-1.29315833">
        <ele>1400.0</ele>
        <time>2019-08-01T10:12:40.978Z</time>
      </trkpt>
      <trkpt lat="43.03156" lon="-1.29316833">
        <ele>1400.0</ele>
        <time>2019-08-01T10:12:41.982Z</time>
      </trkpt>
      <trkpt lat="43.03155333" lon="-1.29318167">
        <ele>1400.0</ele>
        <time>2019-08-01T10:12:42.988Z</time>
      </trkpt>
      <trkpt lat="43.03154333" lon="-1.2932">
        <ele>1400.0</ele>
        <time>2019-08-01T10:12:43.993Z</time>
      </trkpt>
      <trkpt lat="43.03153667" lon="-1.29321333">
        <ele>1400.0</ele>
        <time>2019-08-01T10:12:45.001Z</time>
      </trkpt>
      <trkpt lat="43.03152667" lon="-1.29322333">
        <ele>1400.0</ele>
        <time>2019-08-01T10:12:46.007Z</time>
      </trkpt>
      <trkpt lat="43.03151833" lon="-1.29323333">
        <ele>1400.0</ele>
        <time>2019-08-01T10:12:47.014Z</time>
      </trkpt>
      <trkpt lat="43.03150833" lon="-1.29324833">
        <ele>1399.0</ele>
        <time>2019-08-01T10:12:48.019Z</time>
      </trkpt>
      <trkpt lat="43.0315" lon="-1.29326">
        <ele>1399.0</ele>
        <time>2019-08-01T10:12:49.025Z</time>
      </trkpt>
      <trkpt lat="43.03149167" lon="-1.29327333">
        <ele>1399.0</ele>
        <time>2019-08-01T10:12:50.030Z</time>
      </trkpt>
      <trkpt lat="43.03148167" lon="-1.293285">
        <ele>1399.0</ele>
        <time>2019-08-01T10:12:51.036Z</time>
      </trkpt>
      <trkpt lat="43.03147333" lon="-1.29329833">
        <ele>1399.0</ele>
        <time>2019-08-01T10:12:52.041Z</time>
      </trkpt>
      <trkpt lat="43.03146333" lon="-1.29331167">
        <ele>1399.0</ele>
        <time>2019-08-01T10:12:52.921Z</time>
      </trkpt>
      <trkpt lat="43.03145167" lon="-1.29332333">
        <ele>1400.0</ele>
        <time>2019-08-01T10:12:53.928Z</time>
      </trkpt>
      <trkpt lat="43.03144333" lon="-1.29333167">
        <ele>1400.0</ele>
        <time>2019-08-01T10:12:54.936Z</time>
      </trkpt>
      <trkpt lat="43.031435" lon="-1.29334167">
        <ele>1400.0</ele>
        <time>2019-08-01T10:12:55.941Z</time>
      </trkpt>
      <trkpt lat="43.031425" lon="-1.29335167">
        <ele>1400.0</ele>
        <time>2019-08-01T10:12:56.948Z</time>
      </trkpt>
      <trkpt lat="43.03141833" lon="-1.293365">
        <ele>1400.0</ele>
        <time>2019-08-01T10:12:57.955Z</time>
      </trkpt>
      <trkpt lat="43.03140833" lon="-1.29337667">
        <ele>1400.0</ele>
        <time>2019-08-01T10:12:58.958Z</time>
      </trkpt>
      <trkpt lat="43.03139667" lon="-1.29339">
        <ele>1400.0</ele>
        <time>2019-08-01T10:12:59.962Z</time>
      </trkpt>
      <trkpt lat="43.03138833" lon="-1.2934">
        <ele>1399.0</ele>
        <time>2019-08-01T10:13:00.969Z</time>
      </trkpt>
      <trkpt lat="43.03137833" lon="-1.29341">
        <ele>1399.0</ele>
        <time>2019-08-01T10:13:01.975Z</time>
      </trkpt>
      <trkpt lat="43.03137" lon="-1.29342">
        <ele>1399.0</ele>
        <time>2019-08-01T10:13:02.982Z</time>
      </trkpt>
      <trkpt lat="43.031365" lon="-1.29343">
        <ele>1399.0</ele>
        <time>2019-08-01T10:13:03.987Z</time>
      </trkpt>
      <trkpt lat="43.03135333" lon="-1.29344333">
        <ele>1399.0</ele>
        <time>2019-08-01T10:13:04.991Z</time>
      </trkpt>
      <trkpt lat="43.03134667" lon="-1.29345">
        <ele>1399.0</ele>
        <time>2019-08-01T10:13:05.998Z</time>
      </trkpt>
      <trkpt lat="43.031335" lon="-1.29345833">
        <ele>1399.0</ele>
        <time>2019-08-01T10:13:07.005Z</time>
      </trkpt>
      <trkpt lat="43.031325" lon="-1.293465">
        <ele>1399.0</ele>
        <time>2019-08-01T10:13:08.010Z</time>
      </trkpt>
      <trkpt lat="43.031315" lon="-1.29347">
        <ele>1399.0</ele>
        <time>2019-08-01T10:13:09.016Z</time>
      </trkpt>
      <trkpt lat="43.031305" lon="-1.29347833">
        <ele>1399.0</ele>
        <time>2019-08-01T10:13:10.020Z</time>
      </trkpt>
      <trkpt lat="43.03129333" lon="-1.293485">
        <ele>1399.0</ele>
        <time>2019-08-01T10:13:11.026Z</time>
      </trkpt>
      <trkpt lat="43.03128" lon="-1.29349667">
        <ele>1399.0</ele>
        <time>2019-08-01T10:13:12.031Z</time>
      </trkpt>
      <trkpt lat="43.03127167" lon="-1.29350333">
        <ele>1399.0</ele>
        <time>2019-08-01T10:13:13.037Z</time>
      </trkpt>
      <trkpt lat="43.03126167" lon="-1.29351333">
        <ele>1400.0</ele>
        <time>2019-08-01T10:13:13.919Z</time>
      </trkpt>
      <trkpt lat="43.03125333" lon="-1.29352333">
        <ele>1400.0</ele>
        <time>2019-08-01T10:13:14.923Z</time>
      </trkpt>
      <trkpt lat="43.03124167" lon="-1.29353">
        <ele>1400.0</ele>
        <time>2019-08-01T10:13:15.930Z</time>
      </trkpt>
      <trkpt lat="43.03123167" lon="-1.29353833">
        <ele>1401.0</ele>
        <time>2019-08-01T10:13:16.936Z</time>
      </trkpt>
      <trkpt lat="43.03122" lon="-1.29354833">
        <ele>1401.0</ele>
        <time>2019-08-01T10:13:17.943Z</time>
      </trkpt>
      <trkpt lat="43.03121" lon="-1.29355833">
        <ele>1401.0</ele>
        <time>2019-08-01T10:13:18.951Z</time>
      </trkpt>
      <trkpt lat="43.03119833" lon="-1.293575">
        <ele>1400.0</ele>
        <time>2019-08-01T10:13:19.957Z</time>
      </trkpt>
      <trkpt lat="43.03119333" lon="-1.293585">
        <ele>1400.0</ele>
        <time>2019-08-01T10:13:20.965Z</time>
      </trkpt>
      <trkpt lat="43.03118333" lon="-1.29360167">
        <ele>1399.0</ele>
        <time>2019-08-01T10:13:21.972Z</time>
      </trkpt>
      <trkpt lat="43.03117333" lon="-1.29361333">
        <ele>1399.0</ele>
        <time>2019-08-01T10:13:22.979Z</time>
      </trkpt>
      <trkpt lat="43.03116167" lon="-1.293625">
        <ele>1399.0</ele>
        <time>2019-08-01T10:13:23.981Z</time>
      </trkpt>
      <trkpt lat="43.03115" lon="-1.293635">
        <ele>1400.0</ele>
        <time>2019-08-01T10:13:24.986Z</time>
      </trkpt>
      <trkpt lat="43.03113833" lon="-1.29364167">
        <ele>1401.0</ele>
        <time>2019-08-01T10:13:25.990Z</time>
      </trkpt>
      <trkpt lat="43.03112833" lon="-1.29364833">
        <ele>1401.0</ele>
        <time>2019-08-01T10:13:26.995Z</time>
      </trkpt>
      <trkpt lat="43.03112" lon="-1.293655">
        <ele>1401.0</ele>
        <time>2019-08-01T10:13:28.001Z</time>
      </trkpt>
      <trkpt lat="43.03111167" lon="-1.293665">
        <ele>1401.0</ele>
        <time>2019-08-01T10:13:29.007Z</time>
      </trkpt>
      <trkpt lat="43.0311" lon="-1.29367667">
        <ele>1401.0</ele>
        <time>2019-08-01T10:13:30.013Z</time>
      </trkpt>
      <trkpt lat="43.03109" lon="-1.29368333">
        <ele>1401.0</ele>
        <time>2019-08-01T10:13:31.019Z</time>
      </trkpt>
      <trkpt lat="43.03108" lon="-1.293695">
        <ele>1401.0</ele>
        <time>2019-08-01T10:13:32.025Z</time>
      </trkpt>
      <trkpt lat="43.03106833" lon="-1.29371167">
        <ele>1401.0</ele>
        <time>2019-08-01T10:13:33.030Z</time>
      </trkpt>
      <trkpt lat="43.03106" lon="-1.29372167">
        <ele>1401.0</ele>
        <time>2019-08-01T10:13:34.036Z</time>
      </trkpt>
      <trkpt lat="43.03105" lon="-1.293735">
        <ele>1401.0</ele>
        <time>2019-08-01T10:13:35.043Z</time>
      </trkpt>
      <trkpt lat="43.03104" lon="-1.29374667">
        <ele>1401.0</ele>
        <time>2019-08-01T10:13:35.923Z</time>
      </trkpt>
      <trkpt lat="43.03103167" lon="-1.29375833">
        <ele>1401.0</ele>
        <time>2019-08-01T10:13:36.930Z</time>
      </trkpt>
      <trkpt lat="43.03102167" lon="-1.293775">
        <ele>1401.0</ele>
        <time>2019-08-01T10:13:37.935Z</time>
      </trkpt>
      <trkpt lat="43.03101167" lon="-1.29378167">
        <ele>1401.0</ele>
        <time>2019-08-01T10:13:38.942Z</time>
      </trkpt>
      <trkpt lat="43.031" lon="-1.29379167">
        <ele>1401.0</ele>
        <time>2019-08-01T10:13:39.949Z</time>
      </trkpt>
      <trkpt lat="43.03099333" lon="-1.29379667">
        <ele>1402.0</ele>
        <time>2019-08-01T10:13:40.957Z</time>
      </trkpt>
      <trkpt lat="43.030985" lon="-1.29380667">
        <ele>1402.0</ele>
        <time>2019-08-01T10:13:41.965Z</time>
      </trkpt>
      <trkpt lat="43.030975" lon="-1.29381667">
        <ele>1402.0</ele>
        <time>2019-08-01T10:13:42.973Z</time>
      </trkpt>
      <trkpt lat="43.030965" lon="-1.29383">
        <ele>1403.0</ele>
        <time>2019-08-01T10:13:43.978Z</time>
      </trkpt>
      <trkpt lat="43.030955" lon="-1.293845">
        <ele>1403.0</ele>
        <time>2019-08-01T10:13:44.981Z</time>
      </trkpt>
      <trkpt lat="43.03094833" lon="-1.293855">
        <ele>1403.0</ele>
        <time>2019-08-01T10:13:45.986Z</time>
      </trkpt>
      <trkpt lat="43.03094" lon="-1.29386667">
        <ele>1403.0</ele>
        <time>2019-08-01T10:13:46.991Z</time>
      </trkpt>
      <trkpt lat="43.03093167" lon="-1.29388333">
        <ele>1403.0</ele>
        <time>2019-08-01T10:13:47.997Z</time>
      </trkpt>
      <trkpt lat="43.030925" lon="-1.293895">
        <ele>1402.0</ele>
        <time>2019-08-01T10:13:49.004Z</time>
      </trkpt>
      <trkpt lat="43.030915" lon="-1.29391333">
        <ele>1403.0</ele>
        <time>2019-08-01T10:13:50.010Z</time>
      </trkpt>
      <trkpt lat="43.03090833" lon="-1.293925">
        <ele>1403.0</ele>
        <time>2019-08-01T10:13:51.015Z</time>
      </trkpt>
      <trkpt lat="43.03089833" lon="-1.29394167">
        <ele>1403.0</ele>
        <time>2019-08-01T10:13:52.021Z</time>
      </trkpt>
      <trkpt lat="43.03088833" lon="-1.29395667">
        <ele>1403.0</ele>
        <time>2019-08-01T10:13:53.027Z</time>
      </trkpt>
      <trkpt lat="43.03088333" lon="-1.29397">
        <ele>1403.0</ele>
        <time>2019-08-01T10:13:54.033Z</time>
      </trkpt>
      <trkpt lat="43.03087333" lon="-1.293985">
        <ele>1403.0</ele>
        <time>2019-08-01T10:13:55.040Z</time>
      </trkpt>
      <trkpt lat="43.03086833" lon="-1.29399833">
        <ele>1404.0</ele>
        <time>2019-08-01T10:13:55.920Z</time>
      </trkpt>
      <trkpt lat="43.030865" lon="-1.29401">
        <ele>1405.0</ele>
        <time>2019-08-01T10:13:56.927Z</time>
      </trkpt>
      <trkpt lat="43.03086" lon="-1.29402333">
        <ele>1405.0</ele>
        <time>2019-08-01T10:13:57.931Z</time>
      </trkpt>
      <trkpt lat="43.03085667" lon="-1.29404">
        <ele>1405.0</ele>
        <time>2019-08-01T10:13:58.936Z</time>
      </trkpt>
      <trkpt lat="43.03085333" lon="-1.29406">
        <ele>1406.0</ele>
        <time>2019-08-01T10:13:59.943Z</time>
      </trkpt>
      <trkpt lat="43.03085167" lon="-1.29407833">
        <ele>1406.0</ele>
        <time>2019-08-01T10:14:00.950Z</time>
      </trkpt>
      <trkpt lat="43.03084833" lon="-1.294095">
        <ele>1406.0</ele>
        <time>2019-08-01T10:14:01.955Z</time>
      </trkpt>
      <trkpt lat="43.030845" lon="-1.29410833">
        <ele>1406.0</ele>
        <time>2019-08-01T10:14:02.961Z</time>
      </trkpt>
      <trkpt lat="43.03084167" lon="-1.29412333">
        <ele>1406.0</ele>
        <time>2019-08-01T10:14:03.967Z</time>
      </trkpt>
      <trkpt lat="43.03083833" lon="-1.29413833">
        <ele>1407.0</ele>
        <time>2019-08-01T10:14:04.972Z</time>
      </trkpt>
      <trkpt lat="43.030835" lon="-1.29415333">
        <ele>1407.0</ele>
        <time>2019-08-01T10:14:05.978Z</time>
      </trkpt>
      <trkpt lat="43.03083167" lon="-1.29417167">
        <ele>1406.0</ele>
        <time>2019-08-01T10:14:06.983Z</time>
      </trkpt>
      <trkpt lat="43.03082833" lon="-1.29419">
        <ele>1407.0</ele>
        <time>2019-08-01T10:14:07.989Z</time>
      </trkpt>
      <trkpt lat="43.03082667" lon="-1.29421167">
        <ele>1406.0</ele>
        <time>2019-08-01T10:14:08.993Z</time>
      </trkpt>
      <trkpt lat="43.03082667" lon="-1.29423">
        <ele>1406.0</ele>
        <time>2019-08-01T10:14:09.999Z</time>
      </trkpt>
      <trkpt lat="43.030825" lon="-1.29424833">
        <ele>1406.0</ele>
        <time>2019-08-01T10:14:11.004Z</time>
      </trkpt>
      <trkpt lat="43.03082333" lon="-1.29426833">
        <ele>1406.0</ele>
        <time>2019-08-01T10:14:12.010Z</time>
      </trkpt>
      <trkpt lat="43.03082333" lon="-1.294285">
        <ele>1406.0</ele>
        <time>2019-08-01T10:14:13.016Z</time>
      </trkpt>
      <trkpt lat="43.03082" lon="-1.29430333">
        <ele>1406.0</ele>
        <time>2019-08-01T10:14:14.022Z</time>
      </trkpt>
      <trkpt lat="43.03082" lon="-1.29432167">
        <ele>1406.0</ele>
        <time>2019-08-01T10:14:15.028Z</time>
      </trkpt>
      <trkpt lat="43.03081833" lon="-1.29434333">
        <ele>1406.0</ele>
        <time>2019-08-01T10:14:16.031Z</time>
      </trkpt>
      <trkpt lat="43.03081667" lon="-1.29436">
        <ele>1405.0</ele>
        <time>2019-08-01T10:14:17.035Z</time>
      </trkpt>
      <trkpt lat="43.03081333" lon="-1.29437833">
        <ele>1405.0</ele>
        <time>2019-08-01T10:14:18.038Z</time>
      </trkpt>
      <trkpt lat="43.03081" lon="-1.29439333">
        <ele>1405.0</ele>
        <time>2019-08-01T10:14:19.042Z</time>
      </trkpt>
      <trkpt lat="43.030805" lon="-1.29441">
        <ele>1405.0</ele>
        <time>2019-08-01T10:14:19.922Z</time>
      </trkpt>
      <trkpt lat="43.03080167" lon="-1.29442667">
        <ele>1405.0</ele>
        <time>2019-08-01T10:14:20.926Z</time>
      </trkpt>
      <trkpt lat="43.030795" lon="-1.294445">
        <ele>1405.0</ele>
        <time>2019-08-01T10:14:21.933Z</time>
      </trkpt>
      <trkpt lat="43.03079" lon="-1.29446333">
        <ele>1406.0</ele>
        <time>2019-08-01T10:14:22.939Z</time>
      </trkpt>
      <trkpt lat="43.030785" lon="-1.29448167">
        <ele>1406.0</ele>
        <time>2019-08-01T10:14:23.944Z</time>
      </trkpt>
      <trkpt lat="43.03078" lon="-1.29449833">
        <ele>1406.0</ele>
        <time>2019-08-01T10:14:24.949Z</time>
      </trkpt>
      <trkpt lat="43.03077333" lon="-1.29451333">
        <ele>1406.0</ele>
        <time>2019-08-01T10:14:25.954Z</time>
      </trkpt>
      <trkpt lat="43.03077" lon="-1.29453333">
        <ele>1406.0</ele>
        <time>2019-08-01T10:14:26.960Z</time>
      </trkpt>
      <trkpt lat="43.030765" lon="-1.29455333">
        <ele>1406.0</ele>
        <time>2019-08-01T10:14:27.966Z</time>
      </trkpt>
      <trkpt lat="43.03076" lon="-1.29457">
        <ele>1407.0</ele>
        <time>2019-08-01T10:14:28.970Z</time>
      </trkpt>
      <trkpt lat="43.03075667" lon="-1.294585">
        <ele>1407.0</ele>
        <time>2019-08-01T10:14:29.976Z</time>
      </trkpt>
      <trkpt lat="43.03075167" lon="-1.29460667">
        <ele>1406.0</ele>
        <time>2019-08-01T10:14:30.981Z</time>
      </trkpt>
      <trkpt lat="43.03074833" lon="-1.29462333">
        <ele>1406.0</ele>
        <time>2019-08-01T10:14:31.988Z</time>
      </trkpt>
      <trkpt lat="43.03074667" lon="-1.294645">
        <ele>1406.0</ele>
        <time>2019-08-01T10:14:32.993Z</time>
      </trkpt>
      <trkpt lat="43.030745" lon="-1.29466333">
        <ele>1405.0</ele>
        <time>2019-08-01T10:14:34.000Z</time>
      </trkpt>
      <trkpt lat="43.03074167" lon="-1.29468">
        <ele>1405.0</ele>
        <time>2019-08-01T10:14:35.005Z</time>
      </trkpt>
      <trkpt lat="43.03074167" lon="-1.29469833">
        <ele>1405.0</ele>
        <time>2019-08-01T10:14:36.011Z</time>
      </trkpt>
      <trkpt lat="43.03074" lon="-1.294715">
        <ele>1405.0</ele>
        <time>2019-08-01T10:14:37.017Z</time>
      </trkpt>
      <trkpt lat="43.030735" lon="-1.29473167">
        <ele>1405.0</ele>
        <time>2019-08-01T10:14:38.023Z</time>
      </trkpt>
      <trkpt lat="43.03073167" lon="-1.29474833">
        <ele>1405.0</ele>
        <time>2019-08-01T10:14:39.028Z</time>
      </trkpt>
      <trkpt lat="43.03072833" lon="-1.29476833">
        <ele>1404.0</ele>
        <time>2019-08-01T10:14:40.033Z</time>
      </trkpt>
      <trkpt lat="43.03072667" lon="-1.294785">
        <ele>1404.0</ele>
        <time>2019-08-01T10:14:41.039Z</time>
      </trkpt>
      <trkpt lat="43.030725" lon="-1.29480167">
        <ele>1404.0</ele>
        <time>2019-08-01T10:14:41.920Z</time>
      </trkpt>
      <trkpt lat="43.03072333" lon="-1.29481667">
        <ele>1404.0</ele>
        <time>2019-08-01T10:14:42.925Z</time>
      </trkpt>
      <trkpt lat="43.03072" lon="-1.29483333">
        <ele>1405.0</ele>
        <time>2019-08-01T10:14:43.930Z</time>
      </trkpt>
      <trkpt lat="43.03071667" lon="-1.29485">
        <ele>1405.0</ele>
        <time>2019-08-01T10:14:44.937Z</time>
      </trkpt>
      <trkpt lat="43.03071333" lon="-1.29486667">
        <ele>1406.0</ele>
        <time>2019-08-01T10:14:45.945Z</time>
      </trkpt>
      <trkpt lat="43.03071" lon="-1.294885">
        <ele>1406.0</ele>
        <time>2019-08-01T10:14:46.950Z</time>
      </trkpt>
      <trkpt lat="43.03070667" lon="-1.29490333">
        <ele>1406.0</ele>
        <time>2019-08-01T10:14:47.956Z</time>
      </trkpt>
      <trkpt lat="43.03070333" lon="-1.294925">
        <ele>1406.0</ele>
        <time>2019-08-01T10:14:48.959Z</time>
      </trkpt>
      <trkpt lat="43.03069833" lon="-1.29494167">
        <ele>1406.0</ele>
        <time>2019-08-01T10:14:49.961Z</time>
      </trkpt>
      <trkpt lat="43.03069667" lon="-1.29496167">
        <ele>1406.0</ele>
        <time>2019-08-01T10:14:50.965Z</time>
      </trkpt>
      <trkpt lat="43.030695" lon="-1.29497833">
        <ele>1406.0</ele>
        <time>2019-08-01T10:14:51.971Z</time>
      </trkpt>
      <trkpt lat="43.03069" lon="-1.29499667">
        <ele>1405.0</ele>
        <time>2019-08-01T10:14:52.979Z</time>
      </trkpt>
      <trkpt lat="43.03068333" lon="-1.29501333">
        <ele>1405.0</ele>
        <time>2019-08-01T10:14:53.986Z</time>
      </trkpt>
      <trkpt lat="43.03067667" lon="-1.29503">
        <ele>1406.0</ele>
        <time>2019-08-01T10:14:54.990Z</time>
      </trkpt>
      <trkpt lat="43.03067" lon="-1.295045">
        <ele>1406.0</ele>
        <time>2019-08-01T10:14:55.997Z</time>
      </trkpt>
      <trkpt lat="43.03066333" lon="-1.29505833">
        <ele>1407.0</ele>
        <time>2019-08-01T10:14:57.004Z</time>
      </trkpt>
      <trkpt lat="43.030655" lon="-1.29507333">
        <ele>1408.0</ele>
        <time>2019-08-01T10:14:58.011Z</time>
      </trkpt>
      <trkpt lat="43.03064833" lon="-1.29508667">
        <ele>1407.0</ele>
        <time>2019-08-01T10:14:59.018Z</time>
      </trkpt>
      <trkpt lat="43.03063833" lon="-1.2951">
        <ele>1407.0</ele>
        <time>2019-08-01T10:15:00.024Z</time>
      </trkpt>
      <trkpt lat="43.03062833" lon="-1.29510833">
        <ele>1407.0</ele>
        <time>2019-08-01T10:15:01.029Z</time>
      </trkpt>
      <trkpt lat="43.03061667" lon="-1.29512">
        <ele>1407.0</ele>
        <time>2019-08-01T10:15:02.036Z</time>
      </trkpt>
      <trkpt lat="43.03060833" lon="-1.29513">
        <ele>1407.0</ele>
        <time>2019-08-01T10:15:03.043Z</time>
      </trkpt>
      <trkpt lat="43.03059833" lon="-1.29514333">
        <ele>1407.0</ele>
        <time>2019-08-01T10:15:03.922Z</time>
      </trkpt>
      <trkpt lat="43.03058833" lon="-1.295155">
        <ele>1407.0</ele>
        <time>2019-08-01T10:15:04.927Z</time>
      </trkpt>
      <trkpt lat="43.030575" lon="-1.29516667">
        <ele>1407.0</ele>
        <time>2019-08-01T10:15:05.931Z</time>
      </trkpt>
      <trkpt lat="43.030565" lon="-1.29517667">
        <ele>1408.0</ele>
        <time>2019-08-01T10:15:06.938Z</time>
      </trkpt>
      <trkpt lat="43.03055333" lon="-1.29519">
        <ele>1407.0</ele>
        <time>2019-08-01T10:15:07.942Z</time>
      </trkpt>
      <trkpt lat="43.03054333" lon="-1.29520167">
        <ele>1407.0</ele>
        <time>2019-08-01T10:15:08.943Z</time>
      </trkpt>
      <trkpt lat="43.03053167" lon="-1.29521667">
        <ele>1407.0</ele>
        <time>2019-08-01T10:15:09.945Z</time>
      </trkpt>
      <trkpt lat="43.03052167" lon="-1.29522667">
        <ele>1407.0</ele>
        <time>2019-08-01T10:15:10.950Z</time>
      </trkpt>
      <trkpt lat="43.03051" lon="-1.29523833">
        <ele>1407.0</ele>
        <time>2019-08-01T10:15:11.955Z</time>
      </trkpt>
      <trkpt lat="43.03049833" lon="-1.29524833">
        <ele>1407.0</ele>
        <time>2019-08-01T10:15:12.960Z</time>
      </trkpt>
      <trkpt lat="43.030485" lon="-1.29526">
        <ele>1408.0</ele>
        <time>2019-08-01T10:15:13.968Z</time>
      </trkpt>
      <trkpt lat="43.030475" lon="-1.29527167">
        <ele>1408.0</ele>
        <time>2019-08-01T10:15:14.975Z</time>
      </trkpt>
      <trkpt lat="43.03046667" lon="-1.295285">
        <ele>1407.0</ele>
        <time>2019-08-01T10:15:15.981Z</time>
      </trkpt>
      <trkpt lat="43.03045667" lon="-1.29529833">
        <ele>1407.0</ele>
        <time>2019-08-01T10:15:16.987Z</time>
      </trkpt>
      <trkpt lat="43.03044833" lon="-1.29531333">
        <ele>1407.0</ele>
        <time>2019-08-01T10:15:17.992Z</time>
      </trkpt>
      <trkpt lat="43.03044" lon="-1.29532833">
        <ele>1407.0</ele>
        <time>2019-08-01T10:15:18.999Z</time>
      </trkpt>
      <trkpt lat="43.03043333" lon="-1.29534333">
        <ele>1407.0</ele>
        <time>2019-08-01T10:15:20.004Z</time>
      </trkpt>
      <trkpt lat="43.030425" lon="-1.29535667">
        <ele>1407.0</ele>
        <time>2019-08-01T10:15:21.012Z</time>
      </trkpt>
      <trkpt lat="43.03041667" lon="-1.29537167">
        <ele>1407.0</ele>
        <time>2019-08-01T10:15:22.017Z</time>
      </trkpt>
      <trkpt lat="43.03040833" lon="-1.295385">
        <ele>1407.0</ele>
        <time>2019-08-01T10:15:23.023Z</time>
      </trkpt>
      <trkpt lat="43.03039833" lon="-1.29539833">
        <ele>1407.0</ele>
        <time>2019-08-01T10:15:24.030Z</time>
      </trkpt>
      <trkpt lat="43.03038833" lon="-1.295415">
        <ele>1407.0</ele>
        <time>2019-08-01T10:15:25.036Z</time>
      </trkpt>
      <trkpt lat="43.03038" lon="-1.29543167">
        <ele>1407.0</ele>
        <time>2019-08-01T10:15:26.040Z</time>
      </trkpt>
      <trkpt lat="43.03037167" lon="-1.29544333">
        <ele>1407.0</ele>
        <time>2019-08-01T10:15:26.920Z</time>
      </trkpt>
      <trkpt lat="43.03036167" lon="-1.29545833">
        <ele>1407.0</ele>
        <time>2019-08-01T10:15:27.925Z</time>
      </trkpt>
      <trkpt lat="43.03035167" lon="-1.29547">
        <ele>1407.0</ele>
        <time>2019-08-01T10:15:28.933Z</time>
      </trkpt>
      <trkpt lat="43.03034333" lon="-1.29548333">
        <ele>1406.0</ele>
        <time>2019-08-01T10:15:29.937Z</time>
      </trkpt>
      <trkpt lat="43.03033333" lon="-1.29549667">
        <ele>1406.0</ele>
        <time>2019-08-01T10:15:30.943Z</time>
      </trkpt>
      <trkpt lat="43.030325" lon="-1.29551333">
        <ele>1406.0</ele>
        <time>2019-08-01T10:15:31.948Z</time>
      </trkpt>
      <trkpt lat="43.03031833" lon="-1.29552833">
        <ele>1405.0</ele>
        <time>2019-08-01T10:15:32.952Z</time>
      </trkpt>
      <trkpt lat="43.03031167" lon="-1.29554667">
        <ele>1405.0</ele>
        <time>2019-08-01T10:15:33.958Z</time>
      </trkpt>
      <trkpt lat="43.03030333" lon="-1.29556">
        <ele>1405.0</ele>
        <time>2019-08-01T10:15:34.961Z</time>
      </trkpt>
      <trkpt lat="43.030295" lon="-1.295575">
        <ele>1405.0</ele>
        <time>2019-08-01T10:15:35.966Z</time>
      </trkpt>
      <trkpt lat="43.030285" lon="-1.29558667">
        <ele>1405.0</ele>
        <time>2019-08-01T10:15:36.972Z</time>
      </trkpt>
      <trkpt lat="43.030275" lon="-1.29559833">
        <ele>1406.0</ele>
        <time>2019-08-01T10:15:37.979Z</time>
      </trkpt>
      <trkpt lat="43.030265" lon="-1.29560833">
        <ele>1406.0</ele>
        <time>2019-08-01T10:15:38.986Z</time>
      </trkpt>
      <trkpt lat="43.03025667" lon="-1.29562333">
        <ele>1406.0</ele>
        <time>2019-08-01T10:15:39.990Z</time>
      </trkpt>
      <trkpt lat="43.03025" lon="-1.29563833">
        <ele>1405.0</ele>
        <time>2019-08-01T10:15:40.995Z</time>
      </trkpt>
      <trkpt lat="43.03024333" lon="-1.295655">
        <ele>1405.0</ele>
        <time>2019-08-01T10:15:42.002Z</time>
      </trkpt>
      <trkpt lat="43.030235" lon="-1.29567167">
        <ele>1404.0</ele>
        <time>2019-08-01T10:15:43.005Z</time>
      </trkpt>
      <trkpt lat="43.03022833" lon="-1.295685">
        <ele>1405.0</ele>
        <time>2019-08-01T10:15:44.011Z</time>
      </trkpt>
      <trkpt lat="43.03022" lon="-1.2957">
        <ele>1404.0</ele>
        <time>2019-08-01T10:15:45.017Z</time>
      </trkpt>
      <trkpt lat="43.03021" lon="-1.295715">
        <ele>1405.0</ele>
        <time>2019-08-01T10:15:46.023Z</time>
      </trkpt>
      <trkpt lat="43.03020333" lon="-1.29572667">
        <ele>1405.0</ele>
        <time>2019-08-01T10:15:47.028Z</time>
      </trkpt>
      <trkpt lat="43.03019667" lon="-1.29573833">
        <ele>1405.0</ele>
        <time>2019-08-01T10:15:48.033Z</time>
      </trkpt>
      <trkpt lat="43.03018833" lon="-1.29575">
        <ele>1405.0</ele>
        <time>2019-08-01T10:15:49.040Z</time>
      </trkpt>
      <trkpt lat="43.03018" lon="-1.295765">
        <ele>1405.0</ele>
        <time>2019-08-01T10:15:49.920Z</time>
      </trkpt>
      <trkpt lat="43.03017333" lon="-1.29578167">
        <ele>1405.0</ele>
        <time>2019-08-01T10:15:50.926Z</time>
      </trkpt>
      <trkpt lat="43.030165" lon="-1.29579833">
        <ele>1405.0</ele>
        <time>2019-08-01T10:15:51.932Z</time>
      </trkpt>
      <trkpt lat="43.03015667" lon="-1.29581167">
        <ele>1404.0</ele>
        <time>2019-08-01T10:15:52.938Z</time>
      </trkpt>
      <trkpt lat="43.03014833" lon="-1.29582833">
        <ele>1404.0</ele>
        <time>2019-08-01T10:15:53.943Z</time>
      </trkpt>
      <trkpt lat="43.03014" lon="-1.29584333">
        <ele>1404.0</ele>
        <time>2019-08-01T10:15:54.946Z</time>
      </trkpt>
      <trkpt lat="43.03013" lon="-1.29586">
        <ele>1404.0</ele>
        <time>2019-08-01T10:15:55.951Z</time>
      </trkpt>
      <trkpt lat="43.03012" lon="-1.295875">
        <ele>1404.0</ele>
        <time>2019-08-01T10:15:56.959Z</time>
      </trkpt>
      <trkpt lat="43.03011" lon="-1.29589">
        <ele>1404.0</ele>
        <time>2019-08-01T10:15:57.967Z</time>
      </trkpt>
      <trkpt lat="43.03009833" lon="-1.29590167">
        <ele>1403.0</ele>
        <time>2019-08-01T10:15:58.974Z</time>
      </trkpt>
      <trkpt lat="43.03008833" lon="-1.29591667">
        <ele>1403.0</ele>
        <time>2019-08-01T10:15:59.980Z</time>
      </trkpt>
      <trkpt lat="43.03007667" lon="-1.29592833">
        <ele>1403.0</ele>
        <time>2019-08-01T10:16:00.986Z</time>
      </trkpt>
      <trkpt lat="43.03006667" lon="-1.29593833">
        <ele>1403.0</ele>
        <time>2019-08-01T10:16:01.992Z</time>
      </trkpt>
      <trkpt lat="43.03005667" lon="-1.29594833">
        <ele>1403.0</ele>
        <time>2019-08-01T10:16:02.999Z</time>
      </trkpt>
      <trkpt lat="43.030045" lon="-1.29596">
        <ele>1403.0</ele>
        <time>2019-08-01T10:16:04.003Z</time>
      </trkpt>
      <trkpt lat="43.030035" lon="-1.29597">
        <ele>1404.0</ele>
        <time>2019-08-01T10:16:05.009Z</time>
      </trkpt>
      <trkpt lat="43.03002333" lon="-1.29598167">
        <ele>1404.0</ele>
        <time>2019-08-01T10:16:06.016Z</time>
      </trkpt>
      <trkpt lat="43.03001333" lon="-1.29599">
        <ele>1405.0</ele>
        <time>2019-08-01T10:16:07.021Z</time>
      </trkpt>
      <trkpt lat="43.03000167" lon="-1.296">
        <ele>1405.0</ele>
        <time>2019-08-01T10:16:08.027Z</time>
      </trkpt>
      <trkpt lat="43.02999167" lon="-1.29600667">
        <ele>1406.0</ele>
        <time>2019-08-01T10:16:09.034Z</time>
      </trkpt>
      <trkpt lat="43.02998" lon="-1.29601833">
        <ele>1407.0</ele>
        <time>2019-08-01T10:16:10.042Z</time>
      </trkpt>
      <trkpt lat="43.02996667" lon="-1.29602667">
        <ele>1407.0</ele>
        <time>2019-08-01T10:16:10.921Z</time>
      </trkpt>
      <trkpt lat="43.02995333" lon="-1.29603333">
        <ele>1407.0</ele>
        <time>2019-08-01T10:16:11.927Z</time>
      </trkpt>
      <trkpt lat="43.02994333" lon="-1.29603667">
        <ele>1408.0</ele>
        <time>2019-08-01T10:16:12.933Z</time>
      </trkpt>
      <trkpt lat="43.02993" lon="-1.29604167">
        <ele>1409.0</ele>
        <time>2019-08-01T10:16:13.939Z</time>
      </trkpt>
      <trkpt lat="43.02991833" lon="-1.29605167">
        <ele>1409.0</ele>
        <time>2019-08-01T10:16:14.945Z</time>
      </trkpt>
      <trkpt lat="43.02990667" lon="-1.29605667">
        <ele>1409.0</ele>
        <time>2019-08-01T10:16:15.949Z</time>
      </trkpt>
      <trkpt lat="43.02989333" lon="-1.29606167">
        <ele>1409.0</ele>
        <time>2019-08-01T10:16:16.956Z</time>
      </trkpt>
      <trkpt lat="43.02988167" lon="-1.29606333">
        <ele>1410.0</ele>
        <time>2019-08-01T10:16:17.963Z</time>
      </trkpt>
      <trkpt lat="43.02987167" lon="-1.29606833">
        <ele>1410.0</ele>
        <time>2019-08-01T10:16:18.970Z</time>
      </trkpt>
      <trkpt lat="43.02986333" lon="-1.296075">
        <ele>1411.0</ele>
        <time>2019-08-01T10:16:19.977Z</time>
      </trkpt>
      <trkpt lat="43.029855" lon="-1.29608">
        <ele>1411.0</ele>
        <time>2019-08-01T10:16:20.983Z</time>
      </trkpt>
      <trkpt lat="43.029845" lon="-1.29609">
        <ele>1411.0</ele>
        <time>2019-08-01T10:16:21.988Z</time>
      </trkpt>
      <trkpt lat="43.029835" lon="-1.29609667">
        <ele>1412.0</ele>
        <time>2019-08-01T10:16:22.991Z</time>
      </trkpt>
      <trkpt lat="43.029825" lon="-1.29609833">
        <ele>1412.0</ele>
        <time>2019-08-01T10:16:23.997Z</time>
      </trkpt>
      <trkpt lat="43.02981667" lon="-1.2961">
        <ele>1412.0</ele>
        <time>2019-08-01T10:16:25.002Z</time>
      </trkpt>
      <trkpt lat="43.02980833" lon="-1.29610667">
        <ele>1413.0</ele>
        <time>2019-08-01T10:16:26.007Z</time>
      </trkpt>
      <trkpt lat="43.02979833" lon="-1.29611">
        <ele>1413.0</ele>
        <time>2019-08-01T10:16:27.013Z</time>
      </trkpt>
      <trkpt lat="43.02978833" lon="-1.29611833">
        <ele>1413.0</ele>
        <time>2019-08-01T10:16:28.017Z</time>
      </trkpt>
      <trkpt lat="43.02978" lon="-1.296125">
        <ele>1413.0</ele>
        <time>2019-08-01T10:16:29.022Z</time>
      </trkpt>
      <trkpt lat="43.02976833" lon="-1.29612833">
        <ele>1414.0</ele>
        <time>2019-08-01T10:16:30.028Z</time>
      </trkpt>
      <trkpt lat="43.02975833" lon="-1.29613333">
        <ele>1414.0</ele>
        <time>2019-08-01T10:16:31.033Z</time>
      </trkpt>
      <trkpt lat="43.02974667" lon="-1.29613667">
        <ele>1414.0</ele>
        <time>2019-08-01T10:16:32.037Z</time>
      </trkpt>
      <trkpt lat="43.02973833" lon="-1.29614">
        <ele>1415.0</ele>
        <time>2019-08-01T10:16:32.918Z</time>
      </trkpt>
      <trkpt lat="43.02972667" lon="-1.29614167">
        <ele>1415.0</ele>
        <time>2019-08-01T10:16:33.925Z</time>
      </trkpt>
      <trkpt lat="43.029715" lon="-1.29614333">
        <ele>1415.0</ele>
        <time>2019-08-01T10:16:34.931Z</time>
      </trkpt>
      <trkpt lat="43.029705" lon="-1.29615">
        <ele>1415.0</ele>
        <time>2019-08-01T10:16:35.935Z</time>
      </trkpt>
      <trkpt lat="43.029695" lon="-1.29615667">
        <ele>1415.0</ele>
        <time>2019-08-01T10:16:36.942Z</time>
      </trkpt>
      <trkpt lat="43.02968333" lon="-1.29615833">
        <ele>1415.0</ele>
        <time>2019-08-01T10:16:37.948Z</time>
      </trkpt>
      <trkpt lat="43.02967333" lon="-1.296165">
        <ele>1415.0</ele>
        <time>2019-08-01T10:16:38.956Z</time>
      </trkpt>
      <trkpt lat="43.02965833" lon="-1.296165">
        <ele>1415.0</ele>
        <time>2019-08-01T10:16:39.963Z</time>
      </trkpt>
      <trkpt lat="43.029645" lon="-1.29616667">
        <ele>1415.0</ele>
        <time>2019-08-01T10:16:40.970Z</time>
      </trkpt>
      <trkpt lat="43.02963333" lon="-1.29616833">
        <ele>1415.0</ele>
        <time>2019-08-01T10:16:41.978Z</time>
      </trkpt>
      <trkpt lat="43.02962" lon="-1.29617">
        <ele>1415.0</ele>
        <time>2019-08-01T10:16:42.982Z</time>
      </trkpt>
      <trkpt lat="43.02960667" lon="-1.29617333">
        <ele>1415.0</ele>
        <time>2019-08-01T10:16:43.990Z</time>
      </trkpt>
      <trkpt lat="43.029595" lon="-1.29617667">
        <ele>1415.0</ele>
        <time>2019-08-01T10:16:44.996Z</time>
      </trkpt>
      <trkpt lat="43.02958167" lon="-1.29618">
        <ele>1415.0</ele>
        <time>2019-08-01T10:16:46.002Z</time>
      </trkpt>
      <trkpt lat="43.02956833" lon="-1.29618333">
        <ele>1415.0</ele>
        <time>2019-08-01T10:16:47.009Z</time>
      </trkpt>
      <trkpt lat="43.02955667" lon="-1.296185">
        <ele>1414.0</ele>
        <time>2019-08-01T10:16:48.015Z</time>
      </trkpt>
      <trkpt lat="43.02954333" lon="-1.29618833">
        <ele>1414.0</ele>
        <time>2019-08-01T10:16:49.021Z</time>
      </trkpt>
      <trkpt lat="43.02953" lon="-1.29619167">
        <ele>1414.0</ele>
        <time>2019-08-01T10:16:50.028Z</time>
      </trkpt>
      <trkpt lat="43.02951833" lon="-1.29619667">
        <ele>1415.0</ele>
        <time>2019-08-01T10:16:51.035Z</time>
      </trkpt>
      <trkpt lat="43.029505" lon="-1.29619833">
        <ele>1415.0</ele>
        <time>2019-08-01T10:16:52.041Z</time>
      </trkpt>
      <trkpt lat="43.02949" lon="-1.29620167">
        <ele>1415.0</ele>
        <time>2019-08-01T10:16:52.920Z</time>
      </trkpt>
      <trkpt lat="43.02947833" lon="-1.296205">
        <ele>1415.0</ele>
        <time>2019-08-01T10:16:53.923Z</time>
      </trkpt>
      <trkpt lat="43.029465" lon="-1.29620833">
        <ele>1415.0</ele>
        <time>2019-08-01T10:16:54.928Z</time>
      </trkpt>
      <trkpt lat="43.02945333" lon="-1.29621333">
        <ele>1415.0</ele>
        <time>2019-08-01T10:16:55.934Z</time>
      </trkpt>
      <trkpt lat="43.02944" lon="-1.29621667">
        <ele>1415.0</ele>
        <time>2019-08-01T10:16:56.939Z</time>
      </trkpt>
      <trkpt lat="43.02942833" lon="-1.29622167">
        <ele>1415.0</ele>
        <time>2019-08-01T10:16:57.945Z</time>
      </trkpt>
      <trkpt lat="43.029415" lon="-1.296225">
        <ele>1415.0</ele>
        <time>2019-08-01T10:16:58.952Z</time>
      </trkpt>
      <trkpt lat="43.0294" lon="-1.29622833">
        <ele>1414.0</ele>
        <time>2019-08-01T10:16:59.960Z</time>
      </trkpt>
      <trkpt lat="43.02938667" lon="-1.29622667">
        <ele>1415.0</ele>
        <time>2019-08-01T10:17:00.966Z</time>
      </trkpt>
      <trkpt lat="43.02937333" lon="-1.29622833">
        <ele>1415.0</ele>
        <time>2019-08-01T10:17:01.972Z</time>
      </trkpt>
      <trkpt lat="43.02936" lon="-1.29623167">
        <ele>1415.0</ele>
        <time>2019-08-01T10:17:02.980Z</time>
      </trkpt>
      <trkpt lat="43.02935" lon="-1.29623333">
        <ele>1415.0</ele>
        <time>2019-08-01T10:17:03.985Z</time>
      </trkpt>
      <trkpt lat="43.02933833" lon="-1.296235">
        <ele>1415.0</ele>
        <time>2019-08-01T10:17:04.990Z</time>
      </trkpt>
      <trkpt lat="43.02933" lon="-1.296235">
        <ele>1415.0</ele>
        <time>2019-08-01T10:17:05.995Z</time>
      </trkpt>
      <trkpt lat="43.02931667" lon="-1.29623333">
        <ele>1415.0</ele>
        <time>2019-08-01T10:17:07.000Z</time>
      </trkpt>
      <trkpt lat="43.029305" lon="-1.29622833">
        <ele>1416.0</ele>
        <time>2019-08-01T10:17:08.008Z</time>
      </trkpt>
      <trkpt lat="43.02929333" lon="-1.29622667">
        <ele>1417.0</ele>
        <time>2019-08-01T10:17:09.014Z</time>
      </trkpt>
      <trkpt lat="43.02927833" lon="-1.29622667">
        <ele>1417.0</ele>
        <time>2019-08-01T10:17:10.020Z</time>
      </trkpt>
      <trkpt lat="43.02926833" lon="-1.296225">
        <ele>1417.0</ele>
        <time>2019-08-01T10:17:11.023Z</time>
      </trkpt>
      <trkpt lat="43.029255" lon="-1.29622">
        <ele>1417.0</ele>
        <time>2019-08-01T10:17:12.029Z</time>
      </trkpt>
      <trkpt lat="43.02924333" lon="-1.29621667">
        <ele>1418.0</ele>
        <time>2019-08-01T10:17:13.033Z</time>
      </trkpt>
      <trkpt lat="43.02923167" lon="-1.296215">
        <ele>1418.0</ele>
        <time>2019-08-01T10:17:14.038Z</time>
      </trkpt>
      <trkpt lat="43.02921833" lon="-1.296215">
        <ele>1419.0</ele>
        <time>2019-08-01T10:17:14.918Z</time>
      </trkpt>
      <trkpt lat="43.02920333" lon="-1.29621667">
        <ele>1419.0</ele>
        <time>2019-08-01T10:17:15.923Z</time>
      </trkpt>
      <trkpt lat="43.02918833" lon="-1.296215">
        <ele>1419.0</ele>
        <time>2019-08-01T10:17:16.926Z</time>
      </trkpt>
      <trkpt lat="43.02917667" lon="-1.29621">
        <ele>1420.0</ele>
        <time>2019-08-01T10:17:17.933Z</time>
      </trkpt>
      <trkpt lat="43.02916333" lon="-1.296205">
        <ele>1420.0</ele>
        <time>2019-08-01T10:17:18.938Z</time>
      </trkpt>
      <trkpt lat="43.02914833" lon="-1.296205">
        <ele>1420.0</ele>
        <time>2019-08-01T10:17:19.945Z</time>
      </trkpt>
      <trkpt lat="43.02913667" lon="-1.29620167">
        <ele>1419.0</ele>
        <time>2019-08-01T10:17:20.947Z</time>
      </trkpt>
      <trkpt lat="43.02912333" lon="-1.29619833">
        <ele>1418.0</ele>
        <time>2019-08-01T10:17:21.951Z</time>
      </trkpt>
      <trkpt lat="43.02911" lon="-1.29620167">
        <ele>1418.0</ele>
        <time>2019-08-01T10:17:22.957Z</time>
      </trkpt>
      <trkpt lat="43.029095" lon="-1.29620333">
        <ele>1417.0</ele>
        <time>2019-08-01T10:17:23.963Z</time>
      </trkpt>
      <trkpt lat="43.02908" lon="-1.296205">
        <ele>1417.0</ele>
        <time>2019-08-01T10:17:24.968Z</time>
      </trkpt>
      <trkpt lat="43.02906833" lon="-1.29620333">
        <ele>1417.0</ele>
        <time>2019-08-01T10:17:25.975Z</time>
      </trkpt>
      <trkpt lat="43.02905667" lon="-1.2962">
        <ele>1417.0</ele>
        <time>2019-08-01T10:17:26.982Z</time>
      </trkpt>
      <trkpt lat="43.029045" lon="-1.29619833">
        <ele>1417.0</ele>
        <time>2019-08-01T10:17:27.988Z</time>
      </trkpt>
      <trkpt lat="43.02903167" lon="-1.29619667">
        <ele>1417.0</ele>
        <time>2019-08-01T10:17:28.992Z</time>
      </trkpt>
      <trkpt lat="43.02901833" lon="-1.29619833">
        <ele>1417.0</ele>
        <time>2019-08-01T10:17:29.997Z</time>
      </trkpt>
      <trkpt lat="43.029005" lon="-1.29619667">
        <ele>1417.0</ele>
        <time>2019-08-01T10:17:31.001Z</time>
      </trkpt>
      <trkpt lat="43.02899167" lon="-1.296195">
        <ele>1417.0</ele>
        <time>2019-08-01T10:17:32.007Z</time>
      </trkpt>
      <trkpt lat="43.02897833" lon="-1.296185">
        <ele>1417.0</ele>
        <time>2019-08-01T10:17:33.011Z</time>
      </trkpt>
      <trkpt lat="43.028965" lon="-1.29618">
        <ele>1417.0</ele>
        <time>2019-08-01T10:17:34.018Z</time>
      </trkpt>
      <trkpt lat="43.02895167" lon="-1.296175">
        <ele>1417.0</ele>
        <time>2019-08-01T10:17:35.024Z</time>
      </trkpt>
      <trkpt lat="43.02893833" lon="-1.29617">
        <ele>1417.0</ele>
        <time>2019-08-01T10:17:36.030Z</time>
      </trkpt>
      <trkpt lat="43.028925" lon="-1.296165">
        <ele>1417.0</ele>
        <time>2019-08-01T10:17:37.035Z</time>
      </trkpt>
      <trkpt lat="43.02891167" lon="-1.29616">
        <ele>1418.0</ele>
        <time>2019-08-01T10:17:38.038Z</time>
      </trkpt>
      <trkpt lat="43.02889667" lon="-1.29615333">
        <ele>1418.0</ele>
        <time>2019-08-01T10:17:38.918Z</time>
      </trkpt>
      <trkpt lat="43.02888167" lon="-1.29614833">
        <ele>1418.0</ele>
        <time>2019-08-01T10:17:39.924Z</time>
      </trkpt>
      <trkpt lat="43.02886667" lon="-1.29614333">
        <ele>1418.0</ele>
        <time>2019-08-01T10:17:40.928Z</time>
      </trkpt>
      <trkpt lat="43.02885167" lon="-1.29613833">
        <ele>1418.0</ele>
        <time>2019-08-01T10:17:41.932Z</time>
      </trkpt>
      <trkpt lat="43.02883833" lon="-1.29613333">
        <ele>1418.0</ele>
        <time>2019-08-01T10:17:42.939Z</time>
      </trkpt>
      <trkpt lat="43.028825" lon="-1.29613">
        <ele>1418.0</ele>
        <time>2019-08-01T10:17:43.946Z</time>
      </trkpt>
      <trkpt lat="43.02881167" lon="-1.29612667">
        <ele>1418.0</ele>
        <time>2019-08-01T10:17:44.951Z</time>
      </trkpt>
      <trkpt lat="43.02879833" lon="-1.29612333">
        <ele>1418.0</ele>
        <time>2019-08-01T10:17:45.957Z</time>
      </trkpt>
      <trkpt lat="43.028785" lon="-1.29612">
        <ele>1418.0</ele>
        <time>2019-08-01T10:17:46.963Z</time>
      </trkpt>
      <trkpt lat="43.02877167" lon="-1.29611833">
        <ele>1417.0</ele>
        <time>2019-08-01T10:17:47.969Z</time>
      </trkpt>
      <trkpt lat="43.02875833" lon="-1.29611167">
        <ele>1417.0</ele>
        <time>2019-08-01T10:17:48.975Z</time>
      </trkpt>
      <trkpt lat="43.02874167" lon="-1.29610667">
        <ele>1417.0</ele>
        <time>2019-08-01T10:17:49.980Z</time>
      </trkpt>
      <trkpt lat="43.02872833" lon="-1.2961">
        <ele>1417.0</ele>
        <time>2019-08-01T10:17:50.986Z</time>
      </trkpt>
      <trkpt lat="43.028715" lon="-1.29609667">
        <ele>1417.0</ele>
        <time>2019-08-01T10:17:51.991Z</time>
      </trkpt>
      <trkpt lat="43.02870167" lon="-1.29609167">
        <ele>1417.0</ele>
        <time>2019-08-01T10:17:52.997Z</time>
      </trkpt>
      <trkpt lat="43.02868833" lon="-1.296085">
        <ele>1417.0</ele>
        <time>2019-08-01T10:17:54.004Z</time>
      </trkpt>
      <trkpt lat="43.02867667" lon="-1.29608167">
        <ele>1417.0</ele>
        <time>2019-08-01T10:17:55.009Z</time>
      </trkpt>
      <trkpt lat="43.02866" lon="-1.29607833">
        <ele>1416.0</ele>
        <time>2019-08-01T10:17:56.015Z</time>
      </trkpt>
      <trkpt lat="43.02864667" lon="-1.29607667">
        <ele>1416.0</ele>
        <time>2019-08-01T10:17:57.023Z</time>
      </trkpt>
      <trkpt lat="43.02863333" lon="-1.29607">
        <ele>1417.0</ele>
        <time>2019-08-01T10:17:58.031Z</time>
      </trkpt>
      <trkpt lat="43.02862167" lon="-1.296065">
        <ele>1417.0</ele>
        <time>2019-08-01T10:17:59.033Z</time>
      </trkpt>
      <trkpt lat="43.02860667" lon="-1.29605833">
        <ele>1417.0</ele>
        <time>2019-08-01T10:18:00.035Z</time>
      </trkpt>
      <trkpt lat="43.028595" lon="-1.29605167">
        <ele>1417.0</ele>
        <time>2019-08-01T10:18:01.037Z</time>
      </trkpt>
      <trkpt lat="43.02858" lon="-1.296045">
        <ele>1417.0</ele>
        <time>2019-08-01T10:18:02.041Z</time>
      </trkpt>
      <trkpt lat="43.02856833" lon="-1.29603833">
        <ele>1417.0</ele>
        <time>2019-08-01T10:18:02.919Z</time>
      </trkpt>
      <trkpt lat="43.02855333" lon="-1.29603167">
        <ele>1418.0</ele>
        <time>2019-08-01T10:18:03.923Z</time>
      </trkpt>
      <trkpt lat="43.02854" lon="-1.29602333">
        <ele>1418.0</ele>
        <time>2019-08-01T10:18:04.931Z</time>
      </trkpt>
      <trkpt lat="43.02852667" lon="-1.29601667">
        <ele>1419.0</ele>
        <time>2019-08-01T10:18:05.937Z</time>
      </trkpt>
      <trkpt lat="43.02851333" lon="-1.29601167">
        <ele>1419.0</ele>
        <time>2019-08-01T10:18:06.944Z</time>
      </trkpt>
      <trkpt lat="43.02850167" lon="-1.29600667">
        <ele>1419.0</ele>
        <time>2019-08-01T10:18:07.948Z</time>
      </trkpt>
      <trkpt lat="43.02848833" lon="-1.296">
        <ele>1420.0</ele>
        <time>2019-08-01T10:18:08.951Z</time>
      </trkpt>
      <trkpt lat="43.02847667" lon="-1.29599333">
        <ele>1420.0</ele>
        <time>2019-08-01T10:18:09.956Z</time>
      </trkpt>
      <trkpt lat="43.028465" lon="-1.29598667">
        <ele>1420.0</ele>
        <time>2019-08-01T10:18:10.964Z</time>
      </trkpt>
      <trkpt lat="43.02845333" lon="-1.29597667">
        <ele>1420.0</ele>
        <time>2019-08-01T10:18:11.970Z</time>
      </trkpt>
      <trkpt lat="43.02844167" lon="-1.29596833">
        <ele>1420.0</ele>
        <time>2019-08-01T10:18:12.977Z</time>
      </trkpt>
      <trkpt lat="43.02842833" lon="-1.29595833">
        <ele>1420.0</ele>
        <time>2019-08-01T10:18:13.983Z</time>
      </trkpt>
      <trkpt lat="43.02841667" lon="-1.295955">
        <ele>1420.0</ele>
        <time>2019-08-01T10:18:14.990Z</time>
      </trkpt>
      <trkpt lat="43.02840333" lon="-1.29595">
        <ele>1419.0</ele>
        <time>2019-08-01T10:18:15.996Z</time>
      </trkpt>
      <trkpt lat="43.02839" lon="-1.29594333">
        <ele>1418.0</ele>
        <time>2019-08-01T10:18:17.002Z</time>
      </trkpt>
      <trkpt lat="43.02837667" lon="-1.29593333">
        <ele>1418.0</ele>
        <time>2019-08-01T10:18:18.009Z</time>
      </trkpt>
      <trkpt lat="43.02836167" lon="-1.295925">
        <ele>1417.0</ele>
        <time>2019-08-01T10:18:19.015Z</time>
      </trkpt>
      <trkpt lat="43.02834833" lon="-1.29591833">
        <ele>1417.0</ele>
        <time>2019-08-01T10:18:20.021Z</time>
      </trkpt>
      <trkpt lat="43.028335" lon="-1.29591167">
        <ele>1417.0</ele>
        <time>2019-08-01T10:18:21.026Z</time>
      </trkpt>
      <trkpt lat="43.02832333" lon="-1.295905">
        <ele>1416.0</ele>
        <time>2019-08-01T10:18:22.031Z</time>
      </trkpt>
      <trkpt lat="43.02831167" lon="-1.295895">
        <ele>1416.0</ele>
        <time>2019-08-01T10:18:23.039Z</time>
      </trkpt>
      <trkpt lat="43.0283" lon="-1.295885">
        <ele>1416.0</ele>
        <time>2019-08-01T10:18:23.920Z</time>
      </trkpt>
      <trkpt lat="43.02828667" lon="-1.29588">
        <ele>1416.0</ele>
        <time>2019-08-01T10:18:24.926Z</time>
      </trkpt>
      <trkpt lat="43.028275" lon="-1.29587333">
        <ele>1416.0</ele>
        <time>2019-08-01T10:18:25.931Z</time>
      </trkpt>
      <trkpt lat="43.02826167" lon="-1.29586667">
        <ele>1416.0</ele>
        <time>2019-08-01T10:18:26.938Z</time>
      </trkpt>
      <trkpt lat="43.02825333" lon="-1.29586">
        <ele>1415.0</ele>
        <time>2019-08-01T10:18:27.945Z</time>
      </trkpt>
      <trkpt lat="43.02824333" lon="-1.29585">
        <ele>1416.0</ele>
        <time>2019-08-01T10:18:28.948Z</time>
      </trkpt>
      <trkpt lat="43.02823333" lon="-1.29584167">
        <ele>1416.0</ele>
        <time>2019-08-01T10:18:29.953Z</time>
      </trkpt>
      <trkpt lat="43.02822667" lon="-1.29583667">
        <ele>1415.0</ele>
        <time>2019-08-01T10:18:30.960Z</time>
      </trkpt>
      <trkpt lat="43.028215" lon="-1.29583">
        <ele>1415.0</ele>
        <time>2019-08-01T10:18:31.965Z</time>
      </trkpt>
      <trkpt lat="43.02820333" lon="-1.29582333">
        <ele>1415.0</ele>
        <time>2019-08-01T10:18:32.972Z</time>
      </trkpt>
      <trkpt lat="43.02819" lon="-1.29582">
        <ele>1415.0</ele>
        <time>2019-08-01T10:18:33.978Z</time>
      </trkpt>
      <trkpt lat="43.028175" lon="-1.295815">
        <ele>1414.0</ele>
        <time>2019-08-01T10:18:34.985Z</time>
      </trkpt>
      <trkpt lat="43.02816" lon="-1.29581333">
        <ele>1414.0</ele>
        <time>2019-08-01T10:18:35.990Z</time>
      </trkpt>
      <trkpt lat="43.02814833" lon="-1.29580833">
        <ele>1414.0</ele>
        <time>2019-08-01T10:18:36.996Z</time>
      </trkpt>
      <trkpt lat="43.028135" lon="-1.29580667">
        <ele>1413.0</ele>
        <time>2019-08-01T10:18:38.001Z</time>
      </trkpt>
      <trkpt lat="43.02812167" lon="-1.2958">
        <ele>1413.0</ele>
        <time>2019-08-01T10:18:39.008Z</time>
      </trkpt>
      <trkpt lat="43.02811" lon="-1.29579667">
        <ele>1412.0</ele>
        <time>2019-08-01T10:18:40.015Z</time>
      </trkpt>
      <trkpt lat="43.02809833" lon="-1.29578833">
        <ele>1412.0</ele>
        <time>2019-08-01T10:18:41.020Z</time>
      </trkpt>
      <trkpt lat="43.028085" lon="-1.29578167">
        <ele>1413.0</ele>
        <time>2019-08-01T10:18:42.027Z</time>
      </trkpt>
      <trkpt lat="43.02807333" lon="-1.29577333">
        <ele>1414.0</ele>
        <time>2019-08-01T10:18:43.032Z</time>
      </trkpt>
      <trkpt lat="43.02805833" lon="-1.29577167">
        <ele>1414.0</ele>
        <time>2019-08-01T10:18:44.038Z</time>
      </trkpt>
      <trkpt lat="43.028045" lon="-1.295765">
        <ele>1413.0</ele>
        <time>2019-08-01T10:18:45.042Z</time>
      </trkpt>
      <trkpt lat="43.02803333" lon="-1.29576">
        <ele>1413.0</ele>
        <time>2019-08-01T10:18:45.922Z</time>
      </trkpt>
      <trkpt lat="43.02802" lon="-1.295755">
        <ele>1413.0</ele>
        <time>2019-08-01T10:18:46.929Z</time>
      </trkpt>
      <trkpt lat="43.02800833" lon="-1.29574667">
        <ele>1413.0</ele>
        <time>2019-08-01T10:18:47.934Z</time>
      </trkpt>
      <trkpt lat="43.027995" lon="-1.29574333">
        <ele>1413.0</ele>
        <time>2019-08-01T10:18:48.938Z</time>
      </trkpt>
      <trkpt lat="43.02798" lon="-1.29573833">
        <ele>1413.0</ele>
        <time>2019-08-01T10:18:49.943Z</time>
      </trkpt>
      <trkpt lat="43.027965" lon="-1.29573333">
        <ele>1413.0</ele>
        <time>2019-08-01T10:18:50.948Z</time>
      </trkpt>
      <trkpt lat="43.02795167" lon="-1.29572833">
        <ele>1413.0</ele>
        <time>2019-08-01T10:18:51.953Z</time>
      </trkpt>
      <trkpt lat="43.02793833" lon="-1.29572333">
        <ele>1413.0</ele>
        <time>2019-08-01T10:18:52.959Z</time>
      </trkpt>
      <trkpt lat="43.02792333" lon="-1.295715">
        <ele>1414.0</ele>
        <time>2019-08-01T10:18:53.964Z</time>
      </trkpt>
      <trkpt lat="43.02791" lon="-1.29570667">
        <ele>1414.0</ele>
        <time>2019-08-01T10:18:54.968Z</time>
      </trkpt>
      <trkpt lat="43.027895" lon="-1.2957">
        <ele>1414.0</ele>
        <time>2019-08-01T10:18:55.975Z</time>
      </trkpt>
      <trkpt lat="43.02788167" lon="-1.29569333">
        <ele>1415.0</ele>
        <time>2019-08-01T10:18:56.981Z</time>
      </trkpt>
      <trkpt lat="43.02786833" lon="-1.29568833">
        <ele>1415.0</ele>
        <time>2019-08-01T10:18:57.988Z</time>
      </trkpt>
      <trkpt lat="43.02785333" lon="-1.295685">
        <ele>1416.0</ele>
        <time>2019-08-01T10:18:58.993Z</time>
      </trkpt>
      <trkpt lat="43.02784" lon="-1.29568167">
        <ele>1416.0</ele>
        <time>2019-08-01T10:19:00.000Z</time>
      </trkpt>
      <trkpt lat="43.02782667" lon="-1.29567667">
        <ele>1416.0</ele>
        <time>2019-08-01T10:19:01.007Z</time>
      </trkpt>
      <trkpt lat="43.02781167" lon="-1.29567333">
        <ele>1416.0</ele>
        <time>2019-08-01T10:19:02.011Z</time>
      </trkpt>
      <trkpt lat="43.02779833" lon="-1.29567">
        <ele>1416.0</ele>
        <time>2019-08-01T10:19:03.017Z</time>
      </trkpt>
      <trkpt lat="43.027785" lon="-1.29566333">
        <ele>1416.0</ele>
        <time>2019-08-01T10:19:04.020Z</time>
      </trkpt>
      <trkpt lat="43.02777333" lon="-1.29566">
        <ele>1416.0</ele>
        <time>2019-08-01T10:19:05.026Z</time>
      </trkpt>
      <trkpt lat="43.02776" lon="-1.29565667">
        <ele>1415.0</ele>
        <time>2019-08-01T10:19:06.032Z</time>
      </trkpt>
      <trkpt lat="43.027745" lon="-1.29565167">
        <ele>1415.0</ele>
        <time>2019-08-01T10:19:07.038Z</time>
      </trkpt>
      <trkpt lat="43.02773167" lon="-1.29564667">
        <ele>1414.0</ele>
        <time>2019-08-01T10:19:08.040Z</time>
      </trkpt>
      <trkpt lat="43.02772" lon="-1.29564333">
        <ele>1414.0</ele>
        <time>2019-08-01T10:19:08.921Z</time>
      </trkpt>
      <trkpt lat="43.02770667" lon="-1.29564">
        <ele>1414.0</ele>
        <time>2019-08-01T10:19:09.926Z</time>
      </trkpt>
      <trkpt lat="43.027695" lon="-1.29563333">
        <ele>1414.0</ele>
        <time>2019-08-01T10:19:10.931Z</time>
      </trkpt>
      <trkpt lat="43.02768167" lon="-1.29562667">
        <ele>1414.0</ele>
        <time>2019-08-01T10:19:11.938Z</time>
      </trkpt>
      <trkpt lat="43.02766667" lon="-1.29562333">
        <ele>1414.0</ele>
        <time>2019-08-01T10:19:12.946Z</time>
      </trkpt>
      <trkpt lat="43.02765167" lon="-1.29562">
        <ele>1414.0</ele>
        <time>2019-08-01T10:19:13.952Z</time>
      </trkpt>
      <trkpt lat="43.02764" lon="-1.29561667">
        <ele>1414.0</ele>
        <time>2019-08-01T10:19:14.959Z</time>
      </trkpt>
      <trkpt lat="43.02762833" lon="-1.29561333">
        <ele>1414.0</ele>
        <time>2019-08-01T10:19:15.963Z</time>
      </trkpt>
      <trkpt lat="43.027615" lon="-1.29560833">
        <ele>1414.0</ele>
        <time>2019-08-01T10:19:16.970Z</time>
      </trkpt>
      <trkpt lat="43.02760167" lon="-1.295605">
        <ele>1414.0</ele>
        <time>2019-08-01T10:19:17.977Z</time>
      </trkpt>
      <trkpt lat="43.02758833" lon="-1.2956">
        <ele>1415.0</ele>
        <time>2019-08-01T10:19:18.982Z</time>
      </trkpt>
      <trkpt lat="43.027575" lon="-1.29559333">
        <ele>1415.0</ele>
        <time>2019-08-01T10:19:19.986Z</time>
      </trkpt>
      <trkpt lat="43.02756167" lon="-1.29558667">
        <ele>1414.0</ele>
        <time>2019-08-01T10:19:20.991Z</time>
      </trkpt>
      <trkpt lat="43.02755" lon="-1.29558">
        <ele>1414.0</ele>
        <time>2019-08-01T10:19:21.997Z</time>
      </trkpt>
      <trkpt lat="43.02753667" lon="-1.29557667">
        <ele>1414.0</ele>
        <time>2019-08-01T10:19:23.000Z</time>
      </trkpt>
      <trkpt lat="43.02752333" lon="-1.29557333">
        <ele>1414.0</ele>
        <time>2019-08-01T10:19:24.003Z</time>
      </trkpt>
      <trkpt lat="43.02751" lon="-1.29556833">
        <ele>1414.0</ele>
        <time>2019-08-01T10:19:25.007Z</time>
      </trkpt>
      <trkpt lat="43.02749833" lon="-1.29556167">
        <ele>1415.0</ele>
        <time>2019-08-01T10:19:26.012Z</time>
      </trkpt>
      <trkpt lat="43.02748667" lon="-1.295555">
        <ele>1415.0</ele>
        <time>2019-08-01T10:19:27.017Z</time>
      </trkpt>
      <trkpt lat="43.027475" lon="-1.29555167">
        <ele>1415.0</ele>
        <time>2019-08-01T10:19:28.024Z</time>
      </trkpt>
      <trkpt lat="43.02746833" lon="-1.29554667">
        <ele>1416.0</ele>
        <time>2019-08-01T10:19:29.030Z</time>
      </trkpt>
      <trkpt lat="43.02746" lon="-1.29554333">
        <ele>1416.0</ele>
        <time>2019-08-01T10:19:30.034Z</time>
      </trkpt>
      <trkpt lat="43.02745333" lon="-1.29553833">
        <ele>1415.0</ele>
        <time>2019-08-01T10:19:31.041Z</time>
      </trkpt>
      <trkpt lat="43.02744333" lon="-1.29553333">
        <ele>1415.0</ele>
        <time>2019-08-01T10:19:31.922Z</time>
      </trkpt>
      <trkpt lat="43.02743333" lon="-1.29552833">
        <ele>1415.0</ele>
        <time>2019-08-01T10:19:32.928Z</time>
      </trkpt>
      <trkpt lat="43.02742" lon="-1.295525">
        <ele>1414.0</ele>
        <time>2019-08-01T10:19:33.936Z</time>
      </trkpt>
      <trkpt lat="43.02740833" lon="-1.29552">
        <ele>1415.0</ele>
        <time>2019-08-01T10:19:34.943Z</time>
      </trkpt>
      <trkpt lat="43.027395" lon="-1.295515">
        <ele>1415.0</ele>
        <time>2019-08-01T10:19:35.948Z</time>
      </trkpt>
      <trkpt lat="43.02738167" lon="-1.29551">
        <ele>1415.0</ele>
        <time>2019-08-01T10:19:36.955Z</time>
      </trkpt>
      <trkpt lat="43.02736833" lon="-1.29550333">
        <ele>1415.0</ele>
        <time>2019-08-01T10:19:37.962Z</time>
      </trkpt>
      <trkpt lat="43.027355" lon="-1.2955">
        <ele>1415.0</ele>
        <time>2019-08-01T10:19:38.968Z</time>
      </trkpt>
      <trkpt lat="43.02734333" lon="-1.29549667">
        <ele>1415.0</ele>
        <time>2019-08-01T10:19:39.970Z</time>
      </trkpt>
      <trkpt lat="43.02733" lon="-1.29549167">
        <ele>1415.0</ele>
        <time>2019-08-01T10:19:40.977Z</time>
      </trkpt>
      <trkpt lat="43.027315" lon="-1.295485">
        <ele>1415.0</ele>
        <time>2019-08-01T10:19:41.983Z</time>
      </trkpt>
      <trkpt lat="43.0273" lon="-1.29548167">
        <ele>1415.0</ele>
        <time>2019-08-01T10:19:42.989Z</time>
      </trkpt>
      <trkpt lat="43.02728833" lon="-1.29547667">
        <ele>1416.0</ele>
        <time>2019-08-01T10:19:43.992Z</time>
      </trkpt>
      <trkpt lat="43.027275" lon="-1.29547167">
        <ele>1416.0</ele>
        <time>2019-08-01T10:19:44.995Z</time>
      </trkpt>
      <trkpt lat="43.02726333" lon="-1.29547">
        <ele>1416.0</ele>
        <time>2019-08-01T10:19:45.999Z</time>
      </trkpt>
      <trkpt lat="43.02725167" lon="-1.29546667">
        <ele>1416.0</ele>
        <time>2019-08-01T10:19:47.005Z</time>
      </trkpt>
      <trkpt lat="43.02723833" lon="-1.29546333">
        <ele>1415.0</ele>
        <time>2019-08-01T10:19:48.011Z</time>
      </trkpt>
      <trkpt lat="43.027225" lon="-1.29546">
        <ele>1415.0</ele>
        <time>2019-08-01T10:19:49.018Z</time>
      </trkpt>
      <trkpt lat="43.02721333" lon="-1.29545667">
        <ele>1415.0</ele>
        <time>2019-08-01T10:19:50.025Z</time>
      </trkpt>
      <trkpt lat="43.02720167" lon="-1.29544667">
        <ele>1415.0</ele>
        <time>2019-08-01T10:19:51.031Z</time>
      </trkpt>
      <trkpt lat="43.02718833" lon="-1.29544167">
        <ele>1415.0</ele>
        <time>2019-08-01T10:19:52.037Z</time>
      </trkpt>
      <trkpt lat="43.027175" lon="-1.29543667">
        <ele>1415.0</ele>
        <time>2019-08-01T10:19:53.043Z</time>
      </trkpt>
      <trkpt lat="43.02716333" lon="-1.29543167">
        <ele>1415.0</ele>
        <time>2019-08-01T10:19:53.922Z</time>
      </trkpt>
      <trkpt lat="43.02715167" lon="-1.29542667">
        <ele>1415.0</ele>
        <time>2019-08-01T10:19:54.924Z</time>
      </trkpt>
      <trkpt lat="43.02713833" lon="-1.295425">
        <ele>1415.0</ele>
        <time>2019-08-01T10:19:55.928Z</time>
      </trkpt>
      <trkpt lat="43.027125" lon="-1.29542167">
        <ele>1415.0</ele>
        <time>2019-08-01T10:19:56.933Z</time>
      </trkpt>
      <trkpt lat="43.02711333" lon="-1.29541667">
        <ele>1414.0</ele>
        <time>2019-08-01T10:19:57.939Z</time>
      </trkpt>
      <trkpt lat="43.02710167" lon="-1.295415">
        <ele>1414.0</ele>
        <time>2019-08-01T10:19:58.944Z</time>
      </trkpt>
      <trkpt lat="43.02708833" lon="-1.29541333">
        <ele>1414.0</ele>
        <time>2019-08-01T10:19:59.949Z</time>
      </trkpt>
      <trkpt lat="43.02707667" lon="-1.29541">
        <ele>1413.0</ele>
        <time>2019-08-01T10:20:00.957Z</time>
      </trkpt>
      <trkpt lat="43.02706333" lon="-1.295405">
        <ele>1413.0</ele>
        <time>2019-08-01T10:20:01.964Z</time>
      </trkpt>
      <trkpt lat="43.02705" lon="-1.29540167">
        <ele>1413.0</ele>
        <time>2019-08-01T10:20:02.969Z</time>
      </trkpt>
      <trkpt lat="43.02703833" lon="-1.29540167">
        <ele>1413.0</ele>
        <time>2019-08-01T10:20:03.975Z</time>
      </trkpt>
      <trkpt lat="43.027025" lon="-1.2954">
        <ele>1413.0</ele>
        <time>2019-08-01T10:20:04.983Z</time>
      </trkpt>
      <trkpt lat="43.02701167" lon="-1.295395">
        <ele>1413.0</ele>
        <time>2019-08-01T10:20:05.987Z</time>
      </trkpt>
      <trkpt lat="43.02699833" lon="-1.29539">
        <ele>1413.0</ele>
        <time>2019-08-01T10:20:06.991Z</time>
      </trkpt>
      <trkpt lat="43.026985" lon="-1.295385">
        <ele>1413.0</ele>
        <time>2019-08-01T10:20:07.998Z</time>
      </trkpt>
      <trkpt lat="43.02697333" lon="-1.29538333">
        <ele>1413.0</ele>
        <time>2019-08-01T10:20:09.003Z</time>
      </trkpt>
      <trkpt lat="43.02695833" lon="-1.29537667">
        <ele>1413.0</ele>
        <time>2019-08-01T10:20:10.010Z</time>
      </trkpt>
      <trkpt lat="43.026945" lon="-1.29537333">
        <ele>1413.0</ele>
        <time>2019-08-01T10:20:11.016Z</time>
      </trkpt>
      <trkpt lat="43.02693333" lon="-1.29537167">
        <ele>1413.0</ele>
        <time>2019-08-01T10:20:12.022Z</time>
      </trkpt>
      <trkpt lat="43.02692" lon="-1.29536833">
        <ele>1413.0</ele>
        <time>2019-08-01T10:20:13.027Z</time>
      </trkpt>
      <trkpt lat="43.026905" lon="-1.29536667">
        <ele>1414.0</ele>
        <time>2019-08-01T10:20:14.033Z</time>
      </trkpt>
      <trkpt lat="43.02689167" lon="-1.29536833">
        <ele>1414.0</ele>
        <time>2019-08-01T10:20:15.037Z</time>
      </trkpt>
      <trkpt lat="43.02687667" lon="-1.29536833">
        <ele>1414.0</ele>
        <time>2019-08-01T10:20:15.919Z</time>
      </trkpt>
      <trkpt lat="43.02686333" lon="-1.29536833">
        <ele>1414.0</ele>
        <time>2019-08-01T10:20:16.924Z</time>
      </trkpt>
      <trkpt lat="43.02685" lon="-1.29537">
        <ele>1414.0</ele>
        <time>2019-08-01T10:20:17.929Z</time>
      </trkpt>
      <trkpt lat="43.02683667" lon="-1.29537333">
        <ele>1415.0</ele>
        <time>2019-08-01T10:20:18.938Z</time>
      </trkpt>
      <trkpt lat="43.02682333" lon="-1.29537">
        <ele>1415.0</ele>
        <time>2019-08-01T10:20:19.944Z</time>
      </trkpt>
      <trkpt lat="43.02681167" lon="-1.295365">
        <ele>1416.0</ele>
        <time>2019-08-01T10:20:20.948Z</time>
      </trkpt>
      <trkpt lat="43.02679667" lon="-1.29536">
        <ele>1417.0</ele>
        <time>2019-08-01T10:20:21.954Z</time>
      </trkpt>
      <trkpt lat="43.026785" lon="-1.29535667">
        <ele>1417.0</ele>
        <time>2019-08-01T10:20:22.962Z</time>
      </trkpt>
      <trkpt lat="43.02677167" lon="-1.29535333">
        <ele>1417.0</ele>
        <time>2019-08-01T10:20:23.967Z</time>
      </trkpt>
      <trkpt lat="43.02676167" lon="-1.29535167">
        <ele>1418.0</ele>
        <time>2019-08-01T10:20:24.974Z</time>
      </trkpt>
      <trkpt lat="43.02674833" lon="-1.29535333">
        <ele>1418.0</ele>
        <time>2019-08-01T10:20:25.982Z</time>
      </trkpt>
      <trkpt lat="43.026735" lon="-1.29535333">
        <ele>1417.0</ele>
        <time>2019-08-01T10:20:26.988Z</time>
      </trkpt>
      <trkpt lat="43.02672" lon="-1.29535">
        <ele>1417.0</ele>
        <time>2019-08-01T10:20:27.992Z</time>
      </trkpt>
      <trkpt lat="43.026705" lon="-1.29535">
        <ele>1417.0</ele>
        <time>2019-08-01T10:20:28.999Z</time>
      </trkpt>
      <trkpt lat="43.026695" lon="-1.29534667">
        <ele>1418.0</ele>
        <time>2019-08-01T10:20:30.005Z</time>
      </trkpt>
      <trkpt lat="43.02668" lon="-1.29534833">
        <ele>1418.0</ele>
        <time>2019-08-01T10:20:31.013Z</time>
      </trkpt>
      <trkpt lat="43.02666667" lon="-1.29534833">
        <ele>1418.0</ele>
        <time>2019-08-01T10:20:32.019Z</time>
      </trkpt>
      <trkpt lat="43.026655" lon="-1.295345">
        <ele>1419.0</ele>
        <time>2019-08-01T10:20:33.025Z</time>
      </trkpt>
      <trkpt lat="43.02664333" lon="-1.295345">
        <ele>1419.0</ele>
        <time>2019-08-01T10:20:34.028Z</time>
      </trkpt>
      <trkpt lat="43.02663167" lon="-1.295345">
        <ele>1418.0</ele>
        <time>2019-08-01T10:20:35.032Z</time>
      </trkpt>
      <trkpt lat="43.02661833" lon="-1.29534833">
        <ele>1418.0</ele>
        <time>2019-08-01T10:20:36.038Z</time>
      </trkpt>
      <trkpt lat="43.02660667" lon="-1.29535">
        <ele>1418.0</ele>
        <time>2019-08-01T10:20:37.042Z</time>
      </trkpt>
      <trkpt lat="43.02659333" lon="-1.295355">
        <ele>1419.0</ele>
        <time>2019-08-01T10:20:37.922Z</time>
      </trkpt>
      <trkpt lat="43.02658" lon="-1.29535833">
        <ele>1418.0</ele>
        <time>2019-08-01T10:20:38.928Z</time>
      </trkpt>
      <trkpt lat="43.02656667" lon="-1.29535833">
        <ele>1418.0</ele>
        <time>2019-08-01T10:20:39.935Z</time>
      </trkpt>
      <trkpt lat="43.02655667" lon="-1.29536">
        <ele>1419.0</ele>
        <time>2019-08-01T10:20:40.940Z</time>
      </trkpt>
      <trkpt lat="43.02654167" lon="-1.29536167">
        <ele>1419.0</ele>
        <time>2019-08-01T10:20:41.948Z</time>
      </trkpt>
      <trkpt lat="43.02653" lon="-1.295365">
        <ele>1418.0</ele>
        <time>2019-08-01T10:20:42.953Z</time>
      </trkpt>
      <trkpt lat="43.02651667" lon="-1.29537">
        <ele>1418.0</ele>
        <time>2019-08-01T10:20:43.960Z</time>
      </trkpt>
      <trkpt lat="43.026505" lon="-1.295375">
        <ele>1417.0</ele>
        <time>2019-08-01T10:20:44.968Z</time>
      </trkpt>
      <trkpt lat="43.02649167" lon="-1.29537833">
        <ele>1417.0</ele>
        <time>2019-08-01T10:20:45.975Z</time>
      </trkpt>
      <trkpt lat="43.02648" lon="-1.29538167">
        <ele>1416.0</ele>
        <time>2019-08-01T10:20:46.981Z</time>
      </trkpt>
      <trkpt lat="43.02646667" lon="-1.295385">
        <ele>1416.0</ele>
        <time>2019-08-01T10:20:47.986Z</time>
      </trkpt>
      <trkpt lat="43.026455" lon="-1.29539167">
        <ele>1415.0</ele>
        <time>2019-08-01T10:20:48.990Z</time>
      </trkpt>
      <trkpt lat="43.02644167" lon="-1.2954">
        <ele>1415.0</ele>
        <time>2019-08-01T10:20:49.995Z</time>
      </trkpt>
      <trkpt lat="43.02643" lon="-1.29540667">
        <ele>1415.0</ele>
        <time>2019-08-01T10:20:51.001Z</time>
      </trkpt>
      <trkpt lat="43.02641667" lon="-1.29541167">
        <ele>1415.0</ele>
        <time>2019-08-01T10:20:52.006Z</time>
      </trkpt>
      <trkpt lat="43.026405" lon="-1.295415">
        <ele>1416.0</ele>
        <time>2019-08-01T10:20:53.012Z</time>
      </trkpt>
      <trkpt lat="43.02639333" lon="-1.29542">
        <ele>1416.0</ele>
        <time>2019-08-01T10:20:54.017Z</time>
      </trkpt>
      <trkpt lat="43.02638" lon="-1.29542167">
        <ele>1416.0</ele>
        <time>2019-08-01T10:20:55.022Z</time>
      </trkpt>
      <trkpt lat="43.02636833" lon="-1.29542333">
        <ele>1417.0</ele>
        <time>2019-08-01T10:20:56.027Z</time>
      </trkpt>
      <trkpt lat="43.026355" lon="-1.295425">
        <ele>1418.0</ele>
        <time>2019-08-01T10:20:57.031Z</time>
      </trkpt>
      <trkpt lat="43.02634333" lon="-1.29543">
        <ele>1418.0</ele>
        <time>2019-08-01T10:20:58.036Z</time>
      </trkpt>
      <trkpt lat="43.02633" lon="-1.295435">
        <ele>1418.0</ele>
        <time>2019-08-01T10:20:59.042Z</time>
      </trkpt>
      <trkpt lat="43.02631833" lon="-1.29543833">
        <ele>1418.0</ele>
        <time>2019-08-01T10:20:59.919Z</time>
      </trkpt>
      <trkpt lat="43.02630667" lon="-1.29544333">
        <ele>1418.0</ele>
        <time>2019-08-01T10:21:00.923Z</time>
      </trkpt>
      <trkpt lat="43.02629333" lon="-1.295445">
        <ele>1419.0</ele>
        <time>2019-08-01T10:21:01.928Z</time>
      </trkpt>
      <trkpt lat="43.02628167" lon="-1.29545167">
        <ele>1419.0</ele>
        <time>2019-08-01T10:21:02.933Z</time>
      </trkpt>
      <trkpt lat="43.02626833" lon="-1.29545833">
        <ele>1419.0</ele>
        <time>2019-08-01T10:21:03.938Z</time>
      </trkpt>
      <trkpt lat="43.02625667" lon="-1.29546833">
        <ele>1420.0</ele>
        <time>2019-08-01T10:21:04.943Z</time>
      </trkpt>
      <trkpt lat="43.02624333" lon="-1.29547333">
        <ele>1420.0</ele>
        <time>2019-08-01T10:21:05.948Z</time>
      </trkpt>
      <trkpt lat="43.02623333" lon="-1.29548">
        <ele>1420.0</ele>
        <time>2019-08-01T10:21:06.956Z</time>
      </trkpt>
      <trkpt lat="43.02622" lon="-1.29548833">
        <ele>1420.0</ele>
        <time>2019-08-01T10:21:07.961Z</time>
      </trkpt>
      <trkpt lat="43.02620833" lon="-1.29549333">
        <ele>1420.0</ele>
        <time>2019-08-01T10:21:08.966Z</time>
      </trkpt>
      <trkpt lat="43.02619667" lon="-1.2955">
        <ele>1420.0</ele>
        <time>2019-08-01T10:21:09.971Z</time>
      </trkpt>
      <trkpt lat="43.02618333" lon="-1.29550667">
        <ele>1419.0</ele>
        <time>2019-08-01T10:21:10.979Z</time>
      </trkpt>
      <trkpt lat="43.02617333" lon="-1.29551667">
        <ele>1419.0</ele>
        <time>2019-08-01T10:21:11.985Z</time>
      </trkpt>
      <trkpt lat="43.02616333" lon="-1.29552833">
        <ele>1419.0</ele>
        <time>2019-08-01T10:21:12.990Z</time>
      </trkpt>
      <trkpt lat="43.02615167" lon="-1.29553667">
        <ele>1419.0</ele>
        <time>2019-08-01T10:21:13.996Z</time>
      </trkpt>
      <trkpt lat="43.026145" lon="-1.29554667">
        <ele>1419.0</ele>
        <time>2019-08-01T10:21:15.002Z</time>
      </trkpt>
      <trkpt lat="43.02614333" lon="-1.29556">
        <ele>1419.0</ele>
        <time>2019-08-01T10:21:16.009Z</time>
      </trkpt>
      <trkpt lat="43.026145" lon="-1.29557167">
        <ele>1419.0</ele>
        <time>2019-08-01T10:21:17.016Z</time>
      </trkpt>
      <trkpt lat="43.02615" lon="-1.295585">
        <ele>1419.0</ele>
        <time>2019-08-01T10:21:18.022Z</time>
      </trkpt>
      <trkpt lat="43.02615833" lon="-1.29559667">
        <ele>1420.0</ele>
        <time>2019-08-01T10:21:19.029Z</time>
      </trkpt>
      <trkpt lat="43.02616667" lon="-1.295605">
        <ele>1420.0</ele>
        <time>2019-08-01T10:21:20.032Z</time>
      </trkpt>
      <trkpt lat="43.02617333" lon="-1.295615">
        <ele>1421.0</ele>
        <time>2019-08-01T10:21:21.038Z</time>
      </trkpt>
      <trkpt lat="43.02617833" lon="-1.295625">
        <ele>1421.0</ele>
        <time>2019-08-01T10:21:21.918Z</time>
      </trkpt>
      <trkpt lat="43.02618167" lon="-1.295635">
        <ele>1421.0</ele>
        <time>2019-08-01T10:21:22.924Z</time>
      </trkpt>
      <trkpt lat="43.026185" lon="-1.29564833">
        <ele>1421.0</ele>
        <time>2019-08-01T10:21:23.931Z</time>
      </trkpt>
      <trkpt lat="43.02618667" lon="-1.29565833">
        <ele>1421.0</ele>
        <time>2019-08-01T10:21:24.938Z</time>
      </trkpt>
      <trkpt lat="43.02618667" lon="-1.29566833">
        <ele>1421.0</ele>
        <time>2019-08-01T10:21:25.945Z</time>
      </trkpt>
      <trkpt lat="43.026185" lon="-1.29568">
        <ele>1421.0</ele>
        <time>2019-08-01T10:21:26.948Z</time>
      </trkpt>
      <trkpt lat="43.026185" lon="-1.29569">
        <ele>1420.0</ele>
        <time>2019-08-01T10:21:27.955Z</time>
      </trkpt>
      <trkpt lat="43.026185" lon="-1.2957">
        <ele>1420.0</ele>
        <time>2019-08-01T10:21:28.961Z</time>
      </trkpt>
      <trkpt lat="43.02618167" lon="-1.29571">
        <ele>1420.0</ele>
        <time>2019-08-01T10:21:29.968Z</time>
      </trkpt>
      <trkpt lat="43.02617833" lon="-1.29572">
        <ele>1419.0</ele>
        <time>2019-08-01T10:21:30.974Z</time>
      </trkpt>
      <trkpt lat="43.02617333" lon="-1.29573167">
        <ele>1419.0</ele>
        <time>2019-08-01T10:21:31.980Z</time>
      </trkpt>
      <trkpt lat="43.02617" lon="-1.29574333">
        <ele>1419.0</ele>
        <time>2019-08-01T10:21:32.987Z</time>
      </trkpt>
      <trkpt lat="43.02616667" lon="-1.295755">
        <ele>1419.0</ele>
        <time>2019-08-01T10:21:33.993Z</time>
      </trkpt>
      <trkpt lat="43.02616167" lon="-1.29576333">
        <ele>1419.0</ele>
        <time>2019-08-01T10:21:34.999Z</time>
      </trkpt>
      <trkpt lat="43.026155" lon="-1.29577167">
        <ele>1419.0</ele>
        <time>2019-08-01T10:21:36.007Z</time>
      </trkpt>
      <trkpt lat="43.02615" lon="-1.29577667">
        <ele>1419.0</ele>
        <time>2019-08-01T10:21:37.013Z</time>
      </trkpt>
      <trkpt lat="43.02614167" lon="-1.29578167">
        <ele>1419.0</ele>
        <time>2019-08-01T10:21:38.021Z</time>
      </trkpt>
      <trkpt lat="43.02613667" lon="-1.29578833">
        <ele>1419.0</ele>
        <time>2019-08-01T10:21:39.026Z</time>
      </trkpt>
      <trkpt lat="43.02613" lon="-1.29579167">
        <ele>1419.0</ele>
        <time>2019-08-01T10:21:40.030Z</time>
      </trkpt>
      <trkpt lat="43.026125" lon="-1.29579667">
        <ele>1419.0</ele>
        <time>2019-08-01T10:21:41.033Z</time>
      </trkpt>
      <trkpt lat="43.02611833" lon="-1.2958">
        <ele>1419.0</ele>
        <time>2019-08-01T10:21:42.039Z</time>
      </trkpt>
      <trkpt lat="43.02611167" lon="-1.295805">
        <ele>1419.0</ele>
        <time>2019-08-01T10:21:42.919Z</time>
      </trkpt>
      <trkpt lat="43.02610667" lon="-1.29581">
        <ele>1419.0</ele>
        <time>2019-08-01T10:21:43.927Z</time>
      </trkpt>
      <trkpt lat="43.02610167" lon="-1.295815">
        <ele>1419.0</ele>
        <time>2019-08-01T10:21:44.933Z</time>
      </trkpt>
      <trkpt lat="43.026095" lon="-1.29581833">
        <ele>1419.0</ele>
        <time>2019-08-01T10:21:45.939Z</time>
      </trkpt>
      <trkpt lat="43.02608833" lon="-1.29582">
        <ele>1419.0</ele>
        <time>2019-08-01T10:21:46.945Z</time>
      </trkpt>
      <trkpt lat="43.02608167" lon="-1.295825">
        <ele>1419.0</ele>
        <time>2019-08-01T10:21:47.950Z</time>
      </trkpt>
      <trkpt lat="43.026075" lon="-1.29583">
        <ele>1419.0</ele>
        <time>2019-08-01T10:21:48.958Z</time>
      </trkpt>
      <trkpt lat="43.02606833" lon="-1.29583333">
        <ele>1418.0</ele>
        <time>2019-08-01T10:21:49.964Z</time>
      </trkpt>
      <trkpt lat="43.02606167" lon="-1.29584">
        <ele>1418.0</ele>
        <time>2019-08-01T10:21:50.970Z</time>
      </trkpt>
      <trkpt lat="43.026055" lon="-1.29584167">
        <ele>1418.0</ele>
        <time>2019-08-01T10:21:51.975Z</time>
      </trkpt>
      <trkpt lat="43.026045" lon="-1.29584167">
        <ele>1418.0</ele>
        <time>2019-08-01T10:21:52.982Z</time>
      </trkpt>
      <trkpt lat="43.02603667" lon="-1.29584">
        <ele>1418.0</ele>
        <time>2019-08-01T10:21:53.990Z</time>
      </trkpt>
      <trkpt lat="43.02602833" lon="-1.29584">
        <ele>1418.0</ele>
        <time>2019-08-01T10:21:54.995Z</time>
      </trkpt>
      <trkpt lat="43.02601833" lon="-1.29584">
        <ele>1418.0</ele>
        <time>2019-08-01T10:21:56.001Z</time>
      </trkpt>
      <trkpt lat="43.02600833" lon="-1.29584167">
        <ele>1417.0</ele>
        <time>2019-08-01T10:21:57.008Z</time>
      </trkpt>
      <trkpt lat="43.026" lon="-1.29584667">
        <ele>1417.0</ele>
        <time>2019-08-01T10:21:58.015Z</time>
      </trkpt>
      <trkpt lat="43.02599" lon="-1.29585167">
        <ele>1417.0</ele>
        <time>2019-08-01T10:21:59.021Z</time>
      </trkpt>
      <trkpt lat="43.02598333" lon="-1.29586167">
        <ele>1416.0</ele>
        <time>2019-08-01T10:22:00.028Z</time>
      </trkpt>
      <trkpt lat="43.02597833" lon="-1.295875">
        <ele>1416.0</ele>
        <time>2019-08-01T10:22:01.032Z</time>
      </trkpt>
      <trkpt lat="43.02597667" lon="-1.295885">
        <ele>1417.0</ele>
        <time>2019-08-01T10:22:02.038Z</time>
      </trkpt>
      <trkpt lat="43.02597667" lon="-1.29589667">
        <ele>1417.0</ele>
        <time>2019-08-01T10:22:02.919Z</time>
      </trkpt>
      <trkpt lat="43.025975" lon="-1.29591">
        <ele>1417.0</ele>
        <time>2019-08-01T10:22:03.926Z</time>
      </trkpt>
      <trkpt lat="43.02597167" lon="-1.29592">
        <ele>1417.0</ele>
        <time>2019-08-01T10:22:04.930Z</time>
      </trkpt>
      <trkpt lat="43.02597" lon="-1.29592833">
        <ele>1417.0</ele>
        <time>2019-08-01T10:22:05.935Z</time>
      </trkpt>
      <trkpt lat="43.02596833" lon="-1.29593333">
        <ele>1417.0</ele>
        <time>2019-08-01T10:22:06.942Z</time>
      </trkpt>
      <trkpt lat="43.025965" lon="-1.29594">
        <ele>1417.0</ele>
        <time>2019-08-01T10:22:07.947Z</time>
      </trkpt>
      <trkpt lat="43.02596167" lon="-1.29594833">
        <ele>1417.0</ele>
        <time>2019-08-01T10:22:08.953Z</time>
      </trkpt>
      <trkpt lat="43.02595833" lon="-1.295955">
        <ele>1417.0</ele>
        <time>2019-08-01T10:22:09.958Z</time>
      </trkpt>
      <trkpt lat="43.02595167" lon="-1.29596">
        <ele>1417.0</ele>
        <time>2019-08-01T10:22:10.965Z</time>
      </trkpt>
      <trkpt lat="43.02594667" lon="-1.295965">
        <ele>1417.0</ele>
        <time>2019-08-01T10:22:11.971Z</time>
      </trkpt>
      <trkpt lat="43.02594167" lon="-1.29596833">
        <ele>1417.0</ele>
        <time>2019-08-01T10:22:12.976Z</time>
      </trkpt>
      <trkpt lat="43.025935" lon="-1.29597667">
        <ele>1417.0</ele>
        <time>2019-08-01T10:22:13.982Z</time>
      </trkpt>
      <trkpt lat="43.02592833" lon="-1.295985">
        <ele>1417.0</ele>
        <time>2019-08-01T10:22:14.989Z</time>
      </trkpt>
      <trkpt lat="43.02592333" lon="-1.29599667">
        <ele>1416.0</ele>
        <time>2019-08-01T10:22:15.993Z</time>
      </trkpt>
      <trkpt lat="43.02592167" lon="-1.29600667">
        <ele>1416.0</ele>
        <time>2019-08-01T10:22:16.999Z</time>
      </trkpt>
      <trkpt lat="43.02592" lon="-1.29601667">
        <ele>1416.0</ele>
        <time>2019-08-01T10:22:18.005Z</time>
      </trkpt>
      <trkpt lat="43.02592167" lon="-1.29602167">
        <ele>1416.0</ele>
        <time>2019-08-01T10:22:19.008Z</time>
      </trkpt>
      <trkpt lat="43.02592333" lon="-1.29602833">
        <ele>1416.0</ele>
        <time>2019-08-01T10:22:20.012Z</time>
      </trkpt>
      <trkpt lat="43.02592333" lon="-1.29603">
        <ele>1416.0</ele>
        <time>2019-08-01T10:22:21.019Z</time>
      </trkpt>
      <trkpt lat="43.02592333" lon="-1.29603167">
        <ele>1416.0</ele>
        <time>2019-08-01T10:22:22.023Z</time>
      </trkpt>
      <trkpt lat="43.025925" lon="-1.29603333">
        <ele>1416.0</ele>
        <time>2019-08-01T10:22:23.028Z</time>
      </trkpt>
      <trkpt lat="43.025925" lon="-1.29603667">
        <ele>1416.0</ele>
        <time>2019-08-01T10:22:24.033Z</time>
      </trkpt>
      <trkpt lat="43.025925" lon="-1.29604167">
        <ele>1416.0</ele>
        <time>2019-08-01T10:22:25.039Z</time>
      </trkpt>
      <trkpt lat="43.02592667" lon="-1.29604667">
        <ele>1416.0</ele>
        <time>2019-08-01T10:22:25.919Z</time>
      </trkpt>
      <trkpt lat="43.02592667" lon="-1.296055">
        <ele>1416.0</ele>
        <time>2019-08-01T10:22:26.926Z</time>
      </trkpt>
      <trkpt lat="43.02592667" lon="-1.296065">
        <ele>1416.0</ele>
        <time>2019-08-01T10:22:27.931Z</time>
      </trkpt>
      <trkpt lat="43.02592667" lon="-1.296075">
        <ele>1416.0</ele>
        <time>2019-08-01T10:22:28.937Z</time>
      </trkpt>
      <trkpt lat="43.02592833" lon="-1.29608333">
        <ele>1416.0</ele>
        <time>2019-08-01T10:22:29.942Z</time>
      </trkpt>
      <trkpt lat="43.02592667" lon="-1.29609">
        <ele>1416.0</ele>
        <time>2019-08-01T10:22:30.948Z</time>
      </trkpt>
      <trkpt lat="43.02592333" lon="-1.29609833">
        <ele>1415.0</ele>
        <time>2019-08-01T10:22:31.954Z</time>
      </trkpt>
      <trkpt lat="43.02591833" lon="-1.29610833">
        <ele>1414.0</ele>
        <time>2019-08-01T10:22:32.956Z</time>
      </trkpt>
      <trkpt lat="43.02591" lon="-1.29611333">
        <ele>1413.0</ele>
        <time>2019-08-01T10:22:33.961Z</time>
      </trkpt>
      <trkpt lat="43.02590333" lon="-1.29611833">
        <ele>1413.0</ele>
        <time>2019-08-01T10:22:34.968Z</time>
      </trkpt>
      <trkpt lat="43.025895" lon="-1.296125">
        <ele>1412.0</ele>
        <time>2019-08-01T10:22:35.974Z</time>
      </trkpt>
      <trkpt lat="43.025885" lon="-1.29613333">
        <ele>1412.0</ele>
        <time>2019-08-01T10:22:36.980Z</time>
      </trkpt>
      <trkpt lat="43.02587833" lon="-1.29614333">
        <ele>1411.0</ele>
        <time>2019-08-01T10:22:37.987Z</time>
      </trkpt>
      <trkpt lat="43.02587167" lon="-1.296155">
        <ele>1411.0</ele>
        <time>2019-08-01T10:22:38.992Z</time>
      </trkpt>
      <trkpt lat="43.025865" lon="-1.29616333">
        <ele>1411.0</ele>
        <time>2019-08-01T10:22:40.000Z</time>
      </trkpt>
      <trkpt lat="43.02586" lon="-1.29617167">
        <ele>1410.0</ele>
        <time>2019-08-01T10:22:41.004Z</time>
      </trkpt>
      <trkpt lat="43.02585167" lon="-1.29618">
        <ele>1410.0</ele>
        <time>2019-08-01T10:22:42.011Z</time>
      </trkpt>
      <trkpt lat="43.025845" lon="-1.29618667">
        <ele>1409.0</ele>
        <time>2019-08-01T10:22:43.016Z</time>
      </trkpt>
      <trkpt lat="43.02583667" lon="-1.29619167">
        <ele>1409.0</ele>
        <time>2019-08-01T10:22:44.021Z</time>
      </trkpt>
      <trkpt lat="43.02583167" lon="-1.29619667">
        <ele>1408.0</ele>
        <time>2019-08-01T10:22:45.028Z</time>
      </trkpt>
      <trkpt lat="43.025825" lon="-1.29620667">
        <ele>1408.0</ele>
        <time>2019-08-01T10:22:46.033Z</time>
      </trkpt>
      <trkpt lat="43.02582" lon="-1.29621667">
        <ele>1407.0</ele>
        <time>2019-08-01T10:22:47.038Z</time>
      </trkpt>
      <trkpt lat="43.02581667" lon="-1.29622167">
        <ele>1407.0</ele>
        <time>2019-08-01T10:22:47.919Z</time>
      </trkpt>
      <trkpt lat="43.02581" lon="-1.29622833">
        <ele>1406.0</ele>
        <time>2019-08-01T10:22:48.924Z</time>
      </trkpt>
      <trkpt lat="43.025805" lon="-1.296235">
        <ele>1406.0</ele>
        <time>2019-08-01T10:22:49.927Z</time>
      </trkpt>
      <trkpt lat="43.02579833" lon="-1.296245">
        <ele>1406.0</ele>
        <time>2019-08-01T10:22:50.934Z</time>
      </trkpt>
      <trkpt lat="43.02579" lon="-1.29625833">
        <ele>1405.0</ele>
        <time>2019-08-01T10:22:51.939Z</time>
      </trkpt>
      <trkpt lat="43.02578333" lon="-1.29626833">
        <ele>1405.0</ele>
        <time>2019-08-01T10:22:52.945Z</time>
      </trkpt>
      <trkpt lat="43.025775" lon="-1.29627667">
        <ele>1404.0</ele>
        <time>2019-08-01T10:22:53.948Z</time>
      </trkpt>
      <trkpt lat="43.02577167" lon="-1.29628">
        <ele>1405.0</ele>
        <time>2019-08-01T10:22:54.951Z</time>
      </trkpt>
      <trkpt lat="43.025765" lon="-1.29628667">
        <ele>1405.0</ele>
        <time>2019-08-01T10:22:55.958Z</time>
      </trkpt>
      <trkpt lat="43.02575833" lon="-1.29629333">
        <ele>1406.0</ele>
        <time>2019-08-01T10:22:56.964Z</time>
      </trkpt>
      <trkpt lat="43.02575167" lon="-1.29629833">
        <ele>1406.0</ele>
        <time>2019-08-01T10:22:57.972Z</time>
      </trkpt>
      <trkpt lat="43.025745" lon="-1.29630667">
        <ele>1406.0</ele>
        <time>2019-08-01T10:22:58.977Z</time>
      </trkpt>
      <trkpt lat="43.02574" lon="-1.29631">
        <ele>1406.0</ele>
        <time>2019-08-01T10:22:59.981Z</time>
      </trkpt>
      <trkpt lat="43.02573667" lon="-1.296315">
        <ele>1405.0</ele>
        <time>2019-08-01T10:23:00.984Z</time>
      </trkpt>
      <trkpt lat="43.02573333" lon="-1.29632333">
        <ele>1405.0</ele>
        <time>2019-08-01T10:23:01.990Z</time>
      </trkpt>
      <trkpt lat="43.02573" lon="-1.29633167">
        <ele>1405.0</ele>
        <time>2019-08-01T10:23:02.997Z</time>
      </trkpt>
      <trkpt lat="43.02572333" lon="-1.29634">
        <ele>1405.0</ele>
        <time>2019-08-01T10:23:04.002Z</time>
      </trkpt>
      <trkpt lat="43.02571667" lon="-1.29635">
        <ele>1405.0</ele>
        <time>2019-08-01T10:23:05.009Z</time>
      </trkpt>
      <trkpt lat="43.02571167" lon="-1.29635833">
        <ele>1405.0</ele>
        <time>2019-08-01T10:23:06.016Z</time>
      </trkpt>
      <trkpt lat="43.02570833" lon="-1.29636833">
        <ele>1405.0</ele>
        <time>2019-08-01T10:23:07.021Z</time>
      </trkpt>
      <trkpt lat="43.025705" lon="-1.29637833">
        <ele>1404.0</ele>
        <time>2019-08-01T10:23:08.025Z</time>
      </trkpt>
      <trkpt lat="43.02570333" lon="-1.29639">
        <ele>1404.0</ele>
        <time>2019-08-01T10:23:09.031Z</time>
      </trkpt>
      <trkpt lat="43.0257" lon="-1.2964">
        <ele>1404.0</ele>
        <time>2019-08-01T10:23:10.039Z</time>
      </trkpt>
      <trkpt lat="43.02569667" lon="-1.29640833">
        <ele>1404.0</ele>
        <time>2019-08-01T10:23:10.919Z</time>
      </trkpt>
      <trkpt lat="43.02569333" lon="-1.296415">
        <ele>1404.0</ele>
        <time>2019-08-01T10:23:11.926Z</time>
      </trkpt>
      <trkpt lat="43.025685" lon="-1.29642">
        <ele>1404.0</ele>
        <time>2019-08-01T10:23:12.930Z</time>
      </trkpt>
      <trkpt lat="43.02568" lon="-1.29642667">
        <ele>1404.0</ele>
        <time>2019-08-01T10:23:13.936Z</time>
      </trkpt>
      <trkpt lat="43.02567333" lon="-1.29643">
        <ele>1405.0</ele>
        <time>2019-08-01T10:23:14.940Z</time>
      </trkpt>
      <trkpt lat="43.025665" lon="-1.29643167">
        <ele>1405.0</ele>
        <time>2019-08-01T10:23:15.945Z</time>
      </trkpt>
      <trkpt lat="43.02565667" lon="-1.29643">
        <ele>1404.0</ele>
        <time>2019-08-01T10:23:16.948Z</time>
      </trkpt>
      <trkpt lat="43.02565" lon="-1.29642667">
        <ele>1404.0</ele>
        <time>2019-08-01T10:23:17.956Z</time>
      </trkpt>
      <trkpt lat="43.02564167" lon="-1.29642333">
        <ele>1404.0</ele>
        <time>2019-08-01T10:23:18.963Z</time>
      </trkpt>
      <trkpt lat="43.02563667" lon="-1.29642167">
        <ele>1403.0</ele>
        <time>2019-08-01T10:23:19.971Z</time>
      </trkpt>
      <trkpt lat="43.02563" lon="-1.296425">
        <ele>1403.0</ele>
        <time>2019-08-01T10:23:20.977Z</time>
      </trkpt>
      <trkpt lat="43.02562333" lon="-1.29642667">
        <ele>1403.0</ele>
        <time>2019-08-01T10:23:21.982Z</time>
      </trkpt>
      <trkpt lat="43.02561667" lon="-1.29643167">
        <ele>1403.0</ele>
        <time>2019-08-01T10:23:22.988Z</time>
      </trkpt>
      <trkpt lat="43.02561167" lon="-1.29643667">
        <ele>1402.0</ele>
        <time>2019-08-01T10:23:23.994Z</time>
      </trkpt>
      <trkpt lat="43.02560667" lon="-1.29644333">
        <ele>1402.0</ele>
        <time>2019-08-01T10:23:24.999Z</time>
      </trkpt>
      <trkpt lat="43.02560333" lon="-1.29645167">
        <ele>1402.0</ele>
        <time>2019-08-01T10:23:26.004Z</time>
      </trkpt>
      <trkpt lat="43.0256" lon="-1.29645833">
        <ele>1402.0</ele>
        <time>2019-08-01T10:23:27.008Z</time>
      </trkpt>
      <trkpt lat="43.02559667" lon="-1.29646667">
        <ele>1402.0</ele>
        <time>2019-08-01T10:23:28.014Z</time>
      </trkpt>
      <trkpt lat="43.02559167" lon="-1.29647667">
        <ele>1403.0</ele>
        <time>2019-08-01T10:23:29.023Z</time>
      </trkpt>
      <trkpt lat="43.025585" lon="-1.29648333">
        <ele>1403.0</ele>
        <time>2019-08-01T10:23:30.030Z</time>
      </trkpt>
      <trkpt lat="43.025575" lon="-1.29649333">
        <ele>1403.0</ele>
        <time>2019-08-01T10:23:31.035Z</time>
      </trkpt>
      <trkpt lat="43.02556833" lon="-1.2965">
        <ele>1403.0</ele>
        <time>2019-08-01T10:23:32.039Z</time>
      </trkpt>
      <trkpt lat="43.02555833" lon="-1.29650833">
        <ele>1403.0</ele>
        <time>2019-08-01T10:23:32.919Z</time>
      </trkpt>
      <trkpt lat="43.025545" lon="-1.29652">
        <ele>1403.0</ele>
        <time>2019-08-01T10:23:33.924Z</time>
      </trkpt>
      <trkpt lat="43.025535" lon="-1.29652833">
        <ele>1403.0</ele>
        <time>2019-08-01T10:23:34.932Z</time>
      </trkpt>
      <trkpt lat="43.02552833" lon="-1.29653833">
        <ele>1403.0</ele>
        <time>2019-08-01T10:23:35.937Z</time>
      </trkpt>
      <trkpt lat="43.02552167" lon="-1.29655">
        <ele>1402.0</ele>
        <time>2019-08-01T10:23:36.942Z</time>
      </trkpt>
      <trkpt lat="43.02551667" lon="-1.29656167">
        <ele>1401.0</ele>
        <time>2019-08-01T10:23:37.947Z</time>
      </trkpt>
      <trkpt lat="43.02551167" lon="-1.29657333">
        <ele>1401.0</ele>
        <time>2019-08-01T10:23:38.952Z</time>
      </trkpt>
      <trkpt lat="43.02550833" lon="-1.29658333">
        <ele>1399.0</ele>
        <time>2019-08-01T10:23:39.959Z</time>
      </trkpt>
      <trkpt lat="43.02550333" lon="-1.29659167">
        <ele>1399.0</ele>
        <time>2019-08-01T10:23:40.965Z</time>
      </trkpt>
      <trkpt lat="43.02549833" lon="-1.29660167">
        <ele>1399.0</ele>
        <time>2019-08-01T10:23:41.971Z</time>
      </trkpt>
      <trkpt lat="43.02549167" lon="-1.29660667">
        <ele>1399.0</ele>
        <time>2019-08-01T10:23:42.977Z</time>
      </trkpt>
      <trkpt lat="43.025485" lon="-1.296615">
        <ele>1398.0</ele>
        <time>2019-08-01T10:23:43.985Z</time>
      </trkpt>
      <trkpt lat="43.02547667" lon="-1.29662167">
        <ele>1398.0</ele>
        <time>2019-08-01T10:23:44.990Z</time>
      </trkpt>
      <trkpt lat="43.02547" lon="-1.29662667">
        <ele>1397.0</ele>
        <time>2019-08-01T10:23:45.996Z</time>
      </trkpt>
      <trkpt lat="43.02546167" lon="-1.29663333">
        <ele>1397.0</ele>
        <time>2019-08-01T10:23:47.002Z</time>
      </trkpt>
      <trkpt lat="43.02545167" lon="-1.29664167">
        <ele>1397.0</ele>
        <time>2019-08-01T10:23:48.008Z</time>
      </trkpt>
      <trkpt lat="43.02544667" lon="-1.29664667">
        <ele>1397.0</ele>
        <time>2019-08-01T10:23:49.014Z</time>
      </trkpt>
      <trkpt lat="43.025435" lon="-1.29665667">
        <ele>1397.0</ele>
        <time>2019-08-01T10:23:50.019Z</time>
      </trkpt>
      <trkpt lat="43.02542833" lon="-1.29666167">
        <ele>1397.0</ele>
        <time>2019-08-01T10:23:51.024Z</time>
      </trkpt>
      <trkpt lat="43.02541833" lon="-1.29666667">
        <ele>1397.0</ele>
        <time>2019-08-01T10:23:52.031Z</time>
      </trkpt>
      <trkpt lat="43.02540667" lon="-1.296675">
        <ele>1397.0</ele>
        <time>2019-08-01T10:23:53.036Z</time>
      </trkpt>
      <trkpt lat="43.02539833" lon="-1.29668">
        <ele>1397.0</ele>
        <time>2019-08-01T10:23:54.042Z</time>
      </trkpt>
      <trkpt lat="43.02538833" lon="-1.29668667">
        <ele>1396.0</ele>
        <time>2019-08-01T10:23:54.924Z</time>
      </trkpt>
      <trkpt lat="43.02537833" lon="-1.296695">
        <ele>1396.0</ele>
        <time>2019-08-01T10:23:55.930Z</time>
      </trkpt>
      <trkpt lat="43.02536833" lon="-1.296705">
        <ele>1396.0</ele>
        <time>2019-08-01T10:23:56.934Z</time>
      </trkpt>
      <trkpt lat="43.02535833" lon="-1.29671333">
        <ele>1396.0</ele>
        <time>2019-08-01T10:23:57.938Z</time>
      </trkpt>
      <trkpt lat="43.02535" lon="-1.29672167">
        <ele>1396.0</ele>
        <time>2019-08-01T10:23:58.944Z</time>
      </trkpt>
      <trkpt lat="43.02534" lon="-1.29672833">
        <ele>1396.0</ele>
        <time>2019-08-01T10:23:59.950Z</time>
      </trkpt>
      <trkpt lat="43.02533333" lon="-1.296735">
        <ele>1395.0</ele>
        <time>2019-08-01T10:24:00.955Z</time>
      </trkpt>
      <trkpt lat="43.02531833" lon="-1.29674333">
        <ele>1395.0</ele>
        <time>2019-08-01T10:24:01.962Z</time>
      </trkpt>
      <trkpt lat="43.02531" lon="-1.29675333">
        <ele>1394.0</ele>
        <time>2019-08-01T10:24:02.970Z</time>
      </trkpt>
      <trkpt lat="43.0253" lon="-1.29676167">
        <ele>1393.0</ele>
        <time>2019-08-01T10:24:03.977Z</time>
      </trkpt>
      <trkpt lat="43.02529333" lon="-1.29676833">
        <ele>1392.0</ele>
        <time>2019-08-01T10:24:04.984Z</time>
      </trkpt>
      <trkpt lat="43.02528333" lon="-1.29677833">
        <ele>1392.0</ele>
        <time>2019-08-01T10:24:05.990Z</time>
      </trkpt>
      <trkpt lat="43.02527667" lon="-1.296785">
        <ele>1392.0</ele>
        <time>2019-08-01T10:24:06.996Z</time>
      </trkpt>
      <trkpt lat="43.02526833" lon="-1.296795">
        <ele>1391.0</ele>
        <time>2019-08-01T10:24:08.002Z</time>
      </trkpt>
      <trkpt lat="43.02526" lon="-1.29679833">
        <ele>1391.0</ele>
        <time>2019-08-01T10:24:09.006Z</time>
      </trkpt>
      <trkpt lat="43.02525" lon="-1.29680833">
        <ele>1391.0</ele>
        <time>2019-08-01T10:24:10.013Z</time>
      </trkpt>
      <trkpt lat="43.02524167" lon="-1.29681667">
        <ele>1390.0</ele>
        <time>2019-08-01T10:24:11.018Z</time>
      </trkpt>
      <trkpt lat="43.025235" lon="-1.296825">
        <ele>1390.0</ele>
        <time>2019-08-01T10:24:12.024Z</time>
      </trkpt>
      <trkpt lat="43.02523" lon="-1.29683167">
        <ele>1390.0</ele>
        <time>2019-08-01T10:24:13.031Z</time>
      </trkpt>
      <trkpt lat="43.025225" lon="-1.29684167">
        <ele>1390.0</ele>
        <time>2019-08-01T10:24:14.035Z</time>
      </trkpt>
      <trkpt lat="43.02521833" lon="-1.29685">
        <ele>1389.0</ele>
        <time>2019-08-01T10:24:15.038Z</time>
      </trkpt>
      <trkpt lat="43.02521167" lon="-1.29686">
        <ele>1388.0</ele>
        <time>2019-08-01T10:24:15.918Z</time>
      </trkpt>
      <trkpt lat="43.02520333" lon="-1.29686667">
        <ele>1388.0</ele>
        <time>2019-08-01T10:24:16.924Z</time>
      </trkpt>
      <trkpt lat="43.02519333" lon="-1.29687167">
        <ele>1387.0</ele>
        <time>2019-08-01T10:24:17.930Z</time>
      </trkpt>
      <trkpt lat="43.02518333" lon="-1.29688">
        <ele>1387.0</ele>
        <time>2019-08-01T10:24:18.935Z</time>
      </trkpt>
      <trkpt lat="43.02517333" lon="-1.29688833">
        <ele>1386.0</ele>
        <time>2019-08-01T10:24:19.941Z</time>
      </trkpt>
      <trkpt lat="43.025165" lon="-1.29689667">
        <ele>1386.0</ele>
        <time>2019-08-01T10:24:20.947Z</time>
      </trkpt>
      <trkpt lat="43.025155" lon="-1.296905">
        <ele>1385.0</ele>
        <time>2019-08-01T10:24:21.952Z</time>
      </trkpt>
      <trkpt lat="43.02514667" lon="-1.29691167">
        <ele>1386.0</ele>
        <time>2019-08-01T10:24:22.957Z</time>
      </trkpt>
      <trkpt lat="43.02513833" lon="-1.29691667">
        <ele>1386.0</ele>
        <time>2019-08-01T10:24:23.964Z</time>
      </trkpt>
      <trkpt lat="43.02513167" lon="-1.29692">
        <ele>1386.0</ele>
        <time>2019-08-01T10:24:24.970Z</time>
      </trkpt>
      <trkpt lat="43.02512333" lon="-1.29693">
        <ele>1386.0</ele>
        <time>2019-08-01T10:24:25.977Z</time>
      </trkpt>
      <trkpt lat="43.02511667" lon="-1.29693833">
        <ele>1386.0</ele>
        <time>2019-08-01T10:24:26.983Z</time>
      </trkpt>
      <trkpt lat="43.02510833" lon="-1.29694667">
        <ele>1387.0</ele>
        <time>2019-08-01T10:24:27.989Z</time>
      </trkpt>
      <trkpt lat="43.02510167" lon="-1.29695333">
        <ele>1387.0</ele>
        <time>2019-08-01T10:24:28.994Z</time>
      </trkpt>
      <trkpt lat="43.02509333" lon="-1.29696">
        <ele>1388.0</ele>
        <time>2019-08-01T10:24:30.000Z</time>
      </trkpt>
      <trkpt lat="43.025085" lon="-1.29696667">
        <ele>1388.0</ele>
        <time>2019-08-01T10:24:31.005Z</time>
      </trkpt>
      <trkpt lat="43.02507833" lon="-1.29697167">
        <ele>1388.0</ele>
        <time>2019-08-01T10:24:32.010Z</time>
      </trkpt>
      <trkpt lat="43.02506833" lon="-1.29698">
        <ele>1387.0</ele>
        <time>2019-08-01T10:24:33.016Z</time>
      </trkpt>
      <trkpt lat="43.02506167" lon="-1.29698833">
        <ele>1386.0</ele>
        <time>2019-08-01T10:24:34.020Z</time>
      </trkpt>
      <trkpt lat="43.025055" lon="-1.296995">
        <ele>1386.0</ele>
        <time>2019-08-01T10:24:35.025Z</time>
      </trkpt>
      <trkpt lat="43.02505" lon="-1.29699833">
        <ele>1385.0</ele>
        <time>2019-08-01T10:24:36.030Z</time>
      </trkpt>
      <trkpt lat="43.02504167" lon="-1.29699833">
        <ele>1385.0</ele>
        <time>2019-08-01T10:24:37.036Z</time>
      </trkpt>
      <trkpt lat="43.02503667" lon="-1.29700167">
        <ele>1385.0</ele>
        <time>2019-08-01T10:24:38.040Z</time>
      </trkpt>
      <trkpt lat="43.02502833" lon="-1.29701">
        <ele>1385.0</ele>
        <time>2019-08-01T10:24:38.919Z</time>
      </trkpt>
      <trkpt lat="43.02502333" lon="-1.29701833">
        <ele>1385.0</ele>
        <time>2019-08-01T10:24:39.922Z</time>
      </trkpt>
      <trkpt lat="43.02501833" lon="-1.29702667">
        <ele>1385.0</ele>
        <time>2019-08-01T10:24:40.926Z</time>
      </trkpt>
      <trkpt lat="43.02501333" lon="-1.29703167">
        <ele>1384.0</ele>
        <time>2019-08-01T10:24:41.932Z</time>
      </trkpt>
      <trkpt lat="43.02500833" lon="-1.29703833">
        <ele>1384.0</ele>
        <time>2019-08-01T10:24:42.939Z</time>
      </trkpt>
      <trkpt lat="43.02499833" lon="-1.29705167">
        <ele>1383.0</ele>
        <time>2019-08-01T10:24:43.944Z</time>
      </trkpt>
      <trkpt lat="43.02498667" lon="-1.297065">
        <ele>1382.0</ele>
        <time>2019-08-01T10:24:44.947Z</time>
      </trkpt>
      <trkpt lat="43.02498" lon="-1.29707333">
        <ele>1382.0</ele>
        <time>2019-08-01T10:24:45.950Z</time>
      </trkpt>
      <trkpt lat="43.02496833" lon="-1.29708333">
        <ele>1381.0</ele>
        <time>2019-08-01T10:24:46.955Z</time>
      </trkpt>
      <trkpt lat="43.024955" lon="-1.29709">
        <ele>1381.0</ele>
        <time>2019-08-01T10:24:47.962Z</time>
      </trkpt>
      <trkpt lat="43.02494167" lon="-1.29709333">
        <ele>1381.0</ele>
        <time>2019-08-01T10:24:48.965Z</time>
      </trkpt>
      <trkpt lat="43.02493333" lon="-1.2971">
        <ele>1381.0</ele>
        <time>2019-08-01T10:24:49.970Z</time>
      </trkpt>
      <trkpt lat="43.024925" lon="-1.29710333">
        <ele>1381.0</ele>
        <time>2019-08-01T10:24:50.976Z</time>
      </trkpt>
      <trkpt lat="43.024915" lon="-1.29710833">
        <ele>1381.0</ele>
        <time>2019-08-01T10:24:51.982Z</time>
      </trkpt>
      <trkpt lat="43.02490833" lon="-1.29711333">
        <ele>1381.0</ele>
        <time>2019-08-01T10:24:52.988Z</time>
      </trkpt>
      <trkpt lat="43.0249" lon="-1.29711833">
        <ele>1381.0</ele>
        <time>2019-08-01T10:24:53.993Z</time>
      </trkpt>
      <trkpt lat="43.02489167" lon="-1.29712667">
        <ele>1382.0</ele>
        <time>2019-08-01T10:24:54.999Z</time>
      </trkpt>
      <trkpt lat="43.02488" lon="-1.29714">
        <ele>1382.0</ele>
        <time>2019-08-01T10:24:56.004Z</time>
      </trkpt>
      <trkpt lat="43.02486667" lon="-1.29714833">
        <ele>1383.0</ele>
        <time>2019-08-01T10:24:57.012Z</time>
      </trkpt>
      <trkpt lat="43.02485833" lon="-1.29715">
        <ele>1383.0</ele>
        <time>2019-08-01T10:24:58.018Z</time>
      </trkpt>
      <trkpt lat="43.02484333" lon="-1.297155">
        <ele>1383.0</ele>
        <time>2019-08-01T10:24:59.021Z</time>
      </trkpt>
      <trkpt lat="43.02482333" lon="-1.29715833">
        <ele>1382.0</ele>
        <time>2019-08-01T10:25:00.028Z</time>
      </trkpt>
      <trkpt lat="43.02481167" lon="-1.29715167">
        <ele>1382.0</ele>
        <time>2019-08-01T10:25:01.033Z</time>
      </trkpt>
      <trkpt lat="43.02480333" lon="-1.29716">
        <ele>1382.0</ele>
        <time>2019-08-01T10:25:02.039Z</time>
      </trkpt>
      <trkpt lat="43.02480167" lon="-1.29717167">
        <ele>1382.0</ele>
        <time>2019-08-01T10:25:02.918Z</time>
      </trkpt>
      <trkpt lat="43.02480667" lon="-1.297185">
        <ele>1382.0</ele>
        <time>2019-08-01T10:25:03.925Z</time>
      </trkpt>
      <trkpt lat="43.02480167" lon="-1.29719833">
        <ele>1381.0</ele>
        <time>2019-08-01T10:25:04.932Z</time>
      </trkpt>
      <trkpt lat="43.02479167" lon="-1.29721">
        <ele>1380.0</ele>
        <time>2019-08-01T10:25:05.939Z</time>
      </trkpt>
      <trkpt lat="43.024785" lon="-1.29721833">
        <ele>1379.0</ele>
        <time>2019-08-01T10:25:06.946Z</time>
      </trkpt>
      <trkpt lat="43.02477667" lon="-1.29722667">
        <ele>1379.0</ele>
        <time>2019-08-01T10:25:07.953Z</time>
      </trkpt>
      <trkpt lat="43.02477" lon="-1.29723333">
        <ele>1378.0</ele>
        <time>2019-08-01T10:25:08.958Z</time>
      </trkpt>
      <trkpt lat="43.02476333" lon="-1.29724">
        <ele>1378.0</ele>
        <time>2019-08-01T10:25:09.962Z</time>
      </trkpt>
      <trkpt lat="43.02475667" lon="-1.29724833">
        <ele>1378.0</ele>
        <time>2019-08-01T10:25:10.967Z</time>
      </trkpt>
      <trkpt lat="43.02475" lon="-1.297255">
        <ele>1378.0</ele>
        <time>2019-08-01T10:25:11.972Z</time>
      </trkpt>
      <trkpt lat="43.02474333" lon="-1.297265">
        <ele>1377.0</ele>
        <time>2019-08-01T10:25:12.978Z</time>
      </trkpt>
      <trkpt lat="43.02474" lon="-1.29727167">
        <ele>1377.0</ele>
        <time>2019-08-01T10:25:13.984Z</time>
      </trkpt>
      <trkpt lat="43.02473333" lon="-1.29727833">
        <ele>1377.0</ele>
        <time>2019-08-01T10:25:14.989Z</time>
      </trkpt>
      <trkpt lat="43.024725" lon="-1.297285">
        <ele>1376.0</ele>
        <time>2019-08-01T10:25:15.995Z</time>
      </trkpt>
      <trkpt lat="43.02471833" lon="-1.29729">
        <ele>1376.0</ele>
        <time>2019-08-01T10:25:17.002Z</time>
      </trkpt>
      <trkpt lat="43.02471" lon="-1.297295">
        <ele>1376.0</ele>
        <time>2019-08-01T10:25:18.006Z</time>
      </trkpt>
      <trkpt lat="43.024705" lon="-1.2973">
        <ele>1375.0</ele>
        <time>2019-08-01T10:25:19.011Z</time>
      </trkpt>
      <trkpt lat="43.0247" lon="-1.297305">
        <ele>1374.0</ele>
        <time>2019-08-01T10:25:20.015Z</time>
      </trkpt>
      <trkpt lat="43.02469167" lon="-1.29731333">
        <ele>1374.0</ele>
        <time>2019-08-01T10:25:21.022Z</time>
      </trkpt>
      <trkpt lat="43.02468333" lon="-1.29732">
        <ele>1373.0</ele>
        <time>2019-08-01T10:25:22.027Z</time>
      </trkpt>
      <trkpt lat="43.02467833" lon="-1.29732167">
        <ele>1373.0</ele>
        <time>2019-08-01T10:25:23.033Z</time>
      </trkpt>
      <trkpt lat="43.02467167" lon="-1.297325">
        <ele>1373.0</ele>
        <time>2019-08-01T10:25:24.039Z</time>
      </trkpt>
      <trkpt lat="43.024665" lon="-1.29733333">
        <ele>1372.0</ele>
        <time>2019-08-01T10:25:24.920Z</time>
      </trkpt>
      <trkpt lat="43.02466" lon="-1.29734">
        <ele>1372.0</ele>
        <time>2019-08-01T10:25:25.926Z</time>
      </trkpt>
      <trkpt lat="43.02466" lon="-1.29734">
        <ele>1371.0</ele>
        <time>2019-08-01T10:25:26.932Z</time>
      </trkpt>
      <trkpt lat="43.02466" lon="-1.29734167">
        <ele>1371.0</ele>
        <time>2019-08-01T10:25:27.939Z</time>
      </trkpt>
      <trkpt lat="43.02466" lon="-1.29734167">
        <ele>1371.0</ele>
        <time>2019-08-01T10:25:28.946Z</time>
      </trkpt>
      <trkpt lat="43.02465667" lon="-1.29734333">
        <ele>1371.0</ele>
        <time>2019-08-01T10:25:29.952Z</time>
      </trkpt>
      <trkpt lat="43.024655" lon="-1.29735">
        <ele>1370.0</ele>
        <time>2019-08-01T10:25:30.957Z</time>
      </trkpt>
      <trkpt lat="43.02464833" lon="-1.297355">
        <ele>1369.0</ele>
        <time>2019-08-01T10:25:31.963Z</time>
      </trkpt>
      <trkpt lat="43.02464167" lon="-1.29735333">
        <ele>1369.0</ele>
        <time>2019-08-01T10:25:32.969Z</time>
      </trkpt>
      <trkpt lat="43.02463333" lon="-1.297355">
        <ele>1369.0</ele>
        <time>2019-08-01T10:25:33.977Z</time>
      </trkpt>
      <trkpt lat="43.02462333" lon="-1.29735333">
        <ele>1369.0</ele>
        <time>2019-08-01T10:25:34.983Z</time>
      </trkpt>
      <trkpt lat="43.02461167" lon="-1.297355">
        <ele>1369.0</ele>
        <time>2019-08-01T10:25:35.988Z</time>
      </trkpt>
      <trkpt lat="43.02460333" lon="-1.29735833">
        <ele>1369.0</ele>
        <time>2019-08-01T10:25:36.994Z</time>
      </trkpt>
      <trkpt lat="43.024595" lon="-1.29736167">
        <ele>1369.0</ele>
        <time>2019-08-01T10:25:37.999Z</time>
      </trkpt>
      <trkpt lat="43.02459" lon="-1.297365">
        <ele>1369.0</ele>
        <time>2019-08-01T10:25:39.004Z</time>
      </trkpt>
      <trkpt lat="43.024585" lon="-1.29736833">
        <ele>1368.0</ele>
        <time>2019-08-01T10:25:40.009Z</time>
      </trkpt>
      <trkpt lat="43.02458" lon="-1.29737167">
        <ele>1368.0</ele>
        <time>2019-08-01T10:25:41.015Z</time>
      </trkpt>
      <trkpt lat="43.02457333" lon="-1.29737833">
        <ele>1368.0</ele>
        <time>2019-08-01T10:25:42.020Z</time>
      </trkpt>
      <trkpt lat="43.02456667" lon="-1.29738333">
        <ele>1367.0</ele>
        <time>2019-08-01T10:25:43.023Z</time>
      </trkpt>
      <trkpt lat="43.02456167" lon="-1.29739">
        <ele>1367.0</ele>
        <time>2019-08-01T10:25:44.031Z</time>
      </trkpt>
      <trkpt lat="43.02455833" lon="-1.29739333">
        <ele>1367.0</ele>
        <time>2019-08-01T10:25:45.036Z</time>
      </trkpt>
      <trkpt lat="43.02455333" lon="-1.29739833">
        <ele>1367.0</ele>
        <time>2019-08-01T10:25:46.040Z</time>
      </trkpt>
      <trkpt lat="43.02454667" lon="-1.29740833">
        <ele>1367.0</ele>
        <time>2019-08-01T10:25:46.921Z</time>
      </trkpt>
      <trkpt lat="43.02453833" lon="-1.297415">
        <ele>1367.0</ele>
        <time>2019-08-01T10:25:47.927Z</time>
      </trkpt>
      <trkpt lat="43.02453" lon="-1.29742333">
        <ele>1366.0</ele>
        <time>2019-08-01T10:25:48.935Z</time>
      </trkpt>
      <trkpt lat="43.02452333" lon="-1.29743">
        <ele>1366.0</ele>
        <time>2019-08-01T10:25:49.943Z</time>
      </trkpt>
      <trkpt lat="43.02451667" lon="-1.29743333">
        <ele>1366.0</ele>
        <time>2019-08-01T10:25:50.948Z</time>
      </trkpt>
      <trkpt lat="43.024505" lon="-1.29744">
        <ele>1366.0</ele>
        <time>2019-08-01T10:25:51.953Z</time>
      </trkpt>
      <trkpt lat="43.02449667" lon="-1.29744667">
        <ele>1365.0</ele>
        <time>2019-08-01T10:25:52.959Z</time>
      </trkpt>
      <trkpt lat="43.02448833" lon="-1.297455">
        <ele>1365.0</ele>
        <time>2019-08-01T10:25:53.965Z</time>
      </trkpt>
      <trkpt lat="43.02447833" lon="-1.297465">
        <ele>1364.0</ele>
        <time>2019-08-01T10:25:54.972Z</time>
      </trkpt>
      <trkpt lat="43.02446667" lon="-1.29747833">
        <ele>1364.0</ele>
        <time>2019-08-01T10:25:55.978Z</time>
      </trkpt>
      <trkpt lat="43.024455" lon="-1.29749167">
        <ele>1364.0</ele>
        <time>2019-08-01T10:25:56.984Z</time>
      </trkpt>
      <trkpt lat="43.024445" lon="-1.29750333">
        <ele>1366.0</ele>
        <time>2019-08-01T10:25:57.989Z</time>
      </trkpt>
      <trkpt lat="43.02443667" lon="-1.29751">
        <ele>1367.0</ele>
        <time>2019-08-01T10:25:58.996Z</time>
      </trkpt>
      <trkpt lat="43.02442" lon="-1.29751667">
        <ele>1367.0</ele>
        <time>2019-08-01T10:26:00.003Z</time>
      </trkpt>
      <trkpt lat="43.02440167" lon="-1.29751333">
        <ele>1367.0</ele>
        <time>2019-08-01T10:26:01.007Z</time>
      </trkpt>
      <trkpt lat="43.02439167" lon="-1.29751167">
        <ele>1368.0</ele>
        <time>2019-08-01T10:26:02.013Z</time>
      </trkpt>
      <trkpt lat="43.02438" lon="-1.297515">
        <ele>1368.0</ele>
        <time>2019-08-01T10:26:03.018Z</time>
      </trkpt>
      <trkpt lat="43.02436833" lon="-1.29751333">
        <ele>1368.0</ele>
        <time>2019-08-01T10:26:04.025Z</time>
      </trkpt>
      <trkpt lat="43.02435833" lon="-1.29752167">
        <ele>1368.0</ele>
        <time>2019-08-01T10:26:05.032Z</time>
      </trkpt>
      <trkpt lat="43.02434667" lon="-1.29752833">
        <ele>1369.0</ele>
        <time>2019-08-01T10:26:06.038Z</time>
      </trkpt>
      <trkpt lat="43.02432667" lon="-1.29753833">
        <ele>1369.0</ele>
        <time>2019-08-01T10:26:07.042Z</time>
      </trkpt>
      <trkpt lat="43.02431333" lon="-1.29754667">
        <ele>1370.0</ele>
        <time>2019-08-01T10:26:07.921Z</time>
      </trkpt>
      <trkpt lat="43.024305" lon="-1.297555">
        <ele>1371.0</ele>
        <time>2019-08-01T10:26:08.927Z</time>
      </trkpt>
      <trkpt lat="43.02429833" lon="-1.29755833">
        <ele>1370.0</ele>
        <time>2019-08-01T10:26:09.932Z</time>
      </trkpt>
      <trkpt lat="43.02429833" lon="-1.29757">
        <ele>1371.0</ele>
        <time>2019-08-01T10:26:10.937Z</time>
      </trkpt>
      <trkpt lat="43.02430333" lon="-1.297575">
        <ele>1370.0</ele>
        <time>2019-08-01T10:26:11.942Z</time>
      </trkpt>
      <trkpt lat="43.02430333" lon="-1.29757833">
        <ele>1369.0</ele>
        <time>2019-08-01T10:26:12.946Z</time>
      </trkpt>
      <trkpt lat="43.02429833" lon="-1.29758667">
        <ele>1368.0</ele>
        <time>2019-08-01T10:26:13.951Z</time>
      </trkpt>
      <trkpt lat="43.02429167" lon="-1.297595">
        <ele>1368.0</ele>
        <time>2019-08-01T10:26:14.957Z</time>
      </trkpt>
      <trkpt lat="43.02428333" lon="-1.2976">
        <ele>1367.0</ele>
        <time>2019-08-01T10:26:15.965Z</time>
      </trkpt>
      <trkpt lat="43.024275" lon="-1.297605">
        <ele>1367.0</ele>
        <time>2019-08-01T10:26:16.972Z</time>
      </trkpt>
      <trkpt lat="43.02426667" lon="-1.29761167">
        <ele>1366.0</ele>
        <time>2019-08-01T10:26:17.978Z</time>
      </trkpt>
      <trkpt lat="43.02425833" lon="-1.29761667">
        <ele>1366.0</ele>
        <time>2019-08-01T10:26:18.985Z</time>
      </trkpt>
      <trkpt lat="43.02425167" lon="-1.297625">
        <ele>1365.0</ele>
        <time>2019-08-01T10:26:19.990Z</time>
      </trkpt>
      <trkpt lat="43.02424667" lon="-1.29763">
        <ele>1365.0</ele>
        <time>2019-08-01T10:26:20.995Z</time>
      </trkpt>
      <trkpt lat="43.02424" lon="-1.29763167">
        <ele>1365.0</ele>
        <time>2019-08-01T10:26:22.000Z</time>
      </trkpt>
      <trkpt lat="43.02423333" lon="-1.29764">
        <ele>1365.0</ele>
        <time>2019-08-01T10:26:23.004Z</time>
      </trkpt>
      <trkpt lat="43.024225" lon="-1.29764667">
        <ele>1364.0</ele>
        <time>2019-08-01T10:26:24.012Z</time>
      </trkpt>
      <trkpt lat="43.02421667" lon="-1.29765167">
        <ele>1363.0</ele>
        <time>2019-08-01T10:26:25.016Z</time>
      </trkpt>
      <trkpt lat="43.02421" lon="-1.297655">
        <ele>1363.0</ele>
        <time>2019-08-01T10:26:26.021Z</time>
      </trkpt>
      <trkpt lat="43.0242" lon="-1.29765833">
        <ele>1363.0</ele>
        <time>2019-08-01T10:26:27.027Z</time>
      </trkpt>
      <trkpt lat="43.02419167" lon="-1.29766">
        <ele>1363.0</ele>
        <time>2019-08-01T10:26:28.033Z</time>
      </trkpt>
      <trkpt lat="43.024185" lon="-1.29765833">
        <ele>1362.0</ele>
        <time>2019-08-01T10:26:29.037Z</time>
      </trkpt>
      <trkpt lat="43.024175" lon="-1.29766">
        <ele>1361.0</ele>
        <time>2019-08-01T10:26:30.041Z</time>
      </trkpt>
      <trkpt lat="43.02416667" lon="-1.29766667">
        <ele>1361.0</ele>
        <time>2019-08-01T10:26:30.918Z</time>
      </trkpt>
      <trkpt lat="43.02415667" lon="-1.297675">
        <ele>1360.0</ele>
        <time>2019-08-01T10:26:31.924Z</time>
      </trkpt>
      <trkpt lat="43.02414333" lon="-1.29768333">
        <ele>1359.0</ele>
        <time>2019-08-01T10:26:32.928Z</time>
      </trkpt>
      <trkpt lat="43.024135" lon="-1.29768667">
        <ele>1359.0</ele>
        <time>2019-08-01T10:26:33.934Z</time>
      </trkpt>
      <trkpt lat="43.02412667" lon="-1.29769167">
        <ele>1359.0</ele>
        <time>2019-08-01T10:26:34.940Z</time>
      </trkpt>
      <trkpt lat="43.02412167" lon="-1.29769667">
        <ele>1358.0</ele>
        <time>2019-08-01T10:26:35.946Z</time>
      </trkpt>
      <trkpt lat="43.024115" lon="-1.29770167">
        <ele>1358.0</ele>
        <time>2019-08-01T10:26:36.952Z</time>
      </trkpt>
      <trkpt lat="43.02410667" lon="-1.297705">
        <ele>1358.0</ele>
        <time>2019-08-01T10:26:37.959Z</time>
      </trkpt>
      <trkpt lat="43.0241" lon="-1.29771">
        <ele>1357.0</ele>
        <time>2019-08-01T10:26:38.966Z</time>
      </trkpt>
      <trkpt lat="43.024095" lon="-1.297715">
        <ele>1357.0</ele>
        <time>2019-08-01T10:26:39.972Z</time>
      </trkpt>
      <trkpt lat="43.02409" lon="-1.29772">
        <ele>1357.0</ele>
        <time>2019-08-01T10:26:40.980Z</time>
      </trkpt>
      <trkpt lat="43.02408" lon="-1.29772833">
        <ele>1356.0</ele>
        <time>2019-08-01T10:26:41.985Z</time>
      </trkpt>
      <trkpt lat="43.02406833" lon="-1.297735">
        <ele>1355.0</ele>
        <time>2019-08-01T10:26:42.991Z</time>
      </trkpt>
      <trkpt lat="43.02406" lon="-1.29773833">
        <ele>1354.0</ele>
        <time>2019-08-01T10:26:43.997Z</time>
      </trkpt>
      <trkpt lat="43.02405" lon="-1.29774333">
        <ele>1353.0</ele>
        <time>2019-08-01T10:26:45.004Z</time>
      </trkpt>
      <trkpt lat="43.02404333" lon="-1.29774667">
        <ele>1353.0</ele>
        <time>2019-08-01T10:26:46.010Z</time>
      </trkpt>
      <trkpt lat="43.02403333" lon="-1.29774833">
        <ele>1353.0</ele>
        <time>2019-08-01T10:26:47.016Z</time>
      </trkpt>
      <trkpt lat="43.024025" lon="-1.29774833">
        <ele>1354.0</ele>
        <time>2019-08-01T10:26:48.022Z</time>
      </trkpt>
      <trkpt lat="43.02401667" lon="-1.297755">
        <ele>1354.0</ele>
        <time>2019-08-01T10:26:49.029Z</time>
      </trkpt>
      <trkpt lat="43.02400667" lon="-1.29776167">
        <ele>1353.0</ele>
        <time>2019-08-01T10:26:50.034Z</time>
      </trkpt>
      <trkpt lat="43.02400167" lon="-1.29776333">
        <ele>1354.0</ele>
        <time>2019-08-01T10:26:51.040Z</time>
      </trkpt>
      <trkpt lat="43.02399333" lon="-1.29777">
        <ele>1354.0</ele>
        <time>2019-08-01T10:26:51.918Z</time>
      </trkpt>
      <trkpt lat="43.02398167" lon="-1.29777667">
        <ele>1354.0</ele>
        <time>2019-08-01T10:26:52.925Z</time>
      </trkpt>
      <trkpt lat="43.02397167" lon="-1.29778167">
        <ele>1353.0</ele>
        <time>2019-08-01T10:26:53.930Z</time>
      </trkpt>
      <trkpt lat="43.02396" lon="-1.297785">
        <ele>1353.0</ele>
        <time>2019-08-01T10:26:54.935Z</time>
      </trkpt>
      <trkpt lat="43.02395167" lon="-1.29778667">
        <ele>1354.0</ele>
        <time>2019-08-01T10:26:55.943Z</time>
      </trkpt>
      <trkpt lat="43.02394" lon="-1.297795">
        <ele>1353.0</ele>
        <time>2019-08-01T10:26:56.947Z</time>
      </trkpt>
      <trkpt lat="43.02392833" lon="-1.2978">
        <ele>1354.0</ele>
        <time>2019-08-01T10:26:57.952Z</time>
      </trkpt>
      <trkpt lat="43.02391167" lon="-1.29780833">
        <ele>1354.0</ele>
        <time>2019-08-01T10:26:58.960Z</time>
      </trkpt>
      <trkpt lat="43.02390167" lon="-1.29781167">
        <ele>1355.0</ele>
        <time>2019-08-01T10:26:59.967Z</time>
      </trkpt>
      <trkpt lat="43.023895" lon="-1.29781667">
        <ele>1354.0</ele>
        <time>2019-08-01T10:27:00.974Z</time>
      </trkpt>
      <trkpt lat="43.02389167" lon="-1.29782167">
        <ele>1354.0</ele>
        <time>2019-08-01T10:27:01.982Z</time>
      </trkpt>
      <trkpt lat="43.02387667" lon="-1.29783">
        <ele>1353.0</ele>
        <time>2019-08-01T10:27:02.989Z</time>
      </trkpt>
      <trkpt lat="43.02386833" lon="-1.29782167">
        <ele>1353.0</ele>
        <time>2019-08-01T10:27:03.993Z</time>
      </trkpt>
      <trkpt lat="43.023865" lon="-1.29783">
        <ele>1353.0</ele>
        <time>2019-08-01T10:27:05.000Z</time>
      </trkpt>
      <trkpt lat="43.023855" lon="-1.29783">
        <ele>1354.0</ele>
        <time>2019-08-01T10:27:06.008Z</time>
      </trkpt>
      <trkpt lat="43.02384667" lon="-1.29783">
        <ele>1354.0</ele>
        <time>2019-08-01T10:27:07.013Z</time>
      </trkpt>
      <trkpt lat="43.02384" lon="-1.29783667">
        <ele>1353.0</ele>
        <time>2019-08-01T10:27:08.020Z</time>
      </trkpt>
      <trkpt lat="43.02383667" lon="-1.29784">
        <ele>1352.0</ele>
        <time>2019-08-01T10:27:09.025Z</time>
      </trkpt>
      <trkpt lat="43.02383" lon="-1.297845">
        <ele>1352.0</ele>
        <time>2019-08-01T10:27:10.031Z</time>
      </trkpt>
      <trkpt lat="43.02382" lon="-1.29785167">
        <ele>1351.0</ele>
        <time>2019-08-01T10:27:11.035Z</time>
      </trkpt>
      <trkpt lat="43.02381333" lon="-1.297855">
        <ele>1351.0</ele>
        <time>2019-08-01T10:27:12.041Z</time>
      </trkpt>
      <trkpt lat="43.02380667" lon="-1.29786">
        <ele>1350.0</ele>
        <time>2019-08-01T10:27:12.920Z</time>
      </trkpt>
      <trkpt lat="43.02380333" lon="-1.29786667">
        <ele>1350.0</ele>
        <time>2019-08-01T10:27:13.926Z</time>
      </trkpt>
      <trkpt lat="43.02379667" lon="-1.29787167">
        <ele>1350.0</ele>
        <time>2019-08-01T10:27:14.932Z</time>
      </trkpt>
      <trkpt lat="43.02379333" lon="-1.29787333">
        <ele>1350.0</ele>
        <time>2019-08-01T10:27:15.938Z</time>
      </trkpt>
      <trkpt lat="43.02379" lon="-1.29787667">
        <ele>1349.0</ele>
        <time>2019-08-01T10:27:16.943Z</time>
      </trkpt>
      <trkpt lat="43.02378167" lon="-1.29787667">
        <ele>1349.0</ele>
        <time>2019-08-01T10:27:17.948Z</time>
      </trkpt>
      <trkpt lat="43.023775" lon="-1.29787667">
        <ele>1349.0</ele>
        <time>2019-08-01T10:27:18.955Z</time>
      </trkpt>
      <trkpt lat="43.02376833" lon="-1.29787833">
        <ele>1349.0</ele>
        <time>2019-08-01T10:27:19.958Z</time>
      </trkpt>
      <trkpt lat="43.02375833" lon="-1.29788333">
        <ele>1348.0</ele>
        <time>2019-08-01T10:27:20.962Z</time>
      </trkpt>
      <trkpt lat="43.02375333" lon="-1.29788833">
        <ele>1347.0</ele>
        <time>2019-08-01T10:27:21.969Z</time>
      </trkpt>
      <trkpt lat="43.02375" lon="-1.29789333">
        <ele>1347.0</ele>
        <time>2019-08-01T10:27:22.974Z</time>
      </trkpt>
      <trkpt lat="43.02374167" lon="-1.297895">
        <ele>1346.0</ele>
        <time>2019-08-01T10:27:23.977Z</time>
      </trkpt>
      <trkpt lat="43.023735" lon="-1.29789833">
        <ele>1346.0</ele>
        <time>2019-08-01T10:27:24.983Z</time>
      </trkpt>
      <trkpt lat="43.023725" lon="-1.29790167">
        <ele>1345.0</ele>
        <time>2019-08-01T10:27:25.988Z</time>
      </trkpt>
      <trkpt lat="43.02371667" lon="-1.29790333">
        <ele>1346.0</ele>
        <time>2019-08-01T10:27:26.992Z</time>
      </trkpt>
      <trkpt lat="43.02371" lon="-1.297905">
        <ele>1346.0</ele>
        <time>2019-08-01T10:27:27.999Z</time>
      </trkpt>
      <trkpt lat="43.023705" lon="-1.29791167">
        <ele>1346.0</ele>
        <time>2019-08-01T10:27:29.006Z</time>
      </trkpt>
      <trkpt lat="43.0237" lon="-1.297915">
        <ele>1345.0</ele>
        <time>2019-08-01T10:27:30.012Z</time>
      </trkpt>
      <trkpt lat="43.023695" lon="-1.29792167">
        <ele>1344.0</ele>
        <time>2019-08-01T10:27:31.018Z</time>
      </trkpt>
      <trkpt lat="43.02368667" lon="-1.297925">
        <ele>1343.0</ele>
        <time>2019-08-01T10:27:32.025Z</time>
      </trkpt>
      <trkpt lat="43.02367833" lon="-1.297925">
        <ele>1343.0</ele>
        <time>2019-08-01T10:27:33.031Z</time>
      </trkpt>
      <trkpt lat="43.02367" lon="-1.29793167">
        <ele>1342.0</ele>
        <time>2019-08-01T10:27:34.037Z</time>
      </trkpt>
      <trkpt lat="43.023665" lon="-1.29793833">
        <ele>1342.0</ele>
        <time>2019-08-01T10:27:34.918Z</time>
      </trkpt>
      <trkpt lat="43.02365333" lon="-1.29794333">
        <ele>1341.0</ele>
        <time>2019-08-01T10:27:35.924Z</time>
      </trkpt>
      <trkpt lat="43.02364667" lon="-1.297945">
        <ele>1341.0</ele>
        <time>2019-08-01T10:27:36.931Z</time>
      </trkpt>
      <trkpt lat="43.02363833" lon="-1.29795">
        <ele>1341.0</ele>
        <time>2019-08-01T10:27:37.935Z</time>
      </trkpt>
      <trkpt lat="43.02363" lon="-1.29795333">
        <ele>1341.0</ele>
        <time>2019-08-01T10:27:38.942Z</time>
      </trkpt>
      <trkpt lat="43.02362333" lon="-1.297955">
        <ele>1340.0</ele>
        <time>2019-08-01T10:27:39.948Z</time>
      </trkpt>
      <trkpt lat="43.023615" lon="-1.29795667">
        <ele>1339.0</ele>
        <time>2019-08-01T10:27:40.954Z</time>
      </trkpt>
      <trkpt lat="43.02360833" lon="-1.297965">
        <ele>1339.0</ele>
        <time>2019-08-01T10:27:41.960Z</time>
      </trkpt>
      <trkpt lat="43.02359833" lon="-1.29797167">
        <ele>1338.0</ele>
        <time>2019-08-01T10:27:42.964Z</time>
      </trkpt>
      <trkpt lat="43.02359167" lon="-1.29798167">
        <ele>1338.0</ele>
        <time>2019-08-01T10:27:43.968Z</time>
      </trkpt>
      <trkpt lat="43.023585" lon="-1.29799">
        <ele>1338.0</ele>
        <time>2019-08-01T10:27:44.975Z</time>
      </trkpt>
      <trkpt lat="43.023575" lon="-1.29799667">
        <ele>1337.0</ele>
        <time>2019-08-01T10:27:45.981Z</time>
      </trkpt>
      <trkpt lat="43.02356667" lon="-1.29800167">
        <ele>1338.0</ele>
        <time>2019-08-01T10:27:46.987Z</time>
      </trkpt>
      <trkpt lat="43.02356" lon="-1.29800833">
        <ele>1338.0</ele>
        <time>2019-08-01T10:27:47.990Z</time>
      </trkpt>
      <trkpt lat="43.02355" lon="-1.298015">
        <ele>1338.0</ele>
        <time>2019-08-01T10:27:48.996Z</time>
      </trkpt>
      <trkpt lat="43.02354333" lon="-1.29801667">
        <ele>1338.0</ele>
        <time>2019-08-01T10:27:50.003Z</time>
      </trkpt>
      <trkpt lat="43.023535" lon="-1.29801833">
        <ele>1337.0</ele>
        <time>2019-08-01T10:27:51.008Z</time>
      </trkpt>
      <trkpt lat="43.02352667" lon="-1.298025">
        <ele>1337.0</ele>
        <time>2019-08-01T10:27:52.015Z</time>
      </trkpt>
      <trkpt lat="43.02351667" lon="-1.29803">
        <ele>1337.0</ele>
        <time>2019-08-01T10:27:53.022Z</time>
      </trkpt>
      <trkpt lat="43.02349833" lon="-1.29803667">
        <ele>1337.0</ele>
        <time>2019-08-01T10:27:54.028Z</time>
      </trkpt>
      <trkpt lat="43.02348667" lon="-1.29804">
        <ele>1337.0</ele>
        <time>2019-08-01T10:27:55.031Z</time>
      </trkpt>
      <trkpt lat="43.02348" lon="-1.29804">
        <ele>1337.0</ele>
        <time>2019-08-01T10:27:56.037Z</time>
      </trkpt>
      <trkpt lat="43.023475" lon="-1.29804167">
        <ele>1337.0</ele>
        <time>2019-08-01T10:27:57.042Z</time>
      </trkpt>
      <trkpt lat="43.02346667" lon="-1.29803833">
        <ele>1338.0</ele>
        <time>2019-08-01T10:27:57.921Z</time>
      </trkpt>
      <trkpt lat="43.02345667" lon="-1.29803833">
        <ele>1338.0</ele>
        <time>2019-08-01T10:27:58.926Z</time>
      </trkpt>
      <trkpt lat="43.02344833" lon="-1.29804">
        <ele>1338.0</ele>
        <time>2019-08-01T10:27:59.932Z</time>
      </trkpt>
      <trkpt lat="43.02344167" lon="-1.29804667">
        <ele>1337.0</ele>
        <time>2019-08-01T10:28:00.935Z</time>
      </trkpt>
      <trkpt lat="43.02343167" lon="-1.29804833">
        <ele>1337.0</ele>
        <time>2019-08-01T10:28:01.942Z</time>
      </trkpt>
      <trkpt lat="43.02342333" lon="-1.29805333">
        <ele>1336.0</ele>
        <time>2019-08-01T10:28:02.949Z</time>
      </trkpt>
      <trkpt lat="43.02341667" lon="-1.298055">
        <ele>1336.0</ele>
        <time>2019-08-01T10:28:03.955Z</time>
      </trkpt>
      <trkpt lat="43.02340833" lon="-1.29805667">
        <ele>1335.0</ele>
        <time>2019-08-01T10:28:04.962Z</time>
      </trkpt>
      <trkpt lat="43.02340167" lon="-1.29806">
        <ele>1335.0</ele>
        <time>2019-08-01T10:28:05.968Z</time>
      </trkpt>
      <trkpt lat="43.02339167" lon="-1.29806167">
        <ele>1335.0</ele>
        <time>2019-08-01T10:28:06.975Z</time>
      </trkpt>
      <trkpt lat="43.02338" lon="-1.298065">
        <ele>1334.0</ele>
        <time>2019-08-01T10:28:07.980Z</time>
      </trkpt>
      <trkpt lat="43.02337333" lon="-1.298065">
        <ele>1333.0</ele>
        <time>2019-08-01T10:28:08.984Z</time>
      </trkpt>
      <trkpt lat="43.02336167" lon="-1.29806833">
        <ele>1333.0</ele>
        <time>2019-08-01T10:28:09.990Z</time>
      </trkpt>
      <trkpt lat="43.02335333" lon="-1.29806833">
        <ele>1333.0</ele>
        <time>2019-08-01T10:28:10.998Z</time>
      </trkpt>
      <trkpt lat="43.023345" lon="-1.29807333">
        <ele>1333.0</ele>
        <time>2019-08-01T10:28:12.004Z</time>
      </trkpt>
      <trkpt lat="43.02333833" lon="-1.29807333">
        <ele>1333.0</ele>
        <time>2019-08-01T10:28:13.010Z</time>
      </trkpt>
      <trkpt lat="43.023335" lon="-1.298075">
        <ele>1334.0</ele>
        <time>2019-08-01T10:28:14.015Z</time>
      </trkpt>
      <trkpt lat="43.02332833" lon="-1.29808167">
        <ele>1334.0</ele>
        <time>2019-08-01T10:28:15.021Z</time>
      </trkpt>
      <trkpt lat="43.02332" lon="-1.29808833">
        <ele>1334.0</ele>
        <time>2019-08-01T10:28:16.026Z</time>
      </trkpt>
      <trkpt lat="43.02330833" lon="-1.29809667">
        <ele>1334.0</ele>
        <time>2019-08-01T10:28:17.032Z</time>
      </trkpt>
      <trkpt lat="43.02329833" lon="-1.29810167">
        <ele>1334.0</ele>
        <time>2019-08-01T10:28:18.039Z</time>
      </trkpt>
      <trkpt lat="43.02328667" lon="-1.29810833">
        <ele>1334.0</ele>
        <time>2019-08-01T10:28:19.042Z</time>
      </trkpt>
      <trkpt lat="43.02327833" lon="-1.29811833">
        <ele>1333.0</ele>
        <time>2019-08-01T10:28:19.923Z</time>
      </trkpt>
      <trkpt lat="43.02326833" lon="-1.29812667">
        <ele>1332.0</ele>
        <time>2019-08-01T10:28:20.930Z</time>
      </trkpt>
      <trkpt lat="43.02325667" lon="-1.298135">
        <ele>1332.0</ele>
        <time>2019-08-01T10:28:21.936Z</time>
      </trkpt>
      <trkpt lat="43.02324667" lon="-1.29814167">
        <ele>1331.0</ele>
        <time>2019-08-01T10:28:22.941Z</time>
      </trkpt>
      <trkpt lat="43.02323667" lon="-1.29814333">
        <ele>1331.0</ele>
        <time>2019-08-01T10:28:23.947Z</time>
      </trkpt>
      <trkpt lat="43.02323" lon="-1.298145">
        <ele>1331.0</ele>
        <time>2019-08-01T10:28:24.953Z</time>
      </trkpt>
      <trkpt lat="43.02321667" lon="-1.29814667">
        <ele>1330.0</ele>
        <time>2019-08-01T10:28:25.960Z</time>
      </trkpt>
      <trkpt lat="43.02320667" lon="-1.298145">
        <ele>1330.0</ele>
        <time>2019-08-01T10:28:26.967Z</time>
      </trkpt>
      <trkpt lat="43.02319667" lon="-1.29814833">
        <ele>1329.0</ele>
        <time>2019-08-01T10:28:27.972Z</time>
      </trkpt>
      <trkpt lat="43.02318667" lon="-1.29816">
        <ele>1329.0</ele>
        <time>2019-08-01T10:28:28.980Z</time>
      </trkpt>
      <trkpt lat="43.02318" lon="-1.298165">
        <ele>1329.0</ele>
        <time>2019-08-01T10:28:29.985Z</time>
      </trkpt>
      <trkpt lat="43.02316833" lon="-1.29817333">
        <ele>1329.0</ele>
        <time>2019-08-01T10:28:30.989Z</time>
      </trkpt>
      <trkpt lat="43.02315833" lon="-1.29817833">
        <ele>1328.0</ele>
        <time>2019-08-01T10:28:31.992Z</time>
      </trkpt>
      <trkpt lat="43.02314833" lon="-1.29818333">
        <ele>1328.0</ele>
        <time>2019-08-01T10:28:32.999Z</time>
      </trkpt>
      <trkpt lat="43.02313667" lon="-1.29819">
        <ele>1328.0</ele>
        <time>2019-08-01T10:28:34.004Z</time>
      </trkpt>
      <trkpt lat="43.02312333" lon="-1.29819167">
        <ele>1329.0</ele>
        <time>2019-08-01T10:28:35.008Z</time>
      </trkpt>
      <trkpt lat="43.02311667" lon="-1.29819167">
        <ele>1330.0</ele>
        <time>2019-08-01T10:28:36.012Z</time>
      </trkpt>
      <trkpt lat="43.023105" lon="-1.29819667">
        <ele>1331.0</ele>
        <time>2019-08-01T10:28:37.019Z</time>
      </trkpt>
      <trkpt lat="43.02309667" lon="-1.29820167">
        <ele>1331.0</ele>
        <time>2019-08-01T10:28:38.026Z</time>
      </trkpt>
      <trkpt lat="43.02308667" lon="-1.29820667">
        <ele>1330.0</ele>
        <time>2019-08-01T10:28:39.031Z</time>
      </trkpt>
      <trkpt lat="43.023075" lon="-1.29821833">
        <ele>1328.0</ele>
        <time>2019-08-01T10:28:40.035Z</time>
      </trkpt>
      <trkpt lat="43.02306667" lon="-1.29823333">
        <ele>1327.0</ele>
        <time>2019-08-01T10:28:41.040Z</time>
      </trkpt>
      <trkpt lat="43.02306333" lon="-1.29824167">
        <ele>1326.0</ele>
        <time>2019-08-01T10:28:41.921Z</time>
      </trkpt>
      <trkpt lat="43.023055" lon="-1.29824667">
        <ele>1325.0</ele>
        <time>2019-08-01T10:28:42.927Z</time>
      </trkpt>
      <trkpt lat="43.02305" lon="-1.298255">
        <ele>1325.0</ele>
        <time>2019-08-01T10:28:43.934Z</time>
      </trkpt>
      <trkpt lat="43.02303667" lon="-1.29825833">
        <ele>1325.0</ele>
        <time>2019-08-01T10:28:44.942Z</time>
      </trkpt>
      <trkpt lat="43.02302333" lon="-1.29825667">
        <ele>1324.0</ele>
        <time>2019-08-01T10:28:45.948Z</time>
      </trkpt>
      <trkpt lat="43.02301667" lon="-1.29824833">
        <ele>1324.0</ele>
        <time>2019-08-01T10:28:46.955Z</time>
      </trkpt>
      <trkpt lat="43.02301" lon="-1.29824833">
        <ele>1324.0</ele>
        <time>2019-08-01T10:28:47.961Z</time>
      </trkpt>
      <trkpt lat="43.023" lon="-1.29824833">
        <ele>1323.0</ele>
        <time>2019-08-01T10:28:48.969Z</time>
      </trkpt>
      <trkpt lat="43.02299333" lon="-1.29824833">
        <ele>1323.0</ele>
        <time>2019-08-01T10:28:49.977Z</time>
      </trkpt>
      <trkpt lat="43.02298" lon="-1.29825">
        <ele>1323.0</ele>
        <time>2019-08-01T10:28:50.982Z</time>
      </trkpt>
      <trkpt lat="43.02297167" lon="-1.29825333">
        <ele>1323.0</ele>
        <time>2019-08-01T10:28:51.987Z</time>
      </trkpt>
      <trkpt lat="43.02295667" lon="-1.29825833">
        <ele>1322.0</ele>
        <time>2019-08-01T10:28:52.993Z</time>
      </trkpt>
      <trkpt lat="43.02295" lon="-1.29826167">
        <ele>1322.0</ele>
        <time>2019-08-01T10:28:54.000Z</time>
      </trkpt>
      <trkpt lat="43.02294" lon="-1.29826333">
        <ele>1322.0</ele>
        <time>2019-08-01T10:28:55.004Z</time>
      </trkpt>
      <trkpt lat="43.02292833" lon="-1.29826667">
        <ele>1322.0</ele>
        <time>2019-08-01T10:28:56.011Z</time>
      </trkpt>
      <trkpt lat="43.02291833" lon="-1.29827">
        <ele>1322.0</ele>
        <time>2019-08-01T10:28:57.018Z</time>
      </trkpt>
      <trkpt lat="43.02290833" lon="-1.29827333">
        <ele>1321.0</ele>
        <time>2019-08-01T10:28:58.024Z</time>
      </trkpt>
      <trkpt lat="43.0229" lon="-1.29827833">
        <ele>1321.0</ele>
        <time>2019-08-01T10:28:59.028Z</time>
      </trkpt>
      <trkpt lat="43.02289" lon="-1.29828167">
        <ele>1321.0</ele>
        <time>2019-08-01T10:29:00.031Z</time>
      </trkpt>
      <trkpt lat="43.02287667" lon="-1.29828167">
        <ele>1320.0</ele>
        <time>2019-08-01T10:29:01.035Z</time>
      </trkpt>
      <trkpt lat="43.022865" lon="-1.29828">
        <ele>1320.0</ele>
        <time>2019-08-01T10:29:02.040Z</time>
      </trkpt>
      <trkpt lat="43.02285333" lon="-1.29828333">
        <ele>1320.0</ele>
        <time>2019-08-01T10:29:02.921Z</time>
      </trkpt>
      <trkpt lat="43.022845" lon="-1.298285">
        <ele>1319.0</ele>
        <time>2019-08-01T10:29:03.926Z</time>
      </trkpt>
      <trkpt lat="43.02283167" lon="-1.29828833">
        <ele>1319.0</ele>
        <time>2019-08-01T10:29:04.931Z</time>
      </trkpt>
      <trkpt lat="43.02282" lon="-1.29829">
        <ele>1318.0</ele>
        <time>2019-08-01T10:29:05.937Z</time>
      </trkpt>
      <trkpt lat="43.02281" lon="-1.29829167">
        <ele>1317.0</ele>
        <time>2019-08-01T10:29:06.943Z</time>
      </trkpt>
      <trkpt lat="43.0228" lon="-1.298295">
        <ele>1316.0</ele>
        <time>2019-08-01T10:29:07.949Z</time>
      </trkpt>
      <trkpt lat="43.02279167" lon="-1.29830333">
        <ele>1316.0</ele>
        <time>2019-08-01T10:29:08.953Z</time>
      </trkpt>
      <trkpt lat="43.02278" lon="-1.29830833">
        <ele>1315.0</ele>
        <time>2019-08-01T10:29:09.960Z</time>
      </trkpt>
      <trkpt lat="43.02277167" lon="-1.29830667">
        <ele>1315.0</ele>
        <time>2019-08-01T10:29:10.966Z</time>
      </trkpt>
      <trkpt lat="43.02276167" lon="-1.29830667">
        <ele>1314.0</ele>
        <time>2019-08-01T10:29:11.970Z</time>
      </trkpt>
      <trkpt lat="43.02275333" lon="-1.298305">
        <ele>1314.0</ele>
        <time>2019-08-01T10:29:12.977Z</time>
      </trkpt>
      <trkpt lat="43.02274333" lon="-1.298305">
        <ele>1313.0</ele>
        <time>2019-08-01T10:29:13.982Z</time>
      </trkpt>
      <trkpt lat="43.02273333" lon="-1.29830667">
        <ele>1313.0</ele>
        <time>2019-08-01T10:29:14.989Z</time>
      </trkpt>
      <trkpt lat="43.022725" lon="-1.29831">
        <ele>1313.0</ele>
        <time>2019-08-01T10:29:15.994Z</time>
      </trkpt>
      <trkpt lat="43.02271667" lon="-1.298315">
        <ele>1313.0</ele>
        <time>2019-08-01T10:29:17.000Z</time>
      </trkpt>
      <trkpt lat="43.02270833" lon="-1.29832">
        <ele>1313.0</ele>
        <time>2019-08-01T10:29:18.006Z</time>
      </trkpt>
      <trkpt lat="43.02269833" lon="-1.29832667">
        <ele>1312.0</ele>
        <time>2019-08-01T10:29:19.014Z</time>
      </trkpt>
      <trkpt lat="43.022685" lon="-1.29833333">
        <ele>1312.0</ele>
        <time>2019-08-01T10:29:20.020Z</time>
      </trkpt>
      <trkpt lat="43.022675" lon="-1.29833833">
        <ele>1312.0</ele>
        <time>2019-08-01T10:29:21.027Z</time>
      </trkpt>
      <trkpt lat="43.02266333" lon="-1.29834667">
        <ele>1311.0</ele>
        <time>2019-08-01T10:29:22.031Z</time>
      </trkpt>
      <trkpt lat="43.022655" lon="-1.29835167">
        <ele>1311.0</ele>
        <time>2019-08-01T10:29:23.037Z</time>
      </trkpt>
      <trkpt lat="43.02264667" lon="-1.29835667">
        <ele>1310.0</ele>
        <time>2019-08-01T10:29:23.919Z</time>
      </trkpt>
      <trkpt lat="43.02263667" lon="-1.29836333">
        <ele>1309.0</ele>
        <time>2019-08-01T10:29:24.925Z</time>
      </trkpt>
      <trkpt lat="43.02262833" lon="-1.29836667">
        <ele>1308.0</ele>
        <time>2019-08-01T10:29:25.931Z</time>
      </trkpt>
      <trkpt lat="43.02262" lon="-1.29836667">
        <ele>1308.0</ele>
        <time>2019-08-01T10:29:26.938Z</time>
      </trkpt>
      <trkpt lat="43.02261167" lon="-1.29836667">
        <ele>1307.0</ele>
        <time>2019-08-01T10:29:27.945Z</time>
      </trkpt>
      <trkpt lat="43.02260167" lon="-1.29836667">
        <ele>1306.0</ele>
        <time>2019-08-01T10:29:28.951Z</time>
      </trkpt>
      <trkpt lat="43.02259333" lon="-1.29837">
        <ele>1306.0</ele>
        <time>2019-08-01T10:29:29.954Z</time>
      </trkpt>
      <trkpt lat="43.02258" lon="-1.29837667">
        <ele>1307.0</ele>
        <time>2019-08-01T10:29:30.959Z</time>
      </trkpt>
      <trkpt lat="43.02257" lon="-1.298375">
        <ele>1307.0</ele>
        <time>2019-08-01T10:29:31.965Z</time>
      </trkpt>
      <trkpt lat="43.02256" lon="-1.29837667">
        <ele>1307.0</ele>
        <time>2019-08-01T10:29:32.969Z</time>
      </trkpt>
      <trkpt lat="43.02255333" lon="-1.29838">
        <ele>1306.0</ele>
        <time>2019-08-01T10:29:33.976Z</time>
      </trkpt>
      <trkpt lat="43.02254333" lon="-1.29838833">
        <ele>1306.0</ele>
        <time>2019-08-01T10:29:34.981Z</time>
      </trkpt>
      <trkpt lat="43.02253667" lon="-1.29839333">
        <ele>1305.0</ele>
        <time>2019-08-01T10:29:35.986Z</time>
      </trkpt>
      <trkpt lat="43.02252833" lon="-1.29839833">
        <ele>1304.0</ele>
        <time>2019-08-01T10:29:36.992Z</time>
      </trkpt>
      <trkpt lat="43.02252" lon="-1.29840167">
        <ele>1303.0</ele>
        <time>2019-08-01T10:29:37.997Z</time>
      </trkpt>
      <trkpt lat="43.02250833" lon="-1.298405">
        <ele>1302.0</ele>
        <time>2019-08-01T10:29:39.003Z</time>
      </trkpt>
      <trkpt lat="43.02249667" lon="-1.29841333">
        <ele>1302.0</ele>
        <time>2019-08-01T10:29:40.010Z</time>
      </trkpt>
      <trkpt lat="43.02248833" lon="-1.298415">
        <ele>1302.0</ele>
        <time>2019-08-01T10:29:41.016Z</time>
      </trkpt>
      <trkpt lat="43.02247667" lon="-1.298415">
        <ele>1301.0</ele>
        <time>2019-08-01T10:29:42.024Z</time>
      </trkpt>
      <trkpt lat="43.02246167" lon="-1.29842">
        <ele>1301.0</ele>
        <time>2019-08-01T10:29:43.027Z</time>
      </trkpt>
      <trkpt lat="43.02245" lon="-1.29842">
        <ele>1300.0</ele>
        <time>2019-08-01T10:29:44.032Z</time>
      </trkpt>
      <trkpt lat="43.02244" lon="-1.29842">
        <ele>1300.0</ele>
        <time>2019-08-01T10:29:45.040Z</time>
      </trkpt>
      <trkpt lat="43.02242833" lon="-1.298425">
        <ele>1300.0</ele>
        <time>2019-08-01T10:29:45.920Z</time>
      </trkpt>
      <trkpt lat="43.02242" lon="-1.29842833">
        <ele>1299.0</ele>
        <time>2019-08-01T10:29:46.926Z</time>
      </trkpt>
      <trkpt lat="43.02241" lon="-1.29843167">
        <ele>1300.0</ele>
        <time>2019-08-01T10:29:47.933Z</time>
      </trkpt>
      <trkpt lat="43.0224" lon="-1.29843833">
        <ele>1299.0</ele>
        <time>2019-08-01T10:29:48.940Z</time>
      </trkpt>
      <trkpt lat="43.02238833" lon="-1.298445">
        <ele>1299.0</ele>
        <time>2019-08-01T10:29:49.946Z</time>
      </trkpt>
      <trkpt lat="43.02238" lon="-1.29844667">
        <ele>1298.0</ele>
        <time>2019-08-01T10:29:50.951Z</time>
      </trkpt>
      <trkpt lat="43.02237167" lon="-1.29845167">
        <ele>1297.0</ele>
        <time>2019-08-01T10:29:51.956Z</time>
      </trkpt>
      <trkpt lat="43.02236667" lon="-1.29845667">
        <ele>1296.0</ele>
        <time>2019-08-01T10:29:52.962Z</time>
      </trkpt>
      <trkpt lat="43.02236" lon="-1.29845667">
        <ele>1296.0</ele>
        <time>2019-08-01T10:29:53.968Z</time>
      </trkpt>
      <trkpt lat="43.02235" lon="-1.29845667">
        <ele>1295.0</ele>
        <time>2019-08-01T10:29:54.973Z</time>
      </trkpt>
      <trkpt lat="43.02234167" lon="-1.29845667">
        <ele>1296.0</ele>
        <time>2019-08-01T10:29:55.980Z</time>
      </trkpt>
      <trkpt lat="43.02233333" lon="-1.29845833">
        <ele>1295.0</ele>
        <time>2019-08-01T10:29:56.987Z</time>
      </trkpt>
      <trkpt lat="43.022325" lon="-1.29846167">
        <ele>1295.0</ele>
        <time>2019-08-01T10:29:57.993Z</time>
      </trkpt>
      <trkpt lat="43.02231333" lon="-1.29846833">
        <ele>1294.0</ele>
        <time>2019-08-01T10:29:58.998Z</time>
      </trkpt>
      <trkpt lat="43.022305" lon="-1.29847333">
        <ele>1294.0</ele>
        <time>2019-08-01T10:30:00.003Z</time>
      </trkpt>
      <trkpt lat="43.02229667" lon="-1.29847833">
        <ele>1293.0</ele>
        <time>2019-08-01T10:30:01.008Z</time>
      </trkpt>
      <trkpt lat="43.02229167" lon="-1.29848">
        <ele>1293.0</ele>
        <time>2019-08-01T10:30:02.014Z</time>
      </trkpt>
      <trkpt lat="43.02228333" lon="-1.29848167">
        <ele>1293.0</ele>
        <time>2019-08-01T10:30:03.021Z</time>
      </trkpt>
      <trkpt lat="43.022275" lon="-1.29848167">
        <ele>1293.0</ele>
        <time>2019-08-01T10:30:04.027Z</time>
      </trkpt>
      <trkpt lat="43.022265" lon="-1.298485">
        <ele>1292.0</ele>
        <time>2019-08-01T10:30:05.033Z</time>
      </trkpt>
      <trkpt lat="43.02225833" lon="-1.29848667">
        <ele>1292.0</ele>
        <time>2019-08-01T10:30:06.041Z</time>
      </trkpt>
      <trkpt lat="43.02224833" lon="-1.29848667">
        <ele>1291.0</ele>
        <time>2019-08-01T10:30:06.921Z</time>
      </trkpt>
      <trkpt lat="43.02223833" lon="-1.29848667">
        <ele>1290.0</ele>
        <time>2019-08-01T10:30:07.928Z</time>
      </trkpt>
      <trkpt lat="43.02222667" lon="-1.298485">
        <ele>1290.0</ele>
        <time>2019-08-01T10:30:08.935Z</time>
      </trkpt>
      <trkpt lat="43.02221333" lon="-1.298485">
        <ele>1290.0</ele>
        <time>2019-08-01T10:30:09.939Z</time>
      </trkpt>
      <trkpt lat="43.02220167" lon="-1.29848333">
        <ele>1289.0</ele>
        <time>2019-08-01T10:30:10.947Z</time>
      </trkpt>
      <trkpt lat="43.02219167" lon="-1.298485">
        <ele>1289.0</ele>
        <time>2019-08-01T10:30:11.951Z</time>
      </trkpt>
      <trkpt lat="43.02218" lon="-1.29848">
        <ele>1289.0</ele>
        <time>2019-08-01T10:30:12.957Z</time>
      </trkpt>
      <trkpt lat="43.02216833" lon="-1.29847667">
        <ele>1289.0</ele>
        <time>2019-08-01T10:30:13.962Z</time>
      </trkpt>
      <trkpt lat="43.02215667" lon="-1.29847667">
        <ele>1288.0</ele>
        <time>2019-08-01T10:30:14.969Z</time>
      </trkpt>
      <trkpt lat="43.02214667" lon="-1.29847667">
        <ele>1287.0</ele>
        <time>2019-08-01T10:30:15.976Z</time>
      </trkpt>
      <trkpt lat="43.022135" lon="-1.29848">
        <ele>1287.0</ele>
        <time>2019-08-01T10:30:16.983Z</time>
      </trkpt>
      <trkpt lat="43.02212333" lon="-1.29848333">
        <ele>1287.0</ele>
        <time>2019-08-01T10:30:17.988Z</time>
      </trkpt>
      <trkpt lat="43.02211333" lon="-1.29849167">
        <ele>1287.0</ele>
        <time>2019-08-01T10:30:18.994Z</time>
      </trkpt>
      <trkpt lat="43.02210333" lon="-1.29849833">
        <ele>1286.0</ele>
        <time>2019-08-01T10:30:20.001Z</time>
      </trkpt>
      <trkpt lat="43.022095" lon="-1.29851">
        <ele>1286.0</ele>
        <time>2019-08-01T10:30:21.006Z</time>
      </trkpt>
      <trkpt lat="43.02208667" lon="-1.29852167">
        <ele>1285.0</ele>
        <time>2019-08-01T10:30:22.012Z</time>
      </trkpt>
      <trkpt lat="43.02207833" lon="-1.29853333">
        <ele>1285.0</ele>
        <time>2019-08-01T10:30:23.018Z</time>
      </trkpt>
      <trkpt lat="43.02207" lon="-1.29854">
        <ele>1285.0</ele>
        <time>2019-08-01T10:30:24.025Z</time>
      </trkpt>
      <trkpt lat="43.02206167" lon="-1.298545">
        <ele>1284.0</ele>
        <time>2019-08-01T10:30:25.031Z</time>
      </trkpt>
      <trkpt lat="43.022055" lon="-1.29854667">
        <ele>1284.0</ele>
        <time>2019-08-01T10:30:26.035Z</time>
      </trkpt>
      <trkpt lat="43.02204667" lon="-1.29855">
        <ele>1284.0</ele>
        <time>2019-08-01T10:30:27.039Z</time>
      </trkpt>
      <trkpt lat="43.02203833" lon="-1.29855167">
        <ele>1284.0</ele>
        <time>2019-08-01T10:30:27.921Z</time>
      </trkpt>
      <trkpt lat="43.02202833" lon="-1.29854833">
        <ele>1283.0</ele>
        <time>2019-08-01T10:30:28.926Z</time>
      </trkpt>
      <trkpt lat="43.02202167" lon="-1.29854333">
        <ele>1283.0</ele>
        <time>2019-08-01T10:30:29.931Z</time>
      </trkpt>
      <trkpt lat="43.02201667" lon="-1.29853333">
        <ele>1283.0</ele>
        <time>2019-08-01T10:30:30.937Z</time>
      </trkpt>
      <trkpt lat="43.02201167" lon="-1.29852333">
        <ele>1282.0</ele>
        <time>2019-08-01T10:30:31.943Z</time>
      </trkpt>
      <trkpt lat="43.022005" lon="-1.298515">
        <ele>1282.0</ele>
        <time>2019-08-01T10:30:32.948Z</time>
      </trkpt>
      <trkpt lat="43.02199833" lon="-1.298505">
        <ele>1282.0</ele>
        <time>2019-08-01T10:30:33.954Z</time>
      </trkpt>
      <trkpt lat="43.02199333" lon="-1.29849667">
        <ele>1281.0</ele>
        <time>2019-08-01T10:30:34.962Z</time>
      </trkpt>
      <trkpt lat="43.02198667" lon="-1.29848333">
        <ele>1281.0</ele>
        <time>2019-08-01T10:30:35.968Z</time>
      </trkpt>
      <trkpt lat="43.02198167" lon="-1.29847">
        <ele>1281.0</ele>
        <time>2019-08-01T10:30:36.973Z</time>
      </trkpt>
      <trkpt lat="43.021975" lon="-1.29845833">
        <ele>1281.0</ele>
        <time>2019-08-01T10:30:37.979Z</time>
      </trkpt>
      <trkpt lat="43.021965" lon="-1.29845">
        <ele>1280.0</ele>
        <time>2019-08-01T10:30:38.988Z</time>
      </trkpt>
      <trkpt lat="43.021955" lon="-1.29844">
        <ele>1280.0</ele>
        <time>2019-08-01T10:30:39.995Z</time>
      </trkpt>
      <trkpt lat="43.02194667" lon="-1.29843167">
        <ele>1280.0</ele>
        <time>2019-08-01T10:30:41.002Z</time>
      </trkpt>
      <trkpt lat="43.02193833" lon="-1.298425">
        <ele>1280.0</ele>
        <time>2019-08-01T10:30:42.009Z</time>
      </trkpt>
      <trkpt lat="43.02193" lon="-1.29842167">
        <ele>1280.0</ele>
        <time>2019-08-01T10:30:43.014Z</time>
      </trkpt>
      <trkpt lat="43.02192167" lon="-1.298415">
        <ele>1279.0</ele>
        <time>2019-08-01T10:30:44.019Z</time>
      </trkpt>
      <trkpt lat="43.021915" lon="-1.29841167">
        <ele>1279.0</ele>
        <time>2019-08-01T10:30:45.022Z</time>
      </trkpt>
      <trkpt lat="43.02190833" lon="-1.29840667">
        <ele>1278.0</ele>
        <time>2019-08-01T10:30:46.026Z</time>
      </trkpt>
      <trkpt lat="43.02190333" lon="-1.29840333">
        <ele>1278.0</ele>
        <time>2019-08-01T10:30:47.030Z</time>
      </trkpt>
      <trkpt lat="43.02189833" lon="-1.29839667">
        <ele>1278.0</ele>
        <time>2019-08-01T10:30:48.036Z</time>
      </trkpt>
      <trkpt lat="43.02189167" lon="-1.29839167">
        <ele>1277.0</ele>
        <time>2019-08-01T10:30:49.043Z</time>
      </trkpt>
      <trkpt lat="43.02188333" lon="-1.298385">
        <ele>1277.0</ele>
        <time>2019-08-01T10:30:49.923Z</time>
      </trkpt>
      <trkpt lat="43.02187333" lon="-1.29838167">
        <ele>1276.0</ele>
        <time>2019-08-01T10:30:50.930Z</time>
      </trkpt>
      <trkpt lat="43.02186333" lon="-1.29838">
        <ele>1275.0</ele>
        <time>2019-08-01T10:30:51.937Z</time>
      </trkpt>
      <trkpt lat="43.02185667" lon="-1.29837833">
        <ele>1275.0</ele>
        <time>2019-08-01T10:30:52.943Z</time>
      </trkpt>
      <trkpt lat="43.02184833" lon="-1.29837833">
        <ele>1275.0</ele>
        <time>2019-08-01T10:30:53.948Z</time>
      </trkpt>
      <trkpt lat="43.02184167" lon="-1.29838">
        <ele>1274.0</ele>
        <time>2019-08-01T10:30:54.952Z</time>
      </trkpt>
      <trkpt lat="43.02183333" lon="-1.29838">
        <ele>1274.0</ele>
        <time>2019-08-01T10:30:55.956Z</time>
      </trkpt>
      <trkpt lat="43.02182333" lon="-1.29838333">
        <ele>1273.0</ele>
        <time>2019-08-01T10:30:56.963Z</time>
      </trkpt>
      <trkpt lat="43.021815" lon="-1.29838667">
        <ele>1273.0</ele>
        <time>2019-08-01T10:30:57.969Z</time>
      </trkpt>
      <trkpt lat="43.021805" lon="-1.29839167">
        <ele>1273.0</ele>
        <time>2019-08-01T10:30:58.977Z</time>
      </trkpt>
      <trkpt lat="43.02179833" lon="-1.298395">
        <ele>1273.0</ele>
        <time>2019-08-01T10:30:59.984Z</time>
      </trkpt>
      <trkpt lat="43.02179167" lon="-1.29839833">
        <ele>1273.0</ele>
        <time>2019-08-01T10:31:00.989Z</time>
      </trkpt>
      <trkpt lat="43.02178667" lon="-1.29840333">
        <ele>1272.0</ele>
        <time>2019-08-01T10:31:01.995Z</time>
      </trkpt>
      <trkpt lat="43.02178" lon="-1.29840667">
        <ele>1272.0</ele>
        <time>2019-08-01T10:31:03.001Z</time>
      </trkpt>
      <trkpt lat="43.02177333" lon="-1.29840667">
        <ele>1273.0</ele>
        <time>2019-08-01T10:31:04.007Z</time>
      </trkpt>
      <trkpt lat="43.021765" lon="-1.29840667">
        <ele>1273.0</ele>
        <time>2019-08-01T10:31:05.012Z</time>
      </trkpt>
      <trkpt lat="43.02175667" lon="-1.29841">
        <ele>1273.0</ele>
        <time>2019-08-01T10:31:06.019Z</time>
      </trkpt>
      <trkpt lat="43.02175167" lon="-1.298415">
        <ele>1274.0</ele>
        <time>2019-08-01T10:31:07.024Z</time>
      </trkpt>
      <trkpt lat="43.021745" lon="-1.29841833">
        <ele>1273.0</ele>
        <time>2019-08-01T10:31:08.029Z</time>
      </trkpt>
      <trkpt lat="43.02173833" lon="-1.29842">
        <ele>1273.0</ele>
        <time>2019-08-01T10:31:09.036Z</time>
      </trkpt>
      <trkpt lat="43.02173167" lon="-1.298425">
        <ele>1272.0</ele>
        <time>2019-08-01T10:31:10.041Z</time>
      </trkpt>
      <trkpt lat="43.021725" lon="-1.29843">
        <ele>1272.0</ele>
        <time>2019-08-01T10:31:10.921Z</time>
      </trkpt>
      <trkpt lat="43.02171667" lon="-1.29843333">
        <ele>1271.0</ele>
        <time>2019-08-01T10:31:11.929Z</time>
      </trkpt>
      <trkpt lat="43.02171" lon="-1.29844">
        <ele>1271.0</ele>
        <time>2019-08-01T10:31:12.934Z</time>
      </trkpt>
      <trkpt lat="43.021705" lon="-1.29844833">
        <ele>1271.0</ele>
        <time>2019-08-01T10:31:13.935Z</time>
      </trkpt>
      <trkpt lat="43.02170167" lon="-1.29845333">
        <ele>1271.0</ele>
        <time>2019-08-01T10:31:14.937Z</time>
      </trkpt>
      <trkpt lat="43.02169667" lon="-1.29846167">
        <ele>1271.0</ele>
        <time>2019-08-01T10:31:15.938Z</time>
      </trkpt>
      <trkpt lat="43.02169333" lon="-1.29846667">
        <ele>1271.0</ele>
        <time>2019-08-01T10:31:16.944Z</time>
      </trkpt>
      <trkpt lat="43.02168667" lon="-1.29847167">
        <ele>1271.0</ele>
        <time>2019-08-01T10:31:17.947Z</time>
      </trkpt>
      <trkpt lat="43.02168" lon="-1.29847833">
        <ele>1272.0</ele>
        <time>2019-08-01T10:31:18.949Z</time>
      </trkpt>
      <trkpt lat="43.021675" lon="-1.29848333">
        <ele>1271.0</ele>
        <time>2019-08-01T10:31:19.951Z</time>
      </trkpt>
      <trkpt lat="43.02166833" lon="-1.29848833">
        <ele>1272.0</ele>
        <time>2019-08-01T10:31:20.955Z</time>
      </trkpt>
      <trkpt lat="43.02166167" lon="-1.29849833">
        <ele>1272.0</ele>
        <time>2019-08-01T10:31:21.961Z</time>
      </trkpt>
      <trkpt lat="43.02165833" lon="-1.29850833">
        <ele>1272.0</ele>
        <time>2019-08-01T10:31:22.963Z</time>
      </trkpt>
      <trkpt lat="43.021655" lon="-1.29851833">
        <ele>1272.0</ele>
        <time>2019-08-01T10:31:23.967Z</time>
      </trkpt>
      <trkpt lat="43.02165" lon="-1.29852833">
        <ele>1272.0</ele>
        <time>2019-08-01T10:31:24.972Z</time>
      </trkpt>
      <trkpt lat="43.021645" lon="-1.298535">
        <ele>1272.0</ele>
        <time>2019-08-01T10:31:25.979Z</time>
      </trkpt>
      <trkpt lat="43.02163667" lon="-1.298545">
        <ele>1272.0</ele>
        <time>2019-08-01T10:31:26.984Z</time>
      </trkpt>
      <trkpt lat="43.02163167" lon="-1.29855333">
        <ele>1271.0</ele>
        <time>2019-08-01T10:31:27.990Z</time>
      </trkpt>
      <trkpt lat="43.021625" lon="-1.29855667">
        <ele>1270.0</ele>
        <time>2019-08-01T10:31:28.995Z</time>
      </trkpt>
      <trkpt lat="43.02162" lon="-1.29856167">
        <ele>1270.0</ele>
        <time>2019-08-01T10:31:30.003Z</time>
      </trkpt>
      <trkpt lat="43.021615" lon="-1.29857">
        <ele>1270.0</ele>
        <time>2019-08-01T10:31:31.010Z</time>
      </trkpt>
      <trkpt lat="43.02160833" lon="-1.29857667">
        <ele>1270.0</ele>
        <time>2019-08-01T10:31:32.016Z</time>
      </trkpt>
      <trkpt lat="43.02160167" lon="-1.29858833">
        <ele>1270.0</ele>
        <time>2019-08-01T10:31:33.022Z</time>
      </trkpt>
      <trkpt lat="43.02159167" lon="-1.29859833">
        <ele>1270.0</ele>
        <time>2019-08-01T10:31:34.028Z</time>
      </trkpt>
      <trkpt lat="43.02158667" lon="-1.29860833">
        <ele>1270.0</ele>
        <time>2019-08-01T10:31:35.033Z</time>
      </trkpt>
      <trkpt lat="43.02158" lon="-1.29862167">
        <ele>1270.0</ele>
        <time>2019-08-01T10:31:36.038Z</time>
      </trkpt>
      <trkpt lat="43.02157" lon="-1.29863667">
        <ele>1270.0</ele>
        <time>2019-08-01T10:31:36.919Z</time>
      </trkpt>
      <trkpt lat="43.02156333" lon="-1.29864667">
        <ele>1270.0</ele>
        <time>2019-08-01T10:31:37.925Z</time>
      </trkpt>
      <trkpt lat="43.02155833" lon="-1.29865833">
        <ele>1270.0</ele>
        <time>2019-08-01T10:31:38.932Z</time>
      </trkpt>
      <trkpt lat="43.02155667" lon="-1.29867">
        <ele>1269.0</ele>
        <time>2019-08-01T10:31:39.937Z</time>
      </trkpt>
      <trkpt lat="43.02155167" lon="-1.29868333">
        <ele>1269.0</ele>
        <time>2019-08-01T10:31:40.945Z</time>
      </trkpt>
      <trkpt lat="43.02154667" lon="-1.29868833">
        <ele>1270.0</ele>
        <time>2019-08-01T10:31:41.950Z</time>
      </trkpt>
      <trkpt lat="43.02153833" lon="-1.29869833">
        <ele>1269.0</ele>
        <time>2019-08-01T10:31:42.955Z</time>
      </trkpt>
      <trkpt lat="43.02153167" lon="-1.29871">
        <ele>1269.0</ele>
        <time>2019-08-01T10:31:43.961Z</time>
      </trkpt>
      <trkpt lat="43.02152167" lon="-1.29871833">
        <ele>1269.0</ele>
        <time>2019-08-01T10:31:44.964Z</time>
      </trkpt>
      <trkpt lat="43.02151167" lon="-1.29873">
        <ele>1269.0</ele>
        <time>2019-08-01T10:31:45.969Z</time>
      </trkpt>
      <trkpt lat="43.021505" lon="-1.29874167">
        <ele>1269.0</ele>
        <time>2019-08-01T10:31:46.977Z</time>
      </trkpt>
      <trkpt lat="43.02149833" lon="-1.29875">
        <ele>1270.0</ele>
        <time>2019-08-01T10:31:47.983Z</time>
      </trkpt>
      <trkpt lat="43.02148833" lon="-1.29876">
        <ele>1270.0</ele>
        <time>2019-08-01T10:31:48.988Z</time>
      </trkpt>
      <trkpt lat="43.02147667" lon="-1.29877167">
        <ele>1270.0</ele>
        <time>2019-08-01T10:31:49.992Z</time>
      </trkpt>
      <trkpt lat="43.021465" lon="-1.29878333">
        <ele>1270.0</ele>
        <time>2019-08-01T10:31:50.999Z</time>
      </trkpt>
      <trkpt lat="43.021455" lon="-1.29879167">
        <ele>1270.0</ele>
        <time>2019-08-01T10:31:52.006Z</time>
      </trkpt>
      <trkpt lat="43.02144167" lon="-1.29880167">
        <ele>1269.0</ele>
        <time>2019-08-01T10:31:53.012Z</time>
      </trkpt>
      <trkpt lat="43.02143167" lon="-1.29881167">
        <ele>1269.0</ele>
        <time>2019-08-01T10:31:54.019Z</time>
      </trkpt>
      <trkpt lat="43.02142" lon="-1.29882333">
        <ele>1268.0</ele>
        <time>2019-08-01T10:31:55.026Z</time>
      </trkpt>
      <trkpt lat="43.02140667" lon="-1.29883833">
        <ele>1267.0</ele>
        <time>2019-08-01T10:31:56.032Z</time>
      </trkpt>
      <trkpt lat="43.02139667" lon="-1.29885">
        <ele>1267.0</ele>
        <time>2019-08-01T10:31:57.037Z</time>
      </trkpt>
      <trkpt lat="43.02138833" lon="-1.29886667">
        <ele>1267.0</ele>
        <time>2019-08-01T10:31:57.919Z</time>
      </trkpt>
      <trkpt lat="43.02138167" lon="-1.29888333">
        <ele>1267.0</ele>
        <time>2019-08-01T10:31:58.925Z</time>
      </trkpt>
      <trkpt lat="43.02137333" lon="-1.298895">
        <ele>1266.0</ele>
        <time>2019-08-01T10:31:59.927Z</time>
      </trkpt>
      <trkpt lat="43.02136333" lon="-1.29890167">
        <ele>1267.0</ele>
        <time>2019-08-01T10:32:00.934Z</time>
      </trkpt>
      <trkpt lat="43.02135" lon="-1.29890833">
        <ele>1267.0</ele>
        <time>2019-08-01T10:32:01.939Z</time>
      </trkpt>
      <trkpt lat="43.02134167" lon="-1.29891667">
        <ele>1267.0</ele>
        <time>2019-08-01T10:32:02.946Z</time>
      </trkpt>
      <trkpt lat="43.02133167" lon="-1.298925">
        <ele>1266.0</ele>
        <time>2019-08-01T10:32:03.947Z</time>
      </trkpt>
      <trkpt lat="43.02131667" lon="-1.29893833">
        <ele>1266.0</ele>
        <time>2019-08-01T10:32:04.948Z</time>
      </trkpt>
      <trkpt lat="43.02130667" lon="-1.29895333">
        <ele>1266.0</ele>
        <time>2019-08-01T10:32:05.951Z</time>
      </trkpt>
      <trkpt lat="43.021295" lon="-1.298965">
        <ele>1266.0</ele>
        <time>2019-08-01T10:32:06.953Z</time>
      </trkpt>
      <trkpt lat="43.02128333" lon="-1.29897833">
        <ele>1266.0</ele>
        <time>2019-08-01T10:32:07.956Z</time>
      </trkpt>
      <trkpt lat="43.021275" lon="-1.29899">
        <ele>1266.0</ele>
        <time>2019-08-01T10:32:08.960Z</time>
      </trkpt>
      <trkpt lat="43.021265" lon="-1.29900167">
        <ele>1266.0</ele>
        <time>2019-08-01T10:32:09.967Z</time>
      </trkpt>
      <trkpt lat="43.021255" lon="-1.29901333">
        <ele>1266.0</ele>
        <time>2019-08-01T10:32:10.975Z</time>
      </trkpt>
      <trkpt lat="43.02124667" lon="-1.29902333">
        <ele>1267.0</ele>
        <time>2019-08-01T10:32:11.980Z</time>
      </trkpt>
      <trkpt lat="43.02123667" lon="-1.29903833">
        <ele>1267.0</ele>
        <time>2019-08-01T10:32:12.987Z</time>
      </trkpt>
      <trkpt lat="43.02123167" lon="-1.29904167">
        <ele>1268.0</ele>
        <time>2019-08-01T10:32:13.994Z</time>
      </trkpt>
      <trkpt lat="43.02122167" lon="-1.29904667">
        <ele>1268.0</ele>
        <time>2019-08-01T10:32:15.000Z</time>
      </trkpt>
      <trkpt lat="43.02121167" lon="-1.29905333">
        <ele>1268.0</ele>
        <time>2019-08-01T10:32:16.005Z</time>
      </trkpt>
      <trkpt lat="43.02120167" lon="-1.29905833">
        <ele>1268.0</ele>
        <time>2019-08-01T10:32:17.010Z</time>
      </trkpt>
      <trkpt lat="43.02119333" lon="-1.299065">
        <ele>1268.0</ele>
        <time>2019-08-01T10:32:18.016Z</time>
      </trkpt>
      <trkpt lat="43.02118667" lon="-1.29906667">
        <ele>1268.0</ele>
        <time>2019-08-01T10:32:19.022Z</time>
      </trkpt>
      <trkpt lat="43.02117833" lon="-1.299065">
        <ele>1268.0</ele>
        <time>2019-08-01T10:32:20.029Z</time>
      </trkpt>
      <trkpt lat="43.02117" lon="-1.29906333">
        <ele>1269.0</ele>
        <time>2019-08-01T10:32:21.034Z</time>
      </trkpt>
      <trkpt lat="43.021165" lon="-1.29906833">
        <ele>1268.0</ele>
        <time>2019-08-01T10:32:22.040Z</time>
      </trkpt>
      <trkpt lat="43.02115833" lon="-1.29907667">
        <ele>1268.0</ele>
        <time>2019-08-01T10:32:22.922Z</time>
      </trkpt>
      <trkpt lat="43.02115" lon="-1.29908667">
        <ele>1268.0</ele>
        <time>2019-08-01T10:32:23.928Z</time>
      </trkpt>
      <trkpt lat="43.02114167" lon="-1.299095">
        <ele>1268.0</ele>
        <time>2019-08-01T10:32:24.935Z</time>
      </trkpt>
      <trkpt lat="43.021135" lon="-1.299105">
        <ele>1268.0</ele>
        <time>2019-08-01T10:32:25.940Z</time>
      </trkpt>
      <trkpt lat="43.02113" lon="-1.29910667">
        <ele>1269.0</ele>
        <time>2019-08-01T10:32:26.945Z</time>
      </trkpt>
      <trkpt lat="43.02112667" lon="-1.29910667">
        <ele>1269.0</ele>
        <time>2019-08-01T10:32:27.949Z</time>
      </trkpt>
      <trkpt lat="43.02112167" lon="-1.29911167">
        <ele>1269.0</ele>
        <time>2019-08-01T10:32:28.952Z</time>
      </trkpt>
      <trkpt lat="43.02111333" lon="-1.29912333">
        <ele>1269.0</ele>
        <time>2019-08-01T10:32:29.960Z</time>
      </trkpt>
      <trkpt lat="43.02110833" lon="-1.29913667">
        <ele>1269.0</ele>
        <time>2019-08-01T10:32:30.967Z</time>
      </trkpt>
      <trkpt lat="43.02109833" lon="-1.29915333">
        <ele>1269.0</ele>
        <time>2019-08-01T10:32:31.973Z</time>
      </trkpt>
      <trkpt lat="43.02109" lon="-1.29916">
        <ele>1268.0</ele>
        <time>2019-08-01T10:32:32.975Z</time>
      </trkpt>
      <trkpt lat="43.02108167" lon="-1.29917333">
        <ele>1268.0</ele>
        <time>2019-08-01T10:32:33.982Z</time>
      </trkpt>
      <trkpt lat="43.02107167" lon="-1.29919333">
        <ele>1267.0</ele>
        <time>2019-08-01T10:32:34.988Z</time>
      </trkpt>
      <trkpt lat="43.021065" lon="-1.29921167">
        <ele>1267.0</ele>
        <time>2019-08-01T10:32:35.994Z</time>
      </trkpt>
      <trkpt lat="43.02105667" lon="-1.29922833">
        <ele>1267.0</ele>
        <time>2019-08-01T10:32:37.001Z</time>
      </trkpt>
      <trkpt lat="43.02104833" lon="-1.29924667">
        <ele>1267.0</ele>
        <time>2019-08-01T10:32:38.007Z</time>
      </trkpt>
      <trkpt lat="43.02104" lon="-1.29926667">
        <ele>1266.0</ele>
        <time>2019-08-01T10:32:39.014Z</time>
      </trkpt>
      <trkpt lat="43.021035" lon="-1.29928167">
        <ele>1266.0</ele>
        <time>2019-08-01T10:32:40.020Z</time>
      </trkpt>
      <trkpt lat="43.02103" lon="-1.29930167">
        <ele>1266.0</ele>
        <time>2019-08-01T10:32:41.027Z</time>
      </trkpt>
      <trkpt lat="43.02102667" lon="-1.29931833">
        <ele>1266.0</ele>
        <time>2019-08-01T10:32:42.031Z</time>
      </trkpt>
      <trkpt lat="43.02102333" lon="-1.29933667">
        <ele>1265.0</ele>
        <time>2019-08-01T10:32:43.037Z</time>
      </trkpt>
      <trkpt lat="43.02102167" lon="-1.29935833">
        <ele>1265.0</ele>
        <time>2019-08-01T10:32:44.043Z</time>
      </trkpt>
      <trkpt lat="43.02101667" lon="-1.29937667">
        <ele>1265.0</ele>
        <time>2019-08-01T10:32:44.922Z</time>
      </trkpt>
      <trkpt lat="43.02101667" lon="-1.29938667">
        <ele>1265.0</ele>
        <time>2019-08-01T10:32:45.927Z</time>
      </trkpt>
      <trkpt lat="43.02101167" lon="-1.29939667">
        <ele>1265.0</ele>
        <time>2019-08-01T10:32:46.933Z</time>
      </trkpt>
      <trkpt lat="43.02100833" lon="-1.29941">
        <ele>1265.0</ele>
        <time>2019-08-01T10:32:47.939Z</time>
      </trkpt>
      <trkpt lat="43.02100167" lon="-1.299425">
        <ele>1265.0</ele>
        <time>2019-08-01T10:32:48.945Z</time>
      </trkpt>
      <trkpt lat="43.020995" lon="-1.29943667">
        <ele>1265.0</ele>
        <time>2019-08-01T10:32:49.950Z</time>
      </trkpt>
      <trkpt lat="43.02098833" lon="-1.29945">
        <ele>1265.0</ele>
        <time>2019-08-01T10:32:50.956Z</time>
      </trkpt>
      <trkpt lat="43.02098" lon="-1.29946333">
        <ele>1264.0</ele>
        <time>2019-08-01T10:32:51.962Z</time>
      </trkpt>
      <trkpt lat="43.02097333" lon="-1.299475">
        <ele>1264.0</ele>
        <time>2019-08-01T10:32:52.967Z</time>
      </trkpt>
      <trkpt lat="43.02097" lon="-1.29948667">
        <ele>1264.0</ele>
        <time>2019-08-01T10:32:53.973Z</time>
      </trkpt>
      <trkpt lat="43.02096333" lon="-1.299505">
        <ele>1264.0</ele>
        <time>2019-08-01T10:32:54.980Z</time>
      </trkpt>
      <trkpt lat="43.02096167" lon="-1.299515">
        <ele>1263.0</ele>
        <time>2019-08-01T10:32:55.987Z</time>
      </trkpt>
      <trkpt lat="43.02095167" lon="-1.29952833">
        <ele>1263.0</ele>
        <time>2019-08-01T10:32:56.994Z</time>
      </trkpt>
      <trkpt lat="43.020945" lon="-1.29954167">
        <ele>1263.0</ele>
        <time>2019-08-01T10:32:58.000Z</time>
      </trkpt>
      <trkpt lat="43.02094" lon="-1.29955333">
        <ele>1265.0</ele>
        <time>2019-08-01T10:32:59.006Z</time>
      </trkpt>
      <trkpt lat="43.02093333" lon="-1.29957">
        <ele>1264.0</ele>
        <time>2019-08-01T10:33:00.012Z</time>
      </trkpt>
      <trkpt lat="43.02092667" lon="-1.299585">
        <ele>1264.0</ele>
        <time>2019-08-01T10:33:01.020Z</time>
      </trkpt>
      <trkpt lat="43.02092167" lon="-1.29959833">
        <ele>1263.0</ele>
        <time>2019-08-01T10:33:02.025Z</time>
      </trkpt>
      <trkpt lat="43.020915" lon="-1.29961667">
        <ele>1263.0</ele>
        <time>2019-08-01T10:33:03.032Z</time>
      </trkpt>
      <trkpt lat="43.02091" lon="-1.29962333">
        <ele>1263.0</ele>
        <time>2019-08-01T10:33:04.038Z</time>
      </trkpt>
      <trkpt lat="43.02090667" lon="-1.29962833">
        <ele>1263.0</ele>
        <time>2019-08-01T10:33:04.919Z</time>
      </trkpt>
      <trkpt lat="43.02089833" lon="-1.299635">
        <ele>1263.0</ele>
        <time>2019-08-01T10:33:05.921Z</time>
      </trkpt>
      <trkpt lat="43.02089" lon="-1.29964333">
        <ele>1264.0</ele>
        <time>2019-08-01T10:33:06.928Z</time>
      </trkpt>
      <trkpt lat="43.02087833" lon="-1.299655">
        <ele>1264.0</ele>
        <time>2019-08-01T10:33:07.934Z</time>
      </trkpt>
      <trkpt lat="43.02086833" lon="-1.29966833">
        <ele>1264.0</ele>
        <time>2019-08-01T10:33:08.939Z</time>
      </trkpt>
      <trkpt lat="43.02086" lon="-1.29967833">
        <ele>1264.0</ele>
        <time>2019-08-01T10:33:09.946Z</time>
      </trkpt>
      <trkpt lat="43.02084833" lon="-1.29969">
        <ele>1265.0</ele>
        <time>2019-08-01T10:33:10.951Z</time>
      </trkpt>
      <trkpt lat="43.02082833" lon="-1.299705">
        <ele>1264.0</ele>
        <time>2019-08-01T10:33:11.956Z</time>
      </trkpt>
      <trkpt lat="43.02081167" lon="-1.29971833">
        <ele>1264.0</ele>
        <time>2019-08-01T10:33:12.962Z</time>
      </trkpt>
      <trkpt lat="43.020805" lon="-1.29972667">
        <ele>1265.0</ele>
        <time>2019-08-01T10:33:13.967Z</time>
      </trkpt>
      <trkpt lat="43.02079333" lon="-1.29973833">
        <ele>1265.0</ele>
        <time>2019-08-01T10:33:14.972Z</time>
      </trkpt>
      <trkpt lat="43.02078833" lon="-1.29974833">
        <ele>1264.0</ele>
        <time>2019-08-01T10:33:15.979Z</time>
      </trkpt>
      <trkpt lat="43.02078" lon="-1.29976">
        <ele>1264.0</ele>
        <time>2019-08-01T10:33:16.986Z</time>
      </trkpt>
      <trkpt lat="43.02076833" lon="-1.29977">
        <ele>1264.0</ele>
        <time>2019-08-01T10:33:17.991Z</time>
      </trkpt>
      <trkpt lat="43.020755" lon="-1.29978333">
        <ele>1264.0</ele>
        <time>2019-08-01T10:33:18.999Z</time>
      </trkpt>
      <trkpt lat="43.02074333" lon="-1.29979667">
        <ele>1263.0</ele>
        <time>2019-08-01T10:33:20.005Z</time>
      </trkpt>
      <trkpt lat="43.020735" lon="-1.29981333">
        <ele>1262.0</ele>
        <time>2019-08-01T10:33:21.012Z</time>
      </trkpt>
      <trkpt lat="43.02073" lon="-1.299825">
        <ele>1262.0</ele>
        <time>2019-08-01T10:33:22.018Z</time>
      </trkpt>
      <trkpt lat="43.02072333" lon="-1.29984167">
        <ele>1261.0</ele>
        <time>2019-08-01T10:33:23.023Z</time>
      </trkpt>
      <trkpt lat="43.020715" lon="-1.29986">
        <ele>1261.0</ele>
        <time>2019-08-01T10:33:24.028Z</time>
      </trkpt>
      <trkpt lat="43.02070667" lon="-1.299875">
        <ele>1261.0</ele>
        <time>2019-08-01T10:33:25.032Z</time>
      </trkpt>
      <trkpt lat="43.02069667" lon="-1.29989">
        <ele>1261.0</ele>
        <time>2019-08-01T10:33:26.038Z</time>
      </trkpt>
      <trkpt lat="43.02068667" lon="-1.29990667">
        <ele>1261.0</ele>
        <time>2019-08-01T10:33:26.918Z</time>
      </trkpt>
      <trkpt lat="43.02068" lon="-1.29992333">
        <ele>1260.0</ele>
        <time>2019-08-01T10:33:27.924Z</time>
      </trkpt>
      <trkpt lat="43.020675" lon="-1.29993667">
        <ele>1260.0</ele>
        <time>2019-08-01T10:33:28.930Z</time>
      </trkpt>
      <trkpt lat="43.02066833" lon="-1.29994667">
        <ele>1259.0</ele>
        <time>2019-08-01T10:33:29.935Z</time>
      </trkpt>
      <trkpt lat="43.02066333" lon="-1.299955">
        <ele>1259.0</ele>
        <time>2019-08-01T10:33:30.938Z</time>
      </trkpt>
      <trkpt lat="43.02065667" lon="-1.299965">
        <ele>1258.0</ele>
        <time>2019-08-01T10:33:31.943Z</time>
      </trkpt>
      <trkpt lat="43.02065" lon="-1.29997667">
        <ele>1257.0</ele>
        <time>2019-08-01T10:33:32.948Z</time>
      </trkpt>
      <trkpt lat="43.02064167" lon="-1.299985">
        <ele>1257.0</ele>
        <time>2019-08-01T10:33:33.953Z</time>
      </trkpt>
      <trkpt lat="43.02063167" lon="-1.29998833">
        <ele>1257.0</ele>
        <time>2019-08-01T10:33:34.960Z</time>
      </trkpt>
      <trkpt lat="43.02062167" lon="-1.29999833">
        <ele>1257.0</ele>
        <time>2019-08-01T10:33:35.968Z</time>
      </trkpt>
      <trkpt lat="43.020615" lon="-1.30000833">
        <ele>1256.0</ele>
        <time>2019-08-01T10:33:36.974Z</time>
      </trkpt>
      <trkpt lat="43.02060833" lon="-1.30001667">
        <ele>1256.0</ele>
        <time>2019-08-01T10:33:37.981Z</time>
      </trkpt>
      <trkpt lat="43.0206" lon="-1.30002667">
        <ele>1256.0</ele>
        <time>2019-08-01T10:33:38.987Z</time>
      </trkpt>
      <trkpt lat="43.02059" lon="-1.30003667">
        <ele>1256.0</ele>
        <time>2019-08-01T10:33:39.989Z</time>
      </trkpt>
      <trkpt lat="43.02058" lon="-1.30004">
        <ele>1256.0</ele>
        <time>2019-08-01T10:33:40.996Z</time>
      </trkpt>
      <trkpt lat="43.02056667" lon="-1.30004667">
        <ele>1256.0</ele>
        <time>2019-08-01T10:33:42.002Z</time>
      </trkpt>
      <trkpt lat="43.02055667" lon="-1.30004833">
        <ele>1256.0</ele>
        <time>2019-08-01T10:33:43.008Z</time>
      </trkpt>
      <trkpt lat="43.02054333" lon="-1.30005333">
        <ele>1256.0</ele>
        <time>2019-08-01T10:33:44.015Z</time>
      </trkpt>
      <trkpt lat="43.02053167" lon="-1.30005667">
        <ele>1255.0</ele>
        <time>2019-08-01T10:33:45.022Z</time>
      </trkpt>
      <trkpt lat="43.02052333" lon="-1.30006">
        <ele>1256.0</ele>
        <time>2019-08-01T10:33:46.024Z</time>
      </trkpt>
      <trkpt lat="43.02051" lon="-1.300065">
        <ele>1256.0</ele>
        <time>2019-08-01T10:33:47.030Z</time>
      </trkpt>
      <trkpt lat="43.0205" lon="-1.30006833">
        <ele>1256.0</ele>
        <time>2019-08-01T10:33:48.034Z</time>
      </trkpt>
      <trkpt lat="43.02048667" lon="-1.30007">
        <ele>1256.0</ele>
        <time>2019-08-01T10:33:49.040Z</time>
      </trkpt>
      <trkpt lat="43.020475" lon="-1.300075">
        <ele>1257.0</ele>
        <time>2019-08-01T10:33:49.922Z</time>
      </trkpt>
      <trkpt lat="43.02046833" lon="-1.30008">
        <ele>1256.0</ele>
        <time>2019-08-01T10:33:50.929Z</time>
      </trkpt>
      <trkpt lat="43.02045833" lon="-1.30007833">
        <ele>1256.0</ele>
        <time>2019-08-01T10:33:51.936Z</time>
      </trkpt>
      <trkpt lat="43.02045" lon="-1.30007833">
        <ele>1256.0</ele>
        <time>2019-08-01T10:33:52.941Z</time>
      </trkpt>
      <trkpt lat="43.02044" lon="-1.30008">
        <ele>1255.0</ele>
        <time>2019-08-01T10:33:53.946Z</time>
      </trkpt>
      <trkpt lat="43.02042833" lon="-1.300085">
        <ele>1256.0</ele>
        <time>2019-08-01T10:33:54.949Z</time>
      </trkpt>
      <trkpt lat="43.020415" lon="-1.30008667">
        <ele>1256.0</ele>
        <time>2019-08-01T10:33:55.954Z</time>
      </trkpt>
      <trkpt lat="43.0204" lon="-1.30008333">
        <ele>1255.0</ele>
        <time>2019-08-01T10:33:56.961Z</time>
      </trkpt>
      <trkpt lat="43.02038667" lon="-1.30008333">
        <ele>1254.0</ele>
        <time>2019-08-01T10:33:57.967Z</time>
      </trkpt>
      <trkpt lat="43.02037667" lon="-1.30008167">
        <ele>1254.0</ele>
        <time>2019-08-01T10:33:58.973Z</time>
      </trkpt>
      <trkpt lat="43.02036333" lon="-1.30008333">
        <ele>1253.0</ele>
        <time>2019-08-01T10:33:59.976Z</time>
      </trkpt>
      <trkpt lat="43.02035167" lon="-1.30008">
        <ele>1253.0</ele>
        <time>2019-08-01T10:34:00.980Z</time>
      </trkpt>
      <trkpt lat="43.02034" lon="-1.30007667">
        <ele>1253.0</ele>
        <time>2019-08-01T10:34:01.986Z</time>
      </trkpt>
      <trkpt lat="43.02032667" lon="-1.30007833">
        <ele>1252.0</ele>
        <time>2019-08-01T10:34:02.990Z</time>
      </trkpt>
      <trkpt lat="43.02031333" lon="-1.30007667">
        <ele>1252.0</ele>
        <time>2019-08-01T10:34:03.994Z</time>
      </trkpt>
      <trkpt lat="43.020305" lon="-1.30007333">
        <ele>1253.0</ele>
        <time>2019-08-01T10:34:04.999Z</time>
      </trkpt>
      <trkpt lat="43.020295" lon="-1.30006667">
        <ele>1253.0</ele>
        <time>2019-08-01T10:34:06.005Z</time>
      </trkpt>
      <trkpt lat="43.020285" lon="-1.30005833">
        <ele>1253.0</ele>
        <time>2019-08-01T10:34:07.009Z</time>
      </trkpt>
      <trkpt lat="43.02027333" lon="-1.30005167">
        <ele>1253.0</ele>
        <time>2019-08-01T10:34:08.015Z</time>
      </trkpt>
      <trkpt lat="43.02026167" lon="-1.30004333">
        <ele>1254.0</ele>
        <time>2019-08-01T10:34:09.018Z</time>
      </trkpt>
      <trkpt lat="43.02025333" lon="-1.300035">
        <ele>1254.0</ele>
        <time>2019-08-01T10:34:10.022Z</time>
      </trkpt>
      <trkpt lat="43.02024667" lon="-1.30003">
        <ele>1254.0</ele>
        <time>2019-08-01T10:34:11.028Z</time>
      </trkpt>
      <trkpt lat="43.02024" lon="-1.30002">
        <ele>1254.0</ele>
        <time>2019-08-01T10:34:12.033Z</time>
      </trkpt>
      <trkpt lat="43.02023167" lon="-1.30001">
        <ele>1254.0</ele>
        <time>2019-08-01T10:34:13.039Z</time>
      </trkpt>
      <trkpt lat="43.02022167" lon="-1.30000333">
        <ele>1254.0</ele>
        <time>2019-08-01T10:34:13.920Z</time>
      </trkpt>
      <trkpt lat="43.02021667" lon="-1.299995">
        <ele>1255.0</ele>
        <time>2019-08-01T10:34:14.927Z</time>
      </trkpt>
      <trkpt lat="43.02021167" lon="-1.29999167">
        <ele>1255.0</ele>
        <time>2019-08-01T10:34:15.932Z</time>
      </trkpt>
      <trkpt lat="43.02021" lon="-1.29999167">
        <ele>1254.0</ele>
        <time>2019-08-01T10:34:16.936Z</time>
      </trkpt>
      <trkpt lat="43.02021" lon="-1.29999">
        <ele>1254.0</ele>
        <time>2019-08-01T10:34:17.942Z</time>
      </trkpt>
      <trkpt lat="43.02020667" lon="-1.29998833">
        <ele>1254.0</ele>
        <time>2019-08-01T10:34:18.948Z</time>
      </trkpt>
      <trkpt lat="43.0202" lon="-1.29998833">
        <ele>1253.0</ele>
        <time>2019-08-01T10:34:19.955Z</time>
      </trkpt>
      <trkpt lat="43.02019333" lon="-1.29999">
        <ele>1252.0</ele>
        <time>2019-08-01T10:34:20.958Z</time>
      </trkpt>
      <trkpt lat="43.02018667" lon="-1.299995">
        <ele>1252.0</ele>
        <time>2019-08-01T10:34:21.967Z</time>
      </trkpt>
      <trkpt lat="43.02018" lon="-1.29999333">
        <ele>1251.0</ele>
        <time>2019-08-01T10:34:22.975Z</time>
      </trkpt>
      <trkpt lat="43.02017667" lon="-1.29999">
        <ele>1251.0</ele>
        <time>2019-08-01T10:34:23.981Z</time>
      </trkpt>
      <trkpt lat="43.02017" lon="-1.29998">
        <ele>1251.0</ele>
        <time>2019-08-01T10:34:24.988Z</time>
      </trkpt>
      <trkpt lat="43.02016833" lon="-1.29997167">
        <ele>1251.0</ele>
        <time>2019-08-01T10:34:25.995Z</time>
      </trkpt>
      <trkpt lat="43.020165" lon="-1.29996">
        <ele>1252.0</ele>
        <time>2019-08-01T10:34:27.000Z</time>
      </trkpt>
      <trkpt lat="43.02016167" lon="-1.29994833">
        <ele>1253.0</ele>
        <time>2019-08-01T10:34:28.007Z</time>
      </trkpt>
      <trkpt lat="43.020155" lon="-1.299935">
        <ele>1253.0</ele>
        <time>2019-08-01T10:34:29.014Z</time>
      </trkpt>
      <trkpt lat="43.02015" lon="-1.29992333">
        <ele>1253.0</ele>
        <time>2019-08-01T10:34:30.020Z</time>
      </trkpt>
      <trkpt lat="43.02014667" lon="-1.299915">
        <ele>1253.0</ele>
        <time>2019-08-01T10:34:31.026Z</time>
      </trkpt>
      <trkpt lat="43.02014667" lon="-1.29990667">
        <ele>1254.0</ele>
        <time>2019-08-01T10:34:32.031Z</time>
      </trkpt>
      <trkpt lat="43.02014667" lon="-1.299895">
        <ele>1253.0</ele>
        <time>2019-08-01T10:34:33.036Z</time>
      </trkpt>
      <trkpt lat="43.02014833" lon="-1.29988333">
        <ele>1254.0</ele>
        <time>2019-08-01T10:34:34.040Z</time>
      </trkpt>
      <trkpt lat="43.02015167" lon="-1.29987167">
        <ele>1254.0</ele>
        <time>2019-08-01T10:34:34.918Z</time>
      </trkpt>
      <trkpt lat="43.02014667" lon="-1.29986">
        <ele>1253.0</ele>
        <time>2019-08-01T10:34:35.923Z</time>
      </trkpt>
      <trkpt lat="43.020145" lon="-1.29985">
        <ele>1253.0</ele>
        <time>2019-08-01T10:34:36.929Z</time>
      </trkpt>
      <trkpt lat="43.02015" lon="-1.29984">
        <ele>1253.0</ele>
        <time>2019-08-01T10:34:37.933Z</time>
      </trkpt>
      <trkpt lat="43.02014833" lon="-1.29983167">
        <ele>1252.0</ele>
        <time>2019-08-01T10:34:38.938Z</time>
      </trkpt>
      <trkpt lat="43.02015" lon="-1.29982167">
        <ele>1252.0</ele>
        <time>2019-08-01T10:34:39.944Z</time>
      </trkpt>
      <trkpt lat="43.02015333" lon="-1.29981667">
        <ele>1251.0</ele>
        <time>2019-08-01T10:34:40.948Z</time>
      </trkpt>
      <trkpt lat="43.02015833" lon="-1.29981">
        <ele>1251.0</ele>
        <time>2019-08-01T10:34:41.955Z</time>
      </trkpt>
      <trkpt lat="43.02016833" lon="-1.2998">
        <ele>1251.0</ele>
        <time>2019-08-01T10:34:42.962Z</time>
      </trkpt>
      <trkpt lat="43.02017833" lon="-1.29979333">
        <ele>1251.0</ele>
        <time>2019-08-01T10:34:43.968Z</time>
      </trkpt>
      <trkpt lat="43.02018667" lon="-1.29978167">
        <ele>1251.0</ele>
        <time>2019-08-01T10:34:44.974Z</time>
      </trkpt>
      <trkpt lat="43.02018833" lon="-1.29977167">
        <ele>1251.0</ele>
        <time>2019-08-01T10:34:45.978Z</time>
      </trkpt>
      <trkpt lat="43.02017833" lon="-1.29976167">
        <ele>1251.0</ele>
        <time>2019-08-01T10:34:46.986Z</time>
      </trkpt>
      <trkpt lat="43.02016833" lon="-1.29975167">
        <ele>1251.0</ele>
        <time>2019-08-01T10:34:47.991Z</time>
      </trkpt>
      <trkpt lat="43.02015833" lon="-1.29973667">
        <ele>1251.0</ele>
        <time>2019-08-01T10:34:48.994Z</time>
      </trkpt>
      <trkpt lat="43.020155" lon="-1.29973167">
        <ele>1251.0</ele>
        <time>2019-08-01T10:34:50.001Z</time>
      </trkpt>
      <trkpt lat="43.02015667" lon="-1.29972">
        <ele>1251.0</ele>
        <time>2019-08-01T10:34:51.003Z</time>
      </trkpt>
      <trkpt lat="43.02015667" lon="-1.29971167">
        <ele>1251.0</ele>
        <time>2019-08-01T10:34:52.009Z</time>
      </trkpt>
      <trkpt lat="43.02015667" lon="-1.2997">
        <ele>1251.0</ele>
        <time>2019-08-01T10:34:53.015Z</time>
      </trkpt>
      <trkpt lat="43.02016" lon="-1.29968167">
        <ele>1251.0</ele>
        <time>2019-08-01T10:34:54.021Z</time>
      </trkpt>
      <trkpt lat="43.02015833" lon="-1.29967167">
        <ele>1251.0</ele>
        <time>2019-08-01T10:34:55.027Z</time>
      </trkpt>
      <trkpt lat="43.02016" lon="-1.29965833">
        <ele>1251.0</ele>
        <time>2019-08-01T10:34:56.032Z</time>
      </trkpt>
      <trkpt lat="43.02016333" lon="-1.29964333">
        <ele>1251.0</ele>
        <time>2019-08-01T10:34:57.037Z</time>
      </trkpt>
      <trkpt lat="43.02016167" lon="-1.29963">
        <ele>1251.0</ele>
        <time>2019-08-01T10:34:58.042Z</time>
      </trkpt>
      <trkpt lat="43.02016" lon="-1.29961667">
        <ele>1251.0</ele>
        <time>2019-08-01T10:34:58.921Z</time>
      </trkpt>
      <trkpt lat="43.02016" lon="-1.2996">
        <ele>1250.0</ele>
        <time>2019-08-01T10:34:59.927Z</time>
      </trkpt>
      <trkpt lat="43.02016167" lon="-1.29958333">
        <ele>1250.0</ele>
        <time>2019-08-01T10:35:00.932Z</time>
      </trkpt>
      <trkpt lat="43.02016167" lon="-1.29957">
        <ele>1250.0</ele>
        <time>2019-08-01T10:35:01.939Z</time>
      </trkpt>
      <trkpt lat="43.02016667" lon="-1.29955333">
        <ele>1250.0</ele>
        <time>2019-08-01T10:35:02.945Z</time>
      </trkpt>
      <trkpt lat="43.02017" lon="-1.29954167">
        <ele>1250.0</ele>
        <time>2019-08-01T10:35:03.949Z</time>
      </trkpt>
      <trkpt lat="43.02017333" lon="-1.29953">
        <ele>1250.0</ele>
        <time>2019-08-01T10:35:04.951Z</time>
      </trkpt>
      <trkpt lat="43.02017833" lon="-1.29951833">
        <ele>1251.0</ele>
        <time>2019-08-01T10:35:05.956Z</time>
      </trkpt>
      <trkpt lat="43.02018167" lon="-1.29950667">
        <ele>1252.0</ele>
        <time>2019-08-01T10:35:06.961Z</time>
      </trkpt>
      <trkpt lat="43.020185" lon="-1.29949333">
        <ele>1252.0</ele>
        <time>2019-08-01T10:35:07.966Z</time>
      </trkpt>
      <trkpt lat="43.02018667" lon="-1.29948">
        <ele>1252.0</ele>
        <time>2019-08-01T10:35:08.970Z</time>
      </trkpt>
      <trkpt lat="43.02019333" lon="-1.29946">
        <ele>1252.0</ele>
        <time>2019-08-01T10:35:09.975Z</time>
      </trkpt>
      <trkpt lat="43.020195" lon="-1.29944833">
        <ele>1252.0</ele>
        <time>2019-08-01T10:35:10.983Z</time>
      </trkpt>
      <trkpt lat="43.02019833" lon="-1.29943333">
        <ele>1252.0</ele>
        <time>2019-08-01T10:35:11.990Z</time>
      </trkpt>
      <trkpt lat="43.02020167" lon="-1.29941667">
        <ele>1253.0</ele>
        <time>2019-08-01T10:35:12.993Z</time>
      </trkpt>
      <trkpt lat="43.020205" lon="-1.29940167">
        <ele>1253.0</ele>
        <time>2019-08-01T10:35:14.001Z</time>
      </trkpt>
      <trkpt lat="43.02021" lon="-1.29938167">
        <ele>1253.0</ele>
        <time>2019-08-01T10:35:15.006Z</time>
      </trkpt>
      <trkpt lat="43.02021667" lon="-1.29936333">
        <ele>1253.0</ele>
        <time>2019-08-01T10:35:16.011Z</time>
      </trkpt>
      <trkpt lat="43.02022" lon="-1.29934667">
        <ele>1252.0</ele>
        <time>2019-08-01T10:35:17.016Z</time>
      </trkpt>
      <trkpt lat="43.020225" lon="-1.29933167">
        <ele>1252.0</ele>
        <time>2019-08-01T10:35:18.024Z</time>
      </trkpt>
      <trkpt lat="43.02023167" lon="-1.29931833">
        <ele>1252.0</ele>
        <time>2019-08-01T10:35:19.031Z</time>
      </trkpt>
      <trkpt lat="43.02023833" lon="-1.29930667">
        <ele>1253.0</ele>
        <time>2019-08-01T10:35:20.037Z</time>
      </trkpt>
      <trkpt lat="43.02024667" lon="-1.29929333">
        <ele>1252.0</ele>
        <time>2019-08-01T10:35:21.041Z</time>
      </trkpt>
      <trkpt lat="43.02025167" lon="-1.29927833">
        <ele>1252.0</ele>
        <time>2019-08-01T10:35:21.920Z</time>
      </trkpt>
      <trkpt lat="43.020255" lon="-1.29926833">
        <ele>1251.0</ele>
        <time>2019-08-01T10:35:22.926Z</time>
      </trkpt>
      <trkpt lat="43.02025833" lon="-1.299255">
        <ele>1250.0</ele>
        <time>2019-08-01T10:35:23.932Z</time>
      </trkpt>
      <trkpt lat="43.02026667" lon="-1.29924333">
        <ele>1249.0</ele>
        <time>2019-08-01T10:35:24.939Z</time>
      </trkpt>
      <trkpt lat="43.020275" lon="-1.299235">
        <ele>1249.0</ele>
        <time>2019-08-01T10:35:25.946Z</time>
      </trkpt>
      <trkpt lat="43.02028" lon="-1.299225">
        <ele>1249.0</ele>
        <time>2019-08-01T10:35:26.950Z</time>
      </trkpt>
      <trkpt lat="43.020285" lon="-1.29921833">
        <ele>1248.0</ele>
        <time>2019-08-01T10:35:27.955Z</time>
      </trkpt>
      <trkpt lat="43.02028833" lon="-1.29921333">
        <ele>1248.0</ele>
        <time>2019-08-01T10:35:28.960Z</time>
      </trkpt>
      <trkpt lat="43.02029167" lon="-1.299205">
        <ele>1248.0</ele>
        <time>2019-08-01T10:35:29.967Z</time>
      </trkpt>
      <trkpt lat="43.020295" lon="-1.29919667">
        <ele>1248.0</ele>
        <time>2019-08-01T10:35:30.973Z</time>
      </trkpt>
      <trkpt lat="43.02029667" lon="-1.29918667">
        <ele>1248.0</ele>
        <time>2019-08-01T10:35:31.980Z</time>
      </trkpt>
      <trkpt lat="43.02030333" lon="-1.29917167">
        <ele>1248.0</ele>
        <time>2019-08-01T10:35:32.987Z</time>
      </trkpt>
      <trkpt lat="43.02031" lon="-1.29915833">
        <ele>1248.0</ele>
        <time>2019-08-01T10:35:33.992Z</time>
      </trkpt>
      <trkpt lat="43.02031667" lon="-1.29914167">
        <ele>1247.0</ele>
        <time>2019-08-01T10:35:35.000Z</time>
      </trkpt>
      <trkpt lat="43.02032" lon="-1.29912667">
        <ele>1247.0</ele>
        <time>2019-08-01T10:35:36.006Z</time>
      </trkpt>
      <trkpt lat="43.02032333" lon="-1.29911333">
        <ele>1246.0</ele>
        <time>2019-08-01T10:35:37.011Z</time>
      </trkpt>
      <trkpt lat="43.02032667" lon="-1.299095">
        <ele>1246.0</ele>
        <time>2019-08-01T10:35:38.016Z</time>
      </trkpt>
      <trkpt lat="43.02033" lon="-1.299075">
        <ele>1245.0</ele>
        <time>2019-08-01T10:35:39.023Z</time>
      </trkpt>
      <trkpt lat="43.02033333" lon="-1.29905333">
        <ele>1245.0</ele>
        <time>2019-08-01T10:35:40.028Z</time>
      </trkpt>
      <trkpt lat="43.020335" lon="-1.29903">
        <ele>1244.0</ele>
        <time>2019-08-01T10:35:41.032Z</time>
      </trkpt>
      <trkpt lat="43.020335" lon="-1.29901">
        <ele>1243.0</ele>
        <time>2019-08-01T10:35:42.036Z</time>
      </trkpt>
      <trkpt lat="43.02033" lon="-1.29898833">
        <ele>1241.0</ele>
        <time>2019-08-01T10:35:43.042Z</time>
      </trkpt>
      <trkpt lat="43.02032833" lon="-1.29897333">
        <ele>1240.0</ele>
        <time>2019-08-01T10:35:43.923Z</time>
      </trkpt>
      <trkpt lat="43.02033" lon="-1.298965">
        <ele>1240.0</ele>
        <time>2019-08-01T10:35:44.931Z</time>
      </trkpt>
      <trkpt lat="43.020335" lon="-1.29895667">
        <ele>1239.0</ele>
        <time>2019-08-01T10:35:45.937Z</time>
      </trkpt>
      <trkpt lat="43.02034167" lon="-1.29894333">
        <ele>1239.0</ele>
        <time>2019-08-01T10:35:46.943Z</time>
      </trkpt>
      <trkpt lat="43.020345" lon="-1.29893">
        <ele>1239.0</ele>
        <time>2019-08-01T10:35:47.948Z</time>
      </trkpt>
      <trkpt lat="43.02035333" lon="-1.29890333">
        <ele>1239.0</ele>
        <time>2019-08-01T10:35:48.954Z</time>
      </trkpt>
      <trkpt lat="43.02035667" lon="-1.29888167">
        <ele>1239.0</ele>
        <time>2019-08-01T10:35:49.961Z</time>
      </trkpt>
      <trkpt lat="43.02035833" lon="-1.29886833">
        <ele>1238.0</ele>
        <time>2019-08-01T10:35:50.968Z</time>
      </trkpt>
      <trkpt lat="43.02036" lon="-1.298855">
        <ele>1238.0</ele>
        <time>2019-08-01T10:35:51.975Z</time>
      </trkpt>
      <trkpt lat="43.02036" lon="-1.29884">
        <ele>1238.0</ele>
        <time>2019-08-01T10:35:52.980Z</time>
      </trkpt>
      <trkpt lat="43.02035833" lon="-1.29882167">
        <ele>1238.0</ele>
        <time>2019-08-01T10:35:53.988Z</time>
      </trkpt>
      <trkpt lat="43.020355" lon="-1.298805">
        <ele>1238.0</ele>
        <time>2019-08-01T10:35:54.993Z</time>
      </trkpt>
      <trkpt lat="43.02035167" lon="-1.298785">
        <ele>1239.0</ele>
        <time>2019-08-01T10:35:55.999Z</time>
      </trkpt>
      <trkpt lat="43.02034667" lon="-1.29877">
        <ele>1239.0</ele>
        <time>2019-08-01T10:35:57.005Z</time>
      </trkpt>
      <trkpt lat="43.02034167" lon="-1.298755">
        <ele>1239.0</ele>
        <time>2019-08-01T10:35:58.013Z</time>
      </trkpt>
      <trkpt lat="43.02033333" lon="-1.29874167">
        <ele>1239.0</ele>
        <time>2019-08-01T10:35:59.019Z</time>
      </trkpt>
      <trkpt lat="43.02032333" lon="-1.29873833">
        <ele>1239.0</ele>
        <time>2019-08-01T10:36:00.027Z</time>
      </trkpt>
      <trkpt lat="43.02031" lon="-1.29872833">
        <ele>1238.0</ele>
        <time>2019-08-01T10:36:01.030Z</time>
      </trkpt>
      <trkpt lat="43.0203" lon="-1.29872167">
        <ele>1237.0</ele>
        <time>2019-08-01T10:36:02.034Z</time>
      </trkpt>
      <trkpt lat="43.02028667" lon="-1.29871833">
        <ele>1236.0</ele>
        <time>2019-08-01T10:36:03.039Z</time>
      </trkpt>
      <trkpt lat="43.02028" lon="-1.29871667">
        <ele>1235.0</ele>
        <time>2019-08-01T10:36:03.920Z</time>
      </trkpt>
      <trkpt lat="43.02026833" lon="-1.298715">
        <ele>1234.0</ele>
        <time>2019-08-01T10:36:04.924Z</time>
      </trkpt>
      <trkpt lat="43.02025167" lon="-1.29871333">
        <ele>1235.0</ele>
        <time>2019-08-01T10:36:05.929Z</time>
      </trkpt>
      <trkpt lat="43.02023833" lon="-1.29871">
        <ele>1235.0</ele>
        <time>2019-08-01T10:36:06.935Z</time>
      </trkpt>
      <trkpt lat="43.02022667" lon="-1.29870333">
        <ele>1234.0</ele>
        <time>2019-08-01T10:36:07.942Z</time>
      </trkpt>
      <trkpt lat="43.02021833" lon="-1.29870167">
        <ele>1233.0</ele>
        <time>2019-08-01T10:36:08.948Z</time>
      </trkpt>
      <trkpt lat="43.02021" lon="-1.29870833">
        <ele>1232.0</ele>
        <time>2019-08-01T10:36:09.952Z</time>
      </trkpt>
      <trkpt lat="43.0202" lon="-1.298715">
        <ele>1231.0</ele>
        <time>2019-08-01T10:36:10.956Z</time>
      </trkpt>
      <trkpt lat="43.02019" lon="-1.29871833">
        <ele>1230.0</ele>
        <time>2019-08-01T10:36:11.962Z</time>
      </trkpt>
      <trkpt lat="43.02017833" lon="-1.298725">
        <ele>1230.0</ele>
        <time>2019-08-01T10:36:12.967Z</time>
      </trkpt>
      <trkpt lat="43.02016667" lon="-1.29872833">
        <ele>1230.0</ele>
        <time>2019-08-01T10:36:13.972Z</time>
      </trkpt>
      <trkpt lat="43.02016" lon="-1.298735">
        <ele>1230.0</ele>
        <time>2019-08-01T10:36:14.976Z</time>
      </trkpt>
      <trkpt lat="43.02014667" lon="-1.29874">
        <ele>1230.0</ele>
        <time>2019-08-01T10:36:15.982Z</time>
      </trkpt>
      <trkpt lat="43.020135" lon="-1.298745">
        <ele>1229.0</ele>
        <time>2019-08-01T10:36:16.989Z</time>
      </trkpt>
      <trkpt lat="43.02012333" lon="-1.298755">
        <ele>1230.0</ele>
        <time>2019-08-01T10:36:17.995Z</time>
      </trkpt>
      <trkpt lat="43.02011" lon="-1.29875667">
        <ele>1229.0</ele>
        <time>2019-08-01T10:36:19.003Z</time>
      </trkpt>
      <trkpt lat="43.02010167" lon="-1.29876">
        <ele>1229.0</ele>
        <time>2019-08-01T10:36:20.010Z</time>
      </trkpt>
      <trkpt lat="43.02008833" lon="-1.29876333">
        <ele>1229.0</ele>
        <time>2019-08-01T10:36:21.016Z</time>
      </trkpt>
      <trkpt lat="43.02007833" lon="-1.29876667">
        <ele>1228.0</ele>
        <time>2019-08-01T10:36:22.023Z</time>
      </trkpt>
      <trkpt lat="43.020065" lon="-1.298765">
        <ele>1229.0</ele>
        <time>2019-08-01T10:36:23.029Z</time>
      </trkpt>
      <trkpt lat="43.02005833" lon="-1.29877167">
        <ele>1229.0</ele>
        <time>2019-08-01T10:36:24.032Z</time>
      </trkpt>
      <trkpt lat="43.02005167" lon="-1.298775">
        <ele>1231.0</ele>
        <time>2019-08-01T10:36:25.039Z</time>
      </trkpt>
      <trkpt lat="43.02004" lon="-1.298785">
        <ele>1230.0</ele>
        <time>2019-08-01T10:36:25.918Z</time>
      </trkpt>
      <trkpt lat="43.02003167" lon="-1.29878833">
        <ele>1230.0</ele>
        <time>2019-08-01T10:36:26.925Z</time>
      </trkpt>
      <trkpt lat="43.02001833" lon="-1.2988">
        <ele>1229.0</ele>
        <time>2019-08-01T10:36:27.931Z</time>
      </trkpt>
      <trkpt lat="43.02000333" lon="-1.298825">
        <ele>1228.0</ele>
        <time>2019-08-01T10:36:28.936Z</time>
      </trkpt>
      <trkpt lat="43.01999833" lon="-1.298835">
        <ele>1228.0</ele>
        <time>2019-08-01T10:36:29.939Z</time>
      </trkpt>
      <trkpt lat="43.01999" lon="-1.298845">
        <ele>1227.0</ele>
        <time>2019-08-01T10:36:30.943Z</time>
      </trkpt>
      <trkpt lat="43.01998167" lon="-1.298855">
        <ele>1227.0</ele>
        <time>2019-08-01T10:36:31.948Z</time>
      </trkpt>
      <trkpt lat="43.01997333" lon="-1.29886">
        <ele>1228.0</ele>
        <time>2019-08-01T10:36:32.954Z</time>
      </trkpt>
      <trkpt lat="43.01996833" lon="-1.29887833">
        <ele>1228.0</ele>
        <time>2019-08-01T10:36:33.959Z</time>
      </trkpt>
      <trkpt lat="43.01996" lon="-1.29889667">
        <ele>1229.0</ele>
        <time>2019-08-01T10:36:34.966Z</time>
      </trkpt>
      <trkpt lat="43.019955" lon="-1.29891">
        <ele>1228.0</ele>
        <time>2019-08-01T10:36:35.972Z</time>
      </trkpt>
      <trkpt lat="43.01995" lon="-1.29891667">
        <ele>1228.0</ele>
        <time>2019-08-01T10:36:36.977Z</time>
      </trkpt>
      <trkpt lat="43.01994167" lon="-1.298925">
        <ele>1228.0</ele>
        <time>2019-08-01T10:36:37.984Z</time>
      </trkpt>
      <trkpt lat="43.01993333" lon="-1.29893333">
        <ele>1228.0</ele>
        <time>2019-08-01T10:36:38.990Z</time>
      </trkpt>
      <trkpt lat="43.01992167" lon="-1.29894333">
        <ele>1228.0</ele>
        <time>2019-08-01T10:36:39.996Z</time>
      </trkpt>
      <trkpt lat="43.01991" lon="-1.29895">
        <ele>1228.0</ele>
        <time>2019-08-01T10:36:41.004Z</time>
      </trkpt>
      <trkpt lat="43.0199" lon="-1.29895833">
        <ele>1227.0</ele>
        <time>2019-08-01T10:36:42.011Z</time>
      </trkpt>
      <trkpt lat="43.01989333" lon="-1.298965">
        <ele>1226.0</ele>
        <time>2019-08-01T10:36:43.017Z</time>
      </trkpt>
      <trkpt lat="43.01988667" lon="-1.29897333">
        <ele>1225.0</ele>
        <time>2019-08-01T10:36:44.022Z</time>
      </trkpt>
      <trkpt lat="43.01987833" lon="-1.29898">
        <ele>1225.0</ele>
        <time>2019-08-01T10:36:45.028Z</time>
      </trkpt>
      <trkpt lat="43.01986833" lon="-1.29898167">
        <ele>1225.0</ele>
        <time>2019-08-01T10:36:46.033Z</time>
      </trkpt>
      <trkpt lat="43.01985833" lon="-1.29898833">
        <ele>1225.0</ele>
        <time>2019-08-01T10:36:47.039Z</time>
      </trkpt>
      <trkpt lat="43.01985" lon="-1.298995">
        <ele>1225.0</ele>
        <time>2019-08-01T10:36:47.920Z</time>
      </trkpt>
      <trkpt lat="43.01983667" lon="-1.29899667">
        <ele>1224.0</ele>
        <time>2019-08-01T10:36:48.927Z</time>
      </trkpt>
      <trkpt lat="43.019825" lon="-1.29900167">
        <ele>1225.0</ele>
        <time>2019-08-01T10:36:49.932Z</time>
      </trkpt>
      <trkpt lat="43.019815" lon="-1.29900667">
        <ele>1225.0</ele>
        <time>2019-08-01T10:36:50.938Z</time>
      </trkpt>
      <trkpt lat="43.01980333" lon="-1.29901333">
        <ele>1225.0</ele>
        <time>2019-08-01T10:36:51.946Z</time>
      </trkpt>
      <trkpt lat="43.01979167" lon="-1.29901333">
        <ele>1225.0</ele>
        <time>2019-08-01T10:36:52.951Z</time>
      </trkpt>
      <trkpt lat="43.01977667" lon="-1.29901833">
        <ele>1224.0</ele>
        <time>2019-08-01T10:36:53.956Z</time>
      </trkpt>
      <trkpt lat="43.01976667" lon="-1.29902667">
        <ele>1222.0</ele>
        <time>2019-08-01T10:36:54.960Z</time>
      </trkpt>
      <trkpt lat="43.01976" lon="-1.29903667">
        <ele>1221.0</ele>
        <time>2019-08-01T10:36:55.965Z</time>
      </trkpt>
      <trkpt lat="43.01974833" lon="-1.299045">
        <ele>1221.0</ele>
        <time>2019-08-01T10:36:56.971Z</time>
      </trkpt>
      <trkpt lat="43.01974" lon="-1.29905167">
        <ele>1221.0</ele>
        <time>2019-08-01T10:36:57.978Z</time>
      </trkpt>
      <trkpt lat="43.01973167" lon="-1.29906">
        <ele>1221.0</ele>
        <time>2019-08-01T10:36:58.984Z</time>
      </trkpt>
      <trkpt lat="43.01972167" lon="-1.29906667">
        <ele>1220.0</ele>
        <time>2019-08-01T10:36:59.988Z</time>
      </trkpt>
      <trkpt lat="43.01970833" lon="-1.299075">
        <ele>1220.0</ele>
        <time>2019-08-01T10:37:00.990Z</time>
      </trkpt>
      <trkpt lat="43.01969667" lon="-1.29908">
        <ele>1220.0</ele>
        <time>2019-08-01T10:37:01.996Z</time>
      </trkpt>
      <trkpt lat="43.01968667" lon="-1.299085">
        <ele>1220.0</ele>
        <time>2019-08-01T10:37:03.001Z</time>
      </trkpt>
      <trkpt lat="43.01967667" lon="-1.29908833">
        <ele>1220.0</ele>
        <time>2019-08-01T10:37:04.005Z</time>
      </trkpt>
      <trkpt lat="43.019665" lon="-1.29909167">
        <ele>1220.0</ele>
        <time>2019-08-01T10:37:05.010Z</time>
      </trkpt>
      <trkpt lat="43.019655" lon="-1.299095">
        <ele>1219.0</ele>
        <time>2019-08-01T10:37:06.014Z</time>
      </trkpt>
      <trkpt lat="43.01964333" lon="-1.29910667">
        <ele>1219.0</ele>
        <time>2019-08-01T10:37:07.019Z</time>
      </trkpt>
      <trkpt lat="43.01963" lon="-1.29911667">
        <ele>1218.0</ele>
        <time>2019-08-01T10:37:08.025Z</time>
      </trkpt>
      <trkpt lat="43.01961833" lon="-1.299125">
        <ele>1218.0</ele>
        <time>2019-08-01T10:37:09.031Z</time>
      </trkpt>
      <trkpt lat="43.01960833" lon="-1.29913">
        <ele>1218.0</ele>
        <time>2019-08-01T10:37:10.034Z</time>
      </trkpt>
      <trkpt lat="43.01959667" lon="-1.299135">
        <ele>1218.0</ele>
        <time>2019-08-01T10:37:11.041Z</time>
      </trkpt>
      <trkpt lat="43.01958333" lon="-1.29913833">
        <ele>1218.0</ele>
        <time>2019-08-01T10:37:11.920Z</time>
      </trkpt>
      <trkpt lat="43.01957167" lon="-1.299135">
        <ele>1218.0</ele>
        <time>2019-08-01T10:37:12.926Z</time>
      </trkpt>
      <trkpt lat="43.01956333" lon="-1.29913667">
        <ele>1218.0</ele>
        <time>2019-08-01T10:37:13.932Z</time>
      </trkpt>
      <trkpt lat="43.01956333" lon="-1.29913667">
        <ele>1218.0</ele>
        <time>2019-08-01T10:37:14.938Z</time>
      </trkpt>
      <trkpt lat="43.01954667" lon="-1.299145">
        <ele>1216.0</ele>
        <time>2019-08-01T10:37:15.945Z</time>
      </trkpt>
      <trkpt lat="43.01954" lon="-1.29915167">
        <ele>1216.0</ele>
        <time>2019-08-01T10:37:16.949Z</time>
      </trkpt>
      <trkpt lat="43.01952833" lon="-1.29916">
        <ele>1215.0</ele>
        <time>2019-08-01T10:37:17.956Z</time>
      </trkpt>
      <trkpt lat="43.01951333" lon="-1.29916667">
        <ele>1215.0</ele>
        <time>2019-08-01T10:37:18.964Z</time>
      </trkpt>
      <trkpt lat="43.01950167" lon="-1.299175">
        <ele>1215.0</ele>
        <time>2019-08-01T10:37:19.972Z</time>
      </trkpt>
      <trkpt lat="43.01949" lon="-1.29918833">
        <ele>1216.0</ele>
        <time>2019-08-01T10:37:20.978Z</time>
      </trkpt>
      <trkpt lat="43.01948" lon="-1.29919333">
        <ele>1215.0</ele>
        <time>2019-08-01T10:37:21.983Z</time>
      </trkpt>
      <trkpt lat="43.01946833" lon="-1.29920167">
        <ele>1215.0</ele>
        <time>2019-08-01T10:37:22.990Z</time>
      </trkpt>
      <trkpt lat="43.01945833" lon="-1.29921167">
        <ele>1214.0</ele>
        <time>2019-08-01T10:37:23.996Z</time>
      </trkpt>
      <trkpt lat="43.01944833" lon="-1.29921667">
        <ele>1213.0</ele>
        <time>2019-08-01T10:37:25.003Z</time>
      </trkpt>
      <trkpt lat="43.01943667" lon="-1.29922833">
        <ele>1212.0</ele>
        <time>2019-08-01T10:37:26.008Z</time>
      </trkpt>
      <trkpt lat="43.01942667" lon="-1.299235">
        <ele>1211.0</ele>
        <time>2019-08-01T10:37:27.012Z</time>
      </trkpt>
      <trkpt lat="43.019415" lon="-1.29924167">
        <ele>1210.0</ele>
        <time>2019-08-01T10:37:28.019Z</time>
      </trkpt>
      <trkpt lat="43.01940667" lon="-1.29924667">
        <ele>1210.0</ele>
        <time>2019-08-01T10:37:29.023Z</time>
      </trkpt>
      <trkpt lat="43.019395" lon="-1.29924833">
        <ele>1210.0</ele>
        <time>2019-08-01T10:37:30.031Z</time>
      </trkpt>
      <trkpt lat="43.019385" lon="-1.299245">
        <ele>1210.0</ele>
        <time>2019-08-01T10:37:31.034Z</time>
      </trkpt>
      <trkpt lat="43.019375" lon="-1.29924667">
        <ele>1210.0</ele>
        <time>2019-08-01T10:37:32.042Z</time>
      </trkpt>
      <trkpt lat="43.019365" lon="-1.29924333">
        <ele>1211.0</ele>
        <time>2019-08-01T10:37:32.922Z</time>
      </trkpt>
      <trkpt lat="43.01935" lon="-1.29923833">
        <ele>1211.0</ele>
        <time>2019-08-01T10:37:33.927Z</time>
      </trkpt>
      <trkpt lat="43.01933833" lon="-1.29923333">
        <ele>1210.0</ele>
        <time>2019-08-01T10:37:34.934Z</time>
      </trkpt>
      <trkpt lat="43.01932833" lon="-1.299235">
        <ele>1209.0</ele>
        <time>2019-08-01T10:37:35.937Z</time>
      </trkpt>
      <trkpt lat="43.01931667" lon="-1.29923833">
        <ele>1209.0</ele>
        <time>2019-08-01T10:37:36.942Z</time>
      </trkpt>
      <trkpt lat="43.0193" lon="-1.299245">
        <ele>1207.0</ele>
        <time>2019-08-01T10:37:37.948Z</time>
      </trkpt>
      <trkpt lat="43.01929333" lon="-1.29924833">
        <ele>1206.0</ele>
        <time>2019-08-01T10:37:38.955Z</time>
      </trkpt>
      <trkpt lat="43.01928167" lon="-1.29925167">
        <ele>1206.0</ele>
        <time>2019-08-01T10:37:39.963Z</time>
      </trkpt>
      <trkpt lat="43.01927167" lon="-1.299255">
        <ele>1205.0</ele>
        <time>2019-08-01T10:37:40.971Z</time>
      </trkpt>
      <trkpt lat="43.01926333" lon="-1.29925333">
        <ele>1205.0</ele>
        <time>2019-08-01T10:37:41.979Z</time>
      </trkpt>
      <trkpt lat="43.01925333" lon="-1.29925333">
        <ele>1205.0</ele>
        <time>2019-08-01T10:37:42.983Z</time>
      </trkpt>
      <trkpt lat="43.01924167" lon="-1.299255">
        <ele>1205.0</ele>
        <time>2019-08-01T10:37:43.989Z</time>
      </trkpt>
      <trkpt lat="43.019235" lon="-1.29925833">
        <ele>1205.0</ele>
        <time>2019-08-01T10:37:44.991Z</time>
      </trkpt>
      <trkpt lat="43.019225" lon="-1.29926167">
        <ele>1206.0</ele>
        <time>2019-08-01T10:37:45.996Z</time>
      </trkpt>
      <trkpt lat="43.019215" lon="-1.299265">
        <ele>1206.0</ele>
        <time>2019-08-01T10:37:47.001Z</time>
      </trkpt>
      <trkpt lat="43.01920333" lon="-1.29926667">
        <ele>1207.0</ele>
        <time>2019-08-01T10:37:48.007Z</time>
      </trkpt>
      <trkpt lat="43.01919167" lon="-1.29927">
        <ele>1207.0</ele>
        <time>2019-08-01T10:37:49.014Z</time>
      </trkpt>
      <trkpt lat="43.01918" lon="-1.29927">
        <ele>1207.0</ele>
        <time>2019-08-01T10:37:50.018Z</time>
      </trkpt>
      <trkpt lat="43.01916833" lon="-1.29927">
        <ele>1207.0</ele>
        <time>2019-08-01T10:37:51.022Z</time>
      </trkpt>
      <trkpt lat="43.019155" lon="-1.29927333">
        <ele>1206.0</ele>
        <time>2019-08-01T10:37:52.025Z</time>
      </trkpt>
      <trkpt lat="43.01914333" lon="-1.29927833">
        <ele>1206.0</ele>
        <time>2019-08-01T10:37:53.031Z</time>
      </trkpt>
      <trkpt lat="43.019135" lon="-1.29928667">
        <ele>1206.0</ele>
        <time>2019-08-01T10:37:54.034Z</time>
      </trkpt>
      <trkpt lat="43.019125" lon="-1.29929667">
        <ele>1205.0</ele>
        <time>2019-08-01T10:37:55.040Z</time>
      </trkpt>
      <trkpt lat="43.01911667" lon="-1.29930167">
        <ele>1205.0</ele>
        <time>2019-08-01T10:37:55.920Z</time>
      </trkpt>
      <trkpt lat="43.01910833" lon="-1.29930333">
        <ele>1205.0</ele>
        <time>2019-08-01T10:37:56.926Z</time>
      </trkpt>
      <trkpt lat="43.01910167" lon="-1.299305">
        <ele>1205.0</ele>
        <time>2019-08-01T10:37:57.930Z</time>
      </trkpt>
      <trkpt lat="43.01909167" lon="-1.29931">
        <ele>1204.0</ele>
        <time>2019-08-01T10:37:58.936Z</time>
      </trkpt>
      <trkpt lat="43.01908167" lon="-1.29931167">
        <ele>1204.0</ele>
        <time>2019-08-01T10:37:59.943Z</time>
      </trkpt>
      <trkpt lat="43.01906667" lon="-1.299315">
        <ele>1204.0</ele>
        <time>2019-08-01T10:38:00.950Z</time>
      </trkpt>
      <trkpt lat="43.01905333" lon="-1.29931333">
        <ele>1203.0</ele>
        <time>2019-08-01T10:38:01.956Z</time>
      </trkpt>
      <trkpt lat="43.01904" lon="-1.29931667">
        <ele>1203.0</ele>
        <time>2019-08-01T10:38:02.961Z</time>
      </trkpt>
      <trkpt lat="43.019025" lon="-1.29932333">
        <ele>1202.0</ele>
        <time>2019-08-01T10:38:03.968Z</time>
      </trkpt>
      <trkpt lat="43.01901333" lon="-1.29933167">
        <ele>1202.0</ele>
        <time>2019-08-01T10:38:04.972Z</time>
      </trkpt>
      <trkpt lat="43.019" lon="-1.29933333">
        <ele>1202.0</ele>
        <time>2019-08-01T10:38:05.980Z</time>
      </trkpt>
      <trkpt lat="43.01899" lon="-1.29932667">
        <ele>1202.0</ele>
        <time>2019-08-01T10:38:06.985Z</time>
      </trkpt>
      <trkpt lat="43.01898333" lon="-1.29932">
        <ele>1202.0</ele>
        <time>2019-08-01T10:38:07.992Z</time>
      </trkpt>
      <trkpt lat="43.01897167" lon="-1.29932167">
        <ele>1203.0</ele>
        <time>2019-08-01T10:38:08.999Z</time>
      </trkpt>
      <trkpt lat="43.01896167" lon="-1.29931833">
        <ele>1204.0</ele>
        <time>2019-08-01T10:38:10.008Z</time>
      </trkpt>
      <trkpt lat="43.01895" lon="-1.29931333">
        <ele>1204.0</ele>
        <time>2019-08-01T10:38:11.014Z</time>
      </trkpt>
      <trkpt lat="43.01893333" lon="-1.29931">
        <ele>1204.0</ele>
        <time>2019-08-01T10:38:12.021Z</time>
      </trkpt>
      <trkpt lat="43.01892" lon="-1.29931333">
        <ele>1203.0</ele>
        <time>2019-08-01T10:38:13.027Z</time>
      </trkpt>
      <trkpt lat="43.01891" lon="-1.29932167">
        <ele>1203.0</ele>
        <time>2019-08-01T10:38:14.031Z</time>
      </trkpt>
      <trkpt lat="43.01889833" lon="-1.29932167">
        <ele>1203.0</ele>
        <time>2019-08-01T10:38:15.037Z</time>
      </trkpt>
      <trkpt lat="43.018885" lon="-1.29932167">
        <ele>1202.0</ele>
        <time>2019-08-01T10:38:16.042Z</time>
      </trkpt>
      <trkpt lat="43.01887333" lon="-1.29932667">
        <ele>1202.0</ele>
        <time>2019-08-01T10:38:16.922Z</time>
      </trkpt>
      <trkpt lat="43.01886" lon="-1.29932833">
        <ele>1201.0</ele>
        <time>2019-08-01T10:38:17.928Z</time>
      </trkpt>
      <trkpt lat="43.01884833" lon="-1.29933">
        <ele>1201.0</ele>
        <time>2019-08-01T10:38:18.933Z</time>
      </trkpt>
      <trkpt lat="43.01883333" lon="-1.29933">
        <ele>1200.0</ele>
        <time>2019-08-01T10:38:19.940Z</time>
      </trkpt>
      <trkpt lat="43.01882" lon="-1.29932833">
        <ele>1201.0</ele>
        <time>2019-08-01T10:38:20.945Z</time>
      </trkpt>
      <trkpt lat="43.01880667" lon="-1.29932833">
        <ele>1201.0</ele>
        <time>2019-08-01T10:38:21.948Z</time>
      </trkpt>
      <trkpt lat="43.01879333" lon="-1.29933">
        <ele>1201.0</ele>
        <time>2019-08-01T10:38:22.954Z</time>
      </trkpt>
      <trkpt lat="43.01878167" lon="-1.29933167">
        <ele>1200.0</ele>
        <time>2019-08-01T10:38:23.959Z</time>
      </trkpt>
      <trkpt lat="43.01876833" lon="-1.29933">
        <ele>1200.0</ele>
        <time>2019-08-01T10:38:24.965Z</time>
      </trkpt>
      <trkpt lat="43.01875333" lon="-1.29933333">
        <ele>1200.0</ele>
        <time>2019-08-01T10:38:25.973Z</time>
      </trkpt>
      <trkpt lat="43.01873833" lon="-1.29933667">
        <ele>1200.0</ele>
        <time>2019-08-01T10:38:26.979Z</time>
      </trkpt>
      <trkpt lat="43.018725" lon="-1.29934167">
        <ele>1200.0</ele>
        <time>2019-08-01T10:38:27.987Z</time>
      </trkpt>
      <trkpt lat="43.01871" lon="-1.29934667">
        <ele>1200.0</ele>
        <time>2019-08-01T10:38:28.994Z</time>
      </trkpt>
      <trkpt lat="43.01869667" lon="-1.299355">
        <ele>1200.0</ele>
        <time>2019-08-01T10:38:29.999Z</time>
      </trkpt>
      <trkpt lat="43.018685" lon="-1.29936333">
        <ele>1200.0</ele>
        <time>2019-08-01T10:38:31.008Z</time>
      </trkpt>
      <trkpt lat="43.018675" lon="-1.29937833">
        <ele>1200.0</ele>
        <time>2019-08-01T10:38:32.015Z</time>
      </trkpt>
      <trkpt lat="43.01866333" lon="-1.29938833">
        <ele>1200.0</ele>
        <time>2019-08-01T10:38:33.022Z</time>
      </trkpt>
      <trkpt lat="43.01865333" lon="-1.299395">
        <ele>1201.0</ele>
        <time>2019-08-01T10:38:34.028Z</time>
      </trkpt>
      <trkpt lat="43.01864333" lon="-1.29940333">
        <ele>1201.0</ele>
        <time>2019-08-01T10:38:35.032Z</time>
      </trkpt>
      <trkpt lat="43.01863333" lon="-1.29940833">
        <ele>1201.0</ele>
        <time>2019-08-01T10:38:36.038Z</time>
      </trkpt>
      <trkpt lat="43.01862167" lon="-1.29941833">
        <ele>1201.0</ele>
        <time>2019-08-01T10:38:36.919Z</time>
      </trkpt>
      <trkpt lat="43.01860667" lon="-1.29942667">
        <ele>1200.0</ele>
        <time>2019-08-01T10:38:37.925Z</time>
      </trkpt>
      <trkpt lat="43.01859" lon="-1.299425">
        <ele>1200.0</ele>
        <time>2019-08-01T10:38:38.928Z</time>
      </trkpt>
      <trkpt lat="43.01857667" lon="-1.29943">
        <ele>1200.0</ele>
        <time>2019-08-01T10:38:39.933Z</time>
      </trkpt>
      <trkpt lat="43.01856167" lon="-1.29943">
        <ele>1200.0</ele>
        <time>2019-08-01T10:38:40.936Z</time>
      </trkpt>
      <trkpt lat="43.01854667" lon="-1.29943333">
        <ele>1200.0</ele>
        <time>2019-08-01T10:38:41.940Z</time>
      </trkpt>
      <trkpt lat="43.01853167" lon="-1.29943333">
        <ele>1200.0</ele>
        <time>2019-08-01T10:38:42.946Z</time>
      </trkpt>
      <trkpt lat="43.01851833" lon="-1.29944333">
        <ele>1200.0</ele>
        <time>2019-08-01T10:38:43.950Z</time>
      </trkpt>
      <trkpt lat="43.01851" lon="-1.29944667">
        <ele>1200.0</ele>
        <time>2019-08-01T10:38:44.955Z</time>
      </trkpt>
      <trkpt lat="43.018505" lon="-1.29945333">
        <ele>1200.0</ele>
        <time>2019-08-01T10:38:45.962Z</time>
      </trkpt>
      <trkpt lat="43.01849167" lon="-1.29945333">
        <ele>1200.0</ele>
        <time>2019-08-01T10:38:46.965Z</time>
      </trkpt>
      <trkpt lat="43.018485" lon="-1.29946333">
        <ele>1201.0</ele>
        <time>2019-08-01T10:38:47.970Z</time>
      </trkpt>
      <trkpt lat="43.01847833" lon="-1.29947667">
        <ele>1200.0</ele>
        <time>2019-08-01T10:38:48.975Z</time>
      </trkpt>
      <trkpt lat="43.01847333" lon="-1.29948667">
        <ele>1199.0</ele>
        <time>2019-08-01T10:38:49.983Z</time>
      </trkpt>
      <trkpt lat="43.01846667" lon="-1.29949667">
        <ele>1199.0</ele>
        <time>2019-08-01T10:38:50.988Z</time>
      </trkpt>
      <trkpt lat="43.01846167" lon="-1.29950833">
        <ele>1198.0</ele>
        <time>2019-08-01T10:38:51.993Z</time>
      </trkpt>
      <trkpt lat="43.01845667" lon="-1.29951833">
        <ele>1197.0</ele>
        <time>2019-08-01T10:38:53.000Z</time>
      </trkpt>
      <trkpt lat="43.01845" lon="-1.29952833">
        <ele>1196.0</ele>
        <time>2019-08-01T10:38:54.006Z</time>
      </trkpt>
      <trkpt lat="43.01844333" lon="-1.29953833">
        <ele>1196.0</ele>
        <time>2019-08-01T10:38:55.013Z</time>
      </trkpt>
      <trkpt lat="43.01843833" lon="-1.29955167">
        <ele>1195.0</ele>
        <time>2019-08-01T10:38:56.019Z</time>
      </trkpt>
      <trkpt lat="43.01843333" lon="-1.299565">
        <ele>1195.0</ele>
        <time>2019-08-01T10:38:57.026Z</time>
      </trkpt>
      <trkpt lat="43.01842833" lon="-1.29957833">
        <ele>1194.0</ele>
        <time>2019-08-01T10:38:58.031Z</time>
      </trkpt>
      <trkpt lat="43.01842167" lon="-1.29959167">
        <ele>1194.0</ele>
        <time>2019-08-01T10:38:59.037Z</time>
      </trkpt>
      <trkpt lat="43.01841667" lon="-1.29960333">
        <ele>1193.0</ele>
        <time>2019-08-01T10:38:59.918Z</time>
      </trkpt>
      <trkpt lat="43.01841333" lon="-1.29961667">
        <ele>1194.0</ele>
        <time>2019-08-01T10:39:00.923Z</time>
      </trkpt>
      <trkpt lat="43.01841" lon="-1.29963">
        <ele>1193.0</ele>
        <time>2019-08-01T10:39:01.930Z</time>
      </trkpt>
      <trkpt lat="43.0184" lon="-1.29963833">
        <ele>1193.0</ele>
        <time>2019-08-01T10:39:02.936Z</time>
      </trkpt>
      <trkpt lat="43.01839167" lon="-1.29964833">
        <ele>1193.0</ele>
        <time>2019-08-01T10:39:03.942Z</time>
      </trkpt>
      <trkpt lat="43.018385" lon="-1.29966">
        <ele>1194.0</ele>
        <time>2019-08-01T10:39:04.947Z</time>
      </trkpt>
      <trkpt lat="43.01838" lon="-1.29967167">
        <ele>1194.0</ele>
        <time>2019-08-01T10:39:05.952Z</time>
      </trkpt>
      <trkpt lat="43.01837667" lon="-1.29968167">
        <ele>1193.0</ele>
        <time>2019-08-01T10:39:06.955Z</time>
      </trkpt>
      <trkpt lat="43.01837333" lon="-1.29969333">
        <ele>1193.0</ele>
        <time>2019-08-01T10:39:07.961Z</time>
      </trkpt>
      <trkpt lat="43.01836833" lon="-1.29970667">
        <ele>1192.0</ele>
        <time>2019-08-01T10:39:08.966Z</time>
      </trkpt>
      <trkpt lat="43.01836167" lon="-1.29972167">
        <ele>1192.0</ele>
        <time>2019-08-01T10:39:09.971Z</time>
      </trkpt>
      <trkpt lat="43.01835667" lon="-1.29973333">
        <ele>1191.0</ele>
        <time>2019-08-01T10:39:10.977Z</time>
      </trkpt>
      <trkpt lat="43.01835167" lon="-1.29974667">
        <ele>1191.0</ele>
        <time>2019-08-01T10:39:11.985Z</time>
      </trkpt>
      <trkpt lat="43.01835" lon="-1.29975833">
        <ele>1190.0</ele>
        <time>2019-08-01T10:39:12.991Z</time>
      </trkpt>
      <trkpt lat="43.01834667" lon="-1.299765">
        <ele>1189.0</ele>
        <time>2019-08-01T10:39:13.999Z</time>
      </trkpt>
      <trkpt lat="43.01834833" lon="-1.299775">
        <ele>1189.0</ele>
        <time>2019-08-01T10:39:15.006Z</time>
      </trkpt>
      <trkpt lat="43.01834667" lon="-1.29978167">
        <ele>1189.0</ele>
        <time>2019-08-01T10:39:16.012Z</time>
      </trkpt>
      <trkpt lat="43.01834333" lon="-1.29978833">
        <ele>1188.0</ele>
        <time>2019-08-01T10:39:17.019Z</time>
      </trkpt>
      <trkpt lat="43.01834167" lon="-1.2998">
        <ele>1188.0</ele>
        <time>2019-08-01T10:39:18.024Z</time>
      </trkpt>
      <trkpt lat="43.01833833" lon="-1.29981167">
        <ele>1187.0</ele>
        <time>2019-08-01T10:39:19.030Z</time>
      </trkpt>
      <trkpt lat="43.018335" lon="-1.299825">
        <ele>1188.0</ele>
        <time>2019-08-01T10:39:20.035Z</time>
      </trkpt>
      <trkpt lat="43.01833333" lon="-1.29983833">
        <ele>1188.0</ele>
        <time>2019-08-01T10:39:21.039Z</time>
      </trkpt>
      <trkpt lat="43.01832667" lon="-1.299855">
        <ele>1187.0</ele>
        <time>2019-08-01T10:39:21.918Z</time>
      </trkpt>
      <trkpt lat="43.01832333" lon="-1.299865">
        <ele>1188.0</ele>
        <time>2019-08-01T10:39:22.923Z</time>
      </trkpt>
      <trkpt lat="43.01831833" lon="-1.29987833">
        <ele>1188.0</ele>
        <time>2019-08-01T10:39:23.930Z</time>
      </trkpt>
      <trkpt lat="43.01831167" lon="-1.29989167">
        <ele>1188.0</ele>
        <time>2019-08-01T10:39:24.938Z</time>
      </trkpt>
      <trkpt lat="43.01830667" lon="-1.29990333">
        <ele>1188.0</ele>
        <time>2019-08-01T10:39:25.943Z</time>
      </trkpt>
      <trkpt lat="43.01830167" lon="-1.299915">
        <ele>1189.0</ele>
        <time>2019-08-01T10:39:26.947Z</time>
      </trkpt>
      <trkpt lat="43.018295" lon="-1.29992833">
        <ele>1190.0</ele>
        <time>2019-08-01T10:39:27.952Z</time>
      </trkpt>
      <trkpt lat="43.01829" lon="-1.29994167">
        <ele>1190.0</ele>
        <time>2019-08-01T10:39:28.956Z</time>
      </trkpt>
      <trkpt lat="43.018285" lon="-1.299955">
        <ele>1191.0</ele>
        <time>2019-08-01T10:39:29.963Z</time>
      </trkpt>
      <trkpt lat="43.01828" lon="-1.29997">
        <ele>1190.0</ele>
        <time>2019-08-01T10:39:30.968Z</time>
      </trkpt>
      <trkpt lat="43.01827667" lon="-1.29998167">
        <ele>1190.0</ele>
        <time>2019-08-01T10:39:31.975Z</time>
      </trkpt>
      <trkpt lat="43.01827167" lon="-1.299995">
        <ele>1191.0</ele>
        <time>2019-08-01T10:39:32.981Z</time>
      </trkpt>
      <trkpt lat="43.018265" lon="-1.30001">
        <ele>1191.0</ele>
        <time>2019-08-01T10:39:33.987Z</time>
      </trkpt>
      <trkpt lat="43.01826" lon="-1.30002667">
        <ele>1191.0</ele>
        <time>2019-08-01T10:39:34.994Z</time>
      </trkpt>
      <trkpt lat="43.01825833" lon="-1.300045">
        <ele>1191.0</ele>
        <time>2019-08-01T10:39:35.999Z</time>
      </trkpt>
      <trkpt lat="43.01825833" lon="-1.30006">
        <ele>1191.0</ele>
        <time>2019-08-01T10:39:37.003Z</time>
      </trkpt>
      <trkpt lat="43.01826" lon="-1.300075">
        <ele>1190.0</ele>
        <time>2019-08-01T10:39:38.010Z</time>
      </trkpt>
      <trkpt lat="43.01826" lon="-1.30008833">
        <ele>1190.0</ele>
        <time>2019-08-01T10:39:39.017Z</time>
      </trkpt>
      <trkpt lat="43.01826167" lon="-1.30010667">
        <ele>1189.0</ele>
        <time>2019-08-01T10:39:40.023Z</time>
      </trkpt>
      <trkpt lat="43.01826167" lon="-1.30012333">
        <ele>1189.0</ele>
        <time>2019-08-01T10:39:41.030Z</time>
      </trkpt>
      <trkpt lat="43.01825833" lon="-1.30014">
        <ele>1188.0</ele>
        <time>2019-08-01T10:39:42.035Z</time>
      </trkpt>
      <trkpt lat="43.01825667" lon="-1.300155">
        <ele>1188.0</ele>
        <time>2019-08-01T10:39:43.041Z</time>
      </trkpt>
      <trkpt lat="43.01825667" lon="-1.30016667">
        <ele>1188.0</ele>
        <time>2019-08-01T10:39:43.921Z</time>
      </trkpt>
      <trkpt lat="43.018255" lon="-1.30017667">
        <ele>1188.0</ele>
        <time>2019-08-01T10:39:44.929Z</time>
      </trkpt>
      <trkpt lat="43.01825333" lon="-1.30018333">
        <ele>1188.0</ele>
        <time>2019-08-01T10:39:45.935Z</time>
      </trkpt>
      <trkpt lat="43.01825" lon="-1.30019">
        <ele>1188.0</ele>
        <time>2019-08-01T10:39:46.939Z</time>
      </trkpt>
      <trkpt lat="43.018245" lon="-1.30019833">
        <ele>1188.0</ele>
        <time>2019-08-01T10:39:47.946Z</time>
      </trkpt>
      <trkpt lat="43.01824167" lon="-1.30020833">
        <ele>1188.0</ele>
        <time>2019-08-01T10:39:48.952Z</time>
      </trkpt>
      <trkpt lat="43.01824333" lon="-1.30022167">
        <ele>1188.0</ele>
        <time>2019-08-01T10:39:49.955Z</time>
      </trkpt>
      <trkpt lat="43.018245" lon="-1.30022667">
        <ele>1188.0</ele>
        <time>2019-08-01T10:39:50.960Z</time>
      </trkpt>
      <trkpt lat="43.01824167" lon="-1.30023667">
        <ele>1187.0</ele>
        <time>2019-08-01T10:39:51.966Z</time>
      </trkpt>
      <trkpt lat="43.01823667" lon="-1.30024333">
        <ele>1187.0</ele>
        <time>2019-08-01T10:39:52.972Z</time>
      </trkpt>
      <trkpt lat="43.01823333" lon="-1.30024667">
        <ele>1187.0</ele>
        <time>2019-08-01T10:39:53.978Z</time>
      </trkpt>
      <trkpt lat="43.01822833" lon="-1.30025667">
        <ele>1187.0</ele>
        <time>2019-08-01T10:39:54.982Z</time>
      </trkpt>
      <trkpt lat="43.01822333" lon="-1.300265">
        <ele>1187.0</ele>
        <time>2019-08-01T10:39:55.988Z</time>
      </trkpt>
      <trkpt lat="43.01821833" lon="-1.30027333">
        <ele>1186.0</ele>
        <time>2019-08-01T10:39:56.993Z</time>
      </trkpt>
      <trkpt lat="43.01821333" lon="-1.30028167">
        <ele>1187.0</ele>
        <time>2019-08-01T10:39:57.999Z</time>
      </trkpt>
      <trkpt lat="43.01820667" lon="-1.300295">
        <ele>1187.0</ele>
        <time>2019-08-01T10:39:59.006Z</time>
      </trkpt>
      <trkpt lat="43.01820167" lon="-1.30031">
        <ele>1187.0</ele>
        <time>2019-08-01T10:40:00.013Z</time>
      </trkpt>
      <trkpt lat="43.01819667" lon="-1.30032167">
        <ele>1187.0</ele>
        <time>2019-08-01T10:40:01.020Z</time>
      </trkpt>
      <trkpt lat="43.01819333" lon="-1.30032833">
        <ele>1187.0</ele>
        <time>2019-08-01T10:40:02.028Z</time>
      </trkpt>
      <trkpt lat="43.01818667" lon="-1.30033833">
        <ele>1187.0</ele>
        <time>2019-08-01T10:40:03.033Z</time>
      </trkpt>
      <trkpt lat="43.01818" lon="-1.30034833">
        <ele>1187.0</ele>
        <time>2019-08-01T10:40:04.039Z</time>
      </trkpt>
      <trkpt lat="43.01817333" lon="-1.30035833">
        <ele>1187.0</ele>
        <time>2019-08-01T10:40:04.918Z</time>
      </trkpt>
      <trkpt lat="43.01817167" lon="-1.30037167">
        <ele>1187.0</ele>
        <time>2019-08-01T10:40:05.923Z</time>
      </trkpt>
      <trkpt lat="43.01816833" lon="-1.30039">
        <ele>1186.0</ele>
        <time>2019-08-01T10:40:06.930Z</time>
      </trkpt>
      <trkpt lat="43.01816667" lon="-1.30041">
        <ele>1187.0</ele>
        <time>2019-08-01T10:40:07.938Z</time>
      </trkpt>
      <trkpt lat="43.01816333" lon="-1.30042">
        <ele>1187.0</ele>
        <time>2019-08-01T10:40:08.945Z</time>
      </trkpt>
      <trkpt lat="43.01815833" lon="-1.30043333">
        <ele>1186.0</ele>
        <time>2019-08-01T10:40:09.949Z</time>
      </trkpt>
      <trkpt lat="43.01815333" lon="-1.30045">
        <ele>1186.0</ele>
        <time>2019-08-01T10:40:10.954Z</time>
      </trkpt>
      <trkpt lat="43.01815" lon="-1.30046667">
        <ele>1185.0</ele>
        <time>2019-08-01T10:40:11.960Z</time>
      </trkpt>
      <trkpt lat="43.018145" lon="-1.30047833">
        <ele>1184.0</ele>
        <time>2019-08-01T10:40:12.965Z</time>
      </trkpt>
      <trkpt lat="43.01814" lon="-1.30049667">
        <ele>1182.0</ele>
        <time>2019-08-01T10:40:13.968Z</time>
      </trkpt>
      <trkpt lat="43.01813667" lon="-1.300515">
        <ele>1182.0</ele>
        <time>2019-08-01T10:40:14.973Z</time>
      </trkpt>
      <trkpt lat="43.01813833" lon="-1.30053833">
        <ele>1181.0</ele>
        <time>2019-08-01T10:40:15.979Z</time>
      </trkpt>
      <trkpt lat="43.01814167" lon="-1.30056333">
        <ele>1179.0</ele>
        <time>2019-08-01T10:40:16.984Z</time>
      </trkpt>
      <trkpt lat="43.01814167" lon="-1.30058667">
        <ele>1178.0</ele>
        <time>2019-08-01T10:40:17.990Z</time>
      </trkpt>
      <trkpt lat="43.01814167" lon="-1.300605">
        <ele>1177.0</ele>
        <time>2019-08-01T10:40:18.996Z</time>
      </trkpt>
      <trkpt lat="43.01814167" lon="-1.30062333">
        <ele>1176.0</ele>
        <time>2019-08-01T10:40:20.001Z</time>
      </trkpt>
      <trkpt lat="43.018135" lon="-1.30064">
        <ele>1175.0</ele>
        <time>2019-08-01T10:40:21.007Z</time>
      </trkpt>
      <trkpt lat="43.01813" lon="-1.30065333">
        <ele>1175.0</ele>
        <time>2019-08-01T10:40:22.014Z</time>
      </trkpt>
      <trkpt lat="43.018125" lon="-1.30065833">
        <ele>1175.0</ele>
        <time>2019-08-01T10:40:23.019Z</time>
      </trkpt>
      <trkpt lat="43.018115" lon="-1.30067167">
        <ele>1175.0</ele>
        <time>2019-08-01T10:40:24.025Z</time>
      </trkpt>
      <trkpt lat="43.01810833" lon="-1.30068667">
        <ele>1175.0</ele>
        <time>2019-08-01T10:40:25.031Z</time>
      </trkpt>
      <trkpt lat="43.01810167" lon="-1.30069667">
        <ele>1176.0</ele>
        <time>2019-08-01T10:40:26.036Z</time>
      </trkpt>
      <trkpt lat="43.01809167" lon="-1.30071">
        <ele>1176.0</ele>
        <time>2019-08-01T10:40:27.042Z</time>
      </trkpt>
      <trkpt lat="43.01808333" lon="-1.30071833">
        <ele>1175.0</ele>
        <time>2019-08-01T10:40:27.922Z</time>
      </trkpt>
      <trkpt lat="43.01807667" lon="-1.30072167">
        <ele>1175.0</ele>
        <time>2019-08-01T10:40:28.930Z</time>
      </trkpt>
      <trkpt lat="43.01807" lon="-1.30072833">
        <ele>1174.0</ele>
        <time>2019-08-01T10:40:29.936Z</time>
      </trkpt>
      <trkpt lat="43.01806667" lon="-1.300745">
        <ele>1174.0</ele>
        <time>2019-08-01T10:40:30.942Z</time>
      </trkpt>
      <trkpt lat="43.01807" lon="-1.30076667">
        <ele>1174.0</ele>
        <time>2019-08-01T10:40:31.948Z</time>
      </trkpt>
      <trkpt lat="43.01807" lon="-1.300775">
        <ele>1173.0</ele>
        <time>2019-08-01T10:40:32.953Z</time>
      </trkpt>
      <trkpt lat="43.01807" lon="-1.300785">
        <ele>1173.0</ele>
        <time>2019-08-01T10:40:33.960Z</time>
      </trkpt>
      <trkpt lat="43.01807" lon="-1.300795">
        <ele>1173.0</ele>
        <time>2019-08-01T10:40:34.964Z</time>
      </trkpt>
      <trkpt lat="43.01807" lon="-1.30080833">
        <ele>1173.0</ele>
        <time>2019-08-01T10:40:35.969Z</time>
      </trkpt>
      <trkpt lat="43.01806667" lon="-1.30082333">
        <ele>1173.0</ele>
        <time>2019-08-01T10:40:36.974Z</time>
      </trkpt>
      <trkpt lat="43.01806167" lon="-1.30083833">
        <ele>1173.0</ele>
        <time>2019-08-01T10:40:37.982Z</time>
      </trkpt>
      <trkpt lat="43.01805667" lon="-1.30085333">
        <ele>1173.0</ele>
        <time>2019-08-01T10:40:38.985Z</time>
      </trkpt>
      <trkpt lat="43.01805333" lon="-1.30087">
        <ele>1173.0</ele>
        <time>2019-08-01T10:40:39.990Z</time>
      </trkpt>
      <trkpt lat="43.01805" lon="-1.300885">
        <ele>1173.0</ele>
        <time>2019-08-01T10:40:40.992Z</time>
      </trkpt>
      <trkpt lat="43.018045" lon="-1.30089833">
        <ele>1173.0</ele>
        <time>2019-08-01T10:40:41.996Z</time>
      </trkpt>
      <trkpt lat="43.01804333" lon="-1.30091333">
        <ele>1173.0</ele>
        <time>2019-08-01T10:40:42.999Z</time>
      </trkpt>
      <trkpt lat="43.018045" lon="-1.30093">
        <ele>1172.0</ele>
        <time>2019-08-01T10:40:44.000Z</time>
      </trkpt>
      <trkpt lat="43.01804333" lon="-1.300945">
        <ele>1172.0</ele>
        <time>2019-08-01T10:40:45.001Z</time>
      </trkpt>
      <trkpt lat="43.01804333" lon="-1.30096167">
        <ele>1171.0</ele>
        <time>2019-08-01T10:40:46.008Z</time>
      </trkpt>
      <trkpt lat="43.01804" lon="-1.30097833">
        <ele>1171.0</ele>
        <time>2019-08-01T10:40:47.014Z</time>
      </trkpt>
      <trkpt lat="43.01803833" lon="-1.30099167">
        <ele>1171.0</ele>
        <time>2019-08-01T10:40:48.018Z</time>
      </trkpt>
      <trkpt lat="43.018035" lon="-1.30100667">
        <ele>1171.0</ele>
        <time>2019-08-01T10:40:49.021Z</time>
      </trkpt>
      <trkpt lat="43.01803167" lon="-1.30102167">
        <ele>1171.0</ele>
        <time>2019-08-01T10:40:50.028Z</time>
      </trkpt>
      <trkpt lat="43.01802833" lon="-1.30103667">
        <ele>1171.0</ele>
        <time>2019-08-01T10:40:51.034Z</time>
      </trkpt>
      <trkpt lat="43.01802667" lon="-1.30105667">
        <ele>1171.0</ele>
        <time>2019-08-01T10:40:52.040Z</time>
      </trkpt>
      <trkpt lat="43.01802667" lon="-1.30107333">
        <ele>1171.0</ele>
        <time>2019-08-01T10:40:52.921Z</time>
      </trkpt>
      <trkpt lat="43.01802667" lon="-1.30108833">
        <ele>1170.0</ele>
        <time>2019-08-01T10:40:53.928Z</time>
      </trkpt>
      <trkpt lat="43.01802333" lon="-1.30110167">
        <ele>1170.0</ele>
        <time>2019-08-01T10:40:54.932Z</time>
      </trkpt>
      <trkpt lat="43.01802167" lon="-1.30111333">
        <ele>1171.0</ele>
        <time>2019-08-01T10:40:55.940Z</time>
      </trkpt>
      <trkpt lat="43.01801833" lon="-1.30112667">
        <ele>1171.0</ele>
        <time>2019-08-01T10:40:56.943Z</time>
      </trkpt>
      <trkpt lat="43.01801667" lon="-1.30113667">
        <ele>1171.0</ele>
        <time>2019-08-01T10:40:57.948Z</time>
      </trkpt>
      <trkpt lat="43.01801" lon="-1.30115">
        <ele>1171.0</ele>
        <time>2019-08-01T10:40:58.951Z</time>
      </trkpt>
      <trkpt lat="43.01800333" lon="-1.30116333">
        <ele>1170.0</ele>
        <time>2019-08-01T10:40:59.957Z</time>
      </trkpt>
      <trkpt lat="43.01799833" lon="-1.30117">
        <ele>1170.0</ele>
        <time>2019-08-01T10:41:00.963Z</time>
      </trkpt>
      <trkpt lat="43.01799333" lon="-1.30118">
        <ele>1170.0</ele>
        <time>2019-08-01T10:41:01.970Z</time>
      </trkpt>
      <trkpt lat="43.01798667" lon="-1.30119">
        <ele>1170.0</ele>
        <time>2019-08-01T10:41:02.976Z</time>
      </trkpt>
      <trkpt lat="43.01798167" lon="-1.30119833">
        <ele>1171.0</ele>
        <time>2019-08-01T10:41:03.983Z</time>
      </trkpt>
      <trkpt lat="43.01798" lon="-1.30121">
        <ele>1171.0</ele>
        <time>2019-08-01T10:41:04.989Z</time>
      </trkpt>
      <trkpt lat="43.01797667" lon="-1.30122167">
        <ele>1171.0</ele>
        <time>2019-08-01T10:41:05.995Z</time>
      </trkpt>
      <trkpt lat="43.01797667" lon="-1.30123667">
        <ele>1170.0</ele>
        <time>2019-08-01T10:41:07.002Z</time>
      </trkpt>
      <trkpt lat="43.01797167" lon="-1.30124833">
        <ele>1170.0</ele>
        <time>2019-08-01T10:41:08.009Z</time>
      </trkpt>
      <trkpt lat="43.01796833" lon="-1.30126167">
        <ele>1171.0</ele>
        <time>2019-08-01T10:41:09.015Z</time>
      </trkpt>
      <trkpt lat="43.017965" lon="-1.30127667">
        <ele>1171.0</ele>
        <time>2019-08-01T10:41:10.021Z</time>
      </trkpt>
      <trkpt lat="43.01796" lon="-1.30129167">
        <ele>1171.0</ele>
        <time>2019-08-01T10:41:11.028Z</time>
      </trkpt>
      <trkpt lat="43.017955" lon="-1.30130833">
        <ele>1171.0</ele>
        <time>2019-08-01T10:41:12.031Z</time>
      </trkpt>
      <trkpt lat="43.01795333" lon="-1.301325">
        <ele>1171.0</ele>
        <time>2019-08-01T10:41:13.034Z</time>
      </trkpt>
      <trkpt lat="43.01795167" lon="-1.30134167">
        <ele>1171.0</ele>
        <time>2019-08-01T10:41:14.040Z</time>
      </trkpt>
      <trkpt lat="43.01794833" lon="-1.30136">
        <ele>1171.0</ele>
        <time>2019-08-01T10:41:14.922Z</time>
      </trkpt>
      <trkpt lat="43.01794667" lon="-1.30137667">
        <ele>1171.0</ele>
        <time>2019-08-01T10:41:15.925Z</time>
      </trkpt>
      <trkpt lat="43.017945" lon="-1.30139333">
        <ele>1171.0</ele>
        <time>2019-08-01T10:41:16.932Z</time>
      </trkpt>
      <trkpt lat="43.017945" lon="-1.30141">
        <ele>1171.0</ele>
        <time>2019-08-01T10:41:17.937Z</time>
      </trkpt>
      <trkpt lat="43.017945" lon="-1.30142667">
        <ele>1171.0</ele>
        <time>2019-08-01T10:41:18.943Z</time>
      </trkpt>
      <trkpt lat="43.01794333" lon="-1.30144333">
        <ele>1170.0</ele>
        <time>2019-08-01T10:41:19.949Z</time>
      </trkpt>
      <trkpt lat="43.01793833" lon="-1.30145667">
        <ele>1170.0</ele>
        <time>2019-08-01T10:41:20.956Z</time>
      </trkpt>
      <trkpt lat="43.017935" lon="-1.30147167">
        <ele>1170.0</ele>
        <time>2019-08-01T10:41:21.962Z</time>
      </trkpt>
      <trkpt lat="43.01793" lon="-1.30148333">
        <ele>1169.0</ele>
        <time>2019-08-01T10:41:22.969Z</time>
      </trkpt>
      <trkpt lat="43.017925" lon="-1.30149333">
        <ele>1169.0</ele>
        <time>2019-08-01T10:41:23.974Z</time>
      </trkpt>
      <trkpt lat="43.01791667" lon="-1.30149833">
        <ele>1169.0</ele>
        <time>2019-08-01T10:41:24.980Z</time>
      </trkpt>
      <trkpt lat="43.01791" lon="-1.30150333">
        <ele>1169.0</ele>
        <time>2019-08-01T10:41:25.987Z</time>
      </trkpt>
      <trkpt lat="43.01790167" lon="-1.301515">
        <ele>1169.0</ele>
        <time>2019-08-01T10:41:26.991Z</time>
      </trkpt>
      <trkpt lat="43.0179" lon="-1.30152833">
        <ele>1168.0</ele>
        <time>2019-08-01T10:41:27.998Z</time>
      </trkpt>
      <trkpt lat="43.01789667" lon="-1.30154167">
        <ele>1168.0</ele>
        <time>2019-08-01T10:41:29.005Z</time>
      </trkpt>
      <trkpt lat="43.017895" lon="-1.30155833">
        <ele>1168.0</ele>
        <time>2019-08-01T10:41:30.010Z</time>
      </trkpt>
      <trkpt lat="43.01789167" lon="-1.301575">
        <ele>1169.0</ele>
        <time>2019-08-01T10:41:31.014Z</time>
      </trkpt>
      <trkpt lat="43.01789167" lon="-1.30159">
        <ele>1170.0</ele>
        <time>2019-08-01T10:41:32.021Z</time>
      </trkpt>
      <trkpt lat="43.017895" lon="-1.30160333">
        <ele>1170.0</ele>
        <time>2019-08-01T10:41:33.027Z</time>
      </trkpt>
      <trkpt lat="43.01789833" lon="-1.30161833">
        <ele>1169.0</ele>
        <time>2019-08-01T10:41:34.032Z</time>
      </trkpt>
      <trkpt lat="43.01789833" lon="-1.30163667">
        <ele>1169.0</ele>
        <time>2019-08-01T10:41:35.037Z</time>
      </trkpt>
      <trkpt lat="43.01790333" lon="-1.30165667">
        <ele>1168.0</ele>
        <time>2019-08-01T10:41:36.043Z</time>
      </trkpt>
      <trkpt lat="43.01790333" lon="-1.30167667">
        <ele>1168.0</ele>
        <time>2019-08-01T10:41:36.924Z</time>
      </trkpt>
      <trkpt lat="43.01790167" lon="-1.301695">
        <ele>1167.0</ele>
        <time>2019-08-01T10:41:37.928Z</time>
      </trkpt>
      <trkpt lat="43.0179" lon="-1.30171333">
        <ele>1168.0</ele>
        <time>2019-08-01T10:41:38.931Z</time>
      </trkpt>
      <trkpt lat="43.01789667" lon="-1.30173">
        <ele>1168.0</ele>
        <time>2019-08-01T10:41:39.937Z</time>
      </trkpt>
      <trkpt lat="43.01789667" lon="-1.30174667">
        <ele>1168.0</ele>
        <time>2019-08-01T10:41:40.945Z</time>
      </trkpt>
      <trkpt lat="43.01789667" lon="-1.30176167">
        <ele>1167.0</ele>
        <time>2019-08-01T10:41:41.950Z</time>
      </trkpt>
      <trkpt lat="43.017895" lon="-1.30178333">
        <ele>1167.0</ele>
        <time>2019-08-01T10:41:42.955Z</time>
      </trkpt>
      <trkpt lat="43.017895" lon="-1.30180667">
        <ele>1167.0</ele>
        <time>2019-08-01T10:41:43.959Z</time>
      </trkpt>
      <trkpt lat="43.01789667" lon="-1.30182333">
        <ele>1167.0</ele>
        <time>2019-08-01T10:41:44.965Z</time>
      </trkpt>
      <trkpt lat="43.01789833" lon="-1.30184833">
        <ele>1167.0</ele>
        <time>2019-08-01T10:41:45.972Z</time>
      </trkpt>
      <trkpt lat="43.01790333" lon="-1.30187">
        <ele>1167.0</ele>
        <time>2019-08-01T10:41:46.978Z</time>
      </trkpt>
      <trkpt lat="43.017905" lon="-1.30189">
        <ele>1167.0</ele>
        <time>2019-08-01T10:41:47.983Z</time>
      </trkpt>
      <trkpt lat="43.01790833" lon="-1.30190167">
        <ele>1167.0</ele>
        <time>2019-08-01T10:41:48.989Z</time>
      </trkpt>
      <trkpt lat="43.01790667" lon="-1.30192">
        <ele>1167.0</ele>
        <time>2019-08-01T10:41:49.994Z</time>
      </trkpt>
      <trkpt lat="43.017905" lon="-1.30193167">
        <ele>1167.0</ele>
        <time>2019-08-01T10:41:51.000Z</time>
      </trkpt>
      <trkpt lat="43.01790333" lon="-1.301945">
        <ele>1168.0</ele>
        <time>2019-08-01T10:41:52.006Z</time>
      </trkpt>
      <trkpt lat="43.01789833" lon="-1.30195667">
        <ele>1168.0</ele>
        <time>2019-08-01T10:41:53.011Z</time>
      </trkpt>
      <trkpt lat="43.017895" lon="-1.30197">
        <ele>1168.0</ele>
        <time>2019-08-01T10:41:54.017Z</time>
      </trkpt>
      <trkpt lat="43.01788667" lon="-1.30197333">
        <ele>1169.0</ele>
        <time>2019-08-01T10:41:55.022Z</time>
      </trkpt>
      <trkpt lat="43.01788" lon="-1.30197667">
        <ele>1169.0</ele>
        <time>2019-08-01T10:41:56.028Z</time>
      </trkpt>
      <trkpt lat="43.01787333" lon="-1.30198">
        <ele>1169.0</ele>
        <time>2019-08-01T10:41:57.033Z</time>
      </trkpt>
      <trkpt lat="43.01786667" lon="-1.301985">
        <ele>1170.0</ele>
        <time>2019-08-01T10:41:58.038Z</time>
      </trkpt>
      <trkpt lat="43.01785833" lon="-1.30198667">
        <ele>1170.0</ele>
        <time>2019-08-01T10:41:58.919Z</time>
      </trkpt>
      <trkpt lat="43.01785167" lon="-1.30199333">
        <ele>1171.0</ele>
        <time>2019-08-01T10:41:59.925Z</time>
      </trkpt>
      <trkpt lat="43.017845" lon="-1.30199833">
        <ele>1171.0</ele>
        <time>2019-08-01T10:42:00.931Z</time>
      </trkpt>
      <trkpt lat="43.01783833" lon="-1.30200667">
        <ele>1171.0</ele>
        <time>2019-08-01T10:42:01.937Z</time>
      </trkpt>
      <trkpt lat="43.01783167" lon="-1.30201667">
        <ele>1171.0</ele>
        <time>2019-08-01T10:42:02.944Z</time>
      </trkpt>
      <trkpt lat="43.01782167" lon="-1.30202">
        <ele>1170.0</ele>
        <time>2019-08-01T10:42:03.948Z</time>
      </trkpt>
      <trkpt lat="43.017815" lon="-1.302025">
        <ele>1170.0</ele>
        <time>2019-08-01T10:42:04.952Z</time>
      </trkpt>
      <trkpt lat="43.01781" lon="-1.30203167">
        <ele>1170.0</ele>
        <time>2019-08-01T10:42:05.956Z</time>
      </trkpt>
      <trkpt lat="43.01780167" lon="-1.30203667">
        <ele>1170.0</ele>
        <time>2019-08-01T10:42:06.962Z</time>
      </trkpt>
      <trkpt lat="43.01779333" lon="-1.30204333">
        <ele>1169.0</ele>
        <time>2019-08-01T10:42:07.969Z</time>
      </trkpt>
      <trkpt lat="43.01778833" lon="-1.302045">
        <ele>1169.0</ele>
        <time>2019-08-01T10:42:08.977Z</time>
      </trkpt>
      <trkpt lat="43.01777833" lon="-1.30204833">
        <ele>1169.0</ele>
        <time>2019-08-01T10:42:09.983Z</time>
      </trkpt>
      <trkpt lat="43.01777" lon="-1.30204333">
        <ele>1168.0</ele>
        <time>2019-08-01T10:42:10.986Z</time>
      </trkpt>
      <trkpt lat="43.01776167" lon="-1.302045">
        <ele>1168.0</ele>
        <time>2019-08-01T10:42:11.992Z</time>
      </trkpt>
      <trkpt lat="43.01775833" lon="-1.30203833">
        <ele>1167.0</ele>
        <time>2019-08-01T10:42:12.999Z</time>
      </trkpt>
      <trkpt lat="43.01775167" lon="-1.302035">
        <ele>1167.0</ele>
        <time>2019-08-01T10:42:14.006Z</time>
      </trkpt>
      <trkpt lat="43.017745" lon="-1.30203333">
        <ele>1167.0</ele>
        <time>2019-08-01T10:42:15.009Z</time>
      </trkpt>
      <trkpt lat="43.01774" lon="-1.30202833">
        <ele>1168.0</ele>
        <time>2019-08-01T10:42:16.017Z</time>
      </trkpt>
      <trkpt lat="43.017735" lon="-1.302025">
        <ele>1168.0</ele>
        <time>2019-08-01T10:42:17.023Z</time>
      </trkpt>
      <trkpt lat="43.01772833" lon="-1.30202">
        <ele>1167.0</ele>
        <time>2019-08-01T10:42:18.030Z</time>
      </trkpt>
      <trkpt lat="43.01772" lon="-1.302015">
        <ele>1167.0</ele>
        <time>2019-08-01T10:42:19.034Z</time>
      </trkpt>
      <trkpt lat="43.01771333" lon="-1.30201333">
        <ele>1168.0</ele>
        <time>2019-08-01T10:42:20.041Z</time>
      </trkpt>
      <trkpt lat="43.017705" lon="-1.30201">
        <ele>1168.0</ele>
        <time>2019-08-01T10:42:20.920Z</time>
      </trkpt>
      <trkpt lat="43.01769667" lon="-1.30200333">
        <ele>1167.0</ele>
        <time>2019-08-01T10:42:21.926Z</time>
      </trkpt>
      <trkpt lat="43.01768833" lon="-1.30200333">
        <ele>1166.0</ele>
        <time>2019-08-01T10:42:22.931Z</time>
      </trkpt>
      <trkpt lat="43.01767667" lon="-1.30201">
        <ele>1165.0</ele>
        <time>2019-08-01T10:42:23.937Z</time>
      </trkpt>
      <trkpt lat="43.01766833" lon="-1.30201167">
        <ele>1165.0</ele>
        <time>2019-08-01T10:42:24.944Z</time>
      </trkpt>
      <trkpt lat="43.01765667" lon="-1.30200833">
        <ele>1165.0</ele>
        <time>2019-08-01T10:42:25.948Z</time>
      </trkpt>
      <trkpt lat="43.01764667" lon="-1.30200667">
        <ele>1165.0</ele>
        <time>2019-08-01T10:42:26.955Z</time>
      </trkpt>
      <trkpt lat="43.01763667" lon="-1.30200833">
        <ele>1165.0</ele>
        <time>2019-08-01T10:42:27.963Z</time>
      </trkpt>
      <trkpt lat="43.017625" lon="-1.30201167">
        <ele>1164.0</ele>
        <time>2019-08-01T10:42:28.968Z</time>
      </trkpt>
      <trkpt lat="43.017615" lon="-1.30201667">
        <ele>1164.0</ele>
        <time>2019-08-01T10:42:29.974Z</time>
      </trkpt>
      <trkpt lat="43.01760167" lon="-1.302025">
        <ele>1164.0</ele>
        <time>2019-08-01T10:42:30.980Z</time>
      </trkpt>
      <trkpt lat="43.01759167" lon="-1.30203">
        <ele>1163.0</ele>
        <time>2019-08-01T10:42:31.986Z</time>
      </trkpt>
      <trkpt lat="43.01758333" lon="-1.30203333">
        <ele>1162.0</ele>
        <time>2019-08-01T10:42:32.992Z</time>
      </trkpt>
      <trkpt lat="43.01757667" lon="-1.30203667">
        <ele>1161.0</ele>
        <time>2019-08-01T10:42:33.995Z</time>
      </trkpt>
      <trkpt lat="43.01757" lon="-1.30204">
        <ele>1160.0</ele>
        <time>2019-08-01T10:42:35.002Z</time>
      </trkpt>
      <trkpt lat="43.01756167" lon="-1.30204167">
        <ele>1160.0</ele>
        <time>2019-08-01T10:42:36.009Z</time>
      </trkpt>
      <trkpt lat="43.017555" lon="-1.30204">
        <ele>1160.0</ele>
        <time>2019-08-01T10:42:37.014Z</time>
      </trkpt>
      <trkpt lat="43.017545" lon="-1.30203667">
        <ele>1160.0</ele>
        <time>2019-08-01T10:42:38.020Z</time>
      </trkpt>
      <trkpt lat="43.017535" lon="-1.30203333">
        <ele>1160.0</ele>
        <time>2019-08-01T10:42:39.024Z</time>
      </trkpt>
      <trkpt lat="43.01752833" lon="-1.30202667">
        <ele>1160.0</ele>
        <time>2019-08-01T10:42:40.029Z</time>
      </trkpt>
      <trkpt lat="43.01752167" lon="-1.30202167">
        <ele>1160.0</ele>
        <time>2019-08-01T10:42:41.034Z</time>
      </trkpt>
      <trkpt lat="43.01752" lon="-1.30202167">
        <ele>1160.0</ele>
        <time>2019-08-01T10:42:42.039Z</time>
      </trkpt>
      <trkpt lat="43.017515" lon="-1.30201833">
        <ele>1160.0</ele>
        <time>2019-08-01T10:42:42.920Z</time>
      </trkpt>
      <trkpt lat="43.01750667" lon="-1.30201833">
        <ele>1160.0</ele>
        <time>2019-08-01T10:42:43.925Z</time>
      </trkpt>
      <trkpt lat="43.0175" lon="-1.30202167">
        <ele>1160.0</ele>
        <time>2019-08-01T10:42:44.931Z</time>
      </trkpt>
      <trkpt lat="43.01749333" lon="-1.30202333">
        <ele>1159.0</ele>
        <time>2019-08-01T10:42:45.938Z</time>
      </trkpt>
      <trkpt lat="43.01749167" lon="-1.302015">
        <ele>1159.0</ele>
        <time>2019-08-01T10:42:46.943Z</time>
      </trkpt>
      <trkpt lat="43.01748833" lon="-1.30200833">
        <ele>1159.0</ele>
        <time>2019-08-01T10:42:47.948Z</time>
      </trkpt>
      <trkpt lat="43.01748667" lon="-1.302">
        <ele>1159.0</ele>
        <time>2019-08-01T10:42:48.953Z</time>
      </trkpt>
      <trkpt lat="43.01748" lon="-1.30199167">
        <ele>1158.0</ele>
        <time>2019-08-01T10:42:49.960Z</time>
      </trkpt>
      <trkpt lat="43.01747333" lon="-1.30199">
        <ele>1158.0</ele>
        <time>2019-08-01T10:42:50.964Z</time>
      </trkpt>
      <trkpt lat="43.01746833" lon="-1.30199333">
        <ele>1158.0</ele>
        <time>2019-08-01T10:42:51.971Z</time>
      </trkpt>
      <trkpt lat="43.01745833" lon="-1.30198833">
        <ele>1158.0</ele>
        <time>2019-08-01T10:42:52.974Z</time>
      </trkpt>
      <trkpt lat="43.01745167" lon="-1.30198833">
        <ele>1158.0</ele>
        <time>2019-08-01T10:42:53.981Z</time>
      </trkpt>
      <trkpt lat="43.01744667" lon="-1.30199167">
        <ele>1158.0</ele>
        <time>2019-08-01T10:42:54.984Z</time>
      </trkpt>
      <trkpt lat="43.01744167" lon="-1.301995">
        <ele>1157.0</ele>
        <time>2019-08-01T10:42:55.988Z</time>
      </trkpt>
      <trkpt lat="43.01743333" lon="-1.302">
        <ele>1157.0</ele>
        <time>2019-08-01T10:42:56.992Z</time>
      </trkpt>
      <trkpt lat="43.017425" lon="-1.30200167">
        <ele>1157.0</ele>
        <time>2019-08-01T10:42:57.999Z</time>
      </trkpt>
      <trkpt lat="43.01742167" lon="-1.30200667">
        <ele>1157.0</ele>
        <time>2019-08-01T10:42:59.006Z</time>
      </trkpt>
      <trkpt lat="43.017415" lon="-1.30200833">
        <ele>1156.0</ele>
        <time>2019-08-01T10:43:00.012Z</time>
      </trkpt>
      <trkpt lat="43.01740667" lon="-1.30201">
        <ele>1156.0</ele>
        <time>2019-08-01T10:43:01.016Z</time>
      </trkpt>
      <trkpt lat="43.01739833" lon="-1.30201">
        <ele>1156.0</ele>
        <time>2019-08-01T10:43:02.022Z</time>
      </trkpt>
      <trkpt lat="43.01739167" lon="-1.30200833">
        <ele>1155.0</ele>
        <time>2019-08-01T10:43:03.026Z</time>
      </trkpt>
      <trkpt lat="43.01738167" lon="-1.30200833">
        <ele>1153.0</ele>
        <time>2019-08-01T10:43:04.031Z</time>
      </trkpt>
      <trkpt lat="43.01737167" lon="-1.30201">
        <ele>1152.0</ele>
        <time>2019-08-01T10:43:05.038Z</time>
      </trkpt>
      <trkpt lat="43.017365" lon="-1.30200667">
        <ele>1151.0</ele>
        <time>2019-08-01T10:43:05.919Z</time>
      </trkpt>
      <trkpt lat="43.01735167" lon="-1.30200667">
        <ele>1150.0</ele>
        <time>2019-08-01T10:43:06.925Z</time>
      </trkpt>
      <trkpt lat="43.01734333" lon="-1.30200833">
        <ele>1150.0</ele>
        <time>2019-08-01T10:43:07.930Z</time>
      </trkpt>
      <trkpt lat="43.01733333" lon="-1.30201">
        <ele>1149.0</ele>
        <time>2019-08-01T10:43:08.936Z</time>
      </trkpt>
      <trkpt lat="43.01732333" lon="-1.30200833">
        <ele>1149.0</ele>
        <time>2019-08-01T10:43:09.940Z</time>
      </trkpt>
      <trkpt lat="43.01731667" lon="-1.30201167">
        <ele>1148.0</ele>
        <time>2019-08-01T10:43:10.945Z</time>
      </trkpt>
      <trkpt lat="43.01730667" lon="-1.30201667">
        <ele>1149.0</ele>
        <time>2019-08-01T10:43:11.949Z</time>
      </trkpt>
      <trkpt lat="43.017295" lon="-1.30202">
        <ele>1149.0</ele>
        <time>2019-08-01T10:43:12.956Z</time>
      </trkpt>
      <trkpt lat="43.01728667" lon="-1.302025">
        <ele>1148.0</ele>
        <time>2019-08-01T10:43:13.961Z</time>
      </trkpt>
      <trkpt lat="43.017275" lon="-1.302025">
        <ele>1147.0</ele>
        <time>2019-08-01T10:43:14.968Z</time>
      </trkpt>
      <trkpt lat="43.01726333" lon="-1.302025">
        <ele>1147.0</ele>
        <time>2019-08-01T10:43:15.972Z</time>
      </trkpt>
      <trkpt lat="43.01725333" lon="-1.30202833">
        <ele>1146.0</ele>
        <time>2019-08-01T10:43:16.979Z</time>
      </trkpt>
      <trkpt lat="43.01724167" lon="-1.302035">
        <ele>1146.0</ele>
        <time>2019-08-01T10:43:17.984Z</time>
      </trkpt>
      <trkpt lat="43.01723" lon="-1.30204333">
        <ele>1145.0</ele>
        <time>2019-08-01T10:43:18.989Z</time>
      </trkpt>
      <trkpt lat="43.01721667" lon="-1.30205833">
        <ele>1145.0</ele>
        <time>2019-08-01T10:43:19.992Z</time>
      </trkpt>
      <trkpt lat="43.01720833" lon="-1.30207">
        <ele>1144.0</ele>
        <time>2019-08-01T10:43:20.997Z</time>
      </trkpt>
      <trkpt lat="43.01719833" lon="-1.302085">
        <ele>1143.0</ele>
        <time>2019-08-01T10:43:22.004Z</time>
      </trkpt>
      <trkpt lat="43.01719" lon="-1.30209833">
        <ele>1142.0</ele>
        <time>2019-08-01T10:43:23.009Z</time>
      </trkpt>
      <trkpt lat="43.01718667" lon="-1.30211">
        <ele>1140.0</ele>
        <time>2019-08-01T10:43:24.014Z</time>
      </trkpt>
      <trkpt lat="43.01718" lon="-1.30212333">
        <ele>1140.0</ele>
        <time>2019-08-01T10:43:25.019Z</time>
      </trkpt>
      <trkpt lat="43.01717333" lon="-1.30213667">
        <ele>1140.0</ele>
        <time>2019-08-01T10:43:26.025Z</time>
      </trkpt>
      <trkpt lat="43.01716667" lon="-1.30214667">
        <ele>1140.0</ele>
        <time>2019-08-01T10:43:27.030Z</time>
      </trkpt>
      <trkpt lat="43.01715667" lon="-1.302155">
        <ele>1140.0</ele>
        <time>2019-08-01T10:43:28.035Z</time>
      </trkpt>
      <trkpt lat="43.01714333" lon="-1.30215833">
        <ele>1141.0</ele>
        <time>2019-08-01T10:43:29.041Z</time>
      </trkpt>
      <trkpt lat="43.01713333" lon="-1.30216833">
        <ele>1141.0</ele>
        <time>2019-08-01T10:43:29.920Z</time>
      </trkpt>
      <trkpt lat="43.01712167" lon="-1.30218">
        <ele>1142.0</ele>
        <time>2019-08-01T10:43:30.925Z</time>
      </trkpt>
      <trkpt lat="43.01711333" lon="-1.30219167">
        <ele>1142.0</ele>
        <time>2019-08-01T10:43:31.930Z</time>
      </trkpt>
      <trkpt lat="43.01710167" lon="-1.30220833">
        <ele>1142.0</ele>
        <time>2019-08-01T10:43:32.936Z</time>
      </trkpt>
      <trkpt lat="43.01709167" lon="-1.30222">
        <ele>1143.0</ele>
        <time>2019-08-01T10:43:33.941Z</time>
      </trkpt>
      <trkpt lat="43.01707833" lon="-1.30223">
        <ele>1143.0</ele>
        <time>2019-08-01T10:43:34.948Z</time>
      </trkpt>
      <trkpt lat="43.017065" lon="-1.302245">
        <ele>1144.0</ele>
        <time>2019-08-01T10:43:35.954Z</time>
      </trkpt>
      <trkpt lat="43.01705167" lon="-1.302255">
        <ele>1144.0</ele>
        <time>2019-08-01T10:43:36.960Z</time>
      </trkpt>
      <trkpt lat="43.01703333" lon="-1.30227">
        <ele>1144.0</ele>
        <time>2019-08-01T10:43:37.966Z</time>
      </trkpt>
      <trkpt lat="43.01702167" lon="-1.302285">
        <ele>1143.0</ele>
        <time>2019-08-01T10:43:38.972Z</time>
      </trkpt>
      <trkpt lat="43.01701667" lon="-1.30229">
        <ele>1143.0</ele>
        <time>2019-08-01T10:43:39.978Z</time>
      </trkpt>
      <trkpt lat="43.01701" lon="-1.30230333">
        <ele>1143.0</ele>
        <time>2019-08-01T10:43:40.985Z</time>
      </trkpt>
      <trkpt lat="43.01700667" lon="-1.302315">
        <ele>1143.0</ele>
        <time>2019-08-01T10:43:41.992Z</time>
      </trkpt>
      <trkpt lat="43.01700167" lon="-1.30232167">
        <ele>1143.0</ele>
        <time>2019-08-01T10:43:42.997Z</time>
      </trkpt>
      <trkpt lat="43.01699833" lon="-1.30233333">
        <ele>1141.0</ele>
        <time>2019-08-01T10:43:44.003Z</time>
      </trkpt>
      <trkpt lat="43.01699667" lon="-1.30235">
        <ele>1141.0</ele>
        <time>2019-08-01T10:43:45.008Z</time>
      </trkpt>
      <trkpt lat="43.01699167" lon="-1.302365">
        <ele>1140.0</ele>
        <time>2019-08-01T10:43:46.017Z</time>
      </trkpt>
      <trkpt lat="43.016985" lon="-1.30237667">
        <ele>1139.0</ele>
        <time>2019-08-01T10:43:47.024Z</time>
      </trkpt>
      <trkpt lat="43.01698" lon="-1.30239">
        <ele>1139.0</ele>
        <time>2019-08-01T10:43:48.030Z</time>
      </trkpt>
      <trkpt lat="43.01697667" lon="-1.30240167">
        <ele>1139.0</ele>
        <time>2019-08-01T10:43:49.035Z</time>
      </trkpt>
      <trkpt lat="43.01697333" lon="-1.30241333">
        <ele>1138.0</ele>
        <time>2019-08-01T10:43:50.037Z</time>
      </trkpt>
      <trkpt lat="43.01696667" lon="-1.30242833">
        <ele>1138.0</ele>
        <time>2019-08-01T10:43:51.042Z</time>
      </trkpt>
      <trkpt lat="43.01696167" lon="-1.30244">
        <ele>1138.0</ele>
        <time>2019-08-01T10:43:51.922Z</time>
      </trkpt>
      <trkpt lat="43.016955" lon="-1.30245833">
        <ele>1137.0</ele>
        <time>2019-08-01T10:43:52.927Z</time>
      </trkpt>
      <trkpt lat="43.01694833" lon="-1.30247667">
        <ele>1136.0</ele>
        <time>2019-08-01T10:43:53.932Z</time>
      </trkpt>
      <trkpt lat="43.01694333" lon="-1.30249333">
        <ele>1136.0</ele>
        <time>2019-08-01T10:43:54.939Z</time>
      </trkpt>
      <trkpt lat="43.01694" lon="-1.30251167">
        <ele>1136.0</ele>
        <time>2019-08-01T10:43:55.946Z</time>
      </trkpt>
      <trkpt lat="43.016935" lon="-1.30253333">
        <ele>1135.0</ele>
        <time>2019-08-01T10:43:56.951Z</time>
      </trkpt>
      <trkpt lat="43.01693333" lon="-1.30255167">
        <ele>1135.0</ele>
        <time>2019-08-01T10:43:57.957Z</time>
      </trkpt>
      <trkpt lat="43.01692833" lon="-1.30256667">
        <ele>1135.0</ele>
        <time>2019-08-01T10:43:58.962Z</time>
      </trkpt>
      <trkpt lat="43.01692167" lon="-1.30258">
        <ele>1134.0</ele>
        <time>2019-08-01T10:43:59.969Z</time>
      </trkpt>
      <trkpt lat="43.016915" lon="-1.302595">
        <ele>1133.0</ele>
        <time>2019-08-01T10:44:00.975Z</time>
      </trkpt>
      <trkpt lat="43.01690667" lon="-1.30261333">
        <ele>1134.0</ele>
        <time>2019-08-01T10:44:01.981Z</time>
      </trkpt>
      <trkpt lat="43.01690167" lon="-1.30262667">
        <ele>1134.0</ele>
        <time>2019-08-01T10:44:02.988Z</time>
      </trkpt>
      <trkpt lat="43.01689833" lon="-1.30264167">
        <ele>1135.0</ele>
        <time>2019-08-01T10:44:03.992Z</time>
      </trkpt>
      <trkpt lat="43.01689167" lon="-1.30265667">
        <ele>1135.0</ele>
        <time>2019-08-01T10:44:04.997Z</time>
      </trkpt>
      <trkpt lat="43.01688333" lon="-1.30267167">
        <ele>1136.0</ele>
        <time>2019-08-01T10:44:05.999Z</time>
      </trkpt>
      <trkpt lat="43.01687833" lon="-1.30268667">
        <ele>1136.0</ele>
        <time>2019-08-01T10:44:07.006Z</time>
      </trkpt>
      <trkpt lat="43.01686667" lon="-1.30270167">
        <ele>1136.0</ele>
        <time>2019-08-01T10:44:08.014Z</time>
      </trkpt>
      <trkpt lat="43.01685833" lon="-1.30271833">
        <ele>1135.0</ele>
        <time>2019-08-01T10:44:09.019Z</time>
      </trkpt>
      <trkpt lat="43.01685" lon="-1.30274">
        <ele>1134.0</ele>
        <time>2019-08-01T10:44:10.023Z</time>
      </trkpt>
      <trkpt lat="43.01684" lon="-1.302755">
        <ele>1133.0</ele>
        <time>2019-08-01T10:44:11.030Z</time>
      </trkpt>
      <trkpt lat="43.01683" lon="-1.30277333">
        <ele>1134.0</ele>
        <time>2019-08-01T10:44:12.035Z</time>
      </trkpt>
      <trkpt lat="43.01682167" lon="-1.30279">
        <ele>1133.0</ele>
        <time>2019-08-01T10:44:13.040Z</time>
      </trkpt>
      <trkpt lat="43.016815" lon="-1.30280333">
        <ele>1133.0</ele>
        <time>2019-08-01T10:44:13.918Z</time>
      </trkpt>
      <trkpt lat="43.016805" lon="-1.30282">
        <ele>1134.0</ele>
        <time>2019-08-01T10:44:14.925Z</time>
      </trkpt>
      <trkpt lat="43.01679333" lon="-1.30284333">
        <ele>1135.0</ele>
        <time>2019-08-01T10:44:15.928Z</time>
      </trkpt>
      <trkpt lat="43.01678167" lon="-1.302865">
        <ele>1137.0</ele>
        <time>2019-08-01T10:44:16.933Z</time>
      </trkpt>
      <trkpt lat="43.016775" lon="-1.30288">
        <ele>1138.0</ele>
        <time>2019-08-01T10:44:17.938Z</time>
      </trkpt>
      <trkpt lat="43.01677667" lon="-1.30289333">
        <ele>1140.0</ele>
        <time>2019-08-01T10:44:18.944Z</time>
      </trkpt>
      <trkpt lat="43.01677167" lon="-1.30292167">
        <ele>1141.0</ele>
        <time>2019-08-01T10:44:19.948Z</time>
      </trkpt>
      <trkpt lat="43.01676833" lon="-1.302935">
        <ele>1141.0</ele>
        <time>2019-08-01T10:44:20.953Z</time>
      </trkpt>
      <trkpt lat="43.01676667" lon="-1.302955">
        <ele>1141.0</ele>
        <time>2019-08-01T10:44:21.957Z</time>
      </trkpt>
      <trkpt lat="43.01676" lon="-1.30297167">
        <ele>1141.0</ele>
        <time>2019-08-01T10:44:22.963Z</time>
      </trkpt>
      <trkpt lat="43.01675667" lon="-1.30299333">
        <ele>1141.0</ele>
        <time>2019-08-01T10:44:23.969Z</time>
      </trkpt>
      <trkpt lat="43.01675167" lon="-1.30301333">
        <ele>1140.0</ele>
        <time>2019-08-01T10:44:24.974Z</time>
      </trkpt>
      <trkpt lat="43.016745" lon="-1.30303333">
        <ele>1139.0</ele>
        <time>2019-08-01T10:44:25.980Z</time>
      </trkpt>
      <trkpt lat="43.01674167" lon="-1.30304667">
        <ele>1139.0</ele>
        <time>2019-08-01T10:44:26.985Z</time>
      </trkpt>
      <trkpt lat="43.01673667" lon="-1.30305833">
        <ele>1138.0</ele>
        <time>2019-08-01T10:44:27.990Z</time>
      </trkpt>
      <trkpt lat="43.016735" lon="-1.30307167">
        <ele>1138.0</ele>
        <time>2019-08-01T10:44:28.996Z</time>
      </trkpt>
      <trkpt lat="43.01673167" lon="-1.303085">
        <ele>1138.0</ele>
        <time>2019-08-01T10:44:30.001Z</time>
      </trkpt>
      <trkpt lat="43.01673" lon="-1.30309833">
        <ele>1138.0</ele>
        <time>2019-08-01T10:44:31.008Z</time>
      </trkpt>
      <trkpt lat="43.01672833" lon="-1.303115">
        <ele>1138.0</ele>
        <time>2019-08-01T10:44:32.015Z</time>
      </trkpt>
      <trkpt lat="43.01672167" lon="-1.303135">
        <ele>1139.0</ele>
        <time>2019-08-01T10:44:33.020Z</time>
      </trkpt>
      <trkpt lat="43.01671167" lon="-1.30315167">
        <ele>1139.0</ele>
        <time>2019-08-01T10:44:34.029Z</time>
      </trkpt>
      <trkpt lat="43.01670833" lon="-1.30317">
        <ele>1139.0</ele>
        <time>2019-08-01T10:44:35.034Z</time>
      </trkpt>
      <trkpt lat="43.016705" lon="-1.30318667">
        <ele>1139.0</ele>
        <time>2019-08-01T10:44:36.040Z</time>
      </trkpt>
      <trkpt lat="43.01670167" lon="-1.30319833">
        <ele>1139.0</ele>
        <time>2019-08-01T10:44:36.919Z</time>
      </trkpt>
      <trkpt lat="43.01669667" lon="-1.30321167">
        <ele>1138.0</ele>
        <time>2019-08-01T10:44:37.924Z</time>
      </trkpt>
      <trkpt lat="43.01669" lon="-1.30322667">
        <ele>1138.0</ele>
        <time>2019-08-01T10:44:38.929Z</time>
      </trkpt>
      <trkpt lat="43.01668333" lon="-1.303245">
        <ele>1139.0</ele>
        <time>2019-08-01T10:44:39.935Z</time>
      </trkpt>
      <trkpt lat="43.016675" lon="-1.30326">
        <ele>1141.0</ele>
        <time>2019-08-01T10:44:40.941Z</time>
      </trkpt>
      <trkpt lat="43.01666667" lon="-1.303275">
        <ele>1142.0</ele>
        <time>2019-08-01T10:44:41.947Z</time>
      </trkpt>
      <trkpt lat="43.01665833" lon="-1.303285">
        <ele>1142.0</ele>
        <time>2019-08-01T10:44:42.951Z</time>
      </trkpt>
      <trkpt lat="43.01665167" lon="-1.30329833">
        <ele>1142.0</ele>
        <time>2019-08-01T10:44:43.957Z</time>
      </trkpt>
      <trkpt lat="43.016645" lon="-1.30331333">
        <ele>1142.0</ele>
        <time>2019-08-01T10:44:44.963Z</time>
      </trkpt>
      <trkpt lat="43.01664333" lon="-1.30333167">
        <ele>1142.0</ele>
        <time>2019-08-01T10:44:45.968Z</time>
      </trkpt>
      <trkpt lat="43.01663167" lon="-1.303355">
        <ele>1141.0</ele>
        <time>2019-08-01T10:44:46.972Z</time>
      </trkpt>
      <trkpt lat="43.01662667" lon="-1.30338">
        <ele>1139.0</ele>
        <time>2019-08-01T10:44:47.977Z</time>
      </trkpt>
      <trkpt lat="43.016625" lon="-1.30339667">
        <ele>1139.0</ele>
        <time>2019-08-01T10:44:48.983Z</time>
      </trkpt>
      <trkpt lat="43.01662167" lon="-1.30341333">
        <ele>1140.0</ele>
        <time>2019-08-01T10:44:49.990Z</time>
      </trkpt>
      <trkpt lat="43.01661333" lon="-1.30343167">
        <ele>1141.0</ele>
        <time>2019-08-01T10:44:50.996Z</time>
      </trkpt>
      <trkpt lat="43.01660333" lon="-1.30345167">
        <ele>1141.0</ele>
        <time>2019-08-01T10:44:52.003Z</time>
      </trkpt>
      <trkpt lat="43.01659167" lon="-1.30346833">
        <ele>1142.0</ele>
        <time>2019-08-01T10:44:53.010Z</time>
      </trkpt>
      <trkpt lat="43.01658667" lon="-1.30348167">
        <ele>1141.0</ele>
        <time>2019-08-01T10:44:54.016Z</time>
      </trkpt>
      <trkpt lat="43.01657833" lon="-1.30349333">
        <ele>1142.0</ele>
        <time>2019-08-01T10:44:55.020Z</time>
      </trkpt>
      <trkpt lat="43.01657" lon="-1.30350667">
        <ele>1143.0</ele>
        <time>2019-08-01T10:44:56.025Z</time>
      </trkpt>
      <trkpt lat="43.01655833" lon="-1.30352">
        <ele>1143.0</ele>
        <time>2019-08-01T10:44:57.032Z</time>
      </trkpt>
      <trkpt lat="43.01655833" lon="-1.30354">
        <ele>1143.0</ele>
        <time>2019-08-01T10:44:58.037Z</time>
      </trkpt>
      <trkpt lat="43.01655833" lon="-1.30357">
        <ele>1143.0</ele>
        <time>2019-08-01T10:44:59.041Z</time>
      </trkpt>
      <trkpt lat="43.01655333" lon="-1.303595">
        <ele>1142.0</ele>
        <time>2019-08-01T10:44:59.925Z</time>
      </trkpt>
      <trkpt lat="43.016555" lon="-1.30362">
        <ele>1141.0</ele>
        <time>2019-08-01T10:45:00.931Z</time>
      </trkpt>
      <trkpt lat="43.01656" lon="-1.30364667">
        <ele>1140.0</ele>
        <time>2019-08-01T10:45:01.938Z</time>
      </trkpt>
      <trkpt lat="43.01656333" lon="-1.30366167">
        <ele>1140.0</ele>
        <time>2019-08-01T10:45:02.944Z</time>
      </trkpt>
      <trkpt lat="43.01656333" lon="-1.30368">
        <ele>1139.0</ele>
        <time>2019-08-01T10:45:03.949Z</time>
      </trkpt>
      <trkpt lat="43.01656" lon="-1.303695">
        <ele>1139.0</ele>
        <time>2019-08-01T10:45:04.952Z</time>
      </trkpt>
      <trkpt lat="43.01655333" lon="-1.30371">
        <ele>1139.0</ele>
        <time>2019-08-01T10:45:05.955Z</time>
      </trkpt>
      <trkpt lat="43.01654833" lon="-1.30371833">
        <ele>1139.0</ele>
        <time>2019-08-01T10:45:06.961Z</time>
      </trkpt>
      <trkpt lat="43.01654" lon="-1.30372833">
        <ele>1139.0</ele>
        <time>2019-08-01T10:45:07.966Z</time>
      </trkpt>
      <trkpt lat="43.01653667" lon="-1.303745">
        <ele>1139.0</ele>
        <time>2019-08-01T10:45:08.971Z</time>
      </trkpt>
      <trkpt lat="43.01653333" lon="-1.30376333">
        <ele>1139.0</ele>
        <time>2019-08-01T10:45:09.978Z</time>
      </trkpt>
      <trkpt lat="43.01652667" lon="-1.30378">
        <ele>1139.0</ele>
        <time>2019-08-01T10:45:10.982Z</time>
      </trkpt>
      <trkpt lat="43.01652333" lon="-1.3038">
        <ele>1138.0</ele>
        <time>2019-08-01T10:45:11.985Z</time>
      </trkpt>
      <trkpt lat="43.01652" lon="-1.30381333">
        <ele>1138.0</ele>
        <time>2019-08-01T10:45:12.991Z</time>
      </trkpt>
      <trkpt lat="43.01651667" lon="-1.30382833">
        <ele>1138.0</ele>
        <time>2019-08-01T10:45:13.999Z</time>
      </trkpt>
      <trkpt lat="43.01651" lon="-1.30384667">
        <ele>1138.0</ele>
        <time>2019-08-01T10:45:15.006Z</time>
      </trkpt>
      <trkpt lat="43.016505" lon="-1.30386">
        <ele>1137.0</ele>
        <time>2019-08-01T10:45:16.009Z</time>
      </trkpt>
      <trkpt lat="43.01650167" lon="-1.30387667">
        <ele>1137.0</ele>
        <time>2019-08-01T10:45:17.018Z</time>
      </trkpt>
      <trkpt lat="43.01649667" lon="-1.30389333">
        <ele>1137.0</ele>
        <time>2019-08-01T10:45:18.024Z</time>
      </trkpt>
      <trkpt lat="43.01649167" lon="-1.30390667">
        <ele>1137.0</ele>
        <time>2019-08-01T10:45:19.031Z</time>
      </trkpt>
      <trkpt lat="43.01648667" lon="-1.303925">
        <ele>1137.0</ele>
        <time>2019-08-01T10:45:20.034Z</time>
      </trkpt>
      <trkpt lat="43.01648333" lon="-1.30394167">
        <ele>1138.0</ele>
        <time>2019-08-01T10:45:21.039Z</time>
      </trkpt>
      <trkpt lat="43.01648167" lon="-1.30396">
        <ele>1138.0</ele>
        <time>2019-08-01T10:45:21.918Z</time>
      </trkpt>
      <trkpt lat="43.01647667" lon="-1.303975">
        <ele>1138.0</ele>
        <time>2019-08-01T10:45:22.926Z</time>
      </trkpt>
      <trkpt lat="43.01647" lon="-1.30398833">
        <ele>1137.0</ele>
        <time>2019-08-01T10:45:23.933Z</time>
      </trkpt>
      <trkpt lat="43.016465" lon="-1.304">
        <ele>1137.0</ele>
        <time>2019-08-01T10:45:24.940Z</time>
      </trkpt>
      <trkpt lat="43.01645833" lon="-1.30401167">
        <ele>1137.0</ele>
        <time>2019-08-01T10:45:25.945Z</time>
      </trkpt>
      <trkpt lat="43.01645167" lon="-1.304025">
        <ele>1137.0</ele>
        <time>2019-08-01T10:45:26.952Z</time>
      </trkpt>
      <trkpt lat="43.016445" lon="-1.30404333">
        <ele>1138.0</ele>
        <time>2019-08-01T10:45:27.957Z</time>
      </trkpt>
      <trkpt lat="43.01643833" lon="-1.30405833">
        <ele>1138.0</ele>
        <time>2019-08-01T10:45:28.962Z</time>
      </trkpt>
      <trkpt lat="43.016435" lon="-1.30407667">
        <ele>1138.0</ele>
        <time>2019-08-01T10:45:29.967Z</time>
      </trkpt>
      <trkpt lat="43.01642667" lon="-1.30409167">
        <ele>1138.0</ele>
        <time>2019-08-01T10:45:30.970Z</time>
      </trkpt>
      <trkpt lat="43.01642" lon="-1.304105">
        <ele>1138.0</ele>
        <time>2019-08-01T10:45:31.977Z</time>
      </trkpt>
      <trkpt lat="43.01641333" lon="-1.304125">
        <ele>1137.0</ele>
        <time>2019-08-01T10:45:32.984Z</time>
      </trkpt>
      <trkpt lat="43.01640333" lon="-1.304145">
        <ele>1136.0</ele>
        <time>2019-08-01T10:45:33.988Z</time>
      </trkpt>
      <trkpt lat="43.01639667" lon="-1.304165">
        <ele>1136.0</ele>
        <time>2019-08-01T10:45:34.990Z</time>
      </trkpt>
      <trkpt lat="43.01639167" lon="-1.304175">
        <ele>1135.0</ele>
        <time>2019-08-01T10:45:35.994Z</time>
      </trkpt>
      <trkpt lat="43.01638667" lon="-1.30418667">
        <ele>1135.0</ele>
        <time>2019-08-01T10:45:37.000Z</time>
      </trkpt>
      <trkpt lat="43.01638" lon="-1.30420167">
        <ele>1136.0</ele>
        <time>2019-08-01T10:45:38.007Z</time>
      </trkpt>
      <trkpt lat="43.01637167" lon="-1.30421667">
        <ele>1136.0</ele>
        <time>2019-08-01T10:45:39.013Z</time>
      </trkpt>
      <trkpt lat="43.016365" lon="-1.30423">
        <ele>1137.0</ele>
        <time>2019-08-01T10:45:40.019Z</time>
      </trkpt>
      <trkpt lat="43.01636167" lon="-1.30424167">
        <ele>1138.0</ele>
        <time>2019-08-01T10:45:41.024Z</time>
      </trkpt>
      <trkpt lat="43.01636" lon="-1.30426">
        <ele>1138.0</ele>
        <time>2019-08-01T10:45:42.028Z</time>
      </trkpt>
      <trkpt lat="43.016355" lon="-1.304275">
        <ele>1138.0</ele>
        <time>2019-08-01T10:45:43.031Z</time>
      </trkpt>
      <trkpt lat="43.01634833" lon="-1.30428333">
        <ele>1138.0</ele>
        <time>2019-08-01T10:45:44.036Z</time>
      </trkpt>
      <trkpt lat="43.01634167" lon="-1.30429667">
        <ele>1139.0</ele>
        <time>2019-08-01T10:45:45.042Z</time>
      </trkpt>
      <trkpt lat="43.016335" lon="-1.30430833">
        <ele>1139.0</ele>
        <time>2019-08-01T10:45:45.922Z</time>
      </trkpt>
      <trkpt lat="43.01633" lon="-1.30432167">
        <ele>1139.0</ele>
        <time>2019-08-01T10:45:46.929Z</time>
      </trkpt>
      <trkpt lat="43.01632333" lon="-1.30433667">
        <ele>1140.0</ele>
        <time>2019-08-01T10:45:47.937Z</time>
      </trkpt>
      <trkpt lat="43.01632167" lon="-1.30435333">
        <ele>1140.0</ele>
        <time>2019-08-01T10:45:48.942Z</time>
      </trkpt>
      <trkpt lat="43.01631667" lon="-1.30436833">
        <ele>1140.0</ele>
        <time>2019-08-01T10:45:49.948Z</time>
      </trkpt>
      <trkpt lat="43.01631333" lon="-1.30438333">
        <ele>1140.0</ele>
        <time>2019-08-01T10:45:50.954Z</time>
      </trkpt>
      <trkpt lat="43.01630833" lon="-1.30439833">
        <ele>1141.0</ele>
        <time>2019-08-01T10:45:51.960Z</time>
      </trkpt>
      <trkpt lat="43.01630667" lon="-1.30441">
        <ele>1141.0</ele>
        <time>2019-08-01T10:45:52.966Z</time>
      </trkpt>
      <trkpt lat="43.01630833" lon="-1.30442167">
        <ele>1141.0</ele>
        <time>2019-08-01T10:45:53.971Z</time>
      </trkpt>
      <trkpt lat="43.01630833" lon="-1.304435">
        <ele>1140.0</ele>
        <time>2019-08-01T10:45:54.978Z</time>
      </trkpt>
      <trkpt lat="43.01630333" lon="-1.30444333">
        <ele>1140.0</ele>
        <time>2019-08-01T10:45:55.984Z</time>
      </trkpt>
      <trkpt lat="43.01629833" lon="-1.30445167">
        <ele>1140.0</ele>
        <time>2019-08-01T10:45:56.989Z</time>
      </trkpt>
      <trkpt lat="43.01629167" lon="-1.30446667">
        <ele>1140.0</ele>
        <time>2019-08-01T10:45:57.991Z</time>
      </trkpt>
      <trkpt lat="43.016285" lon="-1.30448">
        <ele>1140.0</ele>
        <time>2019-08-01T10:45:58.997Z</time>
      </trkpt>
      <trkpt lat="43.01627667" lon="-1.30449">
        <ele>1141.0</ele>
        <time>2019-08-01T10:46:00.003Z</time>
      </trkpt>
      <trkpt lat="43.01627167" lon="-1.3045">
        <ele>1141.0</ele>
        <time>2019-08-01T10:46:01.010Z</time>
      </trkpt>
      <trkpt lat="43.01626167" lon="-1.30451333">
        <ele>1142.0</ele>
        <time>2019-08-01T10:46:02.015Z</time>
      </trkpt>
      <trkpt lat="43.01625333" lon="-1.30452167">
        <ele>1142.0</ele>
        <time>2019-08-01T10:46:03.022Z</time>
      </trkpt>
      <trkpt lat="43.01624333" lon="-1.30452833">
        <ele>1142.0</ele>
        <time>2019-08-01T10:46:04.028Z</time>
      </trkpt>
      <trkpt lat="43.016235" lon="-1.304535">
        <ele>1142.0</ele>
        <time>2019-08-01T10:46:05.033Z</time>
      </trkpt>
      <trkpt lat="43.01622667" lon="-1.30454167">
        <ele>1142.0</ele>
        <time>2019-08-01T10:46:06.039Z</time>
      </trkpt>
      <trkpt lat="43.016215" lon="-1.30455333">
        <ele>1142.0</ele>
        <time>2019-08-01T10:46:06.918Z</time>
      </trkpt>
      <trkpt lat="43.01620833" lon="-1.30456667">
        <ele>1142.0</ele>
        <time>2019-08-01T10:46:07.923Z</time>
      </trkpt>
      <trkpt lat="43.01619833" lon="-1.30457833">
        <ele>1142.0</ele>
        <time>2019-08-01T10:46:08.930Z</time>
      </trkpt>
      <trkpt lat="43.01619" lon="-1.30458833">
        <ele>1142.0</ele>
        <time>2019-08-01T10:46:09.935Z</time>
      </trkpt>
      <trkpt lat="43.01618" lon="-1.3046">
        <ele>1142.0</ele>
        <time>2019-08-01T10:46:10.940Z</time>
      </trkpt>
      <trkpt lat="43.01617" lon="-1.30461">
        <ele>1142.0</ele>
        <time>2019-08-01T10:46:11.944Z</time>
      </trkpt>
      <trkpt lat="43.01616" lon="-1.30461833">
        <ele>1142.0</ele>
        <time>2019-08-01T10:46:12.948Z</time>
      </trkpt>
      <trkpt lat="43.01615" lon="-1.304625">
        <ele>1142.0</ele>
        <time>2019-08-01T10:46:13.954Z</time>
      </trkpt>
      <trkpt lat="43.01613833" lon="-1.30463667">
        <ele>1143.0</ele>
        <time>2019-08-01T10:46:14.959Z</time>
      </trkpt>
      <trkpt lat="43.01613" lon="-1.30464667">
        <ele>1144.0</ele>
        <time>2019-08-01T10:46:15.964Z</time>
      </trkpt>
      <trkpt lat="43.01612167" lon="-1.30465667">
        <ele>1144.0</ele>
        <time>2019-08-01T10:46:16.971Z</time>
      </trkpt>
      <trkpt lat="43.01611667" lon="-1.30466667">
        <ele>1144.0</ele>
        <time>2019-08-01T10:46:17.975Z</time>
      </trkpt>
      <trkpt lat="43.01610833" lon="-1.30467833">
        <ele>1145.0</ele>
        <time>2019-08-01T10:46:18.981Z</time>
      </trkpt>
      <trkpt lat="43.01610167" lon="-1.30469167">
        <ele>1145.0</ele>
        <time>2019-08-01T10:46:19.986Z</time>
      </trkpt>
      <trkpt lat="43.01609333" lon="-1.30470333">
        <ele>1145.0</ele>
        <time>2019-08-01T10:46:20.990Z</time>
      </trkpt>
      <trkpt lat="43.01608333" lon="-1.304715">
        <ele>1145.0</ele>
        <time>2019-08-01T10:46:21.995Z</time>
      </trkpt>
      <trkpt lat="43.016075" lon="-1.30472667">
        <ele>1145.0</ele>
        <time>2019-08-01T10:46:23.002Z</time>
      </trkpt>
      <trkpt lat="43.01607167" lon="-1.304735">
        <ele>1145.0</ele>
        <time>2019-08-01T10:46:24.008Z</time>
      </trkpt>
      <trkpt lat="43.016065" lon="-1.30474667">
        <ele>1145.0</ele>
        <time>2019-08-01T10:46:25.015Z</time>
      </trkpt>
      <trkpt lat="43.01605667" lon="-1.304755">
        <ele>1145.0</ele>
        <time>2019-08-01T10:46:26.018Z</time>
      </trkpt>
      <trkpt lat="43.01605167" lon="-1.30476333">
        <ele>1145.0</ele>
        <time>2019-08-01T10:46:27.025Z</time>
      </trkpt>
      <trkpt lat="43.016045" lon="-1.30477167">
        <ele>1145.0</ele>
        <time>2019-08-01T10:46:28.031Z</time>
      </trkpt>
      <trkpt lat="43.01603667" lon="-1.30478">
        <ele>1146.0</ele>
        <time>2019-08-01T10:46:29.038Z</time>
      </trkpt>
      <trkpt lat="43.01602667" lon="-1.30478833">
        <ele>1147.0</ele>
        <time>2019-08-01T10:46:29.920Z</time>
      </trkpt>
      <trkpt lat="43.01601667" lon="-1.30479333">
        <ele>1147.0</ele>
        <time>2019-08-01T10:46:30.927Z</time>
      </trkpt>
      <trkpt lat="43.01600333" lon="-1.30480333">
        <ele>1147.0</ele>
        <time>2019-08-01T10:46:31.933Z</time>
      </trkpt>
      <trkpt lat="43.01599167" lon="-1.30481333">
        <ele>1147.0</ele>
        <time>2019-08-01T10:46:32.939Z</time>
      </trkpt>
      <trkpt lat="43.01598" lon="-1.30482167">
        <ele>1147.0</ele>
        <time>2019-08-01T10:46:33.946Z</time>
      </trkpt>
      <trkpt lat="43.01597" lon="-1.304835">
        <ele>1147.0</ele>
        <time>2019-08-01T10:46:34.951Z</time>
      </trkpt>
      <trkpt lat="43.01595833" lon="-1.30484333">
        <ele>1148.0</ele>
        <time>2019-08-01T10:46:35.957Z</time>
      </trkpt>
      <trkpt lat="43.01594667" lon="-1.30485167">
        <ele>1149.0</ele>
        <time>2019-08-01T10:46:36.962Z</time>
      </trkpt>
      <trkpt lat="43.01593667" lon="-1.30486167">
        <ele>1149.0</ele>
        <time>2019-08-01T10:46:37.970Z</time>
      </trkpt>
      <trkpt lat="43.015925" lon="-1.30487333">
        <ele>1149.0</ele>
        <time>2019-08-01T10:46:38.975Z</time>
      </trkpt>
      <trkpt lat="43.015915" lon="-1.30488167">
        <ele>1149.0</ele>
        <time>2019-08-01T10:46:39.983Z</time>
      </trkpt>
      <trkpt lat="43.01590333" lon="-1.30489167">
        <ele>1149.0</ele>
        <time>2019-08-01T10:46:40.988Z</time>
      </trkpt>
      <trkpt lat="43.01589167" lon="-1.30489833">
        <ele>1149.0</ele>
        <time>2019-08-01T10:46:41.991Z</time>
      </trkpt>
      <trkpt lat="43.01588167" lon="-1.30490833">
        <ele>1150.0</ele>
        <time>2019-08-01T10:46:42.998Z</time>
      </trkpt>
      <trkpt lat="43.01587" lon="-1.30492">
        <ele>1150.0</ele>
        <time>2019-08-01T10:46:44.005Z</time>
      </trkpt>
      <trkpt lat="43.01586167" lon="-1.30493167">
        <ele>1150.0</ele>
        <time>2019-08-01T10:46:45.011Z</time>
      </trkpt>
      <trkpt lat="43.01585333" lon="-1.304945">
        <ele>1150.0</ele>
        <time>2019-08-01T10:46:46.017Z</time>
      </trkpt>
      <trkpt lat="43.01584667" lon="-1.30496">
        <ele>1150.0</ele>
        <time>2019-08-01T10:46:47.024Z</time>
      </trkpt>
      <trkpt lat="43.01583833" lon="-1.30497167">
        <ele>1150.0</ele>
        <time>2019-08-01T10:46:48.031Z</time>
      </trkpt>
      <trkpt lat="43.01582667" lon="-1.304985">
        <ele>1151.0</ele>
        <time>2019-08-01T10:46:49.037Z</time>
      </trkpt>
      <trkpt lat="43.01581833" lon="-1.30499833">
        <ele>1151.0</ele>
        <time>2019-08-01T10:46:49.919Z</time>
      </trkpt>
      <trkpt lat="43.01581167" lon="-1.30501333">
        <ele>1151.0</ele>
        <time>2019-08-01T10:46:50.925Z</time>
      </trkpt>
      <trkpt lat="43.01580333" lon="-1.30502833">
        <ele>1151.0</ele>
        <time>2019-08-01T10:46:51.929Z</time>
      </trkpt>
      <trkpt lat="43.01579667" lon="-1.305045">
        <ele>1151.0</ele>
        <time>2019-08-01T10:46:52.936Z</time>
      </trkpt>
      <trkpt lat="43.01578833" lon="-1.30505667">
        <ele>1151.0</ele>
        <time>2019-08-01T10:46:53.940Z</time>
      </trkpt>
      <trkpt lat="43.01578" lon="-1.30507">
        <ele>1152.0</ele>
        <time>2019-08-01T10:46:54.947Z</time>
      </trkpt>
      <trkpt lat="43.01577167" lon="-1.30509">
        <ele>1152.0</ele>
        <time>2019-08-01T10:46:55.952Z</time>
      </trkpt>
      <trkpt lat="43.015765" lon="-1.30510667">
        <ele>1151.0</ele>
        <time>2019-08-01T10:46:56.959Z</time>
      </trkpt>
      <trkpt lat="43.01576" lon="-1.30512">
        <ele>1151.0</ele>
        <time>2019-08-01T10:46:57.966Z</time>
      </trkpt>
      <trkpt lat="43.015755" lon="-1.30513333">
        <ele>1151.0</ele>
        <time>2019-08-01T10:46:58.972Z</time>
      </trkpt>
      <trkpt lat="43.01575" lon="-1.30515">
        <ele>1150.0</ele>
        <time>2019-08-01T10:46:59.978Z</time>
      </trkpt>
      <trkpt lat="43.01574333" lon="-1.30516667">
        <ele>1150.0</ele>
        <time>2019-08-01T10:47:00.984Z</time>
      </trkpt>
      <trkpt lat="43.01574" lon="-1.30518">
        <ele>1151.0</ele>
        <time>2019-08-01T10:47:01.989Z</time>
      </trkpt>
      <trkpt lat="43.01573167" lon="-1.30519667">
        <ele>1152.0</ele>
        <time>2019-08-01T10:47:02.995Z</time>
      </trkpt>
      <trkpt lat="43.01572833" lon="-1.30521167">
        <ele>1152.0</ele>
        <time>2019-08-01T10:47:04.001Z</time>
      </trkpt>
      <trkpt lat="43.01572333" lon="-1.30523167">
        <ele>1152.0</ele>
        <time>2019-08-01T10:47:05.009Z</time>
      </trkpt>
      <trkpt lat="43.01571833" lon="-1.30525167">
        <ele>1153.0</ele>
        <time>2019-08-01T10:47:06.015Z</time>
      </trkpt>
      <trkpt lat="43.015715" lon="-1.30526833">
        <ele>1153.0</ele>
        <time>2019-08-01T10:47:07.020Z</time>
      </trkpt>
      <trkpt lat="43.01571" lon="-1.305285">
        <ele>1153.0</ele>
        <time>2019-08-01T10:47:08.025Z</time>
      </trkpt>
      <trkpt lat="43.01570667" lon="-1.30530167">
        <ele>1153.0</ele>
        <time>2019-08-01T10:47:09.031Z</time>
      </trkpt>
      <trkpt lat="43.01570333" lon="-1.30531833">
        <ele>1153.0</ele>
        <time>2019-08-01T10:47:10.034Z</time>
      </trkpt>
      <trkpt lat="43.01569667" lon="-1.30533667">
        <ele>1153.0</ele>
        <time>2019-08-01T10:47:11.040Z</time>
      </trkpt>
      <trkpt lat="43.01568833" lon="-1.30535333">
        <ele>1153.0</ele>
        <time>2019-08-01T10:47:11.921Z</time>
      </trkpt>
      <trkpt lat="43.01568167" lon="-1.30537">
        <ele>1153.0</ele>
        <time>2019-08-01T10:47:12.926Z</time>
      </trkpt>
      <trkpt lat="43.01567167" lon="-1.30538667">
        <ele>1153.0</ele>
        <time>2019-08-01T10:47:13.932Z</time>
      </trkpt>
      <trkpt lat="43.015665" lon="-1.3054">
        <ele>1153.0</ele>
        <time>2019-08-01T10:47:14.934Z</time>
      </trkpt>
      <trkpt lat="43.015655" lon="-1.30541333">
        <ele>1154.0</ele>
        <time>2019-08-01T10:47:15.940Z</time>
      </trkpt>
      <trkpt lat="43.01564667" lon="-1.30543167">
        <ele>1155.0</ele>
        <time>2019-08-01T10:47:16.947Z</time>
      </trkpt>
      <trkpt lat="43.01563833" lon="-1.305445">
        <ele>1155.0</ele>
        <time>2019-08-01T10:47:17.953Z</time>
      </trkpt>
      <trkpt lat="43.01563167" lon="-1.30546333">
        <ele>1155.0</ele>
        <time>2019-08-01T10:47:18.960Z</time>
      </trkpt>
      <trkpt lat="43.01562333" lon="-1.30548167">
        <ele>1154.0</ele>
        <time>2019-08-01T10:47:19.966Z</time>
      </trkpt>
      <trkpt lat="43.015615" lon="-1.30549667">
        <ele>1154.0</ele>
        <time>2019-08-01T10:47:20.971Z</time>
      </trkpt>
      <trkpt lat="43.01560667" lon="-1.305515">
        <ele>1154.0</ele>
        <time>2019-08-01T10:47:21.978Z</time>
      </trkpt>
      <trkpt lat="43.0156" lon="-1.30553167">
        <ele>1154.0</ele>
        <time>2019-08-01T10:47:22.985Z</time>
      </trkpt>
      <trkpt lat="43.01559333" lon="-1.30554833">
        <ele>1154.0</ele>
        <time>2019-08-01T10:47:23.990Z</time>
      </trkpt>
      <trkpt lat="43.015585" lon="-1.305565">
        <ele>1155.0</ele>
        <time>2019-08-01T10:47:24.997Z</time>
      </trkpt>
      <trkpt lat="43.01557833" lon="-1.30558167">
        <ele>1155.0</ele>
        <time>2019-08-01T10:47:26.003Z</time>
      </trkpt>
      <trkpt lat="43.01557167" lon="-1.30559333">
        <ele>1155.0</ele>
        <time>2019-08-01T10:47:27.008Z</time>
      </trkpt>
      <trkpt lat="43.015565" lon="-1.30560333">
        <ele>1155.0</ele>
        <time>2019-08-01T10:47:28.014Z</time>
      </trkpt>
      <trkpt lat="43.015555" lon="-1.305615">
        <ele>1155.0</ele>
        <time>2019-08-01T10:47:29.019Z</time>
      </trkpt>
      <trkpt lat="43.01554667" lon="-1.30563">
        <ele>1155.0</ele>
        <time>2019-08-01T10:47:30.027Z</time>
      </trkpt>
      <trkpt lat="43.01553333" lon="-1.305645">
        <ele>1155.0</ele>
        <time>2019-08-01T10:47:31.031Z</time>
      </trkpt>
      <trkpt lat="43.01552333" lon="-1.30566">
        <ele>1154.0</ele>
        <time>2019-08-01T10:47:32.037Z</time>
      </trkpt>
      <trkpt lat="43.01551333" lon="-1.30567833">
        <ele>1154.0</ele>
        <time>2019-08-01T10:47:32.918Z</time>
      </trkpt>
      <trkpt lat="43.01550667" lon="-1.305695">
        <ele>1154.0</ele>
        <time>2019-08-01T10:47:33.925Z</time>
      </trkpt>
      <trkpt lat="43.0155" lon="-1.30570833">
        <ele>1155.0</ele>
        <time>2019-08-01T10:47:34.930Z</time>
      </trkpt>
      <trkpt lat="43.01549333" lon="-1.305725">
        <ele>1154.0</ele>
        <time>2019-08-01T10:47:35.936Z</time>
      </trkpt>
      <trkpt lat="43.01548667" lon="-1.30574167">
        <ele>1154.0</ele>
        <time>2019-08-01T10:47:36.943Z</time>
      </trkpt>
      <trkpt lat="43.01548167" lon="-1.30576167">
        <ele>1154.0</ele>
        <time>2019-08-01T10:47:37.948Z</time>
      </trkpt>
      <trkpt lat="43.01548167" lon="-1.30578">
        <ele>1155.0</ele>
        <time>2019-08-01T10:47:38.952Z</time>
      </trkpt>
      <trkpt lat="43.01547833" lon="-1.30579667">
        <ele>1155.0</ele>
        <time>2019-08-01T10:47:39.959Z</time>
      </trkpt>
      <trkpt lat="43.01547333" lon="-1.30581333">
        <ele>1155.0</ele>
        <time>2019-08-01T10:47:40.963Z</time>
      </trkpt>
      <trkpt lat="43.01546833" lon="-1.30583">
        <ele>1155.0</ele>
        <time>2019-08-01T10:47:41.969Z</time>
      </trkpt>
      <trkpt lat="43.01546167" lon="-1.30584833">
        <ele>1155.0</ele>
        <time>2019-08-01T10:47:42.975Z</time>
      </trkpt>
      <trkpt lat="43.01545333" lon="-1.305865">
        <ele>1156.0</ele>
        <time>2019-08-01T10:47:43.981Z</time>
      </trkpt>
      <trkpt lat="43.01544167" lon="-1.30587833">
        <ele>1156.0</ele>
        <time>2019-08-01T10:47:44.989Z</time>
      </trkpt>
      <trkpt lat="43.01543167" lon="-1.30589167">
        <ele>1157.0</ele>
        <time>2019-08-01T10:47:45.994Z</time>
      </trkpt>
      <trkpt lat="43.01542" lon="-1.30590667">
        <ele>1157.0</ele>
        <time>2019-08-01T10:47:46.999Z</time>
      </trkpt>
      <trkpt lat="43.01540833" lon="-1.30591667">
        <ele>1157.0</ele>
        <time>2019-08-01T10:47:48.007Z</time>
      </trkpt>
      <trkpt lat="43.01539833" lon="-1.30593333">
        <ele>1157.0</ele>
        <time>2019-08-01T10:47:49.012Z</time>
      </trkpt>
      <trkpt lat="43.01538667" lon="-1.305955">
        <ele>1157.0</ele>
        <time>2019-08-01T10:47:50.020Z</time>
      </trkpt>
      <trkpt lat="43.01538" lon="-1.30597167">
        <ele>1157.0</ele>
        <time>2019-08-01T10:47:51.027Z</time>
      </trkpt>
      <trkpt lat="43.01537167" lon="-1.30598833">
        <ele>1157.0</ele>
        <time>2019-08-01T10:47:52.031Z</time>
      </trkpt>
      <trkpt lat="43.01536333" lon="-1.306">
        <ele>1157.0</ele>
        <time>2019-08-01T10:47:53.038Z</time>
      </trkpt>
      <trkpt lat="43.01535333" lon="-1.30601833">
        <ele>1157.0</ele>
        <time>2019-08-01T10:47:54.043Z</time>
      </trkpt>
      <trkpt lat="43.01534167" lon="-1.306035">
        <ele>1157.0</ele>
        <time>2019-08-01T10:47:54.922Z</time>
      </trkpt>
      <trkpt lat="43.01533" lon="-1.30604667">
        <ele>1157.0</ele>
        <time>2019-08-01T10:47:55.930Z</time>
      </trkpt>
      <trkpt lat="43.01532" lon="-1.30606167">
        <ele>1157.0</ele>
        <time>2019-08-01T10:47:56.936Z</time>
      </trkpt>
      <trkpt lat="43.01530333" lon="-1.30607667">
        <ele>1157.0</ele>
        <time>2019-08-01T10:47:57.943Z</time>
      </trkpt>
      <trkpt lat="43.01528667" lon="-1.30608833">
        <ele>1157.0</ele>
        <time>2019-08-01T10:47:58.949Z</time>
      </trkpt>
      <trkpt lat="43.01527333" lon="-1.30610167">
        <ele>1157.0</ele>
        <time>2019-08-01T10:47:59.954Z</time>
      </trkpt>
      <trkpt lat="43.01526167" lon="-1.30610833">
        <ele>1156.0</ele>
        <time>2019-08-01T10:48:00.958Z</time>
      </trkpt>
      <trkpt lat="43.01525333" lon="-1.30612167">
        <ele>1155.0</ele>
        <time>2019-08-01T10:48:01.963Z</time>
      </trkpt>
      <trkpt lat="43.01524333" lon="-1.30614333">
        <ele>1154.0</ele>
        <time>2019-08-01T10:48:02.969Z</time>
      </trkpt>
      <trkpt lat="43.01523667" lon="-1.30616167">
        <ele>1154.0</ele>
        <time>2019-08-01T10:48:03.975Z</time>
      </trkpt>
      <trkpt lat="43.015225" lon="-1.30617833">
        <ele>1154.0</ele>
        <time>2019-08-01T10:48:04.980Z</time>
      </trkpt>
      <trkpt lat="43.01521667" lon="-1.30619333">
        <ele>1154.0</ele>
        <time>2019-08-01T10:48:05.985Z</time>
      </trkpt>
      <trkpt lat="43.01520667" lon="-1.30621333">
        <ele>1154.0</ele>
        <time>2019-08-01T10:48:06.990Z</time>
      </trkpt>
      <trkpt lat="43.01520333" lon="-1.30622667">
        <ele>1154.0</ele>
        <time>2019-08-01T10:48:07.995Z</time>
      </trkpt>
      <trkpt lat="43.0152" lon="-1.30624">
        <ele>1154.0</ele>
        <time>2019-08-01T10:48:09.001Z</time>
      </trkpt>
      <trkpt lat="43.01519333" lon="-1.30625333">
        <ele>1153.0</ele>
        <time>2019-08-01T10:48:10.009Z</time>
      </trkpt>
      <trkpt lat="43.015185" lon="-1.30626667">
        <ele>1153.0</ele>
        <time>2019-08-01T10:48:11.016Z</time>
      </trkpt>
      <trkpt lat="43.01517667" lon="-1.30627833">
        <ele>1153.0</ele>
        <time>2019-08-01T10:48:12.024Z</time>
      </trkpt>
      <trkpt lat="43.01516833" lon="-1.30628833">
        <ele>1153.0</ele>
        <time>2019-08-01T10:48:13.030Z</time>
      </trkpt>
      <trkpt lat="43.01515833" lon="-1.30629833">
        <ele>1153.0</ele>
        <time>2019-08-01T10:48:14.036Z</time>
      </trkpt>
      <trkpt lat="43.01514833" lon="-1.30630833">
        <ele>1153.0</ele>
        <time>2019-08-01T10:48:15.043Z</time>
      </trkpt>
      <trkpt lat="43.01514" lon="-1.30632">
        <ele>1153.0</ele>
        <time>2019-08-01T10:48:15.924Z</time>
      </trkpt>
      <trkpt lat="43.01513333" lon="-1.30633167">
        <ele>1153.0</ele>
        <time>2019-08-01T10:48:16.931Z</time>
      </trkpt>
      <trkpt lat="43.01513" lon="-1.30634667">
        <ele>1154.0</ele>
        <time>2019-08-01T10:48:17.936Z</time>
      </trkpt>
      <trkpt lat="43.015125" lon="-1.30636333">
        <ele>1154.0</ele>
        <time>2019-08-01T10:48:18.943Z</time>
      </trkpt>
      <trkpt lat="43.01512167" lon="-1.30638">
        <ele>1154.0</ele>
        <time>2019-08-01T10:48:19.947Z</time>
      </trkpt>
      <trkpt lat="43.01511833" lon="-1.30640167">
        <ele>1154.0</ele>
        <time>2019-08-01T10:48:20.952Z</time>
      </trkpt>
      <trkpt lat="43.01511667" lon="-1.30642">
        <ele>1154.0</ele>
        <time>2019-08-01T10:48:21.959Z</time>
      </trkpt>
      <trkpt lat="43.01511167" lon="-1.30643833">
        <ele>1154.0</ele>
        <time>2019-08-01T10:48:22.964Z</time>
      </trkpt>
      <trkpt lat="43.01510833" lon="-1.30645333">
        <ele>1154.0</ele>
        <time>2019-08-01T10:48:23.968Z</time>
      </trkpt>
      <trkpt lat="43.015105" lon="-1.30647167">
        <ele>1153.0</ele>
        <time>2019-08-01T10:48:24.974Z</time>
      </trkpt>
      <trkpt lat="43.0151" lon="-1.30649167">
        <ele>1152.0</ele>
        <time>2019-08-01T10:48:25.980Z</time>
      </trkpt>
      <trkpt lat="43.01509167" lon="-1.30651">
        <ele>1151.0</ele>
        <time>2019-08-01T10:48:26.987Z</time>
      </trkpt>
      <trkpt lat="43.01508" lon="-1.30652667">
        <ele>1151.0</ele>
        <time>2019-08-01T10:48:27.990Z</time>
      </trkpt>
      <trkpt lat="43.01507" lon="-1.30654167">
        <ele>1151.0</ele>
        <time>2019-08-01T10:48:28.996Z</time>
      </trkpt>
      <trkpt lat="43.01506" lon="-1.30655">
        <ele>1151.0</ele>
        <time>2019-08-01T10:48:30.003Z</time>
      </trkpt>
      <trkpt lat="43.01504833" lon="-1.30655833">
        <ele>1151.0</ele>
        <time>2019-08-01T10:48:31.011Z</time>
      </trkpt>
      <trkpt lat="43.01503833" lon="-1.30656833">
        <ele>1152.0</ele>
        <time>2019-08-01T10:48:32.018Z</time>
      </trkpt>
      <trkpt lat="43.01502333" lon="-1.30658833">
        <ele>1151.0</ele>
        <time>2019-08-01T10:48:33.025Z</time>
      </trkpt>
      <trkpt lat="43.01501167" lon="-1.30660333">
        <ele>1150.0</ele>
        <time>2019-08-01T10:48:34.031Z</time>
      </trkpt>
      <trkpt lat="43.01499833" lon="-1.30661667">
        <ele>1150.0</ele>
        <time>2019-08-01T10:48:35.037Z</time>
      </trkpt>
      <trkpt lat="43.01498667" lon="-1.306635">
        <ele>1150.0</ele>
        <time>2019-08-01T10:48:36.043Z</time>
      </trkpt>
      <trkpt lat="43.01498167" lon="-1.30664833">
        <ele>1151.0</ele>
        <time>2019-08-01T10:48:36.922Z</time>
      </trkpt>
      <trkpt lat="43.01496833" lon="-1.30665833">
        <ele>1151.0</ele>
        <time>2019-08-01T10:48:37.927Z</time>
      </trkpt>
      <trkpt lat="43.01496333" lon="-1.30667333">
        <ele>1151.0</ele>
        <time>2019-08-01T10:48:38.932Z</time>
      </trkpt>
      <trkpt lat="43.01495333" lon="-1.306685">
        <ele>1150.0</ele>
        <time>2019-08-01T10:48:39.938Z</time>
      </trkpt>
      <trkpt lat="43.01494333" lon="-1.30669">
        <ele>1150.0</ele>
        <time>2019-08-01T10:48:40.943Z</time>
      </trkpt>
      <trkpt lat="43.01493167" lon="-1.3067">
        <ele>1150.0</ele>
        <time>2019-08-01T10:48:41.948Z</time>
      </trkpt>
      <trkpt lat="43.01492167" lon="-1.30671167">
        <ele>1150.0</ele>
        <time>2019-08-01T10:48:42.954Z</time>
      </trkpt>
      <trkpt lat="43.01491" lon="-1.30672">
        <ele>1150.0</ele>
        <time>2019-08-01T10:48:43.959Z</time>
      </trkpt>
      <trkpt lat="43.0149" lon="-1.30672833">
        <ele>1150.0</ele>
        <time>2019-08-01T10:48:44.963Z</time>
      </trkpt>
      <trkpt lat="43.01489" lon="-1.30674">
        <ele>1150.0</ele>
        <time>2019-08-01T10:48:45.968Z</time>
      </trkpt>
      <trkpt lat="43.01488" lon="-1.30675167">
        <ele>1150.0</ele>
        <time>2019-08-01T10:48:46.972Z</time>
      </trkpt>
      <trkpt lat="43.01487333" lon="-1.30676667">
        <ele>1149.0</ele>
        <time>2019-08-01T10:48:47.978Z</time>
      </trkpt>
      <trkpt lat="43.01486167" lon="-1.306785">
        <ele>1149.0</ele>
        <time>2019-08-01T10:48:48.985Z</time>
      </trkpt>
      <trkpt lat="43.01485167" lon="-1.3068">
        <ele>1148.0</ele>
        <time>2019-08-01T10:48:49.990Z</time>
      </trkpt>
      <trkpt lat="43.01484167" lon="-1.306815">
        <ele>1148.0</ele>
        <time>2019-08-01T10:48:50.996Z</time>
      </trkpt>
      <trkpt lat="43.01483667" lon="-1.30683">
        <ele>1148.0</ele>
        <time>2019-08-01T10:48:52.003Z</time>
      </trkpt>
      <trkpt lat="43.01483333" lon="-1.30684167">
        <ele>1148.0</ele>
        <time>2019-08-01T10:48:53.010Z</time>
      </trkpt>
      <trkpt lat="43.01482833" lon="-1.306855">
        <ele>1148.0</ele>
        <time>2019-08-01T10:48:54.018Z</time>
      </trkpt>
      <trkpt lat="43.01482333" lon="-1.30686833">
        <ele>1149.0</ele>
        <time>2019-08-01T10:48:55.025Z</time>
      </trkpt>
      <trkpt lat="43.014815" lon="-1.30687833">
        <ele>1149.0</ele>
        <time>2019-08-01T10:48:56.031Z</time>
      </trkpt>
      <trkpt lat="43.01480667" lon="-1.30688833">
        <ele>1151.0</ele>
        <time>2019-08-01T10:48:57.035Z</time>
      </trkpt>
      <trkpt lat="43.0148" lon="-1.30689667">
        <ele>1151.0</ele>
        <time>2019-08-01T10:48:58.039Z</time>
      </trkpt>
      <trkpt lat="43.01479167" lon="-1.30691167">
        <ele>1151.0</ele>
        <time>2019-08-01T10:48:59.042Z</time>
      </trkpt>
      <trkpt lat="43.01478" lon="-1.30692333">
        <ele>1151.0</ele>
        <time>2019-08-01T10:48:59.924Z</time>
      </trkpt>
      <trkpt lat="43.01477333" lon="-1.30693167">
        <ele>1151.0</ele>
        <time>2019-08-01T10:49:00.929Z</time>
      </trkpt>
      <trkpt lat="43.01476833" lon="-1.30694">
        <ele>1150.0</ele>
        <time>2019-08-01T10:49:01.934Z</time>
      </trkpt>
      <trkpt lat="43.01476" lon="-1.30695333">
        <ele>1149.0</ele>
        <time>2019-08-01T10:49:02.941Z</time>
      </trkpt>
      <trkpt lat="43.01475" lon="-1.30696833">
        <ele>1148.0</ele>
        <time>2019-08-01T10:49:03.946Z</time>
      </trkpt>
      <trkpt lat="43.01474333" lon="-1.30698333">
        <ele>1148.0</ele>
        <time>2019-08-01T10:49:04.952Z</time>
      </trkpt>
      <trkpt lat="43.01473833" lon="-1.30699667">
        <ele>1149.0</ele>
        <time>2019-08-01T10:49:05.957Z</time>
      </trkpt>
      <trkpt lat="43.01473333" lon="-1.30701167">
        <ele>1149.0</ele>
        <time>2019-08-01T10:49:06.964Z</time>
      </trkpt>
      <trkpt lat="43.01473" lon="-1.30702667">
        <ele>1149.0</ele>
        <time>2019-08-01T10:49:07.970Z</time>
      </trkpt>
      <trkpt lat="43.01472167" lon="-1.30703667">
        <ele>1148.0</ele>
        <time>2019-08-01T10:49:08.975Z</time>
      </trkpt>
      <trkpt lat="43.01471" lon="-1.30704833">
        <ele>1148.0</ele>
        <time>2019-08-01T10:49:09.978Z</time>
      </trkpt>
      <trkpt lat="43.0147" lon="-1.30705667">
        <ele>1148.0</ele>
        <time>2019-08-01T10:49:10.980Z</time>
      </trkpt>
      <trkpt lat="43.01469" lon="-1.30706333">
        <ele>1148.0</ele>
        <time>2019-08-01T10:49:11.986Z</time>
      </trkpt>
      <trkpt lat="43.01468167" lon="-1.30706833">
        <ele>1148.0</ele>
        <time>2019-08-01T10:49:12.991Z</time>
      </trkpt>
      <trkpt lat="43.01467667" lon="-1.30707">
        <ele>1148.0</ele>
        <time>2019-08-01T10:49:13.997Z</time>
      </trkpt>
      <trkpt lat="43.01466667" lon="-1.30707167">
        <ele>1148.0</ele>
        <time>2019-08-01T10:49:15.003Z</time>
      </trkpt>
      <trkpt lat="43.014655" lon="-1.30707833">
        <ele>1147.0</ele>
        <time>2019-08-01T10:49:16.011Z</time>
      </trkpt>
      <trkpt lat="43.01464" lon="-1.30708667">
        <ele>1147.0</ele>
        <time>2019-08-01T10:49:17.018Z</time>
      </trkpt>
      <trkpt lat="43.01463" lon="-1.30709167">
        <ele>1147.0</ele>
        <time>2019-08-01T10:49:18.025Z</time>
      </trkpt>
      <trkpt lat="43.01462" lon="-1.30709333">
        <ele>1147.0</ele>
        <time>2019-08-01T10:49:19.030Z</time>
      </trkpt>
      <trkpt lat="43.01460833" lon="-1.30709833">
        <ele>1148.0</ele>
        <time>2019-08-01T10:49:20.033Z</time>
      </trkpt>
      <trkpt lat="43.01459833" lon="-1.307105">
        <ele>1148.0</ele>
        <time>2019-08-01T10:49:21.041Z</time>
      </trkpt>
      <trkpt lat="43.01458667" lon="-1.30711167">
        <ele>1148.0</ele>
        <time>2019-08-01T10:49:21.923Z</time>
      </trkpt>
      <trkpt lat="43.014575" lon="-1.30711667">
        <ele>1148.0</ele>
        <time>2019-08-01T10:49:22.927Z</time>
      </trkpt>
      <trkpt lat="43.01456333" lon="-1.30712167">
        <ele>1149.0</ele>
        <time>2019-08-01T10:49:23.934Z</time>
      </trkpt>
      <trkpt lat="43.01455333" lon="-1.307125">
        <ele>1149.0</ele>
        <time>2019-08-01T10:49:24.941Z</time>
      </trkpt>
      <trkpt lat="43.01454333" lon="-1.30713167">
        <ele>1149.0</ele>
        <time>2019-08-01T10:49:25.947Z</time>
      </trkpt>
      <trkpt lat="43.01453167" lon="-1.30714">
        <ele>1149.0</ele>
        <time>2019-08-01T10:49:26.950Z</time>
      </trkpt>
      <trkpt lat="43.01452167" lon="-1.30714833">
        <ele>1149.0</ele>
        <time>2019-08-01T10:49:27.956Z</time>
      </trkpt>
      <trkpt lat="43.01451" lon="-1.30715833">
        <ele>1149.0</ele>
        <time>2019-08-01T10:49:28.963Z</time>
      </trkpt>
      <trkpt lat="43.01450167" lon="-1.30716333">
        <ele>1150.0</ele>
        <time>2019-08-01T10:49:29.966Z</time>
      </trkpt>
      <trkpt lat="43.01449167" lon="-1.30716833">
        <ele>1151.0</ele>
        <time>2019-08-01T10:49:30.969Z</time>
      </trkpt>
      <trkpt lat="43.01448333" lon="-1.307175">
        <ele>1151.0</ele>
        <time>2019-08-01T10:49:31.973Z</time>
      </trkpt>
      <trkpt lat="43.014475" lon="-1.30717833">
        <ele>1150.0</ele>
        <time>2019-08-01T10:49:32.981Z</time>
      </trkpt>
      <trkpt lat="43.01446333" lon="-1.30718">
        <ele>1151.0</ele>
        <time>2019-08-01T10:49:33.986Z</time>
      </trkpt>
      <trkpt lat="43.01445" lon="-1.307185">
        <ele>1151.0</ele>
        <time>2019-08-01T10:49:34.990Z</time>
      </trkpt>
      <trkpt lat="43.014435" lon="-1.30719167">
        <ele>1150.0</ele>
        <time>2019-08-01T10:49:35.995Z</time>
      </trkpt>
      <trkpt lat="43.01442333" lon="-1.30719833">
        <ele>1150.0</ele>
        <time>2019-08-01T10:49:37.000Z</time>
      </trkpt>
      <trkpt lat="43.01441" lon="-1.30720667">
        <ele>1149.0</ele>
        <time>2019-08-01T10:49:38.006Z</time>
      </trkpt>
      <trkpt lat="43.0144" lon="-1.30721">
        <ele>1149.0</ele>
        <time>2019-08-01T10:49:39.012Z</time>
      </trkpt>
      <trkpt lat="43.01439" lon="-1.307215">
        <ele>1148.0</ele>
        <time>2019-08-01T10:49:40.017Z</time>
      </trkpt>
      <trkpt lat="43.01437833" lon="-1.30721333">
        <ele>1149.0</ele>
        <time>2019-08-01T10:49:41.024Z</time>
      </trkpt>
      <trkpt lat="43.01436667" lon="-1.30722">
        <ele>1149.0</ele>
        <time>2019-08-01T10:49:42.031Z</time>
      </trkpt>
      <trkpt lat="43.01435667" lon="-1.307225">
        <ele>1149.0</ele>
        <time>2019-08-01T10:49:43.037Z</time>
      </trkpt>
      <trkpt lat="43.01434333" lon="-1.30722667">
        <ele>1148.0</ele>
        <time>2019-08-01T10:49:44.042Z</time>
      </trkpt>
      <trkpt lat="43.01433" lon="-1.307235">
        <ele>1147.0</ele>
        <time>2019-08-01T10:49:44.921Z</time>
      </trkpt>
      <trkpt lat="43.01431167" lon="-1.307245">
        <ele>1146.0</ele>
        <time>2019-08-01T10:49:45.926Z</time>
      </trkpt>
      <trkpt lat="43.01429833" lon="-1.30726">
        <ele>1144.0</ele>
        <time>2019-08-01T10:49:46.934Z</time>
      </trkpt>
      <trkpt lat="43.01428333" lon="-1.307275">
        <ele>1142.0</ele>
        <time>2019-08-01T10:49:47.939Z</time>
      </trkpt>
      <trkpt lat="43.01426833" lon="-1.30728667">
        <ele>1141.0</ele>
        <time>2019-08-01T10:49:48.946Z</time>
      </trkpt>
      <trkpt lat="43.014255" lon="-1.30729167">
        <ele>1141.0</ele>
        <time>2019-08-01T10:49:49.952Z</time>
      </trkpt>
      <trkpt lat="43.01424667" lon="-1.30729167">
        <ele>1141.0</ele>
        <time>2019-08-01T10:49:50.956Z</time>
      </trkpt>
      <trkpt lat="43.01423167" lon="-1.30729667">
        <ele>1141.0</ele>
        <time>2019-08-01T10:49:51.964Z</time>
      </trkpt>
      <trkpt lat="43.01421833" lon="-1.30729833">
        <ele>1142.0</ele>
        <time>2019-08-01T10:49:52.970Z</time>
      </trkpt>
      <trkpt lat="43.01420333" lon="-1.30729833">
        <ele>1143.0</ele>
        <time>2019-08-01T10:49:53.976Z</time>
      </trkpt>
      <trkpt lat="43.01418833" lon="-1.30731">
        <ele>1143.0</ele>
        <time>2019-08-01T10:49:54.984Z</time>
      </trkpt>
      <trkpt lat="43.014175" lon="-1.30731333">
        <ele>1143.0</ele>
        <time>2019-08-01T10:49:55.990Z</time>
      </trkpt>
      <trkpt lat="43.01416667" lon="-1.30731833">
        <ele>1144.0</ele>
        <time>2019-08-01T10:49:56.996Z</time>
      </trkpt>
      <trkpt lat="43.014155" lon="-1.30732167">
        <ele>1144.0</ele>
        <time>2019-08-01T10:49:58.003Z</time>
      </trkpt>
      <trkpt lat="43.01414667" lon="-1.30734">
        <ele>1144.0</ele>
        <time>2019-08-01T10:49:59.009Z</time>
      </trkpt>
      <trkpt lat="43.01413167" lon="-1.307365">
        <ele>1144.0</ele>
        <time>2019-08-01T10:50:00.015Z</time>
      </trkpt>
      <trkpt lat="43.01412667" lon="-1.30738167">
        <ele>1145.0</ele>
        <time>2019-08-01T10:50:01.022Z</time>
      </trkpt>
      <trkpt lat="43.014115" lon="-1.30739">
        <ele>1146.0</ele>
        <time>2019-08-01T10:50:02.028Z</time>
      </trkpt>
      <trkpt lat="43.01410167" lon="-1.30740333">
        <ele>1145.0</ele>
        <time>2019-08-01T10:50:03.033Z</time>
      </trkpt>
      <trkpt lat="43.01409167" lon="-1.30740667">
        <ele>1144.0</ele>
        <time>2019-08-01T10:50:04.041Z</time>
      </trkpt>
      <trkpt lat="43.01408333" lon="-1.30740667">
        <ele>1144.0</ele>
        <time>2019-08-01T10:50:04.920Z</time>
      </trkpt>
      <trkpt lat="43.01407" lon="-1.30742">
        <ele>1145.0</ele>
        <time>2019-08-01T10:50:05.924Z</time>
      </trkpt>
      <trkpt lat="43.014065" lon="-1.30743167">
        <ele>1145.0</ele>
        <time>2019-08-01T10:50:06.927Z</time>
      </trkpt>
      <trkpt lat="43.01405667" lon="-1.307445">
        <ele>1145.0</ele>
        <time>2019-08-01T10:50:07.933Z</time>
      </trkpt>
      <trkpt lat="43.01404333" lon="-1.30745667">
        <ele>1145.0</ele>
        <time>2019-08-01T10:50:08.939Z</time>
      </trkpt>
      <trkpt lat="43.01402667" lon="-1.30747333">
        <ele>1145.0</ele>
        <time>2019-08-01T10:50:09.944Z</time>
      </trkpt>
      <trkpt lat="43.01401" lon="-1.30748667">
        <ele>1144.0</ele>
        <time>2019-08-01T10:50:10.949Z</time>
      </trkpt>
      <trkpt lat="43.01399667" lon="-1.307495">
        <ele>1143.0</ele>
        <time>2019-08-01T10:50:11.954Z</time>
      </trkpt>
      <trkpt lat="43.01397833" lon="-1.30750167">
        <ele>1143.0</ele>
        <time>2019-08-01T10:50:12.958Z</time>
      </trkpt>
      <trkpt lat="43.01396333" lon="-1.30750333">
        <ele>1141.0</ele>
        <time>2019-08-01T10:50:13.964Z</time>
      </trkpt>
      <trkpt lat="43.01395" lon="-1.30750167">
        <ele>1140.0</ele>
        <time>2019-08-01T10:50:14.971Z</time>
      </trkpt>
      <trkpt lat="43.01393667" lon="-1.30749333">
        <ele>1141.0</ele>
        <time>2019-08-01T10:50:15.978Z</time>
      </trkpt>
      <trkpt lat="43.01392167" lon="-1.30748333">
        <ele>1141.0</ele>
        <time>2019-08-01T10:50:16.981Z</time>
      </trkpt>
      <trkpt lat="43.01391167" lon="-1.30748333">
        <ele>1140.0</ele>
        <time>2019-08-01T10:50:17.987Z</time>
      </trkpt>
      <trkpt lat="43.01389833" lon="-1.30749333">
        <ele>1139.0</ele>
        <time>2019-08-01T10:50:18.993Z</time>
      </trkpt>
      <trkpt lat="43.01389333" lon="-1.3075">
        <ele>1139.0</ele>
        <time>2019-08-01T10:50:19.996Z</time>
      </trkpt>
      <trkpt lat="43.01388833" lon="-1.30751167">
        <ele>1139.0</ele>
        <time>2019-08-01T10:50:21.000Z</time>
      </trkpt>
      <trkpt lat="43.01387667" lon="-1.30751167">
        <ele>1139.0</ele>
        <time>2019-08-01T10:50:22.006Z</time>
      </trkpt>
      <trkpt lat="43.01387" lon="-1.30751333">
        <ele>1139.0</ele>
        <time>2019-08-01T10:50:23.011Z</time>
      </trkpt>
      <trkpt lat="43.01386" lon="-1.307515">
        <ele>1139.0</ele>
        <time>2019-08-01T10:50:24.017Z</time>
      </trkpt>
      <trkpt lat="43.01384833" lon="-1.30751833">
        <ele>1139.0</ele>
        <time>2019-08-01T10:50:25.025Z</time>
      </trkpt>
      <trkpt lat="43.01383667" lon="-1.30752333">
        <ele>1140.0</ele>
        <time>2019-08-01T10:50:26.031Z</time>
      </trkpt>
      <trkpt lat="43.01382667" lon="-1.30752833">
        <ele>1139.0</ele>
        <time>2019-08-01T10:50:27.033Z</time>
      </trkpt>
      <trkpt lat="43.01381833" lon="-1.30753667">
        <ele>1139.0</ele>
        <time>2019-08-01T10:50:28.039Z</time>
      </trkpt>
      <trkpt lat="43.01380833" lon="-1.30755">
        <ele>1138.0</ele>
        <time>2019-08-01T10:50:28.919Z</time>
      </trkpt>
      <trkpt lat="43.01380333" lon="-1.30755833">
        <ele>1137.0</ele>
        <time>2019-08-01T10:50:29.925Z</time>
      </trkpt>
      <trkpt lat="43.01379667" lon="-1.30756833">
        <ele>1137.0</ele>
        <time>2019-08-01T10:50:30.931Z</time>
      </trkpt>
      <trkpt lat="43.01378833" lon="-1.30757333">
        <ele>1136.0</ele>
        <time>2019-08-01T10:50:31.937Z</time>
      </trkpt>
      <trkpt lat="43.01377833" lon="-1.30757833">
        <ele>1135.0</ele>
        <time>2019-08-01T10:50:32.943Z</time>
      </trkpt>
      <trkpt lat="43.01376833" lon="-1.30758167">
        <ele>1135.0</ele>
        <time>2019-08-01T10:50:33.946Z</time>
      </trkpt>
      <trkpt lat="43.01375333" lon="-1.30758667">
        <ele>1135.0</ele>
        <time>2019-08-01T10:50:34.952Z</time>
      </trkpt>
      <trkpt lat="43.01374333" lon="-1.307595">
        <ele>1135.0</ele>
        <time>2019-08-01T10:50:35.961Z</time>
      </trkpt>
      <trkpt lat="43.01372833" lon="-1.30760333">
        <ele>1134.0</ele>
        <time>2019-08-01T10:50:36.968Z</time>
      </trkpt>
      <trkpt lat="43.01371833" lon="-1.30761333">
        <ele>1133.0</ele>
        <time>2019-08-01T10:50:37.974Z</time>
      </trkpt>
      <trkpt lat="43.01370667" lon="-1.30763">
        <ele>1132.0</ele>
        <time>2019-08-01T10:50:38.981Z</time>
      </trkpt>
      <trkpt lat="43.01369667" lon="-1.30764333">
        <ele>1132.0</ele>
        <time>2019-08-01T10:50:39.988Z</time>
      </trkpt>
      <trkpt lat="43.013685" lon="-1.30765833">
        <ele>1132.0</ele>
        <time>2019-08-01T10:50:40.993Z</time>
      </trkpt>
      <trkpt lat="43.01367333" lon="-1.30767167">
        <ele>1132.0</ele>
        <time>2019-08-01T10:50:42.001Z</time>
      </trkpt>
      <trkpt lat="43.01366" lon="-1.30768333">
        <ele>1132.0</ele>
        <time>2019-08-01T10:50:43.007Z</time>
      </trkpt>
      <trkpt lat="43.01364833" lon="-1.30769167">
        <ele>1131.0</ele>
        <time>2019-08-01T10:50:44.012Z</time>
      </trkpt>
      <trkpt lat="43.01363167" lon="-1.30770333">
        <ele>1131.0</ele>
        <time>2019-08-01T10:50:45.019Z</time>
      </trkpt>
      <trkpt lat="43.01361833" lon="-1.30771833">
        <ele>1130.0</ele>
        <time>2019-08-01T10:50:46.027Z</time>
      </trkpt>
      <trkpt lat="43.01360833" lon="-1.30773333">
        <ele>1131.0</ele>
        <time>2019-08-01T10:50:47.032Z</time>
      </trkpt>
      <trkpt lat="43.013595" lon="-1.30774333">
        <ele>1132.0</ele>
        <time>2019-08-01T10:50:48.038Z</time>
      </trkpt>
      <trkpt lat="43.01357667" lon="-1.30775333">
        <ele>1132.0</ele>
        <time>2019-08-01T10:50:48.918Z</time>
      </trkpt>
      <trkpt lat="43.01355833" lon="-1.30775667">
        <ele>1131.0</ele>
        <time>2019-08-01T10:50:49.923Z</time>
      </trkpt>
      <trkpt lat="43.01354333" lon="-1.30776167">
        <ele>1130.0</ele>
        <time>2019-08-01T10:50:50.927Z</time>
      </trkpt>
      <trkpt lat="43.01353667" lon="-1.30776333">
        <ele>1129.0</ele>
        <time>2019-08-01T10:50:51.933Z</time>
      </trkpt>
      <trkpt lat="43.01352833" lon="-1.307765">
        <ele>1130.0</ele>
        <time>2019-08-01T10:50:52.940Z</time>
      </trkpt>
      <trkpt lat="43.01351667" lon="-1.30776833">
        <ele>1132.0</ele>
        <time>2019-08-01T10:50:53.943Z</time>
      </trkpt>
      <trkpt lat="43.01350667" lon="-1.30777">
        <ele>1134.0</ele>
        <time>2019-08-01T10:50:54.947Z</time>
      </trkpt>
      <trkpt lat="43.01349667" lon="-1.30777167">
        <ele>1134.0</ele>
        <time>2019-08-01T10:50:55.952Z</time>
      </trkpt>
      <trkpt lat="43.01348167" lon="-1.30778167">
        <ele>1134.0</ele>
        <time>2019-08-01T10:50:56.958Z</time>
      </trkpt>
      <trkpt lat="43.01346667" lon="-1.30779">
        <ele>1135.0</ele>
        <time>2019-08-01T10:50:57.964Z</time>
      </trkpt>
      <trkpt lat="43.01344667" lon="-1.30780333">
        <ele>1134.0</ele>
        <time>2019-08-01T10:50:58.970Z</time>
      </trkpt>
      <trkpt lat="43.01342667" lon="-1.30782333">
        <ele>1135.0</ele>
        <time>2019-08-01T10:50:59.976Z</time>
      </trkpt>
      <trkpt lat="43.01341" lon="-1.30784">
        <ele>1136.0</ele>
        <time>2019-08-01T10:51:00.981Z</time>
      </trkpt>
      <trkpt lat="43.01339167" lon="-1.30785">
        <ele>1137.0</ele>
        <time>2019-08-01T10:51:01.987Z</time>
      </trkpt>
      <trkpt lat="43.01337333" lon="-1.30786">
        <ele>1137.0</ele>
        <time>2019-08-01T10:51:02.993Z</time>
      </trkpt>
      <trkpt lat="43.01336333" lon="-1.30787333">
        <ele>1137.0</ele>
        <time>2019-08-01T10:51:03.999Z</time>
      </trkpt>
      <trkpt lat="43.01335333" lon="-1.307885">
        <ele>1136.0</ele>
        <time>2019-08-01T10:51:05.006Z</time>
      </trkpt>
      <trkpt lat="43.01334" lon="-1.30788667">
        <ele>1137.0</ele>
        <time>2019-08-01T10:51:06.013Z</time>
      </trkpt>
      <trkpt lat="43.01332333" lon="-1.30789167">
        <ele>1138.0</ele>
        <time>2019-08-01T10:51:07.019Z</time>
      </trkpt>
      <trkpt lat="43.01331667" lon="-1.30789833">
        <ele>1137.0</ele>
        <time>2019-08-01T10:51:08.025Z</time>
      </trkpt>
      <trkpt lat="43.01331333" lon="-1.30791167">
        <ele>1137.0</ele>
        <time>2019-08-01T10:51:09.031Z</time>
      </trkpt>
      <trkpt lat="43.01329833" lon="-1.30791833">
        <ele>1136.0</ele>
        <time>2019-08-01T10:51:10.037Z</time>
      </trkpt>
      <trkpt lat="43.01328333" lon="-1.30793">
        <ele>1135.0</ele>
        <time>2019-08-01T10:51:11.043Z</time>
      </trkpt>
      <trkpt lat="43.01327167" lon="-1.30793833">
        <ele>1134.0</ele>
        <time>2019-08-01T10:51:11.924Z</time>
      </trkpt>
      <trkpt lat="43.01326167" lon="-1.30794333">
        <ele>1133.0</ele>
        <time>2019-08-01T10:51:12.927Z</time>
      </trkpt>
      <trkpt lat="43.01325" lon="-1.30795333">
        <ele>1133.0</ele>
        <time>2019-08-01T10:51:13.934Z</time>
      </trkpt>
      <trkpt lat="43.01323667" lon="-1.307965">
        <ele>1133.0</ele>
        <time>2019-08-01T10:51:14.938Z</time>
      </trkpt>
      <trkpt lat="43.01322667" lon="-1.307975">
        <ele>1133.0</ele>
        <time>2019-08-01T10:51:15.942Z</time>
      </trkpt>
      <trkpt lat="43.013215" lon="-1.307985">
        <ele>1133.0</ele>
        <time>2019-08-01T10:51:16.947Z</time>
      </trkpt>
      <trkpt lat="43.01320667" lon="-1.307995">
        <ele>1134.0</ele>
        <time>2019-08-01T10:51:17.951Z</time>
      </trkpt>
      <trkpt lat="43.01319667" lon="-1.30800667">
        <ele>1133.0</ele>
        <time>2019-08-01T10:51:18.957Z</time>
      </trkpt>
      <trkpt lat="43.01318833" lon="-1.30801333">
        <ele>1133.0</ele>
        <time>2019-08-01T10:51:19.962Z</time>
      </trkpt>
      <trkpt lat="43.01317667" lon="-1.308025">
        <ele>1134.0</ele>
        <time>2019-08-01T10:51:20.964Z</time>
      </trkpt>
      <trkpt lat="43.01316833" lon="-1.30803">
        <ele>1134.0</ele>
        <time>2019-08-01T10:51:21.970Z</time>
      </trkpt>
      <trkpt lat="43.01315833" lon="-1.30803833">
        <ele>1134.0</ele>
        <time>2019-08-01T10:51:22.974Z</time>
      </trkpt>
      <trkpt lat="43.01314833" lon="-1.30804833">
        <ele>1135.0</ele>
        <time>2019-08-01T10:51:23.980Z</time>
      </trkpt>
      <trkpt lat="43.01314167" lon="-1.30806">
        <ele>1134.0</ele>
        <time>2019-08-01T10:51:24.984Z</time>
      </trkpt>
      <trkpt lat="43.01313333" lon="-1.30807167">
        <ele>1134.0</ele>
        <time>2019-08-01T10:51:25.988Z</time>
      </trkpt>
      <trkpt lat="43.01312333" lon="-1.30808333">
        <ele>1134.0</ele>
        <time>2019-08-01T10:51:26.990Z</time>
      </trkpt>
      <trkpt lat="43.01311333" lon="-1.30809833">
        <ele>1134.0</ele>
        <time>2019-08-01T10:51:27.997Z</time>
      </trkpt>
      <trkpt lat="43.01310333" lon="-1.30811167">
        <ele>1134.0</ele>
        <time>2019-08-01T10:51:29.004Z</time>
      </trkpt>
      <trkpt lat="43.013095" lon="-1.30812833">
        <ele>1134.0</ele>
        <time>2019-08-01T10:51:30.009Z</time>
      </trkpt>
      <trkpt lat="43.01308667" lon="-1.308145">
        <ele>1134.0</ele>
        <time>2019-08-01T10:51:31.016Z</time>
      </trkpt>
      <trkpt lat="43.01307833" lon="-1.308155">
        <ele>1135.0</ele>
        <time>2019-08-01T10:51:32.023Z</time>
      </trkpt>
      <trkpt lat="43.01307" lon="-1.30816833">
        <ele>1134.0</ele>
        <time>2019-08-01T10:51:33.029Z</time>
      </trkpt>
      <trkpt lat="43.01306" lon="-1.30818667">
        <ele>1134.0</ele>
        <time>2019-08-01T10:51:34.036Z</time>
      </trkpt>
      <trkpt lat="43.01305167" lon="-1.30820333">
        <ele>1133.0</ele>
        <time>2019-08-01T10:51:35.043Z</time>
      </trkpt>
      <trkpt lat="43.013045" lon="-1.30822">
        <ele>1132.0</ele>
        <time>2019-08-01T10:51:35.924Z</time>
      </trkpt>
      <trkpt lat="43.01304167" lon="-1.30823167">
        <ele>1131.0</ele>
        <time>2019-08-01T10:51:36.929Z</time>
      </trkpt>
      <trkpt lat="43.01303667" lon="-1.30824833">
        <ele>1130.0</ele>
        <time>2019-08-01T10:51:37.935Z</time>
      </trkpt>
      <trkpt lat="43.01303" lon="-1.30826">
        <ele>1129.0</ele>
        <time>2019-08-01T10:51:38.942Z</time>
      </trkpt>
      <trkpt lat="43.01302167" lon="-1.30827167">
        <ele>1128.0</ele>
        <time>2019-08-01T10:51:39.950Z</time>
      </trkpt>
      <trkpt lat="43.01301333" lon="-1.30828667">
        <ele>1128.0</ele>
        <time>2019-08-01T10:51:40.957Z</time>
      </trkpt>
      <trkpt lat="43.01300833" lon="-1.30829833">
        <ele>1128.0</ele>
        <time>2019-08-01T10:51:41.962Z</time>
      </trkpt>
      <trkpt lat="43.01300167" lon="-1.30831667">
        <ele>1127.0</ele>
        <time>2019-08-01T10:51:42.969Z</time>
      </trkpt>
      <trkpt lat="43.012995" lon="-1.30833">
        <ele>1128.0</ele>
        <time>2019-08-01T10:51:43.974Z</time>
      </trkpt>
      <trkpt lat="43.01298667" lon="-1.30834">
        <ele>1128.0</ele>
        <time>2019-08-01T10:51:44.981Z</time>
      </trkpt>
      <trkpt lat="43.01297667" lon="-1.30834333">
        <ele>1129.0</ele>
        <time>2019-08-01T10:51:45.988Z</time>
      </trkpt>
      <trkpt lat="43.01296667" lon="-1.30835333">
        <ele>1129.0</ele>
        <time>2019-08-01T10:51:46.992Z</time>
      </trkpt>
      <trkpt lat="43.01296" lon="-1.30836667">
        <ele>1129.0</ele>
        <time>2019-08-01T10:51:47.998Z</time>
      </trkpt>
      <trkpt lat="43.01295333" lon="-1.30838167">
        <ele>1129.0</ele>
        <time>2019-08-01T10:51:49.004Z</time>
      </trkpt>
      <trkpt lat="43.012945" lon="-1.30839833">
        <ele>1129.0</ele>
        <time>2019-08-01T10:51:50.011Z</time>
      </trkpt>
      <trkpt lat="43.012935" lon="-1.30841167">
        <ele>1130.0</ele>
        <time>2019-08-01T10:51:51.016Z</time>
      </trkpt>
      <trkpt lat="43.01293" lon="-1.30842">
        <ele>1130.0</ele>
        <time>2019-08-01T10:51:52.020Z</time>
      </trkpt>
      <trkpt lat="43.01292167" lon="-1.30843333">
        <ele>1131.0</ele>
        <time>2019-08-01T10:51:53.027Z</time>
      </trkpt>
      <trkpt lat="43.01291667" lon="-1.308445">
        <ele>1131.0</ele>
        <time>2019-08-01T10:51:54.032Z</time>
      </trkpt>
      <trkpt lat="43.01291167" lon="-1.308455">
        <ele>1131.0</ele>
        <time>2019-08-01T10:51:55.040Z</time>
      </trkpt>
      <trkpt lat="43.01290833" lon="-1.308465">
        <ele>1130.0</ele>
        <time>2019-08-01T10:51:55.920Z</time>
      </trkpt>
      <trkpt lat="43.01289833" lon="-1.30847833">
        <ele>1130.0</ele>
        <time>2019-08-01T10:51:56.926Z</time>
      </trkpt>
      <trkpt lat="43.012885" lon="-1.30848667">
        <ele>1130.0</ele>
        <time>2019-08-01T10:51:57.932Z</time>
      </trkpt>
      <trkpt lat="43.012875" lon="-1.30849333">
        <ele>1130.0</ele>
        <time>2019-08-01T10:51:58.938Z</time>
      </trkpt>
      <trkpt lat="43.01286667" lon="-1.3085">
        <ele>1130.0</ele>
        <time>2019-08-01T10:51:59.945Z</time>
      </trkpt>
      <trkpt lat="43.01285667" lon="-1.30851">
        <ele>1130.0</ele>
        <time>2019-08-01T10:52:00.948Z</time>
      </trkpt>
      <trkpt lat="43.01284667" lon="-1.30851667">
        <ele>1130.0</ele>
        <time>2019-08-01T10:52:01.955Z</time>
      </trkpt>
      <trkpt lat="43.01283833" lon="-1.30852667">
        <ele>1129.0</ele>
        <time>2019-08-01T10:52:02.961Z</time>
      </trkpt>
      <trkpt lat="43.01283333" lon="-1.30854">
        <ele>1129.0</ele>
        <time>2019-08-01T10:52:03.967Z</time>
      </trkpt>
      <trkpt lat="43.01282833" lon="-1.30855333">
        <ele>1128.0</ele>
        <time>2019-08-01T10:52:04.973Z</time>
      </trkpt>
      <trkpt lat="43.01282333" lon="-1.308565">
        <ele>1127.0</ele>
        <time>2019-08-01T10:52:05.979Z</time>
      </trkpt>
      <trkpt lat="43.012815" lon="-1.30858">
        <ele>1127.0</ele>
        <time>2019-08-01T10:52:06.986Z</time>
      </trkpt>
      <trkpt lat="43.01280833" lon="-1.30859167">
        <ele>1127.0</ele>
        <time>2019-08-01T10:52:07.990Z</time>
      </trkpt>
      <trkpt lat="43.0128" lon="-1.308605">
        <ele>1126.0</ele>
        <time>2019-08-01T10:52:08.993Z</time>
      </trkpt>
      <trkpt lat="43.01279333" lon="-1.30861667">
        <ele>1125.0</ele>
        <time>2019-08-01T10:52:09.999Z</time>
      </trkpt>
      <trkpt lat="43.01278667" lon="-1.30862833">
        <ele>1124.0</ele>
        <time>2019-08-01T10:52:11.005Z</time>
      </trkpt>
      <trkpt lat="43.01277833" lon="-1.30863667">
        <ele>1123.0</ele>
        <time>2019-08-01T10:52:12.011Z</time>
      </trkpt>
      <trkpt lat="43.01277333" lon="-1.30864333">
        <ele>1122.0</ele>
        <time>2019-08-01T10:52:13.018Z</time>
      </trkpt>
      <trkpt lat="43.012765" lon="-1.30865333">
        <ele>1122.0</ele>
        <time>2019-08-01T10:52:14.025Z</time>
      </trkpt>
      <trkpt lat="43.01275833" lon="-1.308665">
        <ele>1122.0</ele>
        <time>2019-08-01T10:52:15.028Z</time>
      </trkpt>
      <trkpt lat="43.01274833" lon="-1.30867667">
        <ele>1120.0</ele>
        <time>2019-08-01T10:52:16.032Z</time>
      </trkpt>
      <trkpt lat="43.01274" lon="-1.30868833">
        <ele>1118.0</ele>
        <time>2019-08-01T10:52:17.039Z</time>
      </trkpt>
      <trkpt lat="43.01273167" lon="-1.30870167">
        <ele>1118.0</ele>
        <time>2019-08-01T10:52:17.919Z</time>
      </trkpt>
      <trkpt lat="43.01272333" lon="-1.30871167">
        <ele>1118.0</ele>
        <time>2019-08-01T10:52:18.924Z</time>
      </trkpt>
      <trkpt lat="43.01271833" lon="-1.308715">
        <ele>1118.0</ele>
        <time>2019-08-01T10:52:19.929Z</time>
      </trkpt>
      <trkpt lat="43.01271667" lon="-1.308715">
        <ele>1119.0</ele>
        <time>2019-08-01T10:52:20.933Z</time>
      </trkpt>
      <trkpt lat="43.01271167" lon="-1.30871667">
        <ele>1119.0</ele>
        <time>2019-08-01T10:52:21.937Z</time>
      </trkpt>
      <trkpt lat="43.01271" lon="-1.30872667">
        <ele>1119.0</ele>
        <time>2019-08-01T10:52:22.945Z</time>
      </trkpt>
      <trkpt lat="43.01270333" lon="-1.30874">
        <ele>1119.0</ele>
        <time>2019-08-01T10:52:23.948Z</time>
      </trkpt>
      <trkpt lat="43.01269833" lon="-1.30874833">
        <ele>1119.0</ele>
        <time>2019-08-01T10:52:24.953Z</time>
      </trkpt>
      <trkpt lat="43.01268833" lon="-1.30875833">
        <ele>1118.0</ele>
        <time>2019-08-01T10:52:25.958Z</time>
      </trkpt>
      <trkpt lat="43.01268167" lon="-1.30876333">
        <ele>1117.0</ele>
        <time>2019-08-01T10:52:26.965Z</time>
      </trkpt>
      <trkpt lat="43.01267333" lon="-1.30876833">
        <ele>1116.0</ele>
        <time>2019-08-01T10:52:27.971Z</time>
      </trkpt>
      <trkpt lat="43.01266667" lon="-1.30878">
        <ele>1115.0</ele>
        <time>2019-08-01T10:52:28.977Z</time>
      </trkpt>
      <trkpt lat="43.01266167" lon="-1.30878667">
        <ele>1115.0</ele>
        <time>2019-08-01T10:52:29.983Z</time>
      </trkpt>
      <trkpt lat="43.01265333" lon="-1.30879667">
        <ele>1115.0</ele>
        <time>2019-08-01T10:52:30.988Z</time>
      </trkpt>
      <trkpt lat="43.01264667" lon="-1.30880167">
        <ele>1114.0</ele>
        <time>2019-08-01T10:52:31.993Z</time>
      </trkpt>
      <trkpt lat="43.01264333" lon="-1.30879833">
        <ele>1115.0</ele>
        <time>2019-08-01T10:52:32.999Z</time>
      </trkpt>
      <trkpt lat="43.012635" lon="-1.3088">
        <ele>1115.0</ele>
        <time>2019-08-01T10:52:34.006Z</time>
      </trkpt>
      <trkpt lat="43.012625" lon="-1.3088">
        <ele>1116.0</ele>
        <time>2019-08-01T10:52:35.012Z</time>
      </trkpt>
      <trkpt lat="43.01261333" lon="-1.30880667">
        <ele>1115.0</ele>
        <time>2019-08-01T10:52:36.016Z</time>
      </trkpt>
      <trkpt lat="43.012605" lon="-1.30881167">
        <ele>1115.0</ele>
        <time>2019-08-01T10:52:37.021Z</time>
      </trkpt>
      <trkpt lat="43.01259833" lon="-1.30881833">
        <ele>1115.0</ele>
        <time>2019-08-01T10:52:38.028Z</time>
      </trkpt>
      <trkpt lat="43.01259167" lon="-1.30882333">
        <ele>1115.0</ele>
        <time>2019-08-01T10:52:39.031Z</time>
      </trkpt>
      <trkpt lat="43.01258333" lon="-1.30882833">
        <ele>1114.0</ele>
        <time>2019-08-01T10:52:40.037Z</time>
      </trkpt>
      <trkpt lat="43.012575" lon="-1.30882833">
        <ele>1115.0</ele>
        <time>2019-08-01T10:52:41.043Z</time>
      </trkpt>
      <trkpt lat="43.01256667" lon="-1.30883">
        <ele>1114.0</ele>
        <time>2019-08-01T10:52:41.923Z</time>
      </trkpt>
      <trkpt lat="43.01256" lon="-1.30883333">
        <ele>1114.0</ele>
        <time>2019-08-01T10:52:42.929Z</time>
      </trkpt>
      <trkpt lat="43.01255333" lon="-1.308835">
        <ele>1114.0</ele>
        <time>2019-08-01T10:52:43.935Z</time>
      </trkpt>
      <trkpt lat="43.01254833" lon="-1.30883833">
        <ele>1114.0</ele>
        <time>2019-08-01T10:52:44.940Z</time>
      </trkpt>
      <trkpt lat="43.01254167" lon="-1.30884333">
        <ele>1114.0</ele>
        <time>2019-08-01T10:52:45.947Z</time>
      </trkpt>
      <trkpt lat="43.01253167" lon="-1.30885">
        <ele>1114.0</ele>
        <time>2019-08-01T10:52:46.953Z</time>
      </trkpt>
      <trkpt lat="43.01252667" lon="-1.308855">
        <ele>1114.0</ele>
        <time>2019-08-01T10:52:47.961Z</time>
      </trkpt>
      <trkpt lat="43.01252" lon="-1.30886">
        <ele>1114.0</ele>
        <time>2019-08-01T10:52:48.965Z</time>
      </trkpt>
      <trkpt lat="43.01251333" lon="-1.30886">
        <ele>1114.0</ele>
        <time>2019-08-01T10:52:49.969Z</time>
      </trkpt>
      <trkpt lat="43.012505" lon="-1.30886">
        <ele>1115.0</ele>
        <time>2019-08-01T10:52:50.974Z</time>
      </trkpt>
      <trkpt lat="43.012495" lon="-1.30886333">
        <ele>1116.0</ele>
        <time>2019-08-01T10:52:51.981Z</time>
      </trkpt>
      <trkpt lat="43.012485" lon="-1.30886667">
        <ele>1116.0</ele>
        <time>2019-08-01T10:52:52.985Z</time>
      </trkpt>
      <trkpt lat="43.012475" lon="-1.30887">
        <ele>1116.0</ele>
        <time>2019-08-01T10:52:53.991Z</time>
      </trkpt>
      <trkpt lat="43.01246167" lon="-1.30887333">
        <ele>1116.0</ele>
        <time>2019-08-01T10:52:54.999Z</time>
      </trkpt>
      <trkpt lat="43.01245" lon="-1.308875">
        <ele>1116.0</ele>
        <time>2019-08-01T10:52:56.007Z</time>
      </trkpt>
      <trkpt lat="43.01244167" lon="-1.30887333">
        <ele>1117.0</ele>
        <time>2019-08-01T10:52:57.014Z</time>
      </trkpt>
      <trkpt lat="43.01243333" lon="-1.30887167">
        <ele>1117.0</ele>
        <time>2019-08-01T10:52:58.020Z</time>
      </trkpt>
      <trkpt lat="43.012425" lon="-1.30887">
        <ele>1118.0</ele>
        <time>2019-08-01T10:52:59.027Z</time>
      </trkpt>
      <trkpt lat="43.01241667" lon="-1.30886833">
        <ele>1118.0</ele>
        <time>2019-08-01T10:53:00.032Z</time>
      </trkpt>
      <trkpt lat="43.012405" lon="-1.308865">
        <ele>1118.0</ele>
        <time>2019-08-01T10:53:01.039Z</time>
      </trkpt>
      <trkpt lat="43.01239333" lon="-1.308865">
        <ele>1118.0</ele>
        <time>2019-08-01T10:53:01.919Z</time>
      </trkpt>
      <trkpt lat="43.012385" lon="-1.30887">
        <ele>1118.0</ele>
        <time>2019-08-01T10:53:02.924Z</time>
      </trkpt>
      <trkpt lat="43.012375" lon="-1.30887333">
        <ele>1118.0</ele>
        <time>2019-08-01T10:53:03.930Z</time>
      </trkpt>
      <trkpt lat="43.01236333" lon="-1.30887333">
        <ele>1118.0</ele>
        <time>2019-08-01T10:53:04.937Z</time>
      </trkpt>
      <trkpt lat="43.012355" lon="-1.30887167">
        <ele>1118.0</ele>
        <time>2019-08-01T10:53:05.943Z</time>
      </trkpt>
      <trkpt lat="43.01235" lon="-1.30887167">
        <ele>1117.0</ele>
        <time>2019-08-01T10:53:06.948Z</time>
      </trkpt>
      <trkpt lat="43.01234" lon="-1.30887333">
        <ele>1117.0</ele>
        <time>2019-08-01T10:53:07.955Z</time>
      </trkpt>
      <trkpt lat="43.01233" lon="-1.30887167">
        <ele>1116.0</ele>
        <time>2019-08-01T10:53:08.961Z</time>
      </trkpt>
      <trkpt lat="43.01232167" lon="-1.30887">
        <ele>1115.0</ele>
        <time>2019-08-01T10:53:09.968Z</time>
      </trkpt>
      <trkpt lat="43.01231667" lon="-1.30887">
        <ele>1115.0</ele>
        <time>2019-08-01T10:53:10.974Z</time>
      </trkpt>
      <trkpt lat="43.01231" lon="-1.30886833">
        <ele>1116.0</ele>
        <time>2019-08-01T10:53:11.980Z</time>
      </trkpt>
      <trkpt lat="43.01230167" lon="-1.30887">
        <ele>1116.0</ele>
        <time>2019-08-01T10:53:12.986Z</time>
      </trkpt>
      <trkpt lat="43.01229167" lon="-1.30887">
        <ele>1115.0</ele>
        <time>2019-08-01T10:53:13.991Z</time>
      </trkpt>
      <trkpt lat="43.01228667" lon="-1.30887">
        <ele>1115.0</ele>
        <time>2019-08-01T10:53:14.997Z</time>
      </trkpt>
      <trkpt lat="43.012285" lon="-1.308865">
        <ele>1115.0</ele>
        <time>2019-08-01T10:53:15.999Z</time>
      </trkpt>
      <trkpt lat="43.01227333" lon="-1.30886167">
        <ele>1113.0</ele>
        <time>2019-08-01T10:53:17.004Z</time>
      </trkpt>
      <trkpt lat="43.01226167" lon="-1.30886333">
        <ele>1112.0</ele>
        <time>2019-08-01T10:53:18.010Z</time>
      </trkpt>
      <trkpt lat="43.01225" lon="-1.30886667">
        <ele>1111.0</ele>
        <time>2019-08-01T10:53:19.017Z</time>
      </trkpt>
      <trkpt lat="43.01223833" lon="-1.30886667">
        <ele>1111.0</ele>
        <time>2019-08-01T10:53:20.025Z</time>
      </trkpt>
      <trkpt lat="43.01222667" lon="-1.30886167">
        <ele>1111.0</ele>
        <time>2019-08-01T10:53:21.030Z</time>
      </trkpt>
      <trkpt lat="43.012215" lon="-1.30885667">
        <ele>1111.0</ele>
        <time>2019-08-01T10:53:22.032Z</time>
      </trkpt>
      <trkpt lat="43.012205" lon="-1.30884667">
        <ele>1111.0</ele>
        <time>2019-08-01T10:53:23.037Z</time>
      </trkpt>
      <trkpt lat="43.01219833" lon="-1.30884667">
        <ele>1111.0</ele>
        <time>2019-08-01T10:53:24.041Z</time>
      </trkpt>
      <trkpt lat="43.01218833" lon="-1.30884833">
        <ele>1110.0</ele>
        <time>2019-08-01T10:53:24.921Z</time>
      </trkpt>
      <trkpt lat="43.01217667" lon="-1.30884667">
        <ele>1110.0</ele>
        <time>2019-08-01T10:53:25.926Z</time>
      </trkpt>
      <trkpt lat="43.01216333" lon="-1.308845">
        <ele>1111.0</ele>
        <time>2019-08-01T10:53:26.930Z</time>
      </trkpt>
      <trkpt lat="43.01216" lon="-1.30885">
        <ele>1111.0</ele>
        <time>2019-08-01T10:53:27.933Z</time>
      </trkpt>
      <trkpt lat="43.01215667" lon="-1.30884667">
        <ele>1112.0</ele>
        <time>2019-08-01T10:53:28.938Z</time>
      </trkpt>
      <trkpt lat="43.01214167" lon="-1.30883333">
        <ele>1113.0</ele>
        <time>2019-08-01T10:53:29.944Z</time>
      </trkpt>
      <trkpt lat="43.01213333" lon="-1.30882">
        <ele>1114.0</ele>
        <time>2019-08-01T10:53:30.947Z</time>
      </trkpt>
      <trkpt lat="43.01211667" lon="-1.30881333">
        <ele>1114.0</ele>
        <time>2019-08-01T10:53:31.951Z</time>
      </trkpt>
      <trkpt lat="43.01211333" lon="-1.30880667">
        <ele>1115.0</ele>
        <time>2019-08-01T10:53:32.956Z</time>
      </trkpt>
      <trkpt lat="43.01210667" lon="-1.30880333">
        <ele>1114.0</ele>
        <time>2019-08-01T10:53:33.962Z</time>
      </trkpt>
      <trkpt lat="43.01209833" lon="-1.30880167">
        <ele>1114.0</ele>
        <time>2019-08-01T10:53:34.968Z</time>
      </trkpt>
      <trkpt lat="43.01208833" lon="-1.30879667">
        <ele>1113.0</ele>
        <time>2019-08-01T10:53:35.976Z</time>
      </trkpt>
      <trkpt lat="43.01207833" lon="-1.30879333">
        <ele>1113.0</ele>
        <time>2019-08-01T10:53:36.983Z</time>
      </trkpt>
      <trkpt lat="43.01207" lon="-1.30878667">
        <ele>1113.0</ele>
        <time>2019-08-01T10:53:37.989Z</time>
      </trkpt>
      <trkpt lat="43.01205833" lon="-1.30878333">
        <ele>1113.0</ele>
        <time>2019-08-01T10:53:38.992Z</time>
      </trkpt>
      <trkpt lat="43.01204833" lon="-1.30878">
        <ele>1112.0</ele>
        <time>2019-08-01T10:53:39.998Z</time>
      </trkpt>
      <trkpt lat="43.01204167" lon="-1.30877667">
        <ele>1112.0</ele>
        <time>2019-08-01T10:53:41.003Z</time>
      </trkpt>
      <trkpt lat="43.01203167" lon="-1.30877167">
        <ele>1111.0</ele>
        <time>2019-08-01T10:53:42.007Z</time>
      </trkpt>
      <trkpt lat="43.01202167" lon="-1.30876333">
        <ele>1111.0</ele>
        <time>2019-08-01T10:53:43.011Z</time>
      </trkpt>
      <trkpt lat="43.01201167" lon="-1.308755">
        <ele>1111.0</ele>
        <time>2019-08-01T10:53:44.018Z</time>
      </trkpt>
      <trkpt lat="43.012" lon="-1.30875">
        <ele>1111.0</ele>
        <time>2019-08-01T10:53:45.025Z</time>
      </trkpt>
      <trkpt lat="43.01199" lon="-1.30874333">
        <ele>1111.0</ele>
        <time>2019-08-01T10:53:46.030Z</time>
      </trkpt>
      <trkpt lat="43.01197833" lon="-1.308735">
        <ele>1111.0</ele>
        <time>2019-08-01T10:53:47.035Z</time>
      </trkpt>
      <trkpt lat="43.011965" lon="-1.308725">
        <ele>1111.0</ele>
        <time>2019-08-01T10:53:48.040Z</time>
      </trkpt>
      <trkpt lat="43.01195833" lon="-1.30871667">
        <ele>1111.0</ele>
        <time>2019-08-01T10:53:49.043Z</time>
      </trkpt>
      <trkpt lat="43.01195333" lon="-1.30871">
        <ele>1111.0</ele>
        <time>2019-08-01T10:53:49.924Z</time>
      </trkpt>
      <trkpt lat="43.01194333" lon="-1.30869833">
        <ele>1112.0</ele>
        <time>2019-08-01T10:53:50.932Z</time>
      </trkpt>
      <trkpt lat="43.01193167" lon="-1.30868167">
        <ele>1113.0</ele>
        <time>2019-08-01T10:53:51.936Z</time>
      </trkpt>
      <trkpt lat="43.011925" lon="-1.30866667">
        <ele>1113.0</ele>
        <time>2019-08-01T10:53:52.939Z</time>
      </trkpt>
      <trkpt lat="43.01192" lon="-1.30865833">
        <ele>1115.0</ele>
        <time>2019-08-01T10:53:53.944Z</time>
      </trkpt>
      <trkpt lat="43.011915" lon="-1.30864833">
        <ele>1115.0</ele>
        <time>2019-08-01T10:53:54.949Z</time>
      </trkpt>
      <trkpt lat="43.011915" lon="-1.30863667">
        <ele>1116.0</ele>
        <time>2019-08-01T10:53:55.955Z</time>
      </trkpt>
      <trkpt lat="43.01190833" lon="-1.30862333">
        <ele>1117.0</ele>
        <time>2019-08-01T10:53:56.960Z</time>
      </trkpt>
      <trkpt lat="43.01189833" lon="-1.308615">
        <ele>1117.0</ele>
        <time>2019-08-01T10:53:57.966Z</time>
      </trkpt>
      <trkpt lat="43.01189167" lon="-1.30860833">
        <ele>1117.0</ele>
        <time>2019-08-01T10:53:58.972Z</time>
      </trkpt>
      <trkpt lat="43.01188833" lon="-1.30860333">
        <ele>1117.0</ele>
        <time>2019-08-01T10:53:59.978Z</time>
      </trkpt>
      <trkpt lat="43.01188167" lon="-1.30859333">
        <ele>1117.0</ele>
        <time>2019-08-01T10:54:00.985Z</time>
      </trkpt>
      <trkpt lat="43.01187833" lon="-1.30858333">
        <ele>1117.0</ele>
        <time>2019-08-01T10:54:01.990Z</time>
      </trkpt>
      <trkpt lat="43.01187333" lon="-1.30857667">
        <ele>1117.0</ele>
        <time>2019-08-01T10:54:02.996Z</time>
      </trkpt>
      <trkpt lat="43.01187" lon="-1.308565">
        <ele>1117.0</ele>
        <time>2019-08-01T10:54:04.002Z</time>
      </trkpt>
      <trkpt lat="43.011865" lon="-1.30855833">
        <ele>1116.0</ele>
        <time>2019-08-01T10:54:05.008Z</time>
      </trkpt>
      <trkpt lat="43.01186" lon="-1.30855167">
        <ele>1115.0</ele>
        <time>2019-08-01T10:54:06.013Z</time>
      </trkpt>
      <trkpt lat="43.01185333" lon="-1.30854">
        <ele>1114.0</ele>
        <time>2019-08-01T10:54:07.021Z</time>
      </trkpt>
      <trkpt lat="43.01185" lon="-1.30853167">
        <ele>1114.0</ele>
        <time>2019-08-01T10:54:08.029Z</time>
      </trkpt>
      <trkpt lat="43.011845" lon="-1.30852667">
        <ele>1113.0</ele>
        <time>2019-08-01T10:54:09.035Z</time>
      </trkpt>
      <trkpt lat="43.01184" lon="-1.308525">
        <ele>1113.0</ele>
        <time>2019-08-01T10:54:10.041Z</time>
      </trkpt>
      <trkpt lat="43.01183667" lon="-1.308515">
        <ele>1112.0</ele>
        <time>2019-08-01T10:54:10.921Z</time>
      </trkpt>
      <trkpt lat="43.01183833" lon="-1.30851">
        <ele>1112.0</ele>
        <time>2019-08-01T10:54:11.929Z</time>
      </trkpt>
      <trkpt lat="43.011835" lon="-1.30850667">
        <ele>1111.0</ele>
        <time>2019-08-01T10:54:12.934Z</time>
      </trkpt>
      <trkpt lat="43.01183333" lon="-1.30850167">
        <ele>1110.0</ele>
        <time>2019-08-01T10:54:13.939Z</time>
      </trkpt>
      <trkpt lat="43.01182667" lon="-1.30849">
        <ele>1108.0</ele>
        <time>2019-08-01T10:54:14.944Z</time>
      </trkpt>
      <trkpt lat="43.01182" lon="-1.30848">
        <ele>1107.0</ele>
        <time>2019-08-01T10:54:15.950Z</time>
      </trkpt>
      <trkpt lat="43.01181333" lon="-1.30847333">
        <ele>1106.0</ele>
        <time>2019-08-01T10:54:16.955Z</time>
      </trkpt>
      <trkpt lat="43.01180333" lon="-1.30846667">
        <ele>1106.0</ele>
        <time>2019-08-01T10:54:17.961Z</time>
      </trkpt>
      <trkpt lat="43.01179333" lon="-1.30845833">
        <ele>1106.0</ele>
        <time>2019-08-01T10:54:18.966Z</time>
      </trkpt>
      <trkpt lat="43.011785" lon="-1.30845167">
        <ele>1106.0</ele>
        <time>2019-08-01T10:54:19.971Z</time>
      </trkpt>
      <trkpt lat="43.01177833" lon="-1.30844333">
        <ele>1105.0</ele>
        <time>2019-08-01T10:54:20.977Z</time>
      </trkpt>
      <trkpt lat="43.01177167" lon="-1.308435">
        <ele>1105.0</ele>
        <time>2019-08-01T10:54:21.984Z</time>
      </trkpt>
      <trkpt lat="43.01176667" lon="-1.308425">
        <ele>1104.0</ele>
        <time>2019-08-01T10:54:22.990Z</time>
      </trkpt>
      <trkpt lat="43.01175833" lon="-1.30841833">
        <ele>1104.0</ele>
        <time>2019-08-01T10:54:23.995Z</time>
      </trkpt>
      <trkpt lat="43.01175" lon="-1.30840667">
        <ele>1104.0</ele>
        <time>2019-08-01T10:54:25.001Z</time>
      </trkpt>
      <trkpt lat="43.01174333" lon="-1.30839833">
        <ele>1103.0</ele>
        <time>2019-08-01T10:54:26.007Z</time>
      </trkpt>
      <trkpt lat="43.01173833" lon="-1.30839167">
        <ele>1102.0</ele>
        <time>2019-08-01T10:54:27.014Z</time>
      </trkpt>
      <trkpt lat="43.011735" lon="-1.30838833">
        <ele>1102.0</ele>
        <time>2019-08-01T10:54:28.022Z</time>
      </trkpt>
      <trkpt lat="43.011735" lon="-1.30838">
        <ele>1102.0</ele>
        <time>2019-08-01T10:54:29.028Z</time>
      </trkpt>
      <trkpt lat="43.01173167" lon="-1.30837167">
        <ele>1102.0</ele>
        <time>2019-08-01T10:54:30.034Z</time>
      </trkpt>
      <trkpt lat="43.01172833" lon="-1.308365">
        <ele>1102.0</ele>
        <time>2019-08-01T10:54:31.040Z</time>
      </trkpt>
      <trkpt lat="43.011725" lon="-1.30836167">
        <ele>1101.0</ele>
        <time>2019-08-01T10:54:31.920Z</time>
      </trkpt>
      <trkpt lat="43.01172" lon="-1.30836167">
        <ele>1099.0</ele>
        <time>2019-08-01T10:54:32.927Z</time>
      </trkpt>
      <trkpt lat="43.01171" lon="-1.30835833">
        <ele>1099.0</ele>
        <time>2019-08-01T10:54:33.934Z</time>
      </trkpt>
      <trkpt lat="43.01170167" lon="-1.30835333">
        <ele>1098.0</ele>
        <time>2019-08-01T10:54:34.940Z</time>
      </trkpt>
      <trkpt lat="43.011695" lon="-1.30834833">
        <ele>1098.0</ele>
        <time>2019-08-01T10:54:35.945Z</time>
      </trkpt>
      <trkpt lat="43.01168833" lon="-1.30834167">
        <ele>1098.0</ele>
        <time>2019-08-01T10:54:36.949Z</time>
      </trkpt>
      <trkpt lat="43.01168333" lon="-1.30833167">
        <ele>1098.0</ele>
        <time>2019-08-01T10:54:37.955Z</time>
      </trkpt>
      <trkpt lat="43.01167833" lon="-1.30832167">
        <ele>1098.0</ele>
        <time>2019-08-01T10:54:38.960Z</time>
      </trkpt>
      <trkpt lat="43.01167333" lon="-1.30831333">
        <ele>1098.0</ele>
        <time>2019-08-01T10:54:39.966Z</time>
      </trkpt>
      <trkpt lat="43.01166833" lon="-1.30830167">
        <ele>1098.0</ele>
        <time>2019-08-01T10:54:40.970Z</time>
      </trkpt>
      <trkpt lat="43.01166333" lon="-1.30829">
        <ele>1097.0</ele>
        <time>2019-08-01T10:54:41.974Z</time>
      </trkpt>
      <trkpt lat="43.011655" lon="-1.30828167">
        <ele>1097.0</ele>
        <time>2019-08-01T10:54:42.980Z</time>
      </trkpt>
      <trkpt lat="43.01164833" lon="-1.30827">
        <ele>1096.0</ele>
        <time>2019-08-01T10:54:43.986Z</time>
      </trkpt>
      <trkpt lat="43.011645" lon="-1.30826">
        <ele>1096.0</ele>
        <time>2019-08-01T10:54:44.990Z</time>
      </trkpt>
      <trkpt lat="43.01164167" lon="-1.30825667">
        <ele>1095.0</ele>
        <time>2019-08-01T10:54:45.997Z</time>
      </trkpt>
      <trkpt lat="43.01163667" lon="-1.30825333">
        <ele>1094.0</ele>
        <time>2019-08-01T10:54:47.004Z</time>
      </trkpt>
      <trkpt lat="43.01163167" lon="-1.30824667">
        <ele>1094.0</ele>
        <time>2019-08-01T10:54:48.011Z</time>
      </trkpt>
      <trkpt lat="43.01162833" lon="-1.30823833">
        <ele>1093.0</ele>
        <time>2019-08-01T10:54:49.017Z</time>
      </trkpt>
      <trkpt lat="43.01162333" lon="-1.30822833">
        <ele>1093.0</ele>
        <time>2019-08-01T10:54:50.023Z</time>
      </trkpt>
      <trkpt lat="43.011615" lon="-1.308225">
        <ele>1091.0</ele>
        <time>2019-08-01T10:54:51.029Z</time>
      </trkpt>
      <trkpt lat="43.01160833" lon="-1.30822333">
        <ele>1090.0</ele>
        <time>2019-08-01T10:54:52.035Z</time>
      </trkpt>
      <trkpt lat="43.01159667" lon="-1.30821833">
        <ele>1090.0</ele>
        <time>2019-08-01T10:54:53.038Z</time>
      </trkpt>
      <trkpt lat="43.011585" lon="-1.30821">
        <ele>1089.0</ele>
        <time>2019-08-01T10:54:53.918Z</time>
      </trkpt>
      <trkpt lat="43.01157667" lon="-1.30820333">
        <ele>1090.0</ele>
        <time>2019-08-01T10:54:54.922Z</time>
      </trkpt>
      <trkpt lat="43.01156833" lon="-1.30819833">
        <ele>1089.0</ele>
        <time>2019-08-01T10:54:55.927Z</time>
      </trkpt>
      <trkpt lat="43.01156333" lon="-1.30819">
        <ele>1088.0</ele>
        <time>2019-08-01T10:54:56.933Z</time>
      </trkpt>
      <trkpt lat="43.01155667" lon="-1.30818667">
        <ele>1087.0</ele>
        <time>2019-08-01T10:54:57.939Z</time>
      </trkpt>
      <trkpt lat="43.01154333" lon="-1.30817833">
        <ele>1087.0</ele>
        <time>2019-08-01T10:54:58.946Z</time>
      </trkpt>
      <trkpt lat="43.01153167" lon="-1.30817167">
        <ele>1086.0</ele>
        <time>2019-08-01T10:54:59.950Z</time>
      </trkpt>
      <trkpt lat="43.01152" lon="-1.30816">
        <ele>1086.0</ele>
        <time>2019-08-01T10:55:00.952Z</time>
      </trkpt>
      <trkpt lat="43.01150833" lon="-1.30815333">
        <ele>1085.0</ele>
        <time>2019-08-01T10:55:01.956Z</time>
      </trkpt>
      <trkpt lat="43.01150167" lon="-1.308145">
        <ele>1085.0</ele>
        <time>2019-08-01T10:55:02.963Z</time>
      </trkpt>
      <trkpt lat="43.011495" lon="-1.30813333">
        <ele>1086.0</ele>
        <time>2019-08-01T10:55:03.968Z</time>
      </trkpt>
      <trkpt lat="43.01148833" lon="-1.30812667">
        <ele>1086.0</ele>
        <time>2019-08-01T10:55:04.976Z</time>
      </trkpt>
      <trkpt lat="43.01147333" lon="-1.30811333">
        <ele>1087.0</ele>
        <time>2019-08-01T10:55:05.978Z</time>
      </trkpt>
      <trkpt lat="43.01146167" lon="-1.308105">
        <ele>1087.0</ele>
        <time>2019-08-01T10:55:06.984Z</time>
      </trkpt>
      <trkpt lat="43.011455" lon="-1.3081">
        <ele>1086.0</ele>
        <time>2019-08-01T10:55:07.988Z</time>
      </trkpt>
      <trkpt lat="43.01145" lon="-1.30809333">
        <ele>1085.0</ele>
        <time>2019-08-01T10:55:08.993Z</time>
      </trkpt>
      <trkpt lat="43.011435" lon="-1.30807833">
        <ele>1084.0</ele>
        <time>2019-08-01T10:55:09.999Z</time>
      </trkpt>
      <trkpt lat="43.01142833" lon="-1.30807333">
        <ele>1084.0</ele>
        <time>2019-08-01T10:55:11.006Z</time>
      </trkpt>
      <trkpt lat="43.01142667" lon="-1.308075">
        <ele>1084.0</ele>
        <time>2019-08-01T10:55:12.013Z</time>
      </trkpt>
      <trkpt lat="43.01142333" lon="-1.30806833">
        <ele>1084.0</ele>
        <time>2019-08-01T10:55:13.018Z</time>
      </trkpt>
      <trkpt lat="43.01140833" lon="-1.30806167">
        <ele>1083.0</ele>
        <time>2019-08-01T10:55:14.025Z</time>
      </trkpt>
      <trkpt lat="43.01139" lon="-1.30804833">
        <ele>1084.0</ele>
        <time>2019-08-01T10:55:15.030Z</time>
      </trkpt>
      <trkpt lat="43.01137833" lon="-1.308045">
        <ele>1083.0</ele>
        <time>2019-08-01T10:55:16.033Z</time>
      </trkpt>
      <trkpt lat="43.01136" lon="-1.308045">
        <ele>1082.0</ele>
        <time>2019-08-01T10:55:17.037Z</time>
      </trkpt>
      <trkpt lat="43.011345" lon="-1.30804333">
        <ele>1081.0</ele>
        <time>2019-08-01T10:55:18.042Z</time>
      </trkpt>
      <trkpt lat="43.01133" lon="-1.30803667">
        <ele>1079.0</ele>
        <time>2019-08-01T10:55:18.922Z</time>
      </trkpt>
      <trkpt lat="43.01131667" lon="-1.30803333">
        <ele>1079.0</ele>
        <time>2019-08-01T10:55:19.930Z</time>
      </trkpt>
      <trkpt lat="43.01130167" lon="-1.308025">
        <ele>1077.0</ele>
        <time>2019-08-01T10:55:20.937Z</time>
      </trkpt>
      <trkpt lat="43.01129" lon="-1.30802">
        <ele>1077.0</ele>
        <time>2019-08-01T10:55:21.943Z</time>
      </trkpt>
      <trkpt lat="43.01127667" lon="-1.30801">
        <ele>1076.0</ele>
        <time>2019-08-01T10:55:22.949Z</time>
      </trkpt>
      <trkpt lat="43.01125833" lon="-1.30799833">
        <ele>1076.0</ele>
        <time>2019-08-01T10:55:23.955Z</time>
      </trkpt>
      <trkpt lat="43.01123833" lon="-1.307985">
        <ele>1076.0</ele>
        <time>2019-08-01T10:55:24.961Z</time>
      </trkpt>
      <trkpt lat="43.01121833" lon="-1.30797">
        <ele>1077.0</ele>
        <time>2019-08-01T10:55:25.964Z</time>
      </trkpt>
      <trkpt lat="43.01121" lon="-1.30795833">
        <ele>1076.0</ele>
        <time>2019-08-01T10:55:26.969Z</time>
      </trkpt>
      <trkpt lat="43.01119833" lon="-1.307945">
        <ele>1077.0</ele>
        <time>2019-08-01T10:55:27.974Z</time>
      </trkpt>
      <trkpt lat="43.01118667" lon="-1.30793833">
        <ele>1078.0</ele>
        <time>2019-08-01T10:55:28.980Z</time>
      </trkpt>
      <trkpt lat="43.01117833" lon="-1.30794">
        <ele>1078.0</ele>
        <time>2019-08-01T10:55:29.988Z</time>
      </trkpt>
      <trkpt lat="43.01116667" lon="-1.30793333">
        <ele>1079.0</ele>
        <time>2019-08-01T10:55:30.993Z</time>
      </trkpt>
      <trkpt lat="43.01116" lon="-1.307935">
        <ele>1080.0</ele>
        <time>2019-08-01T10:55:31.998Z</time>
      </trkpt>
      <trkpt lat="43.01114333" lon="-1.30792667">
        <ele>1081.0</ele>
        <time>2019-08-01T10:55:33.005Z</time>
      </trkpt>
      <trkpt lat="43.01112667" lon="-1.30791833">
        <ele>1080.0</ele>
        <time>2019-08-01T10:55:34.009Z</time>
      </trkpt>
      <trkpt lat="43.01111667" lon="-1.307915">
        <ele>1080.0</ele>
        <time>2019-08-01T10:55:35.012Z</time>
      </trkpt>
      <trkpt lat="43.01110333" lon="-1.30791167">
        <ele>1080.0</ele>
        <time>2019-08-01T10:55:36.020Z</time>
      </trkpt>
      <trkpt lat="43.01109167" lon="-1.30790833">
        <ele>1079.0</ele>
        <time>2019-08-01T10:55:37.028Z</time>
      </trkpt>
      <trkpt lat="43.01108167" lon="-1.30791">
        <ele>1079.0</ele>
        <time>2019-08-01T10:55:38.033Z</time>
      </trkpt>
      <trkpt lat="43.011075" lon="-1.30791333">
        <ele>1078.0</ele>
        <time>2019-08-01T10:55:39.039Z</time>
      </trkpt>
      <trkpt lat="43.01106667" lon="-1.30791167">
        <ele>1078.0</ele>
        <time>2019-08-01T10:55:39.920Z</time>
      </trkpt>
      <trkpt lat="43.01105833" lon="-1.30791333">
        <ele>1078.0</ele>
        <time>2019-08-01T10:55:40.927Z</time>
      </trkpt>
      <trkpt lat="43.01104667" lon="-1.30791333">
        <ele>1078.0</ele>
        <time>2019-08-01T10:55:41.935Z</time>
      </trkpt>
      <trkpt lat="43.01103667" lon="-1.30791667">
        <ele>1078.0</ele>
        <time>2019-08-01T10:55:42.939Z</time>
      </trkpt>
      <trkpt lat="43.011025" lon="-1.30791667">
        <ele>1078.0</ele>
        <time>2019-08-01T10:55:43.946Z</time>
      </trkpt>
      <trkpt lat="43.011015" lon="-1.30791833">
        <ele>1077.0</ele>
        <time>2019-08-01T10:55:44.951Z</time>
      </trkpt>
      <trkpt lat="43.011005" lon="-1.30791833">
        <ele>1077.0</ele>
        <time>2019-08-01T10:55:45.956Z</time>
      </trkpt>
      <trkpt lat="43.010995" lon="-1.30791833">
        <ele>1077.0</ele>
        <time>2019-08-01T10:55:46.962Z</time>
      </trkpt>
      <trkpt lat="43.01098667" lon="-1.307915">
        <ele>1076.0</ele>
        <time>2019-08-01T10:55:47.967Z</time>
      </trkpt>
      <trkpt lat="43.01097667" lon="-1.30791833">
        <ele>1075.0</ele>
        <time>2019-08-01T10:55:48.971Z</time>
      </trkpt>
      <trkpt lat="43.01096167" lon="-1.30791667">
        <ele>1075.0</ele>
        <time>2019-08-01T10:55:49.978Z</time>
      </trkpt>
      <trkpt lat="43.01094667" lon="-1.307915">
        <ele>1074.0</ele>
        <time>2019-08-01T10:55:50.986Z</time>
      </trkpt>
      <trkpt lat="43.01093667" lon="-1.30791667">
        <ele>1074.0</ele>
        <time>2019-08-01T10:55:51.992Z</time>
      </trkpt>
      <trkpt lat="43.01092333" lon="-1.30791833">
        <ele>1073.0</ele>
        <time>2019-08-01T10:55:52.999Z</time>
      </trkpt>
      <trkpt lat="43.01091" lon="-1.30791833">
        <ele>1072.0</ele>
        <time>2019-08-01T10:55:54.006Z</time>
      </trkpt>
      <trkpt lat="43.0109" lon="-1.30791333">
        <ele>1073.0</ele>
        <time>2019-08-01T10:55:55.015Z</time>
      </trkpt>
      <trkpt lat="43.01089" lon="-1.30790333">
        <ele>1073.0</ele>
        <time>2019-08-01T10:55:56.023Z</time>
      </trkpt>
      <trkpt lat="43.010875" lon="-1.30789667">
        <ele>1073.0</ele>
        <time>2019-08-01T10:55:57.029Z</time>
      </trkpt>
      <trkpt lat="43.01086167" lon="-1.3079">
        <ele>1073.0</ele>
        <time>2019-08-01T10:55:58.035Z</time>
      </trkpt>
      <trkpt lat="43.01084667" lon="-1.30790333">
        <ele>1074.0</ele>
        <time>2019-08-01T10:55:59.038Z</time>
      </trkpt>
      <trkpt lat="43.01082833" lon="-1.30790333">
        <ele>1076.0</ele>
        <time>2019-08-01T10:55:59.919Z</time>
      </trkpt>
      <trkpt lat="43.010815" lon="-1.30791833">
        <ele>1076.0</ele>
        <time>2019-08-01T10:56:00.925Z</time>
      </trkpt>
      <trkpt lat="43.0108" lon="-1.30792667">
        <ele>1074.0</ele>
        <time>2019-08-01T10:56:01.931Z</time>
      </trkpt>
      <trkpt lat="43.01079" lon="-1.30793333">
        <ele>1074.0</ele>
        <time>2019-08-01T10:56:02.937Z</time>
      </trkpt>
      <trkpt lat="43.01077667" lon="-1.30793833">
        <ele>1073.0</ele>
        <time>2019-08-01T10:56:03.943Z</time>
      </trkpt>
      <trkpt lat="43.01076333" lon="-1.30793">
        <ele>1074.0</ele>
        <time>2019-08-01T10:56:04.950Z</time>
      </trkpt>
      <trkpt lat="43.01075667" lon="-1.30793333">
        <ele>1074.0</ele>
        <time>2019-08-01T10:56:05.957Z</time>
      </trkpt>
      <trkpt lat="43.01075" lon="-1.30794">
        <ele>1074.0</ele>
        <time>2019-08-01T10:56:06.963Z</time>
      </trkpt>
      <trkpt lat="43.01073833" lon="-1.30794167">
        <ele>1074.0</ele>
        <time>2019-08-01T10:56:07.969Z</time>
      </trkpt>
      <trkpt lat="43.01072333" lon="-1.307935">
        <ele>1075.0</ele>
        <time>2019-08-01T10:56:08.974Z</time>
      </trkpt>
      <trkpt lat="43.01070833" lon="-1.30793167">
        <ele>1075.0</ele>
        <time>2019-08-01T10:56:09.979Z</time>
      </trkpt>
      <trkpt lat="43.0107" lon="-1.307925">
        <ele>1073.0</ele>
        <time>2019-08-01T10:56:10.984Z</time>
      </trkpt>
      <trkpt lat="43.01069333" lon="-1.30793">
        <ele>1072.0</ele>
        <time>2019-08-01T10:56:11.991Z</time>
      </trkpt>
      <trkpt lat="43.01068" lon="-1.30793">
        <ele>1071.0</ele>
        <time>2019-08-01T10:56:12.998Z</time>
      </trkpt>
      <trkpt lat="43.01067" lon="-1.30792667">
        <ele>1070.0</ele>
        <time>2019-08-01T10:56:14.005Z</time>
      </trkpt>
      <trkpt lat="43.01065833" lon="-1.30792167">
        <ele>1071.0</ele>
        <time>2019-08-01T10:56:15.010Z</time>
      </trkpt>
      <trkpt lat="43.01064667" lon="-1.30792167">
        <ele>1072.0</ele>
        <time>2019-08-01T10:56:16.015Z</time>
      </trkpt>
      <trkpt lat="43.01063333" lon="-1.30792667">
        <ele>1072.0</ele>
        <time>2019-08-01T10:56:17.022Z</time>
      </trkpt>
      <trkpt lat="43.01062333" lon="-1.307925">
        <ele>1073.0</ele>
        <time>2019-08-01T10:56:18.028Z</time>
      </trkpt>
      <trkpt lat="43.01061333" lon="-1.30792333">
        <ele>1074.0</ele>
        <time>2019-08-01T10:56:19.032Z</time>
      </trkpt>
      <trkpt lat="43.01060667" lon="-1.30792">
        <ele>1073.0</ele>
        <time>2019-08-01T10:56:20.038Z</time>
      </trkpt>
      <trkpt lat="43.01060667" lon="-1.30791333">
        <ele>1074.0</ele>
        <time>2019-08-01T10:56:21.043Z</time>
      </trkpt>
      <trkpt lat="43.0106" lon="-1.30791667">
        <ele>1075.0</ele>
        <time>2019-08-01T10:56:21.923Z</time>
      </trkpt>
      <trkpt lat="43.01058833" lon="-1.30792167">
        <ele>1077.0</ele>
        <time>2019-08-01T10:56:22.930Z</time>
      </trkpt>
      <trkpt lat="43.01058333" lon="-1.30792167">
        <ele>1077.0</ele>
        <time>2019-08-01T10:56:23.937Z</time>
      </trkpt>
      <trkpt lat="43.01058" lon="-1.30792333">
        <ele>1077.0</ele>
        <time>2019-08-01T10:56:24.945Z</time>
      </trkpt>
      <trkpt lat="43.010575" lon="-1.30792833">
        <ele>1077.0</ele>
        <time>2019-08-01T10:56:25.948Z</time>
      </trkpt>
      <trkpt lat="43.01057" lon="-1.30793333">
        <ele>1077.0</ele>
        <time>2019-08-01T10:56:26.953Z</time>
      </trkpt>
      <trkpt lat="43.01056333" lon="-1.307935">
        <ele>1077.0</ele>
        <time>2019-08-01T10:56:27.958Z</time>
      </trkpt>
      <trkpt lat="43.01055667" lon="-1.30793667">
        <ele>1076.0</ele>
        <time>2019-08-01T10:56:28.965Z</time>
      </trkpt>
      <trkpt lat="43.01055167" lon="-1.30793833">
        <ele>1076.0</ele>
        <time>2019-08-01T10:56:29.969Z</time>
      </trkpt>
      <trkpt lat="43.01054667" lon="-1.30794167">
        <ele>1075.0</ele>
        <time>2019-08-01T10:56:30.975Z</time>
      </trkpt>
      <trkpt lat="43.01054333" lon="-1.30794167">
        <ele>1074.0</ele>
        <time>2019-08-01T10:56:31.983Z</time>
      </trkpt>
      <trkpt lat="43.01053667" lon="-1.30794333">
        <ele>1073.0</ele>
        <time>2019-08-01T10:56:32.988Z</time>
      </trkpt>
      <trkpt lat="43.01053" lon="-1.30794667">
        <ele>1073.0</ele>
        <time>2019-08-01T10:56:33.994Z</time>
      </trkpt>
      <trkpt lat="43.01052167" lon="-1.30794667">
        <ele>1073.0</ele>
        <time>2019-08-01T10:56:35.001Z</time>
      </trkpt>
      <trkpt lat="43.01051333" lon="-1.30794333">
        <ele>1072.0</ele>
        <time>2019-08-01T10:56:36.003Z</time>
      </trkpt>
      <trkpt lat="43.010505" lon="-1.30794167">
        <ele>1072.0</ele>
        <time>2019-08-01T10:56:37.010Z</time>
      </trkpt>
      <trkpt lat="43.010495" lon="-1.30793833">
        <ele>1072.0</ele>
        <time>2019-08-01T10:56:38.015Z</time>
      </trkpt>
      <trkpt lat="43.010485" lon="-1.30794">
        <ele>1071.0</ele>
        <time>2019-08-01T10:56:39.022Z</time>
      </trkpt>
      <trkpt lat="43.01047667" lon="-1.30794167">
        <ele>1070.0</ele>
        <time>2019-08-01T10:56:40.029Z</time>
      </trkpt>
      <trkpt lat="43.01046833" lon="-1.30794167">
        <ele>1069.0</ele>
        <time>2019-08-01T10:56:41.032Z</time>
      </trkpt>
      <trkpt lat="43.01046167" lon="-1.30794667">
        <ele>1068.0</ele>
        <time>2019-08-01T10:56:42.036Z</time>
      </trkpt>
      <trkpt lat="43.010455" lon="-1.30794667">
        <ele>1067.0</ele>
        <time>2019-08-01T10:56:43.043Z</time>
      </trkpt>
      <trkpt lat="43.01044667" lon="-1.30795">
        <ele>1066.0</ele>
        <time>2019-08-01T10:56:43.923Z</time>
      </trkpt>
      <trkpt lat="43.01043833" lon="-1.30795167">
        <ele>1067.0</ele>
        <time>2019-08-01T10:56:44.931Z</time>
      </trkpt>
      <trkpt lat="43.01043167" lon="-1.307955">
        <ele>1067.0</ele>
        <time>2019-08-01T10:56:45.937Z</time>
      </trkpt>
      <trkpt lat="43.01042333" lon="-1.30795833">
        <ele>1067.0</ele>
        <time>2019-08-01T10:56:46.944Z</time>
      </trkpt>
      <trkpt lat="43.010415" lon="-1.30795667">
        <ele>1067.0</ele>
        <time>2019-08-01T10:56:47.950Z</time>
      </trkpt>
      <trkpt lat="43.01041" lon="-1.30796667">
        <ele>1066.0</ele>
        <time>2019-08-01T10:56:48.957Z</time>
      </trkpt>
      <trkpt lat="43.01040667" lon="-1.30797333">
        <ele>1066.0</ele>
        <time>2019-08-01T10:56:49.962Z</time>
      </trkpt>
      <trkpt lat="43.01040333" lon="-1.30797333">
        <ele>1065.0</ele>
        <time>2019-08-01T10:56:50.968Z</time>
      </trkpt>
      <trkpt lat="43.01039667" lon="-1.30797">
        <ele>1065.0</ele>
        <time>2019-08-01T10:56:51.975Z</time>
      </trkpt>
      <trkpt lat="43.01039333" lon="-1.30796833">
        <ele>1066.0</ele>
        <time>2019-08-01T10:56:52.981Z</time>
      </trkpt>
      <trkpt lat="43.01038667" lon="-1.30796333">
        <ele>1066.0</ele>
        <time>2019-08-01T10:56:53.986Z</time>
      </trkpt>
      <trkpt lat="43.01037833" lon="-1.30795833">
        <ele>1066.0</ele>
        <time>2019-08-01T10:56:54.992Z</time>
      </trkpt>
      <trkpt lat="43.01037167" lon="-1.30795">
        <ele>1067.0</ele>
        <time>2019-08-01T10:56:55.998Z</time>
      </trkpt>
      <trkpt lat="43.01036833" lon="-1.30794667">
        <ele>1067.0</ele>
        <time>2019-08-01T10:56:57.005Z</time>
      </trkpt>
      <trkpt lat="43.01036167" lon="-1.30795">
        <ele>1066.0</ele>
        <time>2019-08-01T10:56:58.013Z</time>
      </trkpt>
      <trkpt lat="43.010355" lon="-1.30795167">
        <ele>1066.0</ele>
        <time>2019-08-01T10:56:59.018Z</time>
      </trkpt>
      <trkpt lat="43.01034667" lon="-1.30795333">
        <ele>1066.0</ele>
        <time>2019-08-01T10:57:00.025Z</time>
      </trkpt>
      <trkpt lat="43.01033667" lon="-1.30795833">
        <ele>1065.0</ele>
        <time>2019-08-01T10:57:01.031Z</time>
      </trkpt>
      <trkpt lat="43.01032833" lon="-1.30796167">
        <ele>1064.0</ele>
        <time>2019-08-01T10:57:02.037Z</time>
      </trkpt>
      <trkpt lat="43.01031833" lon="-1.30796167">
        <ele>1064.0</ele>
        <time>2019-08-01T10:57:03.042Z</time>
      </trkpt>
      <trkpt lat="43.01031167" lon="-1.30796667">
        <ele>1063.0</ele>
        <time>2019-08-01T10:57:03.921Z</time>
      </trkpt>
      <trkpt lat="43.01030333" lon="-1.30797667">
        <ele>1063.0</ele>
        <time>2019-08-01T10:57:04.929Z</time>
      </trkpt>
      <trkpt lat="43.01029833" lon="-1.307985">
        <ele>1063.0</ele>
        <time>2019-08-01T10:57:05.936Z</time>
      </trkpt>
      <trkpt lat="43.01028833" lon="-1.30798333">
        <ele>1063.0</ele>
        <time>2019-08-01T10:57:06.943Z</time>
      </trkpt>
      <trkpt lat="43.01027833" lon="-1.30797667">
        <ele>1063.0</ele>
        <time>2019-08-01T10:57:07.949Z</time>
      </trkpt>
      <trkpt lat="43.01027" lon="-1.30797167">
        <ele>1063.0</ele>
        <time>2019-08-01T10:57:08.955Z</time>
      </trkpt>
      <trkpt lat="43.01026333" lon="-1.307975">
        <ele>1063.0</ele>
        <time>2019-08-01T10:57:09.959Z</time>
      </trkpt>
      <trkpt lat="43.010255" lon="-1.30797333">
        <ele>1063.0</ele>
        <time>2019-08-01T10:57:10.967Z</time>
      </trkpt>
      <trkpt lat="43.010245" lon="-1.30797833">
        <ele>1064.0</ele>
        <time>2019-08-01T10:57:11.972Z</time>
      </trkpt>
      <trkpt lat="43.01023667" lon="-1.30798333">
        <ele>1064.0</ele>
        <time>2019-08-01T10:57:12.976Z</time>
      </trkpt>
      <trkpt lat="43.01022833" lon="-1.30798333">
        <ele>1064.0</ele>
        <time>2019-08-01T10:57:13.982Z</time>
      </trkpt>
      <trkpt lat="43.01022167" lon="-1.30798833">
        <ele>1063.0</ele>
        <time>2019-08-01T10:57:14.990Z</time>
      </trkpt>
      <trkpt lat="43.01021667" lon="-1.30798833">
        <ele>1063.0</ele>
        <time>2019-08-01T10:57:15.997Z</time>
      </trkpt>
      <trkpt lat="43.010215" lon="-1.30799667">
        <ele>1063.0</ele>
        <time>2019-08-01T10:57:17.004Z</time>
      </trkpt>
      <trkpt lat="43.01021" lon="-1.30799833">
        <ele>1062.0</ele>
        <time>2019-08-01T10:57:18.011Z</time>
      </trkpt>
      <trkpt lat="43.01020333" lon="-1.30799667">
        <ele>1060.0</ele>
        <time>2019-08-01T10:57:19.018Z</time>
      </trkpt>
      <trkpt lat="43.01019" lon="-1.30798667">
        <ele>1059.0</ele>
        <time>2019-08-01T10:57:20.024Z</time>
      </trkpt>
      <trkpt lat="43.01018167" lon="-1.307985">
        <ele>1059.0</ele>
        <time>2019-08-01T10:57:21.030Z</time>
      </trkpt>
      <trkpt lat="43.010175" lon="-1.307985">
        <ele>1058.0</ele>
        <time>2019-08-01T10:57:22.036Z</time>
      </trkpt>
      <trkpt lat="43.01016667" lon="-1.30798333">
        <ele>1058.0</ele>
        <time>2019-08-01T10:57:23.042Z</time>
      </trkpt>
      <trkpt lat="43.01015833" lon="-1.30798167">
        <ele>1059.0</ele>
        <time>2019-08-01T10:57:23.923Z</time>
      </trkpt>
      <trkpt lat="43.01015" lon="-1.30797833">
        <ele>1059.0</ele>
        <time>2019-08-01T10:57:24.928Z</time>
      </trkpt>
      <trkpt lat="43.01014333" lon="-1.30797333">
        <ele>1060.0</ele>
        <time>2019-08-01T10:57:25.934Z</time>
      </trkpt>
      <trkpt lat="43.010135" lon="-1.30797167">
        <ele>1060.0</ele>
        <time>2019-08-01T10:57:26.940Z</time>
      </trkpt>
      <trkpt lat="43.01012667" lon="-1.30796667">
        <ele>1060.0</ele>
        <time>2019-08-01T10:57:27.946Z</time>
      </trkpt>
      <trkpt lat="43.010115" lon="-1.307965">
        <ele>1060.0</ele>
        <time>2019-08-01T10:57:28.952Z</time>
      </trkpt>
      <trkpt lat="43.010105" lon="-1.30796">
        <ele>1060.0</ele>
        <time>2019-08-01T10:57:29.958Z</time>
      </trkpt>
      <trkpt lat="43.01009667" lon="-1.30795333">
        <ele>1060.0</ele>
        <time>2019-08-01T10:57:30.965Z</time>
      </trkpt>
      <trkpt lat="43.01008667" lon="-1.30794833">
        <ele>1061.0</ele>
        <time>2019-08-01T10:57:31.971Z</time>
      </trkpt>
      <trkpt lat="43.01007" lon="-1.30794333">
        <ele>1062.0</ele>
        <time>2019-08-01T10:57:32.976Z</time>
      </trkpt>
      <trkpt lat="43.01005667" lon="-1.307945">
        <ele>1062.0</ele>
        <time>2019-08-01T10:57:33.982Z</time>
      </trkpt>
      <trkpt lat="43.010045" lon="-1.30795">
        <ele>1062.0</ele>
        <time>2019-08-01T10:57:34.987Z</time>
      </trkpt>
      <trkpt lat="43.010035" lon="-1.307955">
        <ele>1061.0</ele>
        <time>2019-08-01T10:57:35.994Z</time>
      </trkpt>
      <trkpt lat="43.01002167" lon="-1.30796167">
        <ele>1060.0</ele>
        <time>2019-08-01T10:57:37.001Z</time>
      </trkpt>
      <trkpt lat="43.01000833" lon="-1.30796833">
        <ele>1060.0</ele>
        <time>2019-08-01T10:57:38.007Z</time>
      </trkpt>
      <trkpt lat="43.00999667" lon="-1.30797667">
        <ele>1060.0</ele>
        <time>2019-08-01T10:57:39.014Z</time>
      </trkpt>
      <trkpt lat="43.009985" lon="-1.30797833">
        <ele>1060.0</ele>
        <time>2019-08-01T10:57:40.021Z</time>
      </trkpt>
      <trkpt lat="43.00997667" lon="-1.30798333">
        <ele>1061.0</ele>
        <time>2019-08-01T10:57:41.026Z</time>
      </trkpt>
      <trkpt lat="43.00996333" lon="-1.30799667">
        <ele>1061.0</ele>
        <time>2019-08-01T10:57:42.030Z</time>
      </trkpt>
      <trkpt lat="43.00995167" lon="-1.308005">
        <ele>1061.0</ele>
        <time>2019-08-01T10:57:43.035Z</time>
      </trkpt>
      <trkpt lat="43.00993833" lon="-1.30801167">
        <ele>1061.0</ele>
        <time>2019-08-01T10:57:44.041Z</time>
      </trkpt>
      <trkpt lat="43.009925" lon="-1.30801167">
        <ele>1060.0</ele>
        <time>2019-08-01T10:57:44.922Z</time>
      </trkpt>
      <trkpt lat="43.009915" lon="-1.30801667">
        <ele>1060.0</ele>
        <time>2019-08-01T10:57:45.927Z</time>
      </trkpt>
      <trkpt lat="43.009905" lon="-1.308015">
        <ele>1060.0</ele>
        <time>2019-08-01T10:57:46.934Z</time>
      </trkpt>
      <trkpt lat="43.00989167" lon="-1.30801833">
        <ele>1059.0</ele>
        <time>2019-08-01T10:57:47.939Z</time>
      </trkpt>
      <trkpt lat="43.00988333" lon="-1.30802">
        <ele>1058.0</ele>
        <time>2019-08-01T10:57:48.945Z</time>
      </trkpt>
      <trkpt lat="43.009875" lon="-1.30802">
        <ele>1057.0</ele>
        <time>2019-08-01T10:57:49.951Z</time>
      </trkpt>
      <trkpt lat="43.00986333" lon="-1.30802">
        <ele>1057.0</ele>
        <time>2019-08-01T10:57:50.957Z</time>
      </trkpt>
      <trkpt lat="43.00985" lon="-1.30801167">
        <ele>1058.0</ele>
        <time>2019-08-01T10:57:51.964Z</time>
      </trkpt>
      <trkpt lat="43.00983833" lon="-1.30800833">
        <ele>1059.0</ele>
        <time>2019-08-01T10:57:52.971Z</time>
      </trkpt>
      <trkpt lat="43.00982333" lon="-1.30800167">
        <ele>1059.0</ele>
        <time>2019-08-01T10:57:53.977Z</time>
      </trkpt>
      <trkpt lat="43.00981167" lon="-1.30799667">
        <ele>1060.0</ele>
        <time>2019-08-01T10:57:54.983Z</time>
      </trkpt>
      <trkpt lat="43.0098" lon="-1.30799333">
        <ele>1059.0</ele>
        <time>2019-08-01T10:57:55.990Z</time>
      </trkpt>
      <trkpt lat="43.009785" lon="-1.30799667">
        <ele>1058.0</ele>
        <time>2019-08-01T10:57:56.996Z</time>
      </trkpt>
      <trkpt lat="43.009775" lon="-1.30799833">
        <ele>1055.0</ele>
        <time>2019-08-01T10:57:58.002Z</time>
      </trkpt>
      <trkpt lat="43.009765" lon="-1.308005">
        <ele>1051.0</ele>
        <time>2019-08-01T10:57:59.009Z</time>
      </trkpt>
      <trkpt lat="43.00975667" lon="-1.30801167">
        <ele>1050.0</ele>
        <time>2019-08-01T10:58:00.015Z</time>
      </trkpt>
      <trkpt lat="43.00974667" lon="-1.30802833">
        <ele>1049.0</ele>
        <time>2019-08-01T10:58:01.021Z</time>
      </trkpt>
      <trkpt lat="43.00973167" lon="-1.30804667">
        <ele>1050.0</ele>
        <time>2019-08-01T10:58:02.026Z</time>
      </trkpt>
      <trkpt lat="43.00971667" lon="-1.30805833">
        <ele>1049.0</ele>
        <time>2019-08-01T10:58:03.027Z</time>
      </trkpt>
      <trkpt lat="43.009705" lon="-1.30806833">
        <ele>1049.0</ele>
        <time>2019-08-01T10:58:04.027Z</time>
      </trkpt>
      <trkpt lat="43.00969333" lon="-1.30807833">
        <ele>1049.0</ele>
        <time>2019-08-01T10:58:05.029Z</time>
      </trkpt>
      <trkpt lat="43.00968167" lon="-1.30808167">
        <ele>1046.0</ele>
        <time>2019-08-01T10:58:06.034Z</time>
      </trkpt>
      <trkpt lat="43.00967833" lon="-1.30809333">
        <ele>1045.0</ele>
        <time>2019-08-01T10:58:07.040Z</time>
      </trkpt>
      <trkpt lat="43.00967167" lon="-1.3081">
        <ele>1044.0</ele>
        <time>2019-08-01T10:58:07.921Z</time>
      </trkpt>
      <trkpt lat="43.00966833" lon="-1.30811333">
        <ele>1044.0</ele>
        <time>2019-08-01T10:58:08.925Z</time>
      </trkpt>
      <trkpt lat="43.009665" lon="-1.30812667">
        <ele>1045.0</ele>
        <time>2019-08-01T10:58:09.930Z</time>
      </trkpt>
      <trkpt lat="43.00965667" lon="-1.30813167">
        <ele>1045.0</ele>
        <time>2019-08-01T10:58:10.937Z</time>
      </trkpt>
      <trkpt lat="43.00964333" lon="-1.30813833">
        <ele>1044.0</ele>
        <time>2019-08-01T10:58:11.941Z</time>
      </trkpt>
      <trkpt lat="43.009635" lon="-1.30814">
        <ele>1045.0</ele>
        <time>2019-08-01T10:58:12.946Z</time>
      </trkpt>
      <trkpt lat="43.009625" lon="-1.30814167">
        <ele>1045.0</ele>
        <time>2019-08-01T10:58:13.950Z</time>
      </trkpt>
      <trkpt lat="43.00961333" lon="-1.30814833">
        <ele>1045.0</ele>
        <time>2019-08-01T10:58:14.958Z</time>
      </trkpt>
      <trkpt lat="43.00960333" lon="-1.30815333">
        <ele>1045.0</ele>
        <time>2019-08-01T10:58:15.965Z</time>
      </trkpt>
      <trkpt lat="43.00959167" lon="-1.30815667">
        <ele>1046.0</ele>
        <time>2019-08-01T10:58:16.972Z</time>
      </trkpt>
      <trkpt lat="43.00958167" lon="-1.30816167">
        <ele>1046.0</ele>
        <time>2019-08-01T10:58:17.978Z</time>
      </trkpt>
      <trkpt lat="43.00957167" lon="-1.30816833">
        <ele>1046.0</ele>
        <time>2019-08-01T10:58:18.985Z</time>
      </trkpt>
      <trkpt lat="43.00956167" lon="-1.308175">
        <ele>1046.0</ele>
        <time>2019-08-01T10:58:19.991Z</time>
      </trkpt>
      <trkpt lat="43.00955" lon="-1.30818">
        <ele>1046.0</ele>
        <time>2019-08-01T10:58:20.999Z</time>
      </trkpt>
      <trkpt lat="43.00953833" lon="-1.308185">
        <ele>1046.0</ele>
        <time>2019-08-01T10:58:22.006Z</time>
      </trkpt>
      <trkpt lat="43.009525" lon="-1.30819167">
        <ele>1046.0</ele>
        <time>2019-08-01T10:58:23.013Z</time>
      </trkpt>
      <trkpt lat="43.00951333" lon="-1.30819667">
        <ele>1047.0</ele>
        <time>2019-08-01T10:58:24.019Z</time>
      </trkpt>
      <trkpt lat="43.00950167" lon="-1.308205">
        <ele>1047.0</ele>
        <time>2019-08-01T10:58:25.024Z</time>
      </trkpt>
      <trkpt lat="43.00949167" lon="-1.30821167">
        <ele>1047.0</ele>
        <time>2019-08-01T10:58:26.031Z</time>
      </trkpt>
      <trkpt lat="43.00948167" lon="-1.30821833">
        <ele>1047.0</ele>
        <time>2019-08-01T10:58:27.037Z</time>
      </trkpt>
      <trkpt lat="43.009475" lon="-1.30822333">
        <ele>1047.0</ele>
        <time>2019-08-01T10:58:28.043Z</time>
      </trkpt>
      <trkpt lat="43.009465" lon="-1.30822833">
        <ele>1047.0</ele>
        <time>2019-08-01T10:58:28.922Z</time>
      </trkpt>
      <trkpt lat="43.00946" lon="-1.30823333">
        <ele>1047.0</ele>
        <time>2019-08-01T10:58:29.928Z</time>
      </trkpt>
      <trkpt lat="43.00945333" lon="-1.308245">
        <ele>1047.0</ele>
        <time>2019-08-01T10:58:30.931Z</time>
      </trkpt>
      <trkpt lat="43.00944333" lon="-1.30825833">
        <ele>1046.0</ele>
        <time>2019-08-01T10:58:31.936Z</time>
      </trkpt>
      <trkpt lat="43.00943333" lon="-1.30826667">
        <ele>1046.0</ele>
        <time>2019-08-01T10:58:32.942Z</time>
      </trkpt>
      <trkpt lat="43.00942333" lon="-1.308275">
        <ele>1046.0</ele>
        <time>2019-08-01T10:58:33.948Z</time>
      </trkpt>
      <trkpt lat="43.00942" lon="-1.30828333">
        <ele>1045.0</ele>
        <time>2019-08-01T10:58:34.953Z</time>
      </trkpt>
      <trkpt lat="43.00941333" lon="-1.30829667">
        <ele>1045.0</ele>
        <time>2019-08-01T10:58:35.960Z</time>
      </trkpt>
      <trkpt lat="43.00940333" lon="-1.30830833">
        <ele>1045.0</ele>
        <time>2019-08-01T10:58:36.964Z</time>
      </trkpt>
      <trkpt lat="43.00939667" lon="-1.30831833">
        <ele>1046.0</ele>
        <time>2019-08-01T10:58:37.969Z</time>
      </trkpt>
      <trkpt lat="43.00939167" lon="-1.308325">
        <ele>1046.0</ele>
        <time>2019-08-01T10:58:38.976Z</time>
      </trkpt>
      <trkpt lat="43.00938" lon="-1.30833333">
        <ele>1047.0</ele>
        <time>2019-08-01T10:58:39.982Z</time>
      </trkpt>
      <trkpt lat="43.00936833" lon="-1.30833667">
        <ele>1047.0</ele>
        <time>2019-08-01T10:58:40.986Z</time>
      </trkpt>
      <trkpt lat="43.00935833" lon="-1.30834333">
        <ele>1047.0</ele>
        <time>2019-08-01T10:58:41.991Z</time>
      </trkpt>
      <trkpt lat="43.00935667" lon="-1.308355">
        <ele>1047.0</ele>
        <time>2019-08-01T10:58:42.998Z</time>
      </trkpt>
      <trkpt lat="43.00934667" lon="-1.30836333">
        <ele>1046.0</ele>
        <time>2019-08-01T10:58:44.005Z</time>
      </trkpt>
      <trkpt lat="43.00933667" lon="-1.30836833">
        <ele>1044.0</ele>
        <time>2019-08-01T10:58:45.007Z</time>
      </trkpt>
      <trkpt lat="43.00933167" lon="-1.30837">
        <ele>1043.0</ele>
        <time>2019-08-01T10:58:46.012Z</time>
      </trkpt>
      <trkpt lat="43.00932333" lon="-1.30837167">
        <ele>1043.0</ele>
        <time>2019-08-01T10:58:47.019Z</time>
      </trkpt>
      <trkpt lat="43.009315" lon="-1.30836333">
        <ele>1043.0</ele>
        <time>2019-08-01T10:58:48.026Z</time>
      </trkpt>
      <trkpt lat="43.00930667" lon="-1.30836">
        <ele>1043.0</ele>
        <time>2019-08-01T10:58:49.031Z</time>
      </trkpt>
      <trkpt lat="43.00929667" lon="-1.30835667">
        <ele>1043.0</ele>
        <time>2019-08-01T10:58:50.037Z</time>
      </trkpt>
      <trkpt lat="43.009285" lon="-1.30835667">
        <ele>1044.0</ele>
        <time>2019-08-01T10:58:51.043Z</time>
      </trkpt>
      <trkpt lat="43.009275" lon="-1.30835667">
        <ele>1044.0</ele>
        <time>2019-08-01T10:58:51.922Z</time>
      </trkpt>
      <trkpt lat="43.009265" lon="-1.30835333">
        <ele>1044.0</ele>
        <time>2019-08-01T10:58:52.929Z</time>
      </trkpt>
      <trkpt lat="43.00925333" lon="-1.30835167">
        <ele>1044.0</ele>
        <time>2019-08-01T10:58:53.934Z</time>
      </trkpt>
      <trkpt lat="43.00924" lon="-1.30835167">
        <ele>1045.0</ele>
        <time>2019-08-01T10:58:54.940Z</time>
      </trkpt>
      <trkpt lat="43.00923333" lon="-1.30835167">
        <ele>1045.0</ele>
        <time>2019-08-01T10:58:55.946Z</time>
      </trkpt>
      <trkpt lat="43.009225" lon="-1.30835333">
        <ele>1045.0</ele>
        <time>2019-08-01T10:58:56.951Z</time>
      </trkpt>
      <trkpt lat="43.00921833" lon="-1.308355">
        <ele>1045.0</ele>
        <time>2019-08-01T10:58:57.956Z</time>
      </trkpt>
      <trkpt lat="43.00921333" lon="-1.308355">
        <ele>1045.0</ele>
        <time>2019-08-01T10:58:58.962Z</time>
      </trkpt>
      <trkpt lat="43.009205" lon="-1.308355">
        <ele>1044.0</ele>
        <time>2019-08-01T10:58:59.968Z</time>
      </trkpt>
      <trkpt lat="43.00919667" lon="-1.30835333">
        <ele>1043.0</ele>
        <time>2019-08-01T10:59:00.974Z</time>
      </trkpt>
      <trkpt lat="43.00918833" lon="-1.30835">
        <ele>1043.0</ele>
        <time>2019-08-01T10:59:01.980Z</time>
      </trkpt>
      <trkpt lat="43.00917667" lon="-1.30834667">
        <ele>1043.0</ele>
        <time>2019-08-01T10:59:02.988Z</time>
      </trkpt>
      <trkpt lat="43.00916333" lon="-1.30834167">
        <ele>1043.0</ele>
        <time>2019-08-01T10:59:03.994Z</time>
      </trkpt>
      <trkpt lat="43.00915" lon="-1.30834167">
        <ele>1042.0</ele>
        <time>2019-08-01T10:59:05.000Z</time>
      </trkpt>
      <trkpt lat="43.00914167" lon="-1.30834">
        <ele>1042.0</ele>
        <time>2019-08-01T10:59:06.007Z</time>
      </trkpt>
      <trkpt lat="43.00913167" lon="-1.30833833">
        <ele>1041.0</ele>
        <time>2019-08-01T10:59:07.012Z</time>
      </trkpt>
      <trkpt lat="43.009115" lon="-1.30833333">
        <ele>1041.0</ele>
        <time>2019-08-01T10:59:08.017Z</time>
      </trkpt>
      <trkpt lat="43.00910167" lon="-1.30832833">
        <ele>1041.0</ele>
        <time>2019-08-01T10:59:09.023Z</time>
      </trkpt>
      <trkpt lat="43.00909333" lon="-1.30832333">
        <ele>1040.0</ele>
        <time>2019-08-01T10:59:10.031Z</time>
      </trkpt>
      <trkpt lat="43.00908167" lon="-1.30831667">
        <ele>1040.0</ele>
        <time>2019-08-01T10:59:11.035Z</time>
      </trkpt>
      <trkpt lat="43.00907" lon="-1.30830667">
        <ele>1041.0</ele>
        <time>2019-08-01T10:59:12.041Z</time>
      </trkpt>
      <trkpt lat="43.00905833" lon="-1.30829333">
        <ele>1041.0</ele>
        <time>2019-08-01T10:59:12.921Z</time>
      </trkpt>
      <trkpt lat="43.00904833" lon="-1.30828167">
        <ele>1041.0</ele>
        <time>2019-08-01T10:59:13.926Z</time>
      </trkpt>
      <trkpt lat="43.00903833" lon="-1.30827">
        <ele>1042.0</ele>
        <time>2019-08-01T10:59:14.931Z</time>
      </trkpt>
      <trkpt lat="43.00902833" lon="-1.30826333">
        <ele>1043.0</ele>
        <time>2019-08-01T10:59:15.937Z</time>
      </trkpt>
      <trkpt lat="43.00901667" lon="-1.30825833">
        <ele>1043.0</ele>
        <time>2019-08-01T10:59:16.942Z</time>
      </trkpt>
      <trkpt lat="43.009005" lon="-1.30826167">
        <ele>1043.0</ele>
        <time>2019-08-01T10:59:17.946Z</time>
      </trkpt>
      <trkpt lat="43.00899333" lon="-1.308265">
        <ele>1043.0</ele>
        <time>2019-08-01T10:59:18.949Z</time>
      </trkpt>
      <trkpt lat="43.00898333" lon="-1.30827167">
        <ele>1043.0</ele>
        <time>2019-08-01T10:59:19.955Z</time>
      </trkpt>
      <trkpt lat="43.00896833" lon="-1.30827667">
        <ele>1043.0</ele>
        <time>2019-08-01T10:59:20.960Z</time>
      </trkpt>
      <trkpt lat="43.00895833" lon="-1.30828333">
        <ele>1042.0</ele>
        <time>2019-08-01T10:59:21.965Z</time>
      </trkpt>
      <trkpt lat="43.00894833" lon="-1.30829167">
        <ele>1042.0</ele>
        <time>2019-08-01T10:59:22.971Z</time>
      </trkpt>
      <trkpt lat="43.00894167" lon="-1.30830167">
        <ele>1042.0</ele>
        <time>2019-08-01T10:59:23.977Z</time>
      </trkpt>
      <trkpt lat="43.00893" lon="-1.30830833">
        <ele>1042.0</ele>
        <time>2019-08-01T10:59:24.983Z</time>
      </trkpt>
      <trkpt lat="43.00892" lon="-1.30832">
        <ele>1042.0</ele>
        <time>2019-08-01T10:59:25.989Z</time>
      </trkpt>
      <trkpt lat="43.00890833" lon="-1.30833167">
        <ele>1041.0</ele>
        <time>2019-08-01T10:59:26.993Z</time>
      </trkpt>
      <trkpt lat="43.00889667" lon="-1.30834167">
        <ele>1041.0</ele>
        <time>2019-08-01T10:59:27.997Z</time>
      </trkpt>
      <trkpt lat="43.00888833" lon="-1.30835">
        <ele>1041.0</ele>
        <time>2019-08-01T10:59:29.003Z</time>
      </trkpt>
      <trkpt lat="43.00887667" lon="-1.30836333">
        <ele>1041.0</ele>
        <time>2019-08-01T10:59:30.009Z</time>
      </trkpt>
      <trkpt lat="43.008865" lon="-1.30837667">
        <ele>1041.0</ele>
        <time>2019-08-01T10:59:31.015Z</time>
      </trkpt>
      <trkpt lat="43.008855" lon="-1.30839667">
        <ele>1041.0</ele>
        <time>2019-08-01T10:59:32.020Z</time>
      </trkpt>
      <trkpt lat="43.00884833" lon="-1.30841">
        <ele>1040.0</ele>
        <time>2019-08-01T10:59:33.026Z</time>
      </trkpt>
      <trkpt lat="43.00883833" lon="-1.30842333">
        <ele>1039.0</ele>
        <time>2019-08-01T10:59:34.031Z</time>
      </trkpt>
      <trkpt lat="43.00883" lon="-1.30843667">
        <ele>1039.0</ele>
        <time>2019-08-01T10:59:35.037Z</time>
      </trkpt>
      <trkpt lat="43.00882333" lon="-1.30845">
        <ele>1039.0</ele>
        <time>2019-08-01T10:59:35.918Z</time>
      </trkpt>
      <trkpt lat="43.00882167" lon="-1.30847">
        <ele>1038.0</ele>
        <time>2019-08-01T10:59:36.924Z</time>
      </trkpt>
      <trkpt lat="43.00881833" lon="-1.30848167">
        <ele>1038.0</ele>
        <time>2019-08-01T10:59:37.930Z</time>
      </trkpt>
      <trkpt lat="43.00881333" lon="-1.30849833">
        <ele>1037.0</ele>
        <time>2019-08-01T10:59:38.936Z</time>
      </trkpt>
      <trkpt lat="43.00881" lon="-1.308515">
        <ele>1037.0</ele>
        <time>2019-08-01T10:59:39.941Z</time>
      </trkpt>
      <trkpt lat="43.00880667" lon="-1.30853167">
        <ele>1035.0</ele>
        <time>2019-08-01T10:59:40.947Z</time>
      </trkpt>
      <trkpt lat="43.0088" lon="-1.30855">
        <ele>1035.0</ele>
        <time>2019-08-01T10:59:41.953Z</time>
      </trkpt>
      <trkpt lat="43.00879667" lon="-1.30857167">
        <ele>1034.0</ele>
        <time>2019-08-01T10:59:42.959Z</time>
      </trkpt>
      <trkpt lat="43.00879333" lon="-1.308595">
        <ele>1034.0</ele>
        <time>2019-08-01T10:59:43.966Z</time>
      </trkpt>
      <trkpt lat="43.00878833" lon="-1.30861833">
        <ele>1034.0</ele>
        <time>2019-08-01T10:59:44.971Z</time>
      </trkpt>
      <trkpt lat="43.00878167" lon="-1.30863833">
        <ele>1034.0</ele>
        <time>2019-08-01T10:59:45.976Z</time>
      </trkpt>
      <trkpt lat="43.00877833" lon="-1.308655">
        <ele>1034.0</ele>
        <time>2019-08-01T10:59:46.982Z</time>
      </trkpt>
      <trkpt lat="43.00877667" lon="-1.308675">
        <ele>1033.0</ele>
        <time>2019-08-01T10:59:47.989Z</time>
      </trkpt>
      <trkpt lat="43.00877333" lon="-1.30868833">
        <ele>1033.0</ele>
        <time>2019-08-01T10:59:48.993Z</time>
      </trkpt>
      <trkpt lat="43.00876167" lon="-1.30869667">
        <ele>1034.0</ele>
        <time>2019-08-01T10:59:49.999Z</time>
      </trkpt>
      <trkpt lat="43.00875" lon="-1.30871">
        <ele>1035.0</ele>
        <time>2019-08-01T10:59:51.006Z</time>
      </trkpt>
      <trkpt lat="43.00874" lon="-1.30872167">
        <ele>1035.0</ele>
        <time>2019-08-01T10:59:52.012Z</time>
      </trkpt>
      <trkpt lat="43.00872833" lon="-1.30873667">
        <ele>1033.0</ele>
        <time>2019-08-01T10:59:53.016Z</time>
      </trkpt>
      <trkpt lat="43.008725" lon="-1.30877167">
        <ele>1032.0</ele>
        <time>2019-08-01T10:59:54.021Z</time>
      </trkpt>
      <trkpt lat="43.00872667" lon="-1.30878833">
        <ele>1032.0</ele>
        <time>2019-08-01T10:59:55.027Z</time>
      </trkpt>
      <trkpt lat="43.00872667" lon="-1.308815">
        <ele>1033.0</ele>
        <time>2019-08-01T10:59:56.033Z</time>
      </trkpt>
      <trkpt lat="43.00872833" lon="-1.308825">
        <ele>1033.0</ele>
        <time>2019-08-01T10:59:57.039Z</time>
      </trkpt>
      <trkpt lat="43.00872833" lon="-1.30883833">
        <ele>1032.0</ele>
        <time>2019-08-01T10:59:57.920Z</time>
      </trkpt>
      <trkpt lat="43.00872667" lon="-1.308855">
        <ele>1032.0</ele>
        <time>2019-08-01T10:59:58.928Z</time>
      </trkpt>
      <trkpt lat="43.00872333" lon="-1.30887">
        <ele>1032.0</ele>
        <time>2019-08-01T10:59:59.934Z</time>
      </trkpt>
      <trkpt lat="43.00872" lon="-1.30888333">
        <ele>1031.0</ele>
        <time>2019-08-01T11:00:00.942Z</time>
      </trkpt>
      <trkpt lat="43.00871333" lon="-1.30889333">
        <ele>1032.0</ele>
        <time>2019-08-01T11:00:01.948Z</time>
      </trkpt>
      <trkpt lat="43.00870833" lon="-1.3089">
        <ele>1031.0</ele>
        <time>2019-08-01T11:00:02.953Z</time>
      </trkpt>
      <trkpt lat="43.00870333" lon="-1.308905">
        <ele>1031.0</ele>
        <time>2019-08-01T11:00:03.959Z</time>
      </trkpt>
      <trkpt lat="43.00869667" lon="-1.30890667">
        <ele>1031.0</ele>
        <time>2019-08-01T11:00:04.966Z</time>
      </trkpt>
      <trkpt lat="43.00869167" lon="-1.30890833">
        <ele>1031.0</ele>
        <time>2019-08-01T11:00:05.971Z</time>
      </trkpt>
      <trkpt lat="43.00868833" lon="-1.30891667">
        <ele>1031.0</ele>
        <time>2019-08-01T11:00:06.977Z</time>
      </trkpt>
      <trkpt lat="43.00868333" lon="-1.30893">
        <ele>1030.0</ele>
        <time>2019-08-01T11:00:07.983Z</time>
      </trkpt>
      <trkpt lat="43.00867833" lon="-1.30894">
        <ele>1030.0</ele>
        <time>2019-08-01T11:00:08.989Z</time>
      </trkpt>
      <trkpt lat="43.00867" lon="-1.30895833">
        <ele>1030.0</ele>
        <time>2019-08-01T11:00:09.995Z</time>
      </trkpt>
      <trkpt lat="43.008665" lon="-1.30897333">
        <ele>1030.0</ele>
        <time>2019-08-01T11:00:10.999Z</time>
      </trkpt>
      <trkpt lat="43.00865667" lon="-1.30898667">
        <ele>1030.0</ele>
        <time>2019-08-01T11:00:12.007Z</time>
      </trkpt>
      <trkpt lat="43.008645" lon="-1.30899833">
        <ele>1030.0</ele>
        <time>2019-08-01T11:00:13.014Z</time>
      </trkpt>
      <trkpt lat="43.00863333" lon="-1.309015">
        <ele>1031.0</ele>
        <time>2019-08-01T11:00:14.021Z</time>
      </trkpt>
      <trkpt lat="43.00862167" lon="-1.309025">
        <ele>1031.0</ele>
        <time>2019-08-01T11:00:15.029Z</time>
      </trkpt>
      <trkpt lat="43.00861167" lon="-1.309035">
        <ele>1031.0</ele>
        <time>2019-08-01T11:00:16.036Z</time>
      </trkpt>
      <trkpt lat="43.00860333" lon="-1.30905">
        <ele>1030.0</ele>
        <time>2019-08-01T11:00:17.043Z</time>
      </trkpt>
      <trkpt lat="43.008595" lon="-1.30906667">
        <ele>1030.0</ele>
        <time>2019-08-01T11:00:17.924Z</time>
      </trkpt>
      <trkpt lat="43.00859" lon="-1.30908333">
        <ele>1029.0</ele>
        <time>2019-08-01T11:00:18.930Z</time>
      </trkpt>
      <trkpt lat="43.00858667" lon="-1.30910333">
        <ele>1029.0</ele>
        <time>2019-08-01T11:00:19.935Z</time>
      </trkpt>
      <trkpt lat="43.00858167" lon="-1.30911833">
        <ele>1027.0</ele>
        <time>2019-08-01T11:00:20.940Z</time>
      </trkpt>
      <trkpt lat="43.00857833" lon="-1.30913667">
        <ele>1026.0</ele>
        <time>2019-08-01T11:00:21.947Z</time>
      </trkpt>
      <trkpt lat="43.00857667" lon="-1.309155">
        <ele>1025.0</ele>
        <time>2019-08-01T11:00:22.953Z</time>
      </trkpt>
      <trkpt lat="43.008575" lon="-1.309175">
        <ele>1024.0</ele>
        <time>2019-08-01T11:00:23.959Z</time>
      </trkpt>
      <trkpt lat="43.00857333" lon="-1.30918333">
        <ele>1024.0</ele>
        <time>2019-08-01T11:00:24.963Z</time>
      </trkpt>
      <trkpt lat="43.00857" lon="-1.30918833">
        <ele>1023.0</ele>
        <time>2019-08-01T11:00:25.969Z</time>
      </trkpt>
      <trkpt lat="43.00856667" lon="-1.30920167">
        <ele>1022.0</ele>
        <time>2019-08-01T11:00:26.975Z</time>
      </trkpt>
      <trkpt lat="43.00856167" lon="-1.309215">
        <ele>1022.0</ele>
        <time>2019-08-01T11:00:27.981Z</time>
      </trkpt>
      <trkpt lat="43.00855667" lon="-1.30923333">
        <ele>1022.0</ele>
        <time>2019-08-01T11:00:28.986Z</time>
      </trkpt>
      <trkpt lat="43.00855167" lon="-1.30924833">
        <ele>1022.0</ele>
        <time>2019-08-01T11:00:29.991Z</time>
      </trkpt>
      <trkpt lat="43.00854167" lon="-1.30926333">
        <ele>1022.0</ele>
        <time>2019-08-01T11:00:30.996Z</time>
      </trkpt>
      <trkpt lat="43.008535" lon="-1.30927833">
        <ele>1022.0</ele>
        <time>2019-08-01T11:00:32.003Z</time>
      </trkpt>
      <trkpt lat="43.00852667" lon="-1.309295">
        <ele>1022.0</ele>
        <time>2019-08-01T11:00:33.007Z</time>
      </trkpt>
      <trkpt lat="43.00852" lon="-1.30931167">
        <ele>1022.0</ele>
        <time>2019-08-01T11:00:34.014Z</time>
      </trkpt>
      <trkpt lat="43.00851333" lon="-1.30932167">
        <ele>1023.0</ele>
        <time>2019-08-01T11:00:35.021Z</time>
      </trkpt>
      <trkpt lat="43.008505" lon="-1.30933">
        <ele>1023.0</ele>
        <time>2019-08-01T11:00:36.027Z</time>
      </trkpt>
      <trkpt lat="43.00849833" lon="-1.30933667">
        <ele>1023.0</ele>
        <time>2019-08-01T11:00:37.034Z</time>
      </trkpt>
      <trkpt lat="43.00849" lon="-1.30935">
        <ele>1023.0</ele>
        <time>2019-08-01T11:00:38.042Z</time>
      </trkpt>
      <trkpt lat="43.00848667" lon="-1.30935833">
        <ele>1023.0</ele>
        <time>2019-08-01T11:00:38.921Z</time>
      </trkpt>
      <trkpt lat="43.00848333" lon="-1.30936167">
        <ele>1023.0</ele>
        <time>2019-08-01T11:00:39.928Z</time>
      </trkpt>
      <trkpt lat="43.008475" lon="-1.30937">
        <ele>1023.0</ele>
        <time>2019-08-01T11:00:40.936Z</time>
      </trkpt>
      <trkpt lat="43.00846667" lon="-1.30938167">
        <ele>1023.0</ele>
        <time>2019-08-01T11:00:41.941Z</time>
      </trkpt>
      <trkpt lat="43.00846333" lon="-1.30939333">
        <ele>1022.0</ele>
        <time>2019-08-01T11:00:42.948Z</time>
      </trkpt>
      <trkpt lat="43.00846167" lon="-1.309405">
        <ele>1021.0</ele>
        <time>2019-08-01T11:00:43.952Z</time>
      </trkpt>
      <trkpt lat="43.00845833" lon="-1.30942">
        <ele>1020.0</ele>
        <time>2019-08-01T11:00:44.958Z</time>
      </trkpt>
      <trkpt lat="43.00845333" lon="-1.30943">
        <ele>1019.0</ele>
        <time>2019-08-01T11:00:45.962Z</time>
      </trkpt>
      <trkpt lat="43.00844667" lon="-1.30943833">
        <ele>1019.0</ele>
        <time>2019-08-01T11:00:46.966Z</time>
      </trkpt>
      <trkpt lat="43.00844167" lon="-1.30945">
        <ele>1019.0</ele>
        <time>2019-08-01T11:00:47.973Z</time>
      </trkpt>
      <trkpt lat="43.00843167" lon="-1.30946">
        <ele>1019.0</ele>
        <time>2019-08-01T11:00:48.978Z</time>
      </trkpt>
      <trkpt lat="43.00842" lon="-1.30947667">
        <ele>1020.0</ele>
        <time>2019-08-01T11:00:49.985Z</time>
      </trkpt>
      <trkpt lat="43.00840667" lon="-1.30948667">
        <ele>1019.0</ele>
        <time>2019-08-01T11:00:50.990Z</time>
      </trkpt>
      <trkpt lat="43.00839833" lon="-1.30949667">
        <ele>1019.0</ele>
        <time>2019-08-01T11:00:51.996Z</time>
      </trkpt>
      <trkpt lat="43.00838667" lon="-1.30950167">
        <ele>1020.0</ele>
        <time>2019-08-01T11:00:53.000Z</time>
      </trkpt>
      <trkpt lat="43.00837667" lon="-1.30951">
        <ele>1021.0</ele>
        <time>2019-08-01T11:00:54.006Z</time>
      </trkpt>
      <trkpt lat="43.00837167" lon="-1.30953167">
        <ele>1021.0</ele>
        <time>2019-08-01T11:00:55.012Z</time>
      </trkpt>
      <trkpt lat="43.00836167" lon="-1.30954833">
        <ele>1022.0</ele>
        <time>2019-08-01T11:00:56.019Z</time>
      </trkpt>
      <trkpt lat="43.00834667" lon="-1.30956333">
        <ele>1024.0</ele>
        <time>2019-08-01T11:00:57.024Z</time>
      </trkpt>
      <trkpt lat="43.00833" lon="-1.30957333">
        <ele>1025.0</ele>
        <time>2019-08-01T11:00:58.031Z</time>
      </trkpt>
      <trkpt lat="43.00831833" lon="-1.30958833">
        <ele>1024.0</ele>
        <time>2019-08-01T11:00:59.038Z</time>
      </trkpt>
      <trkpt lat="43.00830333" lon="-1.3096">
        <ele>1023.0</ele>
        <time>2019-08-01T11:01:00.043Z</time>
      </trkpt>
      <trkpt lat="43.00829167" lon="-1.309625">
        <ele>1024.0</ele>
        <time>2019-08-01T11:01:00.924Z</time>
      </trkpt>
      <trkpt lat="43.00828333" lon="-1.30963667">
        <ele>1026.0</ele>
        <time>2019-08-01T11:01:01.931Z</time>
      </trkpt>
      <trkpt lat="43.00828" lon="-1.30964167">
        <ele>1027.0</ele>
        <time>2019-08-01T11:01:02.937Z</time>
      </trkpt>
      <trkpt lat="43.00827333" lon="-1.30964667">
        <ele>1027.0</ele>
        <time>2019-08-01T11:01:03.943Z</time>
      </trkpt>
      <trkpt lat="43.00827167" lon="-1.309645">
        <ele>1029.0</ele>
        <time>2019-08-01T11:01:04.948Z</time>
      </trkpt>
      <trkpt lat="43.00826833" lon="-1.30965">
        <ele>1030.0</ele>
        <time>2019-08-01T11:01:05.953Z</time>
      </trkpt>
      <trkpt lat="43.00825833" lon="-1.30966167">
        <ele>1031.0</ele>
        <time>2019-08-01T11:01:06.959Z</time>
      </trkpt>
      <trkpt lat="43.00824833" lon="-1.30967833">
        <ele>1032.0</ele>
        <time>2019-08-01T11:01:07.967Z</time>
      </trkpt>
      <trkpt lat="43.00824333" lon="-1.309685">
        <ele>1033.0</ele>
        <time>2019-08-01T11:01:08.972Z</time>
      </trkpt>
      <trkpt lat="43.00823333" lon="-1.30969333">
        <ele>1033.0</ele>
        <time>2019-08-01T11:01:09.977Z</time>
      </trkpt>
      <trkpt lat="43.00822667" lon="-1.30969833">
        <ele>1032.0</ele>
        <time>2019-08-01T11:01:10.980Z</time>
      </trkpt>
      <trkpt lat="43.00822" lon="-1.3097">
        <ele>1032.0</ele>
        <time>2019-08-01T11:01:11.983Z</time>
      </trkpt>
      <trkpt lat="43.008215" lon="-1.30970167">
        <ele>1032.0</ele>
        <time>2019-08-01T11:01:12.988Z</time>
      </trkpt>
      <trkpt lat="43.00820833" lon="-1.30970833">
        <ele>1032.0</ele>
        <time>2019-08-01T11:01:13.993Z</time>
      </trkpt>
      <trkpt lat="43.0082" lon="-1.309715">
        <ele>1032.0</ele>
        <time>2019-08-01T11:01:14.998Z</time>
      </trkpt>
      <trkpt lat="43.00819" lon="-1.30972333">
        <ele>1031.0</ele>
        <time>2019-08-01T11:01:16.006Z</time>
      </trkpt>
      <trkpt lat="43.00818" lon="-1.30972667">
        <ele>1030.0</ele>
        <time>2019-08-01T11:01:17.012Z</time>
      </trkpt>
      <trkpt lat="43.00817667" lon="-1.30973">
        <ele>1030.0</ele>
        <time>2019-08-01T11:01:18.019Z</time>
      </trkpt>
      <trkpt lat="43.00817" lon="-1.30973333">
        <ele>1029.0</ele>
        <time>2019-08-01T11:01:19.026Z</time>
      </trkpt>
      <trkpt lat="43.008165" lon="-1.30973667">
        <ele>1028.0</ele>
        <time>2019-08-01T11:01:20.030Z</time>
      </trkpt>
      <trkpt lat="43.00815667" lon="-1.30974">
        <ele>1027.0</ele>
        <time>2019-08-01T11:01:21.036Z</time>
      </trkpt>
      <trkpt lat="43.00814833" lon="-1.30974333">
        <ele>1027.0</ele>
        <time>2019-08-01T11:01:22.040Z</time>
      </trkpt>
      <trkpt lat="43.00813833" lon="-1.30974333">
        <ele>1027.0</ele>
        <time>2019-08-01T11:01:22.920Z</time>
      </trkpt>
      <trkpt lat="43.00813" lon="-1.309745">
        <ele>1027.0</ele>
        <time>2019-08-01T11:01:23.926Z</time>
      </trkpt>
      <trkpt lat="43.00812333" lon="-1.30973833">
        <ele>1027.0</ele>
        <time>2019-08-01T11:01:24.933Z</time>
      </trkpt>
      <trkpt lat="43.00811667" lon="-1.30972667">
        <ele>1027.0</ele>
        <time>2019-08-01T11:01:25.939Z</time>
      </trkpt>
      <trkpt lat="43.00810833" lon="-1.30972667">
        <ele>1026.0</ele>
        <time>2019-08-01T11:01:26.944Z</time>
      </trkpt>
      <trkpt lat="43.00809333" lon="-1.30972833">
        <ele>1025.0</ele>
        <time>2019-08-01T11:01:27.950Z</time>
      </trkpt>
      <trkpt lat="43.00808333" lon="-1.30972833">
        <ele>1025.0</ele>
        <time>2019-08-01T11:01:28.957Z</time>
      </trkpt>
      <trkpt lat="43.00807167" lon="-1.30973">
        <ele>1024.0</ele>
        <time>2019-08-01T11:01:29.962Z</time>
      </trkpt>
      <trkpt lat="43.00806167" lon="-1.30973667">
        <ele>1024.0</ele>
        <time>2019-08-01T11:01:30.968Z</time>
      </trkpt>
      <trkpt lat="43.00805" lon="-1.30973833">
        <ele>1025.0</ele>
        <time>2019-08-01T11:01:31.971Z</time>
      </trkpt>
      <trkpt lat="43.00804" lon="-1.30974167">
        <ele>1025.0</ele>
        <time>2019-08-01T11:01:32.978Z</time>
      </trkpt>
      <trkpt lat="43.00803167" lon="-1.30974333">
        <ele>1025.0</ele>
        <time>2019-08-01T11:01:33.985Z</time>
      </trkpt>
      <trkpt lat="43.00802333" lon="-1.309745">
        <ele>1024.0</ele>
        <time>2019-08-01T11:01:34.990Z</time>
      </trkpt>
      <trkpt lat="43.00801667" lon="-1.30974667">
        <ele>1024.0</ele>
        <time>2019-08-01T11:01:35.994Z</time>
      </trkpt>
      <trkpt lat="43.00801" lon="-1.30975167">
        <ele>1024.0</ele>
        <time>2019-08-01T11:01:36.999Z</time>
      </trkpt>
      <trkpt lat="43.008005" lon="-1.30975833">
        <ele>1023.0</ele>
        <time>2019-08-01T11:01:38.005Z</time>
      </trkpt>
      <trkpt lat="43.00799833" lon="-1.30976">
        <ele>1023.0</ele>
        <time>2019-08-01T11:01:39.012Z</time>
      </trkpt>
      <trkpt lat="43.00799333" lon="-1.30976167">
        <ele>1022.0</ele>
        <time>2019-08-01T11:01:40.020Z</time>
      </trkpt>
      <trkpt lat="43.007985" lon="-1.309765">
        <ele>1021.0</ele>
        <time>2019-08-01T11:01:41.028Z</time>
      </trkpt>
      <trkpt lat="43.007975" lon="-1.30977167">
        <ele>1020.0</ele>
        <time>2019-08-01T11:01:42.033Z</time>
      </trkpt>
      <trkpt lat="43.00796333" lon="-1.309775">
        <ele>1020.0</ele>
        <time>2019-08-01T11:01:43.039Z</time>
      </trkpt>
      <trkpt lat="43.00795167" lon="-1.30977833">
        <ele>1019.0</ele>
        <time>2019-08-01T11:01:44.043Z</time>
      </trkpt>
      <trkpt lat="43.00793833" lon="-1.30978167">
        <ele>1019.0</ele>
        <time>2019-08-01T11:01:44.924Z</time>
      </trkpt>
      <trkpt lat="43.007925" lon="-1.30979167">
        <ele>1019.0</ele>
        <time>2019-08-01T11:01:45.929Z</time>
      </trkpt>
      <trkpt lat="43.00791167" lon="-1.30980167">
        <ele>1018.0</ele>
        <time>2019-08-01T11:01:46.935Z</time>
      </trkpt>
      <trkpt lat="43.00790333" lon="-1.30981333">
        <ele>1018.0</ele>
        <time>2019-08-01T11:01:47.939Z</time>
      </trkpt>
      <trkpt lat="43.007895" lon="-1.30982833">
        <ele>1016.0</ele>
        <time>2019-08-01T11:01:48.946Z</time>
      </trkpt>
      <trkpt lat="43.00788667" lon="-1.30984333">
        <ele>1015.0</ele>
        <time>2019-08-01T11:01:49.951Z</time>
      </trkpt>
      <trkpt lat="43.00787667" lon="-1.30985167">
        <ele>1014.0</ele>
        <time>2019-08-01T11:01:50.958Z</time>
      </trkpt>
      <trkpt lat="43.00786333" lon="-1.30986">
        <ele>1013.0</ele>
        <time>2019-08-01T11:01:51.964Z</time>
      </trkpt>
      <trkpt lat="43.00784667" lon="-1.30987333">
        <ele>1013.0</ele>
        <time>2019-08-01T11:01:52.968Z</time>
      </trkpt>
      <trkpt lat="43.00783333" lon="-1.30988">
        <ele>1013.0</ele>
        <time>2019-08-01T11:01:53.973Z</time>
      </trkpt>
      <trkpt lat="43.00781833" lon="-1.30988333">
        <ele>1013.0</ele>
        <time>2019-08-01T11:01:54.977Z</time>
      </trkpt>
      <trkpt lat="43.00780667" lon="-1.309905">
        <ele>1012.0</ele>
        <time>2019-08-01T11:01:55.981Z</time>
      </trkpt>
      <trkpt lat="43.007795" lon="-1.30991833">
        <ele>1011.0</ele>
        <time>2019-08-01T11:01:56.987Z</time>
      </trkpt>
      <trkpt lat="43.00778667" lon="-1.30993667">
        <ele>1009.0</ele>
        <time>2019-08-01T11:01:57.992Z</time>
      </trkpt>
      <trkpt lat="43.00777667" lon="-1.30996167">
        <ele>1009.0</ele>
        <time>2019-08-01T11:01:58.999Z</time>
      </trkpt>
      <trkpt lat="43.00776333" lon="-1.30997333">
        <ele>1009.0</ele>
        <time>2019-08-01T11:02:00.003Z</time>
      </trkpt>
      <trkpt lat="43.00774667" lon="-1.30998">
        <ele>1009.0</ele>
        <time>2019-08-01T11:02:01.010Z</time>
      </trkpt>
      <trkpt lat="43.00772667" lon="-1.30998">
        <ele>1009.0</ele>
        <time>2019-08-01T11:02:02.016Z</time>
      </trkpt>
      <trkpt lat="43.007715" lon="-1.30997667">
        <ele>1010.0</ele>
        <time>2019-08-01T11:02:03.021Z</time>
      </trkpt>
      <trkpt lat="43.007705" lon="-1.30999333">
        <ele>1011.0</ele>
        <time>2019-08-01T11:02:04.026Z</time>
      </trkpt>
      <trkpt lat="43.007695" lon="-1.31001167">
        <ele>1011.0</ele>
        <time>2019-08-01T11:02:05.030Z</time>
      </trkpt>
      <trkpt lat="43.00768667" lon="-1.31003167">
        <ele>1013.0</ele>
        <time>2019-08-01T11:02:06.034Z</time>
      </trkpt>
      <trkpt lat="43.00768333" lon="-1.31004667">
        <ele>1013.0</ele>
        <time>2019-08-01T11:02:07.042Z</time>
      </trkpt>
      <trkpt lat="43.00767833" lon="-1.31004833">
        <ele>1013.0</ele>
        <time>2019-08-01T11:02:07.922Z</time>
      </trkpt>
      <trkpt lat="43.00767333" lon="-1.31005833">
        <ele>1013.0</ele>
        <time>2019-08-01T11:02:08.928Z</time>
      </trkpt>
      <trkpt lat="43.00766833" lon="-1.31006833">
        <ele>1013.0</ele>
        <time>2019-08-01T11:02:09.935Z</time>
      </trkpt>
      <trkpt lat="43.007665" lon="-1.31008167">
        <ele>1013.0</ele>
        <time>2019-08-01T11:02:10.940Z</time>
      </trkpt>
      <trkpt lat="43.00766167" lon="-1.31009167">
        <ele>1012.0</ele>
        <time>2019-08-01T11:02:11.947Z</time>
      </trkpt>
      <trkpt lat="43.00765833" lon="-1.310105">
        <ele>1012.0</ele>
        <time>2019-08-01T11:02:12.953Z</time>
      </trkpt>
      <trkpt lat="43.007655" lon="-1.31011833">
        <ele>1012.0</ele>
        <time>2019-08-01T11:02:13.960Z</time>
      </trkpt>
      <trkpt lat="43.00765167" lon="-1.31013333">
        <ele>1011.0</ele>
        <time>2019-08-01T11:02:14.965Z</time>
      </trkpt>
      <trkpt lat="43.007645" lon="-1.31014833">
        <ele>1011.0</ele>
        <time>2019-08-01T11:02:15.970Z</time>
      </trkpt>
      <trkpt lat="43.00764167" lon="-1.31016167">
        <ele>1011.0</ele>
        <time>2019-08-01T11:02:16.974Z</time>
      </trkpt>
      <trkpt lat="43.00764" lon="-1.310175">
        <ele>1011.0</ele>
        <time>2019-08-01T11:02:17.979Z</time>
      </trkpt>
      <trkpt lat="43.00763667" lon="-1.31018833">
        <ele>1010.0</ele>
        <time>2019-08-01T11:02:18.985Z</time>
      </trkpt>
      <trkpt lat="43.00763167" lon="-1.31020167">
        <ele>1009.0</ele>
        <time>2019-08-01T11:02:19.990Z</time>
      </trkpt>
      <trkpt lat="43.00762833" lon="-1.310215">
        <ele>1009.0</ele>
        <time>2019-08-01T11:02:20.996Z</time>
      </trkpt>
      <trkpt lat="43.00762333" lon="-1.31022667">
        <ele>1009.0</ele>
        <time>2019-08-01T11:02:22.001Z</time>
      </trkpt>
      <trkpt lat="43.00761833" lon="-1.31024">
        <ele>1008.0</ele>
        <time>2019-08-01T11:02:23.006Z</time>
      </trkpt>
      <trkpt lat="43.00761167" lon="-1.31025333">
        <ele>1008.0</ele>
        <time>2019-08-01T11:02:24.013Z</time>
      </trkpt>
      <trkpt lat="43.00760667" lon="-1.31026833">
        <ele>1008.0</ele>
        <time>2019-08-01T11:02:25.020Z</time>
      </trkpt>
      <trkpt lat="43.00760167" lon="-1.31028333">
        <ele>1008.0</ele>
        <time>2019-08-01T11:02:26.024Z</time>
      </trkpt>
      <trkpt lat="43.00759667" lon="-1.31029667">
        <ele>1008.0</ele>
        <time>2019-08-01T11:02:27.030Z</time>
      </trkpt>
      <trkpt lat="43.00759167" lon="-1.31031333">
        <ele>1007.0</ele>
        <time>2019-08-01T11:02:28.035Z</time>
      </trkpt>
      <trkpt lat="43.00758667" lon="-1.310325">
        <ele>1008.0</ele>
        <time>2019-08-01T11:02:29.041Z</time>
      </trkpt>
      <trkpt lat="43.00758333" lon="-1.31034">
        <ele>1007.0</ele>
        <time>2019-08-01T11:02:29.920Z</time>
      </trkpt>
      <trkpt lat="43.00758" lon="-1.31035167">
        <ele>1007.0</ele>
        <time>2019-08-01T11:02:30.927Z</time>
      </trkpt>
      <trkpt lat="43.00757667" lon="-1.31036667">
        <ele>1006.0</ele>
        <time>2019-08-01T11:02:31.933Z</time>
      </trkpt>
      <trkpt lat="43.007575" lon="-1.31037833">
        <ele>1006.0</ele>
        <time>2019-08-01T11:02:32.938Z</time>
      </trkpt>
      <trkpt lat="43.00757333" lon="-1.31039">
        <ele>1006.0</ele>
        <time>2019-08-01T11:02:33.944Z</time>
      </trkpt>
      <trkpt lat="43.00757333" lon="-1.310405">
        <ele>1006.0</ele>
        <time>2019-08-01T11:02:34.950Z</time>
      </trkpt>
      <trkpt lat="43.00757333" lon="-1.31042167">
        <ele>1005.0</ele>
        <time>2019-08-01T11:02:35.957Z</time>
      </trkpt>
      <trkpt lat="43.00757167" lon="-1.31043667">
        <ele>1005.0</ele>
        <time>2019-08-01T11:02:36.961Z</time>
      </trkpt>
      <trkpt lat="43.00757" lon="-1.31045167">
        <ele>1004.0</ele>
        <time>2019-08-01T11:02:37.966Z</time>
      </trkpt>
      <trkpt lat="43.00756833" lon="-1.31046333">
        <ele>1003.0</ele>
        <time>2019-08-01T11:02:38.971Z</time>
      </trkpt>
      <trkpt lat="43.00756833" lon="-1.31047667">
        <ele>1003.0</ele>
        <time>2019-08-01T11:02:39.977Z</time>
      </trkpt>
      <trkpt lat="43.00757" lon="-1.31049333">
        <ele>1002.0</ele>
        <time>2019-08-01T11:02:40.982Z</time>
      </trkpt>
      <trkpt lat="43.00756833" lon="-1.31051167">
        <ele>1002.0</ele>
        <time>2019-08-01T11:02:41.988Z</time>
      </trkpt>
      <trkpt lat="43.00756667" lon="-1.31052667">
        <ele>1001.0</ele>
        <time>2019-08-01T11:02:42.994Z</time>
      </trkpt>
      <trkpt lat="43.00756333" lon="-1.31054">
        <ele>1001.0</ele>
        <time>2019-08-01T11:02:43.999Z</time>
      </trkpt>
      <trkpt lat="43.00756167" lon="-1.31055">
        <ele>1001.0</ele>
        <time>2019-08-01T11:02:45.006Z</time>
      </trkpt>
      <trkpt lat="43.00756" lon="-1.31056833">
        <ele>1000.0</ele>
        <time>2019-08-01T11:02:46.011Z</time>
      </trkpt>
      <trkpt lat="43.00755833" lon="-1.31059167">
        <ele>1000.0</ele>
        <time>2019-08-01T11:02:47.018Z</time>
      </trkpt>
      <trkpt lat="43.00755333" lon="-1.310615">
        <ele>1001.0</ele>
        <time>2019-08-01T11:02:48.024Z</time>
      </trkpt>
      <trkpt lat="43.00754833" lon="-1.31063333">
        <ele>1001.0</ele>
        <time>2019-08-01T11:02:49.029Z</time>
      </trkpt>
      <trkpt lat="43.00754333" lon="-1.31065">
        <ele>1000.0</ele>
        <time>2019-08-01T11:02:50.035Z</time>
      </trkpt>
      <trkpt lat="43.00753833" lon="-1.31066333">
        <ele>1000.0</ele>
        <time>2019-08-01T11:02:51.041Z</time>
      </trkpt>
      <trkpt lat="43.007535" lon="-1.31067833">
        <ele>1001.0</ele>
        <time>2019-08-01T11:02:51.920Z</time>
      </trkpt>
      <trkpt lat="43.00752833" lon="-1.31069167">
        <ele>1001.0</ele>
        <time>2019-08-01T11:02:52.926Z</time>
      </trkpt>
      <trkpt lat="43.00752667" lon="-1.31070167">
        <ele>1001.0</ele>
        <time>2019-08-01T11:02:53.932Z</time>
      </trkpt>
      <trkpt lat="43.00752167" lon="-1.31071667">
        <ele>1002.0</ele>
        <time>2019-08-01T11:02:54.938Z</time>
      </trkpt>
      <trkpt lat="43.00751667" lon="-1.31073">
        <ele>1002.0</ele>
        <time>2019-08-01T11:02:55.945Z</time>
      </trkpt>
      <trkpt lat="43.00751333" lon="-1.31074333">
        <ele>1002.0</ele>
        <time>2019-08-01T11:02:56.950Z</time>
      </trkpt>
      <trkpt lat="43.007515" lon="-1.31075333">
        <ele>1002.0</ele>
        <time>2019-08-01T11:02:57.955Z</time>
      </trkpt>
      <trkpt lat="43.00751333" lon="-1.310765">
        <ele>1003.0</ele>
        <time>2019-08-01T11:02:58.961Z</time>
      </trkpt>
      <trkpt lat="43.00751" lon="-1.31078167">
        <ele>1003.0</ele>
        <time>2019-08-01T11:02:59.967Z</time>
      </trkpt>
      <trkpt lat="43.007505" lon="-1.310805">
        <ele>1003.0</ele>
        <time>2019-08-01T11:03:00.974Z</time>
      </trkpt>
      <trkpt lat="43.00750833" lon="-1.31082333">
        <ele>1002.0</ele>
        <time>2019-08-01T11:03:01.981Z</time>
      </trkpt>
      <trkpt lat="43.00750833" lon="-1.31083833">
        <ele>1002.0</ele>
        <time>2019-08-01T11:03:02.988Z</time>
      </trkpt>
      <trkpt lat="43.00750667" lon="-1.31085167">
        <ele>1003.0</ele>
        <time>2019-08-01T11:03:03.994Z</time>
      </trkpt>
      <trkpt lat="43.007505" lon="-1.31086667">
        <ele>1002.0</ele>
        <time>2019-08-01T11:03:04.999Z</time>
      </trkpt>
      <trkpt lat="43.00750333" lon="-1.310885">
        <ele>1003.0</ele>
        <time>2019-08-01T11:03:06.005Z</time>
      </trkpt>
      <trkpt lat="43.0075" lon="-1.31090333">
        <ele>1003.0</ele>
        <time>2019-08-01T11:03:07.008Z</time>
      </trkpt>
      <trkpt lat="43.00749833" lon="-1.31091667">
        <ele>1003.0</ele>
        <time>2019-08-01T11:03:08.013Z</time>
      </trkpt>
      <trkpt lat="43.00749667" lon="-1.31093167">
        <ele>1004.0</ele>
        <time>2019-08-01T11:03:09.019Z</time>
      </trkpt>
      <trkpt lat="43.007495" lon="-1.31094667">
        <ele>1004.0</ele>
        <time>2019-08-01T11:03:10.024Z</time>
      </trkpt>
      <trkpt lat="43.00749167" lon="-1.31096167">
        <ele>1004.0</ele>
        <time>2019-08-01T11:03:11.030Z</time>
      </trkpt>
      <trkpt lat="43.00748667" lon="-1.31098">
        <ele>1004.0</ele>
        <time>2019-08-01T11:03:12.034Z</time>
      </trkpt>
      <trkpt lat="43.007485" lon="-1.31099667">
        <ele>1004.0</ele>
        <time>2019-08-01T11:03:13.042Z</time>
      </trkpt>
      <trkpt lat="43.00748167" lon="-1.31101167">
        <ele>1003.0</ele>
        <time>2019-08-01T11:03:13.921Z</time>
      </trkpt>
      <trkpt lat="43.00747667" lon="-1.31102833">
        <ele>1003.0</ele>
        <time>2019-08-01T11:03:14.926Z</time>
      </trkpt>
      <trkpt lat="43.00747167" lon="-1.31104">
        <ele>1002.0</ele>
        <time>2019-08-01T11:03:15.932Z</time>
      </trkpt>
      <trkpt lat="43.00746667" lon="-1.31105833">
        <ele>1002.0</ele>
        <time>2019-08-01T11:03:16.939Z</time>
      </trkpt>
      <trkpt lat="43.00746333" lon="-1.311075">
        <ele>1002.0</ele>
        <time>2019-08-01T11:03:17.944Z</time>
      </trkpt>
      <trkpt lat="43.00745667" lon="-1.31109667">
        <ele>1002.0</ele>
        <time>2019-08-01T11:03:18.949Z</time>
      </trkpt>
      <trkpt lat="43.00745167" lon="-1.31111">
        <ele>1002.0</ele>
        <time>2019-08-01T11:03:19.954Z</time>
      </trkpt>
      <trkpt lat="43.00744667" lon="-1.31113167">
        <ele>1001.0</ele>
        <time>2019-08-01T11:03:20.959Z</time>
      </trkpt>
      <trkpt lat="43.007445" lon="-1.31114333">
        <ele>1002.0</ele>
        <time>2019-08-01T11:03:21.966Z</time>
      </trkpt>
      <trkpt lat="43.00744167" lon="-1.31115833">
        <ele>1002.0</ele>
        <time>2019-08-01T11:03:22.972Z</time>
      </trkpt>
      <trkpt lat="43.00743833" lon="-1.31117333">
        <ele>1002.0</ele>
        <time>2019-08-01T11:03:23.979Z</time>
      </trkpt>
      <trkpt lat="43.00743667" lon="-1.31119167">
        <ele>1000.0</ele>
        <time>2019-08-01T11:03:24.983Z</time>
      </trkpt>
      <trkpt lat="43.007435" lon="-1.31121">
        <ele>1000.0</ele>
        <time>2019-08-01T11:03:25.989Z</time>
      </trkpt>
      <trkpt lat="43.00743167" lon="-1.31122333">
        <ele>999.0</ele>
        <time>2019-08-01T11:03:26.994Z</time>
      </trkpt>
      <trkpt lat="43.00742833" lon="-1.31123667">
        <ele>1000.0</ele>
        <time>2019-08-01T11:03:28.000Z</time>
      </trkpt>
      <trkpt lat="43.007425" lon="-1.31125333">
        <ele>1000.0</ele>
        <time>2019-08-01T11:03:29.006Z</time>
      </trkpt>
      <trkpt lat="43.007425" lon="-1.31126833">
        <ele>1000.0</ele>
        <time>2019-08-01T11:03:30.012Z</time>
      </trkpt>
      <trkpt lat="43.007425" lon="-1.311285">
        <ele>1000.0</ele>
        <time>2019-08-01T11:03:31.020Z</time>
      </trkpt>
      <trkpt lat="43.00742667" lon="-1.311305">
        <ele>999.0</ele>
        <time>2019-08-01T11:03:32.026Z</time>
      </trkpt>
      <trkpt lat="43.007425" lon="-1.311325">
        <ele>999.0</ele>
        <time>2019-08-01T11:03:33.033Z</time>
      </trkpt>
      <trkpt lat="43.00742167" lon="-1.31134333">
        <ele>1000.0</ele>
        <time>2019-08-01T11:03:34.039Z</time>
      </trkpt>
      <trkpt lat="43.00741667" lon="-1.311365">
        <ele>1000.0</ele>
        <time>2019-08-01T11:03:34.919Z</time>
      </trkpt>
      <trkpt lat="43.00741" lon="-1.31137833">
        <ele>1001.0</ele>
        <time>2019-08-01T11:03:35.923Z</time>
      </trkpt>
      <trkpt lat="43.00740333" lon="-1.31138833">
        <ele>1001.0</ele>
        <time>2019-08-01T11:03:36.928Z</time>
      </trkpt>
      <trkpt lat="43.00739833" lon="-1.31138833">
        <ele>1002.0</ele>
        <time>2019-08-01T11:03:37.933Z</time>
      </trkpt>
      <trkpt lat="43.00739667" lon="-1.31139833">
        <ele>1001.0</ele>
        <time>2019-08-01T11:03:38.938Z</time>
      </trkpt>
      <trkpt lat="43.00738833" lon="-1.31140833">
        <ele>1001.0</ele>
        <time>2019-08-01T11:03:39.942Z</time>
      </trkpt>
      <trkpt lat="43.00737833" lon="-1.311415">
        <ele>1002.0</ele>
        <time>2019-08-01T11:03:40.946Z</time>
      </trkpt>
      <trkpt lat="43.00737" lon="-1.31142667">
        <ele>1003.0</ele>
        <time>2019-08-01T11:03:41.948Z</time>
      </trkpt>
      <trkpt lat="43.00735833" lon="-1.31144333">
        <ele>1003.0</ele>
        <time>2019-08-01T11:03:42.954Z</time>
      </trkpt>
      <trkpt lat="43.007355" lon="-1.31146333">
        <ele>1003.0</ele>
        <time>2019-08-01T11:03:43.962Z</time>
      </trkpt>
      <trkpt lat="43.00735333" lon="-1.31147833">
        <ele>1003.0</ele>
        <time>2019-08-01T11:03:44.968Z</time>
      </trkpt>
      <trkpt lat="43.007355" lon="-1.31149833">
        <ele>1003.0</ele>
        <time>2019-08-01T11:03:45.971Z</time>
      </trkpt>
      <trkpt lat="43.007355" lon="-1.311515">
        <ele>1003.0</ele>
        <time>2019-08-01T11:03:46.976Z</time>
      </trkpt>
      <trkpt lat="43.007355" lon="-1.31152833">
        <ele>1003.0</ele>
        <time>2019-08-01T11:03:47.982Z</time>
      </trkpt>
      <trkpt lat="43.00735667" lon="-1.31154167">
        <ele>1003.0</ele>
        <time>2019-08-01T11:03:48.987Z</time>
      </trkpt>
      <trkpt lat="43.00735833" lon="-1.31155667">
        <ele>1003.0</ele>
        <time>2019-08-01T11:03:49.990Z</time>
      </trkpt>
      <trkpt lat="43.00736" lon="-1.31156333">
        <ele>1003.0</ele>
        <time>2019-08-01T11:03:50.997Z</time>
      </trkpt>
      <trkpt lat="43.00735833" lon="-1.31156833">
        <ele>1003.0</ele>
        <time>2019-08-01T11:03:52.004Z</time>
      </trkpt>
      <trkpt lat="43.007355" lon="-1.31158333">
        <ele>1003.0</ele>
        <time>2019-08-01T11:03:53.012Z</time>
      </trkpt>
      <trkpt lat="43.00735333" lon="-1.311605">
        <ele>1004.0</ele>
        <time>2019-08-01T11:03:54.019Z</time>
      </trkpt>
      <trkpt lat="43.00735167" lon="-1.31162333">
        <ele>1003.0</ele>
        <time>2019-08-01T11:03:55.025Z</time>
      </trkpt>
      <trkpt lat="43.00735" lon="-1.31163833">
        <ele>1003.0</ele>
        <time>2019-08-01T11:03:56.033Z</time>
      </trkpt>
      <trkpt lat="43.00735" lon="-1.31165833">
        <ele>1003.0</ele>
        <time>2019-08-01T11:03:57.040Z</time>
      </trkpt>
      <trkpt lat="43.00734833" lon="-1.31167833">
        <ele>1003.0</ele>
        <time>2019-08-01T11:03:57.920Z</time>
      </trkpt>
      <trkpt lat="43.00734833" lon="-1.31169667">
        <ele>1003.0</ele>
        <time>2019-08-01T11:03:58.926Z</time>
      </trkpt>
      <trkpt lat="43.00735" lon="-1.31171">
        <ele>1003.0</ele>
        <time>2019-08-01T11:03:59.933Z</time>
      </trkpt>
      <trkpt lat="43.00734833" lon="-1.31173167">
        <ele>1003.0</ele>
        <time>2019-08-01T11:04:00.940Z</time>
      </trkpt>
      <trkpt lat="43.00734667" lon="-1.311755">
        <ele>1003.0</ele>
        <time>2019-08-01T11:04:01.948Z</time>
      </trkpt>
      <trkpt lat="43.00734833" lon="-1.311775">
        <ele>1002.0</ele>
        <time>2019-08-01T11:04:02.951Z</time>
      </trkpt>
      <trkpt lat="43.00733833" lon="-1.31180333">
        <ele>1003.0</ele>
        <time>2019-08-01T11:04:03.957Z</time>
      </trkpt>
      <trkpt lat="43.007335" lon="-1.31182667">
        <ele>1003.0</ele>
        <time>2019-08-01T11:04:04.964Z</time>
      </trkpt>
      <trkpt lat="43.00733333" lon="-1.311845">
        <ele>1003.0</ele>
        <time>2019-08-01T11:04:05.968Z</time>
      </trkpt>
      <trkpt lat="43.00733167" lon="-1.31185833">
        <ele>1003.0</ele>
        <time>2019-08-01T11:04:06.971Z</time>
      </trkpt>
      <trkpt lat="43.00732833" lon="-1.31187333">
        <ele>1002.0</ele>
        <time>2019-08-01T11:04:07.977Z</time>
      </trkpt>
      <trkpt lat="43.00732833" lon="-1.31189167">
        <ele>1002.0</ele>
        <time>2019-08-01T11:04:08.984Z</time>
      </trkpt>
      <trkpt lat="43.00733167" lon="-1.31191167">
        <ele>1001.0</ele>
        <time>2019-08-01T11:04:09.988Z</time>
      </trkpt>
      <trkpt lat="43.007335" lon="-1.31192667">
        <ele>1000.0</ele>
        <time>2019-08-01T11:04:10.991Z</time>
      </trkpt>
      <trkpt lat="43.00734" lon="-1.31193333">
        <ele>999.0</ele>
        <time>2019-08-01T11:04:11.998Z</time>
      </trkpt>
      <trkpt lat="43.00734167" lon="-1.31194167">
        <ele>998.0</ele>
        <time>2019-08-01T11:04:13.004Z</time>
      </trkpt>
      <trkpt lat="43.00734" lon="-1.31195667">
        <ele>996.0</ele>
        <time>2019-08-01T11:04:14.010Z</time>
      </trkpt>
      <trkpt lat="43.00734" lon="-1.31197667">
        <ele>996.0</ele>
        <time>2019-08-01T11:04:15.017Z</time>
      </trkpt>
      <trkpt lat="43.00734" lon="-1.311985">
        <ele>995.0</ele>
        <time>2019-08-01T11:04:16.023Z</time>
      </trkpt>
      <trkpt lat="43.00733833" lon="-1.31200333">
        <ele>994.0</ele>
        <time>2019-08-01T11:04:17.025Z</time>
      </trkpt>
      <trkpt lat="43.007335" lon="-1.31201">
        <ele>994.0</ele>
        <time>2019-08-01T11:04:18.029Z</time>
      </trkpt>
      <trkpt lat="43.00733167" lon="-1.31201833">
        <ele>994.0</ele>
        <time>2019-08-01T11:04:19.036Z</time>
      </trkpt>
      <trkpt lat="43.00732833" lon="-1.312025">
        <ele>993.0</ele>
        <time>2019-08-01T11:04:20.042Z</time>
      </trkpt>
      <trkpt lat="43.007325" lon="-1.31203167">
        <ele>993.0</ele>
        <time>2019-08-01T11:04:20.922Z</time>
      </trkpt>
      <trkpt lat="43.00732167" lon="-1.31204">
        <ele>992.0</ele>
        <time>2019-08-01T11:04:21.929Z</time>
      </trkpt>
      <trkpt lat="43.00731667" lon="-1.31204333">
        <ele>992.0</ele>
        <time>2019-08-01T11:04:22.935Z</time>
      </trkpt>
      <trkpt lat="43.00731167" lon="-1.31204833">
        <ele>992.0</ele>
        <time>2019-08-01T11:04:23.941Z</time>
      </trkpt>
      <trkpt lat="43.00730833" lon="-1.31205667">
        <ele>992.0</ele>
        <time>2019-08-01T11:04:24.946Z</time>
      </trkpt>
      <trkpt lat="43.007305" lon="-1.31206333">
        <ele>991.0</ele>
        <time>2019-08-01T11:04:25.952Z</time>
      </trkpt>
      <trkpt lat="43.00730333" lon="-1.31207167">
        <ele>991.0</ele>
        <time>2019-08-01T11:04:26.957Z</time>
      </trkpt>
      <trkpt lat="43.00729833" lon="-1.31208167">
        <ele>990.0</ele>
        <time>2019-08-01T11:04:27.962Z</time>
      </trkpt>
      <trkpt lat="43.007295" lon="-1.31208833">
        <ele>990.0</ele>
        <time>2019-08-01T11:04:28.969Z</time>
      </trkpt>
      <trkpt lat="43.00729" lon="-1.31209833">
        <ele>989.0</ele>
        <time>2019-08-01T11:04:29.975Z</time>
      </trkpt>
      <trkpt lat="43.00728167" lon="-1.31210667">
        <ele>989.0</ele>
        <time>2019-08-01T11:04:30.983Z</time>
      </trkpt>
      <trkpt lat="43.00727667" lon="-1.31211">
        <ele>990.0</ele>
        <time>2019-08-01T11:04:31.990Z</time>
      </trkpt>
      <trkpt lat="43.00726667" lon="-1.312115">
        <ele>990.0</ele>
        <time>2019-08-01T11:04:32.993Z</time>
      </trkpt>
      <trkpt lat="43.00725833" lon="-1.31212">
        <ele>990.0</ele>
        <time>2019-08-01T11:04:33.998Z</time>
      </trkpt>
      <trkpt lat="43.00725333" lon="-1.31212667">
        <ele>990.0</ele>
        <time>2019-08-01T11:04:35.003Z</time>
      </trkpt>
      <trkpt lat="43.00724667" lon="-1.312135">
        <ele>989.0</ele>
        <time>2019-08-01T11:04:36.009Z</time>
      </trkpt>
      <trkpt lat="43.00724" lon="-1.312145">
        <ele>989.0</ele>
        <time>2019-08-01T11:04:37.016Z</time>
      </trkpt>
      <trkpt lat="43.00723667" lon="-1.31215167">
        <ele>989.0</ele>
        <time>2019-08-01T11:04:38.023Z</time>
      </trkpt>
      <trkpt lat="43.00723333" lon="-1.31216167">
        <ele>988.0</ele>
        <time>2019-08-01T11:04:39.030Z</time>
      </trkpt>
      <trkpt lat="43.00722833" lon="-1.31217167">
        <ele>989.0</ele>
        <time>2019-08-01T11:04:40.036Z</time>
      </trkpt>
      <trkpt lat="43.00722167" lon="-1.31217833">
        <ele>988.0</ele>
        <time>2019-08-01T11:04:41.039Z</time>
      </trkpt>
      <trkpt lat="43.00721667" lon="-1.31219">
        <ele>988.0</ele>
        <time>2019-08-01T11:04:41.919Z</time>
      </trkpt>
      <trkpt lat="43.00721167" lon="-1.31219667">
        <ele>989.0</ele>
        <time>2019-08-01T11:04:42.926Z</time>
      </trkpt>
      <trkpt lat="43.007205" lon="-1.31220333">
        <ele>989.0</ele>
        <time>2019-08-01T11:04:43.933Z</time>
      </trkpt>
      <trkpt lat="43.0072" lon="-1.31221667">
        <ele>989.0</ele>
        <time>2019-08-01T11:04:44.939Z</time>
      </trkpt>
      <trkpt lat="43.0072" lon="-1.31223333">
        <ele>988.0</ele>
        <time>2019-08-01T11:04:45.946Z</time>
      </trkpt>
      <trkpt lat="43.00719667" lon="-1.31225167">
        <ele>988.0</ele>
        <time>2019-08-01T11:04:46.951Z</time>
      </trkpt>
      <trkpt lat="43.00719667" lon="-1.312265">
        <ele>989.0</ele>
        <time>2019-08-01T11:04:47.956Z</time>
      </trkpt>
      <trkpt lat="43.00719333" lon="-1.31228">
        <ele>989.0</ele>
        <time>2019-08-01T11:04:48.963Z</time>
      </trkpt>
      <trkpt lat="43.00719167" lon="-1.31229333">
        <ele>989.0</ele>
        <time>2019-08-01T11:04:49.968Z</time>
      </trkpt>
      <trkpt lat="43.00719" lon="-1.31230167">
        <ele>989.0</ele>
        <time>2019-08-01T11:04:50.972Z</time>
      </trkpt>
      <trkpt lat="43.007185" lon="-1.312315">
        <ele>989.0</ele>
        <time>2019-08-01T11:04:51.978Z</time>
      </trkpt>
      <trkpt lat="43.00717833" lon="-1.31232833">
        <ele>988.0</ele>
        <time>2019-08-01T11:04:52.982Z</time>
      </trkpt>
      <trkpt lat="43.00717333" lon="-1.31234">
        <ele>988.0</ele>
        <time>2019-08-01T11:04:53.990Z</time>
      </trkpt>
      <trkpt lat="43.00717" lon="-1.31235333">
        <ele>988.0</ele>
        <time>2019-08-01T11:04:54.994Z</time>
      </trkpt>
      <trkpt lat="43.00717" lon="-1.31237">
        <ele>988.0</ele>
        <time>2019-08-01T11:04:56.001Z</time>
      </trkpt>
      <trkpt lat="43.00717" lon="-1.31238667">
        <ele>987.0</ele>
        <time>2019-08-01T11:04:57.008Z</time>
      </trkpt>
      <trkpt lat="43.00716667" lon="-1.3124">
        <ele>987.0</ele>
        <time>2019-08-01T11:04:58.013Z</time>
      </trkpt>
      <trkpt lat="43.007165" lon="-1.31241667">
        <ele>986.0</ele>
        <time>2019-08-01T11:04:59.019Z</time>
      </trkpt>
      <trkpt lat="43.00716167" lon="-1.31243333">
        <ele>987.0</ele>
        <time>2019-08-01T11:05:00.024Z</time>
      </trkpt>
      <trkpt lat="43.007155" lon="-1.31244667">
        <ele>988.0</ele>
        <time>2019-08-01T11:05:01.031Z</time>
      </trkpt>
      <trkpt lat="43.00714667" lon="-1.312455">
        <ele>988.0</ele>
        <time>2019-08-01T11:05:02.039Z</time>
      </trkpt>
      <trkpt lat="43.00713667" lon="-1.31247167">
        <ele>988.0</ele>
        <time>2019-08-01T11:05:02.918Z</time>
      </trkpt>
      <trkpt lat="43.00712833" lon="-1.31248667">
        <ele>989.0</ele>
        <time>2019-08-01T11:05:03.924Z</time>
      </trkpt>
      <trkpt lat="43.00711833" lon="-1.31249833">
        <ele>989.0</ele>
        <time>2019-08-01T11:05:04.929Z</time>
      </trkpt>
      <trkpt lat="43.007115" lon="-1.312505">
        <ele>989.0</ele>
        <time>2019-08-01T11:05:05.934Z</time>
      </trkpt>
      <trkpt lat="43.00711167" lon="-1.31251">
        <ele>989.0</ele>
        <time>2019-08-01T11:05:06.936Z</time>
      </trkpt>
      <trkpt lat="43.00710833" lon="-1.312515">
        <ele>990.0</ele>
        <time>2019-08-01T11:05:07.942Z</time>
      </trkpt>
      <trkpt lat="43.00710333" lon="-1.31252667">
        <ele>991.0</ele>
        <time>2019-08-01T11:05:08.948Z</time>
      </trkpt>
      <trkpt lat="43.00709833" lon="-1.31253833">
        <ele>991.0</ele>
        <time>2019-08-01T11:05:09.954Z</time>
      </trkpt>
      <trkpt lat="43.00709333" lon="-1.31255667">
        <ele>992.0</ele>
        <time>2019-08-01T11:05:10.958Z</time>
      </trkpt>
      <trkpt lat="43.00708833" lon="-1.31257">
        <ele>993.0</ele>
        <time>2019-08-01T11:05:11.962Z</time>
      </trkpt>
      <trkpt lat="43.007085" lon="-1.31258667">
        <ele>992.0</ele>
        <time>2019-08-01T11:05:12.969Z</time>
      </trkpt>
      <trkpt lat="43.00708167" lon="-1.31260167">
        <ele>992.0</ele>
        <time>2019-08-01T11:05:13.975Z</time>
      </trkpt>
      <trkpt lat="43.00707833" lon="-1.31261333">
        <ele>992.0</ele>
        <time>2019-08-01T11:05:14.981Z</time>
      </trkpt>
      <trkpt lat="43.00707667" lon="-1.312625">
        <ele>991.0</ele>
        <time>2019-08-01T11:05:15.986Z</time>
      </trkpt>
      <trkpt lat="43.00707667" lon="-1.312635">
        <ele>991.0</ele>
        <time>2019-08-01T11:05:16.990Z</time>
      </trkpt>
      <trkpt lat="43.007075" lon="-1.312645">
        <ele>991.0</ele>
        <time>2019-08-01T11:05:17.995Z</time>
      </trkpt>
      <trkpt lat="43.007075" lon="-1.31265333">
        <ele>990.0</ele>
        <time>2019-08-01T11:05:19.001Z</time>
      </trkpt>
      <trkpt lat="43.00707333" lon="-1.31266333">
        <ele>989.0</ele>
        <time>2019-08-01T11:05:20.006Z</time>
      </trkpt>
      <trkpt lat="43.00707167" lon="-1.31267167">
        <ele>989.0</ele>
        <time>2019-08-01T11:05:21.012Z</time>
      </trkpt>
      <trkpt lat="43.00707" lon="-1.31268167">
        <ele>988.0</ele>
        <time>2019-08-01T11:05:22.019Z</time>
      </trkpt>
      <trkpt lat="43.00706833" lon="-1.31269">
        <ele>987.0</ele>
        <time>2019-08-01T11:05:23.021Z</time>
      </trkpt>
      <trkpt lat="43.00706667" lon="-1.31269667">
        <ele>987.0</ele>
        <time>2019-08-01T11:05:24.028Z</time>
      </trkpt>
      <trkpt lat="43.007065" lon="-1.31270333">
        <ele>986.0</ele>
        <time>2019-08-01T11:05:25.034Z</time>
      </trkpt>
      <trkpt lat="43.00706333" lon="-1.31270833">
        <ele>986.0</ele>
        <time>2019-08-01T11:05:26.041Z</time>
      </trkpt>
      <trkpt lat="43.00706" lon="-1.31271333">
        <ele>986.0</ele>
        <time>2019-08-01T11:05:26.922Z</time>
      </trkpt>
      <trkpt lat="43.00705833" lon="-1.31271833">
        <ele>986.0</ele>
        <time>2019-08-01T11:05:27.927Z</time>
      </trkpt>
      <trkpt lat="43.00705833" lon="-1.312725">
        <ele>986.0</ele>
        <time>2019-08-01T11:05:28.929Z</time>
      </trkpt>
      <trkpt lat="43.007055" lon="-1.31272833">
        <ele>986.0</ele>
        <time>2019-08-01T11:05:29.931Z</time>
      </trkpt>
      <trkpt lat="43.00705167" lon="-1.312735">
        <ele>985.0</ele>
        <time>2019-08-01T11:05:30.935Z</time>
      </trkpt>
      <trkpt lat="43.00704833" lon="-1.31274">
        <ele>985.0</ele>
        <time>2019-08-01T11:05:31.937Z</time>
      </trkpt>
      <trkpt lat="43.007045" lon="-1.31274333">
        <ele>985.0</ele>
        <time>2019-08-01T11:05:32.939Z</time>
      </trkpt>
      <trkpt lat="43.00704333" lon="-1.31275167">
        <ele>986.0</ele>
        <time>2019-08-01T11:05:33.945Z</time>
      </trkpt>
      <trkpt lat="43.00704" lon="-1.31276">
        <ele>986.0</ele>
        <time>2019-08-01T11:05:34.951Z</time>
      </trkpt>
      <trkpt lat="43.007035" lon="-1.31276833">
        <ele>986.0</ele>
        <time>2019-08-01T11:05:35.955Z</time>
      </trkpt>
      <trkpt lat="43.00702667" lon="-1.31277667">
        <ele>986.0</ele>
        <time>2019-08-01T11:05:36.960Z</time>
      </trkpt>
      <trkpt lat="43.00702" lon="-1.31279">
        <ele>987.0</ele>
        <time>2019-08-01T11:05:37.966Z</time>
      </trkpt>
      <trkpt lat="43.00701333" lon="-1.31279333">
        <ele>987.0</ele>
        <time>2019-08-01T11:05:38.972Z</time>
      </trkpt>
      <trkpt lat="43.00700667" lon="-1.31279667">
        <ele>987.0</ele>
        <time>2019-08-01T11:05:39.979Z</time>
      </trkpt>
      <trkpt lat="43.007" lon="-1.3128">
        <ele>987.0</ele>
        <time>2019-08-01T11:05:40.986Z</time>
      </trkpt>
      <trkpt lat="43.00699167" lon="-1.31280333">
        <ele>986.0</ele>
        <time>2019-08-01T11:05:41.993Z</time>
      </trkpt>
      <trkpt lat="43.006985" lon="-1.31281">
        <ele>986.0</ele>
        <time>2019-08-01T11:05:42.999Z</time>
      </trkpt>
      <trkpt lat="43.006975" lon="-1.312815">
        <ele>986.0</ele>
        <time>2019-08-01T11:05:44.003Z</time>
      </trkpt>
      <trkpt lat="43.00696833" lon="-1.31282167">
        <ele>986.0</ele>
        <time>2019-08-01T11:05:45.008Z</time>
      </trkpt>
      <trkpt lat="43.006965" lon="-1.31282667">
        <ele>986.0</ele>
        <time>2019-08-01T11:05:46.014Z</time>
      </trkpt>
      <trkpt lat="43.00696167" lon="-1.31283333">
        <ele>986.0</ele>
        <time>2019-08-01T11:05:47.021Z</time>
      </trkpt>
      <trkpt lat="43.006955" lon="-1.31283833">
        <ele>986.0</ele>
        <time>2019-08-01T11:05:48.028Z</time>
      </trkpt>
      <trkpt lat="43.006945" lon="-1.31284667">
        <ele>985.0</ele>
        <time>2019-08-01T11:05:49.032Z</time>
      </trkpt>
      <trkpt lat="43.00694" lon="-1.312855">
        <ele>985.0</ele>
        <time>2019-08-01T11:05:50.038Z</time>
      </trkpt>
      <trkpt lat="43.00693333" lon="-1.31286167">
        <ele>985.0</ele>
        <time>2019-08-01T11:05:50.919Z</time>
      </trkpt>
      <trkpt lat="43.00692667" lon="-1.31287167">
        <ele>985.0</ele>
        <time>2019-08-01T11:05:51.926Z</time>
      </trkpt>
      <trkpt lat="43.00692333" lon="-1.312885">
        <ele>984.0</ele>
        <time>2019-08-01T11:05:52.932Z</time>
      </trkpt>
      <trkpt lat="43.00692333" lon="-1.31289667">
        <ele>984.0</ele>
        <time>2019-08-01T11:05:53.937Z</time>
      </trkpt>
      <trkpt lat="43.00692333" lon="-1.31290333">
        <ele>984.0</ele>
        <time>2019-08-01T11:05:54.944Z</time>
      </trkpt>
      <trkpt lat="43.00691667" lon="-1.31291333">
        <ele>984.0</ele>
        <time>2019-08-01T11:05:55.951Z</time>
      </trkpt>
      <trkpt lat="43.00691167" lon="-1.31292333">
        <ele>984.0</ele>
        <time>2019-08-01T11:05:56.958Z</time>
      </trkpt>
      <trkpt lat="43.006905" lon="-1.31293333">
        <ele>984.0</ele>
        <time>2019-08-01T11:05:57.966Z</time>
      </trkpt>
      <trkpt lat="43.00689667" lon="-1.31294833">
        <ele>984.0</ele>
        <time>2019-08-01T11:05:58.971Z</time>
      </trkpt>
      <trkpt lat="43.00688833" lon="-1.31295833">
        <ele>984.0</ele>
        <time>2019-08-01T11:05:59.976Z</time>
      </trkpt>
      <trkpt lat="43.00688167" lon="-1.31296833">
        <ele>984.0</ele>
        <time>2019-08-01T11:06:00.979Z</time>
      </trkpt>
      <trkpt lat="43.006875" lon="-1.31297667">
        <ele>984.0</ele>
        <time>2019-08-01T11:06:01.983Z</time>
      </trkpt>
      <trkpt lat="43.00686667" lon="-1.31298833">
        <ele>984.0</ele>
        <time>2019-08-01T11:06:02.990Z</time>
      </trkpt>
      <trkpt lat="43.00685833" lon="-1.31299667">
        <ele>984.0</ele>
        <time>2019-08-01T11:06:03.995Z</time>
      </trkpt>
      <trkpt lat="43.00685167" lon="-1.31300667">
        <ele>984.0</ele>
        <time>2019-08-01T11:06:04.999Z</time>
      </trkpt>
      <trkpt lat="43.006845" lon="-1.31301167">
        <ele>984.0</ele>
        <time>2019-08-01T11:06:06.005Z</time>
      </trkpt>
      <trkpt lat="43.00684" lon="-1.31301833">
        <ele>984.0</ele>
        <time>2019-08-01T11:06:07.013Z</time>
      </trkpt>
      <trkpt lat="43.00683333" lon="-1.31302667">
        <ele>983.0</ele>
        <time>2019-08-01T11:06:08.018Z</time>
      </trkpt>
      <trkpt lat="43.00682667" lon="-1.31303333">
        <ele>983.0</ele>
        <time>2019-08-01T11:06:09.026Z</time>
      </trkpt>
      <trkpt lat="43.00682167" lon="-1.31304">
        <ele>983.0</ele>
        <time>2019-08-01T11:06:10.031Z</time>
      </trkpt>
      <trkpt lat="43.006815" lon="-1.31304833">
        <ele>983.0</ele>
        <time>2019-08-01T11:06:11.036Z</time>
      </trkpt>
      <trkpt lat="43.00681" lon="-1.31305667">
        <ele>982.0</ele>
        <time>2019-08-01T11:06:12.041Z</time>
      </trkpt>
      <trkpt lat="43.006805" lon="-1.313065">
        <ele>982.0</ele>
        <time>2019-08-01T11:06:12.922Z</time>
      </trkpt>
      <trkpt lat="43.0068" lon="-1.31307667">
        <ele>981.0</ele>
        <time>2019-08-01T11:06:13.929Z</time>
      </trkpt>
      <trkpt lat="43.00679333" lon="-1.31308667">
        <ele>981.0</ele>
        <time>2019-08-01T11:06:14.936Z</time>
      </trkpt>
      <trkpt lat="43.006785" lon="-1.313095">
        <ele>981.0</ele>
        <time>2019-08-01T11:06:15.942Z</time>
      </trkpt>
      <trkpt lat="43.00678" lon="-1.31310833">
        <ele>981.0</ele>
        <time>2019-08-01T11:06:16.947Z</time>
      </trkpt>
      <trkpt lat="43.00677333" lon="-1.31312">
        <ele>980.0</ele>
        <time>2019-08-01T11:06:17.950Z</time>
      </trkpt>
      <trkpt lat="43.00677" lon="-1.313135">
        <ele>980.0</ele>
        <time>2019-08-01T11:06:18.956Z</time>
      </trkpt>
      <trkpt lat="43.00676667" lon="-1.31315">
        <ele>980.0</ele>
        <time>2019-08-01T11:06:19.960Z</time>
      </trkpt>
      <trkpt lat="43.00676167" lon="-1.31316167">
        <ele>980.0</ele>
        <time>2019-08-01T11:06:20.967Z</time>
      </trkpt>
      <trkpt lat="43.00675833" lon="-1.31317167">
        <ele>980.0</ele>
        <time>2019-08-01T11:06:21.974Z</time>
      </trkpt>
      <trkpt lat="43.006755" lon="-1.31318167">
        <ele>979.0</ele>
        <time>2019-08-01T11:06:22.982Z</time>
      </trkpt>
      <trkpt lat="43.006755" lon="-1.31319333">
        <ele>979.0</ele>
        <time>2019-08-01T11:06:23.988Z</time>
      </trkpt>
      <trkpt lat="43.00675333" lon="-1.31320667">
        <ele>979.0</ele>
        <time>2019-08-01T11:06:24.992Z</time>
      </trkpt>
      <trkpt lat="43.00675333" lon="-1.31322167">
        <ele>979.0</ele>
        <time>2019-08-01T11:06:25.996Z</time>
      </trkpt>
      <trkpt lat="43.00675333" lon="-1.31323333">
        <ele>979.0</ele>
        <time>2019-08-01T11:06:27.004Z</time>
      </trkpt>
      <trkpt lat="43.00675333" lon="-1.313245">
        <ele>978.0</ele>
        <time>2019-08-01T11:06:28.009Z</time>
      </trkpt>
      <trkpt lat="43.00675" lon="-1.31325167">
        <ele>977.0</ele>
        <time>2019-08-01T11:06:29.014Z</time>
      </trkpt>
      <trkpt lat="43.00675" lon="-1.313265">
        <ele>976.0</ele>
        <time>2019-08-01T11:06:30.020Z</time>
      </trkpt>
      <trkpt lat="43.00674667" lon="-1.31326833">
        <ele>976.0</ele>
        <time>2019-08-01T11:06:31.027Z</time>
      </trkpt>
      <trkpt lat="43.00674333" lon="-1.31327667">
        <ele>976.0</ele>
        <time>2019-08-01T11:06:32.033Z</time>
      </trkpt>
      <trkpt lat="43.00674" lon="-1.31328667">
        <ele>975.0</ele>
        <time>2019-08-01T11:06:33.041Z</time>
      </trkpt>
      <trkpt lat="43.00673667" lon="-1.31329667">
        <ele>975.0</ele>
        <time>2019-08-01T11:06:33.920Z</time>
      </trkpt>
      <trkpt lat="43.00673333" lon="-1.31331">
        <ele>975.0</ele>
        <time>2019-08-01T11:06:34.927Z</time>
      </trkpt>
      <trkpt lat="43.00672833" lon="-1.31331833">
        <ele>975.0</ele>
        <time>2019-08-01T11:06:35.932Z</time>
      </trkpt>
      <trkpt lat="43.00672333" lon="-1.31332833">
        <ele>975.0</ele>
        <time>2019-08-01T11:06:36.939Z</time>
      </trkpt>
      <trkpt lat="43.00671667" lon="-1.31333833">
        <ele>975.0</ele>
        <time>2019-08-01T11:06:37.946Z</time>
      </trkpt>
      <trkpt lat="43.00671167" lon="-1.31335333">
        <ele>976.0</ele>
        <time>2019-08-01T11:06:38.951Z</time>
      </trkpt>
      <trkpt lat="43.00670667" lon="-1.31336667">
        <ele>976.0</ele>
        <time>2019-08-01T11:06:39.956Z</time>
      </trkpt>
      <trkpt lat="43.00670333" lon="-1.31337667">
        <ele>976.0</ele>
        <time>2019-08-01T11:06:40.961Z</time>
      </trkpt>
      <trkpt lat="43.00669667" lon="-1.31338667">
        <ele>976.0</ele>
        <time>2019-08-01T11:06:41.968Z</time>
      </trkpt>
      <trkpt lat="43.00669333" lon="-1.313395">
        <ele>976.0</ele>
        <time>2019-08-01T11:06:42.973Z</time>
      </trkpt>
      <trkpt lat="43.00669" lon="-1.31340667">
        <ele>976.0</ele>
        <time>2019-08-01T11:06:43.980Z</time>
      </trkpt>
      <trkpt lat="43.00668667" lon="-1.31341833">
        <ele>976.0</ele>
        <time>2019-08-01T11:06:44.984Z</time>
      </trkpt>
      <trkpt lat="43.00668667" lon="-1.31342667">
        <ele>976.0</ele>
        <time>2019-08-01T11:06:45.990Z</time>
      </trkpt>
      <trkpt lat="43.006685" lon="-1.31343667">
        <ele>976.0</ele>
        <time>2019-08-01T11:06:46.994Z</time>
      </trkpt>
      <trkpt lat="43.00668667" lon="-1.313445">
        <ele>976.0</ele>
        <time>2019-08-01T11:06:48.000Z</time>
      </trkpt>
      <trkpt lat="43.00668833" lon="-1.31346167">
        <ele>976.0</ele>
        <time>2019-08-01T11:06:49.004Z</time>
      </trkpt>
      <trkpt lat="43.00668833" lon="-1.313475">
        <ele>976.0</ele>
        <time>2019-08-01T11:06:50.011Z</time>
      </trkpt>
      <trkpt lat="43.006685" lon="-1.313485">
        <ele>976.0</ele>
        <time>2019-08-01T11:06:51.016Z</time>
      </trkpt>
      <trkpt lat="43.00668333" lon="-1.313495">
        <ele>974.0</ele>
        <time>2019-08-01T11:06:52.023Z</time>
      </trkpt>
      <trkpt lat="43.00667833" lon="-1.313505">
        <ele>973.0</ele>
        <time>2019-08-01T11:06:53.031Z</time>
      </trkpt>
      <trkpt lat="43.006675" lon="-1.31351333">
        <ele>973.0</ele>
        <time>2019-08-01T11:06:54.037Z</time>
      </trkpt>
      <trkpt lat="43.00667333" lon="-1.31352333">
        <ele>972.0</ele>
        <time>2019-08-01T11:06:55.042Z</time>
      </trkpt>
      <trkpt lat="43.00667167" lon="-1.31353667">
        <ele>972.0</ele>
        <time>2019-08-01T11:06:55.919Z</time>
      </trkpt>
      <trkpt lat="43.00667" lon="-1.31354667">
        <ele>972.0</ele>
        <time>2019-08-01T11:06:56.924Z</time>
      </trkpt>
      <trkpt lat="43.00666667" lon="-1.31355667">
        <ele>972.0</ele>
        <time>2019-08-01T11:06:57.932Z</time>
      </trkpt>
      <trkpt lat="43.00666333" lon="-1.31356833">
        <ele>972.0</ele>
        <time>2019-08-01T11:06:58.938Z</time>
      </trkpt>
      <trkpt lat="43.00666" lon="-1.31358">
        <ele>972.0</ele>
        <time>2019-08-01T11:06:59.944Z</time>
      </trkpt>
      <trkpt lat="43.00666" lon="-1.31359167">
        <ele>971.0</ele>
        <time>2019-08-01T11:07:00.948Z</time>
      </trkpt>
      <trkpt lat="43.00665833" lon="-1.313605">
        <ele>972.0</ele>
        <time>2019-08-01T11:07:01.951Z</time>
      </trkpt>
      <trkpt lat="43.00665667" lon="-1.31361333">
        <ele>972.0</ele>
        <time>2019-08-01T11:07:02.955Z</time>
      </trkpt>
      <trkpt lat="43.00665667" lon="-1.31362333">
        <ele>971.0</ele>
        <time>2019-08-01T11:07:03.960Z</time>
      </trkpt>
      <trkpt lat="43.00665667" lon="-1.31362833">
        <ele>971.0</ele>
        <time>2019-08-01T11:07:04.966Z</time>
      </trkpt>
      <trkpt lat="43.00665167" lon="-1.31364167">
        <ele>970.0</ele>
        <time>2019-08-01T11:07:05.973Z</time>
      </trkpt>
      <trkpt lat="43.00665" lon="-1.31365167">
        <ele>970.0</ele>
        <time>2019-08-01T11:07:06.979Z</time>
      </trkpt>
      <trkpt lat="43.00664833" lon="-1.31366333">
        <ele>970.0</ele>
        <time>2019-08-01T11:07:07.983Z</time>
      </trkpt>
      <trkpt lat="43.00664833" lon="-1.313675">
        <ele>970.0</ele>
        <time>2019-08-01T11:07:08.988Z</time>
      </trkpt>
      <trkpt lat="43.00664667" lon="-1.31369">
        <ele>969.0</ele>
        <time>2019-08-01T11:07:09.992Z</time>
      </trkpt>
      <trkpt lat="43.00664333" lon="-1.313705">
        <ele>969.0</ele>
        <time>2019-08-01T11:07:10.997Z</time>
      </trkpt>
      <trkpt lat="43.00664167" lon="-1.31372333">
        <ele>969.0</ele>
        <time>2019-08-01T11:07:12.004Z</time>
      </trkpt>
      <trkpt lat="43.006645" lon="-1.31373833">
        <ele>969.0</ele>
        <time>2019-08-01T11:07:13.011Z</time>
      </trkpt>
      <trkpt lat="43.00665" lon="-1.313755">
        <ele>968.0</ele>
        <time>2019-08-01T11:07:14.019Z</time>
      </trkpt>
      <trkpt lat="43.00665667" lon="-1.31377">
        <ele>967.0</ele>
        <time>2019-08-01T11:07:15.025Z</time>
      </trkpt>
      <trkpt lat="43.00666333" lon="-1.31378833">
        <ele>966.0</ele>
        <time>2019-08-01T11:07:16.031Z</time>
      </trkpt>
      <trkpt lat="43.00667333" lon="-1.31380333">
        <ele>966.0</ele>
        <time>2019-08-01T11:07:17.038Z</time>
      </trkpt>
      <trkpt lat="43.006685" lon="-1.31381833">
        <ele>966.0</ele>
        <time>2019-08-01T11:07:17.918Z</time>
      </trkpt>
      <trkpt lat="43.00669333" lon="-1.31383167">
        <ele>967.0</ele>
        <time>2019-08-01T11:07:18.924Z</time>
      </trkpt>
      <trkpt lat="43.00669667" lon="-1.31384">
        <ele>967.0</ele>
        <time>2019-08-01T11:07:19.930Z</time>
      </trkpt>
      <trkpt lat="43.00669667" lon="-1.31385333">
        <ele>967.0</ele>
        <time>2019-08-01T11:07:20.936Z</time>
      </trkpt>
      <trkpt lat="43.00669" lon="-1.313865">
        <ele>967.0</ele>
        <time>2019-08-01T11:07:21.943Z</time>
      </trkpt>
      <trkpt lat="43.006685" lon="-1.31388333">
        <ele>967.0</ele>
        <time>2019-08-01T11:07:22.948Z</time>
      </trkpt>
      <trkpt lat="43.006685" lon="-1.31389667">
        <ele>968.0</ele>
        <time>2019-08-01T11:07:23.954Z</time>
      </trkpt>
      <trkpt lat="43.00668833" lon="-1.313905">
        <ele>968.0</ele>
        <time>2019-08-01T11:07:24.961Z</time>
      </trkpt>
      <trkpt lat="43.00669333" lon="-1.31391667">
        <ele>968.0</ele>
        <time>2019-08-01T11:07:25.967Z</time>
      </trkpt>
      <trkpt lat="43.00669833" lon="-1.31392833">
        <ele>968.0</ele>
        <time>2019-08-01T11:07:26.972Z</time>
      </trkpt>
      <trkpt lat="43.006705" lon="-1.31394">
        <ele>968.0</ele>
        <time>2019-08-01T11:07:27.976Z</time>
      </trkpt>
      <trkpt lat="43.00671167" lon="-1.31394833">
        <ele>967.0</ele>
        <time>2019-08-01T11:07:28.982Z</time>
      </trkpt>
      <trkpt lat="43.00671333" lon="-1.31396167">
        <ele>968.0</ele>
        <time>2019-08-01T11:07:29.989Z</time>
      </trkpt>
      <trkpt lat="43.00671833" lon="-1.313975">
        <ele>968.0</ele>
        <time>2019-08-01T11:07:30.991Z</time>
      </trkpt>
      <trkpt lat="43.00672167" lon="-1.31398667">
        <ele>967.0</ele>
        <time>2019-08-01T11:07:31.997Z</time>
      </trkpt>
      <trkpt lat="43.00672667" lon="-1.31400167">
        <ele>966.0</ele>
        <time>2019-08-01T11:07:33.003Z</time>
      </trkpt>
      <trkpt lat="43.006735" lon="-1.31401833">
        <ele>965.0</ele>
        <time>2019-08-01T11:07:34.008Z</time>
      </trkpt>
      <trkpt lat="43.00674167" lon="-1.314035">
        <ele>964.0</ele>
        <time>2019-08-01T11:07:35.013Z</time>
      </trkpt>
      <trkpt lat="43.00674833" lon="-1.31404833">
        <ele>964.0</ele>
        <time>2019-08-01T11:07:36.019Z</time>
      </trkpt>
      <trkpt lat="43.006755" lon="-1.31406833">
        <ele>963.0</ele>
        <time>2019-08-01T11:07:37.025Z</time>
      </trkpt>
      <trkpt lat="43.00676" lon="-1.314085">
        <ele>963.0</ele>
        <time>2019-08-01T11:07:38.031Z</time>
      </trkpt>
      <trkpt lat="43.00676833" lon="-1.3141">
        <ele>963.0</ele>
        <time>2019-08-01T11:07:39.035Z</time>
      </trkpt>
      <trkpt lat="43.006775" lon="-1.31411667">
        <ele>963.0</ele>
        <time>2019-08-01T11:07:40.042Z</time>
      </trkpt>
      <trkpt lat="43.006785" lon="-1.31412833">
        <ele>963.0</ele>
        <time>2019-08-01T11:07:40.924Z</time>
      </trkpt>
      <trkpt lat="43.00679333" lon="-1.31414667">
        <ele>964.0</ele>
        <time>2019-08-01T11:07:41.928Z</time>
      </trkpt>
      <trkpt lat="43.00680167" lon="-1.31415667">
        <ele>965.0</ele>
        <time>2019-08-01T11:07:42.935Z</time>
      </trkpt>
      <trkpt lat="43.00681333" lon="-1.31416667">
        <ele>964.0</ele>
        <time>2019-08-01T11:07:43.940Z</time>
      </trkpt>
      <trkpt lat="43.006825" lon="-1.31418667">
        <ele>964.0</ele>
        <time>2019-08-01T11:07:44.944Z</time>
      </trkpt>
      <trkpt lat="43.00683167" lon="-1.31420833">
        <ele>964.0</ele>
        <time>2019-08-01T11:07:45.948Z</time>
      </trkpt>
      <trkpt lat="43.00684" lon="-1.31423">
        <ele>963.0</ele>
        <time>2019-08-01T11:07:46.952Z</time>
      </trkpt>
      <trkpt lat="43.00684167" lon="-1.31425833">
        <ele>963.0</ele>
        <time>2019-08-01T11:07:47.960Z</time>
      </trkpt>
      <trkpt lat="43.006845" lon="-1.314275">
        <ele>964.0</ele>
        <time>2019-08-01T11:07:48.967Z</time>
      </trkpt>
      <trkpt lat="43.00685167" lon="-1.31428333">
        <ele>963.0</ele>
        <time>2019-08-01T11:07:49.972Z</time>
      </trkpt>
      <trkpt lat="43.00686" lon="-1.31429167">
        <ele>964.0</ele>
        <time>2019-08-01T11:07:50.976Z</time>
      </trkpt>
      <trkpt lat="43.006865" lon="-1.31430167">
        <ele>964.0</ele>
        <time>2019-08-01T11:07:51.981Z</time>
      </trkpt>
      <trkpt lat="43.00687167" lon="-1.31432833">
        <ele>964.0</ele>
        <time>2019-08-01T11:07:52.988Z</time>
      </trkpt>
      <trkpt lat="43.00687833" lon="-1.31435">
        <ele>963.0</ele>
        <time>2019-08-01T11:07:53.993Z</time>
      </trkpt>
      <trkpt lat="43.00688667" lon="-1.31436333">
        <ele>964.0</ele>
        <time>2019-08-01T11:07:55.000Z</time>
      </trkpt>
      <trkpt lat="43.00689833" lon="-1.31438667">
        <ele>965.0</ele>
        <time>2019-08-01T11:07:56.007Z</time>
      </trkpt>
      <trkpt lat="43.00690667" lon="-1.31440667">
        <ele>966.0</ele>
        <time>2019-08-01T11:07:57.014Z</time>
      </trkpt>
      <trkpt lat="43.006915" lon="-1.314425">
        <ele>966.0</ele>
        <time>2019-08-01T11:07:58.020Z</time>
      </trkpt>
      <trkpt lat="43.00692" lon="-1.31444">
        <ele>967.0</ele>
        <time>2019-08-01T11:07:59.026Z</time>
      </trkpt>
      <trkpt lat="43.00692" lon="-1.314455">
        <ele>967.0</ele>
        <time>2019-08-01T11:08:00.030Z</time>
      </trkpt>
      <trkpt lat="43.006915" lon="-1.31447667">
        <ele>966.0</ele>
        <time>2019-08-01T11:08:01.037Z</time>
      </trkpt>
      <trkpt lat="43.00691667" lon="-1.31449667">
        <ele>966.0</ele>
        <time>2019-08-01T11:08:02.042Z</time>
      </trkpt>
      <trkpt lat="43.00691667" lon="-1.31451667">
        <ele>965.0</ele>
        <time>2019-08-01T11:08:02.922Z</time>
      </trkpt>
      <trkpt lat="43.006925" lon="-1.31454">
        <ele>964.0</ele>
        <time>2019-08-01T11:08:03.929Z</time>
      </trkpt>
      <trkpt lat="43.00693167" lon="-1.31454833">
        <ele>964.0</ele>
        <time>2019-08-01T11:08:04.934Z</time>
      </trkpt>
      <trkpt lat="43.006935" lon="-1.31454833">
        <ele>965.0</ele>
        <time>2019-08-01T11:08:05.941Z</time>
      </trkpt>
      <trkpt lat="43.00693833" lon="-1.31455">
        <ele>964.0</ele>
        <time>2019-08-01T11:08:06.946Z</time>
      </trkpt>
      <trkpt lat="43.00695167" lon="-1.31455333">
        <ele>964.0</ele>
        <time>2019-08-01T11:08:07.952Z</time>
      </trkpt>
      <trkpt lat="43.00696333" lon="-1.31456167">
        <ele>964.0</ele>
        <time>2019-08-01T11:08:08.959Z</time>
      </trkpt>
      <trkpt lat="43.00697667" lon="-1.31457333">
        <ele>964.0</ele>
        <time>2019-08-01T11:08:09.964Z</time>
      </trkpt>
      <trkpt lat="43.00698833" lon="-1.31458333">
        <ele>963.0</ele>
        <time>2019-08-01T11:08:10.970Z</time>
      </trkpt>
      <trkpt lat="43.00699667" lon="-1.314595">
        <ele>964.0</ele>
        <time>2019-08-01T11:08:11.978Z</time>
      </trkpt>
      <trkpt lat="43.00700167" lon="-1.31461">
        <ele>965.0</ele>
        <time>2019-08-01T11:08:12.983Z</time>
      </trkpt>
      <trkpt lat="43.00700833" lon="-1.31462667">
        <ele>965.0</ele>
        <time>2019-08-01T11:08:13.989Z</time>
      </trkpt>
      <trkpt lat="43.00701667" lon="-1.31464">
        <ele>964.0</ele>
        <time>2019-08-01T11:08:14.992Z</time>
      </trkpt>
      <trkpt lat="43.00702333" lon="-1.31465">
        <ele>964.0</ele>
        <time>2019-08-01T11:08:15.998Z</time>
      </trkpt>
      <trkpt lat="43.00703167" lon="-1.31466167">
        <ele>964.0</ele>
        <time>2019-08-01T11:08:17.005Z</time>
      </trkpt>
      <trkpt lat="43.007035" lon="-1.31467333">
        <ele>964.0</ele>
        <time>2019-08-01T11:08:18.011Z</time>
      </trkpt>
      <trkpt lat="43.00704" lon="-1.31468333">
        <ele>964.0</ele>
        <time>2019-08-01T11:08:19.017Z</time>
      </trkpt>
      <trkpt lat="43.00704333" lon="-1.31469667">
        <ele>964.0</ele>
        <time>2019-08-01T11:08:20.022Z</time>
      </trkpt>
      <trkpt lat="43.00704333" lon="-1.3147">
        <ele>964.0</ele>
        <time>2019-08-01T11:08:21.029Z</time>
      </trkpt>
      <trkpt lat="43.00704167" lon="-1.31471333">
        <ele>964.0</ele>
        <time>2019-08-01T11:08:22.035Z</time>
      </trkpt>
      <trkpt lat="43.00704667" lon="-1.31472167">
        <ele>964.0</ele>
        <time>2019-08-01T11:08:23.042Z</time>
      </trkpt>
      <trkpt lat="43.00704833" lon="-1.31473833">
        <ele>965.0</ele>
        <time>2019-08-01T11:08:23.922Z</time>
      </trkpt>
      <trkpt lat="43.00705" lon="-1.31475167">
        <ele>965.0</ele>
        <time>2019-08-01T11:08:24.928Z</time>
      </trkpt>
      <trkpt lat="43.00704667" lon="-1.314765">
        <ele>965.0</ele>
        <time>2019-08-01T11:08:25.932Z</time>
      </trkpt>
      <trkpt lat="43.00704667" lon="-1.314775">
        <ele>964.0</ele>
        <time>2019-08-01T11:08:26.936Z</time>
      </trkpt>
      <trkpt lat="43.00704833" lon="-1.314785">
        <ele>964.0</ele>
        <time>2019-08-01T11:08:27.941Z</time>
      </trkpt>
      <trkpt lat="43.00705167" lon="-1.31479333">
        <ele>964.0</ele>
        <time>2019-08-01T11:08:28.948Z</time>
      </trkpt>
      <trkpt lat="43.00705667" lon="-1.31480167">
        <ele>964.0</ele>
        <time>2019-08-01T11:08:29.954Z</time>
      </trkpt>
      <trkpt lat="43.00706" lon="-1.31481333">
        <ele>964.0</ele>
        <time>2019-08-01T11:08:30.962Z</time>
      </trkpt>
      <trkpt lat="43.00706167" lon="-1.314825">
        <ele>964.0</ele>
        <time>2019-08-01T11:08:31.969Z</time>
      </trkpt>
      <trkpt lat="43.00706167" lon="-1.31484">
        <ele>963.0</ele>
        <time>2019-08-01T11:08:32.974Z</time>
      </trkpt>
      <trkpt lat="43.00706333" lon="-1.314855">
        <ele>963.0</ele>
        <time>2019-08-01T11:08:33.980Z</time>
      </trkpt>
      <trkpt lat="43.007065" lon="-1.31486833">
        <ele>963.0</ele>
        <time>2019-08-01T11:08:34.985Z</time>
      </trkpt>
      <trkpt lat="43.00706667" lon="-1.31488333">
        <ele>963.0</ele>
        <time>2019-08-01T11:08:35.990Z</time>
      </trkpt>
      <trkpt lat="43.007065" lon="-1.31490167">
        <ele>964.0</ele>
        <time>2019-08-01T11:08:36.997Z</time>
      </trkpt>
      <trkpt lat="43.007065" lon="-1.31491333">
        <ele>965.0</ele>
        <time>2019-08-01T11:08:38.002Z</time>
      </trkpt>
      <trkpt lat="43.00706833" lon="-1.31492333">
        <ele>965.0</ele>
        <time>2019-08-01T11:08:39.004Z</time>
      </trkpt>
      <trkpt lat="43.00707167" lon="-1.31493167">
        <ele>966.0</ele>
        <time>2019-08-01T11:08:40.010Z</time>
      </trkpt>
      <trkpt lat="43.00707167" lon="-1.31494">
        <ele>966.0</ele>
        <time>2019-08-01T11:08:41.012Z</time>
      </trkpt>
      <trkpt lat="43.00707333" lon="-1.314955">
        <ele>967.0</ele>
        <time>2019-08-01T11:08:42.016Z</time>
      </trkpt>
      <trkpt lat="43.00707667" lon="-1.31497667">
        <ele>967.0</ele>
        <time>2019-08-01T11:08:43.022Z</time>
      </trkpt>
      <trkpt lat="43.00708" lon="-1.315">
        <ele>967.0</ele>
        <time>2019-08-01T11:08:44.027Z</time>
      </trkpt>
      <trkpt lat="43.00708667" lon="-1.31501667">
        <ele>967.0</ele>
        <time>2019-08-01T11:08:45.031Z</time>
      </trkpt>
      <trkpt lat="43.00709" lon="-1.315035">
        <ele>967.0</ele>
        <time>2019-08-01T11:08:46.037Z</time>
      </trkpt>
      <trkpt lat="43.007095" lon="-1.31505333">
        <ele>966.0</ele>
        <time>2019-08-01T11:08:46.918Z</time>
      </trkpt>
      <trkpt lat="43.00709667" lon="-1.31507">
        <ele>966.0</ele>
        <time>2019-08-01T11:08:47.924Z</time>
      </trkpt>
      <trkpt lat="43.0071" lon="-1.31509">
        <ele>966.0</ele>
        <time>2019-08-01T11:08:48.929Z</time>
      </trkpt>
      <trkpt lat="43.00710167" lon="-1.31511333">
        <ele>965.0</ele>
        <time>2019-08-01T11:08:49.936Z</time>
      </trkpt>
      <trkpt lat="43.00710167" lon="-1.31514">
        <ele>965.0</ele>
        <time>2019-08-01T11:08:50.940Z</time>
      </trkpt>
      <trkpt lat="43.00710333" lon="-1.31516333">
        <ele>964.0</ele>
        <time>2019-08-01T11:08:51.947Z</time>
      </trkpt>
      <trkpt lat="43.00710667" lon="-1.315185">
        <ele>963.0</ele>
        <time>2019-08-01T11:08:52.953Z</time>
      </trkpt>
      <trkpt lat="43.00711167" lon="-1.31520333">
        <ele>963.0</ele>
        <time>2019-08-01T11:08:53.960Z</time>
      </trkpt>
      <trkpt lat="43.00711333" lon="-1.315225">
        <ele>962.0</ele>
        <time>2019-08-01T11:08:54.965Z</time>
      </trkpt>
      <trkpt lat="43.00711167" lon="-1.31525167">
        <ele>961.0</ele>
        <time>2019-08-01T11:08:55.971Z</time>
      </trkpt>
      <trkpt lat="43.00711667" lon="-1.31526667">
        <ele>960.0</ele>
        <time>2019-08-01T11:08:56.976Z</time>
      </trkpt>
      <trkpt lat="43.00712333" lon="-1.31526833">
        <ele>959.0</ele>
        <time>2019-08-01T11:08:57.983Z</time>
      </trkpt>
      <trkpt lat="43.00713333" lon="-1.31527667">
        <ele>958.0</ele>
        <time>2019-08-01T11:08:58.989Z</time>
      </trkpt>
      <trkpt lat="43.00714167" lon="-1.31528">
        <ele>957.0</ele>
        <time>2019-08-01T11:08:59.994Z</time>
      </trkpt>
      <trkpt lat="43.00714833" lon="-1.315295">
        <ele>956.0</ele>
        <time>2019-08-01T11:09:01.001Z</time>
      </trkpt>
      <trkpt lat="43.00715667" lon="-1.31530833">
        <ele>956.0</ele>
        <time>2019-08-01T11:09:02.006Z</time>
      </trkpt>
      <trkpt lat="43.00716333" lon="-1.31531667">
        <ele>955.0</ele>
        <time>2019-08-01T11:09:03.014Z</time>
      </trkpt>
      <trkpt lat="43.00716667" lon="-1.315325">
        <ele>954.0</ele>
        <time>2019-08-01T11:09:04.020Z</time>
      </trkpt>
      <trkpt lat="43.00716667" lon="-1.31534">
        <ele>954.0</ele>
        <time>2019-08-01T11:09:05.027Z</time>
      </trkpt>
      <trkpt lat="43.00716333" lon="-1.31535167">
        <ele>954.0</ele>
        <time>2019-08-01T11:09:06.032Z</time>
      </trkpt>
      <trkpt lat="43.00715833" lon="-1.31536333">
        <ele>954.0</ele>
        <time>2019-08-01T11:09:07.039Z</time>
      </trkpt>
      <trkpt lat="43.00715333" lon="-1.31537333">
        <ele>955.0</ele>
        <time>2019-08-01T11:09:07.919Z</time>
      </trkpt>
      <trkpt lat="43.007155" lon="-1.31538167">
        <ele>956.0</ele>
        <time>2019-08-01T11:09:08.925Z</time>
      </trkpt>
      <trkpt lat="43.00716" lon="-1.31539667">
        <ele>956.0</ele>
        <time>2019-08-01T11:09:09.932Z</time>
      </trkpt>
      <trkpt lat="43.00716167" lon="-1.315415">
        <ele>956.0</ele>
        <time>2019-08-01T11:09:10.936Z</time>
      </trkpt>
      <trkpt lat="43.007165" lon="-1.31541667">
        <ele>956.0</ele>
        <time>2019-08-01T11:09:11.942Z</time>
      </trkpt>
      <trkpt lat="43.00716167" lon="-1.31542333">
        <ele>957.0</ele>
        <time>2019-08-01T11:09:12.948Z</time>
      </trkpt>
      <trkpt lat="43.007165" lon="-1.31543">
        <ele>957.0</ele>
        <time>2019-08-01T11:09:13.955Z</time>
      </trkpt>
      <trkpt lat="43.00716667" lon="-1.31544">
        <ele>957.0</ele>
        <time>2019-08-01T11:09:14.959Z</time>
      </trkpt>
      <trkpt lat="43.00717167" lon="-1.31545167">
        <ele>957.0</ele>
        <time>2019-08-01T11:09:15.965Z</time>
      </trkpt>
      <trkpt lat="43.007175" lon="-1.315465">
        <ele>957.0</ele>
        <time>2019-08-01T11:09:16.973Z</time>
      </trkpt>
      <trkpt lat="43.00717333" lon="-1.31547667">
        <ele>957.0</ele>
        <time>2019-08-01T11:09:17.978Z</time>
      </trkpt>
      <trkpt lat="43.00717167" lon="-1.31549333">
        <ele>957.0</ele>
        <time>2019-08-01T11:09:18.984Z</time>
      </trkpt>
      <trkpt lat="43.00716833" lon="-1.31550667">
        <ele>957.0</ele>
        <time>2019-08-01T11:09:19.990Z</time>
      </trkpt>
      <trkpt lat="43.007165" lon="-1.31552167">
        <ele>957.0</ele>
        <time>2019-08-01T11:09:20.996Z</time>
      </trkpt>
      <trkpt lat="43.00716333" lon="-1.315535">
        <ele>957.0</ele>
        <time>2019-08-01T11:09:22.001Z</time>
      </trkpt>
      <trkpt lat="43.00716167" lon="-1.31554833">
        <ele>957.0</ele>
        <time>2019-08-01T11:09:23.008Z</time>
      </trkpt>
      <trkpt lat="43.00716667" lon="-1.31556333">
        <ele>957.0</ele>
        <time>2019-08-01T11:09:24.015Z</time>
      </trkpt>
      <trkpt lat="43.00716833" lon="-1.31557">
        <ele>957.0</ele>
        <time>2019-08-01T11:09:25.020Z</time>
      </trkpt>
      <trkpt lat="43.007175" lon="-1.31557833">
        <ele>957.0</ele>
        <time>2019-08-01T11:09:26.025Z</time>
      </trkpt>
      <trkpt lat="43.00718" lon="-1.31558667">
        <ele>957.0</ele>
        <time>2019-08-01T11:09:27.029Z</time>
      </trkpt>
      <trkpt lat="43.007185" lon="-1.31559667">
        <ele>957.0</ele>
        <time>2019-08-01T11:09:28.034Z</time>
      </trkpt>
      <trkpt lat="43.00718667" lon="-1.31560833">
        <ele>956.0</ele>
        <time>2019-08-01T11:09:29.040Z</time>
      </trkpt>
      <trkpt lat="43.00719" lon="-1.31562333">
        <ele>956.0</ele>
        <time>2019-08-01T11:09:29.920Z</time>
      </trkpt>
      <trkpt lat="43.00719167" lon="-1.31563333">
        <ele>956.0</ele>
        <time>2019-08-01T11:09:30.928Z</time>
      </trkpt>
      <trkpt lat="43.007195" lon="-1.315645">
        <ele>956.0</ele>
        <time>2019-08-01T11:09:31.936Z</time>
      </trkpt>
      <trkpt lat="43.00719833" lon="-1.315655">
        <ele>956.0</ele>
        <time>2019-08-01T11:09:32.941Z</time>
      </trkpt>
      <trkpt lat="43.0072" lon="-1.31567">
        <ele>956.0</ele>
        <time>2019-08-01T11:09:33.947Z</time>
      </trkpt>
      <trkpt lat="43.00720167" lon="-1.31568667">
        <ele>956.0</ele>
        <time>2019-08-01T11:09:34.951Z</time>
      </trkpt>
      <trkpt lat="43.00720333" lon="-1.31570167">
        <ele>957.0</ele>
        <time>2019-08-01T11:09:35.957Z</time>
      </trkpt>
      <trkpt lat="43.00720833" lon="-1.31571333">
        <ele>956.0</ele>
        <time>2019-08-01T11:09:36.961Z</time>
      </trkpt>
      <trkpt lat="43.00721167" lon="-1.31572167">
        <ele>956.0</ele>
        <time>2019-08-01T11:09:37.969Z</time>
      </trkpt>
      <trkpt lat="43.00721" lon="-1.31574">
        <ele>956.0</ele>
        <time>2019-08-01T11:09:38.973Z</time>
      </trkpt>
      <trkpt lat="43.00721333" lon="-1.31576167">
        <ele>956.0</ele>
        <time>2019-08-01T11:09:39.980Z</time>
      </trkpt>
      <trkpt lat="43.00721667" lon="-1.31577667">
        <ele>956.0</ele>
        <time>2019-08-01T11:09:40.985Z</time>
      </trkpt>
      <trkpt lat="43.00722167" lon="-1.31579333">
        <ele>955.0</ele>
        <time>2019-08-01T11:09:41.991Z</time>
      </trkpt>
      <trkpt lat="43.00722667" lon="-1.31581167">
        <ele>955.0</ele>
        <time>2019-08-01T11:09:42.998Z</time>
      </trkpt>
      <trkpt lat="43.00723" lon="-1.31583">
        <ele>955.0</ele>
        <time>2019-08-01T11:09:44.004Z</time>
      </trkpt>
      <trkpt lat="43.00723667" lon="-1.31584667">
        <ele>955.0</ele>
        <time>2019-08-01T11:09:45.004Z</time>
      </trkpt>
      <trkpt lat="43.00723833" lon="-1.31587">
        <ele>955.0</ele>
        <time>2019-08-01T11:09:46.010Z</time>
      </trkpt>
      <trkpt lat="43.00724333" lon="-1.31588833">
        <ele>955.0</ele>
        <time>2019-08-01T11:09:47.016Z</time>
      </trkpt>
      <trkpt lat="43.00725333" lon="-1.31590333">
        <ele>956.0</ele>
        <time>2019-08-01T11:09:48.022Z</time>
      </trkpt>
      <trkpt lat="43.00725833" lon="-1.31592333">
        <ele>956.0</ele>
        <time>2019-08-01T11:09:49.029Z</time>
      </trkpt>
      <trkpt lat="43.00725833" lon="-1.31594167">
        <ele>955.0</ele>
        <time>2019-08-01T11:09:50.031Z</time>
      </trkpt>
      <trkpt lat="43.00726333" lon="-1.315955">
        <ele>954.0</ele>
        <time>2019-08-01T11:09:51.034Z</time>
      </trkpt>
      <trkpt lat="43.00727167" lon="-1.31596667">
        <ele>954.0</ele>
        <time>2019-08-01T11:09:52.041Z</time>
      </trkpt>
      <trkpt lat="43.00728" lon="-1.31597833">
        <ele>953.0</ele>
        <time>2019-08-01T11:09:52.919Z</time>
      </trkpt>
      <trkpt lat="43.00729" lon="-1.315995">
        <ele>953.0</ele>
        <time>2019-08-01T11:09:53.926Z</time>
      </trkpt>
      <trkpt lat="43.00729167" lon="-1.31600833">
        <ele>953.0</ele>
        <time>2019-08-01T11:09:54.934Z</time>
      </trkpt>
      <trkpt lat="43.007295" lon="-1.31602667">
        <ele>953.0</ele>
        <time>2019-08-01T11:09:55.939Z</time>
      </trkpt>
      <trkpt lat="43.00729833" lon="-1.316045">
        <ele>954.0</ele>
        <time>2019-08-01T11:09:56.946Z</time>
      </trkpt>
      <trkpt lat="43.0073" lon="-1.316065">
        <ele>954.0</ele>
        <time>2019-08-01T11:09:57.950Z</time>
      </trkpt>
      <trkpt lat="43.00730333" lon="-1.31608167">
        <ele>954.0</ele>
        <time>2019-08-01T11:09:58.956Z</time>
      </trkpt>
      <trkpt lat="43.00730333" lon="-1.31609833">
        <ele>954.0</ele>
        <time>2019-08-01T11:09:59.961Z</time>
      </trkpt>
      <trkpt lat="43.00730667" lon="-1.31611333">
        <ele>954.0</ele>
        <time>2019-08-01T11:10:00.966Z</time>
      </trkpt>
      <trkpt lat="43.00731" lon="-1.31613">
        <ele>954.0</ele>
        <time>2019-08-01T11:10:01.972Z</time>
      </trkpt>
      <trkpt lat="43.007315" lon="-1.31614667">
        <ele>954.0</ele>
        <time>2019-08-01T11:10:02.978Z</time>
      </trkpt>
      <trkpt lat="43.00732" lon="-1.31616333">
        <ele>954.0</ele>
        <time>2019-08-01T11:10:03.984Z</time>
      </trkpt>
      <trkpt lat="43.00732833" lon="-1.31618">
        <ele>955.0</ele>
        <time>2019-08-01T11:10:04.990Z</time>
      </trkpt>
      <trkpt lat="43.00733833" lon="-1.316195">
        <ele>955.0</ele>
        <time>2019-08-01T11:10:05.993Z</time>
      </trkpt>
      <trkpt lat="43.00735333" lon="-1.316205">
        <ele>955.0</ele>
        <time>2019-08-01T11:10:06.996Z</time>
      </trkpt>
      <trkpt lat="43.00736333" lon="-1.31621667">
        <ele>955.0</ele>
        <time>2019-08-01T11:10:08.001Z</time>
      </trkpt>
      <trkpt lat="43.00737167" lon="-1.31623">
        <ele>955.0</ele>
        <time>2019-08-01T11:10:09.005Z</time>
      </trkpt>
      <trkpt lat="43.00738333" lon="-1.31624167">
        <ele>955.0</ele>
        <time>2019-08-01T11:10:10.011Z</time>
      </trkpt>
      <trkpt lat="43.00739" lon="-1.316255">
        <ele>955.0</ele>
        <time>2019-08-01T11:10:11.015Z</time>
      </trkpt>
      <trkpt lat="43.00739833" lon="-1.31626667">
        <ele>954.0</ele>
        <time>2019-08-01T11:10:12.019Z</time>
      </trkpt>
      <trkpt lat="43.007405" lon="-1.31628333">
        <ele>954.0</ele>
        <time>2019-08-01T11:10:13.027Z</time>
      </trkpt>
      <trkpt lat="43.00741" lon="-1.31629667">
        <ele>954.0</ele>
        <time>2019-08-01T11:10:14.032Z</time>
      </trkpt>
      <trkpt lat="43.00741667" lon="-1.31631">
        <ele>953.0</ele>
        <time>2019-08-01T11:10:15.038Z</time>
      </trkpt>
      <trkpt lat="43.007425" lon="-1.316325">
        <ele>953.0</ele>
        <time>2019-08-01T11:10:15.918Z</time>
      </trkpt>
      <trkpt lat="43.00743167" lon="-1.31634333">
        <ele>952.0</ele>
        <time>2019-08-01T11:10:16.925Z</time>
      </trkpt>
      <trkpt lat="43.00744" lon="-1.31635833">
        <ele>952.0</ele>
        <time>2019-08-01T11:10:17.930Z</time>
      </trkpt>
      <trkpt lat="43.007445" lon="-1.31637333">
        <ele>951.0</ele>
        <time>2019-08-01T11:10:18.937Z</time>
      </trkpt>
      <trkpt lat="43.00745167" lon="-1.31639">
        <ele>951.0</ele>
        <time>2019-08-01T11:10:19.944Z</time>
      </trkpt>
      <trkpt lat="43.00745667" lon="-1.316405">
        <ele>951.0</ele>
        <time>2019-08-01T11:10:20.949Z</time>
      </trkpt>
      <trkpt lat="43.00746167" lon="-1.31642">
        <ele>951.0</ele>
        <time>2019-08-01T11:10:21.953Z</time>
      </trkpt>
      <trkpt lat="43.00746667" lon="-1.316435">
        <ele>951.0</ele>
        <time>2019-08-01T11:10:22.959Z</time>
      </trkpt>
      <trkpt lat="43.00747167" lon="-1.31645">
        <ele>950.0</ele>
        <time>2019-08-01T11:10:23.965Z</time>
      </trkpt>
      <trkpt lat="43.00748167" lon="-1.31646833">
        <ele>949.0</ele>
        <time>2019-08-01T11:10:24.972Z</time>
      </trkpt>
      <trkpt lat="43.00749" lon="-1.31648333">
        <ele>949.0</ele>
        <time>2019-08-01T11:10:25.978Z</time>
      </trkpt>
      <trkpt lat="43.00749833" lon="-1.316495">
        <ele>949.0</ele>
        <time>2019-08-01T11:10:26.985Z</time>
      </trkpt>
      <trkpt lat="43.00750833" lon="-1.31650833">
        <ele>949.0</ele>
        <time>2019-08-01T11:10:27.989Z</time>
      </trkpt>
      <trkpt lat="43.007515" lon="-1.316525">
        <ele>948.0</ele>
        <time>2019-08-01T11:10:28.993Z</time>
      </trkpt>
      <trkpt lat="43.00752333" lon="-1.31654">
        <ele>949.0</ele>
        <time>2019-08-01T11:10:29.999Z</time>
      </trkpt>
      <trkpt lat="43.00753" lon="-1.31656">
        <ele>949.0</ele>
        <time>2019-08-01T11:10:31.005Z</time>
      </trkpt>
      <trkpt lat="43.007535" lon="-1.31657833">
        <ele>949.0</ele>
        <time>2019-08-01T11:10:32.010Z</time>
      </trkpt>
      <trkpt lat="43.00754167" lon="-1.31659667">
        <ele>949.0</ele>
        <time>2019-08-01T11:10:33.016Z</time>
      </trkpt>
      <trkpt lat="43.00755" lon="-1.31661">
        <ele>949.0</ele>
        <time>2019-08-01T11:10:34.021Z</time>
      </trkpt>
      <trkpt lat="43.00755333" lon="-1.31662833">
        <ele>949.0</ele>
        <time>2019-08-01T11:10:35.026Z</time>
      </trkpt>
      <trkpt lat="43.007555" lon="-1.31664333">
        <ele>949.0</ele>
        <time>2019-08-01T11:10:36.030Z</time>
      </trkpt>
      <trkpt lat="43.00756167" lon="-1.31665667">
        <ele>948.0</ele>
        <time>2019-08-01T11:10:37.034Z</time>
      </trkpt>
      <trkpt lat="43.00756667" lon="-1.316665">
        <ele>948.0</ele>
        <time>2019-08-01T11:10:38.040Z</time>
      </trkpt>
      <trkpt lat="43.007575" lon="-1.31668333">
        <ele>948.0</ele>
        <time>2019-08-01T11:10:38.920Z</time>
      </trkpt>
      <trkpt lat="43.00757833" lon="-1.31669833">
        <ele>948.0</ele>
        <time>2019-08-01T11:10:39.926Z</time>
      </trkpt>
      <trkpt lat="43.00758333" lon="-1.316715">
        <ele>948.0</ele>
        <time>2019-08-01T11:10:40.932Z</time>
      </trkpt>
      <trkpt lat="43.00758833" lon="-1.316735">
        <ele>947.0</ele>
        <time>2019-08-01T11:10:41.937Z</time>
      </trkpt>
      <trkpt lat="43.007595" lon="-1.31675833">
        <ele>946.0</ele>
        <time>2019-08-01T11:10:42.944Z</time>
      </trkpt>
      <trkpt lat="43.00759833" lon="-1.31677333">
        <ele>945.0</ele>
        <time>2019-08-01T11:10:43.948Z</time>
      </trkpt>
      <trkpt lat="43.00760167" lon="-1.316785">
        <ele>945.0</ele>
        <time>2019-08-01T11:10:44.955Z</time>
      </trkpt>
      <trkpt lat="43.00760667" lon="-1.31679833">
        <ele>944.0</ele>
        <time>2019-08-01T11:10:45.960Z</time>
      </trkpt>
      <trkpt lat="43.00761167" lon="-1.316815">
        <ele>944.0</ele>
        <time>2019-08-01T11:10:46.966Z</time>
      </trkpt>
      <trkpt lat="43.00761333" lon="-1.316835">
        <ele>944.0</ele>
        <time>2019-08-01T11:10:47.971Z</time>
      </trkpt>
      <trkpt lat="43.00761667" lon="-1.31685333">
        <ele>944.0</ele>
        <time>2019-08-01T11:10:48.978Z</time>
      </trkpt>
      <trkpt lat="43.00762167" lon="-1.31686833">
        <ele>943.0</ele>
        <time>2019-08-01T11:10:49.986Z</time>
      </trkpt>
      <trkpt lat="43.00763" lon="-1.31688167">
        <ele>943.0</ele>
        <time>2019-08-01T11:10:50.994Z</time>
      </trkpt>
      <trkpt lat="43.00763833" lon="-1.316895">
        <ele>944.0</ele>
        <time>2019-08-01T11:10:52.001Z</time>
      </trkpt>
      <trkpt lat="43.00764667" lon="-1.31690833">
        <ele>944.0</ele>
        <time>2019-08-01T11:10:53.006Z</time>
      </trkpt>
      <trkpt lat="43.007655" lon="-1.31692167">
        <ele>945.0</ele>
        <time>2019-08-01T11:10:54.012Z</time>
      </trkpt>
      <trkpt lat="43.00765667" lon="-1.31693667">
        <ele>946.0</ele>
        <time>2019-08-01T11:10:55.018Z</time>
      </trkpt>
      <trkpt lat="43.00765833" lon="-1.316945">
        <ele>947.0</ele>
        <time>2019-08-01T11:10:56.024Z</time>
      </trkpt>
      <trkpt lat="43.00765833" lon="-1.31695833">
        <ele>948.0</ele>
        <time>2019-08-01T11:10:57.031Z</time>
      </trkpt>
      <trkpt lat="43.00766333" lon="-1.31697">
        <ele>949.0</ele>
        <time>2019-08-01T11:10:58.037Z</time>
      </trkpt>
      <trkpt lat="43.00767" lon="-1.31698167">
        <ele>948.0</ele>
        <time>2019-08-01T11:10:59.041Z</time>
      </trkpt>
      <trkpt lat="43.00767667" lon="-1.316995">
        <ele>947.0</ele>
        <time>2019-08-01T11:10:59.921Z</time>
      </trkpt>
      <trkpt lat="43.00768167" lon="-1.317015">
        <ele>947.0</ele>
        <time>2019-08-01T11:11:00.928Z</time>
      </trkpt>
      <trkpt lat="43.00768833" lon="-1.31703167">
        <ele>947.0</ele>
        <time>2019-08-01T11:11:01.933Z</time>
      </trkpt>
      <trkpt lat="43.00769333" lon="-1.31704667">
        <ele>947.0</ele>
        <time>2019-08-01T11:11:02.938Z</time>
      </trkpt>
      <trkpt lat="43.00769833" lon="-1.31705667">
        <ele>948.0</ele>
        <time>2019-08-01T11:11:03.945Z</time>
      </trkpt>
      <trkpt lat="43.0077" lon="-1.31707167">
        <ele>948.0</ele>
        <time>2019-08-01T11:11:04.950Z</time>
      </trkpt>
      <trkpt lat="43.00770333" lon="-1.317085">
        <ele>948.0</ele>
        <time>2019-08-01T11:11:05.957Z</time>
      </trkpt>
      <trkpt lat="43.007705" lon="-1.31710167">
        <ele>948.0</ele>
        <time>2019-08-01T11:11:06.964Z</time>
      </trkpt>
      <trkpt lat="43.00770667" lon="-1.31712167">
        <ele>947.0</ele>
        <time>2019-08-01T11:11:07.970Z</time>
      </trkpt>
      <trkpt lat="43.00771167" lon="-1.31713833">
        <ele>947.0</ele>
        <time>2019-08-01T11:11:08.977Z</time>
      </trkpt>
      <trkpt lat="43.00771667" lon="-1.31715333">
        <ele>947.0</ele>
        <time>2019-08-01T11:11:09.984Z</time>
      </trkpt>
      <trkpt lat="43.00772" lon="-1.31717333">
        <ele>947.0</ele>
        <time>2019-08-01T11:11:10.990Z</time>
      </trkpt>
      <trkpt lat="43.00772667" lon="-1.31718667">
        <ele>948.0</ele>
        <time>2019-08-01T11:11:11.995Z</time>
      </trkpt>
      <trkpt lat="43.007735" lon="-1.31719833">
        <ele>949.0</ele>
        <time>2019-08-01T11:11:13.000Z</time>
      </trkpt>
      <trkpt lat="43.00774333" lon="-1.31721167">
        <ele>949.0</ele>
        <time>2019-08-01T11:11:14.008Z</time>
      </trkpt>
      <trkpt lat="43.00775333" lon="-1.31722667">
        <ele>949.0</ele>
        <time>2019-08-01T11:11:15.014Z</time>
      </trkpt>
      <trkpt lat="43.00776333" lon="-1.31724333">
        <ele>949.0</ele>
        <time>2019-08-01T11:11:16.020Z</time>
      </trkpt>
      <trkpt lat="43.00777167" lon="-1.31726167">
        <ele>950.0</ele>
        <time>2019-08-01T11:11:17.027Z</time>
      </trkpt>
      <trkpt lat="43.00777833" lon="-1.31727833">
        <ele>950.0</ele>
        <time>2019-08-01T11:11:18.033Z</time>
      </trkpt>
      <trkpt lat="43.00778833" lon="-1.31729333">
        <ele>950.0</ele>
        <time>2019-08-01T11:11:19.038Z</time>
      </trkpt>
      <trkpt lat="43.00779667" lon="-1.317305">
        <ele>950.0</ele>
        <time>2019-08-01T11:11:20.043Z</time>
      </trkpt>
      <trkpt lat="43.00780333" lon="-1.31731667">
        <ele>951.0</ele>
        <time>2019-08-01T11:11:20.923Z</time>
      </trkpt>
      <trkpt lat="43.00781" lon="-1.31733333">
        <ele>951.0</ele>
        <time>2019-08-01T11:11:21.931Z</time>
      </trkpt>
      <trkpt lat="43.007815" lon="-1.31734833">
        <ele>952.0</ele>
        <time>2019-08-01T11:11:22.938Z</time>
      </trkpt>
      <trkpt lat="43.00782" lon="-1.31736833">
        <ele>951.0</ele>
        <time>2019-08-01T11:11:23.942Z</time>
      </trkpt>
      <trkpt lat="43.00783" lon="-1.31737667">
        <ele>951.0</ele>
        <time>2019-08-01T11:11:24.948Z</time>
      </trkpt>
      <trkpt lat="43.00784" lon="-1.31738333">
        <ele>950.0</ele>
        <time>2019-08-01T11:11:25.953Z</time>
      </trkpt>
      <trkpt lat="43.00785167" lon="-1.3174">
        <ele>950.0</ele>
        <time>2019-08-01T11:11:26.961Z</time>
      </trkpt>
      <trkpt lat="43.00786" lon="-1.31742">
        <ele>950.0</ele>
        <time>2019-08-01T11:11:27.967Z</time>
      </trkpt>
      <trkpt lat="43.00786833" lon="-1.31743167">
        <ele>949.0</ele>
        <time>2019-08-01T11:11:28.973Z</time>
      </trkpt>
      <trkpt lat="43.00787667" lon="-1.31744167">
        <ele>948.0</ele>
        <time>2019-08-01T11:11:29.979Z</time>
      </trkpt>
      <trkpt lat="43.00788667" lon="-1.31745">
        <ele>948.0</ele>
        <time>2019-08-01T11:11:30.985Z</time>
      </trkpt>
      <trkpt lat="43.00789667" lon="-1.31745667">
        <ele>947.0</ele>
        <time>2019-08-01T11:11:31.990Z</time>
      </trkpt>
      <trkpt lat="43.00790667" lon="-1.31747167">
        <ele>946.0</ele>
        <time>2019-08-01T11:11:32.995Z</time>
      </trkpt>
      <trkpt lat="43.00792" lon="-1.31748">
        <ele>946.0</ele>
        <time>2019-08-01T11:11:34.002Z</time>
      </trkpt>
      <trkpt lat="43.007935" lon="-1.31748333">
        <ele>946.0</ele>
        <time>2019-08-01T11:11:35.008Z</time>
      </trkpt>
      <trkpt lat="43.00794667" lon="-1.317495">
        <ele>945.0</ele>
        <time>2019-08-01T11:11:36.013Z</time>
      </trkpt>
      <trkpt lat="43.00795333" lon="-1.31751">
        <ele>946.0</ele>
        <time>2019-08-01T11:11:37.020Z</time>
      </trkpt>
      <trkpt lat="43.007965" lon="-1.31752167">
        <ele>948.0</ele>
        <time>2019-08-01T11:11:38.025Z</time>
      </trkpt>
      <trkpt lat="43.00797333" lon="-1.31752667">
        <ele>949.0</ele>
        <time>2019-08-01T11:11:39.030Z</time>
      </trkpt>
      <trkpt lat="43.00797667" lon="-1.31752667">
        <ele>949.0</ele>
        <time>2019-08-01T11:11:40.036Z</time>
      </trkpt>
      <trkpt lat="43.00797833" lon="-1.31753667">
        <ele>950.0</ele>
        <time>2019-08-01T11:11:41.043Z</time>
      </trkpt>
      <trkpt lat="43.007985" lon="-1.31754833">
        <ele>950.0</ele>
        <time>2019-08-01T11:11:41.923Z</time>
      </trkpt>
      <trkpt lat="43.00799" lon="-1.31756167">
        <ele>950.0</ele>
        <time>2019-08-01T11:11:42.928Z</time>
      </trkpt>
      <trkpt lat="43.00798667" lon="-1.31758167">
        <ele>950.0</ele>
        <time>2019-08-01T11:11:43.935Z</time>
      </trkpt>
      <trkpt lat="43.00799" lon="-1.31759">
        <ele>949.0</ele>
        <time>2019-08-01T11:11:44.940Z</time>
      </trkpt>
      <trkpt lat="43.007995" lon="-1.31759833">
        <ele>948.0</ele>
        <time>2019-08-01T11:11:45.945Z</time>
      </trkpt>
      <trkpt lat="43.00799833" lon="-1.31760833">
        <ele>948.0</ele>
        <time>2019-08-01T11:11:46.947Z</time>
      </trkpt>
      <trkpt lat="43.00800333" lon="-1.31761833">
        <ele>947.0</ele>
        <time>2019-08-01T11:11:47.951Z</time>
      </trkpt>
      <trkpt lat="43.00801" lon="-1.31762833">
        <ele>947.0</ele>
        <time>2019-08-01T11:11:48.957Z</time>
      </trkpt>
      <trkpt lat="43.00801833" lon="-1.31763833">
        <ele>946.0</ele>
        <time>2019-08-01T11:11:49.961Z</time>
      </trkpt>
      <trkpt lat="43.008025" lon="-1.31765">
        <ele>946.0</ele>
        <time>2019-08-01T11:11:50.967Z</time>
      </trkpt>
      <trkpt lat="43.00803" lon="-1.31766">
        <ele>947.0</ele>
        <time>2019-08-01T11:11:51.973Z</time>
      </trkpt>
      <trkpt lat="43.00803833" lon="-1.31767167">
        <ele>948.0</ele>
        <time>2019-08-01T11:11:52.979Z</time>
      </trkpt>
      <trkpt lat="43.008045" lon="-1.31768833">
        <ele>949.0</ele>
        <time>2019-08-01T11:11:53.985Z</time>
      </trkpt>
      <trkpt lat="43.00805333" lon="-1.3177">
        <ele>950.0</ele>
        <time>2019-08-01T11:11:54.990Z</time>
      </trkpt>
      <trkpt lat="43.00806333" lon="-1.31770833">
        <ele>952.0</ele>
        <time>2019-08-01T11:11:55.998Z</time>
      </trkpt>
      <trkpt lat="43.00807333" lon="-1.31772">
        <ele>952.0</ele>
        <time>2019-08-01T11:11:57.001Z</time>
      </trkpt>
      <trkpt lat="43.00808333" lon="-1.31772833">
        <ele>952.0</ele>
        <time>2019-08-01T11:11:58.006Z</time>
      </trkpt>
      <trkpt lat="43.00809167" lon="-1.31774">
        <ele>953.0</ele>
        <time>2019-08-01T11:11:59.012Z</time>
      </trkpt>
      <trkpt lat="43.00810167" lon="-1.31775167">
        <ele>953.0</ele>
        <time>2019-08-01T11:12:00.019Z</time>
      </trkpt>
      <trkpt lat="43.00811167" lon="-1.31776333">
        <ele>953.0</ele>
        <time>2019-08-01T11:12:01.025Z</time>
      </trkpt>
      <trkpt lat="43.00812167" lon="-1.317775">
        <ele>953.0</ele>
        <time>2019-08-01T11:12:02.032Z</time>
      </trkpt>
      <trkpt lat="43.00813167" lon="-1.31778667">
        <ele>953.0</ele>
        <time>2019-08-01T11:12:03.039Z</time>
      </trkpt>
      <trkpt lat="43.00814" lon="-1.31779333">
        <ele>954.0</ele>
        <time>2019-08-01T11:12:03.918Z</time>
      </trkpt>
      <trkpt lat="43.00815167" lon="-1.31780667">
        <ele>954.0</ele>
        <time>2019-08-01T11:12:04.924Z</time>
      </trkpt>
      <trkpt lat="43.00815833" lon="-1.31782">
        <ele>954.0</ele>
        <time>2019-08-01T11:12:05.928Z</time>
      </trkpt>
      <trkpt lat="43.00816333" lon="-1.31783833">
        <ele>954.0</ele>
        <time>2019-08-01T11:12:06.931Z</time>
      </trkpt>
      <trkpt lat="43.00816833" lon="-1.31786">
        <ele>954.0</ele>
        <time>2019-08-01T11:12:07.935Z</time>
      </trkpt>
      <trkpt lat="43.00817667" lon="-1.31787167">
        <ele>954.0</ele>
        <time>2019-08-01T11:12:08.941Z</time>
      </trkpt>
      <trkpt lat="43.00818333" lon="-1.31787833">
        <ele>954.0</ele>
        <time>2019-08-01T11:12:09.948Z</time>
      </trkpt>
      <trkpt lat="43.00818667" lon="-1.31788667">
        <ele>954.0</ele>
        <time>2019-08-01T11:12:10.953Z</time>
      </trkpt>
      <trkpt lat="43.008195" lon="-1.31789333">
        <ele>954.0</ele>
        <time>2019-08-01T11:12:11.959Z</time>
      </trkpt>
      <trkpt lat="43.00820333" lon="-1.31790333">
        <ele>954.0</ele>
        <time>2019-08-01T11:12:12.963Z</time>
      </trkpt>
      <trkpt lat="43.00820833" lon="-1.31792167">
        <ele>953.0</ele>
        <time>2019-08-01T11:12:13.967Z</time>
      </trkpt>
      <trkpt lat="43.00820833" lon="-1.317935">
        <ele>953.0</ele>
        <time>2019-08-01T11:12:14.974Z</time>
      </trkpt>
      <trkpt lat="43.00820833" lon="-1.31795167">
        <ele>954.0</ele>
        <time>2019-08-01T11:12:15.979Z</time>
      </trkpt>
      <trkpt lat="43.00821" lon="-1.31796833">
        <ele>955.0</ele>
        <time>2019-08-01T11:12:16.984Z</time>
      </trkpt>
      <trkpt lat="43.00821333" lon="-1.31798167">
        <ele>955.0</ele>
        <time>2019-08-01T11:12:17.989Z</time>
      </trkpt>
      <trkpt lat="43.00821833" lon="-1.317995">
        <ele>956.0</ele>
        <time>2019-08-01T11:12:18.995Z</time>
      </trkpt>
      <trkpt lat="43.008225" lon="-1.31800833">
        <ele>956.0</ele>
        <time>2019-08-01T11:12:19.998Z</time>
      </trkpt>
      <trkpt lat="43.00823167" lon="-1.31802167">
        <ele>957.0</ele>
        <time>2019-08-01T11:12:21.001Z</time>
      </trkpt>
      <trkpt lat="43.00824333" lon="-1.31802667">
        <ele>957.0</ele>
        <time>2019-08-01T11:12:22.009Z</time>
      </trkpt>
      <trkpt lat="43.008255" lon="-1.318035">
        <ele>956.0</ele>
        <time>2019-08-01T11:12:23.015Z</time>
      </trkpt>
      <trkpt lat="43.00826833" lon="-1.31804333">
        <ele>956.0</ele>
        <time>2019-08-01T11:12:24.021Z</time>
      </trkpt>
      <trkpt lat="43.00828167" lon="-1.31805167">
        <ele>956.0</ele>
        <time>2019-08-01T11:12:25.022Z</time>
      </trkpt>
      <trkpt lat="43.00829167" lon="-1.31806">
        <ele>955.0</ele>
        <time>2019-08-01T11:12:26.028Z</time>
      </trkpt>
      <trkpt lat="43.00830333" lon="-1.31806833">
        <ele>954.0</ele>
        <time>2019-08-01T11:12:27.031Z</time>
      </trkpt>
      <trkpt lat="43.00831333" lon="-1.31807833">
        <ele>954.0</ele>
        <time>2019-08-01T11:12:28.035Z</time>
      </trkpt>
      <trkpt lat="43.00832333" lon="-1.31808833">
        <ele>953.0</ele>
        <time>2019-08-01T11:12:29.040Z</time>
      </trkpt>
      <trkpt lat="43.00833667" lon="-1.31809833">
        <ele>952.0</ele>
        <time>2019-08-01T11:12:29.921Z</time>
      </trkpt>
      <trkpt lat="43.00834667" lon="-1.31811167">
        <ele>952.0</ele>
        <time>2019-08-01T11:12:30.929Z</time>
      </trkpt>
      <trkpt lat="43.008355" lon="-1.31812667">
        <ele>951.0</ele>
        <time>2019-08-01T11:12:31.936Z</time>
      </trkpt>
      <trkpt lat="43.00836333" lon="-1.31814333">
        <ele>951.0</ele>
        <time>2019-08-01T11:12:32.941Z</time>
      </trkpt>
      <trkpt lat="43.00837333" lon="-1.31815333">
        <ele>950.0</ele>
        <time>2019-08-01T11:12:33.947Z</time>
      </trkpt>
      <trkpt lat="43.00838333" lon="-1.31816333">
        <ele>950.0</ele>
        <time>2019-08-01T11:12:34.952Z</time>
      </trkpt>
      <trkpt lat="43.00839167" lon="-1.31817833">
        <ele>950.0</ele>
        <time>2019-08-01T11:12:35.957Z</time>
      </trkpt>
      <trkpt lat="43.00839667" lon="-1.31819667">
        <ele>950.0</ele>
        <time>2019-08-01T11:12:36.961Z</time>
      </trkpt>
      <trkpt lat="43.008405" lon="-1.31821333">
        <ele>950.0</ele>
        <time>2019-08-01T11:12:37.967Z</time>
      </trkpt>
      <trkpt lat="43.00841" lon="-1.31823">
        <ele>950.0</ele>
        <time>2019-08-01T11:12:38.974Z</time>
      </trkpt>
      <trkpt lat="43.00842167" lon="-1.31824333">
        <ele>950.0</ele>
        <time>2019-08-01T11:12:39.980Z</time>
      </trkpt>
      <trkpt lat="43.00843167" lon="-1.31825667">
        <ele>949.0</ele>
        <time>2019-08-01T11:12:40.986Z</time>
      </trkpt>
      <trkpt lat="43.00843833" lon="-1.31826333">
        <ele>949.0</ele>
        <time>2019-08-01T11:12:41.991Z</time>
      </trkpt>
      <trkpt lat="43.00844833" lon="-1.318265">
        <ele>948.0</ele>
        <time>2019-08-01T11:12:42.997Z</time>
      </trkpt>
      <trkpt lat="43.00845833" lon="-1.31826667">
        <ele>947.0</ele>
        <time>2019-08-01T11:12:44.001Z</time>
      </trkpt>
      <trkpt lat="43.00846667" lon="-1.31827167">
        <ele>946.0</ele>
        <time>2019-08-01T11:12:45.005Z</time>
      </trkpt>
      <trkpt lat="43.008475" lon="-1.31828167">
        <ele>946.0</ele>
        <time>2019-08-01T11:12:46.011Z</time>
      </trkpt>
      <trkpt lat="43.00848" lon="-1.3183">
        <ele>945.0</ele>
        <time>2019-08-01T11:12:47.016Z</time>
      </trkpt>
      <trkpt lat="43.00848667" lon="-1.31830833">
        <ele>945.0</ele>
        <time>2019-08-01T11:12:48.023Z</time>
      </trkpt>
      <trkpt lat="43.00849167" lon="-1.318325">
        <ele>945.0</ele>
        <time>2019-08-01T11:12:49.027Z</time>
      </trkpt>
      <trkpt lat="43.00849833" lon="-1.31833833">
        <ele>945.0</ele>
        <time>2019-08-01T11:12:50.031Z</time>
      </trkpt>
      <trkpt lat="43.00850667" lon="-1.31834833">
        <ele>944.0</ele>
        <time>2019-08-01T11:12:51.034Z</time>
      </trkpt>
      <trkpt lat="43.00852167" lon="-1.31835667">
        <ele>944.0</ele>
        <time>2019-08-01T11:12:52.041Z</time>
      </trkpt>
      <trkpt lat="43.00853333" lon="-1.318365">
        <ele>944.0</ele>
        <time>2019-08-01T11:12:52.922Z</time>
      </trkpt>
      <trkpt lat="43.008545" lon="-1.318375">
        <ele>944.0</ele>
        <time>2019-08-01T11:12:53.927Z</time>
      </trkpt>
      <trkpt lat="43.008555" lon="-1.318385">
        <ele>944.0</ele>
        <time>2019-08-01T11:12:54.934Z</time>
      </trkpt>
      <trkpt lat="43.008565" lon="-1.318395">
        <ele>944.0</ele>
        <time>2019-08-01T11:12:55.942Z</time>
      </trkpt>
      <trkpt lat="43.008575" lon="-1.31840333">
        <ele>944.0</ele>
        <time>2019-08-01T11:12:56.948Z</time>
      </trkpt>
      <trkpt lat="43.008585" lon="-1.31841333">
        <ele>944.0</ele>
        <time>2019-08-01T11:12:57.951Z</time>
      </trkpt>
      <trkpt lat="43.00859667" lon="-1.31842">
        <ele>943.0</ele>
        <time>2019-08-01T11:12:58.956Z</time>
      </trkpt>
      <trkpt lat="43.00860833" lon="-1.31842667">
        <ele>943.0</ele>
        <time>2019-08-01T11:12:59.963Z</time>
      </trkpt>
      <trkpt lat="43.00862" lon="-1.31843333">
        <ele>942.0</ele>
        <time>2019-08-01T11:13:00.972Z</time>
      </trkpt>
      <trkpt lat="43.00863167" lon="-1.31844167">
        <ele>942.0</ele>
        <time>2019-08-01T11:13:01.979Z</time>
      </trkpt>
      <trkpt lat="43.00864167" lon="-1.31845167">
        <ele>942.0</ele>
        <time>2019-08-01T11:13:02.986Z</time>
      </trkpt>
      <trkpt lat="43.00865167" lon="-1.31845667">
        <ele>941.0</ele>
        <time>2019-08-01T11:13:03.991Z</time>
      </trkpt>
      <trkpt lat="43.00866333" lon="-1.318465">
        <ele>941.0</ele>
        <time>2019-08-01T11:13:04.997Z</time>
      </trkpt>
      <trkpt lat="43.008675" lon="-1.31847333">
        <ele>941.0</ele>
        <time>2019-08-01T11:13:06.002Z</time>
      </trkpt>
      <trkpt lat="43.00868333" lon="-1.31848">
        <ele>941.0</ele>
        <time>2019-08-01T11:13:07.009Z</time>
      </trkpt>
      <trkpt lat="43.00869" lon="-1.31849">
        <ele>941.0</ele>
        <time>2019-08-01T11:13:08.012Z</time>
      </trkpt>
      <trkpt lat="43.0087" lon="-1.31849833">
        <ele>941.0</ele>
        <time>2019-08-01T11:13:09.017Z</time>
      </trkpt>
      <trkpt lat="43.00871" lon="-1.318505">
        <ele>940.0</ele>
        <time>2019-08-01T11:13:10.023Z</time>
      </trkpt>
      <trkpt lat="43.00871833" lon="-1.31851167">
        <ele>940.0</ele>
        <time>2019-08-01T11:13:11.028Z</time>
      </trkpt>
      <trkpt lat="43.00872833" lon="-1.31851833">
        <ele>940.0</ele>
        <time>2019-08-01T11:13:12.032Z</time>
      </trkpt>
      <trkpt lat="43.00873667" lon="-1.318525">
        <ele>939.0</ele>
        <time>2019-08-01T11:13:13.039Z</time>
      </trkpt>
      <trkpt lat="43.00874667" lon="-1.31853167">
        <ele>938.0</ele>
        <time>2019-08-01T11:13:13.920Z</time>
      </trkpt>
      <trkpt lat="43.00875333" lon="-1.31853833">
        <ele>938.0</ele>
        <time>2019-08-01T11:13:14.925Z</time>
      </trkpt>
      <trkpt lat="43.00876" lon="-1.31854667">
        <ele>938.0</ele>
        <time>2019-08-01T11:13:15.931Z</time>
      </trkpt>
      <trkpt lat="43.00876667" lon="-1.318555">
        <ele>937.0</ele>
        <time>2019-08-01T11:13:16.937Z</time>
      </trkpt>
      <trkpt lat="43.008775" lon="-1.31856167">
        <ele>937.0</ele>
        <time>2019-08-01T11:13:17.941Z</time>
      </trkpt>
      <trkpt lat="43.008785" lon="-1.31857167">
        <ele>937.0</ele>
        <time>2019-08-01T11:13:18.946Z</time>
      </trkpt>
      <trkpt lat="43.00879167" lon="-1.31858167">
        <ele>937.0</ele>
        <time>2019-08-01T11:13:19.951Z</time>
      </trkpt>
      <trkpt lat="43.00879833" lon="-1.31858833">
        <ele>936.0</ele>
        <time>2019-08-01T11:13:20.957Z</time>
      </trkpt>
      <trkpt lat="43.008805" lon="-1.31859667">
        <ele>936.0</ele>
        <time>2019-08-01T11:13:21.963Z</time>
      </trkpt>
      <trkpt lat="43.00881167" lon="-1.318605">
        <ele>936.0</ele>
        <time>2019-08-01T11:13:22.969Z</time>
      </trkpt>
      <trkpt lat="43.00881833" lon="-1.31861">
        <ele>936.0</ele>
        <time>2019-08-01T11:13:23.974Z</time>
      </trkpt>
      <trkpt lat="43.00882667" lon="-1.31861667">
        <ele>935.0</ele>
        <time>2019-08-01T11:13:24.980Z</time>
      </trkpt>
      <trkpt lat="43.00883333" lon="-1.31862667">
        <ele>935.0</ele>
        <time>2019-08-01T11:13:25.983Z</time>
      </trkpt>
      <trkpt lat="43.00884" lon="-1.31863667">
        <ele>934.0</ele>
        <time>2019-08-01T11:13:26.988Z</time>
      </trkpt>
      <trkpt lat="43.00884833" lon="-1.31864667">
        <ele>934.0</ele>
        <time>2019-08-01T11:13:27.995Z</time>
      </trkpt>
      <trkpt lat="43.00885667" lon="-1.31865667">
        <ele>934.0</ele>
        <time>2019-08-01T11:13:29.000Z</time>
      </trkpt>
      <trkpt lat="43.00886167" lon="-1.31866667">
        <ele>934.0</ele>
        <time>2019-08-01T11:13:30.004Z</time>
      </trkpt>
      <trkpt lat="43.00886667" lon="-1.31867667">
        <ele>934.0</ele>
        <time>2019-08-01T11:13:31.010Z</time>
      </trkpt>
      <trkpt lat="43.00887" lon="-1.318685">
        <ele>934.0</ele>
        <time>2019-08-01T11:13:32.015Z</time>
      </trkpt>
      <trkpt lat="43.008875" lon="-1.318695">
        <ele>935.0</ele>
        <time>2019-08-01T11:13:33.021Z</time>
      </trkpt>
      <trkpt lat="43.00888" lon="-1.31870833">
        <ele>935.0</ele>
        <time>2019-08-01T11:13:34.028Z</time>
      </trkpt>
      <trkpt lat="43.008885" lon="-1.31872">
        <ele>935.0</ele>
        <time>2019-08-01T11:13:35.035Z</time>
      </trkpt>
      <trkpt lat="43.00889" lon="-1.31873167">
        <ele>935.0</ele>
        <time>2019-08-01T11:13:36.040Z</time>
      </trkpt>
      <trkpt lat="43.008895" lon="-1.31874333">
        <ele>936.0</ele>
        <time>2019-08-01T11:13:36.920Z</time>
      </trkpt>
      <trkpt lat="43.00889833" lon="-1.31875333">
        <ele>936.0</ele>
        <time>2019-08-01T11:13:37.926Z</time>
      </trkpt>
      <trkpt lat="43.00890333" lon="-1.31876667">
        <ele>936.0</ele>
        <time>2019-08-01T11:13:38.933Z</time>
      </trkpt>
      <trkpt lat="43.00890667" lon="-1.31878333">
        <ele>936.0</ele>
        <time>2019-08-01T11:13:39.938Z</time>
      </trkpt>
      <trkpt lat="43.00891" lon="-1.31879167">
        <ele>936.0</ele>
        <time>2019-08-01T11:13:40.942Z</time>
      </trkpt>
      <trkpt lat="43.00891667" lon="-1.318795">
        <ele>936.0</ele>
        <time>2019-08-01T11:13:41.948Z</time>
      </trkpt>
      <trkpt lat="43.00892167" lon="-1.31879667">
        <ele>936.0</ele>
        <time>2019-08-01T11:13:42.952Z</time>
      </trkpt>
      <trkpt lat="43.00892833" lon="-1.31879667">
        <ele>937.0</ele>
        <time>2019-08-01T11:13:43.959Z</time>
      </trkpt>
      <trkpt lat="43.00893833" lon="-1.31879333">
        <ele>937.0</ele>
        <time>2019-08-01T11:13:44.964Z</time>
      </trkpt>
      <trkpt lat="43.00894833" lon="-1.31878667">
        <ele>938.0</ele>
        <time>2019-08-01T11:13:45.970Z</time>
      </trkpt>
      <trkpt lat="43.00896" lon="-1.31877833">
        <ele>939.0</ele>
        <time>2019-08-01T11:13:46.976Z</time>
      </trkpt>
      <trkpt lat="43.00897167" lon="-1.31876833">
        <ele>939.0</ele>
        <time>2019-08-01T11:13:47.982Z</time>
      </trkpt>
      <trkpt lat="43.00898167" lon="-1.31875833">
        <ele>940.0</ele>
        <time>2019-08-01T11:13:48.986Z</time>
      </trkpt>
      <trkpt lat="43.00899167" lon="-1.31875">
        <ele>941.0</ele>
        <time>2019-08-01T11:13:49.990Z</time>
      </trkpt>
      <trkpt lat="43.009" lon="-1.31874167">
        <ele>942.0</ele>
        <time>2019-08-01T11:13:50.994Z</time>
      </trkpt>
      <trkpt lat="43.00900833" lon="-1.31873167">
        <ele>942.0</ele>
        <time>2019-08-01T11:13:51.998Z</time>
      </trkpt>
      <trkpt lat="43.009015" lon="-1.31872167">
        <ele>941.0</ele>
        <time>2019-08-01T11:13:53.003Z</time>
      </trkpt>
      <trkpt lat="43.00902167" lon="-1.31871833">
        <ele>941.0</ele>
        <time>2019-08-01T11:13:54.008Z</time>
      </trkpt>
      <trkpt lat="43.00903167" lon="-1.318715">
        <ele>941.0</ele>
        <time>2019-08-01T11:13:55.015Z</time>
      </trkpt>
      <trkpt lat="43.00904167" lon="-1.31870667">
        <ele>941.0</ele>
        <time>2019-08-01T11:13:56.019Z</time>
      </trkpt>
      <trkpt lat="43.00905333" lon="-1.3187">
        <ele>942.0</ele>
        <time>2019-08-01T11:13:57.025Z</time>
      </trkpt>
      <trkpt lat="43.00906333" lon="-1.31869333">
        <ele>942.0</ele>
        <time>2019-08-01T11:13:58.031Z</time>
      </trkpt>
      <trkpt lat="43.00907167" lon="-1.318685">
        <ele>942.0</ele>
        <time>2019-08-01T11:13:59.038Z</time>
      </trkpt>
      <trkpt lat="43.00908" lon="-1.31867833">
        <ele>942.0</ele>
        <time>2019-08-01T11:13:59.919Z</time>
      </trkpt>
      <trkpt lat="43.00909167" lon="-1.31867333">
        <ele>942.0</ele>
        <time>2019-08-01T11:14:00.927Z</time>
      </trkpt>
      <trkpt lat="43.00910333" lon="-1.318665">
        <ele>942.0</ele>
        <time>2019-08-01T11:14:01.931Z</time>
      </trkpt>
      <trkpt lat="43.00911167" lon="-1.318655">
        <ele>942.0</ele>
        <time>2019-08-01T11:14:02.938Z</time>
      </trkpt>
      <trkpt lat="43.00912" lon="-1.318645">
        <ele>942.0</ele>
        <time>2019-08-01T11:14:03.944Z</time>
      </trkpt>
      <trkpt lat="43.00912833" lon="-1.31863167">
        <ele>943.0</ele>
        <time>2019-08-01T11:14:04.951Z</time>
      </trkpt>
      <trkpt lat="43.00913833" lon="-1.31862333">
        <ele>943.0</ele>
        <time>2019-08-01T11:14:05.958Z</time>
      </trkpt>
      <trkpt lat="43.00915" lon="-1.318615">
        <ele>943.0</ele>
        <time>2019-08-01T11:14:06.965Z</time>
      </trkpt>
      <trkpt lat="43.00915667" lon="-1.31861">
        <ele>944.0</ele>
        <time>2019-08-01T11:14:07.971Z</time>
      </trkpt>
      <trkpt lat="43.009165" lon="-1.31860333">
        <ele>945.0</ele>
        <time>2019-08-01T11:14:08.976Z</time>
      </trkpt>
      <trkpt lat="43.00917333" lon="-1.31859333">
        <ele>945.0</ele>
        <time>2019-08-01T11:14:09.983Z</time>
      </trkpt>
      <trkpt lat="43.00918167" lon="-1.318585">
        <ele>945.0</ele>
        <time>2019-08-01T11:14:10.985Z</time>
      </trkpt>
      <trkpt lat="43.00919167" lon="-1.31857833">
        <ele>946.0</ele>
        <time>2019-08-01T11:14:11.990Z</time>
      </trkpt>
      <trkpt lat="43.00919667" lon="-1.31857167">
        <ele>946.0</ele>
        <time>2019-08-01T11:14:12.994Z</time>
      </trkpt>
      <trkpt lat="43.009205" lon="-1.31856167">
        <ele>947.0</ele>
        <time>2019-08-01T11:14:14.001Z</time>
      </trkpt>
      <trkpt lat="43.00921167" lon="-1.31855167">
        <ele>947.0</ele>
        <time>2019-08-01T11:14:15.006Z</time>
      </trkpt>
      <trkpt lat="43.00921833" lon="-1.31853833">
        <ele>946.0</ele>
        <time>2019-08-01T11:14:16.011Z</time>
      </trkpt>
      <trkpt lat="43.009225" lon="-1.31852833">
        <ele>946.0</ele>
        <time>2019-08-01T11:14:17.018Z</time>
      </trkpt>
      <trkpt lat="43.00922667" lon="-1.31852167">
        <ele>946.0</ele>
        <time>2019-08-01T11:14:18.025Z</time>
      </trkpt>
      <trkpt lat="43.00922667" lon="-1.31852">
        <ele>946.0</ele>
        <time>2019-08-01T11:14:19.030Z</time>
      </trkpt>
      <trkpt lat="43.00922333" lon="-1.31852333">
        <ele>946.0</ele>
        <time>2019-08-01T11:14:20.034Z</time>
      </trkpt>
      <trkpt lat="43.00921833" lon="-1.31852667">
        <ele>946.0</ele>
        <time>2019-08-01T11:14:21.041Z</time>
      </trkpt>
      <trkpt lat="43.009215" lon="-1.31852667">
        <ele>947.0</ele>
        <time>2019-08-01T11:14:21.922Z</time>
      </trkpt>
      <trkpt lat="43.00921333" lon="-1.318525">
        <ele>947.0</ele>
        <time>2019-08-01T11:14:22.928Z</time>
      </trkpt>
      <trkpt lat="43.00921167" lon="-1.31852">
        <ele>947.0</ele>
        <time>2019-08-01T11:14:23.936Z</time>
      </trkpt>
      <trkpt lat="43.00921167" lon="-1.31851833">
        <ele>947.0</ele>
        <time>2019-08-01T11:14:24.942Z</time>
      </trkpt>
      <trkpt lat="43.00921333" lon="-1.318515">
        <ele>946.0</ele>
        <time>2019-08-01T11:14:25.946Z</time>
      </trkpt>
      <trkpt lat="43.00921167" lon="-1.31851833">
        <ele>946.0</ele>
        <time>2019-08-01T11:14:26.951Z</time>
      </trkpt>
      <trkpt lat="43.00921333" lon="-1.318525">
        <ele>947.0</ele>
        <time>2019-08-01T11:14:27.956Z</time>
      </trkpt>
      <trkpt lat="43.00921167" lon="-1.31852667">
        <ele>947.0</ele>
        <time>2019-08-01T11:14:28.961Z</time>
      </trkpt>
      <trkpt lat="43.00921" lon="-1.31852667">
        <ele>946.0</ele>
        <time>2019-08-01T11:14:29.966Z</time>
      </trkpt>
      <trkpt lat="43.00920833" lon="-1.318525">
        <ele>946.0</ele>
        <time>2019-08-01T11:14:30.971Z</time>
      </trkpt>
      <trkpt lat="43.00920833" lon="-1.31852333">
        <ele>946.0</ele>
        <time>2019-08-01T11:14:31.977Z</time>
      </trkpt>
      <trkpt lat="43.00920667" lon="-1.31852667">
        <ele>946.0</ele>
        <time>2019-08-01T11:14:32.980Z</time>
      </trkpt>
      <trkpt lat="43.009205" lon="-1.31852667">
        <ele>946.0</ele>
        <time>2019-08-01T11:14:33.986Z</time>
      </trkpt>
      <trkpt lat="43.009205" lon="-1.31852333">
        <ele>946.0</ele>
        <time>2019-08-01T11:14:34.991Z</time>
      </trkpt>
      <trkpt lat="43.00920167" lon="-1.31852167">
        <ele>946.0</ele>
        <time>2019-08-01T11:14:35.997Z</time>
      </trkpt>
      <trkpt lat="43.00919833" lon="-1.31851833">
        <ele>946.0</ele>
        <time>2019-08-01T11:14:37.001Z</time>
      </trkpt>
      <trkpt lat="43.00919833" lon="-1.31851">
        <ele>945.0</ele>
        <time>2019-08-01T11:14:38.006Z</time>
      </trkpt>
      <trkpt lat="43.0092" lon="-1.318505">
        <ele>945.0</ele>
        <time>2019-08-01T11:14:39.014Z</time>
      </trkpt>
      <trkpt lat="43.009205" lon="-1.318495">
        <ele>943.0</ele>
        <time>2019-08-01T11:14:40.019Z</time>
      </trkpt>
      <trkpt lat="43.00920833" lon="-1.31848667">
        <ele>942.0</ele>
        <time>2019-08-01T11:14:41.026Z</time>
      </trkpt>
      <trkpt lat="43.00921" lon="-1.31848167">
        <ele>941.0</ele>
        <time>2019-08-01T11:14:42.032Z</time>
      </trkpt>
      <trkpt lat="43.00920833" lon="-1.31848333">
        <ele>941.0</ele>
        <time>2019-08-01T11:14:43.039Z</time>
      </trkpt>
      <trkpt lat="43.00921333" lon="-1.31848">
        <ele>939.0</ele>
        <time>2019-08-01T11:14:43.919Z</time>
      </trkpt>
      <trkpt lat="43.00921333" lon="-1.31848167">
        <ele>939.0</ele>
        <time>2019-08-01T11:14:44.925Z</time>
      </trkpt>
      <trkpt lat="43.00921333" lon="-1.31848333">
        <ele>939.0</ele>
        <time>2019-08-01T11:14:45.931Z</time>
      </trkpt>
      <trkpt lat="43.00921333" lon="-1.31848167">
        <ele>938.0</ele>
        <time>2019-08-01T11:14:46.939Z</time>
      </trkpt>
      <trkpt lat="43.00921333" lon="-1.31847833">
        <ele>937.0</ele>
        <time>2019-08-01T11:14:47.945Z</time>
      </trkpt>
      <trkpt lat="43.00921167" lon="-1.31847667">
        <ele>937.0</ele>
        <time>2019-08-01T11:14:48.951Z</time>
      </trkpt>
      <trkpt lat="43.00921167" lon="-1.31847667">
        <ele>937.0</ele>
        <time>2019-08-01T11:14:49.957Z</time>
      </trkpt>
      <trkpt lat="43.00920667" lon="-1.31847333">
        <ele>937.0</ele>
        <time>2019-08-01T11:14:50.963Z</time>
      </trkpt>
      <trkpt lat="43.009205" lon="-1.31846667">
        <ele>937.0</ele>
        <time>2019-08-01T11:14:51.970Z</time>
      </trkpt>
      <trkpt lat="43.009205" lon="-1.31846">
        <ele>936.0</ele>
        <time>2019-08-01T11:14:52.976Z</time>
      </trkpt>
      <trkpt lat="43.00920333" lon="-1.31845667">
        <ele>936.0</ele>
        <time>2019-08-01T11:14:53.980Z</time>
      </trkpt>
      <trkpt lat="43.00920333" lon="-1.31845333">
        <ele>936.0</ele>
        <time>2019-08-01T11:14:54.986Z</time>
      </trkpt>
      <trkpt lat="43.00920167" lon="-1.31845333">
        <ele>935.0</ele>
        <time>2019-08-01T11:14:55.990Z</time>
      </trkpt>
      <trkpt lat="43.00920167" lon="-1.31845">
        <ele>934.0</ele>
        <time>2019-08-01T11:14:56.997Z</time>
      </trkpt>
      <trkpt lat="43.00920333" lon="-1.31844167">
        <ele>934.0</ele>
        <time>2019-08-01T11:14:57.999Z</time>
      </trkpt>
      <trkpt lat="43.00920167" lon="-1.318435">
        <ele>933.0</ele>
        <time>2019-08-01T11:14:59.006Z</time>
      </trkpt>
      <trkpt lat="43.0092" lon="-1.31843167">
        <ele>933.0</ele>
        <time>2019-08-01T11:15:00.013Z</time>
      </trkpt>
      <trkpt lat="43.00919833" lon="-1.318425">
        <ele>933.0</ele>
        <time>2019-08-01T11:15:01.019Z</time>
      </trkpt>
      <trkpt lat="43.00919667" lon="-1.318425">
        <ele>933.0</ele>
        <time>2019-08-01T11:15:02.025Z</time>
      </trkpt>
      <trkpt lat="43.00920167" lon="-1.31842167">
        <ele>932.0</ele>
        <time>2019-08-01T11:15:03.031Z</time>
      </trkpt>
      <trkpt lat="43.00920667" lon="-1.31841667">
        <ele>931.0</ele>
        <time>2019-08-01T11:15:04.035Z</time>
      </trkpt>
      <trkpt lat="43.00920667" lon="-1.31841667">
        <ele>930.0</ele>
        <time>2019-08-01T11:15:05.040Z</time>
      </trkpt>
      <trkpt lat="43.009205" lon="-1.31841833">
        <ele>930.0</ele>
        <time>2019-08-01T11:15:05.921Z</time>
      </trkpt>
      <trkpt lat="43.00920833" lon="-1.31842">
        <ele>930.0</ele>
        <time>2019-08-01T11:15:06.928Z</time>
      </trkpt>
      <trkpt lat="43.00921333" lon="-1.31842">
        <ele>931.0</ele>
        <time>2019-08-01T11:15:07.934Z</time>
      </trkpt>
      <trkpt lat="43.00921667" lon="-1.31841667">
        <ele>931.0</ele>
        <time>2019-08-01T11:15:08.939Z</time>
      </trkpt>
      <trkpt lat="43.00921833" lon="-1.318415">
        <ele>931.0</ele>
        <time>2019-08-01T11:15:09.945Z</time>
      </trkpt>
      <trkpt lat="43.00922167" lon="-1.31841833">
        <ele>930.0</ele>
        <time>2019-08-01T11:15:10.949Z</time>
      </trkpt>
      <trkpt lat="43.009225" lon="-1.31842333">
        <ele>930.0</ele>
        <time>2019-08-01T11:15:11.954Z</time>
      </trkpt>
      <trkpt lat="43.00922667" lon="-1.31843">
        <ele>930.0</ele>
        <time>2019-08-01T11:15:12.960Z</time>
      </trkpt>
      <trkpt lat="43.00923333" lon="-1.31843667">
        <ele>929.0</ele>
        <time>2019-08-01T11:15:13.966Z</time>
      </trkpt>
      <trkpt lat="43.00924" lon="-1.31844">
        <ele>928.0</ele>
        <time>2019-08-01T11:15:14.971Z</time>
      </trkpt>
      <trkpt lat="43.009245" lon="-1.31844667">
        <ele>927.0</ele>
        <time>2019-08-01T11:15:15.976Z</time>
      </trkpt>
      <trkpt lat="43.00924167" lon="-1.31845">
        <ele>927.0</ele>
        <time>2019-08-01T11:15:16.983Z</time>
      </trkpt>
      <trkpt lat="43.00923833" lon="-1.318455">
        <ele>927.0</ele>
        <time>2019-08-01T11:15:17.989Z</time>
      </trkpt>
      <trkpt lat="43.00924167" lon="-1.31846333">
        <ele>926.0</ele>
        <time>2019-08-01T11:15:18.995Z</time>
      </trkpt>
      <trkpt lat="43.00924333" lon="-1.318465">
        <ele>926.0</ele>
        <time>2019-08-01T11:15:20.002Z</time>
      </trkpt>
      <trkpt lat="43.00924333" lon="-1.318465">
        <ele>926.0</ele>
        <time>2019-08-01T11:15:21.010Z</time>
      </trkpt>
      <trkpt lat="43.009245" lon="-1.31846667">
        <ele>926.0</ele>
        <time>2019-08-01T11:15:22.017Z</time>
      </trkpt>
      <trkpt lat="43.00924167" lon="-1.31846667">
        <ele>927.0</ele>
        <time>2019-08-01T11:15:23.025Z</time>
      </trkpt>
      <trkpt lat="43.00922667" lon="-1.31847">
        <ele>929.0</ele>
        <time>2019-08-01T11:15:24.029Z</time>
      </trkpt>
      <trkpt lat="43.00922333" lon="-1.31847333">
        <ele>930.0</ele>
        <time>2019-08-01T11:15:25.034Z</time>
      </trkpt>
      <trkpt lat="43.009225" lon="-1.31847667">
        <ele>930.0</ele>
        <time>2019-08-01T11:15:26.040Z</time>
      </trkpt>
      <trkpt lat="43.009225" lon="-1.31847667">
        <ele>930.0</ele>
        <time>2019-08-01T11:15:26.921Z</time>
      </trkpt>
      <trkpt lat="43.00922667" lon="-1.31847667">
        <ele>930.0</ele>
        <time>2019-08-01T11:15:27.925Z</time>
      </trkpt>
      <trkpt lat="43.00922833" lon="-1.31847667">
        <ele>930.0</ele>
        <time>2019-08-01T11:15:28.932Z</time>
      </trkpt>
      <trkpt lat="43.00923" lon="-1.31847667">
        <ele>931.0</ele>
        <time>2019-08-01T11:15:29.937Z</time>
      </trkpt>
      <trkpt lat="43.00923" lon="-1.318475">
        <ele>931.0</ele>
        <time>2019-08-01T11:15:30.944Z</time>
      </trkpt>
      <trkpt lat="43.00922833" lon="-1.31847333">
        <ele>931.0</ele>
        <time>2019-08-01T11:15:31.950Z</time>
      </trkpt>
      <trkpt lat="43.00922667" lon="-1.31847333">
        <ele>932.0</ele>
        <time>2019-08-01T11:15:32.957Z</time>
      </trkpt>
      <trkpt lat="43.00922667" lon="-1.318475">
        <ele>933.0</ele>
        <time>2019-08-01T11:15:33.962Z</time>
      </trkpt>
      <trkpt lat="43.00922333" lon="-1.31847667">
        <ele>933.0</ele>
        <time>2019-08-01T11:15:34.967Z</time>
      </trkpt>
      <trkpt lat="43.00922167" lon="-1.318475">
        <ele>934.0</ele>
        <time>2019-08-01T11:15:35.971Z</time>
      </trkpt>
      <trkpt lat="43.00921833" lon="-1.31847167">
        <ele>934.0</ele>
        <time>2019-08-01T11:15:36.976Z</time>
      </trkpt>
      <trkpt lat="43.00921667" lon="-1.31847">
        <ele>935.0</ele>
        <time>2019-08-01T11:15:37.982Z</time>
      </trkpt>
      <trkpt lat="43.009215" lon="-1.31846833">
        <ele>935.0</ele>
        <time>2019-08-01T11:15:38.987Z</time>
      </trkpt>
      <trkpt lat="43.009215" lon="-1.31846833">
        <ele>935.0</ele>
        <time>2019-08-01T11:15:39.991Z</time>
      </trkpt>
      <trkpt lat="43.00921333" lon="-1.31846833">
        <ele>936.0</ele>
        <time>2019-08-01T11:15:40.996Z</time>
      </trkpt>
      <trkpt lat="43.00921167" lon="-1.318465">
        <ele>937.0</ele>
        <time>2019-08-01T11:15:42.002Z</time>
      </trkpt>
      <trkpt lat="43.00921" lon="-1.31846">
        <ele>938.0</ele>
        <time>2019-08-01T11:15:43.010Z</time>
      </trkpt>
      <trkpt lat="43.00921" lon="-1.31845833">
        <ele>938.0</ele>
        <time>2019-08-01T11:15:44.016Z</time>
      </trkpt>
      <trkpt lat="43.00920833" lon="-1.31845667">
        <ele>938.0</ele>
        <time>2019-08-01T11:15:45.021Z</time>
      </trkpt>
      <trkpt lat="43.00921" lon="-1.318455">
        <ele>938.0</ele>
        <time>2019-08-01T11:15:46.027Z</time>
      </trkpt>
      <trkpt lat="43.00921" lon="-1.31845167">
        <ele>938.0</ele>
        <time>2019-08-01T11:15:47.031Z</time>
      </trkpt>
      <trkpt lat="43.00921167" lon="-1.31844833">
        <ele>937.0</ele>
        <time>2019-08-01T11:15:48.038Z</time>
      </trkpt>
      <trkpt lat="43.00921167" lon="-1.318445">
        <ele>936.0</ele>
        <time>2019-08-01T11:15:48.919Z</time>
      </trkpt>
      <trkpt lat="43.00921167" lon="-1.31844333">
        <ele>936.0</ele>
        <time>2019-08-01T11:15:49.925Z</time>
      </trkpt>
      <trkpt lat="43.00921167" lon="-1.31844333">
        <ele>935.0</ele>
        <time>2019-08-01T11:15:50.933Z</time>
      </trkpt>
      <trkpt lat="43.00921333" lon="-1.31844167">
        <ele>934.0</ele>
        <time>2019-08-01T11:15:51.941Z</time>
      </trkpt>
      <trkpt lat="43.00921333" lon="-1.31844167">
        <ele>933.0</ele>
        <time>2019-08-01T11:15:52.947Z</time>
      </trkpt>
      <trkpt lat="43.00921333" lon="-1.31844">
        <ele>933.0</ele>
        <time>2019-08-01T11:15:53.951Z</time>
      </trkpt>
      <trkpt lat="43.009215" lon="-1.31843667">
        <ele>932.0</ele>
        <time>2019-08-01T11:15:54.958Z</time>
      </trkpt>
      <trkpt lat="43.009215" lon="-1.318435">
        <ele>931.0</ele>
        <time>2019-08-01T11:15:55.962Z</time>
      </trkpt>
      <trkpt lat="43.00921333" lon="-1.31843167">
        <ele>931.0</ele>
        <time>2019-08-01T11:15:56.967Z</time>
      </trkpt>
      <trkpt lat="43.009215" lon="-1.31843">
        <ele>931.0</ele>
        <time>2019-08-01T11:15:57.973Z</time>
      </trkpt>
      <trkpt lat="43.00921333" lon="-1.31843">
        <ele>931.0</ele>
        <time>2019-08-01T11:15:58.978Z</time>
      </trkpt>
      <trkpt lat="43.00921333" lon="-1.31843">
        <ele>930.0</ele>
        <time>2019-08-01T11:15:59.983Z</time>
      </trkpt>
      <trkpt lat="43.00921167" lon="-1.31842667">
        <ele>929.0</ele>
        <time>2019-08-01T11:16:00.989Z</time>
      </trkpt>
      <trkpt lat="43.00921167" lon="-1.318425">
        <ele>929.0</ele>
        <time>2019-08-01T11:16:01.993Z</time>
      </trkpt>
      <trkpt lat="43.00921" lon="-1.318425">
        <ele>928.0</ele>
        <time>2019-08-01T11:16:03.000Z</time>
      </trkpt>
      <trkpt lat="43.00921" lon="-1.31842667">
        <ele>928.0</ele>
        <time>2019-08-01T11:16:04.005Z</time>
      </trkpt>
      <trkpt lat="43.00921" lon="-1.31842667">
        <ele>927.0</ele>
        <time>2019-08-01T11:16:05.012Z</time>
      </trkpt>
      <trkpt lat="43.00921" lon="-1.31843">
        <ele>927.0</ele>
        <time>2019-08-01T11:16:06.018Z</time>
      </trkpt>
      <trkpt lat="43.009215" lon="-1.31843333">
        <ele>926.0</ele>
        <time>2019-08-01T11:16:07.024Z</time>
      </trkpt>
      <trkpt lat="43.00921667" lon="-1.31843667">
        <ele>926.0</ele>
        <time>2019-08-01T11:16:08.030Z</time>
      </trkpt>
      <trkpt lat="43.00921667" lon="-1.31844">
        <ele>927.0</ele>
        <time>2019-08-01T11:16:09.036Z</time>
      </trkpt>
      <trkpt lat="43.00921833" lon="-1.31844">
        <ele>927.0</ele>
        <time>2019-08-01T11:16:09.919Z</time>
      </trkpt>
      <trkpt lat="43.00922167" lon="-1.31844">
        <ele>926.0</ele>
        <time>2019-08-01T11:16:10.925Z</time>
      </trkpt>
      <trkpt lat="43.00922333" lon="-1.31843667">
        <ele>926.0</ele>
        <time>2019-08-01T11:16:11.932Z</time>
      </trkpt>
      <trkpt lat="43.009225" lon="-1.31843333">
        <ele>927.0</ele>
        <time>2019-08-01T11:16:12.940Z</time>
      </trkpt>
      <trkpt lat="43.00923" lon="-1.318435">
        <ele>926.0</ele>
        <time>2019-08-01T11:16:13.945Z</time>
      </trkpt>
      <trkpt lat="43.00923167" lon="-1.31843833">
        <ele>926.0</ele>
        <time>2019-08-01T11:16:14.949Z</time>
      </trkpt>
      <trkpt lat="43.00923" lon="-1.31844167">
        <ele>926.0</ele>
        <time>2019-08-01T11:16:15.956Z</time>
      </trkpt>
      <trkpt lat="43.00923" lon="-1.31843833">
        <ele>926.0</ele>
        <time>2019-08-01T11:16:16.962Z</time>
      </trkpt>
      <trkpt lat="43.00923" lon="-1.31843667">
        <ele>925.0</ele>
        <time>2019-08-01T11:16:17.968Z</time>
      </trkpt>
      <trkpt lat="43.009235" lon="-1.31844333">
        <ele>925.0</ele>
        <time>2019-08-01T11:16:18.972Z</time>
      </trkpt>
      <trkpt lat="43.00923833" lon="-1.31844667">
        <ele>924.0</ele>
        <time>2019-08-01T11:16:19.976Z</time>
      </trkpt>
      <trkpt lat="43.00924" lon="-1.31844833">
        <ele>923.0</ele>
        <time>2019-08-01T11:16:20.983Z</time>
      </trkpt>
      <trkpt lat="43.00924333" lon="-1.31844667">
        <ele>923.0</ele>
        <time>2019-08-01T11:16:21.990Z</time>
      </trkpt>
      <trkpt lat="43.00924667" lon="-1.31844833">
        <ele>923.0</ele>
        <time>2019-08-01T11:16:22.994Z</time>
      </trkpt>
      <trkpt lat="43.00924667" lon="-1.31844833">
        <ele>923.0</ele>
        <time>2019-08-01T11:16:24.000Z</time>
      </trkpt>
      <trkpt lat="43.00924833" lon="-1.31844833">
        <ele>922.0</ele>
        <time>2019-08-01T11:16:25.007Z</time>
      </trkpt>
      <trkpt lat="43.00924833" lon="-1.31844667">
        <ele>922.0</ele>
        <time>2019-08-01T11:16:26.014Z</time>
      </trkpt>
      <trkpt lat="43.00925167" lon="-1.318445">
        <ele>922.0</ele>
        <time>2019-08-01T11:16:27.020Z</time>
      </trkpt>
      <trkpt lat="43.00925167" lon="-1.31844167">
        <ele>922.0</ele>
        <time>2019-08-01T11:16:28.028Z</time>
      </trkpt>
      <trkpt lat="43.009255" lon="-1.31843667">
        <ele>922.0</ele>
        <time>2019-08-01T11:16:29.033Z</time>
      </trkpt>
      <trkpt lat="43.009255" lon="-1.31843333">
        <ele>922.0</ele>
        <time>2019-08-01T11:16:30.040Z</time>
      </trkpt>
      <trkpt lat="43.009255" lon="-1.31842833">
        <ele>922.0</ele>
        <time>2019-08-01T11:16:30.921Z</time>
      </trkpt>
      <trkpt lat="43.00925333" lon="-1.31842667">
        <ele>923.0</ele>
        <time>2019-08-01T11:16:31.929Z</time>
      </trkpt>
      <trkpt lat="43.00925" lon="-1.31842167">
        <ele>923.0</ele>
        <time>2019-08-01T11:16:32.936Z</time>
      </trkpt>
      <trkpt lat="43.00924667" lon="-1.31841833">
        <ele>924.0</ele>
        <time>2019-08-01T11:16:33.942Z</time>
      </trkpt>
      <trkpt lat="43.009245" lon="-1.31841833">
        <ele>925.0</ele>
        <time>2019-08-01T11:16:34.948Z</time>
      </trkpt>
      <trkpt lat="43.00924167" lon="-1.31841833">
        <ele>926.0</ele>
        <time>2019-08-01T11:16:35.954Z</time>
      </trkpt>
      <trkpt lat="43.00923833" lon="-1.31842167">
        <ele>926.0</ele>
        <time>2019-08-01T11:16:36.960Z</time>
      </trkpt>
      <trkpt lat="43.009235" lon="-1.31842167">
        <ele>927.0</ele>
        <time>2019-08-01T11:16:37.966Z</time>
      </trkpt>
      <trkpt lat="43.00923167" lon="-1.31842333">
        <ele>928.0</ele>
        <time>2019-08-01T11:16:38.970Z</time>
      </trkpt>
      <trkpt lat="43.00923" lon="-1.31842333">
        <ele>929.0</ele>
        <time>2019-08-01T11:16:39.975Z</time>
      </trkpt>
      <trkpt lat="43.00923333" lon="-1.31842">
        <ele>928.0</ele>
        <time>2019-08-01T11:16:40.980Z</time>
      </trkpt>
      <trkpt lat="43.009235" lon="-1.31841833">
        <ele>927.0</ele>
        <time>2019-08-01T11:16:41.988Z</time>
      </trkpt>
      <trkpt lat="43.009235" lon="-1.31841667">
        <ele>927.0</ele>
        <time>2019-08-01T11:16:42.991Z</time>
      </trkpt>
      <trkpt lat="43.009235" lon="-1.31841667">
        <ele>926.0</ele>
        <time>2019-08-01T11:16:43.997Z</time>
      </trkpt>
      <trkpt lat="43.00923333" lon="-1.31841667">
        <ele>926.0</ele>
        <time>2019-08-01T11:16:45.003Z</time>
      </trkpt>
      <trkpt lat="43.00923" lon="-1.318415">
        <ele>926.0</ele>
        <time>2019-08-01T11:16:46.010Z</time>
      </trkpt>
      <trkpt lat="43.00923" lon="-1.318415">
        <ele>925.0</ele>
        <time>2019-08-01T11:16:47.015Z</time>
      </trkpt>
      <trkpt lat="43.00922833" lon="-1.318415">
        <ele>925.0</ele>
        <time>2019-08-01T11:16:48.022Z</time>
      </trkpt>
      <trkpt lat="43.00922667" lon="-1.31841167">
        <ele>925.0</ele>
        <time>2019-08-01T11:16:49.027Z</time>
      </trkpt>
      <trkpt lat="43.009225" lon="-1.31841">
        <ele>925.0</ele>
        <time>2019-08-01T11:16:50.032Z</time>
      </trkpt>
      <trkpt lat="43.00922333" lon="-1.31840667">
        <ele>925.0</ele>
        <time>2019-08-01T11:16:51.040Z</time>
      </trkpt>
      <trkpt lat="43.00922167" lon="-1.31840167">
        <ele>926.0</ele>
        <time>2019-08-01T11:16:51.921Z</time>
      </trkpt>
      <trkpt lat="43.00921833" lon="-1.31839833">
        <ele>926.0</ele>
        <time>2019-08-01T11:16:52.926Z</time>
      </trkpt>
      <trkpt lat="43.00921333" lon="-1.318395">
        <ele>926.0</ele>
        <time>2019-08-01T11:16:53.933Z</time>
      </trkpt>
      <trkpt lat="43.00921333" lon="-1.318395">
        <ele>926.0</ele>
        <time>2019-08-01T11:16:54.939Z</time>
      </trkpt>
      <trkpt lat="43.009215" lon="-1.31839667">
        <ele>926.0</ele>
        <time>2019-08-01T11:16:55.946Z</time>
      </trkpt>
      <trkpt lat="43.00921667" lon="-1.31839667">
        <ele>925.0</ele>
        <time>2019-08-01T11:16:56.950Z</time>
      </trkpt>
      <trkpt lat="43.00921667" lon="-1.31839333">
        <ele>925.0</ele>
        <time>2019-08-01T11:16:57.958Z</time>
      </trkpt>
      <trkpt lat="43.00921333" lon="-1.31839">
        <ele>925.0</ele>
        <time>2019-08-01T11:16:58.962Z</time>
      </trkpt>
      <trkpt lat="43.00921167" lon="-1.31838667">
        <ele>925.0</ele>
        <time>2019-08-01T11:16:59.966Z</time>
      </trkpt>
      <trkpt lat="43.00921" lon="-1.318385">
        <ele>925.0</ele>
        <time>2019-08-01T11:17:00.969Z</time>
      </trkpt>
      <trkpt lat="43.00921" lon="-1.31838333">
        <ele>925.0</ele>
        <time>2019-08-01T11:17:01.973Z</time>
      </trkpt>
      <trkpt lat="43.00920667" lon="-1.31838667">
        <ele>925.0</ele>
        <time>2019-08-01T11:17:02.979Z</time>
      </trkpt>
      <trkpt lat="43.009205" lon="-1.31838833">
        <ele>925.0</ele>
        <time>2019-08-01T11:17:03.985Z</time>
      </trkpt>
      <trkpt lat="43.00920167" lon="-1.31838833">
        <ele>925.0</ele>
        <time>2019-08-01T11:17:04.991Z</time>
      </trkpt>
      <trkpt lat="43.00920167" lon="-1.31839167">
        <ele>925.0</ele>
        <time>2019-08-01T11:17:05.997Z</time>
      </trkpt>
      <trkpt lat="43.00920167" lon="-1.31839167">
        <ele>925.0</ele>
        <time>2019-08-01T11:17:07.004Z</time>
      </trkpt>
    </trkseg>
  </trk>
</gpx>
